<?xml version="1.0" encoding="UTF-8" standalone="no" ?>
<gpx xmlns="http://www.topografix.com/GPX/1/1" xmlns:xsi="http://www.w3.org/2001/XMLSchema-instance" xsi:schemaLocation="http://www.topografix.com/GPX/1/1 http://www.topografix.com/GPX/1/1/gpx.xsd" version="1.1" creator="VisuGPX - https://www.visugpx.com">
  <metadata>
    <name>glaris-engelberg(f)</name>
  </metadata>
  <trk>
    <name><![CDATA[glaris-engelberg(f)_2]]></name>
    <extensions>
      <line xmlns="http://www.topografix.com/GPX/gpx_style/0/2">
        <color>ff2600</color>
        <width>4</width>
      </line>
    </extensions>
    <trkseg>
      <trkpt lat="47.01965" lon="8.6568">
        <ele>530</ele>
        <time>2021-08-05T08:24:31.368Z</time>
      </trkpt>
      <trkpt lat="47.01965" lon="8.6568">
        <ele>530</ele>
        <time>2021-08-05T08:24:31.368Z</time>
      </trkpt>
      <trkpt lat="47.01965" lon="8.6568">
        <ele>530</ele>
        <time>2021-08-05T08:24:31.368Z</time>
      </trkpt>
      <trkpt lat="47.01964" lon="8.65679">
        <ele>529</ele>
        <time>2021-08-05T08:24:32.369Z</time>
      </trkpt>
      <trkpt lat="47.01963" lon="8.65677">
        <ele>529</ele>
        <time>2021-08-05T08:24:33.369Z</time>
      </trkpt>
      <trkpt lat="47.01962" lon="8.65676">
        <ele>528</ele>
        <time>2021-08-05T08:24:34.369Z</time>
      </trkpt>
      <trkpt lat="47.01961" lon="8.65674">
        <ele>528</ele>
        <time>2021-08-05T08:24:35.369Z</time>
      </trkpt>
      <trkpt lat="47.0196" lon="8.65672">
        <ele>527</ele>
        <time>2021-08-05T08:24:36.369Z</time>
      </trkpt>
      <trkpt lat="47.0196" lon="8.65671">
        <ele>526</ele>
        <time>2021-08-05T08:24:37.369Z</time>
      </trkpt>
      <trkpt lat="47.0196" lon="8.65669">
        <ele>526</ele>
        <time>2021-08-05T08:24:38.368Z</time>
      </trkpt>
      <trkpt lat="47.01959" lon="8.65667">
        <ele>525</ele>
        <time>2021-08-05T08:24:39.369Z</time>
      </trkpt>
      <trkpt lat="47.01959" lon="8.65666">
        <ele>524</ele>
        <time>2021-08-05T08:24:40.369Z</time>
      </trkpt>
      <trkpt lat="47.01959" lon="8.65665">
        <ele>524</ele>
        <time>2021-08-05T08:24:41.368Z</time>
      </trkpt>
      <trkpt lat="47.0196" lon="8.65665">
        <ele>523</ele>
        <time>2021-08-05T08:24:42.368Z</time>
      </trkpt>
      <trkpt lat="47.0196" lon="8.65664">
        <ele>523</ele>
        <time>2021-08-05T08:24:43.368Z</time>
      </trkpt>
      <trkpt lat="47.0196" lon="8.65663">
        <ele>523</ele>
        <time>2021-08-05T08:24:44.368Z</time>
      </trkpt>
      <trkpt lat="47.01959" lon="8.65662">
        <ele>522</ele>
        <time>2021-08-05T08:24:45.369Z</time>
      </trkpt>
      <trkpt lat="47.01959" lon="8.65661">
        <ele>522</ele>
        <time>2021-08-05T08:24:46.369Z</time>
      </trkpt>
      <trkpt lat="47.01959" lon="8.6566">
        <ele>522</ele>
        <time>2021-08-05T08:24:47.369Z</time>
      </trkpt>
      <trkpt lat="47.01958" lon="8.65658">
        <ele>522</ele>
        <time>2021-08-05T08:24:48.369Z</time>
      </trkpt>
      <trkpt lat="47.01957" lon="8.65657">
        <ele>521</ele>
        <time>2021-08-05T08:24:49.369Z</time>
      </trkpt>
      <trkpt lat="47.01957" lon="8.65656">
        <ele>521</ele>
        <time>2021-08-05T08:24:50.369Z</time>
      </trkpt>
      <trkpt lat="47.01956" lon="8.65655">
        <ele>521</ele>
        <time>2021-08-05T08:24:51.368Z</time>
      </trkpt>
      <trkpt lat="47.01956" lon="8.65655">
        <ele>521</ele>
        <time>2021-08-05T08:24:52.369Z</time>
      </trkpt>
      <trkpt lat="47.01955" lon="8.65654">
        <ele>521</ele>
        <time>2021-08-05T08:24:53.369Z</time>
      </trkpt>
      <trkpt lat="47.01954" lon="8.65654">
        <ele>521</ele>
        <time>2021-08-05T08:24:54.369Z</time>
      </trkpt>
      <trkpt lat="47.01954" lon="8.65653">
        <ele>521</ele>
        <time>2021-08-05T08:24:55.368Z</time>
      </trkpt>
      <trkpt lat="47.01953" lon="8.65651">
        <ele>520</ele>
        <time>2021-08-05T08:24:56.368Z</time>
      </trkpt>
      <trkpt lat="47.01952" lon="8.65649">
        <ele>520</ele>
        <time>2021-08-05T08:24:57.368Z</time>
      </trkpt>
      <trkpt lat="47.01951" lon="8.65648">
        <ele>520</ele>
        <time>2021-08-05T08:24:58.368Z</time>
      </trkpt>
      <trkpt lat="47.01951" lon="8.65647">
        <ele>520</ele>
        <time>2021-08-05T08:24:59.368Z</time>
      </trkpt>
      <trkpt lat="47.01951" lon="8.65646">
        <ele>520</ele>
        <time>2021-08-05T08:25:00.368Z</time>
      </trkpt>
      <trkpt lat="47.0195" lon="8.65644">
        <ele>520</ele>
        <time>2021-08-05T08:25:01.368Z</time>
      </trkpt>
      <trkpt lat="47.01949" lon="8.65642">
        <ele>520</ele>
        <time>2021-08-05T08:25:02.368Z</time>
      </trkpt>
      <trkpt lat="47.01949" lon="8.65639">
        <ele>520</ele>
        <time>2021-08-05T08:25:03.368Z</time>
      </trkpt>
      <trkpt lat="47.01949" lon="8.65638">
        <ele>520</ele>
        <time>2021-08-05T08:25:04.368Z</time>
      </trkpt>
      <trkpt lat="47.01948" lon="8.65636">
        <ele>520</ele>
        <time>2021-08-05T08:25:05.368Z</time>
      </trkpt>
      <trkpt lat="47.01947" lon="8.65634">
        <ele>520</ele>
        <time>2021-08-05T08:25:06.368Z</time>
      </trkpt>
      <trkpt lat="47.01946" lon="8.65632">
        <ele>520</ele>
        <time>2021-08-05T08:25:07.369Z</time>
      </trkpt>
      <trkpt lat="47.01946" lon="8.6563">
        <ele>520</ele>
        <time>2021-08-05T08:25:08.368Z</time>
      </trkpt>
      <trkpt lat="47.01946" lon="8.65629">
        <ele>520</ele>
        <time>2021-08-05T08:25:09.369Z</time>
      </trkpt>
      <trkpt lat="47.01946" lon="8.65627">
        <ele>520</ele>
        <time>2021-08-05T08:25:10.368Z</time>
      </trkpt>
      <trkpt lat="47.01945" lon="8.65625">
        <ele>520</ele>
        <time>2021-08-05T08:25:11.369Z</time>
      </trkpt>
      <trkpt lat="47.01945" lon="8.65624">
        <ele>521</ele>
        <time>2021-08-05T08:25:12.369Z</time>
      </trkpt>
      <trkpt lat="47.01945" lon="8.65622">
        <ele>521</ele>
        <time>2021-08-05T08:25:13.369Z</time>
      </trkpt>
      <trkpt lat="47.01944" lon="8.6562">
        <ele>521</ele>
        <time>2021-08-05T08:25:14.369Z</time>
      </trkpt>
      <trkpt lat="47.01943" lon="8.65618">
        <ele>521</ele>
        <time>2021-08-05T08:25:15.369Z</time>
      </trkpt>
      <trkpt lat="47.01943" lon="8.65616">
        <ele>521</ele>
        <time>2021-08-05T08:25:16.369Z</time>
      </trkpt>
      <trkpt lat="47.01943" lon="8.65615">
        <ele>521</ele>
        <time>2021-08-05T08:25:17.369Z</time>
      </trkpt>
      <trkpt lat="47.01942" lon="8.65613">
        <ele>522</ele>
        <time>2021-08-05T08:25:18.369Z</time>
      </trkpt>
      <trkpt lat="47.01942" lon="8.6561">
        <ele>522</ele>
        <time>2021-08-05T08:25:19.368Z</time>
      </trkpt>
      <trkpt lat="47.01941" lon="8.65608">
        <ele>522</ele>
        <time>2021-08-05T08:25:20.369Z</time>
      </trkpt>
      <trkpt lat="47.01941" lon="8.65606">
        <ele>522</ele>
        <time>2021-08-05T08:25:21.368Z</time>
      </trkpt>
      <trkpt lat="47.01941" lon="8.65605">
        <ele>522</ele>
        <time>2021-08-05T08:25:22.368Z</time>
      </trkpt>
      <trkpt lat="47.0194" lon="8.65602">
        <ele>523</ele>
        <time>2021-08-05T08:25:23.369Z</time>
      </trkpt>
      <trkpt lat="47.01939" lon="8.656">
        <ele>523</ele>
        <time>2021-08-05T08:25:24.368Z</time>
      </trkpt>
      <trkpt lat="47.01938" lon="8.65598">
        <ele>523</ele>
        <time>2021-08-05T08:25:25.368Z</time>
      </trkpt>
      <trkpt lat="47.01937" lon="8.65596">
        <ele>523</ele>
        <time>2021-08-05T08:25:26.368Z</time>
      </trkpt>
      <trkpt lat="47.01935" lon="8.65593">
        <ele>524</ele>
        <time>2021-08-05T08:25:27.368Z</time>
      </trkpt>
      <trkpt lat="47.01932" lon="8.65589">
        <ele>524</ele>
        <time>2021-08-05T08:25:28.369Z</time>
      </trkpt>
      <trkpt lat="47.01931" lon="8.65585">
        <ele>524</ele>
        <time>2021-08-05T08:25:29.369Z</time>
      </trkpt>
      <trkpt lat="47.0193" lon="8.65583">
        <ele>525</ele>
        <time>2021-08-05T08:25:30.369Z</time>
      </trkpt>
      <trkpt lat="47.0193" lon="8.65582">
        <ele>525</ele>
        <time>2021-08-05T08:25:31.369Z</time>
      </trkpt>
      <trkpt lat="47.01929" lon="8.65582">
        <ele>525</ele>
        <time>2021-08-05T08:25:32.369Z</time>
      </trkpt>
      <trkpt lat="47.01929" lon="8.65581">
        <ele>526</ele>
        <time>2021-08-05T08:25:33.369Z</time>
      </trkpt>
      <trkpt lat="47.01928" lon="8.6558">
        <ele>526</ele>
        <time>2021-08-05T08:25:34.368Z</time>
      </trkpt>
      <trkpt lat="47.01927" lon="8.65579">
        <ele>526</ele>
        <time>2021-08-05T08:25:35.369Z</time>
      </trkpt>
      <trkpt lat="47.01926" lon="8.65578">
        <ele>526</ele>
        <time>2021-08-05T08:25:36.368Z</time>
      </trkpt>
      <trkpt lat="47.01925" lon="8.65577">
        <ele>526</ele>
        <time>2021-08-05T08:25:37.369Z</time>
      </trkpt>
      <trkpt lat="47.01924" lon="8.65576">
        <ele>526</ele>
        <time>2021-08-05T08:25:38.369Z</time>
      </trkpt>
      <trkpt lat="47.01923" lon="8.65575">
        <ele>526</ele>
        <time>2021-08-05T08:25:39.369Z</time>
      </trkpt>
      <trkpt lat="47.01922" lon="8.65574">
        <ele>526</ele>
        <time>2021-08-05T08:25:40.368Z</time>
      </trkpt>
      <trkpt lat="47.01921" lon="8.65573">
        <ele>526</ele>
        <time>2021-08-05T08:25:41.369Z</time>
      </trkpt>
      <trkpt lat="47.0192" lon="8.65572">
        <ele>526</ele>
        <time>2021-08-05T08:25:42.369Z</time>
      </trkpt>
      <trkpt lat="47.01919" lon="8.65571">
        <ele>526</ele>
        <time>2021-08-05T08:25:43.369Z</time>
      </trkpt>
      <trkpt lat="47.01918" lon="8.6557">
        <ele>526</ele>
        <time>2021-08-05T08:25:44.369Z</time>
      </trkpt>
      <trkpt lat="47.01917" lon="8.6557">
        <ele>526</ele>
        <time>2021-08-05T08:25:45.368Z</time>
      </trkpt>
      <trkpt lat="47.01916" lon="8.65569">
        <ele>526</ele>
        <time>2021-08-05T08:25:46.369Z</time>
      </trkpt>
      <trkpt lat="47.01915" lon="8.65569">
        <ele>526</ele>
        <time>2021-08-05T08:25:47.368Z</time>
      </trkpt>
      <trkpt lat="47.01913" lon="8.65568">
        <ele>526</ele>
        <time>2021-08-05T08:25:48.369Z</time>
      </trkpt>
      <trkpt lat="47.01911" lon="8.65566">
        <ele>526</ele>
        <time>2021-08-05T08:25:49.369Z</time>
      </trkpt>
      <trkpt lat="47.0191" lon="8.65566">
        <ele>526</ele>
        <time>2021-08-05T08:25:50.369Z</time>
      </trkpt>
      <trkpt lat="47.01909" lon="8.65564">
        <ele>526</ele>
        <time>2021-08-05T08:25:51.369Z</time>
      </trkpt>
      <trkpt lat="47.01908" lon="8.65563">
        <ele>525</ele>
        <time>2021-08-05T08:25:52.369Z</time>
      </trkpt>
      <trkpt lat="47.01907" lon="8.65562">
        <ele>525</ele>
        <time>2021-08-05T08:25:53.368Z</time>
      </trkpt>
      <trkpt lat="47.01906" lon="8.65561">
        <ele>525</ele>
        <time>2021-08-05T08:25:54.368Z</time>
      </trkpt>
      <trkpt lat="47.01905" lon="8.65561">
        <ele>524</ele>
        <time>2021-08-05T08:25:55.369Z</time>
      </trkpt>
      <trkpt lat="47.01904" lon="8.65561">
        <ele>523</ele>
        <time>2021-08-05T08:25:56.369Z</time>
      </trkpt>
      <trkpt lat="47.01903" lon="8.6556">
        <ele>523</ele>
        <time>2021-08-05T08:25:57.369Z</time>
      </trkpt>
      <trkpt lat="47.01901" lon="8.65559">
        <ele>522</ele>
        <time>2021-08-05T08:25:58.369Z</time>
      </trkpt>
      <trkpt lat="47.019" lon="8.65558">
        <ele>521</ele>
        <time>2021-08-05T08:25:59.368Z</time>
      </trkpt>
      <trkpt lat="47.01899" lon="8.65558">
        <ele>520</ele>
        <time>2021-08-05T08:26:00.369Z</time>
      </trkpt>
      <trkpt lat="47.01898" lon="8.65558">
        <ele>520</ele>
        <time>2021-08-05T08:26:01.369Z</time>
      </trkpt>
      <trkpt lat="47.01897" lon="8.65557">
        <ele>519</ele>
        <time>2021-08-05T08:26:02.369Z</time>
      </trkpt>
      <trkpt lat="47.01896" lon="8.65557">
        <ele>518</ele>
        <time>2021-08-05T08:26:03.368Z</time>
      </trkpt>
      <trkpt lat="47.01895" lon="8.65557">
        <ele>518</ele>
        <time>2021-08-05T08:26:04.369Z</time>
      </trkpt>
      <trkpt lat="47.01894" lon="8.65556">
        <ele>517</ele>
        <time>2021-08-05T08:26:05.369Z</time>
      </trkpt>
      <trkpt lat="47.01893" lon="8.65555">
        <ele>517</ele>
        <time>2021-08-05T08:26:06.369Z</time>
      </trkpt>
      <trkpt lat="47.01892" lon="8.65555">
        <ele>516</ele>
        <time>2021-08-05T08:26:07.369Z</time>
      </trkpt>
      <trkpt lat="47.01891" lon="8.65554">
        <ele>516</ele>
        <time>2021-08-05T08:26:08.368Z</time>
      </trkpt>
      <trkpt lat="47.01891" lon="8.65553">
        <ele>516</ele>
        <time>2021-08-05T08:26:09.368Z</time>
      </trkpt>
      <trkpt lat="47.01889" lon="8.65553">
        <ele>515</ele>
        <time>2021-08-05T08:26:10.368Z</time>
      </trkpt>
      <trkpt lat="47.01888" lon="8.65552">
        <ele>515</ele>
        <time>2021-08-05T08:26:11.368Z</time>
      </trkpt>
      <trkpt lat="47.01887" lon="8.65552">
        <ele>515</ele>
        <time>2021-08-05T08:26:12.368Z</time>
      </trkpt>
      <trkpt lat="47.01886" lon="8.65551">
        <ele>515</ele>
        <time>2021-08-05T08:26:13.369Z</time>
      </trkpt>
      <trkpt lat="47.01885" lon="8.65551">
        <ele>514</ele>
        <time>2021-08-05T08:26:14.368Z</time>
      </trkpt>
      <trkpt lat="47.01884" lon="8.6555">
        <ele>514</ele>
        <time>2021-08-05T08:26:15.369Z</time>
      </trkpt>
      <trkpt lat="47.01884" lon="8.6555">
        <ele>514</ele>
        <time>2021-08-05T08:26:16.368Z</time>
      </trkpt>
      <trkpt lat="47.01883" lon="8.65549">
        <ele>514</ele>
        <time>2021-08-05T08:26:17.368Z</time>
      </trkpt>
      <trkpt lat="47.01882" lon="8.65547">
        <ele>513</ele>
        <time>2021-08-05T08:26:18.369Z</time>
      </trkpt>
      <trkpt lat="47.01881" lon="8.65546">
        <ele>513</ele>
        <time>2021-08-05T08:26:19.368Z</time>
      </trkpt>
      <trkpt lat="47.0188" lon="8.65545">
        <ele>513</ele>
        <time>2021-08-05T08:26:20.368Z</time>
      </trkpt>
      <trkpt lat="47.0188" lon="8.65545">
        <ele>512</ele>
        <time>2021-08-05T08:26:21.368Z</time>
      </trkpt>
      <trkpt lat="47.01876" lon="8.65542">
        <ele>510</ele>
        <time>2021-08-05T08:26:22.369Z</time>
      </trkpt>
      <trkpt lat="47.01875" lon="8.65541">
        <ele>510</ele>
        <time>2021-08-05T08:26:23.369Z</time>
      </trkpt>
      <trkpt lat="47.01875" lon="8.65541">
        <ele>509</ele>
        <time>2021-08-05T08:26:24.368Z</time>
      </trkpt>
      <trkpt lat="47.01874" lon="8.65541">
        <ele>509</ele>
        <time>2021-08-05T08:26:25.369Z</time>
      </trkpt>
      <trkpt lat="47.01874" lon="8.6554">
        <ele>508</ele>
        <time>2021-08-05T08:26:26.369Z</time>
      </trkpt>
      <trkpt lat="47.01874" lon="8.6554">
        <ele>507</ele>
        <time>2021-08-05T08:26:27.369Z</time>
      </trkpt>
      <trkpt lat="47.01873" lon="8.6554">
        <ele>506</ele>
        <time>2021-08-05T08:26:28.368Z</time>
      </trkpt>
      <trkpt lat="47.01872" lon="8.6554">
        <ele>505</ele>
        <time>2021-08-05T08:26:29.369Z</time>
      </trkpt>
      <trkpt lat="47.01871" lon="8.6554">
        <ele>504</ele>
        <time>2021-08-05T08:26:30.369Z</time>
      </trkpt>
      <trkpt lat="47.01871" lon="8.6554">
        <ele>503</ele>
        <time>2021-08-05T08:26:31.369Z</time>
      </trkpt>
      <trkpt lat="47.0187" lon="8.6554">
        <ele>503</ele>
        <time>2021-08-05T08:26:32.369Z</time>
      </trkpt>
      <trkpt lat="47.01869" lon="8.65539">
        <ele>502</ele>
        <time>2021-08-05T08:26:33.368Z</time>
      </trkpt>
      <trkpt lat="47.01868" lon="8.65538">
        <ele>501</ele>
        <time>2021-08-05T08:26:34.369Z</time>
      </trkpt>
      <trkpt lat="47.01867" lon="8.65537">
        <ele>501</ele>
        <time>2021-08-05T08:26:35.368Z</time>
      </trkpt>
      <trkpt lat="47.01866" lon="8.65535">
        <ele>500</ele>
        <time>2021-08-05T08:26:36.369Z</time>
      </trkpt>
      <trkpt lat="47.01865" lon="8.65534">
        <ele>500</ele>
        <time>2021-08-05T08:26:37.368Z</time>
      </trkpt>
      <trkpt lat="47.01864" lon="8.65533">
        <ele>500</ele>
        <time>2021-08-05T08:26:38.369Z</time>
      </trkpt>
      <trkpt lat="47.01863" lon="8.65532">
        <ele>500</ele>
        <time>2021-08-05T08:26:39.369Z</time>
      </trkpt>
      <trkpt lat="47.01862" lon="8.6553">
        <ele>500</ele>
        <time>2021-08-05T08:26:40.369Z</time>
      </trkpt>
      <trkpt lat="47.0186" lon="8.65529">
        <ele>500</ele>
        <time>2021-08-05T08:26:41.369Z</time>
      </trkpt>
      <trkpt lat="47.01859" lon="8.65528">
        <ele>501</ele>
        <time>2021-08-05T08:26:42.368Z</time>
      </trkpt>
      <trkpt lat="47.01858" lon="8.65527">
        <ele>501</ele>
        <time>2021-08-05T08:26:43.369Z</time>
      </trkpt>
      <trkpt lat="47.01857" lon="8.65526">
        <ele>502</ele>
        <time>2021-08-05T08:26:44.369Z</time>
      </trkpt>
      <trkpt lat="47.01856" lon="8.65526">
        <ele>502</ele>
        <time>2021-08-05T08:26:45.369Z</time>
      </trkpt>
      <trkpt lat="47.01855" lon="8.65525">
        <ele>501</ele>
        <time>2021-08-05T08:26:46.368Z</time>
      </trkpt>
      <trkpt lat="47.01854" lon="8.65524">
        <ele>501</ele>
        <time>2021-08-05T08:26:47.369Z</time>
      </trkpt>
      <trkpt lat="47.01853" lon="8.65523">
        <ele>501</ele>
        <time>2021-08-05T08:26:48.369Z</time>
      </trkpt>
      <trkpt lat="47.01852" lon="8.65522">
        <ele>501</ele>
        <time>2021-08-05T08:26:49.369Z</time>
      </trkpt>
      <trkpt lat="47.01851" lon="8.65522">
        <ele>501</ele>
        <time>2021-08-05T08:26:50.369Z</time>
      </trkpt>
      <trkpt lat="47.0185" lon="8.65521">
        <ele>500</ele>
        <time>2021-08-05T08:26:51.369Z</time>
      </trkpt>
      <trkpt lat="47.01849" lon="8.65521">
        <ele>500</ele>
        <time>2021-08-05T08:26:52.368Z</time>
      </trkpt>
      <trkpt lat="47.01848" lon="8.6552">
        <ele>500</ele>
        <time>2021-08-05T08:26:53.369Z</time>
      </trkpt>
      <trkpt lat="47.01848" lon="8.6552">
        <ele>500</ele>
        <time>2021-08-05T08:26:54.368Z</time>
      </trkpt>
      <trkpt lat="47.01847" lon="8.65519">
        <ele>501</ele>
        <time>2021-08-05T08:26:55.369Z</time>
      </trkpt>
      <trkpt lat="47.01846" lon="8.65518">
        <ele>501</ele>
        <time>2021-08-05T08:26:56.369Z</time>
      </trkpt>
      <trkpt lat="47.01846" lon="8.65518">
        <ele>501</ele>
        <time>2021-08-05T08:26:57.369Z</time>
      </trkpt>
      <trkpt lat="47.01845" lon="8.65516">
        <ele>502</ele>
        <time>2021-08-05T08:26:58.369Z</time>
      </trkpt>
      <trkpt lat="47.01844" lon="8.65515">
        <ele>502</ele>
        <time>2021-08-05T08:26:59.369Z</time>
      </trkpt>
      <trkpt lat="47.01844" lon="8.65515">
        <ele>502</ele>
        <time>2021-08-05T08:27:00.369Z</time>
      </trkpt>
      <trkpt lat="47.01843" lon="8.65514">
        <ele>503</ele>
        <time>2021-08-05T08:27:01.369Z</time>
      </trkpt>
      <trkpt lat="47.01843" lon="8.65513">
        <ele>503</ele>
        <time>2021-08-05T08:27:02.368Z</time>
      </trkpt>
      <trkpt lat="47.01842" lon="8.65511">
        <ele>504</ele>
        <time>2021-08-05T08:27:03.369Z</time>
      </trkpt>
      <trkpt lat="47.01842" lon="8.65509">
        <ele>504</ele>
        <time>2021-08-05T08:27:04.369Z</time>
      </trkpt>
      <trkpt lat="47.01842" lon="8.65508">
        <ele>504</ele>
        <time>2021-08-05T08:27:05.369Z</time>
      </trkpt>
      <trkpt lat="47.01841" lon="8.65507">
        <ele>505</ele>
        <time>2021-08-05T08:27:06.369Z</time>
      </trkpt>
      <trkpt lat="47.01841" lon="8.65507">
        <ele>505</ele>
        <time>2021-08-05T08:27:07.369Z</time>
      </trkpt>
      <trkpt lat="47.0184" lon="8.65508">
        <ele>505</ele>
        <time>2021-08-05T08:27:08.368Z</time>
      </trkpt>
      <trkpt lat="47.01841" lon="8.65509">
        <ele>506</ele>
        <time>2021-08-05T08:27:09.369Z</time>
      </trkpt>
      <trkpt lat="47.01841" lon="8.65509">
        <ele>506</ele>
        <time>2021-08-05T08:27:10.368Z</time>
      </trkpt>
      <trkpt lat="47.0184" lon="8.65509">
        <ele>506</ele>
        <time>2021-08-05T08:27:11.368Z</time>
      </trkpt>
      <trkpt lat="47.0184" lon="8.65508">
        <ele>506</ele>
        <time>2021-08-05T08:27:12.368Z</time>
      </trkpt>
      <trkpt lat="47.0184" lon="8.65508">
        <ele>507</ele>
        <time>2021-08-05T08:27:13.369Z</time>
      </trkpt>
      <trkpt lat="47.0184" lon="8.65507">
        <ele>507</ele>
        <time>2021-08-05T08:27:14.369Z</time>
      </trkpt>
      <trkpt lat="47.01839" lon="8.65506">
        <ele>507</ele>
        <time>2021-08-05T08:27:15.368Z</time>
      </trkpt>
      <trkpt lat="47.01839" lon="8.65506">
        <ele>507</ele>
        <time>2021-08-05T08:27:16.369Z</time>
      </trkpt>
      <trkpt lat="47.01839" lon="8.65506">
        <ele>508</ele>
        <time>2021-08-05T08:27:17.369Z</time>
      </trkpt>
      <trkpt lat="47.01838" lon="8.65506">
        <ele>508</ele>
        <time>2021-08-05T08:27:18.369Z</time>
      </trkpt>
      <trkpt lat="47.01838" lon="8.65506">
        <ele>509</ele>
        <time>2021-08-05T08:27:19.368Z</time>
      </trkpt>
      <trkpt lat="47.01837" lon="8.65506">
        <ele>509</ele>
        <time>2021-08-05T08:27:20.368Z</time>
      </trkpt>
      <trkpt lat="47.01837" lon="8.65505">
        <ele>509</ele>
        <time>2021-08-05T08:27:21.369Z</time>
      </trkpt>
      <trkpt lat="47.01836" lon="8.65504">
        <ele>510</ele>
        <time>2021-08-05T08:27:22.368Z</time>
      </trkpt>
      <trkpt lat="47.01835" lon="8.65503">
        <ele>510</ele>
        <time>2021-08-05T08:27:23.369Z</time>
      </trkpt>
      <trkpt lat="47.01834" lon="8.65502">
        <ele>510</ele>
        <time>2021-08-05T08:27:24.369Z</time>
      </trkpt>
      <trkpt lat="47.01833" lon="8.655">
        <ele>511</ele>
        <time>2021-08-05T08:27:25.369Z</time>
      </trkpt>
      <trkpt lat="47.01832" lon="8.65498">
        <ele>511</ele>
        <time>2021-08-05T08:27:26.368Z</time>
      </trkpt>
      <trkpt lat="47.01831" lon="8.65495">
        <ele>511</ele>
        <time>2021-08-05T08:27:27.368Z</time>
      </trkpt>
      <trkpt lat="47.01829" lon="8.65492">
        <ele>511</ele>
        <time>2021-08-05T08:27:28.369Z</time>
      </trkpt>
      <trkpt lat="47.01829" lon="8.65491">
        <ele>511</ele>
        <time>2021-08-05T08:27:29.369Z</time>
      </trkpt>
      <trkpt lat="47.01828" lon="8.65488">
        <ele>511</ele>
        <time>2021-08-05T08:27:30.369Z</time>
      </trkpt>
      <trkpt lat="47.01827" lon="8.65485">
        <ele>511</ele>
        <time>2021-08-05T08:27:31.368Z</time>
      </trkpt>
      <trkpt lat="47.01826" lon="8.65483">
        <ele>510</ele>
        <time>2021-08-05T08:27:32.368Z</time>
      </trkpt>
      <trkpt lat="47.01825" lon="8.65481">
        <ele>510</ele>
        <time>2021-08-05T08:27:33.369Z</time>
      </trkpt>
      <trkpt lat="47.01824" lon="8.6548">
        <ele>509</ele>
        <time>2021-08-05T08:27:34.369Z</time>
      </trkpt>
      <trkpt lat="47.01823" lon="8.65478">
        <ele>507</ele>
        <time>2021-08-05T08:27:35.369Z</time>
      </trkpt>
      <trkpt lat="47.01823" lon="8.65477">
        <ele>506</ele>
        <time>2021-08-05T08:27:36.368Z</time>
      </trkpt>
      <trkpt lat="47.01822" lon="8.65475">
        <ele>506</ele>
        <time>2021-08-05T08:27:37.368Z</time>
      </trkpt>
      <trkpt lat="47.01821" lon="8.65473">
        <ele>505</ele>
        <time>2021-08-05T08:27:38.369Z</time>
      </trkpt>
      <trkpt lat="47.0182" lon="8.65472">
        <ele>505</ele>
        <time>2021-08-05T08:27:39.369Z</time>
      </trkpt>
      <trkpt lat="47.01819" lon="8.6547">
        <ele>505</ele>
        <time>2021-08-05T08:27:40.369Z</time>
      </trkpt>
      <trkpt lat="47.01818" lon="8.65468">
        <ele>505</ele>
        <time>2021-08-05T08:27:41.369Z</time>
      </trkpt>
      <trkpt lat="47.01817" lon="8.65466">
        <ele>504</ele>
        <time>2021-08-05T08:27:42.368Z</time>
      </trkpt>
      <trkpt lat="47.01816" lon="8.65463">
        <ele>504</ele>
        <time>2021-08-05T08:27:43.369Z</time>
      </trkpt>
      <trkpt lat="47.01816" lon="8.65461">
        <ele>504</ele>
        <time>2021-08-05T08:27:44.369Z</time>
      </trkpt>
      <trkpt lat="47.01815" lon="8.65459">
        <ele>503</ele>
        <time>2021-08-05T08:27:45.369Z</time>
      </trkpt>
      <trkpt lat="47.01814" lon="8.65457">
        <ele>503</ele>
        <time>2021-08-05T08:27:46.368Z</time>
      </trkpt>
      <trkpt lat="47.01813" lon="8.65456">
        <ele>502</ele>
        <time>2021-08-05T08:27:47.369Z</time>
      </trkpt>
      <trkpt lat="47.01812" lon="8.65453">
        <ele>502</ele>
        <time>2021-08-05T08:27:48.369Z</time>
      </trkpt>
      <trkpt lat="47.0181" lon="8.65451">
        <ele>501</ele>
        <time>2021-08-05T08:27:49.369Z</time>
      </trkpt>
      <trkpt lat="47.0181" lon="8.65451">
        <ele>501</ele>
        <time>2021-08-05T08:27:50.369Z</time>
      </trkpt>
      <trkpt lat="47.0181" lon="8.65451">
        <ele>501</ele>
        <time>2021-08-05T08:27:51.369Z</time>
      </trkpt>
      <trkpt lat="47.01809" lon="8.6545">
        <ele>500</ele>
        <time>2021-08-05T08:27:52.369Z</time>
      </trkpt>
      <trkpt lat="47.01809" lon="8.65449">
        <ele>500</ele>
        <time>2021-08-05T08:27:53.369Z</time>
      </trkpt>
      <trkpt lat="47.01807" lon="8.65447">
        <ele>500</ele>
        <time>2021-08-05T08:27:54.369Z</time>
      </trkpt>
      <trkpt lat="47.01807" lon="8.65445">
        <ele>500</ele>
        <time>2021-08-05T08:27:55.369Z</time>
      </trkpt>
      <trkpt lat="47.01807" lon="8.65444">
        <ele>499</ele>
        <time>2021-08-05T08:27:56.368Z</time>
      </trkpt>
      <trkpt lat="47.01807" lon="8.65444">
        <ele>499</ele>
        <time>2021-08-05T08:27:57.368Z</time>
      </trkpt>
      <trkpt lat="47.01806" lon="8.65442">
        <ele>499</ele>
        <time>2021-08-05T08:27:58.368Z</time>
      </trkpt>
      <trkpt lat="47.01806" lon="8.65441">
        <ele>499</ele>
        <time>2021-08-05T08:27:59.369Z</time>
      </trkpt>
      <trkpt lat="47.01806" lon="8.6544">
        <ele>499</ele>
        <time>2021-08-05T08:28:00.369Z</time>
      </trkpt>
      <trkpt lat="47.01805" lon="8.65439">
        <ele>498</ele>
        <time>2021-08-05T08:28:01.368Z</time>
      </trkpt>
      <trkpt lat="47.01804" lon="8.65437">
        <ele>498</ele>
        <time>2021-08-05T08:28:02.369Z</time>
      </trkpt>
      <trkpt lat="47.01804" lon="8.65435">
        <ele>498</ele>
        <time>2021-08-05T08:28:03.369Z</time>
      </trkpt>
      <trkpt lat="47.01803" lon="8.65434">
        <ele>498</ele>
        <time>2021-08-05T08:28:04.368Z</time>
      </trkpt>
      <trkpt lat="47.01803" lon="8.65433">
        <ele>498</ele>
        <time>2021-08-05T08:28:05.368Z</time>
      </trkpt>
      <trkpt lat="47.01803" lon="8.65432">
        <ele>498</ele>
        <time>2021-08-05T08:28:06.368Z</time>
      </trkpt>
      <trkpt lat="47.01801" lon="8.6543">
        <ele>498</ele>
        <time>2021-08-05T08:28:07.369Z</time>
      </trkpt>
      <trkpt lat="47.018" lon="8.65429">
        <ele>498</ele>
        <time>2021-08-05T08:28:08.369Z</time>
      </trkpt>
      <trkpt lat="47.01799" lon="8.65425">
        <ele>498</ele>
        <time>2021-08-05T08:28:09.368Z</time>
      </trkpt>
      <trkpt lat="47.01798" lon="8.65424">
        <ele>497</ele>
        <time>2021-08-05T08:28:10.368Z</time>
      </trkpt>
      <trkpt lat="47.01798" lon="8.65422">
        <ele>498</ele>
        <time>2021-08-05T08:28:11.369Z</time>
      </trkpt>
      <trkpt lat="47.01797" lon="8.6542">
        <ele>498</ele>
        <time>2021-08-05T08:28:12.369Z</time>
      </trkpt>
      <trkpt lat="47.01796" lon="8.65418">
        <ele>498</ele>
        <time>2021-08-05T08:28:13.369Z</time>
      </trkpt>
      <trkpt lat="47.01796" lon="8.65417">
        <ele>498</ele>
        <time>2021-08-05T08:28:14.368Z</time>
      </trkpt>
      <trkpt lat="47.01796" lon="8.65416">
        <ele>497</ele>
        <time>2021-08-05T08:28:15.369Z</time>
      </trkpt>
      <trkpt lat="47.01796" lon="8.65416">
        <ele>497</ele>
        <time>2021-08-05T08:28:16.369Z</time>
      </trkpt>
      <trkpt lat="47.01796" lon="8.65415">
        <ele>496</ele>
        <time>2021-08-05T08:28:17.368Z</time>
      </trkpt>
      <trkpt lat="47.01796" lon="8.65414">
        <ele>496</ele>
        <time>2021-08-05T08:28:18.369Z</time>
      </trkpt>
      <trkpt lat="47.01796" lon="8.65413">
        <ele>495</ele>
        <time>2021-08-05T08:28:19.369Z</time>
      </trkpt>
      <trkpt lat="47.01796" lon="8.65413">
        <ele>495</ele>
        <time>2021-08-05T08:28:20.369Z</time>
      </trkpt>
      <trkpt lat="47.01797" lon="8.65412">
        <ele>495</ele>
        <time>2021-08-05T08:28:21.369Z</time>
      </trkpt>
      <trkpt lat="47.01797" lon="8.65411">
        <ele>495</ele>
        <time>2021-08-05T08:28:22.369Z</time>
      </trkpt>
      <trkpt lat="47.01798" lon="8.6541">
        <ele>495</ele>
        <time>2021-08-05T08:28:23.369Z</time>
      </trkpt>
      <trkpt lat="47.01797" lon="8.65409">
        <ele>495</ele>
        <time>2021-08-05T08:28:24.368Z</time>
      </trkpt>
      <trkpt lat="47.01798" lon="8.65411">
        <ele>495</ele>
        <time>2021-08-05T08:28:25.369Z</time>
      </trkpt>
      <trkpt lat="47.01798" lon="8.65411">
        <ele>495</ele>
        <time>2021-08-05T08:28:26.369Z</time>
      </trkpt>
      <trkpt lat="47.01796" lon="8.6541">
        <ele>488</ele>
        <time>2021-08-05T08:28:27.369Z</time>
      </trkpt>
      <trkpt lat="47.01796" lon="8.6541">
        <ele>487</ele>
        <time>2021-08-05T08:28:28.370Z</time>
      </trkpt>
      <trkpt lat="47.01794" lon="8.65409">
        <ele>487</ele>
        <time>2021-08-05T08:28:29.370Z</time>
      </trkpt>
      <trkpt lat="47.01795" lon="8.65409">
        <ele>488</ele>
        <time>2021-08-05T08:28:30.370Z</time>
      </trkpt>
      <trkpt lat="47.01795" lon="8.65407">
        <ele>486</ele>
        <time>2021-08-05T08:28:31.370Z</time>
      </trkpt>
      <trkpt lat="47.01794" lon="8.65405">
        <ele>486</ele>
        <time>2021-08-05T08:28:32.370Z</time>
      </trkpt>
      <trkpt lat="47.01793" lon="8.65404">
        <ele>485</ele>
        <time>2021-08-05T08:28:33.369Z</time>
      </trkpt>
      <trkpt lat="47.01792" lon="8.65403">
        <ele>484</ele>
        <time>2021-08-05T08:28:34.371Z</time>
      </trkpt>
      <trkpt lat="47.0179" lon="8.65403">
        <ele>484</ele>
        <time>2021-08-05T08:28:35.370Z</time>
      </trkpt>
      <trkpt lat="47.0179" lon="8.65404">
        <ele>484</ele>
        <time>2021-08-05T08:28:36.370Z</time>
      </trkpt>
      <trkpt lat="47.01789" lon="8.65404">
        <ele>484</ele>
        <time>2021-08-05T08:28:37.371Z</time>
      </trkpt>
      <trkpt lat="47.01787" lon="8.65404">
        <ele>484</ele>
        <time>2021-08-05T08:28:38.371Z</time>
      </trkpt>
      <trkpt lat="47.01786" lon="8.65405">
        <ele>485</ele>
        <time>2021-08-05T08:28:39.371Z</time>
      </trkpt>
      <trkpt lat="47.01785" lon="8.65405">
        <ele>485</ele>
        <time>2021-08-05T08:28:40.370Z</time>
      </trkpt>
      <trkpt lat="47.01784" lon="8.65405">
        <ele>486</ele>
        <time>2021-08-05T08:28:41.370Z</time>
      </trkpt>
      <trkpt lat="47.01783" lon="8.65406">
        <ele>486</ele>
        <time>2021-08-05T08:28:42.371Z</time>
      </trkpt>
      <trkpt lat="47.01782" lon="8.65406">
        <ele>486</ele>
        <time>2021-08-05T08:28:43.370Z</time>
      </trkpt>
      <trkpt lat="47.01781" lon="8.65408">
        <ele>487</ele>
        <time>2021-08-05T08:28:44.371Z</time>
      </trkpt>
      <trkpt lat="47.0178" lon="8.65409">
        <ele>487</ele>
        <time>2021-08-05T08:28:45.370Z</time>
      </trkpt>
      <trkpt lat="47.0178" lon="8.6541">
        <ele>487</ele>
        <time>2021-08-05T08:28:46.370Z</time>
      </trkpt>
      <trkpt lat="47.01779" lon="8.65411">
        <ele>487</ele>
        <time>2021-08-05T08:28:47.370Z</time>
      </trkpt>
      <trkpt lat="47.01778" lon="8.65412">
        <ele>488</ele>
        <time>2021-08-05T08:28:48.371Z</time>
      </trkpt>
      <trkpt lat="47.01777" lon="8.65413">
        <ele>488</ele>
        <time>2021-08-05T08:28:49.371Z</time>
      </trkpt>
      <trkpt lat="47.01776" lon="8.65414">
        <ele>489</ele>
        <time>2021-08-05T08:28:50.371Z</time>
      </trkpt>
      <trkpt lat="47.01776" lon="8.65415">
        <ele>489</ele>
        <time>2021-08-05T08:28:51.371Z</time>
      </trkpt>
      <trkpt lat="47.01775" lon="8.65416">
        <ele>489</ele>
        <time>2021-08-05T08:28:52.371Z</time>
      </trkpt>
      <trkpt lat="47.01774" lon="8.65417">
        <ele>489</ele>
        <time>2021-08-05T08:28:53.371Z</time>
      </trkpt>
      <trkpt lat="47.01774" lon="8.65417">
        <ele>489</ele>
        <time>2021-08-05T08:28:54.370Z</time>
      </trkpt>
      <trkpt lat="47.01773" lon="8.65417">
        <ele>489</ele>
        <time>2021-08-05T08:28:55.371Z</time>
      </trkpt>
      <trkpt lat="47.01772" lon="8.65418">
        <ele>489</ele>
        <time>2021-08-05T08:28:56.371Z</time>
      </trkpt>
      <trkpt lat="47.01772" lon="8.65418">
        <ele>490</ele>
        <time>2021-08-05T08:28:57.370Z</time>
      </trkpt>
      <trkpt lat="47.01771" lon="8.65419">
        <ele>490</ele>
        <time>2021-08-05T08:28:58.371Z</time>
      </trkpt>
      <trkpt lat="47.0177" lon="8.65418">
        <ele>489</ele>
        <time>2021-08-05T08:28:59.371Z</time>
      </trkpt>
      <trkpt lat="47.01769" lon="8.65418">
        <ele>490</ele>
        <time>2021-08-05T08:29:00.371Z</time>
      </trkpt>
      <trkpt lat="47.01768" lon="8.65417">
        <ele>490</ele>
        <time>2021-08-05T08:29:01.371Z</time>
      </trkpt>
      <trkpt lat="47.01767" lon="8.65417">
        <ele>490</ele>
        <time>2021-08-05T08:29:02.371Z</time>
      </trkpt>
      <trkpt lat="47.01767" lon="8.65416">
        <ele>490</ele>
        <time>2021-08-05T08:29:03.370Z</time>
      </trkpt>
      <trkpt lat="47.01766" lon="8.65415">
        <ele>489</ele>
        <time>2021-08-05T08:29:04.371Z</time>
      </trkpt>
      <trkpt lat="47.01765" lon="8.65413">
        <ele>489</ele>
        <time>2021-08-05T08:29:05.370Z</time>
      </trkpt>
      <trkpt lat="47.01764" lon="8.65413">
        <ele>489</ele>
        <time>2021-08-05T08:29:06.371Z</time>
      </trkpt>
      <trkpt lat="47.01763" lon="8.65412">
        <ele>488</ele>
        <time>2021-08-05T08:29:07.371Z</time>
      </trkpt>
      <trkpt lat="47.01762" lon="8.65411">
        <ele>488</ele>
        <time>2021-08-05T08:29:08.371Z</time>
      </trkpt>
      <trkpt lat="47.01762" lon="8.6541">
        <ele>488</ele>
        <time>2021-08-05T08:29:09.370Z</time>
      </trkpt>
      <trkpt lat="47.01761" lon="8.6541">
        <ele>487</ele>
        <time>2021-08-05T08:29:10.370Z</time>
      </trkpt>
      <trkpt lat="47.0176" lon="8.65409">
        <ele>487</ele>
        <time>2021-08-05T08:29:11.371Z</time>
      </trkpt>
      <trkpt lat="47.01759" lon="8.65408">
        <ele>486</ele>
        <time>2021-08-05T08:29:12.370Z</time>
      </trkpt>
      <trkpt lat="47.01758" lon="8.65407">
        <ele>486</ele>
        <time>2021-08-05T08:29:13.371Z</time>
      </trkpt>
      <trkpt lat="47.01758" lon="8.65406">
        <ele>486</ele>
        <time>2021-08-05T08:29:14.370Z</time>
      </trkpt>
      <trkpt lat="47.01757" lon="8.65405">
        <ele>486</ele>
        <time>2021-08-05T08:29:15.370Z</time>
      </trkpt>
      <trkpt lat="47.01756" lon="8.65405">
        <ele>486</ele>
        <time>2021-08-05T08:29:16.371Z</time>
      </trkpt>
      <trkpt lat="47.01755" lon="8.65404">
        <ele>485</ele>
        <time>2021-08-05T08:29:17.370Z</time>
      </trkpt>
      <trkpt lat="47.01754" lon="8.65403">
        <ele>485</ele>
        <time>2021-08-05T08:29:18.371Z</time>
      </trkpt>
      <trkpt lat="47.01753" lon="8.65404">
        <ele>485</ele>
        <time>2021-08-05T08:29:19.371Z</time>
      </trkpt>
      <trkpt lat="47.01752" lon="8.65405">
        <ele>484</ele>
        <time>2021-08-05T08:29:20.370Z</time>
      </trkpt>
      <trkpt lat="47.01752" lon="8.65405">
        <ele>484</ele>
        <time>2021-08-05T08:29:21.371Z</time>
      </trkpt>
      <trkpt lat="47.01751" lon="8.65405">
        <ele>483</ele>
        <time>2021-08-05T08:29:22.370Z</time>
      </trkpt>
      <trkpt lat="47.0175" lon="8.65405">
        <ele>483</ele>
        <time>2021-08-05T08:29:23.370Z</time>
      </trkpt>
      <trkpt lat="47.01749" lon="8.65405">
        <ele>483</ele>
        <time>2021-08-05T08:29:24.371Z</time>
      </trkpt>
      <trkpt lat="47.01749" lon="8.65405">
        <ele>483</ele>
        <time>2021-08-05T08:29:25.371Z</time>
      </trkpt>
      <trkpt lat="47.01749" lon="8.65404">
        <ele>482</ele>
        <time>2021-08-05T08:29:26.370Z</time>
      </trkpt>
      <trkpt lat="47.01748" lon="8.65403">
        <ele>483</ele>
        <time>2021-08-05T08:29:27.371Z</time>
      </trkpt>
      <trkpt lat="47.01747" lon="8.65402">
        <ele>482</ele>
        <time>2021-08-05T08:29:28.370Z</time>
      </trkpt>
      <trkpt lat="47.01747" lon="8.65401">
        <ele>482</ele>
        <time>2021-08-05T08:29:29.371Z</time>
      </trkpt>
      <trkpt lat="47.01746" lon="8.65401">
        <ele>482</ele>
        <time>2021-08-05T08:29:30.370Z</time>
      </trkpt>
      <trkpt lat="47.01745" lon="8.654">
        <ele>482</ele>
        <time>2021-08-05T08:29:31.370Z</time>
      </trkpt>
      <trkpt lat="47.01744" lon="8.654">
        <ele>482</ele>
        <time>2021-08-05T08:29:32.370Z</time>
      </trkpt>
      <trkpt lat="47.01743" lon="8.65399">
        <ele>482</ele>
        <time>2021-08-05T08:29:33.371Z</time>
      </trkpt>
      <trkpt lat="47.01742" lon="8.65399">
        <ele>482</ele>
        <time>2021-08-05T08:29:34.371Z</time>
      </trkpt>
      <trkpt lat="47.01741" lon="8.65398">
        <ele>482</ele>
        <time>2021-08-05T08:29:35.371Z</time>
      </trkpt>
      <trkpt lat="47.0174" lon="8.65397">
        <ele>482</ele>
        <time>2021-08-05T08:29:36.371Z</time>
      </trkpt>
      <trkpt lat="47.01739" lon="8.65397">
        <ele>482</ele>
        <time>2021-08-05T08:29:37.371Z</time>
      </trkpt>
      <trkpt lat="47.01738" lon="8.65396">
        <ele>483</ele>
        <time>2021-08-05T08:29:38.371Z</time>
      </trkpt>
      <trkpt lat="47.01737" lon="8.65396">
        <ele>484</ele>
        <time>2021-08-05T08:29:39.371Z</time>
      </trkpt>
      <trkpt lat="47.01736" lon="8.65396">
        <ele>484</ele>
        <time>2021-08-05T08:29:40.371Z</time>
      </trkpt>
      <trkpt lat="47.01735" lon="8.65395">
        <ele>485</ele>
        <time>2021-08-05T08:29:41.371Z</time>
      </trkpt>
      <trkpt lat="47.01733" lon="8.65395">
        <ele>486</ele>
        <time>2021-08-05T08:29:42.370Z</time>
      </trkpt>
      <trkpt lat="47.01732" lon="8.65394">
        <ele>487</ele>
        <time>2021-08-05T08:29:43.371Z</time>
      </trkpt>
      <trkpt lat="47.01731" lon="8.65393">
        <ele>487</ele>
        <time>2021-08-05T08:29:44.371Z</time>
      </trkpt>
      <trkpt lat="47.01729" lon="8.65392">
        <ele>487</ele>
        <time>2021-08-05T08:29:45.371Z</time>
      </trkpt>
      <trkpt lat="47.01728" lon="8.65391">
        <ele>488</ele>
        <time>2021-08-05T08:29:46.370Z</time>
      </trkpt>
      <trkpt lat="47.01727" lon="8.65391">
        <ele>489</ele>
        <time>2021-08-05T08:29:47.370Z</time>
      </trkpt>
      <trkpt lat="47.01726" lon="8.6539">
        <ele>489</ele>
        <time>2021-08-05T08:29:48.371Z</time>
      </trkpt>
      <trkpt lat="47.01725" lon="8.6539">
        <ele>489</ele>
        <time>2021-08-05T08:29:49.371Z</time>
      </trkpt>
      <trkpt lat="47.01724" lon="8.6539">
        <ele>490</ele>
        <time>2021-08-05T08:29:50.371Z</time>
      </trkpt>
      <trkpt lat="47.01723" lon="8.65389">
        <ele>489</ele>
        <time>2021-08-05T08:29:51.371Z</time>
      </trkpt>
      <trkpt lat="47.01722" lon="8.65388">
        <ele>489</ele>
        <time>2021-08-05T08:29:52.371Z</time>
      </trkpt>
      <trkpt lat="47.01722" lon="8.65388">
        <ele>489</ele>
        <time>2021-08-05T08:29:53.370Z</time>
      </trkpt>
      <trkpt lat="47.0172" lon="8.65388">
        <ele>489</ele>
        <time>2021-08-05T08:29:54.371Z</time>
      </trkpt>
      <trkpt lat="47.01719" lon="8.65387">
        <ele>489</ele>
        <time>2021-08-05T08:29:55.371Z</time>
      </trkpt>
      <trkpt lat="47.01718" lon="8.65387">
        <ele>489</ele>
        <time>2021-08-05T08:29:56.370Z</time>
      </trkpt>
      <trkpt lat="47.01717" lon="8.65388">
        <ele>488</ele>
        <time>2021-08-05T08:29:57.371Z</time>
      </trkpt>
      <trkpt lat="47.01716" lon="8.65388">
        <ele>488</ele>
        <time>2021-08-05T08:29:58.371Z</time>
      </trkpt>
      <trkpt lat="47.01716" lon="8.65388">
        <ele>488</ele>
        <time>2021-08-05T08:29:59.370Z</time>
      </trkpt>
      <trkpt lat="47.01714" lon="8.65387">
        <ele>488</ele>
        <time>2021-08-05T08:30:00.371Z</time>
      </trkpt>
      <trkpt lat="47.01713" lon="8.65386">
        <ele>488</ele>
        <time>2021-08-05T08:30:01.371Z</time>
      </trkpt>
      <trkpt lat="47.01712" lon="8.65386">
        <ele>488</ele>
        <time>2021-08-05T08:30:02.370Z</time>
      </trkpt>
      <trkpt lat="47.0171" lon="8.65384">
        <ele>488</ele>
        <time>2021-08-05T08:30:03.371Z</time>
      </trkpt>
      <trkpt lat="47.01709" lon="8.65384">
        <ele>487</ele>
        <time>2021-08-05T08:30:04.371Z</time>
      </trkpt>
      <trkpt lat="47.01708" lon="8.65384">
        <ele>487</ele>
        <time>2021-08-05T08:30:05.371Z</time>
      </trkpt>
      <trkpt lat="47.01707" lon="8.65383">
        <ele>487</ele>
        <time>2021-08-05T08:30:06.371Z</time>
      </trkpt>
      <trkpt lat="47.01706" lon="8.65383">
        <ele>486</ele>
        <time>2021-08-05T08:30:07.371Z</time>
      </trkpt>
      <trkpt lat="47.01705" lon="8.65382">
        <ele>486</ele>
        <time>2021-08-05T08:30:08.370Z</time>
      </trkpt>
      <trkpt lat="47.01703" lon="8.65381">
        <ele>485</ele>
        <time>2021-08-05T08:30:09.371Z</time>
      </trkpt>
      <trkpt lat="47.01702" lon="8.6538">
        <ele>485</ele>
        <time>2021-08-05T08:30:10.371Z</time>
      </trkpt>
      <trkpt lat="47.01701" lon="8.65378">
        <ele>485</ele>
        <time>2021-08-05T08:30:11.371Z</time>
      </trkpt>
      <trkpt lat="47.017" lon="8.65377">
        <ele>485</ele>
        <time>2021-08-05T08:30:12.371Z</time>
      </trkpt>
      <trkpt lat="47.01699" lon="8.65376">
        <ele>485</ele>
        <time>2021-08-05T08:30:13.371Z</time>
      </trkpt>
      <trkpt lat="47.01698" lon="8.65375">
        <ele>485</ele>
        <time>2021-08-05T08:30:14.370Z</time>
      </trkpt>
      <trkpt lat="47.01697" lon="8.65375">
        <ele>486</ele>
        <time>2021-08-05T08:30:15.371Z</time>
      </trkpt>
      <trkpt lat="47.01695" lon="8.65374">
        <ele>486</ele>
        <time>2021-08-05T08:30:16.371Z</time>
      </trkpt>
      <trkpt lat="47.01694" lon="8.65373">
        <ele>486</ele>
        <time>2021-08-05T08:30:17.370Z</time>
      </trkpt>
      <trkpt lat="47.01693" lon="8.65373">
        <ele>486</ele>
        <time>2021-08-05T08:30:18.371Z</time>
      </trkpt>
      <trkpt lat="47.01693" lon="8.65372">
        <ele>486</ele>
        <time>2021-08-05T08:30:19.371Z</time>
      </trkpt>
      <trkpt lat="47.01692" lon="8.65371">
        <ele>486</ele>
        <time>2021-08-05T08:30:20.370Z</time>
      </trkpt>
      <trkpt lat="47.01691" lon="8.65371">
        <ele>486</ele>
        <time>2021-08-05T08:30:21.371Z</time>
      </trkpt>
      <trkpt lat="47.0169" lon="8.6537">
        <ele>485</ele>
        <time>2021-08-05T08:30:22.371Z</time>
      </trkpt>
      <trkpt lat="47.01689" lon="8.6537">
        <ele>485</ele>
        <time>2021-08-05T08:30:23.371Z</time>
      </trkpt>
      <trkpt lat="47.01688" lon="8.6537">
        <ele>485</ele>
        <time>2021-08-05T08:30:24.371Z</time>
      </trkpt>
      <trkpt lat="47.01686" lon="8.65369">
        <ele>484</ele>
        <time>2021-08-05T08:30:25.371Z</time>
      </trkpt>
      <trkpt lat="47.01685" lon="8.65368">
        <ele>484</ele>
        <time>2021-08-05T08:30:26.370Z</time>
      </trkpt>
      <trkpt lat="47.01683" lon="8.65367">
        <ele>484</ele>
        <time>2021-08-05T08:30:27.371Z</time>
      </trkpt>
      <trkpt lat="47.01681" lon="8.65366">
        <ele>484</ele>
        <time>2021-08-05T08:30:28.371Z</time>
      </trkpt>
      <trkpt lat="47.0168" lon="8.65366">
        <ele>484</ele>
        <time>2021-08-05T08:30:29.371Z</time>
      </trkpt>
      <trkpt lat="47.01679" lon="8.65365">
        <ele>485</ele>
        <time>2021-08-05T08:30:30.371Z</time>
      </trkpt>
      <trkpt lat="47.01677" lon="8.65364">
        <ele>485</ele>
        <time>2021-08-05T08:30:31.370Z</time>
      </trkpt>
      <trkpt lat="47.01677" lon="8.65364">
        <ele>485</ele>
        <time>2021-08-05T08:30:32.371Z</time>
      </trkpt>
      <trkpt lat="47.01677" lon="8.65363">
        <ele>486</ele>
        <time>2021-08-05T08:30:33.371Z</time>
      </trkpt>
      <trkpt lat="47.01676" lon="8.65362">
        <ele>486</ele>
        <time>2021-08-05T08:30:34.370Z</time>
      </trkpt>
      <trkpt lat="47.01675" lon="8.65362">
        <ele>486</ele>
        <time>2021-08-05T08:30:35.371Z</time>
      </trkpt>
      <trkpt lat="47.01674" lon="8.65362">
        <ele>486</ele>
        <time>2021-08-05T08:30:36.371Z</time>
      </trkpt>
      <trkpt lat="47.01673" lon="8.65362">
        <ele>486</ele>
        <time>2021-08-05T08:30:37.371Z</time>
      </trkpt>
      <trkpt lat="47.01672" lon="8.65362">
        <ele>486</ele>
        <time>2021-08-05T08:30:38.370Z</time>
      </trkpt>
      <trkpt lat="47.01671" lon="8.65362">
        <ele>486</ele>
        <time>2021-08-05T08:30:39.371Z</time>
      </trkpt>
      <trkpt lat="47.0167" lon="8.65361">
        <ele>485</ele>
        <time>2021-08-05T08:30:40.371Z</time>
      </trkpt>
      <trkpt lat="47.0167" lon="8.65362">
        <ele>485</ele>
        <time>2021-08-05T08:30:41.371Z</time>
      </trkpt>
      <trkpt lat="47.01669" lon="8.65362">
        <ele>485</ele>
        <time>2021-08-05T08:30:42.370Z</time>
      </trkpt>
      <trkpt lat="47.01668" lon="8.65363">
        <ele>485</ele>
        <time>2021-08-05T08:30:43.371Z</time>
      </trkpt>
      <trkpt lat="47.01667" lon="8.65363">
        <ele>485</ele>
        <time>2021-08-05T08:30:44.370Z</time>
      </trkpt>
      <trkpt lat="47.01667" lon="8.65364">
        <ele>485</ele>
        <time>2021-08-05T08:30:45.371Z</time>
      </trkpt>
      <trkpt lat="47.01665" lon="8.65365">
        <ele>485</ele>
        <time>2021-08-05T08:30:46.371Z</time>
      </trkpt>
      <trkpt lat="47.01665" lon="8.65366">
        <ele>484</ele>
        <time>2021-08-05T08:30:47.371Z</time>
      </trkpt>
      <trkpt lat="47.01664" lon="8.65366">
        <ele>484</ele>
        <time>2021-08-05T08:30:48.370Z</time>
      </trkpt>
      <trkpt lat="47.01616" lon="8.65412">
        <ele>487</ele>
        <time>2021-08-05T08:37:48.414Z</time>
      </trkpt>
      <trkpt lat="47.01616" lon="8.65412">
        <ele>487</ele>
        <time>2021-08-05T08:37:48.414Z</time>
      </trkpt>
      <trkpt lat="47.01616" lon="8.65412">
        <ele>487</ele>
        <time>2021-08-05T08:37:48.414Z</time>
      </trkpt>
      <trkpt lat="47.01616" lon="8.65412">
        <ele>488</ele>
        <time>2021-08-05T08:37:49.415Z</time>
      </trkpt>
      <trkpt lat="47.01616" lon="8.65414">
        <ele>488</ele>
        <time>2021-08-05T08:37:50.414Z</time>
      </trkpt>
      <trkpt lat="47.01618" lon="8.65417">
        <ele>488</ele>
        <time>2021-08-05T08:37:51.415Z</time>
      </trkpt>
      <trkpt lat="47.01619" lon="8.6542">
        <ele>487</ele>
        <time>2021-08-05T08:37:52.414Z</time>
      </trkpt>
      <trkpt lat="47.0162" lon="8.65421">
        <ele>487</ele>
        <time>2021-08-05T08:37:53.414Z</time>
      </trkpt>
      <trkpt lat="47.0162" lon="8.6542">
        <ele>487</ele>
        <time>2021-08-05T08:37:54.415Z</time>
      </trkpt>
      <trkpt lat="47.01619" lon="8.65419">
        <ele>487</ele>
        <time>2021-08-05T08:37:55.414Z</time>
      </trkpt>
      <trkpt lat="47.01619" lon="8.65419">
        <ele>487</ele>
        <time>2021-08-05T08:37:56.415Z</time>
      </trkpt>
      <trkpt lat="47.01618" lon="8.65419">
        <ele>487</ele>
        <time>2021-08-05T08:37:57.414Z</time>
      </trkpt>
      <trkpt lat="47.01617" lon="8.65418">
        <ele>487</ele>
        <time>2021-08-05T08:37:58.415Z</time>
      </trkpt>
      <trkpt lat="47.01616" lon="8.65419">
        <ele>487</ele>
        <time>2021-08-05T08:37:59.415Z</time>
      </trkpt>
      <trkpt lat="47.01615" lon="8.6542">
        <ele>487</ele>
        <time>2021-08-05T08:38:00.415Z</time>
      </trkpt>
      <trkpt lat="47.01614" lon="8.65421">
        <ele>487</ele>
        <time>2021-08-05T08:38:01.415Z</time>
      </trkpt>
      <trkpt lat="47.01613" lon="8.65422">
        <ele>487</ele>
        <time>2021-08-05T08:38:02.414Z</time>
      </trkpt>
      <trkpt lat="47.01611" lon="8.65423">
        <ele>487</ele>
        <time>2021-08-05T08:38:03.415Z</time>
      </trkpt>
      <trkpt lat="47.0161" lon="8.65425">
        <ele>487</ele>
        <time>2021-08-05T08:38:04.414Z</time>
      </trkpt>
      <trkpt lat="47.01608" lon="8.65426">
        <ele>487</ele>
        <time>2021-08-05T08:38:05.415Z</time>
      </trkpt>
      <trkpt lat="47.01607" lon="8.65427">
        <ele>487</ele>
        <time>2021-08-05T08:38:06.415Z</time>
      </trkpt>
      <trkpt lat="47.01606" lon="8.65428">
        <ele>487</ele>
        <time>2021-08-05T08:38:07.415Z</time>
      </trkpt>
      <trkpt lat="47.01605" lon="8.65429">
        <ele>488</ele>
        <time>2021-08-05T08:38:08.415Z</time>
      </trkpt>
      <trkpt lat="47.01604" lon="8.6543">
        <ele>488</ele>
        <time>2021-08-05T08:38:09.415Z</time>
      </trkpt>
      <trkpt lat="47.01603" lon="8.6543">
        <ele>489</ele>
        <time>2021-08-05T08:38:10.415Z</time>
      </trkpt>
      <trkpt lat="47.01603" lon="8.6543">
        <ele>490</ele>
        <time>2021-08-05T08:38:11.414Z</time>
      </trkpt>
      <trkpt lat="47.01602" lon="8.65431">
        <ele>490</ele>
        <time>2021-08-05T08:38:12.415Z</time>
      </trkpt>
      <trkpt lat="47.01601" lon="8.65432">
        <ele>491</ele>
        <time>2021-08-05T08:38:13.415Z</time>
      </trkpt>
      <trkpt lat="47.016" lon="8.65434">
        <ele>492</ele>
        <time>2021-08-05T08:38:14.414Z</time>
      </trkpt>
      <trkpt lat="47.01599" lon="8.65435">
        <ele>492</ele>
        <time>2021-08-05T08:38:15.415Z</time>
      </trkpt>
      <trkpt lat="47.01598" lon="8.65436">
        <ele>492</ele>
        <time>2021-08-05T08:38:16.415Z</time>
      </trkpt>
      <trkpt lat="47.01597" lon="8.65437">
        <ele>493</ele>
        <time>2021-08-05T08:38:17.415Z</time>
      </trkpt>
      <trkpt lat="47.01597" lon="8.65437">
        <ele>492</ele>
        <time>2021-08-05T08:38:18.414Z</time>
      </trkpt>
      <trkpt lat="47.01597" lon="8.65437">
        <ele>492</ele>
        <time>2021-08-05T08:38:19.415Z</time>
      </trkpt>
      <trkpt lat="47.01596" lon="8.65436">
        <ele>492</ele>
        <time>2021-08-05T08:38:20.415Z</time>
      </trkpt>
      <trkpt lat="47.01594" lon="8.65436">
        <ele>492</ele>
        <time>2021-08-05T08:38:21.415Z</time>
      </trkpt>
      <trkpt lat="47.01593" lon="8.65437">
        <ele>492</ele>
        <time>2021-08-05T08:38:22.415Z</time>
      </trkpt>
      <trkpt lat="47.01592" lon="8.65437">
        <ele>492</ele>
        <time>2021-08-05T08:38:23.415Z</time>
      </trkpt>
      <trkpt lat="47.0159" lon="8.65437">
        <ele>492</ele>
        <time>2021-08-05T08:38:24.414Z</time>
      </trkpt>
      <trkpt lat="47.01589" lon="8.65437">
        <ele>492</ele>
        <time>2021-08-05T08:38:25.415Z</time>
      </trkpt>
      <trkpt lat="47.01588" lon="8.65437">
        <ele>492</ele>
        <time>2021-08-05T08:38:26.414Z</time>
      </trkpt>
      <trkpt lat="47.01587" lon="8.65438">
        <ele>492</ele>
        <time>2021-08-05T08:38:27.414Z</time>
      </trkpt>
      <trkpt lat="47.01586" lon="8.65438">
        <ele>492</ele>
        <time>2021-08-05T08:38:28.415Z</time>
      </trkpt>
      <trkpt lat="47.01585" lon="8.65439">
        <ele>492</ele>
        <time>2021-08-05T08:38:29.415Z</time>
      </trkpt>
      <trkpt lat="47.01584" lon="8.6544">
        <ele>492</ele>
        <time>2021-08-05T08:38:30.415Z</time>
      </trkpt>
      <trkpt lat="47.01583" lon="8.65441">
        <ele>492</ele>
        <time>2021-08-05T08:38:31.414Z</time>
      </trkpt>
      <trkpt lat="47.01582" lon="8.65441">
        <ele>493</ele>
        <time>2021-08-05T08:38:32.415Z</time>
      </trkpt>
      <trkpt lat="47.01581" lon="8.65442">
        <ele>493</ele>
        <time>2021-08-05T08:38:33.415Z</time>
      </trkpt>
      <trkpt lat="47.0158" lon="8.65442">
        <ele>493</ele>
        <time>2021-08-05T08:38:34.414Z</time>
      </trkpt>
      <trkpt lat="47.01579" lon="8.65443">
        <ele>493</ele>
        <time>2021-08-05T08:38:35.415Z</time>
      </trkpt>
      <trkpt lat="47.01578" lon="8.65444">
        <ele>493</ele>
        <time>2021-08-05T08:38:36.415Z</time>
      </trkpt>
      <trkpt lat="47.01577" lon="8.65444">
        <ele>493</ele>
        <time>2021-08-05T08:38:37.414Z</time>
      </trkpt>
      <trkpt lat="47.01576" lon="8.65445">
        <ele>492</ele>
        <time>2021-08-05T08:38:38.415Z</time>
      </trkpt>
      <trkpt lat="47.01574" lon="8.65445">
        <ele>492</ele>
        <time>2021-08-05T08:38:39.414Z</time>
      </trkpt>
      <trkpt lat="47.01573" lon="8.65446">
        <ele>492</ele>
        <time>2021-08-05T08:38:40.414Z</time>
      </trkpt>
      <trkpt lat="47.01572" lon="8.65447">
        <ele>492</ele>
        <time>2021-08-05T08:38:41.415Z</time>
      </trkpt>
      <trkpt lat="47.01571" lon="8.65447">
        <ele>492</ele>
        <time>2021-08-05T08:38:42.414Z</time>
      </trkpt>
      <trkpt lat="47.0157" lon="8.65448">
        <ele>492</ele>
        <time>2021-08-05T08:38:43.414Z</time>
      </trkpt>
      <trkpt lat="47.01569" lon="8.65449">
        <ele>492</ele>
        <time>2021-08-05T08:38:44.414Z</time>
      </trkpt>
      <trkpt lat="47.01568" lon="8.6545">
        <ele>492</ele>
        <time>2021-08-05T08:38:45.414Z</time>
      </trkpt>
      <trkpt lat="47.01567" lon="8.65451">
        <ele>492</ele>
        <time>2021-08-05T08:38:46.415Z</time>
      </trkpt>
      <trkpt lat="47.01566" lon="8.65451">
        <ele>493</ele>
        <time>2021-08-05T08:38:47.415Z</time>
      </trkpt>
      <trkpt lat="47.01565" lon="8.65451">
        <ele>493</ele>
        <time>2021-08-05T08:38:48.415Z</time>
      </trkpt>
      <trkpt lat="47.01564" lon="8.65452">
        <ele>493</ele>
        <time>2021-08-05T08:38:49.415Z</time>
      </trkpt>
      <trkpt lat="47.01563" lon="8.65452">
        <ele>493</ele>
        <time>2021-08-05T08:38:50.414Z</time>
      </trkpt>
      <trkpt lat="47.01562" lon="8.65452">
        <ele>494</ele>
        <time>2021-08-05T08:38:51.415Z</time>
      </trkpt>
      <trkpt lat="47.01561" lon="8.65453">
        <ele>494</ele>
        <time>2021-08-05T08:38:52.415Z</time>
      </trkpt>
      <trkpt lat="47.0156" lon="8.65453">
        <ele>494</ele>
        <time>2021-08-05T08:38:53.414Z</time>
      </trkpt>
      <trkpt lat="47.01559" lon="8.65454">
        <ele>495</ele>
        <time>2021-08-05T08:38:54.414Z</time>
      </trkpt>
      <trkpt lat="47.01558" lon="8.65454">
        <ele>495</ele>
        <time>2021-08-05T08:38:55.414Z</time>
      </trkpt>
      <trkpt lat="47.01558" lon="8.65455">
        <ele>496</ele>
        <time>2021-08-05T08:38:56.414Z</time>
      </trkpt>
      <trkpt lat="47.01557" lon="8.65455">
        <ele>496</ele>
        <time>2021-08-05T08:38:57.415Z</time>
      </trkpt>
      <trkpt lat="47.01556" lon="8.65455">
        <ele>497</ele>
        <time>2021-08-05T08:38:58.414Z</time>
      </trkpt>
      <trkpt lat="47.01555" lon="8.65456">
        <ele>497</ele>
        <time>2021-08-05T08:38:59.414Z</time>
      </trkpt>
      <trkpt lat="47.01554" lon="8.65457">
        <ele>497</ele>
        <time>2021-08-05T08:39:00.415Z</time>
      </trkpt>
      <trkpt lat="47.01553" lon="8.65457">
        <ele>497</ele>
        <time>2021-08-05T08:39:01.414Z</time>
      </trkpt>
      <trkpt lat="47.01552" lon="8.65458">
        <ele>497</ele>
        <time>2021-08-05T08:39:02.415Z</time>
      </trkpt>
      <trkpt lat="47.01551" lon="8.65458">
        <ele>496</ele>
        <time>2021-08-05T08:39:03.415Z</time>
      </trkpt>
      <trkpt lat="47.0155" lon="8.65459">
        <ele>496</ele>
        <time>2021-08-05T08:39:04.415Z</time>
      </trkpt>
      <trkpt lat="47.01549" lon="8.65459">
        <ele>496</ele>
        <time>2021-08-05T08:39:05.415Z</time>
      </trkpt>
      <trkpt lat="47.01548" lon="8.6546">
        <ele>495</ele>
        <time>2021-08-05T08:39:06.415Z</time>
      </trkpt>
      <trkpt lat="47.01546" lon="8.6546">
        <ele>495</ele>
        <time>2021-08-05T08:39:07.415Z</time>
      </trkpt>
      <trkpt lat="47.01545" lon="8.65461">
        <ele>494</ele>
        <time>2021-08-05T08:39:08.415Z</time>
      </trkpt>
      <trkpt lat="47.01545" lon="8.65461">
        <ele>494</ele>
        <time>2021-08-05T08:39:09.415Z</time>
      </trkpt>
      <trkpt lat="47.01544" lon="8.65462">
        <ele>494</ele>
        <time>2021-08-05T08:39:10.415Z</time>
      </trkpt>
      <trkpt lat="47.01543" lon="8.65462">
        <ele>494</ele>
        <time>2021-08-05T08:39:11.414Z</time>
      </trkpt>
      <trkpt lat="47.01542" lon="8.65463">
        <ele>494</ele>
        <time>2021-08-05T08:39:12.415Z</time>
      </trkpt>
      <trkpt lat="47.01541" lon="8.65463">
        <ele>494</ele>
        <time>2021-08-05T08:39:13.415Z</time>
      </trkpt>
      <trkpt lat="47.0154" lon="8.65464">
        <ele>494</ele>
        <time>2021-08-05T08:39:14.414Z</time>
      </trkpt>
      <trkpt lat="47.0154" lon="8.65465">
        <ele>494</ele>
        <time>2021-08-05T08:39:15.415Z</time>
      </trkpt>
      <trkpt lat="47.01539" lon="8.65465">
        <ele>494</ele>
        <time>2021-08-05T08:39:16.415Z</time>
      </trkpt>
      <trkpt lat="47.01538" lon="8.65466">
        <ele>494</ele>
        <time>2021-08-05T08:39:17.414Z</time>
      </trkpt>
      <trkpt lat="47.01537" lon="8.65466">
        <ele>494</ele>
        <time>2021-08-05T08:39:18.414Z</time>
      </trkpt>
      <trkpt lat="47.01536" lon="8.65467">
        <ele>494</ele>
        <time>2021-08-05T08:39:19.415Z</time>
      </trkpt>
      <trkpt lat="47.01535" lon="8.65467">
        <ele>494</ele>
        <time>2021-08-05T08:39:20.415Z</time>
      </trkpt>
      <trkpt lat="47.01534" lon="8.65467">
        <ele>494</ele>
        <time>2021-08-05T08:39:21.415Z</time>
      </trkpt>
      <trkpt lat="47.01533" lon="8.65468">
        <ele>494</ele>
        <time>2021-08-05T08:39:22.415Z</time>
      </trkpt>
      <trkpt lat="47.01532" lon="8.65469">
        <ele>493</ele>
        <time>2021-08-05T08:39:23.414Z</time>
      </trkpt>
      <trkpt lat="47.01531" lon="8.65469">
        <ele>493</ele>
        <time>2021-08-05T08:39:24.415Z</time>
      </trkpt>
      <trkpt lat="47.01529" lon="8.65469">
        <ele>494</ele>
        <time>2021-08-05T08:39:25.415Z</time>
      </trkpt>
      <trkpt lat="47.01529" lon="8.6547">
        <ele>494</ele>
        <time>2021-08-05T08:39:26.414Z</time>
      </trkpt>
      <trkpt lat="47.01528" lon="8.65471">
        <ele>494</ele>
        <time>2021-08-05T08:39:27.414Z</time>
      </trkpt>
      <trkpt lat="47.01527" lon="8.65471">
        <ele>494</ele>
        <time>2021-08-05T08:39:28.414Z</time>
      </trkpt>
      <trkpt lat="47.01526" lon="8.65472">
        <ele>494</ele>
        <time>2021-08-05T08:39:29.414Z</time>
      </trkpt>
      <trkpt lat="47.01525" lon="8.65473">
        <ele>494</ele>
        <time>2021-08-05T08:39:30.415Z</time>
      </trkpt>
      <trkpt lat="47.01524" lon="8.65474">
        <ele>494</ele>
        <time>2021-08-05T08:39:31.414Z</time>
      </trkpt>
      <trkpt lat="47.01523" lon="8.65474">
        <ele>493</ele>
        <time>2021-08-05T08:39:32.415Z</time>
      </trkpt>
      <trkpt lat="47.01522" lon="8.65475">
        <ele>493</ele>
        <time>2021-08-05T08:39:33.415Z</time>
      </trkpt>
      <trkpt lat="47.01521" lon="8.65475">
        <ele>493</ele>
        <time>2021-08-05T08:39:34.415Z</time>
      </trkpt>
      <trkpt lat="47.0152" lon="8.65476">
        <ele>493</ele>
        <time>2021-08-05T08:39:35.414Z</time>
      </trkpt>
      <trkpt lat="47.01519" lon="8.65477">
        <ele>493</ele>
        <time>2021-08-05T08:39:36.415Z</time>
      </trkpt>
      <trkpt lat="47.01518" lon="8.65477">
        <ele>493</ele>
        <time>2021-08-05T08:39:37.415Z</time>
      </trkpt>
      <trkpt lat="47.01517" lon="8.65478">
        <ele>493</ele>
        <time>2021-08-05T08:39:38.415Z</time>
      </trkpt>
      <trkpt lat="47.01516" lon="8.65478">
        <ele>494</ele>
        <time>2021-08-05T08:39:39.415Z</time>
      </trkpt>
      <trkpt lat="47.01515" lon="8.65479">
        <ele>494</ele>
        <time>2021-08-05T08:39:40.415Z</time>
      </trkpt>
      <trkpt lat="47.01514" lon="8.65479">
        <ele>494</ele>
        <time>2021-08-05T08:39:41.415Z</time>
      </trkpt>
      <trkpt lat="47.01513" lon="8.6548">
        <ele>495</ele>
        <time>2021-08-05T08:39:42.415Z</time>
      </trkpt>
      <trkpt lat="47.01512" lon="8.6548">
        <ele>494</ele>
        <time>2021-08-05T08:39:43.414Z</time>
      </trkpt>
      <trkpt lat="47.01512" lon="8.65481">
        <ele>494</ele>
        <time>2021-08-05T08:39:44.415Z</time>
      </trkpt>
      <trkpt lat="47.01511" lon="8.65482">
        <ele>494</ele>
        <time>2021-08-05T08:39:45.414Z</time>
      </trkpt>
      <trkpt lat="47.0151" lon="8.65482">
        <ele>494</ele>
        <time>2021-08-05T08:39:46.415Z</time>
      </trkpt>
      <trkpt lat="47.01509" lon="8.65483">
        <ele>494</ele>
        <time>2021-08-05T08:39:47.415Z</time>
      </trkpt>
      <trkpt lat="47.01508" lon="8.65483">
        <ele>495</ele>
        <time>2021-08-05T08:39:48.415Z</time>
      </trkpt>
      <trkpt lat="47.01507" lon="8.65484">
        <ele>494</ele>
        <time>2021-08-05T08:39:49.414Z</time>
      </trkpt>
      <trkpt lat="47.01506" lon="8.65484">
        <ele>494</ele>
        <time>2021-08-05T08:39:50.415Z</time>
      </trkpt>
      <trkpt lat="47.01505" lon="8.65485">
        <ele>494</ele>
        <time>2021-08-05T08:39:51.414Z</time>
      </trkpt>
      <trkpt lat="47.01504" lon="8.65486">
        <ele>494</ele>
        <time>2021-08-05T08:39:52.414Z</time>
      </trkpt>
      <trkpt lat="47.01502" lon="8.65486">
        <ele>494</ele>
        <time>2021-08-05T08:39:53.415Z</time>
      </trkpt>
      <trkpt lat="47.01502" lon="8.65487">
        <ele>494</ele>
        <time>2021-08-05T08:39:54.415Z</time>
      </trkpt>
      <trkpt lat="47.01501" lon="8.65487">
        <ele>494</ele>
        <time>2021-08-05T08:39:55.415Z</time>
      </trkpt>
      <trkpt lat="47.015" lon="8.65487">
        <ele>494</ele>
        <time>2021-08-05T08:39:56.414Z</time>
      </trkpt>
      <trkpt lat="47.01499" lon="8.65488">
        <ele>495</ele>
        <time>2021-08-05T08:39:57.415Z</time>
      </trkpt>
      <trkpt lat="47.01498" lon="8.65489">
        <ele>494</ele>
        <time>2021-08-05T08:39:58.415Z</time>
      </trkpt>
      <trkpt lat="47.01497" lon="8.65489">
        <ele>495</ele>
        <time>2021-08-05T08:39:59.415Z</time>
      </trkpt>
      <trkpt lat="47.01497" lon="8.6549">
        <ele>495</ele>
        <time>2021-08-05T08:40:00.414Z</time>
      </trkpt>
      <trkpt lat="47.01495" lon="8.6549">
        <ele>495</ele>
        <time>2021-08-05T08:40:01.414Z</time>
      </trkpt>
      <trkpt lat="47.01495" lon="8.65491">
        <ele>495</ele>
        <time>2021-08-05T08:40:02.415Z</time>
      </trkpt>
      <trkpt lat="47.01494" lon="8.65492">
        <ele>495</ele>
        <time>2021-08-05T08:40:03.414Z</time>
      </trkpt>
      <trkpt lat="47.01493" lon="8.65492">
        <ele>495</ele>
        <time>2021-08-05T08:40:04.414Z</time>
      </trkpt>
      <trkpt lat="47.01491" lon="8.65492">
        <ele>495</ele>
        <time>2021-08-05T08:40:05.414Z</time>
      </trkpt>
      <trkpt lat="47.0149" lon="8.65492">
        <ele>495</ele>
        <time>2021-08-05T08:40:06.414Z</time>
      </trkpt>
      <trkpt lat="47.01489" lon="8.65493">
        <ele>495</ele>
        <time>2021-08-05T08:40:07.415Z</time>
      </trkpt>
      <trkpt lat="47.01488" lon="8.65493">
        <ele>495</ele>
        <time>2021-08-05T08:40:08.414Z</time>
      </trkpt>
      <trkpt lat="47.01488" lon="8.65493">
        <ele>495</ele>
        <time>2021-08-05T08:40:09.414Z</time>
      </trkpt>
      <trkpt lat="47.01486" lon="8.65494">
        <ele>495</ele>
        <time>2021-08-05T08:40:10.415Z</time>
      </trkpt>
      <trkpt lat="47.01485" lon="8.65494">
        <ele>495</ele>
        <time>2021-08-05T08:40:11.414Z</time>
      </trkpt>
      <trkpt lat="47.01484" lon="8.65494">
        <ele>495</ele>
        <time>2021-08-05T08:40:12.415Z</time>
      </trkpt>
      <trkpt lat="47.01483" lon="8.65494">
        <ele>495</ele>
        <time>2021-08-05T08:40:13.415Z</time>
      </trkpt>
      <trkpt lat="47.01482" lon="8.65494">
        <ele>495</ele>
        <time>2021-08-05T08:40:14.414Z</time>
      </trkpt>
      <trkpt lat="47.01481" lon="8.65495">
        <ele>495</ele>
        <time>2021-08-05T08:40:15.415Z</time>
      </trkpt>
      <trkpt lat="47.0148" lon="8.65495">
        <ele>496</ele>
        <time>2021-08-05T08:40:16.415Z</time>
      </trkpt>
      <trkpt lat="47.01479" lon="8.65496">
        <ele>496</ele>
        <time>2021-08-05T08:40:17.415Z</time>
      </trkpt>
      <trkpt lat="47.01478" lon="8.65497">
        <ele>495</ele>
        <time>2021-08-05T08:40:18.414Z</time>
      </trkpt>
      <trkpt lat="47.01477" lon="8.65497">
        <ele>495</ele>
        <time>2021-08-05T08:40:19.414Z</time>
      </trkpt>
      <trkpt lat="47.01477" lon="8.65498">
        <ele>495</ele>
        <time>2021-08-05T08:40:20.414Z</time>
      </trkpt>
      <trkpt lat="47.01476" lon="8.65498">
        <ele>496</ele>
        <time>2021-08-05T08:40:21.415Z</time>
      </trkpt>
      <trkpt lat="47.01475" lon="8.65498">
        <ele>496</ele>
        <time>2021-08-05T08:40:22.415Z</time>
      </trkpt>
      <trkpt lat="47.01474" lon="8.65499">
        <ele>497</ele>
        <time>2021-08-05T08:40:23.415Z</time>
      </trkpt>
      <trkpt lat="47.01473" lon="8.655">
        <ele>497</ele>
        <time>2021-08-05T08:40:24.414Z</time>
      </trkpt>
      <trkpt lat="47.01472" lon="8.655">
        <ele>498</ele>
        <time>2021-08-05T08:40:25.414Z</time>
      </trkpt>
      <trkpt lat="47.01471" lon="8.655">
        <ele>498</ele>
        <time>2021-08-05T08:40:26.415Z</time>
      </trkpt>
      <trkpt lat="47.0147" lon="8.65501">
        <ele>498</ele>
        <time>2021-08-05T08:40:27.415Z</time>
      </trkpt>
      <trkpt lat="47.01469" lon="8.65501">
        <ele>498</ele>
        <time>2021-08-05T08:40:28.415Z</time>
      </trkpt>
      <trkpt lat="47.01468" lon="8.65502">
        <ele>498</ele>
        <time>2021-08-05T08:40:29.414Z</time>
      </trkpt>
      <trkpt lat="47.01467" lon="8.65502">
        <ele>498</ele>
        <time>2021-08-05T08:40:30.415Z</time>
      </trkpt>
      <trkpt lat="47.01466" lon="8.65502">
        <ele>498</ele>
        <time>2021-08-05T08:40:31.414Z</time>
      </trkpt>
      <trkpt lat="47.01465" lon="8.65503">
        <ele>498</ele>
        <time>2021-08-05T08:40:32.415Z</time>
      </trkpt>
      <trkpt lat="47.01464" lon="8.65503">
        <ele>498</ele>
        <time>2021-08-05T08:40:33.415Z</time>
      </trkpt>
      <trkpt lat="47.01463" lon="8.65504">
        <ele>497</ele>
        <time>2021-08-05T08:40:34.415Z</time>
      </trkpt>
      <trkpt lat="47.01462" lon="8.65505">
        <ele>497</ele>
        <time>2021-08-05T08:40:35.414Z</time>
      </trkpt>
      <trkpt lat="47.01462" lon="8.65506">
        <ele>496</ele>
        <time>2021-08-05T08:40:36.415Z</time>
      </trkpt>
      <trkpt lat="47.01461" lon="8.65507">
        <ele>496</ele>
        <time>2021-08-05T08:40:37.415Z</time>
      </trkpt>
      <trkpt lat="47.01461" lon="8.65508">
        <ele>495</ele>
        <time>2021-08-05T08:40:38.414Z</time>
      </trkpt>
      <trkpt lat="47.01461" lon="8.65508">
        <ele>494</ele>
        <time>2021-08-05T08:40:39.415Z</time>
      </trkpt>
      <trkpt lat="47.01462" lon="8.65508">
        <ele>490</ele>
        <time>2021-08-05T08:40:40.416Z</time>
      </trkpt>
      <trkpt lat="47.01462" lon="8.65509">
        <ele>490</ele>
        <time>2021-08-05T08:40:41.416Z</time>
      </trkpt>
      <trkpt lat="47.01462" lon="8.65509">
        <ele>489</ele>
        <time>2021-08-05T08:40:42.416Z</time>
      </trkpt>
      <trkpt lat="47.01462" lon="8.65509">
        <ele>488</ele>
        <time>2021-08-05T08:40:43.416Z</time>
      </trkpt>
      <trkpt lat="47.01462" lon="8.65509">
        <ele>488</ele>
        <time>2021-08-05T08:40:44.415Z</time>
      </trkpt>
      <trkpt lat="47.01461" lon="8.65509">
        <ele>487</ele>
        <time>2021-08-05T08:40:45.416Z</time>
      </trkpt>
      <trkpt lat="47.0146" lon="8.65509">
        <ele>487</ele>
        <time>2021-08-05T08:40:46.416Z</time>
      </trkpt>
      <trkpt lat="47.01459" lon="8.6551">
        <ele>487</ele>
        <time>2021-08-05T08:40:47.416Z</time>
      </trkpt>
      <trkpt lat="47.01458" lon="8.65511">
        <ele>487</ele>
        <time>2021-08-05T08:40:48.416Z</time>
      </trkpt>
      <trkpt lat="47.01457" lon="8.65511">
        <ele>487</ele>
        <time>2021-08-05T08:40:49.416Z</time>
      </trkpt>
      <trkpt lat="47.01456" lon="8.65512">
        <ele>488</ele>
        <time>2021-08-05T08:40:50.416Z</time>
      </trkpt>
      <trkpt lat="47.01455" lon="8.65513">
        <ele>488</ele>
        <time>2021-08-05T08:40:51.416Z</time>
      </trkpt>
      <trkpt lat="47.01455" lon="8.65515">
        <ele>488</ele>
        <time>2021-08-05T08:40:52.416Z</time>
      </trkpt>
      <trkpt lat="47.01454" lon="8.65515">
        <ele>489</ele>
        <time>2021-08-05T08:40:53.416Z</time>
      </trkpt>
      <trkpt lat="47.01452" lon="8.65514">
        <ele>489</ele>
        <time>2021-08-05T08:40:54.416Z</time>
      </trkpt>
      <trkpt lat="47.01452" lon="8.65514">
        <ele>489</ele>
        <time>2021-08-05T08:40:55.416Z</time>
      </trkpt>
      <trkpt lat="47.01452" lon="8.65514">
        <ele>490</ele>
        <time>2021-08-05T08:40:56.416Z</time>
      </trkpt>
      <trkpt lat="47.01452" lon="8.65514">
        <ele>490</ele>
        <time>2021-08-05T08:40:57.415Z</time>
      </trkpt>
      <trkpt lat="47.01452" lon="8.65514">
        <ele>490</ele>
        <time>2021-08-05T08:40:58.416Z</time>
      </trkpt>
      <trkpt lat="47.01451" lon="8.65514">
        <ele>490</ele>
        <time>2021-08-05T08:40:59.416Z</time>
      </trkpt>
      <trkpt lat="47.01452" lon="8.65515">
        <ele>490</ele>
        <time>2021-08-05T08:41:00.416Z</time>
      </trkpt>
      <trkpt lat="47.01451" lon="8.65515">
        <ele>490</ele>
        <time>2021-08-05T08:41:01.416Z</time>
      </trkpt>
      <trkpt lat="47.0145" lon="8.65514">
        <ele>490</ele>
        <time>2021-08-05T08:41:02.416Z</time>
      </trkpt>
      <trkpt lat="47.01449" lon="8.65513">
        <ele>490</ele>
        <time>2021-08-05T08:41:03.415Z</time>
      </trkpt>
      <trkpt lat="47.01449" lon="8.65513">
        <ele>490</ele>
        <time>2021-08-05T08:41:04.416Z</time>
      </trkpt>
      <trkpt lat="47.01448" lon="8.65513">
        <ele>490</ele>
        <time>2021-08-05T08:41:05.416Z</time>
      </trkpt>
      <trkpt lat="47.01447" lon="8.65514">
        <ele>490</ele>
        <time>2021-08-05T08:41:06.415Z</time>
      </trkpt>
      <trkpt lat="47.01446" lon="8.65515">
        <ele>490</ele>
        <time>2021-08-05T08:41:07.415Z</time>
      </trkpt>
      <trkpt lat="47.01446" lon="8.65516">
        <ele>491</ele>
        <time>2021-08-05T08:41:08.416Z</time>
      </trkpt>
      <trkpt lat="47.01446" lon="8.65516">
        <ele>491</ele>
        <time>2021-08-05T08:41:09.416Z</time>
      </trkpt>
      <trkpt lat="47.01445" lon="8.65517">
        <ele>492</ele>
        <time>2021-08-05T08:41:10.415Z</time>
      </trkpt>
      <trkpt lat="47.01444" lon="8.65517">
        <ele>492</ele>
        <time>2021-08-05T08:41:11.416Z</time>
      </trkpt>
      <trkpt lat="47.01443" lon="8.65517">
        <ele>493</ele>
        <time>2021-08-05T08:41:12.416Z</time>
      </trkpt>
      <trkpt lat="47.01442" lon="8.65517">
        <ele>493</ele>
        <time>2021-08-05T08:41:13.416Z</time>
      </trkpt>
      <trkpt lat="47.01441" lon="8.65517">
        <ele>494</ele>
        <time>2021-08-05T08:41:14.416Z</time>
      </trkpt>
      <trkpt lat="47.0144" lon="8.65518">
        <ele>494</ele>
        <time>2021-08-05T08:41:15.416Z</time>
      </trkpt>
      <trkpt lat="47.01439" lon="8.65518">
        <ele>495</ele>
        <time>2021-08-05T08:41:16.415Z</time>
      </trkpt>
      <trkpt lat="47.01438" lon="8.65519">
        <ele>495</ele>
        <time>2021-08-05T08:41:17.416Z</time>
      </trkpt>
      <trkpt lat="47.01437" lon="8.65519">
        <ele>496</ele>
        <time>2021-08-05T08:41:18.415Z</time>
      </trkpt>
      <trkpt lat="47.01436" lon="8.6552">
        <ele>496</ele>
        <time>2021-08-05T08:41:19.416Z</time>
      </trkpt>
      <trkpt lat="47.01436" lon="8.65521">
        <ele>496</ele>
        <time>2021-08-05T08:41:20.416Z</time>
      </trkpt>
      <trkpt lat="47.01435" lon="8.65522">
        <ele>497</ele>
        <time>2021-08-05T08:41:21.416Z</time>
      </trkpt>
      <trkpt lat="47.01434" lon="8.65522">
        <ele>497</ele>
        <time>2021-08-05T08:41:22.416Z</time>
      </trkpt>
      <trkpt lat="47.01433" lon="8.65523">
        <ele>497</ele>
        <time>2021-08-05T08:41:23.416Z</time>
      </trkpt>
      <trkpt lat="47.01432" lon="8.65523">
        <ele>497</ele>
        <time>2021-08-05T08:41:24.416Z</time>
      </trkpt>
      <trkpt lat="47.01431" lon="8.65524">
        <ele>498</ele>
        <time>2021-08-05T08:41:25.415Z</time>
      </trkpt>
      <trkpt lat="47.0143" lon="8.65525">
        <ele>498</ele>
        <time>2021-08-05T08:41:26.415Z</time>
      </trkpt>
      <trkpt lat="47.01429" lon="8.65525">
        <ele>498</ele>
        <time>2021-08-05T08:41:27.415Z</time>
      </trkpt>
      <trkpt lat="47.01428" lon="8.65526">
        <ele>498</ele>
        <time>2021-08-05T08:41:28.415Z</time>
      </trkpt>
      <trkpt lat="47.01427" lon="8.65526">
        <ele>498</ele>
        <time>2021-08-05T08:41:29.416Z</time>
      </trkpt>
      <trkpt lat="47.01426" lon="8.65527">
        <ele>498</ele>
        <time>2021-08-05T08:41:30.415Z</time>
      </trkpt>
      <trkpt lat="47.01425" lon="8.65528">
        <ele>498</ele>
        <time>2021-08-05T08:41:31.416Z</time>
      </trkpt>
      <trkpt lat="47.01424" lon="8.65529">
        <ele>498</ele>
        <time>2021-08-05T08:41:32.415Z</time>
      </trkpt>
      <trkpt lat="47.01423" lon="8.6553">
        <ele>498</ele>
        <time>2021-08-05T08:41:33.416Z</time>
      </trkpt>
      <trkpt lat="47.01423" lon="8.65531">
        <ele>498</ele>
        <time>2021-08-05T08:41:34.416Z</time>
      </trkpt>
      <trkpt lat="47.01422" lon="8.65532">
        <ele>498</ele>
        <time>2021-08-05T08:41:35.416Z</time>
      </trkpt>
      <trkpt lat="47.0142" lon="8.65534">
        <ele>498</ele>
        <time>2021-08-05T08:41:36.416Z</time>
      </trkpt>
      <trkpt lat="47.01419" lon="8.65535">
        <ele>498</ele>
        <time>2021-08-05T08:41:37.416Z</time>
      </trkpt>
      <trkpt lat="47.01419" lon="8.65536">
        <ele>498</ele>
        <time>2021-08-05T08:41:38.416Z</time>
      </trkpt>
      <trkpt lat="47.01418" lon="8.65538">
        <ele>497</ele>
        <time>2021-08-05T08:41:39.416Z</time>
      </trkpt>
      <trkpt lat="47.01417" lon="8.65539">
        <ele>497</ele>
        <time>2021-08-05T08:41:40.415Z</time>
      </trkpt>
      <trkpt lat="47.01416" lon="8.6554">
        <ele>497</ele>
        <time>2021-08-05T08:41:41.416Z</time>
      </trkpt>
      <trkpt lat="47.01416" lon="8.65541">
        <ele>496</ele>
        <time>2021-08-05T08:41:42.416Z</time>
      </trkpt>
      <trkpt lat="47.01415" lon="8.65542">
        <ele>496</ele>
        <time>2021-08-05T08:41:43.415Z</time>
      </trkpt>
      <trkpt lat="47.01414" lon="8.65543">
        <ele>496</ele>
        <time>2021-08-05T08:41:44.415Z</time>
      </trkpt>
      <trkpt lat="47.01414" lon="8.65544">
        <ele>496</ele>
        <time>2021-08-05T08:41:45.416Z</time>
      </trkpt>
      <trkpt lat="47.01413" lon="8.65545">
        <ele>496</ele>
        <time>2021-08-05T08:41:46.416Z</time>
      </trkpt>
      <trkpt lat="47.01412" lon="8.65546">
        <ele>496</ele>
        <time>2021-08-05T08:41:47.416Z</time>
      </trkpt>
      <trkpt lat="47.01412" lon="8.65547">
        <ele>496</ele>
        <time>2021-08-05T08:41:48.416Z</time>
      </trkpt>
      <trkpt lat="47.01411" lon="8.65548">
        <ele>496</ele>
        <time>2021-08-05T08:41:49.416Z</time>
      </trkpt>
      <trkpt lat="47.0141" lon="8.65549">
        <ele>495</ele>
        <time>2021-08-05T08:41:50.415Z</time>
      </trkpt>
      <trkpt lat="47.01409" lon="8.6555">
        <ele>495</ele>
        <time>2021-08-05T08:41:51.416Z</time>
      </trkpt>
      <trkpt lat="47.01409" lon="8.65551">
        <ele>495</ele>
        <time>2021-08-05T08:41:52.416Z</time>
      </trkpt>
      <trkpt lat="47.01408" lon="8.65552">
        <ele>495</ele>
        <time>2021-08-05T08:41:53.416Z</time>
      </trkpt>
      <trkpt lat="47.01408" lon="8.65553">
        <ele>495</ele>
        <time>2021-08-05T08:41:54.416Z</time>
      </trkpt>
      <trkpt lat="47.01408" lon="8.65553">
        <ele>495</ele>
        <time>2021-08-05T08:41:55.416Z</time>
      </trkpt>
      <trkpt lat="47.01408" lon="8.65554">
        <ele>495</ele>
        <time>2021-08-05T08:41:56.416Z</time>
      </trkpt>
      <trkpt lat="47.01408" lon="8.65556">
        <ele>495</ele>
        <time>2021-08-05T08:41:57.415Z</time>
      </trkpt>
      <trkpt lat="47.01408" lon="8.65557">
        <ele>495</ele>
        <time>2021-08-05T08:41:58.416Z</time>
      </trkpt>
      <trkpt lat="47.01407" lon="8.65558">
        <ele>495</ele>
        <time>2021-08-05T08:41:59.416Z</time>
      </trkpt>
      <trkpt lat="47.01406" lon="8.65558">
        <ele>494</ele>
        <time>2021-08-05T08:42:00.416Z</time>
      </trkpt>
      <trkpt lat="47.01405" lon="8.65559">
        <ele>494</ele>
        <time>2021-08-05T08:42:01.415Z</time>
      </trkpt>
      <trkpt lat="47.01405" lon="8.65559">
        <ele>494</ele>
        <time>2021-08-05T08:42:02.415Z</time>
      </trkpt>
      <trkpt lat="47.01404" lon="8.65559">
        <ele>493</ele>
        <time>2021-08-05T08:42:03.415Z</time>
      </trkpt>
      <trkpt lat="47.01403" lon="8.6556">
        <ele>493</ele>
        <time>2021-08-05T08:42:04.416Z</time>
      </trkpt>
      <trkpt lat="47.01403" lon="8.6556">
        <ele>492</ele>
        <time>2021-08-05T08:42:05.416Z</time>
      </trkpt>
      <trkpt lat="47.01402" lon="8.6556">
        <ele>492</ele>
        <time>2021-08-05T08:42:06.416Z</time>
      </trkpt>
      <trkpt lat="47.01402" lon="8.65561">
        <ele>491</ele>
        <time>2021-08-05T08:42:07.416Z</time>
      </trkpt>
      <trkpt lat="47.01401" lon="8.65561">
        <ele>491</ele>
        <time>2021-08-05T08:42:08.416Z</time>
      </trkpt>
      <trkpt lat="47.014" lon="8.65561">
        <ele>490</ele>
        <time>2021-08-05T08:42:09.416Z</time>
      </trkpt>
      <trkpt lat="47.01399" lon="8.65561">
        <ele>490</ele>
        <time>2021-08-05T08:42:10.415Z</time>
      </trkpt>
      <trkpt lat="47.01399" lon="8.65561">
        <ele>489</ele>
        <time>2021-08-05T08:42:11.416Z</time>
      </trkpt>
      <trkpt lat="47.01398" lon="8.65561">
        <ele>489</ele>
        <time>2021-08-05T08:42:12.415Z</time>
      </trkpt>
      <trkpt lat="47.01397" lon="8.65561">
        <ele>489</ele>
        <time>2021-08-05T08:42:13.416Z</time>
      </trkpt>
      <trkpt lat="47.01396" lon="8.65562">
        <ele>488</ele>
        <time>2021-08-05T08:42:14.415Z</time>
      </trkpt>
      <trkpt lat="47.01396" lon="8.65562">
        <ele>488</ele>
        <time>2021-08-05T08:42:15.416Z</time>
      </trkpt>
      <trkpt lat="47.01395" lon="8.65562">
        <ele>488</ele>
        <time>2021-08-05T08:42:16.415Z</time>
      </trkpt>
      <trkpt lat="47.01394" lon="8.65562">
        <ele>488</ele>
        <time>2021-08-05T08:42:17.416Z</time>
      </trkpt>
      <trkpt lat="47.01393" lon="8.65562">
        <ele>488</ele>
        <time>2021-08-05T08:42:18.416Z</time>
      </trkpt>
      <trkpt lat="47.01393" lon="8.65562">
        <ele>488</ele>
        <time>2021-08-05T08:42:19.416Z</time>
      </trkpt>
      <trkpt lat="47.01392" lon="8.65562">
        <ele>488</ele>
        <time>2021-08-05T08:42:20.416Z</time>
      </trkpt>
      <trkpt lat="47.01392" lon="8.65563">
        <ele>488</ele>
        <time>2021-08-05T08:42:21.415Z</time>
      </trkpt>
      <trkpt lat="47.01391" lon="8.65563">
        <ele>488</ele>
        <time>2021-08-05T08:42:22.416Z</time>
      </trkpt>
      <trkpt lat="47.0139" lon="8.65564">
        <ele>488</ele>
        <time>2021-08-05T08:42:23.415Z</time>
      </trkpt>
      <trkpt lat="47.0139" lon="8.65564">
        <ele>489</ele>
        <time>2021-08-05T08:42:24.416Z</time>
      </trkpt>
      <trkpt lat="47.01389" lon="8.65563">
        <ele>489</ele>
        <time>2021-08-05T08:42:25.415Z</time>
      </trkpt>
      <trkpt lat="47.01388" lon="8.65563">
        <ele>489</ele>
        <time>2021-08-05T08:42:26.415Z</time>
      </trkpt>
      <trkpt lat="47.01387" lon="8.65563">
        <ele>489</ele>
        <time>2021-08-05T08:42:27.416Z</time>
      </trkpt>
      <trkpt lat="47.01386" lon="8.65563">
        <ele>489</ele>
        <time>2021-08-05T08:42:28.415Z</time>
      </trkpt>
      <trkpt lat="47.01386" lon="8.65563">
        <ele>490</ele>
        <time>2021-08-05T08:42:29.416Z</time>
      </trkpt>
      <trkpt lat="47.01385" lon="8.65563">
        <ele>490</ele>
        <time>2021-08-05T08:42:30.416Z</time>
      </trkpt>
      <trkpt lat="47.01383" lon="8.65563">
        <ele>491</ele>
        <time>2021-08-05T08:42:31.415Z</time>
      </trkpt>
      <trkpt lat="47.01382" lon="8.65563">
        <ele>492</ele>
        <time>2021-08-05T08:42:32.416Z</time>
      </trkpt>
      <trkpt lat="47.01381" lon="8.65564">
        <ele>493</ele>
        <time>2021-08-05T08:42:33.416Z</time>
      </trkpt>
      <trkpt lat="47.01381" lon="8.65564">
        <ele>494</ele>
        <time>2021-08-05T08:42:34.416Z</time>
      </trkpt>
      <trkpt lat="47.0138" lon="8.65564">
        <ele>494</ele>
        <time>2021-08-05T08:42:35.416Z</time>
      </trkpt>
      <trkpt lat="47.01379" lon="8.65565">
        <ele>494</ele>
        <time>2021-08-05T08:42:36.415Z</time>
      </trkpt>
      <trkpt lat="47.01378" lon="8.65565">
        <ele>495</ele>
        <time>2021-08-05T08:42:37.416Z</time>
      </trkpt>
      <trkpt lat="47.01377" lon="8.65565">
        <ele>495</ele>
        <time>2021-08-05T08:42:38.415Z</time>
      </trkpt>
      <trkpt lat="47.01376" lon="8.65566">
        <ele>496</ele>
        <time>2021-08-05T08:42:39.415Z</time>
      </trkpt>
      <trkpt lat="47.01376" lon="8.65566">
        <ele>496</ele>
        <time>2021-08-05T08:42:40.416Z</time>
      </trkpt>
      <trkpt lat="47.01364" lon="8.65575">
        <ele>505</ele>
        <time>2021-08-05T08:42:41.415Z</time>
      </trkpt>
      <trkpt lat="47.01364" lon="8.65575">
        <ele>505</ele>
        <time>2021-08-05T08:42:42.416Z</time>
      </trkpt>
      <trkpt lat="47.01363" lon="8.65575">
        <ele>505</ele>
        <time>2021-08-05T08:42:43.415Z</time>
      </trkpt>
      <trkpt lat="47.01363" lon="8.65576">
        <ele>505</ele>
        <time>2021-08-05T08:42:44.416Z</time>
      </trkpt>
      <trkpt lat="47.01363" lon="8.65576">
        <ele>506</ele>
        <time>2021-08-05T08:42:45.416Z</time>
      </trkpt>
      <trkpt lat="47.01362" lon="8.65577">
        <ele>506</ele>
        <time>2021-08-05T08:42:46.416Z</time>
      </trkpt>
      <trkpt lat="47.01364" lon="8.65578">
        <ele>512</ele>
        <time>2021-08-05T08:42:47.416Z</time>
      </trkpt>
      <trkpt lat="47.01363" lon="8.65578">
        <ele>512</ele>
        <time>2021-08-05T08:42:48.416Z</time>
      </trkpt>
      <trkpt lat="47.01363" lon="8.65578">
        <ele>511</ele>
        <time>2021-08-05T08:42:49.416Z</time>
      </trkpt>
      <trkpt lat="47.01362" lon="8.65578">
        <ele>510</ele>
        <time>2021-08-05T08:42:50.417Z</time>
      </trkpt>
      <trkpt lat="47.01361" lon="8.65578">
        <ele>509</ele>
        <time>2021-08-05T08:42:51.417Z</time>
      </trkpt>
      <trkpt lat="47.0136" lon="8.65578">
        <ele>508</ele>
        <time>2021-08-05T08:42:52.416Z</time>
      </trkpt>
      <trkpt lat="47.0136" lon="8.65578">
        <ele>508</ele>
        <time>2021-08-05T08:42:53.416Z</time>
      </trkpt>
      <trkpt lat="47.01359" lon="8.65578">
        <ele>508</ele>
        <time>2021-08-05T08:42:54.417Z</time>
      </trkpt>
      <trkpt lat="47.01358" lon="8.65578">
        <ele>507</ele>
        <time>2021-08-05T08:42:55.416Z</time>
      </trkpt>
      <trkpt lat="47.01357" lon="8.65579">
        <ele>506</ele>
        <time>2021-08-05T08:42:56.417Z</time>
      </trkpt>
      <trkpt lat="47.01357" lon="8.65579">
        <ele>506</ele>
        <time>2021-08-05T08:42:57.417Z</time>
      </trkpt>
      <trkpt lat="47.01357" lon="8.65579">
        <ele>505</ele>
        <time>2021-08-05T08:42:58.417Z</time>
      </trkpt>
      <trkpt lat="47.01357" lon="8.65578">
        <ele>505</ele>
        <time>2021-08-05T08:42:59.416Z</time>
      </trkpt>
      <trkpt lat="47.01358" lon="8.6558">
        <ele>503</ele>
        <time>2021-08-05T08:43:00.416Z</time>
      </trkpt>
      <trkpt lat="47.01358" lon="8.6558">
        <ele>503</ele>
        <time>2021-08-05T08:43:01.417Z</time>
      </trkpt>
      <trkpt lat="47.01356" lon="8.6558">
        <ele>502</ele>
        <time>2021-08-05T08:43:02.417Z</time>
      </trkpt>
      <trkpt lat="47.01354" lon="8.65579">
        <ele>502</ele>
        <time>2021-08-05T08:43:03.417Z</time>
      </trkpt>
      <trkpt lat="47.01352" lon="8.65578">
        <ele>502</ele>
        <time>2021-08-05T08:43:04.416Z</time>
      </trkpt>
      <trkpt lat="47.01351" lon="8.65578">
        <ele>502</ele>
        <time>2021-08-05T08:43:05.417Z</time>
      </trkpt>
      <trkpt lat="47.0135" lon="8.65578">
        <ele>502</ele>
        <time>2021-08-05T08:43:06.417Z</time>
      </trkpt>
      <trkpt lat="47.01349" lon="8.65578">
        <ele>502</ele>
        <time>2021-08-05T08:43:07.416Z</time>
      </trkpt>
      <trkpt lat="47.01348" lon="8.65578">
        <ele>502</ele>
        <time>2021-08-05T08:43:08.417Z</time>
      </trkpt>
      <trkpt lat="47.01348" lon="8.65579">
        <ele>502</ele>
        <time>2021-08-05T08:43:09.416Z</time>
      </trkpt>
      <trkpt lat="47.01347" lon="8.6558">
        <ele>502</ele>
        <time>2021-08-05T08:43:10.417Z</time>
      </trkpt>
      <trkpt lat="47.01347" lon="8.6558">
        <ele>502</ele>
        <time>2021-08-05T08:43:11.417Z</time>
      </trkpt>
      <trkpt lat="47.01346" lon="8.6558">
        <ele>502</ele>
        <time>2021-08-05T08:43:12.417Z</time>
      </trkpt>
      <trkpt lat="47.01345" lon="8.65581">
        <ele>501</ele>
        <time>2021-08-05T08:43:13.416Z</time>
      </trkpt>
      <trkpt lat="47.01345" lon="8.65581">
        <ele>501</ele>
        <time>2021-08-05T08:43:14.416Z</time>
      </trkpt>
      <trkpt lat="47.01345" lon="8.65582">
        <ele>500</ele>
        <time>2021-08-05T08:43:15.417Z</time>
      </trkpt>
      <trkpt lat="47.01345" lon="8.65584">
        <ele>499</ele>
        <time>2021-08-05T08:43:16.417Z</time>
      </trkpt>
      <trkpt lat="47.01345" lon="8.65584">
        <ele>498</ele>
        <time>2021-08-05T08:43:17.417Z</time>
      </trkpt>
      <trkpt lat="47.01344" lon="8.65584">
        <ele>498</ele>
        <time>2021-08-05T08:43:18.416Z</time>
      </trkpt>
      <trkpt lat="47.01343" lon="8.65585">
        <ele>497</ele>
        <time>2021-08-05T08:43:19.417Z</time>
      </trkpt>
      <trkpt lat="47.01343" lon="8.65586">
        <ele>497</ele>
        <time>2021-08-05T08:43:20.416Z</time>
      </trkpt>
      <trkpt lat="47.01342" lon="8.65586">
        <ele>496</ele>
        <time>2021-08-05T08:43:21.416Z</time>
      </trkpt>
      <trkpt lat="47.01341" lon="8.65586">
        <ele>496</ele>
        <time>2021-08-05T08:43:22.417Z</time>
      </trkpt>
      <trkpt lat="47.0134" lon="8.65587">
        <ele>496</ele>
        <time>2021-08-05T08:43:23.417Z</time>
      </trkpt>
      <trkpt lat="47.01339" lon="8.65587">
        <ele>496</ele>
        <time>2021-08-05T08:43:24.417Z</time>
      </trkpt>
      <trkpt lat="47.01338" lon="8.65587">
        <ele>496</ele>
        <time>2021-08-05T08:43:25.417Z</time>
      </trkpt>
      <trkpt lat="47.01338" lon="8.65587">
        <ele>496</ele>
        <time>2021-08-05T08:43:26.417Z</time>
      </trkpt>
      <trkpt lat="47.01337" lon="8.65587">
        <ele>496</ele>
        <time>2021-08-05T08:43:27.417Z</time>
      </trkpt>
      <trkpt lat="47.01337" lon="8.65588">
        <ele>497</ele>
        <time>2021-08-05T08:43:28.416Z</time>
      </trkpt>
      <trkpt lat="47.01336" lon="8.65589">
        <ele>497</ele>
        <time>2021-08-05T08:43:29.417Z</time>
      </trkpt>
      <trkpt lat="47.01335" lon="8.6559">
        <ele>497</ele>
        <time>2021-08-05T08:43:30.417Z</time>
      </trkpt>
      <trkpt lat="47.01335" lon="8.6559">
        <ele>497</ele>
        <time>2021-08-05T08:43:31.416Z</time>
      </trkpt>
      <trkpt lat="47.01333" lon="8.65591">
        <ele>498</ele>
        <time>2021-08-05T08:43:32.417Z</time>
      </trkpt>
      <trkpt lat="47.01333" lon="8.65591">
        <ele>498</ele>
        <time>2021-08-05T08:43:33.417Z</time>
      </trkpt>
      <trkpt lat="47.01331" lon="8.65592">
        <ele>497</ele>
        <time>2021-08-05T08:43:34.416Z</time>
      </trkpt>
      <trkpt lat="47.01331" lon="8.65593">
        <ele>497</ele>
        <time>2021-08-05T08:43:35.417Z</time>
      </trkpt>
      <trkpt lat="47.0133" lon="8.65593">
        <ele>497</ele>
        <time>2021-08-05T08:43:36.417Z</time>
      </trkpt>
      <trkpt lat="47.01329" lon="8.65594">
        <ele>497</ele>
        <time>2021-08-05T08:43:37.416Z</time>
      </trkpt>
      <trkpt lat="47.01328" lon="8.65595">
        <ele>497</ele>
        <time>2021-08-05T08:43:38.416Z</time>
      </trkpt>
      <trkpt lat="47.01327" lon="8.65595">
        <ele>497</ele>
        <time>2021-08-05T08:43:39.416Z</time>
      </trkpt>
      <trkpt lat="47.01326" lon="8.65595">
        <ele>497</ele>
        <time>2021-08-05T08:43:40.417Z</time>
      </trkpt>
      <trkpt lat="47.01325" lon="8.65595">
        <ele>497</ele>
        <time>2021-08-05T08:43:41.416Z</time>
      </trkpt>
      <trkpt lat="47.01325" lon="8.65596">
        <ele>497</ele>
        <time>2021-08-05T08:43:42.417Z</time>
      </trkpt>
      <trkpt lat="47.01324" lon="8.65596">
        <ele>497</ele>
        <time>2021-08-05T08:43:43.417Z</time>
      </trkpt>
      <trkpt lat="47.01324" lon="8.65596">
        <ele>497</ele>
        <time>2021-08-05T08:43:44.417Z</time>
      </trkpt>
      <trkpt lat="47.01323" lon="8.65596">
        <ele>497</ele>
        <time>2021-08-05T08:43:45.416Z</time>
      </trkpt>
      <trkpt lat="47.01319" lon="8.65601">
        <ele>507</ele>
        <time>2021-08-05T08:43:46.417Z</time>
      </trkpt>
      <trkpt lat="47.01319" lon="8.65602">
        <ele>509</ele>
        <time>2021-08-05T08:43:47.417Z</time>
      </trkpt>
      <trkpt lat="47.01319" lon="8.65602">
        <ele>510</ele>
        <time>2021-08-05T08:43:48.416Z</time>
      </trkpt>
      <trkpt lat="47.01319" lon="8.65603">
        <ele>511</ele>
        <time>2021-08-05T08:43:49.416Z</time>
      </trkpt>
      <trkpt lat="47.01317" lon="8.65601">
        <ele>517</ele>
        <time>2021-08-05T08:43:50.417Z</time>
      </trkpt>
      <trkpt lat="47.01317" lon="8.65601">
        <ele>518</ele>
        <time>2021-08-05T08:43:51.416Z</time>
      </trkpt>
      <trkpt lat="47.01317" lon="8.656">
        <ele>519</ele>
        <time>2021-08-05T08:43:52.416Z</time>
      </trkpt>
      <trkpt lat="47.01317" lon="8.656">
        <ele>520</ele>
        <time>2021-08-05T08:43:53.417Z</time>
      </trkpt>
      <trkpt lat="47.01317" lon="8.65599">
        <ele>521</ele>
        <time>2021-08-05T08:43:54.417Z</time>
      </trkpt>
      <trkpt lat="47.01317" lon="8.656">
        <ele>522</ele>
        <time>2021-08-05T08:43:55.416Z</time>
      </trkpt>
      <trkpt lat="47.01317" lon="8.65601">
        <ele>522</ele>
        <time>2021-08-05T08:43:56.416Z</time>
      </trkpt>
      <trkpt lat="47.01318" lon="8.65602">
        <ele>523</ele>
        <time>2021-08-05T08:43:57.417Z</time>
      </trkpt>
      <trkpt lat="47.01318" lon="8.65602">
        <ele>523</ele>
        <time>2021-08-05T08:43:58.417Z</time>
      </trkpt>
      <trkpt lat="47.01317" lon="8.65603">
        <ele>523</ele>
        <time>2021-08-05T08:43:59.417Z</time>
      </trkpt>
      <trkpt lat="47.01315" lon="8.65602">
        <ele>521</ele>
        <time>2021-08-05T08:44:00.417Z</time>
      </trkpt>
      <trkpt lat="47.01315" lon="8.65602">
        <ele>520</ele>
        <time>2021-08-05T08:44:01.418Z</time>
      </trkpt>
      <trkpt lat="47.01314" lon="8.65602">
        <ele>512</ele>
        <time>2021-08-05T08:44:02.418Z</time>
      </trkpt>
      <trkpt lat="47.01314" lon="8.65602">
        <ele>511</ele>
        <time>2021-08-05T08:44:03.417Z</time>
      </trkpt>
      <trkpt lat="47.01313" lon="8.65603">
        <ele>510</ele>
        <time>2021-08-05T08:44:04.417Z</time>
      </trkpt>
      <trkpt lat="47.01312" lon="8.65603">
        <ele>509</ele>
        <time>2021-08-05T08:44:05.417Z</time>
      </trkpt>
      <trkpt lat="47.01312" lon="8.65603">
        <ele>509</ele>
        <time>2021-08-05T08:44:06.417Z</time>
      </trkpt>
      <trkpt lat="47.01311" lon="8.65603">
        <ele>508</ele>
        <time>2021-08-05T08:44:07.417Z</time>
      </trkpt>
      <trkpt lat="47.0131" lon="8.65603">
        <ele>507</ele>
        <time>2021-08-05T08:44:08.417Z</time>
      </trkpt>
      <trkpt lat="47.01309" lon="8.65603">
        <ele>506</ele>
        <time>2021-08-05T08:44:09.418Z</time>
      </trkpt>
      <trkpt lat="47.01309" lon="8.65603">
        <ele>506</ele>
        <time>2021-08-05T08:44:10.418Z</time>
      </trkpt>
      <trkpt lat="47.01308" lon="8.65603">
        <ele>505</ele>
        <time>2021-08-05T08:44:11.418Z</time>
      </trkpt>
      <trkpt lat="47.01308" lon="8.65603">
        <ele>505</ele>
        <time>2021-08-05T08:44:12.418Z</time>
      </trkpt>
      <trkpt lat="47.01307" lon="8.65602">
        <ele>504</ele>
        <time>2021-08-05T08:44:13.418Z</time>
      </trkpt>
      <trkpt lat="47.01307" lon="8.65602">
        <ele>504</ele>
        <time>2021-08-05T08:44:14.417Z</time>
      </trkpt>
      <trkpt lat="47.01307" lon="8.65604">
        <ele>497</ele>
        <time>2021-08-05T08:44:15.417Z</time>
      </trkpt>
      <trkpt lat="47.01307" lon="8.65604">
        <ele>497</ele>
        <time>2021-08-05T08:44:16.417Z</time>
      </trkpt>
      <trkpt lat="47.01307" lon="8.65603">
        <ele>492</ele>
        <time>2021-08-05T08:44:17.418Z</time>
      </trkpt>
      <trkpt lat="47.01307" lon="8.65603">
        <ele>493</ele>
        <time>2021-08-05T08:44:18.418Z</time>
      </trkpt>
      <trkpt lat="47.01306" lon="8.65602">
        <ele>494</ele>
        <time>2021-08-05T08:44:19.417Z</time>
      </trkpt>
      <trkpt lat="47.01305" lon="8.65602">
        <ele>495</ele>
        <time>2021-08-05T08:44:20.417Z</time>
      </trkpt>
      <trkpt lat="47.01304" lon="8.65602">
        <ele>496</ele>
        <time>2021-08-05T08:44:21.418Z</time>
      </trkpt>
      <trkpt lat="47.01304" lon="8.65603">
        <ele>497</ele>
        <time>2021-08-05T08:44:22.418Z</time>
      </trkpt>
      <trkpt lat="47.01302" lon="8.65602">
        <ele>498</ele>
        <time>2021-08-05T08:44:23.418Z</time>
      </trkpt>
      <trkpt lat="47.01301" lon="8.65602">
        <ele>499</ele>
        <time>2021-08-05T08:44:24.418Z</time>
      </trkpt>
      <trkpt lat="47.01299" lon="8.65602">
        <ele>499</ele>
        <time>2021-08-05T08:44:25.417Z</time>
      </trkpt>
      <trkpt lat="47.01299" lon="8.65602">
        <ele>500</ele>
        <time>2021-08-05T08:44:26.418Z</time>
      </trkpt>
      <trkpt lat="47.01298" lon="8.65602">
        <ele>500</ele>
        <time>2021-08-05T08:44:27.418Z</time>
      </trkpt>
      <trkpt lat="47.01297" lon="8.65602">
        <ele>500</ele>
        <time>2021-08-05T08:44:28.417Z</time>
      </trkpt>
      <trkpt lat="47.01297" lon="8.65602">
        <ele>501</ele>
        <time>2021-08-05T08:44:29.417Z</time>
      </trkpt>
      <trkpt lat="47.01296" lon="8.65602">
        <ele>501</ele>
        <time>2021-08-05T08:44:30.417Z</time>
      </trkpt>
      <trkpt lat="47.01295" lon="8.65602">
        <ele>501</ele>
        <time>2021-08-05T08:44:31.418Z</time>
      </trkpt>
      <trkpt lat="47.01294" lon="8.65602">
        <ele>501</ele>
        <time>2021-08-05T08:44:32.418Z</time>
      </trkpt>
      <trkpt lat="47.01294" lon="8.65602">
        <ele>501</ele>
        <time>2021-08-05T08:44:33.418Z</time>
      </trkpt>
      <trkpt lat="47.01293" lon="8.65601">
        <ele>501</ele>
        <time>2021-08-05T08:44:34.417Z</time>
      </trkpt>
      <trkpt lat="47.01292" lon="8.65601">
        <ele>501</ele>
        <time>2021-08-05T08:44:35.417Z</time>
      </trkpt>
      <trkpt lat="47.01291" lon="8.65601">
        <ele>501</ele>
        <time>2021-08-05T08:44:36.417Z</time>
      </trkpt>
      <trkpt lat="47.0129" lon="8.656">
        <ele>501</ele>
        <time>2021-08-05T08:44:37.417Z</time>
      </trkpt>
      <trkpt lat="47.01289" lon="8.656">
        <ele>501</ele>
        <time>2021-08-05T08:44:38.417Z</time>
      </trkpt>
      <trkpt lat="47.01288" lon="8.656">
        <ele>501</ele>
        <time>2021-08-05T08:44:39.417Z</time>
      </trkpt>
      <trkpt lat="47.01287" lon="8.656">
        <ele>500</ele>
        <time>2021-08-05T08:44:40.417Z</time>
      </trkpt>
      <trkpt lat="47.01286" lon="8.656">
        <ele>500</ele>
        <time>2021-08-05T08:44:41.418Z</time>
      </trkpt>
      <trkpt lat="47.01285" lon="8.65599">
        <ele>500</ele>
        <time>2021-08-05T08:44:42.418Z</time>
      </trkpt>
      <trkpt lat="47.01284" lon="8.65599">
        <ele>500</ele>
        <time>2021-08-05T08:44:43.418Z</time>
      </trkpt>
      <trkpt lat="47.01283" lon="8.65599">
        <ele>500</ele>
        <time>2021-08-05T08:44:44.418Z</time>
      </trkpt>
      <trkpt lat="47.01282" lon="8.65599">
        <ele>499</ele>
        <time>2021-08-05T08:44:45.418Z</time>
      </trkpt>
      <trkpt lat="47.01281" lon="8.65599">
        <ele>499</ele>
        <time>2021-08-05T08:44:46.418Z</time>
      </trkpt>
      <trkpt lat="47.0128" lon="8.65599">
        <ele>498</ele>
        <time>2021-08-05T08:44:47.418Z</time>
      </trkpt>
      <trkpt lat="47.01279" lon="8.656">
        <ele>498</ele>
        <time>2021-08-05T08:44:48.418Z</time>
      </trkpt>
      <trkpt lat="47.01278" lon="8.65599">
        <ele>498</ele>
        <time>2021-08-05T08:44:49.418Z</time>
      </trkpt>
      <trkpt lat="47.01277" lon="8.65599">
        <ele>498</ele>
        <time>2021-08-05T08:44:50.417Z</time>
      </trkpt>
      <trkpt lat="47.01276" lon="8.65599">
        <ele>498</ele>
        <time>2021-08-05T08:44:51.418Z</time>
      </trkpt>
      <trkpt lat="47.01275" lon="8.65598">
        <ele>498</ele>
        <time>2021-08-05T08:44:52.418Z</time>
      </trkpt>
      <trkpt lat="47.01274" lon="8.65598">
        <ele>498</ele>
        <time>2021-08-05T08:44:53.418Z</time>
      </trkpt>
      <trkpt lat="47.01273" lon="8.65597">
        <ele>499</ele>
        <time>2021-08-05T08:44:54.418Z</time>
      </trkpt>
      <trkpt lat="47.01272" lon="8.65597">
        <ele>498</ele>
        <time>2021-08-05T08:44:55.417Z</time>
      </trkpt>
      <trkpt lat="47.01271" lon="8.65597">
        <ele>498</ele>
        <time>2021-08-05T08:44:56.418Z</time>
      </trkpt>
      <trkpt lat="47.01271" lon="8.65597">
        <ele>498</ele>
        <time>2021-08-05T08:44:57.418Z</time>
      </trkpt>
      <trkpt lat="47.01269" lon="8.65597">
        <ele>498</ele>
        <time>2021-08-05T08:44:58.417Z</time>
      </trkpt>
      <trkpt lat="47.01268" lon="8.65596">
        <ele>498</ele>
        <time>2021-08-05T08:44:59.417Z</time>
      </trkpt>
      <trkpt lat="47.01267" lon="8.65596">
        <ele>498</ele>
        <time>2021-08-05T08:45:00.418Z</time>
      </trkpt>
      <trkpt lat="47.01267" lon="8.65596">
        <ele>498</ele>
        <time>2021-08-05T08:45:01.418Z</time>
      </trkpt>
      <trkpt lat="47.01266" lon="8.65595">
        <ele>498</ele>
        <time>2021-08-05T08:45:02.418Z</time>
      </trkpt>
      <trkpt lat="47.01266" lon="8.65595">
        <ele>498</ele>
        <time>2021-08-05T08:45:03.417Z</time>
      </trkpt>
      <trkpt lat="47.01265" lon="8.65596">
        <ele>498</ele>
        <time>2021-08-05T08:45:04.418Z</time>
      </trkpt>
      <trkpt lat="47.01265" lon="8.65596">
        <ele>498</ele>
        <time>2021-08-05T08:45:05.418Z</time>
      </trkpt>
      <trkpt lat="47.01265" lon="8.65596">
        <ele>497</ele>
        <time>2021-08-05T08:45:06.418Z</time>
      </trkpt>
      <trkpt lat="47.01264" lon="8.65596">
        <ele>497</ele>
        <time>2021-08-05T08:45:07.418Z</time>
      </trkpt>
      <trkpt lat="47.01263" lon="8.65596">
        <ele>497</ele>
        <time>2021-08-05T08:45:08.417Z</time>
      </trkpt>
      <trkpt lat="47.01262" lon="8.65595">
        <ele>497</ele>
        <time>2021-08-05T08:45:09.418Z</time>
      </trkpt>
      <trkpt lat="47.01261" lon="8.65595">
        <ele>497</ele>
        <time>2021-08-05T08:45:10.417Z</time>
      </trkpt>
      <trkpt lat="47.0126" lon="8.65594">
        <ele>498</ele>
        <time>2021-08-05T08:45:11.418Z</time>
      </trkpt>
      <trkpt lat="47.01258" lon="8.65594">
        <ele>498</ele>
        <time>2021-08-05T08:45:12.418Z</time>
      </trkpt>
      <trkpt lat="47.01257" lon="8.65593">
        <ele>498</ele>
        <time>2021-08-05T08:45:13.417Z</time>
      </trkpt>
      <trkpt lat="47.01256" lon="8.65592">
        <ele>498</ele>
        <time>2021-08-05T08:45:14.417Z</time>
      </trkpt>
      <trkpt lat="47.01255" lon="8.65592">
        <ele>498</ele>
        <time>2021-08-05T08:45:15.418Z</time>
      </trkpt>
      <trkpt lat="47.01254" lon="8.65591">
        <ele>498</ele>
        <time>2021-08-05T08:45:16.417Z</time>
      </trkpt>
      <trkpt lat="47.01253" lon="8.65591">
        <ele>497</ele>
        <time>2021-08-05T08:45:17.417Z</time>
      </trkpt>
      <trkpt lat="47.01252" lon="8.65591">
        <ele>497</ele>
        <time>2021-08-05T08:45:18.418Z</time>
      </trkpt>
      <trkpt lat="47.01251" lon="8.65592">
        <ele>496</ele>
        <time>2021-08-05T08:45:19.417Z</time>
      </trkpt>
      <trkpt lat="47.0125" lon="8.65592">
        <ele>496</ele>
        <time>2021-08-05T08:45:20.418Z</time>
      </trkpt>
      <trkpt lat="47.01249" lon="8.65592">
        <ele>495</ele>
        <time>2021-08-05T08:45:21.417Z</time>
      </trkpt>
      <trkpt lat="47.01249" lon="8.65593">
        <ele>495</ele>
        <time>2021-08-05T08:45:22.418Z</time>
      </trkpt>
      <trkpt lat="47.01248" lon="8.65593">
        <ele>494</ele>
        <time>2021-08-05T08:45:23.418Z</time>
      </trkpt>
      <trkpt lat="47.01247" lon="8.65593">
        <ele>494</ele>
        <time>2021-08-05T08:45:24.418Z</time>
      </trkpt>
      <trkpt lat="47.01246" lon="8.65593">
        <ele>495</ele>
        <time>2021-08-05T08:45:25.417Z</time>
      </trkpt>
      <trkpt lat="47.01245" lon="8.65593">
        <ele>495</ele>
        <time>2021-08-05T08:45:26.418Z</time>
      </trkpt>
      <trkpt lat="47.01244" lon="8.65592">
        <ele>495</ele>
        <time>2021-08-05T08:45:27.418Z</time>
      </trkpt>
      <trkpt lat="47.01243" lon="8.65592">
        <ele>495</ele>
        <time>2021-08-05T08:45:28.417Z</time>
      </trkpt>
      <trkpt lat="47.01242" lon="8.65591">
        <ele>495</ele>
        <time>2021-08-05T08:45:29.417Z</time>
      </trkpt>
      <trkpt lat="47.01241" lon="8.65591">
        <ele>495</ele>
        <time>2021-08-05T08:45:30.418Z</time>
      </trkpt>
      <trkpt lat="47.0124" lon="8.65591">
        <ele>496</ele>
        <time>2021-08-05T08:45:31.418Z</time>
      </trkpt>
      <trkpt lat="47.01239" lon="8.65591">
        <ele>496</ele>
        <time>2021-08-05T08:45:32.418Z</time>
      </trkpt>
      <trkpt lat="47.01238" lon="8.65591">
        <ele>496</ele>
        <time>2021-08-05T08:45:33.418Z</time>
      </trkpt>
      <trkpt lat="47.01237" lon="8.65591">
        <ele>496</ele>
        <time>2021-08-05T08:45:34.418Z</time>
      </trkpt>
      <trkpt lat="47.01236" lon="8.6559">
        <ele>495</ele>
        <time>2021-08-05T08:45:35.418Z</time>
      </trkpt>
      <trkpt lat="47.01235" lon="8.6559">
        <ele>495</ele>
        <time>2021-08-05T08:45:36.418Z</time>
      </trkpt>
      <trkpt lat="47.01234" lon="8.6559">
        <ele>495</ele>
        <time>2021-08-05T08:45:37.418Z</time>
      </trkpt>
      <trkpt lat="47.01232" lon="8.65589">
        <ele>495</ele>
        <time>2021-08-05T08:45:38.418Z</time>
      </trkpt>
      <trkpt lat="47.01231" lon="8.65588">
        <ele>495</ele>
        <time>2021-08-05T08:45:39.418Z</time>
      </trkpt>
      <trkpt lat="47.0123" lon="8.65587">
        <ele>495</ele>
        <time>2021-08-05T08:45:40.418Z</time>
      </trkpt>
      <trkpt lat="47.01229" lon="8.65586">
        <ele>495</ele>
        <time>2021-08-05T08:45:41.417Z</time>
      </trkpt>
      <trkpt lat="47.01228" lon="8.65585">
        <ele>496</ele>
        <time>2021-08-05T08:45:42.417Z</time>
      </trkpt>
      <trkpt lat="47.01227" lon="8.65584">
        <ele>495</ele>
        <time>2021-08-05T08:45:43.417Z</time>
      </trkpt>
      <trkpt lat="47.01226" lon="8.65584">
        <ele>495</ele>
        <time>2021-08-05T08:45:44.418Z</time>
      </trkpt>
      <trkpt lat="47.01225" lon="8.65583">
        <ele>495</ele>
        <time>2021-08-05T08:45:45.418Z</time>
      </trkpt>
      <trkpt lat="47.01224" lon="8.65583">
        <ele>495</ele>
        <time>2021-08-05T08:45:46.418Z</time>
      </trkpt>
      <trkpt lat="47.01223" lon="8.65583">
        <ele>495</ele>
        <time>2021-08-05T08:45:47.418Z</time>
      </trkpt>
      <trkpt lat="47.01222" lon="8.65583">
        <ele>495</ele>
        <time>2021-08-05T08:45:48.417Z</time>
      </trkpt>
      <trkpt lat="47.0122" lon="8.65583">
        <ele>495</ele>
        <time>2021-08-05T08:45:49.418Z</time>
      </trkpt>
      <trkpt lat="47.01219" lon="8.65584">
        <ele>495</ele>
        <time>2021-08-05T08:45:50.418Z</time>
      </trkpt>
      <trkpt lat="47.01218" lon="8.65585">
        <ele>495</ele>
        <time>2021-08-05T08:45:51.418Z</time>
      </trkpt>
      <trkpt lat="47.01218" lon="8.65586">
        <ele>495</ele>
        <time>2021-08-05T08:45:52.417Z</time>
      </trkpt>
      <trkpt lat="47.01217" lon="8.65586">
        <ele>495</ele>
        <time>2021-08-05T08:45:53.418Z</time>
      </trkpt>
      <trkpt lat="47.01217" lon="8.65585">
        <ele>495</ele>
        <time>2021-08-05T08:45:54.417Z</time>
      </trkpt>
      <trkpt lat="47.01216" lon="8.65584">
        <ele>495</ele>
        <time>2021-08-05T08:45:55.418Z</time>
      </trkpt>
      <trkpt lat="47.01216" lon="8.65584">
        <ele>495</ele>
        <time>2021-08-05T08:45:56.418Z</time>
      </trkpt>
      <trkpt lat="47.01215" lon="8.65584">
        <ele>494</ele>
        <time>2021-08-05T08:45:57.418Z</time>
      </trkpt>
      <trkpt lat="47.01214" lon="8.65583">
        <ele>494</ele>
        <time>2021-08-05T08:45:58.418Z</time>
      </trkpt>
      <trkpt lat="47.01212" lon="8.65582">
        <ele>493</ele>
        <time>2021-08-05T08:45:59.417Z</time>
      </trkpt>
      <trkpt lat="47.01211" lon="8.65582">
        <ele>492</ele>
        <time>2021-08-05T08:46:00.418Z</time>
      </trkpt>
      <trkpt lat="47.0121" lon="8.65581">
        <ele>491</ele>
        <time>2021-08-05T08:46:01.418Z</time>
      </trkpt>
      <trkpt lat="47.01209" lon="8.65581">
        <ele>491</ele>
        <time>2021-08-05T08:46:02.417Z</time>
      </trkpt>
      <trkpt lat="47.01208" lon="8.65581">
        <ele>491</ele>
        <time>2021-08-05T08:46:03.418Z</time>
      </trkpt>
      <trkpt lat="47.01207" lon="8.65581">
        <ele>491</ele>
        <time>2021-08-05T08:46:04.417Z</time>
      </trkpt>
      <trkpt lat="47.01206" lon="8.65581">
        <ele>491</ele>
        <time>2021-08-05T08:46:05.417Z</time>
      </trkpt>
      <trkpt lat="47.01205" lon="8.65581">
        <ele>492</ele>
        <time>2021-08-05T08:46:06.417Z</time>
      </trkpt>
      <trkpt lat="47.01205" lon="8.65581">
        <ele>492</ele>
        <time>2021-08-05T08:46:07.417Z</time>
      </trkpt>
      <trkpt lat="47.01204" lon="8.65581">
        <ele>493</ele>
        <time>2021-08-05T08:46:08.417Z</time>
      </trkpt>
      <trkpt lat="47.01203" lon="8.65581">
        <ele>493</ele>
        <time>2021-08-05T08:46:09.417Z</time>
      </trkpt>
      <trkpt lat="47.01202" lon="8.65581">
        <ele>493</ele>
        <time>2021-08-05T08:46:10.417Z</time>
      </trkpt>
      <trkpt lat="47.01201" lon="8.65581">
        <ele>493</ele>
        <time>2021-08-05T08:46:11.417Z</time>
      </trkpt>
      <trkpt lat="47.012" lon="8.65581">
        <ele>493</ele>
        <time>2021-08-05T08:46:12.417Z</time>
      </trkpt>
      <trkpt lat="47.012" lon="8.65581">
        <ele>492</ele>
        <time>2021-08-05T08:46:13.418Z</time>
      </trkpt>
      <trkpt lat="47.01199" lon="8.6558">
        <ele>492</ele>
        <time>2021-08-05T08:46:14.418Z</time>
      </trkpt>
      <trkpt lat="47.01198" lon="8.65579">
        <ele>493</ele>
        <time>2021-08-05T08:46:15.418Z</time>
      </trkpt>
      <trkpt lat="47.01197" lon="8.65579">
        <ele>493</ele>
        <time>2021-08-05T08:46:16.418Z</time>
      </trkpt>
      <trkpt lat="47.01195" lon="8.65578">
        <ele>493</ele>
        <time>2021-08-05T08:46:17.417Z</time>
      </trkpt>
      <trkpt lat="47.01194" lon="8.65578">
        <ele>493</ele>
        <time>2021-08-05T08:46:18.418Z</time>
      </trkpt>
      <trkpt lat="47.01193" lon="8.65578">
        <ele>493</ele>
        <time>2021-08-05T08:46:19.417Z</time>
      </trkpt>
      <trkpt lat="47.01193" lon="8.65578">
        <ele>494</ele>
        <time>2021-08-05T08:46:20.418Z</time>
      </trkpt>
      <trkpt lat="47.01193" lon="8.65578">
        <ele>494</ele>
        <time>2021-08-05T08:46:21.418Z</time>
      </trkpt>
      <trkpt lat="47.01192" lon="8.65579">
        <ele>494</ele>
        <time>2021-08-05T08:46:22.417Z</time>
      </trkpt>
      <trkpt lat="47.01192" lon="8.65579">
        <ele>494</ele>
        <time>2021-08-05T08:46:23.418Z</time>
      </trkpt>
      <trkpt lat="47.01191" lon="8.65579">
        <ele>495</ele>
        <time>2021-08-05T08:46:24.418Z</time>
      </trkpt>
      <trkpt lat="47.01191" lon="8.6558">
        <ele>495</ele>
        <time>2021-08-05T08:46:25.417Z</time>
      </trkpt>
      <trkpt lat="47.0119" lon="8.6558">
        <ele>495</ele>
        <time>2021-08-05T08:46:26.418Z</time>
      </trkpt>
      <trkpt lat="47.01189" lon="8.6558">
        <ele>494</ele>
        <time>2021-08-05T08:46:27.417Z</time>
      </trkpt>
      <trkpt lat="47.01187" lon="8.6558">
        <ele>494</ele>
        <time>2021-08-05T08:46:28.418Z</time>
      </trkpt>
      <trkpt lat="47.01186" lon="8.6558">
        <ele>494</ele>
        <time>2021-08-05T08:46:29.418Z</time>
      </trkpt>
      <trkpt lat="47.01184" lon="8.65579">
        <ele>494</ele>
        <time>2021-08-05T08:46:30.418Z</time>
      </trkpt>
      <trkpt lat="47.01183" lon="8.65579">
        <ele>494</ele>
        <time>2021-08-05T08:46:31.417Z</time>
      </trkpt>
      <trkpt lat="47.01182" lon="8.65578">
        <ele>494</ele>
        <time>2021-08-05T08:46:32.417Z</time>
      </trkpt>
      <trkpt lat="47.01182" lon="8.65578">
        <ele>494</ele>
        <time>2021-08-05T08:46:33.417Z</time>
      </trkpt>
      <trkpt lat="47.0118" lon="8.65577">
        <ele>494</ele>
        <time>2021-08-05T08:46:34.418Z</time>
      </trkpt>
      <trkpt lat="47.01179" lon="8.65576">
        <ele>494</ele>
        <time>2021-08-05T08:46:35.418Z</time>
      </trkpt>
      <trkpt lat="47.01178" lon="8.65576">
        <ele>494</ele>
        <time>2021-08-05T08:46:36.418Z</time>
      </trkpt>
      <trkpt lat="47.01177" lon="8.65576">
        <ele>494</ele>
        <time>2021-08-05T08:46:37.418Z</time>
      </trkpt>
      <trkpt lat="47.01176" lon="8.65577">
        <ele>494</ele>
        <time>2021-08-05T08:46:38.418Z</time>
      </trkpt>
      <trkpt lat="47.01175" lon="8.65577">
        <ele>493</ele>
        <time>2021-08-05T08:46:39.418Z</time>
      </trkpt>
      <trkpt lat="47.01174" lon="8.65577">
        <ele>492</ele>
        <time>2021-08-05T08:46:40.418Z</time>
      </trkpt>
      <trkpt lat="47.01173" lon="8.65577">
        <ele>492</ele>
        <time>2021-08-05T08:46:41.418Z</time>
      </trkpt>
      <trkpt lat="47.01171" lon="8.65577">
        <ele>491</ele>
        <time>2021-08-05T08:46:42.417Z</time>
      </trkpt>
      <trkpt lat="47.0117" lon="8.65577">
        <ele>491</ele>
        <time>2021-08-05T08:46:43.418Z</time>
      </trkpt>
      <trkpt lat="47.01169" lon="8.65576">
        <ele>491</ele>
        <time>2021-08-05T08:46:44.417Z</time>
      </trkpt>
      <trkpt lat="47.01167" lon="8.65575">
        <ele>491</ele>
        <time>2021-08-05T08:46:45.417Z</time>
      </trkpt>
      <trkpt lat="47.01166" lon="8.65574">
        <ele>491</ele>
        <time>2021-08-05T08:46:46.418Z</time>
      </trkpt>
      <trkpt lat="47.01165" lon="8.65574">
        <ele>491</ele>
        <time>2021-08-05T08:46:47.418Z</time>
      </trkpt>
      <trkpt lat="47.01163" lon="8.65573">
        <ele>491</ele>
        <time>2021-08-05T08:46:48.418Z</time>
      </trkpt>
      <trkpt lat="47.01162" lon="8.65572">
        <ele>491</ele>
        <time>2021-08-05T08:46:49.418Z</time>
      </trkpt>
      <trkpt lat="47.01161" lon="8.65571">
        <ele>492</ele>
        <time>2021-08-05T08:46:50.418Z</time>
      </trkpt>
      <trkpt lat="47.0116" lon="8.65571">
        <ele>493</ele>
        <time>2021-08-05T08:46:51.418Z</time>
      </trkpt>
      <trkpt lat="47.01159" lon="8.65571">
        <ele>493</ele>
        <time>2021-08-05T08:46:52.417Z</time>
      </trkpt>
      <trkpt lat="47.01158" lon="8.65571">
        <ele>494</ele>
        <time>2021-08-05T08:46:53.418Z</time>
      </trkpt>
      <trkpt lat="47.01157" lon="8.6557">
        <ele>494</ele>
        <time>2021-08-05T08:46:54.417Z</time>
      </trkpt>
      <trkpt lat="47.01156" lon="8.6557">
        <ele>494</ele>
        <time>2021-08-05T08:46:55.418Z</time>
      </trkpt>
      <trkpt lat="47.01155" lon="8.65569">
        <ele>495</ele>
        <time>2021-08-05T08:46:56.418Z</time>
      </trkpt>
      <trkpt lat="47.01154" lon="8.6557">
        <ele>495</ele>
        <time>2021-08-05T08:46:57.417Z</time>
      </trkpt>
      <trkpt lat="47.01154" lon="8.6557">
        <ele>496</ele>
        <time>2021-08-05T08:46:58.418Z</time>
      </trkpt>
      <trkpt lat="47.01153" lon="8.6557">
        <ele>496</ele>
        <time>2021-08-05T08:46:59.417Z</time>
      </trkpt>
      <trkpt lat="47.01152" lon="8.6557">
        <ele>496</ele>
        <time>2021-08-05T08:47:00.418Z</time>
      </trkpt>
      <trkpt lat="47.01151" lon="8.6557">
        <ele>496</ele>
        <time>2021-08-05T08:47:01.418Z</time>
      </trkpt>
      <trkpt lat="47.0115" lon="8.6557">
        <ele>496</ele>
        <time>2021-08-05T08:47:02.418Z</time>
      </trkpt>
      <trkpt lat="47.0115" lon="8.6557">
        <ele>495</ele>
        <time>2021-08-05T08:47:03.418Z</time>
      </trkpt>
      <trkpt lat="47.01149" lon="8.65569">
        <ele>495</ele>
        <time>2021-08-05T08:47:04.417Z</time>
      </trkpt>
      <trkpt lat="47.01148" lon="8.65568">
        <ele>495</ele>
        <time>2021-08-05T08:47:05.417Z</time>
      </trkpt>
      <trkpt lat="47.01147" lon="8.65568">
        <ele>495</ele>
        <time>2021-08-05T08:47:06.418Z</time>
      </trkpt>
      <trkpt lat="47.01146" lon="8.65567">
        <ele>495</ele>
        <time>2021-08-05T08:47:07.418Z</time>
      </trkpt>
      <trkpt lat="47.01145" lon="8.65565">
        <ele>495</ele>
        <time>2021-08-05T08:47:08.418Z</time>
      </trkpt>
      <trkpt lat="47.01144" lon="8.65565">
        <ele>495</ele>
        <time>2021-08-05T08:47:09.418Z</time>
      </trkpt>
      <trkpt lat="47.01142" lon="8.65564">
        <ele>495</ele>
        <time>2021-08-05T08:47:10.418Z</time>
      </trkpt>
      <trkpt lat="47.01141" lon="8.65564">
        <ele>495</ele>
        <time>2021-08-05T08:47:11.418Z</time>
      </trkpt>
      <trkpt lat="47.01141" lon="8.65566">
        <ele>495</ele>
        <time>2021-08-05T08:47:12.417Z</time>
      </trkpt>
      <trkpt lat="47.0114" lon="8.65567">
        <ele>495</ele>
        <time>2021-08-05T08:47:13.418Z</time>
      </trkpt>
      <trkpt lat="47.01139" lon="8.65568">
        <ele>495</ele>
        <time>2021-08-05T08:47:14.418Z</time>
      </trkpt>
      <trkpt lat="47.01139" lon="8.65568">
        <ele>494</ele>
        <time>2021-08-05T08:47:15.417Z</time>
      </trkpt>
      <trkpt lat="47.01138" lon="8.65568">
        <ele>494</ele>
        <time>2021-08-05T08:47:16.417Z</time>
      </trkpt>
      <trkpt lat="47.01138" lon="8.65568">
        <ele>495</ele>
        <time>2021-08-05T08:47:17.417Z</time>
      </trkpt>
      <trkpt lat="47.01138" lon="8.65567">
        <ele>495</ele>
        <time>2021-08-05T08:47:18.418Z</time>
      </trkpt>
      <trkpt lat="47.01137" lon="8.65566">
        <ele>495</ele>
        <time>2021-08-05T08:47:19.417Z</time>
      </trkpt>
      <trkpt lat="47.01136" lon="8.65565">
        <ele>495</ele>
        <time>2021-08-05T08:47:20.418Z</time>
      </trkpt>
      <trkpt lat="47.01135" lon="8.65564">
        <ele>495</ele>
        <time>2021-08-05T08:47:21.418Z</time>
      </trkpt>
      <trkpt lat="47.01133" lon="8.65563">
        <ele>496</ele>
        <time>2021-08-05T08:47:22.418Z</time>
      </trkpt>
      <trkpt lat="47.01132" lon="8.65563">
        <ele>496</ele>
        <time>2021-08-05T08:47:23.418Z</time>
      </trkpt>
      <trkpt lat="47.0113" lon="8.65562">
        <ele>496</ele>
        <time>2021-08-05T08:47:24.418Z</time>
      </trkpt>
      <trkpt lat="47.01129" lon="8.65562">
        <ele>496</ele>
        <time>2021-08-05T08:47:25.417Z</time>
      </trkpt>
      <trkpt lat="47.01128" lon="8.65562">
        <ele>496</ele>
        <time>2021-08-05T08:47:26.417Z</time>
      </trkpt>
      <trkpt lat="47.01127" lon="8.65561">
        <ele>496</ele>
        <time>2021-08-05T08:47:27.417Z</time>
      </trkpt>
      <trkpt lat="47.01126" lon="8.65561">
        <ele>496</ele>
        <time>2021-08-05T08:47:28.417Z</time>
      </trkpt>
      <trkpt lat="47.01125" lon="8.65561">
        <ele>496</ele>
        <time>2021-08-05T08:47:29.418Z</time>
      </trkpt>
      <trkpt lat="47.01124" lon="8.65561">
        <ele>497</ele>
        <time>2021-08-05T08:47:30.418Z</time>
      </trkpt>
      <trkpt lat="47.01123" lon="8.6556">
        <ele>497</ele>
        <time>2021-08-05T08:47:31.418Z</time>
      </trkpt>
      <trkpt lat="47.01122" lon="8.6556">
        <ele>497</ele>
        <time>2021-08-05T08:47:32.418Z</time>
      </trkpt>
      <trkpt lat="47.0112" lon="8.6556">
        <ele>497</ele>
        <time>2021-08-05T08:47:33.417Z</time>
      </trkpt>
      <trkpt lat="47.0112" lon="8.6556">
        <ele>497</ele>
        <time>2021-08-05T08:47:34.418Z</time>
      </trkpt>
      <trkpt lat="47.01119" lon="8.6556">
        <ele>497</ele>
        <time>2021-08-05T08:47:35.417Z</time>
      </trkpt>
      <trkpt lat="47.01118" lon="8.6556">
        <ele>497</ele>
        <time>2021-08-05T08:47:36.418Z</time>
      </trkpt>
      <trkpt lat="47.01117" lon="8.6556">
        <ele>496</ele>
        <time>2021-08-05T08:47:37.418Z</time>
      </trkpt>
      <trkpt lat="47.01116" lon="8.65561">
        <ele>496</ele>
        <time>2021-08-05T08:47:38.417Z</time>
      </trkpt>
      <trkpt lat="47.01116" lon="8.65561">
        <ele>496</ele>
        <time>2021-08-05T08:47:39.417Z</time>
      </trkpt>
      <trkpt lat="47.01115" lon="8.65562">
        <ele>495</ele>
        <time>2021-08-05T08:47:40.418Z</time>
      </trkpt>
      <trkpt lat="47.01115" lon="8.65563">
        <ele>495</ele>
        <time>2021-08-05T08:47:41.418Z</time>
      </trkpt>
      <trkpt lat="47.01114" lon="8.65563">
        <ele>494</ele>
        <time>2021-08-05T08:47:42.418Z</time>
      </trkpt>
      <trkpt lat="47.01114" lon="8.65563">
        <ele>493</ele>
        <time>2021-08-05T08:47:43.417Z</time>
      </trkpt>
      <trkpt lat="47.01113" lon="8.65562">
        <ele>493</ele>
        <time>2021-08-05T08:47:44.417Z</time>
      </trkpt>
      <trkpt lat="47.01112" lon="8.65561">
        <ele>492</ele>
        <time>2021-08-05T08:47:45.418Z</time>
      </trkpt>
      <trkpt lat="47.01111" lon="8.6556">
        <ele>492</ele>
        <time>2021-08-05T08:47:46.418Z</time>
      </trkpt>
      <trkpt lat="47.0111" lon="8.65559">
        <ele>491</ele>
        <time>2021-08-05T08:47:47.418Z</time>
      </trkpt>
      <trkpt lat="47.01109" lon="8.65558">
        <ele>491</ele>
        <time>2021-08-05T08:47:48.418Z</time>
      </trkpt>
      <trkpt lat="47.01108" lon="8.65558">
        <ele>491</ele>
        <time>2021-08-05T08:47:49.417Z</time>
      </trkpt>
      <trkpt lat="47.01108" lon="8.65558">
        <ele>492</ele>
        <time>2021-08-05T08:47:50.417Z</time>
      </trkpt>
      <trkpt lat="47.01107" lon="8.65557">
        <ele>492</ele>
        <time>2021-08-05T08:47:51.418Z</time>
      </trkpt>
      <trkpt lat="47.01106" lon="8.65556">
        <ele>492</ele>
        <time>2021-08-05T08:47:52.418Z</time>
      </trkpt>
      <trkpt lat="47.01105" lon="8.65554">
        <ele>493</ele>
        <time>2021-08-05T08:47:53.418Z</time>
      </trkpt>
      <trkpt lat="47.01104" lon="8.65553">
        <ele>493</ele>
        <time>2021-08-05T08:47:54.417Z</time>
      </trkpt>
      <trkpt lat="47.01103" lon="8.65552">
        <ele>493</ele>
        <time>2021-08-05T08:47:55.418Z</time>
      </trkpt>
      <trkpt lat="47.01103" lon="8.65551">
        <ele>494</ele>
        <time>2021-08-05T08:47:56.417Z</time>
      </trkpt>
      <trkpt lat="47.01103" lon="8.65549">
        <ele>494</ele>
        <time>2021-08-05T08:47:57.418Z</time>
      </trkpt>
      <trkpt lat="47.01102" lon="8.65548">
        <ele>495</ele>
        <time>2021-08-05T08:47:58.418Z</time>
      </trkpt>
      <trkpt lat="47.01101" lon="8.65546">
        <ele>495</ele>
        <time>2021-08-05T08:47:59.418Z</time>
      </trkpt>
      <trkpt lat="47.011" lon="8.65545">
        <ele>495</ele>
        <time>2021-08-05T08:48:00.418Z</time>
      </trkpt>
      <trkpt lat="47.01099" lon="8.65544">
        <ele>496</ele>
        <time>2021-08-05T08:48:01.418Z</time>
      </trkpt>
      <trkpt lat="47.01099" lon="8.65544">
        <ele>496</ele>
        <time>2021-08-05T08:48:02.417Z</time>
      </trkpt>
      <trkpt lat="47.01098" lon="8.65543">
        <ele>496</ele>
        <time>2021-08-05T08:48:03.418Z</time>
      </trkpt>
      <trkpt lat="47.01098" lon="8.65542">
        <ele>495</ele>
        <time>2021-08-05T08:48:04.417Z</time>
      </trkpt>
      <trkpt lat="47.01097" lon="8.65541">
        <ele>495</ele>
        <time>2021-08-05T08:48:05.417Z</time>
      </trkpt>
      <trkpt lat="47.01096" lon="8.6554">
        <ele>495</ele>
        <time>2021-08-05T08:48:06.418Z</time>
      </trkpt>
      <trkpt lat="47.01096" lon="8.65539">
        <ele>495</ele>
        <time>2021-08-05T08:48:07.418Z</time>
      </trkpt>
      <trkpt lat="47.01095" lon="8.65538">
        <ele>494</ele>
        <time>2021-08-05T08:48:08.417Z</time>
      </trkpt>
      <trkpt lat="47.01095" lon="8.65538">
        <ele>494</ele>
        <time>2021-08-05T08:48:09.418Z</time>
      </trkpt>
      <trkpt lat="47.01093" lon="8.65536">
        <ele>494</ele>
        <time>2021-08-05T08:48:10.418Z</time>
      </trkpt>
      <trkpt lat="47.01093" lon="8.65535">
        <ele>494</ele>
        <time>2021-08-05T08:48:11.418Z</time>
      </trkpt>
      <trkpt lat="47.01092" lon="8.65534">
        <ele>494</ele>
        <time>2021-08-05T08:48:12.418Z</time>
      </trkpt>
      <trkpt lat="47.01092" lon="8.65533">
        <ele>494</ele>
        <time>2021-08-05T08:48:13.417Z</time>
      </trkpt>
      <trkpt lat="47.01092" lon="8.65533">
        <ele>494</ele>
        <time>2021-08-05T08:48:14.417Z</time>
      </trkpt>
      <trkpt lat="47.0109" lon="8.65531">
        <ele>494</ele>
        <time>2021-08-05T08:48:15.420Z</time>
      </trkpt>
      <trkpt lat="47.0109" lon="8.65531">
        <ele>494</ele>
        <time>2021-08-05T08:48:16.419Z</time>
      </trkpt>
      <trkpt lat="47.0109" lon="8.65531">
        <ele>494</ele>
        <time>2021-08-05T08:48:17.420Z</time>
      </trkpt>
      <trkpt lat="47.01091" lon="8.65531">
        <ele>494</ele>
        <time>2021-08-05T08:48:18.420Z</time>
      </trkpt>
      <trkpt lat="47.01091" lon="8.6553">
        <ele>494</ele>
        <time>2021-08-05T08:48:19.420Z</time>
      </trkpt>
      <trkpt lat="47.01091" lon="8.65529">
        <ele>495</ele>
        <time>2021-08-05T08:48:20.420Z</time>
      </trkpt>
      <trkpt lat="47.01091" lon="8.65529">
        <ele>495</ele>
        <time>2021-08-05T08:48:21.420Z</time>
      </trkpt>
      <trkpt lat="47.0109" lon="8.65528">
        <ele>496</ele>
        <time>2021-08-05T08:48:22.420Z</time>
      </trkpt>
      <trkpt lat="47.0109" lon="8.65527">
        <ele>497</ele>
        <time>2021-08-05T08:48:23.420Z</time>
      </trkpt>
      <trkpt lat="47.01089" lon="8.65527">
        <ele>497</ele>
        <time>2021-08-05T08:48:24.420Z</time>
      </trkpt>
      <trkpt lat="47.01089" lon="8.65526">
        <ele>497</ele>
        <time>2021-08-05T08:48:25.419Z</time>
      </trkpt>
      <trkpt lat="47.01088" lon="8.65526">
        <ele>498</ele>
        <time>2021-08-05T08:48:26.420Z</time>
      </trkpt>
      <trkpt lat="47.01087" lon="8.65526">
        <ele>498</ele>
        <time>2021-08-05T08:48:27.419Z</time>
      </trkpt>
      <trkpt lat="47.01087" lon="8.65526">
        <ele>498</ele>
        <time>2021-08-05T08:48:28.419Z</time>
      </trkpt>
      <trkpt lat="47.01087" lon="8.65526">
        <ele>498</ele>
        <time>2021-08-05T08:48:29.419Z</time>
      </trkpt>
      <trkpt lat="47.01086" lon="8.65526">
        <ele>498</ele>
        <time>2021-08-05T08:48:30.419Z</time>
      </trkpt>
      <trkpt lat="47.01084" lon="8.65526">
        <ele>497</ele>
        <time>2021-08-05T08:48:31.421Z</time>
      </trkpt>
      <trkpt lat="47.01083" lon="8.65526">
        <ele>498</ele>
        <time>2021-08-05T08:48:32.420Z</time>
      </trkpt>
      <trkpt lat="47.01082" lon="8.65526">
        <ele>498</ele>
        <time>2021-08-05T08:48:33.421Z</time>
      </trkpt>
      <trkpt lat="47.01081" lon="8.65525">
        <ele>498</ele>
        <time>2021-08-05T08:48:34.421Z</time>
      </trkpt>
      <trkpt lat="47.0108" lon="8.65525">
        <ele>497</ele>
        <time>2021-08-05T08:48:35.420Z</time>
      </trkpt>
      <trkpt lat="47.01079" lon="8.65525">
        <ele>497</ele>
        <time>2021-08-05T08:48:36.421Z</time>
      </trkpt>
      <trkpt lat="47.01078" lon="8.65525">
        <ele>497</ele>
        <time>2021-08-05T08:48:37.420Z</time>
      </trkpt>
      <trkpt lat="47.01077" lon="8.65525">
        <ele>496</ele>
        <time>2021-08-05T08:48:38.420Z</time>
      </trkpt>
      <trkpt lat="47.01076" lon="8.65525">
        <ele>496</ele>
        <time>2021-08-05T08:48:39.421Z</time>
      </trkpt>
      <trkpt lat="47.01075" lon="8.65524">
        <ele>496</ele>
        <time>2021-08-05T08:48:40.421Z</time>
      </trkpt>
      <trkpt lat="47.01075" lon="8.65524">
        <ele>496</ele>
        <time>2021-08-05T08:48:41.421Z</time>
      </trkpt>
      <trkpt lat="47.01074" lon="8.65524">
        <ele>496</ele>
        <time>2021-08-05T08:48:42.420Z</time>
      </trkpt>
      <trkpt lat="47.01073" lon="8.65524">
        <ele>495</ele>
        <time>2021-08-05T08:48:43.420Z</time>
      </trkpt>
      <trkpt lat="47.01072" lon="8.65524">
        <ele>495</ele>
        <time>2021-08-05T08:48:44.420Z</time>
      </trkpt>
      <trkpt lat="47.01071" lon="8.65524">
        <ele>495</ele>
        <time>2021-08-05T08:48:45.420Z</time>
      </trkpt>
      <trkpt lat="47.0107" lon="8.65524">
        <ele>495</ele>
        <time>2021-08-05T08:48:46.420Z</time>
      </trkpt>
      <trkpt lat="47.0107" lon="8.65524">
        <ele>495</ele>
        <time>2021-08-05T08:48:47.420Z</time>
      </trkpt>
      <trkpt lat="47.01069" lon="8.65524">
        <ele>495</ele>
        <time>2021-08-05T08:48:48.421Z</time>
      </trkpt>
      <trkpt lat="47.01068" lon="8.65524">
        <ele>494</ele>
        <time>2021-08-05T08:48:49.421Z</time>
      </trkpt>
      <trkpt lat="47.01067" lon="8.65523">
        <ele>494</ele>
        <time>2021-08-05T08:48:50.421Z</time>
      </trkpt>
      <trkpt lat="47.01066" lon="8.65523">
        <ele>493</ele>
        <time>2021-08-05T08:48:51.420Z</time>
      </trkpt>
      <trkpt lat="47.01064" lon="8.65523">
        <ele>493</ele>
        <time>2021-08-05T08:48:52.420Z</time>
      </trkpt>
      <trkpt lat="47.01063" lon="8.65523">
        <ele>493</ele>
        <time>2021-08-05T08:48:53.421Z</time>
      </trkpt>
      <trkpt lat="47.01062" lon="8.65522">
        <ele>493</ele>
        <time>2021-08-05T08:48:54.421Z</time>
      </trkpt>
      <trkpt lat="47.01061" lon="8.65521">
        <ele>492</ele>
        <time>2021-08-05T08:48:55.421Z</time>
      </trkpt>
      <trkpt lat="47.0106" lon="8.65521">
        <ele>491</ele>
        <time>2021-08-05T08:48:56.420Z</time>
      </trkpt>
      <trkpt lat="47.01058" lon="8.6552">
        <ele>490</ele>
        <time>2021-08-05T08:48:57.421Z</time>
      </trkpt>
      <trkpt lat="47.01057" lon="8.65519">
        <ele>490</ele>
        <time>2021-08-05T08:48:58.421Z</time>
      </trkpt>
      <trkpt lat="47.01056" lon="8.65518">
        <ele>490</ele>
        <time>2021-08-05T08:48:59.421Z</time>
      </trkpt>
      <trkpt lat="47.01055" lon="8.65518">
        <ele>490</ele>
        <time>2021-08-05T08:49:00.421Z</time>
      </trkpt>
      <trkpt lat="47.01054" lon="8.65519">
        <ele>490</ele>
        <time>2021-08-05T08:49:01.421Z</time>
      </trkpt>
      <trkpt lat="47.01052" lon="8.65518">
        <ele>491</ele>
        <time>2021-08-05T08:49:02.421Z</time>
      </trkpt>
      <trkpt lat="47.01051" lon="8.65518">
        <ele>491</ele>
        <time>2021-08-05T08:49:03.421Z</time>
      </trkpt>
      <trkpt lat="47.0105" lon="8.65517">
        <ele>491</ele>
        <time>2021-08-05T08:49:04.421Z</time>
      </trkpt>
      <trkpt lat="47.01049" lon="8.65516">
        <ele>492</ele>
        <time>2021-08-05T08:49:05.420Z</time>
      </trkpt>
      <trkpt lat="47.01048" lon="8.65516">
        <ele>492</ele>
        <time>2021-08-05T08:49:06.421Z</time>
      </trkpt>
      <trkpt lat="47.01047" lon="8.65515">
        <ele>493</ele>
        <time>2021-08-05T08:49:07.420Z</time>
      </trkpt>
      <trkpt lat="47.01046" lon="8.65514">
        <ele>493</ele>
        <time>2021-08-05T08:49:08.420Z</time>
      </trkpt>
      <trkpt lat="47.01045" lon="8.65513">
        <ele>493</ele>
        <time>2021-08-05T08:49:09.421Z</time>
      </trkpt>
      <trkpt lat="47.01044" lon="8.65513">
        <ele>494</ele>
        <time>2021-08-05T08:49:10.420Z</time>
      </trkpt>
      <trkpt lat="47.01043" lon="8.65512">
        <ele>493</ele>
        <time>2021-08-05T08:49:11.421Z</time>
      </trkpt>
      <trkpt lat="47.01042" lon="8.65512">
        <ele>493</ele>
        <time>2021-08-05T08:49:12.421Z</time>
      </trkpt>
      <trkpt lat="47.01041" lon="8.65511">
        <ele>493</ele>
        <time>2021-08-05T08:49:13.421Z</time>
      </trkpt>
      <trkpt lat="47.0104" lon="8.6551">
        <ele>494</ele>
        <time>2021-08-05T08:49:14.420Z</time>
      </trkpt>
      <trkpt lat="47.01039" lon="8.6551">
        <ele>494</ele>
        <time>2021-08-05T08:49:15.420Z</time>
      </trkpt>
      <trkpt lat="47.01039" lon="8.65509">
        <ele>494</ele>
        <time>2021-08-05T08:49:16.421Z</time>
      </trkpt>
      <trkpt lat="47.01038" lon="8.65509">
        <ele>494</ele>
        <time>2021-08-05T08:49:17.420Z</time>
      </trkpt>
      <trkpt lat="47.01037" lon="8.65508">
        <ele>494</ele>
        <time>2021-08-05T08:49:18.421Z</time>
      </trkpt>
      <trkpt lat="47.01037" lon="8.65508">
        <ele>494</ele>
        <time>2021-08-05T08:49:19.421Z</time>
      </trkpt>
      <trkpt lat="47.01036" lon="8.65507">
        <ele>494</ele>
        <time>2021-08-05T08:49:20.420Z</time>
      </trkpt>
      <trkpt lat="47.01035" lon="8.65506">
        <ele>494</ele>
        <time>2021-08-05T08:49:21.420Z</time>
      </trkpt>
      <trkpt lat="47.01035" lon="8.65506">
        <ele>494</ele>
        <time>2021-08-05T08:49:22.420Z</time>
      </trkpt>
      <trkpt lat="47.01034" lon="8.65504">
        <ele>494</ele>
        <time>2021-08-05T08:49:23.421Z</time>
      </trkpt>
      <trkpt lat="47.01032" lon="8.65503">
        <ele>494</ele>
        <time>2021-08-05T08:49:24.421Z</time>
      </trkpt>
      <trkpt lat="47.01031" lon="8.65502">
        <ele>494</ele>
        <time>2021-08-05T08:49:25.421Z</time>
      </trkpt>
      <trkpt lat="47.01031" lon="8.65501">
        <ele>494</ele>
        <time>2021-08-05T08:49:26.421Z</time>
      </trkpt>
      <trkpt lat="47.0103" lon="8.65501">
        <ele>495</ele>
        <time>2021-08-05T08:49:27.421Z</time>
      </trkpt>
      <trkpt lat="47.01029" lon="8.655">
        <ele>495</ele>
        <time>2021-08-05T08:49:28.421Z</time>
      </trkpt>
      <trkpt lat="47.01028" lon="8.655">
        <ele>495</ele>
        <time>2021-08-05T08:49:29.420Z</time>
      </trkpt>
      <trkpt lat="47.01027" lon="8.65499">
        <ele>495</ele>
        <time>2021-08-05T08:49:30.421Z</time>
      </trkpt>
      <trkpt lat="47.01027" lon="8.65498">
        <ele>495</ele>
        <time>2021-08-05T08:49:31.421Z</time>
      </trkpt>
      <trkpt lat="47.01026" lon="8.65498">
        <ele>495</ele>
        <time>2021-08-05T08:49:32.421Z</time>
      </trkpt>
      <trkpt lat="47.01025" lon="8.65498">
        <ele>495</ele>
        <time>2021-08-05T08:49:33.421Z</time>
      </trkpt>
      <trkpt lat="47.01025" lon="8.65498">
        <ele>495</ele>
        <time>2021-08-05T08:49:34.421Z</time>
      </trkpt>
      <trkpt lat="47.01024" lon="8.65497">
        <ele>494</ele>
        <time>2021-08-05T08:49:35.420Z</time>
      </trkpt>
      <trkpt lat="47.01024" lon="8.65497">
        <ele>494</ele>
        <time>2021-08-05T08:49:36.421Z</time>
      </trkpt>
      <trkpt lat="47.01023" lon="8.65496">
        <ele>494</ele>
        <time>2021-08-05T08:49:37.421Z</time>
      </trkpt>
      <trkpt lat="47.01022" lon="8.65496">
        <ele>494</ele>
        <time>2021-08-05T08:49:38.421Z</time>
      </trkpt>
      <trkpt lat="47.01021" lon="8.65495">
        <ele>494</ele>
        <time>2021-08-05T08:49:39.421Z</time>
      </trkpt>
      <trkpt lat="47.0102" lon="8.65494">
        <ele>493</ele>
        <time>2021-08-05T08:49:40.421Z</time>
      </trkpt>
      <trkpt lat="47.0102" lon="8.65494">
        <ele>493</ele>
        <time>2021-08-05T08:49:41.421Z</time>
      </trkpt>
      <trkpt lat="47.01019" lon="8.65494">
        <ele>493</ele>
        <time>2021-08-05T08:49:42.421Z</time>
      </trkpt>
      <trkpt lat="47.01018" lon="8.65493">
        <ele>493</ele>
        <time>2021-08-05T08:49:43.421Z</time>
      </trkpt>
      <trkpt lat="47.01017" lon="8.65493">
        <ele>493</ele>
        <time>2021-08-05T08:49:44.421Z</time>
      </trkpt>
      <trkpt lat="47.01016" lon="8.65493">
        <ele>493</ele>
        <time>2021-08-05T08:49:45.421Z</time>
      </trkpt>
      <trkpt lat="47.01016" lon="8.65493">
        <ele>494</ele>
        <time>2021-08-05T08:49:46.421Z</time>
      </trkpt>
      <trkpt lat="47.01015" lon="8.65492">
        <ele>494</ele>
        <time>2021-08-05T08:49:47.421Z</time>
      </trkpt>
      <trkpt lat="47.01014" lon="8.65492">
        <ele>493</ele>
        <time>2021-08-05T08:49:48.421Z</time>
      </trkpt>
      <trkpt lat="47.01013" lon="8.65492">
        <ele>493</ele>
        <time>2021-08-05T08:49:49.421Z</time>
      </trkpt>
      <trkpt lat="47.01012" lon="8.65492">
        <ele>492</ele>
        <time>2021-08-05T08:49:50.421Z</time>
      </trkpt>
      <trkpt lat="47.01011" lon="8.65491">
        <ele>492</ele>
        <time>2021-08-05T08:49:51.421Z</time>
      </trkpt>
      <trkpt lat="47.0101" lon="8.6549">
        <ele>492</ele>
        <time>2021-08-05T08:49:52.421Z</time>
      </trkpt>
      <trkpt lat="47.01009" lon="8.6549">
        <ele>491</ele>
        <time>2021-08-05T08:49:53.421Z</time>
      </trkpt>
      <trkpt lat="47.01008" lon="8.65489">
        <ele>491</ele>
        <time>2021-08-05T08:49:54.421Z</time>
      </trkpt>
      <trkpt lat="47.01007" lon="8.65488">
        <ele>490</ele>
        <time>2021-08-05T08:49:55.421Z</time>
      </trkpt>
      <trkpt lat="47.01007" lon="8.65487">
        <ele>490</ele>
        <time>2021-08-05T08:49:56.420Z</time>
      </trkpt>
      <trkpt lat="47.01006" lon="8.65485">
        <ele>490</ele>
        <time>2021-08-05T08:49:57.421Z</time>
      </trkpt>
      <trkpt lat="47.01005" lon="8.65484">
        <ele>490</ele>
        <time>2021-08-05T08:49:58.421Z</time>
      </trkpt>
      <trkpt lat="47.01005" lon="8.65484">
        <ele>491</ele>
        <time>2021-08-05T08:49:59.420Z</time>
      </trkpt>
      <trkpt lat="47.01004" lon="8.65483">
        <ele>490</ele>
        <time>2021-08-05T08:50:00.420Z</time>
      </trkpt>
      <trkpt lat="47.01004" lon="8.65482">
        <ele>491</ele>
        <time>2021-08-05T08:50:01.421Z</time>
      </trkpt>
      <trkpt lat="47.01004" lon="8.65482">
        <ele>491</ele>
        <time>2021-08-05T08:50:02.421Z</time>
      </trkpt>
      <trkpt lat="47.01003" lon="8.65481">
        <ele>491</ele>
        <time>2021-08-05T08:50:03.421Z</time>
      </trkpt>
      <trkpt lat="47.01002" lon="8.65479">
        <ele>492</ele>
        <time>2021-08-05T08:50:04.421Z</time>
      </trkpt>
      <trkpt lat="47.01001" lon="8.65478">
        <ele>492</ele>
        <time>2021-08-05T08:50:05.421Z</time>
      </trkpt>
      <trkpt lat="47.01" lon="8.65477">
        <ele>491</ele>
        <time>2021-08-05T08:50:06.421Z</time>
      </trkpt>
      <trkpt lat="47.01" lon="8.65477">
        <ele>491</ele>
        <time>2021-08-05T08:50:07.421Z</time>
      </trkpt>
      <trkpt lat="47.01" lon="8.65477">
        <ele>490</ele>
        <time>2021-08-05T08:50:08.421Z</time>
      </trkpt>
      <trkpt lat="47.01" lon="8.65477">
        <ele>490</ele>
        <time>2021-08-05T08:50:09.420Z</time>
      </trkpt>
      <trkpt lat="47.01" lon="8.65476">
        <ele>490</ele>
        <time>2021-08-05T08:50:10.420Z</time>
      </trkpt>
      <trkpt lat="47.00999" lon="8.65475">
        <ele>490</ele>
        <time>2021-08-05T08:50:11.421Z</time>
      </trkpt>
      <trkpt lat="47.00998" lon="8.65475">
        <ele>490</ele>
        <time>2021-08-05T08:50:12.421Z</time>
      </trkpt>
      <trkpt lat="47.00997" lon="8.65475">
        <ele>490</ele>
        <time>2021-08-05T08:50:13.421Z</time>
      </trkpt>
      <trkpt lat="47.00997" lon="8.65475">
        <ele>490</ele>
        <time>2021-08-05T08:50:14.421Z</time>
      </trkpt>
      <trkpt lat="47.00997" lon="8.65475">
        <ele>491</ele>
        <time>2021-08-05T08:50:15.421Z</time>
      </trkpt>
      <trkpt lat="47.00996" lon="8.65474">
        <ele>492</ele>
        <time>2021-08-05T08:50:16.420Z</time>
      </trkpt>
      <trkpt lat="47.00995" lon="8.65473">
        <ele>493</ele>
        <time>2021-08-05T08:50:17.420Z</time>
      </trkpt>
      <trkpt lat="47.00994" lon="8.65472">
        <ele>493</ele>
        <time>2021-08-05T08:50:18.421Z</time>
      </trkpt>
      <trkpt lat="47.00993" lon="8.65472">
        <ele>493</ele>
        <time>2021-08-05T08:50:19.421Z</time>
      </trkpt>
      <trkpt lat="47.00993" lon="8.65471">
        <ele>494</ele>
        <time>2021-08-05T08:50:20.421Z</time>
      </trkpt>
      <trkpt lat="47.00992" lon="8.6547">
        <ele>495</ele>
        <time>2021-08-05T08:50:21.420Z</time>
      </trkpt>
      <trkpt lat="47.00991" lon="8.6547">
        <ele>495</ele>
        <time>2021-08-05T08:50:22.420Z</time>
      </trkpt>
      <trkpt lat="47.00991" lon="8.6547">
        <ele>495</ele>
        <time>2021-08-05T08:50:23.420Z</time>
      </trkpt>
      <trkpt lat="47.0099" lon="8.65469">
        <ele>496</ele>
        <time>2021-08-05T08:50:24.420Z</time>
      </trkpt>
      <trkpt lat="47.0099" lon="8.65468">
        <ele>495</ele>
        <time>2021-08-05T08:50:25.421Z</time>
      </trkpt>
      <trkpt lat="47.00989" lon="8.65468">
        <ele>495</ele>
        <time>2021-08-05T08:50:26.421Z</time>
      </trkpt>
      <trkpt lat="47.00988" lon="8.65467">
        <ele>495</ele>
        <time>2021-08-05T08:50:27.421Z</time>
      </trkpt>
      <trkpt lat="47.00987" lon="8.65465">
        <ele>495</ele>
        <time>2021-08-05T08:50:28.420Z</time>
      </trkpt>
      <trkpt lat="47.00986" lon="8.65464">
        <ele>495</ele>
        <time>2021-08-05T08:50:29.421Z</time>
      </trkpt>
      <trkpt lat="47.00985" lon="8.65464">
        <ele>495</ele>
        <time>2021-08-05T08:50:30.420Z</time>
      </trkpt>
      <trkpt lat="47.00985" lon="8.65464">
        <ele>495</ele>
        <time>2021-08-05T08:50:31.421Z</time>
      </trkpt>
      <trkpt lat="47.00984" lon="8.65464">
        <ele>495</ele>
        <time>2021-08-05T08:50:32.421Z</time>
      </trkpt>
      <trkpt lat="47.00983" lon="8.65463">
        <ele>495</ele>
        <time>2021-08-05T08:50:33.421Z</time>
      </trkpt>
      <trkpt lat="47.00982" lon="8.65463">
        <ele>495</ele>
        <time>2021-08-05T08:50:34.421Z</time>
      </trkpt>
      <trkpt lat="47.00981" lon="8.65462">
        <ele>495</ele>
        <time>2021-08-05T08:50:35.421Z</time>
      </trkpt>
      <trkpt lat="47.0098" lon="8.65461">
        <ele>495</ele>
        <time>2021-08-05T08:50:36.421Z</time>
      </trkpt>
      <trkpt lat="47.00979" lon="8.6546">
        <ele>495</ele>
        <time>2021-08-05T08:50:37.421Z</time>
      </trkpt>
      <trkpt lat="47.00979" lon="8.65459">
        <ele>495</ele>
        <time>2021-08-05T08:50:38.420Z</time>
      </trkpt>
      <trkpt lat="47.00978" lon="8.65459">
        <ele>495</ele>
        <time>2021-08-05T08:50:39.421Z</time>
      </trkpt>
      <trkpt lat="47.00978" lon="8.65458">
        <ele>496</ele>
        <time>2021-08-05T08:50:40.421Z</time>
      </trkpt>
      <trkpt lat="47.00977" lon="8.65457">
        <ele>496</ele>
        <time>2021-08-05T08:50:41.420Z</time>
      </trkpt>
      <trkpt lat="47.00976" lon="8.65457">
        <ele>497</ele>
        <time>2021-08-05T08:50:42.420Z</time>
      </trkpt>
      <trkpt lat="47.00976" lon="8.65456">
        <ele>497</ele>
        <time>2021-08-05T08:50:43.421Z</time>
      </trkpt>
      <trkpt lat="47.00976" lon="8.65456">
        <ele>497</ele>
        <time>2021-08-05T08:50:44.421Z</time>
      </trkpt>
      <trkpt lat="47.00975" lon="8.65456">
        <ele>498</ele>
        <time>2021-08-05T08:50:45.420Z</time>
      </trkpt>
      <trkpt lat="47.00974" lon="8.65455">
        <ele>498</ele>
        <time>2021-08-05T08:50:46.421Z</time>
      </trkpt>
      <trkpt lat="47.00974" lon="8.65455">
        <ele>498</ele>
        <time>2021-08-05T08:50:47.420Z</time>
      </trkpt>
      <trkpt lat="47.00973" lon="8.65454">
        <ele>498</ele>
        <time>2021-08-05T08:50:48.420Z</time>
      </trkpt>
      <trkpt lat="47.00972" lon="8.65455">
        <ele>498</ele>
        <time>2021-08-05T08:50:49.421Z</time>
      </trkpt>
      <trkpt lat="47.00971" lon="8.65454">
        <ele>497</ele>
        <time>2021-08-05T08:50:50.421Z</time>
      </trkpt>
      <trkpt lat="47.00971" lon="8.65454">
        <ele>497</ele>
        <time>2021-08-05T08:50:51.421Z</time>
      </trkpt>
      <trkpt lat="47.0097" lon="8.65453">
        <ele>496</ele>
        <time>2021-08-05T08:50:52.421Z</time>
      </trkpt>
      <trkpt lat="47.00969" lon="8.65453">
        <ele>496</ele>
        <time>2021-08-05T08:50:53.420Z</time>
      </trkpt>
      <trkpt lat="47.00969" lon="8.65452">
        <ele>496</ele>
        <time>2021-08-05T08:50:54.420Z</time>
      </trkpt>
      <trkpt lat="47.00968" lon="8.65451">
        <ele>496</ele>
        <time>2021-08-05T08:50:55.421Z</time>
      </trkpt>
      <trkpt lat="47.00967" lon="8.65451">
        <ele>496</ele>
        <time>2021-08-05T08:50:56.420Z</time>
      </trkpt>
      <trkpt lat="47.00965" lon="8.6545">
        <ele>495</ele>
        <time>2021-08-05T08:50:57.421Z</time>
      </trkpt>
      <trkpt lat="47.00965" lon="8.6545">
        <ele>495</ele>
        <time>2021-08-05T08:50:58.421Z</time>
      </trkpt>
      <trkpt lat="47.00964" lon="8.6545">
        <ele>495</ele>
        <time>2021-08-05T08:50:59.421Z</time>
      </trkpt>
      <trkpt lat="47.00963" lon="8.6545">
        <ele>495</ele>
        <time>2021-08-05T08:51:00.420Z</time>
      </trkpt>
      <trkpt lat="47.00962" lon="8.6545">
        <ele>494</ele>
        <time>2021-08-05T08:51:01.421Z</time>
      </trkpt>
      <trkpt lat="47.00961" lon="8.6545">
        <ele>494</ele>
        <time>2021-08-05T08:51:02.420Z</time>
      </trkpt>
      <trkpt lat="47.0096" lon="8.6545">
        <ele>494</ele>
        <time>2021-08-05T08:51:03.421Z</time>
      </trkpt>
      <trkpt lat="47.00959" lon="8.6545">
        <ele>494</ele>
        <time>2021-08-05T08:51:04.420Z</time>
      </trkpt>
      <trkpt lat="47.00959" lon="8.65449">
        <ele>493</ele>
        <time>2021-08-05T08:51:05.421Z</time>
      </trkpt>
      <trkpt lat="47.00958" lon="8.65449">
        <ele>493</ele>
        <time>2021-08-05T08:51:06.421Z</time>
      </trkpt>
      <trkpt lat="47.00957" lon="8.65447">
        <ele>493</ele>
        <time>2021-08-05T08:51:07.421Z</time>
      </trkpt>
      <trkpt lat="47.00956" lon="8.65447">
        <ele>493</ele>
        <time>2021-08-05T08:51:08.421Z</time>
      </trkpt>
      <trkpt lat="47.00955" lon="8.65446">
        <ele>494</ele>
        <time>2021-08-05T08:51:09.421Z</time>
      </trkpt>
      <trkpt lat="47.00955" lon="8.65445">
        <ele>494</ele>
        <time>2021-08-05T08:51:10.421Z</time>
      </trkpt>
      <trkpt lat="47.00954" lon="8.65446">
        <ele>494</ele>
        <time>2021-08-05T08:51:11.421Z</time>
      </trkpt>
      <trkpt lat="47.00953" lon="8.65445">
        <ele>494</ele>
        <time>2021-08-05T08:51:12.420Z</time>
      </trkpt>
      <trkpt lat="47.00952" lon="8.65445">
        <ele>495</ele>
        <time>2021-08-05T08:51:13.420Z</time>
      </trkpt>
      <trkpt lat="47.00951" lon="8.65444">
        <ele>495</ele>
        <time>2021-08-05T08:51:14.421Z</time>
      </trkpt>
      <trkpt lat="47.00949" lon="8.65443">
        <ele>495</ele>
        <time>2021-08-05T08:51:15.421Z</time>
      </trkpt>
      <trkpt lat="47.00948" lon="8.65443">
        <ele>495</ele>
        <time>2021-08-05T08:51:16.421Z</time>
      </trkpt>
      <trkpt lat="47.00947" lon="8.65442">
        <ele>495</ele>
        <time>2021-08-05T08:51:17.420Z</time>
      </trkpt>
      <trkpt lat="47.00947" lon="8.6544">
        <ele>496</ele>
        <time>2021-08-05T08:51:18.420Z</time>
      </trkpt>
      <trkpt lat="47.00946" lon="8.65439">
        <ele>496</ele>
        <time>2021-08-05T08:51:19.421Z</time>
      </trkpt>
      <trkpt lat="47.00946" lon="8.65438">
        <ele>496</ele>
        <time>2021-08-05T08:51:20.420Z</time>
      </trkpt>
      <trkpt lat="47.00945" lon="8.65437">
        <ele>497</ele>
        <time>2021-08-05T08:51:21.421Z</time>
      </trkpt>
      <trkpt lat="47.00945" lon="8.65435">
        <ele>497</ele>
        <time>2021-08-05T08:51:22.420Z</time>
      </trkpt>
      <trkpt lat="47.00945" lon="8.65435">
        <ele>497</ele>
        <time>2021-08-05T08:51:23.421Z</time>
      </trkpt>
      <trkpt lat="47.00944" lon="8.65433">
        <ele>496</ele>
        <time>2021-08-05T08:51:24.421Z</time>
      </trkpt>
      <trkpt lat="47.00943" lon="8.65432">
        <ele>496</ele>
        <time>2021-08-05T08:51:25.420Z</time>
      </trkpt>
      <trkpt lat="47.00943" lon="8.65431">
        <ele>496</ele>
        <time>2021-08-05T08:51:26.421Z</time>
      </trkpt>
      <trkpt lat="47.00943" lon="8.6543">
        <ele>496</ele>
        <time>2021-08-05T08:51:27.421Z</time>
      </trkpt>
      <trkpt lat="47.00943" lon="8.65429">
        <ele>495</ele>
        <time>2021-08-05T08:51:28.421Z</time>
      </trkpt>
      <trkpt lat="47.00943" lon="8.65428">
        <ele>495</ele>
        <time>2021-08-05T08:51:29.421Z</time>
      </trkpt>
      <trkpt lat="47.00943" lon="8.65427">
        <ele>495</ele>
        <time>2021-08-05T08:51:30.420Z</time>
      </trkpt>
      <trkpt lat="47.00943" lon="8.65425">
        <ele>495</ele>
        <time>2021-08-05T08:51:31.421Z</time>
      </trkpt>
      <trkpt lat="47.00942" lon="8.65424">
        <ele>494</ele>
        <time>2021-08-05T08:51:32.421Z</time>
      </trkpt>
      <trkpt lat="47.00942" lon="8.65424">
        <ele>493</ele>
        <time>2021-08-05T08:51:33.421Z</time>
      </trkpt>
      <trkpt lat="47.00941" lon="8.65422">
        <ele>493</ele>
        <time>2021-08-05T08:51:34.421Z</time>
      </trkpt>
      <trkpt lat="47.0094" lon="8.65422">
        <ele>492</ele>
        <time>2021-08-05T08:51:35.420Z</time>
      </trkpt>
      <trkpt lat="47.00941" lon="8.65422">
        <ele>492</ele>
        <time>2021-08-05T08:51:36.421Z</time>
      </trkpt>
      <trkpt lat="47.0094" lon="8.65421">
        <ele>492</ele>
        <time>2021-08-05T08:51:37.421Z</time>
      </trkpt>
      <trkpt lat="47.0094" lon="8.6542">
        <ele>491</ele>
        <time>2021-08-05T08:51:38.421Z</time>
      </trkpt>
      <trkpt lat="47.00939" lon="8.65418">
        <ele>491</ele>
        <time>2021-08-05T08:51:39.421Z</time>
      </trkpt>
      <trkpt lat="47.00939" lon="8.65417">
        <ele>491</ele>
        <time>2021-08-05T08:51:40.420Z</time>
      </trkpt>
      <trkpt lat="47.00938" lon="8.65416">
        <ele>491</ele>
        <time>2021-08-05T08:51:41.421Z</time>
      </trkpt>
      <trkpt lat="47.00938" lon="8.65415">
        <ele>491</ele>
        <time>2021-08-05T08:51:42.421Z</time>
      </trkpt>
      <trkpt lat="47.00938" lon="8.65413">
        <ele>492</ele>
        <time>2021-08-05T08:51:43.421Z</time>
      </trkpt>
      <trkpt lat="47.00937" lon="8.65412">
        <ele>492</ele>
        <time>2021-08-05T08:51:44.420Z</time>
      </trkpt>
      <trkpt lat="47.00937" lon="8.65411">
        <ele>492</ele>
        <time>2021-08-05T08:51:45.421Z</time>
      </trkpt>
      <trkpt lat="47.00937" lon="8.6541">
        <ele>492</ele>
        <time>2021-08-05T08:51:46.421Z</time>
      </trkpt>
      <trkpt lat="47.00936" lon="8.65409">
        <ele>492</ele>
        <time>2021-08-05T08:51:47.421Z</time>
      </trkpt>
      <trkpt lat="47.00936" lon="8.65408">
        <ele>492</ele>
        <time>2021-08-05T08:51:48.421Z</time>
      </trkpt>
      <trkpt lat="47.00936" lon="8.65407">
        <ele>492</ele>
        <time>2021-08-05T08:51:49.421Z</time>
      </trkpt>
      <trkpt lat="47.00935" lon="8.65405">
        <ele>492</ele>
        <time>2021-08-05T08:51:50.421Z</time>
      </trkpt>
      <trkpt lat="47.00934" lon="8.65404">
        <ele>492</ele>
        <time>2021-08-05T08:51:51.421Z</time>
      </trkpt>
      <trkpt lat="47.00934" lon="8.65403">
        <ele>492</ele>
        <time>2021-08-05T08:51:52.420Z</time>
      </trkpt>
      <trkpt lat="47.00933" lon="8.65402">
        <ele>492</ele>
        <time>2021-08-05T08:51:53.421Z</time>
      </trkpt>
      <trkpt lat="47.00933" lon="8.654">
        <ele>492</ele>
        <time>2021-08-05T08:51:54.421Z</time>
      </trkpt>
      <trkpt lat="47.00933" lon="8.65399">
        <ele>492</ele>
        <time>2021-08-05T08:51:55.421Z</time>
      </trkpt>
      <trkpt lat="47.00932" lon="8.65399">
        <ele>492</ele>
        <time>2021-08-05T08:51:56.421Z</time>
      </trkpt>
      <trkpt lat="47.00932" lon="8.65398">
        <ele>492</ele>
        <time>2021-08-05T08:51:57.420Z</time>
      </trkpt>
      <trkpt lat="47.00932" lon="8.65397">
        <ele>492</ele>
        <time>2021-08-05T08:51:58.421Z</time>
      </trkpt>
      <trkpt lat="47.00932" lon="8.65396">
        <ele>492</ele>
        <time>2021-08-05T08:51:59.421Z</time>
      </trkpt>
      <trkpt lat="47.00931" lon="8.65395">
        <ele>493</ele>
        <time>2021-08-05T08:52:00.421Z</time>
      </trkpt>
      <trkpt lat="47.00931" lon="8.65394">
        <ele>493</ele>
        <time>2021-08-05T08:52:01.421Z</time>
      </trkpt>
      <trkpt lat="47.0093" lon="8.65393">
        <ele>493</ele>
        <time>2021-08-05T08:52:02.421Z</time>
      </trkpt>
      <trkpt lat="47.0093" lon="8.65391">
        <ele>493</ele>
        <time>2021-08-05T08:52:03.420Z</time>
      </trkpt>
      <trkpt lat="47.0093" lon="8.6539">
        <ele>493</ele>
        <time>2021-08-05T08:52:04.421Z</time>
      </trkpt>
      <trkpt lat="47.00929" lon="8.65388">
        <ele>493</ele>
        <time>2021-08-05T08:52:05.420Z</time>
      </trkpt>
      <trkpt lat="47.00929" lon="8.65387">
        <ele>493</ele>
        <time>2021-08-05T08:52:06.420Z</time>
      </trkpt>
      <trkpt lat="47.00929" lon="8.65385">
        <ele>493</ele>
        <time>2021-08-05T08:52:07.420Z</time>
      </trkpt>
      <trkpt lat="47.00928" lon="8.65384">
        <ele>493</ele>
        <time>2021-08-05T08:52:08.421Z</time>
      </trkpt>
      <trkpt lat="47.00927" lon="8.65382">
        <ele>493</ele>
        <time>2021-08-05T08:52:09.421Z</time>
      </trkpt>
      <trkpt lat="47.00927" lon="8.65381">
        <ele>493</ele>
        <time>2021-08-05T08:52:10.420Z</time>
      </trkpt>
      <trkpt lat="47.00927" lon="8.6538">
        <ele>493</ele>
        <time>2021-08-05T08:52:11.421Z</time>
      </trkpt>
      <trkpt lat="47.00926" lon="8.65378">
        <ele>493</ele>
        <time>2021-08-05T08:52:12.421Z</time>
      </trkpt>
      <trkpt lat="47.00926" lon="8.65377">
        <ele>493</ele>
        <time>2021-08-05T08:52:13.420Z</time>
      </trkpt>
      <trkpt lat="47.00925" lon="8.65376">
        <ele>493</ele>
        <time>2021-08-05T08:52:14.420Z</time>
      </trkpt>
      <trkpt lat="47.00925" lon="8.65375">
        <ele>493</ele>
        <time>2021-08-05T08:52:15.420Z</time>
      </trkpt>
      <trkpt lat="47.00924" lon="8.65373">
        <ele>493</ele>
        <time>2021-08-05T08:52:16.420Z</time>
      </trkpt>
      <trkpt lat="47.00924" lon="8.65371">
        <ele>493</ele>
        <time>2021-08-05T08:52:17.420Z</time>
      </trkpt>
      <trkpt lat="47.00924" lon="8.6537">
        <ele>493</ele>
        <time>2021-08-05T08:52:18.421Z</time>
      </trkpt>
      <trkpt lat="47.00924" lon="8.65369">
        <ele>493</ele>
        <time>2021-08-05T08:52:19.420Z</time>
      </trkpt>
      <trkpt lat="47.00925" lon="8.65368">
        <ele>493</ele>
        <time>2021-08-05T08:52:20.421Z</time>
      </trkpt>
      <trkpt lat="47.00924" lon="8.65367">
        <ele>493</ele>
        <time>2021-08-05T08:52:21.420Z</time>
      </trkpt>
      <trkpt lat="47.00924" lon="8.65365">
        <ele>493</ele>
        <time>2021-08-05T08:52:22.421Z</time>
      </trkpt>
      <trkpt lat="47.00924" lon="8.65363">
        <ele>493</ele>
        <time>2021-08-05T08:52:23.420Z</time>
      </trkpt>
      <trkpt lat="47.00924" lon="8.65361">
        <ele>493</ele>
        <time>2021-08-05T08:52:24.420Z</time>
      </trkpt>
      <trkpt lat="47.00923" lon="8.6536">
        <ele>493</ele>
        <time>2021-08-05T08:52:25.420Z</time>
      </trkpt>
      <trkpt lat="47.00923" lon="8.65359">
        <ele>493</ele>
        <time>2021-08-05T08:52:26.421Z</time>
      </trkpt>
      <trkpt lat="47.00922" lon="8.65358">
        <ele>493</ele>
        <time>2021-08-05T08:52:27.420Z</time>
      </trkpt>
      <trkpt lat="47.00921" lon="8.65357">
        <ele>493</ele>
        <time>2021-08-05T08:52:28.420Z</time>
      </trkpt>
      <trkpt lat="47.00921" lon="8.65357">
        <ele>493</ele>
        <time>2021-08-05T08:52:29.420Z</time>
      </trkpt>
      <trkpt lat="47.0092" lon="8.65357">
        <ele>493</ele>
        <time>2021-08-05T08:52:30.420Z</time>
      </trkpt>
      <trkpt lat="47.00919" lon="8.65356">
        <ele>493</ele>
        <time>2021-08-05T08:52:31.420Z</time>
      </trkpt>
      <trkpt lat="47.00919" lon="8.65355">
        <ele>493</ele>
        <time>2021-08-05T08:52:32.420Z</time>
      </trkpt>
      <trkpt lat="47.00918" lon="8.65354">
        <ele>493</ele>
        <time>2021-08-05T08:52:33.420Z</time>
      </trkpt>
      <trkpt lat="47.00918" lon="8.65353">
        <ele>493</ele>
        <time>2021-08-05T08:52:34.420Z</time>
      </trkpt>
      <trkpt lat="47.00917" lon="8.65352">
        <ele>494</ele>
        <time>2021-08-05T08:52:35.420Z</time>
      </trkpt>
      <trkpt lat="47.00916" lon="8.6535">
        <ele>494</ele>
        <time>2021-08-05T08:52:36.420Z</time>
      </trkpt>
      <trkpt lat="47.00916" lon="8.65348">
        <ele>494</ele>
        <time>2021-08-05T08:52:37.420Z</time>
      </trkpt>
      <trkpt lat="47.00915" lon="8.65346">
        <ele>494</ele>
        <time>2021-08-05T08:52:38.420Z</time>
      </trkpt>
      <trkpt lat="47.00915" lon="8.65345">
        <ele>493</ele>
        <time>2021-08-05T08:52:39.421Z</time>
      </trkpt>
      <trkpt lat="47.00915" lon="8.65345">
        <ele>493</ele>
        <time>2021-08-05T08:52:40.420Z</time>
      </trkpt>
      <trkpt lat="47.00914" lon="8.65343">
        <ele>493</ele>
        <time>2021-08-05T08:52:41.421Z</time>
      </trkpt>
      <trkpt lat="47.00914" lon="8.65341">
        <ele>493</ele>
        <time>2021-08-05T08:52:42.421Z</time>
      </trkpt>
      <trkpt lat="47.00913" lon="8.6534">
        <ele>493</ele>
        <time>2021-08-05T08:52:43.420Z</time>
      </trkpt>
      <trkpt lat="47.00913" lon="8.65339">
        <ele>493</ele>
        <time>2021-08-05T08:52:44.421Z</time>
      </trkpt>
      <trkpt lat="47.00912" lon="8.65338">
        <ele>493</ele>
        <time>2021-08-05T08:52:45.421Z</time>
      </trkpt>
      <trkpt lat="47.00912" lon="8.65337">
        <ele>493</ele>
        <time>2021-08-05T08:52:46.421Z</time>
      </trkpt>
      <trkpt lat="47.00912" lon="8.65335">
        <ele>494</ele>
        <time>2021-08-05T08:52:47.421Z</time>
      </trkpt>
      <trkpt lat="47.00911" lon="8.65334">
        <ele>494</ele>
        <time>2021-08-05T08:52:48.420Z</time>
      </trkpt>
      <trkpt lat="47.00911" lon="8.65333">
        <ele>494</ele>
        <time>2021-08-05T08:52:49.420Z</time>
      </trkpt>
      <trkpt lat="47.0091" lon="8.65331">
        <ele>494</ele>
        <time>2021-08-05T08:52:50.420Z</time>
      </trkpt>
      <trkpt lat="47.0091" lon="8.65331">
        <ele>494</ele>
        <time>2021-08-05T08:52:51.420Z</time>
      </trkpt>
      <trkpt lat="47.00909" lon="8.65329">
        <ele>494</ele>
        <time>2021-08-05T08:52:52.421Z</time>
      </trkpt>
      <trkpt lat="47.00909" lon="8.65329">
        <ele>494</ele>
        <time>2021-08-05T08:52:53.421Z</time>
      </trkpt>
      <trkpt lat="47.00909" lon="8.65328">
        <ele>494</ele>
        <time>2021-08-05T08:52:54.420Z</time>
      </trkpt>
      <trkpt lat="47.00908" lon="8.65327">
        <ele>495</ele>
        <time>2021-08-05T08:52:55.421Z</time>
      </trkpt>
      <trkpt lat="47.00908" lon="8.65326">
        <ele>495</ele>
        <time>2021-08-05T08:52:56.421Z</time>
      </trkpt>
      <trkpt lat="47.00907" lon="8.65325">
        <ele>495</ele>
        <time>2021-08-05T08:52:57.421Z</time>
      </trkpt>
      <trkpt lat="47.00907" lon="8.65324">
        <ele>494</ele>
        <time>2021-08-05T08:52:58.420Z</time>
      </trkpt>
      <trkpt lat="47.00906" lon="8.65324">
        <ele>495</ele>
        <time>2021-08-05T08:52:59.421Z</time>
      </trkpt>
      <trkpt lat="47.00906" lon="8.65322">
        <ele>494</ele>
        <time>2021-08-05T08:53:00.421Z</time>
      </trkpt>
      <trkpt lat="47.00906" lon="8.65321">
        <ele>494</ele>
        <time>2021-08-05T08:53:01.421Z</time>
      </trkpt>
      <trkpt lat="47.00906" lon="8.6532">
        <ele>494</ele>
        <time>2021-08-05T08:53:02.421Z</time>
      </trkpt>
      <trkpt lat="47.00905" lon="8.65319">
        <ele>494</ele>
        <time>2021-08-05T08:53:03.421Z</time>
      </trkpt>
      <trkpt lat="47.00905" lon="8.65318">
        <ele>494</ele>
        <time>2021-08-05T08:53:04.421Z</time>
      </trkpt>
      <trkpt lat="47.00905" lon="8.65317">
        <ele>494</ele>
        <time>2021-08-05T08:53:05.421Z</time>
      </trkpt>
      <trkpt lat="47.00904" lon="8.65315">
        <ele>494</ele>
        <time>2021-08-05T08:53:06.421Z</time>
      </trkpt>
      <trkpt lat="47.00904" lon="8.65314">
        <ele>494</ele>
        <time>2021-08-05T08:53:07.420Z</time>
      </trkpt>
      <trkpt lat="47.00904" lon="8.65313">
        <ele>494</ele>
        <time>2021-08-05T08:53:08.421Z</time>
      </trkpt>
      <trkpt lat="47.00903" lon="8.65311">
        <ele>494</ele>
        <time>2021-08-05T08:53:09.421Z</time>
      </trkpt>
      <trkpt lat="47.00902" lon="8.6531">
        <ele>494</ele>
        <time>2021-08-05T08:53:10.420Z</time>
      </trkpt>
      <trkpt lat="47.00901" lon="8.65309">
        <ele>494</ele>
        <time>2021-08-05T08:53:11.421Z</time>
      </trkpt>
      <trkpt lat="47.00901" lon="8.65307">
        <ele>494</ele>
        <time>2021-08-05T08:53:12.420Z</time>
      </trkpt>
      <trkpt lat="47.00901" lon="8.65305">
        <ele>494</ele>
        <time>2021-08-05T08:53:13.421Z</time>
      </trkpt>
      <trkpt lat="47.009" lon="8.65303">
        <ele>494</ele>
        <time>2021-08-05T08:53:14.421Z</time>
      </trkpt>
      <trkpt lat="47.009" lon="8.65302">
        <ele>494</ele>
        <time>2021-08-05T08:53:15.421Z</time>
      </trkpt>
      <trkpt lat="47.00899" lon="8.653">
        <ele>494</ele>
        <time>2021-08-05T08:53:16.421Z</time>
      </trkpt>
      <trkpt lat="47.00898" lon="8.65298">
        <ele>495</ele>
        <time>2021-08-05T08:53:17.421Z</time>
      </trkpt>
      <trkpt lat="47.00897" lon="8.65297">
        <ele>495</ele>
        <time>2021-08-05T08:53:18.421Z</time>
      </trkpt>
      <trkpt lat="47.00897" lon="8.65295">
        <ele>495</ele>
        <time>2021-08-05T08:53:19.421Z</time>
      </trkpt>
      <trkpt lat="47.00896" lon="8.65294">
        <ele>495</ele>
        <time>2021-08-05T08:53:20.420Z</time>
      </trkpt>
      <trkpt lat="47.00896" lon="8.65293">
        <ele>494</ele>
        <time>2021-08-05T08:53:21.421Z</time>
      </trkpt>
      <trkpt lat="47.00896" lon="8.65292">
        <ele>494</ele>
        <time>2021-08-05T08:53:22.421Z</time>
      </trkpt>
      <trkpt lat="47.00895" lon="8.6529">
        <ele>494</ele>
        <time>2021-08-05T08:53:23.420Z</time>
      </trkpt>
      <trkpt lat="47.00894" lon="8.65289">
        <ele>494</ele>
        <time>2021-08-05T08:53:24.421Z</time>
      </trkpt>
      <trkpt lat="47.00894" lon="8.65287">
        <ele>494</ele>
        <time>2021-08-05T08:53:25.421Z</time>
      </trkpt>
      <trkpt lat="47.00893" lon="8.65286">
        <ele>494</ele>
        <time>2021-08-05T08:53:26.420Z</time>
      </trkpt>
      <trkpt lat="47.00892" lon="8.65284">
        <ele>493</ele>
        <time>2021-08-05T08:53:27.421Z</time>
      </trkpt>
      <trkpt lat="47.00892" lon="8.65283">
        <ele>493</ele>
        <time>2021-08-05T08:53:28.421Z</time>
      </trkpt>
      <trkpt lat="47.00892" lon="8.65283">
        <ele>493</ele>
        <time>2021-08-05T08:53:29.421Z</time>
      </trkpt>
      <trkpt lat="47.00892" lon="8.65283">
        <ele>494</ele>
        <time>2021-08-05T08:53:30.421Z</time>
      </trkpt>
      <trkpt lat="47.00892" lon="8.65283">
        <ele>494</ele>
        <time>2021-08-05T08:53:31.420Z</time>
      </trkpt>
      <trkpt lat="47.00892" lon="8.65283">
        <ele>494</ele>
        <time>2021-08-05T08:53:32.420Z</time>
      </trkpt>
      <trkpt lat="47.00891" lon="8.65284">
        <ele>495</ele>
        <time>2021-08-05T08:53:33.421Z</time>
      </trkpt>
      <trkpt lat="47.00892" lon="8.65285">
        <ele>495</ele>
        <time>2021-08-05T08:53:34.421Z</time>
      </trkpt>
      <trkpt lat="47.00891" lon="8.65285">
        <ele>495</ele>
        <time>2021-08-05T08:53:35.421Z</time>
      </trkpt>
      <trkpt lat="47.0089" lon="8.65284">
        <ele>498</ele>
        <time>2021-08-05T08:53:36.422Z</time>
      </trkpt>
      <trkpt lat="47.0089" lon="8.65284">
        <ele>498</ele>
        <time>2021-08-05T08:53:37.422Z</time>
      </trkpt>
      <trkpt lat="47.0089" lon="8.65284">
        <ele>498</ele>
        <time>2021-08-05T08:53:38.422Z</time>
      </trkpt>
      <trkpt lat="47.0089" lon="8.65284">
        <ele>497</ele>
        <time>2021-08-05T08:53:39.422Z</time>
      </trkpt>
      <trkpt lat="47.0089" lon="8.65284">
        <ele>497</ele>
        <time>2021-08-05T08:53:40.421Z</time>
      </trkpt>
      <trkpt lat="47.0089" lon="8.65285">
        <ele>496</ele>
        <time>2021-08-05T08:53:41.422Z</time>
      </trkpt>
      <trkpt lat="47.00891" lon="8.65285">
        <ele>496</ele>
        <time>2021-08-05T08:53:42.421Z</time>
      </trkpt>
      <trkpt lat="47.00891" lon="8.65285">
        <ele>495</ele>
        <time>2021-08-05T08:53:43.421Z</time>
      </trkpt>
      <trkpt lat="47.00891" lon="8.65285">
        <ele>495</ele>
        <time>2021-08-05T08:53:44.421Z</time>
      </trkpt>
      <trkpt lat="47.00891" lon="8.65285">
        <ele>495</ele>
        <time>2021-08-05T08:53:45.421Z</time>
      </trkpt>
      <trkpt lat="47.00891" lon="8.65281">
        <ele>492</ele>
        <time>2021-08-05T08:53:46.421Z</time>
      </trkpt>
      <trkpt lat="47.00891" lon="8.6528">
        <ele>492</ele>
        <time>2021-08-05T08:53:47.421Z</time>
      </trkpt>
      <trkpt lat="47.0089" lon="8.65279">
        <ele>492</ele>
        <time>2021-08-05T08:53:48.421Z</time>
      </trkpt>
      <trkpt lat="47.00889" lon="8.65277">
        <ele>493</ele>
        <time>2021-08-05T08:53:49.422Z</time>
      </trkpt>
      <trkpt lat="47.00888" lon="8.65276">
        <ele>493</ele>
        <time>2021-08-05T08:53:50.421Z</time>
      </trkpt>
      <trkpt lat="47.00888" lon="8.65275">
        <ele>494</ele>
        <time>2021-08-05T08:53:51.421Z</time>
      </trkpt>
      <trkpt lat="47.00887" lon="8.65274">
        <ele>494</ele>
        <time>2021-08-05T08:53:52.421Z</time>
      </trkpt>
      <trkpt lat="47.00887" lon="8.65273">
        <ele>493</ele>
        <time>2021-08-05T08:53:53.421Z</time>
      </trkpt>
      <trkpt lat="47.00887" lon="8.65272">
        <ele>493</ele>
        <time>2021-08-05T08:53:54.421Z</time>
      </trkpt>
      <trkpt lat="47.00886" lon="8.65271">
        <ele>493</ele>
        <time>2021-08-05T08:53:55.421Z</time>
      </trkpt>
      <trkpt lat="47.00886" lon="8.6527">
        <ele>493</ele>
        <time>2021-08-05T08:53:56.421Z</time>
      </trkpt>
      <trkpt lat="47.00886" lon="8.65269">
        <ele>493</ele>
        <time>2021-08-05T08:53:57.422Z</time>
      </trkpt>
      <trkpt lat="47.00885" lon="8.65266">
        <ele>493</ele>
        <time>2021-08-05T08:53:58.421Z</time>
      </trkpt>
      <trkpt lat="47.00884" lon="8.65264">
        <ele>493</ele>
        <time>2021-08-05T08:53:59.421Z</time>
      </trkpt>
      <trkpt lat="47.00883" lon="8.65262">
        <ele>494</ele>
        <time>2021-08-05T08:54:00.421Z</time>
      </trkpt>
      <trkpt lat="47.00882" lon="8.65262">
        <ele>494</ele>
        <time>2021-08-05T08:54:01.421Z</time>
      </trkpt>
      <trkpt lat="47.00881" lon="8.65261">
        <ele>494</ele>
        <time>2021-08-05T08:54:02.422Z</time>
      </trkpt>
      <trkpt lat="47.00881" lon="8.6526">
        <ele>494</ele>
        <time>2021-08-05T08:54:03.421Z</time>
      </trkpt>
      <trkpt lat="47.00881" lon="8.65259">
        <ele>494</ele>
        <time>2021-08-05T08:54:04.422Z</time>
      </trkpt>
      <trkpt lat="47.00881" lon="8.65258">
        <ele>494</ele>
        <time>2021-08-05T08:54:05.421Z</time>
      </trkpt>
      <trkpt lat="47.0088" lon="8.65256">
        <ele>494</ele>
        <time>2021-08-05T08:54:06.421Z</time>
      </trkpt>
      <trkpt lat="47.00879" lon="8.65255">
        <ele>494</ele>
        <time>2021-08-05T08:54:07.422Z</time>
      </trkpt>
      <trkpt lat="47.00879" lon="8.65253">
        <ele>494</ele>
        <time>2021-08-05T08:54:08.421Z</time>
      </trkpt>
      <trkpt lat="47.00879" lon="8.65252">
        <ele>494</ele>
        <time>2021-08-05T08:54:09.421Z</time>
      </trkpt>
      <trkpt lat="47.00878" lon="8.6525">
        <ele>494</ele>
        <time>2021-08-05T08:54:10.421Z</time>
      </trkpt>
      <trkpt lat="47.00878" lon="8.65249">
        <ele>494</ele>
        <time>2021-08-05T08:54:11.422Z</time>
      </trkpt>
      <trkpt lat="47.00877" lon="8.65247">
        <ele>494</ele>
        <time>2021-08-05T08:54:12.421Z</time>
      </trkpt>
      <trkpt lat="47.00877" lon="8.65246">
        <ele>494</ele>
        <time>2021-08-05T08:54:13.422Z</time>
      </trkpt>
      <trkpt lat="47.00876" lon="8.65246">
        <ele>494</ele>
        <time>2021-08-05T08:54:14.421Z</time>
      </trkpt>
      <trkpt lat="47.00876" lon="8.65245">
        <ele>493</ele>
        <time>2021-08-05T08:54:15.421Z</time>
      </trkpt>
      <trkpt lat="47.00875" lon="8.65243">
        <ele>493</ele>
        <time>2021-08-05T08:54:16.421Z</time>
      </trkpt>
      <trkpt lat="47.00875" lon="8.65242">
        <ele>493</ele>
        <time>2021-08-05T08:54:17.421Z</time>
      </trkpt>
      <trkpt lat="47.00875" lon="8.65241">
        <ele>493</ele>
        <time>2021-08-05T08:54:18.421Z</time>
      </trkpt>
      <trkpt lat="47.00874" lon="8.65239">
        <ele>493</ele>
        <time>2021-08-05T08:54:19.421Z</time>
      </trkpt>
      <trkpt lat="47.00874" lon="8.65238">
        <ele>493</ele>
        <time>2021-08-05T08:54:20.421Z</time>
      </trkpt>
      <trkpt lat="47.00873" lon="8.65237">
        <ele>492</ele>
        <time>2021-08-05T08:54:21.421Z</time>
      </trkpt>
      <trkpt lat="47.00873" lon="8.65236">
        <ele>492</ele>
        <time>2021-08-05T08:54:22.421Z</time>
      </trkpt>
      <trkpt lat="47.00872" lon="8.65235">
        <ele>491</ele>
        <time>2021-08-05T08:54:23.422Z</time>
      </trkpt>
      <trkpt lat="47.00872" lon="8.65234">
        <ele>491</ele>
        <time>2021-08-05T08:54:24.421Z</time>
      </trkpt>
      <trkpt lat="47.00871" lon="8.65233">
        <ele>491</ele>
        <time>2021-08-05T08:54:25.421Z</time>
      </trkpt>
      <trkpt lat="47.00871" lon="8.65231">
        <ele>490</ele>
        <time>2021-08-05T08:54:26.421Z</time>
      </trkpt>
      <trkpt lat="47.0087" lon="8.6523">
        <ele>490</ele>
        <time>2021-08-05T08:54:27.421Z</time>
      </trkpt>
      <trkpt lat="47.00869" lon="8.65228">
        <ele>490</ele>
        <time>2021-08-05T08:54:28.421Z</time>
      </trkpt>
      <trkpt lat="47.00869" lon="8.65227">
        <ele>490</ele>
        <time>2021-08-05T08:54:29.421Z</time>
      </trkpt>
      <trkpt lat="47.00868" lon="8.65226">
        <ele>490</ele>
        <time>2021-08-05T08:54:30.421Z</time>
      </trkpt>
      <trkpt lat="47.00868" lon="8.65226">
        <ele>490</ele>
        <time>2021-08-05T08:54:31.421Z</time>
      </trkpt>
      <trkpt lat="47.00867" lon="8.65224">
        <ele>490</ele>
        <time>2021-08-05T08:54:32.422Z</time>
      </trkpt>
      <trkpt lat="47.00866" lon="8.65223">
        <ele>490</ele>
        <time>2021-08-05T08:54:33.422Z</time>
      </trkpt>
      <trkpt lat="47.00865" lon="8.65222">
        <ele>490</ele>
        <time>2021-08-05T08:54:34.421Z</time>
      </trkpt>
      <trkpt lat="47.00865" lon="8.65221">
        <ele>490</ele>
        <time>2021-08-05T08:54:35.421Z</time>
      </trkpt>
      <trkpt lat="47.00865" lon="8.6522">
        <ele>490</ele>
        <time>2021-08-05T08:54:36.421Z</time>
      </trkpt>
      <trkpt lat="47.00864" lon="8.65219">
        <ele>490</ele>
        <time>2021-08-05T08:54:37.421Z</time>
      </trkpt>
      <trkpt lat="47.00864" lon="8.65218">
        <ele>490</ele>
        <time>2021-08-05T08:54:38.421Z</time>
      </trkpt>
      <trkpt lat="47.00864" lon="8.65217">
        <ele>490</ele>
        <time>2021-08-05T08:54:39.422Z</time>
      </trkpt>
      <trkpt lat="47.00864" lon="8.65216">
        <ele>490</ele>
        <time>2021-08-05T08:54:40.421Z</time>
      </trkpt>
      <trkpt lat="47.00863" lon="8.65215">
        <ele>489</ele>
        <time>2021-08-05T08:54:41.421Z</time>
      </trkpt>
      <trkpt lat="47.00863" lon="8.65215">
        <ele>489</ele>
        <time>2021-08-05T08:54:42.421Z</time>
      </trkpt>
      <trkpt lat="47.00862" lon="8.65214">
        <ele>489</ele>
        <time>2021-08-05T08:54:43.422Z</time>
      </trkpt>
      <trkpt lat="47.00862" lon="8.65214">
        <ele>489</ele>
        <time>2021-08-05T08:54:44.421Z</time>
      </trkpt>
      <trkpt lat="47.00861" lon="8.65214">
        <ele>489</ele>
        <time>2021-08-05T08:54:45.421Z</time>
      </trkpt>
      <trkpt lat="47.00861" lon="8.65214">
        <ele>489</ele>
        <time>2021-08-05T08:54:46.421Z</time>
      </trkpt>
      <trkpt lat="47.0086" lon="8.65213">
        <ele>489</ele>
        <time>2021-08-05T08:54:47.421Z</time>
      </trkpt>
      <trkpt lat="47.00859" lon="8.65213">
        <ele>490</ele>
        <time>2021-08-05T08:54:48.421Z</time>
      </trkpt>
      <trkpt lat="47.00857" lon="8.65212">
        <ele>490</ele>
        <time>2021-08-05T08:54:49.421Z</time>
      </trkpt>
      <trkpt lat="47.00857" lon="8.65211">
        <ele>490</ele>
        <time>2021-08-05T08:54:50.421Z</time>
      </trkpt>
      <trkpt lat="47.00856" lon="8.6521">
        <ele>489</ele>
        <time>2021-08-05T08:54:51.421Z</time>
      </trkpt>
      <trkpt lat="47.00855" lon="8.6521">
        <ele>489</ele>
        <time>2021-08-05T08:54:52.421Z</time>
      </trkpt>
      <trkpt lat="47.00854" lon="8.65208">
        <ele>488</ele>
        <time>2021-08-05T08:54:53.421Z</time>
      </trkpt>
      <trkpt lat="47.00853" lon="8.65208">
        <ele>488</ele>
        <time>2021-08-05T08:54:54.421Z</time>
      </trkpt>
      <trkpt lat="47.00853" lon="8.65208">
        <ele>488</ele>
        <time>2021-08-05T08:54:55.421Z</time>
      </trkpt>
      <trkpt lat="47.00853" lon="8.65208">
        <ele>489</ele>
        <time>2021-08-05T08:54:56.421Z</time>
      </trkpt>
      <trkpt lat="47.00853" lon="8.65207">
        <ele>489</ele>
        <time>2021-08-05T08:54:57.422Z</time>
      </trkpt>
      <trkpt lat="47.00853" lon="8.65207">
        <ele>489</ele>
        <time>2021-08-05T08:54:58.422Z</time>
      </trkpt>
      <trkpt lat="47.00853" lon="8.65208">
        <ele>489</ele>
        <time>2021-08-05T08:54:59.421Z</time>
      </trkpt>
      <trkpt lat="47.00852" lon="8.65208">
        <ele>489</ele>
        <time>2021-08-05T08:55:00.421Z</time>
      </trkpt>
      <trkpt lat="47.00851" lon="8.65207">
        <ele>489</ele>
        <time>2021-08-05T08:55:01.421Z</time>
      </trkpt>
      <trkpt lat="47.0085" lon="8.65206">
        <ele>489</ele>
        <time>2021-08-05T08:55:02.421Z</time>
      </trkpt>
      <trkpt lat="47.00849" lon="8.65206">
        <ele>489</ele>
        <time>2021-08-05T08:55:03.422Z</time>
      </trkpt>
      <trkpt lat="47.00849" lon="8.65205">
        <ele>489</ele>
        <time>2021-08-05T08:55:04.421Z</time>
      </trkpt>
      <trkpt lat="47.00848" lon="8.65205">
        <ele>489</ele>
        <time>2021-08-05T08:55:05.421Z</time>
      </trkpt>
      <trkpt lat="47.00848" lon="8.65204">
        <ele>489</ele>
        <time>2021-08-05T08:55:06.421Z</time>
      </trkpt>
      <trkpt lat="47.00847" lon="8.65204">
        <ele>489</ele>
        <time>2021-08-05T08:55:07.422Z</time>
      </trkpt>
      <trkpt lat="47.00847" lon="8.65204">
        <ele>489</ele>
        <time>2021-08-05T08:55:08.421Z</time>
      </trkpt>
      <trkpt lat="47.00846" lon="8.65204">
        <ele>489</ele>
        <time>2021-08-05T08:55:09.421Z</time>
      </trkpt>
      <trkpt lat="47.00846" lon="8.65204">
        <ele>488</ele>
        <time>2021-08-05T08:55:10.421Z</time>
      </trkpt>
      <trkpt lat="47.00845" lon="8.65204">
        <ele>489</ele>
        <time>2021-08-05T08:55:11.421Z</time>
      </trkpt>
      <trkpt lat="47.00845" lon="8.65204">
        <ele>489</ele>
        <time>2021-08-05T08:55:12.421Z</time>
      </trkpt>
      <trkpt lat="47.00845" lon="8.65204">
        <ele>489</ele>
        <time>2021-08-05T08:55:13.421Z</time>
      </trkpt>
      <trkpt lat="47.00845" lon="8.65205">
        <ele>489</ele>
        <time>2021-08-05T08:55:14.421Z</time>
      </trkpt>
      <trkpt lat="47.00845" lon="8.65205">
        <ele>490</ele>
        <time>2021-08-05T08:55:15.421Z</time>
      </trkpt>
      <trkpt lat="47.00844" lon="8.65205">
        <ele>490</ele>
        <time>2021-08-05T08:55:16.422Z</time>
      </trkpt>
      <trkpt lat="47.00844" lon="8.65205">
        <ele>491</ele>
        <time>2021-08-05T08:55:17.422Z</time>
      </trkpt>
      <trkpt lat="47.00843" lon="8.65205">
        <ele>491</ele>
        <time>2021-08-05T08:55:18.421Z</time>
      </trkpt>
      <trkpt lat="47.00843" lon="8.65205">
        <ele>491</ele>
        <time>2021-08-05T08:55:19.421Z</time>
      </trkpt>
      <trkpt lat="47.00843" lon="8.65206">
        <ele>492</ele>
        <time>2021-08-05T08:55:20.421Z</time>
      </trkpt>
      <trkpt lat="47.00842" lon="8.65205">
        <ele>492</ele>
        <time>2021-08-05T08:55:21.421Z</time>
      </trkpt>
      <trkpt lat="47.00842" lon="8.65205">
        <ele>492</ele>
        <time>2021-08-05T08:55:22.421Z</time>
      </trkpt>
      <trkpt lat="47.00841" lon="8.65205">
        <ele>491</ele>
        <time>2021-08-05T08:55:23.422Z</time>
      </trkpt>
      <trkpt lat="47.00841" lon="8.65206">
        <ele>491</ele>
        <time>2021-08-05T08:55:24.421Z</time>
      </trkpt>
      <trkpt lat="47.0084" lon="8.65205">
        <ele>490</ele>
        <time>2021-08-05T08:55:25.422Z</time>
      </trkpt>
      <trkpt lat="47.0084" lon="8.65205">
        <ele>490</ele>
        <time>2021-08-05T08:55:26.421Z</time>
      </trkpt>
      <trkpt lat="47.0084" lon="8.65205">
        <ele>490</ele>
        <time>2021-08-05T08:55:27.422Z</time>
      </trkpt>
      <trkpt lat="47.00839" lon="8.65205">
        <ele>489</ele>
        <time>2021-08-05T08:55:28.422Z</time>
      </trkpt>
      <trkpt lat="47.00839" lon="8.65205">
        <ele>489</ele>
        <time>2021-08-05T08:55:29.421Z</time>
      </trkpt>
      <trkpt lat="47.00839" lon="8.65206">
        <ele>489</ele>
        <time>2021-08-05T08:55:30.421Z</time>
      </trkpt>
      <trkpt lat="47.00838" lon="8.65206">
        <ele>489</ele>
        <time>2021-08-05T08:55:31.421Z</time>
      </trkpt>
      <trkpt lat="47.00838" lon="8.65206">
        <ele>488</ele>
        <time>2021-08-05T08:55:32.422Z</time>
      </trkpt>
      <trkpt lat="47.00837" lon="8.65206">
        <ele>488</ele>
        <time>2021-08-05T08:55:33.421Z</time>
      </trkpt>
      <trkpt lat="47.00836" lon="8.65206">
        <ele>488</ele>
        <time>2021-08-05T08:55:34.421Z</time>
      </trkpt>
      <trkpt lat="47.00836" lon="8.65206">
        <ele>489</ele>
        <time>2021-08-05T08:55:35.421Z</time>
      </trkpt>
      <trkpt lat="47.00835" lon="8.65206">
        <ele>489</ele>
        <time>2021-08-05T08:55:36.421Z</time>
      </trkpt>
      <trkpt lat="47.00835" lon="8.65206">
        <ele>489</ele>
        <time>2021-08-05T08:55:37.422Z</time>
      </trkpt>
      <trkpt lat="47.00835" lon="8.65205">
        <ele>489</ele>
        <time>2021-08-05T08:55:38.421Z</time>
      </trkpt>
      <trkpt lat="47.00835" lon="8.65204">
        <ele>489</ele>
        <time>2021-08-05T08:55:39.421Z</time>
      </trkpt>
      <trkpt lat="47.00835" lon="8.65203">
        <ele>489</ele>
        <time>2021-08-05T08:55:40.421Z</time>
      </trkpt>
      <trkpt lat="47.00834" lon="8.65201">
        <ele>489</ele>
        <time>2021-08-05T08:55:41.422Z</time>
      </trkpt>
      <trkpt lat="47.00834" lon="8.652">
        <ele>489</ele>
        <time>2021-08-05T08:55:42.421Z</time>
      </trkpt>
      <trkpt lat="47.00833" lon="8.65199">
        <ele>488</ele>
        <time>2021-08-05T08:55:43.421Z</time>
      </trkpt>
      <trkpt lat="47.00832" lon="8.652">
        <ele>487</ele>
        <time>2021-08-05T08:55:44.421Z</time>
      </trkpt>
      <trkpt lat="47.00831" lon="8.65199">
        <ele>487</ele>
        <time>2021-08-05T08:55:45.422Z</time>
      </trkpt>
      <trkpt lat="47.0083" lon="8.65198">
        <ele>486</ele>
        <time>2021-08-05T08:55:46.421Z</time>
      </trkpt>
      <trkpt lat="47.00829" lon="8.65198">
        <ele>486</ele>
        <time>2021-08-05T08:55:47.421Z</time>
      </trkpt>
      <trkpt lat="47.00828" lon="8.65197">
        <ele>486</ele>
        <time>2021-08-05T08:55:48.421Z</time>
      </trkpt>
      <trkpt lat="47.00827" lon="8.65197">
        <ele>485</ele>
        <time>2021-08-05T08:55:49.421Z</time>
      </trkpt>
      <trkpt lat="47.00827" lon="8.65197">
        <ele>485</ele>
        <time>2021-08-05T08:55:50.421Z</time>
      </trkpt>
      <trkpt lat="47.00826" lon="8.65197">
        <ele>485</ele>
        <time>2021-08-05T08:55:51.421Z</time>
      </trkpt>
      <trkpt lat="47.00826" lon="8.65197">
        <ele>485</ele>
        <time>2021-08-05T08:55:52.421Z</time>
      </trkpt>
      <trkpt lat="47.00826" lon="8.65196">
        <ele>485</ele>
        <time>2021-08-05T08:55:53.421Z</time>
      </trkpt>
      <trkpt lat="47.00825" lon="8.65195">
        <ele>485</ele>
        <time>2021-08-05T08:55:54.421Z</time>
      </trkpt>
      <trkpt lat="47.00825" lon="8.65194">
        <ele>485</ele>
        <time>2021-08-05T08:55:55.421Z</time>
      </trkpt>
      <trkpt lat="47.00826" lon="8.65193">
        <ele>485</ele>
        <time>2021-08-05T08:55:56.421Z</time>
      </trkpt>
      <trkpt lat="47.00827" lon="8.65191">
        <ele>485</ele>
        <time>2021-08-05T08:55:57.421Z</time>
      </trkpt>
      <trkpt lat="47.00828" lon="8.65191">
        <ele>486</ele>
        <time>2021-08-05T08:55:58.422Z</time>
      </trkpt>
      <trkpt lat="47.00828" lon="8.6519">
        <ele>486</ele>
        <time>2021-08-05T08:55:59.421Z</time>
      </trkpt>
      <trkpt lat="47.00829" lon="8.65189">
        <ele>486</ele>
        <time>2021-08-05T08:56:00.421Z</time>
      </trkpt>
      <trkpt lat="47.0083" lon="8.65188">
        <ele>486</ele>
        <time>2021-08-05T08:56:01.421Z</time>
      </trkpt>
      <trkpt lat="47.00832" lon="8.65187">
        <ele>486</ele>
        <time>2021-08-05T08:56:02.421Z</time>
      </trkpt>
      <trkpt lat="47.00832" lon="8.65186">
        <ele>486</ele>
        <time>2021-08-05T08:56:03.421Z</time>
      </trkpt>
      <trkpt lat="47.00833" lon="8.65185">
        <ele>485</ele>
        <time>2021-08-05T08:56:04.421Z</time>
      </trkpt>
      <trkpt lat="47.00834" lon="8.65184">
        <ele>485</ele>
        <time>2021-08-05T08:56:05.421Z</time>
      </trkpt>
      <trkpt lat="47.00835" lon="8.65183">
        <ele>485</ele>
        <time>2021-08-05T08:56:06.421Z</time>
      </trkpt>
      <trkpt lat="47.00836" lon="8.65181">
        <ele>485</ele>
        <time>2021-08-05T08:56:07.421Z</time>
      </trkpt>
      <trkpt lat="47.00836" lon="8.6518">
        <ele>484</ele>
        <time>2021-08-05T08:56:08.421Z</time>
      </trkpt>
      <trkpt lat="47.00837" lon="8.65179">
        <ele>484</ele>
        <time>2021-08-05T08:56:09.422Z</time>
      </trkpt>
      <trkpt lat="47.00838" lon="8.65179">
        <ele>484</ele>
        <time>2021-08-05T08:56:10.421Z</time>
      </trkpt>
      <trkpt lat="47.00838" lon="8.65178">
        <ele>483</ele>
        <time>2021-08-05T08:56:11.421Z</time>
      </trkpt>
      <trkpt lat="47.00839" lon="8.65177">
        <ele>482</ele>
        <time>2021-08-05T08:56:12.421Z</time>
      </trkpt>
      <trkpt lat="47.0084" lon="8.65177">
        <ele>482</ele>
        <time>2021-08-05T08:56:13.421Z</time>
      </trkpt>
      <trkpt lat="47.00841" lon="8.65175">
        <ele>481</ele>
        <time>2021-08-05T08:56:14.421Z</time>
      </trkpt>
      <trkpt lat="47.00841" lon="8.65174">
        <ele>481</ele>
        <time>2021-08-05T08:56:15.421Z</time>
      </trkpt>
      <trkpt lat="47.00842" lon="8.65172">
        <ele>481</ele>
        <time>2021-08-05T08:56:16.422Z</time>
      </trkpt>
      <trkpt lat="47.00843" lon="8.6517">
        <ele>481</ele>
        <time>2021-08-05T08:56:17.421Z</time>
      </trkpt>
      <trkpt lat="47.00844" lon="8.65169">
        <ele>481</ele>
        <time>2021-08-05T08:56:18.422Z</time>
      </trkpt>
      <trkpt lat="47.00844" lon="8.65168">
        <ele>482</ele>
        <time>2021-08-05T08:56:19.421Z</time>
      </trkpt>
      <trkpt lat="47.00845" lon="8.65168">
        <ele>482</ele>
        <time>2021-08-05T08:56:20.421Z</time>
      </trkpt>
      <trkpt lat="47.00846" lon="8.65167">
        <ele>482</ele>
        <time>2021-08-05T08:56:21.422Z</time>
      </trkpt>
      <trkpt lat="47.00847" lon="8.65166">
        <ele>483</ele>
        <time>2021-08-05T08:56:22.421Z</time>
      </trkpt>
      <trkpt lat="47.00848" lon="8.65165">
        <ele>483</ele>
        <time>2021-08-05T08:56:23.421Z</time>
      </trkpt>
      <trkpt lat="47.00849" lon="8.65164">
        <ele>483</ele>
        <time>2021-08-05T08:56:24.421Z</time>
      </trkpt>
      <trkpt lat="47.0085" lon="8.65164">
        <ele>484</ele>
        <time>2021-08-05T08:56:25.421Z</time>
      </trkpt>
      <trkpt lat="47.00851" lon="8.65164">
        <ele>484</ele>
        <time>2021-08-05T08:56:26.421Z</time>
      </trkpt>
      <trkpt lat="47.00851" lon="8.65164">
        <ele>484</ele>
        <time>2021-08-05T08:56:27.421Z</time>
      </trkpt>
      <trkpt lat="47.00852" lon="8.65163">
        <ele>484</ele>
        <time>2021-08-05T08:56:28.421Z</time>
      </trkpt>
      <trkpt lat="47.00853" lon="8.65163">
        <ele>484</ele>
        <time>2021-08-05T08:56:29.421Z</time>
      </trkpt>
      <trkpt lat="47.00854" lon="8.65163">
        <ele>484</ele>
        <time>2021-08-05T08:56:30.421Z</time>
      </trkpt>
      <trkpt lat="47.00855" lon="8.65162">
        <ele>484</ele>
        <time>2021-08-05T08:56:31.421Z</time>
      </trkpt>
      <trkpt lat="47.00856" lon="8.65161">
        <ele>484</ele>
        <time>2021-08-05T08:56:32.421Z</time>
      </trkpt>
      <trkpt lat="47.00857" lon="8.6516">
        <ele>484</ele>
        <time>2021-08-05T08:56:33.421Z</time>
      </trkpt>
      <trkpt lat="47.00857" lon="8.65159">
        <ele>484</ele>
        <time>2021-08-05T08:56:34.421Z</time>
      </trkpt>
      <trkpt lat="47.00858" lon="8.65159">
        <ele>484</ele>
        <time>2021-08-05T08:56:35.421Z</time>
      </trkpt>
      <trkpt lat="47.00859" lon="8.65158">
        <ele>484</ele>
        <time>2021-08-05T08:56:36.421Z</time>
      </trkpt>
      <trkpt lat="47.00859" lon="8.65157">
        <ele>484</ele>
        <time>2021-08-05T08:56:37.421Z</time>
      </trkpt>
      <trkpt lat="47.0086" lon="8.65156">
        <ele>483</ele>
        <time>2021-08-05T08:56:38.421Z</time>
      </trkpt>
      <trkpt lat="47.00861" lon="8.65156">
        <ele>483</ele>
        <time>2021-08-05T08:56:39.421Z</time>
      </trkpt>
      <trkpt lat="47.00862" lon="8.65155">
        <ele>483</ele>
        <time>2021-08-05T08:56:40.421Z</time>
      </trkpt>
      <trkpt lat="47.00863" lon="8.65154">
        <ele>484</ele>
        <time>2021-08-05T08:56:41.422Z</time>
      </trkpt>
      <trkpt lat="47.00864" lon="8.65154">
        <ele>484</ele>
        <time>2021-08-05T08:56:42.421Z</time>
      </trkpt>
      <trkpt lat="47.00864" lon="8.65153">
        <ele>484</ele>
        <time>2021-08-05T08:56:43.421Z</time>
      </trkpt>
      <trkpt lat="47.00865" lon="8.65153">
        <ele>485</ele>
        <time>2021-08-05T08:56:44.421Z</time>
      </trkpt>
      <trkpt lat="47.00866" lon="8.65153">
        <ele>485</ele>
        <time>2021-08-05T08:56:45.421Z</time>
      </trkpt>
      <trkpt lat="47.00866" lon="8.65152">
        <ele>486</ele>
        <time>2021-08-05T08:56:46.421Z</time>
      </trkpt>
      <trkpt lat="47.00867" lon="8.65151">
        <ele>486</ele>
        <time>2021-08-05T08:56:47.421Z</time>
      </trkpt>
      <trkpt lat="47.00867" lon="8.6515">
        <ele>486</ele>
        <time>2021-08-05T08:56:48.421Z</time>
      </trkpt>
      <trkpt lat="47.00868" lon="8.65149">
        <ele>486</ele>
        <time>2021-08-05T08:56:49.421Z</time>
      </trkpt>
      <trkpt lat="47.00868" lon="8.65148">
        <ele>486</ele>
        <time>2021-08-05T08:56:50.421Z</time>
      </trkpt>
      <trkpt lat="47.00869" lon="8.65147">
        <ele>486</ele>
        <time>2021-08-05T08:56:51.422Z</time>
      </trkpt>
      <trkpt lat="47.00869" lon="8.65146">
        <ele>485</ele>
        <time>2021-08-05T08:56:52.422Z</time>
      </trkpt>
      <trkpt lat="47.0087" lon="8.65145">
        <ele>484</ele>
        <time>2021-08-05T08:56:53.421Z</time>
      </trkpt>
      <trkpt lat="47.00871" lon="8.65144">
        <ele>484</ele>
        <time>2021-08-05T08:56:54.421Z</time>
      </trkpt>
      <trkpt lat="47.00872" lon="8.65143">
        <ele>483</ele>
        <time>2021-08-05T08:56:55.421Z</time>
      </trkpt>
      <trkpt lat="47.00873" lon="8.65142">
        <ele>482</ele>
        <time>2021-08-05T08:56:56.422Z</time>
      </trkpt>
      <trkpt lat="47.00874" lon="8.65142">
        <ele>482</ele>
        <time>2021-08-05T08:56:57.422Z</time>
      </trkpt>
      <trkpt lat="47.00874" lon="8.65141">
        <ele>481</ele>
        <time>2021-08-05T08:56:58.421Z</time>
      </trkpt>
      <trkpt lat="47.00875" lon="8.65139">
        <ele>481</ele>
        <time>2021-08-05T08:56:59.421Z</time>
      </trkpt>
      <trkpt lat="47.00876" lon="8.65138">
        <ele>481</ele>
        <time>2021-08-05T08:57:00.421Z</time>
      </trkpt>
      <trkpt lat="47.00876" lon="8.65137">
        <ele>482</ele>
        <time>2021-08-05T08:57:01.421Z</time>
      </trkpt>
      <trkpt lat="47.00877" lon="8.65136">
        <ele>482</ele>
        <time>2021-08-05T08:57:02.421Z</time>
      </trkpt>
      <trkpt lat="47.00878" lon="8.65135">
        <ele>483</ele>
        <time>2021-08-05T08:57:03.421Z</time>
      </trkpt>
      <trkpt lat="47.00878" lon="8.65133">
        <ele>483</ele>
        <time>2021-08-05T08:57:04.421Z</time>
      </trkpt>
      <trkpt lat="47.00879" lon="8.65132">
        <ele>483</ele>
        <time>2021-08-05T08:57:05.421Z</time>
      </trkpt>
      <trkpt lat="47.0088" lon="8.65131">
        <ele>484</ele>
        <time>2021-08-05T08:57:06.422Z</time>
      </trkpt>
      <trkpt lat="47.0088" lon="8.65129">
        <ele>484</ele>
        <time>2021-08-05T08:57:07.421Z</time>
      </trkpt>
      <trkpt lat="47.00881" lon="8.65128">
        <ele>484</ele>
        <time>2021-08-05T08:57:08.421Z</time>
      </trkpt>
      <trkpt lat="47.00883" lon="8.65127">
        <ele>485</ele>
        <time>2021-08-05T08:57:09.421Z</time>
      </trkpt>
      <trkpt lat="47.00883" lon="8.65125">
        <ele>485</ele>
        <time>2021-08-05T08:57:10.422Z</time>
      </trkpt>
      <trkpt lat="47.00883" lon="8.65124">
        <ele>486</ele>
        <time>2021-08-05T08:57:11.421Z</time>
      </trkpt>
      <trkpt lat="47.00883" lon="8.65123">
        <ele>486</ele>
        <time>2021-08-05T08:57:12.421Z</time>
      </trkpt>
      <trkpt lat="47.00884" lon="8.65121">
        <ele>487</ele>
        <time>2021-08-05T08:57:13.421Z</time>
      </trkpt>
      <trkpt lat="47.00884" lon="8.65119">
        <ele>488</ele>
        <time>2021-08-05T08:57:14.421Z</time>
      </trkpt>
      <trkpt lat="47.00884" lon="8.65117">
        <ele>488</ele>
        <time>2021-08-05T08:57:15.421Z</time>
      </trkpt>
      <trkpt lat="47.00885" lon="8.65115">
        <ele>489</ele>
        <time>2021-08-05T08:57:16.421Z</time>
      </trkpt>
      <trkpt lat="47.00885" lon="8.65114">
        <ele>489</ele>
        <time>2021-08-05T08:57:17.421Z</time>
      </trkpt>
      <trkpt lat="47.00885" lon="8.65112">
        <ele>490</ele>
        <time>2021-08-05T08:57:18.421Z</time>
      </trkpt>
      <trkpt lat="47.00885" lon="8.65111">
        <ele>491</ele>
        <time>2021-08-05T08:57:19.421Z</time>
      </trkpt>
      <trkpt lat="47.00886" lon="8.6511">
        <ele>491</ele>
        <time>2021-08-05T08:57:20.421Z</time>
      </trkpt>
      <trkpt lat="47.00887" lon="8.65109">
        <ele>491</ele>
        <time>2021-08-05T08:57:21.421Z</time>
      </trkpt>
      <trkpt lat="47.00886" lon="8.6511">
        <ele>491</ele>
        <time>2021-08-05T08:57:22.421Z</time>
      </trkpt>
      <trkpt lat="47.00886" lon="8.65109">
        <ele>491</ele>
        <time>2021-08-05T08:57:23.422Z</time>
      </trkpt>
      <trkpt lat="47.00885" lon="8.65109">
        <ele>490</ele>
        <time>2021-08-05T08:57:24.421Z</time>
      </trkpt>
      <trkpt lat="47.00884" lon="8.65108">
        <ele>490</ele>
        <time>2021-08-05T08:57:25.421Z</time>
      </trkpt>
      <trkpt lat="47.00883" lon="8.65108">
        <ele>490</ele>
        <time>2021-08-05T08:57:26.421Z</time>
      </trkpt>
      <trkpt lat="47.00883" lon="8.65108">
        <ele>490</ele>
        <time>2021-08-05T08:57:27.421Z</time>
      </trkpt>
      <trkpt lat="47.00883" lon="8.65104">
        <ele>490</ele>
        <time>2021-08-05T08:57:28.422Z</time>
      </trkpt>
      <trkpt lat="47.00883" lon="8.65103">
        <ele>490</ele>
        <time>2021-08-05T08:57:29.421Z</time>
      </trkpt>
      <trkpt lat="47.00884" lon="8.65103">
        <ele>489</ele>
        <time>2021-08-05T08:57:30.421Z</time>
      </trkpt>
      <trkpt lat="47.00885" lon="8.65102">
        <ele>489</ele>
        <time>2021-08-05T08:57:31.422Z</time>
      </trkpt>
      <trkpt lat="47.00885" lon="8.651">
        <ele>489</ele>
        <time>2021-08-05T08:57:32.422Z</time>
      </trkpt>
      <trkpt lat="47.00886" lon="8.65099">
        <ele>489</ele>
        <time>2021-08-05T08:57:33.422Z</time>
      </trkpt>
      <trkpt lat="47.00887" lon="8.65097">
        <ele>489</ele>
        <time>2021-08-05T08:57:34.421Z</time>
      </trkpt>
      <trkpt lat="47.00887" lon="8.65096">
        <ele>489</ele>
        <time>2021-08-05T08:57:35.422Z</time>
      </trkpt>
      <trkpt lat="47.00887" lon="8.65094">
        <ele>489</ele>
        <time>2021-08-05T08:57:36.421Z</time>
      </trkpt>
      <trkpt lat="47.00886" lon="8.65093">
        <ele>489</ele>
        <time>2021-08-05T08:57:37.421Z</time>
      </trkpt>
      <trkpt lat="47.00886" lon="8.6509">
        <ele>489</ele>
        <time>2021-08-05T08:57:38.422Z</time>
      </trkpt>
      <trkpt lat="47.00885" lon="8.65089">
        <ele>489</ele>
        <time>2021-08-05T08:57:39.422Z</time>
      </trkpt>
      <trkpt lat="47.00885" lon="8.65086">
        <ele>489</ele>
        <time>2021-08-05T08:57:40.421Z</time>
      </trkpt>
      <trkpt lat="47.00885" lon="8.65085">
        <ele>489</ele>
        <time>2021-08-05T08:57:41.421Z</time>
      </trkpt>
      <trkpt lat="47.00885" lon="8.65083">
        <ele>489</ele>
        <time>2021-08-05T08:57:42.422Z</time>
      </trkpt>
      <trkpt lat="47.00885" lon="8.65082">
        <ele>490</ele>
        <time>2021-08-05T08:57:43.422Z</time>
      </trkpt>
      <trkpt lat="47.00885" lon="8.6508">
        <ele>490</ele>
        <time>2021-08-05T08:57:44.422Z</time>
      </trkpt>
      <trkpt lat="47.00885" lon="8.65079">
        <ele>490</ele>
        <time>2021-08-05T08:57:45.422Z</time>
      </trkpt>
      <trkpt lat="47.00885" lon="8.65077">
        <ele>491</ele>
        <time>2021-08-05T08:57:46.421Z</time>
      </trkpt>
      <trkpt lat="47.00886" lon="8.65076">
        <ele>491</ele>
        <time>2021-08-05T08:57:47.422Z</time>
      </trkpt>
      <trkpt lat="47.00886" lon="8.65074">
        <ele>492</ele>
        <time>2021-08-05T08:57:48.422Z</time>
      </trkpt>
      <trkpt lat="47.00886" lon="8.65073">
        <ele>492</ele>
        <time>2021-08-05T08:57:49.422Z</time>
      </trkpt>
      <trkpt lat="47.00887" lon="8.65071">
        <ele>492</ele>
        <time>2021-08-05T08:57:50.422Z</time>
      </trkpt>
      <trkpt lat="47.00887" lon="8.6507">
        <ele>492</ele>
        <time>2021-08-05T08:57:51.422Z</time>
      </trkpt>
      <trkpt lat="47.00887" lon="8.65069">
        <ele>493</ele>
        <time>2021-08-05T08:57:52.421Z</time>
      </trkpt>
      <trkpt lat="47.00887" lon="8.65067">
        <ele>493</ele>
        <time>2021-08-05T08:57:53.422Z</time>
      </trkpt>
      <trkpt lat="47.00886" lon="8.65064">
        <ele>493</ele>
        <time>2021-08-05T08:57:54.422Z</time>
      </trkpt>
      <trkpt lat="47.00886" lon="8.65062">
        <ele>493</ele>
        <time>2021-08-05T08:57:55.422Z</time>
      </trkpt>
      <trkpt lat="47.00886" lon="8.6506">
        <ele>493</ele>
        <time>2021-08-05T08:57:56.421Z</time>
      </trkpt>
      <trkpt lat="47.00885" lon="8.65059">
        <ele>493</ele>
        <time>2021-08-05T08:57:57.422Z</time>
      </trkpt>
      <trkpt lat="47.00885" lon="8.65057">
        <ele>493</ele>
        <time>2021-08-05T08:57:58.421Z</time>
      </trkpt>
      <trkpt lat="47.00884" lon="8.65057">
        <ele>493</ele>
        <time>2021-08-05T08:57:59.422Z</time>
      </trkpt>
      <trkpt lat="47.00883" lon="8.65057">
        <ele>493</ele>
        <time>2021-08-05T08:58:00.422Z</time>
      </trkpt>
      <trkpt lat="47.00883" lon="8.65057">
        <ele>493</ele>
        <time>2021-08-05T08:58:01.421Z</time>
      </trkpt>
      <trkpt lat="47.00883" lon="8.65058">
        <ele>492</ele>
        <time>2021-08-05T08:58:02.421Z</time>
      </trkpt>
      <trkpt lat="47.00883" lon="8.65058">
        <ele>492</ele>
        <time>2021-08-05T08:58:03.422Z</time>
      </trkpt>
      <trkpt lat="47.00885" lon="8.65058">
        <ele>492</ele>
        <time>2021-08-05T08:58:04.421Z</time>
      </trkpt>
      <trkpt lat="47.00886" lon="8.65057">
        <ele>491</ele>
        <time>2021-08-05T08:58:05.421Z</time>
      </trkpt>
      <trkpt lat="47.00887" lon="8.65056">
        <ele>491</ele>
        <time>2021-08-05T08:58:06.421Z</time>
      </trkpt>
      <trkpt lat="47.00888" lon="8.65055">
        <ele>491</ele>
        <time>2021-08-05T08:58:07.422Z</time>
      </trkpt>
      <trkpt lat="47.00889" lon="8.65054">
        <ele>491</ele>
        <time>2021-08-05T08:58:08.422Z</time>
      </trkpt>
      <trkpt lat="47.00889" lon="8.65054">
        <ele>490</ele>
        <time>2021-08-05T08:58:09.422Z</time>
      </trkpt>
      <trkpt lat="47.0089" lon="8.65052">
        <ele>490</ele>
        <time>2021-08-05T08:58:10.421Z</time>
      </trkpt>
      <trkpt lat="47.0089" lon="8.65051">
        <ele>489</ele>
        <time>2021-08-05T08:58:11.422Z</time>
      </trkpt>
      <trkpt lat="47.0089" lon="8.6505">
        <ele>489</ele>
        <time>2021-08-05T08:58:12.422Z</time>
      </trkpt>
      <trkpt lat="47.00891" lon="8.65049">
        <ele>489</ele>
        <time>2021-08-05T08:58:13.422Z</time>
      </trkpt>
      <trkpt lat="47.00892" lon="8.65048">
        <ele>488</ele>
        <time>2021-08-05T08:58:14.422Z</time>
      </trkpt>
      <trkpt lat="47.00892" lon="8.65047">
        <ele>489</ele>
        <time>2021-08-05T08:58:15.422Z</time>
      </trkpt>
      <trkpt lat="47.00893" lon="8.65047">
        <ele>489</ele>
        <time>2021-08-05T08:58:16.421Z</time>
      </trkpt>
      <trkpt lat="47.00893" lon="8.65046">
        <ele>489</ele>
        <time>2021-08-05T08:58:17.422Z</time>
      </trkpt>
      <trkpt lat="47.00893" lon="8.65044">
        <ele>490</ele>
        <time>2021-08-05T08:58:18.422Z</time>
      </trkpt>
      <trkpt lat="47.00893" lon="8.65043">
        <ele>490</ele>
        <time>2021-08-05T08:58:19.421Z</time>
      </trkpt>
      <trkpt lat="47.00893" lon="8.6504">
        <ele>490</ele>
        <time>2021-08-05T08:58:20.421Z</time>
      </trkpt>
      <trkpt lat="47.00893" lon="8.65039">
        <ele>491</ele>
        <time>2021-08-05T08:58:21.422Z</time>
      </trkpt>
      <trkpt lat="47.00893" lon="8.65037">
        <ele>491</ele>
        <time>2021-08-05T08:58:22.421Z</time>
      </trkpt>
      <trkpt lat="47.00893" lon="8.65036">
        <ele>491</ele>
        <time>2021-08-05T08:58:23.422Z</time>
      </trkpt>
      <trkpt lat="47.00894" lon="8.65035">
        <ele>491</ele>
        <time>2021-08-05T08:58:24.422Z</time>
      </trkpt>
      <trkpt lat="47.00894" lon="8.65034">
        <ele>491</ele>
        <time>2021-08-05T08:58:25.422Z</time>
      </trkpt>
      <trkpt lat="47.00893" lon="8.65032">
        <ele>490</ele>
        <time>2021-08-05T08:58:26.422Z</time>
      </trkpt>
      <trkpt lat="47.00893" lon="8.65031">
        <ele>490</ele>
        <time>2021-08-05T08:58:27.421Z</time>
      </trkpt>
      <trkpt lat="47.00892" lon="8.6503">
        <ele>490</ele>
        <time>2021-08-05T08:58:28.421Z</time>
      </trkpt>
      <trkpt lat="47.00892" lon="8.65029">
        <ele>490</ele>
        <time>2021-08-05T08:58:29.421Z</time>
      </trkpt>
      <trkpt lat="47.00891" lon="8.65027">
        <ele>490</ele>
        <time>2021-08-05T08:58:30.421Z</time>
      </trkpt>
      <trkpt lat="47.00891" lon="8.65027">
        <ele>490</ele>
        <time>2021-08-05T08:58:31.421Z</time>
      </trkpt>
      <trkpt lat="47.0089" lon="8.65025">
        <ele>490</ele>
        <time>2021-08-05T08:58:32.421Z</time>
      </trkpt>
      <trkpt lat="47.00889" lon="8.65024">
        <ele>490</ele>
        <time>2021-08-05T08:58:33.421Z</time>
      </trkpt>
      <trkpt lat="47.00888" lon="8.65022">
        <ele>490</ele>
        <time>2021-08-05T08:58:34.422Z</time>
      </trkpt>
      <trkpt lat="47.00887" lon="8.65021">
        <ele>489</ele>
        <time>2021-08-05T08:58:35.422Z</time>
      </trkpt>
      <trkpt lat="47.00886" lon="8.6502">
        <ele>489</ele>
        <time>2021-08-05T08:58:36.422Z</time>
      </trkpt>
      <trkpt lat="47.00885" lon="8.6502">
        <ele>488</ele>
        <time>2021-08-05T08:58:37.422Z</time>
      </trkpt>
      <trkpt lat="47.00883" lon="8.65019">
        <ele>488</ele>
        <time>2021-08-05T08:58:38.422Z</time>
      </trkpt>
      <trkpt lat="47.00883" lon="8.65018">
        <ele>487</ele>
        <time>2021-08-05T08:58:39.422Z</time>
      </trkpt>
      <trkpt lat="47.00882" lon="8.65016">
        <ele>487</ele>
        <time>2021-08-05T08:58:40.422Z</time>
      </trkpt>
      <trkpt lat="47.00881" lon="8.65016">
        <ele>486</ele>
        <time>2021-08-05T08:58:41.422Z</time>
      </trkpt>
      <trkpt lat="47.00881" lon="8.65015">
        <ele>486</ele>
        <time>2021-08-05T08:58:42.421Z</time>
      </trkpt>
      <trkpt lat="47.00881" lon="8.65014">
        <ele>485</ele>
        <time>2021-08-05T08:58:43.421Z</time>
      </trkpt>
      <trkpt lat="47.00881" lon="8.65013">
        <ele>486</ele>
        <time>2021-08-05T08:58:44.422Z</time>
      </trkpt>
      <trkpt lat="47.0088" lon="8.65012">
        <ele>486</ele>
        <time>2021-08-05T08:58:45.421Z</time>
      </trkpt>
      <trkpt lat="47.0088" lon="8.65011">
        <ele>486</ele>
        <time>2021-08-05T08:58:46.421Z</time>
      </trkpt>
      <trkpt lat="47.00879" lon="8.6501">
        <ele>486</ele>
        <time>2021-08-05T08:58:47.422Z</time>
      </trkpt>
      <trkpt lat="47.00878" lon="8.65009">
        <ele>486</ele>
        <time>2021-08-05T08:58:48.421Z</time>
      </trkpt>
      <trkpt lat="47.00878" lon="8.65008">
        <ele>485</ele>
        <time>2021-08-05T08:58:49.422Z</time>
      </trkpt>
      <trkpt lat="47.00877" lon="8.65007">
        <ele>486</ele>
        <time>2021-08-05T08:58:50.422Z</time>
      </trkpt>
      <trkpt lat="47.00876" lon="8.65006">
        <ele>486</ele>
        <time>2021-08-05T08:58:51.422Z</time>
      </trkpt>
      <trkpt lat="47.00876" lon="8.65005">
        <ele>487</ele>
        <time>2021-08-05T08:58:52.422Z</time>
      </trkpt>
      <trkpt lat="47.00875" lon="8.65004">
        <ele>487</ele>
        <time>2021-08-05T08:58:53.422Z</time>
      </trkpt>
      <trkpt lat="47.00873" lon="8.65003">
        <ele>487</ele>
        <time>2021-08-05T08:58:54.421Z</time>
      </trkpt>
      <trkpt lat="47.00872" lon="8.65002">
        <ele>487</ele>
        <time>2021-08-05T08:58:55.422Z</time>
      </trkpt>
      <trkpt lat="47.00872" lon="8.65001">
        <ele>487</ele>
        <time>2021-08-05T08:58:56.421Z</time>
      </trkpt>
      <trkpt lat="47.00871" lon="8.64999">
        <ele>487</ele>
        <time>2021-08-05T08:58:57.421Z</time>
      </trkpt>
      <trkpt lat="47.00869" lon="8.64997">
        <ele>487</ele>
        <time>2021-08-05T08:58:58.421Z</time>
      </trkpt>
      <trkpt lat="47.00868" lon="8.64996">
        <ele>488</ele>
        <time>2021-08-05T08:58:59.421Z</time>
      </trkpt>
      <trkpt lat="47.00867" lon="8.64993">
        <ele>488</ele>
        <time>2021-08-05T08:59:00.422Z</time>
      </trkpt>
      <trkpt lat="47.00866" lon="8.64992">
        <ele>488</ele>
        <time>2021-08-05T08:59:01.422Z</time>
      </trkpt>
      <trkpt lat="47.00865" lon="8.64991">
        <ele>488</ele>
        <time>2021-08-05T08:59:02.422Z</time>
      </trkpt>
      <trkpt lat="47.00864" lon="8.64989">
        <ele>488</ele>
        <time>2021-08-05T08:59:03.422Z</time>
      </trkpt>
      <trkpt lat="47.00863" lon="8.64988">
        <ele>487</ele>
        <time>2021-08-05T08:59:04.422Z</time>
      </trkpt>
      <trkpt lat="47.00862" lon="8.64986">
        <ele>487</ele>
        <time>2021-08-05T08:59:05.421Z</time>
      </trkpt>
      <trkpt lat="47.00861" lon="8.64985">
        <ele>486</ele>
        <time>2021-08-05T08:59:06.422Z</time>
      </trkpt>
      <trkpt lat="47.0086" lon="8.64983">
        <ele>485</ele>
        <time>2021-08-05T08:59:07.422Z</time>
      </trkpt>
      <trkpt lat="47.00859" lon="8.64981">
        <ele>485</ele>
        <time>2021-08-05T08:59:08.422Z</time>
      </trkpt>
      <trkpt lat="47.00858" lon="8.6498">
        <ele>484</ele>
        <time>2021-08-05T08:59:09.422Z</time>
      </trkpt>
      <trkpt lat="47.00857" lon="8.64979">
        <ele>484</ele>
        <time>2021-08-05T08:59:10.422Z</time>
      </trkpt>
      <trkpt lat="47.00854" lon="8.64977">
        <ele>485</ele>
        <time>2021-08-05T08:59:11.422Z</time>
      </trkpt>
      <trkpt lat="47.00853" lon="8.64976">
        <ele>485</ele>
        <time>2021-08-05T08:59:12.422Z</time>
      </trkpt>
      <trkpt lat="47.00851" lon="8.64973">
        <ele>485</ele>
        <time>2021-08-05T08:59:13.422Z</time>
      </trkpt>
      <trkpt lat="47.00849" lon="8.64972">
        <ele>485</ele>
        <time>2021-08-05T08:59:14.422Z</time>
      </trkpt>
      <trkpt lat="47.00848" lon="8.64972">
        <ele>485</ele>
        <time>2021-08-05T08:59:15.422Z</time>
      </trkpt>
      <trkpt lat="47.00847" lon="8.64971">
        <ele>485</ele>
        <time>2021-08-05T08:59:16.421Z</time>
      </trkpt>
      <trkpt lat="47.00846" lon="8.64971">
        <ele>486</ele>
        <time>2021-08-05T08:59:17.421Z</time>
      </trkpt>
      <trkpt lat="47.00845" lon="8.64971">
        <ele>486</ele>
        <time>2021-08-05T08:59:18.421Z</time>
      </trkpt>
      <trkpt lat="47.00844" lon="8.6497">
        <ele>486</ele>
        <time>2021-08-05T08:59:19.422Z</time>
      </trkpt>
      <trkpt lat="47.00843" lon="8.6497">
        <ele>486</ele>
        <time>2021-08-05T08:59:20.421Z</time>
      </trkpt>
      <trkpt lat="47.00842" lon="8.64969">
        <ele>487</ele>
        <time>2021-08-05T08:59:21.422Z</time>
      </trkpt>
      <trkpt lat="47.00841" lon="8.64967">
        <ele>487</ele>
        <time>2021-08-05T08:59:22.422Z</time>
      </trkpt>
      <trkpt lat="47.00839" lon="8.64966">
        <ele>487</ele>
        <time>2021-08-05T08:59:23.421Z</time>
      </trkpt>
      <trkpt lat="47.00839" lon="8.64964">
        <ele>488</ele>
        <time>2021-08-05T08:59:24.421Z</time>
      </trkpt>
      <trkpt lat="47.00838" lon="8.64963">
        <ele>488</ele>
        <time>2021-08-05T08:59:25.421Z</time>
      </trkpt>
      <trkpt lat="47.00838" lon="8.64962">
        <ele>488</ele>
        <time>2021-08-05T08:59:26.421Z</time>
      </trkpt>
      <trkpt lat="47.00837" lon="8.6496">
        <ele>489</ele>
        <time>2021-08-05T08:59:27.421Z</time>
      </trkpt>
      <trkpt lat="47.00836" lon="8.64959">
        <ele>489</ele>
        <time>2021-08-05T08:59:28.421Z</time>
      </trkpt>
      <trkpt lat="47.00836" lon="8.64959">
        <ele>488</ele>
        <time>2021-08-05T08:59:29.421Z</time>
      </trkpt>
      <trkpt lat="47.00837" lon="8.64959">
        <ele>486</ele>
        <time>2021-08-05T08:59:30.421Z</time>
      </trkpt>
      <trkpt lat="47.00837" lon="8.6496">
        <ele>486</ele>
        <time>2021-08-05T08:59:31.422Z</time>
      </trkpt>
      <trkpt lat="47.00836" lon="8.6496">
        <ele>485</ele>
        <time>2021-08-05T08:59:32.421Z</time>
      </trkpt>
      <trkpt lat="47.00835" lon="8.6496">
        <ele>484</ele>
        <time>2021-08-05T08:59:33.421Z</time>
      </trkpt>
      <trkpt lat="47.00835" lon="8.6496">
        <ele>483</ele>
        <time>2021-08-05T08:59:34.421Z</time>
      </trkpt>
      <trkpt lat="47.00834" lon="8.64959">
        <ele>482</ele>
        <time>2021-08-05T08:59:35.421Z</time>
      </trkpt>
      <trkpt lat="47.00833" lon="8.64958">
        <ele>482</ele>
        <time>2021-08-05T08:59:36.421Z</time>
      </trkpt>
      <trkpt lat="47.00832" lon="8.64957">
        <ele>481</ele>
        <time>2021-08-05T08:59:37.421Z</time>
      </trkpt>
      <trkpt lat="47.00831" lon="8.64956">
        <ele>480</ele>
        <time>2021-08-05T08:59:38.422Z</time>
      </trkpt>
      <trkpt lat="47.0083" lon="8.64956">
        <ele>480</ele>
        <time>2021-08-05T08:59:39.421Z</time>
      </trkpt>
      <trkpt lat="47.00829" lon="8.64956">
        <ele>479</ele>
        <time>2021-08-05T08:59:40.421Z</time>
      </trkpt>
      <trkpt lat="47.00828" lon="8.64956">
        <ele>479</ele>
        <time>2021-08-05T08:59:41.422Z</time>
      </trkpt>
      <trkpt lat="47.00827" lon="8.64956">
        <ele>478</ele>
        <time>2021-08-05T08:59:42.421Z</time>
      </trkpt>
      <trkpt lat="47.00826" lon="8.64955">
        <ele>478</ele>
        <time>2021-08-05T08:59:43.421Z</time>
      </trkpt>
      <trkpt lat="47.00824" lon="8.64955">
        <ele>477</ele>
        <time>2021-08-05T08:59:44.421Z</time>
      </trkpt>
      <trkpt lat="47.00823" lon="8.64955">
        <ele>477</ele>
        <time>2021-08-05T08:59:45.421Z</time>
      </trkpt>
      <trkpt lat="47.00822" lon="8.64955">
        <ele>476</ele>
        <time>2021-08-05T08:59:46.422Z</time>
      </trkpt>
      <trkpt lat="47.00821" lon="8.64955">
        <ele>476</ele>
        <time>2021-08-05T08:59:47.421Z</time>
      </trkpt>
      <trkpt lat="47.0082" lon="8.64955">
        <ele>476</ele>
        <time>2021-08-05T08:59:48.422Z</time>
      </trkpt>
      <trkpt lat="47.00818" lon="8.64956">
        <ele>476</ele>
        <time>2021-08-05T08:59:49.421Z</time>
      </trkpt>
      <trkpt lat="47.00817" lon="8.64956">
        <ele>476</ele>
        <time>2021-08-05T08:59:50.421Z</time>
      </trkpt>
      <trkpt lat="47.00816" lon="8.64956">
        <ele>476</ele>
        <time>2021-08-05T08:59:51.422Z</time>
      </trkpt>
      <trkpt lat="47.00815" lon="8.64956">
        <ele>476</ele>
        <time>2021-08-05T08:59:52.422Z</time>
      </trkpt>
      <trkpt lat="47.00814" lon="8.64955">
        <ele>475</ele>
        <time>2021-08-05T08:59:53.422Z</time>
      </trkpt>
      <trkpt lat="47.00813" lon="8.64955">
        <ele>475</ele>
        <time>2021-08-05T08:59:54.421Z</time>
      </trkpt>
      <trkpt lat="47.00812" lon="8.64955">
        <ele>475</ele>
        <time>2021-08-05T08:59:55.422Z</time>
      </trkpt>
      <trkpt lat="47.00811" lon="8.64955">
        <ele>475</ele>
        <time>2021-08-05T08:59:56.422Z</time>
      </trkpt>
      <trkpt lat="47.00809" lon="8.64956">
        <ele>475</ele>
        <time>2021-08-05T08:59:57.421Z</time>
      </trkpt>
      <trkpt lat="47.00808" lon="8.64955">
        <ele>475</ele>
        <time>2021-08-05T08:59:58.422Z</time>
      </trkpt>
      <trkpt lat="47.00806" lon="8.64954">
        <ele>475</ele>
        <time>2021-08-05T08:59:59.422Z</time>
      </trkpt>
      <trkpt lat="47.00806" lon="8.64953">
        <ele>474</ele>
        <time>2021-08-05T09:00:00.421Z</time>
      </trkpt>
      <trkpt lat="47.00804" lon="8.64953">
        <ele>474</ele>
        <time>2021-08-05T09:00:01.421Z</time>
      </trkpt>
      <trkpt lat="47.00804" lon="8.64952">
        <ele>474</ele>
        <time>2021-08-05T09:00:02.421Z</time>
      </trkpt>
      <trkpt lat="47.00804" lon="8.64952">
        <ele>475</ele>
        <time>2021-08-05T09:00:03.422Z</time>
      </trkpt>
      <trkpt lat="47.00805" lon="8.64953">
        <ele>475</ele>
        <time>2021-08-05T09:00:04.421Z</time>
      </trkpt>
      <trkpt lat="47.00806" lon="8.64954">
        <ele>476</ele>
        <time>2021-08-05T09:00:05.421Z</time>
      </trkpt>
      <trkpt lat="47.00806" lon="8.64955">
        <ele>480</ele>
        <time>2021-08-05T09:00:06.423Z</time>
      </trkpt>
      <trkpt lat="47.00806" lon="8.64955">
        <ele>480</ele>
        <time>2021-08-05T09:00:07.424Z</time>
      </trkpt>
      <trkpt lat="47.00805" lon="8.64955">
        <ele>479</ele>
        <time>2021-08-05T09:00:08.423Z</time>
      </trkpt>
      <trkpt lat="47.00804" lon="8.64955">
        <ele>479</ele>
        <time>2021-08-05T09:00:09.424Z</time>
      </trkpt>
      <trkpt lat="47.00803" lon="8.64955">
        <ele>478</ele>
        <time>2021-08-05T09:00:10.423Z</time>
      </trkpt>
      <trkpt lat="47.00802" lon="8.64955">
        <ele>478</ele>
        <time>2021-08-05T09:00:11.424Z</time>
      </trkpt>
      <trkpt lat="47.00801" lon="8.64954">
        <ele>477</ele>
        <time>2021-08-05T09:00:12.424Z</time>
      </trkpt>
      <trkpt lat="47.008" lon="8.64954">
        <ele>477</ele>
        <time>2021-08-05T09:00:13.423Z</time>
      </trkpt>
      <trkpt lat="47.00799" lon="8.64954">
        <ele>476</ele>
        <time>2021-08-05T09:00:14.423Z</time>
      </trkpt>
      <trkpt lat="47.00798" lon="8.64953">
        <ele>476</ele>
        <time>2021-08-05T09:00:15.424Z</time>
      </trkpt>
      <trkpt lat="47.00797" lon="8.64953">
        <ele>476</ele>
        <time>2021-08-05T09:00:16.424Z</time>
      </trkpt>
      <trkpt lat="47.00797" lon="8.64954">
        <ele>475</ele>
        <time>2021-08-05T09:00:17.423Z</time>
      </trkpt>
      <trkpt lat="47.00795" lon="8.64954">
        <ele>475</ele>
        <time>2021-08-05T09:00:18.424Z</time>
      </trkpt>
      <trkpt lat="47.00795" lon="8.64954">
        <ele>476</ele>
        <time>2021-08-05T09:00:19.424Z</time>
      </trkpt>
      <trkpt lat="47.00794" lon="8.64953">
        <ele>476</ele>
        <time>2021-08-05T09:00:20.423Z</time>
      </trkpt>
      <trkpt lat="47.00793" lon="8.64953">
        <ele>476</ele>
        <time>2021-08-05T09:00:21.424Z</time>
      </trkpt>
      <trkpt lat="47.00791" lon="8.64952">
        <ele>476</ele>
        <time>2021-08-05T09:00:22.424Z</time>
      </trkpt>
      <trkpt lat="47.0079" lon="8.64951">
        <ele>476</ele>
        <time>2021-08-05T09:00:23.423Z</time>
      </trkpt>
      <trkpt lat="47.00789" lon="8.6495">
        <ele>476</ele>
        <time>2021-08-05T09:00:24.423Z</time>
      </trkpt>
      <trkpt lat="47.00787" lon="8.64949">
        <ele>476</ele>
        <time>2021-08-05T09:00:25.423Z</time>
      </trkpt>
      <trkpt lat="47.00787" lon="8.64948">
        <ele>475</ele>
        <time>2021-08-05T09:00:26.423Z</time>
      </trkpt>
      <trkpt lat="47.00786" lon="8.64947">
        <ele>475</ele>
        <time>2021-08-05T09:00:27.424Z</time>
      </trkpt>
      <trkpt lat="47.00785" lon="8.64946">
        <ele>475</ele>
        <time>2021-08-05T09:00:28.424Z</time>
      </trkpt>
      <trkpt lat="47.00785" lon="8.64945">
        <ele>475</ele>
        <time>2021-08-05T09:00:29.423Z</time>
      </trkpt>
      <trkpt lat="47.00785" lon="8.64944">
        <ele>475</ele>
        <time>2021-08-05T09:00:30.423Z</time>
      </trkpt>
      <trkpt lat="47.00785" lon="8.64944">
        <ele>475</ele>
        <time>2021-08-05T09:00:31.423Z</time>
      </trkpt>
      <trkpt lat="47.00784" lon="8.64944">
        <ele>475</ele>
        <time>2021-08-05T09:00:32.424Z</time>
      </trkpt>
      <trkpt lat="47.00784" lon="8.64943">
        <ele>474</ele>
        <time>2021-08-05T09:00:33.424Z</time>
      </trkpt>
      <trkpt lat="47.00783" lon="8.64942">
        <ele>474</ele>
        <time>2021-08-05T09:00:34.424Z</time>
      </trkpt>
      <trkpt lat="47.00783" lon="8.64942">
        <ele>474</ele>
        <time>2021-08-05T09:00:35.424Z</time>
      </trkpt>
      <trkpt lat="47.00783" lon="8.64942">
        <ele>474</ele>
        <time>2021-08-05T09:00:36.424Z</time>
      </trkpt>
      <trkpt lat="47.00783" lon="8.64942">
        <ele>474</ele>
        <time>2021-08-05T09:00:37.425Z</time>
      </trkpt>
      <trkpt lat="47.00784" lon="8.64942">
        <ele>474</ele>
        <time>2021-08-05T09:00:38.424Z</time>
      </trkpt>
      <trkpt lat="47.00784" lon="8.64943">
        <ele>474</ele>
        <time>2021-08-05T09:00:39.427Z</time>
      </trkpt>
      <trkpt lat="47.00784" lon="8.64943">
        <ele>474</ele>
        <time>2021-08-05T09:00:40.427Z</time>
      </trkpt>
      <trkpt lat="47.00784" lon="8.64942">
        <ele>474</ele>
        <time>2021-08-05T09:00:41.426Z</time>
      </trkpt>
      <trkpt lat="47.00784" lon="8.64941">
        <ele>473</ele>
        <time>2021-08-05T09:00:42.426Z</time>
      </trkpt>
      <trkpt lat="47.00785" lon="8.6494">
        <ele>472</ele>
        <time>2021-08-05T09:00:43.426Z</time>
      </trkpt>
      <trkpt lat="47.00785" lon="8.6494">
        <ele>472</ele>
        <time>2021-08-05T09:00:44.426Z</time>
      </trkpt>
      <trkpt lat="47.00785" lon="8.6494">
        <ele>472</ele>
        <time>2021-08-05T09:00:45.426Z</time>
      </trkpt>
      <trkpt lat="47.00785" lon="8.6494">
        <ele>472</ele>
        <time>2021-08-05T09:00:46.426Z</time>
      </trkpt>
      <trkpt lat="47.00785" lon="8.6494">
        <ele>473</ele>
        <time>2021-08-05T09:00:47.426Z</time>
      </trkpt>
      <trkpt lat="47.00785" lon="8.64941">
        <ele>473</ele>
        <time>2021-08-05T09:00:48.426Z</time>
      </trkpt>
      <trkpt lat="47.00785" lon="8.64941">
        <ele>473</ele>
        <time>2021-08-05T09:00:49.426Z</time>
      </trkpt>
      <trkpt lat="47.00784" lon="8.64942">
        <ele>473</ele>
        <time>2021-08-05T09:00:50.426Z</time>
      </trkpt>
      <trkpt lat="47.00783" lon="8.64944">
        <ele>473</ele>
        <time>2021-08-05T09:00:51.427Z</time>
      </trkpt>
      <trkpt lat="47.00783" lon="8.64945">
        <ele>473</ele>
        <time>2021-08-05T09:00:52.427Z</time>
      </trkpt>
      <trkpt lat="47.00783" lon="8.64945">
        <ele>474</ele>
        <time>2021-08-05T09:00:53.427Z</time>
      </trkpt>
      <trkpt lat="47.00783" lon="8.64946">
        <ele>474</ele>
        <time>2021-08-05T09:00:54.427Z</time>
      </trkpt>
      <trkpt lat="47.00783" lon="8.64946">
        <ele>474</ele>
        <time>2021-08-05T09:00:55.427Z</time>
      </trkpt>
      <trkpt lat="47.00781" lon="8.64949">
        <ele>475</ele>
        <time>2021-08-05T09:00:56.428Z</time>
      </trkpt>
      <trkpt lat="47.00781" lon="8.6495">
        <ele>475</ele>
        <time>2021-08-05T09:00:57.428Z</time>
      </trkpt>
      <trkpt lat="47.00781" lon="8.64951">
        <ele>476</ele>
        <time>2021-08-05T09:00:58.427Z</time>
      </trkpt>
      <trkpt lat="47.00781" lon="8.64948">
        <ele>477</ele>
        <time>2021-08-05T09:00:59.429Z</time>
      </trkpt>
      <trkpt lat="47.00781" lon="8.64947">
        <ele>477</ele>
        <time>2021-08-05T09:01:00.428Z</time>
      </trkpt>
      <trkpt lat="47.00782" lon="8.64947">
        <ele>476</ele>
        <time>2021-08-05T09:01:01.428Z</time>
      </trkpt>
      <trkpt lat="47.00782" lon="8.64948">
        <ele>475</ele>
        <time>2021-08-05T09:01:02.428Z</time>
      </trkpt>
      <trkpt lat="47.00782" lon="8.64948">
        <ele>475</ele>
        <time>2021-08-05T09:01:03.428Z</time>
      </trkpt>
      <trkpt lat="47.00783" lon="8.64949">
        <ele>475</ele>
        <time>2021-08-05T09:01:04.428Z</time>
      </trkpt>
      <trkpt lat="47.00784" lon="8.6495">
        <ele>475</ele>
        <time>2021-08-05T09:01:05.428Z</time>
      </trkpt>
      <trkpt lat="47.00785" lon="8.6495">
        <ele>475</ele>
        <time>2021-08-05T09:01:06.429Z</time>
      </trkpt>
      <trkpt lat="47.00785" lon="8.64951">
        <ele>474</ele>
        <time>2021-08-05T09:01:07.428Z</time>
      </trkpt>
      <trkpt lat="47.00786" lon="8.64951">
        <ele>475</ele>
        <time>2021-08-05T09:01:08.429Z</time>
      </trkpt>
      <trkpt lat="47.00787" lon="8.64951">
        <ele>475</ele>
        <time>2021-08-05T09:01:09.428Z</time>
      </trkpt>
      <trkpt lat="47.00787" lon="8.6495">
        <ele>475</ele>
        <time>2021-08-05T09:01:10.429Z</time>
      </trkpt>
      <trkpt lat="47.00788" lon="8.64949">
        <ele>475</ele>
        <time>2021-08-05T09:01:11.429Z</time>
      </trkpt>
      <trkpt lat="47.00788" lon="8.64949">
        <ele>476</ele>
        <time>2021-08-05T09:01:12.428Z</time>
      </trkpt>
      <trkpt lat="47.0079" lon="8.6494">
        <ele>473</ele>
        <time>2021-08-05T09:01:13.429Z</time>
      </trkpt>
      <trkpt lat="47.0079" lon="8.64941">
        <ele>474</ele>
        <time>2021-08-05T09:01:14.429Z</time>
      </trkpt>
      <trkpt lat="47.00789" lon="8.64941">
        <ele>474</ele>
        <time>2021-08-05T09:01:15.430Z</time>
      </trkpt>
      <trkpt lat="47.00789" lon="8.6494">
        <ele>475</ele>
        <time>2021-08-05T09:01:16.429Z</time>
      </trkpt>
      <trkpt lat="47.00789" lon="8.6494">
        <ele>476</ele>
        <time>2021-08-05T09:01:17.430Z</time>
      </trkpt>
      <trkpt lat="47.00788" lon="8.64941">
        <ele>477</ele>
        <time>2021-08-05T09:01:18.429Z</time>
      </trkpt>
      <trkpt lat="47.00788" lon="8.64941">
        <ele>477</ele>
        <time>2021-08-05T09:01:19.429Z</time>
      </trkpt>
      <trkpt lat="47.00788" lon="8.6494">
        <ele>478</ele>
        <time>2021-08-05T09:01:20.430Z</time>
      </trkpt>
      <trkpt lat="47.00787" lon="8.6494">
        <ele>480</ele>
        <time>2021-08-05T09:01:21.430Z</time>
      </trkpt>
      <trkpt lat="47.00787" lon="8.6494">
        <ele>479</ele>
        <time>2021-08-05T09:01:22.430Z</time>
      </trkpt>
      <trkpt lat="47.00788" lon="8.64941">
        <ele>478</ele>
        <time>2021-08-05T09:01:23.431Z</time>
      </trkpt>
      <trkpt lat="47.00789" lon="8.6494">
        <ele>478</ele>
        <time>2021-08-05T09:01:24.432Z</time>
      </trkpt>
      <trkpt lat="47.00789" lon="8.64941">
        <ele>478</ele>
        <time>2021-08-05T09:01:25.432Z</time>
      </trkpt>
      <trkpt lat="47.00789" lon="8.64941">
        <ele>478</ele>
        <time>2021-08-05T09:01:26.432Z</time>
      </trkpt>
      <trkpt lat="47.00789" lon="8.64941">
        <ele>478</ele>
        <time>2021-08-05T09:01:27.431Z</time>
      </trkpt>
      <trkpt lat="47.00789" lon="8.64942">
        <ele>478</ele>
        <time>2021-08-05T09:01:28.432Z</time>
      </trkpt>
      <trkpt lat="47.0079" lon="8.64943">
        <ele>477</ele>
        <time>2021-08-05T09:01:29.431Z</time>
      </trkpt>
      <trkpt lat="47.00791" lon="8.64944">
        <ele>477</ele>
        <time>2021-08-05T09:01:30.432Z</time>
      </trkpt>
      <trkpt lat="47.00791" lon="8.64945">
        <ele>476</ele>
        <time>2021-08-05T09:01:31.432Z</time>
      </trkpt>
      <trkpt lat="47.00791" lon="8.64946">
        <ele>476</ele>
        <time>2021-08-05T09:01:32.432Z</time>
      </trkpt>
      <trkpt lat="47.00791" lon="8.64949">
        <ele>476</ele>
        <time>2021-08-05T09:01:33.431Z</time>
      </trkpt>
      <trkpt lat="47.00791" lon="8.6495">
        <ele>475</ele>
        <time>2021-08-05T09:01:34.432Z</time>
      </trkpt>
      <trkpt lat="47.00791" lon="8.6495">
        <ele>475</ele>
        <time>2021-08-05T09:01:35.432Z</time>
      </trkpt>
      <trkpt lat="47.00792" lon="8.64949">
        <ele>475</ele>
        <time>2021-08-05T09:01:36.432Z</time>
      </trkpt>
      <trkpt lat="47.00791" lon="8.64948">
        <ele>474</ele>
        <time>2021-08-05T09:01:37.431Z</time>
      </trkpt>
      <trkpt lat="47.00791" lon="8.64946">
        <ele>474</ele>
        <time>2021-08-05T09:01:38.432Z</time>
      </trkpt>
      <trkpt lat="47.00791" lon="8.64946">
        <ele>474</ele>
        <time>2021-08-05T09:01:39.432Z</time>
      </trkpt>
      <trkpt lat="47.00791" lon="8.64946">
        <ele>473</ele>
        <time>2021-08-05T09:01:40.432Z</time>
      </trkpt>
      <trkpt lat="47.00792" lon="8.64946">
        <ele>472</ele>
        <time>2021-08-05T09:01:41.432Z</time>
      </trkpt>
      <trkpt lat="47.00792" lon="8.64946">
        <ele>472</ele>
        <time>2021-08-05T09:01:42.432Z</time>
      </trkpt>
      <trkpt lat="47.00791" lon="8.64946">
        <ele>471</ele>
        <time>2021-08-05T09:01:43.431Z</time>
      </trkpt>
      <trkpt lat="47.00791" lon="8.64945">
        <ele>471</ele>
        <time>2021-08-05T09:01:44.432Z</time>
      </trkpt>
      <trkpt lat="47.00791" lon="8.64945">
        <ele>471</ele>
        <time>2021-08-05T09:01:45.431Z</time>
      </trkpt>
      <trkpt lat="47.00789" lon="8.64945">
        <ele>471</ele>
        <time>2021-08-05T09:01:46.431Z</time>
      </trkpt>
      <trkpt lat="47.00789" lon="8.64944">
        <ele>471</ele>
        <time>2021-08-05T09:01:47.432Z</time>
      </trkpt>
      <trkpt lat="47.00789" lon="8.64944">
        <ele>472</ele>
        <time>2021-08-05T09:01:48.431Z</time>
      </trkpt>
      <trkpt lat="47.00789" lon="8.64944">
        <ele>472</ele>
        <time>2021-08-05T09:01:49.431Z</time>
      </trkpt>
      <trkpt lat="47.00788" lon="8.64942">
        <ele>475</ele>
        <time>2021-08-05T09:01:50.433Z</time>
      </trkpt>
      <trkpt lat="47.00788" lon="8.6494">
        <ele>473</ele>
        <time>2021-08-05T09:01:51.434Z</time>
      </trkpt>
      <trkpt lat="47.00787" lon="8.6494">
        <ele>472</ele>
        <time>2021-08-05T09:01:52.434Z</time>
      </trkpt>
      <trkpt lat="47.00787" lon="8.64939">
        <ele>471</ele>
        <time>2021-08-05T09:01:53.433Z</time>
      </trkpt>
      <trkpt lat="47.00786" lon="8.64938">
        <ele>471</ele>
        <time>2021-08-05T09:01:54.433Z</time>
      </trkpt>
      <trkpt lat="47.00785" lon="8.64938">
        <ele>471</ele>
        <time>2021-08-05T09:01:55.434Z</time>
      </trkpt>
      <trkpt lat="47.00784" lon="8.64937">
        <ele>470</ele>
        <time>2021-08-05T09:01:56.433Z</time>
      </trkpt>
      <trkpt lat="47.00784" lon="8.64936">
        <ele>470</ele>
        <time>2021-08-05T09:01:57.433Z</time>
      </trkpt>
      <trkpt lat="47.00782" lon="8.64934">
        <ele>470</ele>
        <time>2021-08-05T09:01:58.433Z</time>
      </trkpt>
      <trkpt lat="47.00781" lon="8.64933">
        <ele>470</ele>
        <time>2021-08-05T09:01:59.434Z</time>
      </trkpt>
      <trkpt lat="47.00781" lon="8.64932">
        <ele>471</ele>
        <time>2021-08-05T09:02:00.433Z</time>
      </trkpt>
      <trkpt lat="47.0078" lon="8.64932">
        <ele>472</ele>
        <time>2021-08-05T09:02:01.434Z</time>
      </trkpt>
      <trkpt lat="47.00779" lon="8.64931">
        <ele>472</ele>
        <time>2021-08-05T09:02:02.433Z</time>
      </trkpt>
      <trkpt lat="47.00778" lon="8.6493">
        <ele>472</ele>
        <time>2021-08-05T09:02:03.434Z</time>
      </trkpt>
      <trkpt lat="47.00777" lon="8.64929">
        <ele>473</ele>
        <time>2021-08-05T09:02:04.433Z</time>
      </trkpt>
      <trkpt lat="47.00777" lon="8.64929">
        <ele>473</ele>
        <time>2021-08-05T09:02:05.433Z</time>
      </trkpt>
      <trkpt lat="47.00777" lon="8.64929">
        <ele>474</ele>
        <time>2021-08-05T09:02:06.433Z</time>
      </trkpt>
      <trkpt lat="47.00777" lon="8.64929">
        <ele>474</ele>
        <time>2021-08-05T09:02:07.434Z</time>
      </trkpt>
      <trkpt lat="47.00777" lon="8.64931">
        <ele>473</ele>
        <time>2021-08-05T09:02:08.434Z</time>
      </trkpt>
      <trkpt lat="47.00778" lon="8.64931">
        <ele>473</ele>
        <time>2021-08-05T09:02:09.434Z</time>
      </trkpt>
      <trkpt lat="47.00778" lon="8.64931">
        <ele>473</ele>
        <time>2021-08-05T09:02:10.434Z</time>
      </trkpt>
      <trkpt lat="47.00778" lon="8.64931">
        <ele>473</ele>
        <time>2021-08-05T09:02:11.434Z</time>
      </trkpt>
      <trkpt lat="47.00778" lon="8.64931">
        <ele>473</ele>
        <time>2021-08-05T09:02:12.434Z</time>
      </trkpt>
      <trkpt lat="47.00777" lon="8.64932">
        <ele>472</ele>
        <time>2021-08-05T09:02:13.435Z</time>
      </trkpt>
      <trkpt lat="47.00778" lon="8.64931">
        <ele>472</ele>
        <time>2021-08-05T09:02:14.435Z</time>
      </trkpt>
      <trkpt lat="47.00777" lon="8.64931">
        <ele>472</ele>
        <time>2021-08-05T09:02:15.435Z</time>
      </trkpt>
      <trkpt lat="47.00777" lon="8.6493">
        <ele>473</ele>
        <time>2021-08-05T09:02:16.435Z</time>
      </trkpt>
      <trkpt lat="47.00776" lon="8.64929">
        <ele>472</ele>
        <time>2021-08-05T09:02:17.435Z</time>
      </trkpt>
      <trkpt lat="47.00776" lon="8.64929">
        <ele>472</ele>
        <time>2021-08-05T09:02:18.435Z</time>
      </trkpt>
      <trkpt lat="47.00773" lon="8.64926">
        <ele>473</ele>
        <time>2021-08-05T09:02:19.436Z</time>
      </trkpt>
      <trkpt lat="47.00772" lon="8.64925">
        <ele>472</ele>
        <time>2021-08-05T09:02:20.436Z</time>
      </trkpt>
      <trkpt lat="47.00771" lon="8.64924">
        <ele>472</ele>
        <time>2021-08-05T09:02:21.435Z</time>
      </trkpt>
      <trkpt lat="47.00771" lon="8.64924">
        <ele>472</ele>
        <time>2021-08-05T09:02:22.435Z</time>
      </trkpt>
      <trkpt lat="47.0077" lon="8.64923">
        <ele>471</ele>
        <time>2021-08-05T09:02:23.435Z</time>
      </trkpt>
      <trkpt lat="47.00769" lon="8.64923">
        <ele>471</ele>
        <time>2021-08-05T09:02:24.436Z</time>
      </trkpt>
      <trkpt lat="47.00768" lon="8.64922">
        <ele>471</ele>
        <time>2021-08-05T09:02:25.435Z</time>
      </trkpt>
      <trkpt lat="47.00767" lon="8.64922">
        <ele>471</ele>
        <time>2021-08-05T09:02:26.435Z</time>
      </trkpt>
      <trkpt lat="47.00765" lon="8.64921">
        <ele>471</ele>
        <time>2021-08-05T09:02:27.435Z</time>
      </trkpt>
      <trkpt lat="47.00765" lon="8.64921">
        <ele>471</ele>
        <time>2021-08-05T09:02:28.435Z</time>
      </trkpt>
      <trkpt lat="47.00764" lon="8.64921">
        <ele>471</ele>
        <time>2021-08-05T09:02:29.435Z</time>
      </trkpt>
      <trkpt lat="47.00763" lon="8.6492">
        <ele>471</ele>
        <time>2021-08-05T09:02:30.435Z</time>
      </trkpt>
      <trkpt lat="47.00762" lon="8.6492">
        <ele>471</ele>
        <time>2021-08-05T09:02:31.435Z</time>
      </trkpt>
      <trkpt lat="47.00761" lon="8.64919">
        <ele>471</ele>
        <time>2021-08-05T09:02:32.435Z</time>
      </trkpt>
      <trkpt lat="47.0076" lon="8.64919">
        <ele>471</ele>
        <time>2021-08-05T09:02:33.435Z</time>
      </trkpt>
      <trkpt lat="47.00759" lon="8.64919">
        <ele>471</ele>
        <time>2021-08-05T09:02:34.435Z</time>
      </trkpt>
      <trkpt lat="47.00759" lon="8.64918">
        <ele>471</ele>
        <time>2021-08-05T09:02:35.435Z</time>
      </trkpt>
      <trkpt lat="47.00758" lon="8.64917">
        <ele>471</ele>
        <time>2021-08-05T09:02:36.435Z</time>
      </trkpt>
      <trkpt lat="47.00757" lon="8.64916">
        <ele>471</ele>
        <time>2021-08-05T09:02:37.435Z</time>
      </trkpt>
      <trkpt lat="47.00756" lon="8.64916">
        <ele>471</ele>
        <time>2021-08-05T09:02:38.435Z</time>
      </trkpt>
      <trkpt lat="47.00755" lon="8.64915">
        <ele>471</ele>
        <time>2021-08-05T09:02:39.436Z</time>
      </trkpt>
      <trkpt lat="47.00754" lon="8.64913">
        <ele>471</ele>
        <time>2021-08-05T09:02:40.435Z</time>
      </trkpt>
      <trkpt lat="47.00753" lon="8.64912">
        <ele>471</ele>
        <time>2021-08-05T09:02:41.435Z</time>
      </trkpt>
      <trkpt lat="47.00752" lon="8.64911">
        <ele>472</ele>
        <time>2021-08-05T09:02:42.435Z</time>
      </trkpt>
      <trkpt lat="47.00751" lon="8.6491">
        <ele>472</ele>
        <time>2021-08-05T09:02:43.435Z</time>
      </trkpt>
      <trkpt lat="47.00751" lon="8.64909">
        <ele>471</ele>
        <time>2021-08-05T09:02:44.435Z</time>
      </trkpt>
      <trkpt lat="47.0075" lon="8.64908">
        <ele>471</ele>
        <time>2021-08-05T09:02:45.435Z</time>
      </trkpt>
      <trkpt lat="47.00749" lon="8.64906">
        <ele>471</ele>
        <time>2021-08-05T09:02:46.436Z</time>
      </trkpt>
      <trkpt lat="47.00748" lon="8.64905">
        <ele>470</ele>
        <time>2021-08-05T09:02:47.436Z</time>
      </trkpt>
      <trkpt lat="47.00748" lon="8.64904">
        <ele>469</ele>
        <time>2021-08-05T09:02:48.435Z</time>
      </trkpt>
      <trkpt lat="47.00747" lon="8.64903">
        <ele>468</ele>
        <time>2021-08-05T09:02:49.436Z</time>
      </trkpt>
      <trkpt lat="47.00746" lon="8.64901">
        <ele>468</ele>
        <time>2021-08-05T09:02:50.436Z</time>
      </trkpt>
      <trkpt lat="47.00746" lon="8.649">
        <ele>467</ele>
        <time>2021-08-05T09:02:51.436Z</time>
      </trkpt>
      <trkpt lat="47.00745" lon="8.649">
        <ele>467</ele>
        <time>2021-08-05T09:02:52.435Z</time>
      </trkpt>
      <trkpt lat="47.00744" lon="8.649">
        <ele>466</ele>
        <time>2021-08-05T09:02:53.436Z</time>
      </trkpt>
      <trkpt lat="47.00744" lon="8.64899">
        <ele>466</ele>
        <time>2021-08-05T09:02:54.436Z</time>
      </trkpt>
      <trkpt lat="47.00743" lon="8.64898">
        <ele>465</ele>
        <time>2021-08-05T09:02:55.436Z</time>
      </trkpt>
      <trkpt lat="47.00742" lon="8.64896">
        <ele>465</ele>
        <time>2021-08-05T09:02:56.436Z</time>
      </trkpt>
      <trkpt lat="47.00741" lon="8.64895">
        <ele>465</ele>
        <time>2021-08-05T09:02:57.436Z</time>
      </trkpt>
      <trkpt lat="47.0074" lon="8.64895">
        <ele>465</ele>
        <time>2021-08-05T09:02:58.435Z</time>
      </trkpt>
      <trkpt lat="47.00739" lon="8.64894">
        <ele>465</ele>
        <time>2021-08-05T09:02:59.436Z</time>
      </trkpt>
      <trkpt lat="47.00738" lon="8.64893">
        <ele>465</ele>
        <time>2021-08-05T09:03:00.436Z</time>
      </trkpt>
      <trkpt lat="47.00737" lon="8.64892">
        <ele>464</ele>
        <time>2021-08-05T09:03:01.436Z</time>
      </trkpt>
      <trkpt lat="47.00736" lon="8.64891">
        <ele>464</ele>
        <time>2021-08-05T09:03:02.435Z</time>
      </trkpt>
      <trkpt lat="47.00735" lon="8.6489">
        <ele>464</ele>
        <time>2021-08-05T09:03:03.436Z</time>
      </trkpt>
      <trkpt lat="47.00734" lon="8.64889">
        <ele>464</ele>
        <time>2021-08-05T09:03:04.436Z</time>
      </trkpt>
      <trkpt lat="47.00733" lon="8.64888">
        <ele>464</ele>
        <time>2021-08-05T09:03:05.436Z</time>
      </trkpt>
      <trkpt lat="47.00732" lon="8.64887">
        <ele>464</ele>
        <time>2021-08-05T09:03:06.436Z</time>
      </trkpt>
      <trkpt lat="47.00731" lon="8.64886">
        <ele>464</ele>
        <time>2021-08-05T09:03:07.436Z</time>
      </trkpt>
      <trkpt lat="47.0073" lon="8.64885">
        <ele>464</ele>
        <time>2021-08-05T09:03:08.436Z</time>
      </trkpt>
      <trkpt lat="47.00729" lon="8.64884">
        <ele>464</ele>
        <time>2021-08-05T09:03:09.436Z</time>
      </trkpt>
      <trkpt lat="47.00728" lon="8.64883">
        <ele>464</ele>
        <time>2021-08-05T09:03:10.436Z</time>
      </trkpt>
      <trkpt lat="47.00727" lon="8.64882">
        <ele>464</ele>
        <time>2021-08-05T09:03:11.435Z</time>
      </trkpt>
      <trkpt lat="47.00726" lon="8.64881">
        <ele>463</ele>
        <time>2021-08-05T09:03:12.435Z</time>
      </trkpt>
      <trkpt lat="47.00725" lon="8.64881">
        <ele>463</ele>
        <time>2021-08-05T09:03:13.436Z</time>
      </trkpt>
      <trkpt lat="47.00724" lon="8.6488">
        <ele>463</ele>
        <time>2021-08-05T09:03:14.435Z</time>
      </trkpt>
      <trkpt lat="47.00723" lon="8.64878">
        <ele>463</ele>
        <time>2021-08-05T09:03:15.436Z</time>
      </trkpt>
      <trkpt lat="47.00722" lon="8.64877">
        <ele>463</ele>
        <time>2021-08-05T09:03:16.436Z</time>
      </trkpt>
      <trkpt lat="47.00721" lon="8.64876">
        <ele>463</ele>
        <time>2021-08-05T09:03:17.436Z</time>
      </trkpt>
      <trkpt lat="47.0072" lon="8.64875">
        <ele>463</ele>
        <time>2021-08-05T09:03:18.436Z</time>
      </trkpt>
      <trkpt lat="47.00719" lon="8.64873">
        <ele>463</ele>
        <time>2021-08-05T09:03:19.435Z</time>
      </trkpt>
      <trkpt lat="47.00718" lon="8.64871">
        <ele>463</ele>
        <time>2021-08-05T09:03:20.436Z</time>
      </trkpt>
      <trkpt lat="47.00717" lon="8.64871">
        <ele>463</ele>
        <time>2021-08-05T09:03:21.435Z</time>
      </trkpt>
      <trkpt lat="47.00716" lon="8.6487">
        <ele>463</ele>
        <time>2021-08-05T09:03:22.435Z</time>
      </trkpt>
      <trkpt lat="47.00715" lon="8.64868">
        <ele>463</ele>
        <time>2021-08-05T09:03:23.436Z</time>
      </trkpt>
      <trkpt lat="47.00714" lon="8.64867">
        <ele>462</ele>
        <time>2021-08-05T09:03:24.436Z</time>
      </trkpt>
      <trkpt lat="47.00713" lon="8.64865">
        <ele>462</ele>
        <time>2021-08-05T09:03:25.435Z</time>
      </trkpt>
      <trkpt lat="47.00712" lon="8.64864">
        <ele>461</ele>
        <time>2021-08-05T09:03:26.436Z</time>
      </trkpt>
      <trkpt lat="47.00711" lon="8.64863">
        <ele>461</ele>
        <time>2021-08-05T09:03:27.436Z</time>
      </trkpt>
      <trkpt lat="47.0071" lon="8.64862">
        <ele>461</ele>
        <time>2021-08-05T09:03:28.435Z</time>
      </trkpt>
      <trkpt lat="47.00709" lon="8.6486">
        <ele>461</ele>
        <time>2021-08-05T09:03:29.436Z</time>
      </trkpt>
      <trkpt lat="47.00708" lon="8.64859">
        <ele>461</ele>
        <time>2021-08-05T09:03:30.436Z</time>
      </trkpt>
      <trkpt lat="47.00707" lon="8.64858">
        <ele>461</ele>
        <time>2021-08-05T09:03:31.436Z</time>
      </trkpt>
      <trkpt lat="47.00705" lon="8.64855">
        <ele>462</ele>
        <time>2021-08-05T09:03:32.436Z</time>
      </trkpt>
      <trkpt lat="47.00704" lon="8.64855">
        <ele>462</ele>
        <time>2021-08-05T09:03:33.436Z</time>
      </trkpt>
      <trkpt lat="47.00703" lon="8.64854">
        <ele>463</ele>
        <time>2021-08-05T09:03:34.436Z</time>
      </trkpt>
      <trkpt lat="47.00702" lon="8.64854">
        <ele>463</ele>
        <time>2021-08-05T09:03:35.435Z</time>
      </trkpt>
      <trkpt lat="47.00701" lon="8.64853">
        <ele>463</ele>
        <time>2021-08-05T09:03:36.436Z</time>
      </trkpt>
      <trkpt lat="47.00699" lon="8.64852">
        <ele>463</ele>
        <time>2021-08-05T09:03:37.435Z</time>
      </trkpt>
      <trkpt lat="47.00698" lon="8.64852">
        <ele>463</ele>
        <time>2021-08-05T09:03:38.436Z</time>
      </trkpt>
      <trkpt lat="47.00697" lon="8.64851">
        <ele>463</ele>
        <time>2021-08-05T09:03:39.435Z</time>
      </trkpt>
      <trkpt lat="47.00696" lon="8.64851">
        <ele>463</ele>
        <time>2021-08-05T09:03:40.435Z</time>
      </trkpt>
      <trkpt lat="47.00695" lon="8.6485">
        <ele>463</ele>
        <time>2021-08-05T09:03:41.436Z</time>
      </trkpt>
      <trkpt lat="47.00695" lon="8.6485">
        <ele>462</ele>
        <time>2021-08-05T09:03:42.435Z</time>
      </trkpt>
      <trkpt lat="47.00694" lon="8.64849">
        <ele>462</ele>
        <time>2021-08-05T09:03:43.436Z</time>
      </trkpt>
      <trkpt lat="47.00693" lon="8.64848">
        <ele>461</ele>
        <time>2021-08-05T09:03:44.436Z</time>
      </trkpt>
      <trkpt lat="47.00692" lon="8.64847">
        <ele>460</ele>
        <time>2021-08-05T09:03:45.435Z</time>
      </trkpt>
      <trkpt lat="47.0069" lon="8.64846">
        <ele>460</ele>
        <time>2021-08-05T09:03:46.436Z</time>
      </trkpt>
      <trkpt lat="47.00689" lon="8.64844">
        <ele>460</ele>
        <time>2021-08-05T09:03:47.436Z</time>
      </trkpt>
      <trkpt lat="47.00688" lon="8.64844">
        <ele>460</ele>
        <time>2021-08-05T09:03:48.436Z</time>
      </trkpt>
      <trkpt lat="47.00687" lon="8.64843">
        <ele>461</ele>
        <time>2021-08-05T09:03:49.435Z</time>
      </trkpt>
      <trkpt lat="47.00686" lon="8.64843">
        <ele>461</ele>
        <time>2021-08-05T09:03:50.435Z</time>
      </trkpt>
      <trkpt lat="47.00684" lon="8.64842">
        <ele>462</ele>
        <time>2021-08-05T09:03:51.435Z</time>
      </trkpt>
      <trkpt lat="47.00683" lon="8.64842">
        <ele>462</ele>
        <time>2021-08-05T09:03:52.435Z</time>
      </trkpt>
      <trkpt lat="47.00682" lon="8.64841">
        <ele>462</ele>
        <time>2021-08-05T09:03:53.436Z</time>
      </trkpt>
      <trkpt lat="47.00681" lon="8.6484">
        <ele>462</ele>
        <time>2021-08-05T09:03:54.436Z</time>
      </trkpt>
      <trkpt lat="47.0068" lon="8.6484">
        <ele>462</ele>
        <time>2021-08-05T09:03:55.436Z</time>
      </trkpt>
      <trkpt lat="47.00679" lon="8.6484">
        <ele>462</ele>
        <time>2021-08-05T09:03:56.435Z</time>
      </trkpt>
      <trkpt lat="47.00678" lon="8.64839">
        <ele>461</ele>
        <time>2021-08-05T09:03:57.435Z</time>
      </trkpt>
      <trkpt lat="47.00677" lon="8.64838">
        <ele>460</ele>
        <time>2021-08-05T09:03:58.436Z</time>
      </trkpt>
      <trkpt lat="47.00676" lon="8.64837">
        <ele>460</ele>
        <time>2021-08-05T09:03:59.436Z</time>
      </trkpt>
      <trkpt lat="47.00676" lon="8.64837">
        <ele>459</ele>
        <time>2021-08-05T09:04:00.435Z</time>
      </trkpt>
      <trkpt lat="47.00674" lon="8.64836">
        <ele>460</ele>
        <time>2021-08-05T09:04:01.436Z</time>
      </trkpt>
      <trkpt lat="47.00673" lon="8.64836">
        <ele>460</ele>
        <time>2021-08-05T09:04:02.436Z</time>
      </trkpt>
      <trkpt lat="47.00672" lon="8.64835">
        <ele>460</ele>
        <time>2021-08-05T09:04:03.435Z</time>
      </trkpt>
      <trkpt lat="47.00671" lon="8.64834">
        <ele>460</ele>
        <time>2021-08-05T09:04:04.436Z</time>
      </trkpt>
      <trkpt lat="47.0067" lon="8.64833">
        <ele>460</ele>
        <time>2021-08-05T09:04:05.436Z</time>
      </trkpt>
      <trkpt lat="47.00669" lon="8.64833">
        <ele>460</ele>
        <time>2021-08-05T09:04:06.435Z</time>
      </trkpt>
      <trkpt lat="47.00667" lon="8.64833">
        <ele>460</ele>
        <time>2021-08-05T09:04:07.436Z</time>
      </trkpt>
      <trkpt lat="47.00666" lon="8.64832">
        <ele>460</ele>
        <time>2021-08-05T09:04:08.435Z</time>
      </trkpt>
      <trkpt lat="47.00665" lon="8.64832">
        <ele>460</ele>
        <time>2021-08-05T09:04:09.436Z</time>
      </trkpt>
      <trkpt lat="47.00664" lon="8.64832">
        <ele>460</ele>
        <time>2021-08-05T09:04:10.436Z</time>
      </trkpt>
      <trkpt lat="47.00663" lon="8.64831">
        <ele>459</ele>
        <time>2021-08-05T09:04:11.436Z</time>
      </trkpt>
      <trkpt lat="47.00663" lon="8.64831">
        <ele>459</ele>
        <time>2021-08-05T09:04:12.435Z</time>
      </trkpt>
      <trkpt lat="47.00661" lon="8.6483">
        <ele>458</ele>
        <time>2021-08-05T09:04:13.435Z</time>
      </trkpt>
      <trkpt lat="47.0066" lon="8.6483">
        <ele>458</ele>
        <time>2021-08-05T09:04:14.435Z</time>
      </trkpt>
      <trkpt lat="47.00659" lon="8.64829">
        <ele>458</ele>
        <time>2021-08-05T09:04:15.436Z</time>
      </trkpt>
      <trkpt lat="47.00658" lon="8.64829">
        <ele>458</ele>
        <time>2021-08-05T09:04:16.436Z</time>
      </trkpt>
      <trkpt lat="47.00656" lon="8.64827">
        <ele>458</ele>
        <time>2021-08-05T09:04:17.436Z</time>
      </trkpt>
      <trkpt lat="47.00655" lon="8.64826">
        <ele>459</ele>
        <time>2021-08-05T09:04:18.435Z</time>
      </trkpt>
      <trkpt lat="47.00654" lon="8.64825">
        <ele>459</ele>
        <time>2021-08-05T09:04:19.436Z</time>
      </trkpt>
      <trkpt lat="47.00653" lon="8.64825">
        <ele>459</ele>
        <time>2021-08-05T09:04:20.436Z</time>
      </trkpt>
      <trkpt lat="47.00652" lon="8.64825">
        <ele>459</ele>
        <time>2021-08-05T09:04:21.435Z</time>
      </trkpt>
      <trkpt lat="47.00651" lon="8.64825">
        <ele>459</ele>
        <time>2021-08-05T09:04:22.435Z</time>
      </trkpt>
      <trkpt lat="47.00651" lon="8.64825">
        <ele>458</ele>
        <time>2021-08-05T09:04:23.436Z</time>
      </trkpt>
      <trkpt lat="47.0065" lon="8.64824">
        <ele>457</ele>
        <time>2021-08-05T09:04:24.436Z</time>
      </trkpt>
      <trkpt lat="47.00649" lon="8.64823">
        <ele>457</ele>
        <time>2021-08-05T09:04:25.435Z</time>
      </trkpt>
      <trkpt lat="47.00648" lon="8.64821">
        <ele>456</ele>
        <time>2021-08-05T09:04:26.436Z</time>
      </trkpt>
      <trkpt lat="47.00647" lon="8.6482">
        <ele>456</ele>
        <time>2021-08-05T09:04:27.436Z</time>
      </trkpt>
      <trkpt lat="47.00646" lon="8.6482">
        <ele>456</ele>
        <time>2021-08-05T09:04:28.435Z</time>
      </trkpt>
      <trkpt lat="47.00646" lon="8.64821">
        <ele>456</ele>
        <time>2021-08-05T09:04:29.436Z</time>
      </trkpt>
      <trkpt lat="47.00646" lon="8.6482">
        <ele>456</ele>
        <time>2021-08-05T09:04:30.436Z</time>
      </trkpt>
      <trkpt lat="47.00645" lon="8.6482">
        <ele>456</ele>
        <time>2021-08-05T09:04:31.435Z</time>
      </trkpt>
      <trkpt lat="47.00644" lon="8.64819">
        <ele>457</ele>
        <time>2021-08-05T09:04:32.435Z</time>
      </trkpt>
      <trkpt lat="47.00643" lon="8.64818">
        <ele>457</ele>
        <time>2021-08-05T09:04:33.436Z</time>
      </trkpt>
      <trkpt lat="47.00642" lon="8.64817">
        <ele>457</ele>
        <time>2021-08-05T09:04:34.435Z</time>
      </trkpt>
      <trkpt lat="47.00641" lon="8.64816">
        <ele>457</ele>
        <time>2021-08-05T09:04:35.436Z</time>
      </trkpt>
      <trkpt lat="47.0064" lon="8.64815">
        <ele>457</ele>
        <time>2021-08-05T09:04:36.435Z</time>
      </trkpt>
      <trkpt lat="47.00639" lon="8.64815">
        <ele>458</ele>
        <time>2021-08-05T09:04:37.435Z</time>
      </trkpt>
      <trkpt lat="47.00638" lon="8.64816">
        <ele>458</ele>
        <time>2021-08-05T09:04:38.435Z</time>
      </trkpt>
      <trkpt lat="47.00637" lon="8.64815">
        <ele>458</ele>
        <time>2021-08-05T09:04:39.435Z</time>
      </trkpt>
      <trkpt lat="47.00636" lon="8.64814">
        <ele>458</ele>
        <time>2021-08-05T09:04:40.435Z</time>
      </trkpt>
      <trkpt lat="47.00635" lon="8.64813">
        <ele>458</ele>
        <time>2021-08-05T09:04:41.436Z</time>
      </trkpt>
      <trkpt lat="47.00634" lon="8.64812">
        <ele>458</ele>
        <time>2021-08-05T09:04:42.435Z</time>
      </trkpt>
      <trkpt lat="47.00633" lon="8.64811">
        <ele>458</ele>
        <time>2021-08-05T09:04:43.436Z</time>
      </trkpt>
      <trkpt lat="47.00632" lon="8.6481">
        <ele>457</ele>
        <time>2021-08-05T09:04:44.436Z</time>
      </trkpt>
      <trkpt lat="47.00631" lon="8.6481">
        <ele>457</ele>
        <time>2021-08-05T09:04:45.435Z</time>
      </trkpt>
      <trkpt lat="47.0063" lon="8.64809">
        <ele>457</ele>
        <time>2021-08-05T09:04:46.436Z</time>
      </trkpt>
      <trkpt lat="47.00629" lon="8.64808">
        <ele>457</ele>
        <time>2021-08-05T09:04:47.436Z</time>
      </trkpt>
      <trkpt lat="47.00628" lon="8.64807">
        <ele>457</ele>
        <time>2021-08-05T09:04:48.436Z</time>
      </trkpt>
      <trkpt lat="47.00628" lon="8.64806">
        <ele>457</ele>
        <time>2021-08-05T09:04:49.436Z</time>
      </trkpt>
      <trkpt lat="47.00627" lon="8.64804">
        <ele>457</ele>
        <time>2021-08-05T09:04:50.436Z</time>
      </trkpt>
      <trkpt lat="47.00626" lon="8.64803">
        <ele>457</ele>
        <time>2021-08-05T09:04:51.436Z</time>
      </trkpt>
      <trkpt lat="47.00625" lon="8.64801">
        <ele>457</ele>
        <time>2021-08-05T09:04:52.436Z</time>
      </trkpt>
      <trkpt lat="47.00624" lon="8.64799">
        <ele>458</ele>
        <time>2021-08-05T09:04:53.436Z</time>
      </trkpt>
      <trkpt lat="47.00624" lon="8.64798">
        <ele>458</ele>
        <time>2021-08-05T09:04:54.436Z</time>
      </trkpt>
      <trkpt lat="47.00623" lon="8.64796">
        <ele>459</ele>
        <time>2021-08-05T09:04:55.436Z</time>
      </trkpt>
      <trkpt lat="47.00622" lon="8.64795">
        <ele>460</ele>
        <time>2021-08-05T09:04:56.436Z</time>
      </trkpt>
      <trkpt lat="47.0062" lon="8.64793">
        <ele>461</ele>
        <time>2021-08-05T09:04:57.436Z</time>
      </trkpt>
      <trkpt lat="47.00619" lon="8.64792">
        <ele>461</ele>
        <time>2021-08-05T09:04:58.435Z</time>
      </trkpt>
      <trkpt lat="47.00619" lon="8.64791">
        <ele>461</ele>
        <time>2021-08-05T09:04:59.436Z</time>
      </trkpt>
      <trkpt lat="47.00618" lon="8.6479">
        <ele>461</ele>
        <time>2021-08-05T09:05:00.436Z</time>
      </trkpt>
      <trkpt lat="47.00617" lon="8.64788">
        <ele>461</ele>
        <time>2021-08-05T09:05:01.436Z</time>
      </trkpt>
      <trkpt lat="47.00616" lon="8.64787">
        <ele>461</ele>
        <time>2021-08-05T09:05:02.436Z</time>
      </trkpt>
      <trkpt lat="47.00616" lon="8.64786">
        <ele>460</ele>
        <time>2021-08-05T09:05:03.436Z</time>
      </trkpt>
      <trkpt lat="47.00615" lon="8.64785">
        <ele>460</ele>
        <time>2021-08-05T09:05:04.436Z</time>
      </trkpt>
      <trkpt lat="47.00614" lon="8.64784">
        <ele>459</ele>
        <time>2021-08-05T09:05:05.436Z</time>
      </trkpt>
      <trkpt lat="47.00613" lon="8.64783">
        <ele>459</ele>
        <time>2021-08-05T09:05:06.436Z</time>
      </trkpt>
      <trkpt lat="47.00613" lon="8.64782">
        <ele>458</ele>
        <time>2021-08-05T09:05:07.436Z</time>
      </trkpt>
      <trkpt lat="47.00612" lon="8.64781">
        <ele>458</ele>
        <time>2021-08-05T09:05:08.436Z</time>
      </trkpt>
      <trkpt lat="47.00612" lon="8.6478">
        <ele>459</ele>
        <time>2021-08-05T09:05:09.435Z</time>
      </trkpt>
      <trkpt lat="47.00611" lon="8.64779">
        <ele>459</ele>
        <time>2021-08-05T09:05:10.436Z</time>
      </trkpt>
      <trkpt lat="47.0061" lon="8.64777">
        <ele>459</ele>
        <time>2021-08-05T09:05:11.435Z</time>
      </trkpt>
      <trkpt lat="47.00609" lon="8.64777">
        <ele>460</ele>
        <time>2021-08-05T09:05:12.436Z</time>
      </trkpt>
      <trkpt lat="47.00609" lon="8.64776">
        <ele>460</ele>
        <time>2021-08-05T09:05:13.436Z</time>
      </trkpt>
      <trkpt lat="47.00608" lon="8.64775">
        <ele>460</ele>
        <time>2021-08-05T09:05:14.436Z</time>
      </trkpt>
      <trkpt lat="47.00608" lon="8.64774">
        <ele>459</ele>
        <time>2021-08-05T09:05:15.436Z</time>
      </trkpt>
      <trkpt lat="47.00607" lon="8.64772">
        <ele>459</ele>
        <time>2021-08-05T09:05:16.436Z</time>
      </trkpt>
      <trkpt lat="47.00606" lon="8.64771">
        <ele>459</ele>
        <time>2021-08-05T09:05:17.436Z</time>
      </trkpt>
      <trkpt lat="47.00605" lon="8.6477">
        <ele>459</ele>
        <time>2021-08-05T09:05:18.436Z</time>
      </trkpt>
      <trkpt lat="47.00605" lon="8.64769">
        <ele>459</ele>
        <time>2021-08-05T09:05:19.435Z</time>
      </trkpt>
      <trkpt lat="47.00604" lon="8.64767">
        <ele>459</ele>
        <time>2021-08-05T09:05:20.436Z</time>
      </trkpt>
      <trkpt lat="47.00603" lon="8.64765">
        <ele>459</ele>
        <time>2021-08-05T09:05:21.436Z</time>
      </trkpt>
      <trkpt lat="47.00602" lon="8.64764">
        <ele>458</ele>
        <time>2021-08-05T09:05:22.435Z</time>
      </trkpt>
      <trkpt lat="47.00602" lon="8.64763">
        <ele>458</ele>
        <time>2021-08-05T09:05:23.436Z</time>
      </trkpt>
      <trkpt lat="47.00601" lon="8.64762">
        <ele>458</ele>
        <time>2021-08-05T09:05:24.436Z</time>
      </trkpt>
      <trkpt lat="47.00601" lon="8.64761">
        <ele>458</ele>
        <time>2021-08-05T09:05:25.436Z</time>
      </trkpt>
      <trkpt lat="47.006" lon="8.6476">
        <ele>458</ele>
        <time>2021-08-05T09:05:26.435Z</time>
      </trkpt>
      <trkpt lat="47.00599" lon="8.64759">
        <ele>458</ele>
        <time>2021-08-05T09:05:27.436Z</time>
      </trkpt>
      <trkpt lat="47.00598" lon="8.64758">
        <ele>457</ele>
        <time>2021-08-05T09:05:28.436Z</time>
      </trkpt>
      <trkpt lat="47.00597" lon="8.64756">
        <ele>457</ele>
        <time>2021-08-05T09:05:29.436Z</time>
      </trkpt>
      <trkpt lat="47.00597" lon="8.64754">
        <ele>456</ele>
        <time>2021-08-05T09:05:30.436Z</time>
      </trkpt>
      <trkpt lat="47.00596" lon="8.64753">
        <ele>456</ele>
        <time>2021-08-05T09:05:31.436Z</time>
      </trkpt>
      <trkpt lat="47.00595" lon="8.64751">
        <ele>455</ele>
        <time>2021-08-05T09:05:32.436Z</time>
      </trkpt>
      <trkpt lat="47.00595" lon="8.6475">
        <ele>455</ele>
        <time>2021-08-05T09:05:33.435Z</time>
      </trkpt>
      <trkpt lat="47.00594" lon="8.64748">
        <ele>454</ele>
        <time>2021-08-05T09:05:34.435Z</time>
      </trkpt>
      <trkpt lat="47.00593" lon="8.64746">
        <ele>454</ele>
        <time>2021-08-05T09:05:35.435Z</time>
      </trkpt>
      <trkpt lat="47.00592" lon="8.64744">
        <ele>454</ele>
        <time>2021-08-05T09:05:36.435Z</time>
      </trkpt>
      <trkpt lat="47.00591" lon="8.64743">
        <ele>454</ele>
        <time>2021-08-05T09:05:37.436Z</time>
      </trkpt>
      <trkpt lat="47.00591" lon="8.64742">
        <ele>454</ele>
        <time>2021-08-05T09:05:38.436Z</time>
      </trkpt>
      <trkpt lat="47.0059" lon="8.64741">
        <ele>454</ele>
        <time>2021-08-05T09:05:39.436Z</time>
      </trkpt>
      <trkpt lat="47.00589" lon="8.6474">
        <ele>455</ele>
        <time>2021-08-05T09:05:40.436Z</time>
      </trkpt>
      <trkpt lat="47.00589" lon="8.64739">
        <ele>455</ele>
        <time>2021-08-05T09:05:41.436Z</time>
      </trkpt>
      <trkpt lat="47.00588" lon="8.64739">
        <ele>455</ele>
        <time>2021-08-05T09:05:42.436Z</time>
      </trkpt>
      <trkpt lat="47.00587" lon="8.64737">
        <ele>455</ele>
        <time>2021-08-05T09:05:43.436Z</time>
      </trkpt>
      <trkpt lat="47.00586" lon="8.64735">
        <ele>455</ele>
        <time>2021-08-05T09:05:44.436Z</time>
      </trkpt>
      <trkpt lat="47.00584" lon="8.64733">
        <ele>455</ele>
        <time>2021-08-05T09:05:45.436Z</time>
      </trkpt>
      <trkpt lat="47.00583" lon="8.64731">
        <ele>456</ele>
        <time>2021-08-05T09:05:46.436Z</time>
      </trkpt>
      <trkpt lat="47.00582" lon="8.64731">
        <ele>456</ele>
        <time>2021-08-05T09:05:47.435Z</time>
      </trkpt>
      <trkpt lat="47.00581" lon="8.6473">
        <ele>456</ele>
        <time>2021-08-05T09:05:48.436Z</time>
      </trkpt>
      <trkpt lat="47.0058" lon="8.64729">
        <ele>457</ele>
        <time>2021-08-05T09:05:49.435Z</time>
      </trkpt>
      <trkpt lat="47.00579" lon="8.64728">
        <ele>457</ele>
        <time>2021-08-05T09:05:50.435Z</time>
      </trkpt>
      <trkpt lat="47.00578" lon="8.64726">
        <ele>457</ele>
        <time>2021-08-05T09:05:51.435Z</time>
      </trkpt>
      <trkpt lat="47.00577" lon="8.64725">
        <ele>458</ele>
        <time>2021-08-05T09:05:52.436Z</time>
      </trkpt>
      <trkpt lat="47.00576" lon="8.64725">
        <ele>458</ele>
        <time>2021-08-05T09:05:53.435Z</time>
      </trkpt>
      <trkpt lat="47.00575" lon="8.64722">
        <ele>458</ele>
        <time>2021-08-05T09:05:54.435Z</time>
      </trkpt>
      <trkpt lat="47.00573" lon="8.64721">
        <ele>458</ele>
        <time>2021-08-05T09:05:55.436Z</time>
      </trkpt>
      <trkpt lat="47.00573" lon="8.64719">
        <ele>458</ele>
        <time>2021-08-05T09:05:56.435Z</time>
      </trkpt>
      <trkpt lat="47.00572" lon="8.64718">
        <ele>458</ele>
        <time>2021-08-05T09:05:57.436Z</time>
      </trkpt>
      <trkpt lat="47.00572" lon="8.64717">
        <ele>457</ele>
        <time>2021-08-05T09:05:58.436Z</time>
      </trkpt>
      <trkpt lat="47.00571" lon="8.64715">
        <ele>457</ele>
        <time>2021-08-05T09:05:59.436Z</time>
      </trkpt>
      <trkpt lat="47.00571" lon="8.64714">
        <ele>457</ele>
        <time>2021-08-05T09:06:00.436Z</time>
      </trkpt>
      <trkpt lat="47.0057" lon="8.64713">
        <ele>457</ele>
        <time>2021-08-05T09:06:01.436Z</time>
      </trkpt>
      <trkpt lat="47.00569" lon="8.64712">
        <ele>457</ele>
        <time>2021-08-05T09:06:02.435Z</time>
      </trkpt>
      <trkpt lat="47.00569" lon="8.64711">
        <ele>457</ele>
        <time>2021-08-05T09:06:03.436Z</time>
      </trkpt>
      <trkpt lat="47.00568" lon="8.64709">
        <ele>457</ele>
        <time>2021-08-05T09:06:04.436Z</time>
      </trkpt>
      <trkpt lat="47.00567" lon="8.64708">
        <ele>457</ele>
        <time>2021-08-05T09:06:05.435Z</time>
      </trkpt>
      <trkpt lat="47.00567" lon="8.64707">
        <ele>458</ele>
        <time>2021-08-05T09:06:06.436Z</time>
      </trkpt>
      <trkpt lat="47.00566" lon="8.64706">
        <ele>458</ele>
        <time>2021-08-05T09:06:07.435Z</time>
      </trkpt>
      <trkpt lat="47.00565" lon="8.64705">
        <ele>459</ele>
        <time>2021-08-05T09:06:08.436Z</time>
      </trkpt>
      <trkpt lat="47.00564" lon="8.64704">
        <ele>459</ele>
        <time>2021-08-05T09:06:09.435Z</time>
      </trkpt>
      <trkpt lat="47.00564" lon="8.64703">
        <ele>458</ele>
        <time>2021-08-05T09:06:10.436Z</time>
      </trkpt>
      <trkpt lat="47.00563" lon="8.64701">
        <ele>458</ele>
        <time>2021-08-05T09:06:11.435Z</time>
      </trkpt>
      <trkpt lat="47.00562" lon="8.647">
        <ele>458</ele>
        <time>2021-08-05T09:06:12.436Z</time>
      </trkpt>
      <trkpt lat="47.00562" lon="8.64699">
        <ele>458</ele>
        <time>2021-08-05T09:06:13.436Z</time>
      </trkpt>
      <trkpt lat="47.00561" lon="8.64698">
        <ele>457</ele>
        <time>2021-08-05T09:06:14.435Z</time>
      </trkpt>
      <trkpt lat="47.00561" lon="8.64698">
        <ele>457</ele>
        <time>2021-08-05T09:06:15.436Z</time>
      </trkpt>
      <trkpt lat="47.0056" lon="8.64697">
        <ele>456</ele>
        <time>2021-08-05T09:06:16.435Z</time>
      </trkpt>
      <trkpt lat="47.00559" lon="8.64696">
        <ele>456</ele>
        <time>2021-08-05T09:06:17.436Z</time>
      </trkpt>
      <trkpt lat="47.00559" lon="8.64696">
        <ele>455</ele>
        <time>2021-08-05T09:06:18.435Z</time>
      </trkpt>
      <trkpt lat="47.00559" lon="8.64695">
        <ele>455</ele>
        <time>2021-08-05T09:06:19.436Z</time>
      </trkpt>
      <trkpt lat="47.00558" lon="8.64695">
        <ele>455</ele>
        <time>2021-08-05T09:06:20.436Z</time>
      </trkpt>
      <trkpt lat="47.00558" lon="8.64694">
        <ele>454</ele>
        <time>2021-08-05T09:06:21.436Z</time>
      </trkpt>
      <trkpt lat="47.00557" lon="8.64692">
        <ele>454</ele>
        <time>2021-08-05T09:06:22.435Z</time>
      </trkpt>
      <trkpt lat="47.00558" lon="8.64691">
        <ele>454</ele>
        <time>2021-08-05T09:06:23.436Z</time>
      </trkpt>
      <trkpt lat="47.00558" lon="8.64689">
        <ele>453</ele>
        <time>2021-08-05T09:06:24.436Z</time>
      </trkpt>
      <trkpt lat="47.00559" lon="8.64688">
        <ele>453</ele>
        <time>2021-08-05T09:06:25.435Z</time>
      </trkpt>
      <trkpt lat="47.00559" lon="8.64686">
        <ele>454</ele>
        <time>2021-08-05T09:06:26.436Z</time>
      </trkpt>
      <trkpt lat="47.00559" lon="8.64685">
        <ele>454</ele>
        <time>2021-08-05T09:06:27.435Z</time>
      </trkpt>
      <trkpt lat="47.00559" lon="8.64683">
        <ele>454</ele>
        <time>2021-08-05T09:06:28.435Z</time>
      </trkpt>
      <trkpt lat="47.00558" lon="8.64682">
        <ele>454</ele>
        <time>2021-08-05T09:06:29.435Z</time>
      </trkpt>
      <trkpt lat="47.00558" lon="8.64681">
        <ele>454</ele>
        <time>2021-08-05T09:06:30.436Z</time>
      </trkpt>
      <trkpt lat="47.00557" lon="8.6468">
        <ele>454</ele>
        <time>2021-08-05T09:06:31.435Z</time>
      </trkpt>
      <trkpt lat="47.00557" lon="8.6468">
        <ele>454</ele>
        <time>2021-08-05T09:06:32.436Z</time>
      </trkpt>
      <trkpt lat="47.00556" lon="8.64679">
        <ele>454</ele>
        <time>2021-08-05T09:06:33.435Z</time>
      </trkpt>
      <trkpt lat="47.00555" lon="8.64677">
        <ele>453</ele>
        <time>2021-08-05T09:06:34.436Z</time>
      </trkpt>
      <trkpt lat="47.00555" lon="8.64676">
        <ele>453</ele>
        <time>2021-08-05T09:06:35.435Z</time>
      </trkpt>
      <trkpt lat="47.00554" lon="8.64676">
        <ele>453</ele>
        <time>2021-08-05T09:06:36.436Z</time>
      </trkpt>
      <trkpt lat="47.00554" lon="8.64674">
        <ele>453</ele>
        <time>2021-08-05T09:06:37.435Z</time>
      </trkpt>
      <trkpt lat="47.00553" lon="8.64673">
        <ele>453</ele>
        <time>2021-08-05T09:06:38.436Z</time>
      </trkpt>
      <trkpt lat="47.00552" lon="8.64672">
        <ele>453</ele>
        <time>2021-08-05T09:06:39.436Z</time>
      </trkpt>
      <trkpt lat="47.00552" lon="8.64671">
        <ele>454</ele>
        <time>2021-08-05T09:06:40.436Z</time>
      </trkpt>
      <trkpt lat="47.00551" lon="8.6467">
        <ele>454</ele>
        <time>2021-08-05T09:06:41.436Z</time>
      </trkpt>
      <trkpt lat="47.0055" lon="8.64669">
        <ele>454</ele>
        <time>2021-08-05T09:06:42.436Z</time>
      </trkpt>
      <trkpt lat="47.00549" lon="8.64667">
        <ele>454</ele>
        <time>2021-08-05T09:06:43.436Z</time>
      </trkpt>
      <trkpt lat="47.00548" lon="8.64666">
        <ele>454</ele>
        <time>2021-08-05T09:06:44.436Z</time>
      </trkpt>
      <trkpt lat="47.00547" lon="8.64665">
        <ele>454</ele>
        <time>2021-08-05T09:06:45.435Z</time>
      </trkpt>
      <trkpt lat="47.00546" lon="8.64663">
        <ele>454</ele>
        <time>2021-08-05T09:06:46.436Z</time>
      </trkpt>
      <trkpt lat="47.00545" lon="8.64662">
        <ele>455</ele>
        <time>2021-08-05T09:06:47.436Z</time>
      </trkpt>
      <trkpt lat="47.00544" lon="8.64661">
        <ele>455</ele>
        <time>2021-08-05T09:06:48.436Z</time>
      </trkpt>
      <trkpt lat="47.00543" lon="8.64659">
        <ele>455</ele>
        <time>2021-08-05T09:06:49.436Z</time>
      </trkpt>
      <trkpt lat="47.00543" lon="8.64658">
        <ele>456</ele>
        <time>2021-08-05T09:06:50.435Z</time>
      </trkpt>
      <trkpt lat="47.00542" lon="8.64656">
        <ele>456</ele>
        <time>2021-08-05T09:06:51.436Z</time>
      </trkpt>
      <trkpt lat="47.00541" lon="8.64655">
        <ele>456</ele>
        <time>2021-08-05T09:06:52.435Z</time>
      </trkpt>
      <trkpt lat="47.0054" lon="8.64654">
        <ele>456</ele>
        <time>2021-08-05T09:06:53.436Z</time>
      </trkpt>
      <trkpt lat="47.00539" lon="8.64653">
        <ele>455</ele>
        <time>2021-08-05T09:06:54.435Z</time>
      </trkpt>
      <trkpt lat="47.00539" lon="8.64651">
        <ele>455</ele>
        <time>2021-08-05T09:06:55.436Z</time>
      </trkpt>
      <trkpt lat="47.00538" lon="8.6465">
        <ele>455</ele>
        <time>2021-08-05T09:06:56.436Z</time>
      </trkpt>
      <trkpt lat="47.00537" lon="8.64648">
        <ele>456</ele>
        <time>2021-08-05T09:06:57.436Z</time>
      </trkpt>
      <trkpt lat="47.00536" lon="8.64647">
        <ele>456</ele>
        <time>2021-08-05T09:06:58.436Z</time>
      </trkpt>
      <trkpt lat="47.00535" lon="8.64646">
        <ele>456</ele>
        <time>2021-08-05T09:06:59.436Z</time>
      </trkpt>
      <trkpt lat="47.00534" lon="8.64644">
        <ele>456</ele>
        <time>2021-08-05T09:07:00.435Z</time>
      </trkpt>
      <trkpt lat="47.00533" lon="8.64643">
        <ele>456</ele>
        <time>2021-08-05T09:07:01.435Z</time>
      </trkpt>
      <trkpt lat="47.00533" lon="8.64642">
        <ele>456</ele>
        <time>2021-08-05T09:07:02.435Z</time>
      </trkpt>
      <trkpt lat="47.00532" lon="8.6464">
        <ele>456</ele>
        <time>2021-08-05T09:07:03.436Z</time>
      </trkpt>
      <trkpt lat="47.00531" lon="8.64639">
        <ele>456</ele>
        <time>2021-08-05T09:07:04.435Z</time>
      </trkpt>
      <trkpt lat="47.0053" lon="8.64638">
        <ele>455</ele>
        <time>2021-08-05T09:07:05.436Z</time>
      </trkpt>
      <trkpt lat="47.0053" lon="8.64637">
        <ele>455</ele>
        <time>2021-08-05T09:07:06.436Z</time>
      </trkpt>
      <trkpt lat="47.00529" lon="8.64637">
        <ele>455</ele>
        <time>2021-08-05T09:07:07.435Z</time>
      </trkpt>
      <trkpt lat="47.00528" lon="8.64637">
        <ele>455</ele>
        <time>2021-08-05T09:07:08.435Z</time>
      </trkpt>
      <trkpt lat="47.00528" lon="8.64637">
        <ele>455</ele>
        <time>2021-08-05T09:07:09.436Z</time>
      </trkpt>
      <trkpt lat="47.00528" lon="8.64639">
        <ele>454</ele>
        <time>2021-08-05T09:07:10.437Z</time>
      </trkpt>
      <trkpt lat="47.00528" lon="8.64638">
        <ele>454</ele>
        <time>2021-08-05T09:07:11.438Z</time>
      </trkpt>
      <trkpt lat="47.00527" lon="8.64636">
        <ele>454</ele>
        <time>2021-08-05T09:07:12.438Z</time>
      </trkpt>
      <trkpt lat="47.00526" lon="8.64635">
        <ele>454</ele>
        <time>2021-08-05T09:07:13.437Z</time>
      </trkpt>
      <trkpt lat="47.00525" lon="8.64634">
        <ele>454</ele>
        <time>2021-08-05T09:07:14.438Z</time>
      </trkpt>
      <trkpt lat="47.00524" lon="8.64633">
        <ele>454</ele>
        <time>2021-08-05T09:07:15.438Z</time>
      </trkpt>
      <trkpt lat="47.00523" lon="8.64632">
        <ele>454</ele>
        <time>2021-08-05T09:07:16.438Z</time>
      </trkpt>
      <trkpt lat="47.00522" lon="8.64631">
        <ele>454</ele>
        <time>2021-08-05T09:07:17.437Z</time>
      </trkpt>
      <trkpt lat="47.00521" lon="8.6463">
        <ele>454</ele>
        <time>2021-08-05T09:07:18.438Z</time>
      </trkpt>
      <trkpt lat="47.0052" lon="8.64629">
        <ele>454</ele>
        <time>2021-08-05T09:07:19.438Z</time>
      </trkpt>
      <trkpt lat="47.00519" lon="8.64628">
        <ele>455</ele>
        <time>2021-08-05T09:07:20.438Z</time>
      </trkpt>
      <trkpt lat="47.00518" lon="8.64626">
        <ele>455</ele>
        <time>2021-08-05T09:07:21.438Z</time>
      </trkpt>
      <trkpt lat="47.00517" lon="8.64625">
        <ele>456</ele>
        <time>2021-08-05T09:07:22.438Z</time>
      </trkpt>
      <trkpt lat="47.00516" lon="8.64624">
        <ele>456</ele>
        <time>2021-08-05T09:07:23.438Z</time>
      </trkpt>
      <trkpt lat="47.00515" lon="8.64623">
        <ele>456</ele>
        <time>2021-08-05T09:07:24.438Z</time>
      </trkpt>
      <trkpt lat="47.00515" lon="8.64622">
        <ele>456</ele>
        <time>2021-08-05T09:07:25.438Z</time>
      </trkpt>
      <trkpt lat="47.00514" lon="8.64621">
        <ele>457</ele>
        <time>2021-08-05T09:07:26.438Z</time>
      </trkpt>
      <trkpt lat="47.00512" lon="8.6462">
        <ele>457</ele>
        <time>2021-08-05T09:07:27.438Z</time>
      </trkpt>
      <trkpt lat="47.00511" lon="8.64619">
        <ele>457</ele>
        <time>2021-08-05T09:07:28.438Z</time>
      </trkpt>
      <trkpt lat="47.0051" lon="8.64618">
        <ele>456</ele>
        <time>2021-08-05T09:07:29.438Z</time>
      </trkpt>
      <trkpt lat="47.00509" lon="8.64617">
        <ele>456</ele>
        <time>2021-08-05T09:07:30.437Z</time>
      </trkpt>
      <trkpt lat="47.00508" lon="8.64616">
        <ele>456</ele>
        <time>2021-08-05T09:07:31.437Z</time>
      </trkpt>
      <trkpt lat="47.00507" lon="8.64615">
        <ele>455</ele>
        <time>2021-08-05T09:07:32.438Z</time>
      </trkpt>
      <trkpt lat="47.00506" lon="8.64614">
        <ele>455</ele>
        <time>2021-08-05T09:07:33.438Z</time>
      </trkpt>
      <trkpt lat="47.00505" lon="8.64612">
        <ele>454</ele>
        <time>2021-08-05T09:07:34.438Z</time>
      </trkpt>
      <trkpt lat="47.00504" lon="8.64611">
        <ele>454</ele>
        <time>2021-08-05T09:07:35.438Z</time>
      </trkpt>
      <trkpt lat="47.00503" lon="8.6461">
        <ele>454</ele>
        <time>2021-08-05T09:07:36.437Z</time>
      </trkpt>
      <trkpt lat="47.00502" lon="8.64608">
        <ele>454</ele>
        <time>2021-08-05T09:07:37.438Z</time>
      </trkpt>
      <trkpt lat="47.00501" lon="8.64608">
        <ele>454</ele>
        <time>2021-08-05T09:07:38.438Z</time>
      </trkpt>
      <trkpt lat="47.005" lon="8.64607">
        <ele>454</ele>
        <time>2021-08-05T09:07:39.437Z</time>
      </trkpt>
      <trkpt lat="47.00499" lon="8.64607">
        <ele>454</ele>
        <time>2021-08-05T09:07:40.438Z</time>
      </trkpt>
      <trkpt lat="47.00498" lon="8.64606">
        <ele>455</ele>
        <time>2021-08-05T09:07:41.438Z</time>
      </trkpt>
      <trkpt lat="47.00496" lon="8.64605">
        <ele>455</ele>
        <time>2021-08-05T09:07:42.438Z</time>
      </trkpt>
      <trkpt lat="47.00495" lon="8.64604">
        <ele>456</ele>
        <time>2021-08-05T09:07:43.438Z</time>
      </trkpt>
      <trkpt lat="47.00495" lon="8.64603">
        <ele>456</ele>
        <time>2021-08-05T09:07:44.438Z</time>
      </trkpt>
      <trkpt lat="47.00494" lon="8.64601">
        <ele>457</ele>
        <time>2021-08-05T09:07:45.437Z</time>
      </trkpt>
      <trkpt lat="47.00493" lon="8.64601">
        <ele>457</ele>
        <time>2021-08-05T09:07:46.437Z</time>
      </trkpt>
      <trkpt lat="47.00491" lon="8.646">
        <ele>457</ele>
        <time>2021-08-05T09:07:47.438Z</time>
      </trkpt>
      <trkpt lat="47.0049" lon="8.64599">
        <ele>458</ele>
        <time>2021-08-05T09:07:48.438Z</time>
      </trkpt>
      <trkpt lat="47.00489" lon="8.64599">
        <ele>458</ele>
        <time>2021-08-05T09:07:49.437Z</time>
      </trkpt>
      <trkpt lat="47.00487" lon="8.64599">
        <ele>458</ele>
        <time>2021-08-05T09:07:50.437Z</time>
      </trkpt>
      <trkpt lat="47.00486" lon="8.64599">
        <ele>459</ele>
        <time>2021-08-05T09:07:51.438Z</time>
      </trkpt>
      <trkpt lat="47.00485" lon="8.64598">
        <ele>459</ele>
        <time>2021-08-05T09:07:52.438Z</time>
      </trkpt>
      <trkpt lat="47.00484" lon="8.64598">
        <ele>459</ele>
        <time>2021-08-05T09:07:53.437Z</time>
      </trkpt>
      <trkpt lat="47.00483" lon="8.64597">
        <ele>459</ele>
        <time>2021-08-05T09:07:54.438Z</time>
      </trkpt>
      <trkpt lat="47.00482" lon="8.64596">
        <ele>460</ele>
        <time>2021-08-05T09:07:55.438Z</time>
      </trkpt>
      <trkpt lat="47.00481" lon="8.64596">
        <ele>460</ele>
        <time>2021-08-05T09:07:56.437Z</time>
      </trkpt>
      <trkpt lat="47.0048" lon="8.64595">
        <ele>460</ele>
        <time>2021-08-05T09:07:57.438Z</time>
      </trkpt>
      <trkpt lat="47.00479" lon="8.64595">
        <ele>460</ele>
        <time>2021-08-05T09:07:58.438Z</time>
      </trkpt>
      <trkpt lat="47.00478" lon="8.64594">
        <ele>459</ele>
        <time>2021-08-05T09:07:59.438Z</time>
      </trkpt>
      <trkpt lat="47.00478" lon="8.64592">
        <ele>459</ele>
        <time>2021-08-05T09:08:00.438Z</time>
      </trkpt>
      <trkpt lat="47.00477" lon="8.6459">
        <ele>458</ele>
        <time>2021-08-05T09:08:01.438Z</time>
      </trkpt>
      <trkpt lat="47.00476" lon="8.64588">
        <ele>458</ele>
        <time>2021-08-05T09:08:02.437Z</time>
      </trkpt>
      <trkpt lat="47.00475" lon="8.64587">
        <ele>457</ele>
        <time>2021-08-05T09:08:03.437Z</time>
      </trkpt>
      <trkpt lat="47.00474" lon="8.64586">
        <ele>457</ele>
        <time>2021-08-05T09:08:04.437Z</time>
      </trkpt>
      <trkpt lat="47.00473" lon="8.64586">
        <ele>456</ele>
        <time>2021-08-05T09:08:05.438Z</time>
      </trkpt>
      <trkpt lat="47.00472" lon="8.64586">
        <ele>456</ele>
        <time>2021-08-05T09:08:06.437Z</time>
      </trkpt>
      <trkpt lat="47.00472" lon="8.64584">
        <ele>456</ele>
        <time>2021-08-05T09:08:07.438Z</time>
      </trkpt>
      <trkpt lat="47.00471" lon="8.64582">
        <ele>455</ele>
        <time>2021-08-05T09:08:08.438Z</time>
      </trkpt>
      <trkpt lat="47.0047" lon="8.64581">
        <ele>455</ele>
        <time>2021-08-05T09:08:09.438Z</time>
      </trkpt>
      <trkpt lat="47.00469" lon="8.64579">
        <ele>455</ele>
        <time>2021-08-05T09:08:10.438Z</time>
      </trkpt>
      <trkpt lat="47.00469" lon="8.64578">
        <ele>455</ele>
        <time>2021-08-05T09:08:11.437Z</time>
      </trkpt>
      <trkpt lat="47.00468" lon="8.64577">
        <ele>455</ele>
        <time>2021-08-05T09:08:12.437Z</time>
      </trkpt>
      <trkpt lat="47.00467" lon="8.64576">
        <ele>455</ele>
        <time>2021-08-05T09:08:13.437Z</time>
      </trkpt>
      <trkpt lat="47.00466" lon="8.64574">
        <ele>454</ele>
        <time>2021-08-05T09:08:14.438Z</time>
      </trkpt>
      <trkpt lat="47.00465" lon="8.64573">
        <ele>454</ele>
        <time>2021-08-05T09:08:15.437Z</time>
      </trkpt>
      <trkpt lat="47.00465" lon="8.64571">
        <ele>454</ele>
        <time>2021-08-05T09:08:16.437Z</time>
      </trkpt>
      <trkpt lat="47.00463" lon="8.6457">
        <ele>454</ele>
        <time>2021-08-05T09:08:17.437Z</time>
      </trkpt>
      <trkpt lat="47.00462" lon="8.64569">
        <ele>453</ele>
        <time>2021-08-05T09:08:18.438Z</time>
      </trkpt>
      <trkpt lat="47.00461" lon="8.64568">
        <ele>453</ele>
        <time>2021-08-05T09:08:19.437Z</time>
      </trkpt>
      <trkpt lat="47.0046" lon="8.64567">
        <ele>453</ele>
        <time>2021-08-05T09:08:20.437Z</time>
      </trkpt>
      <trkpt lat="47.00459" lon="8.64566">
        <ele>453</ele>
        <time>2021-08-05T09:08:21.437Z</time>
      </trkpt>
      <trkpt lat="47.00458" lon="8.64565">
        <ele>453</ele>
        <time>2021-08-05T09:08:22.437Z</time>
      </trkpt>
      <trkpt lat="47.00458" lon="8.64564">
        <ele>453</ele>
        <time>2021-08-05T09:08:23.438Z</time>
      </trkpt>
      <trkpt lat="47.00457" lon="8.64563">
        <ele>453</ele>
        <time>2021-08-05T09:08:24.437Z</time>
      </trkpt>
      <trkpt lat="47.00456" lon="8.64562">
        <ele>453</ele>
        <time>2021-08-05T09:08:25.437Z</time>
      </trkpt>
      <trkpt lat="47.00455" lon="8.64561">
        <ele>453</ele>
        <time>2021-08-05T09:08:26.437Z</time>
      </trkpt>
      <trkpt lat="47.00454" lon="8.6456">
        <ele>454</ele>
        <time>2021-08-05T09:08:27.437Z</time>
      </trkpt>
      <trkpt lat="47.00453" lon="8.64559">
        <ele>453</ele>
        <time>2021-08-05T09:08:28.438Z</time>
      </trkpt>
      <trkpt lat="47.00452" lon="8.64559">
        <ele>453</ele>
        <time>2021-08-05T09:08:29.437Z</time>
      </trkpt>
      <trkpt lat="47.00451" lon="8.64558">
        <ele>453</ele>
        <time>2021-08-05T09:08:30.437Z</time>
      </trkpt>
      <trkpt lat="47.0045" lon="8.64556">
        <ele>453</ele>
        <time>2021-08-05T09:08:31.437Z</time>
      </trkpt>
      <trkpt lat="47.00449" lon="8.64555">
        <ele>452</ele>
        <time>2021-08-05T09:08:32.437Z</time>
      </trkpt>
      <trkpt lat="47.00448" lon="8.64554">
        <ele>452</ele>
        <time>2021-08-05T09:08:33.437Z</time>
      </trkpt>
      <trkpt lat="47.00447" lon="8.64554">
        <ele>452</ele>
        <time>2021-08-05T09:08:34.437Z</time>
      </trkpt>
      <trkpt lat="47.00446" lon="8.64553">
        <ele>452</ele>
        <time>2021-08-05T09:08:35.438Z</time>
      </trkpt>
      <trkpt lat="47.00445" lon="8.64552">
        <ele>452</ele>
        <time>2021-08-05T09:08:36.437Z</time>
      </trkpt>
      <trkpt lat="47.00444" lon="8.64551">
        <ele>452</ele>
        <time>2021-08-05T09:08:37.438Z</time>
      </trkpt>
      <trkpt lat="47.00443" lon="8.64549">
        <ele>452</ele>
        <time>2021-08-05T09:08:38.438Z</time>
      </trkpt>
      <trkpt lat="47.00442" lon="8.64548">
        <ele>453</ele>
        <time>2021-08-05T09:08:39.438Z</time>
      </trkpt>
      <trkpt lat="47.00441" lon="8.64547">
        <ele>453</ele>
        <time>2021-08-05T09:08:40.437Z</time>
      </trkpt>
      <trkpt lat="47.0044" lon="8.64547">
        <ele>453</ele>
        <time>2021-08-05T09:08:41.437Z</time>
      </trkpt>
      <trkpt lat="47.0044" lon="8.64547">
        <ele>454</ele>
        <time>2021-08-05T09:08:42.437Z</time>
      </trkpt>
      <trkpt lat="47.00439" lon="8.64547">
        <ele>454</ele>
        <time>2021-08-05T09:08:43.438Z</time>
      </trkpt>
      <trkpt lat="47.00439" lon="8.64547">
        <ele>454</ele>
        <time>2021-08-05T09:08:44.438Z</time>
      </trkpt>
      <trkpt lat="47.00438" lon="8.64546">
        <ele>454</ele>
        <time>2021-08-05T09:08:45.438Z</time>
      </trkpt>
      <trkpt lat="47.00438" lon="8.64546">
        <ele>454</ele>
        <time>2021-08-05T09:08:46.438Z</time>
      </trkpt>
      <trkpt lat="47.00437" lon="8.64545">
        <ele>453</ele>
        <time>2021-08-05T09:08:47.437Z</time>
      </trkpt>
      <trkpt lat="47.00436" lon="8.64545">
        <ele>453</ele>
        <time>2021-08-05T09:08:48.438Z</time>
      </trkpt>
      <trkpt lat="47.00435" lon="8.64544">
        <ele>453</ele>
        <time>2021-08-05T09:08:49.438Z</time>
      </trkpt>
      <trkpt lat="47.00434" lon="8.64544">
        <ele>453</ele>
        <time>2021-08-05T09:08:50.438Z</time>
      </trkpt>
      <trkpt lat="47.00433" lon="8.64542">
        <ele>453</ele>
        <time>2021-08-05T09:08:51.438Z</time>
      </trkpt>
      <trkpt lat="47.00432" lon="8.64541">
        <ele>454</ele>
        <time>2021-08-05T09:08:52.438Z</time>
      </trkpt>
      <trkpt lat="47.00431" lon="8.6454">
        <ele>454</ele>
        <time>2021-08-05T09:08:53.438Z</time>
      </trkpt>
      <trkpt lat="47.00429" lon="8.64538">
        <ele>455</ele>
        <time>2021-08-05T09:08:54.438Z</time>
      </trkpt>
      <trkpt lat="47.00427" lon="8.64537">
        <ele>455</ele>
        <time>2021-08-05T09:08:55.438Z</time>
      </trkpt>
      <trkpt lat="47.00427" lon="8.64536">
        <ele>455</ele>
        <time>2021-08-05T09:08:56.438Z</time>
      </trkpt>
      <trkpt lat="47.00425" lon="8.64536">
        <ele>455</ele>
        <time>2021-08-05T09:08:57.438Z</time>
      </trkpt>
      <trkpt lat="47.00424" lon="8.64535">
        <ele>455</ele>
        <time>2021-08-05T09:08:58.438Z</time>
      </trkpt>
      <trkpt lat="47.00423" lon="8.64535">
        <ele>455</ele>
        <time>2021-08-05T09:08:59.438Z</time>
      </trkpt>
      <trkpt lat="47.00422" lon="8.64535">
        <ele>455</ele>
        <time>2021-08-05T09:09:00.438Z</time>
      </trkpt>
      <trkpt lat="47.00421" lon="8.64535">
        <ele>455</ele>
        <time>2021-08-05T09:09:01.438Z</time>
      </trkpt>
      <trkpt lat="47.0042" lon="8.64534">
        <ele>455</ele>
        <time>2021-08-05T09:09:02.437Z</time>
      </trkpt>
      <trkpt lat="47.00419" lon="8.64533">
        <ele>455</ele>
        <time>2021-08-05T09:09:03.438Z</time>
      </trkpt>
      <trkpt lat="47.00418" lon="8.64532">
        <ele>455</ele>
        <time>2021-08-05T09:09:04.438Z</time>
      </trkpt>
      <trkpt lat="47.00417" lon="8.64532">
        <ele>455</ele>
        <time>2021-08-05T09:09:05.437Z</time>
      </trkpt>
      <trkpt lat="47.00415" lon="8.6453">
        <ele>455</ele>
        <time>2021-08-05T09:09:06.438Z</time>
      </trkpt>
      <trkpt lat="47.00414" lon="8.6453">
        <ele>455</ele>
        <time>2021-08-05T09:09:07.438Z</time>
      </trkpt>
      <trkpt lat="47.00413" lon="8.6453">
        <ele>455</ele>
        <time>2021-08-05T09:09:08.438Z</time>
      </trkpt>
      <trkpt lat="47.00413" lon="8.6453">
        <ele>455</ele>
        <time>2021-08-05T09:09:09.438Z</time>
      </trkpt>
      <trkpt lat="47.00412" lon="8.64531">
        <ele>455</ele>
        <time>2021-08-05T09:09:10.437Z</time>
      </trkpt>
      <trkpt lat="47.00411" lon="8.64532">
        <ele>455</ele>
        <time>2021-08-05T09:09:11.438Z</time>
      </trkpt>
      <trkpt lat="47.00411" lon="8.64531">
        <ele>456</ele>
        <time>2021-08-05T09:09:12.438Z</time>
      </trkpt>
      <trkpt lat="47.00409" lon="8.6453">
        <ele>456</ele>
        <time>2021-08-05T09:09:13.438Z</time>
      </trkpt>
      <trkpt lat="47.00408" lon="8.64528">
        <ele>457</ele>
        <time>2021-08-05T09:09:14.438Z</time>
      </trkpt>
      <trkpt lat="47.00406" lon="8.64527">
        <ele>457</ele>
        <time>2021-08-05T09:09:15.438Z</time>
      </trkpt>
      <trkpt lat="47.00405" lon="8.64526">
        <ele>458</ele>
        <time>2021-08-05T09:09:16.438Z</time>
      </trkpt>
      <trkpt lat="47.00405" lon="8.64525">
        <ele>458</ele>
        <time>2021-08-05T09:09:17.437Z</time>
      </trkpt>
      <trkpt lat="47.00404" lon="8.64524">
        <ele>459</ele>
        <time>2021-08-05T09:09:18.438Z</time>
      </trkpt>
      <trkpt lat="47.00403" lon="8.64523">
        <ele>459</ele>
        <time>2021-08-05T09:09:19.437Z</time>
      </trkpt>
      <trkpt lat="47.00402" lon="8.64522">
        <ele>459</ele>
        <time>2021-08-05T09:09:20.438Z</time>
      </trkpt>
      <trkpt lat="47.00402" lon="8.64521">
        <ele>460</ele>
        <time>2021-08-05T09:09:21.438Z</time>
      </trkpt>
      <trkpt lat="47.00401" lon="8.6452">
        <ele>461</ele>
        <time>2021-08-05T09:09:22.438Z</time>
      </trkpt>
      <trkpt lat="47.004" lon="8.64518">
        <ele>461</ele>
        <time>2021-08-05T09:09:23.437Z</time>
      </trkpt>
      <trkpt lat="47.00398" lon="8.64517">
        <ele>461</ele>
        <time>2021-08-05T09:09:24.438Z</time>
      </trkpt>
      <trkpt lat="47.00398" lon="8.64516">
        <ele>460</ele>
        <time>2021-08-05T09:09:25.438Z</time>
      </trkpt>
      <trkpt lat="47.00397" lon="8.64515">
        <ele>460</ele>
        <time>2021-08-05T09:09:26.437Z</time>
      </trkpt>
      <trkpt lat="47.00396" lon="8.64514">
        <ele>460</ele>
        <time>2021-08-05T09:09:27.438Z</time>
      </trkpt>
      <trkpt lat="47.00395" lon="8.64514">
        <ele>460</ele>
        <time>2021-08-05T09:09:28.437Z</time>
      </trkpt>
      <trkpt lat="47.00394" lon="8.64513">
        <ele>460</ele>
        <time>2021-08-05T09:09:29.438Z</time>
      </trkpt>
      <trkpt lat="47.00394" lon="8.64513">
        <ele>460</ele>
        <time>2021-08-05T09:09:30.438Z</time>
      </trkpt>
      <trkpt lat="47.00393" lon="8.64513">
        <ele>460</ele>
        <time>2021-08-05T09:09:31.437Z</time>
      </trkpt>
      <trkpt lat="47.00392" lon="8.64511">
        <ele>460</ele>
        <time>2021-08-05T09:09:32.438Z</time>
      </trkpt>
      <trkpt lat="47.00391" lon="8.64509">
        <ele>460</ele>
        <time>2021-08-05T09:09:33.438Z</time>
      </trkpt>
      <trkpt lat="47.0039" lon="8.64507">
        <ele>459</ele>
        <time>2021-08-05T09:09:34.438Z</time>
      </trkpt>
      <trkpt lat="47.00389" lon="8.64506">
        <ele>459</ele>
        <time>2021-08-05T09:09:35.437Z</time>
      </trkpt>
      <trkpt lat="47.00388" lon="8.64506">
        <ele>458</ele>
        <time>2021-08-05T09:09:36.438Z</time>
      </trkpt>
      <trkpt lat="47.00387" lon="8.64505">
        <ele>458</ele>
        <time>2021-08-05T09:09:37.438Z</time>
      </trkpt>
      <trkpt lat="47.00386" lon="8.64504">
        <ele>457</ele>
        <time>2021-08-05T09:09:38.438Z</time>
      </trkpt>
      <trkpt lat="47.00385" lon="8.64503">
        <ele>457</ele>
        <time>2021-08-05T09:09:39.438Z</time>
      </trkpt>
      <trkpt lat="47.00384" lon="8.64502">
        <ele>457</ele>
        <time>2021-08-05T09:09:40.438Z</time>
      </trkpt>
      <trkpt lat="47.00383" lon="8.64501">
        <ele>457</ele>
        <time>2021-08-05T09:09:41.438Z</time>
      </trkpt>
      <trkpt lat="47.00382" lon="8.645">
        <ele>457</ele>
        <time>2021-08-05T09:09:42.438Z</time>
      </trkpt>
      <trkpt lat="47.00381" lon="8.64499">
        <ele>456</ele>
        <time>2021-08-05T09:09:43.438Z</time>
      </trkpt>
      <trkpt lat="47.0038" lon="8.64498">
        <ele>456</ele>
        <time>2021-08-05T09:09:44.437Z</time>
      </trkpt>
      <trkpt lat="47.00379" lon="8.64497">
        <ele>456</ele>
        <time>2021-08-05T09:09:45.437Z</time>
      </trkpt>
      <trkpt lat="47.00379" lon="8.64496">
        <ele>456</ele>
        <time>2021-08-05T09:09:46.438Z</time>
      </trkpt>
      <trkpt lat="47.00378" lon="8.64495">
        <ele>456</ele>
        <time>2021-08-05T09:09:47.437Z</time>
      </trkpt>
      <trkpt lat="47.00377" lon="8.64495">
        <ele>456</ele>
        <time>2021-08-05T09:09:48.438Z</time>
      </trkpt>
      <trkpt lat="47.00375" lon="8.64495">
        <ele>456</ele>
        <time>2021-08-05T09:09:49.437Z</time>
      </trkpt>
      <trkpt lat="47.00374" lon="8.64494">
        <ele>456</ele>
        <time>2021-08-05T09:09:50.437Z</time>
      </trkpt>
      <trkpt lat="47.00373" lon="8.64494">
        <ele>456</ele>
        <time>2021-08-05T09:09:51.438Z</time>
      </trkpt>
      <trkpt lat="47.00372" lon="8.64495">
        <ele>456</ele>
        <time>2021-08-05T09:09:52.437Z</time>
      </trkpt>
      <trkpt lat="47.00371" lon="8.64494">
        <ele>456</ele>
        <time>2021-08-05T09:09:53.438Z</time>
      </trkpt>
      <trkpt lat="47.00371" lon="8.64494">
        <ele>456</ele>
        <time>2021-08-05T09:09:54.438Z</time>
      </trkpt>
      <trkpt lat="47.00369" lon="8.64493">
        <ele>457</ele>
        <time>2021-08-05T09:09:55.437Z</time>
      </trkpt>
      <trkpt lat="47.00368" lon="8.64492">
        <ele>457</ele>
        <time>2021-08-05T09:09:56.437Z</time>
      </trkpt>
      <trkpt lat="47.00367" lon="8.64491">
        <ele>458</ele>
        <time>2021-08-05T09:09:57.438Z</time>
      </trkpt>
      <trkpt lat="47.00366" lon="8.6449">
        <ele>459</ele>
        <time>2021-08-05T09:09:58.438Z</time>
      </trkpt>
      <trkpt lat="47.00365" lon="8.64489">
        <ele>459</ele>
        <time>2021-08-05T09:09:59.438Z</time>
      </trkpt>
      <trkpt lat="47.00364" lon="8.64489">
        <ele>459</ele>
        <time>2021-08-05T09:10:00.437Z</time>
      </trkpt>
      <trkpt lat="47.00363" lon="8.64488">
        <ele>459</ele>
        <time>2021-08-05T09:10:01.438Z</time>
      </trkpt>
      <trkpt lat="47.00362" lon="8.64487">
        <ele>460</ele>
        <time>2021-08-05T09:10:02.438Z</time>
      </trkpt>
      <trkpt lat="47.00361" lon="8.64486">
        <ele>460</ele>
        <time>2021-08-05T09:10:03.437Z</time>
      </trkpt>
      <trkpt lat="47.0036" lon="8.64485">
        <ele>460</ele>
        <time>2021-08-05T09:10:04.438Z</time>
      </trkpt>
      <trkpt lat="47.00359" lon="8.64484">
        <ele>460</ele>
        <time>2021-08-05T09:10:05.437Z</time>
      </trkpt>
      <trkpt lat="47.00358" lon="8.64484">
        <ele>460</ele>
        <time>2021-08-05T09:10:06.438Z</time>
      </trkpt>
      <trkpt lat="47.00357" lon="8.64483">
        <ele>460</ele>
        <time>2021-08-05T09:10:07.438Z</time>
      </trkpt>
      <trkpt lat="47.00357" lon="8.64483">
        <ele>460</ele>
        <time>2021-08-05T09:10:08.437Z</time>
      </trkpt>
      <trkpt lat="47.00356" lon="8.64482">
        <ele>460</ele>
        <time>2021-08-05T09:10:09.438Z</time>
      </trkpt>
      <trkpt lat="47.00356" lon="8.64482">
        <ele>460</ele>
        <time>2021-08-05T09:10:10.438Z</time>
      </trkpt>
      <trkpt lat="47.00355" lon="8.64481">
        <ele>460</ele>
        <time>2021-08-05T09:10:11.438Z</time>
      </trkpt>
      <trkpt lat="47.00355" lon="8.6448">
        <ele>460</ele>
        <time>2021-08-05T09:10:12.437Z</time>
      </trkpt>
      <trkpt lat="47.00354" lon="8.64478">
        <ele>460</ele>
        <time>2021-08-05T09:10:13.438Z</time>
      </trkpt>
      <trkpt lat="47.00354" lon="8.64477">
        <ele>460</ele>
        <time>2021-08-05T09:10:14.437Z</time>
      </trkpt>
      <trkpt lat="47.00353" lon="8.64476">
        <ele>460</ele>
        <time>2021-08-05T09:10:15.438Z</time>
      </trkpt>
      <trkpt lat="47.00352" lon="8.64475">
        <ele>461</ele>
        <time>2021-08-05T09:10:16.438Z</time>
      </trkpt>
      <trkpt lat="47.00351" lon="8.64474">
        <ele>461</ele>
        <time>2021-08-05T09:10:17.437Z</time>
      </trkpt>
      <trkpt lat="47.00351" lon="8.64473">
        <ele>461</ele>
        <time>2021-08-05T09:10:18.438Z</time>
      </trkpt>
      <trkpt lat="47.0035" lon="8.64472">
        <ele>461</ele>
        <time>2021-08-05T09:10:19.438Z</time>
      </trkpt>
      <trkpt lat="47.00349" lon="8.64472">
        <ele>461</ele>
        <time>2021-08-05T09:10:20.438Z</time>
      </trkpt>
      <trkpt lat="47.00348" lon="8.6447">
        <ele>461</ele>
        <time>2021-08-05T09:10:21.438Z</time>
      </trkpt>
      <trkpt lat="47.00347" lon="8.6447">
        <ele>462</ele>
        <time>2021-08-05T09:10:22.437Z</time>
      </trkpt>
      <trkpt lat="47.00347" lon="8.64469">
        <ele>462</ele>
        <time>2021-08-05T09:10:23.437Z</time>
      </trkpt>
      <trkpt lat="47.00346" lon="8.64468">
        <ele>462</ele>
        <time>2021-08-05T09:10:24.438Z</time>
      </trkpt>
      <trkpt lat="47.00345" lon="8.64467">
        <ele>462</ele>
        <time>2021-08-05T09:10:25.438Z</time>
      </trkpt>
      <trkpt lat="47.00344" lon="8.64467">
        <ele>462</ele>
        <time>2021-08-05T09:10:26.437Z</time>
      </trkpt>
      <trkpt lat="47.00343" lon="8.64466">
        <ele>462</ele>
        <time>2021-08-05T09:10:27.438Z</time>
      </trkpt>
      <trkpt lat="47.00342" lon="8.64465">
        <ele>462</ele>
        <time>2021-08-05T09:10:28.438Z</time>
      </trkpt>
      <trkpt lat="47.00342" lon="8.64465">
        <ele>462</ele>
        <time>2021-08-05T09:10:29.437Z</time>
      </trkpt>
      <trkpt lat="47.00341" lon="8.64464">
        <ele>462</ele>
        <time>2021-08-05T09:10:30.437Z</time>
      </trkpt>
      <trkpt lat="47.0034" lon="8.64464">
        <ele>461</ele>
        <time>2021-08-05T09:10:31.438Z</time>
      </trkpt>
      <trkpt lat="47.00339" lon="8.64463">
        <ele>461</ele>
        <time>2021-08-05T09:10:32.438Z</time>
      </trkpt>
      <trkpt lat="47.00338" lon="8.64462">
        <ele>461</ele>
        <time>2021-08-05T09:10:33.438Z</time>
      </trkpt>
      <trkpt lat="47.00337" lon="8.64462">
        <ele>461</ele>
        <time>2021-08-05T09:10:34.437Z</time>
      </trkpt>
      <trkpt lat="47.00336" lon="8.64461">
        <ele>462</ele>
        <time>2021-08-05T09:10:35.438Z</time>
      </trkpt>
      <trkpt lat="47.00335" lon="8.6446">
        <ele>462</ele>
        <time>2021-08-05T09:10:36.437Z</time>
      </trkpt>
      <trkpt lat="47.00334" lon="8.6446">
        <ele>462</ele>
        <time>2021-08-05T09:10:37.438Z</time>
      </trkpt>
      <trkpt lat="47.00334" lon="8.6446">
        <ele>462</ele>
        <time>2021-08-05T09:10:38.438Z</time>
      </trkpt>
      <trkpt lat="47.00333" lon="8.64461">
        <ele>462</ele>
        <time>2021-08-05T09:10:39.437Z</time>
      </trkpt>
      <trkpt lat="47.00333" lon="8.64461">
        <ele>462</ele>
        <time>2021-08-05T09:10:40.438Z</time>
      </trkpt>
      <trkpt lat="47.00332" lon="8.64461">
        <ele>462</ele>
        <time>2021-08-05T09:10:41.438Z</time>
      </trkpt>
      <trkpt lat="47.00331" lon="8.64461">
        <ele>462</ele>
        <time>2021-08-05T09:10:42.438Z</time>
      </trkpt>
      <trkpt lat="47.0033" lon="8.6446">
        <ele>462</ele>
        <time>2021-08-05T09:10:43.438Z</time>
      </trkpt>
      <trkpt lat="47.0033" lon="8.64461">
        <ele>462</ele>
        <time>2021-08-05T09:10:44.438Z</time>
      </trkpt>
      <trkpt lat="47.0033" lon="8.6446">
        <ele>461</ele>
        <time>2021-08-05T09:10:45.437Z</time>
      </trkpt>
      <trkpt lat="47.00329" lon="8.6446">
        <ele>461</ele>
        <time>2021-08-05T09:10:46.437Z</time>
      </trkpt>
      <trkpt lat="47.00329" lon="8.64461">
        <ele>461</ele>
        <time>2021-08-05T09:10:47.438Z</time>
      </trkpt>
      <trkpt lat="47.00328" lon="8.6446">
        <ele>461</ele>
        <time>2021-08-05T09:10:48.438Z</time>
      </trkpt>
      <trkpt lat="47.00327" lon="8.64459">
        <ele>462</ele>
        <time>2021-08-05T09:10:49.438Z</time>
      </trkpt>
      <trkpt lat="47.00325" lon="8.64458">
        <ele>462</ele>
        <time>2021-08-05T09:10:50.438Z</time>
      </trkpt>
      <trkpt lat="47.00324" lon="8.64457">
        <ele>462</ele>
        <time>2021-08-05T09:10:51.437Z</time>
      </trkpt>
      <trkpt lat="47.00323" lon="8.64457">
        <ele>463</ele>
        <time>2021-08-05T09:10:52.437Z</time>
      </trkpt>
      <trkpt lat="47.00322" lon="8.64456">
        <ele>463</ele>
        <time>2021-08-05T09:10:53.438Z</time>
      </trkpt>
      <trkpt lat="47.00321" lon="8.64455">
        <ele>464</ele>
        <time>2021-08-05T09:10:54.438Z</time>
      </trkpt>
      <trkpt lat="47.0032" lon="8.64454">
        <ele>464</ele>
        <time>2021-08-05T09:10:55.438Z</time>
      </trkpt>
      <trkpt lat="47.00319" lon="8.64453">
        <ele>465</ele>
        <time>2021-08-05T09:10:56.438Z</time>
      </trkpt>
      <trkpt lat="47.00318" lon="8.64452">
        <ele>466</ele>
        <time>2021-08-05T09:10:57.437Z</time>
      </trkpt>
      <trkpt lat="47.00317" lon="8.64452">
        <ele>466</ele>
        <time>2021-08-05T09:10:58.438Z</time>
      </trkpt>
      <trkpt lat="47.00316" lon="8.64452">
        <ele>467</ele>
        <time>2021-08-05T09:10:59.438Z</time>
      </trkpt>
      <trkpt lat="47.00316" lon="8.64452">
        <ele>467</ele>
        <time>2021-08-05T09:11:00.437Z</time>
      </trkpt>
      <trkpt lat="47.00314" lon="8.64451">
        <ele>467</ele>
        <time>2021-08-05T09:11:01.438Z</time>
      </trkpt>
      <trkpt lat="47.00313" lon="8.64451">
        <ele>467</ele>
        <time>2021-08-05T09:11:02.437Z</time>
      </trkpt>
      <trkpt lat="47.00313" lon="8.6445">
        <ele>467</ele>
        <time>2021-08-05T09:11:03.438Z</time>
      </trkpt>
      <trkpt lat="47.00312" lon="8.6445">
        <ele>467</ele>
        <time>2021-08-05T09:11:04.438Z</time>
      </trkpt>
      <trkpt lat="47.00311" lon="8.64449">
        <ele>467</ele>
        <time>2021-08-05T09:11:05.438Z</time>
      </trkpt>
      <trkpt lat="47.0031" lon="8.64448">
        <ele>467</ele>
        <time>2021-08-05T09:11:06.437Z</time>
      </trkpt>
      <trkpt lat="47.00309" lon="8.64448">
        <ele>467</ele>
        <time>2021-08-05T09:11:07.438Z</time>
      </trkpt>
      <trkpt lat="47.00308" lon="8.64449">
        <ele>466</ele>
        <time>2021-08-05T09:11:08.437Z</time>
      </trkpt>
      <trkpt lat="47.00308" lon="8.6445">
        <ele>466</ele>
        <time>2021-08-05T09:11:09.438Z</time>
      </trkpt>
      <trkpt lat="47.00308" lon="8.6445">
        <ele>465</ele>
        <time>2021-08-05T09:11:10.438Z</time>
      </trkpt>
      <trkpt lat="47.00308" lon="8.64451">
        <ele>464</ele>
        <time>2021-08-05T09:11:11.438Z</time>
      </trkpt>
      <trkpt lat="47.00307" lon="8.64451">
        <ele>463</ele>
        <time>2021-08-05T09:11:12.439Z</time>
      </trkpt>
      <trkpt lat="47.00306" lon="8.64449">
        <ele>462</ele>
        <time>2021-08-05T09:11:13.438Z</time>
      </trkpt>
      <trkpt lat="47.00305" lon="8.64448">
        <ele>462</ele>
        <time>2021-08-05T09:11:14.439Z</time>
      </trkpt>
      <trkpt lat="47.00305" lon="8.64448">
        <ele>462</ele>
        <time>2021-08-05T09:11:15.439Z</time>
      </trkpt>
      <trkpt lat="47.00303" lon="8.64447">
        <ele>462</ele>
        <time>2021-08-05T09:11:16.438Z</time>
      </trkpt>
      <trkpt lat="47.00303" lon="8.64446">
        <ele>462</ele>
        <time>2021-08-05T09:11:17.438Z</time>
      </trkpt>
      <trkpt lat="47.00302" lon="8.64445">
        <ele>462</ele>
        <time>2021-08-05T09:11:18.439Z</time>
      </trkpt>
      <trkpt lat="47.00301" lon="8.64445">
        <ele>462</ele>
        <time>2021-08-05T09:11:19.439Z</time>
      </trkpt>
      <trkpt lat="47.003" lon="8.64443">
        <ele>462</ele>
        <time>2021-08-05T09:11:20.439Z</time>
      </trkpt>
      <trkpt lat="47.00299" lon="8.64443">
        <ele>462</ele>
        <time>2021-08-05T09:11:21.439Z</time>
      </trkpt>
      <trkpt lat="47.00298" lon="8.64442">
        <ele>462</ele>
        <time>2021-08-05T09:11:22.438Z</time>
      </trkpt>
      <trkpt lat="47.00297" lon="8.64442">
        <ele>462</ele>
        <time>2021-08-05T09:11:23.439Z</time>
      </trkpt>
      <trkpt lat="47.00297" lon="8.64441">
        <ele>462</ele>
        <time>2021-08-05T09:11:24.439Z</time>
      </trkpt>
      <trkpt lat="47.00296" lon="8.64441">
        <ele>462</ele>
        <time>2021-08-05T09:11:25.439Z</time>
      </trkpt>
      <trkpt lat="47.00295" lon="8.64441">
        <ele>462</ele>
        <time>2021-08-05T09:11:26.439Z</time>
      </trkpt>
      <trkpt lat="47.00293" lon="8.64441">
        <ele>462</ele>
        <time>2021-08-05T09:11:27.439Z</time>
      </trkpt>
      <trkpt lat="47.00293" lon="8.64441">
        <ele>461</ele>
        <time>2021-08-05T09:11:28.439Z</time>
      </trkpt>
      <trkpt lat="47.00292" lon="8.64441">
        <ele>461</ele>
        <time>2021-08-05T09:11:29.438Z</time>
      </trkpt>
      <trkpt lat="47.00291" lon="8.6444">
        <ele>461</ele>
        <time>2021-08-05T09:11:30.439Z</time>
      </trkpt>
      <trkpt lat="47.0029" lon="8.6444">
        <ele>461</ele>
        <time>2021-08-05T09:11:31.439Z</time>
      </trkpt>
      <trkpt lat="47.0029" lon="8.64439">
        <ele>461</ele>
        <time>2021-08-05T09:11:32.439Z</time>
      </trkpt>
      <trkpt lat="47.00289" lon="8.64439">
        <ele>461</ele>
        <time>2021-08-05T09:11:33.439Z</time>
      </trkpt>
      <trkpt lat="47.00288" lon="8.64439">
        <ele>461</ele>
        <time>2021-08-05T09:11:34.439Z</time>
      </trkpt>
      <trkpt lat="47.00287" lon="8.64439">
        <ele>460</ele>
        <time>2021-08-05T09:11:35.438Z</time>
      </trkpt>
      <trkpt lat="47.00286" lon="8.64438">
        <ele>460</ele>
        <time>2021-08-05T09:11:36.439Z</time>
      </trkpt>
      <trkpt lat="47.00285" lon="8.64438">
        <ele>460</ele>
        <time>2021-08-05T09:11:37.439Z</time>
      </trkpt>
      <trkpt lat="47.00284" lon="8.64437">
        <ele>460</ele>
        <time>2021-08-05T09:11:38.439Z</time>
      </trkpt>
      <trkpt lat="47.00283" lon="8.64436">
        <ele>460</ele>
        <time>2021-08-05T09:11:39.439Z</time>
      </trkpt>
      <trkpt lat="47.00282" lon="8.64436">
        <ele>459</ele>
        <time>2021-08-05T09:11:40.439Z</time>
      </trkpt>
      <trkpt lat="47.00281" lon="8.64435">
        <ele>459</ele>
        <time>2021-08-05T09:11:41.438Z</time>
      </trkpt>
      <trkpt lat="47.00281" lon="8.64434">
        <ele>459</ele>
        <time>2021-08-05T09:11:42.439Z</time>
      </trkpt>
      <trkpt lat="47.0028" lon="8.64435">
        <ele>459</ele>
        <time>2021-08-05T09:11:43.438Z</time>
      </trkpt>
      <trkpt lat="47.0028" lon="8.64434">
        <ele>458</ele>
        <time>2021-08-05T09:11:44.438Z</time>
      </trkpt>
      <trkpt lat="47.00279" lon="8.64434">
        <ele>458</ele>
        <time>2021-08-05T09:11:45.438Z</time>
      </trkpt>
      <trkpt lat="47.00278" lon="8.64433">
        <ele>458</ele>
        <time>2021-08-05T09:11:46.438Z</time>
      </trkpt>
      <trkpt lat="47.00277" lon="8.64433">
        <ele>459</ele>
        <time>2021-08-05T09:11:47.438Z</time>
      </trkpt>
      <trkpt lat="47.00277" lon="8.64434">
        <ele>459</ele>
        <time>2021-08-05T09:11:48.439Z</time>
      </trkpt>
      <trkpt lat="47.00276" lon="8.64434">
        <ele>460</ele>
        <time>2021-08-05T09:11:49.439Z</time>
      </trkpt>
      <trkpt lat="47.00275" lon="8.64435">
        <ele>461</ele>
        <time>2021-08-05T09:11:50.438Z</time>
      </trkpt>
      <trkpt lat="47.00273" lon="8.64434">
        <ele>461</ele>
        <time>2021-08-05T09:11:51.438Z</time>
      </trkpt>
      <trkpt lat="47.00273" lon="8.64434">
        <ele>461</ele>
        <time>2021-08-05T09:11:52.438Z</time>
      </trkpt>
      <trkpt lat="47.00272" lon="8.64434">
        <ele>462</ele>
        <time>2021-08-05T09:11:53.438Z</time>
      </trkpt>
      <trkpt lat="47.00271" lon="8.64434">
        <ele>462</ele>
        <time>2021-08-05T09:11:54.439Z</time>
      </trkpt>
      <trkpt lat="47.0027" lon="8.64434">
        <ele>462</ele>
        <time>2021-08-05T09:11:55.439Z</time>
      </trkpt>
      <trkpt lat="47.0027" lon="8.64434">
        <ele>462</ele>
        <time>2021-08-05T09:11:56.439Z</time>
      </trkpt>
      <trkpt lat="47.00269" lon="8.64434">
        <ele>463</ele>
        <time>2021-08-05T09:11:57.438Z</time>
      </trkpt>
      <trkpt lat="47.00269" lon="8.64433">
        <ele>463</ele>
        <time>2021-08-05T09:11:58.439Z</time>
      </trkpt>
      <trkpt lat="47.00268" lon="8.64433">
        <ele>463</ele>
        <time>2021-08-05T09:11:59.438Z</time>
      </trkpt>
      <trkpt lat="47.00268" lon="8.64433">
        <ele>463</ele>
        <time>2021-08-05T09:12:00.438Z</time>
      </trkpt>
      <trkpt lat="47.00267" lon="8.64433">
        <ele>463</ele>
        <time>2021-08-05T09:12:01.439Z</time>
      </trkpt>
      <trkpt lat="47.00267" lon="8.64433">
        <ele>463</ele>
        <time>2021-08-05T09:12:02.439Z</time>
      </trkpt>
      <trkpt lat="47.00266" lon="8.64433">
        <ele>464</ele>
        <time>2021-08-05T09:12:03.438Z</time>
      </trkpt>
      <trkpt lat="47.00266" lon="8.64433">
        <ele>464</ele>
        <time>2021-08-05T09:12:04.439Z</time>
      </trkpt>
      <trkpt lat="47.00265" lon="8.64433">
        <ele>464</ele>
        <time>2021-08-05T09:12:05.438Z</time>
      </trkpt>
      <trkpt lat="47.00265" lon="8.64433">
        <ele>464</ele>
        <time>2021-08-05T09:12:06.439Z</time>
      </trkpt>
      <trkpt lat="47.00264" lon="8.64433">
        <ele>464</ele>
        <time>2021-08-05T09:12:07.439Z</time>
      </trkpt>
      <trkpt lat="47.00263" lon="8.64433">
        <ele>464</ele>
        <time>2021-08-05T09:12:08.439Z</time>
      </trkpt>
      <trkpt lat="47.00262" lon="8.64434">
        <ele>464</ele>
        <time>2021-08-05T09:12:09.438Z</time>
      </trkpt>
      <trkpt lat="47.00261" lon="8.64434">
        <ele>464</ele>
        <time>2021-08-05T09:12:10.438Z</time>
      </trkpt>
      <trkpt lat="47.0026" lon="8.64434">
        <ele>464</ele>
        <time>2021-08-05T09:12:11.439Z</time>
      </trkpt>
      <trkpt lat="47.00259" lon="8.64434">
        <ele>464</ele>
        <time>2021-08-05T09:12:12.438Z</time>
      </trkpt>
      <trkpt lat="47.00257" lon="8.64434">
        <ele>463</ele>
        <time>2021-08-05T09:12:13.439Z</time>
      </trkpt>
      <trkpt lat="47.00256" lon="8.64435">
        <ele>463</ele>
        <time>2021-08-05T09:12:14.439Z</time>
      </trkpt>
      <trkpt lat="47.00255" lon="8.64437">
        <ele>463</ele>
        <time>2021-08-05T09:12:15.438Z</time>
      </trkpt>
      <trkpt lat="47.00254" lon="8.64437">
        <ele>462</ele>
        <time>2021-08-05T09:12:16.439Z</time>
      </trkpt>
      <trkpt lat="47.00253" lon="8.64438">
        <ele>462</ele>
        <time>2021-08-05T09:12:17.438Z</time>
      </trkpt>
      <trkpt lat="47.00252" lon="8.64439">
        <ele>462</ele>
        <time>2021-08-05T09:12:18.439Z</time>
      </trkpt>
      <trkpt lat="47.0025" lon="8.6444">
        <ele>462</ele>
        <time>2021-08-05T09:12:19.439Z</time>
      </trkpt>
      <trkpt lat="47.0025" lon="8.6444">
        <ele>462</ele>
        <time>2021-08-05T09:12:20.439Z</time>
      </trkpt>
      <trkpt lat="47.00249" lon="8.6444">
        <ele>462</ele>
        <time>2021-08-05T09:12:21.438Z</time>
      </trkpt>
      <trkpt lat="47.00248" lon="8.6444">
        <ele>462</ele>
        <time>2021-08-05T09:12:22.439Z</time>
      </trkpt>
      <trkpt lat="47.00247" lon="8.64441">
        <ele>461</ele>
        <time>2021-08-05T09:12:23.439Z</time>
      </trkpt>
      <trkpt lat="47.00247" lon="8.64441">
        <ele>461</ele>
        <time>2021-08-05T09:12:24.438Z</time>
      </trkpt>
      <trkpt lat="47.00246" lon="8.64441">
        <ele>460</ele>
        <time>2021-08-05T09:12:25.439Z</time>
      </trkpt>
      <trkpt lat="47.00246" lon="8.64441">
        <ele>460</ele>
        <time>2021-08-05T09:12:26.439Z</time>
      </trkpt>
      <trkpt lat="47.00244" lon="8.64441">
        <ele>459</ele>
        <time>2021-08-05T09:12:27.438Z</time>
      </trkpt>
      <trkpt lat="47.00243" lon="8.64441">
        <ele>459</ele>
        <time>2021-08-05T09:12:28.439Z</time>
      </trkpt>
      <trkpt lat="47.00241" lon="8.64441">
        <ele>459</ele>
        <time>2021-08-05T09:12:29.439Z</time>
      </trkpt>
      <trkpt lat="47.00241" lon="8.64441">
        <ele>459</ele>
        <time>2021-08-05T09:12:30.438Z</time>
      </trkpt>
      <trkpt lat="47.0024" lon="8.6444">
        <ele>459</ele>
        <time>2021-08-05T09:12:31.438Z</time>
      </trkpt>
      <trkpt lat="47.00239" lon="8.64441">
        <ele>459</ele>
        <time>2021-08-05T09:12:32.439Z</time>
      </trkpt>
      <trkpt lat="47.00239" lon="8.64441">
        <ele>459</ele>
        <time>2021-08-05T09:12:33.439Z</time>
      </trkpt>
      <trkpt lat="47.00239" lon="8.64441">
        <ele>459</ele>
        <time>2021-08-05T09:12:34.438Z</time>
      </trkpt>
      <trkpt lat="47.00238" lon="8.64441">
        <ele>459</ele>
        <time>2021-08-05T09:12:35.439Z</time>
      </trkpt>
      <trkpt lat="47.00237" lon="8.64441">
        <ele>459</ele>
        <time>2021-08-05T09:12:36.439Z</time>
      </trkpt>
      <trkpt lat="47.00237" lon="8.64441">
        <ele>459</ele>
        <time>2021-08-05T09:12:37.439Z</time>
      </trkpt>
      <trkpt lat="47.00236" lon="8.64442">
        <ele>459</ele>
        <time>2021-08-05T09:12:38.439Z</time>
      </trkpt>
      <trkpt lat="47.00235" lon="8.64442">
        <ele>459</ele>
        <time>2021-08-05T09:12:39.438Z</time>
      </trkpt>
      <trkpt lat="47.00234" lon="8.64443">
        <ele>459</ele>
        <time>2021-08-05T09:12:40.438Z</time>
      </trkpt>
      <trkpt lat="47.00234" lon="8.64443">
        <ele>459</ele>
        <time>2021-08-05T09:12:41.439Z</time>
      </trkpt>
      <trkpt lat="47.00234" lon="8.64443">
        <ele>460</ele>
        <time>2021-08-05T09:12:42.438Z</time>
      </trkpt>
      <trkpt lat="47.00233" lon="8.64444">
        <ele>460</ele>
        <time>2021-08-05T09:12:43.439Z</time>
      </trkpt>
      <trkpt lat="47.00233" lon="8.64444">
        <ele>460</ele>
        <time>2021-08-05T09:12:44.439Z</time>
      </trkpt>
      <trkpt lat="47.00232" lon="8.64445">
        <ele>461</ele>
        <time>2021-08-05T09:12:45.439Z</time>
      </trkpt>
      <trkpt lat="47.00231" lon="8.64445">
        <ele>461</ele>
        <time>2021-08-05T09:12:46.438Z</time>
      </trkpt>
      <trkpt lat="47.00231" lon="8.64446">
        <ele>462</ele>
        <time>2021-08-05T09:12:47.438Z</time>
      </trkpt>
      <trkpt lat="47.00231" lon="8.64447">
        <ele>462</ele>
        <time>2021-08-05T09:12:48.439Z</time>
      </trkpt>
      <trkpt lat="47.0023" lon="8.64448">
        <ele>462</ele>
        <time>2021-08-05T09:12:49.438Z</time>
      </trkpt>
      <trkpt lat="47.00229" lon="8.64449">
        <ele>463</ele>
        <time>2021-08-05T09:12:50.439Z</time>
      </trkpt>
      <trkpt lat="47.00228" lon="8.6445">
        <ele>463</ele>
        <time>2021-08-05T09:12:51.438Z</time>
      </trkpt>
      <trkpt lat="47.00226" lon="8.64451">
        <ele>463</ele>
        <time>2021-08-05T09:12:52.439Z</time>
      </trkpt>
      <trkpt lat="47.00225" lon="8.64452">
        <ele>464</ele>
        <time>2021-08-05T09:12:53.439Z</time>
      </trkpt>
      <trkpt lat="47.00225" lon="8.64453">
        <ele>464</ele>
        <time>2021-08-05T09:12:54.438Z</time>
      </trkpt>
      <trkpt lat="47.00225" lon="8.64454">
        <ele>464</ele>
        <time>2021-08-05T09:12:55.439Z</time>
      </trkpt>
      <trkpt lat="47.00224" lon="8.64454">
        <ele>464</ele>
        <time>2021-08-05T09:12:56.439Z</time>
      </trkpt>
      <trkpt lat="47.00224" lon="8.64455">
        <ele>464</ele>
        <time>2021-08-05T09:12:57.438Z</time>
      </trkpt>
      <trkpt lat="47.00223" lon="8.64456">
        <ele>464</ele>
        <time>2021-08-05T09:12:58.439Z</time>
      </trkpt>
      <trkpt lat="47.00222" lon="8.64456">
        <ele>464</ele>
        <time>2021-08-05T09:12:59.438Z</time>
      </trkpt>
      <trkpt lat="47.00222" lon="8.64456">
        <ele>464</ele>
        <time>2021-08-05T09:13:00.438Z</time>
      </trkpt>
      <trkpt lat="47.00221" lon="8.64456">
        <ele>465</ele>
        <time>2021-08-05T09:13:01.438Z</time>
      </trkpt>
      <trkpt lat="47.00221" lon="8.64457">
        <ele>465</ele>
        <time>2021-08-05T09:13:02.438Z</time>
      </trkpt>
      <trkpt lat="47.0022" lon="8.64458">
        <ele>465</ele>
        <time>2021-08-05T09:13:03.438Z</time>
      </trkpt>
      <trkpt lat="47.00218" lon="8.64459">
        <ele>465</ele>
        <time>2021-08-05T09:13:04.438Z</time>
      </trkpt>
      <trkpt lat="47.00218" lon="8.6446">
        <ele>465</ele>
        <time>2021-08-05T09:13:05.438Z</time>
      </trkpt>
      <trkpt lat="47.00217" lon="8.64461">
        <ele>465</ele>
        <time>2021-08-05T09:13:06.439Z</time>
      </trkpt>
      <trkpt lat="47.00217" lon="8.64461">
        <ele>465</ele>
        <time>2021-08-05T09:13:07.438Z</time>
      </trkpt>
      <trkpt lat="47.00216" lon="8.64461">
        <ele>465</ele>
        <time>2021-08-05T09:13:08.438Z</time>
      </trkpt>
      <trkpt lat="47.00215" lon="8.64462">
        <ele>465</ele>
        <time>2021-08-05T09:13:09.438Z</time>
      </trkpt>
      <trkpt lat="47.00214" lon="8.64463">
        <ele>465</ele>
        <time>2021-08-05T09:13:10.439Z</time>
      </trkpt>
      <trkpt lat="47.00213" lon="8.64463">
        <ele>465</ele>
        <time>2021-08-05T09:13:11.438Z</time>
      </trkpt>
      <trkpt lat="47.00212" lon="8.64464">
        <ele>465</ele>
        <time>2021-08-05T09:13:12.438Z</time>
      </trkpt>
      <trkpt lat="47.00211" lon="8.64464">
        <ele>465</ele>
        <time>2021-08-05T09:13:13.439Z</time>
      </trkpt>
      <trkpt lat="47.0021" lon="8.64464">
        <ele>464</ele>
        <time>2021-08-05T09:13:14.438Z</time>
      </trkpt>
      <trkpt lat="47.00209" lon="8.64465">
        <ele>464</ele>
        <time>2021-08-05T09:13:15.438Z</time>
      </trkpt>
      <trkpt lat="47.00208" lon="8.64466">
        <ele>464</ele>
        <time>2021-08-05T09:13:16.438Z</time>
      </trkpt>
      <trkpt lat="47.00207" lon="8.64467">
        <ele>464</ele>
        <time>2021-08-05T09:13:17.439Z</time>
      </trkpt>
      <trkpt lat="47.00206" lon="8.64467">
        <ele>464</ele>
        <time>2021-08-05T09:13:18.439Z</time>
      </trkpt>
      <trkpt lat="47.00205" lon="8.64468">
        <ele>464</ele>
        <time>2021-08-05T09:13:19.439Z</time>
      </trkpt>
      <trkpt lat="47.00204" lon="8.64468">
        <ele>465</ele>
        <time>2021-08-05T09:13:20.438Z</time>
      </trkpt>
      <trkpt lat="47.00204" lon="8.64468">
        <ele>465</ele>
        <time>2021-08-05T09:13:21.439Z</time>
      </trkpt>
      <trkpt lat="47.00203" lon="8.64468">
        <ele>465</ele>
        <time>2021-08-05T09:13:22.439Z</time>
      </trkpt>
      <trkpt lat="47.00203" lon="8.64468">
        <ele>465</ele>
        <time>2021-08-05T09:13:23.438Z</time>
      </trkpt>
      <trkpt lat="47.00203" lon="8.64468">
        <ele>465</ele>
        <time>2021-08-05T09:13:24.438Z</time>
      </trkpt>
      <trkpt lat="47.00202" lon="8.64468">
        <ele>465</ele>
        <time>2021-08-05T09:13:25.439Z</time>
      </trkpt>
      <trkpt lat="47.00201" lon="8.64469">
        <ele>465</ele>
        <time>2021-08-05T09:13:26.439Z</time>
      </trkpt>
      <trkpt lat="47.00199" lon="8.6447">
        <ele>465</ele>
        <time>2021-08-05T09:13:27.439Z</time>
      </trkpt>
      <trkpt lat="47.00199" lon="8.6447">
        <ele>465</ele>
        <time>2021-08-05T09:13:28.439Z</time>
      </trkpt>
      <trkpt lat="47.00199" lon="8.64471">
        <ele>465</ele>
        <time>2021-08-05T09:13:29.439Z</time>
      </trkpt>
      <trkpt lat="47.00198" lon="8.64471">
        <ele>465</ele>
        <time>2021-08-05T09:13:30.439Z</time>
      </trkpt>
      <trkpt lat="47.00197" lon="8.64471">
        <ele>465</ele>
        <time>2021-08-05T09:13:31.439Z</time>
      </trkpt>
      <trkpt lat="47.00196" lon="8.64471">
        <ele>465</ele>
        <time>2021-08-05T09:13:32.439Z</time>
      </trkpt>
      <trkpt lat="47.00195" lon="8.64472">
        <ele>465</ele>
        <time>2021-08-05T09:13:33.438Z</time>
      </trkpt>
      <trkpt lat="47.00194" lon="8.64471">
        <ele>465</ele>
        <time>2021-08-05T09:13:34.439Z</time>
      </trkpt>
      <trkpt lat="47.00193" lon="8.64471">
        <ele>465</ele>
        <time>2021-08-05T09:13:35.439Z</time>
      </trkpt>
      <trkpt lat="47.00192" lon="8.64471">
        <ele>465</ele>
        <time>2021-08-05T09:13:36.439Z</time>
      </trkpt>
      <trkpt lat="47.00192" lon="8.64471">
        <ele>465</ele>
        <time>2021-08-05T09:13:37.439Z</time>
      </trkpt>
      <trkpt lat="47.00191" lon="8.64471">
        <ele>465</ele>
        <time>2021-08-05T09:13:38.438Z</time>
      </trkpt>
      <trkpt lat="47.0019" lon="8.64472">
        <ele>465</ele>
        <time>2021-08-05T09:13:39.439Z</time>
      </trkpt>
      <trkpt lat="47.0019" lon="8.64472">
        <ele>465</ele>
        <time>2021-08-05T09:13:40.439Z</time>
      </trkpt>
      <trkpt lat="47.00189" lon="8.64472">
        <ele>465</ele>
        <time>2021-08-05T09:13:41.439Z</time>
      </trkpt>
      <trkpt lat="47.00189" lon="8.64472">
        <ele>466</ele>
        <time>2021-08-05T09:13:42.439Z</time>
      </trkpt>
      <trkpt lat="47.00188" lon="8.64473">
        <ele>466</ele>
        <time>2021-08-05T09:13:43.438Z</time>
      </trkpt>
      <trkpt lat="47.00187" lon="8.64473">
        <ele>467</ele>
        <time>2021-08-05T09:13:44.439Z</time>
      </trkpt>
      <trkpt lat="47.00187" lon="8.64474">
        <ele>467</ele>
        <time>2021-08-05T09:13:45.439Z</time>
      </trkpt>
      <trkpt lat="47.00186" lon="8.64474">
        <ele>467</ele>
        <time>2021-08-05T09:13:46.439Z</time>
      </trkpt>
      <trkpt lat="47.00185" lon="8.64475">
        <ele>468</ele>
        <time>2021-08-05T09:13:47.439Z</time>
      </trkpt>
      <trkpt lat="47.00184" lon="8.64475">
        <ele>468</ele>
        <time>2021-08-05T09:13:48.439Z</time>
      </trkpt>
      <trkpt lat="47.00182" lon="8.64475">
        <ele>469</ele>
        <time>2021-08-05T09:13:49.439Z</time>
      </trkpt>
      <trkpt lat="47.00182" lon="8.64474">
        <ele>470</ele>
        <time>2021-08-05T09:13:50.438Z</time>
      </trkpt>
      <trkpt lat="47.00181" lon="8.64473">
        <ele>471</ele>
        <time>2021-08-05T09:13:51.438Z</time>
      </trkpt>
      <trkpt lat="47.00181" lon="8.64473">
        <ele>472</ele>
        <time>2021-08-05T09:13:52.439Z</time>
      </trkpt>
      <trkpt lat="47.0018" lon="8.64473">
        <ele>472</ele>
        <time>2021-08-05T09:13:53.438Z</time>
      </trkpt>
      <trkpt lat="47.00179" lon="8.64473">
        <ele>473</ele>
        <time>2021-08-05T09:13:54.439Z</time>
      </trkpt>
      <trkpt lat="47.00178" lon="8.64472">
        <ele>473</ele>
        <time>2021-08-05T09:13:55.439Z</time>
      </trkpt>
      <trkpt lat="47.00178" lon="8.64472">
        <ele>474</ele>
        <time>2021-08-05T09:13:56.439Z</time>
      </trkpt>
      <trkpt lat="47.00177" lon="8.64472">
        <ele>474</ele>
        <time>2021-08-05T09:13:57.439Z</time>
      </trkpt>
      <trkpt lat="47.00176" lon="8.64472">
        <ele>475</ele>
        <time>2021-08-05T09:13:58.439Z</time>
      </trkpt>
      <trkpt lat="47.00175" lon="8.64473">
        <ele>476</ele>
        <time>2021-08-05T09:13:59.438Z</time>
      </trkpt>
      <trkpt lat="47.00174" lon="8.64474">
        <ele>476</ele>
        <time>2021-08-05T09:14:00.439Z</time>
      </trkpt>
      <trkpt lat="47.00174" lon="8.64475">
        <ele>477</ele>
        <time>2021-08-05T09:14:01.438Z</time>
      </trkpt>
      <trkpt lat="47.00173" lon="8.64475">
        <ele>477</ele>
        <time>2021-08-05T09:14:02.439Z</time>
      </trkpt>
      <trkpt lat="47.00172" lon="8.64476">
        <ele>477</ele>
        <time>2021-08-05T09:14:03.439Z</time>
      </trkpt>
      <trkpt lat="47.00172" lon="8.64476">
        <ele>477</ele>
        <time>2021-08-05T09:14:04.438Z</time>
      </trkpt>
      <trkpt lat="47.00171" lon="8.64477">
        <ele>477</ele>
        <time>2021-08-05T09:14:05.439Z</time>
      </trkpt>
      <trkpt lat="47.0017" lon="8.64477">
        <ele>477</ele>
        <time>2021-08-05T09:14:06.439Z</time>
      </trkpt>
      <trkpt lat="47.00169" lon="8.64478">
        <ele>477</ele>
        <time>2021-08-05T09:14:07.439Z</time>
      </trkpt>
      <trkpt lat="47.00169" lon="8.64478">
        <ele>477</ele>
        <time>2021-08-05T09:14:08.438Z</time>
      </trkpt>
      <trkpt lat="47.00168" lon="8.64478">
        <ele>477</ele>
        <time>2021-08-05T09:14:09.439Z</time>
      </trkpt>
      <trkpt lat="47.00167" lon="8.64479">
        <ele>477</ele>
        <time>2021-08-05T09:14:10.439Z</time>
      </trkpt>
      <trkpt lat="47.00166" lon="8.64479">
        <ele>477</ele>
        <time>2021-08-05T09:14:11.438Z</time>
      </trkpt>
      <trkpt lat="47.00166" lon="8.64479">
        <ele>477</ele>
        <time>2021-08-05T09:14:12.438Z</time>
      </trkpt>
      <trkpt lat="47.00165" lon="8.6448">
        <ele>477</ele>
        <time>2021-08-05T09:14:13.438Z</time>
      </trkpt>
      <trkpt lat="47.00164" lon="8.6448">
        <ele>477</ele>
        <time>2021-08-05T09:14:14.439Z</time>
      </trkpt>
      <trkpt lat="47.00163" lon="8.6448">
        <ele>478</ele>
        <time>2021-08-05T09:14:15.438Z</time>
      </trkpt>
      <trkpt lat="47.00162" lon="8.6448">
        <ele>478</ele>
        <time>2021-08-05T09:14:16.438Z</time>
      </trkpt>
      <trkpt lat="47.00161" lon="8.6448">
        <ele>478</ele>
        <time>2021-08-05T09:14:17.438Z</time>
      </trkpt>
      <trkpt lat="47.0016" lon="8.64479">
        <ele>477</ele>
        <time>2021-08-05T09:14:18.439Z</time>
      </trkpt>
      <trkpt lat="47.0016" lon="8.6448">
        <ele>477</ele>
        <time>2021-08-05T09:14:19.438Z</time>
      </trkpt>
      <trkpt lat="47.00159" lon="8.6448">
        <ele>477</ele>
        <time>2021-08-05T09:14:20.438Z</time>
      </trkpt>
      <trkpt lat="47.00159" lon="8.6448">
        <ele>477</ele>
        <time>2021-08-05T09:14:21.438Z</time>
      </trkpt>
      <trkpt lat="47.00158" lon="8.6448">
        <ele>477</ele>
        <time>2021-08-05T09:14:22.438Z</time>
      </trkpt>
      <trkpt lat="47.00157" lon="8.6448">
        <ele>477</ele>
        <time>2021-08-05T09:14:23.439Z</time>
      </trkpt>
      <trkpt lat="47.00156" lon="8.6448">
        <ele>477</ele>
        <time>2021-08-05T09:14:24.438Z</time>
      </trkpt>
      <trkpt lat="47.00155" lon="8.64481">
        <ele>476</ele>
        <time>2021-08-05T09:14:25.438Z</time>
      </trkpt>
      <trkpt lat="47.00155" lon="8.64481">
        <ele>476</ele>
        <time>2021-08-05T09:14:26.439Z</time>
      </trkpt>
      <trkpt lat="47.00154" lon="8.64481">
        <ele>476</ele>
        <time>2021-08-05T09:14:27.439Z</time>
      </trkpt>
      <trkpt lat="47.00153" lon="8.64481">
        <ele>477</ele>
        <time>2021-08-05T09:14:28.438Z</time>
      </trkpt>
      <trkpt lat="47.00153" lon="8.64481">
        <ele>477</ele>
        <time>2021-08-05T09:14:29.438Z</time>
      </trkpt>
      <trkpt lat="47.00152" lon="8.64482">
        <ele>477</ele>
        <time>2021-08-05T09:14:30.439Z</time>
      </trkpt>
      <trkpt lat="47.00151" lon="8.64482">
        <ele>477</ele>
        <time>2021-08-05T09:14:31.439Z</time>
      </trkpt>
      <trkpt lat="47.00151" lon="8.64482">
        <ele>476</ele>
        <time>2021-08-05T09:14:32.438Z</time>
      </trkpt>
      <trkpt lat="47.0015" lon="8.64482">
        <ele>476</ele>
        <time>2021-08-05T09:14:33.439Z</time>
      </trkpt>
      <trkpt lat="47.00149" lon="8.64483">
        <ele>476</ele>
        <time>2021-08-05T09:14:34.438Z</time>
      </trkpt>
      <trkpt lat="47.00149" lon="8.64483">
        <ele>475</ele>
        <time>2021-08-05T09:14:35.438Z</time>
      </trkpt>
      <trkpt lat="47.00148" lon="8.64483">
        <ele>475</ele>
        <time>2021-08-05T09:14:36.439Z</time>
      </trkpt>
      <trkpt lat="47.00147" lon="8.64484">
        <ele>475</ele>
        <time>2021-08-05T09:14:37.439Z</time>
      </trkpt>
      <trkpt lat="47.00146" lon="8.64484">
        <ele>474</ele>
        <time>2021-08-05T09:14:38.439Z</time>
      </trkpt>
      <trkpt lat="47.00145" lon="8.64484">
        <ele>474</ele>
        <time>2021-08-05T09:14:39.438Z</time>
      </trkpt>
      <trkpt lat="47.00145" lon="8.64484">
        <ele>474</ele>
        <time>2021-08-05T09:14:40.439Z</time>
      </trkpt>
      <trkpt lat="47.00144" lon="8.64484">
        <ele>474</ele>
        <time>2021-08-05T09:14:41.439Z</time>
      </trkpt>
      <trkpt lat="47.00143" lon="8.64484">
        <ele>474</ele>
        <time>2021-08-05T09:14:42.439Z</time>
      </trkpt>
      <trkpt lat="47.00143" lon="8.64484">
        <ele>474</ele>
        <time>2021-08-05T09:14:43.438Z</time>
      </trkpt>
      <trkpt lat="47.00143" lon="8.64484">
        <ele>474</ele>
        <time>2021-08-05T09:14:44.439Z</time>
      </trkpt>
      <trkpt lat="47.00142" lon="8.64484">
        <ele>475</ele>
        <time>2021-08-05T09:14:45.438Z</time>
      </trkpt>
      <trkpt lat="47.00141" lon="8.64485">
        <ele>475</ele>
        <time>2021-08-05T09:14:46.439Z</time>
      </trkpt>
      <trkpt lat="47.0014" lon="8.64485">
        <ele>475</ele>
        <time>2021-08-05T09:14:47.439Z</time>
      </trkpt>
      <trkpt lat="47.00139" lon="8.64485">
        <ele>475</ele>
        <time>2021-08-05T09:14:48.439Z</time>
      </trkpt>
      <trkpt lat="47.00139" lon="8.64486">
        <ele>476</ele>
        <time>2021-08-05T09:14:49.439Z</time>
      </trkpt>
      <trkpt lat="47.00138" lon="8.64486">
        <ele>476</ele>
        <time>2021-08-05T09:14:50.439Z</time>
      </trkpt>
      <trkpt lat="47.00138" lon="8.64486">
        <ele>476</ele>
        <time>2021-08-05T09:14:51.439Z</time>
      </trkpt>
      <trkpt lat="47.00137" lon="8.64486">
        <ele>476</ele>
        <time>2021-08-05T09:14:52.439Z</time>
      </trkpt>
      <trkpt lat="47.00137" lon="8.64486">
        <ele>476</ele>
        <time>2021-08-05T09:14:53.438Z</time>
      </trkpt>
      <trkpt lat="47.00136" lon="8.64486">
        <ele>477</ele>
        <time>2021-08-05T09:14:54.439Z</time>
      </trkpt>
      <trkpt lat="47.00135" lon="8.64487">
        <ele>477</ele>
        <time>2021-08-05T09:14:55.439Z</time>
      </trkpt>
      <trkpt lat="47.00135" lon="8.64487">
        <ele>477</ele>
        <time>2021-08-05T09:14:56.438Z</time>
      </trkpt>
      <trkpt lat="47.00134" lon="8.64487">
        <ele>477</ele>
        <time>2021-08-05T09:14:57.439Z</time>
      </trkpt>
      <trkpt lat="47.00134" lon="8.64487">
        <ele>477</ele>
        <time>2021-08-05T09:14:58.439Z</time>
      </trkpt>
      <trkpt lat="47.00133" lon="8.64487">
        <ele>477</ele>
        <time>2021-08-05T09:14:59.438Z</time>
      </trkpt>
      <trkpt lat="47.00133" lon="8.64487">
        <ele>477</ele>
        <time>2021-08-05T09:15:00.439Z</time>
      </trkpt>
      <trkpt lat="47.00132" lon="8.64488">
        <ele>478</ele>
        <time>2021-08-05T09:15:01.438Z</time>
      </trkpt>
      <trkpt lat="47.00131" lon="8.64489">
        <ele>478</ele>
        <time>2021-08-05T09:15:02.438Z</time>
      </trkpt>
      <trkpt lat="47.0013" lon="8.6449">
        <ele>478</ele>
        <time>2021-08-05T09:15:03.439Z</time>
      </trkpt>
      <trkpt lat="47.00129" lon="8.6449">
        <ele>478</ele>
        <time>2021-08-05T09:15:04.439Z</time>
      </trkpt>
      <trkpt lat="47.00129" lon="8.6449">
        <ele>478</ele>
        <time>2021-08-05T09:15:05.438Z</time>
      </trkpt>
      <trkpt lat="47.00128" lon="8.64491">
        <ele>478</ele>
        <time>2021-08-05T09:15:06.439Z</time>
      </trkpt>
      <trkpt lat="47.00127" lon="8.64492">
        <ele>478</ele>
        <time>2021-08-05T09:15:07.439Z</time>
      </trkpt>
      <trkpt lat="47.00126" lon="8.64492">
        <ele>478</ele>
        <time>2021-08-05T09:15:08.439Z</time>
      </trkpt>
      <trkpt lat="47.00125" lon="8.64493">
        <ele>478</ele>
        <time>2021-08-05T09:15:09.438Z</time>
      </trkpt>
      <trkpt lat="47.00124" lon="8.64494">
        <ele>478</ele>
        <time>2021-08-05T09:15:10.438Z</time>
      </trkpt>
      <trkpt lat="47.00124" lon="8.64494">
        <ele>478</ele>
        <time>2021-08-05T09:15:11.438Z</time>
      </trkpt>
      <trkpt lat="47.00123" lon="8.64495">
        <ele>477</ele>
        <time>2021-08-05T09:15:12.439Z</time>
      </trkpt>
      <trkpt lat="47.00122" lon="8.64496">
        <ele>477</ele>
        <time>2021-08-05T09:15:13.439Z</time>
      </trkpt>
      <trkpt lat="47.00121" lon="8.64497">
        <ele>477</ele>
        <time>2021-08-05T09:15:14.438Z</time>
      </trkpt>
      <trkpt lat="47.0012" lon="8.64497">
        <ele>477</ele>
        <time>2021-08-05T09:15:15.439Z</time>
      </trkpt>
      <trkpt lat="47.00119" lon="8.64498">
        <ele>477</ele>
        <time>2021-08-05T09:15:16.439Z</time>
      </trkpt>
      <trkpt lat="47.00118" lon="8.64498">
        <ele>477</ele>
        <time>2021-08-05T09:15:17.439Z</time>
      </trkpt>
      <trkpt lat="47.00117" lon="8.64499">
        <ele>477</ele>
        <time>2021-08-05T09:15:18.439Z</time>
      </trkpt>
      <trkpt lat="47.00116" lon="8.645">
        <ele>477</ele>
        <time>2021-08-05T09:15:19.439Z</time>
      </trkpt>
      <trkpt lat="47.00116" lon="8.64501">
        <ele>478</ele>
        <time>2021-08-05T09:15:20.438Z</time>
      </trkpt>
      <trkpt lat="47.00115" lon="8.64502">
        <ele>478</ele>
        <time>2021-08-05T09:15:21.438Z</time>
      </trkpt>
      <trkpt lat="47.00114" lon="8.64503">
        <ele>478</ele>
        <time>2021-08-05T09:15:22.438Z</time>
      </trkpt>
      <trkpt lat="47.00113" lon="8.64503">
        <ele>478</ele>
        <time>2021-08-05T09:15:23.439Z</time>
      </trkpt>
      <trkpt lat="47.00112" lon="8.64503">
        <ele>479</ele>
        <time>2021-08-05T09:15:24.439Z</time>
      </trkpt>
      <trkpt lat="47.00111" lon="8.64504">
        <ele>479</ele>
        <time>2021-08-05T09:15:25.439Z</time>
      </trkpt>
      <trkpt lat="47.0011" lon="8.64504">
        <ele>479</ele>
        <time>2021-08-05T09:15:26.439Z</time>
      </trkpt>
      <trkpt lat="47.00109" lon="8.64505">
        <ele>480</ele>
        <time>2021-08-05T09:15:27.438Z</time>
      </trkpt>
      <trkpt lat="47.00108" lon="8.64505">
        <ele>480</ele>
        <time>2021-08-05T09:15:28.438Z</time>
      </trkpt>
      <trkpt lat="47.00108" lon="8.64506">
        <ele>480</ele>
        <time>2021-08-05T09:15:29.439Z</time>
      </trkpt>
      <trkpt lat="47.00106" lon="8.64507">
        <ele>481</ele>
        <time>2021-08-05T09:15:30.439Z</time>
      </trkpt>
      <trkpt lat="47.00105" lon="8.64508">
        <ele>481</ele>
        <time>2021-08-05T09:15:31.439Z</time>
      </trkpt>
      <trkpt lat="47.00104" lon="8.64508">
        <ele>481</ele>
        <time>2021-08-05T09:15:32.439Z</time>
      </trkpt>
      <trkpt lat="47.00103" lon="8.64508">
        <ele>481</ele>
        <time>2021-08-05T09:15:33.439Z</time>
      </trkpt>
      <trkpt lat="47.00102" lon="8.64508">
        <ele>481</ele>
        <time>2021-08-05T09:15:34.439Z</time>
      </trkpt>
      <trkpt lat="47.00101" lon="8.64509">
        <ele>481</ele>
        <time>2021-08-05T09:15:35.439Z</time>
      </trkpt>
      <trkpt lat="47.001" lon="8.64509">
        <ele>481</ele>
        <time>2021-08-05T09:15:36.439Z</time>
      </trkpt>
      <trkpt lat="47.00099" lon="8.64509">
        <ele>482</ele>
        <time>2021-08-05T09:15:37.438Z</time>
      </trkpt>
      <trkpt lat="47.00098" lon="8.64509">
        <ele>482</ele>
        <time>2021-08-05T09:15:38.439Z</time>
      </trkpt>
      <trkpt lat="47.00097" lon="8.6451">
        <ele>483</ele>
        <time>2021-08-05T09:15:39.438Z</time>
      </trkpt>
      <trkpt lat="47.00096" lon="8.64511">
        <ele>483</ele>
        <time>2021-08-05T09:15:40.439Z</time>
      </trkpt>
      <trkpt lat="47.00096" lon="8.64512">
        <ele>483</ele>
        <time>2021-08-05T09:15:41.438Z</time>
      </trkpt>
      <trkpt lat="47.00095" lon="8.64513">
        <ele>484</ele>
        <time>2021-08-05T09:15:42.439Z</time>
      </trkpt>
      <trkpt lat="47.00094" lon="8.64513">
        <ele>484</ele>
        <time>2021-08-05T09:15:43.439Z</time>
      </trkpt>
      <trkpt lat="47.00093" lon="8.64513">
        <ele>485</ele>
        <time>2021-08-05T09:15:44.439Z</time>
      </trkpt>
      <trkpt lat="47.00093" lon="8.64515">
        <ele>485</ele>
        <time>2021-08-05T09:15:45.439Z</time>
      </trkpt>
      <trkpt lat="47.00092" lon="8.64515">
        <ele>486</ele>
        <time>2021-08-05T09:15:46.438Z</time>
      </trkpt>
      <trkpt lat="47.00091" lon="8.64515">
        <ele>486</ele>
        <time>2021-08-05T09:15:47.438Z</time>
      </trkpt>
      <trkpt lat="47.0009" lon="8.64515">
        <ele>486</ele>
        <time>2021-08-05T09:15:48.438Z</time>
      </trkpt>
      <trkpt lat="47.00089" lon="8.64515">
        <ele>486</ele>
        <time>2021-08-05T09:15:49.439Z</time>
      </trkpt>
      <trkpt lat="47.00087" lon="8.64515">
        <ele>487</ele>
        <time>2021-08-05T09:15:50.438Z</time>
      </trkpt>
      <trkpt lat="47.00086" lon="8.64515">
        <ele>487</ele>
        <time>2021-08-05T09:15:51.438Z</time>
      </trkpt>
      <trkpt lat="47.00085" lon="8.64515">
        <ele>488</ele>
        <time>2021-08-05T09:15:52.438Z</time>
      </trkpt>
      <trkpt lat="47.00084" lon="8.64516">
        <ele>488</ele>
        <time>2021-08-05T09:15:53.438Z</time>
      </trkpt>
      <trkpt lat="47.00084" lon="8.64516">
        <ele>488</ele>
        <time>2021-08-05T09:15:54.438Z</time>
      </trkpt>
      <trkpt lat="47.00083" lon="8.64517">
        <ele>488</ele>
        <time>2021-08-05T09:15:55.439Z</time>
      </trkpt>
      <trkpt lat="47.00082" lon="8.64517">
        <ele>488</ele>
        <time>2021-08-05T09:15:56.438Z</time>
      </trkpt>
      <trkpt lat="47.00081" lon="8.64517">
        <ele>488</ele>
        <time>2021-08-05T09:15:57.438Z</time>
      </trkpt>
      <trkpt lat="47.0008" lon="8.64518">
        <ele>489</ele>
        <time>2021-08-05T09:15:58.439Z</time>
      </trkpt>
      <trkpt lat="47.00079" lon="8.64518">
        <ele>489</ele>
        <time>2021-08-05T09:15:59.439Z</time>
      </trkpt>
      <trkpt lat="47.00078" lon="8.64518">
        <ele>489</ele>
        <time>2021-08-05T09:16:00.439Z</time>
      </trkpt>
      <trkpt lat="47.00077" lon="8.64518">
        <ele>490</ele>
        <time>2021-08-05T09:16:01.438Z</time>
      </trkpt>
      <trkpt lat="47.00076" lon="8.64519">
        <ele>490</ele>
        <time>2021-08-05T09:16:02.438Z</time>
      </trkpt>
      <trkpt lat="47.00076" lon="8.64519">
        <ele>490</ele>
        <time>2021-08-05T09:16:03.439Z</time>
      </trkpt>
      <trkpt lat="47.00075" lon="8.6452">
        <ele>490</ele>
        <time>2021-08-05T09:16:04.438Z</time>
      </trkpt>
      <trkpt lat="47.00074" lon="8.64521">
        <ele>490</ele>
        <time>2021-08-05T09:16:05.439Z</time>
      </trkpt>
      <trkpt lat="47.00073" lon="8.64521">
        <ele>490</ele>
        <time>2021-08-05T09:16:06.438Z</time>
      </trkpt>
      <trkpt lat="47.00072" lon="8.64522">
        <ele>490</ele>
        <time>2021-08-05T09:16:07.438Z</time>
      </trkpt>
      <trkpt lat="47.00071" lon="8.64522">
        <ele>490</ele>
        <time>2021-08-05T09:16:08.439Z</time>
      </trkpt>
      <trkpt lat="47.0007" lon="8.64522">
        <ele>490</ele>
        <time>2021-08-05T09:16:09.438Z</time>
      </trkpt>
      <trkpt lat="47.00069" lon="8.64523">
        <ele>490</ele>
        <time>2021-08-05T09:16:10.438Z</time>
      </trkpt>
      <trkpt lat="47.00068" lon="8.64523">
        <ele>490</ele>
        <time>2021-08-05T09:16:11.438Z</time>
      </trkpt>
      <trkpt lat="47.00067" lon="8.64523">
        <ele>489</ele>
        <time>2021-08-05T09:16:12.438Z</time>
      </trkpt>
      <trkpt lat="47.00066" lon="8.64523">
        <ele>489</ele>
        <time>2021-08-05T09:16:13.439Z</time>
      </trkpt>
      <trkpt lat="47.00065" lon="8.64524">
        <ele>488</ele>
        <time>2021-08-05T09:16:14.438Z</time>
      </trkpt>
      <trkpt lat="47.00064" lon="8.64524">
        <ele>488</ele>
        <time>2021-08-05T09:16:15.438Z</time>
      </trkpt>
      <trkpt lat="47.00063" lon="8.64525">
        <ele>488</ele>
        <time>2021-08-05T09:16:16.438Z</time>
      </trkpt>
      <trkpt lat="47.00062" lon="8.64525">
        <ele>488</ele>
        <time>2021-08-05T09:16:17.438Z</time>
      </trkpt>
      <trkpt lat="47.00061" lon="8.64526">
        <ele>488</ele>
        <time>2021-08-05T09:16:18.438Z</time>
      </trkpt>
      <trkpt lat="47.0006" lon="8.64526">
        <ele>488</ele>
        <time>2021-08-05T09:16:19.438Z</time>
      </trkpt>
      <trkpt lat="47.00059" lon="8.64527">
        <ele>488</ele>
        <time>2021-08-05T09:16:20.438Z</time>
      </trkpt>
      <trkpt lat="47.00058" lon="8.64527">
        <ele>488</ele>
        <time>2021-08-05T09:16:21.438Z</time>
      </trkpt>
      <trkpt lat="47.00057" lon="8.64527">
        <ele>488</ele>
        <time>2021-08-05T09:16:22.439Z</time>
      </trkpt>
      <trkpt lat="47.00056" lon="8.64527">
        <ele>488</ele>
        <time>2021-08-05T09:16:23.438Z</time>
      </trkpt>
      <trkpt lat="47.00055" lon="8.64528">
        <ele>489</ele>
        <time>2021-08-05T09:16:24.439Z</time>
      </trkpt>
      <trkpt lat="47.00054" lon="8.64528">
        <ele>488</ele>
        <time>2021-08-05T09:16:25.439Z</time>
      </trkpt>
      <trkpt lat="47.00054" lon="8.64529">
        <ele>489</ele>
        <time>2021-08-05T09:16:26.438Z</time>
      </trkpt>
      <trkpt lat="47.00053" lon="8.64529">
        <ele>489</ele>
        <time>2021-08-05T09:16:27.439Z</time>
      </trkpt>
      <trkpt lat="47.00052" lon="8.64529">
        <ele>489</ele>
        <time>2021-08-05T09:16:28.438Z</time>
      </trkpt>
      <trkpt lat="47.00052" lon="8.64529">
        <ele>489</ele>
        <time>2021-08-05T09:16:29.438Z</time>
      </trkpt>
      <trkpt lat="47.00051" lon="8.64529">
        <ele>489</ele>
        <time>2021-08-05T09:16:30.439Z</time>
      </trkpt>
      <trkpt lat="47.0005" lon="8.64529">
        <ele>489</ele>
        <time>2021-08-05T09:16:31.439Z</time>
      </trkpt>
      <trkpt lat="47.00049" lon="8.6453">
        <ele>489</ele>
        <time>2021-08-05T09:16:32.438Z</time>
      </trkpt>
      <trkpt lat="47.00048" lon="8.64529">
        <ele>489</ele>
        <time>2021-08-05T09:16:33.439Z</time>
      </trkpt>
      <trkpt lat="47.00047" lon="8.6453">
        <ele>489</ele>
        <time>2021-08-05T09:16:34.439Z</time>
      </trkpt>
      <trkpt lat="47.00047" lon="8.64529">
        <ele>489</ele>
        <time>2021-08-05T09:16:35.438Z</time>
      </trkpt>
      <trkpt lat="47.00046" lon="8.64529">
        <ele>490</ele>
        <time>2021-08-05T09:16:36.438Z</time>
      </trkpt>
      <trkpt lat="47.00044" lon="8.64529">
        <ele>490</ele>
        <time>2021-08-05T09:16:37.439Z</time>
      </trkpt>
      <trkpt lat="47.00044" lon="8.64529">
        <ele>490</ele>
        <time>2021-08-05T09:16:38.439Z</time>
      </trkpt>
      <trkpt lat="47.00043" lon="8.64529">
        <ele>491</ele>
        <time>2021-08-05T09:16:39.439Z</time>
      </trkpt>
      <trkpt lat="47.00043" lon="8.64528">
        <ele>492</ele>
        <time>2021-08-05T09:16:40.439Z</time>
      </trkpt>
      <trkpt lat="47.00043" lon="8.64528">
        <ele>492</ele>
        <time>2021-08-05T09:16:41.439Z</time>
      </trkpt>
      <trkpt lat="47.00042" lon="8.64528">
        <ele>493</ele>
        <time>2021-08-05T09:16:42.439Z</time>
      </trkpt>
      <trkpt lat="47.00041" lon="8.64528">
        <ele>494</ele>
        <time>2021-08-05T09:16:43.439Z</time>
      </trkpt>
      <trkpt lat="47.0004" lon="8.64528">
        <ele>494</ele>
        <time>2021-08-05T09:16:44.439Z</time>
      </trkpt>
      <trkpt lat="47.0004" lon="8.64529">
        <ele>494</ele>
        <time>2021-08-05T09:16:45.439Z</time>
      </trkpt>
      <trkpt lat="47.00039" lon="8.64529">
        <ele>494</ele>
        <time>2021-08-05T09:16:46.439Z</time>
      </trkpt>
      <trkpt lat="47.00038" lon="8.64529">
        <ele>494</ele>
        <time>2021-08-05T09:16:47.439Z</time>
      </trkpt>
      <trkpt lat="47.00037" lon="8.64529">
        <ele>494</ele>
        <time>2021-08-05T09:16:48.439Z</time>
      </trkpt>
      <trkpt lat="47.00036" lon="8.64529">
        <ele>494</ele>
        <time>2021-08-05T09:16:49.439Z</time>
      </trkpt>
      <trkpt lat="47.00035" lon="8.64529">
        <ele>494</ele>
        <time>2021-08-05T09:16:50.439Z</time>
      </trkpt>
      <trkpt lat="47.00035" lon="8.64529">
        <ele>493</ele>
        <time>2021-08-05T09:16:51.439Z</time>
      </trkpt>
      <trkpt lat="47.00034" lon="8.64529">
        <ele>493</ele>
        <time>2021-08-05T09:16:52.439Z</time>
      </trkpt>
      <trkpt lat="47.00033" lon="8.64529">
        <ele>492</ele>
        <time>2021-08-05T09:16:53.439Z</time>
      </trkpt>
      <trkpt lat="47.00031" lon="8.64529">
        <ele>492</ele>
        <time>2021-08-05T09:16:54.439Z</time>
      </trkpt>
      <trkpt lat="47.00031" lon="8.64528">
        <ele>491</ele>
        <time>2021-08-05T09:16:55.439Z</time>
      </trkpt>
      <trkpt lat="47.0003" lon="8.64528">
        <ele>491</ele>
        <time>2021-08-05T09:16:56.439Z</time>
      </trkpt>
      <trkpt lat="47.00029" lon="8.64528">
        <ele>490</ele>
        <time>2021-08-05T09:16:57.439Z</time>
      </trkpt>
      <trkpt lat="47.00029" lon="8.64528">
        <ele>490</ele>
        <time>2021-08-05T09:16:58.439Z</time>
      </trkpt>
      <trkpt lat="47.00028" lon="8.64528">
        <ele>489</ele>
        <time>2021-08-05T09:16:59.439Z</time>
      </trkpt>
      <trkpt lat="47.00026" lon="8.64529">
        <ele>489</ele>
        <time>2021-08-05T09:17:00.439Z</time>
      </trkpt>
      <trkpt lat="47.00025" lon="8.64529">
        <ele>489</ele>
        <time>2021-08-05T09:17:01.439Z</time>
      </trkpt>
      <trkpt lat="47.00024" lon="8.64529">
        <ele>489</ele>
        <time>2021-08-05T09:17:02.439Z</time>
      </trkpt>
      <trkpt lat="47.00024" lon="8.6453">
        <ele>490</ele>
        <time>2021-08-05T09:17:03.439Z</time>
      </trkpt>
      <trkpt lat="47.00023" lon="8.6453">
        <ele>490</ele>
        <time>2021-08-05T09:17:04.439Z</time>
      </trkpt>
      <trkpt lat="47.00022" lon="8.64531">
        <ele>490</ele>
        <time>2021-08-05T09:17:05.439Z</time>
      </trkpt>
      <trkpt lat="47.00021" lon="8.64531">
        <ele>489</ele>
        <time>2021-08-05T09:17:06.439Z</time>
      </trkpt>
      <trkpt lat="47.0002" lon="8.64532">
        <ele>489</ele>
        <time>2021-08-05T09:17:07.439Z</time>
      </trkpt>
      <trkpt lat="47.0002" lon="8.64532">
        <ele>489</ele>
        <time>2021-08-05T09:17:08.439Z</time>
      </trkpt>
      <trkpt lat="47.00019" lon="8.64532">
        <ele>490</ele>
        <time>2021-08-05T09:17:09.439Z</time>
      </trkpt>
      <trkpt lat="47.00018" lon="8.64532">
        <ele>490</ele>
        <time>2021-08-05T09:17:10.439Z</time>
      </trkpt>
      <trkpt lat="47.00016" lon="8.64533">
        <ele>491</ele>
        <time>2021-08-05T09:17:11.439Z</time>
      </trkpt>
      <trkpt lat="47.00015" lon="8.64533">
        <ele>491</ele>
        <time>2021-08-05T09:17:12.439Z</time>
      </trkpt>
      <trkpt lat="47.00014" lon="8.64533">
        <ele>492</ele>
        <time>2021-08-05T09:17:13.439Z</time>
      </trkpt>
      <trkpt lat="47.00013" lon="8.64533">
        <ele>492</ele>
        <time>2021-08-05T09:17:14.439Z</time>
      </trkpt>
      <trkpt lat="47.00012" lon="8.64533">
        <ele>493</ele>
        <time>2021-08-05T09:17:15.439Z</time>
      </trkpt>
      <trkpt lat="47.00012" lon="8.64534">
        <ele>493</ele>
        <time>2021-08-05T09:17:16.439Z</time>
      </trkpt>
      <trkpt lat="47.00011" lon="8.64534">
        <ele>494</ele>
        <time>2021-08-05T09:17:17.439Z</time>
      </trkpt>
      <trkpt lat="47.00011" lon="8.64534">
        <ele>494</ele>
        <time>2021-08-05T09:17:18.439Z</time>
      </trkpt>
      <trkpt lat="47.0001" lon="8.64535">
        <ele>494</ele>
        <time>2021-08-05T09:17:19.439Z</time>
      </trkpt>
      <trkpt lat="47.00009" lon="8.64535">
        <ele>495</ele>
        <time>2021-08-05T09:17:20.439Z</time>
      </trkpt>
      <trkpt lat="47.00008" lon="8.64535">
        <ele>495</ele>
        <time>2021-08-05T09:17:21.439Z</time>
      </trkpt>
      <trkpt lat="47.00007" lon="8.64535">
        <ele>495</ele>
        <time>2021-08-05T09:17:22.439Z</time>
      </trkpt>
      <trkpt lat="47.00007" lon="8.64536">
        <ele>495</ele>
        <time>2021-08-05T09:17:23.439Z</time>
      </trkpt>
      <trkpt lat="47.00006" lon="8.64536">
        <ele>495</ele>
        <time>2021-08-05T09:17:24.439Z</time>
      </trkpt>
      <trkpt lat="47.00005" lon="8.64537">
        <ele>496</ele>
        <time>2021-08-05T09:17:25.439Z</time>
      </trkpt>
      <trkpt lat="47.00004" lon="8.64537">
        <ele>496</ele>
        <time>2021-08-05T09:17:26.439Z</time>
      </trkpt>
      <trkpt lat="47.00003" lon="8.64538">
        <ele>496</ele>
        <time>2021-08-05T09:17:27.439Z</time>
      </trkpt>
      <trkpt lat="47.00003" lon="8.64539">
        <ele>496</ele>
        <time>2021-08-05T09:17:28.439Z</time>
      </trkpt>
      <trkpt lat="47.00002" lon="8.6454">
        <ele>497</ele>
        <time>2021-08-05T09:17:29.439Z</time>
      </trkpt>
      <trkpt lat="47.00001" lon="8.64541">
        <ele>497</ele>
        <time>2021-08-05T09:17:30.439Z</time>
      </trkpt>
      <trkpt lat="47" lon="8.64541">
        <ele>497</ele>
        <time>2021-08-05T09:17:31.439Z</time>
      </trkpt>
      <trkpt lat="46.99999" lon="8.64542">
        <ele>498</ele>
        <time>2021-08-05T09:17:32.439Z</time>
      </trkpt>
      <trkpt lat="46.99998" lon="8.64542">
        <ele>498</ele>
        <time>2021-08-05T09:17:33.439Z</time>
      </trkpt>
      <trkpt lat="46.99997" lon="8.64543">
        <ele>499</ele>
        <time>2021-08-05T09:17:34.439Z</time>
      </trkpt>
      <trkpt lat="46.99996" lon="8.64543">
        <ele>500</ele>
        <time>2021-08-05T09:17:35.439Z</time>
      </trkpt>
      <trkpt lat="46.99996" lon="8.64543">
        <ele>500</ele>
        <time>2021-08-05T09:17:36.439Z</time>
      </trkpt>
      <trkpt lat="46.99994" lon="8.64543">
        <ele>501</ele>
        <time>2021-08-05T09:17:37.439Z</time>
      </trkpt>
      <trkpt lat="46.99993" lon="8.64543">
        <ele>501</ele>
        <time>2021-08-05T09:17:38.439Z</time>
      </trkpt>
      <trkpt lat="46.99992" lon="8.64543">
        <ele>501</ele>
        <time>2021-08-05T09:17:39.439Z</time>
      </trkpt>
      <trkpt lat="46.99991" lon="8.64543">
        <ele>501</ele>
        <time>2021-08-05T09:17:40.439Z</time>
      </trkpt>
      <trkpt lat="46.9999" lon="8.64544">
        <ele>501</ele>
        <time>2021-08-05T09:17:41.439Z</time>
      </trkpt>
      <trkpt lat="46.99989" lon="8.64544">
        <ele>501</ele>
        <time>2021-08-05T09:17:42.439Z</time>
      </trkpt>
      <trkpt lat="46.99988" lon="8.64545">
        <ele>501</ele>
        <time>2021-08-05T09:17:43.439Z</time>
      </trkpt>
      <trkpt lat="46.99987" lon="8.64545">
        <ele>501</ele>
        <time>2021-08-05T09:17:44.439Z</time>
      </trkpt>
      <trkpt lat="46.99986" lon="8.64545">
        <ele>501</ele>
        <time>2021-08-05T09:17:45.439Z</time>
      </trkpt>
      <trkpt lat="46.99985" lon="8.64546">
        <ele>501</ele>
        <time>2021-08-05T09:17:46.439Z</time>
      </trkpt>
      <trkpt lat="46.99984" lon="8.64546">
        <ele>501</ele>
        <time>2021-08-05T09:17:47.439Z</time>
      </trkpt>
      <trkpt lat="46.99983" lon="8.64546">
        <ele>501</ele>
        <time>2021-08-05T09:17:48.439Z</time>
      </trkpt>
      <trkpt lat="46.99982" lon="8.64547">
        <ele>501</ele>
        <time>2021-08-05T09:17:49.439Z</time>
      </trkpt>
      <trkpt lat="46.99981" lon="8.64547">
        <ele>501</ele>
        <time>2021-08-05T09:17:50.439Z</time>
      </trkpt>
      <trkpt lat="46.9998" lon="8.64548">
        <ele>501</ele>
        <time>2021-08-05T09:17:51.439Z</time>
      </trkpt>
      <trkpt lat="46.9998" lon="8.64548">
        <ele>501</ele>
        <time>2021-08-05T09:17:52.439Z</time>
      </trkpt>
      <trkpt lat="46.99979" lon="8.64549">
        <ele>501</ele>
        <time>2021-08-05T09:17:53.439Z</time>
      </trkpt>
      <trkpt lat="46.99978" lon="8.6455">
        <ele>501</ele>
        <time>2021-08-05T09:17:54.439Z</time>
      </trkpt>
      <trkpt lat="46.99977" lon="8.6455">
        <ele>501</ele>
        <time>2021-08-05T09:17:55.439Z</time>
      </trkpt>
      <trkpt lat="46.99976" lon="8.6455">
        <ele>501</ele>
        <time>2021-08-05T09:17:56.439Z</time>
      </trkpt>
      <trkpt lat="46.99975" lon="8.6455">
        <ele>501</ele>
        <time>2021-08-05T09:17:57.439Z</time>
      </trkpt>
      <trkpt lat="46.99975" lon="8.64551">
        <ele>501</ele>
        <time>2021-08-05T09:17:58.439Z</time>
      </trkpt>
      <trkpt lat="46.99974" lon="8.64552">
        <ele>500</ele>
        <time>2021-08-05T09:17:59.439Z</time>
      </trkpt>
      <trkpt lat="46.99973" lon="8.64553">
        <ele>500</ele>
        <time>2021-08-05T09:18:00.439Z</time>
      </trkpt>
      <trkpt lat="46.99972" lon="8.64553">
        <ele>500</ele>
        <time>2021-08-05T09:18:01.439Z</time>
      </trkpt>
      <trkpt lat="46.99971" lon="8.64553">
        <ele>500</ele>
        <time>2021-08-05T09:18:02.439Z</time>
      </trkpt>
      <trkpt lat="46.9997" lon="8.64554">
        <ele>501</ele>
        <time>2021-08-05T09:18:03.439Z</time>
      </trkpt>
      <trkpt lat="46.99969" lon="8.64555">
        <ele>501</ele>
        <time>2021-08-05T09:18:04.439Z</time>
      </trkpt>
      <trkpt lat="46.99968" lon="8.64556">
        <ele>501</ele>
        <time>2021-08-05T09:18:05.439Z</time>
      </trkpt>
      <trkpt lat="46.99967" lon="8.64557">
        <ele>501</ele>
        <time>2021-08-05T09:18:06.439Z</time>
      </trkpt>
      <trkpt lat="46.99967" lon="8.64558">
        <ele>502</ele>
        <time>2021-08-05T09:18:07.439Z</time>
      </trkpt>
      <trkpt lat="46.99965" lon="8.64558">
        <ele>502</ele>
        <time>2021-08-05T09:18:08.439Z</time>
      </trkpt>
      <trkpt lat="46.99964" lon="8.64559">
        <ele>502</ele>
        <time>2021-08-05T09:18:09.439Z</time>
      </trkpt>
      <trkpt lat="46.99963" lon="8.64559">
        <ele>502</ele>
        <time>2021-08-05T09:18:10.439Z</time>
      </trkpt>
      <trkpt lat="46.99963" lon="8.64559">
        <ele>503</ele>
        <time>2021-08-05T09:18:11.439Z</time>
      </trkpt>
      <trkpt lat="46.99962" lon="8.64559">
        <ele>503</ele>
        <time>2021-08-05T09:18:12.439Z</time>
      </trkpt>
      <trkpt lat="46.99961" lon="8.6456">
        <ele>503</ele>
        <time>2021-08-05T09:18:13.439Z</time>
      </trkpt>
      <trkpt lat="46.9996" lon="8.6456">
        <ele>503</ele>
        <time>2021-08-05T09:18:14.439Z</time>
      </trkpt>
      <trkpt lat="46.99959" lon="8.64561">
        <ele>503</ele>
        <time>2021-08-05T09:18:15.439Z</time>
      </trkpt>
      <trkpt lat="46.99958" lon="8.64561">
        <ele>503</ele>
        <time>2021-08-05T09:18:16.439Z</time>
      </trkpt>
      <trkpt lat="46.99957" lon="8.64562">
        <ele>503</ele>
        <time>2021-08-05T09:18:17.439Z</time>
      </trkpt>
      <trkpt lat="46.99956" lon="8.64562">
        <ele>504</ele>
        <time>2021-08-05T09:18:18.439Z</time>
      </trkpt>
      <trkpt lat="46.99955" lon="8.64563">
        <ele>504</ele>
        <time>2021-08-05T09:18:19.439Z</time>
      </trkpt>
      <trkpt lat="46.99954" lon="8.64563">
        <ele>504</ele>
        <time>2021-08-05T09:18:20.439Z</time>
      </trkpt>
      <trkpt lat="46.99953" lon="8.64563">
        <ele>505</ele>
        <time>2021-08-05T09:18:21.439Z</time>
      </trkpt>
      <trkpt lat="46.99952" lon="8.64563">
        <ele>505</ele>
        <time>2021-08-05T09:18:22.439Z</time>
      </trkpt>
      <trkpt lat="46.99951" lon="8.64564">
        <ele>505</ele>
        <time>2021-08-05T09:18:23.439Z</time>
      </trkpt>
      <trkpt lat="46.9995" lon="8.64563">
        <ele>505</ele>
        <time>2021-08-05T09:18:24.439Z</time>
      </trkpt>
      <trkpt lat="46.99949" lon="8.64563">
        <ele>505</ele>
        <time>2021-08-05T09:18:25.439Z</time>
      </trkpt>
      <trkpt lat="46.99948" lon="8.64563">
        <ele>506</ele>
        <time>2021-08-05T09:18:26.439Z</time>
      </trkpt>
      <trkpt lat="46.99947" lon="8.64563">
        <ele>506</ele>
        <time>2021-08-05T09:18:27.439Z</time>
      </trkpt>
      <trkpt lat="46.99946" lon="8.64563">
        <ele>506</ele>
        <time>2021-08-05T09:18:28.439Z</time>
      </trkpt>
      <trkpt lat="46.99945" lon="8.64564">
        <ele>506</ele>
        <time>2021-08-05T09:18:29.439Z</time>
      </trkpt>
      <trkpt lat="46.99945" lon="8.64565">
        <ele>506</ele>
        <time>2021-08-05T09:18:30.439Z</time>
      </trkpt>
      <trkpt lat="46.99944" lon="8.64565">
        <ele>506</ele>
        <time>2021-08-05T09:18:31.439Z</time>
      </trkpt>
      <trkpt lat="46.99944" lon="8.64565">
        <ele>506</ele>
        <time>2021-08-05T09:18:32.439Z</time>
      </trkpt>
      <trkpt lat="46.99942" lon="8.64565">
        <ele>506</ele>
        <time>2021-08-05T09:18:33.439Z</time>
      </trkpt>
      <trkpt lat="46.99941" lon="8.64565">
        <ele>506</ele>
        <time>2021-08-05T09:18:34.439Z</time>
      </trkpt>
      <trkpt lat="46.9994" lon="8.64565">
        <ele>506</ele>
        <time>2021-08-05T09:18:35.439Z</time>
      </trkpt>
      <trkpt lat="46.99939" lon="8.64566">
        <ele>506</ele>
        <time>2021-08-05T09:18:36.439Z</time>
      </trkpt>
      <trkpt lat="46.99938" lon="8.64566">
        <ele>506</ele>
        <time>2021-08-05T09:18:37.439Z</time>
      </trkpt>
      <trkpt lat="46.99938" lon="8.64567">
        <ele>506</ele>
        <time>2021-08-05T09:18:38.439Z</time>
      </trkpt>
      <trkpt lat="46.99937" lon="8.64568">
        <ele>506</ele>
        <time>2021-08-05T09:18:39.439Z</time>
      </trkpt>
      <trkpt lat="46.99936" lon="8.64569">
        <ele>506</ele>
        <time>2021-08-05T09:18:40.439Z</time>
      </trkpt>
      <trkpt lat="46.99935" lon="8.64569">
        <ele>507</ele>
        <time>2021-08-05T09:18:41.439Z</time>
      </trkpt>
      <trkpt lat="46.99934" lon="8.64569">
        <ele>507</ele>
        <time>2021-08-05T09:18:42.439Z</time>
      </trkpt>
      <trkpt lat="46.99932" lon="8.6457">
        <ele>507</ele>
        <time>2021-08-05T09:18:43.439Z</time>
      </trkpt>
      <trkpt lat="46.99931" lon="8.6457">
        <ele>507</ele>
        <time>2021-08-05T09:18:44.439Z</time>
      </trkpt>
      <trkpt lat="46.9993" lon="8.64571">
        <ele>507</ele>
        <time>2021-08-05T09:18:45.439Z</time>
      </trkpt>
      <trkpt lat="46.9993" lon="8.64572">
        <ele>507</ele>
        <time>2021-08-05T09:18:46.439Z</time>
      </trkpt>
      <trkpt lat="46.99929" lon="8.64573">
        <ele>507</ele>
        <time>2021-08-05T09:18:47.439Z</time>
      </trkpt>
      <trkpt lat="46.99927" lon="8.64574">
        <ele>507</ele>
        <time>2021-08-05T09:18:48.439Z</time>
      </trkpt>
      <trkpt lat="46.99927" lon="8.64574">
        <ele>507</ele>
        <time>2021-08-05T09:18:49.439Z</time>
      </trkpt>
      <trkpt lat="46.99926" lon="8.64574">
        <ele>507</ele>
        <time>2021-08-05T09:18:50.439Z</time>
      </trkpt>
      <trkpt lat="46.99925" lon="8.64574">
        <ele>508</ele>
        <time>2021-08-05T09:18:51.439Z</time>
      </trkpt>
      <trkpt lat="46.99923" lon="8.64575">
        <ele>508</ele>
        <time>2021-08-05T09:18:52.439Z</time>
      </trkpt>
      <trkpt lat="46.99922" lon="8.64575">
        <ele>509</ele>
        <time>2021-08-05T09:18:53.439Z</time>
      </trkpt>
      <trkpt lat="46.99921" lon="8.64576">
        <ele>510</ele>
        <time>2021-08-05T09:18:54.439Z</time>
      </trkpt>
      <trkpt lat="46.9992" lon="8.64576">
        <ele>510</ele>
        <time>2021-08-05T09:18:55.439Z</time>
      </trkpt>
      <trkpt lat="46.99919" lon="8.64577">
        <ele>511</ele>
        <time>2021-08-05T09:18:56.439Z</time>
      </trkpt>
      <trkpt lat="46.99918" lon="8.64577">
        <ele>511</ele>
        <time>2021-08-05T09:18:57.439Z</time>
      </trkpt>
      <trkpt lat="46.99917" lon="8.64576">
        <ele>511</ele>
        <time>2021-08-05T09:18:58.439Z</time>
      </trkpt>
      <trkpt lat="46.99915" lon="8.64576">
        <ele>511</ele>
        <time>2021-08-05T09:18:59.439Z</time>
      </trkpt>
      <trkpt lat="46.99914" lon="8.64576">
        <ele>512</ele>
        <time>2021-08-05T09:19:00.439Z</time>
      </trkpt>
      <trkpt lat="46.99913" lon="8.64576">
        <ele>512</ele>
        <time>2021-08-05T09:19:01.439Z</time>
      </trkpt>
      <trkpt lat="46.99912" lon="8.64576">
        <ele>512</ele>
        <time>2021-08-05T09:19:02.439Z</time>
      </trkpt>
      <trkpt lat="46.99911" lon="8.64577">
        <ele>512</ele>
        <time>2021-08-05T09:19:03.439Z</time>
      </trkpt>
      <trkpt lat="46.99909" lon="8.64578">
        <ele>512</ele>
        <time>2021-08-05T09:19:04.439Z</time>
      </trkpt>
      <trkpt lat="46.99909" lon="8.64579">
        <ele>512</ele>
        <time>2021-08-05T09:19:05.439Z</time>
      </trkpt>
      <trkpt lat="46.99908" lon="8.6458">
        <ele>512</ele>
        <time>2021-08-05T09:19:06.439Z</time>
      </trkpt>
      <trkpt lat="46.99907" lon="8.64581">
        <ele>513</ele>
        <time>2021-08-05T09:19:07.439Z</time>
      </trkpt>
      <trkpt lat="46.99906" lon="8.64581">
        <ele>513</ele>
        <time>2021-08-05T09:19:08.439Z</time>
      </trkpt>
      <trkpt lat="46.99905" lon="8.64581">
        <ele>513</ele>
        <time>2021-08-05T09:19:09.439Z</time>
      </trkpt>
      <trkpt lat="46.99903" lon="8.64582">
        <ele>513</ele>
        <time>2021-08-05T09:19:10.439Z</time>
      </trkpt>
      <trkpt lat="46.99903" lon="8.64583">
        <ele>513</ele>
        <time>2021-08-05T09:19:11.439Z</time>
      </trkpt>
      <trkpt lat="46.99902" lon="8.64583">
        <ele>514</ele>
        <time>2021-08-05T09:19:12.439Z</time>
      </trkpt>
      <trkpt lat="46.99901" lon="8.64583">
        <ele>514</ele>
        <time>2021-08-05T09:19:13.439Z</time>
      </trkpt>
      <trkpt lat="46.999" lon="8.64582">
        <ele>514</ele>
        <time>2021-08-05T09:19:14.439Z</time>
      </trkpt>
      <trkpt lat="46.99899" lon="8.64582">
        <ele>513</ele>
        <time>2021-08-05T09:19:15.439Z</time>
      </trkpt>
      <trkpt lat="46.99898" lon="8.64583">
        <ele>513</ele>
        <time>2021-08-05T09:19:16.439Z</time>
      </trkpt>
      <trkpt lat="46.99897" lon="8.64583">
        <ele>513</ele>
        <time>2021-08-05T09:19:17.439Z</time>
      </trkpt>
      <trkpt lat="46.99896" lon="8.64584">
        <ele>513</ele>
        <time>2021-08-05T09:19:18.439Z</time>
      </trkpt>
      <trkpt lat="46.99895" lon="8.64584">
        <ele>513</ele>
        <time>2021-08-05T09:19:19.439Z</time>
      </trkpt>
      <trkpt lat="46.99895" lon="8.64585">
        <ele>513</ele>
        <time>2021-08-05T09:19:20.439Z</time>
      </trkpt>
      <trkpt lat="46.99894" lon="8.64586">
        <ele>513</ele>
        <time>2021-08-05T09:19:21.439Z</time>
      </trkpt>
      <trkpt lat="46.99893" lon="8.64587">
        <ele>512</ele>
        <time>2021-08-05T09:19:22.439Z</time>
      </trkpt>
      <trkpt lat="46.99892" lon="8.64587">
        <ele>512</ele>
        <time>2021-08-05T09:19:23.439Z</time>
      </trkpt>
      <trkpt lat="46.99891" lon="8.64588">
        <ele>511</ele>
        <time>2021-08-05T09:19:24.439Z</time>
      </trkpt>
      <trkpt lat="46.9989" lon="8.64588">
        <ele>511</ele>
        <time>2021-08-05T09:19:25.439Z</time>
      </trkpt>
      <trkpt lat="46.99888" lon="8.64589">
        <ele>511</ele>
        <time>2021-08-05T09:19:26.439Z</time>
      </trkpt>
      <trkpt lat="46.99887" lon="8.64589">
        <ele>510</ele>
        <time>2021-08-05T09:19:27.439Z</time>
      </trkpt>
      <trkpt lat="46.99886" lon="8.6459">
        <ele>510</ele>
        <time>2021-08-05T09:19:28.439Z</time>
      </trkpt>
      <trkpt lat="46.99885" lon="8.6459">
        <ele>510</ele>
        <time>2021-08-05T09:19:29.439Z</time>
      </trkpt>
      <trkpt lat="46.99884" lon="8.64591">
        <ele>510</ele>
        <time>2021-08-05T09:19:30.439Z</time>
      </trkpt>
      <trkpt lat="46.99883" lon="8.64592">
        <ele>509</ele>
        <time>2021-08-05T09:19:31.439Z</time>
      </trkpt>
      <trkpt lat="46.99882" lon="8.64593">
        <ele>509</ele>
        <time>2021-08-05T09:19:32.439Z</time>
      </trkpt>
      <trkpt lat="46.99882" lon="8.64594">
        <ele>509</ele>
        <time>2021-08-05T09:19:33.439Z</time>
      </trkpt>
      <trkpt lat="46.99881" lon="8.64596">
        <ele>509</ele>
        <time>2021-08-05T09:19:34.439Z</time>
      </trkpt>
      <trkpt lat="46.9988" lon="8.64596">
        <ele>509</ele>
        <time>2021-08-05T09:19:35.439Z</time>
      </trkpt>
      <trkpt lat="46.99879" lon="8.64597">
        <ele>508</ele>
        <time>2021-08-05T09:19:36.439Z</time>
      </trkpt>
      <trkpt lat="46.99878" lon="8.64599">
        <ele>508</ele>
        <time>2021-08-05T09:19:37.439Z</time>
      </trkpt>
      <trkpt lat="46.99877" lon="8.646">
        <ele>508</ele>
        <time>2021-08-05T09:19:38.439Z</time>
      </trkpt>
      <trkpt lat="46.99876" lon="8.64601">
        <ele>507</ele>
        <time>2021-08-05T09:19:39.439Z</time>
      </trkpt>
      <trkpt lat="46.99875" lon="8.64602">
        <ele>507</ele>
        <time>2021-08-05T09:19:40.439Z</time>
      </trkpt>
      <trkpt lat="46.99874" lon="8.64602">
        <ele>506</ele>
        <time>2021-08-05T09:19:41.439Z</time>
      </trkpt>
      <trkpt lat="46.99874" lon="8.64603">
        <ele>506</ele>
        <time>2021-08-05T09:19:42.439Z</time>
      </trkpt>
      <trkpt lat="46.99873" lon="8.64604">
        <ele>506</ele>
        <time>2021-08-05T09:19:43.439Z</time>
      </trkpt>
      <trkpt lat="46.99872" lon="8.64605">
        <ele>507</ele>
        <time>2021-08-05T09:19:44.439Z</time>
      </trkpt>
      <trkpt lat="46.99871" lon="8.64605">
        <ele>507</ele>
        <time>2021-08-05T09:19:45.439Z</time>
      </trkpt>
      <trkpt lat="46.9987" lon="8.64606">
        <ele>507</ele>
        <time>2021-08-05T09:19:46.439Z</time>
      </trkpt>
      <trkpt lat="46.99869" lon="8.64607">
        <ele>508</ele>
        <time>2021-08-05T09:19:47.439Z</time>
      </trkpt>
      <trkpt lat="46.99868" lon="8.64607">
        <ele>508</ele>
        <time>2021-08-05T09:19:48.439Z</time>
      </trkpt>
      <trkpt lat="46.99867" lon="8.64608">
        <ele>508</ele>
        <time>2021-08-05T09:19:49.439Z</time>
      </trkpt>
      <trkpt lat="46.99867" lon="8.64609">
        <ele>509</ele>
        <time>2021-08-05T09:19:50.439Z</time>
      </trkpt>
      <trkpt lat="46.99866" lon="8.6461">
        <ele>509</ele>
        <time>2021-08-05T09:19:51.439Z</time>
      </trkpt>
      <trkpt lat="46.99865" lon="8.64611">
        <ele>509</ele>
        <time>2021-08-05T09:19:52.439Z</time>
      </trkpt>
      <trkpt lat="46.99864" lon="8.64612">
        <ele>508</ele>
        <time>2021-08-05T09:19:53.439Z</time>
      </trkpt>
      <trkpt lat="46.99863" lon="8.64612">
        <ele>508</ele>
        <time>2021-08-05T09:19:54.439Z</time>
      </trkpt>
      <trkpt lat="46.99862" lon="8.64612">
        <ele>508</ele>
        <time>2021-08-05T09:19:55.439Z</time>
      </trkpt>
      <trkpt lat="46.99861" lon="8.64613">
        <ele>509</ele>
        <time>2021-08-05T09:19:56.439Z</time>
      </trkpt>
      <trkpt lat="46.9986" lon="8.64614">
        <ele>509</ele>
        <time>2021-08-05T09:19:57.439Z</time>
      </trkpt>
      <trkpt lat="46.99859" lon="8.64615">
        <ele>509</ele>
        <time>2021-08-05T09:19:58.439Z</time>
      </trkpt>
      <trkpt lat="46.99858" lon="8.64616">
        <ele>509</ele>
        <time>2021-08-05T09:19:59.439Z</time>
      </trkpt>
      <trkpt lat="46.99857" lon="8.64617">
        <ele>509</ele>
        <time>2021-08-05T09:20:00.439Z</time>
      </trkpt>
      <trkpt lat="46.99857" lon="8.64618">
        <ele>509</ele>
        <time>2021-08-05T09:20:01.439Z</time>
      </trkpt>
      <trkpt lat="46.99856" lon="8.64618">
        <ele>509</ele>
        <time>2021-08-05T09:20:02.439Z</time>
      </trkpt>
      <trkpt lat="46.99855" lon="8.64619">
        <ele>510</ele>
        <time>2021-08-05T09:20:03.439Z</time>
      </trkpt>
      <trkpt lat="46.99854" lon="8.64619">
        <ele>510</ele>
        <time>2021-08-05T09:20:04.439Z</time>
      </trkpt>
      <trkpt lat="46.99853" lon="8.6462">
        <ele>511</ele>
        <time>2021-08-05T09:20:05.439Z</time>
      </trkpt>
      <trkpt lat="46.99852" lon="8.64621">
        <ele>511</ele>
        <time>2021-08-05T09:20:06.439Z</time>
      </trkpt>
      <trkpt lat="46.99851" lon="8.64621">
        <ele>511</ele>
        <time>2021-08-05T09:20:07.439Z</time>
      </trkpt>
      <trkpt lat="46.9985" lon="8.64622">
        <ele>512</ele>
        <time>2021-08-05T09:20:08.439Z</time>
      </trkpt>
      <trkpt lat="46.99849" lon="8.64623">
        <ele>512</ele>
        <time>2021-08-05T09:20:09.439Z</time>
      </trkpt>
      <trkpt lat="46.99848" lon="8.64624">
        <ele>512</ele>
        <time>2021-08-05T09:20:10.439Z</time>
      </trkpt>
      <trkpt lat="46.99847" lon="8.64625">
        <ele>513</ele>
        <time>2021-08-05T09:20:11.439Z</time>
      </trkpt>
      <trkpt lat="46.99847" lon="8.64626">
        <ele>513</ele>
        <time>2021-08-05T09:20:12.439Z</time>
      </trkpt>
      <trkpt lat="46.99846" lon="8.64627">
        <ele>513</ele>
        <time>2021-08-05T09:20:13.439Z</time>
      </trkpt>
      <trkpt lat="46.99845" lon="8.64628">
        <ele>513</ele>
        <time>2021-08-05T09:20:14.439Z</time>
      </trkpt>
      <trkpt lat="46.99844" lon="8.64629">
        <ele>514</ele>
        <time>2021-08-05T09:20:15.439Z</time>
      </trkpt>
      <trkpt lat="46.99844" lon="8.6463">
        <ele>514</ele>
        <time>2021-08-05T09:20:16.439Z</time>
      </trkpt>
      <trkpt lat="46.99843" lon="8.64631">
        <ele>514</ele>
        <time>2021-08-05T09:20:17.439Z</time>
      </trkpt>
      <trkpt lat="46.99843" lon="8.64632">
        <ele>514</ele>
        <time>2021-08-05T09:20:18.439Z</time>
      </trkpt>
      <trkpt lat="46.99842" lon="8.64633">
        <ele>514</ele>
        <time>2021-08-05T09:20:19.439Z</time>
      </trkpt>
      <trkpt lat="46.99841" lon="8.64634">
        <ele>514</ele>
        <time>2021-08-05T09:20:20.439Z</time>
      </trkpt>
      <trkpt lat="46.99841" lon="8.64635">
        <ele>514</ele>
        <time>2021-08-05T09:20:21.439Z</time>
      </trkpt>
      <trkpt lat="46.9984" lon="8.64636">
        <ele>514</ele>
        <time>2021-08-05T09:20:22.439Z</time>
      </trkpt>
      <trkpt lat="46.99839" lon="8.64636">
        <ele>514</ele>
        <time>2021-08-05T09:20:23.439Z</time>
      </trkpt>
      <trkpt lat="46.99839" lon="8.64637">
        <ele>514</ele>
        <time>2021-08-05T09:20:24.439Z</time>
      </trkpt>
      <trkpt lat="46.99838" lon="8.64638">
        <ele>514</ele>
        <time>2021-08-05T09:20:25.439Z</time>
      </trkpt>
      <trkpt lat="46.99838" lon="8.64638">
        <ele>514</ele>
        <time>2021-08-05T09:20:26.439Z</time>
      </trkpt>
      <trkpt lat="46.99837" lon="8.64639">
        <ele>514</ele>
        <time>2021-08-05T09:20:27.439Z</time>
      </trkpt>
      <trkpt lat="46.99836" lon="8.6464">
        <ele>514</ele>
        <time>2021-08-05T09:20:28.439Z</time>
      </trkpt>
      <trkpt lat="46.99835" lon="8.64641">
        <ele>514</ele>
        <time>2021-08-05T09:20:29.439Z</time>
      </trkpt>
      <trkpt lat="46.99834" lon="8.64642">
        <ele>514</ele>
        <time>2021-08-05T09:20:30.439Z</time>
      </trkpt>
      <trkpt lat="46.99834" lon="8.64643">
        <ele>514</ele>
        <time>2021-08-05T09:20:31.439Z</time>
      </trkpt>
      <trkpt lat="46.99833" lon="8.64644">
        <ele>514</ele>
        <time>2021-08-05T09:20:32.439Z</time>
      </trkpt>
      <trkpt lat="46.99832" lon="8.64644">
        <ele>515</ele>
        <time>2021-08-05T09:20:33.439Z</time>
      </trkpt>
      <trkpt lat="46.99832" lon="8.64645">
        <ele>515</ele>
        <time>2021-08-05T09:20:34.439Z</time>
      </trkpt>
      <trkpt lat="46.9983" lon="8.64646">
        <ele>515</ele>
        <time>2021-08-05T09:20:35.439Z</time>
      </trkpt>
      <trkpt lat="46.99829" lon="8.64647">
        <ele>515</ele>
        <time>2021-08-05T09:20:36.439Z</time>
      </trkpt>
      <trkpt lat="46.99829" lon="8.64647">
        <ele>515</ele>
        <time>2021-08-05T09:20:37.439Z</time>
      </trkpt>
      <trkpt lat="46.99828" lon="8.64648">
        <ele>515</ele>
        <time>2021-08-05T09:20:38.439Z</time>
      </trkpt>
      <trkpt lat="46.99827" lon="8.64649">
        <ele>515</ele>
        <time>2021-08-05T09:20:39.439Z</time>
      </trkpt>
      <trkpt lat="46.99826" lon="8.6465">
        <ele>515</ele>
        <time>2021-08-05T09:20:40.439Z</time>
      </trkpt>
      <trkpt lat="46.99826" lon="8.64651">
        <ele>516</ele>
        <time>2021-08-05T09:20:41.439Z</time>
      </trkpt>
      <trkpt lat="46.99825" lon="8.64652">
        <ele>516</ele>
        <time>2021-08-05T09:20:42.439Z</time>
      </trkpt>
      <trkpt lat="46.99824" lon="8.64652">
        <ele>516</ele>
        <time>2021-08-05T09:20:43.439Z</time>
      </trkpt>
      <trkpt lat="46.99823" lon="8.64653">
        <ele>517</ele>
        <time>2021-08-05T09:20:44.439Z</time>
      </trkpt>
      <trkpt lat="46.99822" lon="8.64654">
        <ele>517</ele>
        <time>2021-08-05T09:20:45.439Z</time>
      </trkpt>
      <trkpt lat="46.99822" lon="8.64654">
        <ele>518</ele>
        <time>2021-08-05T09:20:46.439Z</time>
      </trkpt>
      <trkpt lat="46.99821" lon="8.64655">
        <ele>518</ele>
        <time>2021-08-05T09:20:47.439Z</time>
      </trkpt>
      <trkpt lat="46.9982" lon="8.64655">
        <ele>519</ele>
        <time>2021-08-05T09:20:48.439Z</time>
      </trkpt>
      <trkpt lat="46.99819" lon="8.64656">
        <ele>519</ele>
        <time>2021-08-05T09:20:49.439Z</time>
      </trkpt>
      <trkpt lat="46.99819" lon="8.64657">
        <ele>519</ele>
        <time>2021-08-05T09:20:50.439Z</time>
      </trkpt>
      <trkpt lat="46.99818" lon="8.64658">
        <ele>519</ele>
        <time>2021-08-05T09:20:51.439Z</time>
      </trkpt>
      <trkpt lat="46.99818" lon="8.64659">
        <ele>519</ele>
        <time>2021-08-05T09:20:52.439Z</time>
      </trkpt>
      <trkpt lat="46.99817" lon="8.64661">
        <ele>519</ele>
        <time>2021-08-05T09:20:53.439Z</time>
      </trkpt>
      <trkpt lat="46.99816" lon="8.64662">
        <ele>519</ele>
        <time>2021-08-05T09:20:54.439Z</time>
      </trkpt>
      <trkpt lat="46.99815" lon="8.64663">
        <ele>519</ele>
        <time>2021-08-05T09:20:55.439Z</time>
      </trkpt>
      <trkpt lat="46.99814" lon="8.64664">
        <ele>519</ele>
        <time>2021-08-05T09:20:56.439Z</time>
      </trkpt>
      <trkpt lat="46.99813" lon="8.64664">
        <ele>519</ele>
        <time>2021-08-05T09:20:57.439Z</time>
      </trkpt>
      <trkpt lat="46.99812" lon="8.64666">
        <ele>519</ele>
        <time>2021-08-05T09:20:58.439Z</time>
      </trkpt>
      <trkpt lat="46.99812" lon="8.64667">
        <ele>519</ele>
        <time>2021-08-05T09:20:59.439Z</time>
      </trkpt>
      <trkpt lat="46.99811" lon="8.64668">
        <ele>519</ele>
        <time>2021-08-05T09:21:00.439Z</time>
      </trkpt>
      <trkpt lat="46.9981" lon="8.64668">
        <ele>519</ele>
        <time>2021-08-05T09:21:01.439Z</time>
      </trkpt>
      <trkpt lat="46.99809" lon="8.64669">
        <ele>519</ele>
        <time>2021-08-05T09:21:02.439Z</time>
      </trkpt>
      <trkpt lat="46.99808" lon="8.6467">
        <ele>519</ele>
        <time>2021-08-05T09:21:03.439Z</time>
      </trkpt>
      <trkpt lat="46.99807" lon="8.64671">
        <ele>519</ele>
        <time>2021-08-05T09:21:04.439Z</time>
      </trkpt>
      <trkpt lat="46.99807" lon="8.64671">
        <ele>519</ele>
        <time>2021-08-05T09:21:05.439Z</time>
      </trkpt>
      <trkpt lat="46.99806" lon="8.64672">
        <ele>520</ele>
        <time>2021-08-05T09:21:06.439Z</time>
      </trkpt>
      <trkpt lat="46.99805" lon="8.64673">
        <ele>520</ele>
        <time>2021-08-05T09:21:07.439Z</time>
      </trkpt>
      <trkpt lat="46.99804" lon="8.64674">
        <ele>520</ele>
        <time>2021-08-05T09:21:08.439Z</time>
      </trkpt>
      <trkpt lat="46.99803" lon="8.64675">
        <ele>520</ele>
        <time>2021-08-05T09:21:09.439Z</time>
      </trkpt>
      <trkpt lat="46.99802" lon="8.64676">
        <ele>520</ele>
        <time>2021-08-05T09:21:10.439Z</time>
      </trkpt>
      <trkpt lat="46.99801" lon="8.64676">
        <ele>521</ele>
        <time>2021-08-05T09:21:11.439Z</time>
      </trkpt>
      <trkpt lat="46.998" lon="8.64677">
        <ele>521</ele>
        <time>2021-08-05T09:21:12.439Z</time>
      </trkpt>
      <trkpt lat="46.99799" lon="8.64677">
        <ele>522</ele>
        <time>2021-08-05T09:21:13.439Z</time>
      </trkpt>
      <trkpt lat="46.99798" lon="8.64678">
        <ele>522</ele>
        <time>2021-08-05T09:21:14.439Z</time>
      </trkpt>
      <trkpt lat="46.99797" lon="8.64678">
        <ele>522</ele>
        <time>2021-08-05T09:21:15.439Z</time>
      </trkpt>
      <trkpt lat="46.99796" lon="8.64679">
        <ele>522</ele>
        <time>2021-08-05T09:21:16.439Z</time>
      </trkpt>
      <trkpt lat="46.99795" lon="8.64679">
        <ele>522</ele>
        <time>2021-08-05T09:21:17.439Z</time>
      </trkpt>
      <trkpt lat="46.99794" lon="8.6468">
        <ele>523</ele>
        <time>2021-08-05T09:21:18.439Z</time>
      </trkpt>
      <trkpt lat="46.99793" lon="8.6468">
        <ele>523</ele>
        <time>2021-08-05T09:21:19.439Z</time>
      </trkpt>
      <trkpt lat="46.99792" lon="8.64681">
        <ele>523</ele>
        <time>2021-08-05T09:21:20.439Z</time>
      </trkpt>
      <trkpt lat="46.99791" lon="8.64681">
        <ele>523</ele>
        <time>2021-08-05T09:21:21.439Z</time>
      </trkpt>
      <trkpt lat="46.9979" lon="8.64681">
        <ele>523</ele>
        <time>2021-08-05T09:21:22.439Z</time>
      </trkpt>
      <trkpt lat="46.99788" lon="8.64682">
        <ele>523</ele>
        <time>2021-08-05T09:21:23.439Z</time>
      </trkpt>
      <trkpt lat="46.99787" lon="8.64682">
        <ele>523</ele>
        <time>2021-08-05T09:21:24.439Z</time>
      </trkpt>
      <trkpt lat="46.99786" lon="8.64682">
        <ele>523</ele>
        <time>2021-08-05T09:21:25.439Z</time>
      </trkpt>
      <trkpt lat="46.99785" lon="8.64682">
        <ele>523</ele>
        <time>2021-08-05T09:21:26.439Z</time>
      </trkpt>
      <trkpt lat="46.99784" lon="8.64683">
        <ele>523</ele>
        <time>2021-08-05T09:21:27.439Z</time>
      </trkpt>
      <trkpt lat="46.99783" lon="8.64682">
        <ele>523</ele>
        <time>2021-08-05T09:21:28.439Z</time>
      </trkpt>
      <trkpt lat="46.99781" lon="8.64683">
        <ele>523</ele>
        <time>2021-08-05T09:21:29.439Z</time>
      </trkpt>
      <trkpt lat="46.9978" lon="8.64683">
        <ele>523</ele>
        <time>2021-08-05T09:21:30.439Z</time>
      </trkpt>
      <trkpt lat="46.99779" lon="8.64683">
        <ele>523</ele>
        <time>2021-08-05T09:21:31.439Z</time>
      </trkpt>
      <trkpt lat="46.99778" lon="8.64683">
        <ele>522</ele>
        <time>2021-08-05T09:21:32.439Z</time>
      </trkpt>
      <trkpt lat="46.99777" lon="8.64683">
        <ele>522</ele>
        <time>2021-08-05T09:21:33.439Z</time>
      </trkpt>
      <trkpt lat="46.99776" lon="8.64683">
        <ele>522</ele>
        <time>2021-08-05T09:21:34.439Z</time>
      </trkpt>
      <trkpt lat="46.99775" lon="8.64683">
        <ele>522</ele>
        <time>2021-08-05T09:21:35.439Z</time>
      </trkpt>
      <trkpt lat="46.99774" lon="8.64683">
        <ele>522</ele>
        <time>2021-08-05T09:21:36.439Z</time>
      </trkpt>
      <trkpt lat="46.99773" lon="8.64682">
        <ele>522</ele>
        <time>2021-08-05T09:21:37.439Z</time>
      </trkpt>
      <trkpt lat="46.99772" lon="8.64682">
        <ele>522</ele>
        <time>2021-08-05T09:21:38.439Z</time>
      </trkpt>
      <trkpt lat="46.99771" lon="8.64681">
        <ele>522</ele>
        <time>2021-08-05T09:21:39.439Z</time>
      </trkpt>
      <trkpt lat="46.9977" lon="8.64681">
        <ele>522</ele>
        <time>2021-08-05T09:21:40.439Z</time>
      </trkpt>
      <trkpt lat="46.99769" lon="8.6468">
        <ele>522</ele>
        <time>2021-08-05T09:21:41.439Z</time>
      </trkpt>
      <trkpt lat="46.99768" lon="8.6468">
        <ele>522</ele>
        <time>2021-08-05T09:21:42.439Z</time>
      </trkpt>
      <trkpt lat="46.99767" lon="8.64679">
        <ele>522</ele>
        <time>2021-08-05T09:21:43.439Z</time>
      </trkpt>
      <trkpt lat="46.99766" lon="8.64679">
        <ele>522</ele>
        <time>2021-08-05T09:21:44.439Z</time>
      </trkpt>
      <trkpt lat="46.99765" lon="8.64678">
        <ele>522</ele>
        <time>2021-08-05T09:21:45.439Z</time>
      </trkpt>
      <trkpt lat="46.99763" lon="8.64678">
        <ele>522</ele>
        <time>2021-08-05T09:21:46.439Z</time>
      </trkpt>
      <trkpt lat="46.99762" lon="8.64678">
        <ele>522</ele>
        <time>2021-08-05T09:21:47.439Z</time>
      </trkpt>
      <trkpt lat="46.99761" lon="8.64677">
        <ele>521</ele>
        <time>2021-08-05T09:21:48.439Z</time>
      </trkpt>
      <trkpt lat="46.9976" lon="8.64677">
        <ele>521</ele>
        <time>2021-08-05T09:21:49.439Z</time>
      </trkpt>
      <trkpt lat="46.99759" lon="8.64677">
        <ele>521</ele>
        <time>2021-08-05T09:21:50.439Z</time>
      </trkpt>
      <trkpt lat="46.99757" lon="8.64677">
        <ele>521</ele>
        <time>2021-08-05T09:21:51.439Z</time>
      </trkpt>
      <trkpt lat="46.99756" lon="8.64677">
        <ele>521</ele>
        <time>2021-08-05T09:21:52.439Z</time>
      </trkpt>
      <trkpt lat="46.99754" lon="8.64677">
        <ele>521</ele>
        <time>2021-08-05T09:21:53.439Z</time>
      </trkpt>
      <trkpt lat="46.99753" lon="8.64677">
        <ele>521</ele>
        <time>2021-08-05T09:21:54.439Z</time>
      </trkpt>
      <trkpt lat="46.99752" lon="8.64677">
        <ele>522</ele>
        <time>2021-08-05T09:21:55.439Z</time>
      </trkpt>
      <trkpt lat="46.99751" lon="8.64678">
        <ele>523</ele>
        <time>2021-08-05T09:21:56.439Z</time>
      </trkpt>
      <trkpt lat="46.9975" lon="8.64678">
        <ele>524</ele>
        <time>2021-08-05T09:21:57.439Z</time>
      </trkpt>
      <trkpt lat="46.99749" lon="8.64679">
        <ele>524</ele>
        <time>2021-08-05T09:21:58.439Z</time>
      </trkpt>
      <trkpt lat="46.99748" lon="8.64679">
        <ele>525</ele>
        <time>2021-08-05T09:21:59.439Z</time>
      </trkpt>
      <trkpt lat="46.99746" lon="8.6468">
        <ele>526</ele>
        <time>2021-08-05T09:22:00.439Z</time>
      </trkpt>
      <trkpt lat="46.99746" lon="8.6468">
        <ele>526</ele>
        <time>2021-08-05T09:22:01.439Z</time>
      </trkpt>
      <trkpt lat="46.99744" lon="8.64681">
        <ele>527</ele>
        <time>2021-08-05T09:22:02.439Z</time>
      </trkpt>
      <trkpt lat="46.99744" lon="8.64682">
        <ele>527</ele>
        <time>2021-08-05T09:22:03.439Z</time>
      </trkpt>
      <trkpt lat="46.99742" lon="8.64682">
        <ele>527</ele>
        <time>2021-08-05T09:22:04.439Z</time>
      </trkpt>
      <trkpt lat="46.99741" lon="8.64683">
        <ele>528</ele>
        <time>2021-08-05T09:22:05.439Z</time>
      </trkpt>
      <trkpt lat="46.9974" lon="8.64684">
        <ele>528</ele>
        <time>2021-08-05T09:22:06.439Z</time>
      </trkpt>
      <trkpt lat="46.9974" lon="8.64685">
        <ele>528</ele>
        <time>2021-08-05T09:22:07.439Z</time>
      </trkpt>
      <trkpt lat="46.99739" lon="8.64685">
        <ele>528</ele>
        <time>2021-08-05T09:22:08.439Z</time>
      </trkpt>
      <trkpt lat="46.99738" lon="8.64686">
        <ele>528</ele>
        <time>2021-08-05T09:22:09.439Z</time>
      </trkpt>
      <trkpt lat="46.99737" lon="8.64687">
        <ele>528</ele>
        <time>2021-08-05T09:22:10.439Z</time>
      </trkpt>
      <trkpt lat="46.99736" lon="8.64687">
        <ele>528</ele>
        <time>2021-08-05T09:22:11.439Z</time>
      </trkpt>
      <trkpt lat="46.99735" lon="8.64688">
        <ele>528</ele>
        <time>2021-08-05T09:22:12.439Z</time>
      </trkpt>
      <trkpt lat="46.99734" lon="8.64689">
        <ele>528</ele>
        <time>2021-08-05T09:22:13.439Z</time>
      </trkpt>
      <trkpt lat="46.99733" lon="8.6469">
        <ele>528</ele>
        <time>2021-08-05T09:22:14.439Z</time>
      </trkpt>
      <trkpt lat="46.99732" lon="8.64691">
        <ele>528</ele>
        <time>2021-08-05T09:22:15.439Z</time>
      </trkpt>
      <trkpt lat="46.99731" lon="8.64692">
        <ele>528</ele>
        <time>2021-08-05T09:22:16.439Z</time>
      </trkpt>
      <trkpt lat="46.9973" lon="8.64693">
        <ele>528</ele>
        <time>2021-08-05T09:22:17.439Z</time>
      </trkpt>
      <trkpt lat="46.99729" lon="8.64694">
        <ele>529</ele>
        <time>2021-08-05T09:22:18.439Z</time>
      </trkpt>
      <trkpt lat="46.99729" lon="8.64696">
        <ele>529</ele>
        <time>2021-08-05T09:22:19.439Z</time>
      </trkpt>
      <trkpt lat="46.99728" lon="8.64697">
        <ele>529</ele>
        <time>2021-08-05T09:22:20.439Z</time>
      </trkpt>
      <trkpt lat="46.99727" lon="8.64698">
        <ele>529</ele>
        <time>2021-08-05T09:22:21.439Z</time>
      </trkpt>
      <trkpt lat="46.99726" lon="8.64699">
        <ele>529</ele>
        <time>2021-08-05T09:22:22.439Z</time>
      </trkpt>
      <trkpt lat="46.99725" lon="8.64699">
        <ele>529</ele>
        <time>2021-08-05T09:22:23.439Z</time>
      </trkpt>
      <trkpt lat="46.99724" lon="8.647">
        <ele>530</ele>
        <time>2021-08-05T09:22:24.439Z</time>
      </trkpt>
      <trkpt lat="46.99723" lon="8.64701">
        <ele>530</ele>
        <time>2021-08-05T09:22:25.439Z</time>
      </trkpt>
      <trkpt lat="46.99722" lon="8.64702">
        <ele>531</ele>
        <time>2021-08-05T09:22:26.439Z</time>
      </trkpt>
      <trkpt lat="46.99721" lon="8.64703">
        <ele>531</ele>
        <time>2021-08-05T09:22:27.439Z</time>
      </trkpt>
      <trkpt lat="46.99719" lon="8.64704">
        <ele>532</ele>
        <time>2021-08-05T09:22:28.439Z</time>
      </trkpt>
      <trkpt lat="46.99718" lon="8.64705">
        <ele>532</ele>
        <time>2021-08-05T09:22:29.439Z</time>
      </trkpt>
      <trkpt lat="46.99717" lon="8.64706">
        <ele>532</ele>
        <time>2021-08-05T09:22:30.439Z</time>
      </trkpt>
      <trkpt lat="46.99716" lon="8.64706">
        <ele>531</ele>
        <time>2021-08-05T09:22:31.439Z</time>
      </trkpt>
      <trkpt lat="46.99715" lon="8.64707">
        <ele>531</ele>
        <time>2021-08-05T09:22:32.439Z</time>
      </trkpt>
      <trkpt lat="46.99714" lon="8.64708">
        <ele>531</ele>
        <time>2021-08-05T09:22:33.439Z</time>
      </trkpt>
      <trkpt lat="46.99713" lon="8.64709">
        <ele>531</ele>
        <time>2021-08-05T09:22:34.439Z</time>
      </trkpt>
      <trkpt lat="46.99712" lon="8.6471">
        <ele>531</ele>
        <time>2021-08-05T09:22:35.439Z</time>
      </trkpt>
      <trkpt lat="46.99711" lon="8.6471">
        <ele>531</ele>
        <time>2021-08-05T09:22:36.439Z</time>
      </trkpt>
      <trkpt lat="46.9971" lon="8.64711">
        <ele>532</ele>
        <time>2021-08-05T09:22:37.439Z</time>
      </trkpt>
      <trkpt lat="46.9971" lon="8.64712">
        <ele>532</ele>
        <time>2021-08-05T09:22:38.439Z</time>
      </trkpt>
      <trkpt lat="46.99709" lon="8.64712">
        <ele>532</ele>
        <time>2021-08-05T09:22:39.439Z</time>
      </trkpt>
      <trkpt lat="46.99708" lon="8.64713">
        <ele>532</ele>
        <time>2021-08-05T09:22:40.439Z</time>
      </trkpt>
      <trkpt lat="46.99707" lon="8.64714">
        <ele>532</ele>
        <time>2021-08-05T09:22:41.439Z</time>
      </trkpt>
      <trkpt lat="46.99706" lon="8.64714">
        <ele>532</ele>
        <time>2021-08-05T09:22:42.439Z</time>
      </trkpt>
      <trkpt lat="46.99705" lon="8.64714">
        <ele>532</ele>
        <time>2021-08-05T09:22:43.439Z</time>
      </trkpt>
      <trkpt lat="46.99704" lon="8.64714">
        <ele>532</ele>
        <time>2021-08-05T09:22:44.439Z</time>
      </trkpt>
      <trkpt lat="46.99703" lon="8.64715">
        <ele>532</ele>
        <time>2021-08-05T09:22:45.439Z</time>
      </trkpt>
      <trkpt lat="46.99703" lon="8.64716">
        <ele>533</ele>
        <time>2021-08-05T09:22:46.439Z</time>
      </trkpt>
      <trkpt lat="46.99702" lon="8.64717">
        <ele>533</ele>
        <time>2021-08-05T09:22:47.439Z</time>
      </trkpt>
      <trkpt lat="46.99701" lon="8.64717">
        <ele>533</ele>
        <time>2021-08-05T09:22:48.439Z</time>
      </trkpt>
      <trkpt lat="46.99701" lon="8.64718">
        <ele>534</ele>
        <time>2021-08-05T09:22:49.439Z</time>
      </trkpt>
      <trkpt lat="46.997" lon="8.64719">
        <ele>534</ele>
        <time>2021-08-05T09:22:50.439Z</time>
      </trkpt>
      <trkpt lat="46.997" lon="8.64721">
        <ele>534</ele>
        <time>2021-08-05T09:22:51.439Z</time>
      </trkpt>
      <trkpt lat="46.99699" lon="8.64722">
        <ele>534</ele>
        <time>2021-08-05T09:22:52.439Z</time>
      </trkpt>
      <trkpt lat="46.99699" lon="8.64723">
        <ele>535</ele>
        <time>2021-08-05T09:22:53.439Z</time>
      </trkpt>
      <trkpt lat="46.99698" lon="8.64724">
        <ele>535</ele>
        <time>2021-08-05T09:22:54.439Z</time>
      </trkpt>
      <trkpt lat="46.99697" lon="8.64725">
        <ele>535</ele>
        <time>2021-08-05T09:22:55.439Z</time>
      </trkpt>
      <trkpt lat="46.99696" lon="8.64726">
        <ele>535</ele>
        <time>2021-08-05T09:22:56.439Z</time>
      </trkpt>
      <trkpt lat="46.99695" lon="8.64727">
        <ele>535</ele>
        <time>2021-08-05T09:22:57.439Z</time>
      </trkpt>
      <trkpt lat="46.99695" lon="8.64728">
        <ele>536</ele>
        <time>2021-08-05T09:22:58.439Z</time>
      </trkpt>
      <trkpt lat="46.99695" lon="8.64728">
        <ele>536</ele>
        <time>2021-08-05T09:22:59.439Z</time>
      </trkpt>
      <trkpt lat="46.99694" lon="8.64729">
        <ele>537</ele>
        <time>2021-08-05T09:23:00.439Z</time>
      </trkpt>
      <trkpt lat="46.99694" lon="8.6473">
        <ele>537</ele>
        <time>2021-08-05T09:23:01.439Z</time>
      </trkpt>
      <trkpt lat="46.99693" lon="8.6473">
        <ele>538</ele>
        <time>2021-08-05T09:23:02.439Z</time>
      </trkpt>
      <trkpt lat="46.99693" lon="8.64732">
        <ele>538</ele>
        <time>2021-08-05T09:23:03.439Z</time>
      </trkpt>
      <trkpt lat="46.99692" lon="8.64734">
        <ele>538</ele>
        <time>2021-08-05T09:23:04.439Z</time>
      </trkpt>
      <trkpt lat="46.99691" lon="8.64735">
        <ele>539</ele>
        <time>2021-08-05T09:23:05.439Z</time>
      </trkpt>
      <trkpt lat="46.99689" lon="8.64735">
        <ele>539</ele>
        <time>2021-08-05T09:23:06.439Z</time>
      </trkpt>
      <trkpt lat="46.99688" lon="8.64736">
        <ele>539</ele>
        <time>2021-08-05T09:23:07.439Z</time>
      </trkpt>
      <trkpt lat="46.99687" lon="8.64737">
        <ele>539</ele>
        <time>2021-08-05T09:23:08.439Z</time>
      </trkpt>
      <trkpt lat="46.99686" lon="8.64737">
        <ele>539</ele>
        <time>2021-08-05T09:23:09.439Z</time>
      </trkpt>
      <trkpt lat="46.99685" lon="8.64738">
        <ele>539</ele>
        <time>2021-08-05T09:23:10.439Z</time>
      </trkpt>
      <trkpt lat="46.99685" lon="8.64738">
        <ele>539</ele>
        <time>2021-08-05T09:23:11.439Z</time>
      </trkpt>
      <trkpt lat="46.99684" lon="8.64738">
        <ele>539</ele>
        <time>2021-08-05T09:23:12.439Z</time>
      </trkpt>
      <trkpt lat="46.99683" lon="8.64739">
        <ele>538</ele>
        <time>2021-08-05T09:23:13.439Z</time>
      </trkpt>
      <trkpt lat="46.99682" lon="8.64739">
        <ele>538</ele>
        <time>2021-08-05T09:23:14.439Z</time>
      </trkpt>
      <trkpt lat="46.9968" lon="8.6474">
        <ele>538</ele>
        <time>2021-08-05T09:23:15.439Z</time>
      </trkpt>
      <trkpt lat="46.99679" lon="8.64741">
        <ele>538</ele>
        <time>2021-08-05T09:23:16.439Z</time>
      </trkpt>
      <trkpt lat="46.99678" lon="8.64741">
        <ele>537</ele>
        <time>2021-08-05T09:23:17.439Z</time>
      </trkpt>
      <trkpt lat="46.99677" lon="8.64741">
        <ele>537</ele>
        <time>2021-08-05T09:23:18.439Z</time>
      </trkpt>
      <trkpt lat="46.99677" lon="8.64741">
        <ele>537</ele>
        <time>2021-08-05T09:23:19.439Z</time>
      </trkpt>
      <trkpt lat="46.99675" lon="8.64741">
        <ele>537</ele>
        <time>2021-08-05T09:23:20.439Z</time>
      </trkpt>
      <trkpt lat="46.99674" lon="8.64741">
        <ele>537</ele>
        <time>2021-08-05T09:23:21.439Z</time>
      </trkpt>
      <trkpt lat="46.99673" lon="8.64741">
        <ele>536</ele>
        <time>2021-08-05T09:23:22.439Z</time>
      </trkpt>
      <trkpt lat="46.99672" lon="8.6474">
        <ele>536</ele>
        <time>2021-08-05T09:23:23.439Z</time>
      </trkpt>
      <trkpt lat="46.9967" lon="8.6474">
        <ele>536</ele>
        <time>2021-08-05T09:23:24.439Z</time>
      </trkpt>
      <trkpt lat="46.99669" lon="8.64739">
        <ele>535</ele>
        <time>2021-08-05T09:23:25.439Z</time>
      </trkpt>
      <trkpt lat="46.99668" lon="8.64739">
        <ele>535</ele>
        <time>2021-08-05T09:23:26.439Z</time>
      </trkpt>
      <trkpt lat="46.99667" lon="8.64738">
        <ele>535</ele>
        <time>2021-08-05T09:23:27.439Z</time>
      </trkpt>
      <trkpt lat="46.99666" lon="8.64737">
        <ele>535</ele>
        <time>2021-08-05T09:23:28.439Z</time>
      </trkpt>
      <trkpt lat="46.99665" lon="8.64736">
        <ele>535</ele>
        <time>2021-08-05T09:23:29.439Z</time>
      </trkpt>
      <trkpt lat="46.99664" lon="8.64735">
        <ele>536</ele>
        <time>2021-08-05T09:23:30.439Z</time>
      </trkpt>
      <trkpt lat="46.99662" lon="8.64734">
        <ele>536</ele>
        <time>2021-08-05T09:23:31.439Z</time>
      </trkpt>
      <trkpt lat="46.99661" lon="8.64734">
        <ele>537</ele>
        <time>2021-08-05T09:23:32.439Z</time>
      </trkpt>
      <trkpt lat="46.9966" lon="8.64734">
        <ele>537</ele>
        <time>2021-08-05T09:23:33.439Z</time>
      </trkpt>
      <trkpt lat="46.9966" lon="8.64734">
        <ele>537</ele>
        <time>2021-08-05T09:23:34.439Z</time>
      </trkpt>
      <trkpt lat="46.99659" lon="8.64734">
        <ele>538</ele>
        <time>2021-08-05T09:23:35.439Z</time>
      </trkpt>
      <trkpt lat="46.99657" lon="8.64733">
        <ele>538</ele>
        <time>2021-08-05T09:23:36.439Z</time>
      </trkpt>
      <trkpt lat="46.99656" lon="8.64732">
        <ele>539</ele>
        <time>2021-08-05T09:23:37.439Z</time>
      </trkpt>
      <trkpt lat="46.99655" lon="8.64732">
        <ele>539</ele>
        <time>2021-08-05T09:23:38.439Z</time>
      </trkpt>
      <trkpt lat="46.99654" lon="8.64731">
        <ele>539</ele>
        <time>2021-08-05T09:23:39.439Z</time>
      </trkpt>
      <trkpt lat="46.99653" lon="8.6473">
        <ele>540</ele>
        <time>2021-08-05T09:23:40.439Z</time>
      </trkpt>
      <trkpt lat="46.99652" lon="8.64729">
        <ele>540</ele>
        <time>2021-08-05T09:23:41.439Z</time>
      </trkpt>
      <trkpt lat="46.99652" lon="8.64728">
        <ele>540</ele>
        <time>2021-08-05T09:23:42.439Z</time>
      </trkpt>
      <trkpt lat="46.99651" lon="8.64727">
        <ele>540</ele>
        <time>2021-08-05T09:23:43.439Z</time>
      </trkpt>
      <trkpt lat="46.99651" lon="8.64726">
        <ele>541</ele>
        <time>2021-08-05T09:23:44.439Z</time>
      </trkpt>
      <trkpt lat="46.99649" lon="8.64725">
        <ele>541</ele>
        <time>2021-08-05T09:23:45.439Z</time>
      </trkpt>
      <trkpt lat="46.99648" lon="8.64724">
        <ele>541</ele>
        <time>2021-08-05T09:23:46.439Z</time>
      </trkpt>
      <trkpt lat="46.99647" lon="8.64723">
        <ele>542</ele>
        <time>2021-08-05T09:23:47.439Z</time>
      </trkpt>
      <trkpt lat="46.99646" lon="8.64723">
        <ele>542</ele>
        <time>2021-08-05T09:23:48.439Z</time>
      </trkpt>
      <trkpt lat="46.99645" lon="8.64723">
        <ele>542</ele>
        <time>2021-08-05T09:23:49.439Z</time>
      </trkpt>
      <trkpt lat="46.99644" lon="8.64723">
        <ele>542</ele>
        <time>2021-08-05T09:23:50.439Z</time>
      </trkpt>
      <trkpt lat="46.99643" lon="8.64722">
        <ele>542</ele>
        <time>2021-08-05T09:23:51.439Z</time>
      </trkpt>
      <trkpt lat="46.99641" lon="8.64722">
        <ele>542</ele>
        <time>2021-08-05T09:23:52.439Z</time>
      </trkpt>
      <trkpt lat="46.99641" lon="8.64721">
        <ele>541</ele>
        <time>2021-08-05T09:23:53.439Z</time>
      </trkpt>
      <trkpt lat="46.9964" lon="8.6472">
        <ele>541</ele>
        <time>2021-08-05T09:23:54.439Z</time>
      </trkpt>
      <trkpt lat="46.99639" lon="8.6472">
        <ele>541</ele>
        <time>2021-08-05T09:23:55.439Z</time>
      </trkpt>
      <trkpt lat="46.99639" lon="8.6472">
        <ele>541</ele>
        <time>2021-08-05T09:23:56.439Z</time>
      </trkpt>
      <trkpt lat="46.99639" lon="8.64719">
        <ele>540</ele>
        <time>2021-08-05T09:23:57.439Z</time>
      </trkpt>
      <trkpt lat="46.99638" lon="8.64717">
        <ele>540</ele>
        <time>2021-08-05T09:23:58.439Z</time>
      </trkpt>
      <trkpt lat="46.99637" lon="8.64716">
        <ele>540</ele>
        <time>2021-08-05T09:23:59.439Z</time>
      </trkpt>
      <trkpt lat="46.99636" lon="8.64716">
        <ele>539</ele>
        <time>2021-08-05T09:24:00.439Z</time>
      </trkpt>
      <trkpt lat="46.99635" lon="8.64715">
        <ele>539</ele>
        <time>2021-08-05T09:24:01.439Z</time>
      </trkpt>
      <trkpt lat="46.99634" lon="8.64715">
        <ele>539</ele>
        <time>2021-08-05T09:24:02.439Z</time>
      </trkpt>
      <trkpt lat="46.99634" lon="8.64714">
        <ele>539</ele>
        <time>2021-08-05T09:24:03.439Z</time>
      </trkpt>
      <trkpt lat="46.99633" lon="8.64713">
        <ele>539</ele>
        <time>2021-08-05T09:24:04.439Z</time>
      </trkpt>
      <trkpt lat="46.99632" lon="8.64712">
        <ele>539</ele>
        <time>2021-08-05T09:24:05.439Z</time>
      </trkpt>
      <trkpt lat="46.99631" lon="8.64711">
        <ele>539</ele>
        <time>2021-08-05T09:24:06.439Z</time>
      </trkpt>
      <trkpt lat="46.99631" lon="8.64711">
        <ele>539</ele>
        <time>2021-08-05T09:24:07.439Z</time>
      </trkpt>
      <trkpt lat="46.9963" lon="8.6471">
        <ele>538</ele>
        <time>2021-08-05T09:24:08.439Z</time>
      </trkpt>
      <trkpt lat="46.9963" lon="8.64709">
        <ele>538</ele>
        <time>2021-08-05T09:24:09.439Z</time>
      </trkpt>
      <trkpt lat="46.99629" lon="8.64708">
        <ele>538</ele>
        <time>2021-08-05T09:24:10.439Z</time>
      </trkpt>
      <trkpt lat="46.99628" lon="8.64707">
        <ele>538</ele>
        <time>2021-08-05T09:24:11.439Z</time>
      </trkpt>
      <trkpt lat="46.99627" lon="8.64706">
        <ele>538</ele>
        <time>2021-08-05T09:24:12.439Z</time>
      </trkpt>
      <trkpt lat="46.99626" lon="8.64705">
        <ele>538</ele>
        <time>2021-08-05T09:24:13.439Z</time>
      </trkpt>
      <trkpt lat="46.99626" lon="8.64704">
        <ele>538</ele>
        <time>2021-08-05T09:24:14.439Z</time>
      </trkpt>
      <trkpt lat="46.99625" lon="8.64703">
        <ele>539</ele>
        <time>2021-08-05T09:24:15.439Z</time>
      </trkpt>
      <trkpt lat="46.99624" lon="8.64702">
        <ele>539</ele>
        <time>2021-08-05T09:24:16.439Z</time>
      </trkpt>
      <trkpt lat="46.99623" lon="8.64702">
        <ele>539</ele>
        <time>2021-08-05T09:24:17.439Z</time>
      </trkpt>
      <trkpt lat="46.99621" lon="8.64701">
        <ele>539</ele>
        <time>2021-08-05T09:24:18.439Z</time>
      </trkpt>
      <trkpt lat="46.9962" lon="8.647">
        <ele>539</ele>
        <time>2021-08-05T09:24:19.439Z</time>
      </trkpt>
      <trkpt lat="46.9962" lon="8.64699">
        <ele>539</ele>
        <time>2021-08-05T09:24:20.439Z</time>
      </trkpt>
      <trkpt lat="46.99619" lon="8.64699">
        <ele>539</ele>
        <time>2021-08-05T09:24:21.439Z</time>
      </trkpt>
      <trkpt lat="46.99618" lon="8.64698">
        <ele>539</ele>
        <time>2021-08-05T09:24:22.439Z</time>
      </trkpt>
      <trkpt lat="46.99617" lon="8.64697">
        <ele>539</ele>
        <time>2021-08-05T09:24:23.439Z</time>
      </trkpt>
      <trkpt lat="46.99616" lon="8.64697">
        <ele>539</ele>
        <time>2021-08-05T09:24:24.439Z</time>
      </trkpt>
      <trkpt lat="46.99615" lon="8.64696">
        <ele>539</ele>
        <time>2021-08-05T09:24:25.439Z</time>
      </trkpt>
      <trkpt lat="46.99614" lon="8.64696">
        <ele>540</ele>
        <time>2021-08-05T09:24:26.439Z</time>
      </trkpt>
      <trkpt lat="46.99613" lon="8.64696">
        <ele>540</ele>
        <time>2021-08-05T09:24:27.439Z</time>
      </trkpt>
      <trkpt lat="46.99611" lon="8.64696">
        <ele>540</ele>
        <time>2021-08-05T09:24:28.439Z</time>
      </trkpt>
      <trkpt lat="46.9961" lon="8.64696">
        <ele>541</ele>
        <time>2021-08-05T09:24:29.439Z</time>
      </trkpt>
      <trkpt lat="46.99609" lon="8.64697">
        <ele>541</ele>
        <time>2021-08-05T09:24:30.439Z</time>
      </trkpt>
      <trkpt lat="46.99609" lon="8.64697">
        <ele>541</ele>
        <time>2021-08-05T09:24:31.439Z</time>
      </trkpt>
      <trkpt lat="46.99608" lon="8.64698">
        <ele>541</ele>
        <time>2021-08-05T09:24:32.439Z</time>
      </trkpt>
      <trkpt lat="46.99607" lon="8.64698">
        <ele>541</ele>
        <time>2021-08-05T09:24:33.439Z</time>
      </trkpt>
      <trkpt lat="46.99606" lon="8.64699">
        <ele>541</ele>
        <time>2021-08-05T09:24:34.439Z</time>
      </trkpt>
      <trkpt lat="46.99605" lon="8.64699">
        <ele>541</ele>
        <time>2021-08-05T09:24:35.439Z</time>
      </trkpt>
      <trkpt lat="46.99604" lon="8.647">
        <ele>542</ele>
        <time>2021-08-05T09:24:36.439Z</time>
      </trkpt>
      <trkpt lat="46.99603" lon="8.647">
        <ele>542</ele>
        <time>2021-08-05T09:24:37.439Z</time>
      </trkpt>
      <trkpt lat="46.99603" lon="8.64701">
        <ele>542</ele>
        <time>2021-08-05T09:24:38.439Z</time>
      </trkpt>
      <trkpt lat="46.99602" lon="8.64702">
        <ele>542</ele>
        <time>2021-08-05T09:24:39.439Z</time>
      </trkpt>
      <trkpt lat="46.99601" lon="8.64703">
        <ele>542</ele>
        <time>2021-08-05T09:24:40.439Z</time>
      </trkpt>
      <trkpt lat="46.996" lon="8.64703">
        <ele>542</ele>
        <time>2021-08-05T09:24:41.439Z</time>
      </trkpt>
      <trkpt lat="46.99599" lon="8.64704">
        <ele>542</ele>
        <time>2021-08-05T09:24:42.439Z</time>
      </trkpt>
      <trkpt lat="46.99599" lon="8.64705">
        <ele>542</ele>
        <time>2021-08-05T09:24:43.439Z</time>
      </trkpt>
      <trkpt lat="46.99598" lon="8.64706">
        <ele>542</ele>
        <time>2021-08-05T09:24:44.439Z</time>
      </trkpt>
      <trkpt lat="46.99597" lon="8.64707">
        <ele>542</ele>
        <time>2021-08-05T09:24:45.439Z</time>
      </trkpt>
      <trkpt lat="46.99597" lon="8.64708">
        <ele>542</ele>
        <time>2021-08-05T09:24:46.439Z</time>
      </trkpt>
      <trkpt lat="46.99596" lon="8.64709">
        <ele>543</ele>
        <time>2021-08-05T09:24:47.439Z</time>
      </trkpt>
      <trkpt lat="46.99596" lon="8.6471">
        <ele>543</ele>
        <time>2021-08-05T09:24:48.439Z</time>
      </trkpt>
      <trkpt lat="46.99595" lon="8.64711">
        <ele>543</ele>
        <time>2021-08-05T09:24:49.439Z</time>
      </trkpt>
      <trkpt lat="46.99594" lon="8.64713">
        <ele>543</ele>
        <time>2021-08-05T09:24:50.439Z</time>
      </trkpt>
      <trkpt lat="46.99593" lon="8.64714">
        <ele>543</ele>
        <time>2021-08-05T09:24:51.439Z</time>
      </trkpt>
      <trkpt lat="46.99593" lon="8.64715">
        <ele>542</ele>
        <time>2021-08-05T09:24:52.439Z</time>
      </trkpt>
      <trkpt lat="46.99592" lon="8.64717">
        <ele>542</ele>
        <time>2021-08-05T09:24:53.439Z</time>
      </trkpt>
      <trkpt lat="46.99592" lon="8.64718">
        <ele>542</ele>
        <time>2021-08-05T09:24:54.439Z</time>
      </trkpt>
      <trkpt lat="46.99591" lon="8.64719">
        <ele>542</ele>
        <time>2021-08-05T09:24:55.439Z</time>
      </trkpt>
      <trkpt lat="46.9959" lon="8.6472">
        <ele>542</ele>
        <time>2021-08-05T09:24:56.439Z</time>
      </trkpt>
      <trkpt lat="46.9959" lon="8.64721">
        <ele>542</ele>
        <time>2021-08-05T09:24:57.439Z</time>
      </trkpt>
      <trkpt lat="46.99589" lon="8.64722">
        <ele>542</ele>
        <time>2021-08-05T09:24:58.439Z</time>
      </trkpt>
      <trkpt lat="46.99588" lon="8.64723">
        <ele>542</ele>
        <time>2021-08-05T09:24:59.439Z</time>
      </trkpt>
      <trkpt lat="46.99587" lon="8.64723">
        <ele>542</ele>
        <time>2021-08-05T09:25:00.439Z</time>
      </trkpt>
      <trkpt lat="46.99585" lon="8.64724">
        <ele>542</ele>
        <time>2021-08-05T09:25:01.439Z</time>
      </trkpt>
      <trkpt lat="46.99584" lon="8.64724">
        <ele>542</ele>
        <time>2021-08-05T09:25:02.439Z</time>
      </trkpt>
      <trkpt lat="46.99583" lon="8.64725">
        <ele>543</ele>
        <time>2021-08-05T09:25:03.439Z</time>
      </trkpt>
      <trkpt lat="46.99582" lon="8.64725">
        <ele>544</ele>
        <time>2021-08-05T09:25:04.439Z</time>
      </trkpt>
      <trkpt lat="46.99581" lon="8.64725">
        <ele>544</ele>
        <time>2021-08-05T09:25:05.439Z</time>
      </trkpt>
      <trkpt lat="46.99579" lon="8.64725">
        <ele>545</ele>
        <time>2021-08-05T09:25:06.439Z</time>
      </trkpt>
      <trkpt lat="46.99578" lon="8.64725">
        <ele>545</ele>
        <time>2021-08-05T09:25:07.439Z</time>
      </trkpt>
      <trkpt lat="46.99576" lon="8.64725">
        <ele>545</ele>
        <time>2021-08-05T09:25:08.439Z</time>
      </trkpt>
      <trkpt lat="46.99575" lon="8.64725">
        <ele>545</ele>
        <time>2021-08-05T09:25:09.439Z</time>
      </trkpt>
      <trkpt lat="46.99573" lon="8.64726">
        <ele>545</ele>
        <time>2021-08-05T09:25:10.439Z</time>
      </trkpt>
      <trkpt lat="46.99573" lon="8.64726">
        <ele>545</ele>
        <time>2021-08-05T09:25:11.439Z</time>
      </trkpt>
      <trkpt lat="46.99572" lon="8.64726">
        <ele>545</ele>
        <time>2021-08-05T09:25:12.439Z</time>
      </trkpt>
      <trkpt lat="46.99571" lon="8.64727">
        <ele>545</ele>
        <time>2021-08-05T09:25:13.439Z</time>
      </trkpt>
      <trkpt lat="46.9957" lon="8.64727">
        <ele>545</ele>
        <time>2021-08-05T09:25:14.439Z</time>
      </trkpt>
      <trkpt lat="46.99568" lon="8.64728">
        <ele>545</ele>
        <time>2021-08-05T09:25:15.439Z</time>
      </trkpt>
      <trkpt lat="46.99567" lon="8.64728">
        <ele>545</ele>
        <time>2021-08-05T09:25:16.439Z</time>
      </trkpt>
      <trkpt lat="46.99566" lon="8.64727">
        <ele>545</ele>
        <time>2021-08-05T09:25:17.439Z</time>
      </trkpt>
      <trkpt lat="46.99565" lon="8.64727">
        <ele>545</ele>
        <time>2021-08-05T09:25:18.439Z</time>
      </trkpt>
      <trkpt lat="46.99563" lon="8.64727">
        <ele>544</ele>
        <time>2021-08-05T09:25:19.439Z</time>
      </trkpt>
      <trkpt lat="46.99562" lon="8.64728">
        <ele>544</ele>
        <time>2021-08-05T09:25:20.439Z</time>
      </trkpt>
      <trkpt lat="46.9956" lon="8.64729">
        <ele>544</ele>
        <time>2021-08-05T09:25:21.439Z</time>
      </trkpt>
      <trkpt lat="46.99559" lon="8.6473">
        <ele>544</ele>
        <time>2021-08-05T09:25:22.439Z</time>
      </trkpt>
      <trkpt lat="46.99558" lon="8.6473">
        <ele>544</ele>
        <time>2021-08-05T09:25:23.439Z</time>
      </trkpt>
      <trkpt lat="46.99557" lon="8.6473">
        <ele>544</ele>
        <time>2021-08-05T09:25:24.439Z</time>
      </trkpt>
      <trkpt lat="46.99557" lon="8.6473">
        <ele>544</ele>
        <time>2021-08-05T09:25:25.439Z</time>
      </trkpt>
      <trkpt lat="46.99556" lon="8.6473">
        <ele>544</ele>
        <time>2021-08-05T09:25:26.439Z</time>
      </trkpt>
      <trkpt lat="46.99556" lon="8.6473">
        <ele>544</ele>
        <time>2021-08-05T09:25:27.439Z</time>
      </trkpt>
      <trkpt lat="46.99555" lon="8.6473">
        <ele>545</ele>
        <time>2021-08-05T09:25:28.439Z</time>
      </trkpt>
      <trkpt lat="46.99553" lon="8.64729">
        <ele>545</ele>
        <time>2021-08-05T09:25:29.439Z</time>
      </trkpt>
      <trkpt lat="46.99552" lon="8.64729">
        <ele>545</ele>
        <time>2021-08-05T09:25:30.439Z</time>
      </trkpt>
      <trkpt lat="46.9955" lon="8.6473">
        <ele>545</ele>
        <time>2021-08-05T09:25:31.439Z</time>
      </trkpt>
      <trkpt lat="46.99549" lon="8.6473">
        <ele>545</ele>
        <time>2021-08-05T09:25:32.439Z</time>
      </trkpt>
      <trkpt lat="46.99547" lon="8.64731">
        <ele>546</ele>
        <time>2021-08-05T09:25:33.439Z</time>
      </trkpt>
      <trkpt lat="46.99545" lon="8.64732">
        <ele>546</ele>
        <time>2021-08-05T09:25:34.439Z</time>
      </trkpt>
      <trkpt lat="46.99542" lon="8.64734">
        <ele>546</ele>
        <time>2021-08-05T09:25:35.439Z</time>
      </trkpt>
      <trkpt lat="46.9954" lon="8.64735">
        <ele>546</ele>
        <time>2021-08-05T09:25:36.439Z</time>
      </trkpt>
      <trkpt lat="46.99538" lon="8.64735">
        <ele>546</ele>
        <time>2021-08-05T09:25:37.439Z</time>
      </trkpt>
      <trkpt lat="46.99537" lon="8.64735">
        <ele>546</ele>
        <time>2021-08-05T09:25:38.439Z</time>
      </trkpt>
      <trkpt lat="46.99535" lon="8.64735">
        <ele>546</ele>
        <time>2021-08-05T09:25:39.439Z</time>
      </trkpt>
      <trkpt lat="46.99535" lon="8.64734">
        <ele>546</ele>
        <time>2021-08-05T09:25:40.439Z</time>
      </trkpt>
      <trkpt lat="46.99534" lon="8.64733">
        <ele>547</ele>
        <time>2021-08-05T09:25:41.439Z</time>
      </trkpt>
      <trkpt lat="46.99533" lon="8.64733">
        <ele>547</ele>
        <time>2021-08-05T09:25:42.439Z</time>
      </trkpt>
      <trkpt lat="46.99532" lon="8.64734">
        <ele>547</ele>
        <time>2021-08-05T09:25:43.439Z</time>
      </trkpt>
      <trkpt lat="46.99531" lon="8.64734">
        <ele>547</ele>
        <time>2021-08-05T09:25:44.439Z</time>
      </trkpt>
      <trkpt lat="46.9953" lon="8.64735">
        <ele>547</ele>
        <time>2021-08-05T09:25:45.439Z</time>
      </trkpt>
      <trkpt lat="46.99529" lon="8.64735">
        <ele>547</ele>
        <time>2021-08-05T09:25:46.439Z</time>
      </trkpt>
      <trkpt lat="46.99528" lon="8.64736">
        <ele>547</ele>
        <time>2021-08-05T09:25:47.439Z</time>
      </trkpt>
      <trkpt lat="46.99527" lon="8.64737">
        <ele>547</ele>
        <time>2021-08-05T09:25:48.439Z</time>
      </trkpt>
      <trkpt lat="46.99526" lon="8.64737">
        <ele>547</ele>
        <time>2021-08-05T09:25:49.439Z</time>
      </trkpt>
      <trkpt lat="46.99526" lon="8.64737">
        <ele>547</ele>
        <time>2021-08-05T09:25:50.439Z</time>
      </trkpt>
      <trkpt lat="46.99525" lon="8.64737">
        <ele>547</ele>
        <time>2021-08-05T09:25:51.439Z</time>
      </trkpt>
      <trkpt lat="46.99524" lon="8.64738">
        <ele>547</ele>
        <time>2021-08-05T09:25:52.439Z</time>
      </trkpt>
      <trkpt lat="46.99524" lon="8.64738">
        <ele>547</ele>
        <time>2021-08-05T09:25:53.439Z</time>
      </trkpt>
      <trkpt lat="46.99523" lon="8.64739">
        <ele>547</ele>
        <time>2021-08-05T09:25:54.439Z</time>
      </trkpt>
      <trkpt lat="46.99522" lon="8.64739">
        <ele>547</ele>
        <time>2021-08-05T09:25:55.439Z</time>
      </trkpt>
      <trkpt lat="46.99521" lon="8.6474">
        <ele>547</ele>
        <time>2021-08-05T09:25:56.439Z</time>
      </trkpt>
      <trkpt lat="46.99521" lon="8.64741">
        <ele>547</ele>
        <time>2021-08-05T09:25:57.439Z</time>
      </trkpt>
      <trkpt lat="46.9952" lon="8.64742">
        <ele>547</ele>
        <time>2021-08-05T09:25:58.439Z</time>
      </trkpt>
      <trkpt lat="46.99519" lon="8.64743">
        <ele>547</ele>
        <time>2021-08-05T09:25:59.439Z</time>
      </trkpt>
      <trkpt lat="46.99518" lon="8.64745">
        <ele>547</ele>
        <time>2021-08-05T09:26:00.439Z</time>
      </trkpt>
      <trkpt lat="46.99517" lon="8.64746">
        <ele>547</ele>
        <time>2021-08-05T09:26:01.439Z</time>
      </trkpt>
      <trkpt lat="46.99517" lon="8.64747">
        <ele>546</ele>
        <time>2021-08-05T09:26:02.439Z</time>
      </trkpt>
      <trkpt lat="46.99516" lon="8.64747">
        <ele>546</ele>
        <time>2021-08-05T09:26:03.439Z</time>
      </trkpt>
      <trkpt lat="46.99515" lon="8.64747">
        <ele>546</ele>
        <time>2021-08-05T09:26:04.439Z</time>
      </trkpt>
      <trkpt lat="46.99515" lon="8.64746">
        <ele>546</ele>
        <time>2021-08-05T09:26:05.439Z</time>
      </trkpt>
      <trkpt lat="46.99514" lon="8.64747">
        <ele>546</ele>
        <time>2021-08-05T09:26:06.439Z</time>
      </trkpt>
      <trkpt lat="46.99514" lon="8.64747">
        <ele>545</ele>
        <time>2021-08-05T09:26:07.439Z</time>
      </trkpt>
      <trkpt lat="46.99513" lon="8.64746">
        <ele>545</ele>
        <time>2021-08-05T09:26:08.439Z</time>
      </trkpt>
      <trkpt lat="46.99512" lon="8.64747">
        <ele>545</ele>
        <time>2021-08-05T09:26:09.439Z</time>
      </trkpt>
      <trkpt lat="46.99511" lon="8.64747">
        <ele>545</ele>
        <time>2021-08-05T09:26:10.439Z</time>
      </trkpt>
      <trkpt lat="46.9951" lon="8.64748">
        <ele>545</ele>
        <time>2021-08-05T09:26:11.439Z</time>
      </trkpt>
      <trkpt lat="46.99508" lon="8.64748">
        <ele>545</ele>
        <time>2021-08-05T09:26:12.439Z</time>
      </trkpt>
      <trkpt lat="46.99506" lon="8.64748">
        <ele>545</ele>
        <time>2021-08-05T09:26:13.439Z</time>
      </trkpt>
      <trkpt lat="46.99506" lon="8.6475">
        <ele>545</ele>
        <time>2021-08-05T09:26:14.439Z</time>
      </trkpt>
      <trkpt lat="46.99507" lon="8.64751">
        <ele>545</ele>
        <time>2021-08-05T09:26:15.439Z</time>
      </trkpt>
      <trkpt lat="46.99506" lon="8.64753">
        <ele>545</ele>
        <time>2021-08-05T09:26:16.439Z</time>
      </trkpt>
      <trkpt lat="46.99505" lon="8.64756">
        <ele>545</ele>
        <time>2021-08-05T09:26:17.439Z</time>
      </trkpt>
      <trkpt lat="46.99503" lon="8.64758">
        <ele>545</ele>
        <time>2021-08-05T09:26:18.439Z</time>
      </trkpt>
      <trkpt lat="46.99503" lon="8.6476">
        <ele>545</ele>
        <time>2021-08-05T09:26:19.439Z</time>
      </trkpt>
      <trkpt lat="46.99503" lon="8.64762">
        <ele>545</ele>
        <time>2021-08-05T09:26:20.439Z</time>
      </trkpt>
      <trkpt lat="46.99501" lon="8.64764">
        <ele>545</ele>
        <time>2021-08-05T09:26:21.439Z</time>
      </trkpt>
      <trkpt lat="46.995" lon="8.64766">
        <ele>545</ele>
        <time>2021-08-05T09:26:22.439Z</time>
      </trkpt>
      <trkpt lat="46.99499" lon="8.64766">
        <ele>545</ele>
        <time>2021-08-05T09:26:23.439Z</time>
      </trkpt>
      <trkpt lat="46.99498" lon="8.64767">
        <ele>545</ele>
        <time>2021-08-05T09:26:24.439Z</time>
      </trkpt>
      <trkpt lat="46.99497" lon="8.64767">
        <ele>545</ele>
        <time>2021-08-05T09:26:25.439Z</time>
      </trkpt>
      <trkpt lat="46.99496" lon="8.64766">
        <ele>546</ele>
        <time>2021-08-05T09:26:26.439Z</time>
      </trkpt>
      <trkpt lat="46.99495" lon="8.64767">
        <ele>546</ele>
        <time>2021-08-05T09:26:27.439Z</time>
      </trkpt>
      <trkpt lat="46.99494" lon="8.64767">
        <ele>546</ele>
        <time>2021-08-05T09:26:28.439Z</time>
      </trkpt>
      <trkpt lat="46.99493" lon="8.64767">
        <ele>546</ele>
        <time>2021-08-05T09:26:29.439Z</time>
      </trkpt>
      <trkpt lat="46.99491" lon="8.64768">
        <ele>546</ele>
        <time>2021-08-05T09:26:30.439Z</time>
      </trkpt>
      <trkpt lat="46.9949" lon="8.64768">
        <ele>546</ele>
        <time>2021-08-05T09:26:31.439Z</time>
      </trkpt>
      <trkpt lat="46.99489" lon="8.64767">
        <ele>546</ele>
        <time>2021-08-05T09:26:32.439Z</time>
      </trkpt>
      <trkpt lat="46.99488" lon="8.64766">
        <ele>546</ele>
        <time>2021-08-05T09:26:33.439Z</time>
      </trkpt>
      <trkpt lat="46.99487" lon="8.64766">
        <ele>546</ele>
        <time>2021-08-05T09:26:34.439Z</time>
      </trkpt>
      <trkpt lat="46.99487" lon="8.64765">
        <ele>545</ele>
        <time>2021-08-05T09:26:35.439Z</time>
      </trkpt>
      <trkpt lat="46.99486" lon="8.64765">
        <ele>545</ele>
        <time>2021-08-05T09:26:36.439Z</time>
      </trkpt>
      <trkpt lat="46.99485" lon="8.64765">
        <ele>545</ele>
        <time>2021-08-05T09:26:37.439Z</time>
      </trkpt>
      <trkpt lat="46.99484" lon="8.64765">
        <ele>545</ele>
        <time>2021-08-05T09:26:38.439Z</time>
      </trkpt>
      <trkpt lat="46.99483" lon="8.64765">
        <ele>545</ele>
        <time>2021-08-05T09:26:39.439Z</time>
      </trkpt>
      <trkpt lat="46.99482" lon="8.64765">
        <ele>545</ele>
        <time>2021-08-05T09:26:40.439Z</time>
      </trkpt>
      <trkpt lat="46.9948" lon="8.64766">
        <ele>545</ele>
        <time>2021-08-05T09:26:41.439Z</time>
      </trkpt>
      <trkpt lat="46.99479" lon="8.64766">
        <ele>545</ele>
        <time>2021-08-05T09:26:42.439Z</time>
      </trkpt>
      <trkpt lat="46.99477" lon="8.64766">
        <ele>545</ele>
        <time>2021-08-05T09:26:43.439Z</time>
      </trkpt>
      <trkpt lat="46.99475" lon="8.64766">
        <ele>545</ele>
        <time>2021-08-05T09:26:44.439Z</time>
      </trkpt>
      <trkpt lat="46.99474" lon="8.64766">
        <ele>545</ele>
        <time>2021-08-05T09:26:45.439Z</time>
      </trkpt>
      <trkpt lat="46.99473" lon="8.64766">
        <ele>546</ele>
        <time>2021-08-05T09:26:46.439Z</time>
      </trkpt>
      <trkpt lat="46.99472" lon="8.64767">
        <ele>546</ele>
        <time>2021-08-05T09:26:47.439Z</time>
      </trkpt>
      <trkpt lat="46.99471" lon="8.64768">
        <ele>546</ele>
        <time>2021-08-05T09:26:48.439Z</time>
      </trkpt>
      <trkpt lat="46.9947" lon="8.64769">
        <ele>547</ele>
        <time>2021-08-05T09:26:49.439Z</time>
      </trkpt>
      <trkpt lat="46.9947" lon="8.6477">
        <ele>547</ele>
        <time>2021-08-05T09:26:50.439Z</time>
      </trkpt>
      <trkpt lat="46.9947" lon="8.6477">
        <ele>548</ele>
        <time>2021-08-05T09:26:51.439Z</time>
      </trkpt>
      <trkpt lat="46.99468" lon="8.64772">
        <ele>548</ele>
        <time>2021-08-05T09:26:52.439Z</time>
      </trkpt>
      <trkpt lat="46.99467" lon="8.64773">
        <ele>548</ele>
        <time>2021-08-05T09:26:53.439Z</time>
      </trkpt>
      <trkpt lat="46.99465" lon="8.64774">
        <ele>548</ele>
        <time>2021-08-05T09:26:54.439Z</time>
      </trkpt>
      <trkpt lat="46.99463" lon="8.64775">
        <ele>549</ele>
        <time>2021-08-05T09:26:55.439Z</time>
      </trkpt>
      <trkpt lat="46.99462" lon="8.64777">
        <ele>549</ele>
        <time>2021-08-05T09:26:56.439Z</time>
      </trkpt>
      <trkpt lat="46.99461" lon="8.64778">
        <ele>549</ele>
        <time>2021-08-05T09:26:57.439Z</time>
      </trkpt>
      <trkpt lat="46.99459" lon="8.64778">
        <ele>549</ele>
        <time>2021-08-05T09:26:58.439Z</time>
      </trkpt>
      <trkpt lat="46.99457" lon="8.64779">
        <ele>550</ele>
        <time>2021-08-05T09:26:59.439Z</time>
      </trkpt>
      <trkpt lat="46.99456" lon="8.64779">
        <ele>550</ele>
        <time>2021-08-05T09:27:00.439Z</time>
      </trkpt>
      <trkpt lat="46.99455" lon="8.6478">
        <ele>550</ele>
        <time>2021-08-05T09:27:01.439Z</time>
      </trkpt>
      <trkpt lat="46.99454" lon="8.64781">
        <ele>551</ele>
        <time>2021-08-05T09:27:02.439Z</time>
      </trkpt>
      <trkpt lat="46.99453" lon="8.64782">
        <ele>551</ele>
        <time>2021-08-05T09:27:03.439Z</time>
      </trkpt>
      <trkpt lat="46.99452" lon="8.64782">
        <ele>551</ele>
        <time>2021-08-05T09:27:04.439Z</time>
      </trkpt>
      <trkpt lat="46.99451" lon="8.64783">
        <ele>551</ele>
        <time>2021-08-05T09:27:05.439Z</time>
      </trkpt>
      <trkpt lat="46.99449" lon="8.64784">
        <ele>551</ele>
        <time>2021-08-05T09:27:06.439Z</time>
      </trkpt>
      <trkpt lat="46.99448" lon="8.64785">
        <ele>551</ele>
        <time>2021-08-05T09:27:07.439Z</time>
      </trkpt>
      <trkpt lat="46.99446" lon="8.64786">
        <ele>551</ele>
        <time>2021-08-05T09:27:08.439Z</time>
      </trkpt>
      <trkpt lat="46.99444" lon="8.64787">
        <ele>551</ele>
        <time>2021-08-05T09:27:09.439Z</time>
      </trkpt>
      <trkpt lat="46.99443" lon="8.64788">
        <ele>551</ele>
        <time>2021-08-05T09:27:10.439Z</time>
      </trkpt>
      <trkpt lat="46.99442" lon="8.64789">
        <ele>551</ele>
        <time>2021-08-05T09:27:11.439Z</time>
      </trkpt>
      <trkpt lat="46.99442" lon="8.64789">
        <ele>552</ele>
        <time>2021-08-05T09:27:12.439Z</time>
      </trkpt>
      <trkpt lat="46.9944" lon="8.6479">
        <ele>552</ele>
        <time>2021-08-05T09:27:13.439Z</time>
      </trkpt>
      <trkpt lat="46.99439" lon="8.64791">
        <ele>552</ele>
        <time>2021-08-05T09:27:14.439Z</time>
      </trkpt>
      <trkpt lat="46.99438" lon="8.64791">
        <ele>552</ele>
        <time>2021-08-05T09:27:15.439Z</time>
      </trkpt>
      <trkpt lat="46.99437" lon="8.64792">
        <ele>552</ele>
        <time>2021-08-05T09:27:16.439Z</time>
      </trkpt>
      <trkpt lat="46.99436" lon="8.64792">
        <ele>553</ele>
        <time>2021-08-05T09:27:17.439Z</time>
      </trkpt>
      <trkpt lat="46.99435" lon="8.64793">
        <ele>553</ele>
        <time>2021-08-05T09:27:18.439Z</time>
      </trkpt>
      <trkpt lat="46.99434" lon="8.64794">
        <ele>554</ele>
        <time>2021-08-05T09:27:19.439Z</time>
      </trkpt>
      <trkpt lat="46.99434" lon="8.64794">
        <ele>555</ele>
        <time>2021-08-05T09:27:20.439Z</time>
      </trkpt>
      <trkpt lat="46.99434" lon="8.64795">
        <ele>556</ele>
        <time>2021-08-05T09:27:21.439Z</time>
      </trkpt>
      <trkpt lat="46.99433" lon="8.64797">
        <ele>557</ele>
        <time>2021-08-05T09:27:22.439Z</time>
      </trkpt>
      <trkpt lat="46.99432" lon="8.64797">
        <ele>557</ele>
        <time>2021-08-05T09:27:23.439Z</time>
      </trkpt>
      <trkpt lat="46.99432" lon="8.64798">
        <ele>558</ele>
        <time>2021-08-05T09:27:24.439Z</time>
      </trkpt>
      <trkpt lat="46.99432" lon="8.64799">
        <ele>558</ele>
        <time>2021-08-05T09:27:25.439Z</time>
      </trkpt>
      <trkpt lat="46.99432" lon="8.64798">
        <ele>558</ele>
        <time>2021-08-05T09:27:26.439Z</time>
      </trkpt>
      <trkpt lat="46.99431" lon="8.64798">
        <ele>558</ele>
        <time>2021-08-05T09:27:27.439Z</time>
      </trkpt>
      <trkpt lat="46.99431" lon="8.64796">
        <ele>558</ele>
        <time>2021-08-05T09:27:28.439Z</time>
      </trkpt>
      <trkpt lat="46.99431" lon="8.64796">
        <ele>558</ele>
        <time>2021-08-05T09:27:29.439Z</time>
      </trkpt>
      <trkpt lat="46.9943" lon="8.64798">
        <ele>558</ele>
        <time>2021-08-05T09:27:30.439Z</time>
      </trkpt>
      <trkpt lat="46.99429" lon="8.64799">
        <ele>557</ele>
        <time>2021-08-05T09:27:31.439Z</time>
      </trkpt>
      <trkpt lat="46.99428" lon="8.648">
        <ele>557</ele>
        <time>2021-08-05T09:27:32.439Z</time>
      </trkpt>
      <trkpt lat="46.99427" lon="8.64801">
        <ele>557</ele>
        <time>2021-08-05T09:27:33.439Z</time>
      </trkpt>
      <trkpt lat="46.99426" lon="8.64802">
        <ele>557</ele>
        <time>2021-08-05T09:27:34.439Z</time>
      </trkpt>
      <trkpt lat="46.99425" lon="8.64803">
        <ele>557</ele>
        <time>2021-08-05T09:27:35.439Z</time>
      </trkpt>
      <trkpt lat="46.99424" lon="8.64805">
        <ele>557</ele>
        <time>2021-08-05T09:27:36.439Z</time>
      </trkpt>
      <trkpt lat="46.99423" lon="8.64806">
        <ele>557</ele>
        <time>2021-08-05T09:27:37.439Z</time>
      </trkpt>
      <trkpt lat="46.99422" lon="8.64807">
        <ele>557</ele>
        <time>2021-08-05T09:27:38.439Z</time>
      </trkpt>
      <trkpt lat="46.99421" lon="8.64809">
        <ele>557</ele>
        <time>2021-08-05T09:27:39.439Z</time>
      </trkpt>
      <trkpt lat="46.99421" lon="8.6481">
        <ele>557</ele>
        <time>2021-08-05T09:27:40.439Z</time>
      </trkpt>
      <trkpt lat="46.9942" lon="8.64811">
        <ele>558</ele>
        <time>2021-08-05T09:27:41.439Z</time>
      </trkpt>
      <trkpt lat="46.99419" lon="8.64812">
        <ele>558</ele>
        <time>2021-08-05T09:27:42.439Z</time>
      </trkpt>
      <trkpt lat="46.99419" lon="8.64813">
        <ele>558</ele>
        <time>2021-08-05T09:27:43.439Z</time>
      </trkpt>
      <trkpt lat="46.99418" lon="8.64814">
        <ele>558</ele>
        <time>2021-08-05T09:27:44.439Z</time>
      </trkpt>
      <trkpt lat="46.99417" lon="8.64816">
        <ele>559</ele>
        <time>2021-08-05T09:27:45.439Z</time>
      </trkpt>
      <trkpt lat="46.99416" lon="8.64818">
        <ele>559</ele>
        <time>2021-08-05T09:27:46.439Z</time>
      </trkpt>
      <trkpt lat="46.99415" lon="8.64818">
        <ele>559</ele>
        <time>2021-08-05T09:27:47.439Z</time>
      </trkpt>
      <trkpt lat="46.99414" lon="8.64819">
        <ele>559</ele>
        <time>2021-08-05T09:27:48.439Z</time>
      </trkpt>
      <trkpt lat="46.99413" lon="8.64821">
        <ele>559</ele>
        <time>2021-08-05T09:27:49.439Z</time>
      </trkpt>
      <trkpt lat="46.99412" lon="8.64822">
        <ele>559</ele>
        <time>2021-08-05T09:27:50.439Z</time>
      </trkpt>
      <trkpt lat="46.99411" lon="8.64823">
        <ele>559</ele>
        <time>2021-08-05T09:27:51.439Z</time>
      </trkpt>
      <trkpt lat="46.9941" lon="8.64824">
        <ele>559</ele>
        <time>2021-08-05T09:27:52.439Z</time>
      </trkpt>
      <trkpt lat="46.99409" lon="8.64825">
        <ele>559</ele>
        <time>2021-08-05T09:27:53.439Z</time>
      </trkpt>
      <trkpt lat="46.99408" lon="8.64825">
        <ele>559</ele>
        <time>2021-08-05T09:27:54.439Z</time>
      </trkpt>
      <trkpt lat="46.99407" lon="8.64826">
        <ele>559</ele>
        <time>2021-08-05T09:27:55.439Z</time>
      </trkpt>
      <trkpt lat="46.99406" lon="8.64827">
        <ele>559</ele>
        <time>2021-08-05T09:27:56.439Z</time>
      </trkpt>
      <trkpt lat="46.99405" lon="8.64828">
        <ele>559</ele>
        <time>2021-08-05T09:27:57.439Z</time>
      </trkpt>
      <trkpt lat="46.99404" lon="8.64829">
        <ele>559</ele>
        <time>2021-08-05T09:27:58.439Z</time>
      </trkpt>
      <trkpt lat="46.99403" lon="8.6483">
        <ele>559</ele>
        <time>2021-08-05T09:27:59.439Z</time>
      </trkpt>
      <trkpt lat="46.99402" lon="8.6483">
        <ele>559</ele>
        <time>2021-08-05T09:28:00.439Z</time>
      </trkpt>
      <trkpt lat="46.99401" lon="8.64831">
        <ele>559</ele>
        <time>2021-08-05T09:28:01.439Z</time>
      </trkpt>
      <trkpt lat="46.994" lon="8.64831">
        <ele>558</ele>
        <time>2021-08-05T09:28:02.439Z</time>
      </trkpt>
      <trkpt lat="46.99399" lon="8.64831">
        <ele>558</ele>
        <time>2021-08-05T09:28:03.439Z</time>
      </trkpt>
      <trkpt lat="46.99398" lon="8.64832">
        <ele>558</ele>
        <time>2021-08-05T09:28:04.439Z</time>
      </trkpt>
      <trkpt lat="46.99397" lon="8.64832">
        <ele>557</ele>
        <time>2021-08-05T09:28:05.439Z</time>
      </trkpt>
      <trkpt lat="46.99395" lon="8.64833">
        <ele>557</ele>
        <time>2021-08-05T09:28:06.439Z</time>
      </trkpt>
      <trkpt lat="46.99394" lon="8.64833">
        <ele>557</ele>
        <time>2021-08-05T09:28:07.439Z</time>
      </trkpt>
      <trkpt lat="46.99394" lon="8.64833">
        <ele>557</ele>
        <time>2021-08-05T09:28:08.439Z</time>
      </trkpt>
      <trkpt lat="46.99393" lon="8.64834">
        <ele>557</ele>
        <time>2021-08-05T09:28:09.439Z</time>
      </trkpt>
      <trkpt lat="46.99392" lon="8.64834">
        <ele>557</ele>
        <time>2021-08-05T09:28:10.439Z</time>
      </trkpt>
      <trkpt lat="46.99391" lon="8.64835">
        <ele>557</ele>
        <time>2021-08-05T09:28:11.439Z</time>
      </trkpt>
      <trkpt lat="46.9939" lon="8.64835">
        <ele>557</ele>
        <time>2021-08-05T09:28:12.439Z</time>
      </trkpt>
      <trkpt lat="46.99389" lon="8.64835">
        <ele>557</ele>
        <time>2021-08-05T09:28:13.439Z</time>
      </trkpt>
      <trkpt lat="46.99388" lon="8.64836">
        <ele>557</ele>
        <time>2021-08-05T09:28:14.439Z</time>
      </trkpt>
      <trkpt lat="46.99386" lon="8.64837">
        <ele>557</ele>
        <time>2021-08-05T09:28:15.439Z</time>
      </trkpt>
      <trkpt lat="46.99386" lon="8.64838">
        <ele>557</ele>
        <time>2021-08-05T09:28:16.439Z</time>
      </trkpt>
      <trkpt lat="46.99385" lon="8.64839">
        <ele>557</ele>
        <time>2021-08-05T09:28:17.439Z</time>
      </trkpt>
      <trkpt lat="46.99384" lon="8.6484">
        <ele>557</ele>
        <time>2021-08-05T09:28:18.439Z</time>
      </trkpt>
      <trkpt lat="46.99382" lon="8.6484">
        <ele>557</ele>
        <time>2021-08-05T09:28:19.439Z</time>
      </trkpt>
      <trkpt lat="46.99381" lon="8.64841">
        <ele>557</ele>
        <time>2021-08-05T09:28:20.439Z</time>
      </trkpt>
      <trkpt lat="46.9938" lon="8.64841">
        <ele>557</ele>
        <time>2021-08-05T09:28:21.439Z</time>
      </trkpt>
      <trkpt lat="46.99379" lon="8.64842">
        <ele>557</ele>
        <time>2021-08-05T09:28:22.439Z</time>
      </trkpt>
      <trkpt lat="46.99378" lon="8.64842">
        <ele>557</ele>
        <time>2021-08-05T09:28:23.439Z</time>
      </trkpt>
      <trkpt lat="46.99376" lon="8.64843">
        <ele>556</ele>
        <time>2021-08-05T09:28:24.439Z</time>
      </trkpt>
      <trkpt lat="46.99375" lon="8.64843">
        <ele>556</ele>
        <time>2021-08-05T09:28:25.439Z</time>
      </trkpt>
      <trkpt lat="46.99374" lon="8.64843">
        <ele>556</ele>
        <time>2021-08-05T09:28:26.439Z</time>
      </trkpt>
      <trkpt lat="46.99372" lon="8.64843">
        <ele>556</ele>
        <time>2021-08-05T09:28:27.439Z</time>
      </trkpt>
      <trkpt lat="46.99371" lon="8.64842">
        <ele>556</ele>
        <time>2021-08-05T09:28:28.439Z</time>
      </trkpt>
      <trkpt lat="46.9937" lon="8.64842">
        <ele>556</ele>
        <time>2021-08-05T09:28:29.439Z</time>
      </trkpt>
      <trkpt lat="46.99369" lon="8.64842">
        <ele>557</ele>
        <time>2021-08-05T09:28:30.439Z</time>
      </trkpt>
      <trkpt lat="46.99367" lon="8.64842">
        <ele>557</ele>
        <time>2021-08-05T09:28:31.439Z</time>
      </trkpt>
      <trkpt lat="46.99366" lon="8.64842">
        <ele>558</ele>
        <time>2021-08-05T09:28:32.439Z</time>
      </trkpt>
      <trkpt lat="46.99365" lon="8.64842">
        <ele>558</ele>
        <time>2021-08-05T09:28:33.439Z</time>
      </trkpt>
      <trkpt lat="46.99364" lon="8.64842">
        <ele>558</ele>
        <time>2021-08-05T09:28:34.439Z</time>
      </trkpt>
      <trkpt lat="46.99362" lon="8.64841">
        <ele>559</ele>
        <time>2021-08-05T09:28:35.439Z</time>
      </trkpt>
      <trkpt lat="46.99361" lon="8.64841">
        <ele>559</ele>
        <time>2021-08-05T09:28:36.439Z</time>
      </trkpt>
      <trkpt lat="46.9936" lon="8.64841">
        <ele>559</ele>
        <time>2021-08-05T09:28:37.439Z</time>
      </trkpt>
      <trkpt lat="46.99359" lon="8.6484">
        <ele>560</ele>
        <time>2021-08-05T09:28:38.439Z</time>
      </trkpt>
      <trkpt lat="46.99357" lon="8.6484">
        <ele>560</ele>
        <time>2021-08-05T09:28:39.439Z</time>
      </trkpt>
      <trkpt lat="46.99356" lon="8.6484">
        <ele>560</ele>
        <time>2021-08-05T09:28:40.439Z</time>
      </trkpt>
      <trkpt lat="46.99355" lon="8.64841">
        <ele>560</ele>
        <time>2021-08-05T09:28:41.439Z</time>
      </trkpt>
      <trkpt lat="46.99355" lon="8.64841">
        <ele>561</ele>
        <time>2021-08-05T09:28:42.439Z</time>
      </trkpt>
      <trkpt lat="46.99353" lon="8.64842">
        <ele>562</ele>
        <time>2021-08-05T09:28:43.439Z</time>
      </trkpt>
      <trkpt lat="46.99353" lon="8.64842">
        <ele>562</ele>
        <time>2021-08-05T09:28:44.439Z</time>
      </trkpt>
      <trkpt lat="46.99352" lon="8.64842">
        <ele>563</ele>
        <time>2021-08-05T09:28:45.439Z</time>
      </trkpt>
      <trkpt lat="46.99351" lon="8.64843">
        <ele>564</ele>
        <time>2021-08-05T09:28:46.439Z</time>
      </trkpt>
      <trkpt lat="46.9935" lon="8.64844">
        <ele>565</ele>
        <time>2021-08-05T09:28:47.439Z</time>
      </trkpt>
      <trkpt lat="46.99348" lon="8.64844">
        <ele>565</ele>
        <time>2021-08-05T09:28:48.439Z</time>
      </trkpt>
      <trkpt lat="46.99347" lon="8.64844">
        <ele>566</ele>
        <time>2021-08-05T09:28:49.439Z</time>
      </trkpt>
      <trkpt lat="46.99346" lon="8.64845">
        <ele>566</ele>
        <time>2021-08-05T09:28:50.439Z</time>
      </trkpt>
      <trkpt lat="46.99344" lon="8.64846">
        <ele>567</ele>
        <time>2021-08-05T09:28:51.439Z</time>
      </trkpt>
      <trkpt lat="46.99343" lon="8.64846">
        <ele>567</ele>
        <time>2021-08-05T09:28:52.439Z</time>
      </trkpt>
      <trkpt lat="46.99342" lon="8.64847">
        <ele>568</ele>
        <time>2021-08-05T09:28:53.439Z</time>
      </trkpt>
      <trkpt lat="46.99341" lon="8.64847">
        <ele>568</ele>
        <time>2021-08-05T09:28:54.439Z</time>
      </trkpt>
      <trkpt lat="46.99341" lon="8.64848">
        <ele>569</ele>
        <time>2021-08-05T09:28:55.439Z</time>
      </trkpt>
      <trkpt lat="46.9934" lon="8.64848">
        <ele>569</ele>
        <time>2021-08-05T09:28:56.439Z</time>
      </trkpt>
      <trkpt lat="46.99339" lon="8.64849">
        <ele>570</ele>
        <time>2021-08-05T09:28:57.439Z</time>
      </trkpt>
      <trkpt lat="46.99338" lon="8.64849">
        <ele>570</ele>
        <time>2021-08-05T09:28:58.439Z</time>
      </trkpt>
      <trkpt lat="46.99337" lon="8.6485">
        <ele>570</ele>
        <time>2021-08-05T09:28:59.439Z</time>
      </trkpt>
      <trkpt lat="46.99336" lon="8.6485">
        <ele>571</ele>
        <time>2021-08-05T09:29:00.439Z</time>
      </trkpt>
      <trkpt lat="46.99334" lon="8.64851">
        <ele>571</ele>
        <time>2021-08-05T09:29:01.439Z</time>
      </trkpt>
      <trkpt lat="46.99333" lon="8.64851">
        <ele>571</ele>
        <time>2021-08-05T09:29:02.439Z</time>
      </trkpt>
      <trkpt lat="46.99332" lon="8.64851">
        <ele>571</ele>
        <time>2021-08-05T09:29:03.439Z</time>
      </trkpt>
      <trkpt lat="46.9933" lon="8.64851">
        <ele>571</ele>
        <time>2021-08-05T09:29:04.439Z</time>
      </trkpt>
      <trkpt lat="46.99329" lon="8.64852">
        <ele>572</ele>
        <time>2021-08-05T09:29:05.439Z</time>
      </trkpt>
      <trkpt lat="46.99328" lon="8.64853">
        <ele>573</ele>
        <time>2021-08-05T09:29:06.439Z</time>
      </trkpt>
      <trkpt lat="46.99328" lon="8.64854">
        <ele>573</ele>
        <time>2021-08-05T09:29:07.439Z</time>
      </trkpt>
      <trkpt lat="46.99327" lon="8.64855">
        <ele>574</ele>
        <time>2021-08-05T09:29:08.439Z</time>
      </trkpt>
      <trkpt lat="46.99326" lon="8.64857">
        <ele>575</ele>
        <time>2021-08-05T09:29:09.439Z</time>
      </trkpt>
      <trkpt lat="46.99325" lon="8.64859">
        <ele>575</ele>
        <time>2021-08-05T09:29:10.439Z</time>
      </trkpt>
      <trkpt lat="46.99324" lon="8.6486">
        <ele>575</ele>
        <time>2021-08-05T09:29:11.439Z</time>
      </trkpt>
      <trkpt lat="46.99323" lon="8.64861">
        <ele>575</ele>
        <time>2021-08-05T09:29:12.439Z</time>
      </trkpt>
      <trkpt lat="46.99322" lon="8.64863">
        <ele>575</ele>
        <time>2021-08-05T09:29:13.439Z</time>
      </trkpt>
      <trkpt lat="46.99321" lon="8.64865">
        <ele>575</ele>
        <time>2021-08-05T09:29:14.439Z</time>
      </trkpt>
      <trkpt lat="46.99321" lon="8.64866">
        <ele>575</ele>
        <time>2021-08-05T09:29:15.439Z</time>
      </trkpt>
      <trkpt lat="46.9932" lon="8.64868">
        <ele>575</ele>
        <time>2021-08-05T09:29:16.439Z</time>
      </trkpt>
      <trkpt lat="46.99319" lon="8.6487">
        <ele>575</ele>
        <time>2021-08-05T09:29:17.439Z</time>
      </trkpt>
      <trkpt lat="46.99318" lon="8.64872">
        <ele>575</ele>
        <time>2021-08-05T09:29:18.439Z</time>
      </trkpt>
      <trkpt lat="46.99317" lon="8.64874">
        <ele>575</ele>
        <time>2021-08-05T09:29:19.439Z</time>
      </trkpt>
      <trkpt lat="46.99316" lon="8.64875">
        <ele>576</ele>
        <time>2021-08-05T09:29:20.439Z</time>
      </trkpt>
      <trkpt lat="46.99314" lon="8.64876">
        <ele>576</ele>
        <time>2021-08-05T09:29:21.439Z</time>
      </trkpt>
      <trkpt lat="46.99313" lon="8.64878">
        <ele>576</ele>
        <time>2021-08-05T09:29:22.439Z</time>
      </trkpt>
      <trkpt lat="46.99312" lon="8.64879">
        <ele>576</ele>
        <time>2021-08-05T09:29:23.439Z</time>
      </trkpt>
      <trkpt lat="46.99311" lon="8.6488">
        <ele>576</ele>
        <time>2021-08-05T09:29:24.439Z</time>
      </trkpt>
      <trkpt lat="46.9931" lon="8.64881">
        <ele>576</ele>
        <time>2021-08-05T09:29:25.439Z</time>
      </trkpt>
      <trkpt lat="46.99309" lon="8.64882">
        <ele>576</ele>
        <time>2021-08-05T09:29:26.439Z</time>
      </trkpt>
      <trkpt lat="46.99308" lon="8.64882">
        <ele>576</ele>
        <time>2021-08-05T09:29:27.439Z</time>
      </trkpt>
      <trkpt lat="46.99307" lon="8.64883">
        <ele>576</ele>
        <time>2021-08-05T09:29:28.439Z</time>
      </trkpt>
      <trkpt lat="46.99306" lon="8.64883">
        <ele>575</ele>
        <time>2021-08-05T09:29:29.439Z</time>
      </trkpt>
      <trkpt lat="46.99304" lon="8.64884">
        <ele>575</ele>
        <time>2021-08-05T09:29:30.439Z</time>
      </trkpt>
      <trkpt lat="46.99303" lon="8.64884">
        <ele>574</ele>
        <time>2021-08-05T09:29:31.439Z</time>
      </trkpt>
      <trkpt lat="46.99301" lon="8.64883">
        <ele>573</ele>
        <time>2021-08-05T09:29:32.439Z</time>
      </trkpt>
      <trkpt lat="46.993" lon="8.64883">
        <ele>573</ele>
        <time>2021-08-05T09:29:33.439Z</time>
      </trkpt>
      <trkpt lat="46.99299" lon="8.64883">
        <ele>572</ele>
        <time>2021-08-05T09:29:34.439Z</time>
      </trkpt>
      <trkpt lat="46.99298" lon="8.64883">
        <ele>571</ele>
        <time>2021-08-05T09:29:35.439Z</time>
      </trkpt>
      <trkpt lat="46.99297" lon="8.64884">
        <ele>571</ele>
        <time>2021-08-05T09:29:36.439Z</time>
      </trkpt>
      <trkpt lat="46.99296" lon="8.64885">
        <ele>570</ele>
        <time>2021-08-05T09:29:37.439Z</time>
      </trkpt>
      <trkpt lat="46.99295" lon="8.64885">
        <ele>569</ele>
        <time>2021-08-05T09:29:38.439Z</time>
      </trkpt>
      <trkpt lat="46.99293" lon="8.64886">
        <ele>569</ele>
        <time>2021-08-05T09:29:39.439Z</time>
      </trkpt>
      <trkpt lat="46.99292" lon="8.64885">
        <ele>568</ele>
        <time>2021-08-05T09:29:40.439Z</time>
      </trkpt>
      <trkpt lat="46.99291" lon="8.64885">
        <ele>568</ele>
        <time>2021-08-05T09:29:41.439Z</time>
      </trkpt>
      <trkpt lat="46.99289" lon="8.64884">
        <ele>568</ele>
        <time>2021-08-05T09:29:42.439Z</time>
      </trkpt>
      <trkpt lat="46.99287" lon="8.64884">
        <ele>568</ele>
        <time>2021-08-05T09:29:43.439Z</time>
      </trkpt>
      <trkpt lat="46.99286" lon="8.64884">
        <ele>567</ele>
        <time>2021-08-05T09:29:44.439Z</time>
      </trkpt>
      <trkpt lat="46.99284" lon="8.64884">
        <ele>567</ele>
        <time>2021-08-05T09:29:45.439Z</time>
      </trkpt>
      <trkpt lat="46.99283" lon="8.64884">
        <ele>567</ele>
        <time>2021-08-05T09:29:46.439Z</time>
      </trkpt>
      <trkpt lat="46.99281" lon="8.64884">
        <ele>567</ele>
        <time>2021-08-05T09:29:47.439Z</time>
      </trkpt>
      <trkpt lat="46.9928" lon="8.64885">
        <ele>567</ele>
        <time>2021-08-05T09:29:48.439Z</time>
      </trkpt>
      <trkpt lat="46.99279" lon="8.64885">
        <ele>567</ele>
        <time>2021-08-05T09:29:49.439Z</time>
      </trkpt>
      <trkpt lat="46.99277" lon="8.64885">
        <ele>568</ele>
        <time>2021-08-05T09:29:50.439Z</time>
      </trkpt>
      <trkpt lat="46.99276" lon="8.64885">
        <ele>568</ele>
        <time>2021-08-05T09:29:51.439Z</time>
      </trkpt>
      <trkpt lat="46.99275" lon="8.64885">
        <ele>568</ele>
        <time>2021-08-05T09:29:52.439Z</time>
      </trkpt>
      <trkpt lat="46.99274" lon="8.64885">
        <ele>568</ele>
        <time>2021-08-05T09:29:53.439Z</time>
      </trkpt>
      <trkpt lat="46.99272" lon="8.64886">
        <ele>568</ele>
        <time>2021-08-05T09:29:54.439Z</time>
      </trkpt>
      <trkpt lat="46.99271" lon="8.64887">
        <ele>568</ele>
        <time>2021-08-05T09:29:55.439Z</time>
      </trkpt>
      <trkpt lat="46.9927" lon="8.64887">
        <ele>568</ele>
        <time>2021-08-05T09:29:56.439Z</time>
      </trkpt>
      <trkpt lat="46.99269" lon="8.64888">
        <ele>567</ele>
        <time>2021-08-05T09:29:57.439Z</time>
      </trkpt>
      <trkpt lat="46.99268" lon="8.64889">
        <ele>567</ele>
        <time>2021-08-05T09:29:58.439Z</time>
      </trkpt>
      <trkpt lat="46.99267" lon="8.64889">
        <ele>567</ele>
        <time>2021-08-05T09:29:59.439Z</time>
      </trkpt>
      <trkpt lat="46.99267" lon="8.64888">
        <ele>567</ele>
        <time>2021-08-05T09:30:00.439Z</time>
      </trkpt>
      <trkpt lat="46.99266" lon="8.64889">
        <ele>567</ele>
        <time>2021-08-05T09:30:01.439Z</time>
      </trkpt>
      <trkpt lat="46.99265" lon="8.64891">
        <ele>567</ele>
        <time>2021-08-05T09:30:02.439Z</time>
      </trkpt>
      <trkpt lat="46.99265" lon="8.64892">
        <ele>567</ele>
        <time>2021-08-05T09:30:03.439Z</time>
      </trkpt>
      <trkpt lat="46.99265" lon="8.64892">
        <ele>568</ele>
        <time>2021-08-05T09:30:04.439Z</time>
      </trkpt>
      <trkpt lat="46.99264" lon="8.64893">
        <ele>569</ele>
        <time>2021-08-05T09:30:05.439Z</time>
      </trkpt>
      <trkpt lat="46.99263" lon="8.64894">
        <ele>568</ele>
        <time>2021-08-05T09:30:06.439Z</time>
      </trkpt>
      <trkpt lat="46.99262" lon="8.64894">
        <ele>568</ele>
        <time>2021-08-05T09:30:07.440Z</time>
      </trkpt>
      <trkpt lat="46.99261" lon="8.64895">
        <ele>568</ele>
        <time>2021-08-05T09:30:08.439Z</time>
      </trkpt>
      <trkpt lat="46.9926" lon="8.64896">
        <ele>568</ele>
        <time>2021-08-05T09:30:09.440Z</time>
      </trkpt>
      <trkpt lat="46.99259" lon="8.64896">
        <ele>568</ele>
        <time>2021-08-05T09:30:10.439Z</time>
      </trkpt>
      <trkpt lat="46.99259" lon="8.64897">
        <ele>568</ele>
        <time>2021-08-05T09:30:11.439Z</time>
      </trkpt>
      <trkpt lat="46.99258" lon="8.64899">
        <ele>568</ele>
        <time>2021-08-05T09:30:12.440Z</time>
      </trkpt>
      <trkpt lat="46.99258" lon="8.649">
        <ele>568</ele>
        <time>2021-08-05T09:30:13.440Z</time>
      </trkpt>
      <trkpt lat="46.99258" lon="8.64902">
        <ele>568</ele>
        <time>2021-08-05T09:30:14.439Z</time>
      </trkpt>
      <trkpt lat="46.99257" lon="8.64903">
        <ele>567</ele>
        <time>2021-08-05T09:30:15.439Z</time>
      </trkpt>
      <trkpt lat="46.99257" lon="8.64904">
        <ele>567</ele>
        <time>2021-08-05T09:30:16.439Z</time>
      </trkpt>
      <trkpt lat="46.99256" lon="8.64905">
        <ele>567</ele>
        <time>2021-08-05T09:30:17.440Z</time>
      </trkpt>
      <trkpt lat="46.99257" lon="8.64906">
        <ele>566</ele>
        <time>2021-08-05T09:30:18.439Z</time>
      </trkpt>
      <trkpt lat="46.99257" lon="8.64907">
        <ele>566</ele>
        <time>2021-08-05T09:30:19.440Z</time>
      </trkpt>
      <trkpt lat="46.99258" lon="8.64908">
        <ele>566</ele>
        <time>2021-08-05T09:30:20.439Z</time>
      </trkpt>
      <trkpt lat="46.99258" lon="8.6491">
        <ele>566</ele>
        <time>2021-08-05T09:30:21.439Z</time>
      </trkpt>
      <trkpt lat="46.99257" lon="8.64912">
        <ele>566</ele>
        <time>2021-08-05T09:30:22.440Z</time>
      </trkpt>
      <trkpt lat="46.99257" lon="8.64913">
        <ele>565</ele>
        <time>2021-08-05T09:30:23.440Z</time>
      </trkpt>
      <trkpt lat="46.99257" lon="8.64915">
        <ele>565</ele>
        <time>2021-08-05T09:30:24.440Z</time>
      </trkpt>
      <trkpt lat="46.99257" lon="8.64916">
        <ele>565</ele>
        <time>2021-08-05T09:30:25.439Z</time>
      </trkpt>
      <trkpt lat="46.99258" lon="8.64918">
        <ele>564</ele>
        <time>2021-08-05T09:30:26.439Z</time>
      </trkpt>
      <trkpt lat="46.99258" lon="8.6492">
        <ele>564</ele>
        <time>2021-08-05T09:30:27.440Z</time>
      </trkpt>
      <trkpt lat="46.99257" lon="8.64921">
        <ele>564</ele>
        <time>2021-08-05T09:30:28.439Z</time>
      </trkpt>
      <trkpt lat="46.99257" lon="8.64922">
        <ele>564</ele>
        <time>2021-08-05T09:30:29.440Z</time>
      </trkpt>
      <trkpt lat="46.99256" lon="8.64924">
        <ele>564</ele>
        <time>2021-08-05T09:30:30.440Z</time>
      </trkpt>
      <trkpt lat="46.99256" lon="8.64925">
        <ele>564</ele>
        <time>2021-08-05T09:30:31.440Z</time>
      </trkpt>
      <trkpt lat="46.99256" lon="8.64926">
        <ele>564</ele>
        <time>2021-08-05T09:30:32.440Z</time>
      </trkpt>
      <trkpt lat="46.99256" lon="8.64929">
        <ele>564</ele>
        <time>2021-08-05T09:30:33.440Z</time>
      </trkpt>
      <trkpt lat="46.99257" lon="8.64931">
        <ele>564</ele>
        <time>2021-08-05T09:30:34.439Z</time>
      </trkpt>
      <trkpt lat="46.99256" lon="8.64933">
        <ele>564</ele>
        <time>2021-08-05T09:30:35.440Z</time>
      </trkpt>
      <trkpt lat="46.99256" lon="8.64935">
        <ele>564</ele>
        <time>2021-08-05T09:30:36.439Z</time>
      </trkpt>
      <trkpt lat="46.99257" lon="8.64936">
        <ele>565</ele>
        <time>2021-08-05T09:30:37.439Z</time>
      </trkpt>
      <trkpt lat="46.99257" lon="8.64937">
        <ele>566</ele>
        <time>2021-08-05T09:30:38.439Z</time>
      </trkpt>
      <trkpt lat="46.99257" lon="8.64939">
        <ele>566</ele>
        <time>2021-08-05T09:30:39.439Z</time>
      </trkpt>
      <trkpt lat="46.99256" lon="8.6494">
        <ele>567</ele>
        <time>2021-08-05T09:30:40.440Z</time>
      </trkpt>
      <trkpt lat="46.99257" lon="8.64942">
        <ele>568</ele>
        <time>2021-08-05T09:30:41.439Z</time>
      </trkpt>
      <trkpt lat="46.99256" lon="8.64943">
        <ele>569</ele>
        <time>2021-08-05T09:30:42.439Z</time>
      </trkpt>
      <trkpt lat="46.99256" lon="8.64945">
        <ele>569</ele>
        <time>2021-08-05T09:30:43.439Z</time>
      </trkpt>
      <trkpt lat="46.99256" lon="8.64946">
        <ele>569</ele>
        <time>2021-08-05T09:30:44.439Z</time>
      </trkpt>
      <trkpt lat="46.99256" lon="8.64947">
        <ele>570</ele>
        <time>2021-08-05T09:30:45.440Z</time>
      </trkpt>
      <trkpt lat="46.99256" lon="8.64949">
        <ele>570</ele>
        <time>2021-08-05T09:30:46.439Z</time>
      </trkpt>
      <trkpt lat="46.99256" lon="8.6495">
        <ele>571</ele>
        <time>2021-08-05T09:30:47.439Z</time>
      </trkpt>
      <trkpt lat="46.99257" lon="8.64952">
        <ele>571</ele>
        <time>2021-08-05T09:30:48.440Z</time>
      </trkpt>
      <trkpt lat="46.99256" lon="8.64953">
        <ele>571</ele>
        <time>2021-08-05T09:30:49.440Z</time>
      </trkpt>
      <trkpt lat="46.99256" lon="8.64954">
        <ele>571</ele>
        <time>2021-08-05T09:30:50.439Z</time>
      </trkpt>
      <trkpt lat="46.99256" lon="8.64955">
        <ele>571</ele>
        <time>2021-08-05T09:30:51.440Z</time>
      </trkpt>
      <trkpt lat="46.99256" lon="8.64956">
        <ele>572</ele>
        <time>2021-08-05T09:30:52.440Z</time>
      </trkpt>
      <trkpt lat="46.99256" lon="8.64958">
        <ele>572</ele>
        <time>2021-08-05T09:30:53.439Z</time>
      </trkpt>
      <trkpt lat="46.99256" lon="8.64959">
        <ele>573</ele>
        <time>2021-08-05T09:30:54.439Z</time>
      </trkpt>
      <trkpt lat="46.99255" lon="8.64961">
        <ele>573</ele>
        <time>2021-08-05T09:30:55.439Z</time>
      </trkpt>
      <trkpt lat="46.99255" lon="8.64962">
        <ele>573</ele>
        <time>2021-08-05T09:30:56.439Z</time>
      </trkpt>
      <trkpt lat="46.99254" lon="8.64964">
        <ele>573</ele>
        <time>2021-08-05T09:30:57.439Z</time>
      </trkpt>
      <trkpt lat="46.99254" lon="8.64965">
        <ele>572</ele>
        <time>2021-08-05T09:30:58.439Z</time>
      </trkpt>
      <trkpt lat="46.99254" lon="8.64967">
        <ele>572</ele>
        <time>2021-08-05T09:30:59.439Z</time>
      </trkpt>
      <trkpt lat="46.99254" lon="8.64969">
        <ele>572</ele>
        <time>2021-08-05T09:31:00.440Z</time>
      </trkpt>
      <trkpt lat="46.99253" lon="8.6497">
        <ele>572</ele>
        <time>2021-08-05T09:31:01.440Z</time>
      </trkpt>
      <trkpt lat="46.99253" lon="8.64972">
        <ele>572</ele>
        <time>2021-08-05T09:31:02.439Z</time>
      </trkpt>
      <trkpt lat="46.99253" lon="8.64973">
        <ele>572</ele>
        <time>2021-08-05T09:31:03.440Z</time>
      </trkpt>
      <trkpt lat="46.99252" lon="8.64974">
        <ele>571</ele>
        <time>2021-08-05T09:31:04.439Z</time>
      </trkpt>
      <trkpt lat="46.99252" lon="8.64975">
        <ele>571</ele>
        <time>2021-08-05T09:31:05.440Z</time>
      </trkpt>
      <trkpt lat="46.99251" lon="8.64977">
        <ele>571</ele>
        <time>2021-08-05T09:31:06.440Z</time>
      </trkpt>
      <trkpt lat="46.99251" lon="8.64978">
        <ele>570</ele>
        <time>2021-08-05T09:31:07.439Z</time>
      </trkpt>
      <trkpt lat="46.9925" lon="8.64979">
        <ele>570</ele>
        <time>2021-08-05T09:31:08.439Z</time>
      </trkpt>
      <trkpt lat="46.99249" lon="8.64981">
        <ele>569</ele>
        <time>2021-08-05T09:31:09.440Z</time>
      </trkpt>
      <trkpt lat="46.99249" lon="8.64982">
        <ele>569</ele>
        <time>2021-08-05T09:31:10.440Z</time>
      </trkpt>
      <trkpt lat="46.99248" lon="8.64984">
        <ele>569</ele>
        <time>2021-08-05T09:31:11.440Z</time>
      </trkpt>
      <trkpt lat="46.99248" lon="8.64985">
        <ele>569</ele>
        <time>2021-08-05T09:31:12.440Z</time>
      </trkpt>
      <trkpt lat="46.99248" lon="8.64987">
        <ele>569</ele>
        <time>2021-08-05T09:31:13.440Z</time>
      </trkpt>
      <trkpt lat="46.99247" lon="8.64988">
        <ele>568</ele>
        <time>2021-08-05T09:31:14.439Z</time>
      </trkpt>
      <trkpt lat="46.99247" lon="8.6499">
        <ele>568</ele>
        <time>2021-08-05T09:31:15.440Z</time>
      </trkpt>
      <trkpt lat="46.99247" lon="8.64992">
        <ele>568</ele>
        <time>2021-08-05T09:31:16.440Z</time>
      </trkpt>
      <trkpt lat="46.99247" lon="8.64994">
        <ele>568</ele>
        <time>2021-08-05T09:31:17.439Z</time>
      </trkpt>
      <trkpt lat="46.99246" lon="8.64996">
        <ele>569</ele>
        <time>2021-08-05T09:31:18.440Z</time>
      </trkpt>
      <trkpt lat="46.99246" lon="8.64997">
        <ele>569</ele>
        <time>2021-08-05T09:31:19.440Z</time>
      </trkpt>
      <trkpt lat="46.99245" lon="8.64999">
        <ele>569</ele>
        <time>2021-08-05T09:31:20.439Z</time>
      </trkpt>
      <trkpt lat="46.99245" lon="8.65">
        <ele>570</ele>
        <time>2021-08-05T09:31:21.439Z</time>
      </trkpt>
      <trkpt lat="46.99244" lon="8.65002">
        <ele>570</ele>
        <time>2021-08-05T09:31:22.440Z</time>
      </trkpt>
      <trkpt lat="46.99244" lon="8.65002">
        <ele>570</ele>
        <time>2021-08-05T09:31:23.440Z</time>
      </trkpt>
      <trkpt lat="46.99243" lon="8.65003">
        <ele>570</ele>
        <time>2021-08-05T09:31:24.440Z</time>
      </trkpt>
      <trkpt lat="46.99243" lon="8.65003">
        <ele>570</ele>
        <time>2021-08-05T09:31:25.440Z</time>
      </trkpt>
      <trkpt lat="46.99241" lon="8.65003">
        <ele>570</ele>
        <time>2021-08-05T09:31:26.441Z</time>
      </trkpt>
      <trkpt lat="46.99241" lon="8.65002">
        <ele>571</ele>
        <time>2021-08-05T09:31:27.440Z</time>
      </trkpt>
      <trkpt lat="46.99241" lon="8.65002">
        <ele>571</ele>
        <time>2021-08-05T09:31:28.440Z</time>
      </trkpt>
      <trkpt lat="46.99241" lon="8.65004">
        <ele>571</ele>
        <time>2021-08-05T09:31:29.440Z</time>
      </trkpt>
      <trkpt lat="46.99241" lon="8.65005">
        <ele>571</ele>
        <time>2021-08-05T09:31:30.440Z</time>
      </trkpt>
      <trkpt lat="46.9924" lon="8.65007">
        <ele>571</ele>
        <time>2021-08-05T09:31:31.441Z</time>
      </trkpt>
      <trkpt lat="46.9924" lon="8.65009">
        <ele>571</ele>
        <time>2021-08-05T09:31:32.440Z</time>
      </trkpt>
      <trkpt lat="46.99239" lon="8.65011">
        <ele>572</ele>
        <time>2021-08-05T09:31:33.440Z</time>
      </trkpt>
      <trkpt lat="46.99239" lon="8.65012">
        <ele>572</ele>
        <time>2021-08-05T09:31:34.441Z</time>
      </trkpt>
      <trkpt lat="46.99238" lon="8.65014">
        <ele>572</ele>
        <time>2021-08-05T09:31:35.440Z</time>
      </trkpt>
      <trkpt lat="46.99238" lon="8.65015">
        <ele>572</ele>
        <time>2021-08-05T09:31:36.440Z</time>
      </trkpt>
      <trkpt lat="46.99238" lon="8.65016">
        <ele>573</ele>
        <time>2021-08-05T09:31:37.440Z</time>
      </trkpt>
      <trkpt lat="46.99238" lon="8.65017">
        <ele>573</ele>
        <time>2021-08-05T09:31:38.440Z</time>
      </trkpt>
      <trkpt lat="46.99238" lon="8.65017">
        <ele>574</ele>
        <time>2021-08-05T09:31:39.440Z</time>
      </trkpt>
      <trkpt lat="46.99239" lon="8.65018">
        <ele>574</ele>
        <time>2021-08-05T09:31:40.440Z</time>
      </trkpt>
      <trkpt lat="46.99239" lon="8.65018">
        <ele>574</ele>
        <time>2021-08-05T09:31:41.440Z</time>
      </trkpt>
      <trkpt lat="46.99239" lon="8.65018">
        <ele>574</ele>
        <time>2021-08-05T09:31:42.441Z</time>
      </trkpt>
      <trkpt lat="46.99239" lon="8.65018">
        <ele>574</ele>
        <time>2021-08-05T09:31:43.440Z</time>
      </trkpt>
      <trkpt lat="46.99238" lon="8.65019">
        <ele>574</ele>
        <time>2021-08-05T09:31:44.441Z</time>
      </trkpt>
      <trkpt lat="46.99238" lon="8.65019">
        <ele>574</ele>
        <time>2021-08-05T09:31:45.440Z</time>
      </trkpt>
      <trkpt lat="46.99238" lon="8.65019">
        <ele>574</ele>
        <time>2021-08-05T09:31:46.441Z</time>
      </trkpt>
      <trkpt lat="46.99239" lon="8.65016">
        <ele>576</ele>
        <time>2021-08-05T09:31:47.442Z</time>
      </trkpt>
      <trkpt lat="46.99239" lon="8.65016">
        <ele>576</ele>
        <time>2021-08-05T09:31:48.442Z</time>
      </trkpt>
      <trkpt lat="46.99238" lon="8.65016">
        <ele>576</ele>
        <time>2021-08-05T09:31:49.441Z</time>
      </trkpt>
      <trkpt lat="46.99238" lon="8.65016">
        <ele>577</ele>
        <time>2021-08-05T09:31:50.442Z</time>
      </trkpt>
      <trkpt lat="46.99238" lon="8.65016">
        <ele>577</ele>
        <time>2021-08-05T09:31:51.442Z</time>
      </trkpt>
      <trkpt lat="46.99238" lon="8.65017">
        <ele>577</ele>
        <time>2021-08-05T09:31:52.442Z</time>
      </trkpt>
      <trkpt lat="46.99237" lon="8.65017">
        <ele>578</ele>
        <time>2021-08-05T09:31:53.442Z</time>
      </trkpt>
      <trkpt lat="46.99237" lon="8.65017">
        <ele>578</ele>
        <time>2021-08-05T09:31:54.442Z</time>
      </trkpt>
      <trkpt lat="46.99238" lon="8.65019">
        <ele>580</ele>
        <time>2021-08-05T09:31:55.443Z</time>
      </trkpt>
      <trkpt lat="46.99238" lon="8.65019">
        <ele>580</ele>
        <time>2021-08-05T09:31:56.443Z</time>
      </trkpt>
      <trkpt lat="46.99238" lon="8.65019">
        <ele>580</ele>
        <time>2021-08-05T09:31:57.443Z</time>
      </trkpt>
      <trkpt lat="46.99239" lon="8.65017">
        <ele>575</ele>
        <time>2021-08-05T09:31:58.443Z</time>
      </trkpt>
      <trkpt lat="46.9924" lon="8.65017">
        <ele>574</ele>
        <time>2021-08-05T09:31:59.443Z</time>
      </trkpt>
      <trkpt lat="46.9924" lon="8.65017">
        <ele>575</ele>
        <time>2021-08-05T09:32:00.442Z</time>
      </trkpt>
      <trkpt lat="46.9924" lon="8.65018">
        <ele>576</ele>
        <time>2021-08-05T09:32:01.444Z</time>
      </trkpt>
      <trkpt lat="46.9924" lon="8.65018">
        <ele>577</ele>
        <time>2021-08-05T09:32:02.445Z</time>
      </trkpt>
      <trkpt lat="46.9924" lon="8.65018">
        <ele>577</ele>
        <time>2021-08-05T09:32:03.444Z</time>
      </trkpt>
      <trkpt lat="46.99241" lon="8.65018">
        <ele>577</ele>
        <time>2021-08-05T09:32:04.445Z</time>
      </trkpt>
      <trkpt lat="46.99241" lon="8.65017">
        <ele>578</ele>
        <time>2021-08-05T09:32:05.445Z</time>
      </trkpt>
      <trkpt lat="46.99242" lon="8.65017">
        <ele>579</ele>
        <time>2021-08-05T09:32:06.445Z</time>
      </trkpt>
      <trkpt lat="46.99241" lon="8.65016">
        <ele>579</ele>
        <time>2021-08-05T09:32:07.445Z</time>
      </trkpt>
      <trkpt lat="46.99238" lon="8.65018">
        <ele>581</ele>
        <time>2021-08-05T09:32:08.445Z</time>
      </trkpt>
      <trkpt lat="46.99238" lon="8.65018">
        <ele>581</ele>
        <time>2021-08-05T09:32:09.446Z</time>
      </trkpt>
      <trkpt lat="46.99238" lon="8.6502">
        <ele>576</ele>
        <time>2021-08-05T09:32:10.447Z</time>
      </trkpt>
      <trkpt lat="46.99238" lon="8.6502">
        <ele>576</ele>
        <time>2021-08-05T09:32:11.447Z</time>
      </trkpt>
      <trkpt lat="46.99238" lon="8.6502">
        <ele>575</ele>
        <time>2021-08-05T09:32:12.446Z</time>
      </trkpt>
      <trkpt lat="46.99239" lon="8.65019">
        <ele>575</ele>
        <time>2021-08-05T09:32:13.447Z</time>
      </trkpt>
      <trkpt lat="46.99239" lon="8.65019">
        <ele>574</ele>
        <time>2021-08-05T09:32:14.447Z</time>
      </trkpt>
      <trkpt lat="46.99238" lon="8.65023">
        <ele>575</ele>
        <time>2021-08-05T09:32:15.448Z</time>
      </trkpt>
      <trkpt lat="46.99238" lon="8.65024">
        <ele>574</ele>
        <time>2021-08-05T09:32:16.447Z</time>
      </trkpt>
      <trkpt lat="46.99238" lon="8.65025">
        <ele>574</ele>
        <time>2021-08-05T09:32:17.447Z</time>
      </trkpt>
      <trkpt lat="46.99239" lon="8.65024">
        <ele>574</ele>
        <time>2021-08-05T09:32:18.447Z</time>
      </trkpt>
      <trkpt lat="46.99239" lon="8.65024">
        <ele>574</ele>
        <time>2021-08-05T09:32:19.448Z</time>
      </trkpt>
      <trkpt lat="46.99238" lon="8.65021">
        <ele>580</ele>
        <time>2021-08-05T09:32:20.448Z</time>
      </trkpt>
      <trkpt lat="46.99238" lon="8.65018">
        <ele>586</ele>
        <time>2021-08-05T09:32:21.447Z</time>
      </trkpt>
      <trkpt lat="46.99237" lon="8.65017">
        <ele>586</ele>
        <time>2021-08-05T09:32:22.447Z</time>
      </trkpt>
      <trkpt lat="46.99237" lon="8.65017">
        <ele>586</ele>
        <time>2021-08-05T09:32:23.447Z</time>
      </trkpt>
      <trkpt lat="46.99237" lon="8.65017">
        <ele>585</ele>
        <time>2021-08-05T09:32:24.447Z</time>
      </trkpt>
      <trkpt lat="46.99237" lon="8.65017">
        <ele>585</ele>
        <time>2021-08-05T09:32:25.448Z</time>
      </trkpt>
      <trkpt lat="46.99237" lon="8.65017">
        <ele>585</ele>
        <time>2021-08-05T09:32:26.448Z</time>
      </trkpt>
      <trkpt lat="46.9924" lon="8.6502">
        <ele>590</ele>
        <time>2021-08-05T09:32:27.448Z</time>
      </trkpt>
      <trkpt lat="46.99239" lon="8.65021">
        <ele>590</ele>
        <time>2021-08-05T09:32:28.447Z</time>
      </trkpt>
      <trkpt lat="46.99239" lon="8.65022">
        <ele>589</ele>
        <time>2021-08-05T09:32:29.448Z</time>
      </trkpt>
      <trkpt lat="46.99239" lon="8.65023">
        <ele>589</ele>
        <time>2021-08-05T09:32:30.447Z</time>
      </trkpt>
      <trkpt lat="46.99238" lon="8.65024">
        <ele>588</ele>
        <time>2021-08-05T09:32:31.447Z</time>
      </trkpt>
      <trkpt lat="46.99238" lon="8.65025">
        <ele>588</ele>
        <time>2021-08-05T09:32:32.448Z</time>
      </trkpt>
      <trkpt lat="46.99237" lon="8.65025">
        <ele>588</ele>
        <time>2021-08-05T09:32:33.447Z</time>
      </trkpt>
      <trkpt lat="46.99237" lon="8.65026">
        <ele>587</ele>
        <time>2021-08-05T09:32:34.447Z</time>
      </trkpt>
      <trkpt lat="46.99236" lon="8.65027">
        <ele>586</ele>
        <time>2021-08-05T09:32:35.448Z</time>
      </trkpt>
      <trkpt lat="46.99236" lon="8.65029">
        <ele>586</ele>
        <time>2021-08-05T09:32:36.448Z</time>
      </trkpt>
      <trkpt lat="46.99235" lon="8.6503">
        <ele>585</ele>
        <time>2021-08-05T09:32:37.447Z</time>
      </trkpt>
      <trkpt lat="46.99235" lon="8.65031">
        <ele>584</ele>
        <time>2021-08-05T09:32:38.447Z</time>
      </trkpt>
      <trkpt lat="46.99234" lon="8.65032">
        <ele>584</ele>
        <time>2021-08-05T09:32:39.447Z</time>
      </trkpt>
      <trkpt lat="46.99233" lon="8.65033">
        <ele>583</ele>
        <time>2021-08-05T09:32:40.448Z</time>
      </trkpt>
      <trkpt lat="46.99233" lon="8.65033">
        <ele>583</ele>
        <time>2021-08-05T09:32:41.447Z</time>
      </trkpt>
      <trkpt lat="46.99232" lon="8.65035">
        <ele>582</ele>
        <time>2021-08-05T09:32:42.447Z</time>
      </trkpt>
      <trkpt lat="46.99231" lon="8.65036">
        <ele>582</ele>
        <time>2021-08-05T09:32:43.447Z</time>
      </trkpt>
      <trkpt lat="46.99231" lon="8.65037">
        <ele>581</ele>
        <time>2021-08-05T09:32:44.448Z</time>
      </trkpt>
      <trkpt lat="46.99231" lon="8.65038">
        <ele>581</ele>
        <time>2021-08-05T09:32:45.447Z</time>
      </trkpt>
      <trkpt lat="46.9923" lon="8.6504">
        <ele>581</ele>
        <time>2021-08-05T09:32:46.448Z</time>
      </trkpt>
      <trkpt lat="46.99229" lon="8.65042">
        <ele>580</ele>
        <time>2021-08-05T09:32:47.447Z</time>
      </trkpt>
      <trkpt lat="46.99229" lon="8.65043">
        <ele>580</ele>
        <time>2021-08-05T09:32:48.448Z</time>
      </trkpt>
      <trkpt lat="46.99228" lon="8.65044">
        <ele>579</ele>
        <time>2021-08-05T09:32:49.448Z</time>
      </trkpt>
      <trkpt lat="46.99227" lon="8.65045">
        <ele>579</ele>
        <time>2021-08-05T09:32:50.448Z</time>
      </trkpt>
      <trkpt lat="46.99225" lon="8.65046">
        <ele>578</ele>
        <time>2021-08-05T09:32:51.448Z</time>
      </trkpt>
      <trkpt lat="46.99224" lon="8.65047">
        <ele>578</ele>
        <time>2021-08-05T09:32:52.448Z</time>
      </trkpt>
      <trkpt lat="46.99223" lon="8.65047">
        <ele>578</ele>
        <time>2021-08-05T09:32:53.448Z</time>
      </trkpt>
      <trkpt lat="46.99222" lon="8.65048">
        <ele>578</ele>
        <time>2021-08-05T09:32:54.448Z</time>
      </trkpt>
      <trkpt lat="46.99222" lon="8.65049">
        <ele>578</ele>
        <time>2021-08-05T09:32:55.448Z</time>
      </trkpt>
      <trkpt lat="46.99221" lon="8.6505">
        <ele>578</ele>
        <time>2021-08-05T09:32:56.447Z</time>
      </trkpt>
      <trkpt lat="46.99221" lon="8.65051">
        <ele>578</ele>
        <time>2021-08-05T09:32:57.447Z</time>
      </trkpt>
      <trkpt lat="46.9922" lon="8.65053">
        <ele>578</ele>
        <time>2021-08-05T09:32:58.447Z</time>
      </trkpt>
      <trkpt lat="46.99219" lon="8.65055">
        <ele>577</ele>
        <time>2021-08-05T09:32:59.448Z</time>
      </trkpt>
      <trkpt lat="46.99217" lon="8.65057">
        <ele>577</ele>
        <time>2021-08-05T09:33:00.447Z</time>
      </trkpt>
      <trkpt lat="46.99217" lon="8.65059">
        <ele>577</ele>
        <time>2021-08-05T09:33:01.448Z</time>
      </trkpt>
      <trkpt lat="46.99216" lon="8.65061">
        <ele>577</ele>
        <time>2021-08-05T09:33:02.448Z</time>
      </trkpt>
      <trkpt lat="46.99215" lon="8.65063">
        <ele>577</ele>
        <time>2021-08-05T09:33:03.448Z</time>
      </trkpt>
      <trkpt lat="46.99214" lon="8.65065">
        <ele>576</ele>
        <time>2021-08-05T09:33:04.447Z</time>
      </trkpt>
      <trkpt lat="46.99213" lon="8.65066">
        <ele>576</ele>
        <time>2021-08-05T09:33:05.447Z</time>
      </trkpt>
      <trkpt lat="46.99213" lon="8.65066">
        <ele>576</ele>
        <time>2021-08-05T09:33:06.448Z</time>
      </trkpt>
      <trkpt lat="46.99212" lon="8.65067">
        <ele>576</ele>
        <time>2021-08-05T09:33:07.447Z</time>
      </trkpt>
      <trkpt lat="46.99212" lon="8.65068">
        <ele>577</ele>
        <time>2021-08-05T09:33:08.448Z</time>
      </trkpt>
      <trkpt lat="46.99212" lon="8.6507">
        <ele>578</ele>
        <time>2021-08-05T09:33:09.448Z</time>
      </trkpt>
      <trkpt lat="46.99211" lon="8.65071">
        <ele>578</ele>
        <time>2021-08-05T09:33:10.448Z</time>
      </trkpt>
      <trkpt lat="46.9921" lon="8.65073">
        <ele>577</ele>
        <time>2021-08-05T09:33:11.448Z</time>
      </trkpt>
      <trkpt lat="46.9921" lon="8.65074">
        <ele>577</ele>
        <time>2021-08-05T09:33:12.448Z</time>
      </trkpt>
      <trkpt lat="46.99209" lon="8.65075">
        <ele>576</ele>
        <time>2021-08-05T09:33:13.447Z</time>
      </trkpt>
      <trkpt lat="46.99209" lon="8.65076">
        <ele>575</ele>
        <time>2021-08-05T09:33:14.447Z</time>
      </trkpt>
      <trkpt lat="46.99209" lon="8.65076">
        <ele>575</ele>
        <time>2021-08-05T09:33:15.448Z</time>
      </trkpt>
      <trkpt lat="46.99209" lon="8.65076">
        <ele>574</ele>
        <time>2021-08-05T09:33:16.447Z</time>
      </trkpt>
      <trkpt lat="46.99209" lon="8.65076">
        <ele>574</ele>
        <time>2021-08-05T09:33:17.447Z</time>
      </trkpt>
      <trkpt lat="46.99209" lon="8.65077">
        <ele>574</ele>
        <time>2021-08-05T09:33:18.448Z</time>
      </trkpt>
      <trkpt lat="46.9921" lon="8.65077">
        <ele>573</ele>
        <time>2021-08-05T09:33:19.447Z</time>
      </trkpt>
      <trkpt lat="46.9921" lon="8.65078">
        <ele>573</ele>
        <time>2021-08-05T09:33:20.447Z</time>
      </trkpt>
      <trkpt lat="46.9921" lon="8.65078">
        <ele>573</ele>
        <time>2021-08-05T09:33:21.447Z</time>
      </trkpt>
      <trkpt lat="46.99211" lon="8.65075">
        <ele>575</ele>
        <time>2021-08-05T09:33:22.448Z</time>
      </trkpt>
      <trkpt lat="46.9921" lon="8.65075">
        <ele>574</ele>
        <time>2021-08-05T09:33:23.449Z</time>
      </trkpt>
      <trkpt lat="46.9921" lon="8.65076">
        <ele>574</ele>
        <time>2021-08-05T09:33:24.449Z</time>
      </trkpt>
      <trkpt lat="46.99209" lon="8.65077">
        <ele>574</ele>
        <time>2021-08-05T09:33:25.449Z</time>
      </trkpt>
      <trkpt lat="46.99208" lon="8.65078">
        <ele>574</ele>
        <time>2021-08-05T09:33:26.449Z</time>
      </trkpt>
      <trkpt lat="46.99207" lon="8.65079">
        <ele>574</ele>
        <time>2021-08-05T09:33:27.449Z</time>
      </trkpt>
      <trkpt lat="46.99206" lon="8.65079">
        <ele>574</ele>
        <time>2021-08-05T09:33:28.449Z</time>
      </trkpt>
      <trkpt lat="46.99206" lon="8.6508">
        <ele>575</ele>
        <time>2021-08-05T09:33:29.449Z</time>
      </trkpt>
      <trkpt lat="46.99205" lon="8.65081">
        <ele>575</ele>
        <time>2021-08-05T09:33:30.449Z</time>
      </trkpt>
      <trkpt lat="46.99204" lon="8.65082">
        <ele>575</ele>
        <time>2021-08-05T09:33:31.449Z</time>
      </trkpt>
      <trkpt lat="46.99203" lon="8.65083">
        <ele>575</ele>
        <time>2021-08-05T09:33:32.448Z</time>
      </trkpt>
      <trkpt lat="46.99203" lon="8.65085">
        <ele>575</ele>
        <time>2021-08-05T09:33:33.449Z</time>
      </trkpt>
      <trkpt lat="46.99202" lon="8.65086">
        <ele>575</ele>
        <time>2021-08-05T09:33:34.449Z</time>
      </trkpt>
      <trkpt lat="46.99201" lon="8.65087">
        <ele>575</ele>
        <time>2021-08-05T09:33:35.449Z</time>
      </trkpt>
      <trkpt lat="46.992" lon="8.65088">
        <ele>575</ele>
        <time>2021-08-05T09:33:36.449Z</time>
      </trkpt>
      <trkpt lat="46.992" lon="8.65089">
        <ele>575</ele>
        <time>2021-08-05T09:33:37.448Z</time>
      </trkpt>
      <trkpt lat="46.99199" lon="8.65091">
        <ele>574</ele>
        <time>2021-08-05T09:33:38.449Z</time>
      </trkpt>
      <trkpt lat="46.99198" lon="8.65092">
        <ele>574</ele>
        <time>2021-08-05T09:33:39.449Z</time>
      </trkpt>
      <trkpt lat="46.99197" lon="8.65094">
        <ele>575</ele>
        <time>2021-08-05T09:33:40.449Z</time>
      </trkpt>
      <trkpt lat="46.99197" lon="8.65095">
        <ele>575</ele>
        <time>2021-08-05T09:33:41.449Z</time>
      </trkpt>
      <trkpt lat="46.99196" lon="8.65097">
        <ele>575</ele>
        <time>2021-08-05T09:33:42.448Z</time>
      </trkpt>
      <trkpt lat="46.99195" lon="8.65098">
        <ele>575</ele>
        <time>2021-08-05T09:33:43.449Z</time>
      </trkpt>
      <trkpt lat="46.99194" lon="8.651">
        <ele>575</ele>
        <time>2021-08-05T09:33:44.449Z</time>
      </trkpt>
      <trkpt lat="46.99193" lon="8.65102">
        <ele>575</ele>
        <time>2021-08-05T09:33:45.448Z</time>
      </trkpt>
      <trkpt lat="46.99193" lon="8.65103">
        <ele>575</ele>
        <time>2021-08-05T09:33:46.449Z</time>
      </trkpt>
      <trkpt lat="46.99192" lon="8.65104">
        <ele>575</ele>
        <time>2021-08-05T09:33:47.449Z</time>
      </trkpt>
      <trkpt lat="46.99192" lon="8.65105">
        <ele>575</ele>
        <time>2021-08-05T09:33:48.449Z</time>
      </trkpt>
      <trkpt lat="46.99192" lon="8.65107">
        <ele>574</ele>
        <time>2021-08-05T09:33:49.449Z</time>
      </trkpt>
      <trkpt lat="46.99192" lon="8.65107">
        <ele>574</ele>
        <time>2021-08-05T09:33:50.448Z</time>
      </trkpt>
      <trkpt lat="46.99191" lon="8.65107">
        <ele>574</ele>
        <time>2021-08-05T09:33:51.448Z</time>
      </trkpt>
      <trkpt lat="46.9919" lon="8.65109">
        <ele>574</ele>
        <time>2021-08-05T09:33:52.449Z</time>
      </trkpt>
      <trkpt lat="46.99189" lon="8.6511">
        <ele>573</ele>
        <time>2021-08-05T09:33:53.448Z</time>
      </trkpt>
      <trkpt lat="46.99188" lon="8.65111">
        <ele>573</ele>
        <time>2021-08-05T09:33:54.448Z</time>
      </trkpt>
      <trkpt lat="46.99188" lon="8.65112">
        <ele>573</ele>
        <time>2021-08-05T09:33:55.448Z</time>
      </trkpt>
      <trkpt lat="46.99186" lon="8.65114">
        <ele>572</ele>
        <time>2021-08-05T09:33:56.449Z</time>
      </trkpt>
      <trkpt lat="46.99185" lon="8.65115">
        <ele>572</ele>
        <time>2021-08-05T09:33:57.449Z</time>
      </trkpt>
      <trkpt lat="46.99185" lon="8.65117">
        <ele>571</ele>
        <time>2021-08-05T09:33:58.449Z</time>
      </trkpt>
      <trkpt lat="46.99184" lon="8.65118">
        <ele>572</ele>
        <time>2021-08-05T09:33:59.449Z</time>
      </trkpt>
      <trkpt lat="46.99184" lon="8.65119">
        <ele>572</ele>
        <time>2021-08-05T09:34:00.449Z</time>
      </trkpt>
      <trkpt lat="46.99183" lon="8.6512">
        <ele>572</ele>
        <time>2021-08-05T09:34:01.448Z</time>
      </trkpt>
      <trkpt lat="46.99182" lon="8.65121">
        <ele>572</ele>
        <time>2021-08-05T09:34:02.448Z</time>
      </trkpt>
      <trkpt lat="46.99182" lon="8.65122">
        <ele>573</ele>
        <time>2021-08-05T09:34:03.449Z</time>
      </trkpt>
      <trkpt lat="46.9918" lon="8.65122">
        <ele>573</ele>
        <time>2021-08-05T09:34:04.449Z</time>
      </trkpt>
      <trkpt lat="46.9918" lon="8.65123">
        <ele>573</ele>
        <time>2021-08-05T09:34:05.448Z</time>
      </trkpt>
      <trkpt lat="46.99179" lon="8.65125">
        <ele>573</ele>
        <time>2021-08-05T09:34:06.449Z</time>
      </trkpt>
      <trkpt lat="46.99179" lon="8.65126">
        <ele>573</ele>
        <time>2021-08-05T09:34:07.449Z</time>
      </trkpt>
      <trkpt lat="46.99178" lon="8.65127">
        <ele>573</ele>
        <time>2021-08-05T09:34:08.449Z</time>
      </trkpt>
      <trkpt lat="46.99177" lon="8.65128">
        <ele>573</ele>
        <time>2021-08-05T09:34:09.448Z</time>
      </trkpt>
      <trkpt lat="46.99177" lon="8.65128">
        <ele>573</ele>
        <time>2021-08-05T09:34:10.449Z</time>
      </trkpt>
      <trkpt lat="46.99175" lon="8.65129">
        <ele>573</ele>
        <time>2021-08-05T09:34:11.449Z</time>
      </trkpt>
      <trkpt lat="46.99175" lon="8.65131">
        <ele>574</ele>
        <time>2021-08-05T09:34:12.448Z</time>
      </trkpt>
      <trkpt lat="46.99174" lon="8.65132">
        <ele>574</ele>
        <time>2021-08-05T09:34:13.448Z</time>
      </trkpt>
      <trkpt lat="46.99173" lon="8.65134">
        <ele>574</ele>
        <time>2021-08-05T09:34:14.449Z</time>
      </trkpt>
      <trkpt lat="46.99173" lon="8.65135">
        <ele>574</ele>
        <time>2021-08-05T09:34:15.448Z</time>
      </trkpt>
      <trkpt lat="46.99172" lon="8.65136">
        <ele>575</ele>
        <time>2021-08-05T09:34:16.449Z</time>
      </trkpt>
      <trkpt lat="46.99171" lon="8.65137">
        <ele>575</ele>
        <time>2021-08-05T09:34:17.449Z</time>
      </trkpt>
      <trkpt lat="46.9917" lon="8.65138">
        <ele>575</ele>
        <time>2021-08-05T09:34:18.449Z</time>
      </trkpt>
      <trkpt lat="46.9917" lon="8.65139">
        <ele>576</ele>
        <time>2021-08-05T09:34:19.449Z</time>
      </trkpt>
      <trkpt lat="46.99169" lon="8.6514">
        <ele>576</ele>
        <time>2021-08-05T09:34:20.448Z</time>
      </trkpt>
      <trkpt lat="46.99168" lon="8.65141">
        <ele>577</ele>
        <time>2021-08-05T09:34:21.449Z</time>
      </trkpt>
      <trkpt lat="46.99167" lon="8.65142">
        <ele>577</ele>
        <time>2021-08-05T09:34:22.448Z</time>
      </trkpt>
      <trkpt lat="46.99166" lon="8.65144">
        <ele>577</ele>
        <time>2021-08-05T09:34:23.449Z</time>
      </trkpt>
      <trkpt lat="46.99166" lon="8.65145">
        <ele>576</ele>
        <time>2021-08-05T09:34:24.448Z</time>
      </trkpt>
      <trkpt lat="46.99166" lon="8.65146">
        <ele>576</ele>
        <time>2021-08-05T09:34:25.449Z</time>
      </trkpt>
      <trkpt lat="46.99165" lon="8.65148">
        <ele>576</ele>
        <time>2021-08-05T09:34:26.448Z</time>
      </trkpt>
      <trkpt lat="46.99164" lon="8.65149">
        <ele>575</ele>
        <time>2021-08-05T09:34:27.448Z</time>
      </trkpt>
      <trkpt lat="46.99163" lon="8.6515">
        <ele>574</ele>
        <time>2021-08-05T09:34:28.449Z</time>
      </trkpt>
      <trkpt lat="46.99163" lon="8.65151">
        <ele>573</ele>
        <time>2021-08-05T09:34:29.448Z</time>
      </trkpt>
      <trkpt lat="46.99162" lon="8.65152">
        <ele>573</ele>
        <time>2021-08-05T09:34:30.449Z</time>
      </trkpt>
      <trkpt lat="46.99161" lon="8.65154">
        <ele>572</ele>
        <time>2021-08-05T09:34:31.449Z</time>
      </trkpt>
      <trkpt lat="46.9916" lon="8.65155">
        <ele>572</ele>
        <time>2021-08-05T09:34:32.448Z</time>
      </trkpt>
      <trkpt lat="46.9916" lon="8.65157">
        <ele>571</ele>
        <time>2021-08-05T09:34:33.449Z</time>
      </trkpt>
      <trkpt lat="46.99159" lon="8.65158">
        <ele>570</ele>
        <time>2021-08-05T09:34:34.449Z</time>
      </trkpt>
      <trkpt lat="46.99158" lon="8.65159">
        <ele>569</ele>
        <time>2021-08-05T09:34:35.449Z</time>
      </trkpt>
      <trkpt lat="46.99157" lon="8.65159">
        <ele>569</ele>
        <time>2021-08-05T09:34:36.449Z</time>
      </trkpt>
      <trkpt lat="46.99157" lon="8.65159">
        <ele>568</ele>
        <time>2021-08-05T09:34:37.449Z</time>
      </trkpt>
      <trkpt lat="46.99156" lon="8.6516">
        <ele>567</ele>
        <time>2021-08-05T09:34:38.448Z</time>
      </trkpt>
      <trkpt lat="46.99155" lon="8.6516">
        <ele>567</ele>
        <time>2021-08-05T09:34:39.449Z</time>
      </trkpt>
      <trkpt lat="46.99154" lon="8.65161">
        <ele>566</ele>
        <time>2021-08-05T09:34:40.449Z</time>
      </trkpt>
      <trkpt lat="46.99152" lon="8.65162">
        <ele>566</ele>
        <time>2021-08-05T09:34:41.448Z</time>
      </trkpt>
      <trkpt lat="46.99151" lon="8.65163">
        <ele>566</ele>
        <time>2021-08-05T09:34:42.449Z</time>
      </trkpt>
      <trkpt lat="46.9915" lon="8.65164">
        <ele>566</ele>
        <time>2021-08-05T09:34:43.449Z</time>
      </trkpt>
      <trkpt lat="46.99149" lon="8.65165">
        <ele>566</ele>
        <time>2021-08-05T09:34:44.449Z</time>
      </trkpt>
      <trkpt lat="46.99147" lon="8.65166">
        <ele>566</ele>
        <time>2021-08-05T09:34:45.449Z</time>
      </trkpt>
      <trkpt lat="46.99146" lon="8.65167">
        <ele>567</ele>
        <time>2021-08-05T09:34:46.448Z</time>
      </trkpt>
      <trkpt lat="46.99146" lon="8.65168">
        <ele>567</ele>
        <time>2021-08-05T09:34:47.449Z</time>
      </trkpt>
      <trkpt lat="46.99146" lon="8.65169">
        <ele>567</ele>
        <time>2021-08-05T09:34:48.449Z</time>
      </trkpt>
      <trkpt lat="46.99146" lon="8.6517">
        <ele>568</ele>
        <time>2021-08-05T09:34:49.448Z</time>
      </trkpt>
      <trkpt lat="46.99145" lon="8.65172">
        <ele>568</ele>
        <time>2021-08-05T09:34:50.449Z</time>
      </trkpt>
      <trkpt lat="46.99144" lon="8.65172">
        <ele>569</ele>
        <time>2021-08-05T09:34:51.448Z</time>
      </trkpt>
      <trkpt lat="46.99143" lon="8.65174">
        <ele>569</ele>
        <time>2021-08-05T09:34:52.449Z</time>
      </trkpt>
      <trkpt lat="46.99142" lon="8.65175">
        <ele>570</ele>
        <time>2021-08-05T09:34:53.449Z</time>
      </trkpt>
      <trkpt lat="46.99142" lon="8.65176">
        <ele>571</ele>
        <time>2021-08-05T09:34:54.448Z</time>
      </trkpt>
      <trkpt lat="46.99142" lon="8.65178">
        <ele>571</ele>
        <time>2021-08-05T09:34:55.449Z</time>
      </trkpt>
      <trkpt lat="46.99141" lon="8.65179">
        <ele>571</ele>
        <time>2021-08-05T09:34:56.449Z</time>
      </trkpt>
      <trkpt lat="46.9914" lon="8.6518">
        <ele>571</ele>
        <time>2021-08-05T09:34:57.448Z</time>
      </trkpt>
      <trkpt lat="46.99139" lon="8.65181">
        <ele>572</ele>
        <time>2021-08-05T09:34:58.449Z</time>
      </trkpt>
      <trkpt lat="46.99138" lon="8.65182">
        <ele>571</ele>
        <time>2021-08-05T09:34:59.448Z</time>
      </trkpt>
      <trkpt lat="46.99137" lon="8.65182">
        <ele>571</ele>
        <time>2021-08-05T09:35:00.449Z</time>
      </trkpt>
      <trkpt lat="46.99136" lon="8.65182">
        <ele>571</ele>
        <time>2021-08-05T09:35:01.448Z</time>
      </trkpt>
      <trkpt lat="46.99135" lon="8.65183">
        <ele>571</ele>
        <time>2021-08-05T09:35:02.448Z</time>
      </trkpt>
      <trkpt lat="46.99135" lon="8.65184">
        <ele>570</ele>
        <time>2021-08-05T09:35:03.448Z</time>
      </trkpt>
      <trkpt lat="46.99134" lon="8.65184">
        <ele>570</ele>
        <time>2021-08-05T09:35:04.448Z</time>
      </trkpt>
      <trkpt lat="46.99133" lon="8.65185">
        <ele>569</ele>
        <time>2021-08-05T09:35:05.448Z</time>
      </trkpt>
      <trkpt lat="46.99132" lon="8.65187">
        <ele>569</ele>
        <time>2021-08-05T09:35:06.449Z</time>
      </trkpt>
      <trkpt lat="46.99131" lon="8.65187">
        <ele>569</ele>
        <time>2021-08-05T09:35:07.449Z</time>
      </trkpt>
      <trkpt lat="46.9913" lon="8.65189">
        <ele>568</ele>
        <time>2021-08-05T09:35:08.449Z</time>
      </trkpt>
      <trkpt lat="46.99129" lon="8.6519">
        <ele>568</ele>
        <time>2021-08-05T09:35:09.449Z</time>
      </trkpt>
      <trkpt lat="46.99128" lon="8.65191">
        <ele>567</ele>
        <time>2021-08-05T09:35:10.449Z</time>
      </trkpt>
      <trkpt lat="46.99127" lon="8.65192">
        <ele>566</ele>
        <time>2021-08-05T09:35:11.449Z</time>
      </trkpt>
      <trkpt lat="46.99127" lon="8.65193">
        <ele>565</ele>
        <time>2021-08-05T09:35:12.449Z</time>
      </trkpt>
      <trkpt lat="46.99126" lon="8.65193">
        <ele>564</ele>
        <time>2021-08-05T09:35:13.449Z</time>
      </trkpt>
      <trkpt lat="46.99125" lon="8.65194">
        <ele>564</ele>
        <time>2021-08-05T09:35:14.449Z</time>
      </trkpt>
      <trkpt lat="46.99124" lon="8.65194">
        <ele>564</ele>
        <time>2021-08-05T09:35:15.448Z</time>
      </trkpt>
      <trkpt lat="46.99122" lon="8.65194">
        <ele>565</ele>
        <time>2021-08-05T09:35:16.449Z</time>
      </trkpt>
      <trkpt lat="46.99121" lon="8.65194">
        <ele>566</ele>
        <time>2021-08-05T09:35:17.449Z</time>
      </trkpt>
      <trkpt lat="46.9912" lon="8.65194">
        <ele>567</ele>
        <time>2021-08-05T09:35:18.448Z</time>
      </trkpt>
      <trkpt lat="46.99119" lon="8.65194">
        <ele>567</ele>
        <time>2021-08-05T09:35:19.449Z</time>
      </trkpt>
      <trkpt lat="46.99118" lon="8.65195">
        <ele>568</ele>
        <time>2021-08-05T09:35:20.448Z</time>
      </trkpt>
      <trkpt lat="46.99117" lon="8.65196">
        <ele>568</ele>
        <time>2021-08-05T09:35:21.449Z</time>
      </trkpt>
      <trkpt lat="46.99117" lon="8.65197">
        <ele>568</ele>
        <time>2021-08-05T09:35:22.449Z</time>
      </trkpt>
      <trkpt lat="46.99116" lon="8.65198">
        <ele>568</ele>
        <time>2021-08-05T09:35:23.449Z</time>
      </trkpt>
      <trkpt lat="46.99115" lon="8.65199">
        <ele>567</ele>
        <time>2021-08-05T09:35:24.449Z</time>
      </trkpt>
      <trkpt lat="46.99114" lon="8.65199">
        <ele>567</ele>
        <time>2021-08-05T09:35:25.449Z</time>
      </trkpt>
      <trkpt lat="46.99113" lon="8.65199">
        <ele>566</ele>
        <time>2021-08-05T09:35:26.448Z</time>
      </trkpt>
      <trkpt lat="46.99112" lon="8.65199">
        <ele>566</ele>
        <time>2021-08-05T09:35:27.449Z</time>
      </trkpt>
      <trkpt lat="46.99111" lon="8.65199">
        <ele>566</ele>
        <time>2021-08-05T09:35:28.448Z</time>
      </trkpt>
      <trkpt lat="46.99109" lon="8.652">
        <ele>565</ele>
        <time>2021-08-05T09:35:29.448Z</time>
      </trkpt>
      <trkpt lat="46.99108" lon="8.652">
        <ele>565</ele>
        <time>2021-08-05T09:35:30.449Z</time>
      </trkpt>
      <trkpt lat="46.99107" lon="8.652">
        <ele>564</ele>
        <time>2021-08-05T09:35:31.448Z</time>
      </trkpt>
      <trkpt lat="46.99106" lon="8.652">
        <ele>564</ele>
        <time>2021-08-05T09:35:32.448Z</time>
      </trkpt>
      <trkpt lat="46.99105" lon="8.65201">
        <ele>564</ele>
        <time>2021-08-05T09:35:33.449Z</time>
      </trkpt>
      <trkpt lat="46.99104" lon="8.65201">
        <ele>564</ele>
        <time>2021-08-05T09:35:34.449Z</time>
      </trkpt>
      <trkpt lat="46.99103" lon="8.65202">
        <ele>564</ele>
        <time>2021-08-05T09:35:35.448Z</time>
      </trkpt>
      <trkpt lat="46.99102" lon="8.65203">
        <ele>564</ele>
        <time>2021-08-05T09:35:36.448Z</time>
      </trkpt>
      <trkpt lat="46.99101" lon="8.65204">
        <ele>564</ele>
        <time>2021-08-05T09:35:37.448Z</time>
      </trkpt>
      <trkpt lat="46.991" lon="8.65205">
        <ele>564</ele>
        <time>2021-08-05T09:35:38.449Z</time>
      </trkpt>
      <trkpt lat="46.99099" lon="8.65206">
        <ele>565</ele>
        <time>2021-08-05T09:35:39.449Z</time>
      </trkpt>
      <trkpt lat="46.99098" lon="8.65207">
        <ele>565</ele>
        <time>2021-08-05T09:35:40.448Z</time>
      </trkpt>
      <trkpt lat="46.99097" lon="8.65208">
        <ele>564</ele>
        <time>2021-08-05T09:35:41.448Z</time>
      </trkpt>
      <trkpt lat="46.99096" lon="8.65208">
        <ele>564</ele>
        <time>2021-08-05T09:35:42.448Z</time>
      </trkpt>
      <trkpt lat="46.99095" lon="8.65208">
        <ele>563</ele>
        <time>2021-08-05T09:35:43.448Z</time>
      </trkpt>
      <trkpt lat="46.99094" lon="8.65209">
        <ele>563</ele>
        <time>2021-08-05T09:35:44.448Z</time>
      </trkpt>
      <trkpt lat="46.99093" lon="8.65209">
        <ele>563</ele>
        <time>2021-08-05T09:35:45.448Z</time>
      </trkpt>
      <trkpt lat="46.99092" lon="8.65209">
        <ele>563</ele>
        <time>2021-08-05T09:35:46.448Z</time>
      </trkpt>
      <trkpt lat="46.99091" lon="8.65209">
        <ele>564</ele>
        <time>2021-08-05T09:35:47.449Z</time>
      </trkpt>
      <trkpt lat="46.9909" lon="8.65209">
        <ele>564</ele>
        <time>2021-08-05T09:35:48.449Z</time>
      </trkpt>
      <trkpt lat="46.9909" lon="8.6521">
        <ele>563</ele>
        <time>2021-08-05T09:35:49.449Z</time>
      </trkpt>
      <trkpt lat="46.99089" lon="8.6521">
        <ele>563</ele>
        <time>2021-08-05T09:35:50.448Z</time>
      </trkpt>
      <trkpt lat="46.99088" lon="8.6521">
        <ele>563</ele>
        <time>2021-08-05T09:35:51.449Z</time>
      </trkpt>
      <trkpt lat="46.99086" lon="8.6521">
        <ele>562</ele>
        <time>2021-08-05T09:35:52.449Z</time>
      </trkpt>
      <trkpt lat="46.99085" lon="8.6521">
        <ele>562</ele>
        <time>2021-08-05T09:35:53.448Z</time>
      </trkpt>
      <trkpt lat="46.99084" lon="8.6521">
        <ele>562</ele>
        <time>2021-08-05T09:35:54.448Z</time>
      </trkpt>
      <trkpt lat="46.99083" lon="8.6521">
        <ele>563</ele>
        <time>2021-08-05T09:35:55.449Z</time>
      </trkpt>
      <trkpt lat="46.99082" lon="8.6521">
        <ele>563</ele>
        <time>2021-08-05T09:35:56.449Z</time>
      </trkpt>
      <trkpt lat="46.99081" lon="8.65209">
        <ele>563</ele>
        <time>2021-08-05T09:35:57.449Z</time>
      </trkpt>
      <trkpt lat="46.9908" lon="8.65208">
        <ele>564</ele>
        <time>2021-08-05T09:35:58.448Z</time>
      </trkpt>
      <trkpt lat="46.99078" lon="8.65208">
        <ele>564</ele>
        <time>2021-08-05T09:35:59.449Z</time>
      </trkpt>
      <trkpt lat="46.99077" lon="8.65208">
        <ele>564</ele>
        <time>2021-08-05T09:36:00.449Z</time>
      </trkpt>
      <trkpt lat="46.99076" lon="8.65208">
        <ele>565</ele>
        <time>2021-08-05T09:36:01.449Z</time>
      </trkpt>
      <trkpt lat="46.99075" lon="8.65208">
        <ele>565</ele>
        <time>2021-08-05T09:36:02.449Z</time>
      </trkpt>
      <trkpt lat="46.99073" lon="8.65208">
        <ele>566</ele>
        <time>2021-08-05T09:36:03.448Z</time>
      </trkpt>
      <trkpt lat="46.99072" lon="8.65209">
        <ele>566</ele>
        <time>2021-08-05T09:36:04.449Z</time>
      </trkpt>
      <trkpt lat="46.99071" lon="8.6521">
        <ele>566</ele>
        <time>2021-08-05T09:36:05.449Z</time>
      </trkpt>
      <trkpt lat="46.99071" lon="8.6521">
        <ele>567</ele>
        <time>2021-08-05T09:36:06.449Z</time>
      </trkpt>
      <trkpt lat="46.9907" lon="8.6521">
        <ele>568</ele>
        <time>2021-08-05T09:36:07.448Z</time>
      </trkpt>
      <trkpt lat="46.99069" lon="8.65211">
        <ele>569</ele>
        <time>2021-08-05T09:36:08.448Z</time>
      </trkpt>
      <trkpt lat="46.99068" lon="8.65212">
        <ele>570</ele>
        <time>2021-08-05T09:36:09.449Z</time>
      </trkpt>
      <trkpt lat="46.99067" lon="8.65213">
        <ele>572</ele>
        <time>2021-08-05T09:36:10.449Z</time>
      </trkpt>
      <trkpt lat="46.99066" lon="8.65214">
        <ele>572</ele>
        <time>2021-08-05T09:36:11.449Z</time>
      </trkpt>
      <trkpt lat="46.99066" lon="8.65215">
        <ele>573</ele>
        <time>2021-08-05T09:36:12.449Z</time>
      </trkpt>
      <trkpt lat="46.99065" lon="8.65216">
        <ele>574</ele>
        <time>2021-08-05T09:36:13.449Z</time>
      </trkpt>
      <trkpt lat="46.99065" lon="8.65217">
        <ele>574</ele>
        <time>2021-08-05T09:36:14.448Z</time>
      </trkpt>
      <trkpt lat="46.99064" lon="8.65219">
        <ele>575</ele>
        <time>2021-08-05T09:36:15.449Z</time>
      </trkpt>
      <trkpt lat="46.99063" lon="8.65221">
        <ele>575</ele>
        <time>2021-08-05T09:36:16.449Z</time>
      </trkpt>
      <trkpt lat="46.99062" lon="8.65222">
        <ele>576</ele>
        <time>2021-08-05T09:36:17.449Z</time>
      </trkpt>
      <trkpt lat="46.99061" lon="8.65224">
        <ele>576</ele>
        <time>2021-08-05T09:36:18.449Z</time>
      </trkpt>
      <trkpt lat="46.99061" lon="8.65226">
        <ele>576</ele>
        <time>2021-08-05T09:36:19.448Z</time>
      </trkpt>
      <trkpt lat="46.99061" lon="8.65227">
        <ele>575</ele>
        <time>2021-08-05T09:36:20.449Z</time>
      </trkpt>
      <trkpt lat="46.99061" lon="8.65229">
        <ele>574</ele>
        <time>2021-08-05T09:36:21.449Z</time>
      </trkpt>
      <trkpt lat="46.99061" lon="8.6523">
        <ele>574</ele>
        <time>2021-08-05T09:36:22.449Z</time>
      </trkpt>
      <trkpt lat="46.99061" lon="8.65232">
        <ele>573</ele>
        <time>2021-08-05T09:36:23.449Z</time>
      </trkpt>
      <trkpt lat="46.99062" lon="8.65233">
        <ele>572</ele>
        <time>2021-08-05T09:36:24.449Z</time>
      </trkpt>
      <trkpt lat="46.99062" lon="8.65235">
        <ele>572</ele>
        <time>2021-08-05T09:36:25.449Z</time>
      </trkpt>
      <trkpt lat="46.99062" lon="8.65236">
        <ele>571</ele>
        <time>2021-08-05T09:36:26.448Z</time>
      </trkpt>
      <trkpt lat="46.99063" lon="8.65237">
        <ele>570</ele>
        <time>2021-08-05T09:36:27.449Z</time>
      </trkpt>
      <trkpt lat="46.99063" lon="8.65239">
        <ele>570</ele>
        <time>2021-08-05T09:36:28.448Z</time>
      </trkpt>
      <trkpt lat="46.99063" lon="8.65241">
        <ele>570</ele>
        <time>2021-08-05T09:36:29.449Z</time>
      </trkpt>
      <trkpt lat="46.99064" lon="8.65242">
        <ele>570</ele>
        <time>2021-08-05T09:36:30.448Z</time>
      </trkpt>
      <trkpt lat="46.99065" lon="8.65244">
        <ele>570</ele>
        <time>2021-08-05T09:36:31.449Z</time>
      </trkpt>
      <trkpt lat="46.99066" lon="8.65246">
        <ele>570</ele>
        <time>2021-08-05T09:36:32.449Z</time>
      </trkpt>
      <trkpt lat="46.99067" lon="8.65248">
        <ele>570</ele>
        <time>2021-08-05T09:36:33.448Z</time>
      </trkpt>
      <trkpt lat="46.99068" lon="8.6525">
        <ele>570</ele>
        <time>2021-08-05T09:36:34.449Z</time>
      </trkpt>
      <trkpt lat="46.99069" lon="8.65252">
        <ele>571</ele>
        <time>2021-08-05T09:36:35.448Z</time>
      </trkpt>
      <trkpt lat="46.99069" lon="8.65253">
        <ele>571</ele>
        <time>2021-08-05T09:36:36.449Z</time>
      </trkpt>
      <trkpt lat="46.99069" lon="8.65255">
        <ele>572</ele>
        <time>2021-08-05T09:36:37.449Z</time>
      </trkpt>
      <trkpt lat="46.9907" lon="8.65257">
        <ele>572</ele>
        <time>2021-08-05T09:36:38.448Z</time>
      </trkpt>
      <trkpt lat="46.9907" lon="8.65258">
        <ele>572</ele>
        <time>2021-08-05T09:36:39.449Z</time>
      </trkpt>
      <trkpt lat="46.9907" lon="8.6526">
        <ele>573</ele>
        <time>2021-08-05T09:36:40.449Z</time>
      </trkpt>
      <trkpt lat="46.9907" lon="8.65261">
        <ele>573</ele>
        <time>2021-08-05T09:36:41.449Z</time>
      </trkpt>
      <trkpt lat="46.9907" lon="8.65263">
        <ele>574</ele>
        <time>2021-08-05T09:36:42.449Z</time>
      </trkpt>
      <trkpt lat="46.99069" lon="8.65266">
        <ele>574</ele>
        <time>2021-08-05T09:36:43.448Z</time>
      </trkpt>
      <trkpt lat="46.99069" lon="8.65268">
        <ele>573</ele>
        <time>2021-08-05T09:36:44.448Z</time>
      </trkpt>
      <trkpt lat="46.99068" lon="8.65271">
        <ele>573</ele>
        <time>2021-08-05T09:36:45.449Z</time>
      </trkpt>
      <trkpt lat="46.99067" lon="8.65273">
        <ele>572</ele>
        <time>2021-08-05T09:36:46.449Z</time>
      </trkpt>
      <trkpt lat="46.99066" lon="8.65275">
        <ele>572</ele>
        <time>2021-08-05T09:36:47.449Z</time>
      </trkpt>
      <trkpt lat="46.99066" lon="8.65276">
        <ele>572</ele>
        <time>2021-08-05T09:36:48.449Z</time>
      </trkpt>
      <trkpt lat="46.99065" lon="8.65277">
        <ele>571</ele>
        <time>2021-08-05T09:36:49.448Z</time>
      </trkpt>
      <trkpt lat="46.99065" lon="8.65279">
        <ele>571</ele>
        <time>2021-08-05T09:36:50.448Z</time>
      </trkpt>
      <trkpt lat="46.99066" lon="8.6528">
        <ele>570</ele>
        <time>2021-08-05T09:36:51.448Z</time>
      </trkpt>
      <trkpt lat="46.99066" lon="8.65282">
        <ele>569</ele>
        <time>2021-08-05T09:36:52.449Z</time>
      </trkpt>
      <trkpt lat="46.99066" lon="8.65283">
        <ele>568</ele>
        <time>2021-08-05T09:36:53.449Z</time>
      </trkpt>
      <trkpt lat="46.99066" lon="8.65285">
        <ele>568</ele>
        <time>2021-08-05T09:36:54.448Z</time>
      </trkpt>
      <trkpt lat="46.99066" lon="8.65287">
        <ele>567</ele>
        <time>2021-08-05T09:36:55.449Z</time>
      </trkpt>
      <trkpt lat="46.99066" lon="8.65289">
        <ele>566</ele>
        <time>2021-08-05T09:36:56.449Z</time>
      </trkpt>
      <trkpt lat="46.99066" lon="8.6529">
        <ele>565</ele>
        <time>2021-08-05T09:36:57.448Z</time>
      </trkpt>
      <trkpt lat="46.99066" lon="8.65291">
        <ele>564</ele>
        <time>2021-08-05T09:36:58.449Z</time>
      </trkpt>
      <trkpt lat="46.99066" lon="8.65293">
        <ele>563</ele>
        <time>2021-08-05T09:36:59.449Z</time>
      </trkpt>
      <trkpt lat="46.99066" lon="8.65294">
        <ele>562</ele>
        <time>2021-08-05T09:37:00.448Z</time>
      </trkpt>
      <trkpt lat="46.99066" lon="8.65296">
        <ele>561</ele>
        <time>2021-08-05T09:37:01.449Z</time>
      </trkpt>
      <trkpt lat="46.99066" lon="8.65298">
        <ele>560</ele>
        <time>2021-08-05T09:37:02.449Z</time>
      </trkpt>
      <trkpt lat="46.99067" lon="8.653">
        <ele>560</ele>
        <time>2021-08-05T09:37:03.449Z</time>
      </trkpt>
      <trkpt lat="46.99067" lon="8.65301">
        <ele>560</ele>
        <time>2021-08-05T09:37:04.449Z</time>
      </trkpt>
      <trkpt lat="46.99067" lon="8.65302">
        <ele>560</ele>
        <time>2021-08-05T09:37:05.449Z</time>
      </trkpt>
      <trkpt lat="46.99067" lon="8.65304">
        <ele>559</ele>
        <time>2021-08-05T09:37:06.449Z</time>
      </trkpt>
      <trkpt lat="46.99067" lon="8.65305">
        <ele>559</ele>
        <time>2021-08-05T09:37:07.449Z</time>
      </trkpt>
      <trkpt lat="46.99068" lon="8.65307">
        <ele>559</ele>
        <time>2021-08-05T09:37:08.449Z</time>
      </trkpt>
      <trkpt lat="46.99068" lon="8.65309">
        <ele>558</ele>
        <time>2021-08-05T09:37:09.448Z</time>
      </trkpt>
      <trkpt lat="46.99068" lon="8.65311">
        <ele>558</ele>
        <time>2021-08-05T09:37:10.448Z</time>
      </trkpt>
      <trkpt lat="46.99068" lon="8.65313">
        <ele>557</ele>
        <time>2021-08-05T09:37:11.449Z</time>
      </trkpt>
      <trkpt lat="46.99067" lon="8.65315">
        <ele>557</ele>
        <time>2021-08-05T09:37:12.449Z</time>
      </trkpt>
      <trkpt lat="46.99067" lon="8.65317">
        <ele>556</ele>
        <time>2021-08-05T09:37:13.448Z</time>
      </trkpt>
      <trkpt lat="46.99067" lon="8.65318">
        <ele>556</ele>
        <time>2021-08-05T09:37:14.449Z</time>
      </trkpt>
      <trkpt lat="46.99068" lon="8.6532">
        <ele>556</ele>
        <time>2021-08-05T09:37:15.449Z</time>
      </trkpt>
      <trkpt lat="46.99068" lon="8.65322">
        <ele>556</ele>
        <time>2021-08-05T09:37:16.448Z</time>
      </trkpt>
      <trkpt lat="46.99069" lon="8.65323">
        <ele>556</ele>
        <time>2021-08-05T09:37:17.449Z</time>
      </trkpt>
      <trkpt lat="46.9907" lon="8.65325">
        <ele>556</ele>
        <time>2021-08-05T09:37:18.448Z</time>
      </trkpt>
      <trkpt lat="46.99071" lon="8.65326">
        <ele>556</ele>
        <time>2021-08-05T09:37:19.449Z</time>
      </trkpt>
      <trkpt lat="46.99071" lon="8.65328">
        <ele>556</ele>
        <time>2021-08-05T09:37:20.449Z</time>
      </trkpt>
      <trkpt lat="46.99073" lon="8.6533">
        <ele>556</ele>
        <time>2021-08-05T09:37:21.449Z</time>
      </trkpt>
      <trkpt lat="46.99073" lon="8.65332">
        <ele>556</ele>
        <time>2021-08-05T09:37:22.449Z</time>
      </trkpt>
      <trkpt lat="46.99072" lon="8.65335">
        <ele>556</ele>
        <time>2021-08-05T09:37:23.449Z</time>
      </trkpt>
      <trkpt lat="46.99072" lon="8.65337">
        <ele>557</ele>
        <time>2021-08-05T09:37:24.448Z</time>
      </trkpt>
      <trkpt lat="46.99071" lon="8.65338">
        <ele>557</ele>
        <time>2021-08-05T09:37:25.449Z</time>
      </trkpt>
      <trkpt lat="46.99072" lon="8.6534">
        <ele>557</ele>
        <time>2021-08-05T09:37:26.448Z</time>
      </trkpt>
      <trkpt lat="46.99071" lon="8.65341">
        <ele>557</ele>
        <time>2021-08-05T09:37:27.448Z</time>
      </trkpt>
      <trkpt lat="46.99071" lon="8.65343">
        <ele>556</ele>
        <time>2021-08-05T09:37:28.448Z</time>
      </trkpt>
      <trkpt lat="46.9907" lon="8.65344">
        <ele>556</ele>
        <time>2021-08-05T09:37:29.448Z</time>
      </trkpt>
      <trkpt lat="46.9907" lon="8.65345">
        <ele>556</ele>
        <time>2021-08-05T09:37:30.448Z</time>
      </trkpt>
      <trkpt lat="46.9907" lon="8.65347">
        <ele>556</ele>
        <time>2021-08-05T09:37:31.448Z</time>
      </trkpt>
      <trkpt lat="46.9907" lon="8.65349">
        <ele>557</ele>
        <time>2021-08-05T09:37:32.448Z</time>
      </trkpt>
      <trkpt lat="46.9907" lon="8.6535">
        <ele>557</ele>
        <time>2021-08-05T09:37:33.448Z</time>
      </trkpt>
      <trkpt lat="46.99069" lon="8.65352">
        <ele>556</ele>
        <time>2021-08-05T09:37:34.448Z</time>
      </trkpt>
      <trkpt lat="46.99069" lon="8.65353">
        <ele>556</ele>
        <time>2021-08-05T09:37:35.448Z</time>
      </trkpt>
      <trkpt lat="46.99069" lon="8.65355">
        <ele>556</ele>
        <time>2021-08-05T09:37:36.448Z</time>
      </trkpt>
      <trkpt lat="46.99069" lon="8.65356">
        <ele>555</ele>
        <time>2021-08-05T09:37:37.448Z</time>
      </trkpt>
      <trkpt lat="46.99069" lon="8.65358">
        <ele>555</ele>
        <time>2021-08-05T09:37:38.448Z</time>
      </trkpt>
      <trkpt lat="46.99069" lon="8.6536">
        <ele>554</ele>
        <time>2021-08-05T09:37:39.448Z</time>
      </trkpt>
      <trkpt lat="46.99068" lon="8.65361">
        <ele>554</ele>
        <time>2021-08-05T09:37:40.448Z</time>
      </trkpt>
      <trkpt lat="46.99068" lon="8.65363">
        <ele>553</ele>
        <time>2021-08-05T09:37:41.449Z</time>
      </trkpt>
      <trkpt lat="46.99067" lon="8.65364">
        <ele>553</ele>
        <time>2021-08-05T09:37:42.448Z</time>
      </trkpt>
      <trkpt lat="46.99067" lon="8.65365">
        <ele>553</ele>
        <time>2021-08-05T09:37:43.448Z</time>
      </trkpt>
      <trkpt lat="46.99066" lon="8.65366">
        <ele>552</ele>
        <time>2021-08-05T09:37:44.448Z</time>
      </trkpt>
      <trkpt lat="46.99066" lon="8.65367">
        <ele>552</ele>
        <time>2021-08-05T09:37:45.448Z</time>
      </trkpt>
      <trkpt lat="46.99065" lon="8.65369">
        <ele>552</ele>
        <time>2021-08-05T09:37:46.448Z</time>
      </trkpt>
      <trkpt lat="46.99065" lon="8.65371">
        <ele>551</ele>
        <time>2021-08-05T09:37:47.448Z</time>
      </trkpt>
      <trkpt lat="46.99064" lon="8.65373">
        <ele>551</ele>
        <time>2021-08-05T09:37:48.448Z</time>
      </trkpt>
      <trkpt lat="46.99064" lon="8.65374">
        <ele>550</ele>
        <time>2021-08-05T09:37:49.449Z</time>
      </trkpt>
      <trkpt lat="46.99063" lon="8.65376">
        <ele>550</ele>
        <time>2021-08-05T09:37:50.448Z</time>
      </trkpt>
      <trkpt lat="46.99062" lon="8.65378">
        <ele>550</ele>
        <time>2021-08-05T09:37:51.448Z</time>
      </trkpt>
      <trkpt lat="46.99062" lon="8.65379">
        <ele>549</ele>
        <time>2021-08-05T09:37:52.448Z</time>
      </trkpt>
      <trkpt lat="46.99062" lon="8.65379">
        <ele>549</ele>
        <time>2021-08-05T09:37:53.448Z</time>
      </trkpt>
      <trkpt lat="46.99062" lon="8.6538">
        <ele>548</ele>
        <time>2021-08-05T09:37:54.449Z</time>
      </trkpt>
      <trkpt lat="46.99061" lon="8.65381">
        <ele>548</ele>
        <time>2021-08-05T09:37:55.448Z</time>
      </trkpt>
      <trkpt lat="46.9906" lon="8.65383">
        <ele>548</ele>
        <time>2021-08-05T09:37:56.448Z</time>
      </trkpt>
      <trkpt lat="46.9906" lon="8.65384">
        <ele>548</ele>
        <time>2021-08-05T09:37:57.449Z</time>
      </trkpt>
      <trkpt lat="46.99059" lon="8.65386">
        <ele>548</ele>
        <time>2021-08-05T09:37:58.449Z</time>
      </trkpt>
      <trkpt lat="46.9906" lon="8.65387">
        <ele>548</ele>
        <time>2021-08-05T09:37:59.449Z</time>
      </trkpt>
      <trkpt lat="46.9906" lon="8.65388">
        <ele>548</ele>
        <time>2021-08-05T09:38:00.449Z</time>
      </trkpt>
      <trkpt lat="46.99059" lon="8.65389">
        <ele>548</ele>
        <time>2021-08-05T09:38:01.449Z</time>
      </trkpt>
      <trkpt lat="46.99059" lon="8.6539">
        <ele>548</ele>
        <time>2021-08-05T09:38:02.449Z</time>
      </trkpt>
      <trkpt lat="46.99059" lon="8.65391">
        <ele>549</ele>
        <time>2021-08-05T09:38:03.448Z</time>
      </trkpt>
      <trkpt lat="46.99059" lon="8.65391">
        <ele>549</ele>
        <time>2021-08-05T09:38:04.448Z</time>
      </trkpt>
      <trkpt lat="46.9906" lon="8.65392">
        <ele>550</ele>
        <time>2021-08-05T09:38:05.449Z</time>
      </trkpt>
      <trkpt lat="46.99059" lon="8.65392">
        <ele>551</ele>
        <time>2021-08-05T09:38:06.449Z</time>
      </trkpt>
      <trkpt lat="46.99058" lon="8.65393">
        <ele>552</ele>
        <time>2021-08-05T09:38:07.449Z</time>
      </trkpt>
      <trkpt lat="46.99057" lon="8.65394">
        <ele>553</ele>
        <time>2021-08-05T09:38:08.448Z</time>
      </trkpt>
      <trkpt lat="46.99057" lon="8.65396">
        <ele>554</ele>
        <time>2021-08-05T09:38:09.449Z</time>
      </trkpt>
      <trkpt lat="46.99057" lon="8.65397">
        <ele>555</ele>
        <time>2021-08-05T09:38:10.449Z</time>
      </trkpt>
      <trkpt lat="46.99057" lon="8.65399">
        <ele>556</ele>
        <time>2021-08-05T09:38:11.449Z</time>
      </trkpt>
      <trkpt lat="46.99056" lon="8.654">
        <ele>556</ele>
        <time>2021-08-05T09:38:12.449Z</time>
      </trkpt>
      <trkpt lat="46.99055" lon="8.65401">
        <ele>557</ele>
        <time>2021-08-05T09:38:13.448Z</time>
      </trkpt>
      <trkpt lat="46.99055" lon="8.65403">
        <ele>557</ele>
        <time>2021-08-05T09:38:14.449Z</time>
      </trkpt>
      <trkpt lat="46.99055" lon="8.65403">
        <ele>558</ele>
        <time>2021-08-05T09:38:15.448Z</time>
      </trkpt>
      <trkpt lat="46.99055" lon="8.65405">
        <ele>558</ele>
        <time>2021-08-05T09:38:16.449Z</time>
      </trkpt>
      <trkpt lat="46.99053" lon="8.65406">
        <ele>558</ele>
        <time>2021-08-05T09:38:17.449Z</time>
      </trkpt>
      <trkpt lat="46.99053" lon="8.65407">
        <ele>559</ele>
        <time>2021-08-05T09:38:18.448Z</time>
      </trkpt>
      <trkpt lat="46.99052" lon="8.65408">
        <ele>559</ele>
        <time>2021-08-05T09:38:19.449Z</time>
      </trkpt>
      <trkpt lat="46.9905" lon="8.6541">
        <ele>559</ele>
        <time>2021-08-05T09:38:20.448Z</time>
      </trkpt>
      <trkpt lat="46.99049" lon="8.65411">
        <ele>560</ele>
        <time>2021-08-05T09:38:21.448Z</time>
      </trkpt>
      <trkpt lat="46.99047" lon="8.65412">
        <ele>560</ele>
        <time>2021-08-05T09:38:22.449Z</time>
      </trkpt>
      <trkpt lat="46.99045" lon="8.65413">
        <ele>560</ele>
        <time>2021-08-05T09:38:23.449Z</time>
      </trkpt>
      <trkpt lat="46.99045" lon="8.65415">
        <ele>561</ele>
        <time>2021-08-05T09:38:24.449Z</time>
      </trkpt>
      <trkpt lat="46.99045" lon="8.65415">
        <ele>561</ele>
        <time>2021-08-05T09:38:25.449Z</time>
      </trkpt>
      <trkpt lat="46.99045" lon="8.65416">
        <ele>561</ele>
        <time>2021-08-05T09:38:26.448Z</time>
      </trkpt>
      <trkpt lat="46.99044" lon="8.65417">
        <ele>562</ele>
        <time>2021-08-05T09:38:27.449Z</time>
      </trkpt>
      <trkpt lat="46.99044" lon="8.65418">
        <ele>562</ele>
        <time>2021-08-05T09:38:28.449Z</time>
      </trkpt>
      <trkpt lat="46.99043" lon="8.65419">
        <ele>562</ele>
        <time>2021-08-05T09:38:29.449Z</time>
      </trkpt>
      <trkpt lat="46.99043" lon="8.6542">
        <ele>562</ele>
        <time>2021-08-05T09:38:30.448Z</time>
      </trkpt>
      <trkpt lat="46.99042" lon="8.65421">
        <ele>562</ele>
        <time>2021-08-05T09:38:31.449Z</time>
      </trkpt>
      <trkpt lat="46.99043" lon="8.65422">
        <ele>562</ele>
        <time>2021-08-05T09:38:32.449Z</time>
      </trkpt>
      <trkpt lat="46.99043" lon="8.65423">
        <ele>562</ele>
        <time>2021-08-05T09:38:33.449Z</time>
      </trkpt>
      <trkpt lat="46.99043" lon="8.65424">
        <ele>562</ele>
        <time>2021-08-05T09:38:34.449Z</time>
      </trkpt>
      <trkpt lat="46.99043" lon="8.65426">
        <ele>561</ele>
        <time>2021-08-05T09:38:35.448Z</time>
      </trkpt>
      <trkpt lat="46.99043" lon="8.65428">
        <ele>561</ele>
        <time>2021-08-05T09:38:36.449Z</time>
      </trkpt>
      <trkpt lat="46.99045" lon="8.65429">
        <ele>561</ele>
        <time>2021-08-05T09:38:37.449Z</time>
      </trkpt>
      <trkpt lat="46.99047" lon="8.6543">
        <ele>561</ele>
        <time>2021-08-05T09:38:38.449Z</time>
      </trkpt>
      <trkpt lat="46.99048" lon="8.65431">
        <ele>561</ele>
        <time>2021-08-05T09:38:39.449Z</time>
      </trkpt>
      <trkpt lat="46.99049" lon="8.65431">
        <ele>561</ele>
        <time>2021-08-05T09:38:40.449Z</time>
      </trkpt>
      <trkpt lat="46.9905" lon="8.65432">
        <ele>561</ele>
        <time>2021-08-05T09:38:41.449Z</time>
      </trkpt>
      <trkpt lat="46.99051" lon="8.65432">
        <ele>561</ele>
        <time>2021-08-05T09:38:42.449Z</time>
      </trkpt>
      <trkpt lat="46.99052" lon="8.65432">
        <ele>561</ele>
        <time>2021-08-05T09:38:43.449Z</time>
      </trkpt>
      <trkpt lat="46.99052" lon="8.65433">
        <ele>561</ele>
        <time>2021-08-05T09:38:44.449Z</time>
      </trkpt>
      <trkpt lat="46.99053" lon="8.65433">
        <ele>561</ele>
        <time>2021-08-05T09:38:45.448Z</time>
      </trkpt>
      <trkpt lat="46.99053" lon="8.65433">
        <ele>561</ele>
        <time>2021-08-05T09:38:46.449Z</time>
      </trkpt>
      <trkpt lat="46.99053" lon="8.65433">
        <ele>561</ele>
        <time>2021-08-05T09:38:47.448Z</time>
      </trkpt>
      <trkpt lat="46.99052" lon="8.65433">
        <ele>561</ele>
        <time>2021-08-05T09:38:48.449Z</time>
      </trkpt>
      <trkpt lat="46.99052" lon="8.65433">
        <ele>561</ele>
        <time>2021-08-05T09:38:49.448Z</time>
      </trkpt>
      <trkpt lat="46.99053" lon="8.65434">
        <ele>561</ele>
        <time>2021-08-05T09:38:50.448Z</time>
      </trkpt>
      <trkpt lat="46.99053" lon="8.65435">
        <ele>561</ele>
        <time>2021-08-05T09:38:51.449Z</time>
      </trkpt>
      <trkpt lat="46.99054" lon="8.65436">
        <ele>561</ele>
        <time>2021-08-05T09:38:52.448Z</time>
      </trkpt>
      <trkpt lat="46.99055" lon="8.65438">
        <ele>561</ele>
        <time>2021-08-05T09:38:53.448Z</time>
      </trkpt>
      <trkpt lat="46.99055" lon="8.65439">
        <ele>562</ele>
        <time>2021-08-05T09:38:54.449Z</time>
      </trkpt>
      <trkpt lat="46.99056" lon="8.6544">
        <ele>562</ele>
        <time>2021-08-05T09:38:55.449Z</time>
      </trkpt>
      <trkpt lat="46.99057" lon="8.65441">
        <ele>562</ele>
        <time>2021-08-05T09:38:56.448Z</time>
      </trkpt>
      <trkpt lat="46.99059" lon="8.65441">
        <ele>562</ele>
        <time>2021-08-05T09:38:57.449Z</time>
      </trkpt>
      <trkpt lat="46.9906" lon="8.65441">
        <ele>561</ele>
        <time>2021-08-05T09:38:58.448Z</time>
      </trkpt>
      <trkpt lat="46.99061" lon="8.65442">
        <ele>561</ele>
        <time>2021-08-05T09:38:59.449Z</time>
      </trkpt>
      <trkpt lat="46.99062" lon="8.65443">
        <ele>561</ele>
        <time>2021-08-05T09:39:00.448Z</time>
      </trkpt>
      <trkpt lat="46.99063" lon="8.65444">
        <ele>561</ele>
        <time>2021-08-05T09:39:01.449Z</time>
      </trkpt>
      <trkpt lat="46.99065" lon="8.65445">
        <ele>561</ele>
        <time>2021-08-05T09:39:02.448Z</time>
      </trkpt>
      <trkpt lat="46.99066" lon="8.65446">
        <ele>561</ele>
        <time>2021-08-05T09:39:03.449Z</time>
      </trkpt>
      <trkpt lat="46.99066" lon="8.65448">
        <ele>561</ele>
        <time>2021-08-05T09:39:04.449Z</time>
      </trkpt>
      <trkpt lat="46.99066" lon="8.6545">
        <ele>561</ele>
        <time>2021-08-05T09:39:05.449Z</time>
      </trkpt>
      <trkpt lat="46.99066" lon="8.65452">
        <ele>560</ele>
        <time>2021-08-05T09:39:06.448Z</time>
      </trkpt>
      <trkpt lat="46.99066" lon="8.65454">
        <ele>560</ele>
        <time>2021-08-05T09:39:07.448Z</time>
      </trkpt>
      <trkpt lat="46.99065" lon="8.65456">
        <ele>560</ele>
        <time>2021-08-05T09:39:08.449Z</time>
      </trkpt>
      <trkpt lat="46.99065" lon="8.65457">
        <ele>559</ele>
        <time>2021-08-05T09:39:09.449Z</time>
      </trkpt>
      <trkpt lat="46.99065" lon="8.65459">
        <ele>558</ele>
        <time>2021-08-05T09:39:10.449Z</time>
      </trkpt>
      <trkpt lat="46.99065" lon="8.6546">
        <ele>558</ele>
        <time>2021-08-05T09:39:11.449Z</time>
      </trkpt>
      <trkpt lat="46.99066" lon="8.65462">
        <ele>557</ele>
        <time>2021-08-05T09:39:12.449Z</time>
      </trkpt>
      <trkpt lat="46.99066" lon="8.65463">
        <ele>557</ele>
        <time>2021-08-05T09:39:13.448Z</time>
      </trkpt>
      <trkpt lat="46.99067" lon="8.65464">
        <ele>556</ele>
        <time>2021-08-05T09:39:14.449Z</time>
      </trkpt>
      <trkpt lat="46.99068" lon="8.65466">
        <ele>556</ele>
        <time>2021-08-05T09:39:15.449Z</time>
      </trkpt>
      <trkpt lat="46.99069" lon="8.65467">
        <ele>555</ele>
        <time>2021-08-05T09:39:16.449Z</time>
      </trkpt>
      <trkpt lat="46.99069" lon="8.65469">
        <ele>554</ele>
        <time>2021-08-05T09:39:17.448Z</time>
      </trkpt>
      <trkpt lat="46.99069" lon="8.6547">
        <ele>554</ele>
        <time>2021-08-05T09:39:18.449Z</time>
      </trkpt>
      <trkpt lat="46.99069" lon="8.65472">
        <ele>553</ele>
        <time>2021-08-05T09:39:19.449Z</time>
      </trkpt>
      <trkpt lat="46.99069" lon="8.65474">
        <ele>552</ele>
        <time>2021-08-05T09:39:20.448Z</time>
      </trkpt>
      <trkpt lat="46.99069" lon="8.65475">
        <ele>551</ele>
        <time>2021-08-05T09:39:21.449Z</time>
      </trkpt>
      <trkpt lat="46.99068" lon="8.65478">
        <ele>551</ele>
        <time>2021-08-05T09:39:22.449Z</time>
      </trkpt>
      <trkpt lat="46.99067" lon="8.65479">
        <ele>550</ele>
        <time>2021-08-05T09:39:23.449Z</time>
      </trkpt>
      <trkpt lat="46.99067" lon="8.65481">
        <ele>550</ele>
        <time>2021-08-05T09:39:24.448Z</time>
      </trkpt>
      <trkpt lat="46.99068" lon="8.65483">
        <ele>550</ele>
        <time>2021-08-05T09:39:25.448Z</time>
      </trkpt>
      <trkpt lat="46.99068" lon="8.65484">
        <ele>550</ele>
        <time>2021-08-05T09:39:26.449Z</time>
      </trkpt>
      <trkpt lat="46.99069" lon="8.65487">
        <ele>549</ele>
        <time>2021-08-05T09:39:27.449Z</time>
      </trkpt>
      <trkpt lat="46.9907" lon="8.65489">
        <ele>549</ele>
        <time>2021-08-05T09:39:28.448Z</time>
      </trkpt>
      <trkpt lat="46.9907" lon="8.65492">
        <ele>549</ele>
        <time>2021-08-05T09:39:29.449Z</time>
      </trkpt>
      <trkpt lat="46.99071" lon="8.65494">
        <ele>549</ele>
        <time>2021-08-05T09:39:30.448Z</time>
      </trkpt>
      <trkpt lat="46.99071" lon="8.65496">
        <ele>549</ele>
        <time>2021-08-05T09:39:31.449Z</time>
      </trkpt>
      <trkpt lat="46.99071" lon="8.65497">
        <ele>549</ele>
        <time>2021-08-05T09:39:32.449Z</time>
      </trkpt>
      <trkpt lat="46.99072" lon="8.65499">
        <ele>549</ele>
        <time>2021-08-05T09:39:33.448Z</time>
      </trkpt>
      <trkpt lat="46.99072" lon="8.65501">
        <ele>549</ele>
        <time>2021-08-05T09:39:34.449Z</time>
      </trkpt>
      <trkpt lat="46.99072" lon="8.65503">
        <ele>549</ele>
        <time>2021-08-05T09:39:35.449Z</time>
      </trkpt>
      <trkpt lat="46.99072" lon="8.65505">
        <ele>549</ele>
        <time>2021-08-05T09:39:36.449Z</time>
      </trkpt>
      <trkpt lat="46.99072" lon="8.65507">
        <ele>549</ele>
        <time>2021-08-05T09:39:37.449Z</time>
      </trkpt>
      <trkpt lat="46.99072" lon="8.6551">
        <ele>549</ele>
        <time>2021-08-05T09:39:38.448Z</time>
      </trkpt>
      <trkpt lat="46.99071" lon="8.65513">
        <ele>549</ele>
        <time>2021-08-05T09:39:39.449Z</time>
      </trkpt>
      <trkpt lat="46.9907" lon="8.65515">
        <ele>549</ele>
        <time>2021-08-05T09:39:40.448Z</time>
      </trkpt>
      <trkpt lat="46.99071" lon="8.65517">
        <ele>549</ele>
        <time>2021-08-05T09:39:41.448Z</time>
      </trkpt>
      <trkpt lat="46.99071" lon="8.65519">
        <ele>549</ele>
        <time>2021-08-05T09:39:42.449Z</time>
      </trkpt>
      <trkpt lat="46.99071" lon="8.65521">
        <ele>549</ele>
        <time>2021-08-05T09:39:43.449Z</time>
      </trkpt>
      <trkpt lat="46.99071" lon="8.65522">
        <ele>549</ele>
        <time>2021-08-05T09:39:44.449Z</time>
      </trkpt>
      <trkpt lat="46.99072" lon="8.65524">
        <ele>550</ele>
        <time>2021-08-05T09:39:45.449Z</time>
      </trkpt>
      <trkpt lat="46.99073" lon="8.65526">
        <ele>550</ele>
        <time>2021-08-05T09:39:46.449Z</time>
      </trkpt>
      <trkpt lat="46.99073" lon="8.65528">
        <ele>550</ele>
        <time>2021-08-05T09:39:47.449Z</time>
      </trkpt>
      <trkpt lat="46.99073" lon="8.6553">
        <ele>551</ele>
        <time>2021-08-05T09:39:48.448Z</time>
      </trkpt>
      <trkpt lat="46.99072" lon="8.65532">
        <ele>551</ele>
        <time>2021-08-05T09:39:49.449Z</time>
      </trkpt>
      <trkpt lat="46.99072" lon="8.65535">
        <ele>551</ele>
        <time>2021-08-05T09:39:50.448Z</time>
      </trkpt>
      <trkpt lat="46.99073" lon="8.65537">
        <ele>552</ele>
        <time>2021-08-05T09:39:51.449Z</time>
      </trkpt>
      <trkpt lat="46.99073" lon="8.65539">
        <ele>552</ele>
        <time>2021-08-05T09:39:52.448Z</time>
      </trkpt>
      <trkpt lat="46.99073" lon="8.65541">
        <ele>552</ele>
        <time>2021-08-05T09:39:53.448Z</time>
      </trkpt>
      <trkpt lat="46.99074" lon="8.65543">
        <ele>552</ele>
        <time>2021-08-05T09:39:54.449Z</time>
      </trkpt>
      <trkpt lat="46.99075" lon="8.65545">
        <ele>552</ele>
        <time>2021-08-05T09:39:55.449Z</time>
      </trkpt>
      <trkpt lat="46.99076" lon="8.65547">
        <ele>553</ele>
        <time>2021-08-05T09:39:56.449Z</time>
      </trkpt>
      <trkpt lat="46.99075" lon="8.65548">
        <ele>553</ele>
        <time>2021-08-05T09:39:57.449Z</time>
      </trkpt>
      <trkpt lat="46.99074" lon="8.6555">
        <ele>553</ele>
        <time>2021-08-05T09:39:58.449Z</time>
      </trkpt>
      <trkpt lat="46.99073" lon="8.65552">
        <ele>552</ele>
        <time>2021-08-05T09:39:59.449Z</time>
      </trkpt>
      <trkpt lat="46.99073" lon="8.65554">
        <ele>552</ele>
        <time>2021-08-05T09:40:00.448Z</time>
      </trkpt>
      <trkpt lat="46.99072" lon="8.65556">
        <ele>552</ele>
        <time>2021-08-05T09:40:01.449Z</time>
      </trkpt>
      <trkpt lat="46.99071" lon="8.65558">
        <ele>551</ele>
        <time>2021-08-05T09:40:02.448Z</time>
      </trkpt>
      <trkpt lat="46.99071" lon="8.6556">
        <ele>551</ele>
        <time>2021-08-05T09:40:03.449Z</time>
      </trkpt>
      <trkpt lat="46.99071" lon="8.65561">
        <ele>551</ele>
        <time>2021-08-05T09:40:04.449Z</time>
      </trkpt>
      <trkpt lat="46.99071" lon="8.65561">
        <ele>551</ele>
        <time>2021-08-05T09:40:05.449Z</time>
      </trkpt>
      <trkpt lat="46.99071" lon="8.65563">
        <ele>551</ele>
        <time>2021-08-05T09:40:06.449Z</time>
      </trkpt>
      <trkpt lat="46.9907" lon="8.65564">
        <ele>551</ele>
        <time>2021-08-05T09:40:07.448Z</time>
      </trkpt>
      <trkpt lat="46.9907" lon="8.65565">
        <ele>550</ele>
        <time>2021-08-05T09:40:08.449Z</time>
      </trkpt>
      <trkpt lat="46.9907" lon="8.65567">
        <ele>550</ele>
        <time>2021-08-05T09:40:09.448Z</time>
      </trkpt>
      <trkpt lat="46.9907" lon="8.65568">
        <ele>550</ele>
        <time>2021-08-05T09:40:10.449Z</time>
      </trkpt>
      <trkpt lat="46.99069" lon="8.65569">
        <ele>549</ele>
        <time>2021-08-05T09:40:11.448Z</time>
      </trkpt>
      <trkpt lat="46.99069" lon="8.65569">
        <ele>549</ele>
        <time>2021-08-05T09:40:12.449Z</time>
      </trkpt>
      <trkpt lat="46.99069" lon="8.65569">
        <ele>549</ele>
        <time>2021-08-05T09:40:13.448Z</time>
      </trkpt>
      <trkpt lat="46.99068" lon="8.6557">
        <ele>550</ele>
        <time>2021-08-05T09:40:14.449Z</time>
      </trkpt>
      <trkpt lat="46.99068" lon="8.6557">
        <ele>550</ele>
        <time>2021-08-05T09:40:15.449Z</time>
      </trkpt>
      <trkpt lat="46.99068" lon="8.65571">
        <ele>550</ele>
        <time>2021-08-05T09:40:16.448Z</time>
      </trkpt>
      <trkpt lat="46.99067" lon="8.65572">
        <ele>550</ele>
        <time>2021-08-05T09:40:17.449Z</time>
      </trkpt>
      <trkpt lat="46.99067" lon="8.65573">
        <ele>550</ele>
        <time>2021-08-05T09:40:18.448Z</time>
      </trkpt>
      <trkpt lat="46.99066" lon="8.65574">
        <ele>550</ele>
        <time>2021-08-05T09:40:19.449Z</time>
      </trkpt>
      <trkpt lat="46.99065" lon="8.65575">
        <ele>550</ele>
        <time>2021-08-05T09:40:20.448Z</time>
      </trkpt>
      <trkpt lat="46.99065" lon="8.65575">
        <ele>550</ele>
        <time>2021-08-05T09:40:21.449Z</time>
      </trkpt>
      <trkpt lat="46.99064" lon="8.65575">
        <ele>550</ele>
        <time>2021-08-05T09:40:22.449Z</time>
      </trkpt>
      <trkpt lat="46.99063" lon="8.65576">
        <ele>550</ele>
        <time>2021-08-05T09:40:23.449Z</time>
      </trkpt>
      <trkpt lat="46.99062" lon="8.65576">
        <ele>550</ele>
        <time>2021-08-05T09:40:24.449Z</time>
      </trkpt>
      <trkpt lat="46.99061" lon="8.65577">
        <ele>550</ele>
        <time>2021-08-05T09:40:25.449Z</time>
      </trkpt>
      <trkpt lat="46.99059" lon="8.65577">
        <ele>550</ele>
        <time>2021-08-05T09:40:26.448Z</time>
      </trkpt>
      <trkpt lat="46.99058" lon="8.65577">
        <ele>550</ele>
        <time>2021-08-05T09:40:27.449Z</time>
      </trkpt>
      <trkpt lat="46.99058" lon="8.65578">
        <ele>550</ele>
        <time>2021-08-05T09:40:28.449Z</time>
      </trkpt>
      <trkpt lat="46.99058" lon="8.65578">
        <ele>550</ele>
        <time>2021-08-05T09:40:29.449Z</time>
      </trkpt>
      <trkpt lat="46.99058" lon="8.65577">
        <ele>550</ele>
        <time>2021-08-05T09:40:30.449Z</time>
      </trkpt>
      <trkpt lat="46.99058" lon="8.65576">
        <ele>550</ele>
        <time>2021-08-05T09:40:31.448Z</time>
      </trkpt>
      <trkpt lat="46.99057" lon="8.65576">
        <ele>550</ele>
        <time>2021-08-05T09:40:32.448Z</time>
      </trkpt>
      <trkpt lat="46.99056" lon="8.65576">
        <ele>550</ele>
        <time>2021-08-05T09:40:33.448Z</time>
      </trkpt>
      <trkpt lat="46.99055" lon="8.65578">
        <ele>550</ele>
        <time>2021-08-05T09:40:34.448Z</time>
      </trkpt>
      <trkpt lat="46.99054" lon="8.65578">
        <ele>550</ele>
        <time>2021-08-05T09:40:35.448Z</time>
      </trkpt>
      <trkpt lat="46.99054" lon="8.65579">
        <ele>550</ele>
        <time>2021-08-05T09:40:36.448Z</time>
      </trkpt>
      <trkpt lat="46.99054" lon="8.6558">
        <ele>551</ele>
        <time>2021-08-05T09:40:37.448Z</time>
      </trkpt>
      <trkpt lat="46.99053" lon="8.6558">
        <ele>551</ele>
        <time>2021-08-05T09:40:38.448Z</time>
      </trkpt>
      <trkpt lat="46.99052" lon="8.6558">
        <ele>552</ele>
        <time>2021-08-05T09:40:39.448Z</time>
      </trkpt>
      <trkpt lat="46.99051" lon="8.6558">
        <ele>552</ele>
        <time>2021-08-05T09:40:40.448Z</time>
      </trkpt>
      <trkpt lat="46.9905" lon="8.65581">
        <ele>552</ele>
        <time>2021-08-05T09:40:41.448Z</time>
      </trkpt>
      <trkpt lat="46.99049" lon="8.65581">
        <ele>553</ele>
        <time>2021-08-05T09:40:42.448Z</time>
      </trkpt>
      <trkpt lat="46.99047" lon="8.65581">
        <ele>553</ele>
        <time>2021-08-05T09:40:43.448Z</time>
      </trkpt>
      <trkpt lat="46.99046" lon="8.65582">
        <ele>553</ele>
        <time>2021-08-05T09:40:44.448Z</time>
      </trkpt>
      <trkpt lat="46.99044" lon="8.65583">
        <ele>553</ele>
        <time>2021-08-05T09:40:45.448Z</time>
      </trkpt>
      <trkpt lat="46.99042" lon="8.65583">
        <ele>553</ele>
        <time>2021-08-05T09:40:46.448Z</time>
      </trkpt>
      <trkpt lat="46.99041" lon="8.65583">
        <ele>553</ele>
        <time>2021-08-05T09:40:47.448Z</time>
      </trkpt>
      <trkpt lat="46.9904" lon="8.65584">
        <ele>554</ele>
        <time>2021-08-05T09:40:48.448Z</time>
      </trkpt>
      <trkpt lat="46.99039" lon="8.65585">
        <ele>554</ele>
        <time>2021-08-05T09:40:49.448Z</time>
      </trkpt>
      <trkpt lat="46.99039" lon="8.65585">
        <ele>555</ele>
        <time>2021-08-05T09:40:50.448Z</time>
      </trkpt>
      <trkpt lat="46.99039" lon="8.65586">
        <ele>556</ele>
        <time>2021-08-05T09:40:51.448Z</time>
      </trkpt>
      <trkpt lat="46.99039" lon="8.65587">
        <ele>557</ele>
        <time>2021-08-05T09:40:52.448Z</time>
      </trkpt>
      <trkpt lat="46.99038" lon="8.65587">
        <ele>558</ele>
        <time>2021-08-05T09:40:53.448Z</time>
      </trkpt>
      <trkpt lat="46.99037" lon="8.65588">
        <ele>558</ele>
        <time>2021-08-05T09:40:54.448Z</time>
      </trkpt>
      <trkpt lat="46.99036" lon="8.65588">
        <ele>559</ele>
        <time>2021-08-05T09:40:55.448Z</time>
      </trkpt>
      <trkpt lat="46.99035" lon="8.65589">
        <ele>560</ele>
        <time>2021-08-05T09:40:56.448Z</time>
      </trkpt>
      <trkpt lat="46.99034" lon="8.65591">
        <ele>560</ele>
        <time>2021-08-05T09:40:57.448Z</time>
      </trkpt>
      <trkpt lat="46.99033" lon="8.65592">
        <ele>561</ele>
        <time>2021-08-05T09:40:58.448Z</time>
      </trkpt>
      <trkpt lat="46.99033" lon="8.65593">
        <ele>561</ele>
        <time>2021-08-05T09:40:59.448Z</time>
      </trkpt>
      <trkpt lat="46.99032" lon="8.65594">
        <ele>562</ele>
        <time>2021-08-05T09:41:00.448Z</time>
      </trkpt>
      <trkpt lat="46.9903" lon="8.65595">
        <ele>562</ele>
        <time>2021-08-05T09:41:01.448Z</time>
      </trkpt>
      <trkpt lat="46.99028" lon="8.65596">
        <ele>563</ele>
        <time>2021-08-05T09:41:02.448Z</time>
      </trkpt>
      <trkpt lat="46.99025" lon="8.65598">
        <ele>563</ele>
        <time>2021-08-05T09:41:03.448Z</time>
      </trkpt>
      <trkpt lat="46.99022" lon="8.65599">
        <ele>564</ele>
        <time>2021-08-05T09:41:04.448Z</time>
      </trkpt>
      <trkpt lat="46.99021" lon="8.656">
        <ele>564</ele>
        <time>2021-08-05T09:41:05.448Z</time>
      </trkpt>
      <trkpt lat="46.99021" lon="8.65601">
        <ele>565</ele>
        <time>2021-08-05T09:41:06.448Z</time>
      </trkpt>
      <trkpt lat="46.9902" lon="8.65601">
        <ele>565</ele>
        <time>2021-08-05T09:41:07.448Z</time>
      </trkpt>
      <trkpt lat="46.9902" lon="8.65602">
        <ele>566</ele>
        <time>2021-08-05T09:41:08.448Z</time>
      </trkpt>
      <trkpt lat="46.9902" lon="8.65603">
        <ele>566</ele>
        <time>2021-08-05T09:41:09.448Z</time>
      </trkpt>
      <trkpt lat="46.99019" lon="8.65604">
        <ele>567</ele>
        <time>2021-08-05T09:41:10.448Z</time>
      </trkpt>
      <trkpt lat="46.99018" lon="8.65605">
        <ele>568</ele>
        <time>2021-08-05T09:41:11.448Z</time>
      </trkpt>
      <trkpt lat="46.99017" lon="8.65607">
        <ele>568</ele>
        <time>2021-08-05T09:41:12.448Z</time>
      </trkpt>
      <trkpt lat="46.99016" lon="8.65608">
        <ele>569</ele>
        <time>2021-08-05T09:41:13.448Z</time>
      </trkpt>
      <trkpt lat="46.99014" lon="8.6561">
        <ele>569</ele>
        <time>2021-08-05T09:41:14.448Z</time>
      </trkpt>
      <trkpt lat="46.99013" lon="8.65612">
        <ele>570</ele>
        <time>2021-08-05T09:41:15.448Z</time>
      </trkpt>
      <trkpt lat="46.99013" lon="8.65613">
        <ele>570</ele>
        <time>2021-08-05T09:41:16.448Z</time>
      </trkpt>
      <trkpt lat="46.99012" lon="8.65613">
        <ele>571</ele>
        <time>2021-08-05T09:41:17.448Z</time>
      </trkpt>
      <trkpt lat="46.99011" lon="8.65613">
        <ele>571</ele>
        <time>2021-08-05T09:41:18.448Z</time>
      </trkpt>
      <trkpt lat="46.9901" lon="8.65613">
        <ele>572</ele>
        <time>2021-08-05T09:41:19.448Z</time>
      </trkpt>
      <trkpt lat="46.99009" lon="8.65614">
        <ele>572</ele>
        <time>2021-08-05T09:41:20.448Z</time>
      </trkpt>
      <trkpt lat="46.99008" lon="8.65616">
        <ele>573</ele>
        <time>2021-08-05T09:41:21.448Z</time>
      </trkpt>
      <trkpt lat="46.99006" lon="8.65618">
        <ele>573</ele>
        <time>2021-08-05T09:41:22.448Z</time>
      </trkpt>
      <trkpt lat="46.99006" lon="8.65621">
        <ele>574</ele>
        <time>2021-08-05T09:41:23.448Z</time>
      </trkpt>
      <trkpt lat="46.99007" lon="8.65623">
        <ele>574</ele>
        <time>2021-08-05T09:41:24.448Z</time>
      </trkpt>
      <trkpt lat="46.99008" lon="8.65625">
        <ele>575</ele>
        <time>2021-08-05T09:41:25.448Z</time>
      </trkpt>
      <trkpt lat="46.99009" lon="8.65627">
        <ele>575</ele>
        <time>2021-08-05T09:41:26.448Z</time>
      </trkpt>
      <trkpt lat="46.99008" lon="8.65629">
        <ele>576</ele>
        <time>2021-08-05T09:41:27.448Z</time>
      </trkpt>
      <trkpt lat="46.99009" lon="8.65631">
        <ele>576</ele>
        <time>2021-08-05T09:41:28.448Z</time>
      </trkpt>
      <trkpt lat="46.99009" lon="8.65633">
        <ele>577</ele>
        <time>2021-08-05T09:41:29.448Z</time>
      </trkpt>
      <trkpt lat="46.99011" lon="8.65634">
        <ele>577</ele>
        <time>2021-08-05T09:41:30.448Z</time>
      </trkpt>
      <trkpt lat="46.99013" lon="8.65635">
        <ele>578</ele>
        <time>2021-08-05T09:41:31.448Z</time>
      </trkpt>
      <trkpt lat="46.99013" lon="8.65635">
        <ele>578</ele>
        <time>2021-08-05T09:41:32.448Z</time>
      </trkpt>
      <trkpt lat="46.99014" lon="8.65635">
        <ele>579</ele>
        <time>2021-08-05T09:41:33.448Z</time>
      </trkpt>
      <trkpt lat="46.99014" lon="8.65636">
        <ele>579</ele>
        <time>2021-08-05T09:41:34.448Z</time>
      </trkpt>
      <trkpt lat="46.99014" lon="8.65637">
        <ele>580</ele>
        <time>2021-08-05T09:41:35.448Z</time>
      </trkpt>
      <trkpt lat="46.99014" lon="8.65638">
        <ele>580</ele>
        <time>2021-08-05T09:41:36.448Z</time>
      </trkpt>
      <trkpt lat="46.99015" lon="8.6564">
        <ele>581</ele>
        <time>2021-08-05T09:41:37.448Z</time>
      </trkpt>
      <trkpt lat="46.99015" lon="8.6564">
        <ele>581</ele>
        <time>2021-08-05T09:41:38.448Z</time>
      </trkpt>
      <trkpt lat="46.99015" lon="8.65641">
        <ele>581</ele>
        <time>2021-08-05T09:41:39.448Z</time>
      </trkpt>
      <trkpt lat="46.99015" lon="8.65642">
        <ele>581</ele>
        <time>2021-08-05T09:41:40.448Z</time>
      </trkpt>
      <trkpt lat="46.99016" lon="8.65643">
        <ele>582</ele>
        <time>2021-08-05T09:41:41.448Z</time>
      </trkpt>
      <trkpt lat="46.99016" lon="8.65644">
        <ele>582</ele>
        <time>2021-08-05T09:41:42.448Z</time>
      </trkpt>
      <trkpt lat="46.99016" lon="8.65645">
        <ele>582</ele>
        <time>2021-08-05T09:41:43.448Z</time>
      </trkpt>
      <trkpt lat="46.99018" lon="8.65645">
        <ele>583</ele>
        <time>2021-08-05T09:41:44.448Z</time>
      </trkpt>
      <trkpt lat="46.99018" lon="8.65646">
        <ele>583</ele>
        <time>2021-08-05T09:41:45.448Z</time>
      </trkpt>
      <trkpt lat="46.99019" lon="8.65646">
        <ele>583</ele>
        <time>2021-08-05T09:41:46.448Z</time>
      </trkpt>
      <trkpt lat="46.9902" lon="8.65647">
        <ele>583</ele>
        <time>2021-08-05T09:41:47.448Z</time>
      </trkpt>
      <trkpt lat="46.99021" lon="8.65648">
        <ele>583</ele>
        <time>2021-08-05T09:41:48.448Z</time>
      </trkpt>
      <trkpt lat="46.99021" lon="8.65649">
        <ele>583</ele>
        <time>2021-08-05T09:41:49.448Z</time>
      </trkpt>
      <trkpt lat="46.99021" lon="8.6565">
        <ele>583</ele>
        <time>2021-08-05T09:41:50.448Z</time>
      </trkpt>
      <trkpt lat="46.99021" lon="8.65651">
        <ele>583</ele>
        <time>2021-08-05T09:41:51.448Z</time>
      </trkpt>
      <trkpt lat="46.99021" lon="8.65651">
        <ele>583</ele>
        <time>2021-08-05T09:41:52.448Z</time>
      </trkpt>
      <trkpt lat="46.99022" lon="8.65652">
        <ele>584</ele>
        <time>2021-08-05T09:41:53.448Z</time>
      </trkpt>
      <trkpt lat="46.99024" lon="8.65653">
        <ele>584</ele>
        <time>2021-08-05T09:41:54.448Z</time>
      </trkpt>
      <trkpt lat="46.99025" lon="8.65655">
        <ele>584</ele>
        <time>2021-08-05T09:41:55.448Z</time>
      </trkpt>
      <trkpt lat="46.99025" lon="8.65656">
        <ele>584</ele>
        <time>2021-08-05T09:41:56.448Z</time>
      </trkpt>
      <trkpt lat="46.99025" lon="8.65658">
        <ele>584</ele>
        <time>2021-08-05T09:41:57.448Z</time>
      </trkpt>
      <trkpt lat="46.99026" lon="8.65659">
        <ele>584</ele>
        <time>2021-08-05T09:41:58.448Z</time>
      </trkpt>
      <trkpt lat="46.99027" lon="8.65661">
        <ele>584</ele>
        <time>2021-08-05T09:41:59.448Z</time>
      </trkpt>
      <trkpt lat="46.99028" lon="8.65663">
        <ele>584</ele>
        <time>2021-08-05T09:42:00.448Z</time>
      </trkpt>
      <trkpt lat="46.99029" lon="8.65664">
        <ele>584</ele>
        <time>2021-08-05T09:42:01.448Z</time>
      </trkpt>
      <trkpt lat="46.9903" lon="8.65666">
        <ele>584</ele>
        <time>2021-08-05T09:42:02.448Z</time>
      </trkpt>
      <trkpt lat="46.99031" lon="8.65667">
        <ele>584</ele>
        <time>2021-08-05T09:42:03.448Z</time>
      </trkpt>
      <trkpt lat="46.99032" lon="8.65668">
        <ele>584</ele>
        <time>2021-08-05T09:42:04.448Z</time>
      </trkpt>
      <trkpt lat="46.99032" lon="8.6567">
        <ele>584</ele>
        <time>2021-08-05T09:42:05.448Z</time>
      </trkpt>
      <trkpt lat="46.99033" lon="8.65674">
        <ele>583</ele>
        <time>2021-08-05T09:42:06.448Z</time>
      </trkpt>
      <trkpt lat="46.99032" lon="8.65675">
        <ele>582</ele>
        <time>2021-08-05T09:42:07.448Z</time>
      </trkpt>
      <trkpt lat="46.99033" lon="8.65677">
        <ele>582</ele>
        <time>2021-08-05T09:42:08.448Z</time>
      </trkpt>
      <trkpt lat="46.99033" lon="8.65678">
        <ele>581</ele>
        <time>2021-08-05T09:42:09.448Z</time>
      </trkpt>
      <trkpt lat="46.99032" lon="8.65679">
        <ele>580</ele>
        <time>2021-08-05T09:42:10.448Z</time>
      </trkpt>
      <trkpt lat="46.99031" lon="8.65681">
        <ele>579</ele>
        <time>2021-08-05T09:42:11.448Z</time>
      </trkpt>
      <trkpt lat="46.99031" lon="8.65682">
        <ele>578</ele>
        <time>2021-08-05T09:42:12.448Z</time>
      </trkpt>
      <trkpt lat="46.99032" lon="8.65683">
        <ele>577</ele>
        <time>2021-08-05T09:42:13.448Z</time>
      </trkpt>
      <trkpt lat="46.99031" lon="8.65684">
        <ele>577</ele>
        <time>2021-08-05T09:42:14.448Z</time>
      </trkpt>
      <trkpt lat="46.9903" lon="8.65685">
        <ele>576</ele>
        <time>2021-08-05T09:42:15.448Z</time>
      </trkpt>
      <trkpt lat="46.9903" lon="8.65686">
        <ele>575</ele>
        <time>2021-08-05T09:42:16.448Z</time>
      </trkpt>
      <trkpt lat="46.99029" lon="8.65686">
        <ele>574</ele>
        <time>2021-08-05T09:42:17.448Z</time>
      </trkpt>
      <trkpt lat="46.99028" lon="8.65687">
        <ele>573</ele>
        <time>2021-08-05T09:42:18.448Z</time>
      </trkpt>
      <trkpt lat="46.99028" lon="8.65688">
        <ele>573</ele>
        <time>2021-08-05T09:42:19.448Z</time>
      </trkpt>
      <trkpt lat="46.99028" lon="8.65689">
        <ele>572</ele>
        <time>2021-08-05T09:42:20.448Z</time>
      </trkpt>
      <trkpt lat="46.99028" lon="8.65691">
        <ele>571</ele>
        <time>2021-08-05T09:42:21.448Z</time>
      </trkpt>
      <trkpt lat="46.99028" lon="8.65692">
        <ele>571</ele>
        <time>2021-08-05T09:42:22.448Z</time>
      </trkpt>
      <trkpt lat="46.99028" lon="8.65694">
        <ele>570</ele>
        <time>2021-08-05T09:42:23.448Z</time>
      </trkpt>
      <trkpt lat="46.99029" lon="8.65695">
        <ele>570</ele>
        <time>2021-08-05T09:42:24.448Z</time>
      </trkpt>
      <trkpt lat="46.9903" lon="8.65696">
        <ele>569</ele>
        <time>2021-08-05T09:42:25.448Z</time>
      </trkpt>
      <trkpt lat="46.99031" lon="8.65696">
        <ele>569</ele>
        <time>2021-08-05T09:42:26.448Z</time>
      </trkpt>
      <trkpt lat="46.99031" lon="8.65697">
        <ele>568</ele>
        <time>2021-08-05T09:42:27.448Z</time>
      </trkpt>
      <trkpt lat="46.9903" lon="8.65698">
        <ele>568</ele>
        <time>2021-08-05T09:42:28.448Z</time>
      </trkpt>
      <trkpt lat="46.9903" lon="8.657">
        <ele>568</ele>
        <time>2021-08-05T09:42:29.448Z</time>
      </trkpt>
      <trkpt lat="46.9903" lon="8.65701">
        <ele>568</ele>
        <time>2021-08-05T09:42:30.448Z</time>
      </trkpt>
      <trkpt lat="46.99031" lon="8.65701">
        <ele>568</ele>
        <time>2021-08-05T09:42:31.448Z</time>
      </trkpt>
      <trkpt lat="46.9903" lon="8.65702">
        <ele>568</ele>
        <time>2021-08-05T09:42:32.448Z</time>
      </trkpt>
      <trkpt lat="46.99029" lon="8.65703">
        <ele>568</ele>
        <time>2021-08-05T09:42:33.448Z</time>
      </trkpt>
      <trkpt lat="46.99028" lon="8.65704">
        <ele>568</ele>
        <time>2021-08-05T09:42:34.448Z</time>
      </trkpt>
      <trkpt lat="46.99028" lon="8.65705">
        <ele>568</ele>
        <time>2021-08-05T09:42:35.448Z</time>
      </trkpt>
      <trkpt lat="46.99028" lon="8.65707">
        <ele>567</ele>
        <time>2021-08-05T09:42:36.448Z</time>
      </trkpt>
      <trkpt lat="46.99028" lon="8.65708">
        <ele>567</ele>
        <time>2021-08-05T09:42:37.448Z</time>
      </trkpt>
      <trkpt lat="46.99029" lon="8.65711">
        <ele>567</ele>
        <time>2021-08-05T09:42:38.448Z</time>
      </trkpt>
      <trkpt lat="46.99029" lon="8.65714">
        <ele>567</ele>
        <time>2021-08-05T09:42:39.448Z</time>
      </trkpt>
      <trkpt lat="46.9903" lon="8.65716">
        <ele>566</ele>
        <time>2021-08-05T09:42:40.448Z</time>
      </trkpt>
      <trkpt lat="46.99031" lon="8.65718">
        <ele>566</ele>
        <time>2021-08-05T09:42:41.448Z</time>
      </trkpt>
      <trkpt lat="46.99033" lon="8.65719">
        <ele>566</ele>
        <time>2021-08-05T09:42:42.448Z</time>
      </trkpt>
      <trkpt lat="46.99034" lon="8.65721">
        <ele>565</ele>
        <time>2021-08-05T09:42:43.448Z</time>
      </trkpt>
      <trkpt lat="46.99035" lon="8.65723">
        <ele>565</ele>
        <time>2021-08-05T09:42:44.448Z</time>
      </trkpt>
      <trkpt lat="46.99036" lon="8.65725">
        <ele>565</ele>
        <time>2021-08-05T09:42:45.448Z</time>
      </trkpt>
      <trkpt lat="46.99037" lon="8.65727">
        <ele>565</ele>
        <time>2021-08-05T09:42:46.448Z</time>
      </trkpt>
      <trkpt lat="46.99037" lon="8.6573">
        <ele>565</ele>
        <time>2021-08-05T09:42:47.448Z</time>
      </trkpt>
      <trkpt lat="46.99038" lon="8.65732">
        <ele>565</ele>
        <time>2021-08-05T09:42:48.448Z</time>
      </trkpt>
      <trkpt lat="46.99039" lon="8.65734">
        <ele>565</ele>
        <time>2021-08-05T09:42:49.448Z</time>
      </trkpt>
      <trkpt lat="46.99039" lon="8.65736">
        <ele>565</ele>
        <time>2021-08-05T09:42:50.448Z</time>
      </trkpt>
      <trkpt lat="46.99039" lon="8.65739">
        <ele>565</ele>
        <time>2021-08-05T09:42:51.448Z</time>
      </trkpt>
      <trkpt lat="46.99041" lon="8.65742">
        <ele>565</ele>
        <time>2021-08-05T09:42:52.448Z</time>
      </trkpt>
      <trkpt lat="46.99043" lon="8.65745">
        <ele>565</ele>
        <time>2021-08-05T09:42:53.448Z</time>
      </trkpt>
      <trkpt lat="46.99045" lon="8.65747">
        <ele>565</ele>
        <time>2021-08-05T09:42:54.448Z</time>
      </trkpt>
      <trkpt lat="46.99046" lon="8.65748">
        <ele>565</ele>
        <time>2021-08-05T09:42:55.448Z</time>
      </trkpt>
      <trkpt lat="46.99048" lon="8.65749">
        <ele>565</ele>
        <time>2021-08-05T09:42:56.448Z</time>
      </trkpt>
      <trkpt lat="46.9905" lon="8.6575">
        <ele>565</ele>
        <time>2021-08-05T09:42:57.448Z</time>
      </trkpt>
      <trkpt lat="46.9905" lon="8.65751">
        <ele>565</ele>
        <time>2021-08-05T09:42:58.448Z</time>
      </trkpt>
      <trkpt lat="46.9905" lon="8.65754">
        <ele>565</ele>
        <time>2021-08-05T09:42:59.448Z</time>
      </trkpt>
      <trkpt lat="46.99051" lon="8.65757">
        <ele>565</ele>
        <time>2021-08-05T09:43:00.448Z</time>
      </trkpt>
      <trkpt lat="46.99053" lon="8.65759">
        <ele>566</ele>
        <time>2021-08-05T09:43:01.448Z</time>
      </trkpt>
      <trkpt lat="46.99055" lon="8.65759">
        <ele>566</ele>
        <time>2021-08-05T09:43:02.448Z</time>
      </trkpt>
      <trkpt lat="46.99056" lon="8.6576">
        <ele>566</ele>
        <time>2021-08-05T09:43:03.448Z</time>
      </trkpt>
      <trkpt lat="46.99056" lon="8.65762">
        <ele>566</ele>
        <time>2021-08-05T09:43:04.448Z</time>
      </trkpt>
      <trkpt lat="46.99056" lon="8.65764">
        <ele>567</ele>
        <time>2021-08-05T09:43:05.448Z</time>
      </trkpt>
      <trkpt lat="46.99055" lon="8.65766">
        <ele>567</ele>
        <time>2021-08-05T09:43:06.448Z</time>
      </trkpt>
      <trkpt lat="46.99054" lon="8.65767">
        <ele>567</ele>
        <time>2021-08-05T09:43:07.448Z</time>
      </trkpt>
      <trkpt lat="46.99054" lon="8.65769">
        <ele>567</ele>
        <time>2021-08-05T09:43:08.448Z</time>
      </trkpt>
      <trkpt lat="46.99055" lon="8.6577">
        <ele>567</ele>
        <time>2021-08-05T09:43:09.448Z</time>
      </trkpt>
      <trkpt lat="46.99054" lon="8.65771">
        <ele>567</ele>
        <time>2021-08-05T09:43:10.448Z</time>
      </trkpt>
      <trkpt lat="46.99054" lon="8.65772">
        <ele>567</ele>
        <time>2021-08-05T09:43:11.448Z</time>
      </trkpt>
      <trkpt lat="46.99055" lon="8.65773">
        <ele>567</ele>
        <time>2021-08-05T09:43:12.448Z</time>
      </trkpt>
      <trkpt lat="46.99054" lon="8.65774">
        <ele>567</ele>
        <time>2021-08-05T09:43:13.448Z</time>
      </trkpt>
      <trkpt lat="46.99054" lon="8.65775">
        <ele>567</ele>
        <time>2021-08-05T09:43:14.448Z</time>
      </trkpt>
      <trkpt lat="46.99054" lon="8.65777">
        <ele>567</ele>
        <time>2021-08-05T09:43:15.448Z</time>
      </trkpt>
      <trkpt lat="46.99054" lon="8.65778">
        <ele>567</ele>
        <time>2021-08-05T09:43:16.448Z</time>
      </trkpt>
      <trkpt lat="46.99055" lon="8.65779">
        <ele>567</ele>
        <time>2021-08-05T09:43:17.448Z</time>
      </trkpt>
      <trkpt lat="46.99055" lon="8.6578">
        <ele>566</ele>
        <time>2021-08-05T09:43:18.448Z</time>
      </trkpt>
      <trkpt lat="46.99056" lon="8.6578">
        <ele>566</ele>
        <time>2021-08-05T09:43:19.448Z</time>
      </trkpt>
      <trkpt lat="46.99057" lon="8.65781">
        <ele>566</ele>
        <time>2021-08-05T09:43:20.448Z</time>
      </trkpt>
      <trkpt lat="46.99057" lon="8.65782">
        <ele>566</ele>
        <time>2021-08-05T09:43:21.448Z</time>
      </trkpt>
      <trkpt lat="46.99057" lon="8.65783">
        <ele>566</ele>
        <time>2021-08-05T09:43:22.448Z</time>
      </trkpt>
      <trkpt lat="46.99057" lon="8.65785">
        <ele>566</ele>
        <time>2021-08-05T09:43:23.448Z</time>
      </trkpt>
      <trkpt lat="46.99057" lon="8.65786">
        <ele>566</ele>
        <time>2021-08-05T09:43:24.448Z</time>
      </trkpt>
      <trkpt lat="46.99058" lon="8.65788">
        <ele>566</ele>
        <time>2021-08-05T09:43:25.448Z</time>
      </trkpt>
      <trkpt lat="46.99058" lon="8.65789">
        <ele>566</ele>
        <time>2021-08-05T09:43:26.448Z</time>
      </trkpt>
      <trkpt lat="46.99059" lon="8.65791">
        <ele>566</ele>
        <time>2021-08-05T09:43:27.448Z</time>
      </trkpt>
      <trkpt lat="46.99059" lon="8.65792">
        <ele>566</ele>
        <time>2021-08-05T09:43:28.448Z</time>
      </trkpt>
      <trkpt lat="46.99059" lon="8.65793">
        <ele>566</ele>
        <time>2021-08-05T09:43:29.448Z</time>
      </trkpt>
      <trkpt lat="46.99059" lon="8.65795">
        <ele>566</ele>
        <time>2021-08-05T09:43:30.448Z</time>
      </trkpt>
      <trkpt lat="46.99059" lon="8.65797">
        <ele>566</ele>
        <time>2021-08-05T09:43:31.448Z</time>
      </trkpt>
      <trkpt lat="46.99059" lon="8.65799">
        <ele>565</ele>
        <time>2021-08-05T09:43:32.448Z</time>
      </trkpt>
      <trkpt lat="46.99059" lon="8.65801">
        <ele>565</ele>
        <time>2021-08-05T09:43:33.448Z</time>
      </trkpt>
      <trkpt lat="46.99059" lon="8.65803">
        <ele>564</ele>
        <time>2021-08-05T09:43:34.448Z</time>
      </trkpt>
      <trkpt lat="46.9906" lon="8.65804">
        <ele>564</ele>
        <time>2021-08-05T09:43:35.448Z</time>
      </trkpt>
      <trkpt lat="46.99061" lon="8.65806">
        <ele>563</ele>
        <time>2021-08-05T09:43:36.448Z</time>
      </trkpt>
      <trkpt lat="46.99062" lon="8.65808">
        <ele>563</ele>
        <time>2021-08-05T09:43:37.448Z</time>
      </trkpt>
      <trkpt lat="46.99063" lon="8.65809">
        <ele>562</ele>
        <time>2021-08-05T09:43:38.448Z</time>
      </trkpt>
      <trkpt lat="46.99064" lon="8.6581">
        <ele>562</ele>
        <time>2021-08-05T09:43:39.448Z</time>
      </trkpt>
      <trkpt lat="46.99064" lon="8.65812">
        <ele>562</ele>
        <time>2021-08-05T09:43:40.448Z</time>
      </trkpt>
      <trkpt lat="46.99064" lon="8.65815">
        <ele>561</ele>
        <time>2021-08-05T09:43:41.448Z</time>
      </trkpt>
      <trkpt lat="46.99064" lon="8.65816">
        <ele>561</ele>
        <time>2021-08-05T09:43:42.448Z</time>
      </trkpt>
      <trkpt lat="46.99064" lon="8.65818">
        <ele>560</ele>
        <time>2021-08-05T09:43:43.448Z</time>
      </trkpt>
      <trkpt lat="46.99064" lon="8.65819">
        <ele>559</ele>
        <time>2021-08-05T09:43:44.448Z</time>
      </trkpt>
      <trkpt lat="46.99064" lon="8.65822">
        <ele>559</ele>
        <time>2021-08-05T09:43:45.448Z</time>
      </trkpt>
      <trkpt lat="46.99064" lon="8.65823">
        <ele>558</ele>
        <time>2021-08-05T09:43:46.448Z</time>
      </trkpt>
      <trkpt lat="46.99064" lon="8.65824">
        <ele>557</ele>
        <time>2021-08-05T09:43:47.448Z</time>
      </trkpt>
      <trkpt lat="46.99064" lon="8.65826">
        <ele>557</ele>
        <time>2021-08-05T09:43:48.448Z</time>
      </trkpt>
      <trkpt lat="46.99064" lon="8.65827">
        <ele>556</ele>
        <time>2021-08-05T09:43:49.448Z</time>
      </trkpt>
      <trkpt lat="46.99063" lon="8.65828">
        <ele>556</ele>
        <time>2021-08-05T09:43:50.448Z</time>
      </trkpt>
      <trkpt lat="46.99063" lon="8.65829">
        <ele>556</ele>
        <time>2021-08-05T09:43:51.448Z</time>
      </trkpt>
      <trkpt lat="46.99062" lon="8.6583">
        <ele>555</ele>
        <time>2021-08-05T09:43:52.448Z</time>
      </trkpt>
      <trkpt lat="46.99062" lon="8.65831">
        <ele>555</ele>
        <time>2021-08-05T09:43:53.448Z</time>
      </trkpt>
      <trkpt lat="46.99061" lon="8.65833">
        <ele>555</ele>
        <time>2021-08-05T09:43:54.448Z</time>
      </trkpt>
      <trkpt lat="46.99062" lon="8.65833">
        <ele>555</ele>
        <time>2021-08-05T09:43:55.448Z</time>
      </trkpt>
      <trkpt lat="46.99062" lon="8.65834">
        <ele>555</ele>
        <time>2021-08-05T09:43:56.448Z</time>
      </trkpt>
      <trkpt lat="46.99063" lon="8.65836">
        <ele>555</ele>
        <time>2021-08-05T09:43:57.448Z</time>
      </trkpt>
      <trkpt lat="46.99064" lon="8.65837">
        <ele>555</ele>
        <time>2021-08-05T09:43:58.448Z</time>
      </trkpt>
      <trkpt lat="46.99065" lon="8.65838">
        <ele>555</ele>
        <time>2021-08-05T09:43:59.448Z</time>
      </trkpt>
      <trkpt lat="46.99065" lon="8.65839">
        <ele>555</ele>
        <time>2021-08-05T09:44:00.448Z</time>
      </trkpt>
      <trkpt lat="46.99064" lon="8.65841">
        <ele>555</ele>
        <time>2021-08-05T09:44:01.448Z</time>
      </trkpt>
      <trkpt lat="46.99065" lon="8.65843">
        <ele>555</ele>
        <time>2021-08-05T09:44:02.448Z</time>
      </trkpt>
      <trkpt lat="46.99066" lon="8.65844">
        <ele>555</ele>
        <time>2021-08-05T09:44:03.448Z</time>
      </trkpt>
      <trkpt lat="46.99067" lon="8.65846">
        <ele>555</ele>
        <time>2021-08-05T09:44:04.448Z</time>
      </trkpt>
      <trkpt lat="46.99068" lon="8.65847">
        <ele>555</ele>
        <time>2021-08-05T09:44:05.448Z</time>
      </trkpt>
      <trkpt lat="46.99069" lon="8.65848">
        <ele>555</ele>
        <time>2021-08-05T09:44:06.448Z</time>
      </trkpt>
      <trkpt lat="46.9907" lon="8.65849">
        <ele>554</ele>
        <time>2021-08-05T09:44:07.448Z</time>
      </trkpt>
      <trkpt lat="46.9907" lon="8.65851">
        <ele>554</ele>
        <time>2021-08-05T09:44:08.448Z</time>
      </trkpt>
      <trkpt lat="46.99071" lon="8.65853">
        <ele>554</ele>
        <time>2021-08-05T09:44:09.448Z</time>
      </trkpt>
      <trkpt lat="46.99071" lon="8.65854">
        <ele>553</ele>
        <time>2021-08-05T09:44:10.448Z</time>
      </trkpt>
      <trkpt lat="46.99072" lon="8.65856">
        <ele>553</ele>
        <time>2021-08-05T09:44:11.448Z</time>
      </trkpt>
      <trkpt lat="46.99072" lon="8.65857">
        <ele>552</ele>
        <time>2021-08-05T09:44:12.448Z</time>
      </trkpt>
      <trkpt lat="46.99072" lon="8.65859">
        <ele>552</ele>
        <time>2021-08-05T09:44:13.448Z</time>
      </trkpt>
      <trkpt lat="46.99072" lon="8.65861">
        <ele>552</ele>
        <time>2021-08-05T09:44:14.448Z</time>
      </trkpt>
      <trkpt lat="46.99071" lon="8.65863">
        <ele>553</ele>
        <time>2021-08-05T09:44:15.448Z</time>
      </trkpt>
      <trkpt lat="46.9907" lon="8.65866">
        <ele>553</ele>
        <time>2021-08-05T09:44:16.448Z</time>
      </trkpt>
      <trkpt lat="46.99071" lon="8.65867">
        <ele>553</ele>
        <time>2021-08-05T09:44:17.448Z</time>
      </trkpt>
      <trkpt lat="46.9907" lon="8.6587">
        <ele>553</ele>
        <time>2021-08-05T09:44:18.448Z</time>
      </trkpt>
      <trkpt lat="46.99071" lon="8.65873">
        <ele>554</ele>
        <time>2021-08-05T09:44:19.448Z</time>
      </trkpt>
      <trkpt lat="46.99071" lon="8.65875">
        <ele>554</ele>
        <time>2021-08-05T09:44:20.448Z</time>
      </trkpt>
      <trkpt lat="46.99071" lon="8.65876">
        <ele>554</ele>
        <time>2021-08-05T09:44:21.448Z</time>
      </trkpt>
      <trkpt lat="46.99071" lon="8.65878">
        <ele>554</ele>
        <time>2021-08-05T09:44:22.448Z</time>
      </trkpt>
      <trkpt lat="46.9907" lon="8.6588">
        <ele>555</ele>
        <time>2021-08-05T09:44:23.448Z</time>
      </trkpt>
      <trkpt lat="46.99069" lon="8.65882">
        <ele>555</ele>
        <time>2021-08-05T09:44:24.448Z</time>
      </trkpt>
      <trkpt lat="46.99068" lon="8.65884">
        <ele>555</ele>
        <time>2021-08-05T09:44:25.448Z</time>
      </trkpt>
      <trkpt lat="46.99067" lon="8.65885">
        <ele>556</ele>
        <time>2021-08-05T09:44:26.448Z</time>
      </trkpt>
      <trkpt lat="46.99066" lon="8.65887">
        <ele>556</ele>
        <time>2021-08-05T09:44:27.448Z</time>
      </trkpt>
      <trkpt lat="46.99066" lon="8.65888">
        <ele>557</ele>
        <time>2021-08-05T09:44:28.448Z</time>
      </trkpt>
      <trkpt lat="46.99066" lon="8.6589">
        <ele>557</ele>
        <time>2021-08-05T09:44:29.448Z</time>
      </trkpt>
      <trkpt lat="46.99065" lon="8.65893">
        <ele>558</ele>
        <time>2021-08-05T09:44:30.448Z</time>
      </trkpt>
      <trkpt lat="46.99065" lon="8.65895">
        <ele>558</ele>
        <time>2021-08-05T09:44:31.448Z</time>
      </trkpt>
      <trkpt lat="46.99067" lon="8.65897">
        <ele>558</ele>
        <time>2021-08-05T09:44:32.448Z</time>
      </trkpt>
      <trkpt lat="46.99067" lon="8.65899">
        <ele>559</ele>
        <time>2021-08-05T09:44:33.448Z</time>
      </trkpt>
      <trkpt lat="46.99067" lon="8.65901">
        <ele>559</ele>
        <time>2021-08-05T09:44:34.448Z</time>
      </trkpt>
      <trkpt lat="46.99067" lon="8.65903">
        <ele>559</ele>
        <time>2021-08-05T09:44:35.448Z</time>
      </trkpt>
      <trkpt lat="46.99067" lon="8.65905">
        <ele>559</ele>
        <time>2021-08-05T09:44:36.448Z</time>
      </trkpt>
      <trkpt lat="46.99068" lon="8.65907">
        <ele>559</ele>
        <time>2021-08-05T09:44:37.448Z</time>
      </trkpt>
      <trkpt lat="46.99068" lon="8.65908">
        <ele>559</ele>
        <time>2021-08-05T09:44:38.448Z</time>
      </trkpt>
      <trkpt lat="46.99069" lon="8.65909">
        <ele>559</ele>
        <time>2021-08-05T09:44:39.448Z</time>
      </trkpt>
      <trkpt lat="46.9907" lon="8.6591">
        <ele>559</ele>
        <time>2021-08-05T09:44:40.448Z</time>
      </trkpt>
      <trkpt lat="46.99071" lon="8.65911">
        <ele>559</ele>
        <time>2021-08-05T09:44:41.448Z</time>
      </trkpt>
      <trkpt lat="46.99071" lon="8.65913">
        <ele>560</ele>
        <time>2021-08-05T09:44:42.448Z</time>
      </trkpt>
      <trkpt lat="46.99071" lon="8.65913">
        <ele>560</ele>
        <time>2021-08-05T09:44:43.448Z</time>
      </trkpt>
      <trkpt lat="46.99071" lon="8.65915">
        <ele>560</ele>
        <time>2021-08-05T09:44:44.448Z</time>
      </trkpt>
      <trkpt lat="46.99071" lon="8.65916">
        <ele>561</ele>
        <time>2021-08-05T09:44:45.448Z</time>
      </trkpt>
      <trkpt lat="46.99072" lon="8.65918">
        <ele>561</ele>
        <time>2021-08-05T09:44:46.448Z</time>
      </trkpt>
      <trkpt lat="46.99072" lon="8.6592">
        <ele>561</ele>
        <time>2021-08-05T09:44:47.448Z</time>
      </trkpt>
      <trkpt lat="46.99073" lon="8.65922">
        <ele>561</ele>
        <time>2021-08-05T09:44:48.448Z</time>
      </trkpt>
      <trkpt lat="46.99072" lon="8.65923">
        <ele>561</ele>
        <time>2021-08-05T09:44:49.448Z</time>
      </trkpt>
      <trkpt lat="46.99072" lon="8.65925">
        <ele>561</ele>
        <time>2021-08-05T09:44:50.448Z</time>
      </trkpt>
      <trkpt lat="46.99072" lon="8.65926">
        <ele>561</ele>
        <time>2021-08-05T09:44:51.448Z</time>
      </trkpt>
      <trkpt lat="46.99072" lon="8.65928">
        <ele>562</ele>
        <time>2021-08-05T09:44:52.448Z</time>
      </trkpt>
      <trkpt lat="46.99072" lon="8.6593">
        <ele>562</ele>
        <time>2021-08-05T09:44:53.448Z</time>
      </trkpt>
      <trkpt lat="46.99073" lon="8.65932">
        <ele>562</ele>
        <time>2021-08-05T09:44:54.448Z</time>
      </trkpt>
      <trkpt lat="46.99073" lon="8.65934">
        <ele>562</ele>
        <time>2021-08-05T09:44:55.448Z</time>
      </trkpt>
      <trkpt lat="46.99072" lon="8.65937">
        <ele>562</ele>
        <time>2021-08-05T09:44:56.448Z</time>
      </trkpt>
      <trkpt lat="46.99072" lon="8.65939">
        <ele>562</ele>
        <time>2021-08-05T09:44:57.448Z</time>
      </trkpt>
      <trkpt lat="46.99073" lon="8.65941">
        <ele>561</ele>
        <time>2021-08-05T09:44:58.448Z</time>
      </trkpt>
      <trkpt lat="46.99073" lon="8.65943">
        <ele>561</ele>
        <time>2021-08-05T09:44:59.448Z</time>
      </trkpt>
      <trkpt lat="46.99073" lon="8.65945">
        <ele>561</ele>
        <time>2021-08-05T09:45:00.448Z</time>
      </trkpt>
      <trkpt lat="46.99072" lon="8.65947">
        <ele>561</ele>
        <time>2021-08-05T09:45:01.448Z</time>
      </trkpt>
      <trkpt lat="46.99072" lon="8.65948">
        <ele>560</ele>
        <time>2021-08-05T09:45:02.448Z</time>
      </trkpt>
      <trkpt lat="46.99072" lon="8.6595">
        <ele>559</ele>
        <time>2021-08-05T09:45:03.448Z</time>
      </trkpt>
      <trkpt lat="46.99072" lon="8.65952">
        <ele>559</ele>
        <time>2021-08-05T09:45:04.448Z</time>
      </trkpt>
      <trkpt lat="46.99073" lon="8.65954">
        <ele>558</ele>
        <time>2021-08-05T09:45:05.448Z</time>
      </trkpt>
      <trkpt lat="46.99074" lon="8.65956">
        <ele>558</ele>
        <time>2021-08-05T09:45:06.448Z</time>
      </trkpt>
      <trkpt lat="46.99074" lon="8.65958">
        <ele>558</ele>
        <time>2021-08-05T09:45:07.448Z</time>
      </trkpt>
      <trkpt lat="46.99075" lon="8.6596">
        <ele>558</ele>
        <time>2021-08-05T09:45:08.448Z</time>
      </trkpt>
      <trkpt lat="46.99075" lon="8.65963">
        <ele>558</ele>
        <time>2021-08-05T09:45:09.448Z</time>
      </trkpt>
      <trkpt lat="46.99075" lon="8.65965">
        <ele>558</ele>
        <time>2021-08-05T09:45:10.448Z</time>
      </trkpt>
      <trkpt lat="46.99076" lon="8.65967">
        <ele>558</ele>
        <time>2021-08-05T09:45:11.448Z</time>
      </trkpt>
      <trkpt lat="46.99076" lon="8.65969">
        <ele>558</ele>
        <time>2021-08-05T09:45:12.448Z</time>
      </trkpt>
      <trkpt lat="46.99077" lon="8.6597">
        <ele>558</ele>
        <time>2021-08-05T09:45:13.448Z</time>
      </trkpt>
      <trkpt lat="46.99078" lon="8.65972">
        <ele>558</ele>
        <time>2021-08-05T09:45:14.448Z</time>
      </trkpt>
      <trkpt lat="46.99079" lon="8.65975">
        <ele>557</ele>
        <time>2021-08-05T09:45:15.448Z</time>
      </trkpt>
      <trkpt lat="46.99078" lon="8.65978">
        <ele>557</ele>
        <time>2021-08-05T09:45:16.448Z</time>
      </trkpt>
      <trkpt lat="46.99079" lon="8.6598">
        <ele>557</ele>
        <time>2021-08-05T09:45:17.448Z</time>
      </trkpt>
      <trkpt lat="46.9908" lon="8.65982">
        <ele>557</ele>
        <time>2021-08-05T09:45:18.448Z</time>
      </trkpt>
      <trkpt lat="46.9908" lon="8.65984">
        <ele>557</ele>
        <time>2021-08-05T09:45:19.448Z</time>
      </trkpt>
      <trkpt lat="46.9908" lon="8.65985">
        <ele>557</ele>
        <time>2021-08-05T09:45:20.448Z</time>
      </trkpt>
      <trkpt lat="46.99079" lon="8.65987">
        <ele>557</ele>
        <time>2021-08-05T09:45:21.448Z</time>
      </trkpt>
      <trkpt lat="46.99079" lon="8.65989">
        <ele>557</ele>
        <time>2021-08-05T09:45:22.448Z</time>
      </trkpt>
      <trkpt lat="46.99078" lon="8.65992">
        <ele>556</ele>
        <time>2021-08-05T09:45:23.448Z</time>
      </trkpt>
      <trkpt lat="46.99078" lon="8.65994">
        <ele>556</ele>
        <time>2021-08-05T09:45:24.448Z</time>
      </trkpt>
      <trkpt lat="46.99079" lon="8.65995">
        <ele>555</ele>
        <time>2021-08-05T09:45:25.448Z</time>
      </trkpt>
      <trkpt lat="46.9908" lon="8.65997">
        <ele>555</ele>
        <time>2021-08-05T09:45:26.448Z</time>
      </trkpt>
      <trkpt lat="46.99081" lon="8.65999">
        <ele>555</ele>
        <time>2021-08-05T09:45:27.448Z</time>
      </trkpt>
      <trkpt lat="46.99083" lon="8.66">
        <ele>554</ele>
        <time>2021-08-05T09:45:28.448Z</time>
      </trkpt>
      <trkpt lat="46.99083" lon="8.66002">
        <ele>554</ele>
        <time>2021-08-05T09:45:29.448Z</time>
      </trkpt>
      <trkpt lat="46.99083" lon="8.66004">
        <ele>553</ele>
        <time>2021-08-05T09:45:30.448Z</time>
      </trkpt>
      <trkpt lat="46.99083" lon="8.66005">
        <ele>553</ele>
        <time>2021-08-05T09:45:31.448Z</time>
      </trkpt>
      <trkpt lat="46.99084" lon="8.66007">
        <ele>552</ele>
        <time>2021-08-05T09:45:32.448Z</time>
      </trkpt>
      <trkpt lat="46.99084" lon="8.66009">
        <ele>552</ele>
        <time>2021-08-05T09:45:33.448Z</time>
      </trkpt>
      <trkpt lat="46.99085" lon="8.66011">
        <ele>552</ele>
        <time>2021-08-05T09:45:34.448Z</time>
      </trkpt>
      <trkpt lat="46.99085" lon="8.66012">
        <ele>551</ele>
        <time>2021-08-05T09:45:35.448Z</time>
      </trkpt>
      <trkpt lat="46.99085" lon="8.66014">
        <ele>551</ele>
        <time>2021-08-05T09:45:36.448Z</time>
      </trkpt>
      <trkpt lat="46.99085" lon="8.66015">
        <ele>551</ele>
        <time>2021-08-05T09:45:37.448Z</time>
      </trkpt>
      <trkpt lat="46.99084" lon="8.66017">
        <ele>551</ele>
        <time>2021-08-05T09:45:38.448Z</time>
      </trkpt>
      <trkpt lat="46.99084" lon="8.66019">
        <ele>550</ele>
        <time>2021-08-05T09:45:39.448Z</time>
      </trkpt>
      <trkpt lat="46.99084" lon="8.66021">
        <ele>550</ele>
        <time>2021-08-05T09:45:40.448Z</time>
      </trkpt>
      <trkpt lat="46.99084" lon="8.66023">
        <ele>550</ele>
        <time>2021-08-05T09:45:41.448Z</time>
      </trkpt>
      <trkpt lat="46.99085" lon="8.66024">
        <ele>550</ele>
        <time>2021-08-05T09:45:42.448Z</time>
      </trkpt>
      <trkpt lat="46.99085" lon="8.66026">
        <ele>550</ele>
        <time>2021-08-05T09:45:43.448Z</time>
      </trkpt>
      <trkpt lat="46.99084" lon="8.66029">
        <ele>550</ele>
        <time>2021-08-05T09:45:44.448Z</time>
      </trkpt>
      <trkpt lat="46.99084" lon="8.66031">
        <ele>549</ele>
        <time>2021-08-05T09:45:45.448Z</time>
      </trkpt>
      <trkpt lat="46.99083" lon="8.66033">
        <ele>549</ele>
        <time>2021-08-05T09:45:46.448Z</time>
      </trkpt>
      <trkpt lat="46.99084" lon="8.66035">
        <ele>549</ele>
        <time>2021-08-05T09:45:47.448Z</time>
      </trkpt>
      <trkpt lat="46.99085" lon="8.66036">
        <ele>549</ele>
        <time>2021-08-05T09:45:48.448Z</time>
      </trkpt>
      <trkpt lat="46.99086" lon="8.66037">
        <ele>549</ele>
        <time>2021-08-05T09:45:49.448Z</time>
      </trkpt>
      <trkpt lat="46.99086" lon="8.66038">
        <ele>549</ele>
        <time>2021-08-05T09:45:50.448Z</time>
      </trkpt>
      <trkpt lat="46.99086" lon="8.66039">
        <ele>549</ele>
        <time>2021-08-05T09:45:51.448Z</time>
      </trkpt>
      <trkpt lat="46.99086" lon="8.66041">
        <ele>549</ele>
        <time>2021-08-05T09:45:52.448Z</time>
      </trkpt>
      <trkpt lat="46.99086" lon="8.66042">
        <ele>550</ele>
        <time>2021-08-05T09:45:53.448Z</time>
      </trkpt>
      <trkpt lat="46.99086" lon="8.66044">
        <ele>549</ele>
        <time>2021-08-05T09:45:54.448Z</time>
      </trkpt>
      <trkpt lat="46.99086" lon="8.66045">
        <ele>549</ele>
        <time>2021-08-05T09:45:55.448Z</time>
      </trkpt>
      <trkpt lat="46.99087" lon="8.66046">
        <ele>549</ele>
        <time>2021-08-05T09:45:56.448Z</time>
      </trkpt>
      <trkpt lat="46.99088" lon="8.66048">
        <ele>549</ele>
        <time>2021-08-05T09:45:57.448Z</time>
      </trkpt>
      <trkpt lat="46.99089" lon="8.6605">
        <ele>549</ele>
        <time>2021-08-05T09:45:58.448Z</time>
      </trkpt>
      <trkpt lat="46.99089" lon="8.66051">
        <ele>549</ele>
        <time>2021-08-05T09:45:59.448Z</time>
      </trkpt>
      <trkpt lat="46.99089" lon="8.66053">
        <ele>549</ele>
        <time>2021-08-05T09:46:00.448Z</time>
      </trkpt>
      <trkpt lat="46.9909" lon="8.66056">
        <ele>549</ele>
        <time>2021-08-05T09:46:01.448Z</time>
      </trkpt>
      <trkpt lat="46.9909" lon="8.66058">
        <ele>549</ele>
        <time>2021-08-05T09:46:02.448Z</time>
      </trkpt>
      <trkpt lat="46.9909" lon="8.6606">
        <ele>549</ele>
        <time>2021-08-05T09:46:03.448Z</time>
      </trkpt>
      <trkpt lat="46.9909" lon="8.66063">
        <ele>549</ele>
        <time>2021-08-05T09:46:04.448Z</time>
      </trkpt>
      <trkpt lat="46.99089" lon="8.66066">
        <ele>548</ele>
        <time>2021-08-05T09:46:05.448Z</time>
      </trkpt>
      <trkpt lat="46.99089" lon="8.66068">
        <ele>548</ele>
        <time>2021-08-05T09:46:06.448Z</time>
      </trkpt>
      <trkpt lat="46.99087" lon="8.66071">
        <ele>547</ele>
        <time>2021-08-05T09:46:07.448Z</time>
      </trkpt>
      <trkpt lat="46.99087" lon="8.66072">
        <ele>547</ele>
        <time>2021-08-05T09:46:08.448Z</time>
      </trkpt>
      <trkpt lat="46.99087" lon="8.66074">
        <ele>546</ele>
        <time>2021-08-05T09:46:09.448Z</time>
      </trkpt>
      <trkpt lat="46.99087" lon="8.66076">
        <ele>546</ele>
        <time>2021-08-05T09:46:10.448Z</time>
      </trkpt>
      <trkpt lat="46.99087" lon="8.66078">
        <ele>546</ele>
        <time>2021-08-05T09:46:11.448Z</time>
      </trkpt>
      <trkpt lat="46.99088" lon="8.6608">
        <ele>545</ele>
        <time>2021-08-05T09:46:12.448Z</time>
      </trkpt>
      <trkpt lat="46.99088" lon="8.66081">
        <ele>545</ele>
        <time>2021-08-05T09:46:13.448Z</time>
      </trkpt>
      <trkpt lat="46.99088" lon="8.66082">
        <ele>545</ele>
        <time>2021-08-05T09:46:14.448Z</time>
      </trkpt>
      <trkpt lat="46.99089" lon="8.66084">
        <ele>545</ele>
        <time>2021-08-05T09:46:15.448Z</time>
      </trkpt>
      <trkpt lat="46.99089" lon="8.66085">
        <ele>545</ele>
        <time>2021-08-05T09:46:16.448Z</time>
      </trkpt>
      <trkpt lat="46.9909" lon="8.66086">
        <ele>545</ele>
        <time>2021-08-05T09:46:17.448Z</time>
      </trkpt>
      <trkpt lat="46.99091" lon="8.66087">
        <ele>545</ele>
        <time>2021-08-05T09:46:18.448Z</time>
      </trkpt>
      <trkpt lat="46.99092" lon="8.66088">
        <ele>545</ele>
        <time>2021-08-05T09:46:19.448Z</time>
      </trkpt>
      <trkpt lat="46.99093" lon="8.66089">
        <ele>545</ele>
        <time>2021-08-05T09:46:20.448Z</time>
      </trkpt>
      <trkpt lat="46.99093" lon="8.6609">
        <ele>545</ele>
        <time>2021-08-05T09:46:21.448Z</time>
      </trkpt>
      <trkpt lat="46.99094" lon="8.66091">
        <ele>545</ele>
        <time>2021-08-05T09:46:22.448Z</time>
      </trkpt>
      <trkpt lat="46.99094" lon="8.66093">
        <ele>545</ele>
        <time>2021-08-05T09:46:23.448Z</time>
      </trkpt>
      <trkpt lat="46.99094" lon="8.66094">
        <ele>545</ele>
        <time>2021-08-05T09:46:24.448Z</time>
      </trkpt>
      <trkpt lat="46.99094" lon="8.66096">
        <ele>545</ele>
        <time>2021-08-05T09:46:25.448Z</time>
      </trkpt>
      <trkpt lat="46.99095" lon="8.66097">
        <ele>545</ele>
        <time>2021-08-05T09:46:26.448Z</time>
      </trkpt>
      <trkpt lat="46.99096" lon="8.66098">
        <ele>545</ele>
        <time>2021-08-05T09:46:27.448Z</time>
      </trkpt>
      <trkpt lat="46.99096" lon="8.66099">
        <ele>545</ele>
        <time>2021-08-05T09:46:28.448Z</time>
      </trkpt>
      <trkpt lat="46.99097" lon="8.661">
        <ele>546</ele>
        <time>2021-08-05T09:46:29.448Z</time>
      </trkpt>
      <trkpt lat="46.99098" lon="8.66101">
        <ele>546</ele>
        <time>2021-08-05T09:46:30.448Z</time>
      </trkpt>
      <trkpt lat="46.99099" lon="8.66102">
        <ele>546</ele>
        <time>2021-08-05T09:46:31.448Z</time>
      </trkpt>
      <trkpt lat="46.99099" lon="8.66103">
        <ele>546</ele>
        <time>2021-08-05T09:46:32.448Z</time>
      </trkpt>
      <trkpt lat="46.99099" lon="8.66106">
        <ele>546</ele>
        <time>2021-08-05T09:46:33.448Z</time>
      </trkpt>
      <trkpt lat="46.99099" lon="8.66107">
        <ele>546</ele>
        <time>2021-08-05T09:46:34.448Z</time>
      </trkpt>
      <trkpt lat="46.991" lon="8.66109">
        <ele>547</ele>
        <time>2021-08-05T09:46:35.448Z</time>
      </trkpt>
      <trkpt lat="46.991" lon="8.66111">
        <ele>547</ele>
        <time>2021-08-05T09:46:36.448Z</time>
      </trkpt>
      <trkpt lat="46.991" lon="8.66112">
        <ele>547</ele>
        <time>2021-08-05T09:46:37.448Z</time>
      </trkpt>
      <trkpt lat="46.991" lon="8.66113">
        <ele>547</ele>
        <time>2021-08-05T09:46:38.448Z</time>
      </trkpt>
      <trkpt lat="46.99101" lon="8.66115">
        <ele>547</ele>
        <time>2021-08-05T09:46:39.448Z</time>
      </trkpt>
      <trkpt lat="46.99102" lon="8.66116">
        <ele>547</ele>
        <time>2021-08-05T09:46:40.448Z</time>
      </trkpt>
      <trkpt lat="46.99102" lon="8.66117">
        <ele>547</ele>
        <time>2021-08-05T09:46:41.448Z</time>
      </trkpt>
      <trkpt lat="46.99103" lon="8.66119">
        <ele>547</ele>
        <time>2021-08-05T09:46:42.448Z</time>
      </trkpt>
      <trkpt lat="46.99103" lon="8.6612">
        <ele>547</ele>
        <time>2021-08-05T09:46:43.448Z</time>
      </trkpt>
      <trkpt lat="46.99103" lon="8.66122">
        <ele>547</ele>
        <time>2021-08-05T09:46:44.448Z</time>
      </trkpt>
      <trkpt lat="46.99103" lon="8.66124">
        <ele>547</ele>
        <time>2021-08-05T09:46:45.448Z</time>
      </trkpt>
      <trkpt lat="46.99105" lon="8.66126">
        <ele>547</ele>
        <time>2021-08-05T09:46:46.448Z</time>
      </trkpt>
      <trkpt lat="46.99105" lon="8.66127">
        <ele>547</ele>
        <time>2021-08-05T09:46:47.448Z</time>
      </trkpt>
      <trkpt lat="46.99107" lon="8.66128">
        <ele>547</ele>
        <time>2021-08-05T09:46:48.448Z</time>
      </trkpt>
      <trkpt lat="46.99108" lon="8.66128">
        <ele>547</ele>
        <time>2021-08-05T09:46:49.448Z</time>
      </trkpt>
      <trkpt lat="46.9911" lon="8.66129">
        <ele>547</ele>
        <time>2021-08-05T09:46:50.448Z</time>
      </trkpt>
      <trkpt lat="46.99111" lon="8.66129">
        <ele>547</ele>
        <time>2021-08-05T09:46:51.448Z</time>
      </trkpt>
      <trkpt lat="46.99112" lon="8.6613">
        <ele>547</ele>
        <time>2021-08-05T09:46:52.448Z</time>
      </trkpt>
      <trkpt lat="46.99113" lon="8.66131">
        <ele>547</ele>
        <time>2021-08-05T09:46:53.448Z</time>
      </trkpt>
      <trkpt lat="46.99113" lon="8.66132">
        <ele>547</ele>
        <time>2021-08-05T09:46:54.448Z</time>
      </trkpt>
      <trkpt lat="46.99114" lon="8.66133">
        <ele>548</ele>
        <time>2021-08-05T09:46:55.448Z</time>
      </trkpt>
      <trkpt lat="46.99115" lon="8.66135">
        <ele>548</ele>
        <time>2021-08-05T09:46:56.448Z</time>
      </trkpt>
      <trkpt lat="46.99114" lon="8.66136">
        <ele>548</ele>
        <time>2021-08-05T09:46:57.448Z</time>
      </trkpt>
      <trkpt lat="46.99115" lon="8.66137">
        <ele>548</ele>
        <time>2021-08-05T09:46:58.448Z</time>
      </trkpt>
      <trkpt lat="46.99116" lon="8.66138">
        <ele>549</ele>
        <time>2021-08-05T09:46:59.448Z</time>
      </trkpt>
      <trkpt lat="46.99117" lon="8.66139">
        <ele>549</ele>
        <time>2021-08-05T09:47:00.448Z</time>
      </trkpt>
      <trkpt lat="46.99118" lon="8.66141">
        <ele>549</ele>
        <time>2021-08-05T09:47:01.448Z</time>
      </trkpt>
      <trkpt lat="46.99119" lon="8.66142">
        <ele>549</ele>
        <time>2021-08-05T09:47:02.448Z</time>
      </trkpt>
      <trkpt lat="46.9912" lon="8.66143">
        <ele>550</ele>
        <time>2021-08-05T09:47:03.448Z</time>
      </trkpt>
      <trkpt lat="46.99123" lon="8.66143">
        <ele>550</ele>
        <time>2021-08-05T09:47:04.448Z</time>
      </trkpt>
      <trkpt lat="46.99123" lon="8.66145">
        <ele>550</ele>
        <time>2021-08-05T09:47:05.448Z</time>
      </trkpt>
      <trkpt lat="46.99123" lon="8.66146">
        <ele>550</ele>
        <time>2021-08-05T09:47:06.448Z</time>
      </trkpt>
      <trkpt lat="46.99123" lon="8.66148">
        <ele>550</ele>
        <time>2021-08-05T09:47:07.448Z</time>
      </trkpt>
      <trkpt lat="46.99123" lon="8.6615">
        <ele>550</ele>
        <time>2021-08-05T09:47:08.448Z</time>
      </trkpt>
      <trkpt lat="46.99123" lon="8.66151">
        <ele>550</ele>
        <time>2021-08-05T09:47:09.448Z</time>
      </trkpt>
      <trkpt lat="46.99123" lon="8.66152">
        <ele>550</ele>
        <time>2021-08-05T09:47:10.448Z</time>
      </trkpt>
      <trkpt lat="46.99123" lon="8.66153">
        <ele>549</ele>
        <time>2021-08-05T09:47:11.448Z</time>
      </trkpt>
      <trkpt lat="46.99123" lon="8.66155">
        <ele>549</ele>
        <time>2021-08-05T09:47:12.448Z</time>
      </trkpt>
      <trkpt lat="46.99123" lon="8.66156">
        <ele>549</ele>
        <time>2021-08-05T09:47:13.448Z</time>
      </trkpt>
      <trkpt lat="46.99124" lon="8.66157">
        <ele>549</ele>
        <time>2021-08-05T09:47:14.448Z</time>
      </trkpt>
      <trkpt lat="46.99124" lon="8.66158">
        <ele>548</ele>
        <time>2021-08-05T09:47:15.448Z</time>
      </trkpt>
      <trkpt lat="46.99125" lon="8.66159">
        <ele>548</ele>
        <time>2021-08-05T09:47:16.448Z</time>
      </trkpt>
      <trkpt lat="46.99126" lon="8.66159">
        <ele>548</ele>
        <time>2021-08-05T09:47:17.448Z</time>
      </trkpt>
      <trkpt lat="46.99127" lon="8.6616">
        <ele>547</ele>
        <time>2021-08-05T09:47:18.448Z</time>
      </trkpt>
      <trkpt lat="46.99128" lon="8.66161">
        <ele>547</ele>
        <time>2021-08-05T09:47:19.448Z</time>
      </trkpt>
      <trkpt lat="46.99128" lon="8.66162">
        <ele>547</ele>
        <time>2021-08-05T09:47:20.448Z</time>
      </trkpt>
      <trkpt lat="46.99128" lon="8.66164">
        <ele>547</ele>
        <time>2021-08-05T09:47:21.448Z</time>
      </trkpt>
      <trkpt lat="46.99129" lon="8.66165">
        <ele>546</ele>
        <time>2021-08-05T09:47:22.448Z</time>
      </trkpt>
      <trkpt lat="46.9913" lon="8.66166">
        <ele>546</ele>
        <time>2021-08-05T09:47:23.448Z</time>
      </trkpt>
      <trkpt lat="46.99131" lon="8.66168">
        <ele>546</ele>
        <time>2021-08-05T09:47:24.448Z</time>
      </trkpt>
      <trkpt lat="46.9913" lon="8.6617">
        <ele>546</ele>
        <time>2021-08-05T09:47:25.448Z</time>
      </trkpt>
      <trkpt lat="46.9913" lon="8.66172">
        <ele>546</ele>
        <time>2021-08-05T09:47:26.448Z</time>
      </trkpt>
      <trkpt lat="46.9913" lon="8.66173">
        <ele>545</ele>
        <time>2021-08-05T09:47:27.448Z</time>
      </trkpt>
      <trkpt lat="46.99131" lon="8.66174">
        <ele>545</ele>
        <time>2021-08-05T09:47:28.448Z</time>
      </trkpt>
      <trkpt lat="46.99132" lon="8.66176">
        <ele>544</ele>
        <time>2021-08-05T09:47:29.448Z</time>
      </trkpt>
      <trkpt lat="46.99133" lon="8.66177">
        <ele>544</ele>
        <time>2021-08-05T09:47:30.448Z</time>
      </trkpt>
      <trkpt lat="46.99133" lon="8.66179">
        <ele>543</ele>
        <time>2021-08-05T09:47:31.448Z</time>
      </trkpt>
      <trkpt lat="46.99134" lon="8.66181">
        <ele>543</ele>
        <time>2021-08-05T09:47:32.448Z</time>
      </trkpt>
      <trkpt lat="46.99135" lon="8.66183">
        <ele>543</ele>
        <time>2021-08-05T09:47:33.448Z</time>
      </trkpt>
      <trkpt lat="46.99136" lon="8.66184">
        <ele>543</ele>
        <time>2021-08-05T09:47:34.448Z</time>
      </trkpt>
      <trkpt lat="46.99137" lon="8.66185">
        <ele>542</ele>
        <time>2021-08-05T09:47:35.448Z</time>
      </trkpt>
      <trkpt lat="46.99138" lon="8.66187">
        <ele>542</ele>
        <time>2021-08-05T09:47:36.448Z</time>
      </trkpt>
      <trkpt lat="46.99139" lon="8.66188">
        <ele>542</ele>
        <time>2021-08-05T09:47:37.448Z</time>
      </trkpt>
      <trkpt lat="46.99139" lon="8.6619">
        <ele>542</ele>
        <time>2021-08-05T09:47:38.448Z</time>
      </trkpt>
      <trkpt lat="46.9914" lon="8.66191">
        <ele>542</ele>
        <time>2021-08-05T09:47:39.448Z</time>
      </trkpt>
      <trkpt lat="46.9914" lon="8.66193">
        <ele>542</ele>
        <time>2021-08-05T09:47:40.448Z</time>
      </trkpt>
      <trkpt lat="46.99141" lon="8.66195">
        <ele>543</ele>
        <time>2021-08-05T09:47:41.448Z</time>
      </trkpt>
      <trkpt lat="46.99142" lon="8.66197">
        <ele>543</ele>
        <time>2021-08-05T09:47:42.448Z</time>
      </trkpt>
      <trkpt lat="46.99144" lon="8.66198">
        <ele>543</ele>
        <time>2021-08-05T09:47:43.448Z</time>
      </trkpt>
      <trkpt lat="46.99145" lon="8.66199">
        <ele>543</ele>
        <time>2021-08-05T09:47:44.448Z</time>
      </trkpt>
      <trkpt lat="46.99146" lon="8.66199">
        <ele>543</ele>
        <time>2021-08-05T09:47:45.448Z</time>
      </trkpt>
      <trkpt lat="46.99147" lon="8.662">
        <ele>543</ele>
        <time>2021-08-05T09:47:46.448Z</time>
      </trkpt>
      <trkpt lat="46.99148" lon="8.66201">
        <ele>543</ele>
        <time>2021-08-05T09:47:47.448Z</time>
      </trkpt>
      <trkpt lat="46.99149" lon="8.66202">
        <ele>543</ele>
        <time>2021-08-05T09:47:48.448Z</time>
      </trkpt>
      <trkpt lat="46.9915" lon="8.66203">
        <ele>543</ele>
        <time>2021-08-05T09:47:49.448Z</time>
      </trkpt>
      <trkpt lat="46.99151" lon="8.66204">
        <ele>542</ele>
        <time>2021-08-05T09:47:50.448Z</time>
      </trkpt>
      <trkpt lat="46.99152" lon="8.66206">
        <ele>542</ele>
        <time>2021-08-05T09:47:51.448Z</time>
      </trkpt>
      <trkpt lat="46.99152" lon="8.66208">
        <ele>542</ele>
        <time>2021-08-05T09:47:52.448Z</time>
      </trkpt>
      <trkpt lat="46.99152" lon="8.66209">
        <ele>542</ele>
        <time>2021-08-05T09:47:53.448Z</time>
      </trkpt>
      <trkpt lat="46.99152" lon="8.66211">
        <ele>542</ele>
        <time>2021-08-05T09:47:54.448Z</time>
      </trkpt>
      <trkpt lat="46.99153" lon="8.66213">
        <ele>542</ele>
        <time>2021-08-05T09:47:55.448Z</time>
      </trkpt>
      <trkpt lat="46.99154" lon="8.66214">
        <ele>542</ele>
        <time>2021-08-05T09:47:56.448Z</time>
      </trkpt>
      <trkpt lat="46.99155" lon="8.66215">
        <ele>542</ele>
        <time>2021-08-05T09:47:57.448Z</time>
      </trkpt>
      <trkpt lat="46.99157" lon="8.66216">
        <ele>543</ele>
        <time>2021-08-05T09:47:58.448Z</time>
      </trkpt>
      <trkpt lat="46.99158" lon="8.66217">
        <ele>543</ele>
        <time>2021-08-05T09:47:59.448Z</time>
      </trkpt>
      <trkpt lat="46.99158" lon="8.66218">
        <ele>544</ele>
        <time>2021-08-05T09:48:00.448Z</time>
      </trkpt>
      <trkpt lat="46.99159" lon="8.66219">
        <ele>544</ele>
        <time>2021-08-05T09:48:01.448Z</time>
      </trkpt>
      <trkpt lat="46.9916" lon="8.66221">
        <ele>544</ele>
        <time>2021-08-05T09:48:02.448Z</time>
      </trkpt>
      <trkpt lat="46.99161" lon="8.66222">
        <ele>544</ele>
        <time>2021-08-05T09:48:03.448Z</time>
      </trkpt>
      <trkpt lat="46.99161" lon="8.66223">
        <ele>544</ele>
        <time>2021-08-05T09:48:04.448Z</time>
      </trkpt>
      <trkpt lat="46.99162" lon="8.66224">
        <ele>544</ele>
        <time>2021-08-05T09:48:05.448Z</time>
      </trkpt>
      <trkpt lat="46.99163" lon="8.66224">
        <ele>544</ele>
        <time>2021-08-05T09:48:06.448Z</time>
      </trkpt>
      <trkpt lat="46.99164" lon="8.66225">
        <ele>545</ele>
        <time>2021-08-05T09:48:07.448Z</time>
      </trkpt>
      <trkpt lat="46.99164" lon="8.66226">
        <ele>545</ele>
        <time>2021-08-05T09:48:08.448Z</time>
      </trkpt>
      <trkpt lat="46.99166" lon="8.66227">
        <ele>545</ele>
        <time>2021-08-05T09:48:09.448Z</time>
      </trkpt>
      <trkpt lat="46.99167" lon="8.66228">
        <ele>545</ele>
        <time>2021-08-05T09:48:10.448Z</time>
      </trkpt>
      <trkpt lat="46.99168" lon="8.66229">
        <ele>545</ele>
        <time>2021-08-05T09:48:11.448Z</time>
      </trkpt>
      <trkpt lat="46.99168" lon="8.6623">
        <ele>545</ele>
        <time>2021-08-05T09:48:12.448Z</time>
      </trkpt>
      <trkpt lat="46.99169" lon="8.66231">
        <ele>544</ele>
        <time>2021-08-05T09:48:13.448Z</time>
      </trkpt>
      <trkpt lat="46.99171" lon="8.66231">
        <ele>544</ele>
        <time>2021-08-05T09:48:14.448Z</time>
      </trkpt>
      <trkpt lat="46.99173" lon="8.66231">
        <ele>545</ele>
        <time>2021-08-05T09:48:15.448Z</time>
      </trkpt>
      <trkpt lat="46.99174" lon="8.66231">
        <ele>545</ele>
        <time>2021-08-05T09:48:16.448Z</time>
      </trkpt>
      <trkpt lat="46.99176" lon="8.66231">
        <ele>546</ele>
        <time>2021-08-05T09:48:17.448Z</time>
      </trkpt>
      <trkpt lat="46.99178" lon="8.66231">
        <ele>546</ele>
        <time>2021-08-05T09:48:18.448Z</time>
      </trkpt>
      <trkpt lat="46.9918" lon="8.66232">
        <ele>546</ele>
        <time>2021-08-05T09:48:19.448Z</time>
      </trkpt>
      <trkpt lat="46.99181" lon="8.66232">
        <ele>546</ele>
        <time>2021-08-05T09:48:20.448Z</time>
      </trkpt>
      <trkpt lat="46.99182" lon="8.66233">
        <ele>546</ele>
        <time>2021-08-05T09:48:21.448Z</time>
      </trkpt>
      <trkpt lat="46.99183" lon="8.66234">
        <ele>547</ele>
        <time>2021-08-05T09:48:22.448Z</time>
      </trkpt>
      <trkpt lat="46.99184" lon="8.66234">
        <ele>547</ele>
        <time>2021-08-05T09:48:23.448Z</time>
      </trkpt>
      <trkpt lat="46.99186" lon="8.66234">
        <ele>547</ele>
        <time>2021-08-05T09:48:24.448Z</time>
      </trkpt>
      <trkpt lat="46.99188" lon="8.66233">
        <ele>547</ele>
        <time>2021-08-05T09:48:25.448Z</time>
      </trkpt>
      <trkpt lat="46.9919" lon="8.66233">
        <ele>548</ele>
        <time>2021-08-05T09:48:26.448Z</time>
      </trkpt>
      <trkpt lat="46.99191" lon="8.66233">
        <ele>548</ele>
        <time>2021-08-05T09:48:27.448Z</time>
      </trkpt>
      <trkpt lat="46.99193" lon="8.66233">
        <ele>548</ele>
        <time>2021-08-05T09:48:28.448Z</time>
      </trkpt>
      <trkpt lat="46.99195" lon="8.66234">
        <ele>548</ele>
        <time>2021-08-05T09:48:29.448Z</time>
      </trkpt>
      <trkpt lat="46.99196" lon="8.66235">
        <ele>548</ele>
        <time>2021-08-05T09:48:30.448Z</time>
      </trkpt>
      <trkpt lat="46.99197" lon="8.66236">
        <ele>547</ele>
        <time>2021-08-05T09:48:31.448Z</time>
      </trkpt>
      <trkpt lat="46.992" lon="8.66237">
        <ele>547</ele>
        <time>2021-08-05T09:48:32.448Z</time>
      </trkpt>
      <trkpt lat="46.99202" lon="8.66238">
        <ele>547</ele>
        <time>2021-08-05T09:48:33.448Z</time>
      </trkpt>
      <trkpt lat="46.99202" lon="8.66238">
        <ele>547</ele>
        <time>2021-08-05T09:48:34.448Z</time>
      </trkpt>
      <trkpt lat="46.99202" lon="8.66238">
        <ele>547</ele>
        <time>2021-08-05T09:48:35.448Z</time>
      </trkpt>
      <trkpt lat="46.99202" lon="8.66239">
        <ele>546</ele>
        <time>2021-08-05T09:48:36.448Z</time>
      </trkpt>
      <trkpt lat="46.99202" lon="8.6624">
        <ele>546</ele>
        <time>2021-08-05T09:48:37.448Z</time>
      </trkpt>
      <trkpt lat="46.99204" lon="8.66239">
        <ele>545</ele>
        <time>2021-08-05T09:48:38.448Z</time>
      </trkpt>
      <trkpt lat="46.99205" lon="8.66239">
        <ele>545</ele>
        <time>2021-08-05T09:48:39.448Z</time>
      </trkpt>
      <trkpt lat="46.99207" lon="8.66239">
        <ele>545</ele>
        <time>2021-08-05T09:48:40.448Z</time>
      </trkpt>
      <trkpt lat="46.99208" lon="8.66239">
        <ele>544</ele>
        <time>2021-08-05T09:48:41.448Z</time>
      </trkpt>
      <trkpt lat="46.99209" lon="8.66239">
        <ele>544</ele>
        <time>2021-08-05T09:48:42.448Z</time>
      </trkpt>
      <trkpt lat="46.9921" lon="8.66239">
        <ele>544</ele>
        <time>2021-08-05T09:48:43.448Z</time>
      </trkpt>
      <trkpt lat="46.99211" lon="8.66239">
        <ele>543</ele>
        <time>2021-08-05T09:48:44.448Z</time>
      </trkpt>
      <trkpt lat="46.99212" lon="8.66239">
        <ele>544</ele>
        <time>2021-08-05T09:48:45.448Z</time>
      </trkpt>
      <trkpt lat="46.99213" lon="8.6624">
        <ele>544</ele>
        <time>2021-08-05T09:48:46.448Z</time>
      </trkpt>
      <trkpt lat="46.99214" lon="8.6624">
        <ele>544</ele>
        <time>2021-08-05T09:48:47.448Z</time>
      </trkpt>
      <trkpt lat="46.99216" lon="8.6624">
        <ele>543</ele>
        <time>2021-08-05T09:48:48.448Z</time>
      </trkpt>
      <trkpt lat="46.99217" lon="8.66241">
        <ele>543</ele>
        <time>2021-08-05T09:48:49.448Z</time>
      </trkpt>
      <trkpt lat="46.99217" lon="8.66242">
        <ele>543</ele>
        <time>2021-08-05T09:48:50.448Z</time>
      </trkpt>
      <trkpt lat="46.99218" lon="8.66243">
        <ele>543</ele>
        <time>2021-08-05T09:48:51.448Z</time>
      </trkpt>
      <trkpt lat="46.99219" lon="8.66243">
        <ele>543</ele>
        <time>2021-08-05T09:48:52.448Z</time>
      </trkpt>
      <trkpt lat="46.99222" lon="8.66243">
        <ele>544</ele>
        <time>2021-08-05T09:48:53.448Z</time>
      </trkpt>
      <trkpt lat="46.99224" lon="8.66244">
        <ele>544</ele>
        <time>2021-08-05T09:48:54.448Z</time>
      </trkpt>
      <trkpt lat="46.99225" lon="8.66245">
        <ele>544</ele>
        <time>2021-08-05T09:48:55.448Z</time>
      </trkpt>
      <trkpt lat="46.99225" lon="8.66247">
        <ele>544</ele>
        <time>2021-08-05T09:48:56.448Z</time>
      </trkpt>
      <trkpt lat="46.99226" lon="8.66248">
        <ele>544</ele>
        <time>2021-08-05T09:48:57.448Z</time>
      </trkpt>
      <trkpt lat="46.99227" lon="8.66251">
        <ele>544</ele>
        <time>2021-08-05T09:48:58.448Z</time>
      </trkpt>
      <trkpt lat="46.99228" lon="8.66253">
        <ele>544</ele>
        <time>2021-08-05T09:48:59.448Z</time>
      </trkpt>
      <trkpt lat="46.99228" lon="8.66254">
        <ele>544</ele>
        <time>2021-08-05T09:49:00.448Z</time>
      </trkpt>
      <trkpt lat="46.9923" lon="8.66254">
        <ele>544</ele>
        <time>2021-08-05T09:49:01.448Z</time>
      </trkpt>
      <trkpt lat="46.99231" lon="8.66254">
        <ele>545</ele>
        <time>2021-08-05T09:49:02.448Z</time>
      </trkpt>
      <trkpt lat="46.99232" lon="8.66253">
        <ele>545</ele>
        <time>2021-08-05T09:49:03.448Z</time>
      </trkpt>
      <trkpt lat="46.99234" lon="8.66253">
        <ele>545</ele>
        <time>2021-08-05T09:49:04.448Z</time>
      </trkpt>
      <trkpt lat="46.99234" lon="8.66253">
        <ele>545</ele>
        <time>2021-08-05T09:49:05.448Z</time>
      </trkpt>
      <trkpt lat="46.99234" lon="8.66253">
        <ele>544</ele>
        <time>2021-08-05T09:49:06.448Z</time>
      </trkpt>
      <trkpt lat="46.99234" lon="8.66254">
        <ele>544</ele>
        <time>2021-08-05T09:49:07.448Z</time>
      </trkpt>
      <trkpt lat="46.99232" lon="8.66255">
        <ele>543</ele>
        <time>2021-08-05T09:49:08.448Z</time>
      </trkpt>
      <trkpt lat="46.99231" lon="8.66257">
        <ele>537</ele>
        <time>2021-08-05T09:49:09.449Z</time>
      </trkpt>
      <trkpt lat="46.99232" lon="8.66256">
        <ele>537</ele>
        <time>2021-08-05T09:49:10.448Z</time>
      </trkpt>
      <trkpt lat="46.99233" lon="8.66255">
        <ele>537</ele>
        <time>2021-08-05T09:49:11.448Z</time>
      </trkpt>
      <trkpt lat="46.99234" lon="8.66254">
        <ele>537</ele>
        <time>2021-08-05T09:49:12.448Z</time>
      </trkpt>
      <trkpt lat="46.99234" lon="8.66253">
        <ele>542</ele>
        <time>2021-08-05T09:49:13.449Z</time>
      </trkpt>
      <trkpt lat="46.99235" lon="8.66252">
        <ele>543</ele>
        <time>2021-08-05T09:49:14.449Z</time>
      </trkpt>
      <trkpt lat="46.99235" lon="8.66251">
        <ele>544</ele>
        <time>2021-08-05T09:49:15.448Z</time>
      </trkpt>
      <trkpt lat="46.99235" lon="8.66251">
        <ele>545</ele>
        <time>2021-08-05T09:49:16.449Z</time>
      </trkpt>
      <trkpt lat="46.99235" lon="8.6625">
        <ele>546</ele>
        <time>2021-08-05T09:49:17.449Z</time>
      </trkpt>
      <trkpt lat="46.99235" lon="8.6625">
        <ele>547</ele>
        <time>2021-08-05T09:49:18.449Z</time>
      </trkpt>
      <trkpt lat="46.99233" lon="8.6625">
        <ele>548</ele>
        <time>2021-08-05T09:49:19.449Z</time>
      </trkpt>
      <trkpt lat="46.99233" lon="8.6625">
        <ele>549</ele>
        <time>2021-08-05T09:49:20.448Z</time>
      </trkpt>
      <trkpt lat="46.99234" lon="8.6625">
        <ele>550</ele>
        <time>2021-08-05T09:49:21.448Z</time>
      </trkpt>
      <trkpt lat="46.99235" lon="8.66251">
        <ele>550</ele>
        <time>2021-08-05T09:49:22.449Z</time>
      </trkpt>
      <trkpt lat="46.99236" lon="8.66251">
        <ele>551</ele>
        <time>2021-08-05T09:49:23.449Z</time>
      </trkpt>
      <trkpt lat="46.99237" lon="8.66251">
        <ele>551</ele>
        <time>2021-08-05T09:49:24.449Z</time>
      </trkpt>
      <trkpt lat="46.99238" lon="8.66251">
        <ele>552</ele>
        <time>2021-08-05T09:49:25.449Z</time>
      </trkpt>
      <trkpt lat="46.99238" lon="8.66251">
        <ele>552</ele>
        <time>2021-08-05T09:49:26.449Z</time>
      </trkpt>
      <trkpt lat="46.99238" lon="8.66251">
        <ele>552</ele>
        <time>2021-08-05T09:49:27.449Z</time>
      </trkpt>
      <trkpt lat="46.99238" lon="8.6625">
        <ele>552</ele>
        <time>2021-08-05T09:49:28.448Z</time>
      </trkpt>
      <trkpt lat="46.99239" lon="8.6625">
        <ele>552</ele>
        <time>2021-08-05T09:49:29.449Z</time>
      </trkpt>
      <trkpt lat="46.9924" lon="8.66249">
        <ele>552</ele>
        <time>2021-08-05T09:49:30.449Z</time>
      </trkpt>
      <trkpt lat="46.99241" lon="8.66249">
        <ele>552</ele>
        <time>2021-08-05T09:49:31.448Z</time>
      </trkpt>
      <trkpt lat="46.99242" lon="8.66248">
        <ele>551</ele>
        <time>2021-08-05T09:49:32.449Z</time>
      </trkpt>
      <trkpt lat="46.99242" lon="8.66248">
        <ele>551</ele>
        <time>2021-08-05T09:49:33.449Z</time>
      </trkpt>
      <trkpt lat="46.99243" lon="8.66247">
        <ele>550</ele>
        <time>2021-08-05T09:49:34.449Z</time>
      </trkpt>
      <trkpt lat="46.99244" lon="8.66246">
        <ele>550</ele>
        <time>2021-08-05T09:49:35.449Z</time>
      </trkpt>
      <trkpt lat="46.99246" lon="8.66244">
        <ele>550</ele>
        <time>2021-08-05T09:49:36.449Z</time>
      </trkpt>
      <trkpt lat="46.99247" lon="8.66244">
        <ele>549</ele>
        <time>2021-08-05T09:49:37.448Z</time>
      </trkpt>
      <trkpt lat="46.99248" lon="8.66243">
        <ele>549</ele>
        <time>2021-08-05T09:49:38.449Z</time>
      </trkpt>
      <trkpt lat="46.9925" lon="8.66242">
        <ele>548</ele>
        <time>2021-08-05T09:49:39.448Z</time>
      </trkpt>
      <trkpt lat="46.99251" lon="8.66242">
        <ele>548</ele>
        <time>2021-08-05T09:49:40.448Z</time>
      </trkpt>
      <trkpt lat="46.99251" lon="8.66242">
        <ele>547</ele>
        <time>2021-08-05T09:49:41.449Z</time>
      </trkpt>
      <trkpt lat="46.99252" lon="8.66241">
        <ele>547</ele>
        <time>2021-08-05T09:49:42.449Z</time>
      </trkpt>
      <trkpt lat="46.99252" lon="8.66241">
        <ele>546</ele>
        <time>2021-08-05T09:49:43.449Z</time>
      </trkpt>
      <trkpt lat="46.99252" lon="8.66241">
        <ele>546</ele>
        <time>2021-08-05T09:49:44.449Z</time>
      </trkpt>
      <trkpt lat="46.9925" lon="8.66237">
        <ele>544</ele>
        <time>2021-08-05T09:49:45.449Z</time>
      </trkpt>
      <trkpt lat="46.99248" lon="8.66236">
        <ele>543</ele>
        <time>2021-08-05T09:49:46.448Z</time>
      </trkpt>
      <trkpt lat="46.99246" lon="8.66235">
        <ele>543</ele>
        <time>2021-08-05T09:49:47.449Z</time>
      </trkpt>
      <trkpt lat="46.99246" lon="8.66235">
        <ele>542</ele>
        <time>2021-08-05T09:49:48.449Z</time>
      </trkpt>
      <trkpt lat="46.99246" lon="8.66234">
        <ele>541</ele>
        <time>2021-08-05T09:49:49.449Z</time>
      </trkpt>
      <trkpt lat="46.99245" lon="8.66233">
        <ele>541</ele>
        <time>2021-08-05T09:49:50.449Z</time>
      </trkpt>
      <trkpt lat="46.99246" lon="8.66232">
        <ele>540</ele>
        <time>2021-08-05T09:49:51.449Z</time>
      </trkpt>
      <trkpt lat="46.99246" lon="8.66232">
        <ele>540</ele>
        <time>2021-08-05T09:49:52.448Z</time>
      </trkpt>
      <trkpt lat="46.99246" lon="8.66232">
        <ele>539</ele>
        <time>2021-08-05T09:49:53.449Z</time>
      </trkpt>
      <trkpt lat="46.99247" lon="8.66231">
        <ele>539</ele>
        <time>2021-08-05T09:49:54.449Z</time>
      </trkpt>
      <trkpt lat="46.99249" lon="8.66231">
        <ele>539</ele>
        <time>2021-08-05T09:49:55.449Z</time>
      </trkpt>
      <trkpt lat="46.99251" lon="8.66231">
        <ele>540</ele>
        <time>2021-08-05T09:49:56.448Z</time>
      </trkpt>
      <trkpt lat="46.99253" lon="8.66231">
        <ele>540</ele>
        <time>2021-08-05T09:49:57.449Z</time>
      </trkpt>
      <trkpt lat="46.99255" lon="8.6623">
        <ele>540</ele>
        <time>2021-08-05T09:49:58.449Z</time>
      </trkpt>
      <trkpt lat="46.99258" lon="8.66231">
        <ele>540</ele>
        <time>2021-08-05T09:49:59.449Z</time>
      </trkpt>
      <trkpt lat="46.99258" lon="8.66231">
        <ele>540</ele>
        <time>2021-08-05T09:50:00.449Z</time>
      </trkpt>
      <trkpt lat="46.99259" lon="8.66231">
        <ele>540</ele>
        <time>2021-08-05T09:50:01.448Z</time>
      </trkpt>
      <trkpt lat="46.99259" lon="8.66231">
        <ele>540</ele>
        <time>2021-08-05T09:50:02.449Z</time>
      </trkpt>
      <trkpt lat="46.99259" lon="8.66231">
        <ele>540</ele>
        <time>2021-08-05T09:50:03.448Z</time>
      </trkpt>
      <trkpt lat="46.99258" lon="8.66231">
        <ele>540</ele>
        <time>2021-08-05T09:50:04.449Z</time>
      </trkpt>
      <trkpt lat="46.99259" lon="8.66231">
        <ele>540</ele>
        <time>2021-08-05T09:50:05.448Z</time>
      </trkpt>
      <trkpt lat="46.9926" lon="8.66232">
        <ele>540</ele>
        <time>2021-08-05T09:50:06.449Z</time>
      </trkpt>
      <trkpt lat="46.99261" lon="8.66232">
        <ele>540</ele>
        <time>2021-08-05T09:50:07.449Z</time>
      </trkpt>
      <trkpt lat="46.99263" lon="8.66233">
        <ele>539</ele>
        <time>2021-08-05T09:50:08.448Z</time>
      </trkpt>
      <trkpt lat="46.99264" lon="8.66233">
        <ele>539</ele>
        <time>2021-08-05T09:50:09.449Z</time>
      </trkpt>
      <trkpt lat="46.99266" lon="8.66234">
        <ele>539</ele>
        <time>2021-08-05T09:50:10.449Z</time>
      </trkpt>
      <trkpt lat="46.99267" lon="8.66234">
        <ele>539</ele>
        <time>2021-08-05T09:50:11.448Z</time>
      </trkpt>
      <trkpt lat="46.99268" lon="8.66235">
        <ele>539</ele>
        <time>2021-08-05T09:50:12.449Z</time>
      </trkpt>
      <trkpt lat="46.99269" lon="8.66235">
        <ele>539</ele>
        <time>2021-08-05T09:50:13.449Z</time>
      </trkpt>
      <trkpt lat="46.99271" lon="8.66236">
        <ele>540</ele>
        <time>2021-08-05T09:50:14.449Z</time>
      </trkpt>
      <trkpt lat="46.99271" lon="8.66236">
        <ele>540</ele>
        <time>2021-08-05T09:50:15.449Z</time>
      </trkpt>
      <trkpt lat="46.99271" lon="8.66237">
        <ele>540</ele>
        <time>2021-08-05T09:50:16.448Z</time>
      </trkpt>
      <trkpt lat="46.99272" lon="8.66237">
        <ele>540</ele>
        <time>2021-08-05T09:50:17.449Z</time>
      </trkpt>
      <trkpt lat="46.99273" lon="8.66235">
        <ele>540</ele>
        <time>2021-08-05T09:50:18.448Z</time>
      </trkpt>
      <trkpt lat="46.99274" lon="8.66234">
        <ele>540</ele>
        <time>2021-08-05T09:50:19.449Z</time>
      </trkpt>
      <trkpt lat="46.99275" lon="8.66234">
        <ele>540</ele>
        <time>2021-08-05T09:50:20.448Z</time>
      </trkpt>
      <trkpt lat="46.99275" lon="8.66235">
        <ele>540</ele>
        <time>2021-08-05T09:50:21.449Z</time>
      </trkpt>
      <trkpt lat="46.99275" lon="8.66236">
        <ele>540</ele>
        <time>2021-08-05T09:50:22.449Z</time>
      </trkpt>
      <trkpt lat="46.99275" lon="8.66237">
        <ele>540</ele>
        <time>2021-08-05T09:50:23.448Z</time>
      </trkpt>
      <trkpt lat="46.99275" lon="8.66238">
        <ele>540</ele>
        <time>2021-08-05T09:50:24.448Z</time>
      </trkpt>
      <trkpt lat="46.99275" lon="8.66239">
        <ele>540</ele>
        <time>2021-08-05T09:50:25.448Z</time>
      </trkpt>
      <trkpt lat="46.99275" lon="8.66239">
        <ele>540</ele>
        <time>2021-08-05T09:50:26.448Z</time>
      </trkpt>
      <trkpt lat="46.99275" lon="8.6624">
        <ele>541</ele>
        <time>2021-08-05T09:50:27.449Z</time>
      </trkpt>
      <trkpt lat="46.99275" lon="8.6624">
        <ele>541</ele>
        <time>2021-08-05T09:50:28.448Z</time>
      </trkpt>
      <trkpt lat="46.99276" lon="8.6624">
        <ele>541</ele>
        <time>2021-08-05T09:50:29.448Z</time>
      </trkpt>
      <trkpt lat="46.99276" lon="8.66241">
        <ele>541</ele>
        <time>2021-08-05T09:50:30.448Z</time>
      </trkpt>
      <trkpt lat="46.99276" lon="8.66242">
        <ele>540</ele>
        <time>2021-08-05T09:50:31.448Z</time>
      </trkpt>
      <trkpt lat="46.99276" lon="8.66243">
        <ele>540</ele>
        <time>2021-08-05T09:50:32.449Z</time>
      </trkpt>
      <trkpt lat="46.99277" lon="8.66243">
        <ele>540</ele>
        <time>2021-08-05T09:50:33.448Z</time>
      </trkpt>
      <trkpt lat="46.99278" lon="8.66244">
        <ele>540</ele>
        <time>2021-08-05T09:50:34.448Z</time>
      </trkpt>
      <trkpt lat="46.99278" lon="8.66245">
        <ele>540</ele>
        <time>2021-08-05T09:50:35.448Z</time>
      </trkpt>
      <trkpt lat="46.99279" lon="8.66246">
        <ele>540</ele>
        <time>2021-08-05T09:50:36.448Z</time>
      </trkpt>
      <trkpt lat="46.9928" lon="8.66247">
        <ele>540</ele>
        <time>2021-08-05T09:50:37.448Z</time>
      </trkpt>
      <trkpt lat="46.99281" lon="8.66248">
        <ele>540</ele>
        <time>2021-08-05T09:50:38.448Z</time>
      </trkpt>
      <trkpt lat="46.99281" lon="8.66248">
        <ele>540</ele>
        <time>2021-08-05T09:50:39.448Z</time>
      </trkpt>
      <trkpt lat="46.99281" lon="8.66249">
        <ele>540</ele>
        <time>2021-08-05T09:50:40.448Z</time>
      </trkpt>
      <trkpt lat="46.99281" lon="8.6625">
        <ele>540</ele>
        <time>2021-08-05T09:50:41.448Z</time>
      </trkpt>
      <trkpt lat="46.99281" lon="8.66251">
        <ele>540</ele>
        <time>2021-08-05T09:50:42.448Z</time>
      </trkpt>
      <trkpt lat="46.9928" lon="8.66252">
        <ele>540</ele>
        <time>2021-08-05T09:50:43.449Z</time>
      </trkpt>
      <trkpt lat="46.99279" lon="8.66254">
        <ele>540</ele>
        <time>2021-08-05T09:50:44.448Z</time>
      </trkpt>
      <trkpt lat="46.99279" lon="8.66255">
        <ele>540</ele>
        <time>2021-08-05T09:50:45.448Z</time>
      </trkpt>
      <trkpt lat="46.99279" lon="8.66258">
        <ele>540</ele>
        <time>2021-08-05T09:50:46.448Z</time>
      </trkpt>
      <trkpt lat="46.99279" lon="8.66261">
        <ele>540</ele>
        <time>2021-08-05T09:50:47.449Z</time>
      </trkpt>
      <trkpt lat="46.9928" lon="8.66264">
        <ele>540</ele>
        <time>2021-08-05T09:50:48.448Z</time>
      </trkpt>
      <trkpt lat="46.9928" lon="8.66266">
        <ele>540</ele>
        <time>2021-08-05T09:50:49.448Z</time>
      </trkpt>
      <trkpt lat="46.9928" lon="8.66268">
        <ele>540</ele>
        <time>2021-08-05T09:50:50.449Z</time>
      </trkpt>
      <trkpt lat="46.99279" lon="8.6627">
        <ele>540</ele>
        <time>2021-08-05T09:50:51.449Z</time>
      </trkpt>
      <trkpt lat="46.99279" lon="8.66272">
        <ele>540</ele>
        <time>2021-08-05T09:50:52.449Z</time>
      </trkpt>
      <trkpt lat="46.99279" lon="8.66273">
        <ele>539</ele>
        <time>2021-08-05T09:50:53.448Z</time>
      </trkpt>
      <trkpt lat="46.99279" lon="8.66274">
        <ele>539</ele>
        <time>2021-08-05T09:50:54.449Z</time>
      </trkpt>
      <trkpt lat="46.99279" lon="8.66276">
        <ele>538</ele>
        <time>2021-08-05T09:50:55.449Z</time>
      </trkpt>
      <trkpt lat="46.99278" lon="8.66278">
        <ele>537</ele>
        <time>2021-08-05T09:50:56.449Z</time>
      </trkpt>
      <trkpt lat="46.99279" lon="8.66279">
        <ele>537</ele>
        <time>2021-08-05T09:50:57.449Z</time>
      </trkpt>
      <trkpt lat="46.9928" lon="8.66281">
        <ele>536</ele>
        <time>2021-08-05T09:50:58.449Z</time>
      </trkpt>
      <trkpt lat="46.9928" lon="8.66283">
        <ele>535</ele>
        <time>2021-08-05T09:50:59.448Z</time>
      </trkpt>
      <trkpt lat="46.99279" lon="8.66286">
        <ele>535</ele>
        <time>2021-08-05T09:51:00.449Z</time>
      </trkpt>
      <trkpt lat="46.99279" lon="8.66289">
        <ele>535</ele>
        <time>2021-08-05T09:51:01.449Z</time>
      </trkpt>
      <trkpt lat="46.99279" lon="8.66291">
        <ele>534</ele>
        <time>2021-08-05T09:51:02.448Z</time>
      </trkpt>
      <trkpt lat="46.99281" lon="8.66293">
        <ele>534</ele>
        <time>2021-08-05T09:51:03.449Z</time>
      </trkpt>
      <trkpt lat="46.99282" lon="8.66294">
        <ele>533</ele>
        <time>2021-08-05T09:51:04.448Z</time>
      </trkpt>
      <trkpt lat="46.99282" lon="8.66294">
        <ele>533</ele>
        <time>2021-08-05T09:51:05.449Z</time>
      </trkpt>
      <trkpt lat="46.99281" lon="8.66295">
        <ele>533</ele>
        <time>2021-08-05T09:51:06.449Z</time>
      </trkpt>
      <trkpt lat="46.99281" lon="8.66297">
        <ele>533</ele>
        <time>2021-08-05T09:51:07.448Z</time>
      </trkpt>
      <trkpt lat="46.99281" lon="8.663">
        <ele>533</ele>
        <time>2021-08-05T09:51:08.448Z</time>
      </trkpt>
      <trkpt lat="46.99279" lon="8.66302">
        <ele>532</ele>
        <time>2021-08-05T09:51:09.449Z</time>
      </trkpt>
      <trkpt lat="46.99277" lon="8.66306">
        <ele>532</ele>
        <time>2021-08-05T09:51:10.450Z</time>
      </trkpt>
      <trkpt lat="46.99275" lon="8.66308">
        <ele>532</ele>
        <time>2021-08-05T09:51:11.450Z</time>
      </trkpt>
      <trkpt lat="46.99275" lon="8.66309">
        <ele>532</ele>
        <time>2021-08-05T09:51:12.450Z</time>
      </trkpt>
      <trkpt lat="46.99276" lon="8.66309">
        <ele>532</ele>
        <time>2021-08-05T09:51:13.450Z</time>
      </trkpt>
      <trkpt lat="46.99276" lon="8.6631">
        <ele>532</ele>
        <time>2021-08-05T09:51:14.450Z</time>
      </trkpt>
      <trkpt lat="46.99276" lon="8.66311">
        <ele>532</ele>
        <time>2021-08-05T09:51:15.449Z</time>
      </trkpt>
      <trkpt lat="46.99276" lon="8.66312">
        <ele>532</ele>
        <time>2021-08-05T09:51:16.449Z</time>
      </trkpt>
      <trkpt lat="46.99276" lon="8.66313">
        <ele>532</ele>
        <time>2021-08-05T09:51:17.449Z</time>
      </trkpt>
      <trkpt lat="46.99276" lon="8.66313">
        <ele>533</ele>
        <time>2021-08-05T09:51:18.450Z</time>
      </trkpt>
      <trkpt lat="46.99276" lon="8.66315">
        <ele>533</ele>
        <time>2021-08-05T09:51:19.450Z</time>
      </trkpt>
      <trkpt lat="46.99275" lon="8.66315">
        <ele>533</ele>
        <time>2021-08-05T09:51:20.450Z</time>
      </trkpt>
      <trkpt lat="46.99273" lon="8.66315">
        <ele>534</ele>
        <time>2021-08-05T09:51:21.450Z</time>
      </trkpt>
      <trkpt lat="46.99273" lon="8.66316">
        <ele>534</ele>
        <time>2021-08-05T09:51:22.449Z</time>
      </trkpt>
      <trkpt lat="46.99272" lon="8.66316">
        <ele>534</ele>
        <time>2021-08-05T09:51:23.449Z</time>
      </trkpt>
      <trkpt lat="46.99272" lon="8.66317">
        <ele>534</ele>
        <time>2021-08-05T09:51:24.450Z</time>
      </trkpt>
      <trkpt lat="46.99271" lon="8.66318">
        <ele>534</ele>
        <time>2021-08-05T09:51:25.450Z</time>
      </trkpt>
      <trkpt lat="46.9927" lon="8.66319">
        <ele>534</ele>
        <time>2021-08-05T09:51:26.449Z</time>
      </trkpt>
      <trkpt lat="46.99268" lon="8.6632">
        <ele>534</ele>
        <time>2021-08-05T09:51:27.450Z</time>
      </trkpt>
      <trkpt lat="46.99268" lon="8.66321">
        <ele>534</ele>
        <time>2021-08-05T09:51:28.450Z</time>
      </trkpt>
      <trkpt lat="46.99267" lon="8.66322">
        <ele>534</ele>
        <time>2021-08-05T09:51:29.450Z</time>
      </trkpt>
      <trkpt lat="46.99267" lon="8.66323">
        <ele>534</ele>
        <time>2021-08-05T09:51:30.450Z</time>
      </trkpt>
      <trkpt lat="46.99266" lon="8.66324">
        <ele>533</ele>
        <time>2021-08-05T09:51:31.450Z</time>
      </trkpt>
      <trkpt lat="46.99265" lon="8.66325">
        <ele>533</ele>
        <time>2021-08-05T09:51:32.449Z</time>
      </trkpt>
      <trkpt lat="46.99264" lon="8.66326">
        <ele>533</ele>
        <time>2021-08-05T09:51:33.450Z</time>
      </trkpt>
      <trkpt lat="46.99263" lon="8.66327">
        <ele>533</ele>
        <time>2021-08-05T09:51:34.449Z</time>
      </trkpt>
      <trkpt lat="46.99263" lon="8.66327">
        <ele>534</ele>
        <time>2021-08-05T09:51:35.449Z</time>
      </trkpt>
      <trkpt lat="46.99263" lon="8.66326">
        <ele>534</ele>
        <time>2021-08-05T09:51:36.450Z</time>
      </trkpt>
      <trkpt lat="46.99264" lon="8.66326">
        <ele>534</ele>
        <time>2021-08-05T09:51:37.450Z</time>
      </trkpt>
      <trkpt lat="46.99263" lon="8.66327">
        <ele>534</ele>
        <time>2021-08-05T09:51:38.450Z</time>
      </trkpt>
      <trkpt lat="46.99263" lon="8.66327">
        <ele>535</ele>
        <time>2021-08-05T09:51:39.450Z</time>
      </trkpt>
      <trkpt lat="46.99262" lon="8.66328">
        <ele>535</ele>
        <time>2021-08-05T09:51:40.449Z</time>
      </trkpt>
      <trkpt lat="46.9926" lon="8.6633">
        <ele>535</ele>
        <time>2021-08-05T09:51:41.450Z</time>
      </trkpt>
      <trkpt lat="46.99259" lon="8.66332">
        <ele>535</ele>
        <time>2021-08-05T09:51:42.450Z</time>
      </trkpt>
      <trkpt lat="46.99257" lon="8.66333">
        <ele>534</ele>
        <time>2021-08-05T09:51:43.450Z</time>
      </trkpt>
      <trkpt lat="46.99256" lon="8.66334">
        <ele>533</ele>
        <time>2021-08-05T09:51:44.449Z</time>
      </trkpt>
      <trkpt lat="46.99256" lon="8.66335">
        <ele>533</ele>
        <time>2021-08-05T09:51:45.449Z</time>
      </trkpt>
      <trkpt lat="46.99256" lon="8.66335">
        <ele>532</ele>
        <time>2021-08-05T09:51:46.450Z</time>
      </trkpt>
      <trkpt lat="46.99255" lon="8.66336">
        <ele>532</ele>
        <time>2021-08-05T09:51:47.450Z</time>
      </trkpt>
      <trkpt lat="46.99255" lon="8.66337">
        <ele>531</ele>
        <time>2021-08-05T09:51:48.450Z</time>
      </trkpt>
      <trkpt lat="46.99255" lon="8.66338">
        <ele>531</ele>
        <time>2021-08-05T09:51:49.450Z</time>
      </trkpt>
      <trkpt lat="46.99255" lon="8.66339">
        <ele>531</ele>
        <time>2021-08-05T09:51:50.450Z</time>
      </trkpt>
      <trkpt lat="46.99254" lon="8.6634">
        <ele>530</ele>
        <time>2021-08-05T09:51:51.449Z</time>
      </trkpt>
      <trkpt lat="46.99253" lon="8.66341">
        <ele>529</ele>
        <time>2021-08-05T09:51:52.449Z</time>
      </trkpt>
      <trkpt lat="46.99253" lon="8.66342">
        <ele>529</ele>
        <time>2021-08-05T09:51:53.450Z</time>
      </trkpt>
      <trkpt lat="46.99253" lon="8.66343">
        <ele>528</ele>
        <time>2021-08-05T09:51:54.449Z</time>
      </trkpt>
      <trkpt lat="46.99253" lon="8.66344">
        <ele>528</ele>
        <time>2021-08-05T09:51:55.450Z</time>
      </trkpt>
      <trkpt lat="46.99252" lon="8.66345">
        <ele>527</ele>
        <time>2021-08-05T09:51:56.450Z</time>
      </trkpt>
      <trkpt lat="46.99252" lon="8.66347">
        <ele>527</ele>
        <time>2021-08-05T09:51:57.450Z</time>
      </trkpt>
      <trkpt lat="46.99252" lon="8.66348">
        <ele>527</ele>
        <time>2021-08-05T09:51:58.450Z</time>
      </trkpt>
      <trkpt lat="46.99252" lon="8.66349">
        <ele>526</ele>
        <time>2021-08-05T09:51:59.450Z</time>
      </trkpt>
      <trkpt lat="46.99252" lon="8.66351">
        <ele>526</ele>
        <time>2021-08-05T09:52:00.450Z</time>
      </trkpt>
      <trkpt lat="46.9925" lon="8.66352">
        <ele>525</ele>
        <time>2021-08-05T09:52:01.449Z</time>
      </trkpt>
      <trkpt lat="46.99249" lon="8.66354">
        <ele>525</ele>
        <time>2021-08-05T09:52:02.450Z</time>
      </trkpt>
      <trkpt lat="46.99249" lon="8.66355">
        <ele>525</ele>
        <time>2021-08-05T09:52:03.450Z</time>
      </trkpt>
      <trkpt lat="46.99249" lon="8.66355">
        <ele>525</ele>
        <time>2021-08-05T09:52:04.450Z</time>
      </trkpt>
      <trkpt lat="46.9925" lon="8.66356">
        <ele>526</ele>
        <time>2021-08-05T09:52:05.449Z</time>
      </trkpt>
      <trkpt lat="46.99249" lon="8.66358">
        <ele>526</ele>
        <time>2021-08-05T09:52:06.450Z</time>
      </trkpt>
      <trkpt lat="46.99248" lon="8.66359">
        <ele>527</ele>
        <time>2021-08-05T09:52:07.450Z</time>
      </trkpt>
      <trkpt lat="46.99248" lon="8.6636">
        <ele>528</ele>
        <time>2021-08-05T09:52:08.450Z</time>
      </trkpt>
      <trkpt lat="46.99249" lon="8.6636">
        <ele>528</ele>
        <time>2021-08-05T09:52:09.450Z</time>
      </trkpt>
      <trkpt lat="46.99249" lon="8.66361">
        <ele>529</ele>
        <time>2021-08-05T09:52:10.450Z</time>
      </trkpt>
      <trkpt lat="46.99249" lon="8.66362">
        <ele>530</ele>
        <time>2021-08-05T09:52:11.450Z</time>
      </trkpt>
      <trkpt lat="46.99249" lon="8.66364">
        <ele>530</ele>
        <time>2021-08-05T09:52:12.450Z</time>
      </trkpt>
      <trkpt lat="46.99248" lon="8.66366">
        <ele>530</ele>
        <time>2021-08-05T09:52:13.450Z</time>
      </trkpt>
      <trkpt lat="46.99248" lon="8.66367">
        <ele>531</ele>
        <time>2021-08-05T09:52:14.450Z</time>
      </trkpt>
      <trkpt lat="46.99248" lon="8.66368">
        <ele>531</ele>
        <time>2021-08-05T09:52:15.450Z</time>
      </trkpt>
      <trkpt lat="46.99248" lon="8.66369">
        <ele>532</ele>
        <time>2021-08-05T09:52:16.450Z</time>
      </trkpt>
      <trkpt lat="46.99248" lon="8.66369">
        <ele>533</ele>
        <time>2021-08-05T09:52:17.450Z</time>
      </trkpt>
      <trkpt lat="46.99249" lon="8.6637">
        <ele>534</ele>
        <time>2021-08-05T09:52:18.450Z</time>
      </trkpt>
      <trkpt lat="46.9925" lon="8.66372">
        <ele>535</ele>
        <time>2021-08-05T09:52:19.449Z</time>
      </trkpt>
      <trkpt lat="46.9925" lon="8.66373">
        <ele>535</ele>
        <time>2021-08-05T09:52:20.449Z</time>
      </trkpt>
      <trkpt lat="46.9925" lon="8.66375">
        <ele>536</ele>
        <time>2021-08-05T09:52:21.449Z</time>
      </trkpt>
      <trkpt lat="46.9925" lon="8.66376">
        <ele>537</ele>
        <time>2021-08-05T09:52:22.449Z</time>
      </trkpt>
      <trkpt lat="46.9925" lon="8.66378">
        <ele>538</ele>
        <time>2021-08-05T09:52:23.450Z</time>
      </trkpt>
      <trkpt lat="46.99249" lon="8.6638">
        <ele>539</ele>
        <time>2021-08-05T09:52:24.450Z</time>
      </trkpt>
      <trkpt lat="46.99249" lon="8.66382">
        <ele>540</ele>
        <time>2021-08-05T09:52:25.450Z</time>
      </trkpt>
      <trkpt lat="46.99249" lon="8.66383">
        <ele>540</ele>
        <time>2021-08-05T09:52:26.450Z</time>
      </trkpt>
      <trkpt lat="46.9925" lon="8.66384">
        <ele>541</ele>
        <time>2021-08-05T09:52:27.450Z</time>
      </trkpt>
      <trkpt lat="46.9925" lon="8.66385">
        <ele>542</ele>
        <time>2021-08-05T09:52:28.450Z</time>
      </trkpt>
      <trkpt lat="46.99251" lon="8.66386">
        <ele>542</ele>
        <time>2021-08-05T09:52:29.450Z</time>
      </trkpt>
      <trkpt lat="46.99251" lon="8.66387">
        <ele>543</ele>
        <time>2021-08-05T09:52:30.449Z</time>
      </trkpt>
      <trkpt lat="46.99251" lon="8.66388">
        <ele>544</ele>
        <time>2021-08-05T09:52:31.449Z</time>
      </trkpt>
      <trkpt lat="46.9925" lon="8.66389">
        <ele>544</ele>
        <time>2021-08-05T09:52:32.450Z</time>
      </trkpt>
      <trkpt lat="46.9925" lon="8.66391">
        <ele>544</ele>
        <time>2021-08-05T09:52:33.450Z</time>
      </trkpt>
      <trkpt lat="46.9925" lon="8.66392">
        <ele>545</ele>
        <time>2021-08-05T09:52:34.450Z</time>
      </trkpt>
      <trkpt lat="46.99249" lon="8.66392">
        <ele>545</ele>
        <time>2021-08-05T09:52:35.449Z</time>
      </trkpt>
      <trkpt lat="46.9925" lon="8.66393">
        <ele>546</ele>
        <time>2021-08-05T09:52:36.449Z</time>
      </trkpt>
      <trkpt lat="46.9925" lon="8.66394">
        <ele>547</ele>
        <time>2021-08-05T09:52:37.449Z</time>
      </trkpt>
      <trkpt lat="46.99251" lon="8.66395">
        <ele>547</ele>
        <time>2021-08-05T09:52:38.449Z</time>
      </trkpt>
      <trkpt lat="46.99252" lon="8.66395">
        <ele>548</ele>
        <time>2021-08-05T09:52:39.450Z</time>
      </trkpt>
      <trkpt lat="46.99253" lon="8.66397">
        <ele>549</ele>
        <time>2021-08-05T09:52:40.449Z</time>
      </trkpt>
      <trkpt lat="46.99253" lon="8.66398">
        <ele>549</ele>
        <time>2021-08-05T09:52:41.450Z</time>
      </trkpt>
      <trkpt lat="46.99254" lon="8.66398">
        <ele>550</ele>
        <time>2021-08-05T09:52:42.449Z</time>
      </trkpt>
      <trkpt lat="46.99254" lon="8.66398">
        <ele>550</ele>
        <time>2021-08-05T09:52:43.450Z</time>
      </trkpt>
      <trkpt lat="46.99254" lon="8.66397">
        <ele>550</ele>
        <time>2021-08-05T09:52:44.450Z</time>
      </trkpt>
      <trkpt lat="46.99254" lon="8.66395">
        <ele>550</ele>
        <time>2021-08-05T09:52:45.450Z</time>
      </trkpt>
      <trkpt lat="46.99254" lon="8.66394">
        <ele>550</ele>
        <time>2021-08-05T09:52:46.449Z</time>
      </trkpt>
      <trkpt lat="46.99255" lon="8.66393">
        <ele>550</ele>
        <time>2021-08-05T09:52:47.449Z</time>
      </trkpt>
      <trkpt lat="46.99255" lon="8.66393">
        <ele>550</ele>
        <time>2021-08-05T09:52:48.449Z</time>
      </trkpt>
      <trkpt lat="46.99255" lon="8.66394">
        <ele>550</ele>
        <time>2021-08-05T09:52:49.449Z</time>
      </trkpt>
      <trkpt lat="46.99254" lon="8.66395">
        <ele>550</ele>
        <time>2021-08-05T09:52:50.449Z</time>
      </trkpt>
      <trkpt lat="46.99254" lon="8.66397">
        <ele>550</ele>
        <time>2021-08-05T09:52:51.450Z</time>
      </trkpt>
      <trkpt lat="46.99253" lon="8.66398">
        <ele>550</ele>
        <time>2021-08-05T09:52:52.450Z</time>
      </trkpt>
      <trkpt lat="46.99253" lon="8.66399">
        <ele>550</ele>
        <time>2021-08-05T09:52:53.450Z</time>
      </trkpt>
      <trkpt lat="46.99252" lon="8.66399">
        <ele>550</ele>
        <time>2021-08-05T09:52:54.450Z</time>
      </trkpt>
      <trkpt lat="46.99253" lon="8.664">
        <ele>550</ele>
        <time>2021-08-05T09:52:55.450Z</time>
      </trkpt>
      <trkpt lat="46.99253" lon="8.66401">
        <ele>550</ele>
        <time>2021-08-05T09:52:56.449Z</time>
      </trkpt>
      <trkpt lat="46.99253" lon="8.66402">
        <ele>550</ele>
        <time>2021-08-05T09:52:57.449Z</time>
      </trkpt>
      <trkpt lat="46.99253" lon="8.66404">
        <ele>550</ele>
        <time>2021-08-05T09:52:58.449Z</time>
      </trkpt>
      <trkpt lat="46.99252" lon="8.66406">
        <ele>550</ele>
        <time>2021-08-05T09:52:59.449Z</time>
      </trkpt>
      <trkpt lat="46.99252" lon="8.66407">
        <ele>550</ele>
        <time>2021-08-05T09:53:00.450Z</time>
      </trkpt>
      <trkpt lat="46.99253" lon="8.66409">
        <ele>550</ele>
        <time>2021-08-05T09:53:01.450Z</time>
      </trkpt>
      <trkpt lat="46.99253" lon="8.66411">
        <ele>550</ele>
        <time>2021-08-05T09:53:02.449Z</time>
      </trkpt>
      <trkpt lat="46.99252" lon="8.66414">
        <ele>549</ele>
        <time>2021-08-05T09:53:03.449Z</time>
      </trkpt>
      <trkpt lat="46.99253" lon="8.66416">
        <ele>549</ele>
        <time>2021-08-05T09:53:04.450Z</time>
      </trkpt>
      <trkpt lat="46.99252" lon="8.66419">
        <ele>549</ele>
        <time>2021-08-05T09:53:05.450Z</time>
      </trkpt>
      <trkpt lat="46.99252" lon="8.66423">
        <ele>549</ele>
        <time>2021-08-05T09:53:06.450Z</time>
      </trkpt>
      <trkpt lat="46.99253" lon="8.66426">
        <ele>548</ele>
        <time>2021-08-05T09:53:07.450Z</time>
      </trkpt>
      <trkpt lat="46.99254" lon="8.66427">
        <ele>548</ele>
        <time>2021-08-05T09:53:08.450Z</time>
      </trkpt>
      <trkpt lat="46.99254" lon="8.66428">
        <ele>548</ele>
        <time>2021-08-05T09:53:09.450Z</time>
      </trkpt>
      <trkpt lat="46.99253" lon="8.6643">
        <ele>547</ele>
        <time>2021-08-05T09:53:10.450Z</time>
      </trkpt>
      <trkpt lat="46.99254" lon="8.6643">
        <ele>547</ele>
        <time>2021-08-05T09:53:11.450Z</time>
      </trkpt>
      <trkpt lat="46.99254" lon="8.6643">
        <ele>547</ele>
        <time>2021-08-05T09:53:12.449Z</time>
      </trkpt>
      <trkpt lat="46.99256" lon="8.6643">
        <ele>547</ele>
        <time>2021-08-05T09:53:13.449Z</time>
      </trkpt>
      <trkpt lat="46.99256" lon="8.66432">
        <ele>547</ele>
        <time>2021-08-05T09:53:14.450Z</time>
      </trkpt>
      <trkpt lat="46.99257" lon="8.66433">
        <ele>547</ele>
        <time>2021-08-05T09:53:15.450Z</time>
      </trkpt>
      <trkpt lat="46.99257" lon="8.66435">
        <ele>547</ele>
        <time>2021-08-05T09:53:16.450Z</time>
      </trkpt>
      <trkpt lat="46.99258" lon="8.66436">
        <ele>547</ele>
        <time>2021-08-05T09:53:17.450Z</time>
      </trkpt>
      <trkpt lat="46.9926" lon="8.66437">
        <ele>547</ele>
        <time>2021-08-05T09:53:18.449Z</time>
      </trkpt>
      <trkpt lat="46.9926" lon="8.66438">
        <ele>547</ele>
        <time>2021-08-05T09:53:19.450Z</time>
      </trkpt>
      <trkpt lat="46.99261" lon="8.66439">
        <ele>547</ele>
        <time>2021-08-05T09:53:20.449Z</time>
      </trkpt>
      <trkpt lat="46.99261" lon="8.6644">
        <ele>547</ele>
        <time>2021-08-05T09:53:21.449Z</time>
      </trkpt>
      <trkpt lat="46.99261" lon="8.66442">
        <ele>547</ele>
        <time>2021-08-05T09:53:22.450Z</time>
      </trkpt>
      <trkpt lat="46.99261" lon="8.66443">
        <ele>547</ele>
        <time>2021-08-05T09:53:23.449Z</time>
      </trkpt>
      <trkpt lat="46.99262" lon="8.66445">
        <ele>547</ele>
        <time>2021-08-05T09:53:24.450Z</time>
      </trkpt>
      <trkpt lat="46.99263" lon="8.66446">
        <ele>547</ele>
        <time>2021-08-05T09:53:25.450Z</time>
      </trkpt>
      <trkpt lat="46.99265" lon="8.66446">
        <ele>547</ele>
        <time>2021-08-05T09:53:26.450Z</time>
      </trkpt>
      <trkpt lat="46.99266" lon="8.66447">
        <ele>547</ele>
        <time>2021-08-05T09:53:27.450Z</time>
      </trkpt>
      <trkpt lat="46.99266" lon="8.66448">
        <ele>546</ele>
        <time>2021-08-05T09:53:28.450Z</time>
      </trkpt>
      <trkpt lat="46.99266" lon="8.66449">
        <ele>546</ele>
        <time>2021-08-05T09:53:29.450Z</time>
      </trkpt>
      <trkpt lat="46.99266" lon="8.6645">
        <ele>545</ele>
        <time>2021-08-05T09:53:30.450Z</time>
      </trkpt>
      <trkpt lat="46.99266" lon="8.66451">
        <ele>544</ele>
        <time>2021-08-05T09:53:31.450Z</time>
      </trkpt>
      <trkpt lat="46.99266" lon="8.66452">
        <ele>544</ele>
        <time>2021-08-05T09:53:32.450Z</time>
      </trkpt>
      <trkpt lat="46.99266" lon="8.66453">
        <ele>543</ele>
        <time>2021-08-05T09:53:33.450Z</time>
      </trkpt>
      <trkpt lat="46.99266" lon="8.66455">
        <ele>542</ele>
        <time>2021-08-05T09:53:34.450Z</time>
      </trkpt>
      <trkpt lat="46.99266" lon="8.66456">
        <ele>542</ele>
        <time>2021-08-05T09:53:35.449Z</time>
      </trkpt>
      <trkpt lat="46.99266" lon="8.66458">
        <ele>542</ele>
        <time>2021-08-05T09:53:36.450Z</time>
      </trkpt>
      <trkpt lat="46.99266" lon="8.66459">
        <ele>541</ele>
        <time>2021-08-05T09:53:37.450Z</time>
      </trkpt>
      <trkpt lat="46.99266" lon="8.66461">
        <ele>541</ele>
        <time>2021-08-05T09:53:38.450Z</time>
      </trkpt>
      <trkpt lat="46.99266" lon="8.66463">
        <ele>541</ele>
        <time>2021-08-05T09:53:39.450Z</time>
      </trkpt>
      <trkpt lat="46.99266" lon="8.66465">
        <ele>540</ele>
        <time>2021-08-05T09:53:40.449Z</time>
      </trkpt>
      <trkpt lat="46.99266" lon="8.66466">
        <ele>540</ele>
        <time>2021-08-05T09:53:41.450Z</time>
      </trkpt>
      <trkpt lat="46.99267" lon="8.66468">
        <ele>540</ele>
        <time>2021-08-05T09:53:42.450Z</time>
      </trkpt>
      <trkpt lat="46.99268" lon="8.66469">
        <ele>539</ele>
        <time>2021-08-05T09:53:43.450Z</time>
      </trkpt>
      <trkpt lat="46.99269" lon="8.6647">
        <ele>539</ele>
        <time>2021-08-05T09:53:44.450Z</time>
      </trkpt>
      <trkpt lat="46.99269" lon="8.66472">
        <ele>539</ele>
        <time>2021-08-05T09:53:45.450Z</time>
      </trkpt>
      <trkpt lat="46.9927" lon="8.66474">
        <ele>539</ele>
        <time>2021-08-05T09:53:46.449Z</time>
      </trkpt>
      <trkpt lat="46.9927" lon="8.66476">
        <ele>539</ele>
        <time>2021-08-05T09:53:47.450Z</time>
      </trkpt>
      <trkpt lat="46.99269" lon="8.66479">
        <ele>539</ele>
        <time>2021-08-05T09:53:48.450Z</time>
      </trkpt>
      <trkpt lat="46.99268" lon="8.66482">
        <ele>539</ele>
        <time>2021-08-05T09:53:49.449Z</time>
      </trkpt>
      <trkpt lat="46.99268" lon="8.66484">
        <ele>538</ele>
        <time>2021-08-05T09:53:50.449Z</time>
      </trkpt>
      <trkpt lat="46.99269" lon="8.66485">
        <ele>538</ele>
        <time>2021-08-05T09:53:51.449Z</time>
      </trkpt>
      <trkpt lat="46.99269" lon="8.66487">
        <ele>538</ele>
        <time>2021-08-05T09:53:52.450Z</time>
      </trkpt>
      <trkpt lat="46.9927" lon="8.66488">
        <ele>537</ele>
        <time>2021-08-05T09:53:53.450Z</time>
      </trkpt>
      <trkpt lat="46.99271" lon="8.6649">
        <ele>537</ele>
        <time>2021-08-05T09:53:54.450Z</time>
      </trkpt>
      <trkpt lat="46.99272" lon="8.66492">
        <ele>537</ele>
        <time>2021-08-05T09:53:55.450Z</time>
      </trkpt>
      <trkpt lat="46.99272" lon="8.66493">
        <ele>537</ele>
        <time>2021-08-05T09:53:56.450Z</time>
      </trkpt>
      <trkpt lat="46.99272" lon="8.66495">
        <ele>537</ele>
        <time>2021-08-05T09:53:57.450Z</time>
      </trkpt>
      <trkpt lat="46.99271" lon="8.66496">
        <ele>537</ele>
        <time>2021-08-05T09:53:58.450Z</time>
      </trkpt>
      <trkpt lat="46.99271" lon="8.66498">
        <ele>537</ele>
        <time>2021-08-05T09:53:59.450Z</time>
      </trkpt>
      <trkpt lat="46.99271" lon="8.665">
        <ele>537</ele>
        <time>2021-08-05T09:54:00.449Z</time>
      </trkpt>
      <trkpt lat="46.99271" lon="8.66501">
        <ele>536</ele>
        <time>2021-08-05T09:54:01.450Z</time>
      </trkpt>
      <trkpt lat="46.99272" lon="8.66501">
        <ele>536</ele>
        <time>2021-08-05T09:54:02.449Z</time>
      </trkpt>
      <trkpt lat="46.99272" lon="8.66502">
        <ele>536</ele>
        <time>2021-08-05T09:54:03.450Z</time>
      </trkpt>
      <trkpt lat="46.99273" lon="8.66502">
        <ele>537</ele>
        <time>2021-08-05T09:54:04.450Z</time>
      </trkpt>
      <trkpt lat="46.99274" lon="8.66503">
        <ele>537</ele>
        <time>2021-08-05T09:54:05.450Z</time>
      </trkpt>
      <trkpt lat="46.99274" lon="8.66504">
        <ele>537</ele>
        <time>2021-08-05T09:54:06.450Z</time>
      </trkpt>
      <trkpt lat="46.99274" lon="8.66505">
        <ele>537</ele>
        <time>2021-08-05T09:54:07.450Z</time>
      </trkpt>
      <trkpt lat="46.99274" lon="8.66506">
        <ele>538</ele>
        <time>2021-08-05T09:54:08.450Z</time>
      </trkpt>
      <trkpt lat="46.99275" lon="8.66507">
        <ele>538</ele>
        <time>2021-08-05T09:54:09.450Z</time>
      </trkpt>
      <trkpt lat="46.99275" lon="8.66509">
        <ele>538</ele>
        <time>2021-08-05T09:54:10.449Z</time>
      </trkpt>
      <trkpt lat="46.99276" lon="8.6651">
        <ele>538</ele>
        <time>2021-08-05T09:54:11.449Z</time>
      </trkpt>
      <trkpt lat="46.99276" lon="8.66512">
        <ele>539</ele>
        <time>2021-08-05T09:54:12.449Z</time>
      </trkpt>
      <trkpt lat="46.99275" lon="8.66514">
        <ele>539</ele>
        <time>2021-08-05T09:54:13.450Z</time>
      </trkpt>
      <trkpt lat="46.99275" lon="8.66515">
        <ele>539</ele>
        <time>2021-08-05T09:54:14.449Z</time>
      </trkpt>
      <trkpt lat="46.99274" lon="8.66518">
        <ele>539</ele>
        <time>2021-08-05T09:54:15.449Z</time>
      </trkpt>
      <trkpt lat="46.99274" lon="8.6652">
        <ele>539</ele>
        <time>2021-08-05T09:54:16.450Z</time>
      </trkpt>
      <trkpt lat="46.99274" lon="8.66522">
        <ele>539</ele>
        <time>2021-08-05T09:54:17.449Z</time>
      </trkpt>
      <trkpt lat="46.99274" lon="8.66524">
        <ele>539</ele>
        <time>2021-08-05T09:54:18.449Z</time>
      </trkpt>
      <trkpt lat="46.99275" lon="8.66525">
        <ele>539</ele>
        <time>2021-08-05T09:54:19.449Z</time>
      </trkpt>
      <trkpt lat="46.99275" lon="8.66527">
        <ele>539</ele>
        <time>2021-08-05T09:54:20.450Z</time>
      </trkpt>
      <trkpt lat="46.99276" lon="8.66528">
        <ele>539</ele>
        <time>2021-08-05T09:54:21.449Z</time>
      </trkpt>
      <trkpt lat="46.99276" lon="8.66529">
        <ele>539</ele>
        <time>2021-08-05T09:54:22.449Z</time>
      </trkpt>
      <trkpt lat="46.99277" lon="8.6653">
        <ele>538</ele>
        <time>2021-08-05T09:54:23.449Z</time>
      </trkpt>
      <trkpt lat="46.99279" lon="8.66531">
        <ele>538</ele>
        <time>2021-08-05T09:54:24.450Z</time>
      </trkpt>
      <trkpt lat="46.9928" lon="8.66531">
        <ele>539</ele>
        <time>2021-08-05T09:54:25.449Z</time>
      </trkpt>
      <trkpt lat="46.9928" lon="8.66532">
        <ele>539</ele>
        <time>2021-08-05T09:54:26.449Z</time>
      </trkpt>
      <trkpt lat="46.99281" lon="8.66533">
        <ele>539</ele>
        <time>2021-08-05T09:54:27.449Z</time>
      </trkpt>
      <trkpt lat="46.99282" lon="8.66534">
        <ele>539</ele>
        <time>2021-08-05T09:54:28.449Z</time>
      </trkpt>
      <trkpt lat="46.99283" lon="8.66535">
        <ele>539</ele>
        <time>2021-08-05T09:54:29.449Z</time>
      </trkpt>
      <trkpt lat="46.99284" lon="8.66536">
        <ele>539</ele>
        <time>2021-08-05T09:54:30.450Z</time>
      </trkpt>
      <trkpt lat="46.99286" lon="8.66537">
        <ele>539</ele>
        <time>2021-08-05T09:54:31.450Z</time>
      </trkpt>
      <trkpt lat="46.99287" lon="8.66537">
        <ele>540</ele>
        <time>2021-08-05T09:54:32.449Z</time>
      </trkpt>
      <trkpt lat="46.99289" lon="8.66538">
        <ele>540</ele>
        <time>2021-08-05T09:54:33.449Z</time>
      </trkpt>
      <trkpt lat="46.9929" lon="8.6654">
        <ele>540</ele>
        <time>2021-08-05T09:54:34.449Z</time>
      </trkpt>
      <trkpt lat="46.9929" lon="8.66542">
        <ele>539</ele>
        <time>2021-08-05T09:54:35.449Z</time>
      </trkpt>
      <trkpt lat="46.99291" lon="8.66545">
        <ele>539</ele>
        <time>2021-08-05T09:54:36.449Z</time>
      </trkpt>
      <trkpt lat="46.99291" lon="8.66546">
        <ele>539</ele>
        <time>2021-08-05T09:54:37.449Z</time>
      </trkpt>
      <trkpt lat="46.99292" lon="8.66548">
        <ele>539</ele>
        <time>2021-08-05T09:54:38.450Z</time>
      </trkpt>
      <trkpt lat="46.99291" lon="8.6655">
        <ele>539</ele>
        <time>2021-08-05T09:54:39.449Z</time>
      </trkpt>
      <trkpt lat="46.99291" lon="8.66551">
        <ele>539</ele>
        <time>2021-08-05T09:54:40.449Z</time>
      </trkpt>
      <trkpt lat="46.9929" lon="8.66554">
        <ele>539</ele>
        <time>2021-08-05T09:54:41.449Z</time>
      </trkpt>
      <trkpt lat="46.9929" lon="8.66555">
        <ele>539</ele>
        <time>2021-08-05T09:54:42.450Z</time>
      </trkpt>
      <trkpt lat="46.9929" lon="8.66556">
        <ele>539</ele>
        <time>2021-08-05T09:54:43.449Z</time>
      </trkpt>
      <trkpt lat="46.9929" lon="8.66558">
        <ele>539</ele>
        <time>2021-08-05T09:54:44.449Z</time>
      </trkpt>
      <trkpt lat="46.99291" lon="8.66559">
        <ele>539</ele>
        <time>2021-08-05T09:54:45.450Z</time>
      </trkpt>
      <trkpt lat="46.99292" lon="8.66561">
        <ele>539</ele>
        <time>2021-08-05T09:54:46.450Z</time>
      </trkpt>
      <trkpt lat="46.99293" lon="8.66562">
        <ele>539</ele>
        <time>2021-08-05T09:54:47.449Z</time>
      </trkpt>
      <trkpt lat="46.99294" lon="8.66563">
        <ele>539</ele>
        <time>2021-08-05T09:54:48.449Z</time>
      </trkpt>
      <trkpt lat="46.99294" lon="8.66564">
        <ele>539</ele>
        <time>2021-08-05T09:54:49.450Z</time>
      </trkpt>
      <trkpt lat="46.99295" lon="8.66565">
        <ele>539</ele>
        <time>2021-08-05T09:54:50.449Z</time>
      </trkpt>
      <trkpt lat="46.99295" lon="8.66566">
        <ele>540</ele>
        <time>2021-08-05T09:54:51.449Z</time>
      </trkpt>
      <trkpt lat="46.99296" lon="8.66567">
        <ele>540</ele>
        <time>2021-08-05T09:54:52.450Z</time>
      </trkpt>
      <trkpt lat="46.99297" lon="8.66569">
        <ele>540</ele>
        <time>2021-08-05T09:54:53.450Z</time>
      </trkpt>
      <trkpt lat="46.99298" lon="8.6657">
        <ele>540</ele>
        <time>2021-08-05T09:54:54.449Z</time>
      </trkpt>
      <trkpt lat="46.99299" lon="8.6657">
        <ele>540</ele>
        <time>2021-08-05T09:54:55.449Z</time>
      </trkpt>
      <trkpt lat="46.99301" lon="8.66571">
        <ele>540</ele>
        <time>2021-08-05T09:54:56.450Z</time>
      </trkpt>
      <trkpt lat="46.99301" lon="8.66572">
        <ele>540</ele>
        <time>2021-08-05T09:54:57.450Z</time>
      </trkpt>
      <trkpt lat="46.993" lon="8.66574">
        <ele>540</ele>
        <time>2021-08-05T09:54:58.449Z</time>
      </trkpt>
      <trkpt lat="46.99301" lon="8.66576">
        <ele>540</ele>
        <time>2021-08-05T09:54:59.450Z</time>
      </trkpt>
      <trkpt lat="46.99301" lon="8.66577">
        <ele>540</ele>
        <time>2021-08-05T09:55:00.450Z</time>
      </trkpt>
      <trkpt lat="46.99301" lon="8.66577">
        <ele>540</ele>
        <time>2021-08-05T09:55:01.450Z</time>
      </trkpt>
      <trkpt lat="46.993" lon="8.66578">
        <ele>540</ele>
        <time>2021-08-05T09:55:02.450Z</time>
      </trkpt>
      <trkpt lat="46.993" lon="8.66578">
        <ele>540</ele>
        <time>2021-08-05T09:55:03.450Z</time>
      </trkpt>
      <trkpt lat="46.99299" lon="8.6658">
        <ele>540</ele>
        <time>2021-08-05T09:55:04.450Z</time>
      </trkpt>
      <trkpt lat="46.99298" lon="8.66581">
        <ele>541</ele>
        <time>2021-08-05T09:55:05.450Z</time>
      </trkpt>
      <trkpt lat="46.99297" lon="8.66582">
        <ele>541</ele>
        <time>2021-08-05T09:55:06.450Z</time>
      </trkpt>
      <trkpt lat="46.99298" lon="8.66584">
        <ele>541</ele>
        <time>2021-08-05T09:55:07.450Z</time>
      </trkpt>
      <trkpt lat="46.99298" lon="8.66586">
        <ele>541</ele>
        <time>2021-08-05T09:55:08.450Z</time>
      </trkpt>
      <trkpt lat="46.99299" lon="8.66587">
        <ele>541</ele>
        <time>2021-08-05T09:55:09.449Z</time>
      </trkpt>
      <trkpt lat="46.99299" lon="8.66588">
        <ele>542</ele>
        <time>2021-08-05T09:55:10.450Z</time>
      </trkpt>
      <trkpt lat="46.99299" lon="8.66588">
        <ele>542</ele>
        <time>2021-08-05T09:55:11.450Z</time>
      </trkpt>
      <trkpt lat="46.99299" lon="8.66588">
        <ele>543</ele>
        <time>2021-08-05T09:55:12.450Z</time>
      </trkpt>
      <trkpt lat="46.993" lon="8.66588">
        <ele>543</ele>
        <time>2021-08-05T09:55:13.450Z</time>
      </trkpt>
      <trkpt lat="46.99302" lon="8.66589">
        <ele>543</ele>
        <time>2021-08-05T09:55:14.449Z</time>
      </trkpt>
      <trkpt lat="46.99303" lon="8.6659">
        <ele>544</ele>
        <time>2021-08-05T09:55:15.450Z</time>
      </trkpt>
      <trkpt lat="46.99304" lon="8.66592">
        <ele>544</ele>
        <time>2021-08-05T09:55:16.450Z</time>
      </trkpt>
      <trkpt lat="46.99305" lon="8.66592">
        <ele>544</ele>
        <time>2021-08-05T09:55:17.449Z</time>
      </trkpt>
      <trkpt lat="46.99306" lon="8.66593">
        <ele>544</ele>
        <time>2021-08-05T09:55:18.450Z</time>
      </trkpt>
      <trkpt lat="46.99308" lon="8.66593">
        <ele>544</ele>
        <time>2021-08-05T09:55:19.450Z</time>
      </trkpt>
      <trkpt lat="46.99309" lon="8.66594">
        <ele>544</ele>
        <time>2021-08-05T09:55:20.449Z</time>
      </trkpt>
      <trkpt lat="46.9931" lon="8.66594">
        <ele>544</ele>
        <time>2021-08-05T09:55:21.449Z</time>
      </trkpt>
      <trkpt lat="46.9931" lon="8.66594">
        <ele>544</ele>
        <time>2021-08-05T09:55:22.449Z</time>
      </trkpt>
      <trkpt lat="46.99312" lon="8.66595">
        <ele>544</ele>
        <time>2021-08-05T09:55:23.450Z</time>
      </trkpt>
      <trkpt lat="46.99313" lon="8.66595">
        <ele>544</ele>
        <time>2021-08-05T09:55:24.449Z</time>
      </trkpt>
      <trkpt lat="46.99313" lon="8.66596">
        <ele>544</ele>
        <time>2021-08-05T09:55:25.449Z</time>
      </trkpt>
      <trkpt lat="46.99314" lon="8.66597">
        <ele>544</ele>
        <time>2021-08-05T09:55:26.449Z</time>
      </trkpt>
      <trkpt lat="46.99315" lon="8.66597">
        <ele>545</ele>
        <time>2021-08-05T09:55:27.450Z</time>
      </trkpt>
      <trkpt lat="46.99315" lon="8.66598">
        <ele>545</ele>
        <time>2021-08-05T09:55:28.450Z</time>
      </trkpt>
      <trkpt lat="46.99316" lon="8.66598">
        <ele>545</ele>
        <time>2021-08-05T09:55:29.449Z</time>
      </trkpt>
      <trkpt lat="46.99316" lon="8.66599">
        <ele>546</ele>
        <time>2021-08-05T09:55:30.450Z</time>
      </trkpt>
      <trkpt lat="46.99316" lon="8.666">
        <ele>546</ele>
        <time>2021-08-05T09:55:31.450Z</time>
      </trkpt>
      <trkpt lat="46.99316" lon="8.66601">
        <ele>546</ele>
        <time>2021-08-05T09:55:32.449Z</time>
      </trkpt>
      <trkpt lat="46.99316" lon="8.66602">
        <ele>547</ele>
        <time>2021-08-05T09:55:33.450Z</time>
      </trkpt>
      <trkpt lat="46.99315" lon="8.66604">
        <ele>547</ele>
        <time>2021-08-05T09:55:34.450Z</time>
      </trkpt>
      <trkpt lat="46.99315" lon="8.66605">
        <ele>547</ele>
        <time>2021-08-05T09:55:35.449Z</time>
      </trkpt>
      <trkpt lat="46.99314" lon="8.66606">
        <ele>547</ele>
        <time>2021-08-05T09:55:36.450Z</time>
      </trkpt>
      <trkpt lat="46.99313" lon="8.66607">
        <ele>547</ele>
        <time>2021-08-05T09:55:37.450Z</time>
      </trkpt>
      <trkpt lat="46.99313" lon="8.66609">
        <ele>547</ele>
        <time>2021-08-05T09:55:38.449Z</time>
      </trkpt>
      <trkpt lat="46.99313" lon="8.6661">
        <ele>547</ele>
        <time>2021-08-05T09:55:39.450Z</time>
      </trkpt>
      <trkpt lat="46.99313" lon="8.6661">
        <ele>547</ele>
        <time>2021-08-05T09:55:40.450Z</time>
      </trkpt>
      <trkpt lat="46.99314" lon="8.6661">
        <ele>547</ele>
        <time>2021-08-05T09:55:41.450Z</time>
      </trkpt>
      <trkpt lat="46.99315" lon="8.66611">
        <ele>547</ele>
        <time>2021-08-05T09:55:42.450Z</time>
      </trkpt>
      <trkpt lat="46.99315" lon="8.66611">
        <ele>547</ele>
        <time>2021-08-05T09:55:43.449Z</time>
      </trkpt>
      <trkpt lat="46.99316" lon="8.66611">
        <ele>547</ele>
        <time>2021-08-05T09:55:44.450Z</time>
      </trkpt>
      <trkpt lat="46.99316" lon="8.6661">
        <ele>548</ele>
        <time>2021-08-05T09:55:45.450Z</time>
      </trkpt>
      <trkpt lat="46.99316" lon="8.66611">
        <ele>548</ele>
        <time>2021-08-05T09:55:46.449Z</time>
      </trkpt>
      <trkpt lat="46.99317" lon="8.66613">
        <ele>548</ele>
        <time>2021-08-05T09:55:47.449Z</time>
      </trkpt>
      <trkpt lat="46.99318" lon="8.66614">
        <ele>548</ele>
        <time>2021-08-05T09:55:48.450Z</time>
      </trkpt>
      <trkpt lat="46.99319" lon="8.66615">
        <ele>548</ele>
        <time>2021-08-05T09:55:49.450Z</time>
      </trkpt>
      <trkpt lat="46.99314" lon="8.66618">
        <ele>548</ele>
        <time>2021-08-05T09:55:50.449Z</time>
      </trkpt>
      <trkpt lat="46.99305" lon="8.66621">
        <ele>547</ele>
        <time>2021-08-05T09:55:51.450Z</time>
      </trkpt>
      <trkpt lat="46.99298" lon="8.66623">
        <ele>547</ele>
        <time>2021-08-05T09:55:52.450Z</time>
      </trkpt>
      <trkpt lat="46.99291" lon="8.66623">
        <ele>547</ele>
        <time>2021-08-05T09:55:53.449Z</time>
      </trkpt>
      <trkpt lat="46.99284" lon="8.66624">
        <ele>547</ele>
        <time>2021-08-05T09:55:54.450Z</time>
      </trkpt>
      <trkpt lat="46.99278" lon="8.66624">
        <ele>547</ele>
        <time>2021-08-05T09:55:55.450Z</time>
      </trkpt>
      <trkpt lat="46.99274" lon="8.66626">
        <ele>547</ele>
        <time>2021-08-05T09:55:56.450Z</time>
      </trkpt>
      <trkpt lat="46.99272" lon="8.66628">
        <ele>547</ele>
        <time>2021-08-05T09:55:57.450Z</time>
      </trkpt>
      <trkpt lat="46.99269" lon="8.6663">
        <ele>547</ele>
        <time>2021-08-05T09:55:58.449Z</time>
      </trkpt>
      <trkpt lat="46.99268" lon="8.66631">
        <ele>547</ele>
        <time>2021-08-05T09:55:59.449Z</time>
      </trkpt>
      <trkpt lat="46.99269" lon="8.66631">
        <ele>547</ele>
        <time>2021-08-05T09:56:00.450Z</time>
      </trkpt>
      <trkpt lat="46.99269" lon="8.66632">
        <ele>547</ele>
        <time>2021-08-05T09:56:01.450Z</time>
      </trkpt>
      <trkpt lat="46.9927" lon="8.66632">
        <ele>548</ele>
        <time>2021-08-05T09:56:02.449Z</time>
      </trkpt>
      <trkpt lat="46.99271" lon="8.66633">
        <ele>548</ele>
        <time>2021-08-05T09:56:03.449Z</time>
      </trkpt>
      <trkpt lat="46.99273" lon="8.66635">
        <ele>547</ele>
        <time>2021-08-05T09:56:04.450Z</time>
      </trkpt>
      <trkpt lat="46.99275" lon="8.66636">
        <ele>547</ele>
        <time>2021-08-05T09:56:05.449Z</time>
      </trkpt>
      <trkpt lat="46.99279" lon="8.66636">
        <ele>547</ele>
        <time>2021-08-05T09:56:06.449Z</time>
      </trkpt>
      <trkpt lat="46.99282" lon="8.66636">
        <ele>548</ele>
        <time>2021-08-05T09:56:07.450Z</time>
      </trkpt>
      <trkpt lat="46.99285" lon="8.66636">
        <ele>549</ele>
        <time>2021-08-05T09:56:08.450Z</time>
      </trkpt>
      <trkpt lat="46.99287" lon="8.66635">
        <ele>549</ele>
        <time>2021-08-05T09:56:09.450Z</time>
      </trkpt>
      <trkpt lat="46.99289" lon="8.66634">
        <ele>550</ele>
        <time>2021-08-05T09:56:10.450Z</time>
      </trkpt>
      <trkpt lat="46.9929" lon="8.66633">
        <ele>551</ele>
        <time>2021-08-05T09:56:11.450Z</time>
      </trkpt>
      <trkpt lat="46.99291" lon="8.66633">
        <ele>551</ele>
        <time>2021-08-05T09:56:12.450Z</time>
      </trkpt>
      <trkpt lat="46.99292" lon="8.66634">
        <ele>552</ele>
        <time>2021-08-05T09:56:13.450Z</time>
      </trkpt>
      <trkpt lat="46.99294" lon="8.66635">
        <ele>552</ele>
        <time>2021-08-05T09:56:14.449Z</time>
      </trkpt>
      <trkpt lat="46.99305" lon="8.66642">
        <ele>554</ele>
        <time>2021-08-05T09:56:18.449Z</time>
      </trkpt>
      <trkpt lat="46.99305" lon="8.66643">
        <ele>554</ele>
        <time>2021-08-05T09:56:19.450Z</time>
      </trkpt>
      <trkpt lat="46.99304" lon="8.66643">
        <ele>554</ele>
        <time>2021-08-05T09:56:20.449Z</time>
      </trkpt>
      <trkpt lat="46.99303" lon="8.66643">
        <ele>555</ele>
        <time>2021-08-05T09:56:21.450Z</time>
      </trkpt>
      <trkpt lat="46.99303" lon="8.66643">
        <ele>555</ele>
        <time>2021-08-05T09:56:22.449Z</time>
      </trkpt>
      <trkpt lat="46.99301" lon="8.66643">
        <ele>555</ele>
        <time>2021-08-05T09:56:23.450Z</time>
      </trkpt>
      <trkpt lat="46.993" lon="8.66643">
        <ele>555</ele>
        <time>2021-08-05T09:56:24.450Z</time>
      </trkpt>
      <trkpt lat="46.99299" lon="8.66643">
        <ele>555</ele>
        <time>2021-08-05T09:56:25.450Z</time>
      </trkpt>
      <trkpt lat="46.99299" lon="8.66643">
        <ele>556</ele>
        <time>2021-08-05T09:56:26.450Z</time>
      </trkpt>
      <trkpt lat="46.99297" lon="8.66643">
        <ele>556</ele>
        <time>2021-08-05T09:56:27.449Z</time>
      </trkpt>
      <trkpt lat="46.99296" lon="8.66642">
        <ele>556</ele>
        <time>2021-08-05T09:56:28.450Z</time>
      </trkpt>
      <trkpt lat="46.99293" lon="8.66642">
        <ele>557</ele>
        <time>2021-08-05T09:56:29.449Z</time>
      </trkpt>
      <trkpt lat="46.99291" lon="8.66642">
        <ele>557</ele>
        <time>2021-08-05T09:56:30.450Z</time>
      </trkpt>
      <trkpt lat="46.99287" lon="8.66644">
        <ele>557</ele>
        <time>2021-08-05T09:56:31.449Z</time>
      </trkpt>
      <trkpt lat="46.99286" lon="8.66646">
        <ele>557</ele>
        <time>2021-08-05T09:56:32.449Z</time>
      </trkpt>
      <trkpt lat="46.99286" lon="8.66648">
        <ele>557</ele>
        <time>2021-08-05T09:56:33.450Z</time>
      </trkpt>
      <trkpt lat="46.99285" lon="8.66649">
        <ele>558</ele>
        <time>2021-08-05T09:56:34.449Z</time>
      </trkpt>
      <trkpt lat="46.99285" lon="8.6665">
        <ele>558</ele>
        <time>2021-08-05T09:56:35.450Z</time>
      </trkpt>
      <trkpt lat="46.99284" lon="8.66651">
        <ele>558</ele>
        <time>2021-08-05T09:56:36.449Z</time>
      </trkpt>
      <trkpt lat="46.99284" lon="8.66652">
        <ele>558</ele>
        <time>2021-08-05T09:56:37.450Z</time>
      </trkpt>
      <trkpt lat="46.99285" lon="8.66653">
        <ele>558</ele>
        <time>2021-08-05T09:56:38.450Z</time>
      </trkpt>
      <trkpt lat="46.99286" lon="8.66654">
        <ele>558</ele>
        <time>2021-08-05T09:56:39.450Z</time>
      </trkpt>
      <trkpt lat="46.99285" lon="8.66654">
        <ele>558</ele>
        <time>2021-08-05T09:56:40.450Z</time>
      </trkpt>
      <trkpt lat="46.99285" lon="8.66654">
        <ele>559</ele>
        <time>2021-08-05T09:56:41.450Z</time>
      </trkpt>
      <trkpt lat="46.99285" lon="8.66654">
        <ele>560</ele>
        <time>2021-08-05T09:56:42.449Z</time>
      </trkpt>
      <trkpt lat="46.99285" lon="8.66654">
        <ele>561</ele>
        <time>2021-08-05T09:56:43.450Z</time>
      </trkpt>
      <trkpt lat="46.99285" lon="8.66655">
        <ele>561</ele>
        <time>2021-08-05T09:56:44.450Z</time>
      </trkpt>
      <trkpt lat="46.99284" lon="8.66655">
        <ele>562</ele>
        <time>2021-08-05T09:56:45.449Z</time>
      </trkpt>
      <trkpt lat="46.99283" lon="8.66655">
        <ele>562</ele>
        <time>2021-08-05T09:56:46.450Z</time>
      </trkpt>
      <trkpt lat="46.99282" lon="8.66655">
        <ele>563</ele>
        <time>2021-08-05T09:56:47.450Z</time>
      </trkpt>
      <trkpt lat="46.99279" lon="8.66655">
        <ele>563</ele>
        <time>2021-08-05T09:56:48.449Z</time>
      </trkpt>
      <trkpt lat="46.99278" lon="8.66656">
        <ele>564</ele>
        <time>2021-08-05T09:56:49.450Z</time>
      </trkpt>
      <trkpt lat="46.99276" lon="8.66656">
        <ele>564</ele>
        <time>2021-08-05T09:56:50.449Z</time>
      </trkpt>
      <trkpt lat="46.99275" lon="8.66656">
        <ele>564</ele>
        <time>2021-08-05T09:56:51.450Z</time>
      </trkpt>
      <trkpt lat="46.99276" lon="8.66656">
        <ele>564</ele>
        <time>2021-08-05T09:56:52.449Z</time>
      </trkpt>
      <trkpt lat="46.99277" lon="8.66656">
        <ele>564</ele>
        <time>2021-08-05T09:56:53.449Z</time>
      </trkpt>
      <trkpt lat="46.99277" lon="8.66656">
        <ele>564</ele>
        <time>2021-08-05T09:56:54.450Z</time>
      </trkpt>
      <trkpt lat="46.99278" lon="8.66656">
        <ele>564</ele>
        <time>2021-08-05T09:56:55.450Z</time>
      </trkpt>
      <trkpt lat="46.99279" lon="8.66656">
        <ele>565</ele>
        <time>2021-08-05T09:56:56.450Z</time>
      </trkpt>
      <trkpt lat="46.99279" lon="8.66657">
        <ele>565</ele>
        <time>2021-08-05T09:56:57.450Z</time>
      </trkpt>
      <trkpt lat="46.99278" lon="8.66657">
        <ele>565</ele>
        <time>2021-08-05T09:56:58.449Z</time>
      </trkpt>
      <trkpt lat="46.99276" lon="8.66658">
        <ele>565</ele>
        <time>2021-08-05T09:56:59.450Z</time>
      </trkpt>
      <trkpt lat="46.99273" lon="8.6666">
        <ele>565</ele>
        <time>2021-08-05T09:57:00.450Z</time>
      </trkpt>
      <trkpt lat="46.99272" lon="8.66661">
        <ele>565</ele>
        <time>2021-08-05T09:57:01.450Z</time>
      </trkpt>
      <trkpt lat="46.99272" lon="8.66662">
        <ele>565</ele>
        <time>2021-08-05T09:57:02.449Z</time>
      </trkpt>
      <trkpt lat="46.99272" lon="8.66663">
        <ele>565</ele>
        <time>2021-08-05T09:57:03.450Z</time>
      </trkpt>
      <trkpt lat="46.99272" lon="8.66664">
        <ele>565</ele>
        <time>2021-08-05T09:57:04.450Z</time>
      </trkpt>
      <trkpt lat="46.99272" lon="8.66665">
        <ele>565</ele>
        <time>2021-08-05T09:57:05.449Z</time>
      </trkpt>
      <trkpt lat="46.99272" lon="8.66666">
        <ele>565</ele>
        <time>2021-08-05T09:57:06.450Z</time>
      </trkpt>
      <trkpt lat="46.99272" lon="8.66667">
        <ele>565</ele>
        <time>2021-08-05T09:57:07.450Z</time>
      </trkpt>
      <trkpt lat="46.99272" lon="8.66667">
        <ele>565</ele>
        <time>2021-08-05T09:57:08.450Z</time>
      </trkpt>
      <trkpt lat="46.99269" lon="8.66667">
        <ele>565</ele>
        <time>2021-08-05T09:57:09.449Z</time>
      </trkpt>
      <trkpt lat="46.99265" lon="8.66666">
        <ele>566</ele>
        <time>2021-08-05T09:57:10.449Z</time>
      </trkpt>
      <trkpt lat="46.99262" lon="8.66666">
        <ele>566</ele>
        <time>2021-08-05T09:57:11.449Z</time>
      </trkpt>
      <trkpt lat="46.99261" lon="8.66667">
        <ele>566</ele>
        <time>2021-08-05T09:57:12.449Z</time>
      </trkpt>
      <trkpt lat="46.99261" lon="8.66667">
        <ele>566</ele>
        <time>2021-08-05T09:57:13.450Z</time>
      </trkpt>
      <trkpt lat="46.99261" lon="8.66668">
        <ele>566</ele>
        <time>2021-08-05T09:57:14.450Z</time>
      </trkpt>
      <trkpt lat="46.9926" lon="8.66669">
        <ele>566</ele>
        <time>2021-08-05T09:57:15.449Z</time>
      </trkpt>
      <trkpt lat="46.9926" lon="8.66671">
        <ele>566</ele>
        <time>2021-08-05T09:57:16.450Z</time>
      </trkpt>
      <trkpt lat="46.99261" lon="8.66671">
        <ele>566</ele>
        <time>2021-08-05T09:57:17.449Z</time>
      </trkpt>
      <trkpt lat="46.99261" lon="8.66672">
        <ele>566</ele>
        <time>2021-08-05T09:57:18.450Z</time>
      </trkpt>
      <trkpt lat="46.99261" lon="8.66674">
        <ele>567</ele>
        <time>2021-08-05T09:57:19.449Z</time>
      </trkpt>
      <trkpt lat="46.99261" lon="8.66676">
        <ele>567</ele>
        <time>2021-08-05T09:57:20.449Z</time>
      </trkpt>
      <trkpt lat="46.99259" lon="8.66677">
        <ele>567</ele>
        <time>2021-08-05T09:57:21.450Z</time>
      </trkpt>
      <trkpt lat="46.99258" lon="8.66679">
        <ele>567</ele>
        <time>2021-08-05T09:57:22.449Z</time>
      </trkpt>
      <trkpt lat="46.99257" lon="8.66681">
        <ele>567</ele>
        <time>2021-08-05T09:57:23.450Z</time>
      </trkpt>
      <trkpt lat="46.9926" lon="8.66682">
        <ele>567</ele>
        <time>2021-08-05T09:57:24.450Z</time>
      </trkpt>
      <trkpt lat="46.9926" lon="8.66683">
        <ele>567</ele>
        <time>2021-08-05T09:57:25.449Z</time>
      </trkpt>
      <trkpt lat="46.99256" lon="8.66684">
        <ele>567</ele>
        <time>2021-08-05T09:57:26.450Z</time>
      </trkpt>
      <trkpt lat="46.99253" lon="8.66685">
        <ele>568</ele>
        <time>2021-08-05T09:57:27.449Z</time>
      </trkpt>
      <trkpt lat="46.99244" lon="8.66686">
        <ele>568</ele>
        <time>2021-08-05T09:57:28.450Z</time>
      </trkpt>
      <trkpt lat="46.99241" lon="8.66687">
        <ele>568</ele>
        <time>2021-08-05T09:57:29.450Z</time>
      </trkpt>
      <trkpt lat="46.99237" lon="8.66688">
        <ele>568</ele>
        <time>2021-08-05T09:57:30.449Z</time>
      </trkpt>
      <trkpt lat="46.99233" lon="8.66689">
        <ele>568</ele>
        <time>2021-08-05T09:57:31.450Z</time>
      </trkpt>
      <trkpt lat="46.99226" lon="8.6669">
        <ele>569</ele>
        <time>2021-08-05T09:57:32.450Z</time>
      </trkpt>
      <trkpt lat="46.99224" lon="8.6669">
        <ele>569</ele>
        <time>2021-08-05T09:57:33.450Z</time>
      </trkpt>
      <trkpt lat="46.99226" lon="8.66689">
        <ele>569</ele>
        <time>2021-08-05T09:57:34.449Z</time>
      </trkpt>
      <trkpt lat="46.99227" lon="8.66689">
        <ele>569</ele>
        <time>2021-08-05T09:57:35.449Z</time>
      </trkpt>
      <trkpt lat="46.99227" lon="8.66688">
        <ele>569</ele>
        <time>2021-08-05T09:57:36.449Z</time>
      </trkpt>
      <trkpt lat="46.99227" lon="8.66689">
        <ele>569</ele>
        <time>2021-08-05T09:57:37.449Z</time>
      </trkpt>
      <trkpt lat="46.99223" lon="8.6669">
        <ele>569</ele>
        <time>2021-08-05T09:57:38.450Z</time>
      </trkpt>
      <trkpt lat="46.9922" lon="8.66691">
        <ele>569</ele>
        <time>2021-08-05T09:57:39.450Z</time>
      </trkpt>
      <trkpt lat="46.99216" lon="8.66693">
        <ele>569</ele>
        <time>2021-08-05T09:57:40.450Z</time>
      </trkpt>
      <trkpt lat="46.99213" lon="8.66696">
        <ele>569</ele>
        <time>2021-08-05T09:57:41.450Z</time>
      </trkpt>
      <trkpt lat="46.99209" lon="8.66698">
        <ele>569</ele>
        <time>2021-08-05T09:57:42.450Z</time>
      </trkpt>
      <trkpt lat="46.99209" lon="8.667">
        <ele>568</ele>
        <time>2021-08-05T09:57:43.450Z</time>
      </trkpt>
      <trkpt lat="46.99208" lon="8.66701">
        <ele>568</ele>
        <time>2021-08-05T09:57:44.449Z</time>
      </trkpt>
      <trkpt lat="46.99207" lon="8.66702">
        <ele>568</ele>
        <time>2021-08-05T09:57:45.449Z</time>
      </trkpt>
      <trkpt lat="46.99207" lon="8.66704">
        <ele>568</ele>
        <time>2021-08-05T09:57:46.450Z</time>
      </trkpt>
      <trkpt lat="46.99209" lon="8.66705">
        <ele>568</ele>
        <time>2021-08-05T09:57:47.449Z</time>
      </trkpt>
      <trkpt lat="46.99209" lon="8.66707">
        <ele>567</ele>
        <time>2021-08-05T09:57:48.449Z</time>
      </trkpt>
      <trkpt lat="46.9921" lon="8.66709">
        <ele>567</ele>
        <time>2021-08-05T09:57:49.450Z</time>
      </trkpt>
      <trkpt lat="46.99208" lon="8.6671">
        <ele>567</ele>
        <time>2021-08-05T09:57:50.449Z</time>
      </trkpt>
      <trkpt lat="46.99207" lon="8.66713">
        <ele>567</ele>
        <time>2021-08-05T09:57:51.449Z</time>
      </trkpt>
      <trkpt lat="46.99207" lon="8.66715">
        <ele>566</ele>
        <time>2021-08-05T09:57:52.449Z</time>
      </trkpt>
      <trkpt lat="46.99209" lon="8.66716">
        <ele>566</ele>
        <time>2021-08-05T09:57:53.449Z</time>
      </trkpt>
      <trkpt lat="46.99211" lon="8.66717">
        <ele>566</ele>
        <time>2021-08-05T09:57:54.449Z</time>
      </trkpt>
      <trkpt lat="46.99212" lon="8.66719">
        <ele>566</ele>
        <time>2021-08-05T09:57:55.449Z</time>
      </trkpt>
      <trkpt lat="46.99213" lon="8.6672">
        <ele>565</ele>
        <time>2021-08-05T09:57:56.449Z</time>
      </trkpt>
      <trkpt lat="46.99213" lon="8.66721">
        <ele>565</ele>
        <time>2021-08-05T09:57:57.450Z</time>
      </trkpt>
      <trkpt lat="46.99213" lon="8.66722">
        <ele>565</ele>
        <time>2021-08-05T09:57:58.449Z</time>
      </trkpt>
      <trkpt lat="46.99214" lon="8.66723">
        <ele>565</ele>
        <time>2021-08-05T09:57:59.449Z</time>
      </trkpt>
      <trkpt lat="46.99214" lon="8.66723">
        <ele>564</ele>
        <time>2021-08-05T09:58:00.450Z</time>
      </trkpt>
      <trkpt lat="46.99214" lon="8.66724">
        <ele>564</ele>
        <time>2021-08-05T09:58:01.449Z</time>
      </trkpt>
      <trkpt lat="46.99214" lon="8.66725">
        <ele>564</ele>
        <time>2021-08-05T09:58:02.449Z</time>
      </trkpt>
      <trkpt lat="46.99214" lon="8.66725">
        <ele>564</ele>
        <time>2021-08-05T09:58:03.449Z</time>
      </trkpt>
      <trkpt lat="46.99214" lon="8.66726">
        <ele>564</ele>
        <time>2021-08-05T09:58:04.449Z</time>
      </trkpt>
      <trkpt lat="46.99213" lon="8.66727">
        <ele>564</ele>
        <time>2021-08-05T09:58:05.449Z</time>
      </trkpt>
      <trkpt lat="46.99213" lon="8.66728">
        <ele>563</ele>
        <time>2021-08-05T09:58:06.449Z</time>
      </trkpt>
      <trkpt lat="46.99213" lon="8.66729">
        <ele>563</ele>
        <time>2021-08-05T09:58:07.449Z</time>
      </trkpt>
      <trkpt lat="46.99211" lon="8.66731">
        <ele>563</ele>
        <time>2021-08-05T09:58:08.449Z</time>
      </trkpt>
      <trkpt lat="46.99209" lon="8.66732">
        <ele>563</ele>
        <time>2021-08-05T09:58:09.450Z</time>
      </trkpt>
      <trkpt lat="46.99207" lon="8.66733">
        <ele>563</ele>
        <time>2021-08-05T09:58:10.449Z</time>
      </trkpt>
      <trkpt lat="46.99206" lon="8.66735">
        <ele>563</ele>
        <time>2021-08-05T09:58:11.449Z</time>
      </trkpt>
      <trkpt lat="46.99205" lon="8.66736">
        <ele>563</ele>
        <time>2021-08-05T09:58:12.450Z</time>
      </trkpt>
      <trkpt lat="46.99205" lon="8.66738">
        <ele>563</ele>
        <time>2021-08-05T09:58:13.450Z</time>
      </trkpt>
      <trkpt lat="46.99204" lon="8.66739">
        <ele>563</ele>
        <time>2021-08-05T09:58:14.450Z</time>
      </trkpt>
      <trkpt lat="46.99205" lon="8.6674">
        <ele>563</ele>
        <time>2021-08-05T09:58:15.450Z</time>
      </trkpt>
      <trkpt lat="46.99205" lon="8.66742">
        <ele>564</ele>
        <time>2021-08-05T09:58:16.450Z</time>
      </trkpt>
      <trkpt lat="46.99206" lon="8.66743">
        <ele>564</ele>
        <time>2021-08-05T09:58:17.450Z</time>
      </trkpt>
      <trkpt lat="46.99207" lon="8.66744">
        <ele>565</ele>
        <time>2021-08-05T09:58:18.449Z</time>
      </trkpt>
      <trkpt lat="46.99208" lon="8.66745">
        <ele>566</ele>
        <time>2021-08-05T09:58:19.450Z</time>
      </trkpt>
      <trkpt lat="46.99209" lon="8.66747">
        <ele>566</ele>
        <time>2021-08-05T09:58:20.449Z</time>
      </trkpt>
      <trkpt lat="46.99211" lon="8.66747">
        <ele>566</ele>
        <time>2021-08-05T09:58:21.450Z</time>
      </trkpt>
      <trkpt lat="46.99212" lon="8.66748">
        <ele>567</ele>
        <time>2021-08-05T09:58:22.450Z</time>
      </trkpt>
      <trkpt lat="46.99213" lon="8.66749">
        <ele>567</ele>
        <time>2021-08-05T09:58:23.450Z</time>
      </trkpt>
      <trkpt lat="46.99213" lon="8.6675">
        <ele>567</ele>
        <time>2021-08-05T09:58:24.449Z</time>
      </trkpt>
      <trkpt lat="46.99214" lon="8.6675">
        <ele>567</ele>
        <time>2021-08-05T09:58:25.450Z</time>
      </trkpt>
      <trkpt lat="46.99216" lon="8.66751">
        <ele>568</ele>
        <time>2021-08-05T09:58:26.449Z</time>
      </trkpt>
      <trkpt lat="46.99216" lon="8.66752">
        <ele>568</ele>
        <time>2021-08-05T09:58:27.450Z</time>
      </trkpt>
      <trkpt lat="46.99216" lon="8.66752">
        <ele>568</ele>
        <time>2021-08-05T09:58:28.450Z</time>
      </trkpt>
      <trkpt lat="46.99217" lon="8.66753">
        <ele>568</ele>
        <time>2021-08-05T09:58:29.450Z</time>
      </trkpt>
      <trkpt lat="46.99228" lon="8.66754">
        <ele>569</ele>
        <time>2021-08-05T09:58:30.450Z</time>
      </trkpt>
      <trkpt lat="46.99228" lon="8.66755">
        <ele>570</ele>
        <time>2021-08-05T09:58:31.450Z</time>
      </trkpt>
      <trkpt lat="46.99228" lon="8.66755">
        <ele>570</ele>
        <time>2021-08-05T09:58:32.451Z</time>
      </trkpt>
      <trkpt lat="46.99227" lon="8.66756">
        <ele>570</ele>
        <time>2021-08-05T09:58:33.451Z</time>
      </trkpt>
      <trkpt lat="46.99226" lon="8.66757">
        <ele>570</ele>
        <time>2021-08-05T09:58:34.451Z</time>
      </trkpt>
      <trkpt lat="46.99226" lon="8.66759">
        <ele>571</ele>
        <time>2021-08-05T09:58:35.451Z</time>
      </trkpt>
      <trkpt lat="46.99225" lon="8.6676">
        <ele>571</ele>
        <time>2021-08-05T09:58:36.451Z</time>
      </trkpt>
      <trkpt lat="46.99224" lon="8.66762">
        <ele>571</ele>
        <time>2021-08-05T09:58:37.451Z</time>
      </trkpt>
      <trkpt lat="46.99223" lon="8.66763">
        <ele>570</ele>
        <time>2021-08-05T09:58:38.451Z</time>
      </trkpt>
      <trkpt lat="46.99223" lon="8.66764">
        <ele>570</ele>
        <time>2021-08-05T09:58:39.450Z</time>
      </trkpt>
      <trkpt lat="46.99223" lon="8.66765">
        <ele>570</ele>
        <time>2021-08-05T09:58:40.450Z</time>
      </trkpt>
      <trkpt lat="46.99224" lon="8.66766">
        <ele>570</ele>
        <time>2021-08-05T09:58:41.451Z</time>
      </trkpt>
      <trkpt lat="46.99222" lon="8.66767">
        <ele>570</ele>
        <time>2021-08-05T09:58:42.451Z</time>
      </trkpt>
      <trkpt lat="46.9922" lon="8.66769">
        <ele>569</ele>
        <time>2021-08-05T09:58:43.450Z</time>
      </trkpt>
      <trkpt lat="46.9922" lon="8.6677">
        <ele>569</ele>
        <time>2021-08-05T09:58:44.450Z</time>
      </trkpt>
      <trkpt lat="46.99219" lon="8.6677">
        <ele>569</ele>
        <time>2021-08-05T09:58:45.451Z</time>
      </trkpt>
      <trkpt lat="46.99219" lon="8.66771">
        <ele>570</ele>
        <time>2021-08-05T09:58:46.451Z</time>
      </trkpt>
      <trkpt lat="46.99218" lon="8.66773">
        <ele>570</ele>
        <time>2021-08-05T09:58:47.450Z</time>
      </trkpt>
      <trkpt lat="46.99218" lon="8.66774">
        <ele>570</ele>
        <time>2021-08-05T09:58:48.450Z</time>
      </trkpt>
      <trkpt lat="46.99218" lon="8.66775">
        <ele>570</ele>
        <time>2021-08-05T09:58:49.451Z</time>
      </trkpt>
      <trkpt lat="46.99218" lon="8.66776">
        <ele>569</ele>
        <time>2021-08-05T09:58:50.451Z</time>
      </trkpt>
      <trkpt lat="46.99218" lon="8.66777">
        <ele>569</ele>
        <time>2021-08-05T09:58:51.451Z</time>
      </trkpt>
      <trkpt lat="46.99217" lon="8.66779">
        <ele>569</ele>
        <time>2021-08-05T09:58:52.451Z</time>
      </trkpt>
      <trkpt lat="46.99216" lon="8.6678">
        <ele>569</ele>
        <time>2021-08-05T09:58:53.450Z</time>
      </trkpt>
      <trkpt lat="46.99216" lon="8.66782">
        <ele>569</ele>
        <time>2021-08-05T09:58:54.451Z</time>
      </trkpt>
      <trkpt lat="46.99216" lon="8.66783">
        <ele>568</ele>
        <time>2021-08-05T09:58:55.451Z</time>
      </trkpt>
      <trkpt lat="46.99215" lon="8.66785">
        <ele>568</ele>
        <time>2021-08-05T09:58:56.450Z</time>
      </trkpt>
      <trkpt lat="46.99215" lon="8.66786">
        <ele>568</ele>
        <time>2021-08-05T09:58:57.451Z</time>
      </trkpt>
      <trkpt lat="46.99215" lon="8.66788">
        <ele>568</ele>
        <time>2021-08-05T09:58:58.451Z</time>
      </trkpt>
      <trkpt lat="46.99215" lon="8.66789">
        <ele>568</ele>
        <time>2021-08-05T09:58:59.450Z</time>
      </trkpt>
      <trkpt lat="46.99214" lon="8.66791">
        <ele>568</ele>
        <time>2021-08-05T09:59:00.451Z</time>
      </trkpt>
      <trkpt lat="46.99214" lon="8.66792">
        <ele>569</ele>
        <time>2021-08-05T09:59:01.451Z</time>
      </trkpt>
      <trkpt lat="46.99213" lon="8.66793">
        <ele>569</ele>
        <time>2021-08-05T09:59:02.451Z</time>
      </trkpt>
      <trkpt lat="46.99212" lon="8.66794">
        <ele>569</ele>
        <time>2021-08-05T09:59:03.451Z</time>
      </trkpt>
      <trkpt lat="46.99211" lon="8.66795">
        <ele>569</ele>
        <time>2021-08-05T09:59:04.451Z</time>
      </trkpt>
      <trkpt lat="46.99209" lon="8.66796">
        <ele>569</ele>
        <time>2021-08-05T09:59:05.450Z</time>
      </trkpt>
      <trkpt lat="46.99207" lon="8.66798">
        <ele>569</ele>
        <time>2021-08-05T09:59:06.450Z</time>
      </trkpt>
      <trkpt lat="46.99205" lon="8.66799">
        <ele>569</ele>
        <time>2021-08-05T09:59:07.450Z</time>
      </trkpt>
      <trkpt lat="46.99204" lon="8.668">
        <ele>569</ele>
        <time>2021-08-05T09:59:08.451Z</time>
      </trkpt>
      <trkpt lat="46.99204" lon="8.66801">
        <ele>569</ele>
        <time>2021-08-05T09:59:09.451Z</time>
      </trkpt>
      <trkpt lat="46.99203" lon="8.66803">
        <ele>569</ele>
        <time>2021-08-05T09:59:10.451Z</time>
      </trkpt>
      <trkpt lat="46.99202" lon="8.66804">
        <ele>570</ele>
        <time>2021-08-05T09:59:11.451Z</time>
      </trkpt>
      <trkpt lat="46.99201" lon="8.66806">
        <ele>569</ele>
        <time>2021-08-05T09:59:12.451Z</time>
      </trkpt>
      <trkpt lat="46.992" lon="8.66808">
        <ele>569</ele>
        <time>2021-08-05T09:59:13.450Z</time>
      </trkpt>
      <trkpt lat="46.992" lon="8.66809">
        <ele>569</ele>
        <time>2021-08-05T09:59:14.450Z</time>
      </trkpt>
      <trkpt lat="46.99201" lon="8.6681">
        <ele>569</ele>
        <time>2021-08-05T09:59:15.451Z</time>
      </trkpt>
      <trkpt lat="46.99202" lon="8.66811">
        <ele>569</ele>
        <time>2021-08-05T09:59:16.450Z</time>
      </trkpt>
      <trkpt lat="46.99203" lon="8.66811">
        <ele>569</ele>
        <time>2021-08-05T09:59:17.451Z</time>
      </trkpt>
      <trkpt lat="46.99202" lon="8.66813">
        <ele>569</ele>
        <time>2021-08-05T09:59:18.451Z</time>
      </trkpt>
      <trkpt lat="46.99201" lon="8.66814">
        <ele>569</ele>
        <time>2021-08-05T09:59:19.451Z</time>
      </trkpt>
      <trkpt lat="46.992" lon="8.66816">
        <ele>569</ele>
        <time>2021-08-05T09:59:20.450Z</time>
      </trkpt>
      <trkpt lat="46.99201" lon="8.66817">
        <ele>569</ele>
        <time>2021-08-05T09:59:21.451Z</time>
      </trkpt>
      <trkpt lat="46.99199" lon="8.6682">
        <ele>569</ele>
        <time>2021-08-05T09:59:22.451Z</time>
      </trkpt>
      <trkpt lat="46.99198" lon="8.66822">
        <ele>569</ele>
        <time>2021-08-05T09:59:23.451Z</time>
      </trkpt>
      <trkpt lat="46.99196" lon="8.66824">
        <ele>569</ele>
        <time>2021-08-05T09:59:24.451Z</time>
      </trkpt>
      <trkpt lat="46.99195" lon="8.66826">
        <ele>569</ele>
        <time>2021-08-05T09:59:25.451Z</time>
      </trkpt>
      <trkpt lat="46.99195" lon="8.66827">
        <ele>569</ele>
        <time>2021-08-05T09:59:26.450Z</time>
      </trkpt>
      <trkpt lat="46.99195" lon="8.66829">
        <ele>569</ele>
        <time>2021-08-05T09:59:27.451Z</time>
      </trkpt>
      <trkpt lat="46.99194" lon="8.66832">
        <ele>569</ele>
        <time>2021-08-05T09:59:28.450Z</time>
      </trkpt>
      <trkpt lat="46.99193" lon="8.66834">
        <ele>569</ele>
        <time>2021-08-05T09:59:29.450Z</time>
      </trkpt>
      <trkpt lat="46.99192" lon="8.66837">
        <ele>569</ele>
        <time>2021-08-05T09:59:30.450Z</time>
      </trkpt>
      <trkpt lat="46.99191" lon="8.6684">
        <ele>569</ele>
        <time>2021-08-05T09:59:31.451Z</time>
      </trkpt>
      <trkpt lat="46.9919" lon="8.66842">
        <ele>569</ele>
        <time>2021-08-05T09:59:32.450Z</time>
      </trkpt>
      <trkpt lat="46.99191" lon="8.66845">
        <ele>569</ele>
        <time>2021-08-05T09:59:33.451Z</time>
      </trkpt>
      <trkpt lat="46.99193" lon="8.66846">
        <ele>569</ele>
        <time>2021-08-05T09:59:34.451Z</time>
      </trkpt>
      <trkpt lat="46.99195" lon="8.66848">
        <ele>569</ele>
        <time>2021-08-05T09:59:35.451Z</time>
      </trkpt>
      <trkpt lat="46.99197" lon="8.6685">
        <ele>569</ele>
        <time>2021-08-05T09:59:36.451Z</time>
      </trkpt>
      <trkpt lat="46.99198" lon="8.66851">
        <ele>569</ele>
        <time>2021-08-05T09:59:37.450Z</time>
      </trkpt>
      <trkpt lat="46.99199" lon="8.66852">
        <ele>569</ele>
        <time>2021-08-05T09:59:38.451Z</time>
      </trkpt>
      <trkpt lat="46.99197" lon="8.66854">
        <ele>569</ele>
        <time>2021-08-05T09:59:39.451Z</time>
      </trkpt>
      <trkpt lat="46.99195" lon="8.66856">
        <ele>569</ele>
        <time>2021-08-05T09:59:40.451Z</time>
      </trkpt>
      <trkpt lat="46.99194" lon="8.6686">
        <ele>569</ele>
        <time>2021-08-05T09:59:41.451Z</time>
      </trkpt>
      <trkpt lat="46.99194" lon="8.66862">
        <ele>569</ele>
        <time>2021-08-05T09:59:42.451Z</time>
      </trkpt>
      <trkpt lat="46.99193" lon="8.66864">
        <ele>569</ele>
        <time>2021-08-05T09:59:43.450Z</time>
      </trkpt>
      <trkpt lat="46.99194" lon="8.66866">
        <ele>569</ele>
        <time>2021-08-05T09:59:44.451Z</time>
      </trkpt>
      <trkpt lat="46.99193" lon="8.66868">
        <ele>569</ele>
        <time>2021-08-05T09:59:45.450Z</time>
      </trkpt>
      <trkpt lat="46.99192" lon="8.6687">
        <ele>569</ele>
        <time>2021-08-05T09:59:46.451Z</time>
      </trkpt>
      <trkpt lat="46.99191" lon="8.66871">
        <ele>569</ele>
        <time>2021-08-05T09:59:47.451Z</time>
      </trkpt>
      <trkpt lat="46.99191" lon="8.66873">
        <ele>569</ele>
        <time>2021-08-05T09:59:48.450Z</time>
      </trkpt>
      <trkpt lat="46.9919" lon="8.66875">
        <ele>568</ele>
        <time>2021-08-05T09:59:49.451Z</time>
      </trkpt>
      <trkpt lat="46.99189" lon="8.66877">
        <ele>568</ele>
        <time>2021-08-05T09:59:50.451Z</time>
      </trkpt>
      <trkpt lat="46.99188" lon="8.6688">
        <ele>568</ele>
        <time>2021-08-05T09:59:51.450Z</time>
      </trkpt>
      <trkpt lat="46.99187" lon="8.66883">
        <ele>568</ele>
        <time>2021-08-05T09:59:52.451Z</time>
      </trkpt>
      <trkpt lat="46.99186" lon="8.66885">
        <ele>568</ele>
        <time>2021-08-05T09:59:53.451Z</time>
      </trkpt>
      <trkpt lat="46.99186" lon="8.66887">
        <ele>568</ele>
        <time>2021-08-05T09:59:54.450Z</time>
      </trkpt>
      <trkpt lat="46.99185" lon="8.66889">
        <ele>568</ele>
        <time>2021-08-05T09:59:55.451Z</time>
      </trkpt>
      <trkpt lat="46.99186" lon="8.66891">
        <ele>568</ele>
        <time>2021-08-05T09:59:56.450Z</time>
      </trkpt>
      <trkpt lat="46.99188" lon="8.66893">
        <ele>568</ele>
        <time>2021-08-05T09:59:57.450Z</time>
      </trkpt>
      <trkpt lat="46.99188" lon="8.66894">
        <ele>568</ele>
        <time>2021-08-05T09:59:58.451Z</time>
      </trkpt>
      <trkpt lat="46.99188" lon="8.66894">
        <ele>568</ele>
        <time>2021-08-05T09:59:59.451Z</time>
      </trkpt>
      <trkpt lat="46.99189" lon="8.66895">
        <ele>567</ele>
        <time>2021-08-05T10:00:00.450Z</time>
      </trkpt>
      <trkpt lat="46.99189" lon="8.66895">
        <ele>567</ele>
        <time>2021-08-05T10:00:01.451Z</time>
      </trkpt>
      <trkpt lat="46.9919" lon="8.66895">
        <ele>567</ele>
        <time>2021-08-05T10:00:02.451Z</time>
      </trkpt>
      <trkpt lat="46.9919" lon="8.66895">
        <ele>566</ele>
        <time>2021-08-05T10:00:03.451Z</time>
      </trkpt>
      <trkpt lat="46.9919" lon="8.66896">
        <ele>566</ele>
        <time>2021-08-05T10:00:04.451Z</time>
      </trkpt>
      <trkpt lat="46.9919" lon="8.66897">
        <ele>566</ele>
        <time>2021-08-05T10:00:05.450Z</time>
      </trkpt>
      <trkpt lat="46.99189" lon="8.66897">
        <ele>565</ele>
        <time>2021-08-05T10:00:06.451Z</time>
      </trkpt>
      <trkpt lat="46.99189" lon="8.66897">
        <ele>565</ele>
        <time>2021-08-05T10:00:07.450Z</time>
      </trkpt>
      <trkpt lat="46.99189" lon="8.66898">
        <ele>565</ele>
        <time>2021-08-05T10:00:08.450Z</time>
      </trkpt>
      <trkpt lat="46.99188" lon="8.66898">
        <ele>565</ele>
        <time>2021-08-05T10:00:09.451Z</time>
      </trkpt>
      <trkpt lat="46.99188" lon="8.66899">
        <ele>566</ele>
        <time>2021-08-05T10:00:10.451Z</time>
      </trkpt>
      <trkpt lat="46.99187" lon="8.66899">
        <ele>566</ele>
        <time>2021-08-05T10:00:11.450Z</time>
      </trkpt>
      <trkpt lat="46.99187" lon="8.66901">
        <ele>566</ele>
        <time>2021-08-05T10:00:12.451Z</time>
      </trkpt>
      <trkpt lat="46.99185" lon="8.66902">
        <ele>567</ele>
        <time>2021-08-05T10:00:13.450Z</time>
      </trkpt>
      <trkpt lat="46.99184" lon="8.66904">
        <ele>567</ele>
        <time>2021-08-05T10:00:14.451Z</time>
      </trkpt>
      <trkpt lat="46.99184" lon="8.66907">
        <ele>567</ele>
        <time>2021-08-05T10:00:15.450Z</time>
      </trkpt>
      <trkpt lat="46.99183" lon="8.66909">
        <ele>568</ele>
        <time>2021-08-05T10:00:16.451Z</time>
      </trkpt>
      <trkpt lat="46.99181" lon="8.66911">
        <ele>568</ele>
        <time>2021-08-05T10:00:17.450Z</time>
      </trkpt>
      <trkpt lat="46.99179" lon="8.66912">
        <ele>568</ele>
        <time>2021-08-05T10:00:18.451Z</time>
      </trkpt>
      <trkpt lat="46.99179" lon="8.66912">
        <ele>568</ele>
        <time>2021-08-05T10:00:19.450Z</time>
      </trkpt>
      <trkpt lat="46.99179" lon="8.66912">
        <ele>569</ele>
        <time>2021-08-05T10:00:20.450Z</time>
      </trkpt>
      <trkpt lat="46.99179" lon="8.66913">
        <ele>569</ele>
        <time>2021-08-05T10:00:21.451Z</time>
      </trkpt>
      <trkpt lat="46.9918" lon="8.66914">
        <ele>570</ele>
        <time>2021-08-05T10:00:22.451Z</time>
      </trkpt>
      <trkpt lat="46.99181" lon="8.66915">
        <ele>570</ele>
        <time>2021-08-05T10:00:23.451Z</time>
      </trkpt>
      <trkpt lat="46.99181" lon="8.66917">
        <ele>570</ele>
        <time>2021-08-05T10:00:24.450Z</time>
      </trkpt>
      <trkpt lat="46.99182" lon="8.66918">
        <ele>571</ele>
        <time>2021-08-05T10:00:25.451Z</time>
      </trkpt>
      <trkpt lat="46.99181" lon="8.66919">
        <ele>571</ele>
        <time>2021-08-05T10:00:26.450Z</time>
      </trkpt>
      <trkpt lat="46.99181" lon="8.6692">
        <ele>572</ele>
        <time>2021-08-05T10:00:27.451Z</time>
      </trkpt>
      <trkpt lat="46.9918" lon="8.66921">
        <ele>572</ele>
        <time>2021-08-05T10:00:28.450Z</time>
      </trkpt>
      <trkpt lat="46.99179" lon="8.66921">
        <ele>572</ele>
        <time>2021-08-05T10:00:29.450Z</time>
      </trkpt>
      <trkpt lat="46.99179" lon="8.66922">
        <ele>572</ele>
        <time>2021-08-05T10:00:30.450Z</time>
      </trkpt>
      <trkpt lat="46.9918" lon="8.66922">
        <ele>573</ele>
        <time>2021-08-05T10:00:31.451Z</time>
      </trkpt>
      <trkpt lat="46.9918" lon="8.66923">
        <ele>573</ele>
        <time>2021-08-05T10:00:32.450Z</time>
      </trkpt>
      <trkpt lat="46.99181" lon="8.66923">
        <ele>573</ele>
        <time>2021-08-05T10:00:33.451Z</time>
      </trkpt>
      <trkpt lat="46.99181" lon="8.66924">
        <ele>573</ele>
        <time>2021-08-05T10:00:34.451Z</time>
      </trkpt>
      <trkpt lat="46.9918" lon="8.66925">
        <ele>573</ele>
        <time>2021-08-05T10:00:35.451Z</time>
      </trkpt>
      <trkpt lat="46.9918" lon="8.66926">
        <ele>574</ele>
        <time>2021-08-05T10:00:36.451Z</time>
      </trkpt>
      <trkpt lat="46.9918" lon="8.66927">
        <ele>574</ele>
        <time>2021-08-05T10:00:37.451Z</time>
      </trkpt>
      <trkpt lat="46.99179" lon="8.66927">
        <ele>574</ele>
        <time>2021-08-05T10:00:38.450Z</time>
      </trkpt>
      <trkpt lat="46.99179" lon="8.66928">
        <ele>574</ele>
        <time>2021-08-05T10:00:39.450Z</time>
      </trkpt>
      <trkpt lat="46.99179" lon="8.66928">
        <ele>574</ele>
        <time>2021-08-05T10:00:40.451Z</time>
      </trkpt>
      <trkpt lat="46.99179" lon="8.66927">
        <ele>574</ele>
        <time>2021-08-05T10:00:41.451Z</time>
      </trkpt>
      <trkpt lat="46.99179" lon="8.66927">
        <ele>574</ele>
        <time>2021-08-05T10:00:42.451Z</time>
      </trkpt>
      <trkpt lat="46.99178" lon="8.66928">
        <ele>575</ele>
        <time>2021-08-05T10:00:43.450Z</time>
      </trkpt>
      <trkpt lat="46.99177" lon="8.66929">
        <ele>575</ele>
        <time>2021-08-05T10:00:44.450Z</time>
      </trkpt>
      <trkpt lat="46.99176" lon="8.6693">
        <ele>575</ele>
        <time>2021-08-05T10:00:45.450Z</time>
      </trkpt>
      <trkpt lat="46.99176" lon="8.6693">
        <ele>576</ele>
        <time>2021-08-05T10:00:46.451Z</time>
      </trkpt>
      <trkpt lat="46.99176" lon="8.66931">
        <ele>576</ele>
        <time>2021-08-05T10:00:47.450Z</time>
      </trkpt>
      <trkpt lat="46.99176" lon="8.66931">
        <ele>576</ele>
        <time>2021-08-05T10:00:48.451Z</time>
      </trkpt>
      <trkpt lat="46.99176" lon="8.66932">
        <ele>576</ele>
        <time>2021-08-05T10:00:49.450Z</time>
      </trkpt>
      <trkpt lat="46.99173" lon="8.66933">
        <ele>577</ele>
        <time>2021-08-05T10:00:50.451Z</time>
      </trkpt>
      <trkpt lat="46.99172" lon="8.66933">
        <ele>578</ele>
        <time>2021-08-05T10:00:51.450Z</time>
      </trkpt>
      <trkpt lat="46.99171" lon="8.66934">
        <ele>578</ele>
        <time>2021-08-05T10:00:52.450Z</time>
      </trkpt>
      <trkpt lat="46.9917" lon="8.66935">
        <ele>579</ele>
        <time>2021-08-05T10:00:53.450Z</time>
      </trkpt>
      <trkpt lat="46.99169" lon="8.66936">
        <ele>579</ele>
        <time>2021-08-05T10:00:54.451Z</time>
      </trkpt>
      <trkpt lat="46.99168" lon="8.66937">
        <ele>580</ele>
        <time>2021-08-05T10:00:55.450Z</time>
      </trkpt>
      <trkpt lat="46.99167" lon="8.66939">
        <ele>580</ele>
        <time>2021-08-05T10:00:56.450Z</time>
      </trkpt>
      <trkpt lat="46.99167" lon="8.6694">
        <ele>581</ele>
        <time>2021-08-05T10:00:57.450Z</time>
      </trkpt>
      <trkpt lat="46.99168" lon="8.66942">
        <ele>581</ele>
        <time>2021-08-05T10:00:58.451Z</time>
      </trkpt>
      <trkpt lat="46.99168" lon="8.66944">
        <ele>581</ele>
        <time>2021-08-05T10:00:59.450Z</time>
      </trkpt>
      <trkpt lat="46.99168" lon="8.66945">
        <ele>582</ele>
        <time>2021-08-05T10:01:00.451Z</time>
      </trkpt>
      <trkpt lat="46.99168" lon="8.66946">
        <ele>582</ele>
        <time>2021-08-05T10:01:01.451Z</time>
      </trkpt>
      <trkpt lat="46.99168" lon="8.66948">
        <ele>582</ele>
        <time>2021-08-05T10:01:02.450Z</time>
      </trkpt>
      <trkpt lat="46.99168" lon="8.66949">
        <ele>583</ele>
        <time>2021-08-05T10:01:03.451Z</time>
      </trkpt>
      <trkpt lat="46.99167" lon="8.66951">
        <ele>583</ele>
        <time>2021-08-05T10:01:04.450Z</time>
      </trkpt>
      <trkpt lat="46.99168" lon="8.66952">
        <ele>583</ele>
        <time>2021-08-05T10:01:05.451Z</time>
      </trkpt>
      <trkpt lat="46.9917" lon="8.66952">
        <ele>583</ele>
        <time>2021-08-05T10:01:06.451Z</time>
      </trkpt>
      <trkpt lat="46.99173" lon="8.66953">
        <ele>583</ele>
        <time>2021-08-05T10:01:07.451Z</time>
      </trkpt>
      <trkpt lat="46.99175" lon="8.66954">
        <ele>583</ele>
        <time>2021-08-05T10:01:08.451Z</time>
      </trkpt>
      <trkpt lat="46.99178" lon="8.66954">
        <ele>583</ele>
        <time>2021-08-05T10:01:09.451Z</time>
      </trkpt>
      <trkpt lat="46.99179" lon="8.66955">
        <ele>583</ele>
        <time>2021-08-05T10:01:10.451Z</time>
      </trkpt>
      <trkpt lat="46.9918" lon="8.66956">
        <ele>583</ele>
        <time>2021-08-05T10:01:11.450Z</time>
      </trkpt>
      <trkpt lat="46.9918" lon="8.66957">
        <ele>583</ele>
        <time>2021-08-05T10:01:12.451Z</time>
      </trkpt>
      <trkpt lat="46.99181" lon="8.66957">
        <ele>583</ele>
        <time>2021-08-05T10:01:13.451Z</time>
      </trkpt>
      <trkpt lat="46.99181" lon="8.66957">
        <ele>583</ele>
        <time>2021-08-05T10:01:14.451Z</time>
      </trkpt>
      <trkpt lat="46.9918" lon="8.66957">
        <ele>583</ele>
        <time>2021-08-05T10:01:15.451Z</time>
      </trkpt>
      <trkpt lat="46.9918" lon="8.66957">
        <ele>583</ele>
        <time>2021-08-05T10:01:16.450Z</time>
      </trkpt>
      <trkpt lat="46.9918" lon="8.66957">
        <ele>582</ele>
        <time>2021-08-05T10:01:17.450Z</time>
      </trkpt>
      <trkpt lat="46.99175" lon="8.66959">
        <ele>582</ele>
        <time>2021-08-05T10:01:18.452Z</time>
      </trkpt>
      <trkpt lat="46.99172" lon="8.66961">
        <ele>582</ele>
        <time>2021-08-05T10:01:19.452Z</time>
      </trkpt>
      <trkpt lat="46.99172" lon="8.66963">
        <ele>582</ele>
        <time>2021-08-05T10:01:20.452Z</time>
      </trkpt>
      <trkpt lat="46.99172" lon="8.66965">
        <ele>582</ele>
        <time>2021-08-05T10:01:21.451Z</time>
      </trkpt>
      <trkpt lat="46.99173" lon="8.66967">
        <ele>582</ele>
        <time>2021-08-05T10:01:22.451Z</time>
      </trkpt>
      <trkpt lat="46.99173" lon="8.66969">
        <ele>581</ele>
        <time>2021-08-05T10:01:23.452Z</time>
      </trkpt>
      <trkpt lat="46.99173" lon="8.6697">
        <ele>581</ele>
        <time>2021-08-05T10:01:24.452Z</time>
      </trkpt>
      <trkpt lat="46.99173" lon="8.66972">
        <ele>581</ele>
        <time>2021-08-05T10:01:25.452Z</time>
      </trkpt>
      <trkpt lat="46.99171" lon="8.66974">
        <ele>581</ele>
        <time>2021-08-05T10:01:26.452Z</time>
      </trkpt>
      <trkpt lat="46.9917" lon="8.66976">
        <ele>581</ele>
        <time>2021-08-05T10:01:27.452Z</time>
      </trkpt>
      <trkpt lat="46.99169" lon="8.66978">
        <ele>581</ele>
        <time>2021-08-05T10:01:28.452Z</time>
      </trkpt>
      <trkpt lat="46.99169" lon="8.66981">
        <ele>580</ele>
        <time>2021-08-05T10:01:29.452Z</time>
      </trkpt>
      <trkpt lat="46.99169" lon="8.66984">
        <ele>580</ele>
        <time>2021-08-05T10:01:30.451Z</time>
      </trkpt>
      <trkpt lat="46.99168" lon="8.66987">
        <ele>580</ele>
        <time>2021-08-05T10:01:31.451Z</time>
      </trkpt>
      <trkpt lat="46.99166" lon="8.66988">
        <ele>580</ele>
        <time>2021-08-05T10:01:32.452Z</time>
      </trkpt>
      <trkpt lat="46.99165" lon="8.6699">
        <ele>580</ele>
        <time>2021-08-05T10:01:33.451Z</time>
      </trkpt>
      <trkpt lat="46.99163" lon="8.66992">
        <ele>579</ele>
        <time>2021-08-05T10:01:34.451Z</time>
      </trkpt>
      <trkpt lat="46.99161" lon="8.66995">
        <ele>579</ele>
        <time>2021-08-05T10:01:35.452Z</time>
      </trkpt>
      <trkpt lat="46.99159" lon="8.66998">
        <ele>579</ele>
        <time>2021-08-05T10:01:36.451Z</time>
      </trkpt>
      <trkpt lat="46.99158" lon="8.67003">
        <ele>579</ele>
        <time>2021-08-05T10:01:37.451Z</time>
      </trkpt>
      <trkpt lat="46.99156" lon="8.67008">
        <ele>579</ele>
        <time>2021-08-05T10:01:38.451Z</time>
      </trkpt>
      <trkpt lat="46.99156" lon="8.67014">
        <ele>579</ele>
        <time>2021-08-05T10:01:39.451Z</time>
      </trkpt>
      <trkpt lat="46.99155" lon="8.6702">
        <ele>579</ele>
        <time>2021-08-05T10:01:40.452Z</time>
      </trkpt>
      <trkpt lat="46.99153" lon="8.67025">
        <ele>579</ele>
        <time>2021-08-05T10:01:41.451Z</time>
      </trkpt>
      <trkpt lat="46.99152" lon="8.67029">
        <ele>579</ele>
        <time>2021-08-05T10:01:42.452Z</time>
      </trkpt>
      <trkpt lat="46.9915" lon="8.67031">
        <ele>579</ele>
        <time>2021-08-05T10:01:43.452Z</time>
      </trkpt>
      <trkpt lat="46.99149" lon="8.67034">
        <ele>579</ele>
        <time>2021-08-05T10:01:44.451Z</time>
      </trkpt>
      <trkpt lat="46.99147" lon="8.67036">
        <ele>579</ele>
        <time>2021-08-05T10:01:45.451Z</time>
      </trkpt>
      <trkpt lat="46.99145" lon="8.67038">
        <ele>579</ele>
        <time>2021-08-05T10:01:46.452Z</time>
      </trkpt>
      <trkpt lat="46.99143" lon="8.67041">
        <ele>578</ele>
        <time>2021-08-05T10:01:47.451Z</time>
      </trkpt>
      <trkpt lat="46.99142" lon="8.67043">
        <ele>578</ele>
        <time>2021-08-05T10:01:48.452Z</time>
      </trkpt>
      <trkpt lat="46.99141" lon="8.67045">
        <ele>578</ele>
        <time>2021-08-05T10:01:49.452Z</time>
      </trkpt>
      <trkpt lat="46.9914" lon="8.67046">
        <ele>578</ele>
        <time>2021-08-05T10:01:50.452Z</time>
      </trkpt>
      <trkpt lat="46.99139" lon="8.67047">
        <ele>578</ele>
        <time>2021-08-05T10:01:51.451Z</time>
      </trkpt>
      <trkpt lat="46.99139" lon="8.67049">
        <ele>578</ele>
        <time>2021-08-05T10:01:52.451Z</time>
      </trkpt>
      <trkpt lat="46.9914" lon="8.67051">
        <ele>578</ele>
        <time>2021-08-05T10:01:53.451Z</time>
      </trkpt>
      <trkpt lat="46.99139" lon="8.67054">
        <ele>577</ele>
        <time>2021-08-05T10:01:54.452Z</time>
      </trkpt>
      <trkpt lat="46.99136" lon="8.67057">
        <ele>577</ele>
        <time>2021-08-05T10:01:55.451Z</time>
      </trkpt>
      <trkpt lat="46.99134" lon="8.6706">
        <ele>577</ele>
        <time>2021-08-05T10:01:56.451Z</time>
      </trkpt>
      <trkpt lat="46.99132" lon="8.67061">
        <ele>577</ele>
        <time>2021-08-05T10:01:57.451Z</time>
      </trkpt>
      <trkpt lat="46.9913" lon="8.67064">
        <ele>576</ele>
        <time>2021-08-05T10:01:58.452Z</time>
      </trkpt>
      <trkpt lat="46.99129" lon="8.67067">
        <ele>576</ele>
        <time>2021-08-05T10:01:59.452Z</time>
      </trkpt>
      <trkpt lat="46.9913" lon="8.6707">
        <ele>576</ele>
        <time>2021-08-05T10:02:00.452Z</time>
      </trkpt>
      <trkpt lat="46.9913" lon="8.67073">
        <ele>575</ele>
        <time>2021-08-05T10:02:01.451Z</time>
      </trkpt>
      <trkpt lat="46.9913" lon="8.67075">
        <ele>575</ele>
        <time>2021-08-05T10:02:02.451Z</time>
      </trkpt>
      <trkpt lat="46.9913" lon="8.67077">
        <ele>575</ele>
        <time>2021-08-05T10:02:03.452Z</time>
      </trkpt>
      <trkpt lat="46.99129" lon="8.67079">
        <ele>574</ele>
        <time>2021-08-05T10:02:04.452Z</time>
      </trkpt>
      <trkpt lat="46.99128" lon="8.67081">
        <ele>574</ele>
        <time>2021-08-05T10:02:05.451Z</time>
      </trkpt>
      <trkpt lat="46.99127" lon="8.67083">
        <ele>574</ele>
        <time>2021-08-05T10:02:06.451Z</time>
      </trkpt>
      <trkpt lat="46.99127" lon="8.67085">
        <ele>573</ele>
        <time>2021-08-05T10:02:07.451Z</time>
      </trkpt>
      <trkpt lat="46.99127" lon="8.67086">
        <ele>573</ele>
        <time>2021-08-05T10:02:08.452Z</time>
      </trkpt>
      <trkpt lat="46.99128" lon="8.67088">
        <ele>572</ele>
        <time>2021-08-05T10:02:09.452Z</time>
      </trkpt>
      <trkpt lat="46.99126" lon="8.6709">
        <ele>572</ele>
        <time>2021-08-05T10:02:10.452Z</time>
      </trkpt>
      <trkpt lat="46.99125" lon="8.67092">
        <ele>572</ele>
        <time>2021-08-05T10:02:11.452Z</time>
      </trkpt>
      <trkpt lat="46.99125" lon="8.67094">
        <ele>571</ele>
        <time>2021-08-05T10:02:12.452Z</time>
      </trkpt>
      <trkpt lat="46.99125" lon="8.67096">
        <ele>571</ele>
        <time>2021-08-05T10:02:13.452Z</time>
      </trkpt>
      <trkpt lat="46.99124" lon="8.67098">
        <ele>570</ele>
        <time>2021-08-05T10:02:14.452Z</time>
      </trkpt>
      <trkpt lat="46.99124" lon="8.67099">
        <ele>570</ele>
        <time>2021-08-05T10:02:15.452Z</time>
      </trkpt>
      <trkpt lat="46.99123" lon="8.67101">
        <ele>570</ele>
        <time>2021-08-05T10:02:16.451Z</time>
      </trkpt>
      <trkpt lat="46.99122" lon="8.67103">
        <ele>569</ele>
        <time>2021-08-05T10:02:17.451Z</time>
      </trkpt>
      <trkpt lat="46.99122" lon="8.67105">
        <ele>569</ele>
        <time>2021-08-05T10:02:18.451Z</time>
      </trkpt>
      <trkpt lat="46.99122" lon="8.67107">
        <ele>568</ele>
        <time>2021-08-05T10:02:19.452Z</time>
      </trkpt>
      <trkpt lat="46.99122" lon="8.67109">
        <ele>568</ele>
        <time>2021-08-05T10:02:20.452Z</time>
      </trkpt>
      <trkpt lat="46.99122" lon="8.6711">
        <ele>567</ele>
        <time>2021-08-05T10:02:21.452Z</time>
      </trkpt>
      <trkpt lat="46.99122" lon="8.67111">
        <ele>567</ele>
        <time>2021-08-05T10:02:22.451Z</time>
      </trkpt>
      <trkpt lat="46.99123" lon="8.67112">
        <ele>567</ele>
        <time>2021-08-05T10:02:23.452Z</time>
      </trkpt>
      <trkpt lat="46.99123" lon="8.67113">
        <ele>566</ele>
        <time>2021-08-05T10:02:24.452Z</time>
      </trkpt>
      <trkpt lat="46.99123" lon="8.67114">
        <ele>566</ele>
        <time>2021-08-05T10:02:25.452Z</time>
      </trkpt>
      <trkpt lat="46.99123" lon="8.67116">
        <ele>566</ele>
        <time>2021-08-05T10:02:26.451Z</time>
      </trkpt>
      <trkpt lat="46.99123" lon="8.67118">
        <ele>566</ele>
        <time>2021-08-05T10:02:27.452Z</time>
      </trkpt>
      <trkpt lat="46.99123" lon="8.67121">
        <ele>566</ele>
        <time>2021-08-05T10:02:28.452Z</time>
      </trkpt>
      <trkpt lat="46.99123" lon="8.67124">
        <ele>565</ele>
        <time>2021-08-05T10:02:29.451Z</time>
      </trkpt>
      <trkpt lat="46.99122" lon="8.67127">
        <ele>565</ele>
        <time>2021-08-05T10:02:30.451Z</time>
      </trkpt>
      <trkpt lat="46.99122" lon="8.67129">
        <ele>565</ele>
        <time>2021-08-05T10:02:31.451Z</time>
      </trkpt>
      <trkpt lat="46.99121" lon="8.67132">
        <ele>564</ele>
        <time>2021-08-05T10:02:32.451Z</time>
      </trkpt>
      <trkpt lat="46.99121" lon="8.67135">
        <ele>564</ele>
        <time>2021-08-05T10:02:33.452Z</time>
      </trkpt>
      <trkpt lat="46.99122" lon="8.67138">
        <ele>564</ele>
        <time>2021-08-05T10:02:34.452Z</time>
      </trkpt>
      <trkpt lat="46.99123" lon="8.6714">
        <ele>563</ele>
        <time>2021-08-05T10:02:35.452Z</time>
      </trkpt>
      <trkpt lat="46.99123" lon="8.67143">
        <ele>563</ele>
        <time>2021-08-05T10:02:36.452Z</time>
      </trkpt>
      <trkpt lat="46.99124" lon="8.67144">
        <ele>563</ele>
        <time>2021-08-05T10:02:37.451Z</time>
      </trkpt>
      <trkpt lat="46.99124" lon="8.67145">
        <ele>563</ele>
        <time>2021-08-05T10:02:38.451Z</time>
      </trkpt>
      <trkpt lat="46.99124" lon="8.67146">
        <ele>563</ele>
        <time>2021-08-05T10:02:39.452Z</time>
      </trkpt>
      <trkpt lat="46.99124" lon="8.67146">
        <ele>563</ele>
        <time>2021-08-05T10:02:40.452Z</time>
      </trkpt>
      <trkpt lat="46.99124" lon="8.67147">
        <ele>563</ele>
        <time>2021-08-05T10:02:41.451Z</time>
      </trkpt>
      <trkpt lat="46.99125" lon="8.67147">
        <ele>563</ele>
        <time>2021-08-05T10:02:42.451Z</time>
      </trkpt>
      <trkpt lat="46.99125" lon="8.67147">
        <ele>563</ele>
        <time>2021-08-05T10:02:43.452Z</time>
      </trkpt>
      <trkpt lat="46.99125" lon="8.67147">
        <ele>563</ele>
        <time>2021-08-05T10:02:44.452Z</time>
      </trkpt>
      <trkpt lat="46.99126" lon="8.6715">
        <ele>563</ele>
        <time>2021-08-05T10:02:45.453Z</time>
      </trkpt>
      <trkpt lat="46.99127" lon="8.67151">
        <ele>564</ele>
        <time>2021-08-05T10:02:46.453Z</time>
      </trkpt>
      <trkpt lat="46.99127" lon="8.67152">
        <ele>564</ele>
        <time>2021-08-05T10:02:47.452Z</time>
      </trkpt>
      <trkpt lat="46.99128" lon="8.67153">
        <ele>564</ele>
        <time>2021-08-05T10:02:48.453Z</time>
      </trkpt>
      <trkpt lat="46.99128" lon="8.67155">
        <ele>564</ele>
        <time>2021-08-05T10:02:49.452Z</time>
      </trkpt>
      <trkpt lat="46.99128" lon="8.67157">
        <ele>563</ele>
        <time>2021-08-05T10:02:50.453Z</time>
      </trkpt>
      <trkpt lat="46.99129" lon="8.67159">
        <ele>563</ele>
        <time>2021-08-05T10:02:51.452Z</time>
      </trkpt>
      <trkpt lat="46.99129" lon="8.67162">
        <ele>563</ele>
        <time>2021-08-05T10:02:52.452Z</time>
      </trkpt>
      <trkpt lat="46.99131" lon="8.67162">
        <ele>563</ele>
        <time>2021-08-05T10:02:53.453Z</time>
      </trkpt>
      <trkpt lat="46.99133" lon="8.67159">
        <ele>563</ele>
        <time>2021-08-05T10:02:54.453Z</time>
      </trkpt>
      <trkpt lat="46.99134" lon="8.67158">
        <ele>564</ele>
        <time>2021-08-05T10:02:55.452Z</time>
      </trkpt>
      <trkpt lat="46.99135" lon="8.67156">
        <ele>564</ele>
        <time>2021-08-05T10:02:56.453Z</time>
      </trkpt>
      <trkpt lat="46.99135" lon="8.67155">
        <ele>564</ele>
        <time>2021-08-05T10:02:57.453Z</time>
      </trkpt>
      <trkpt lat="46.99133" lon="8.67151">
        <ele>568</ele>
        <time>2021-08-05T10:02:58.453Z</time>
      </trkpt>
      <trkpt lat="46.99133" lon="8.67152">
        <ele>569</ele>
        <time>2021-08-05T10:02:59.453Z</time>
      </trkpt>
      <trkpt lat="46.99134" lon="8.67152">
        <ele>569</ele>
        <time>2021-08-05T10:03:00.453Z</time>
      </trkpt>
      <trkpt lat="46.99134" lon="8.67151">
        <ele>570</ele>
        <time>2021-08-05T10:03:01.454Z</time>
      </trkpt>
      <trkpt lat="46.99135" lon="8.6715">
        <ele>570</ele>
        <time>2021-08-05T10:03:02.454Z</time>
      </trkpt>
      <trkpt lat="46.99135" lon="8.67149">
        <ele>570</ele>
        <time>2021-08-05T10:03:03.454Z</time>
      </trkpt>
      <trkpt lat="46.99136" lon="8.67148">
        <ele>570</ele>
        <time>2021-08-05T10:03:04.454Z</time>
      </trkpt>
      <trkpt lat="46.99137" lon="8.67148">
        <ele>570</ele>
        <time>2021-08-05T10:03:05.454Z</time>
      </trkpt>
      <trkpt lat="46.99137" lon="8.67149">
        <ele>570</ele>
        <time>2021-08-05T10:03:06.453Z</time>
      </trkpt>
      <trkpt lat="46.99137" lon="8.6715">
        <ele>570</ele>
        <time>2021-08-05T10:03:07.454Z</time>
      </trkpt>
      <trkpt lat="46.99136" lon="8.67151">
        <ele>569</ele>
        <time>2021-08-05T10:03:08.454Z</time>
      </trkpt>
      <trkpt lat="46.99136" lon="8.67152">
        <ele>569</ele>
        <time>2021-08-05T10:03:09.454Z</time>
      </trkpt>
      <trkpt lat="46.99136" lon="8.67153">
        <ele>569</ele>
        <time>2021-08-05T10:03:10.453Z</time>
      </trkpt>
      <trkpt lat="46.99136" lon="8.67154">
        <ele>568</ele>
        <time>2021-08-05T10:03:11.453Z</time>
      </trkpt>
      <trkpt lat="46.99137" lon="8.67156">
        <ele>568</ele>
        <time>2021-08-05T10:03:12.454Z</time>
      </trkpt>
      <trkpt lat="46.99137" lon="8.67157">
        <ele>568</ele>
        <time>2021-08-05T10:03:13.454Z</time>
      </trkpt>
      <trkpt lat="46.99138" lon="8.67158">
        <ele>568</ele>
        <time>2021-08-05T10:03:14.454Z</time>
      </trkpt>
      <trkpt lat="46.99139" lon="8.67159">
        <ele>568</ele>
        <time>2021-08-05T10:03:15.454Z</time>
      </trkpt>
      <trkpt lat="46.99139" lon="8.6716">
        <ele>568</ele>
        <time>2021-08-05T10:03:16.453Z</time>
      </trkpt>
      <trkpt lat="46.99138" lon="8.67161">
        <ele>567</ele>
        <time>2021-08-05T10:03:17.454Z</time>
      </trkpt>
      <trkpt lat="46.99138" lon="8.67162">
        <ele>567</ele>
        <time>2021-08-05T10:03:18.453Z</time>
      </trkpt>
      <trkpt lat="46.99138" lon="8.67163">
        <ele>566</ele>
        <time>2021-08-05T10:03:19.454Z</time>
      </trkpt>
      <trkpt lat="46.99138" lon="8.67164">
        <ele>566</ele>
        <time>2021-08-05T10:03:20.454Z</time>
      </trkpt>
      <trkpt lat="46.99138" lon="8.67165">
        <ele>565</ele>
        <time>2021-08-05T10:03:21.454Z</time>
      </trkpt>
      <trkpt lat="46.99137" lon="8.67166">
        <ele>564</ele>
        <time>2021-08-05T10:03:22.454Z</time>
      </trkpt>
      <trkpt lat="46.99136" lon="8.67168">
        <ele>564</ele>
        <time>2021-08-05T10:03:23.453Z</time>
      </trkpt>
      <trkpt lat="46.99135" lon="8.6717">
        <ele>563</ele>
        <time>2021-08-05T10:03:24.454Z</time>
      </trkpt>
      <trkpt lat="46.99134" lon="8.67172">
        <ele>562</ele>
        <time>2021-08-05T10:03:25.454Z</time>
      </trkpt>
      <trkpt lat="46.99133" lon="8.67174">
        <ele>562</ele>
        <time>2021-08-05T10:03:26.453Z</time>
      </trkpt>
      <trkpt lat="46.99132" lon="8.67176">
        <ele>561</ele>
        <time>2021-08-05T10:03:27.453Z</time>
      </trkpt>
      <trkpt lat="46.9913" lon="8.67177">
        <ele>560</ele>
        <time>2021-08-05T10:03:28.453Z</time>
      </trkpt>
      <trkpt lat="46.99128" lon="8.67179">
        <ele>560</ele>
        <time>2021-08-05T10:03:29.454Z</time>
      </trkpt>
      <trkpt lat="46.99126" lon="8.67181">
        <ele>559</ele>
        <time>2021-08-05T10:03:30.454Z</time>
      </trkpt>
      <trkpt lat="46.99126" lon="8.67182">
        <ele>559</ele>
        <time>2021-08-05T10:03:31.454Z</time>
      </trkpt>
      <trkpt lat="46.99127" lon="8.67183">
        <ele>558</ele>
        <time>2021-08-05T10:03:32.453Z</time>
      </trkpt>
      <trkpt lat="46.99128" lon="8.67185">
        <ele>558</ele>
        <time>2021-08-05T10:03:33.453Z</time>
      </trkpt>
      <trkpt lat="46.99128" lon="8.67186">
        <ele>557</ele>
        <time>2021-08-05T10:03:34.454Z</time>
      </trkpt>
      <trkpt lat="46.99128" lon="8.67188">
        <ele>557</ele>
        <time>2021-08-05T10:03:35.454Z</time>
      </trkpt>
      <trkpt lat="46.99128" lon="8.67189">
        <ele>557</ele>
        <time>2021-08-05T10:03:36.454Z</time>
      </trkpt>
      <trkpt lat="46.99128" lon="8.67191">
        <ele>556</ele>
        <time>2021-08-05T10:03:37.454Z</time>
      </trkpt>
      <trkpt lat="46.99128" lon="8.67192">
        <ele>556</ele>
        <time>2021-08-05T10:03:38.454Z</time>
      </trkpt>
      <trkpt lat="46.99127" lon="8.67192">
        <ele>555</ele>
        <time>2021-08-05T10:03:39.454Z</time>
      </trkpt>
      <trkpt lat="46.99127" lon="8.67193">
        <ele>555</ele>
        <time>2021-08-05T10:03:40.453Z</time>
      </trkpt>
      <trkpt lat="46.99125" lon="8.67193">
        <ele>554</ele>
        <time>2021-08-05T10:03:41.454Z</time>
      </trkpt>
      <trkpt lat="46.99124" lon="8.67194">
        <ele>554</ele>
        <time>2021-08-05T10:03:42.454Z</time>
      </trkpt>
      <trkpt lat="46.99123" lon="8.67194">
        <ele>554</ele>
        <time>2021-08-05T10:03:43.454Z</time>
      </trkpt>
      <trkpt lat="46.99122" lon="8.67194">
        <ele>553</ele>
        <time>2021-08-05T10:03:44.454Z</time>
      </trkpt>
      <trkpt lat="46.99122" lon="8.67195">
        <ele>553</ele>
        <time>2021-08-05T10:03:45.453Z</time>
      </trkpt>
      <trkpt lat="46.99122" lon="8.67196">
        <ele>553</ele>
        <time>2021-08-05T10:03:46.454Z</time>
      </trkpt>
      <trkpt lat="46.99122" lon="8.67198">
        <ele>553</ele>
        <time>2021-08-05T10:03:47.454Z</time>
      </trkpt>
      <trkpt lat="46.99122" lon="8.672">
        <ele>552</ele>
        <time>2021-08-05T10:03:48.454Z</time>
      </trkpt>
      <trkpt lat="46.99121" lon="8.67202">
        <ele>552</ele>
        <time>2021-08-05T10:03:49.454Z</time>
      </trkpt>
      <trkpt lat="46.99119" lon="8.67203">
        <ele>552</ele>
        <time>2021-08-05T10:03:50.454Z</time>
      </trkpt>
      <trkpt lat="46.99117" lon="8.67204">
        <ele>552</ele>
        <time>2021-08-05T10:03:51.453Z</time>
      </trkpt>
      <trkpt lat="46.99115" lon="8.67206">
        <ele>552</ele>
        <time>2021-08-05T10:03:52.454Z</time>
      </trkpt>
      <trkpt lat="46.99112" lon="8.67207">
        <ele>552</ele>
        <time>2021-08-05T10:03:53.454Z</time>
      </trkpt>
      <trkpt lat="46.99111" lon="8.67208">
        <ele>552</ele>
        <time>2021-08-05T10:03:54.453Z</time>
      </trkpt>
      <trkpt lat="46.9911" lon="8.6721">
        <ele>552</ele>
        <time>2021-08-05T10:03:55.454Z</time>
      </trkpt>
      <trkpt lat="46.9911" lon="8.67211">
        <ele>552</ele>
        <time>2021-08-05T10:03:56.453Z</time>
      </trkpt>
      <trkpt lat="46.99108" lon="8.67214">
        <ele>552</ele>
        <time>2021-08-05T10:03:57.454Z</time>
      </trkpt>
      <trkpt lat="46.99107" lon="8.67216">
        <ele>552</ele>
        <time>2021-08-05T10:03:58.454Z</time>
      </trkpt>
      <trkpt lat="46.99107" lon="8.67217">
        <ele>552</ele>
        <time>2021-08-05T10:03:59.453Z</time>
      </trkpt>
      <trkpt lat="46.99106" lon="8.67218">
        <ele>552</ele>
        <time>2021-08-05T10:04:00.454Z</time>
      </trkpt>
      <trkpt lat="46.99106" lon="8.6722">
        <ele>553</ele>
        <time>2021-08-05T10:04:01.454Z</time>
      </trkpt>
      <trkpt lat="46.99106" lon="8.67222">
        <ele>553</ele>
        <time>2021-08-05T10:04:02.453Z</time>
      </trkpt>
      <trkpt lat="46.99105" lon="8.67224">
        <ele>554</ele>
        <time>2021-08-05T10:04:03.453Z</time>
      </trkpt>
      <trkpt lat="46.99105" lon="8.67226">
        <ele>554</ele>
        <time>2021-08-05T10:04:04.453Z</time>
      </trkpt>
      <trkpt lat="46.99104" lon="8.67227">
        <ele>555</ele>
        <time>2021-08-05T10:04:05.453Z</time>
      </trkpt>
      <trkpt lat="46.99103" lon="8.67229">
        <ele>555</ele>
        <time>2021-08-05T10:04:06.453Z</time>
      </trkpt>
      <trkpt lat="46.99103" lon="8.67231">
        <ele>556</ele>
        <time>2021-08-05T10:04:07.454Z</time>
      </trkpt>
      <trkpt lat="46.99102" lon="8.67232">
        <ele>557</ele>
        <time>2021-08-05T10:04:08.454Z</time>
      </trkpt>
      <trkpt lat="46.99101" lon="8.67235">
        <ele>557</ele>
        <time>2021-08-05T10:04:09.454Z</time>
      </trkpt>
      <trkpt lat="46.99101" lon="8.67237">
        <ele>557</ele>
        <time>2021-08-05T10:04:10.453Z</time>
      </trkpt>
      <trkpt lat="46.99101" lon="8.6724">
        <ele>558</ele>
        <time>2021-08-05T10:04:11.454Z</time>
      </trkpt>
      <trkpt lat="46.991" lon="8.67242">
        <ele>558</ele>
        <time>2021-08-05T10:04:12.454Z</time>
      </trkpt>
      <trkpt lat="46.991" lon="8.67244">
        <ele>558</ele>
        <time>2021-08-05T10:04:13.454Z</time>
      </trkpt>
      <trkpt lat="46.991" lon="8.67245">
        <ele>559</ele>
        <time>2021-08-05T10:04:14.453Z</time>
      </trkpt>
      <trkpt lat="46.99099" lon="8.67247">
        <ele>559</ele>
        <time>2021-08-05T10:04:15.454Z</time>
      </trkpt>
      <trkpt lat="46.99098" lon="8.67248">
        <ele>559</ele>
        <time>2021-08-05T10:04:16.454Z</time>
      </trkpt>
      <trkpt lat="46.99098" lon="8.6725">
        <ele>559</ele>
        <time>2021-08-05T10:04:17.454Z</time>
      </trkpt>
      <trkpt lat="46.99097" lon="8.67251">
        <ele>559</ele>
        <time>2021-08-05T10:04:18.454Z</time>
      </trkpt>
      <trkpt lat="46.99096" lon="8.67251">
        <ele>560</ele>
        <time>2021-08-05T10:04:19.453Z</time>
      </trkpt>
      <trkpt lat="46.99096" lon="8.67253">
        <ele>560</ele>
        <time>2021-08-05T10:04:20.454Z</time>
      </trkpt>
      <trkpt lat="46.99097" lon="8.67254">
        <ele>561</ele>
        <time>2021-08-05T10:04:21.453Z</time>
      </trkpt>
      <trkpt lat="46.99098" lon="8.67254">
        <ele>561</ele>
        <time>2021-08-05T10:04:22.453Z</time>
      </trkpt>
      <trkpt lat="46.99097" lon="8.67254">
        <ele>562</ele>
        <time>2021-08-05T10:04:23.453Z</time>
      </trkpt>
      <trkpt lat="46.99096" lon="8.67254">
        <ele>562</ele>
        <time>2021-08-05T10:04:24.453Z</time>
      </trkpt>
      <trkpt lat="46.99096" lon="8.67255">
        <ele>563</ele>
        <time>2021-08-05T10:04:25.453Z</time>
      </trkpt>
      <trkpt lat="46.99096" lon="8.67256">
        <ele>563</ele>
        <time>2021-08-05T10:04:26.453Z</time>
      </trkpt>
      <trkpt lat="46.99094" lon="8.67257">
        <ele>563</ele>
        <time>2021-08-05T10:04:27.453Z</time>
      </trkpt>
      <trkpt lat="46.99093" lon="8.67258">
        <ele>563</ele>
        <time>2021-08-05T10:04:28.454Z</time>
      </trkpt>
      <trkpt lat="46.99092" lon="8.67259">
        <ele>564</ele>
        <time>2021-08-05T10:04:29.453Z</time>
      </trkpt>
      <trkpt lat="46.99092" lon="8.6726">
        <ele>563</ele>
        <time>2021-08-05T10:04:30.453Z</time>
      </trkpt>
      <trkpt lat="46.99092" lon="8.67261">
        <ele>562</ele>
        <time>2021-08-05T10:04:31.453Z</time>
      </trkpt>
      <trkpt lat="46.99092" lon="8.67262">
        <ele>561</ele>
        <time>2021-08-05T10:04:32.454Z</time>
      </trkpt>
      <trkpt lat="46.99092" lon="8.67263">
        <ele>560</ele>
        <time>2021-08-05T10:04:33.454Z</time>
      </trkpt>
      <trkpt lat="46.99096" lon="8.67273">
        <ele>554</ele>
        <time>2021-08-05T10:04:34.455Z</time>
      </trkpt>
      <trkpt lat="46.99098" lon="8.67273">
        <ele>555</ele>
        <time>2021-08-05T10:04:35.455Z</time>
      </trkpt>
      <trkpt lat="46.991" lon="8.67271">
        <ele>556</ele>
        <time>2021-08-05T10:04:36.455Z</time>
      </trkpt>
      <trkpt lat="46.99102" lon="8.67271">
        <ele>556</ele>
        <time>2021-08-05T10:04:37.455Z</time>
      </trkpt>
      <trkpt lat="46.99102" lon="8.67272">
        <ele>556</ele>
        <time>2021-08-05T10:04:38.455Z</time>
      </trkpt>
      <trkpt lat="46.99102" lon="8.67273">
        <ele>557</ele>
        <time>2021-08-05T10:04:39.454Z</time>
      </trkpt>
      <trkpt lat="46.99101" lon="8.67275">
        <ele>557</ele>
        <time>2021-08-05T10:04:40.455Z</time>
      </trkpt>
      <trkpt lat="46.991" lon="8.67276">
        <ele>558</ele>
        <time>2021-08-05T10:04:41.455Z</time>
      </trkpt>
      <trkpt lat="46.991" lon="8.67276">
        <ele>558</ele>
        <time>2021-08-05T10:04:42.454Z</time>
      </trkpt>
      <trkpt lat="46.991" lon="8.67276">
        <ele>559</ele>
        <time>2021-08-05T10:04:43.454Z</time>
      </trkpt>
      <trkpt lat="46.99099" lon="8.67276">
        <ele>559</ele>
        <time>2021-08-05T10:04:44.455Z</time>
      </trkpt>
      <trkpt lat="46.99099" lon="8.67276">
        <ele>559</ele>
        <time>2021-08-05T10:04:45.454Z</time>
      </trkpt>
      <trkpt lat="46.99099" lon="8.67276">
        <ele>559</ele>
        <time>2021-08-05T10:04:46.455Z</time>
      </trkpt>
      <trkpt lat="46.991" lon="8.67276">
        <ele>559</ele>
        <time>2021-08-05T10:04:47.454Z</time>
      </trkpt>
      <trkpt lat="46.991" lon="8.67277">
        <ele>559</ele>
        <time>2021-08-05T10:04:48.454Z</time>
      </trkpt>
      <trkpt lat="46.99101" lon="8.67277">
        <ele>559</ele>
        <time>2021-08-05T10:04:49.455Z</time>
      </trkpt>
      <trkpt lat="46.99102" lon="8.67277">
        <ele>559</ele>
        <time>2021-08-05T10:04:50.454Z</time>
      </trkpt>
      <trkpt lat="46.99102" lon="8.67277">
        <ele>559</ele>
        <time>2021-08-05T10:04:51.455Z</time>
      </trkpt>
      <trkpt lat="46.99103" lon="8.67277">
        <ele>558</ele>
        <time>2021-08-05T10:04:52.454Z</time>
      </trkpt>
      <trkpt lat="46.99103" lon="8.67276">
        <ele>558</ele>
        <time>2021-08-05T10:04:53.455Z</time>
      </trkpt>
      <trkpt lat="46.99102" lon="8.67275">
        <ele>558</ele>
        <time>2021-08-05T10:04:54.455Z</time>
      </trkpt>
      <trkpt lat="46.991" lon="8.67273">
        <ele>557</ele>
        <time>2021-08-05T10:04:55.457Z</time>
      </trkpt>
      <trkpt lat="46.991" lon="8.67272">
        <ele>557</ele>
        <time>2021-08-05T10:04:56.456Z</time>
      </trkpt>
      <trkpt lat="46.991" lon="8.6727">
        <ele>557</ele>
        <time>2021-08-05T10:04:57.456Z</time>
      </trkpt>
      <trkpt lat="46.99098" lon="8.67269">
        <ele>557</ele>
        <time>2021-08-05T10:04:58.456Z</time>
      </trkpt>
      <trkpt lat="46.99095" lon="8.67268">
        <ele>558</ele>
        <time>2021-08-05T10:04:59.456Z</time>
      </trkpt>
      <trkpt lat="46.99094" lon="8.6727">
        <ele>558</ele>
        <time>2021-08-05T10:05:00.457Z</time>
      </trkpt>
      <trkpt lat="46.99095" lon="8.6727">
        <ele>558</ele>
        <time>2021-08-05T10:05:01.457Z</time>
      </trkpt>
      <trkpt lat="46.99095" lon="8.67271">
        <ele>557</ele>
        <time>2021-08-05T10:05:02.457Z</time>
      </trkpt>
      <trkpt lat="46.99096" lon="8.67278">
        <ele>552</ele>
        <time>2021-08-05T10:05:03.458Z</time>
      </trkpt>
      <trkpt lat="46.99096" lon="8.67278">
        <ele>553</ele>
        <time>2021-08-05T10:05:04.457Z</time>
      </trkpt>
      <trkpt lat="46.99096" lon="8.67277">
        <ele>553</ele>
        <time>2021-08-05T10:05:05.458Z</time>
      </trkpt>
      <trkpt lat="46.99096" lon="8.67277">
        <ele>553</ele>
        <time>2021-08-05T10:05:06.458Z</time>
      </trkpt>
      <trkpt lat="46.99097" lon="8.67278">
        <ele>556</ele>
        <time>2021-08-05T10:05:07.458Z</time>
      </trkpt>
      <trkpt lat="46.99098" lon="8.67278">
        <ele>557</ele>
        <time>2021-08-05T10:05:08.457Z</time>
      </trkpt>
      <trkpt lat="46.99098" lon="8.6728">
        <ele>552</ele>
        <time>2021-08-05T10:05:09.457Z</time>
      </trkpt>
      <trkpt lat="46.99098" lon="8.6728">
        <ele>552</ele>
        <time>2021-08-05T10:05:10.457Z</time>
      </trkpt>
      <trkpt lat="46.99096" lon="8.67274">
        <ele>555</ele>
        <time>2021-08-05T10:05:11.458Z</time>
      </trkpt>
      <trkpt lat="46.99096" lon="8.67274">
        <ele>555</ele>
        <time>2021-08-05T10:05:12.458Z</time>
      </trkpt>
      <trkpt lat="46.99097" lon="8.67274">
        <ele>554</ele>
        <time>2021-08-05T10:05:13.458Z</time>
      </trkpt>
      <trkpt lat="46.99097" lon="8.67274">
        <ele>554</ele>
        <time>2021-08-05T10:05:14.458Z</time>
      </trkpt>
      <trkpt lat="46.99097" lon="8.67274">
        <ele>555</ele>
        <time>2021-08-05T10:05:15.459Z</time>
      </trkpt>
      <trkpt lat="46.99098" lon="8.67273">
        <ele>555</ele>
        <time>2021-08-05T10:05:16.459Z</time>
      </trkpt>
      <trkpt lat="46.99098" lon="8.67271">
        <ele>555</ele>
        <time>2021-08-05T10:05:17.459Z</time>
      </trkpt>
      <trkpt lat="46.99098" lon="8.67271">
        <ele>555</ele>
        <time>2021-08-05T10:05:18.459Z</time>
      </trkpt>
      <trkpt lat="46.99097" lon="8.67271">
        <ele>555</ele>
        <time>2021-08-05T10:05:19.459Z</time>
      </trkpt>
      <trkpt lat="46.99097" lon="8.67272">
        <ele>556</ele>
        <time>2021-08-05T10:05:20.459Z</time>
      </trkpt>
      <trkpt lat="46.99098" lon="8.67272">
        <ele>556</ele>
        <time>2021-08-05T10:05:21.459Z</time>
      </trkpt>
      <trkpt lat="46.99096" lon="8.67276">
        <ele>555</ele>
        <time>2021-08-05T10:05:22.459Z</time>
      </trkpt>
      <trkpt lat="46.99096" lon="8.67286">
        <ele>554</ele>
        <time>2021-08-05T10:05:23.461Z</time>
      </trkpt>
      <trkpt lat="46.99096" lon="8.67284">
        <ele>553</ele>
        <time>2021-08-05T10:05:24.461Z</time>
      </trkpt>
      <trkpt lat="46.99096" lon="8.67282">
        <ele>554</ele>
        <time>2021-08-05T10:05:25.461Z</time>
      </trkpt>
      <trkpt lat="46.99096" lon="8.67281">
        <ele>553</ele>
        <time>2021-08-05T10:05:26.460Z</time>
      </trkpt>
      <trkpt lat="46.99096" lon="8.6728">
        <ele>553</ele>
        <time>2021-08-05T10:05:27.461Z</time>
      </trkpt>
      <trkpt lat="46.99096" lon="8.67279">
        <ele>553</ele>
        <time>2021-08-05T10:05:28.461Z</time>
      </trkpt>
      <trkpt lat="46.99095" lon="8.67278">
        <ele>553</ele>
        <time>2021-08-05T10:05:29.461Z</time>
      </trkpt>
      <trkpt lat="46.99095" lon="8.67277">
        <ele>552</ele>
        <time>2021-08-05T10:05:30.460Z</time>
      </trkpt>
      <trkpt lat="46.99095" lon="8.67276">
        <ele>552</ele>
        <time>2021-08-05T10:05:31.460Z</time>
      </trkpt>
      <trkpt lat="46.99095" lon="8.67275">
        <ele>552</ele>
        <time>2021-08-05T10:05:32.460Z</time>
      </trkpt>
      <trkpt lat="46.99093" lon="8.67274">
        <ele>552</ele>
        <time>2021-08-05T10:05:33.461Z</time>
      </trkpt>
      <trkpt lat="46.99093" lon="8.67274">
        <ele>552</ele>
        <time>2021-08-05T10:05:34.461Z</time>
      </trkpt>
      <trkpt lat="46.99093" lon="8.67274">
        <ele>553</ele>
        <time>2021-08-05T10:05:35.461Z</time>
      </trkpt>
      <trkpt lat="46.99093" lon="8.67275">
        <ele>553</ele>
        <time>2021-08-05T10:05:36.461Z</time>
      </trkpt>
      <trkpt lat="46.99092" lon="8.67275">
        <ele>554</ele>
        <time>2021-08-05T10:05:37.461Z</time>
      </trkpt>
      <trkpt lat="46.99092" lon="8.67276">
        <ele>554</ele>
        <time>2021-08-05T10:05:38.462Z</time>
      </trkpt>
      <trkpt lat="46.99092" lon="8.67277">
        <ele>555</ele>
        <time>2021-08-05T10:05:39.461Z</time>
      </trkpt>
      <trkpt lat="46.99091" lon="8.67278">
        <ele>556</ele>
        <time>2021-08-05T10:05:40.461Z</time>
      </trkpt>
      <trkpt lat="46.9909" lon="8.67279">
        <ele>556</ele>
        <time>2021-08-05T10:05:41.462Z</time>
      </trkpt>
      <trkpt lat="46.9909" lon="8.67279">
        <ele>557</ele>
        <time>2021-08-05T10:05:42.462Z</time>
      </trkpt>
      <trkpt lat="46.99089" lon="8.6728">
        <ele>557</ele>
        <time>2021-08-05T10:05:43.462Z</time>
      </trkpt>
      <trkpt lat="46.99088" lon="8.67281">
        <ele>558</ele>
        <time>2021-08-05T10:05:44.461Z</time>
      </trkpt>
      <trkpt lat="46.99087" lon="8.67282">
        <ele>558</ele>
        <time>2021-08-05T10:05:45.461Z</time>
      </trkpt>
      <trkpt lat="46.99086" lon="8.67283">
        <ele>559</ele>
        <time>2021-08-05T10:05:46.461Z</time>
      </trkpt>
      <trkpt lat="46.99085" lon="8.67285">
        <ele>560</ele>
        <time>2021-08-05T10:05:47.461Z</time>
      </trkpt>
      <trkpt lat="46.99084" lon="8.67286">
        <ele>560</ele>
        <time>2021-08-05T10:05:48.462Z</time>
      </trkpt>
      <trkpt lat="46.99083" lon="8.67287">
        <ele>561</ele>
        <time>2021-08-05T10:05:49.461Z</time>
      </trkpt>
      <trkpt lat="46.99082" lon="8.67288">
        <ele>561</ele>
        <time>2021-08-05T10:05:50.461Z</time>
      </trkpt>
      <trkpt lat="46.99081" lon="8.6729">
        <ele>561</ele>
        <time>2021-08-05T10:05:51.461Z</time>
      </trkpt>
      <trkpt lat="46.9908" lon="8.67291">
        <ele>561</ele>
        <time>2021-08-05T10:05:52.461Z</time>
      </trkpt>
      <trkpt lat="46.9908" lon="8.67292">
        <ele>561</ele>
        <time>2021-08-05T10:05:53.461Z</time>
      </trkpt>
      <trkpt lat="46.99079" lon="8.67293">
        <ele>562</ele>
        <time>2021-08-05T10:05:54.461Z</time>
      </trkpt>
      <trkpt lat="46.99078" lon="8.67294">
        <ele>561</ele>
        <time>2021-08-05T10:05:55.461Z</time>
      </trkpt>
      <trkpt lat="46.99077" lon="8.67295">
        <ele>561</ele>
        <time>2021-08-05T10:05:56.461Z</time>
      </trkpt>
      <trkpt lat="46.99076" lon="8.67295">
        <ele>561</ele>
        <time>2021-08-05T10:05:57.461Z</time>
      </trkpt>
      <trkpt lat="46.99075" lon="8.67298">
        <ele>561</ele>
        <time>2021-08-05T10:05:58.461Z</time>
      </trkpt>
      <trkpt lat="46.99074" lon="8.67301">
        <ele>561</ele>
        <time>2021-08-05T10:05:59.461Z</time>
      </trkpt>
      <trkpt lat="46.99073" lon="8.67305">
        <ele>561</ele>
        <time>2021-08-05T10:06:00.462Z</time>
      </trkpt>
      <trkpt lat="46.99071" lon="8.67306">
        <ele>561</ele>
        <time>2021-08-05T10:06:01.461Z</time>
      </trkpt>
      <trkpt lat="46.9907" lon="8.67306">
        <ele>561</ele>
        <time>2021-08-05T10:06:02.461Z</time>
      </trkpt>
      <trkpt lat="46.9907" lon="8.67306">
        <ele>562</ele>
        <time>2021-08-05T10:06:03.461Z</time>
      </trkpt>
      <trkpt lat="46.9907" lon="8.67308">
        <ele>562</ele>
        <time>2021-08-05T10:06:04.462Z</time>
      </trkpt>
      <trkpt lat="46.99069" lon="8.6731">
        <ele>562</ele>
        <time>2021-08-05T10:06:05.462Z</time>
      </trkpt>
      <trkpt lat="46.99069" lon="8.67311">
        <ele>563</ele>
        <time>2021-08-05T10:06:06.462Z</time>
      </trkpt>
      <trkpt lat="46.99068" lon="8.67312">
        <ele>563</ele>
        <time>2021-08-05T10:06:07.462Z</time>
      </trkpt>
      <trkpt lat="46.99068" lon="8.67313">
        <ele>563</ele>
        <time>2021-08-05T10:06:08.462Z</time>
      </trkpt>
      <trkpt lat="46.99069" lon="8.67314">
        <ele>564</ele>
        <time>2021-08-05T10:06:09.462Z</time>
      </trkpt>
      <trkpt lat="46.99069" lon="8.67313">
        <ele>564</ele>
        <time>2021-08-05T10:06:10.462Z</time>
      </trkpt>
      <trkpt lat="46.9907" lon="8.67312">
        <ele>564</ele>
        <time>2021-08-05T10:06:11.462Z</time>
      </trkpt>
      <trkpt lat="46.99069" lon="8.67313">
        <ele>563</ele>
        <time>2021-08-05T10:06:12.462Z</time>
      </trkpt>
      <trkpt lat="46.99068" lon="8.67314">
        <ele>563</ele>
        <time>2021-08-05T10:06:13.462Z</time>
      </trkpt>
      <trkpt lat="46.99067" lon="8.67314">
        <ele>563</ele>
        <time>2021-08-05T10:06:14.461Z</time>
      </trkpt>
      <trkpt lat="46.99068" lon="8.67315">
        <ele>562</ele>
        <time>2021-08-05T10:06:15.462Z</time>
      </trkpt>
      <trkpt lat="46.99068" lon="8.67316">
        <ele>562</ele>
        <time>2021-08-05T10:06:16.462Z</time>
      </trkpt>
      <trkpt lat="46.99067" lon="8.67318">
        <ele>561</ele>
        <time>2021-08-05T10:06:17.462Z</time>
      </trkpt>
      <trkpt lat="46.99067" lon="8.6732">
        <ele>561</ele>
        <time>2021-08-05T10:06:18.461Z</time>
      </trkpt>
      <trkpt lat="46.99066" lon="8.67321">
        <ele>560</ele>
        <time>2021-08-05T10:06:19.462Z</time>
      </trkpt>
      <trkpt lat="46.99065" lon="8.67323">
        <ele>560</ele>
        <time>2021-08-05T10:06:20.461Z</time>
      </trkpt>
      <trkpt lat="46.99064" lon="8.67324">
        <ele>559</ele>
        <time>2021-08-05T10:06:21.461Z</time>
      </trkpt>
      <trkpt lat="46.99064" lon="8.67326">
        <ele>559</ele>
        <time>2021-08-05T10:06:22.462Z</time>
      </trkpt>
      <trkpt lat="46.99063" lon="8.67328">
        <ele>559</ele>
        <time>2021-08-05T10:06:23.462Z</time>
      </trkpt>
      <trkpt lat="46.99063" lon="8.67329">
        <ele>558</ele>
        <time>2021-08-05T10:06:24.462Z</time>
      </trkpt>
      <trkpt lat="46.99063" lon="8.67329">
        <ele>558</ele>
        <time>2021-08-05T10:06:25.461Z</time>
      </trkpt>
      <trkpt lat="46.99062" lon="8.67331">
        <ele>558</ele>
        <time>2021-08-05T10:06:26.462Z</time>
      </trkpt>
      <trkpt lat="46.99061" lon="8.67332">
        <ele>557</ele>
        <time>2021-08-05T10:06:27.462Z</time>
      </trkpt>
      <trkpt lat="46.99059" lon="8.67334">
        <ele>556</ele>
        <time>2021-08-05T10:06:28.461Z</time>
      </trkpt>
      <trkpt lat="46.99057" lon="8.67335">
        <ele>555</ele>
        <time>2021-08-05T10:06:29.461Z</time>
      </trkpt>
      <trkpt lat="46.99056" lon="8.67336">
        <ele>554</ele>
        <time>2021-08-05T10:06:30.461Z</time>
      </trkpt>
      <trkpt lat="46.99055" lon="8.67337">
        <ele>553</ele>
        <time>2021-08-05T10:06:31.462Z</time>
      </trkpt>
      <trkpt lat="46.99055" lon="8.67338">
        <ele>552</ele>
        <time>2021-08-05T10:06:32.462Z</time>
      </trkpt>
      <trkpt lat="46.99055" lon="8.67339">
        <ele>552</ele>
        <time>2021-08-05T10:06:33.462Z</time>
      </trkpt>
      <trkpt lat="46.99055" lon="8.67341">
        <ele>551</ele>
        <time>2021-08-05T10:06:34.461Z</time>
      </trkpt>
      <trkpt lat="46.99056" lon="8.67342">
        <ele>551</ele>
        <time>2021-08-05T10:06:35.462Z</time>
      </trkpt>
      <trkpt lat="46.99056" lon="8.67343">
        <ele>551</ele>
        <time>2021-08-05T10:06:36.462Z</time>
      </trkpt>
      <trkpt lat="46.99057" lon="8.67345">
        <ele>551</ele>
        <time>2021-08-05T10:06:37.462Z</time>
      </trkpt>
      <trkpt lat="46.99057" lon="8.67346">
        <ele>552</ele>
        <time>2021-08-05T10:06:38.461Z</time>
      </trkpt>
      <trkpt lat="46.9906" lon="8.67342">
        <ele>554</ele>
        <time>2021-08-05T10:06:39.461Z</time>
      </trkpt>
      <trkpt lat="46.9906" lon="8.67342">
        <ele>553</ele>
        <time>2021-08-05T10:06:40.461Z</time>
      </trkpt>
      <trkpt lat="46.9906" lon="8.67343">
        <ele>555</ele>
        <time>2021-08-05T10:06:41.461Z</time>
      </trkpt>
      <trkpt lat="46.9906" lon="8.67342">
        <ele>555</ele>
        <time>2021-08-05T10:06:42.462Z</time>
      </trkpt>
      <trkpt lat="46.99059" lon="8.6734">
        <ele>555</ele>
        <time>2021-08-05T10:06:43.462Z</time>
      </trkpt>
      <trkpt lat="46.99058" lon="8.67339">
        <ele>555</ele>
        <time>2021-08-05T10:06:44.462Z</time>
      </trkpt>
      <trkpt lat="46.99058" lon="8.67339">
        <ele>555</ele>
        <time>2021-08-05T10:06:45.461Z</time>
      </trkpt>
      <trkpt lat="46.99058" lon="8.67339">
        <ele>555</ele>
        <time>2021-08-05T10:06:46.461Z</time>
      </trkpt>
      <trkpt lat="46.99058" lon="8.67341">
        <ele>555</ele>
        <time>2021-08-05T10:06:47.462Z</time>
      </trkpt>
      <trkpt lat="46.99058" lon="8.67341">
        <ele>556</ele>
        <time>2021-08-05T10:06:48.462Z</time>
      </trkpt>
      <trkpt lat="46.99059" lon="8.67342">
        <ele>556</ele>
        <time>2021-08-05T10:06:49.462Z</time>
      </trkpt>
      <trkpt lat="46.99058" lon="8.67344">
        <ele>557</ele>
        <time>2021-08-05T10:06:50.461Z</time>
      </trkpt>
      <trkpt lat="46.99058" lon="8.67345">
        <ele>557</ele>
        <time>2021-08-05T10:06:51.462Z</time>
      </trkpt>
      <trkpt lat="46.99057" lon="8.67346">
        <ele>558</ele>
        <time>2021-08-05T10:06:52.461Z</time>
      </trkpt>
      <trkpt lat="46.99056" lon="8.67348">
        <ele>558</ele>
        <time>2021-08-05T10:06:53.461Z</time>
      </trkpt>
      <trkpt lat="46.99056" lon="8.67349">
        <ele>557</ele>
        <time>2021-08-05T10:06:54.461Z</time>
      </trkpt>
      <trkpt lat="46.99055" lon="8.67351">
        <ele>557</ele>
        <time>2021-08-05T10:06:55.462Z</time>
      </trkpt>
      <trkpt lat="46.99055" lon="8.67353">
        <ele>556</ele>
        <time>2021-08-05T10:06:56.462Z</time>
      </trkpt>
      <trkpt lat="46.99054" lon="8.67355">
        <ele>556</ele>
        <time>2021-08-05T10:06:57.462Z</time>
      </trkpt>
      <trkpt lat="46.99054" lon="8.67357">
        <ele>555</ele>
        <time>2021-08-05T10:06:58.462Z</time>
      </trkpt>
      <trkpt lat="46.99054" lon="8.67358">
        <ele>555</ele>
        <time>2021-08-05T10:06:59.461Z</time>
      </trkpt>
      <trkpt lat="46.99053" lon="8.67361">
        <ele>554</ele>
        <time>2021-08-05T10:07:00.462Z</time>
      </trkpt>
      <trkpt lat="46.99052" lon="8.67363">
        <ele>554</ele>
        <time>2021-08-05T10:07:01.461Z</time>
      </trkpt>
      <trkpt lat="46.99053" lon="8.67364">
        <ele>553</ele>
        <time>2021-08-05T10:07:02.461Z</time>
      </trkpt>
      <trkpt lat="46.99053" lon="8.67365">
        <ele>553</ele>
        <time>2021-08-05T10:07:03.462Z</time>
      </trkpt>
      <trkpt lat="46.99054" lon="8.67367">
        <ele>553</ele>
        <time>2021-08-05T10:07:04.461Z</time>
      </trkpt>
      <trkpt lat="46.99054" lon="8.67368">
        <ele>553</ele>
        <time>2021-08-05T10:07:05.462Z</time>
      </trkpt>
      <trkpt lat="46.99054" lon="8.6737">
        <ele>553</ele>
        <time>2021-08-05T10:07:06.462Z</time>
      </trkpt>
      <trkpt lat="46.99054" lon="8.67372">
        <ele>553</ele>
        <time>2021-08-05T10:07:07.462Z</time>
      </trkpt>
      <trkpt lat="46.99053" lon="8.67373">
        <ele>553</ele>
        <time>2021-08-05T10:07:08.462Z</time>
      </trkpt>
      <trkpt lat="46.99053" lon="8.67375">
        <ele>553</ele>
        <time>2021-08-05T10:07:09.461Z</time>
      </trkpt>
      <trkpt lat="46.99053" lon="8.67377">
        <ele>553</ele>
        <time>2021-08-05T10:07:10.462Z</time>
      </trkpt>
      <trkpt lat="46.99052" lon="8.67379">
        <ele>553</ele>
        <time>2021-08-05T10:07:11.462Z</time>
      </trkpt>
      <trkpt lat="46.99052" lon="8.67381">
        <ele>553</ele>
        <time>2021-08-05T10:07:12.462Z</time>
      </trkpt>
      <trkpt lat="46.99051" lon="8.67383">
        <ele>553</ele>
        <time>2021-08-05T10:07:13.461Z</time>
      </trkpt>
      <trkpt lat="46.99051" lon="8.67385">
        <ele>552</ele>
        <time>2021-08-05T10:07:14.462Z</time>
      </trkpt>
      <trkpt lat="46.99052" lon="8.67387">
        <ele>552</ele>
        <time>2021-08-05T10:07:15.462Z</time>
      </trkpt>
      <trkpt lat="46.99052" lon="8.67389">
        <ele>553</ele>
        <time>2021-08-05T10:07:16.462Z</time>
      </trkpt>
      <trkpt lat="46.99051" lon="8.67391">
        <ele>553</ele>
        <time>2021-08-05T10:07:17.462Z</time>
      </trkpt>
      <trkpt lat="46.99051" lon="8.67393">
        <ele>553</ele>
        <time>2021-08-05T10:07:18.462Z</time>
      </trkpt>
      <trkpt lat="46.9905" lon="8.67395">
        <ele>553</ele>
        <time>2021-08-05T10:07:19.462Z</time>
      </trkpt>
      <trkpt lat="46.9905" lon="8.67397">
        <ele>554</ele>
        <time>2021-08-05T10:07:20.462Z</time>
      </trkpt>
      <trkpt lat="46.99049" lon="8.67398">
        <ele>554</ele>
        <time>2021-08-05T10:07:21.462Z</time>
      </trkpt>
      <trkpt lat="46.99049" lon="8.67399">
        <ele>553</ele>
        <time>2021-08-05T10:07:22.462Z</time>
      </trkpt>
      <trkpt lat="46.99048" lon="8.67402">
        <ele>553</ele>
        <time>2021-08-05T10:07:23.462Z</time>
      </trkpt>
      <trkpt lat="46.99048" lon="8.67403">
        <ele>552</ele>
        <time>2021-08-05T10:07:24.462Z</time>
      </trkpt>
      <trkpt lat="46.99048" lon="8.67405">
        <ele>552</ele>
        <time>2021-08-05T10:07:25.462Z</time>
      </trkpt>
      <trkpt lat="46.99047" lon="8.67406">
        <ele>551</ele>
        <time>2021-08-05T10:07:26.462Z</time>
      </trkpt>
      <trkpt lat="46.99048" lon="8.67408">
        <ele>551</ele>
        <time>2021-08-05T10:07:27.462Z</time>
      </trkpt>
      <trkpt lat="46.99047" lon="8.6741">
        <ele>550</ele>
        <time>2021-08-05T10:07:28.462Z</time>
      </trkpt>
      <trkpt lat="46.99048" lon="8.67412">
        <ele>550</ele>
        <time>2021-08-05T10:07:29.462Z</time>
      </trkpt>
      <trkpt lat="46.99047" lon="8.67413">
        <ele>550</ele>
        <time>2021-08-05T10:07:30.461Z</time>
      </trkpt>
      <trkpt lat="46.99047" lon="8.67415">
        <ele>550</ele>
        <time>2021-08-05T10:07:31.461Z</time>
      </trkpt>
      <trkpt lat="46.99047" lon="8.67417">
        <ele>550</ele>
        <time>2021-08-05T10:07:32.461Z</time>
      </trkpt>
      <trkpt lat="46.99047" lon="8.67418">
        <ele>550</ele>
        <time>2021-08-05T10:07:33.461Z</time>
      </trkpt>
      <trkpt lat="46.99048" lon="8.6742">
        <ele>550</ele>
        <time>2021-08-05T10:07:34.462Z</time>
      </trkpt>
      <trkpt lat="46.99048" lon="8.67421">
        <ele>551</ele>
        <time>2021-08-05T10:07:35.462Z</time>
      </trkpt>
      <trkpt lat="46.99047" lon="8.67423">
        <ele>551</ele>
        <time>2021-08-05T10:07:36.462Z</time>
      </trkpt>
      <trkpt lat="46.99047" lon="8.67425">
        <ele>551</ele>
        <time>2021-08-05T10:07:37.462Z</time>
      </trkpt>
      <trkpt lat="46.99047" lon="8.67426">
        <ele>551</ele>
        <time>2021-08-05T10:07:38.462Z</time>
      </trkpt>
      <trkpt lat="46.99047" lon="8.67428">
        <ele>551</ele>
        <time>2021-08-05T10:07:39.461Z</time>
      </trkpt>
      <trkpt lat="46.99047" lon="8.6743">
        <ele>551</ele>
        <time>2021-08-05T10:07:40.462Z</time>
      </trkpt>
      <trkpt lat="46.99047" lon="8.67431">
        <ele>551</ele>
        <time>2021-08-05T10:07:41.461Z</time>
      </trkpt>
      <trkpt lat="46.99046" lon="8.67433">
        <ele>550</ele>
        <time>2021-08-05T10:07:42.461Z</time>
      </trkpt>
      <trkpt lat="46.99045" lon="8.67435">
        <ele>550</ele>
        <time>2021-08-05T10:07:43.462Z</time>
      </trkpt>
      <trkpt lat="46.99045" lon="8.67436">
        <ele>551</ele>
        <time>2021-08-05T10:07:44.461Z</time>
      </trkpt>
      <trkpt lat="46.99044" lon="8.67437">
        <ele>551</ele>
        <time>2021-08-05T10:07:45.461Z</time>
      </trkpt>
      <trkpt lat="46.99043" lon="8.67439">
        <ele>551</ele>
        <time>2021-08-05T10:07:46.461Z</time>
      </trkpt>
      <trkpt lat="46.99043" lon="8.67441">
        <ele>552</ele>
        <time>2021-08-05T10:07:47.461Z</time>
      </trkpt>
      <trkpt lat="46.99043" lon="8.67442">
        <ele>552</ele>
        <time>2021-08-05T10:07:48.462Z</time>
      </trkpt>
      <trkpt lat="46.99043" lon="8.67443">
        <ele>552</ele>
        <time>2021-08-05T10:07:49.462Z</time>
      </trkpt>
      <trkpt lat="46.99042" lon="8.67445">
        <ele>552</ele>
        <time>2021-08-05T10:07:50.461Z</time>
      </trkpt>
      <trkpt lat="46.99041" lon="8.67447">
        <ele>553</ele>
        <time>2021-08-05T10:07:51.461Z</time>
      </trkpt>
      <trkpt lat="46.99041" lon="8.67448">
        <ele>553</ele>
        <time>2021-08-05T10:07:52.461Z</time>
      </trkpt>
      <trkpt lat="46.9904" lon="8.67449">
        <ele>553</ele>
        <time>2021-08-05T10:07:53.461Z</time>
      </trkpt>
      <trkpt lat="46.9904" lon="8.67451">
        <ele>554</ele>
        <time>2021-08-05T10:07:54.461Z</time>
      </trkpt>
      <trkpt lat="46.99039" lon="8.67452">
        <ele>554</ele>
        <time>2021-08-05T10:07:55.461Z</time>
      </trkpt>
      <trkpt lat="46.99038" lon="8.67452">
        <ele>555</ele>
        <time>2021-08-05T10:07:56.461Z</time>
      </trkpt>
      <trkpt lat="46.99037" lon="8.67453">
        <ele>555</ele>
        <time>2021-08-05T10:07:57.461Z</time>
      </trkpt>
      <trkpt lat="46.99037" lon="8.67454">
        <ele>555</ele>
        <time>2021-08-05T10:07:58.461Z</time>
      </trkpt>
      <trkpt lat="46.99037" lon="8.67455">
        <ele>555</ele>
        <time>2021-08-05T10:07:59.461Z</time>
      </trkpt>
      <trkpt lat="46.99036" lon="8.67457">
        <ele>555</ele>
        <time>2021-08-05T10:08:00.461Z</time>
      </trkpt>
      <trkpt lat="46.99036" lon="8.67458">
        <ele>555</ele>
        <time>2021-08-05T10:08:01.461Z</time>
      </trkpt>
      <trkpt lat="46.99036" lon="8.6746">
        <ele>556</ele>
        <time>2021-08-05T10:08:02.461Z</time>
      </trkpt>
      <trkpt lat="46.99035" lon="8.67461">
        <ele>556</ele>
        <time>2021-08-05T10:08:03.461Z</time>
      </trkpt>
      <trkpt lat="46.99035" lon="8.67462">
        <ele>556</ele>
        <time>2021-08-05T10:08:04.461Z</time>
      </trkpt>
      <trkpt lat="46.99033" lon="8.67463">
        <ele>555</ele>
        <time>2021-08-05T10:08:05.461Z</time>
      </trkpt>
      <trkpt lat="46.99033" lon="8.67465">
        <ele>554</ele>
        <time>2021-08-05T10:08:06.461Z</time>
      </trkpt>
      <trkpt lat="46.99033" lon="8.67466">
        <ele>554</ele>
        <time>2021-08-05T10:08:07.462Z</time>
      </trkpt>
      <trkpt lat="46.99033" lon="8.67467">
        <ele>553</ele>
        <time>2021-08-05T10:08:08.462Z</time>
      </trkpt>
      <trkpt lat="46.99034" lon="8.67468">
        <ele>553</ele>
        <time>2021-08-05T10:08:09.461Z</time>
      </trkpt>
      <trkpt lat="46.99033" lon="8.6747">
        <ele>554</ele>
        <time>2021-08-05T10:08:10.462Z</time>
      </trkpt>
      <trkpt lat="46.99033" lon="8.67471">
        <ele>554</ele>
        <time>2021-08-05T10:08:11.461Z</time>
      </trkpt>
      <trkpt lat="46.99033" lon="8.67473">
        <ele>554</ele>
        <time>2021-08-05T10:08:12.461Z</time>
      </trkpt>
      <trkpt lat="46.99032" lon="8.67474">
        <ele>555</ele>
        <time>2021-08-05T10:08:13.462Z</time>
      </trkpt>
      <trkpt lat="46.99031" lon="8.67476">
        <ele>555</ele>
        <time>2021-08-05T10:08:14.462Z</time>
      </trkpt>
      <trkpt lat="46.99031" lon="8.67478">
        <ele>555</ele>
        <time>2021-08-05T10:08:15.461Z</time>
      </trkpt>
      <trkpt lat="46.99032" lon="8.6748">
        <ele>555</ele>
        <time>2021-08-05T10:08:16.462Z</time>
      </trkpt>
      <trkpt lat="46.99032" lon="8.67482">
        <ele>556</ele>
        <time>2021-08-05T10:08:17.462Z</time>
      </trkpt>
      <trkpt lat="46.99032" lon="8.67484">
        <ele>556</ele>
        <time>2021-08-05T10:08:18.462Z</time>
      </trkpt>
      <trkpt lat="46.99031" lon="8.67486">
        <ele>556</ele>
        <time>2021-08-05T10:08:19.461Z</time>
      </trkpt>
      <trkpt lat="46.9903" lon="8.67487">
        <ele>556</ele>
        <time>2021-08-05T10:08:20.462Z</time>
      </trkpt>
      <trkpt lat="46.99029" lon="8.67489">
        <ele>556</ele>
        <time>2021-08-05T10:08:21.462Z</time>
      </trkpt>
      <trkpt lat="46.99028" lon="8.6749">
        <ele>556</ele>
        <time>2021-08-05T10:08:22.461Z</time>
      </trkpt>
      <trkpt lat="46.99028" lon="8.67492">
        <ele>556</ele>
        <time>2021-08-05T10:08:23.462Z</time>
      </trkpt>
      <trkpt lat="46.99028" lon="8.67494">
        <ele>557</ele>
        <time>2021-08-05T10:08:24.461Z</time>
      </trkpt>
      <trkpt lat="46.99028" lon="8.67496">
        <ele>557</ele>
        <time>2021-08-05T10:08:25.461Z</time>
      </trkpt>
      <trkpt lat="46.99028" lon="8.67498">
        <ele>557</ele>
        <time>2021-08-05T10:08:26.462Z</time>
      </trkpt>
      <trkpt lat="46.99027" lon="8.67499">
        <ele>557</ele>
        <time>2021-08-05T10:08:27.462Z</time>
      </trkpt>
      <trkpt lat="46.99028" lon="8.67501">
        <ele>558</ele>
        <time>2021-08-05T10:08:28.462Z</time>
      </trkpt>
      <trkpt lat="46.99028" lon="8.67502">
        <ele>558</ele>
        <time>2021-08-05T10:08:29.461Z</time>
      </trkpt>
      <trkpt lat="46.99028" lon="8.67503">
        <ele>558</ele>
        <time>2021-08-05T10:08:30.461Z</time>
      </trkpt>
      <trkpt lat="46.99029" lon="8.67505">
        <ele>559</ele>
        <time>2021-08-05T10:08:31.461Z</time>
      </trkpt>
      <trkpt lat="46.99028" lon="8.67507">
        <ele>559</ele>
        <time>2021-08-05T10:08:32.462Z</time>
      </trkpt>
      <trkpt lat="46.99028" lon="8.67509">
        <ele>560</ele>
        <time>2021-08-05T10:08:33.462Z</time>
      </trkpt>
      <trkpt lat="46.99028" lon="8.67511">
        <ele>561</ele>
        <time>2021-08-05T10:08:34.461Z</time>
      </trkpt>
      <trkpt lat="46.99027" lon="8.67512">
        <ele>561</ele>
        <time>2021-08-05T10:08:35.461Z</time>
      </trkpt>
      <trkpt lat="46.99027" lon="8.67514">
        <ele>562</ele>
        <time>2021-08-05T10:08:36.462Z</time>
      </trkpt>
      <trkpt lat="46.99027" lon="8.67516">
        <ele>562</ele>
        <time>2021-08-05T10:08:37.461Z</time>
      </trkpt>
      <trkpt lat="46.99026" lon="8.67518">
        <ele>562</ele>
        <time>2021-08-05T10:08:38.462Z</time>
      </trkpt>
      <trkpt lat="46.99025" lon="8.67519">
        <ele>561</ele>
        <time>2021-08-05T10:08:39.462Z</time>
      </trkpt>
      <trkpt lat="46.99024" lon="8.67521">
        <ele>561</ele>
        <time>2021-08-05T10:08:40.462Z</time>
      </trkpt>
      <trkpt lat="46.99024" lon="8.67522">
        <ele>562</ele>
        <time>2021-08-05T10:08:41.462Z</time>
      </trkpt>
      <trkpt lat="46.99025" lon="8.67523">
        <ele>562</ele>
        <time>2021-08-05T10:08:42.462Z</time>
      </trkpt>
      <trkpt lat="46.99025" lon="8.67525">
        <ele>562</ele>
        <time>2021-08-05T10:08:43.462Z</time>
      </trkpt>
      <trkpt lat="46.99026" lon="8.67526">
        <ele>563</ele>
        <time>2021-08-05T10:08:44.462Z</time>
      </trkpt>
      <trkpt lat="46.99026" lon="8.67528">
        <ele>563</ele>
        <time>2021-08-05T10:08:45.462Z</time>
      </trkpt>
      <trkpt lat="46.99025" lon="8.6753">
        <ele>563</ele>
        <time>2021-08-05T10:08:46.461Z</time>
      </trkpt>
      <trkpt lat="46.99024" lon="8.67531">
        <ele>563</ele>
        <time>2021-08-05T10:08:47.462Z</time>
      </trkpt>
      <trkpt lat="46.99024" lon="8.67532">
        <ele>563</ele>
        <time>2021-08-05T10:08:48.462Z</time>
      </trkpt>
      <trkpt lat="46.99024" lon="8.67533">
        <ele>563</ele>
        <time>2021-08-05T10:08:49.462Z</time>
      </trkpt>
      <trkpt lat="46.99024" lon="8.67535">
        <ele>563</ele>
        <time>2021-08-05T10:08:50.462Z</time>
      </trkpt>
      <trkpt lat="46.99023" lon="8.67536">
        <ele>563</ele>
        <time>2021-08-05T10:08:51.461Z</time>
      </trkpt>
      <trkpt lat="46.99023" lon="8.67537">
        <ele>562</ele>
        <time>2021-08-05T10:08:52.462Z</time>
      </trkpt>
      <trkpt lat="46.99023" lon="8.67538">
        <ele>562</ele>
        <time>2021-08-05T10:08:53.461Z</time>
      </trkpt>
      <trkpt lat="46.99023" lon="8.67539">
        <ele>562</ele>
        <time>2021-08-05T10:08:54.462Z</time>
      </trkpt>
      <trkpt lat="46.99023" lon="8.67541">
        <ele>561</ele>
        <time>2021-08-05T10:08:55.462Z</time>
      </trkpt>
      <trkpt lat="46.99022" lon="8.67543">
        <ele>561</ele>
        <time>2021-08-05T10:08:56.462Z</time>
      </trkpt>
      <trkpt lat="46.99022" lon="8.67544">
        <ele>560</ele>
        <time>2021-08-05T10:08:57.461Z</time>
      </trkpt>
      <trkpt lat="46.99022" lon="8.67545">
        <ele>560</ele>
        <time>2021-08-05T10:08:58.462Z</time>
      </trkpt>
      <trkpt lat="46.99022" lon="8.67547">
        <ele>560</ele>
        <time>2021-08-05T10:08:59.462Z</time>
      </trkpt>
      <trkpt lat="46.99022" lon="8.67549">
        <ele>560</ele>
        <time>2021-08-05T10:09:00.461Z</time>
      </trkpt>
      <trkpt lat="46.99022" lon="8.67551">
        <ele>560</ele>
        <time>2021-08-05T10:09:01.462Z</time>
      </trkpt>
      <trkpt lat="46.99021" lon="8.67554">
        <ele>560</ele>
        <time>2021-08-05T10:09:02.461Z</time>
      </trkpt>
      <trkpt lat="46.99021" lon="8.67555">
        <ele>560</ele>
        <time>2021-08-05T10:09:03.462Z</time>
      </trkpt>
      <trkpt lat="46.99021" lon="8.67555">
        <ele>560</ele>
        <time>2021-08-05T10:09:04.462Z</time>
      </trkpt>
      <trkpt lat="46.99023" lon="8.67555">
        <ele>560</ele>
        <time>2021-08-05T10:09:05.461Z</time>
      </trkpt>
      <trkpt lat="46.99027" lon="8.67555">
        <ele>561</ele>
        <time>2021-08-05T10:09:06.463Z</time>
      </trkpt>
      <trkpt lat="46.99026" lon="8.67556">
        <ele>561</ele>
        <time>2021-08-05T10:09:07.463Z</time>
      </trkpt>
      <trkpt lat="46.99026" lon="8.67558">
        <ele>561</ele>
        <time>2021-08-05T10:09:08.463Z</time>
      </trkpt>
      <trkpt lat="46.99026" lon="8.67559">
        <ele>561</ele>
        <time>2021-08-05T10:09:09.463Z</time>
      </trkpt>
      <trkpt lat="46.99025" lon="8.6756">
        <ele>561</ele>
        <time>2021-08-05T10:09:10.462Z</time>
      </trkpt>
      <trkpt lat="46.99025" lon="8.67561">
        <ele>561</ele>
        <time>2021-08-05T10:09:11.463Z</time>
      </trkpt>
      <trkpt lat="46.99025" lon="8.67562">
        <ele>561</ele>
        <time>2021-08-05T10:09:12.463Z</time>
      </trkpt>
      <trkpt lat="46.99024" lon="8.67563">
        <ele>561</ele>
        <time>2021-08-05T10:09:13.463Z</time>
      </trkpt>
      <trkpt lat="46.99024" lon="8.67565">
        <ele>561</ele>
        <time>2021-08-05T10:09:14.462Z</time>
      </trkpt>
      <trkpt lat="46.99024" lon="8.67567">
        <ele>560</ele>
        <time>2021-08-05T10:09:15.462Z</time>
      </trkpt>
      <trkpt lat="46.99023" lon="8.67568">
        <ele>560</ele>
        <time>2021-08-05T10:09:16.462Z</time>
      </trkpt>
      <trkpt lat="46.99023" lon="8.6757">
        <ele>559</ele>
        <time>2021-08-05T10:09:17.463Z</time>
      </trkpt>
      <trkpt lat="46.99023" lon="8.67572">
        <ele>559</ele>
        <time>2021-08-05T10:09:18.463Z</time>
      </trkpt>
      <trkpt lat="46.99023" lon="8.67574">
        <ele>559</ele>
        <time>2021-08-05T10:09:19.462Z</time>
      </trkpt>
      <trkpt lat="46.99023" lon="8.67575">
        <ele>559</ele>
        <time>2021-08-05T10:09:20.462Z</time>
      </trkpt>
      <trkpt lat="46.99022" lon="8.67578">
        <ele>559</ele>
        <time>2021-08-05T10:09:21.462Z</time>
      </trkpt>
      <trkpt lat="46.99022" lon="8.67579">
        <ele>558</ele>
        <time>2021-08-05T10:09:22.463Z</time>
      </trkpt>
      <trkpt lat="46.99021" lon="8.6758">
        <ele>558</ele>
        <time>2021-08-05T10:09:23.463Z</time>
      </trkpt>
      <trkpt lat="46.99021" lon="8.67583">
        <ele>558</ele>
        <time>2021-08-05T10:09:24.463Z</time>
      </trkpt>
      <trkpt lat="46.9902" lon="8.67584">
        <ele>558</ele>
        <time>2021-08-05T10:09:25.463Z</time>
      </trkpt>
      <trkpt lat="46.9902" lon="8.67586">
        <ele>558</ele>
        <time>2021-08-05T10:09:26.463Z</time>
      </trkpt>
      <trkpt lat="46.9902" lon="8.67587">
        <ele>558</ele>
        <time>2021-08-05T10:09:27.463Z</time>
      </trkpt>
      <trkpt lat="46.99021" lon="8.67589">
        <ele>558</ele>
        <time>2021-08-05T10:09:28.462Z</time>
      </trkpt>
      <trkpt lat="46.99021" lon="8.6759">
        <ele>557</ele>
        <time>2021-08-05T10:09:29.463Z</time>
      </trkpt>
      <trkpt lat="46.99021" lon="8.67592">
        <ele>557</ele>
        <time>2021-08-05T10:09:30.463Z</time>
      </trkpt>
      <trkpt lat="46.99021" lon="8.67593">
        <ele>557</ele>
        <time>2021-08-05T10:09:31.463Z</time>
      </trkpt>
      <trkpt lat="46.99021" lon="8.67594">
        <ele>556</ele>
        <time>2021-08-05T10:09:32.463Z</time>
      </trkpt>
      <trkpt lat="46.99021" lon="8.67596">
        <ele>556</ele>
        <time>2021-08-05T10:09:33.462Z</time>
      </trkpt>
      <trkpt lat="46.9902" lon="8.67597">
        <ele>556</ele>
        <time>2021-08-05T10:09:34.463Z</time>
      </trkpt>
      <trkpt lat="46.9902" lon="8.67598">
        <ele>555</ele>
        <time>2021-08-05T10:09:35.463Z</time>
      </trkpt>
      <trkpt lat="46.9902" lon="8.67599">
        <ele>555</ele>
        <time>2021-08-05T10:09:36.463Z</time>
      </trkpt>
      <trkpt lat="46.9902" lon="8.676">
        <ele>555</ele>
        <time>2021-08-05T10:09:37.462Z</time>
      </trkpt>
      <trkpt lat="46.99019" lon="8.67602">
        <ele>554</ele>
        <time>2021-08-05T10:09:38.462Z</time>
      </trkpt>
      <trkpt lat="46.99019" lon="8.67603">
        <ele>554</ele>
        <time>2021-08-05T10:09:39.462Z</time>
      </trkpt>
      <trkpt lat="46.99019" lon="8.67604">
        <ele>554</ele>
        <time>2021-08-05T10:09:40.463Z</time>
      </trkpt>
      <trkpt lat="46.99018" lon="8.67606">
        <ele>554</ele>
        <time>2021-08-05T10:09:41.463Z</time>
      </trkpt>
      <trkpt lat="46.99017" lon="8.67607">
        <ele>554</ele>
        <time>2021-08-05T10:09:42.463Z</time>
      </trkpt>
      <trkpt lat="46.99017" lon="8.6761">
        <ele>554</ele>
        <time>2021-08-05T10:09:43.463Z</time>
      </trkpt>
      <trkpt lat="46.99016" lon="8.67611">
        <ele>554</ele>
        <time>2021-08-05T10:09:44.463Z</time>
      </trkpt>
      <trkpt lat="46.99016" lon="8.67613">
        <ele>554</ele>
        <time>2021-08-05T10:09:45.463Z</time>
      </trkpt>
      <trkpt lat="46.99016" lon="8.67615">
        <ele>554</ele>
        <time>2021-08-05T10:09:46.463Z</time>
      </trkpt>
      <trkpt lat="46.99016" lon="8.67617">
        <ele>555</ele>
        <time>2021-08-05T10:09:47.463Z</time>
      </trkpt>
      <trkpt lat="46.99016" lon="8.67618">
        <ele>555</ele>
        <time>2021-08-05T10:09:48.463Z</time>
      </trkpt>
      <trkpt lat="46.99015" lon="8.67621">
        <ele>555</ele>
        <time>2021-08-05T10:09:49.463Z</time>
      </trkpt>
      <trkpt lat="46.99014" lon="8.67623">
        <ele>554</ele>
        <time>2021-08-05T10:09:50.462Z</time>
      </trkpt>
      <trkpt lat="46.99014" lon="8.67625">
        <ele>554</ele>
        <time>2021-08-05T10:09:51.463Z</time>
      </trkpt>
      <trkpt lat="46.99013" lon="8.67627">
        <ele>553</ele>
        <time>2021-08-05T10:09:52.463Z</time>
      </trkpt>
      <trkpt lat="46.99012" lon="8.67629">
        <ele>553</ele>
        <time>2021-08-05T10:09:53.463Z</time>
      </trkpt>
      <trkpt lat="46.99013" lon="8.6763">
        <ele>553</ele>
        <time>2021-08-05T10:09:54.462Z</time>
      </trkpt>
      <trkpt lat="46.99014" lon="8.67631">
        <ele>553</ele>
        <time>2021-08-05T10:09:55.463Z</time>
      </trkpt>
      <trkpt lat="46.99015" lon="8.67632">
        <ele>553</ele>
        <time>2021-08-05T10:09:56.463Z</time>
      </trkpt>
      <trkpt lat="46.99015" lon="8.67634">
        <ele>553</ele>
        <time>2021-08-05T10:09:57.462Z</time>
      </trkpt>
      <trkpt lat="46.99015" lon="8.67635">
        <ele>553</ele>
        <time>2021-08-05T10:09:58.462Z</time>
      </trkpt>
      <trkpt lat="46.99015" lon="8.67637">
        <ele>553</ele>
        <time>2021-08-05T10:09:59.463Z</time>
      </trkpt>
      <trkpt lat="46.99015" lon="8.67638">
        <ele>553</ele>
        <time>2021-08-05T10:10:00.463Z</time>
      </trkpt>
      <trkpt lat="46.99015" lon="8.67639">
        <ele>553</ele>
        <time>2021-08-05T10:10:01.463Z</time>
      </trkpt>
      <trkpt lat="46.99014" lon="8.6764">
        <ele>553</ele>
        <time>2021-08-05T10:10:02.463Z</time>
      </trkpt>
      <trkpt lat="46.99014" lon="8.67642">
        <ele>553</ele>
        <time>2021-08-05T10:10:03.463Z</time>
      </trkpt>
      <trkpt lat="46.99014" lon="8.67643">
        <ele>553</ele>
        <time>2021-08-05T10:10:04.463Z</time>
      </trkpt>
      <trkpt lat="46.99013" lon="8.67644">
        <ele>554</ele>
        <time>2021-08-05T10:10:05.463Z</time>
      </trkpt>
      <trkpt lat="46.99013" lon="8.67646">
        <ele>554</ele>
        <time>2021-08-05T10:10:06.463Z</time>
      </trkpt>
      <trkpt lat="46.99013" lon="8.67647">
        <ele>554</ele>
        <time>2021-08-05T10:10:07.462Z</time>
      </trkpt>
      <trkpt lat="46.99012" lon="8.67649">
        <ele>554</ele>
        <time>2021-08-05T10:10:08.462Z</time>
      </trkpt>
      <trkpt lat="46.99011" lon="8.67651">
        <ele>554</ele>
        <time>2021-08-05T10:10:09.463Z</time>
      </trkpt>
      <trkpt lat="46.9901" lon="8.67653">
        <ele>554</ele>
        <time>2021-08-05T10:10:10.462Z</time>
      </trkpt>
      <trkpt lat="46.9901" lon="8.67655">
        <ele>554</ele>
        <time>2021-08-05T10:10:11.463Z</time>
      </trkpt>
      <trkpt lat="46.99009" lon="8.67657">
        <ele>554</ele>
        <time>2021-08-05T10:10:12.463Z</time>
      </trkpt>
      <trkpt lat="46.99008" lon="8.6766">
        <ele>554</ele>
        <time>2021-08-05T10:10:13.463Z</time>
      </trkpt>
      <trkpt lat="46.99007" lon="8.67661">
        <ele>554</ele>
        <time>2021-08-05T10:10:14.462Z</time>
      </trkpt>
      <trkpt lat="46.99007" lon="8.67663">
        <ele>555</ele>
        <time>2021-08-05T10:10:15.463Z</time>
      </trkpt>
      <trkpt lat="46.99006" lon="8.67665">
        <ele>555</ele>
        <time>2021-08-05T10:10:16.462Z</time>
      </trkpt>
      <trkpt lat="46.99006" lon="8.67667">
        <ele>555</ele>
        <time>2021-08-05T10:10:17.462Z</time>
      </trkpt>
      <trkpt lat="46.99006" lon="8.67668">
        <ele>555</ele>
        <time>2021-08-05T10:10:18.462Z</time>
      </trkpt>
      <trkpt lat="46.99006" lon="8.67669">
        <ele>555</ele>
        <time>2021-08-05T10:10:19.462Z</time>
      </trkpt>
      <trkpt lat="46.99005" lon="8.6767">
        <ele>555</ele>
        <time>2021-08-05T10:10:20.463Z</time>
      </trkpt>
      <trkpt lat="46.99004" lon="8.67672">
        <ele>555</ele>
        <time>2021-08-05T10:10:21.462Z</time>
      </trkpt>
      <trkpt lat="46.99003" lon="8.67673">
        <ele>555</ele>
        <time>2021-08-05T10:10:22.462Z</time>
      </trkpt>
      <trkpt lat="46.99004" lon="8.67675">
        <ele>556</ele>
        <time>2021-08-05T10:10:23.462Z</time>
      </trkpt>
      <trkpt lat="46.99004" lon="8.67676">
        <ele>556</ele>
        <time>2021-08-05T10:10:24.463Z</time>
      </trkpt>
      <trkpt lat="46.99003" lon="8.67678">
        <ele>556</ele>
        <time>2021-08-05T10:10:25.462Z</time>
      </trkpt>
      <trkpt lat="46.99004" lon="8.67679">
        <ele>557</ele>
        <time>2021-08-05T10:10:26.462Z</time>
      </trkpt>
      <trkpt lat="46.99004" lon="8.67682">
        <ele>557</ele>
        <time>2021-08-05T10:10:27.462Z</time>
      </trkpt>
      <trkpt lat="46.99004" lon="8.67683">
        <ele>557</ele>
        <time>2021-08-05T10:10:28.462Z</time>
      </trkpt>
      <trkpt lat="46.99005" lon="8.67685">
        <ele>557</ele>
        <time>2021-08-05T10:10:29.463Z</time>
      </trkpt>
      <trkpt lat="46.99005" lon="8.67686">
        <ele>557</ele>
        <time>2021-08-05T10:10:30.462Z</time>
      </trkpt>
      <trkpt lat="46.99005" lon="8.67689">
        <ele>557</ele>
        <time>2021-08-05T10:10:31.462Z</time>
      </trkpt>
      <trkpt lat="46.99004" lon="8.67691">
        <ele>558</ele>
        <time>2021-08-05T10:10:32.462Z</time>
      </trkpt>
      <trkpt lat="46.99003" lon="8.67693">
        <ele>558</ele>
        <time>2021-08-05T10:10:33.462Z</time>
      </trkpt>
      <trkpt lat="46.99002" lon="8.67693">
        <ele>558</ele>
        <time>2021-08-05T10:10:34.462Z</time>
      </trkpt>
      <trkpt lat="46.99001" lon="8.67693">
        <ele>558</ele>
        <time>2021-08-05T10:10:35.462Z</time>
      </trkpt>
      <trkpt lat="46.99001" lon="8.67693">
        <ele>558</ele>
        <time>2021-08-05T10:10:36.463Z</time>
      </trkpt>
      <trkpt lat="46.99001" lon="8.67694">
        <ele>558</ele>
        <time>2021-08-05T10:10:37.463Z</time>
      </trkpt>
      <trkpt lat="46.99001" lon="8.67694">
        <ele>558</ele>
        <time>2021-08-05T10:10:38.462Z</time>
      </trkpt>
      <trkpt lat="46.99002" lon="8.67695">
        <ele>558</ele>
        <time>2021-08-05T10:10:39.462Z</time>
      </trkpt>
      <trkpt lat="46.99003" lon="8.67695">
        <ele>559</ele>
        <time>2021-08-05T10:10:40.463Z</time>
      </trkpt>
      <trkpt lat="46.99004" lon="8.67696">
        <ele>560</ele>
        <time>2021-08-05T10:10:41.462Z</time>
      </trkpt>
      <trkpt lat="46.99004" lon="8.67697">
        <ele>560</ele>
        <time>2021-08-05T10:10:42.463Z</time>
      </trkpt>
      <trkpt lat="46.99004" lon="8.67698">
        <ele>561</ele>
        <time>2021-08-05T10:10:43.462Z</time>
      </trkpt>
      <trkpt lat="46.99004" lon="8.67699">
        <ele>561</ele>
        <time>2021-08-05T10:10:44.463Z</time>
      </trkpt>
      <trkpt lat="46.99004" lon="8.677">
        <ele>561</ele>
        <time>2021-08-05T10:10:45.462Z</time>
      </trkpt>
      <trkpt lat="46.99004" lon="8.67701">
        <ele>562</ele>
        <time>2021-08-05T10:10:46.463Z</time>
      </trkpt>
      <trkpt lat="46.99003" lon="8.67702">
        <ele>562</ele>
        <time>2021-08-05T10:10:47.463Z</time>
      </trkpt>
      <trkpt lat="46.99003" lon="8.67703">
        <ele>562</ele>
        <time>2021-08-05T10:10:48.463Z</time>
      </trkpt>
      <trkpt lat="46.99004" lon="8.67705">
        <ele>563</ele>
        <time>2021-08-05T10:10:49.463Z</time>
      </trkpt>
      <trkpt lat="46.99004" lon="8.67707">
        <ele>563</ele>
        <time>2021-08-05T10:10:50.463Z</time>
      </trkpt>
      <trkpt lat="46.99004" lon="8.67709">
        <ele>563</ele>
        <time>2021-08-05T10:10:51.463Z</time>
      </trkpt>
      <trkpt lat="46.99004" lon="8.6771">
        <ele>563</ele>
        <time>2021-08-05T10:10:52.463Z</time>
      </trkpt>
      <trkpt lat="46.99004" lon="8.67712">
        <ele>564</ele>
        <time>2021-08-05T10:10:53.463Z</time>
      </trkpt>
      <trkpt lat="46.99005" lon="8.67714">
        <ele>564</ele>
        <time>2021-08-05T10:10:54.463Z</time>
      </trkpt>
      <trkpt lat="46.99005" lon="8.67716">
        <ele>564</ele>
        <time>2021-08-05T10:10:55.463Z</time>
      </trkpt>
      <trkpt lat="46.99005" lon="8.67718">
        <ele>564</ele>
        <time>2021-08-05T10:10:56.463Z</time>
      </trkpt>
      <trkpt lat="46.99005" lon="8.67719">
        <ele>564</ele>
        <time>2021-08-05T10:10:57.462Z</time>
      </trkpt>
      <trkpt lat="46.99005" lon="8.67722">
        <ele>563</ele>
        <time>2021-08-05T10:10:58.463Z</time>
      </trkpt>
      <trkpt lat="46.99004" lon="8.67725">
        <ele>563</ele>
        <time>2021-08-05T10:10:59.463Z</time>
      </trkpt>
      <trkpt lat="46.99005" lon="8.67726">
        <ele>563</ele>
        <time>2021-08-05T10:11:00.462Z</time>
      </trkpt>
      <trkpt lat="46.99004" lon="8.67728">
        <ele>563</ele>
        <time>2021-08-05T10:11:01.463Z</time>
      </trkpt>
      <trkpt lat="46.99004" lon="8.67732">
        <ele>563</ele>
        <time>2021-08-05T10:11:02.463Z</time>
      </trkpt>
      <trkpt lat="46.99004" lon="8.67734">
        <ele>563</ele>
        <time>2021-08-05T10:11:03.462Z</time>
      </trkpt>
      <trkpt lat="46.99003" lon="8.67738">
        <ele>563</ele>
        <time>2021-08-05T10:11:04.462Z</time>
      </trkpt>
      <trkpt lat="46.99003" lon="8.6774">
        <ele>563</ele>
        <time>2021-08-05T10:11:05.463Z</time>
      </trkpt>
      <trkpt lat="46.99003" lon="8.67741">
        <ele>563</ele>
        <time>2021-08-05T10:11:06.463Z</time>
      </trkpt>
      <trkpt lat="46.99002" lon="8.67744">
        <ele>562</ele>
        <time>2021-08-05T10:11:07.463Z</time>
      </trkpt>
      <trkpt lat="46.99002" lon="8.67745">
        <ele>562</ele>
        <time>2021-08-05T10:11:08.463Z</time>
      </trkpt>
      <trkpt lat="46.99002" lon="8.67746">
        <ele>561</ele>
        <time>2021-08-05T10:11:09.463Z</time>
      </trkpt>
      <trkpt lat="46.99002" lon="8.67748">
        <ele>561</ele>
        <time>2021-08-05T10:11:10.463Z</time>
      </trkpt>
      <trkpt lat="46.99002" lon="8.6775">
        <ele>560</ele>
        <time>2021-08-05T10:11:11.463Z</time>
      </trkpt>
      <trkpt lat="46.99001" lon="8.67754">
        <ele>560</ele>
        <time>2021-08-05T10:11:12.463Z</time>
      </trkpt>
      <trkpt lat="46.99001" lon="8.67758">
        <ele>559</ele>
        <time>2021-08-05T10:11:13.462Z</time>
      </trkpt>
      <trkpt lat="46.99001" lon="8.67759">
        <ele>559</ele>
        <time>2021-08-05T10:11:14.463Z</time>
      </trkpt>
      <trkpt lat="46.99001" lon="8.6776">
        <ele>559</ele>
        <time>2021-08-05T10:11:15.463Z</time>
      </trkpt>
      <trkpt lat="46.99001" lon="8.67762">
        <ele>559</ele>
        <time>2021-08-05T10:11:16.462Z</time>
      </trkpt>
      <trkpt lat="46.99" lon="8.67764">
        <ele>559</ele>
        <time>2021-08-05T10:11:17.463Z</time>
      </trkpt>
      <trkpt lat="46.99" lon="8.67766">
        <ele>559</ele>
        <time>2021-08-05T10:11:18.462Z</time>
      </trkpt>
      <trkpt lat="46.99" lon="8.67766">
        <ele>559</ele>
        <time>2021-08-05T10:11:19.462Z</time>
      </trkpt>
      <trkpt lat="46.99" lon="8.67768">
        <ele>559</ele>
        <time>2021-08-05T10:11:20.463Z</time>
      </trkpt>
      <trkpt lat="46.99001" lon="8.67769">
        <ele>559</ele>
        <time>2021-08-05T10:11:21.463Z</time>
      </trkpt>
      <trkpt lat="46.99001" lon="8.67771">
        <ele>560</ele>
        <time>2021-08-05T10:11:22.463Z</time>
      </trkpt>
      <trkpt lat="46.99001" lon="8.67773">
        <ele>560</ele>
        <time>2021-08-05T10:11:23.462Z</time>
      </trkpt>
      <trkpt lat="46.99001" lon="8.67774">
        <ele>560</ele>
        <time>2021-08-05T10:11:24.463Z</time>
      </trkpt>
      <trkpt lat="46.99001" lon="8.67776">
        <ele>561</ele>
        <time>2021-08-05T10:11:25.463Z</time>
      </trkpt>
      <trkpt lat="46.99001" lon="8.67779">
        <ele>561</ele>
        <time>2021-08-05T10:11:26.463Z</time>
      </trkpt>
      <trkpt lat="46.99" lon="8.67781">
        <ele>561</ele>
        <time>2021-08-05T10:11:27.463Z</time>
      </trkpt>
      <trkpt lat="46.99" lon="8.67783">
        <ele>560</ele>
        <time>2021-08-05T10:11:28.463Z</time>
      </trkpt>
      <trkpt lat="46.99" lon="8.67785">
        <ele>560</ele>
        <time>2021-08-05T10:11:29.463Z</time>
      </trkpt>
      <trkpt lat="46.99" lon="8.67787">
        <ele>560</ele>
        <time>2021-08-05T10:11:30.463Z</time>
      </trkpt>
      <trkpt lat="46.99" lon="8.6779">
        <ele>560</ele>
        <time>2021-08-05T10:11:31.463Z</time>
      </trkpt>
      <trkpt lat="46.99" lon="8.67792">
        <ele>560</ele>
        <time>2021-08-05T10:11:32.463Z</time>
      </trkpt>
      <trkpt lat="46.99" lon="8.67794">
        <ele>560</ele>
        <time>2021-08-05T10:11:33.463Z</time>
      </trkpt>
      <trkpt lat="46.99" lon="8.67796">
        <ele>560</ele>
        <time>2021-08-05T10:11:34.463Z</time>
      </trkpt>
      <trkpt lat="46.99001" lon="8.67797">
        <ele>560</ele>
        <time>2021-08-05T10:11:35.463Z</time>
      </trkpt>
      <trkpt lat="46.99" lon="8.67798">
        <ele>560</ele>
        <time>2021-08-05T10:11:36.463Z</time>
      </trkpt>
      <trkpt lat="46.99" lon="8.678">
        <ele>560</ele>
        <time>2021-08-05T10:11:37.463Z</time>
      </trkpt>
      <trkpt lat="46.99001" lon="8.67802">
        <ele>560</ele>
        <time>2021-08-05T10:11:38.463Z</time>
      </trkpt>
      <trkpt lat="46.99001" lon="8.67805">
        <ele>560</ele>
        <time>2021-08-05T10:11:39.463Z</time>
      </trkpt>
      <trkpt lat="46.99001" lon="8.67807">
        <ele>560</ele>
        <time>2021-08-05T10:11:40.462Z</time>
      </trkpt>
      <trkpt lat="46.99002" lon="8.67808">
        <ele>560</ele>
        <time>2021-08-05T10:11:41.462Z</time>
      </trkpt>
      <trkpt lat="46.99002" lon="8.67809">
        <ele>560</ele>
        <time>2021-08-05T10:11:42.462Z</time>
      </trkpt>
      <trkpt lat="46.99003" lon="8.6781">
        <ele>559</ele>
        <time>2021-08-05T10:11:43.463Z</time>
      </trkpt>
      <trkpt lat="46.99002" lon="8.67813">
        <ele>559</ele>
        <time>2021-08-05T10:11:44.462Z</time>
      </trkpt>
      <trkpt lat="46.99002" lon="8.67813">
        <ele>559</ele>
        <time>2021-08-05T10:11:45.462Z</time>
      </trkpt>
      <trkpt lat="46.99002" lon="8.67814">
        <ele>559</ele>
        <time>2021-08-05T10:11:46.463Z</time>
      </trkpt>
      <trkpt lat="46.99002" lon="8.67816">
        <ele>559</ele>
        <time>2021-08-05T10:11:47.462Z</time>
      </trkpt>
      <trkpt lat="46.99002" lon="8.67818">
        <ele>559</ele>
        <time>2021-08-05T10:11:48.462Z</time>
      </trkpt>
      <trkpt lat="46.99003" lon="8.6782">
        <ele>559</ele>
        <time>2021-08-05T10:11:49.462Z</time>
      </trkpt>
      <trkpt lat="46.99003" lon="8.67821">
        <ele>559</ele>
        <time>2021-08-05T10:11:50.463Z</time>
      </trkpt>
      <trkpt lat="46.99002" lon="8.67823">
        <ele>559</ele>
        <time>2021-08-05T10:11:51.463Z</time>
      </trkpt>
      <trkpt lat="46.99002" lon="8.67824">
        <ele>560</ele>
        <time>2021-08-05T10:11:52.463Z</time>
      </trkpt>
      <trkpt lat="46.99002" lon="8.67827">
        <ele>560</ele>
        <time>2021-08-05T10:11:53.463Z</time>
      </trkpt>
      <trkpt lat="46.99002" lon="8.67829">
        <ele>560</ele>
        <time>2021-08-05T10:11:54.463Z</time>
      </trkpt>
      <trkpt lat="46.99002" lon="8.6783">
        <ele>560</ele>
        <time>2021-08-05T10:11:55.463Z</time>
      </trkpt>
      <trkpt lat="46.99003" lon="8.67832">
        <ele>561</ele>
        <time>2021-08-05T10:11:56.463Z</time>
      </trkpt>
      <trkpt lat="46.99003" lon="8.67833">
        <ele>561</ele>
        <time>2021-08-05T10:11:57.463Z</time>
      </trkpt>
      <trkpt lat="46.99003" lon="8.67835">
        <ele>561</ele>
        <time>2021-08-05T10:11:58.463Z</time>
      </trkpt>
      <trkpt lat="46.99003" lon="8.67837">
        <ele>561</ele>
        <time>2021-08-05T10:11:59.463Z</time>
      </trkpt>
      <trkpt lat="46.99003" lon="8.67839">
        <ele>560</ele>
        <time>2021-08-05T10:12:00.463Z</time>
      </trkpt>
      <trkpt lat="46.99002" lon="8.67841">
        <ele>559</ele>
        <time>2021-08-05T10:12:01.463Z</time>
      </trkpt>
      <trkpt lat="46.99002" lon="8.67843">
        <ele>559</ele>
        <time>2021-08-05T10:12:02.463Z</time>
      </trkpt>
      <trkpt lat="46.99002" lon="8.67845">
        <ele>558</ele>
        <time>2021-08-05T10:12:03.463Z</time>
      </trkpt>
      <trkpt lat="46.99001" lon="8.67847">
        <ele>557</ele>
        <time>2021-08-05T10:12:04.463Z</time>
      </trkpt>
      <trkpt lat="46.99002" lon="8.67849">
        <ele>557</ele>
        <time>2021-08-05T10:12:05.463Z</time>
      </trkpt>
      <trkpt lat="46.99002" lon="8.67851">
        <ele>556</ele>
        <time>2021-08-05T10:12:06.463Z</time>
      </trkpt>
      <trkpt lat="46.99003" lon="8.67854">
        <ele>556</ele>
        <time>2021-08-05T10:12:07.463Z</time>
      </trkpt>
      <trkpt lat="46.99003" lon="8.67856">
        <ele>555</ele>
        <time>2021-08-05T10:12:08.462Z</time>
      </trkpt>
      <trkpt lat="46.99003" lon="8.67858">
        <ele>555</ele>
        <time>2021-08-05T10:12:09.463Z</time>
      </trkpt>
      <trkpt lat="46.99002" lon="8.67859">
        <ele>555</ele>
        <time>2021-08-05T10:12:10.462Z</time>
      </trkpt>
      <trkpt lat="46.99003" lon="8.6786">
        <ele>555</ele>
        <time>2021-08-05T10:12:11.463Z</time>
      </trkpt>
      <trkpt lat="46.99003" lon="8.6786">
        <ele>555</ele>
        <time>2021-08-05T10:12:12.463Z</time>
      </trkpt>
      <trkpt lat="46.99004" lon="8.6786">
        <ele>555</ele>
        <time>2021-08-05T10:12:13.462Z</time>
      </trkpt>
      <trkpt lat="46.99004" lon="8.6786">
        <ele>555</ele>
        <time>2021-08-05T10:12:14.462Z</time>
      </trkpt>
      <trkpt lat="46.99007" lon="8.6786">
        <ele>556</ele>
        <time>2021-08-05T10:12:15.464Z</time>
      </trkpt>
      <trkpt lat="46.99006" lon="8.67864">
        <ele>556</ele>
        <time>2021-08-05T10:12:16.465Z</time>
      </trkpt>
      <trkpt lat="46.99006" lon="8.67865">
        <ele>556</ele>
        <time>2021-08-05T10:12:17.465Z</time>
      </trkpt>
      <trkpt lat="46.99006" lon="8.67867">
        <ele>556</ele>
        <time>2021-08-05T10:12:18.465Z</time>
      </trkpt>
      <trkpt lat="46.99006" lon="8.67868">
        <ele>556</ele>
        <time>2021-08-05T10:12:19.464Z</time>
      </trkpt>
      <trkpt lat="46.99006" lon="8.67869">
        <ele>555</ele>
        <time>2021-08-05T10:12:20.465Z</time>
      </trkpt>
      <trkpt lat="46.99006" lon="8.67871">
        <ele>555</ele>
        <time>2021-08-05T10:12:21.464Z</time>
      </trkpt>
      <trkpt lat="46.99005" lon="8.67873">
        <ele>555</ele>
        <time>2021-08-05T10:12:22.465Z</time>
      </trkpt>
      <trkpt lat="46.99006" lon="8.67874">
        <ele>555</ele>
        <time>2021-08-05T10:12:23.465Z</time>
      </trkpt>
      <trkpt lat="46.99005" lon="8.67876">
        <ele>555</ele>
        <time>2021-08-05T10:12:24.464Z</time>
      </trkpt>
      <trkpt lat="46.99005" lon="8.67877">
        <ele>554</ele>
        <time>2021-08-05T10:12:25.465Z</time>
      </trkpt>
      <trkpt lat="46.99004" lon="8.67879">
        <ele>554</ele>
        <time>2021-08-05T10:12:26.464Z</time>
      </trkpt>
      <trkpt lat="46.99004" lon="8.67881">
        <ele>554</ele>
        <time>2021-08-05T10:12:27.465Z</time>
      </trkpt>
      <trkpt lat="46.99003" lon="8.67883">
        <ele>554</ele>
        <time>2021-08-05T10:12:28.465Z</time>
      </trkpt>
      <trkpt lat="46.99003" lon="8.67885">
        <ele>554</ele>
        <time>2021-08-05T10:12:29.465Z</time>
      </trkpt>
      <trkpt lat="46.99003" lon="8.67887">
        <ele>554</ele>
        <time>2021-08-05T10:12:30.464Z</time>
      </trkpt>
      <trkpt lat="46.99002" lon="8.6789">
        <ele>554</ele>
        <time>2021-08-05T10:12:31.465Z</time>
      </trkpt>
      <trkpt lat="46.99002" lon="8.67892">
        <ele>554</ele>
        <time>2021-08-05T10:12:32.465Z</time>
      </trkpt>
      <trkpt lat="46.99001" lon="8.67894">
        <ele>554</ele>
        <time>2021-08-05T10:12:33.464Z</time>
      </trkpt>
      <trkpt lat="46.99001" lon="8.67895">
        <ele>554</ele>
        <time>2021-08-05T10:12:34.465Z</time>
      </trkpt>
      <trkpt lat="46.99001" lon="8.67897">
        <ele>554</ele>
        <time>2021-08-05T10:12:35.465Z</time>
      </trkpt>
      <trkpt lat="46.99" lon="8.67899">
        <ele>554</ele>
        <time>2021-08-05T10:12:36.464Z</time>
      </trkpt>
      <trkpt lat="46.99" lon="8.67902">
        <ele>554</ele>
        <time>2021-08-05T10:12:37.465Z</time>
      </trkpt>
      <trkpt lat="46.98999" lon="8.67903">
        <ele>554</ele>
        <time>2021-08-05T10:12:38.465Z</time>
      </trkpt>
      <trkpt lat="46.98999" lon="8.67906">
        <ele>554</ele>
        <time>2021-08-05T10:12:39.465Z</time>
      </trkpt>
      <trkpt lat="46.98998" lon="8.67908">
        <ele>554</ele>
        <time>2021-08-05T10:12:40.465Z</time>
      </trkpt>
      <trkpt lat="46.98997" lon="8.6791">
        <ele>554</ele>
        <time>2021-08-05T10:12:41.465Z</time>
      </trkpt>
      <trkpt lat="46.98997" lon="8.67911">
        <ele>554</ele>
        <time>2021-08-05T10:12:42.464Z</time>
      </trkpt>
      <trkpt lat="46.98997" lon="8.67913">
        <ele>554</ele>
        <time>2021-08-05T10:12:43.465Z</time>
      </trkpt>
      <trkpt lat="46.98996" lon="8.67914">
        <ele>554</ele>
        <time>2021-08-05T10:12:44.465Z</time>
      </trkpt>
      <trkpt lat="46.98996" lon="8.67915">
        <ele>554</ele>
        <time>2021-08-05T10:12:45.465Z</time>
      </trkpt>
      <trkpt lat="46.98995" lon="8.67916">
        <ele>554</ele>
        <time>2021-08-05T10:12:46.464Z</time>
      </trkpt>
      <trkpt lat="46.98994" lon="8.67918">
        <ele>554</ele>
        <time>2021-08-05T10:12:47.464Z</time>
      </trkpt>
      <trkpt lat="46.98994" lon="8.67919">
        <ele>554</ele>
        <time>2021-08-05T10:12:48.464Z</time>
      </trkpt>
      <trkpt lat="46.98994" lon="8.67921">
        <ele>554</ele>
        <time>2021-08-05T10:12:49.465Z</time>
      </trkpt>
      <trkpt lat="46.98993" lon="8.67922">
        <ele>554</ele>
        <time>2021-08-05T10:12:50.465Z</time>
      </trkpt>
      <trkpt lat="46.98993" lon="8.67924">
        <ele>554</ele>
        <time>2021-08-05T10:12:51.465Z</time>
      </trkpt>
      <trkpt lat="46.98993" lon="8.67925">
        <ele>554</ele>
        <time>2021-08-05T10:12:52.464Z</time>
      </trkpt>
      <trkpt lat="46.98992" lon="8.67927">
        <ele>554</ele>
        <time>2021-08-05T10:12:53.465Z</time>
      </trkpt>
      <trkpt lat="46.98991" lon="8.67929">
        <ele>554</ele>
        <time>2021-08-05T10:12:54.465Z</time>
      </trkpt>
      <trkpt lat="46.98991" lon="8.67931">
        <ele>555</ele>
        <time>2021-08-05T10:12:55.464Z</time>
      </trkpt>
      <trkpt lat="46.98991" lon="8.67932">
        <ele>555</ele>
        <time>2021-08-05T10:12:56.465Z</time>
      </trkpt>
      <trkpt lat="46.98991" lon="8.67934">
        <ele>555</ele>
        <time>2021-08-05T10:12:57.464Z</time>
      </trkpt>
      <trkpt lat="46.98991" lon="8.67936">
        <ele>556</ele>
        <time>2021-08-05T10:12:58.465Z</time>
      </trkpt>
      <trkpt lat="46.98991" lon="8.67938">
        <ele>556</ele>
        <time>2021-08-05T10:12:59.465Z</time>
      </trkpt>
      <trkpt lat="46.98991" lon="8.6794">
        <ele>556</ele>
        <time>2021-08-05T10:13:00.465Z</time>
      </trkpt>
      <trkpt lat="46.98991" lon="8.67941">
        <ele>556</ele>
        <time>2021-08-05T10:13:01.465Z</time>
      </trkpt>
      <trkpt lat="46.98991" lon="8.67943">
        <ele>556</ele>
        <time>2021-08-05T10:13:02.464Z</time>
      </trkpt>
      <trkpt lat="46.9899" lon="8.67944">
        <ele>555</ele>
        <time>2021-08-05T10:13:03.465Z</time>
      </trkpt>
      <trkpt lat="46.98991" lon="8.67945">
        <ele>555</ele>
        <time>2021-08-05T10:13:04.464Z</time>
      </trkpt>
      <trkpt lat="46.98992" lon="8.67945">
        <ele>555</ele>
        <time>2021-08-05T10:13:05.465Z</time>
      </trkpt>
      <trkpt lat="46.98993" lon="8.67944">
        <ele>555</ele>
        <time>2021-08-05T10:13:06.464Z</time>
      </trkpt>
      <trkpt lat="46.98994" lon="8.67944">
        <ele>555</ele>
        <time>2021-08-05T10:13:07.465Z</time>
      </trkpt>
      <trkpt lat="46.98994" lon="8.67943">
        <ele>556</ele>
        <time>2021-08-05T10:13:08.465Z</time>
      </trkpt>
      <trkpt lat="46.98992" lon="8.67941">
        <ele>556</ele>
        <time>2021-08-05T10:13:09.464Z</time>
      </trkpt>
      <trkpt lat="46.98992" lon="8.67941">
        <ele>557</ele>
        <time>2021-08-05T10:13:10.464Z</time>
      </trkpt>
      <trkpt lat="46.98992" lon="8.67941">
        <ele>557</ele>
        <time>2021-08-05T10:13:11.465Z</time>
      </trkpt>
      <trkpt lat="46.98992" lon="8.67942">
        <ele>557</ele>
        <time>2021-08-05T10:13:12.464Z</time>
      </trkpt>
      <trkpt lat="46.98992" lon="8.67942">
        <ele>557</ele>
        <time>2021-08-05T10:13:13.465Z</time>
      </trkpt>
      <trkpt lat="46.98992" lon="8.67942">
        <ele>557</ele>
        <time>2021-08-05T10:13:14.465Z</time>
      </trkpt>
      <trkpt lat="46.98991" lon="8.67942">
        <ele>557</ele>
        <time>2021-08-05T10:13:15.464Z</time>
      </trkpt>
      <trkpt lat="46.98991" lon="8.67943">
        <ele>557</ele>
        <time>2021-08-05T10:13:16.465Z</time>
      </trkpt>
      <trkpt lat="46.98991" lon="8.67944">
        <ele>557</ele>
        <time>2021-08-05T10:13:17.465Z</time>
      </trkpt>
      <trkpt lat="46.9899" lon="8.67945">
        <ele>557</ele>
        <time>2021-08-05T10:13:18.465Z</time>
      </trkpt>
      <trkpt lat="46.9899" lon="8.67947">
        <ele>556</ele>
        <time>2021-08-05T10:13:19.465Z</time>
      </trkpt>
      <trkpt lat="46.9899" lon="8.67948">
        <ele>556</ele>
        <time>2021-08-05T10:13:20.464Z</time>
      </trkpt>
      <trkpt lat="46.9899" lon="8.67948">
        <ele>556</ele>
        <time>2021-08-05T10:13:21.465Z</time>
      </trkpt>
      <trkpt lat="46.9899" lon="8.67949">
        <ele>555</ele>
        <time>2021-08-05T10:13:22.464Z</time>
      </trkpt>
      <trkpt lat="46.98989" lon="8.67949">
        <ele>555</ele>
        <time>2021-08-05T10:13:23.465Z</time>
      </trkpt>
      <trkpt lat="46.98989" lon="8.6795">
        <ele>555</ele>
        <time>2021-08-05T10:13:24.465Z</time>
      </trkpt>
      <trkpt lat="46.98989" lon="8.6795">
        <ele>554</ele>
        <time>2021-08-05T10:13:25.464Z</time>
      </trkpt>
      <trkpt lat="46.9899" lon="8.67952">
        <ele>554</ele>
        <time>2021-08-05T10:13:26.465Z</time>
      </trkpt>
      <trkpt lat="46.98991" lon="8.67954">
        <ele>554</ele>
        <time>2021-08-05T10:13:27.465Z</time>
      </trkpt>
      <trkpt lat="46.98991" lon="8.67955">
        <ele>553</ele>
        <time>2021-08-05T10:13:28.465Z</time>
      </trkpt>
      <trkpt lat="46.98992" lon="8.67957">
        <ele>553</ele>
        <time>2021-08-05T10:13:29.465Z</time>
      </trkpt>
      <trkpt lat="46.98992" lon="8.67959">
        <ele>552</ele>
        <time>2021-08-05T10:13:30.465Z</time>
      </trkpt>
      <trkpt lat="46.98991" lon="8.67961">
        <ele>552</ele>
        <time>2021-08-05T10:13:31.465Z</time>
      </trkpt>
      <trkpt lat="46.98991" lon="8.67963">
        <ele>552</ele>
        <time>2021-08-05T10:13:32.465Z</time>
      </trkpt>
      <trkpt lat="46.98991" lon="8.67965">
        <ele>551</ele>
        <time>2021-08-05T10:13:33.465Z</time>
      </trkpt>
      <trkpt lat="46.98991" lon="8.67966">
        <ele>551</ele>
        <time>2021-08-05T10:13:34.465Z</time>
      </trkpt>
      <trkpt lat="46.98992" lon="8.67968">
        <ele>551</ele>
        <time>2021-08-05T10:13:35.464Z</time>
      </trkpt>
      <trkpt lat="46.98992" lon="8.6797">
        <ele>550</ele>
        <time>2021-08-05T10:13:36.465Z</time>
      </trkpt>
      <trkpt lat="46.98992" lon="8.67972">
        <ele>550</ele>
        <time>2021-08-05T10:13:37.464Z</time>
      </trkpt>
      <trkpt lat="46.98992" lon="8.67974">
        <ele>549</ele>
        <time>2021-08-05T10:13:38.465Z</time>
      </trkpt>
      <trkpt lat="46.98992" lon="8.67976">
        <ele>549</ele>
        <time>2021-08-05T10:13:39.464Z</time>
      </trkpt>
      <trkpt lat="46.98993" lon="8.67978">
        <ele>548</ele>
        <time>2021-08-05T10:13:40.465Z</time>
      </trkpt>
      <trkpt lat="46.98993" lon="8.67979">
        <ele>548</ele>
        <time>2021-08-05T10:13:41.465Z</time>
      </trkpt>
      <trkpt lat="46.98993" lon="8.67982">
        <ele>547</ele>
        <time>2021-08-05T10:13:42.465Z</time>
      </trkpt>
      <trkpt lat="46.98993" lon="8.67983">
        <ele>547</ele>
        <time>2021-08-05T10:13:43.464Z</time>
      </trkpt>
      <trkpt lat="46.98994" lon="8.67984">
        <ele>547</ele>
        <time>2021-08-05T10:13:44.465Z</time>
      </trkpt>
      <trkpt lat="46.98994" lon="8.67986">
        <ele>547</ele>
        <time>2021-08-05T10:13:45.464Z</time>
      </trkpt>
      <trkpt lat="46.98994" lon="8.67988">
        <ele>547</ele>
        <time>2021-08-05T10:13:46.464Z</time>
      </trkpt>
      <trkpt lat="46.98995" lon="8.67989">
        <ele>547</ele>
        <time>2021-08-05T10:13:47.464Z</time>
      </trkpt>
      <trkpt lat="46.98995" lon="8.67992">
        <ele>546</ele>
        <time>2021-08-05T10:13:48.464Z</time>
      </trkpt>
      <trkpt lat="46.98995" lon="8.67994">
        <ele>546</ele>
        <time>2021-08-05T10:13:49.464Z</time>
      </trkpt>
      <trkpt lat="46.98995" lon="8.67996">
        <ele>546</ele>
        <time>2021-08-05T10:13:50.464Z</time>
      </trkpt>
      <trkpt lat="46.98995" lon="8.67998">
        <ele>546</ele>
        <time>2021-08-05T10:13:51.464Z</time>
      </trkpt>
      <trkpt lat="46.98995" lon="8.68">
        <ele>546</ele>
        <time>2021-08-05T10:13:52.464Z</time>
      </trkpt>
      <trkpt lat="46.98994" lon="8.68002">
        <ele>546</ele>
        <time>2021-08-05T10:13:53.465Z</time>
      </trkpt>
      <trkpt lat="46.98993" lon="8.68003">
        <ele>547</ele>
        <time>2021-08-05T10:13:54.464Z</time>
      </trkpt>
      <trkpt lat="46.98993" lon="8.68004">
        <ele>547</ele>
        <time>2021-08-05T10:13:55.464Z</time>
      </trkpt>
      <trkpt lat="46.98993" lon="8.68006">
        <ele>547</ele>
        <time>2021-08-05T10:13:56.464Z</time>
      </trkpt>
      <trkpt lat="46.98993" lon="8.68007">
        <ele>547</ele>
        <time>2021-08-05T10:13:57.464Z</time>
      </trkpt>
      <trkpt lat="46.98992" lon="8.68008">
        <ele>547</ele>
        <time>2021-08-05T10:13:58.465Z</time>
      </trkpt>
      <trkpt lat="46.98993" lon="8.68009">
        <ele>547</ele>
        <time>2021-08-05T10:13:59.465Z</time>
      </trkpt>
      <trkpt lat="46.98993" lon="8.68011">
        <ele>547</ele>
        <time>2021-08-05T10:14:00.465Z</time>
      </trkpt>
      <trkpt lat="46.98993" lon="8.68012">
        <ele>547</ele>
        <time>2021-08-05T10:14:01.464Z</time>
      </trkpt>
      <trkpt lat="46.98992" lon="8.68014">
        <ele>547</ele>
        <time>2021-08-05T10:14:02.465Z</time>
      </trkpt>
      <trkpt lat="46.98992" lon="8.68015">
        <ele>546</ele>
        <time>2021-08-05T10:14:03.465Z</time>
      </trkpt>
      <trkpt lat="46.98991" lon="8.68017">
        <ele>546</ele>
        <time>2021-08-05T10:14:04.464Z</time>
      </trkpt>
      <trkpt lat="46.98991" lon="8.6802">
        <ele>546</ele>
        <time>2021-08-05T10:14:05.464Z</time>
      </trkpt>
      <trkpt lat="46.98991" lon="8.68022">
        <ele>546</ele>
        <time>2021-08-05T10:14:06.464Z</time>
      </trkpt>
      <trkpt lat="46.98991" lon="8.68024">
        <ele>546</ele>
        <time>2021-08-05T10:14:07.464Z</time>
      </trkpt>
      <trkpt lat="46.9899" lon="8.68025">
        <ele>546</ele>
        <time>2021-08-05T10:14:08.464Z</time>
      </trkpt>
      <trkpt lat="46.9899" lon="8.68027">
        <ele>546</ele>
        <time>2021-08-05T10:14:09.464Z</time>
      </trkpt>
      <trkpt lat="46.98991" lon="8.68028">
        <ele>546</ele>
        <time>2021-08-05T10:14:10.465Z</time>
      </trkpt>
      <trkpt lat="46.9899" lon="8.6803">
        <ele>547</ele>
        <time>2021-08-05T10:14:11.465Z</time>
      </trkpt>
      <trkpt lat="46.98989" lon="8.68032">
        <ele>547</ele>
        <time>2021-08-05T10:14:12.465Z</time>
      </trkpt>
      <trkpt lat="46.98988" lon="8.68035">
        <ele>547</ele>
        <time>2021-08-05T10:14:13.465Z</time>
      </trkpt>
      <trkpt lat="46.98988" lon="8.68037">
        <ele>547</ele>
        <time>2021-08-05T10:14:14.465Z</time>
      </trkpt>
      <trkpt lat="46.98988" lon="8.68039">
        <ele>547</ele>
        <time>2021-08-05T10:14:15.464Z</time>
      </trkpt>
      <trkpt lat="46.98987" lon="8.68041">
        <ele>547</ele>
        <time>2021-08-05T10:14:16.465Z</time>
      </trkpt>
      <trkpt lat="46.98987" lon="8.68043">
        <ele>547</ele>
        <time>2021-08-05T10:14:17.465Z</time>
      </trkpt>
      <trkpt lat="46.98987" lon="8.68044">
        <ele>547</ele>
        <time>2021-08-05T10:14:18.464Z</time>
      </trkpt>
      <trkpt lat="46.98987" lon="8.68046">
        <ele>547</ele>
        <time>2021-08-05T10:14:19.465Z</time>
      </trkpt>
      <trkpt lat="46.98986" lon="8.68048">
        <ele>547</ele>
        <time>2021-08-05T10:14:20.465Z</time>
      </trkpt>
      <trkpt lat="46.98986" lon="8.6805">
        <ele>547</ele>
        <time>2021-08-05T10:14:21.465Z</time>
      </trkpt>
      <trkpt lat="46.98986" lon="8.68052">
        <ele>547</ele>
        <time>2021-08-05T10:14:22.465Z</time>
      </trkpt>
      <trkpt lat="46.98987" lon="8.68054">
        <ele>548</ele>
        <time>2021-08-05T10:14:23.465Z</time>
      </trkpt>
      <trkpt lat="46.98987" lon="8.68056">
        <ele>548</ele>
        <time>2021-08-05T10:14:24.465Z</time>
      </trkpt>
      <trkpt lat="46.98987" lon="8.68058">
        <ele>548</ele>
        <time>2021-08-05T10:14:25.464Z</time>
      </trkpt>
      <trkpt lat="46.98987" lon="8.68059">
        <ele>548</ele>
        <time>2021-08-05T10:14:26.465Z</time>
      </trkpt>
      <trkpt lat="46.98987" lon="8.68061">
        <ele>548</ele>
        <time>2021-08-05T10:14:27.465Z</time>
      </trkpt>
      <trkpt lat="46.98986" lon="8.68063">
        <ele>548</ele>
        <time>2021-08-05T10:14:28.465Z</time>
      </trkpt>
      <trkpt lat="46.98987" lon="8.68065">
        <ele>548</ele>
        <time>2021-08-05T10:14:29.465Z</time>
      </trkpt>
      <trkpt lat="46.98987" lon="8.68067">
        <ele>548</ele>
        <time>2021-08-05T10:14:30.465Z</time>
      </trkpt>
      <trkpt lat="46.98988" lon="8.68068">
        <ele>548</ele>
        <time>2021-08-05T10:14:31.465Z</time>
      </trkpt>
      <trkpt lat="46.98989" lon="8.6807">
        <ele>549</ele>
        <time>2021-08-05T10:14:32.464Z</time>
      </trkpt>
      <trkpt lat="46.98989" lon="8.68072">
        <ele>549</ele>
        <time>2021-08-05T10:14:33.465Z</time>
      </trkpt>
      <trkpt lat="46.98989" lon="8.68074">
        <ele>549</ele>
        <time>2021-08-05T10:14:34.465Z</time>
      </trkpt>
      <trkpt lat="46.9899" lon="8.68075">
        <ele>549</ele>
        <time>2021-08-05T10:14:35.465Z</time>
      </trkpt>
      <trkpt lat="46.9899" lon="8.68077">
        <ele>549</ele>
        <time>2021-08-05T10:14:36.464Z</time>
      </trkpt>
      <trkpt lat="46.9899" lon="8.68078">
        <ele>549</ele>
        <time>2021-08-05T10:14:37.465Z</time>
      </trkpt>
      <trkpt lat="46.9899" lon="8.68079">
        <ele>549</ele>
        <time>2021-08-05T10:14:38.464Z</time>
      </trkpt>
      <trkpt lat="46.98991" lon="8.6808">
        <ele>549</ele>
        <time>2021-08-05T10:14:39.464Z</time>
      </trkpt>
      <trkpt lat="46.9899" lon="8.68082">
        <ele>549</ele>
        <time>2021-08-05T10:14:40.465Z</time>
      </trkpt>
      <trkpt lat="46.9899" lon="8.68083">
        <ele>549</ele>
        <time>2021-08-05T10:14:41.464Z</time>
      </trkpt>
      <trkpt lat="46.9899" lon="8.68085">
        <ele>549</ele>
        <time>2021-08-05T10:14:42.465Z</time>
      </trkpt>
      <trkpt lat="46.98991" lon="8.68086">
        <ele>549</ele>
        <time>2021-08-05T10:14:43.465Z</time>
      </trkpt>
      <trkpt lat="46.98991" lon="8.68088">
        <ele>550</ele>
        <time>2021-08-05T10:14:44.465Z</time>
      </trkpt>
      <trkpt lat="46.98991" lon="8.6809">
        <ele>549</ele>
        <time>2021-08-05T10:14:45.465Z</time>
      </trkpt>
      <trkpt lat="46.98991" lon="8.68092">
        <ele>549</ele>
        <time>2021-08-05T10:14:46.465Z</time>
      </trkpt>
      <trkpt lat="46.98991" lon="8.68093">
        <ele>549</ele>
        <time>2021-08-05T10:14:47.465Z</time>
      </trkpt>
      <trkpt lat="46.98991" lon="8.68094">
        <ele>549</ele>
        <time>2021-08-05T10:14:48.465Z</time>
      </trkpt>
      <trkpt lat="46.98991" lon="8.68095">
        <ele>548</ele>
        <time>2021-08-05T10:14:49.465Z</time>
      </trkpt>
      <trkpt lat="46.98991" lon="8.68096">
        <ele>549</ele>
        <time>2021-08-05T10:14:50.465Z</time>
      </trkpt>
      <trkpt lat="46.98991" lon="8.68097">
        <ele>549</ele>
        <time>2021-08-05T10:14:51.465Z</time>
      </trkpt>
      <trkpt lat="46.98991" lon="8.68098">
        <ele>548</ele>
        <time>2021-08-05T10:14:52.465Z</time>
      </trkpt>
      <trkpt lat="46.98992" lon="8.681">
        <ele>548</ele>
        <time>2021-08-05T10:14:53.465Z</time>
      </trkpt>
      <trkpt lat="46.98991" lon="8.68102">
        <ele>548</ele>
        <time>2021-08-05T10:14:54.465Z</time>
      </trkpt>
      <trkpt lat="46.98993" lon="8.68105">
        <ele>548</ele>
        <time>2021-08-05T10:14:55.465Z</time>
      </trkpt>
      <trkpt lat="46.98993" lon="8.68107">
        <ele>548</ele>
        <time>2021-08-05T10:14:56.465Z</time>
      </trkpt>
      <trkpt lat="46.98993" lon="8.68109">
        <ele>548</ele>
        <time>2021-08-05T10:14:57.464Z</time>
      </trkpt>
      <trkpt lat="46.98993" lon="8.6811">
        <ele>548</ele>
        <time>2021-08-05T10:14:58.464Z</time>
      </trkpt>
      <trkpt lat="46.98993" lon="8.68112">
        <ele>548</ele>
        <time>2021-08-05T10:14:59.464Z</time>
      </trkpt>
      <trkpt lat="46.98993" lon="8.68114">
        <ele>547</ele>
        <time>2021-08-05T10:15:00.465Z</time>
      </trkpt>
      <trkpt lat="46.98993" lon="8.68116">
        <ele>547</ele>
        <time>2021-08-05T10:15:01.465Z</time>
      </trkpt>
      <trkpt lat="46.98993" lon="8.68117">
        <ele>547</ele>
        <time>2021-08-05T10:15:02.465Z</time>
      </trkpt>
      <trkpt lat="46.98992" lon="8.68119">
        <ele>547</ele>
        <time>2021-08-05T10:15:03.465Z</time>
      </trkpt>
      <trkpt lat="46.98992" lon="8.6812">
        <ele>546</ele>
        <time>2021-08-05T10:15:04.464Z</time>
      </trkpt>
      <trkpt lat="46.98991" lon="8.68121">
        <ele>546</ele>
        <time>2021-08-05T10:15:05.464Z</time>
      </trkpt>
      <trkpt lat="46.98991" lon="8.68123">
        <ele>546</ele>
        <time>2021-08-05T10:15:06.465Z</time>
      </trkpt>
      <trkpt lat="46.98992" lon="8.68124">
        <ele>546</ele>
        <time>2021-08-05T10:15:07.464Z</time>
      </trkpt>
      <trkpt lat="46.98992" lon="8.68126">
        <ele>546</ele>
        <time>2021-08-05T10:15:08.465Z</time>
      </trkpt>
      <trkpt lat="46.98992" lon="8.68128">
        <ele>546</ele>
        <time>2021-08-05T10:15:09.464Z</time>
      </trkpt>
      <trkpt lat="46.98992" lon="8.6813">
        <ele>546</ele>
        <time>2021-08-05T10:15:10.464Z</time>
      </trkpt>
      <trkpt lat="46.98993" lon="8.68132">
        <ele>546</ele>
        <time>2021-08-05T10:15:11.465Z</time>
      </trkpt>
      <trkpt lat="46.98993" lon="8.68135">
        <ele>546</ele>
        <time>2021-08-05T10:15:12.465Z</time>
      </trkpt>
      <trkpt lat="46.98994" lon="8.68137">
        <ele>546</ele>
        <time>2021-08-05T10:15:13.464Z</time>
      </trkpt>
      <trkpt lat="46.98994" lon="8.6814">
        <ele>546</ele>
        <time>2021-08-05T10:15:14.464Z</time>
      </trkpt>
      <trkpt lat="46.98994" lon="8.68142">
        <ele>546</ele>
        <time>2021-08-05T10:15:15.464Z</time>
      </trkpt>
      <trkpt lat="46.98994" lon="8.68145">
        <ele>546</ele>
        <time>2021-08-05T10:15:16.464Z</time>
      </trkpt>
      <trkpt lat="46.98994" lon="8.68146">
        <ele>546</ele>
        <time>2021-08-05T10:15:17.464Z</time>
      </trkpt>
      <trkpt lat="46.98995" lon="8.68148">
        <ele>546</ele>
        <time>2021-08-05T10:15:18.464Z</time>
      </trkpt>
      <trkpt lat="46.98995" lon="8.68149">
        <ele>546</ele>
        <time>2021-08-05T10:15:19.464Z</time>
      </trkpt>
      <trkpt lat="46.98996" lon="8.68151">
        <ele>546</ele>
        <time>2021-08-05T10:15:20.465Z</time>
      </trkpt>
      <trkpt lat="46.98995" lon="8.68153">
        <ele>546</ele>
        <time>2021-08-05T10:15:21.465Z</time>
      </trkpt>
      <trkpt lat="46.98994" lon="8.68155">
        <ele>547</ele>
        <time>2021-08-05T10:15:22.464Z</time>
      </trkpt>
      <trkpt lat="46.98993" lon="8.68157">
        <ele>547</ele>
        <time>2021-08-05T10:15:23.464Z</time>
      </trkpt>
      <trkpt lat="46.98994" lon="8.68159">
        <ele>547</ele>
        <time>2021-08-05T10:15:24.464Z</time>
      </trkpt>
      <trkpt lat="46.98994" lon="8.68161">
        <ele>547</ele>
        <time>2021-08-05T10:15:25.464Z</time>
      </trkpt>
      <trkpt lat="46.98994" lon="8.68163">
        <ele>547</ele>
        <time>2021-08-05T10:15:26.464Z</time>
      </trkpt>
      <trkpt lat="46.98994" lon="8.68164">
        <ele>547</ele>
        <time>2021-08-05T10:15:27.464Z</time>
      </trkpt>
      <trkpt lat="46.98994" lon="8.68166">
        <ele>547</ele>
        <time>2021-08-05T10:15:28.464Z</time>
      </trkpt>
      <trkpt lat="46.98993" lon="8.68167">
        <ele>547</ele>
        <time>2021-08-05T10:15:29.465Z</time>
      </trkpt>
      <trkpt lat="46.98994" lon="8.68169">
        <ele>547</ele>
        <time>2021-08-05T10:15:30.464Z</time>
      </trkpt>
      <trkpt lat="46.98994" lon="8.68171">
        <ele>546</ele>
        <time>2021-08-05T10:15:31.464Z</time>
      </trkpt>
      <trkpt lat="46.98994" lon="8.68173">
        <ele>546</ele>
        <time>2021-08-05T10:15:32.464Z</time>
      </trkpt>
      <trkpt lat="46.98995" lon="8.68176">
        <ele>545</ele>
        <time>2021-08-05T10:15:33.464Z</time>
      </trkpt>
      <trkpt lat="46.98994" lon="8.68178">
        <ele>545</ele>
        <time>2021-08-05T10:15:34.465Z</time>
      </trkpt>
      <trkpt lat="46.98992" lon="8.6818">
        <ele>545</ele>
        <time>2021-08-05T10:15:35.465Z</time>
      </trkpt>
      <trkpt lat="46.98993" lon="8.68182">
        <ele>545</ele>
        <time>2021-08-05T10:15:36.465Z</time>
      </trkpt>
      <trkpt lat="46.98993" lon="8.68184">
        <ele>545</ele>
        <time>2021-08-05T10:15:37.465Z</time>
      </trkpt>
      <trkpt lat="46.98992" lon="8.68185">
        <ele>544</ele>
        <time>2021-08-05T10:15:38.465Z</time>
      </trkpt>
      <trkpt lat="46.98992" lon="8.68187">
        <ele>544</ele>
        <time>2021-08-05T10:15:39.464Z</time>
      </trkpt>
      <trkpt lat="46.98991" lon="8.68188">
        <ele>544</ele>
        <time>2021-08-05T10:15:40.465Z</time>
      </trkpt>
      <trkpt lat="46.98991" lon="8.68189">
        <ele>543</ele>
        <time>2021-08-05T10:15:41.465Z</time>
      </trkpt>
      <trkpt lat="46.98991" lon="8.6819">
        <ele>543</ele>
        <time>2021-08-05T10:15:42.464Z</time>
      </trkpt>
      <trkpt lat="46.98991" lon="8.68192">
        <ele>543</ele>
        <time>2021-08-05T10:15:43.464Z</time>
      </trkpt>
      <trkpt lat="46.98991" lon="8.68194">
        <ele>543</ele>
        <time>2021-08-05T10:15:44.465Z</time>
      </trkpt>
      <trkpt lat="46.98991" lon="8.68196">
        <ele>542</ele>
        <time>2021-08-05T10:15:45.464Z</time>
      </trkpt>
      <trkpt lat="46.98991" lon="8.68197">
        <ele>542</ele>
        <time>2021-08-05T10:15:46.464Z</time>
      </trkpt>
      <trkpt lat="46.9899" lon="8.68199">
        <ele>542</ele>
        <time>2021-08-05T10:15:47.465Z</time>
      </trkpt>
      <trkpt lat="46.9899" lon="8.682">
        <ele>542</ele>
        <time>2021-08-05T10:15:48.465Z</time>
      </trkpt>
      <trkpt lat="46.9899" lon="8.68201">
        <ele>542</ele>
        <time>2021-08-05T10:15:49.464Z</time>
      </trkpt>
      <trkpt lat="46.9899" lon="8.68203">
        <ele>542</ele>
        <time>2021-08-05T10:15:50.465Z</time>
      </trkpt>
      <trkpt lat="46.9899" lon="8.68205">
        <ele>542</ele>
        <time>2021-08-05T10:15:51.465Z</time>
      </trkpt>
      <trkpt lat="46.9899" lon="8.68207">
        <ele>542</ele>
        <time>2021-08-05T10:15:52.465Z</time>
      </trkpt>
      <trkpt lat="46.9899" lon="8.68208">
        <ele>542</ele>
        <time>2021-08-05T10:15:53.465Z</time>
      </trkpt>
      <trkpt lat="46.9899" lon="8.68209">
        <ele>543</ele>
        <time>2021-08-05T10:15:54.465Z</time>
      </trkpt>
      <trkpt lat="46.98991" lon="8.6821">
        <ele>543</ele>
        <time>2021-08-05T10:15:55.464Z</time>
      </trkpt>
      <trkpt lat="46.98991" lon="8.68212">
        <ele>544</ele>
        <time>2021-08-05T10:15:56.464Z</time>
      </trkpt>
      <trkpt lat="46.98991" lon="8.68213">
        <ele>544</ele>
        <time>2021-08-05T10:15:57.464Z</time>
      </trkpt>
      <trkpt lat="46.98991" lon="8.68215">
        <ele>545</ele>
        <time>2021-08-05T10:15:58.465Z</time>
      </trkpt>
      <trkpt lat="46.98991" lon="8.68216">
        <ele>545</ele>
        <time>2021-08-05T10:15:59.465Z</time>
      </trkpt>
      <trkpt lat="46.98991" lon="8.68218">
        <ele>545</ele>
        <time>2021-08-05T10:16:00.465Z</time>
      </trkpt>
      <trkpt lat="46.98992" lon="8.6822">
        <ele>545</ele>
        <time>2021-08-05T10:16:01.464Z</time>
      </trkpt>
      <trkpt lat="46.98992" lon="8.68222">
        <ele>545</ele>
        <time>2021-08-05T10:16:02.465Z</time>
      </trkpt>
      <trkpt lat="46.98992" lon="8.68224">
        <ele>546</ele>
        <time>2021-08-05T10:16:03.465Z</time>
      </trkpt>
      <trkpt lat="46.98992" lon="8.68226">
        <ele>546</ele>
        <time>2021-08-05T10:16:04.464Z</time>
      </trkpt>
      <trkpt lat="46.98992" lon="8.68228">
        <ele>546</ele>
        <time>2021-08-05T10:16:05.464Z</time>
      </trkpt>
      <trkpt lat="46.98993" lon="8.6823">
        <ele>546</ele>
        <time>2021-08-05T10:16:06.465Z</time>
      </trkpt>
      <trkpt lat="46.98993" lon="8.68232">
        <ele>546</ele>
        <time>2021-08-05T10:16:07.465Z</time>
      </trkpt>
      <trkpt lat="46.98992" lon="8.68234">
        <ele>546</ele>
        <time>2021-08-05T10:16:08.465Z</time>
      </trkpt>
      <trkpt lat="46.98993" lon="8.68236">
        <ele>546</ele>
        <time>2021-08-05T10:16:09.464Z</time>
      </trkpt>
      <trkpt lat="46.98993" lon="8.68238">
        <ele>546</ele>
        <time>2021-08-05T10:16:10.464Z</time>
      </trkpt>
      <trkpt lat="46.98994" lon="8.6824">
        <ele>546</ele>
        <time>2021-08-05T10:16:11.464Z</time>
      </trkpt>
      <trkpt lat="46.98994" lon="8.68242">
        <ele>546</ele>
        <time>2021-08-05T10:16:12.464Z</time>
      </trkpt>
      <trkpt lat="46.98994" lon="8.68244">
        <ele>546</ele>
        <time>2021-08-05T10:16:13.465Z</time>
      </trkpt>
      <trkpt lat="46.98995" lon="8.68245">
        <ele>547</ele>
        <time>2021-08-05T10:16:14.465Z</time>
      </trkpt>
      <trkpt lat="46.98995" lon="8.68247">
        <ele>547</ele>
        <time>2021-08-05T10:16:15.464Z</time>
      </trkpt>
      <trkpt lat="46.98995" lon="8.68249">
        <ele>547</ele>
        <time>2021-08-05T10:16:16.464Z</time>
      </trkpt>
      <trkpt lat="46.98995" lon="8.68251">
        <ele>547</ele>
        <time>2021-08-05T10:16:17.465Z</time>
      </trkpt>
      <trkpt lat="46.98995" lon="8.68253">
        <ele>547</ele>
        <time>2021-08-05T10:16:18.465Z</time>
      </trkpt>
      <trkpt lat="46.98995" lon="8.68255">
        <ele>547</ele>
        <time>2021-08-05T10:16:19.465Z</time>
      </trkpt>
      <trkpt lat="46.98996" lon="8.68256">
        <ele>547</ele>
        <time>2021-08-05T10:16:20.465Z</time>
      </trkpt>
      <trkpt lat="46.98996" lon="8.68258">
        <ele>547</ele>
        <time>2021-08-05T10:16:21.465Z</time>
      </trkpt>
      <trkpt lat="46.98997" lon="8.6826">
        <ele>548</ele>
        <time>2021-08-05T10:16:22.465Z</time>
      </trkpt>
      <trkpt lat="46.98997" lon="8.68261">
        <ele>548</ele>
        <time>2021-08-05T10:16:23.465Z</time>
      </trkpt>
      <trkpt lat="46.98996" lon="8.68264">
        <ele>548</ele>
        <time>2021-08-05T10:16:24.465Z</time>
      </trkpt>
      <trkpt lat="46.98996" lon="8.68266">
        <ele>548</ele>
        <time>2021-08-05T10:16:25.465Z</time>
      </trkpt>
      <trkpt lat="46.98997" lon="8.68268">
        <ele>548</ele>
        <time>2021-08-05T10:16:26.465Z</time>
      </trkpt>
      <trkpt lat="46.98997" lon="8.6827">
        <ele>548</ele>
        <time>2021-08-05T10:16:27.464Z</time>
      </trkpt>
      <trkpt lat="46.98997" lon="8.68271">
        <ele>548</ele>
        <time>2021-08-05T10:16:28.464Z</time>
      </trkpt>
      <trkpt lat="46.98998" lon="8.68273">
        <ele>548</ele>
        <time>2021-08-05T10:16:29.464Z</time>
      </trkpt>
      <trkpt lat="46.98999" lon="8.68274">
        <ele>548</ele>
        <time>2021-08-05T10:16:30.465Z</time>
      </trkpt>
      <trkpt lat="46.98998" lon="8.68275">
        <ele>548</ele>
        <time>2021-08-05T10:16:31.465Z</time>
      </trkpt>
      <trkpt lat="46.98999" lon="8.68276">
        <ele>548</ele>
        <time>2021-08-05T10:16:32.465Z</time>
      </trkpt>
      <trkpt lat="46.98999" lon="8.68277">
        <ele>547</ele>
        <time>2021-08-05T10:16:33.465Z</time>
      </trkpt>
      <trkpt lat="46.99" lon="8.68279">
        <ele>547</ele>
        <time>2021-08-05T10:16:34.464Z</time>
      </trkpt>
      <trkpt lat="46.99" lon="8.6828">
        <ele>547</ele>
        <time>2021-08-05T10:16:35.465Z</time>
      </trkpt>
      <trkpt lat="46.99" lon="8.68282">
        <ele>547</ele>
        <time>2021-08-05T10:16:36.465Z</time>
      </trkpt>
      <trkpt lat="46.99" lon="8.68284">
        <ele>546</ele>
        <time>2021-08-05T10:16:37.465Z</time>
      </trkpt>
      <trkpt lat="46.99001" lon="8.68286">
        <ele>546</ele>
        <time>2021-08-05T10:16:38.465Z</time>
      </trkpt>
      <trkpt lat="46.99002" lon="8.68287">
        <ele>546</ele>
        <time>2021-08-05T10:16:39.465Z</time>
      </trkpt>
      <trkpt lat="46.99003" lon="8.68289">
        <ele>546</ele>
        <time>2021-08-05T10:16:40.465Z</time>
      </trkpt>
      <trkpt lat="46.99002" lon="8.6829">
        <ele>546</ele>
        <time>2021-08-05T10:16:41.465Z</time>
      </trkpt>
      <trkpt lat="46.99003" lon="8.68292">
        <ele>546</ele>
        <time>2021-08-05T10:16:42.464Z</time>
      </trkpt>
      <trkpt lat="46.99003" lon="8.68294">
        <ele>546</ele>
        <time>2021-08-05T10:16:43.465Z</time>
      </trkpt>
      <trkpt lat="46.99003" lon="8.68296">
        <ele>546</ele>
        <time>2021-08-05T10:16:44.464Z</time>
      </trkpt>
      <trkpt lat="46.99003" lon="8.68297">
        <ele>547</ele>
        <time>2021-08-05T10:16:45.464Z</time>
      </trkpt>
      <trkpt lat="46.99004" lon="8.68298">
        <ele>547</ele>
        <time>2021-08-05T10:16:46.464Z</time>
      </trkpt>
      <trkpt lat="46.99004" lon="8.68299">
        <ele>547</ele>
        <time>2021-08-05T10:16:47.465Z</time>
      </trkpt>
      <trkpt lat="46.99004" lon="8.68301">
        <ele>548</ele>
        <time>2021-08-05T10:16:48.465Z</time>
      </trkpt>
      <trkpt lat="46.99004" lon="8.68303">
        <ele>548</ele>
        <time>2021-08-05T10:16:49.464Z</time>
      </trkpt>
      <trkpt lat="46.99003" lon="8.68305">
        <ele>549</ele>
        <time>2021-08-05T10:16:50.465Z</time>
      </trkpt>
      <trkpt lat="46.99004" lon="8.68307">
        <ele>549</ele>
        <time>2021-08-05T10:16:51.465Z</time>
      </trkpt>
      <trkpt lat="46.99004" lon="8.68308">
        <ele>550</ele>
        <time>2021-08-05T10:16:52.465Z</time>
      </trkpt>
      <trkpt lat="46.99004" lon="8.6831">
        <ele>550</ele>
        <time>2021-08-05T10:16:53.465Z</time>
      </trkpt>
      <trkpt lat="46.99004" lon="8.68312">
        <ele>550</ele>
        <time>2021-08-05T10:16:54.464Z</time>
      </trkpt>
      <trkpt lat="46.99004" lon="8.68313">
        <ele>550</ele>
        <time>2021-08-05T10:16:55.465Z</time>
      </trkpt>
      <trkpt lat="46.99003" lon="8.68314">
        <ele>550</ele>
        <time>2021-08-05T10:16:56.465Z</time>
      </trkpt>
      <trkpt lat="46.99004" lon="8.68316">
        <ele>550</ele>
        <time>2021-08-05T10:16:57.465Z</time>
      </trkpt>
      <trkpt lat="46.99004" lon="8.68317">
        <ele>549</ele>
        <time>2021-08-05T10:16:58.465Z</time>
      </trkpt>
      <trkpt lat="46.99004" lon="8.6832">
        <ele>549</ele>
        <time>2021-08-05T10:16:59.465Z</time>
      </trkpt>
      <trkpt lat="46.99004" lon="8.68321">
        <ele>549</ele>
        <time>2021-08-05T10:17:00.465Z</time>
      </trkpt>
      <trkpt lat="46.99005" lon="8.68324">
        <ele>549</ele>
        <time>2021-08-05T10:17:01.464Z</time>
      </trkpt>
      <trkpt lat="46.99005" lon="8.68325">
        <ele>549</ele>
        <time>2021-08-05T10:17:02.465Z</time>
      </trkpt>
      <trkpt lat="46.99006" lon="8.68326">
        <ele>549</ele>
        <time>2021-08-05T10:17:03.464Z</time>
      </trkpt>
      <trkpt lat="46.99006" lon="8.68328">
        <ele>548</ele>
        <time>2021-08-05T10:17:04.465Z</time>
      </trkpt>
      <trkpt lat="46.99007" lon="8.6833">
        <ele>548</ele>
        <time>2021-08-05T10:17:05.464Z</time>
      </trkpt>
      <trkpt lat="46.99007" lon="8.68332">
        <ele>548</ele>
        <time>2021-08-05T10:17:06.465Z</time>
      </trkpt>
      <trkpt lat="46.99007" lon="8.68333">
        <ele>547</ele>
        <time>2021-08-05T10:17:07.465Z</time>
      </trkpt>
      <trkpt lat="46.99007" lon="8.68335">
        <ele>547</ele>
        <time>2021-08-05T10:17:08.464Z</time>
      </trkpt>
      <trkpt lat="46.99008" lon="8.68336">
        <ele>548</ele>
        <time>2021-08-05T10:17:09.465Z</time>
      </trkpt>
      <trkpt lat="46.99008" lon="8.68338">
        <ele>548</ele>
        <time>2021-08-05T10:17:10.465Z</time>
      </trkpt>
      <trkpt lat="46.99008" lon="8.68339">
        <ele>549</ele>
        <time>2021-08-05T10:17:11.464Z</time>
      </trkpt>
      <trkpt lat="46.99008" lon="8.68341">
        <ele>549</ele>
        <time>2021-08-05T10:17:12.465Z</time>
      </trkpt>
      <trkpt lat="46.99009" lon="8.68343">
        <ele>550</ele>
        <time>2021-08-05T10:17:13.465Z</time>
      </trkpt>
      <trkpt lat="46.99009" lon="8.68344">
        <ele>550</ele>
        <time>2021-08-05T10:17:14.465Z</time>
      </trkpt>
      <trkpt lat="46.99009" lon="8.68346">
        <ele>550</ele>
        <time>2021-08-05T10:17:15.465Z</time>
      </trkpt>
      <trkpt lat="46.99009" lon="8.68348">
        <ele>551</ele>
        <time>2021-08-05T10:17:16.465Z</time>
      </trkpt>
      <trkpt lat="46.99009" lon="8.68349">
        <ele>551</ele>
        <time>2021-08-05T10:17:17.465Z</time>
      </trkpt>
      <trkpt lat="46.99009" lon="8.6835">
        <ele>551</ele>
        <time>2021-08-05T10:17:18.465Z</time>
      </trkpt>
      <trkpt lat="46.99009" lon="8.68352">
        <ele>552</ele>
        <time>2021-08-05T10:17:19.465Z</time>
      </trkpt>
      <trkpt lat="46.99009" lon="8.68353">
        <ele>552</ele>
        <time>2021-08-05T10:17:20.465Z</time>
      </trkpt>
      <trkpt lat="46.99009" lon="8.68355">
        <ele>553</ele>
        <time>2021-08-05T10:17:21.464Z</time>
      </trkpt>
      <trkpt lat="46.99009" lon="8.68357">
        <ele>553</ele>
        <time>2021-08-05T10:17:22.465Z</time>
      </trkpt>
      <trkpt lat="46.99009" lon="8.68358">
        <ele>553</ele>
        <time>2021-08-05T10:17:23.465Z</time>
      </trkpt>
      <trkpt lat="46.99009" lon="8.6836">
        <ele>553</ele>
        <time>2021-08-05T10:17:24.465Z</time>
      </trkpt>
      <trkpt lat="46.99009" lon="8.68361">
        <ele>554</ele>
        <time>2021-08-05T10:17:25.465Z</time>
      </trkpt>
      <trkpt lat="46.9901" lon="8.68363">
        <ele>554</ele>
        <time>2021-08-05T10:17:26.465Z</time>
      </trkpt>
      <trkpt lat="46.9901" lon="8.68364">
        <ele>554</ele>
        <time>2021-08-05T10:17:27.464Z</time>
      </trkpt>
      <trkpt lat="46.99011" lon="8.68366">
        <ele>553</ele>
        <time>2021-08-05T10:17:28.465Z</time>
      </trkpt>
      <trkpt lat="46.99011" lon="8.68368">
        <ele>553</ele>
        <time>2021-08-05T10:17:29.464Z</time>
      </trkpt>
      <trkpt lat="46.99011" lon="8.68369">
        <ele>553</ele>
        <time>2021-08-05T10:17:30.464Z</time>
      </trkpt>
      <trkpt lat="46.99011" lon="8.68372">
        <ele>553</ele>
        <time>2021-08-05T10:17:31.465Z</time>
      </trkpt>
      <trkpt lat="46.99012" lon="8.68374">
        <ele>552</ele>
        <time>2021-08-05T10:17:32.464Z</time>
      </trkpt>
      <trkpt lat="46.99013" lon="8.68376">
        <ele>552</ele>
        <time>2021-08-05T10:17:33.465Z</time>
      </trkpt>
      <trkpt lat="46.99013" lon="8.68378">
        <ele>552</ele>
        <time>2021-08-05T10:17:34.464Z</time>
      </trkpt>
      <trkpt lat="46.99013" lon="8.6838">
        <ele>552</ele>
        <time>2021-08-05T10:17:35.464Z</time>
      </trkpt>
      <trkpt lat="46.99013" lon="8.68381">
        <ele>552</ele>
        <time>2021-08-05T10:17:36.465Z</time>
      </trkpt>
      <trkpt lat="46.99013" lon="8.68382">
        <ele>552</ele>
        <time>2021-08-05T10:17:37.465Z</time>
      </trkpt>
      <trkpt lat="46.99013" lon="8.68384">
        <ele>553</ele>
        <time>2021-08-05T10:17:38.465Z</time>
      </trkpt>
      <trkpt lat="46.99012" lon="8.68386">
        <ele>553</ele>
        <time>2021-08-05T10:17:39.464Z</time>
      </trkpt>
      <trkpt lat="46.99012" lon="8.68387">
        <ele>553</ele>
        <time>2021-08-05T10:17:40.465Z</time>
      </trkpt>
      <trkpt lat="46.99012" lon="8.68388">
        <ele>553</ele>
        <time>2021-08-05T10:17:41.464Z</time>
      </trkpt>
      <trkpt lat="46.99012" lon="8.6839">
        <ele>553</ele>
        <time>2021-08-05T10:17:42.464Z</time>
      </trkpt>
      <trkpt lat="46.99013" lon="8.68392">
        <ele>553</ele>
        <time>2021-08-05T10:17:43.465Z</time>
      </trkpt>
      <trkpt lat="46.99013" lon="8.68394">
        <ele>553</ele>
        <time>2021-08-05T10:17:44.464Z</time>
      </trkpt>
      <trkpt lat="46.99013" lon="8.68395">
        <ele>553</ele>
        <time>2021-08-05T10:17:45.465Z</time>
      </trkpt>
      <trkpt lat="46.99013" lon="8.68397">
        <ele>553</ele>
        <time>2021-08-05T10:17:46.465Z</time>
      </trkpt>
      <trkpt lat="46.99013" lon="8.68399">
        <ele>552</ele>
        <time>2021-08-05T10:17:47.465Z</time>
      </trkpt>
      <trkpt lat="46.99012" lon="8.68401">
        <ele>552</ele>
        <time>2021-08-05T10:17:48.465Z</time>
      </trkpt>
      <trkpt lat="46.99012" lon="8.68402">
        <ele>551</ele>
        <time>2021-08-05T10:17:49.465Z</time>
      </trkpt>
      <trkpt lat="46.99011" lon="8.68404">
        <ele>551</ele>
        <time>2021-08-05T10:17:50.465Z</time>
      </trkpt>
      <trkpt lat="46.99011" lon="8.68405">
        <ele>551</ele>
        <time>2021-08-05T10:17:51.465Z</time>
      </trkpt>
      <trkpt lat="46.99012" lon="8.68408">
        <ele>551</ele>
        <time>2021-08-05T10:17:52.465Z</time>
      </trkpt>
      <trkpt lat="46.99012" lon="8.6841">
        <ele>551</ele>
        <time>2021-08-05T10:17:53.464Z</time>
      </trkpt>
      <trkpt lat="46.99012" lon="8.68412">
        <ele>550</ele>
        <time>2021-08-05T10:17:54.465Z</time>
      </trkpt>
      <trkpt lat="46.99011" lon="8.68413">
        <ele>550</ele>
        <time>2021-08-05T10:17:55.465Z</time>
      </trkpt>
      <trkpt lat="46.9901" lon="8.68415">
        <ele>550</ele>
        <time>2021-08-05T10:17:56.465Z</time>
      </trkpt>
      <trkpt lat="46.99009" lon="8.68417">
        <ele>550</ele>
        <time>2021-08-05T10:17:57.465Z</time>
      </trkpt>
      <trkpt lat="46.99009" lon="8.68418">
        <ele>549</ele>
        <time>2021-08-05T10:17:58.465Z</time>
      </trkpt>
      <trkpt lat="46.99008" lon="8.6842">
        <ele>549</ele>
        <time>2021-08-05T10:17:59.464Z</time>
      </trkpt>
      <trkpt lat="46.99008" lon="8.68421">
        <ele>549</ele>
        <time>2021-08-05T10:18:00.465Z</time>
      </trkpt>
      <trkpt lat="46.99007" lon="8.68423">
        <ele>549</ele>
        <time>2021-08-05T10:18:01.465Z</time>
      </trkpt>
      <trkpt lat="46.99007" lon="8.68424">
        <ele>549</ele>
        <time>2021-08-05T10:18:02.465Z</time>
      </trkpt>
      <trkpt lat="46.99006" lon="8.68426">
        <ele>549</ele>
        <time>2021-08-05T10:18:03.465Z</time>
      </trkpt>
      <trkpt lat="46.99006" lon="8.68427">
        <ele>548</ele>
        <time>2021-08-05T10:18:04.465Z</time>
      </trkpt>
      <trkpt lat="46.99005" lon="8.68429">
        <ele>547</ele>
        <time>2021-08-05T10:18:05.465Z</time>
      </trkpt>
      <trkpt lat="46.99005" lon="8.68431">
        <ele>546</ele>
        <time>2021-08-05T10:18:06.465Z</time>
      </trkpt>
      <trkpt lat="46.99005" lon="8.68433">
        <ele>546</ele>
        <time>2021-08-05T10:18:07.465Z</time>
      </trkpt>
      <trkpt lat="46.99004" lon="8.68435">
        <ele>545</ele>
        <time>2021-08-05T10:18:08.465Z</time>
      </trkpt>
      <trkpt lat="46.99003" lon="8.68436">
        <ele>544</ele>
        <time>2021-08-05T10:18:09.464Z</time>
      </trkpt>
      <trkpt lat="46.99002" lon="8.68438">
        <ele>544</ele>
        <time>2021-08-05T10:18:10.465Z</time>
      </trkpt>
      <trkpt lat="46.99001" lon="8.68439">
        <ele>544</ele>
        <time>2021-08-05T10:18:11.465Z</time>
      </trkpt>
      <trkpt lat="46.99001" lon="8.68441">
        <ele>544</ele>
        <time>2021-08-05T10:18:12.465Z</time>
      </trkpt>
      <trkpt lat="46.99" lon="8.68443">
        <ele>544</ele>
        <time>2021-08-05T10:18:13.465Z</time>
      </trkpt>
      <trkpt lat="46.99001" lon="8.68444">
        <ele>544</ele>
        <time>2021-08-05T10:18:14.465Z</time>
      </trkpt>
      <trkpt lat="46.99001" lon="8.68447">
        <ele>544</ele>
        <time>2021-08-05T10:18:15.465Z</time>
      </trkpt>
      <trkpt lat="46.99001" lon="8.68448">
        <ele>544</ele>
        <time>2021-08-05T10:18:16.464Z</time>
      </trkpt>
      <trkpt lat="46.99" lon="8.6845">
        <ele>544</ele>
        <time>2021-08-05T10:18:17.465Z</time>
      </trkpt>
      <trkpt lat="46.99" lon="8.6845">
        <ele>545</ele>
        <time>2021-08-05T10:18:18.465Z</time>
      </trkpt>
      <trkpt lat="46.98999" lon="8.68451">
        <ele>545</ele>
        <time>2021-08-05T10:18:19.464Z</time>
      </trkpt>
      <trkpt lat="46.98998" lon="8.68453">
        <ele>545</ele>
        <time>2021-08-05T10:18:20.464Z</time>
      </trkpt>
      <trkpt lat="46.98998" lon="8.68454">
        <ele>545</ele>
        <time>2021-08-05T10:18:21.465Z</time>
      </trkpt>
      <trkpt lat="46.98997" lon="8.68455">
        <ele>546</ele>
        <time>2021-08-05T10:18:22.464Z</time>
      </trkpt>
      <trkpt lat="46.98997" lon="8.68456">
        <ele>546</ele>
        <time>2021-08-05T10:18:23.465Z</time>
      </trkpt>
      <trkpt lat="46.98996" lon="8.68457">
        <ele>547</ele>
        <time>2021-08-05T10:18:24.464Z</time>
      </trkpt>
      <trkpt lat="46.98996" lon="8.68459">
        <ele>547</ele>
        <time>2021-08-05T10:18:25.465Z</time>
      </trkpt>
      <trkpt lat="46.98995" lon="8.6846">
        <ele>548</ele>
        <time>2021-08-05T10:18:26.465Z</time>
      </trkpt>
      <trkpt lat="46.98994" lon="8.68462">
        <ele>548</ele>
        <time>2021-08-05T10:18:27.465Z</time>
      </trkpt>
      <trkpt lat="46.98994" lon="8.68464">
        <ele>549</ele>
        <time>2021-08-05T10:18:28.464Z</time>
      </trkpt>
      <trkpt lat="46.98994" lon="8.68466">
        <ele>549</ele>
        <time>2021-08-05T10:18:29.465Z</time>
      </trkpt>
      <trkpt lat="46.98994" lon="8.68467">
        <ele>549</ele>
        <time>2021-08-05T10:18:30.464Z</time>
      </trkpt>
      <trkpt lat="46.98994" lon="8.68469">
        <ele>549</ele>
        <time>2021-08-05T10:18:31.464Z</time>
      </trkpt>
      <trkpt lat="46.98993" lon="8.6847">
        <ele>549</ele>
        <time>2021-08-05T10:18:32.465Z</time>
      </trkpt>
      <trkpt lat="46.98993" lon="8.68472">
        <ele>548</ele>
        <time>2021-08-05T10:18:33.465Z</time>
      </trkpt>
      <trkpt lat="46.98992" lon="8.68473">
        <ele>548</ele>
        <time>2021-08-05T10:18:34.464Z</time>
      </trkpt>
      <trkpt lat="46.98991" lon="8.68474">
        <ele>548</ele>
        <time>2021-08-05T10:18:35.464Z</time>
      </trkpt>
      <trkpt lat="46.9899" lon="8.68475">
        <ele>548</ele>
        <time>2021-08-05T10:18:36.465Z</time>
      </trkpt>
      <trkpt lat="46.9899" lon="8.68476">
        <ele>548</ele>
        <time>2021-08-05T10:18:37.465Z</time>
      </trkpt>
      <trkpt lat="46.98989" lon="8.68478">
        <ele>548</ele>
        <time>2021-08-05T10:18:38.465Z</time>
      </trkpt>
      <trkpt lat="46.98989" lon="8.68479">
        <ele>548</ele>
        <time>2021-08-05T10:18:39.465Z</time>
      </trkpt>
      <trkpt lat="46.98988" lon="8.68481">
        <ele>548</ele>
        <time>2021-08-05T10:18:40.464Z</time>
      </trkpt>
      <trkpt lat="46.98988" lon="8.68482">
        <ele>549</ele>
        <time>2021-08-05T10:18:41.465Z</time>
      </trkpt>
      <trkpt lat="46.98987" lon="8.68483">
        <ele>549</ele>
        <time>2021-08-05T10:18:42.465Z</time>
      </trkpt>
      <trkpt lat="46.98986" lon="8.68485">
        <ele>549</ele>
        <time>2021-08-05T10:18:43.465Z</time>
      </trkpt>
      <trkpt lat="46.98985" lon="8.68486">
        <ele>550</ele>
        <time>2021-08-05T10:18:44.465Z</time>
      </trkpt>
      <trkpt lat="46.98984" lon="8.68487">
        <ele>550</ele>
        <time>2021-08-05T10:18:45.465Z</time>
      </trkpt>
      <trkpt lat="46.98984" lon="8.68489">
        <ele>551</ele>
        <time>2021-08-05T10:18:46.464Z</time>
      </trkpt>
      <trkpt lat="46.98983" lon="8.68491">
        <ele>551</ele>
        <time>2021-08-05T10:18:47.465Z</time>
      </trkpt>
      <trkpt lat="46.98983" lon="8.68492">
        <ele>552</ele>
        <time>2021-08-05T10:18:48.465Z</time>
      </trkpt>
      <trkpt lat="46.98983" lon="8.68494">
        <ele>552</ele>
        <time>2021-08-05T10:18:49.464Z</time>
      </trkpt>
      <trkpt lat="46.98982" lon="8.68496">
        <ele>553</ele>
        <time>2021-08-05T10:18:50.465Z</time>
      </trkpt>
      <trkpt lat="46.98982" lon="8.68497">
        <ele>553</ele>
        <time>2021-08-05T10:18:51.464Z</time>
      </trkpt>
      <trkpt lat="46.98982" lon="8.68499">
        <ele>554</ele>
        <time>2021-08-05T10:18:52.465Z</time>
      </trkpt>
      <trkpt lat="46.98982" lon="8.68501">
        <ele>555</ele>
        <time>2021-08-05T10:18:53.464Z</time>
      </trkpt>
      <trkpt lat="46.98981" lon="8.68502">
        <ele>555</ele>
        <time>2021-08-05T10:18:54.465Z</time>
      </trkpt>
      <trkpt lat="46.98981" lon="8.68504">
        <ele>556</ele>
        <time>2021-08-05T10:18:55.465Z</time>
      </trkpt>
      <trkpt lat="46.9898" lon="8.68505">
        <ele>556</ele>
        <time>2021-08-05T10:18:56.464Z</time>
      </trkpt>
      <trkpt lat="46.9898" lon="8.68507">
        <ele>556</ele>
        <time>2021-08-05T10:18:57.464Z</time>
      </trkpt>
      <trkpt lat="46.9898" lon="8.68509">
        <ele>556</ele>
        <time>2021-08-05T10:18:58.465Z</time>
      </trkpt>
      <trkpt lat="46.9898" lon="8.68511">
        <ele>556</ele>
        <time>2021-08-05T10:18:59.465Z</time>
      </trkpt>
      <trkpt lat="46.98979" lon="8.68513">
        <ele>556</ele>
        <time>2021-08-05T10:19:00.465Z</time>
      </trkpt>
      <trkpt lat="46.98978" lon="8.68514">
        <ele>556</ele>
        <time>2021-08-05T10:19:01.465Z</time>
      </trkpt>
      <trkpt lat="46.98978" lon="8.68517">
        <ele>557</ele>
        <time>2021-08-05T10:19:02.465Z</time>
      </trkpt>
      <trkpt lat="46.98978" lon="8.68518">
        <ele>556</ele>
        <time>2021-08-05T10:19:03.465Z</time>
      </trkpt>
      <trkpt lat="46.98978" lon="8.6852">
        <ele>556</ele>
        <time>2021-08-05T10:19:04.465Z</time>
      </trkpt>
      <trkpt lat="46.98978" lon="8.68522">
        <ele>556</ele>
        <time>2021-08-05T10:19:05.465Z</time>
      </trkpt>
      <trkpt lat="46.98979" lon="8.68524">
        <ele>556</ele>
        <time>2021-08-05T10:19:06.464Z</time>
      </trkpt>
      <trkpt lat="46.98979" lon="8.68527">
        <ele>556</ele>
        <time>2021-08-05T10:19:07.465Z</time>
      </trkpt>
      <trkpt lat="46.98979" lon="8.68529">
        <ele>555</ele>
        <time>2021-08-05T10:19:08.464Z</time>
      </trkpt>
      <trkpt lat="46.98979" lon="8.68532">
        <ele>555</ele>
        <time>2021-08-05T10:19:09.465Z</time>
      </trkpt>
      <trkpt lat="46.98979" lon="8.68535">
        <ele>555</ele>
        <time>2021-08-05T10:19:10.465Z</time>
      </trkpt>
      <trkpt lat="46.98979" lon="8.68537">
        <ele>555</ele>
        <time>2021-08-05T10:19:11.465Z</time>
      </trkpt>
      <trkpt lat="46.98979" lon="8.68539">
        <ele>556</ele>
        <time>2021-08-05T10:19:12.464Z</time>
      </trkpt>
      <trkpt lat="46.9898" lon="8.68541">
        <ele>556</ele>
        <time>2021-08-05T10:19:13.464Z</time>
      </trkpt>
      <trkpt lat="46.98979" lon="8.68543">
        <ele>556</ele>
        <time>2021-08-05T10:19:14.465Z</time>
      </trkpt>
      <trkpt lat="46.9898" lon="8.68546">
        <ele>556</ele>
        <time>2021-08-05T10:19:15.465Z</time>
      </trkpt>
      <trkpt lat="46.9898" lon="8.68548">
        <ele>556</ele>
        <time>2021-08-05T10:19:16.465Z</time>
      </trkpt>
      <trkpt lat="46.98981" lon="8.6855">
        <ele>557</ele>
        <time>2021-08-05T10:19:17.465Z</time>
      </trkpt>
      <trkpt lat="46.98981" lon="8.68551">
        <ele>556</ele>
        <time>2021-08-05T10:19:18.465Z</time>
      </trkpt>
      <trkpt lat="46.98981" lon="8.68554">
        <ele>556</ele>
        <time>2021-08-05T10:19:19.465Z</time>
      </trkpt>
      <trkpt lat="46.98981" lon="8.68556">
        <ele>556</ele>
        <time>2021-08-05T10:19:20.465Z</time>
      </trkpt>
      <trkpt lat="46.98981" lon="8.68557">
        <ele>556</ele>
        <time>2021-08-05T10:19:21.464Z</time>
      </trkpt>
      <trkpt lat="46.98982" lon="8.68559">
        <ele>556</ele>
        <time>2021-08-05T10:19:22.465Z</time>
      </trkpt>
      <trkpt lat="46.98982" lon="8.6856">
        <ele>556</ele>
        <time>2021-08-05T10:19:23.465Z</time>
      </trkpt>
      <trkpt lat="46.98983" lon="8.68562">
        <ele>556</ele>
        <time>2021-08-05T10:19:24.464Z</time>
      </trkpt>
      <trkpt lat="46.98983" lon="8.68564">
        <ele>556</ele>
        <time>2021-08-05T10:19:25.465Z</time>
      </trkpt>
      <trkpt lat="46.98983" lon="8.68566">
        <ele>556</ele>
        <time>2021-08-05T10:19:26.465Z</time>
      </trkpt>
      <trkpt lat="46.98984" lon="8.68567">
        <ele>556</ele>
        <time>2021-08-05T10:19:27.465Z</time>
      </trkpt>
      <trkpt lat="46.98984" lon="8.68569">
        <ele>557</ele>
        <time>2021-08-05T10:19:28.465Z</time>
      </trkpt>
      <trkpt lat="46.98985" lon="8.68572">
        <ele>557</ele>
        <time>2021-08-05T10:19:29.465Z</time>
      </trkpt>
      <trkpt lat="46.98985" lon="8.68574">
        <ele>557</ele>
        <time>2021-08-05T10:19:30.465Z</time>
      </trkpt>
      <trkpt lat="46.98985" lon="8.68576">
        <ele>557</ele>
        <time>2021-08-05T10:19:31.464Z</time>
      </trkpt>
      <trkpt lat="46.98986" lon="8.68579">
        <ele>557</ele>
        <time>2021-08-05T10:19:32.465Z</time>
      </trkpt>
      <trkpt lat="46.98987" lon="8.68581">
        <ele>557</ele>
        <time>2021-08-05T10:19:33.464Z</time>
      </trkpt>
      <trkpt lat="46.98988" lon="8.68583">
        <ele>557</ele>
        <time>2021-08-05T10:19:34.465Z</time>
      </trkpt>
      <trkpt lat="46.98989" lon="8.68585">
        <ele>558</ele>
        <time>2021-08-05T10:19:35.465Z</time>
      </trkpt>
      <trkpt lat="46.9899" lon="8.68587">
        <ele>558</ele>
        <time>2021-08-05T10:19:36.464Z</time>
      </trkpt>
      <trkpt lat="46.9899" lon="8.68589">
        <ele>558</ele>
        <time>2021-08-05T10:19:37.464Z</time>
      </trkpt>
      <trkpt lat="46.98991" lon="8.68591">
        <ele>557</ele>
        <time>2021-08-05T10:19:38.464Z</time>
      </trkpt>
      <trkpt lat="46.98993" lon="8.68592">
        <ele>557</ele>
        <time>2021-08-05T10:19:39.465Z</time>
      </trkpt>
      <trkpt lat="46.98993" lon="8.68593">
        <ele>557</ele>
        <time>2021-08-05T10:19:40.465Z</time>
      </trkpt>
      <trkpt lat="46.98994" lon="8.68596">
        <ele>556</ele>
        <time>2021-08-05T10:19:41.464Z</time>
      </trkpt>
      <trkpt lat="46.98994" lon="8.68598">
        <ele>556</ele>
        <time>2021-08-05T10:19:42.465Z</time>
      </trkpt>
      <trkpt lat="46.98995" lon="8.686">
        <ele>556</ele>
        <time>2021-08-05T10:19:43.465Z</time>
      </trkpt>
      <trkpt lat="46.98996" lon="8.68601">
        <ele>556</ele>
        <time>2021-08-05T10:19:44.465Z</time>
      </trkpt>
      <trkpt lat="46.98997" lon="8.68602">
        <ele>556</ele>
        <time>2021-08-05T10:19:45.464Z</time>
      </trkpt>
      <trkpt lat="46.98998" lon="8.68603">
        <ele>556</ele>
        <time>2021-08-05T10:19:46.465Z</time>
      </trkpt>
      <trkpt lat="46.98999" lon="8.68604">
        <ele>556</ele>
        <time>2021-08-05T10:19:47.465Z</time>
      </trkpt>
      <trkpt lat="46.99" lon="8.68603">
        <ele>556</ele>
        <time>2021-08-05T10:19:48.465Z</time>
      </trkpt>
      <trkpt lat="46.99001" lon="8.68603">
        <ele>556</ele>
        <time>2021-08-05T10:19:49.465Z</time>
      </trkpt>
      <trkpt lat="46.99002" lon="8.68603">
        <ele>556</ele>
        <time>2021-08-05T10:19:50.464Z</time>
      </trkpt>
      <trkpt lat="46.99002" lon="8.68603">
        <ele>555</ele>
        <time>2021-08-05T10:19:51.465Z</time>
      </trkpt>
      <trkpt lat="46.99001" lon="8.68604">
        <ele>555</ele>
        <time>2021-08-05T10:19:52.465Z</time>
      </trkpt>
      <trkpt lat="46.99" lon="8.68607">
        <ele>554</ele>
        <time>2021-08-05T10:19:53.466Z</time>
      </trkpt>
      <trkpt lat="46.99" lon="8.68607">
        <ele>554</ele>
        <time>2021-08-05T10:19:54.465Z</time>
      </trkpt>
      <trkpt lat="46.99001" lon="8.68606">
        <ele>554</ele>
        <time>2021-08-05T10:19:55.466Z</time>
      </trkpt>
      <trkpt lat="46.99002" lon="8.68607">
        <ele>554</ele>
        <time>2021-08-05T10:19:56.465Z</time>
      </trkpt>
      <trkpt lat="46.99003" lon="8.68606">
        <ele>554</ele>
        <time>2021-08-05T10:19:57.466Z</time>
      </trkpt>
      <trkpt lat="46.99003" lon="8.68607">
        <ele>554</ele>
        <time>2021-08-05T10:19:58.466Z</time>
      </trkpt>
      <trkpt lat="46.99003" lon="8.68611">
        <ele>557</ele>
        <time>2021-08-05T10:19:59.467Z</time>
      </trkpt>
      <trkpt lat="46.99003" lon="8.68611">
        <ele>557</ele>
        <time>2021-08-05T10:20:00.467Z</time>
      </trkpt>
      <trkpt lat="46.99002" lon="8.68611">
        <ele>558</ele>
        <time>2021-08-05T10:20:01.468Z</time>
      </trkpt>
      <trkpt lat="46.99002" lon="8.6861">
        <ele>558</ele>
        <time>2021-08-05T10:20:02.467Z</time>
      </trkpt>
      <trkpt lat="46.99002" lon="8.68611">
        <ele>558</ele>
        <time>2021-08-05T10:20:03.467Z</time>
      </trkpt>
      <trkpt lat="46.99003" lon="8.68613">
        <ele>558</ele>
        <time>2021-08-05T10:20:04.467Z</time>
      </trkpt>
      <trkpt lat="46.99003" lon="8.68614">
        <ele>558</ele>
        <time>2021-08-05T10:20:05.467Z</time>
      </trkpt>
      <trkpt lat="46.99003" lon="8.68616">
        <ele>558</ele>
        <time>2021-08-05T10:20:06.467Z</time>
      </trkpt>
      <trkpt lat="46.99003" lon="8.68618">
        <ele>558</ele>
        <time>2021-08-05T10:20:07.467Z</time>
      </trkpt>
      <trkpt lat="46.99004" lon="8.6862">
        <ele>559</ele>
        <time>2021-08-05T10:20:08.468Z</time>
      </trkpt>
      <trkpt lat="46.99004" lon="8.68621">
        <ele>559</ele>
        <time>2021-08-05T10:20:09.467Z</time>
      </trkpt>
      <trkpt lat="46.99005" lon="8.68623">
        <ele>560</ele>
        <time>2021-08-05T10:20:10.467Z</time>
      </trkpt>
      <trkpt lat="46.99005" lon="8.68624">
        <ele>560</ele>
        <time>2021-08-05T10:20:11.467Z</time>
      </trkpt>
      <trkpt lat="46.99006" lon="8.68625">
        <ele>561</ele>
        <time>2021-08-05T10:20:12.467Z</time>
      </trkpt>
      <trkpt lat="46.99007" lon="8.68627">
        <ele>562</ele>
        <time>2021-08-05T10:20:13.467Z</time>
      </trkpt>
      <trkpt lat="46.99008" lon="8.68629">
        <ele>563</ele>
        <time>2021-08-05T10:20:14.467Z</time>
      </trkpt>
      <trkpt lat="46.99008" lon="8.68631">
        <ele>564</ele>
        <time>2021-08-05T10:20:15.467Z</time>
      </trkpt>
      <trkpt lat="46.99009" lon="8.68634">
        <ele>565</ele>
        <time>2021-08-05T10:20:16.467Z</time>
      </trkpt>
      <trkpt lat="46.9901" lon="8.68635">
        <ele>566</ele>
        <time>2021-08-05T10:20:17.467Z</time>
      </trkpt>
      <trkpt lat="46.99011" lon="8.68637">
        <ele>566</ele>
        <time>2021-08-05T10:20:18.467Z</time>
      </trkpt>
      <trkpt lat="46.99012" lon="8.68639">
        <ele>567</ele>
        <time>2021-08-05T10:20:19.467Z</time>
      </trkpt>
      <trkpt lat="46.99013" lon="8.6864">
        <ele>568</ele>
        <time>2021-08-05T10:20:20.468Z</time>
      </trkpt>
      <trkpt lat="46.99013" lon="8.68642">
        <ele>569</ele>
        <time>2021-08-05T10:20:21.467Z</time>
      </trkpt>
      <trkpt lat="46.99013" lon="8.68645">
        <ele>570</ele>
        <time>2021-08-05T10:20:22.467Z</time>
      </trkpt>
      <trkpt lat="46.99014" lon="8.68647">
        <ele>570</ele>
        <time>2021-08-05T10:20:23.467Z</time>
      </trkpt>
      <trkpt lat="46.99014" lon="8.68649">
        <ele>571</ele>
        <time>2021-08-05T10:20:24.467Z</time>
      </trkpt>
      <trkpt lat="46.99015" lon="8.6865">
        <ele>572</ele>
        <time>2021-08-05T10:20:25.467Z</time>
      </trkpt>
      <trkpt lat="46.99015" lon="8.68652">
        <ele>573</ele>
        <time>2021-08-05T10:20:26.468Z</time>
      </trkpt>
      <trkpt lat="46.99016" lon="8.68654">
        <ele>574</ele>
        <time>2021-08-05T10:20:27.467Z</time>
      </trkpt>
      <trkpt lat="46.99015" lon="8.68655">
        <ele>575</ele>
        <time>2021-08-05T10:20:28.467Z</time>
      </trkpt>
      <trkpt lat="46.99015" lon="8.68656">
        <ele>575</ele>
        <time>2021-08-05T10:20:29.467Z</time>
      </trkpt>
      <trkpt lat="46.99014" lon="8.68652">
        <ele>576</ele>
        <time>2021-08-05T10:20:30.468Z</time>
      </trkpt>
      <trkpt lat="46.99014" lon="8.68649">
        <ele>576</ele>
        <time>2021-08-05T10:20:31.467Z</time>
      </trkpt>
      <trkpt lat="46.99014" lon="8.68648">
        <ele>576</ele>
        <time>2021-08-05T10:20:32.467Z</time>
      </trkpt>
      <trkpt lat="46.99014" lon="8.68649">
        <ele>576</ele>
        <time>2021-08-05T10:20:33.467Z</time>
      </trkpt>
      <trkpt lat="46.99015" lon="8.6865">
        <ele>576</ele>
        <time>2021-08-05T10:20:34.468Z</time>
      </trkpt>
      <trkpt lat="46.99016" lon="8.68651">
        <ele>575</ele>
        <time>2021-08-05T10:20:35.467Z</time>
      </trkpt>
      <trkpt lat="46.99017" lon="8.68653">
        <ele>574</ele>
        <time>2021-08-05T10:20:36.467Z</time>
      </trkpt>
      <trkpt lat="46.99017" lon="8.68654">
        <ele>574</ele>
        <time>2021-08-05T10:20:37.468Z</time>
      </trkpt>
      <trkpt lat="46.99018" lon="8.68655">
        <ele>573</ele>
        <time>2021-08-05T10:20:38.467Z</time>
      </trkpt>
      <trkpt lat="46.99019" lon="8.68657">
        <ele>573</ele>
        <time>2021-08-05T10:20:39.467Z</time>
      </trkpt>
      <trkpt lat="46.99019" lon="8.68659">
        <ele>573</ele>
        <time>2021-08-05T10:20:40.468Z</time>
      </trkpt>
      <trkpt lat="46.9902" lon="8.68661">
        <ele>572</ele>
        <time>2021-08-05T10:20:41.467Z</time>
      </trkpt>
      <trkpt lat="46.9902" lon="8.68663">
        <ele>572</ele>
        <time>2021-08-05T10:20:42.467Z</time>
      </trkpt>
      <trkpt lat="46.99021" lon="8.68665">
        <ele>571</ele>
        <time>2021-08-05T10:20:43.467Z</time>
      </trkpt>
      <trkpt lat="46.99022" lon="8.68666">
        <ele>571</ele>
        <time>2021-08-05T10:20:44.467Z</time>
      </trkpt>
      <trkpt lat="46.99022" lon="8.68666">
        <ele>571</ele>
        <time>2021-08-05T10:20:45.467Z</time>
      </trkpt>
      <trkpt lat="46.99023" lon="8.68667">
        <ele>570</ele>
        <time>2021-08-05T10:20:46.467Z</time>
      </trkpt>
      <trkpt lat="46.99024" lon="8.68668">
        <ele>570</ele>
        <time>2021-08-05T10:20:47.467Z</time>
      </trkpt>
      <trkpt lat="46.99025" lon="8.68669">
        <ele>569</ele>
        <time>2021-08-05T10:20:48.467Z</time>
      </trkpt>
      <trkpt lat="46.99026" lon="8.68671">
        <ele>569</ele>
        <time>2021-08-05T10:20:49.467Z</time>
      </trkpt>
      <trkpt lat="46.99027" lon="8.68673">
        <ele>568</ele>
        <time>2021-08-05T10:20:50.467Z</time>
      </trkpt>
      <trkpt lat="46.99028" lon="8.68675">
        <ele>568</ele>
        <time>2021-08-05T10:20:51.467Z</time>
      </trkpt>
      <trkpt lat="46.99028" lon="8.68677">
        <ele>568</ele>
        <time>2021-08-05T10:20:52.468Z</time>
      </trkpt>
      <trkpt lat="46.99029" lon="8.6868">
        <ele>568</ele>
        <time>2021-08-05T10:20:53.468Z</time>
      </trkpt>
      <trkpt lat="46.99029" lon="8.68681">
        <ele>568</ele>
        <time>2021-08-05T10:20:54.467Z</time>
      </trkpt>
      <trkpt lat="46.9903" lon="8.68683">
        <ele>568</ele>
        <time>2021-08-05T10:20:55.467Z</time>
      </trkpt>
      <trkpt lat="46.99031" lon="8.68686">
        <ele>568</ele>
        <time>2021-08-05T10:20:56.468Z</time>
      </trkpt>
      <trkpt lat="46.99032" lon="8.68689">
        <ele>567</ele>
        <time>2021-08-05T10:20:57.468Z</time>
      </trkpt>
      <trkpt lat="46.99032" lon="8.68691">
        <ele>567</ele>
        <time>2021-08-05T10:20:58.468Z</time>
      </trkpt>
      <trkpt lat="46.99033" lon="8.68693">
        <ele>567</ele>
        <time>2021-08-05T10:20:59.467Z</time>
      </trkpt>
      <trkpt lat="46.99034" lon="8.68695">
        <ele>567</ele>
        <time>2021-08-05T10:21:00.467Z</time>
      </trkpt>
      <trkpt lat="46.99034" lon="8.68696">
        <ele>566</ele>
        <time>2021-08-05T10:21:01.467Z</time>
      </trkpt>
      <trkpt lat="46.99035" lon="8.68697">
        <ele>566</ele>
        <time>2021-08-05T10:21:02.468Z</time>
      </trkpt>
      <trkpt lat="46.99035" lon="8.68699">
        <ele>566</ele>
        <time>2021-08-05T10:21:03.467Z</time>
      </trkpt>
      <trkpt lat="46.99036" lon="8.68699">
        <ele>566</ele>
        <time>2021-08-05T10:21:04.467Z</time>
      </trkpt>
      <trkpt lat="46.99036" lon="8.68701">
        <ele>566</ele>
        <time>2021-08-05T10:21:05.467Z</time>
      </trkpt>
      <trkpt lat="46.99037" lon="8.68702">
        <ele>566</ele>
        <time>2021-08-05T10:21:06.468Z</time>
      </trkpt>
      <trkpt lat="46.99037" lon="8.68704">
        <ele>566</ele>
        <time>2021-08-05T10:21:07.467Z</time>
      </trkpt>
      <trkpt lat="46.99038" lon="8.68706">
        <ele>566</ele>
        <time>2021-08-05T10:21:08.467Z</time>
      </trkpt>
      <trkpt lat="46.99038" lon="8.68708">
        <ele>565</ele>
        <time>2021-08-05T10:21:09.467Z</time>
      </trkpt>
      <trkpt lat="46.99038" lon="8.68708">
        <ele>565</ele>
        <time>2021-08-05T10:21:10.467Z</time>
      </trkpt>
      <trkpt lat="46.99037" lon="8.68709">
        <ele>565</ele>
        <time>2021-08-05T10:21:11.467Z</time>
      </trkpt>
      <trkpt lat="46.99038" lon="8.68712">
        <ele>565</ele>
        <time>2021-08-05T10:21:12.467Z</time>
      </trkpt>
      <trkpt lat="46.99038" lon="8.68714">
        <ele>565</ele>
        <time>2021-08-05T10:21:13.467Z</time>
      </trkpt>
      <trkpt lat="46.99038" lon="8.68717">
        <ele>565</ele>
        <time>2021-08-05T10:21:14.467Z</time>
      </trkpt>
      <trkpt lat="46.99039" lon="8.6872">
        <ele>566</ele>
        <time>2021-08-05T10:21:15.467Z</time>
      </trkpt>
      <trkpt lat="46.9904" lon="8.68722">
        <ele>566</ele>
        <time>2021-08-05T10:21:16.468Z</time>
      </trkpt>
      <trkpt lat="46.99041" lon="8.68724">
        <ele>566</ele>
        <time>2021-08-05T10:21:17.467Z</time>
      </trkpt>
      <trkpt lat="46.99041" lon="8.68726">
        <ele>566</ele>
        <time>2021-08-05T10:21:18.467Z</time>
      </trkpt>
      <trkpt lat="46.99041" lon="8.68726">
        <ele>566</ele>
        <time>2021-08-05T10:21:19.467Z</time>
      </trkpt>
      <trkpt lat="46.99041" lon="8.68727">
        <ele>567</ele>
        <time>2021-08-05T10:21:20.468Z</time>
      </trkpt>
      <trkpt lat="46.99042" lon="8.68728">
        <ele>567</ele>
        <time>2021-08-05T10:21:21.467Z</time>
      </trkpt>
      <trkpt lat="46.99044" lon="8.6873">
        <ele>567</ele>
        <time>2021-08-05T10:21:22.467Z</time>
      </trkpt>
      <trkpt lat="46.99045" lon="8.6873">
        <ele>567</ele>
        <time>2021-08-05T10:21:23.467Z</time>
      </trkpt>
      <trkpt lat="46.99046" lon="8.68731">
        <ele>567</ele>
        <time>2021-08-05T10:21:24.467Z</time>
      </trkpt>
      <trkpt lat="46.99046" lon="8.68733">
        <ele>567</ele>
        <time>2021-08-05T10:21:25.468Z</time>
      </trkpt>
      <trkpt lat="46.99046" lon="8.68734">
        <ele>566</ele>
        <time>2021-08-05T10:21:26.467Z</time>
      </trkpt>
      <trkpt lat="46.99047" lon="8.68735">
        <ele>566</ele>
        <time>2021-08-05T10:21:27.467Z</time>
      </trkpt>
      <trkpt lat="46.99047" lon="8.68737">
        <ele>566</ele>
        <time>2021-08-05T10:21:28.467Z</time>
      </trkpt>
      <trkpt lat="46.99048" lon="8.68738">
        <ele>566</ele>
        <time>2021-08-05T10:21:29.467Z</time>
      </trkpt>
      <trkpt lat="46.99048" lon="8.68739">
        <ele>566</ele>
        <time>2021-08-05T10:21:30.467Z</time>
      </trkpt>
      <trkpt lat="46.99049" lon="8.6874">
        <ele>566</ele>
        <time>2021-08-05T10:21:31.467Z</time>
      </trkpt>
      <trkpt lat="46.99049" lon="8.68741">
        <ele>566</ele>
        <time>2021-08-05T10:21:32.467Z</time>
      </trkpt>
      <trkpt lat="46.9905" lon="8.68742">
        <ele>565</ele>
        <time>2021-08-05T10:21:33.467Z</time>
      </trkpt>
      <trkpt lat="46.9905" lon="8.68743">
        <ele>565</ele>
        <time>2021-08-05T10:21:34.468Z</time>
      </trkpt>
      <trkpt lat="46.99051" lon="8.68744">
        <ele>565</ele>
        <time>2021-08-05T10:21:35.467Z</time>
      </trkpt>
      <trkpt lat="46.99052" lon="8.68745">
        <ele>565</ele>
        <time>2021-08-05T10:21:36.467Z</time>
      </trkpt>
      <trkpt lat="46.99052" lon="8.68746">
        <ele>565</ele>
        <time>2021-08-05T10:21:37.468Z</time>
      </trkpt>
      <trkpt lat="46.99052" lon="8.68747">
        <ele>565</ele>
        <time>2021-08-05T10:21:38.468Z</time>
      </trkpt>
      <trkpt lat="46.99053" lon="8.68748">
        <ele>565</ele>
        <time>2021-08-05T10:21:39.467Z</time>
      </trkpt>
      <trkpt lat="46.99054" lon="8.68749">
        <ele>564</ele>
        <time>2021-08-05T10:21:40.467Z</time>
      </trkpt>
      <trkpt lat="46.99054" lon="8.6875">
        <ele>564</ele>
        <time>2021-08-05T10:21:41.467Z</time>
      </trkpt>
      <trkpt lat="46.99055" lon="8.6875">
        <ele>564</ele>
        <time>2021-08-05T10:21:42.467Z</time>
      </trkpt>
      <trkpt lat="46.99056" lon="8.68751">
        <ele>564</ele>
        <time>2021-08-05T10:21:43.468Z</time>
      </trkpt>
      <trkpt lat="46.99057" lon="8.68752">
        <ele>564</ele>
        <time>2021-08-05T10:21:44.467Z</time>
      </trkpt>
      <trkpt lat="46.99059" lon="8.68752">
        <ele>563</ele>
        <time>2021-08-05T10:21:45.467Z</time>
      </trkpt>
      <trkpt lat="46.9906" lon="8.68753">
        <ele>563</ele>
        <time>2021-08-05T10:21:46.467Z</time>
      </trkpt>
      <trkpt lat="46.99061" lon="8.68753">
        <ele>563</ele>
        <time>2021-08-05T10:21:47.467Z</time>
      </trkpt>
      <trkpt lat="46.99062" lon="8.68753">
        <ele>563</ele>
        <time>2021-08-05T10:21:48.467Z</time>
      </trkpt>
      <trkpt lat="46.99064" lon="8.68753">
        <ele>563</ele>
        <time>2021-08-05T10:21:49.468Z</time>
      </trkpt>
      <trkpt lat="46.99066" lon="8.68753">
        <ele>563</ele>
        <time>2021-08-05T10:21:50.467Z</time>
      </trkpt>
      <trkpt lat="46.99067" lon="8.68753">
        <ele>563</ele>
        <time>2021-08-05T10:21:51.467Z</time>
      </trkpt>
      <trkpt lat="46.99068" lon="8.68754">
        <ele>563</ele>
        <time>2021-08-05T10:21:52.467Z</time>
      </trkpt>
      <trkpt lat="46.99068" lon="8.68754">
        <ele>562</ele>
        <time>2021-08-05T10:21:53.467Z</time>
      </trkpt>
      <trkpt lat="46.99068" lon="8.68755">
        <ele>562</ele>
        <time>2021-08-05T10:21:54.468Z</time>
      </trkpt>
      <trkpt lat="46.99068" lon="8.68756">
        <ele>562</ele>
        <time>2021-08-05T10:21:55.467Z</time>
      </trkpt>
      <trkpt lat="46.99068" lon="8.68756">
        <ele>561</ele>
        <time>2021-08-05T10:21:56.468Z</time>
      </trkpt>
      <trkpt lat="46.99068" lon="8.68757">
        <ele>561</ele>
        <time>2021-08-05T10:21:57.467Z</time>
      </trkpt>
      <trkpt lat="46.99068" lon="8.68758">
        <ele>560</ele>
        <time>2021-08-05T10:21:58.467Z</time>
      </trkpt>
      <trkpt lat="46.99068" lon="8.68759">
        <ele>559</ele>
        <time>2021-08-05T10:21:59.468Z</time>
      </trkpt>
      <trkpt lat="46.99068" lon="8.6876">
        <ele>559</ele>
        <time>2021-08-05T10:22:00.467Z</time>
      </trkpt>
      <trkpt lat="46.99066" lon="8.68761">
        <ele>558</ele>
        <time>2021-08-05T10:22:01.468Z</time>
      </trkpt>
      <trkpt lat="46.99065" lon="8.68762">
        <ele>558</ele>
        <time>2021-08-05T10:22:02.467Z</time>
      </trkpt>
      <trkpt lat="46.99065" lon="8.68763">
        <ele>557</ele>
        <time>2021-08-05T10:22:03.467Z</time>
      </trkpt>
      <trkpt lat="46.99065" lon="8.68765">
        <ele>557</ele>
        <time>2021-08-05T10:22:04.468Z</time>
      </trkpt>
      <trkpt lat="46.99065" lon="8.68766">
        <ele>557</ele>
        <time>2021-08-05T10:22:05.467Z</time>
      </trkpt>
      <trkpt lat="46.99065" lon="8.68767">
        <ele>556</ele>
        <time>2021-08-05T10:22:06.468Z</time>
      </trkpt>
      <trkpt lat="46.99065" lon="8.68767">
        <ele>556</ele>
        <time>2021-08-05T10:22:07.468Z</time>
      </trkpt>
      <trkpt lat="46.99064" lon="8.68767">
        <ele>556</ele>
        <time>2021-08-05T10:22:08.467Z</time>
      </trkpt>
      <trkpt lat="46.99064" lon="8.68767">
        <ele>556</ele>
        <time>2021-08-05T10:22:09.467Z</time>
      </trkpt>
      <trkpt lat="46.99062" lon="8.68771">
        <ele>556</ele>
        <time>2021-08-05T10:22:10.468Z</time>
      </trkpt>
      <trkpt lat="46.99063" lon="8.68772">
        <ele>555</ele>
        <time>2021-08-05T10:22:11.467Z</time>
      </trkpt>
      <trkpt lat="46.99063" lon="8.68772">
        <ele>555</ele>
        <time>2021-08-05T10:22:12.467Z</time>
      </trkpt>
      <trkpt lat="46.99062" lon="8.68772">
        <ele>555</ele>
        <time>2021-08-05T10:22:13.468Z</time>
      </trkpt>
      <trkpt lat="46.99062" lon="8.68772">
        <ele>554</ele>
        <time>2021-08-05T10:22:14.468Z</time>
      </trkpt>
      <trkpt lat="46.99061" lon="8.68772">
        <ele>554</ele>
        <time>2021-08-05T10:22:15.468Z</time>
      </trkpt>
      <trkpt lat="46.9906" lon="8.68771">
        <ele>553</ele>
        <time>2021-08-05T10:22:16.468Z</time>
      </trkpt>
      <trkpt lat="46.99058" lon="8.68771">
        <ele>553</ele>
        <time>2021-08-05T10:22:17.468Z</time>
      </trkpt>
      <trkpt lat="46.99057" lon="8.68771">
        <ele>553</ele>
        <time>2021-08-05T10:22:18.468Z</time>
      </trkpt>
      <trkpt lat="46.99056" lon="8.68771">
        <ele>553</ele>
        <time>2021-08-05T10:22:19.468Z</time>
      </trkpt>
      <trkpt lat="46.99054" lon="8.68771">
        <ele>552</ele>
        <time>2021-08-05T10:22:20.468Z</time>
      </trkpt>
      <trkpt lat="46.99054" lon="8.68771">
        <ele>552</ele>
        <time>2021-08-05T10:22:21.468Z</time>
      </trkpt>
      <trkpt lat="46.99054" lon="8.6877">
        <ele>552</ele>
        <time>2021-08-05T10:22:22.467Z</time>
      </trkpt>
      <trkpt lat="46.99052" lon="8.6877">
        <ele>552</ele>
        <time>2021-08-05T10:22:23.467Z</time>
      </trkpt>
      <trkpt lat="46.99051" lon="8.68769">
        <ele>552</ele>
        <time>2021-08-05T10:22:24.468Z</time>
      </trkpt>
      <trkpt lat="46.9905" lon="8.68769">
        <ele>552</ele>
        <time>2021-08-05T10:22:25.467Z</time>
      </trkpt>
      <trkpt lat="46.9905" lon="8.68768">
        <ele>552</ele>
        <time>2021-08-05T10:22:26.468Z</time>
      </trkpt>
      <trkpt lat="46.99051" lon="8.68768">
        <ele>552</ele>
        <time>2021-08-05T10:22:27.468Z</time>
      </trkpt>
      <trkpt lat="46.99052" lon="8.68771">
        <ele>552</ele>
        <time>2021-08-05T10:22:28.468Z</time>
      </trkpt>
      <trkpt lat="46.99053" lon="8.68773">
        <ele>552</ele>
        <time>2021-08-05T10:22:29.467Z</time>
      </trkpt>
      <trkpt lat="46.99054" lon="8.68774">
        <ele>552</ele>
        <time>2021-08-05T10:22:30.467Z</time>
      </trkpt>
      <trkpt lat="46.99054" lon="8.68776">
        <ele>552</ele>
        <time>2021-08-05T10:22:31.468Z</time>
      </trkpt>
      <trkpt lat="46.99055" lon="8.68777">
        <ele>553</ele>
        <time>2021-08-05T10:22:32.467Z</time>
      </trkpt>
      <trkpt lat="46.99056" lon="8.68778">
        <ele>553</ele>
        <time>2021-08-05T10:22:33.468Z</time>
      </trkpt>
      <trkpt lat="46.99057" lon="8.68779">
        <ele>553</ele>
        <time>2021-08-05T10:22:34.468Z</time>
      </trkpt>
      <trkpt lat="46.99058" lon="8.68779">
        <ele>554</ele>
        <time>2021-08-05T10:22:35.468Z</time>
      </trkpt>
      <trkpt lat="46.99059" lon="8.68779">
        <ele>555</ele>
        <time>2021-08-05T10:22:36.468Z</time>
      </trkpt>
      <trkpt lat="46.99059" lon="8.68779">
        <ele>556</ele>
        <time>2021-08-05T10:22:37.468Z</time>
      </trkpt>
      <trkpt lat="46.9906" lon="8.6878">
        <ele>557</ele>
        <time>2021-08-05T10:22:38.468Z</time>
      </trkpt>
      <trkpt lat="46.99061" lon="8.6878">
        <ele>558</ele>
        <time>2021-08-05T10:22:39.468Z</time>
      </trkpt>
      <trkpt lat="46.99062" lon="8.68781">
        <ele>559</ele>
        <time>2021-08-05T10:22:40.468Z</time>
      </trkpt>
      <trkpt lat="46.99063" lon="8.68781">
        <ele>560</ele>
        <time>2021-08-05T10:22:41.468Z</time>
      </trkpt>
      <trkpt lat="46.99064" lon="8.68782">
        <ele>560</ele>
        <time>2021-08-05T10:22:42.467Z</time>
      </trkpt>
      <trkpt lat="46.99065" lon="8.68782">
        <ele>561</ele>
        <time>2021-08-05T10:22:43.467Z</time>
      </trkpt>
      <trkpt lat="46.99066" lon="8.68784">
        <ele>561</ele>
        <time>2021-08-05T10:22:44.467Z</time>
      </trkpt>
      <trkpt lat="46.99067" lon="8.68785">
        <ele>561</ele>
        <time>2021-08-05T10:22:45.467Z</time>
      </trkpt>
      <trkpt lat="46.99068" lon="8.68786">
        <ele>561</ele>
        <time>2021-08-05T10:22:46.467Z</time>
      </trkpt>
      <trkpt lat="46.99069" lon="8.68788">
        <ele>561</ele>
        <time>2021-08-05T10:22:47.467Z</time>
      </trkpt>
      <trkpt lat="46.9907" lon="8.68789">
        <ele>561</ele>
        <time>2021-08-05T10:22:48.467Z</time>
      </trkpt>
      <trkpt lat="46.99071" lon="8.68791">
        <ele>561</ele>
        <time>2021-08-05T10:22:49.467Z</time>
      </trkpt>
      <trkpt lat="46.99072" lon="8.68794">
        <ele>562</ele>
        <time>2021-08-05T10:22:50.467Z</time>
      </trkpt>
      <trkpt lat="46.99073" lon="8.68797">
        <ele>562</ele>
        <time>2021-08-05T10:22:51.467Z</time>
      </trkpt>
      <trkpt lat="46.99074" lon="8.688">
        <ele>562</ele>
        <time>2021-08-05T10:22:52.468Z</time>
      </trkpt>
      <trkpt lat="46.99074" lon="8.68802">
        <ele>563</ele>
        <time>2021-08-05T10:22:53.467Z</time>
      </trkpt>
      <trkpt lat="46.99075" lon="8.68804">
        <ele>563</ele>
        <time>2021-08-05T10:22:54.468Z</time>
      </trkpt>
      <trkpt lat="46.99075" lon="8.68806">
        <ele>563</ele>
        <time>2021-08-05T10:22:55.467Z</time>
      </trkpt>
      <trkpt lat="46.99076" lon="8.68807">
        <ele>563</ele>
        <time>2021-08-05T10:22:56.468Z</time>
      </trkpt>
      <trkpt lat="46.99077" lon="8.68809">
        <ele>563</ele>
        <time>2021-08-05T10:22:57.468Z</time>
      </trkpt>
      <trkpt lat="46.99077" lon="8.68811">
        <ele>563</ele>
        <time>2021-08-05T10:22:58.467Z</time>
      </trkpt>
      <trkpt lat="46.99078" lon="8.68813">
        <ele>563</ele>
        <time>2021-08-05T10:22:59.468Z</time>
      </trkpt>
      <trkpt lat="46.99079" lon="8.68816">
        <ele>563</ele>
        <time>2021-08-05T10:23:00.468Z</time>
      </trkpt>
      <trkpt lat="46.99079" lon="8.68817">
        <ele>564</ele>
        <time>2021-08-05T10:23:01.467Z</time>
      </trkpt>
      <trkpt lat="46.9908" lon="8.68819">
        <ele>564</ele>
        <time>2021-08-05T10:23:02.468Z</time>
      </trkpt>
      <trkpt lat="46.99081" lon="8.6882">
        <ele>565</ele>
        <time>2021-08-05T10:23:03.467Z</time>
      </trkpt>
      <trkpt lat="46.99081" lon="8.68822">
        <ele>565</ele>
        <time>2021-08-05T10:23:04.468Z</time>
      </trkpt>
      <trkpt lat="46.99082" lon="8.68823">
        <ele>566</ele>
        <time>2021-08-05T10:23:05.468Z</time>
      </trkpt>
      <trkpt lat="46.99083" lon="8.68825">
        <ele>566</ele>
        <time>2021-08-05T10:23:06.467Z</time>
      </trkpt>
      <trkpt lat="46.99084" lon="8.68825">
        <ele>566</ele>
        <time>2021-08-05T10:23:07.468Z</time>
      </trkpt>
      <trkpt lat="46.99085" lon="8.68827">
        <ele>566</ele>
        <time>2021-08-05T10:23:08.467Z</time>
      </trkpt>
      <trkpt lat="46.99087" lon="8.68827">
        <ele>566</ele>
        <time>2021-08-05T10:23:09.468Z</time>
      </trkpt>
      <trkpt lat="46.99088" lon="8.68828">
        <ele>566</ele>
        <time>2021-08-05T10:23:10.467Z</time>
      </trkpt>
      <trkpt lat="46.99089" lon="8.68829">
        <ele>566</ele>
        <time>2021-08-05T10:23:11.467Z</time>
      </trkpt>
      <trkpt lat="46.9909" lon="8.68829">
        <ele>565</ele>
        <time>2021-08-05T10:23:12.467Z</time>
      </trkpt>
      <trkpt lat="46.99091" lon="8.68829">
        <ele>565</ele>
        <time>2021-08-05T10:23:13.467Z</time>
      </trkpt>
      <trkpt lat="46.99092" lon="8.68829">
        <ele>564</ele>
        <time>2021-08-05T10:23:14.467Z</time>
      </trkpt>
      <trkpt lat="46.99092" lon="8.68828">
        <ele>563</ele>
        <time>2021-08-05T10:23:15.467Z</time>
      </trkpt>
      <trkpt lat="46.99093" lon="8.68825">
        <ele>562</ele>
        <time>2021-08-05T10:23:16.467Z</time>
      </trkpt>
      <trkpt lat="46.99094" lon="8.68824">
        <ele>561</ele>
        <time>2021-08-05T10:23:17.468Z</time>
      </trkpt>
      <trkpt lat="46.99095" lon="8.68824">
        <ele>560</ele>
        <time>2021-08-05T10:23:18.468Z</time>
      </trkpt>
      <trkpt lat="46.99096" lon="8.68824">
        <ele>559</ele>
        <time>2021-08-05T10:23:19.467Z</time>
      </trkpt>
      <trkpt lat="46.99097" lon="8.68823">
        <ele>559</ele>
        <time>2021-08-05T10:23:20.468Z</time>
      </trkpt>
      <trkpt lat="46.99097" lon="8.68822">
        <ele>558</ele>
        <time>2021-08-05T10:23:21.467Z</time>
      </trkpt>
      <trkpt lat="46.99097" lon="8.68821">
        <ele>557</ele>
        <time>2021-08-05T10:23:22.468Z</time>
      </trkpt>
      <trkpt lat="46.99096" lon="8.68821">
        <ele>557</ele>
        <time>2021-08-05T10:23:23.468Z</time>
      </trkpt>
      <trkpt lat="46.99096" lon="8.6882">
        <ele>556</ele>
        <time>2021-08-05T10:23:24.468Z</time>
      </trkpt>
      <trkpt lat="46.99095" lon="8.68819">
        <ele>555</ele>
        <time>2021-08-05T10:23:25.468Z</time>
      </trkpt>
      <trkpt lat="46.99095" lon="8.68818">
        <ele>555</ele>
        <time>2021-08-05T10:23:26.468Z</time>
      </trkpt>
      <trkpt lat="46.99096" lon="8.68817">
        <ele>554</ele>
        <time>2021-08-05T10:23:27.468Z</time>
      </trkpt>
      <trkpt lat="46.99097" lon="8.68816">
        <ele>554</ele>
        <time>2021-08-05T10:23:28.468Z</time>
      </trkpt>
      <trkpt lat="46.99098" lon="8.68816">
        <ele>553</ele>
        <time>2021-08-05T10:23:29.468Z</time>
      </trkpt>
      <trkpt lat="46.99099" lon="8.68815">
        <ele>553</ele>
        <time>2021-08-05T10:23:30.468Z</time>
      </trkpt>
      <trkpt lat="46.991" lon="8.68815">
        <ele>553</ele>
        <time>2021-08-05T10:23:31.467Z</time>
      </trkpt>
      <trkpt lat="46.991" lon="8.68814">
        <ele>553</ele>
        <time>2021-08-05T10:23:32.468Z</time>
      </trkpt>
      <trkpt lat="46.991" lon="8.68814">
        <ele>553</ele>
        <time>2021-08-05T10:23:33.468Z</time>
      </trkpt>
      <trkpt lat="46.99101" lon="8.68814">
        <ele>553</ele>
        <time>2021-08-05T10:23:34.467Z</time>
      </trkpt>
      <trkpt lat="46.99101" lon="8.68814">
        <ele>552</ele>
        <time>2021-08-05T10:23:35.467Z</time>
      </trkpt>
      <trkpt lat="46.99102" lon="8.68814">
        <ele>552</ele>
        <time>2021-08-05T10:23:36.468Z</time>
      </trkpt>
      <trkpt lat="46.99102" lon="8.68813">
        <ele>552</ele>
        <time>2021-08-05T10:23:37.468Z</time>
      </trkpt>
      <trkpt lat="46.99102" lon="8.68812">
        <ele>552</ele>
        <time>2021-08-05T10:23:38.467Z</time>
      </trkpt>
      <trkpt lat="46.99103" lon="8.68811">
        <ele>552</ele>
        <time>2021-08-05T10:23:39.467Z</time>
      </trkpt>
      <trkpt lat="46.99103" lon="8.68809">
        <ele>551</ele>
        <time>2021-08-05T10:23:40.467Z</time>
      </trkpt>
      <trkpt lat="46.99104" lon="8.68807">
        <ele>551</ele>
        <time>2021-08-05T10:23:41.468Z</time>
      </trkpt>
      <trkpt lat="46.99104" lon="8.68807">
        <ele>550</ele>
        <time>2021-08-05T10:23:42.468Z</time>
      </trkpt>
      <trkpt lat="46.99103" lon="8.68807">
        <ele>550</ele>
        <time>2021-08-05T10:23:43.468Z</time>
      </trkpt>
      <trkpt lat="46.99103" lon="8.68807">
        <ele>549</ele>
        <time>2021-08-05T10:23:44.468Z</time>
      </trkpt>
      <trkpt lat="46.99103" lon="8.68806">
        <ele>548</ele>
        <time>2021-08-05T10:23:45.467Z</time>
      </trkpt>
      <trkpt lat="46.99103" lon="8.68806">
        <ele>548</ele>
        <time>2021-08-05T10:23:46.468Z</time>
      </trkpt>
      <trkpt lat="46.99102" lon="8.68806">
        <ele>547</ele>
        <time>2021-08-05T10:23:47.467Z</time>
      </trkpt>
      <trkpt lat="46.99101" lon="8.68807">
        <ele>546</ele>
        <time>2021-08-05T10:23:48.467Z</time>
      </trkpt>
      <trkpt lat="46.99101" lon="8.68808">
        <ele>545</ele>
        <time>2021-08-05T10:23:49.467Z</time>
      </trkpt>
      <trkpt lat="46.991" lon="8.68808">
        <ele>544</ele>
        <time>2021-08-05T10:23:50.468Z</time>
      </trkpt>
      <trkpt lat="46.991" lon="8.68809">
        <ele>544</ele>
        <time>2021-08-05T10:23:51.467Z</time>
      </trkpt>
      <trkpt lat="46.99101" lon="8.68809">
        <ele>543</ele>
        <time>2021-08-05T10:23:52.468Z</time>
      </trkpt>
      <trkpt lat="46.99102" lon="8.68809">
        <ele>542</ele>
        <time>2021-08-05T10:23:53.468Z</time>
      </trkpt>
      <trkpt lat="46.99103" lon="8.68809">
        <ele>541</ele>
        <time>2021-08-05T10:23:54.468Z</time>
      </trkpt>
      <trkpt lat="46.99103" lon="8.68809">
        <ele>539</ele>
        <time>2021-08-05T10:23:55.467Z</time>
      </trkpt>
      <trkpt lat="46.99104" lon="8.68808">
        <ele>538</ele>
        <time>2021-08-05T10:23:56.467Z</time>
      </trkpt>
      <trkpt lat="46.99104" lon="8.68808">
        <ele>536</ele>
        <time>2021-08-05T10:23:57.468Z</time>
      </trkpt>
      <trkpt lat="46.99104" lon="8.68806">
        <ele>532</ele>
        <time>2021-08-05T10:23:58.468Z</time>
      </trkpt>
      <trkpt lat="46.99106" lon="8.68806">
        <ele>531</ele>
        <time>2021-08-05T10:23:59.468Z</time>
      </trkpt>
      <trkpt lat="46.99108" lon="8.68806">
        <ele>530</ele>
        <time>2021-08-05T10:24:00.469Z</time>
      </trkpt>
      <trkpt lat="46.99108" lon="8.68805">
        <ele>529</ele>
        <time>2021-08-05T10:24:01.469Z</time>
      </trkpt>
      <trkpt lat="46.99109" lon="8.68804">
        <ele>528</ele>
        <time>2021-08-05T10:24:02.469Z</time>
      </trkpt>
      <trkpt lat="46.99109" lon="8.68804">
        <ele>528</ele>
        <time>2021-08-05T10:24:03.469Z</time>
      </trkpt>
      <trkpt lat="46.99107" lon="8.688">
        <ele>527</ele>
        <time>2021-08-05T10:24:04.468Z</time>
      </trkpt>
      <trkpt lat="46.99108" lon="8.68801">
        <ele>527</ele>
        <time>2021-08-05T10:24:05.469Z</time>
      </trkpt>
      <trkpt lat="46.99109" lon="8.68801">
        <ele>528</ele>
        <time>2021-08-05T10:24:06.468Z</time>
      </trkpt>
      <trkpt lat="46.99109" lon="8.68802">
        <ele>528</ele>
        <time>2021-08-05T10:24:07.469Z</time>
      </trkpt>
      <trkpt lat="46.99111" lon="8.68802">
        <ele>528</ele>
        <time>2021-08-05T10:24:08.469Z</time>
      </trkpt>
      <trkpt lat="46.99111" lon="8.68802">
        <ele>528</ele>
        <time>2021-08-05T10:24:09.469Z</time>
      </trkpt>
      <trkpt lat="46.99112" lon="8.68801">
        <ele>527</ele>
        <time>2021-08-05T10:24:10.468Z</time>
      </trkpt>
      <trkpt lat="46.99112" lon="8.68801">
        <ele>527</ele>
        <time>2021-08-05T10:24:11.469Z</time>
      </trkpt>
      <trkpt lat="46.99112" lon="8.688">
        <ele>527</ele>
        <time>2021-08-05T10:24:12.469Z</time>
      </trkpt>
      <trkpt lat="46.99113" lon="8.688">
        <ele>526</ele>
        <time>2021-08-05T10:24:13.469Z</time>
      </trkpt>
      <trkpt lat="46.99113" lon="8.688">
        <ele>526</ele>
        <time>2021-08-05T10:24:14.469Z</time>
      </trkpt>
      <trkpt lat="46.99114" lon="8.688">
        <ele>525</ele>
        <time>2021-08-05T10:24:15.469Z</time>
      </trkpt>
      <trkpt lat="46.99114" lon="8.68801">
        <ele>525</ele>
        <time>2021-08-05T10:24:16.468Z</time>
      </trkpt>
      <trkpt lat="46.99115" lon="8.68801">
        <ele>525</ele>
        <time>2021-08-05T10:24:17.469Z</time>
      </trkpt>
      <trkpt lat="46.99115" lon="8.68801">
        <ele>524</ele>
        <time>2021-08-05T10:24:18.469Z</time>
      </trkpt>
      <trkpt lat="46.99115" lon="8.68801">
        <ele>522</ele>
        <time>2021-08-05T10:24:19.470Z</time>
      </trkpt>
      <trkpt lat="46.99117" lon="8.68802">
        <ele>520</ele>
        <time>2021-08-05T10:24:20.470Z</time>
      </trkpt>
      <trkpt lat="46.99117" lon="8.68802">
        <ele>520</ele>
        <time>2021-08-05T10:24:21.470Z</time>
      </trkpt>
      <trkpt lat="46.99117" lon="8.68802">
        <ele>519</ele>
        <time>2021-08-05T10:24:22.470Z</time>
      </trkpt>
      <trkpt lat="46.99116" lon="8.68802">
        <ele>519</ele>
        <time>2021-08-05T10:24:23.470Z</time>
      </trkpt>
      <trkpt lat="46.99116" lon="8.68802">
        <ele>520</ele>
        <time>2021-08-05T10:24:24.471Z</time>
      </trkpt>
      <trkpt lat="46.99116" lon="8.68803">
        <ele>522</ele>
        <time>2021-08-05T10:24:25.471Z</time>
      </trkpt>
      <trkpt lat="46.99116" lon="8.68803">
        <ele>522</ele>
        <time>2021-08-05T10:24:26.471Z</time>
      </trkpt>
      <trkpt lat="46.99116" lon="8.68802">
        <ele>523</ele>
        <time>2021-08-05T10:24:27.470Z</time>
      </trkpt>
      <trkpt lat="46.99117" lon="8.68802">
        <ele>524</ele>
        <time>2021-08-05T10:24:28.470Z</time>
      </trkpt>
      <trkpt lat="46.99118" lon="8.68802">
        <ele>526</ele>
        <time>2021-08-05T10:24:29.472Z</time>
      </trkpt>
      <trkpt lat="46.99118" lon="8.68803">
        <ele>526</ele>
        <time>2021-08-05T10:24:30.472Z</time>
      </trkpt>
      <trkpt lat="46.99118" lon="8.68803">
        <ele>526</ele>
        <time>2021-08-05T10:24:31.471Z</time>
      </trkpt>
      <trkpt lat="46.99118" lon="8.68803">
        <ele>527</ele>
        <time>2021-08-05T10:24:32.472Z</time>
      </trkpt>
      <trkpt lat="46.99118" lon="8.68803">
        <ele>527</ele>
        <time>2021-08-05T10:24:33.471Z</time>
      </trkpt>
      <trkpt lat="46.99118" lon="8.68802">
        <ele>527</ele>
        <time>2021-08-05T10:24:34.472Z</time>
      </trkpt>
      <trkpt lat="46.99118" lon="8.68802">
        <ele>527</ele>
        <time>2021-08-05T10:24:35.472Z</time>
      </trkpt>
      <trkpt lat="46.99119" lon="8.68802">
        <ele>527</ele>
        <time>2021-08-05T10:24:36.471Z</time>
      </trkpt>
      <trkpt lat="46.99118" lon="8.68802">
        <ele>527</ele>
        <time>2021-08-05T10:24:37.472Z</time>
      </trkpt>
      <trkpt lat="46.99118" lon="8.68802">
        <ele>527</ele>
        <time>2021-08-05T10:24:38.472Z</time>
      </trkpt>
      <trkpt lat="46.99119" lon="8.68801">
        <ele>527</ele>
        <time>2021-08-05T10:24:39.471Z</time>
      </trkpt>
      <trkpt lat="46.99119" lon="8.68801">
        <ele>527</ele>
        <time>2021-08-05T10:24:40.471Z</time>
      </trkpt>
      <trkpt lat="46.99119" lon="8.68802">
        <ele>527</ele>
        <time>2021-08-05T10:24:41.472Z</time>
      </trkpt>
      <trkpt lat="46.99118" lon="8.68802">
        <ele>527</ele>
        <time>2021-08-05T10:24:42.472Z</time>
      </trkpt>
      <trkpt lat="46.99119" lon="8.68803">
        <ele>527</ele>
        <time>2021-08-05T10:24:43.472Z</time>
      </trkpt>
      <trkpt lat="46.99118" lon="8.68803">
        <ele>526</ele>
        <time>2021-08-05T10:24:44.472Z</time>
      </trkpt>
      <trkpt lat="46.99117" lon="8.68802">
        <ele>526</ele>
        <time>2021-08-05T10:24:45.472Z</time>
      </trkpt>
      <trkpt lat="46.99117" lon="8.68802">
        <ele>526</ele>
        <time>2021-08-05T10:24:46.471Z</time>
      </trkpt>
      <trkpt lat="46.99117" lon="8.68802">
        <ele>526</ele>
        <time>2021-08-05T10:24:47.472Z</time>
      </trkpt>
      <trkpt lat="46.99117" lon="8.68803">
        <ele>525</ele>
        <time>2021-08-05T10:24:48.472Z</time>
      </trkpt>
      <trkpt lat="46.99117" lon="8.68803">
        <ele>525</ele>
        <time>2021-08-05T10:24:49.471Z</time>
      </trkpt>
      <trkpt lat="46.99116" lon="8.68803">
        <ele>524</ele>
        <time>2021-08-05T10:24:50.471Z</time>
      </trkpt>
      <trkpt lat="46.99117" lon="8.68804">
        <ele>523</ele>
        <time>2021-08-05T10:24:51.473Z</time>
      </trkpt>
      <trkpt lat="46.99118" lon="8.68805">
        <ele>523</ele>
        <time>2021-08-05T10:24:52.473Z</time>
      </trkpt>
      <trkpt lat="46.99119" lon="8.68805">
        <ele>522</ele>
        <time>2021-08-05T10:24:53.472Z</time>
      </trkpt>
      <trkpt lat="46.99119" lon="8.68805">
        <ele>522</ele>
        <time>2021-08-05T10:24:54.472Z</time>
      </trkpt>
      <trkpt lat="46.99119" lon="8.68806">
        <ele>520</ele>
        <time>2021-08-05T10:24:55.473Z</time>
      </trkpt>
      <trkpt lat="46.99119" lon="8.68806">
        <ele>520</ele>
        <time>2021-08-05T10:24:56.474Z</time>
      </trkpt>
      <trkpt lat="46.99119" lon="8.68807">
        <ele>519</ele>
        <time>2021-08-05T10:24:57.473Z</time>
      </trkpt>
      <trkpt lat="46.99118" lon="8.68808">
        <ele>518</ele>
        <time>2021-08-05T10:24:58.475Z</time>
      </trkpt>
      <trkpt lat="46.99118" lon="8.68808">
        <ele>518</ele>
        <time>2021-08-05T10:24:59.476Z</time>
      </trkpt>
      <trkpt lat="46.99117" lon="8.68808">
        <ele>519</ele>
        <time>2021-08-05T10:25:00.476Z</time>
      </trkpt>
      <trkpt lat="46.99117" lon="8.68808">
        <ele>520</ele>
        <time>2021-08-05T10:25:01.475Z</time>
      </trkpt>
      <trkpt lat="46.99117" lon="8.68808">
        <ele>521</ele>
        <time>2021-08-05T10:25:02.476Z</time>
      </trkpt>
      <trkpt lat="46.99117" lon="8.68808">
        <ele>522</ele>
        <time>2021-08-05T10:25:03.476Z</time>
      </trkpt>
      <trkpt lat="46.99118" lon="8.68808">
        <ele>524</ele>
        <time>2021-08-05T10:25:04.476Z</time>
      </trkpt>
      <trkpt lat="46.99118" lon="8.68809">
        <ele>525</ele>
        <time>2021-08-05T10:25:05.476Z</time>
      </trkpt>
      <trkpt lat="46.99118" lon="8.68808">
        <ele>525</ele>
        <time>2021-08-05T10:25:06.477Z</time>
      </trkpt>
      <trkpt lat="46.99118" lon="8.68808">
        <ele>526</ele>
        <time>2021-08-05T10:25:07.476Z</time>
      </trkpt>
      <trkpt lat="46.99118" lon="8.68807">
        <ele>530</ele>
        <time>2021-08-05T10:25:08.477Z</time>
      </trkpt>
      <trkpt lat="46.99117" lon="8.68805">
        <ele>531</ele>
        <time>2021-08-05T10:25:09.478Z</time>
      </trkpt>
      <trkpt lat="46.99115" lon="8.68805">
        <ele>532</ele>
        <time>2021-08-05T10:25:10.478Z</time>
      </trkpt>
      <trkpt lat="46.99115" lon="8.68804">
        <ele>528</ele>
        <time>2021-08-05T10:25:11.477Z</time>
      </trkpt>
      <trkpt lat="46.99115" lon="8.68805">
        <ele>528</ele>
        <time>2021-08-05T10:25:12.478Z</time>
      </trkpt>
      <trkpt lat="46.99115" lon="8.68805">
        <ele>528</ele>
        <time>2021-08-05T10:25:13.478Z</time>
      </trkpt>
      <trkpt lat="46.99118" lon="8.68806">
        <ele>533</ele>
        <time>2021-08-05T10:25:14.478Z</time>
      </trkpt>
      <trkpt lat="46.99118" lon="8.68806">
        <ele>534</ele>
        <time>2021-08-05T10:25:15.478Z</time>
      </trkpt>
      <trkpt lat="46.99118" lon="8.68805">
        <ele>534</ele>
        <time>2021-08-05T10:25:16.479Z</time>
      </trkpt>
      <trkpt lat="46.99118" lon="8.68805">
        <ele>535</ele>
        <time>2021-08-05T10:25:17.479Z</time>
      </trkpt>
      <trkpt lat="46.99119" lon="8.68809">
        <ele>542</ele>
        <time>2021-08-05T10:25:18.479Z</time>
      </trkpt>
      <trkpt lat="46.9912" lon="8.6881">
        <ele>542</ele>
        <time>2021-08-05T10:25:19.479Z</time>
      </trkpt>
      <trkpt lat="46.9912" lon="8.6881">
        <ele>542</ele>
        <time>2021-08-05T10:25:20.478Z</time>
      </trkpt>
      <trkpt lat="46.9912" lon="8.6881">
        <ele>542</ele>
        <time>2021-08-05T10:25:21.478Z</time>
      </trkpt>
      <trkpt lat="46.9912" lon="8.6881">
        <ele>543</ele>
        <time>2021-08-05T10:25:22.478Z</time>
      </trkpt>
      <trkpt lat="46.9912" lon="8.6881">
        <ele>541</ele>
        <time>2021-08-05T10:25:23.479Z</time>
      </trkpt>
      <trkpt lat="46.99119" lon="8.6881">
        <ele>541</ele>
        <time>2021-08-05T10:25:24.479Z</time>
      </trkpt>
      <trkpt lat="46.99117" lon="8.68807">
        <ele>543</ele>
        <time>2021-08-05T10:25:25.479Z</time>
      </trkpt>
      <trkpt lat="46.99117" lon="8.68807">
        <ele>543</ele>
        <time>2021-08-05T10:25:26.479Z</time>
      </trkpt>
      <trkpt lat="46.99117" lon="8.68807">
        <ele>542</ele>
        <time>2021-08-05T10:25:27.478Z</time>
      </trkpt>
      <trkpt lat="46.99112" lon="8.68807">
        <ele>544</ele>
        <time>2021-08-05T10:25:28.480Z</time>
      </trkpt>
      <trkpt lat="46.99112" lon="8.68807">
        <ele>544</ele>
        <time>2021-08-05T10:25:29.479Z</time>
      </trkpt>
      <trkpt lat="46.99111" lon="8.68802">
        <ele>543</ele>
        <time>2021-08-05T10:25:30.480Z</time>
      </trkpt>
      <trkpt lat="46.99111" lon="8.68802">
        <ele>543</ele>
        <time>2021-08-05T10:25:31.481Z</time>
      </trkpt>
      <trkpt lat="46.99111" lon="8.68803">
        <ele>543</ele>
        <time>2021-08-05T10:25:32.480Z</time>
      </trkpt>
      <trkpt lat="46.9911" lon="8.68803">
        <ele>543</ele>
        <time>2021-08-05T10:25:33.481Z</time>
      </trkpt>
      <trkpt lat="46.99112" lon="8.68805">
        <ele>549</ele>
        <time>2021-08-05T10:25:34.480Z</time>
      </trkpt>
      <trkpt lat="46.99113" lon="8.68806">
        <ele>549</ele>
        <time>2021-08-05T10:25:35.480Z</time>
      </trkpt>
      <trkpt lat="46.99113" lon="8.68807">
        <ele>550</ele>
        <time>2021-08-05T10:25:36.480Z</time>
      </trkpt>
      <trkpt lat="46.99114" lon="8.68807">
        <ele>551</ele>
        <time>2021-08-05T10:25:37.480Z</time>
      </trkpt>
      <trkpt lat="46.99116" lon="8.68809">
        <ele>555</ele>
        <time>2021-08-05T10:25:38.481Z</time>
      </trkpt>
      <trkpt lat="46.99116" lon="8.6881">
        <ele>554</ele>
        <time>2021-08-05T10:25:39.481Z</time>
      </trkpt>
      <trkpt lat="46.99114" lon="8.68811">
        <ele>550</ele>
        <time>2021-08-05T10:25:40.481Z</time>
      </trkpt>
      <trkpt lat="46.99114" lon="8.68811">
        <ele>549</ele>
        <time>2021-08-05T10:25:41.481Z</time>
      </trkpt>
      <trkpt lat="46.99114" lon="8.68811">
        <ele>548</ele>
        <time>2021-08-05T10:25:42.480Z</time>
      </trkpt>
      <trkpt lat="46.99114" lon="8.68811">
        <ele>547</ele>
        <time>2021-08-05T10:25:43.481Z</time>
      </trkpt>
      <trkpt lat="46.99115" lon="8.68811">
        <ele>546</ele>
        <time>2021-08-05T10:25:44.481Z</time>
      </trkpt>
      <trkpt lat="46.99115" lon="8.68812">
        <ele>545</ele>
        <time>2021-08-05T10:25:45.481Z</time>
      </trkpt>
      <trkpt lat="46.99116" lon="8.68812">
        <ele>544</ele>
        <time>2021-08-05T10:25:46.480Z</time>
      </trkpt>
      <trkpt lat="46.99117" lon="8.68812">
        <ele>538</ele>
        <time>2021-08-05T10:25:47.481Z</time>
      </trkpt>
      <trkpt lat="46.99117" lon="8.68813">
        <ele>537</ele>
        <time>2021-08-05T10:25:48.481Z</time>
      </trkpt>
      <trkpt lat="46.99117" lon="8.68812">
        <ele>537</ele>
        <time>2021-08-05T10:25:49.481Z</time>
      </trkpt>
      <trkpt lat="46.99112" lon="8.68808">
        <ele>535</ele>
        <time>2021-08-05T10:25:50.483Z</time>
      </trkpt>
      <trkpt lat="46.99108" lon="8.68805">
        <ele>539</ele>
        <time>2021-08-05T10:25:51.482Z</time>
      </trkpt>
      <trkpt lat="46.99108" lon="8.68805">
        <ele>539</ele>
        <time>2021-08-05T10:25:52.483Z</time>
      </trkpt>
      <trkpt lat="46.99108" lon="8.68804">
        <ele>540</ele>
        <time>2021-08-05T10:25:53.482Z</time>
      </trkpt>
      <trkpt lat="46.99108" lon="8.68804">
        <ele>540</ele>
        <time>2021-08-05T10:25:54.483Z</time>
      </trkpt>
      <trkpt lat="46.99107" lon="8.68804">
        <ele>540</ele>
        <time>2021-08-05T10:25:55.483Z</time>
      </trkpt>
      <trkpt lat="46.99104" lon="8.68805">
        <ele>544</ele>
        <time>2021-08-05T10:25:56.483Z</time>
      </trkpt>
      <trkpt lat="46.99103" lon="8.68805">
        <ele>544</ele>
        <time>2021-08-05T10:25:57.482Z</time>
      </trkpt>
      <trkpt lat="46.99104" lon="8.68803">
        <ele>545</ele>
        <time>2021-08-05T10:25:58.483Z</time>
      </trkpt>
      <trkpt lat="46.99104" lon="8.68803">
        <ele>544</ele>
        <time>2021-08-05T10:25:59.483Z</time>
      </trkpt>
      <trkpt lat="46.99104" lon="8.68803">
        <ele>544</ele>
        <time>2021-08-05T10:26:00.482Z</time>
      </trkpt>
      <trkpt lat="46.99102" lon="8.68802">
        <ele>541</ele>
        <time>2021-08-05T10:26:01.482Z</time>
      </trkpt>
      <trkpt lat="46.99102" lon="8.68802">
        <ele>541</ele>
        <time>2021-08-05T10:26:02.482Z</time>
      </trkpt>
      <trkpt lat="46.99101" lon="8.68802">
        <ele>541</ele>
        <time>2021-08-05T10:26:03.483Z</time>
      </trkpt>
      <trkpt lat="46.99102" lon="8.68802">
        <ele>542</ele>
        <time>2021-08-05T10:26:04.484Z</time>
      </trkpt>
      <trkpt lat="46.99102" lon="8.68802">
        <ele>543</ele>
        <time>2021-08-05T10:26:05.485Z</time>
      </trkpt>
      <trkpt lat="46.99102" lon="8.68802">
        <ele>543</ele>
        <time>2021-08-05T10:26:06.484Z</time>
      </trkpt>
      <trkpt lat="46.99101" lon="8.68799">
        <ele>543</ele>
        <time>2021-08-05T10:26:07.486Z</time>
      </trkpt>
      <trkpt lat="46.99101" lon="8.68799">
        <ele>543</ele>
        <time>2021-08-05T10:26:08.485Z</time>
      </trkpt>
      <trkpt lat="46.99102" lon="8.68799">
        <ele>543</ele>
        <time>2021-08-05T10:26:09.485Z</time>
      </trkpt>
      <trkpt lat="46.99108" lon="8.68801">
        <ele>544</ele>
        <time>2021-08-05T10:26:10.486Z</time>
      </trkpt>
      <trkpt lat="46.99109" lon="8.68801">
        <ele>543</ele>
        <time>2021-08-05T10:26:11.486Z</time>
      </trkpt>
      <trkpt lat="46.9911" lon="8.68802">
        <ele>543</ele>
        <time>2021-08-05T10:26:12.487Z</time>
      </trkpt>
      <trkpt lat="46.99109" lon="8.68802">
        <ele>542</ele>
        <time>2021-08-05T10:26:13.486Z</time>
      </trkpt>
      <trkpt lat="46.99117" lon="8.688">
        <ele>548</ele>
        <time>2021-08-05T10:26:14.488Z</time>
      </trkpt>
      <trkpt lat="46.99117" lon="8.688">
        <ele>549</ele>
        <time>2021-08-05T10:26:15.487Z</time>
      </trkpt>
      <trkpt lat="46.99117" lon="8.688">
        <ele>550</ele>
        <time>2021-08-05T10:26:16.487Z</time>
      </trkpt>
      <trkpt lat="46.99114" lon="8.68799">
        <ele>551</ele>
        <time>2021-08-05T10:26:17.489Z</time>
      </trkpt>
      <trkpt lat="46.99113" lon="8.68799">
        <ele>551</ele>
        <time>2021-08-05T10:26:18.489Z</time>
      </trkpt>
      <trkpt lat="46.99112" lon="8.68799">
        <ele>550</ele>
        <time>2021-08-05T10:26:19.488Z</time>
      </trkpt>
      <trkpt lat="46.99112" lon="8.68799">
        <ele>550</ele>
        <time>2021-08-05T10:26:20.489Z</time>
      </trkpt>
      <trkpt lat="46.99112" lon="8.688">
        <ele>549</ele>
        <time>2021-08-05T10:26:21.489Z</time>
      </trkpt>
      <trkpt lat="46.99099" lon="8.6881">
        <ele>554</ele>
        <time>2021-08-05T10:26:22.490Z</time>
      </trkpt>
      <trkpt lat="46.99098" lon="8.68812">
        <ele>554</ele>
        <time>2021-08-05T10:26:23.489Z</time>
      </trkpt>
      <trkpt lat="46.99098" lon="8.68814">
        <ele>555</ele>
        <time>2021-08-05T10:26:24.490Z</time>
      </trkpt>
      <trkpt lat="46.99098" lon="8.68816">
        <ele>554</ele>
        <time>2021-08-05T10:26:25.490Z</time>
      </trkpt>
      <trkpt lat="46.99098" lon="8.68818">
        <ele>554</ele>
        <time>2021-08-05T10:26:26.489Z</time>
      </trkpt>
      <trkpt lat="46.99097" lon="8.6882">
        <ele>555</ele>
        <time>2021-08-05T10:26:27.489Z</time>
      </trkpt>
      <trkpt lat="46.99097" lon="8.68823">
        <ele>555</ele>
        <time>2021-08-05T10:26:28.490Z</time>
      </trkpt>
      <trkpt lat="46.99097" lon="8.68825">
        <ele>555</ele>
        <time>2021-08-05T10:26:29.489Z</time>
      </trkpt>
      <trkpt lat="46.99097" lon="8.68827">
        <ele>556</ele>
        <time>2021-08-05T10:26:30.489Z</time>
      </trkpt>
      <trkpt lat="46.99097" lon="8.68828">
        <ele>556</ele>
        <time>2021-08-05T10:26:31.489Z</time>
      </trkpt>
      <trkpt lat="46.99096" lon="8.68829">
        <ele>556</ele>
        <time>2021-08-05T10:26:32.490Z</time>
      </trkpt>
      <trkpt lat="46.99096" lon="8.68831">
        <ele>556</ele>
        <time>2021-08-05T10:26:33.490Z</time>
      </trkpt>
      <trkpt lat="46.99096" lon="8.68833">
        <ele>556</ele>
        <time>2021-08-05T10:26:34.490Z</time>
      </trkpt>
      <trkpt lat="46.99096" lon="8.68835">
        <ele>557</ele>
        <time>2021-08-05T10:26:35.490Z</time>
      </trkpt>
      <trkpt lat="46.99096" lon="8.68838">
        <ele>557</ele>
        <time>2021-08-05T10:26:36.490Z</time>
      </trkpt>
      <trkpt lat="46.99097" lon="8.68839">
        <ele>557</ele>
        <time>2021-08-05T10:26:37.490Z</time>
      </trkpt>
      <trkpt lat="46.99097" lon="8.68841">
        <ele>558</ele>
        <time>2021-08-05T10:26:38.489Z</time>
      </trkpt>
      <trkpt lat="46.99098" lon="8.68842">
        <ele>558</ele>
        <time>2021-08-05T10:26:39.490Z</time>
      </trkpt>
      <trkpt lat="46.99098" lon="8.68843">
        <ele>558</ele>
        <time>2021-08-05T10:26:40.490Z</time>
      </trkpt>
      <trkpt lat="46.99099" lon="8.68845">
        <ele>559</ele>
        <time>2021-08-05T10:26:41.490Z</time>
      </trkpt>
      <trkpt lat="46.991" lon="8.68846">
        <ele>558</ele>
        <time>2021-08-05T10:26:42.489Z</time>
      </trkpt>
      <trkpt lat="46.991" lon="8.68847">
        <ele>558</ele>
        <time>2021-08-05T10:26:43.489Z</time>
      </trkpt>
      <trkpt lat="46.99101" lon="8.68849">
        <ele>558</ele>
        <time>2021-08-05T10:26:44.490Z</time>
      </trkpt>
      <trkpt lat="46.99101" lon="8.6885">
        <ele>558</ele>
        <time>2021-08-05T10:26:45.489Z</time>
      </trkpt>
      <trkpt lat="46.99102" lon="8.68851">
        <ele>558</ele>
        <time>2021-08-05T10:26:46.490Z</time>
      </trkpt>
      <trkpt lat="46.99102" lon="8.68853">
        <ele>558</ele>
        <time>2021-08-05T10:26:47.490Z</time>
      </trkpt>
      <trkpt lat="46.99103" lon="8.68854">
        <ele>557</ele>
        <time>2021-08-05T10:26:48.490Z</time>
      </trkpt>
      <trkpt lat="46.99103" lon="8.68856">
        <ele>557</ele>
        <time>2021-08-05T10:26:49.489Z</time>
      </trkpt>
      <trkpt lat="46.99104" lon="8.68857">
        <ele>557</ele>
        <time>2021-08-05T10:26:50.489Z</time>
      </trkpt>
      <trkpt lat="46.99104" lon="8.68859">
        <ele>558</ele>
        <time>2021-08-05T10:26:51.490Z</time>
      </trkpt>
      <trkpt lat="46.99105" lon="8.6886">
        <ele>558</ele>
        <time>2021-08-05T10:26:52.490Z</time>
      </trkpt>
      <trkpt lat="46.99106" lon="8.68861">
        <ele>558</ele>
        <time>2021-08-05T10:26:53.489Z</time>
      </trkpt>
      <trkpt lat="46.99106" lon="8.68862">
        <ele>557</ele>
        <time>2021-08-05T10:26:54.490Z</time>
      </trkpt>
      <trkpt lat="46.99107" lon="8.68863">
        <ele>557</ele>
        <time>2021-08-05T10:26:55.489Z</time>
      </trkpt>
      <trkpt lat="46.99107" lon="8.68864">
        <ele>557</ele>
        <time>2021-08-05T10:26:56.489Z</time>
      </trkpt>
      <trkpt lat="46.99108" lon="8.68866">
        <ele>557</ele>
        <time>2021-08-05T10:26:57.489Z</time>
      </trkpt>
      <trkpt lat="46.99108" lon="8.68867">
        <ele>557</ele>
        <time>2021-08-05T10:26:58.490Z</time>
      </trkpt>
      <trkpt lat="46.99109" lon="8.68868">
        <ele>557</ele>
        <time>2021-08-05T10:26:59.490Z</time>
      </trkpt>
      <trkpt lat="46.99109" lon="8.68869">
        <ele>557</ele>
        <time>2021-08-05T10:27:00.490Z</time>
      </trkpt>
      <trkpt lat="46.9911" lon="8.68871">
        <ele>556</ele>
        <time>2021-08-05T10:27:01.489Z</time>
      </trkpt>
      <trkpt lat="46.9911" lon="8.68872">
        <ele>556</ele>
        <time>2021-08-05T10:27:02.490Z</time>
      </trkpt>
      <trkpt lat="46.99111" lon="8.68873">
        <ele>556</ele>
        <time>2021-08-05T10:27:03.490Z</time>
      </trkpt>
      <trkpt lat="46.99112" lon="8.68874">
        <ele>557</ele>
        <time>2021-08-05T10:27:04.490Z</time>
      </trkpt>
      <trkpt lat="46.99112" lon="8.68876">
        <ele>557</ele>
        <time>2021-08-05T10:27:05.490Z</time>
      </trkpt>
      <trkpt lat="46.99113" lon="8.68877">
        <ele>558</ele>
        <time>2021-08-05T10:27:06.490Z</time>
      </trkpt>
      <trkpt lat="46.99113" lon="8.68878">
        <ele>558</ele>
        <time>2021-08-05T10:27:07.490Z</time>
      </trkpt>
      <trkpt lat="46.99114" lon="8.68879">
        <ele>558</ele>
        <time>2021-08-05T10:27:08.490Z</time>
      </trkpt>
      <trkpt lat="46.99115" lon="8.68879">
        <ele>560</ele>
        <time>2021-08-05T10:27:09.490Z</time>
      </trkpt>
      <trkpt lat="46.99115" lon="8.68879">
        <ele>560</ele>
        <time>2021-08-05T10:27:10.490Z</time>
      </trkpt>
      <trkpt lat="46.99115" lon="8.68878">
        <ele>561</ele>
        <time>2021-08-05T10:27:11.490Z</time>
      </trkpt>
      <trkpt lat="46.99114" lon="8.68879">
        <ele>556</ele>
        <time>2021-08-05T10:27:12.490Z</time>
      </trkpt>
      <trkpt lat="46.99114" lon="8.6888">
        <ele>557</ele>
        <time>2021-08-05T10:27:13.490Z</time>
      </trkpt>
      <trkpt lat="46.99115" lon="8.68882">
        <ele>557</ele>
        <time>2021-08-05T10:27:14.489Z</time>
      </trkpt>
      <trkpt lat="46.99115" lon="8.68884">
        <ele>558</ele>
        <time>2021-08-05T10:27:15.490Z</time>
      </trkpt>
      <trkpt lat="46.99115" lon="8.68885">
        <ele>558</ele>
        <time>2021-08-05T10:27:16.489Z</time>
      </trkpt>
      <trkpt lat="46.99116" lon="8.68887">
        <ele>558</ele>
        <time>2021-08-05T10:27:17.489Z</time>
      </trkpt>
      <trkpt lat="46.99117" lon="8.68888">
        <ele>558</ele>
        <time>2021-08-05T10:27:18.489Z</time>
      </trkpt>
      <trkpt lat="46.99117" lon="8.6889">
        <ele>558</ele>
        <time>2021-08-05T10:27:19.489Z</time>
      </trkpt>
      <trkpt lat="46.99117" lon="8.68892">
        <ele>558</ele>
        <time>2021-08-05T10:27:20.490Z</time>
      </trkpt>
      <trkpt lat="46.99118" lon="8.68894">
        <ele>558</ele>
        <time>2021-08-05T10:27:21.489Z</time>
      </trkpt>
      <trkpt lat="46.99118" lon="8.68895">
        <ele>559</ele>
        <time>2021-08-05T10:27:22.489Z</time>
      </trkpt>
      <trkpt lat="46.99119" lon="8.68897">
        <ele>559</ele>
        <time>2021-08-05T10:27:23.490Z</time>
      </trkpt>
      <trkpt lat="46.99119" lon="8.68899">
        <ele>559</ele>
        <time>2021-08-05T10:27:24.490Z</time>
      </trkpt>
      <trkpt lat="46.9912" lon="8.689">
        <ele>560</ele>
        <time>2021-08-05T10:27:25.489Z</time>
      </trkpt>
      <trkpt lat="46.9912" lon="8.68902">
        <ele>560</ele>
        <time>2021-08-05T10:27:26.489Z</time>
      </trkpt>
      <trkpt lat="46.99121" lon="8.68903">
        <ele>561</ele>
        <time>2021-08-05T10:27:27.489Z</time>
      </trkpt>
      <trkpt lat="46.99121" lon="8.68905">
        <ele>561</ele>
        <time>2021-08-05T10:27:28.490Z</time>
      </trkpt>
      <trkpt lat="46.99122" lon="8.68907">
        <ele>561</ele>
        <time>2021-08-05T10:27:29.489Z</time>
      </trkpt>
      <trkpt lat="46.99122" lon="8.68908">
        <ele>562</ele>
        <time>2021-08-05T10:27:30.489Z</time>
      </trkpt>
      <trkpt lat="46.99122" lon="8.68909">
        <ele>562</ele>
        <time>2021-08-05T10:27:31.489Z</time>
      </trkpt>
      <trkpt lat="46.99123" lon="8.68911">
        <ele>562</ele>
        <time>2021-08-05T10:27:32.489Z</time>
      </trkpt>
      <trkpt lat="46.99123" lon="8.68912">
        <ele>562</ele>
        <time>2021-08-05T10:27:33.489Z</time>
      </trkpt>
      <trkpt lat="46.99123" lon="8.68914">
        <ele>561</ele>
        <time>2021-08-05T10:27:34.489Z</time>
      </trkpt>
      <trkpt lat="46.99123" lon="8.68915">
        <ele>561</ele>
        <time>2021-08-05T10:27:35.489Z</time>
      </trkpt>
      <trkpt lat="46.99123" lon="8.68916">
        <ele>560</ele>
        <time>2021-08-05T10:27:36.489Z</time>
      </trkpt>
      <trkpt lat="46.99124" lon="8.68916">
        <ele>559</ele>
        <time>2021-08-05T10:27:37.489Z</time>
      </trkpt>
      <trkpt lat="46.99124" lon="8.68916">
        <ele>558</ele>
        <time>2021-08-05T10:27:38.489Z</time>
      </trkpt>
      <trkpt lat="46.99124" lon="8.68916">
        <ele>558</ele>
        <time>2021-08-05T10:27:39.490Z</time>
      </trkpt>
      <trkpt lat="46.99127" lon="8.68915">
        <ele>558</ele>
        <time>2021-08-05T10:27:40.489Z</time>
      </trkpt>
      <trkpt lat="46.99127" lon="8.68914">
        <ele>558</ele>
        <time>2021-08-05T10:27:41.489Z</time>
      </trkpt>
      <trkpt lat="46.99127" lon="8.68914">
        <ele>558</ele>
        <time>2021-08-05T10:27:42.489Z</time>
      </trkpt>
      <trkpt lat="46.99125" lon="8.68912">
        <ele>554</ele>
        <time>2021-08-05T10:27:43.490Z</time>
      </trkpt>
      <trkpt lat="46.99125" lon="8.68912">
        <ele>554</ele>
        <time>2021-08-05T10:27:44.489Z</time>
      </trkpt>
      <trkpt lat="46.99124" lon="8.68912">
        <ele>554</ele>
        <time>2021-08-05T10:27:45.489Z</time>
      </trkpt>
      <trkpt lat="46.99124" lon="8.68916">
        <ele>554</ele>
        <time>2021-08-05T10:27:46.489Z</time>
      </trkpt>
      <trkpt lat="46.99125" lon="8.68917">
        <ele>554</ele>
        <time>2021-08-05T10:27:47.489Z</time>
      </trkpt>
      <trkpt lat="46.99125" lon="8.68919">
        <ele>554</ele>
        <time>2021-08-05T10:27:48.489Z</time>
      </trkpt>
      <trkpt lat="46.99126" lon="8.6892">
        <ele>555</ele>
        <time>2021-08-05T10:27:49.489Z</time>
      </trkpt>
      <trkpt lat="46.99126" lon="8.68922">
        <ele>555</ele>
        <time>2021-08-05T10:27:50.490Z</time>
      </trkpt>
      <trkpt lat="46.99127" lon="8.68923">
        <ele>555</ele>
        <time>2021-08-05T10:27:51.489Z</time>
      </trkpt>
      <trkpt lat="46.99127" lon="8.68925">
        <ele>554</ele>
        <time>2021-08-05T10:27:52.490Z</time>
      </trkpt>
      <trkpt lat="46.99128" lon="8.68927">
        <ele>554</ele>
        <time>2021-08-05T10:27:53.490Z</time>
      </trkpt>
      <trkpt lat="46.99128" lon="8.68929">
        <ele>554</ele>
        <time>2021-08-05T10:27:54.490Z</time>
      </trkpt>
      <trkpt lat="46.99129" lon="8.68931">
        <ele>554</ele>
        <time>2021-08-05T10:27:55.489Z</time>
      </trkpt>
      <trkpt lat="46.99129" lon="8.68933">
        <ele>554</ele>
        <time>2021-08-05T10:27:56.489Z</time>
      </trkpt>
      <trkpt lat="46.9913" lon="8.68935">
        <ele>554</ele>
        <time>2021-08-05T10:27:57.490Z</time>
      </trkpt>
      <trkpt lat="46.9913" lon="8.68936">
        <ele>555</ele>
        <time>2021-08-05T10:27:58.489Z</time>
      </trkpt>
      <trkpt lat="46.99131" lon="8.68937">
        <ele>555</ele>
        <time>2021-08-05T10:27:59.489Z</time>
      </trkpt>
      <trkpt lat="46.99132" lon="8.68938">
        <ele>555</ele>
        <time>2021-08-05T10:28:00.490Z</time>
      </trkpt>
      <trkpt lat="46.99132" lon="8.68939">
        <ele>555</ele>
        <time>2021-08-05T10:28:01.489Z</time>
      </trkpt>
      <trkpt lat="46.99133" lon="8.6894">
        <ele>555</ele>
        <time>2021-08-05T10:28:02.490Z</time>
      </trkpt>
      <trkpt lat="46.99134" lon="8.68941">
        <ele>555</ele>
        <time>2021-08-05T10:28:03.489Z</time>
      </trkpt>
      <trkpt lat="46.99134" lon="8.68942">
        <ele>556</ele>
        <time>2021-08-05T10:28:04.489Z</time>
      </trkpt>
      <trkpt lat="46.99134" lon="8.68944">
        <ele>556</ele>
        <time>2021-08-05T10:28:05.490Z</time>
      </trkpt>
      <trkpt lat="46.99135" lon="8.68945">
        <ele>557</ele>
        <time>2021-08-05T10:28:06.490Z</time>
      </trkpt>
      <trkpt lat="46.99136" lon="8.68947">
        <ele>557</ele>
        <time>2021-08-05T10:28:07.490Z</time>
      </trkpt>
      <trkpt lat="46.99136" lon="8.68948">
        <ele>557</ele>
        <time>2021-08-05T10:28:08.489Z</time>
      </trkpt>
      <trkpt lat="46.99136" lon="8.6895">
        <ele>557</ele>
        <time>2021-08-05T10:28:09.489Z</time>
      </trkpt>
      <trkpt lat="46.99137" lon="8.68951">
        <ele>557</ele>
        <time>2021-08-05T10:28:10.489Z</time>
      </trkpt>
      <trkpt lat="46.99138" lon="8.68952">
        <ele>556</ele>
        <time>2021-08-05T10:28:11.490Z</time>
      </trkpt>
      <trkpt lat="46.99139" lon="8.68953">
        <ele>556</ele>
        <time>2021-08-05T10:28:12.490Z</time>
      </trkpt>
      <trkpt lat="46.99139" lon="8.68954">
        <ele>555</ele>
        <time>2021-08-05T10:28:13.489Z</time>
      </trkpt>
      <trkpt lat="46.9914" lon="8.68955">
        <ele>555</ele>
        <time>2021-08-05T10:28:14.489Z</time>
      </trkpt>
      <trkpt lat="46.99141" lon="8.68956">
        <ele>555</ele>
        <time>2021-08-05T10:28:15.490Z</time>
      </trkpt>
      <trkpt lat="46.99141" lon="8.68957">
        <ele>555</ele>
        <time>2021-08-05T10:28:16.490Z</time>
      </trkpt>
      <trkpt lat="46.99143" lon="8.68957">
        <ele>555</ele>
        <time>2021-08-05T10:28:17.490Z</time>
      </trkpt>
      <trkpt lat="46.99144" lon="8.68958">
        <ele>555</ele>
        <time>2021-08-05T10:28:18.489Z</time>
      </trkpt>
      <trkpt lat="46.99145" lon="8.68959">
        <ele>555</ele>
        <time>2021-08-05T10:28:19.490Z</time>
      </trkpt>
      <trkpt lat="46.99146" lon="8.6896">
        <ele>555</ele>
        <time>2021-08-05T10:28:20.490Z</time>
      </trkpt>
      <trkpt lat="46.99146" lon="8.68962">
        <ele>556</ele>
        <time>2021-08-05T10:28:21.489Z</time>
      </trkpt>
      <trkpt lat="46.99147" lon="8.68962">
        <ele>557</ele>
        <time>2021-08-05T10:28:22.489Z</time>
      </trkpt>
      <trkpt lat="46.99148" lon="8.68963">
        <ele>557</ele>
        <time>2021-08-05T10:28:23.489Z</time>
      </trkpt>
      <trkpt lat="46.99149" lon="8.68964">
        <ele>557</ele>
        <time>2021-08-05T10:28:24.489Z</time>
      </trkpt>
      <trkpt lat="46.9915" lon="8.68965">
        <ele>557</ele>
        <time>2021-08-05T10:28:25.489Z</time>
      </trkpt>
      <trkpt lat="46.99151" lon="8.68966">
        <ele>557</ele>
        <time>2021-08-05T10:28:26.489Z</time>
      </trkpt>
      <trkpt lat="46.99151" lon="8.68967">
        <ele>558</ele>
        <time>2021-08-05T10:28:27.489Z</time>
      </trkpt>
      <trkpt lat="46.99152" lon="8.68969">
        <ele>558</ele>
        <time>2021-08-05T10:28:28.489Z</time>
      </trkpt>
      <trkpt lat="46.99152" lon="8.6897">
        <ele>559</ele>
        <time>2021-08-05T10:28:29.489Z</time>
      </trkpt>
      <trkpt lat="46.99152" lon="8.68971">
        <ele>560</ele>
        <time>2021-08-05T10:28:30.489Z</time>
      </trkpt>
      <trkpt lat="46.99152" lon="8.68973">
        <ele>561</ele>
        <time>2021-08-05T10:28:31.489Z</time>
      </trkpt>
      <trkpt lat="46.99152" lon="8.68975">
        <ele>561</ele>
        <time>2021-08-05T10:28:32.490Z</time>
      </trkpt>
      <trkpt lat="46.99152" lon="8.68976">
        <ele>562</ele>
        <time>2021-08-05T10:28:33.490Z</time>
      </trkpt>
      <trkpt lat="46.99152" lon="8.68978">
        <ele>562</ele>
        <time>2021-08-05T10:28:34.489Z</time>
      </trkpt>
      <trkpt lat="46.99152" lon="8.68979">
        <ele>561</ele>
        <time>2021-08-05T10:28:35.489Z</time>
      </trkpt>
      <trkpt lat="46.99152" lon="8.68982">
        <ele>561</ele>
        <time>2021-08-05T10:28:36.489Z</time>
      </trkpt>
      <trkpt lat="46.99152" lon="8.68984">
        <ele>560</ele>
        <time>2021-08-05T10:28:37.490Z</time>
      </trkpt>
      <trkpt lat="46.99152" lon="8.68986">
        <ele>560</ele>
        <time>2021-08-05T10:28:38.490Z</time>
      </trkpt>
      <trkpt lat="46.99152" lon="8.68988">
        <ele>559</ele>
        <time>2021-08-05T10:28:39.490Z</time>
      </trkpt>
      <trkpt lat="46.99152" lon="8.68989">
        <ele>558</ele>
        <time>2021-08-05T10:28:40.490Z</time>
      </trkpt>
      <trkpt lat="46.99152" lon="8.68991">
        <ele>557</ele>
        <time>2021-08-05T10:28:41.489Z</time>
      </trkpt>
      <trkpt lat="46.99152" lon="8.68993">
        <ele>557</ele>
        <time>2021-08-05T10:28:42.489Z</time>
      </trkpt>
      <trkpt lat="46.99152" lon="8.68994">
        <ele>556</ele>
        <time>2021-08-05T10:28:43.490Z</time>
      </trkpt>
      <trkpt lat="46.99152" lon="8.68996">
        <ele>556</ele>
        <time>2021-08-05T10:28:44.490Z</time>
      </trkpt>
      <trkpt lat="46.99152" lon="8.68997">
        <ele>556</ele>
        <time>2021-08-05T10:28:45.490Z</time>
      </trkpt>
      <trkpt lat="46.99151" lon="8.68998">
        <ele>556</ele>
        <time>2021-08-05T10:28:46.489Z</time>
      </trkpt>
      <trkpt lat="46.99151" lon="8.69">
        <ele>556</ele>
        <time>2021-08-05T10:28:47.489Z</time>
      </trkpt>
      <trkpt lat="46.9915" lon="8.69001">
        <ele>556</ele>
        <time>2021-08-05T10:28:48.489Z</time>
      </trkpt>
      <trkpt lat="46.99149" lon="8.69003">
        <ele>556</ele>
        <time>2021-08-05T10:28:49.489Z</time>
      </trkpt>
      <trkpt lat="46.99149" lon="8.69004">
        <ele>556</ele>
        <time>2021-08-05T10:28:50.489Z</time>
      </trkpt>
      <trkpt lat="46.99148" lon="8.69005">
        <ele>556</ele>
        <time>2021-08-05T10:28:51.489Z</time>
      </trkpt>
      <trkpt lat="46.99148" lon="8.69007">
        <ele>556</ele>
        <time>2021-08-05T10:28:52.490Z</time>
      </trkpt>
      <trkpt lat="46.99147" lon="8.69009">
        <ele>556</ele>
        <time>2021-08-05T10:28:53.489Z</time>
      </trkpt>
      <trkpt lat="46.99147" lon="8.6901">
        <ele>555</ele>
        <time>2021-08-05T10:28:54.490Z</time>
      </trkpt>
      <trkpt lat="46.99147" lon="8.69012">
        <ele>555</ele>
        <time>2021-08-05T10:28:55.489Z</time>
      </trkpt>
      <trkpt lat="46.99147" lon="8.69013">
        <ele>554</ele>
        <time>2021-08-05T10:28:56.490Z</time>
      </trkpt>
      <trkpt lat="46.99147" lon="8.69014">
        <ele>554</ele>
        <time>2021-08-05T10:28:57.489Z</time>
      </trkpt>
      <trkpt lat="46.99147" lon="8.69015">
        <ele>554</ele>
        <time>2021-08-05T10:28:58.490Z</time>
      </trkpt>
      <trkpt lat="46.99147" lon="8.69017">
        <ele>554</ele>
        <time>2021-08-05T10:28:59.489Z</time>
      </trkpt>
      <trkpt lat="46.99147" lon="8.69019">
        <ele>553</ele>
        <time>2021-08-05T10:29:00.490Z</time>
      </trkpt>
      <trkpt lat="46.99147" lon="8.6902">
        <ele>553</ele>
        <time>2021-08-05T10:29:01.489Z</time>
      </trkpt>
      <trkpt lat="46.99147" lon="8.6902">
        <ele>553</ele>
        <time>2021-08-05T10:29:02.490Z</time>
      </trkpt>
      <trkpt lat="46.99147" lon="8.69021">
        <ele>553</ele>
        <time>2021-08-05T10:29:03.489Z</time>
      </trkpt>
      <trkpt lat="46.99147" lon="8.69022">
        <ele>552</ele>
        <time>2021-08-05T10:29:04.489Z</time>
      </trkpt>
      <trkpt lat="46.99147" lon="8.69023">
        <ele>552</ele>
        <time>2021-08-05T10:29:05.490Z</time>
      </trkpt>
      <trkpt lat="46.99147" lon="8.69025">
        <ele>553</ele>
        <time>2021-08-05T10:29:06.489Z</time>
      </trkpt>
      <trkpt lat="46.99145" lon="8.69027">
        <ele>553</ele>
        <time>2021-08-05T10:29:07.490Z</time>
      </trkpt>
      <trkpt lat="46.99145" lon="8.69028">
        <ele>554</ele>
        <time>2021-08-05T10:29:08.490Z</time>
      </trkpt>
      <trkpt lat="46.99144" lon="8.6903">
        <ele>554</ele>
        <time>2021-08-05T10:29:09.489Z</time>
      </trkpt>
      <trkpt lat="46.99143" lon="8.69031">
        <ele>554</ele>
        <time>2021-08-05T10:29:10.489Z</time>
      </trkpt>
      <trkpt lat="46.99143" lon="8.69032">
        <ele>555</ele>
        <time>2021-08-05T10:29:11.490Z</time>
      </trkpt>
      <trkpt lat="46.99142" lon="8.69035">
        <ele>555</ele>
        <time>2021-08-05T10:29:12.489Z</time>
      </trkpt>
      <trkpt lat="46.99141" lon="8.69036">
        <ele>555</ele>
        <time>2021-08-05T10:29:13.490Z</time>
      </trkpt>
      <trkpt lat="46.99139" lon="8.69038">
        <ele>556</ele>
        <time>2021-08-05T10:29:14.490Z</time>
      </trkpt>
      <trkpt lat="46.99139" lon="8.69039">
        <ele>556</ele>
        <time>2021-08-05T10:29:15.490Z</time>
      </trkpt>
      <trkpt lat="46.99138" lon="8.69041">
        <ele>556</ele>
        <time>2021-08-05T10:29:16.489Z</time>
      </trkpt>
      <trkpt lat="46.99138" lon="8.69042">
        <ele>557</ele>
        <time>2021-08-05T10:29:17.489Z</time>
      </trkpt>
      <trkpt lat="46.99138" lon="8.69043">
        <ele>556</ele>
        <time>2021-08-05T10:29:18.490Z</time>
      </trkpt>
      <trkpt lat="46.99137" lon="8.69044">
        <ele>556</ele>
        <time>2021-08-05T10:29:19.490Z</time>
      </trkpt>
      <trkpt lat="46.99137" lon="8.69046">
        <ele>556</ele>
        <time>2021-08-05T10:29:20.489Z</time>
      </trkpt>
      <trkpt lat="46.99137" lon="8.69047">
        <ele>555</ele>
        <time>2021-08-05T10:29:21.490Z</time>
      </trkpt>
      <trkpt lat="46.99137" lon="8.69048">
        <ele>555</ele>
        <time>2021-08-05T10:29:22.490Z</time>
      </trkpt>
      <trkpt lat="46.99137" lon="8.6905">
        <ele>554</ele>
        <time>2021-08-05T10:29:23.490Z</time>
      </trkpt>
      <trkpt lat="46.99137" lon="8.69051">
        <ele>554</ele>
        <time>2021-08-05T10:29:24.489Z</time>
      </trkpt>
      <trkpt lat="46.99136" lon="8.69052">
        <ele>553</ele>
        <time>2021-08-05T10:29:25.490Z</time>
      </trkpt>
      <trkpt lat="46.99136" lon="8.69054">
        <ele>553</ele>
        <time>2021-08-05T10:29:26.489Z</time>
      </trkpt>
      <trkpt lat="46.99136" lon="8.69055">
        <ele>553</ele>
        <time>2021-08-05T10:29:27.490Z</time>
      </trkpt>
      <trkpt lat="46.99136" lon="8.69057">
        <ele>553</ele>
        <time>2021-08-05T10:29:28.490Z</time>
      </trkpt>
      <trkpt lat="46.99136" lon="8.69058">
        <ele>553</ele>
        <time>2021-08-05T10:29:29.489Z</time>
      </trkpt>
      <trkpt lat="46.99136" lon="8.6906">
        <ele>553</ele>
        <time>2021-08-05T10:29:30.489Z</time>
      </trkpt>
      <trkpt lat="46.99136" lon="8.69061">
        <ele>553</ele>
        <time>2021-08-05T10:29:31.489Z</time>
      </trkpt>
      <trkpt lat="46.99136" lon="8.69062">
        <ele>553</ele>
        <time>2021-08-05T10:29:32.489Z</time>
      </trkpt>
      <trkpt lat="46.99136" lon="8.69064">
        <ele>553</ele>
        <time>2021-08-05T10:29:33.490Z</time>
      </trkpt>
      <trkpt lat="46.99136" lon="8.69065">
        <ele>554</ele>
        <time>2021-08-05T10:29:34.490Z</time>
      </trkpt>
      <trkpt lat="46.99136" lon="8.69066">
        <ele>554</ele>
        <time>2021-08-05T10:29:35.490Z</time>
      </trkpt>
      <trkpt lat="46.99136" lon="8.69068">
        <ele>554</ele>
        <time>2021-08-05T10:29:36.489Z</time>
      </trkpt>
      <trkpt lat="46.99135" lon="8.69068">
        <ele>554</ele>
        <time>2021-08-05T10:29:37.489Z</time>
      </trkpt>
      <trkpt lat="46.99135" lon="8.69069">
        <ele>554</ele>
        <time>2021-08-05T10:29:38.490Z</time>
      </trkpt>
      <trkpt lat="46.99135" lon="8.69069">
        <ele>554</ele>
        <time>2021-08-05T10:29:39.490Z</time>
      </trkpt>
      <trkpt lat="46.99134" lon="8.6907">
        <ele>554</ele>
        <time>2021-08-05T10:29:40.489Z</time>
      </trkpt>
      <trkpt lat="46.99132" lon="8.69071">
        <ele>554</ele>
        <time>2021-08-05T10:29:41.490Z</time>
      </trkpt>
      <trkpt lat="46.99131" lon="8.69073">
        <ele>555</ele>
        <time>2021-08-05T10:29:42.489Z</time>
      </trkpt>
      <trkpt lat="46.99131" lon="8.69074">
        <ele>555</ele>
        <time>2021-08-05T10:29:43.489Z</time>
      </trkpt>
      <trkpt lat="46.9913" lon="8.69075">
        <ele>555</ele>
        <time>2021-08-05T10:29:44.489Z</time>
      </trkpt>
      <trkpt lat="46.99129" lon="8.69078">
        <ele>556</ele>
        <time>2021-08-05T10:29:45.489Z</time>
      </trkpt>
      <trkpt lat="46.99128" lon="8.69079">
        <ele>556</ele>
        <time>2021-08-05T10:29:46.489Z</time>
      </trkpt>
      <trkpt lat="46.99128" lon="8.6908">
        <ele>557</ele>
        <time>2021-08-05T10:29:47.489Z</time>
      </trkpt>
      <trkpt lat="46.99127" lon="8.6908">
        <ele>557</ele>
        <time>2021-08-05T10:29:48.490Z</time>
      </trkpt>
      <trkpt lat="46.99127" lon="8.6908">
        <ele>558</ele>
        <time>2021-08-05T10:29:49.490Z</time>
      </trkpt>
      <trkpt lat="46.99127" lon="8.69081">
        <ele>558</ele>
        <time>2021-08-05T10:29:50.489Z</time>
      </trkpt>
      <trkpt lat="46.99128" lon="8.69082">
        <ele>558</ele>
        <time>2021-08-05T10:29:51.489Z</time>
      </trkpt>
      <trkpt lat="46.99127" lon="8.69082">
        <ele>559</ele>
        <time>2021-08-05T10:29:52.490Z</time>
      </trkpt>
      <trkpt lat="46.99127" lon="8.69083">
        <ele>559</ele>
        <time>2021-08-05T10:29:53.490Z</time>
      </trkpt>
      <trkpt lat="46.99125" lon="8.69083">
        <ele>560</ele>
        <time>2021-08-05T10:29:54.490Z</time>
      </trkpt>
      <trkpt lat="46.99124" lon="8.69083">
        <ele>561</ele>
        <time>2021-08-05T10:29:55.490Z</time>
      </trkpt>
      <trkpt lat="46.99123" lon="8.69083">
        <ele>562</ele>
        <time>2021-08-05T10:29:56.489Z</time>
      </trkpt>
      <trkpt lat="46.99123" lon="8.69084">
        <ele>562</ele>
        <time>2021-08-05T10:29:57.489Z</time>
      </trkpt>
      <trkpt lat="46.99122" lon="8.69086">
        <ele>562</ele>
        <time>2021-08-05T10:29:58.490Z</time>
      </trkpt>
      <trkpt lat="46.99121" lon="8.69087">
        <ele>562</ele>
        <time>2021-08-05T10:29:59.490Z</time>
      </trkpt>
      <trkpt lat="46.9912" lon="8.69088">
        <ele>561</ele>
        <time>2021-08-05T10:30:00.489Z</time>
      </trkpt>
      <trkpt lat="46.99119" lon="8.69089">
        <ele>561</ele>
        <time>2021-08-05T10:30:01.490Z</time>
      </trkpt>
      <trkpt lat="46.99119" lon="8.69089">
        <ele>561</ele>
        <time>2021-08-05T10:30:02.490Z</time>
      </trkpt>
      <trkpt lat="46.99118" lon="8.6909">
        <ele>560</ele>
        <time>2021-08-05T10:30:03.490Z</time>
      </trkpt>
      <trkpt lat="46.99117" lon="8.69091">
        <ele>560</ele>
        <time>2021-08-05T10:30:04.489Z</time>
      </trkpt>
      <trkpt lat="46.99116" lon="8.69092">
        <ele>560</ele>
        <time>2021-08-05T10:30:05.490Z</time>
      </trkpt>
      <trkpt lat="46.99116" lon="8.69094">
        <ele>559</ele>
        <time>2021-08-05T10:30:06.490Z</time>
      </trkpt>
      <trkpt lat="46.99115" lon="8.69095">
        <ele>559</ele>
        <time>2021-08-05T10:30:07.490Z</time>
      </trkpt>
      <trkpt lat="46.99114" lon="8.69096">
        <ele>559</ele>
        <time>2021-08-05T10:30:08.489Z</time>
      </trkpt>
      <trkpt lat="46.99113" lon="8.69098">
        <ele>558</ele>
        <time>2021-08-05T10:30:09.489Z</time>
      </trkpt>
      <trkpt lat="46.99112" lon="8.691">
        <ele>558</ele>
        <time>2021-08-05T10:30:10.489Z</time>
      </trkpt>
      <trkpt lat="46.99112" lon="8.69102">
        <ele>558</ele>
        <time>2021-08-05T10:30:11.490Z</time>
      </trkpt>
      <trkpt lat="46.99112" lon="8.69104">
        <ele>558</ele>
        <time>2021-08-05T10:30:12.490Z</time>
      </trkpt>
      <trkpt lat="46.99112" lon="8.69105">
        <ele>558</ele>
        <time>2021-08-05T10:30:13.490Z</time>
      </trkpt>
      <trkpt lat="46.99112" lon="8.69107">
        <ele>558</ele>
        <time>2021-08-05T10:30:14.490Z</time>
      </trkpt>
      <trkpt lat="46.99111" lon="8.69109">
        <ele>558</ele>
        <time>2021-08-05T10:30:15.490Z</time>
      </trkpt>
      <trkpt lat="46.9911" lon="8.69111">
        <ele>558</ele>
        <time>2021-08-05T10:30:16.490Z</time>
      </trkpt>
      <trkpt lat="46.99108" lon="8.69112">
        <ele>557</ele>
        <time>2021-08-05T10:30:17.489Z</time>
      </trkpt>
      <trkpt lat="46.99107" lon="8.69115">
        <ele>557</ele>
        <time>2021-08-05T10:30:18.490Z</time>
      </trkpt>
      <trkpt lat="46.99106" lon="8.69116">
        <ele>557</ele>
        <time>2021-08-05T10:30:19.489Z</time>
      </trkpt>
      <trkpt lat="46.99105" lon="8.69118">
        <ele>557</ele>
        <time>2021-08-05T10:30:20.489Z</time>
      </trkpt>
      <trkpt lat="46.99104" lon="8.6912">
        <ele>558</ele>
        <time>2021-08-05T10:30:21.489Z</time>
      </trkpt>
      <trkpt lat="46.99103" lon="8.69121">
        <ele>558</ele>
        <time>2021-08-05T10:30:22.489Z</time>
      </trkpt>
      <trkpt lat="46.99103" lon="8.69123">
        <ele>558</ele>
        <time>2021-08-05T10:30:23.489Z</time>
      </trkpt>
      <trkpt lat="46.99102" lon="8.69124">
        <ele>558</ele>
        <time>2021-08-05T10:30:24.489Z</time>
      </trkpt>
      <trkpt lat="46.99102" lon="8.69125">
        <ele>559</ele>
        <time>2021-08-05T10:30:25.490Z</time>
      </trkpt>
      <trkpt lat="46.99101" lon="8.69126">
        <ele>560</ele>
        <time>2021-08-05T10:30:26.489Z</time>
      </trkpt>
      <trkpt lat="46.99101" lon="8.69128">
        <ele>560</ele>
        <time>2021-08-05T10:30:27.490Z</time>
      </trkpt>
      <trkpt lat="46.991" lon="8.69129">
        <ele>560</ele>
        <time>2021-08-05T10:30:28.489Z</time>
      </trkpt>
      <trkpt lat="46.99099" lon="8.6913">
        <ele>561</ele>
        <time>2021-08-05T10:30:29.490Z</time>
      </trkpt>
      <trkpt lat="46.99099" lon="8.69132">
        <ele>561</ele>
        <time>2021-08-05T10:30:30.490Z</time>
      </trkpt>
      <trkpt lat="46.99099" lon="8.69134">
        <ele>562</ele>
        <time>2021-08-05T10:30:31.489Z</time>
      </trkpt>
      <trkpt lat="46.99098" lon="8.69136">
        <ele>562</ele>
        <time>2021-08-05T10:30:32.489Z</time>
      </trkpt>
      <trkpt lat="46.99098" lon="8.69137">
        <ele>561</ele>
        <time>2021-08-05T10:30:33.490Z</time>
      </trkpt>
      <trkpt lat="46.99098" lon="8.69139">
        <ele>561</ele>
        <time>2021-08-05T10:30:34.490Z</time>
      </trkpt>
      <trkpt lat="46.99098" lon="8.6914">
        <ele>561</ele>
        <time>2021-08-05T10:30:35.490Z</time>
      </trkpt>
      <trkpt lat="46.99097" lon="8.69142">
        <ele>561</ele>
        <time>2021-08-05T10:30:36.490Z</time>
      </trkpt>
      <trkpt lat="46.99096" lon="8.69144">
        <ele>562</ele>
        <time>2021-08-05T10:30:37.490Z</time>
      </trkpt>
      <trkpt lat="46.99095" lon="8.69147">
        <ele>562</ele>
        <time>2021-08-05T10:30:38.490Z</time>
      </trkpt>
      <trkpt lat="46.99094" lon="8.6915">
        <ele>563</ele>
        <time>2021-08-05T10:30:39.490Z</time>
      </trkpt>
      <trkpt lat="46.99094" lon="8.69152">
        <ele>563</ele>
        <time>2021-08-05T10:30:40.490Z</time>
      </trkpt>
      <trkpt lat="46.99094" lon="8.69154">
        <ele>563</ele>
        <time>2021-08-05T10:30:41.489Z</time>
      </trkpt>
      <trkpt lat="46.99093" lon="8.69156">
        <ele>564</ele>
        <time>2021-08-05T10:30:42.490Z</time>
      </trkpt>
      <trkpt lat="46.99093" lon="8.69157">
        <ele>563</ele>
        <time>2021-08-05T10:30:43.490Z</time>
      </trkpt>
      <trkpt lat="46.99093" lon="8.69159">
        <ele>563</ele>
        <time>2021-08-05T10:30:44.490Z</time>
      </trkpt>
      <trkpt lat="46.99093" lon="8.6916">
        <ele>563</ele>
        <time>2021-08-05T10:30:45.490Z</time>
      </trkpt>
      <trkpt lat="46.99093" lon="8.6916">
        <ele>563</ele>
        <time>2021-08-05T10:30:46.490Z</time>
      </trkpt>
      <trkpt lat="46.99093" lon="8.69161">
        <ele>562</ele>
        <time>2021-08-05T10:30:47.489Z</time>
      </trkpt>
      <trkpt lat="46.99094" lon="8.69163">
        <ele>562</ele>
        <time>2021-08-05T10:30:48.490Z</time>
      </trkpt>
      <trkpt lat="46.99093" lon="8.69164">
        <ele>562</ele>
        <time>2021-08-05T10:30:49.489Z</time>
      </trkpt>
      <trkpt lat="46.99093" lon="8.69166">
        <ele>561</ele>
        <time>2021-08-05T10:30:50.490Z</time>
      </trkpt>
      <trkpt lat="46.99093" lon="8.69167">
        <ele>560</ele>
        <time>2021-08-05T10:30:51.490Z</time>
      </trkpt>
      <trkpt lat="46.99093" lon="8.69168">
        <ele>560</ele>
        <time>2021-08-05T10:30:52.489Z</time>
      </trkpt>
      <trkpt lat="46.99093" lon="8.6917">
        <ele>560</ele>
        <time>2021-08-05T10:30:53.490Z</time>
      </trkpt>
      <trkpt lat="46.99093" lon="8.69171">
        <ele>559</ele>
        <time>2021-08-05T10:30:54.489Z</time>
      </trkpt>
      <trkpt lat="46.99092" lon="8.69172">
        <ele>559</ele>
        <time>2021-08-05T10:30:55.490Z</time>
      </trkpt>
      <trkpt lat="46.99091" lon="8.69173">
        <ele>558</ele>
        <time>2021-08-05T10:30:56.489Z</time>
      </trkpt>
      <trkpt lat="46.99091" lon="8.69174">
        <ele>558</ele>
        <time>2021-08-05T10:30:57.490Z</time>
      </trkpt>
      <trkpt lat="46.9909" lon="8.69175">
        <ele>557</ele>
        <time>2021-08-05T10:30:58.489Z</time>
      </trkpt>
      <trkpt lat="46.99089" lon="8.69176">
        <ele>557</ele>
        <time>2021-08-05T10:30:59.489Z</time>
      </trkpt>
      <trkpt lat="46.99088" lon="8.69177">
        <ele>558</ele>
        <time>2021-08-05T10:31:00.489Z</time>
      </trkpt>
      <trkpt lat="46.99088" lon="8.69179">
        <ele>558</ele>
        <time>2021-08-05T10:31:01.489Z</time>
      </trkpt>
      <trkpt lat="46.99087" lon="8.6918">
        <ele>559</ele>
        <time>2021-08-05T10:31:02.489Z</time>
      </trkpt>
      <trkpt lat="46.99087" lon="8.69182">
        <ele>559</ele>
        <time>2021-08-05T10:31:03.489Z</time>
      </trkpt>
      <trkpt lat="46.99087" lon="8.69183">
        <ele>559</ele>
        <time>2021-08-05T10:31:04.490Z</time>
      </trkpt>
      <trkpt lat="46.99087" lon="8.69185">
        <ele>559</ele>
        <time>2021-08-05T10:31:05.489Z</time>
      </trkpt>
      <trkpt lat="46.99087" lon="8.69187">
        <ele>559</ele>
        <time>2021-08-05T10:31:06.490Z</time>
      </trkpt>
      <trkpt lat="46.99087" lon="8.69189">
        <ele>559</ele>
        <time>2021-08-05T10:31:07.490Z</time>
      </trkpt>
      <trkpt lat="46.99087" lon="8.6919">
        <ele>560</ele>
        <time>2021-08-05T10:31:08.490Z</time>
      </trkpt>
      <trkpt lat="46.99086" lon="8.69192">
        <ele>560</ele>
        <time>2021-08-05T10:31:09.490Z</time>
      </trkpt>
      <trkpt lat="46.99086" lon="8.69194">
        <ele>560</ele>
        <time>2021-08-05T10:31:10.490Z</time>
      </trkpt>
      <trkpt lat="46.99086" lon="8.69195">
        <ele>560</ele>
        <time>2021-08-05T10:31:11.490Z</time>
      </trkpt>
      <trkpt lat="46.99085" lon="8.69196">
        <ele>560</ele>
        <time>2021-08-05T10:31:12.489Z</time>
      </trkpt>
      <trkpt lat="46.99085" lon="8.69197">
        <ele>559</ele>
        <time>2021-08-05T10:31:13.490Z</time>
      </trkpt>
      <trkpt lat="46.99084" lon="8.69198">
        <ele>559</ele>
        <time>2021-08-05T10:31:14.490Z</time>
      </trkpt>
      <trkpt lat="46.99084" lon="8.69199">
        <ele>559</ele>
        <time>2021-08-05T10:31:15.489Z</time>
      </trkpt>
      <trkpt lat="46.99084" lon="8.692">
        <ele>558</ele>
        <time>2021-08-05T10:31:16.490Z</time>
      </trkpt>
      <trkpt lat="46.99084" lon="8.69202">
        <ele>558</ele>
        <time>2021-08-05T10:31:17.489Z</time>
      </trkpt>
      <trkpt lat="46.99083" lon="8.69203">
        <ele>557</ele>
        <time>2021-08-05T10:31:18.490Z</time>
      </trkpt>
      <trkpt lat="46.99083" lon="8.69204">
        <ele>556</ele>
        <time>2021-08-05T10:31:19.490Z</time>
      </trkpt>
      <trkpt lat="46.99082" lon="8.69206">
        <ele>556</ele>
        <time>2021-08-05T10:31:20.490Z</time>
      </trkpt>
      <trkpt lat="46.99082" lon="8.69207">
        <ele>555</ele>
        <time>2021-08-05T10:31:21.489Z</time>
      </trkpt>
      <trkpt lat="46.99081" lon="8.69208">
        <ele>555</ele>
        <time>2021-08-05T10:31:22.489Z</time>
      </trkpt>
      <trkpt lat="46.9908" lon="8.6921">
        <ele>555</ele>
        <time>2021-08-05T10:31:23.490Z</time>
      </trkpt>
      <trkpt lat="46.99079" lon="8.69211">
        <ele>554</ele>
        <time>2021-08-05T10:31:24.489Z</time>
      </trkpt>
      <trkpt lat="46.99078" lon="8.69212">
        <ele>554</ele>
        <time>2021-08-05T10:31:25.489Z</time>
      </trkpt>
      <trkpt lat="46.99077" lon="8.69214">
        <ele>554</ele>
        <time>2021-08-05T10:31:26.489Z</time>
      </trkpt>
      <trkpt lat="46.99077" lon="8.69215">
        <ele>554</ele>
        <time>2021-08-05T10:31:27.489Z</time>
      </trkpt>
      <trkpt lat="46.99076" lon="8.69216">
        <ele>554</ele>
        <time>2021-08-05T10:31:28.490Z</time>
      </trkpt>
      <trkpt lat="46.99076" lon="8.69217">
        <ele>554</ele>
        <time>2021-08-05T10:31:29.489Z</time>
      </trkpt>
      <trkpt lat="46.99076" lon="8.69219">
        <ele>554</ele>
        <time>2021-08-05T10:31:30.490Z</time>
      </trkpt>
      <trkpt lat="46.99075" lon="8.6922">
        <ele>555</ele>
        <time>2021-08-05T10:31:31.490Z</time>
      </trkpt>
      <trkpt lat="46.99075" lon="8.69222">
        <ele>555</ele>
        <time>2021-08-05T10:31:32.489Z</time>
      </trkpt>
      <trkpt lat="46.99075" lon="8.69223">
        <ele>555</ele>
        <time>2021-08-05T10:31:33.490Z</time>
      </trkpt>
      <trkpt lat="46.99074" lon="8.69225">
        <ele>556</ele>
        <time>2021-08-05T10:31:34.489Z</time>
      </trkpt>
      <trkpt lat="46.99074" lon="8.69226">
        <ele>556</ele>
        <time>2021-08-05T10:31:35.490Z</time>
      </trkpt>
      <trkpt lat="46.99073" lon="8.69228">
        <ele>557</ele>
        <time>2021-08-05T10:31:36.489Z</time>
      </trkpt>
      <trkpt lat="46.99073" lon="8.69229">
        <ele>557</ele>
        <time>2021-08-05T10:31:37.490Z</time>
      </trkpt>
      <trkpt lat="46.99072" lon="8.6923">
        <ele>557</ele>
        <time>2021-08-05T10:31:38.490Z</time>
      </trkpt>
      <trkpt lat="46.99072" lon="8.69232">
        <ele>557</ele>
        <time>2021-08-05T10:31:39.489Z</time>
      </trkpt>
      <trkpt lat="46.99071" lon="8.69233">
        <ele>556</ele>
        <time>2021-08-05T10:31:40.490Z</time>
      </trkpt>
      <trkpt lat="46.9907" lon="8.69235">
        <ele>556</ele>
        <time>2021-08-05T10:31:41.490Z</time>
      </trkpt>
      <trkpt lat="46.9907" lon="8.69237">
        <ele>556</ele>
        <time>2021-08-05T10:31:42.490Z</time>
      </trkpt>
      <trkpt lat="46.9907" lon="8.6924">
        <ele>556</ele>
        <time>2021-08-05T10:31:43.490Z</time>
      </trkpt>
      <trkpt lat="46.99069" lon="8.69241">
        <ele>556</ele>
        <time>2021-08-05T10:31:44.490Z</time>
      </trkpt>
      <trkpt lat="46.99068" lon="8.69243">
        <ele>555</ele>
        <time>2021-08-05T10:31:45.490Z</time>
      </trkpt>
      <trkpt lat="46.99068" lon="8.69245">
        <ele>555</ele>
        <time>2021-08-05T10:31:46.489Z</time>
      </trkpt>
      <trkpt lat="46.99067" lon="8.69246">
        <ele>555</ele>
        <time>2021-08-05T10:31:47.489Z</time>
      </trkpt>
      <trkpt lat="46.99066" lon="8.69248">
        <ele>555</ele>
        <time>2021-08-05T10:31:48.489Z</time>
      </trkpt>
      <trkpt lat="46.99065" lon="8.6925">
        <ele>555</ele>
        <time>2021-08-05T10:31:49.490Z</time>
      </trkpt>
      <trkpt lat="46.99065" lon="8.69251">
        <ele>555</ele>
        <time>2021-08-05T10:31:50.489Z</time>
      </trkpt>
      <trkpt lat="46.99064" lon="8.69253">
        <ele>555</ele>
        <time>2021-08-05T10:31:51.490Z</time>
      </trkpt>
      <trkpt lat="46.99063" lon="8.69254">
        <ele>555</ele>
        <time>2021-08-05T10:31:52.490Z</time>
      </trkpt>
      <trkpt lat="46.99063" lon="8.69256">
        <ele>554</ele>
        <time>2021-08-05T10:31:53.489Z</time>
      </trkpt>
      <trkpt lat="46.99062" lon="8.69258">
        <ele>554</ele>
        <time>2021-08-05T10:31:54.490Z</time>
      </trkpt>
      <trkpt lat="46.99062" lon="8.6926">
        <ele>554</ele>
        <time>2021-08-05T10:31:55.490Z</time>
      </trkpt>
      <trkpt lat="46.99061" lon="8.69261">
        <ele>554</ele>
        <time>2021-08-05T10:31:56.490Z</time>
      </trkpt>
      <trkpt lat="46.99061" lon="8.69263">
        <ele>553</ele>
        <time>2021-08-05T10:31:57.490Z</time>
      </trkpt>
      <trkpt lat="46.9906" lon="8.69264">
        <ele>553</ele>
        <time>2021-08-05T10:31:58.490Z</time>
      </trkpt>
      <trkpt lat="46.99059" lon="8.69265">
        <ele>553</ele>
        <time>2021-08-05T10:31:59.490Z</time>
      </trkpt>
      <trkpt lat="46.99059" lon="8.69267">
        <ele>554</ele>
        <time>2021-08-05T10:32:00.490Z</time>
      </trkpt>
      <trkpt lat="46.99058" lon="8.69268">
        <ele>554</ele>
        <time>2021-08-05T10:32:01.490Z</time>
      </trkpt>
      <trkpt lat="46.99058" lon="8.6927">
        <ele>554</ele>
        <time>2021-08-05T10:32:02.490Z</time>
      </trkpt>
      <trkpt lat="46.99057" lon="8.69272">
        <ele>554</ele>
        <time>2021-08-05T10:32:03.490Z</time>
      </trkpt>
      <trkpt lat="46.99057" lon="8.69274">
        <ele>554</ele>
        <time>2021-08-05T10:32:04.490Z</time>
      </trkpt>
      <trkpt lat="46.99057" lon="8.69275">
        <ele>555</ele>
        <time>2021-08-05T10:32:05.490Z</time>
      </trkpt>
      <trkpt lat="46.99056" lon="8.69277">
        <ele>555</ele>
        <time>2021-08-05T10:32:06.490Z</time>
      </trkpt>
      <trkpt lat="46.99056" lon="8.69279">
        <ele>556</ele>
        <time>2021-08-05T10:32:07.490Z</time>
      </trkpt>
      <trkpt lat="46.99055" lon="8.69281">
        <ele>556</ele>
        <time>2021-08-05T10:32:08.489Z</time>
      </trkpt>
      <trkpt lat="46.99055" lon="8.69282">
        <ele>556</ele>
        <time>2021-08-05T10:32:09.490Z</time>
      </trkpt>
      <trkpt lat="46.99054" lon="8.69284">
        <ele>556</ele>
        <time>2021-08-05T10:32:10.489Z</time>
      </trkpt>
      <trkpt lat="46.99054" lon="8.69285">
        <ele>557</ele>
        <time>2021-08-05T10:32:11.490Z</time>
      </trkpt>
      <trkpt lat="46.99053" lon="8.69287">
        <ele>557</ele>
        <time>2021-08-05T10:32:12.490Z</time>
      </trkpt>
      <trkpt lat="46.99052" lon="8.69288">
        <ele>557</ele>
        <time>2021-08-05T10:32:13.489Z</time>
      </trkpt>
      <trkpt lat="46.99052" lon="8.6929">
        <ele>557</ele>
        <time>2021-08-05T10:32:14.489Z</time>
      </trkpt>
      <trkpt lat="46.99051" lon="8.69291">
        <ele>558</ele>
        <time>2021-08-05T10:32:15.490Z</time>
      </trkpt>
      <trkpt lat="46.99051" lon="8.69293">
        <ele>558</ele>
        <time>2021-08-05T10:32:16.490Z</time>
      </trkpt>
      <trkpt lat="46.9905" lon="8.69295">
        <ele>559</ele>
        <time>2021-08-05T10:32:17.490Z</time>
      </trkpt>
      <trkpt lat="46.99049" lon="8.69296">
        <ele>559</ele>
        <time>2021-08-05T10:32:18.489Z</time>
      </trkpt>
      <trkpt lat="46.99049" lon="8.69298">
        <ele>560</ele>
        <time>2021-08-05T10:32:19.489Z</time>
      </trkpt>
      <trkpt lat="46.99048" lon="8.69299">
        <ele>560</ele>
        <time>2021-08-05T10:32:20.490Z</time>
      </trkpt>
      <trkpt lat="46.99047" lon="8.693">
        <ele>559</ele>
        <time>2021-08-05T10:32:21.489Z</time>
      </trkpt>
      <trkpt lat="46.99047" lon="8.69302">
        <ele>559</ele>
        <time>2021-08-05T10:32:22.490Z</time>
      </trkpt>
      <trkpt lat="46.99046" lon="8.69303">
        <ele>558</ele>
        <time>2021-08-05T10:32:23.490Z</time>
      </trkpt>
      <trkpt lat="46.99045" lon="8.69304">
        <ele>557</ele>
        <time>2021-08-05T10:32:24.490Z</time>
      </trkpt>
      <trkpt lat="46.99044" lon="8.69305">
        <ele>557</ele>
        <time>2021-08-05T10:32:25.490Z</time>
      </trkpt>
      <trkpt lat="46.99043" lon="8.69307">
        <ele>556</ele>
        <time>2021-08-05T10:32:26.489Z</time>
      </trkpt>
      <trkpt lat="46.99043" lon="8.69308">
        <ele>556</ele>
        <time>2021-08-05T10:32:27.490Z</time>
      </trkpt>
      <trkpt lat="46.99043" lon="8.69309">
        <ele>555</ele>
        <time>2021-08-05T10:32:28.490Z</time>
      </trkpt>
      <trkpt lat="46.99042" lon="8.6931">
        <ele>555</ele>
        <time>2021-08-05T10:32:29.490Z</time>
      </trkpt>
      <trkpt lat="46.99042" lon="8.69312">
        <ele>555</ele>
        <time>2021-08-05T10:32:30.490Z</time>
      </trkpt>
      <trkpt lat="46.99041" lon="8.69313">
        <ele>555</ele>
        <time>2021-08-05T10:32:31.490Z</time>
      </trkpt>
      <trkpt lat="46.99041" lon="8.69315">
        <ele>555</ele>
        <time>2021-08-05T10:32:32.489Z</time>
      </trkpt>
      <trkpt lat="46.9904" lon="8.69317">
        <ele>556</ele>
        <time>2021-08-05T10:32:33.490Z</time>
      </trkpt>
      <trkpt lat="46.99039" lon="8.69318">
        <ele>556</ele>
        <time>2021-08-05T10:32:34.489Z</time>
      </trkpt>
      <trkpt lat="46.99039" lon="8.6932">
        <ele>556</ele>
        <time>2021-08-05T10:32:35.490Z</time>
      </trkpt>
      <trkpt lat="46.99038" lon="8.69321">
        <ele>557</ele>
        <time>2021-08-05T10:32:36.490Z</time>
      </trkpt>
      <trkpt lat="46.99038" lon="8.69323">
        <ele>557</ele>
        <time>2021-08-05T10:32:37.490Z</time>
      </trkpt>
      <trkpt lat="46.99037" lon="8.69324">
        <ele>556</ele>
        <time>2021-08-05T10:32:38.489Z</time>
      </trkpt>
      <trkpt lat="46.99037" lon="8.69326">
        <ele>556</ele>
        <time>2021-08-05T10:32:39.490Z</time>
      </trkpt>
      <trkpt lat="46.99036" lon="8.69327">
        <ele>557</ele>
        <time>2021-08-05T10:32:40.489Z</time>
      </trkpt>
      <trkpt lat="46.99035" lon="8.69328">
        <ele>557</ele>
        <time>2021-08-05T10:32:41.489Z</time>
      </trkpt>
      <trkpt lat="46.99035" lon="8.6933">
        <ele>557</ele>
        <time>2021-08-05T10:32:42.489Z</time>
      </trkpt>
      <trkpt lat="46.99034" lon="8.69331">
        <ele>558</ele>
        <time>2021-08-05T10:32:43.489Z</time>
      </trkpt>
      <trkpt lat="46.99034" lon="8.69333">
        <ele>558</ele>
        <time>2021-08-05T10:32:44.489Z</time>
      </trkpt>
      <trkpt lat="46.99033" lon="8.69334">
        <ele>559</ele>
        <time>2021-08-05T10:32:45.489Z</time>
      </trkpt>
      <trkpt lat="46.99032" lon="8.69335">
        <ele>559</ele>
        <time>2021-08-05T10:32:46.490Z</time>
      </trkpt>
      <trkpt lat="46.99032" lon="8.69336">
        <ele>560</ele>
        <time>2021-08-05T10:32:47.490Z</time>
      </trkpt>
      <trkpt lat="46.99031" lon="8.69338">
        <ele>560</ele>
        <time>2021-08-05T10:32:48.490Z</time>
      </trkpt>
      <trkpt lat="46.99031" lon="8.69339">
        <ele>560</ele>
        <time>2021-08-05T10:32:49.490Z</time>
      </trkpt>
      <trkpt lat="46.9903" lon="8.69341">
        <ele>560</ele>
        <time>2021-08-05T10:32:50.490Z</time>
      </trkpt>
      <trkpt lat="46.99029" lon="8.69342">
        <ele>560</ele>
        <time>2021-08-05T10:32:51.490Z</time>
      </trkpt>
      <trkpt lat="46.99029" lon="8.69344">
        <ele>560</ele>
        <time>2021-08-05T10:32:52.489Z</time>
      </trkpt>
      <trkpt lat="46.99028" lon="8.69345">
        <ele>560</ele>
        <time>2021-08-05T10:32:53.489Z</time>
      </trkpt>
      <trkpt lat="46.99027" lon="8.69346">
        <ele>561</ele>
        <time>2021-08-05T10:32:54.490Z</time>
      </trkpt>
      <trkpt lat="46.99027" lon="8.69347">
        <ele>561</ele>
        <time>2021-08-05T10:32:55.489Z</time>
      </trkpt>
      <trkpt lat="46.99026" lon="8.69349">
        <ele>561</ele>
        <time>2021-08-05T10:32:56.489Z</time>
      </trkpt>
      <trkpt lat="46.99026" lon="8.6935">
        <ele>561</ele>
        <time>2021-08-05T10:32:57.490Z</time>
      </trkpt>
      <trkpt lat="46.99026" lon="8.69351">
        <ele>562</ele>
        <time>2021-08-05T10:32:58.489Z</time>
      </trkpt>
      <trkpt lat="46.99025" lon="8.69353">
        <ele>562</ele>
        <time>2021-08-05T10:32:59.490Z</time>
      </trkpt>
      <trkpt lat="46.99024" lon="8.69354">
        <ele>562</ele>
        <time>2021-08-05T10:33:00.490Z</time>
      </trkpt>
      <trkpt lat="46.99023" lon="8.69355">
        <ele>562</ele>
        <time>2021-08-05T10:33:01.490Z</time>
      </trkpt>
      <trkpt lat="46.99022" lon="8.69355">
        <ele>562</ele>
        <time>2021-08-05T10:33:02.490Z</time>
      </trkpt>
      <trkpt lat="46.99021" lon="8.69356">
        <ele>562</ele>
        <time>2021-08-05T10:33:03.490Z</time>
      </trkpt>
      <trkpt lat="46.99019" lon="8.69358">
        <ele>563</ele>
        <time>2021-08-05T10:33:04.489Z</time>
      </trkpt>
      <trkpt lat="46.99018" lon="8.69359">
        <ele>563</ele>
        <time>2021-08-05T10:33:05.490Z</time>
      </trkpt>
      <trkpt lat="46.99018" lon="8.6936">
        <ele>564</ele>
        <time>2021-08-05T10:33:06.490Z</time>
      </trkpt>
      <trkpt lat="46.99017" lon="8.69362">
        <ele>564</ele>
        <time>2021-08-05T10:33:07.489Z</time>
      </trkpt>
      <trkpt lat="46.99017" lon="8.69364">
        <ele>563</ele>
        <time>2021-08-05T10:33:08.490Z</time>
      </trkpt>
      <trkpt lat="46.99016" lon="8.69365">
        <ele>563</ele>
        <time>2021-08-05T10:33:09.490Z</time>
      </trkpt>
      <trkpt lat="46.99016" lon="8.69367">
        <ele>563</ele>
        <time>2021-08-05T10:33:10.490Z</time>
      </trkpt>
      <trkpt lat="46.99016" lon="8.69368">
        <ele>562</ele>
        <time>2021-08-05T10:33:11.490Z</time>
      </trkpt>
      <trkpt lat="46.99016" lon="8.69369">
        <ele>561</ele>
        <time>2021-08-05T10:33:12.490Z</time>
      </trkpt>
      <trkpt lat="46.99017" lon="8.69369">
        <ele>560</ele>
        <time>2021-08-05T10:33:13.490Z</time>
      </trkpt>
      <trkpt lat="46.99017" lon="8.6937">
        <ele>559</ele>
        <time>2021-08-05T10:33:14.490Z</time>
      </trkpt>
      <trkpt lat="46.99017" lon="8.69371">
        <ele>558</ele>
        <time>2021-08-05T10:33:15.489Z</time>
      </trkpt>
      <trkpt lat="46.99017" lon="8.69372">
        <ele>557</ele>
        <time>2021-08-05T10:33:16.489Z</time>
      </trkpt>
      <trkpt lat="46.99019" lon="8.69378">
        <ele>552</ele>
        <time>2021-08-05T10:33:17.489Z</time>
      </trkpt>
      <trkpt lat="46.99019" lon="8.69378">
        <ele>551</ele>
        <time>2021-08-05T10:33:18.490Z</time>
      </trkpt>
      <trkpt lat="46.99019" lon="8.69379">
        <ele>551</ele>
        <time>2021-08-05T10:33:19.489Z</time>
      </trkpt>
      <trkpt lat="46.99019" lon="8.69379">
        <ele>550</ele>
        <time>2021-08-05T10:33:20.489Z</time>
      </trkpt>
      <trkpt lat="46.99019" lon="8.69379">
        <ele>550</ele>
        <time>2021-08-05T10:33:21.489Z</time>
      </trkpt>
      <trkpt lat="46.9902" lon="8.6938">
        <ele>550</ele>
        <time>2021-08-05T10:33:22.490Z</time>
      </trkpt>
      <trkpt lat="46.9902" lon="8.69381">
        <ele>550</ele>
        <time>2021-08-05T10:33:23.490Z</time>
      </trkpt>
      <trkpt lat="46.99027" lon="8.69381">
        <ele>549</ele>
        <time>2021-08-05T10:33:24.491Z</time>
      </trkpt>
      <trkpt lat="46.99027" lon="8.6938">
        <ele>550</ele>
        <time>2021-08-05T10:33:25.491Z</time>
      </trkpt>
      <trkpt lat="46.99028" lon="8.69379">
        <ele>550</ele>
        <time>2021-08-05T10:33:26.490Z</time>
      </trkpt>
      <trkpt lat="46.99029" lon="8.69378">
        <ele>551</ele>
        <time>2021-08-05T10:33:27.491Z</time>
      </trkpt>
      <trkpt lat="46.99029" lon="8.69378">
        <ele>552</ele>
        <time>2021-08-05T10:33:28.491Z</time>
      </trkpt>
      <trkpt lat="46.99029" lon="8.69379">
        <ele>552</ele>
        <time>2021-08-05T10:33:29.490Z</time>
      </trkpt>
      <trkpt lat="46.99029" lon="8.6938">
        <ele>552</ele>
        <time>2021-08-05T10:33:30.490Z</time>
      </trkpt>
      <trkpt lat="46.9903" lon="8.6938">
        <ele>553</ele>
        <time>2021-08-05T10:33:31.490Z</time>
      </trkpt>
      <trkpt lat="46.99031" lon="8.6938">
        <ele>553</ele>
        <time>2021-08-05T10:33:32.490Z</time>
      </trkpt>
      <trkpt lat="46.99031" lon="8.6938">
        <ele>553</ele>
        <time>2021-08-05T10:33:33.490Z</time>
      </trkpt>
      <trkpt lat="46.99032" lon="8.6938">
        <ele>553</ele>
        <time>2021-08-05T10:33:34.491Z</time>
      </trkpt>
      <trkpt lat="46.99032" lon="8.6938">
        <ele>554</ele>
        <time>2021-08-05T10:33:35.490Z</time>
      </trkpt>
      <trkpt lat="46.99031" lon="8.69381">
        <ele>556</ele>
        <time>2021-08-05T10:33:36.490Z</time>
      </trkpt>
      <trkpt lat="46.99031" lon="8.69382">
        <ele>557</ele>
        <time>2021-08-05T10:33:37.490Z</time>
      </trkpt>
      <trkpt lat="46.99031" lon="8.69383">
        <ele>557</ele>
        <time>2021-08-05T10:33:38.490Z</time>
      </trkpt>
      <trkpt lat="46.9903" lon="8.69384">
        <ele>557</ele>
        <time>2021-08-05T10:33:39.490Z</time>
      </trkpt>
      <trkpt lat="46.99028" lon="8.69387">
        <ele>559</ele>
        <time>2021-08-05T10:33:40.490Z</time>
      </trkpt>
      <trkpt lat="46.99027" lon="8.69387">
        <ele>559</ele>
        <time>2021-08-05T10:33:41.491Z</time>
      </trkpt>
      <trkpt lat="46.99026" lon="8.69387">
        <ele>559</ele>
        <time>2021-08-05T10:33:42.490Z</time>
      </trkpt>
      <trkpt lat="46.99024" lon="8.69386">
        <ele>559</ele>
        <time>2021-08-05T10:33:43.490Z</time>
      </trkpt>
      <trkpt lat="46.99024" lon="8.69384">
        <ele>558</ele>
        <time>2021-08-05T10:33:44.490Z</time>
      </trkpt>
      <trkpt lat="46.99023" lon="8.69383">
        <ele>558</ele>
        <time>2021-08-05T10:33:45.490Z</time>
      </trkpt>
      <trkpt lat="46.99023" lon="8.69382">
        <ele>558</ele>
        <time>2021-08-05T10:33:46.491Z</time>
      </trkpt>
      <trkpt lat="46.99022" lon="8.69381">
        <ele>558</ele>
        <time>2021-08-05T10:33:47.491Z</time>
      </trkpt>
      <trkpt lat="46.99022" lon="8.69381">
        <ele>558</ele>
        <time>2021-08-05T10:33:48.491Z</time>
      </trkpt>
      <trkpt lat="46.99021" lon="8.6938">
        <ele>558</ele>
        <time>2021-08-05T10:33:49.491Z</time>
      </trkpt>
      <trkpt lat="46.9902" lon="8.6938">
        <ele>558</ele>
        <time>2021-08-05T10:33:50.491Z</time>
      </trkpt>
      <trkpt lat="46.99019" lon="8.6938">
        <ele>559</ele>
        <time>2021-08-05T10:33:51.490Z</time>
      </trkpt>
      <trkpt lat="46.99019" lon="8.69381">
        <ele>559</ele>
        <time>2021-08-05T10:33:52.491Z</time>
      </trkpt>
      <trkpt lat="46.99018" lon="8.69382">
        <ele>559</ele>
        <time>2021-08-05T10:33:53.491Z</time>
      </trkpt>
      <trkpt lat="46.99017" lon="8.69383">
        <ele>559</ele>
        <time>2021-08-05T10:33:54.491Z</time>
      </trkpt>
      <trkpt lat="46.99017" lon="8.69384">
        <ele>559</ele>
        <time>2021-08-05T10:33:55.491Z</time>
      </trkpt>
      <trkpt lat="46.99016" lon="8.69385">
        <ele>560</ele>
        <time>2021-08-05T10:33:56.491Z</time>
      </trkpt>
      <trkpt lat="46.99016" lon="8.69386">
        <ele>560</ele>
        <time>2021-08-05T10:33:57.490Z</time>
      </trkpt>
      <trkpt lat="46.99016" lon="8.69387">
        <ele>561</ele>
        <time>2021-08-05T10:33:58.491Z</time>
      </trkpt>
      <trkpt lat="46.99016" lon="8.69388">
        <ele>561</ele>
        <time>2021-08-05T10:33:59.491Z</time>
      </trkpt>
      <trkpt lat="46.99016" lon="8.6939">
        <ele>561</ele>
        <time>2021-08-05T10:34:00.491Z</time>
      </trkpt>
      <trkpt lat="46.99016" lon="8.69391">
        <ele>560</ele>
        <time>2021-08-05T10:34:01.491Z</time>
      </trkpt>
      <trkpt lat="46.99016" lon="8.69391">
        <ele>560</ele>
        <time>2021-08-05T10:34:02.491Z</time>
      </trkpt>
      <trkpt lat="46.99016" lon="8.69392">
        <ele>560</ele>
        <time>2021-08-05T10:34:03.491Z</time>
      </trkpt>
      <trkpt lat="46.99016" lon="8.69392">
        <ele>560</ele>
        <time>2021-08-05T10:34:04.491Z</time>
      </trkpt>
      <trkpt lat="46.99017" lon="8.69394">
        <ele>559</ele>
        <time>2021-08-05T10:34:05.491Z</time>
      </trkpt>
      <trkpt lat="46.99016" lon="8.69395">
        <ele>559</ele>
        <time>2021-08-05T10:34:06.491Z</time>
      </trkpt>
      <trkpt lat="46.99015" lon="8.69397">
        <ele>558</ele>
        <time>2021-08-05T10:34:07.491Z</time>
      </trkpt>
      <trkpt lat="46.99014" lon="8.69398">
        <ele>558</ele>
        <time>2021-08-05T10:34:08.491Z</time>
      </trkpt>
      <trkpt lat="46.99013" lon="8.69399">
        <ele>558</ele>
        <time>2021-08-05T10:34:09.491Z</time>
      </trkpt>
      <trkpt lat="46.99012" lon="8.694">
        <ele>558</ele>
        <time>2021-08-05T10:34:10.490Z</time>
      </trkpt>
      <trkpt lat="46.9901" lon="8.694">
        <ele>558</ele>
        <time>2021-08-05T10:34:11.491Z</time>
      </trkpt>
      <trkpt lat="46.99009" lon="8.69401">
        <ele>557</ele>
        <time>2021-08-05T10:34:12.491Z</time>
      </trkpt>
      <trkpt lat="46.99007" lon="8.69401">
        <ele>557</ele>
        <time>2021-08-05T10:34:13.491Z</time>
      </trkpt>
      <trkpt lat="46.99006" lon="8.69403">
        <ele>557</ele>
        <time>2021-08-05T10:34:14.490Z</time>
      </trkpt>
      <trkpt lat="46.99005" lon="8.69404">
        <ele>557</ele>
        <time>2021-08-05T10:34:15.491Z</time>
      </trkpt>
      <trkpt lat="46.99004" lon="8.69406">
        <ele>557</ele>
        <time>2021-08-05T10:34:16.490Z</time>
      </trkpt>
      <trkpt lat="46.99003" lon="8.69407">
        <ele>557</ele>
        <time>2021-08-05T10:34:17.490Z</time>
      </trkpt>
      <trkpt lat="46.99003" lon="8.69408">
        <ele>557</ele>
        <time>2021-08-05T10:34:18.491Z</time>
      </trkpt>
      <trkpt lat="46.99002" lon="8.69409">
        <ele>557</ele>
        <time>2021-08-05T10:34:19.490Z</time>
      </trkpt>
      <trkpt lat="46.99001" lon="8.6941">
        <ele>557</ele>
        <time>2021-08-05T10:34:20.491Z</time>
      </trkpt>
      <trkpt lat="46.99" lon="8.69411">
        <ele>556</ele>
        <time>2021-08-05T10:34:21.491Z</time>
      </trkpt>
      <trkpt lat="46.98999" lon="8.69412">
        <ele>557</ele>
        <time>2021-08-05T10:34:22.490Z</time>
      </trkpt>
      <trkpt lat="46.98999" lon="8.69413">
        <ele>557</ele>
        <time>2021-08-05T10:34:23.491Z</time>
      </trkpt>
      <trkpt lat="46.98998" lon="8.69416">
        <ele>557</ele>
        <time>2021-08-05T10:34:24.491Z</time>
      </trkpt>
      <trkpt lat="46.98997" lon="8.69418">
        <ele>557</ele>
        <time>2021-08-05T10:34:25.490Z</time>
      </trkpt>
      <trkpt lat="46.98997" lon="8.69419">
        <ele>556</ele>
        <time>2021-08-05T10:34:26.491Z</time>
      </trkpt>
      <trkpt lat="46.98997" lon="8.69421">
        <ele>556</ele>
        <time>2021-08-05T10:34:27.490Z</time>
      </trkpt>
      <trkpt lat="46.98996" lon="8.69422">
        <ele>555</ele>
        <time>2021-08-05T10:34:28.490Z</time>
      </trkpt>
      <trkpt lat="46.98996" lon="8.69423">
        <ele>555</ele>
        <time>2021-08-05T10:34:29.491Z</time>
      </trkpt>
      <trkpt lat="46.98995" lon="8.69423">
        <ele>555</ele>
        <time>2021-08-05T10:34:30.490Z</time>
      </trkpt>
      <trkpt lat="46.98996" lon="8.69425">
        <ele>555</ele>
        <time>2021-08-05T10:34:31.491Z</time>
      </trkpt>
      <trkpt lat="46.98996" lon="8.69427">
        <ele>555</ele>
        <time>2021-08-05T10:34:32.491Z</time>
      </trkpt>
      <trkpt lat="46.98996" lon="8.69429">
        <ele>555</ele>
        <time>2021-08-05T10:34:33.490Z</time>
      </trkpt>
      <trkpt lat="46.98996" lon="8.69431">
        <ele>555</ele>
        <time>2021-08-05T10:34:34.491Z</time>
      </trkpt>
      <trkpt lat="46.98996" lon="8.69433">
        <ele>556</ele>
        <time>2021-08-05T10:34:35.490Z</time>
      </trkpt>
      <trkpt lat="46.98995" lon="8.69434">
        <ele>556</ele>
        <time>2021-08-05T10:34:36.490Z</time>
      </trkpt>
      <trkpt lat="46.98994" lon="8.69436">
        <ele>556</ele>
        <time>2021-08-05T10:34:37.491Z</time>
      </trkpt>
      <trkpt lat="46.98993" lon="8.69437">
        <ele>556</ele>
        <time>2021-08-05T10:34:38.491Z</time>
      </trkpt>
      <trkpt lat="46.98992" lon="8.69439">
        <ele>556</ele>
        <time>2021-08-05T10:34:39.491Z</time>
      </trkpt>
      <trkpt lat="46.98992" lon="8.69441">
        <ele>556</ele>
        <time>2021-08-05T10:34:40.490Z</time>
      </trkpt>
      <trkpt lat="46.98992" lon="8.69442">
        <ele>557</ele>
        <time>2021-08-05T10:34:41.491Z</time>
      </trkpt>
      <trkpt lat="46.98992" lon="8.69444">
        <ele>557</ele>
        <time>2021-08-05T10:34:42.491Z</time>
      </trkpt>
      <trkpt lat="46.98992" lon="8.69445">
        <ele>558</ele>
        <time>2021-08-05T10:34:43.491Z</time>
      </trkpt>
      <trkpt lat="46.98992" lon="8.69446">
        <ele>558</ele>
        <time>2021-08-05T10:34:44.490Z</time>
      </trkpt>
      <trkpt lat="46.98991" lon="8.69447">
        <ele>558</ele>
        <time>2021-08-05T10:34:45.490Z</time>
      </trkpt>
      <trkpt lat="46.9899" lon="8.69448">
        <ele>558</ele>
        <time>2021-08-05T10:34:46.490Z</time>
      </trkpt>
      <trkpt lat="46.98989" lon="8.69448">
        <ele>557</ele>
        <time>2021-08-05T10:34:47.491Z</time>
      </trkpt>
      <trkpt lat="46.98989" lon="8.69449">
        <ele>557</ele>
        <time>2021-08-05T10:34:48.490Z</time>
      </trkpt>
      <trkpt lat="46.98989" lon="8.69449">
        <ele>557</ele>
        <time>2021-08-05T10:34:49.491Z</time>
      </trkpt>
      <trkpt lat="46.98989" lon="8.69451">
        <ele>556</ele>
        <time>2021-08-05T10:34:50.490Z</time>
      </trkpt>
      <trkpt lat="46.98989" lon="8.69452">
        <ele>556</ele>
        <time>2021-08-05T10:34:51.491Z</time>
      </trkpt>
      <trkpt lat="46.98989" lon="8.69453">
        <ele>556</ele>
        <time>2021-08-05T10:34:52.491Z</time>
      </trkpt>
      <trkpt lat="46.98989" lon="8.69455">
        <ele>556</ele>
        <time>2021-08-05T10:34:53.491Z</time>
      </trkpt>
      <trkpt lat="46.98988" lon="8.69457">
        <ele>556</ele>
        <time>2021-08-05T10:34:54.491Z</time>
      </trkpt>
      <trkpt lat="46.98988" lon="8.69458">
        <ele>556</ele>
        <time>2021-08-05T10:34:55.490Z</time>
      </trkpt>
      <trkpt lat="46.98988" lon="8.6946">
        <ele>555</ele>
        <time>2021-08-05T10:34:56.491Z</time>
      </trkpt>
      <trkpt lat="46.98987" lon="8.69461">
        <ele>555</ele>
        <time>2021-08-05T10:34:57.491Z</time>
      </trkpt>
      <trkpt lat="46.98987" lon="8.69462">
        <ele>554</ele>
        <time>2021-08-05T10:34:58.490Z</time>
      </trkpt>
      <trkpt lat="46.98987" lon="8.69463">
        <ele>554</ele>
        <time>2021-08-05T10:34:59.491Z</time>
      </trkpt>
      <trkpt lat="46.98987" lon="8.69463">
        <ele>553</ele>
        <time>2021-08-05T10:35:00.491Z</time>
      </trkpt>
      <trkpt lat="46.98986" lon="8.69465">
        <ele>552</ele>
        <time>2021-08-05T10:35:01.491Z</time>
      </trkpt>
      <trkpt lat="46.98986" lon="8.69466">
        <ele>552</ele>
        <time>2021-08-05T10:35:02.491Z</time>
      </trkpt>
      <trkpt lat="46.98985" lon="8.69467">
        <ele>553</ele>
        <time>2021-08-05T10:35:03.490Z</time>
      </trkpt>
      <trkpt lat="46.98985" lon="8.69469">
        <ele>553</ele>
        <time>2021-08-05T10:35:04.491Z</time>
      </trkpt>
      <trkpt lat="46.98984" lon="8.6947">
        <ele>553</ele>
        <time>2021-08-05T10:35:05.491Z</time>
      </trkpt>
      <trkpt lat="46.98984" lon="8.69471">
        <ele>553</ele>
        <time>2021-08-05T10:35:06.491Z</time>
      </trkpt>
      <trkpt lat="46.98983" lon="8.69473">
        <ele>554</ele>
        <time>2021-08-05T10:35:07.490Z</time>
      </trkpt>
      <trkpt lat="46.98983" lon="8.69474">
        <ele>554</ele>
        <time>2021-08-05T10:35:08.491Z</time>
      </trkpt>
      <trkpt lat="46.98982" lon="8.69476">
        <ele>554</ele>
        <time>2021-08-05T10:35:09.490Z</time>
      </trkpt>
      <trkpt lat="46.98981" lon="8.69478">
        <ele>554</ele>
        <time>2021-08-05T10:35:10.490Z</time>
      </trkpt>
      <trkpt lat="46.98981" lon="8.69479">
        <ele>554</ele>
        <time>2021-08-05T10:35:11.490Z</time>
      </trkpt>
      <trkpt lat="46.98981" lon="8.69482">
        <ele>554</ele>
        <time>2021-08-05T10:35:12.491Z</time>
      </trkpt>
      <trkpt lat="46.9898" lon="8.69484">
        <ele>554</ele>
        <time>2021-08-05T10:35:13.490Z</time>
      </trkpt>
      <trkpt lat="46.9898" lon="8.69486">
        <ele>555</ele>
        <time>2021-08-05T10:35:14.490Z</time>
      </trkpt>
      <trkpt lat="46.9898" lon="8.69488">
        <ele>555</ele>
        <time>2021-08-05T10:35:15.491Z</time>
      </trkpt>
      <trkpt lat="46.9898" lon="8.6949">
        <ele>556</ele>
        <time>2021-08-05T10:35:16.490Z</time>
      </trkpt>
      <trkpt lat="46.98979" lon="8.69494">
        <ele>557</ele>
        <time>2021-08-05T10:35:17.491Z</time>
      </trkpt>
      <trkpt lat="46.98979" lon="8.69497">
        <ele>557</ele>
        <time>2021-08-05T10:35:18.491Z</time>
      </trkpt>
      <trkpt lat="46.98979" lon="8.695">
        <ele>558</ele>
        <time>2021-08-05T10:35:19.491Z</time>
      </trkpt>
      <trkpt lat="46.98978" lon="8.69503">
        <ele>559</ele>
        <time>2021-08-05T10:35:20.491Z</time>
      </trkpt>
      <trkpt lat="46.98978" lon="8.69505">
        <ele>560</ele>
        <time>2021-08-05T10:35:21.490Z</time>
      </trkpt>
      <trkpt lat="46.98978" lon="8.69506">
        <ele>560</ele>
        <time>2021-08-05T10:35:22.491Z</time>
      </trkpt>
      <trkpt lat="46.98978" lon="8.69508">
        <ele>561</ele>
        <time>2021-08-05T10:35:23.490Z</time>
      </trkpt>
      <trkpt lat="46.98978" lon="8.69509">
        <ele>561</ele>
        <time>2021-08-05T10:35:24.491Z</time>
      </trkpt>
      <trkpt lat="46.98978" lon="8.69509">
        <ele>561</ele>
        <time>2021-08-05T10:35:25.491Z</time>
      </trkpt>
      <trkpt lat="46.98977" lon="8.6951">
        <ele>561</ele>
        <time>2021-08-05T10:35:26.490Z</time>
      </trkpt>
      <trkpt lat="46.98976" lon="8.6951">
        <ele>562</ele>
        <time>2021-08-05T10:35:27.490Z</time>
      </trkpt>
      <trkpt lat="46.98976" lon="8.69511">
        <ele>562</ele>
        <time>2021-08-05T10:35:28.491Z</time>
      </trkpt>
      <trkpt lat="46.98976" lon="8.69513">
        <ele>561</ele>
        <time>2021-08-05T10:35:29.491Z</time>
      </trkpt>
      <trkpt lat="46.98976" lon="8.69515">
        <ele>561</ele>
        <time>2021-08-05T10:35:30.491Z</time>
      </trkpt>
      <trkpt lat="46.98975" lon="8.69516">
        <ele>561</ele>
        <time>2021-08-05T10:35:31.491Z</time>
      </trkpt>
      <trkpt lat="46.98975" lon="8.69517">
        <ele>561</ele>
        <time>2021-08-05T10:35:32.491Z</time>
      </trkpt>
      <trkpt lat="46.98974" lon="8.69519">
        <ele>561</ele>
        <time>2021-08-05T10:35:33.491Z</time>
      </trkpt>
      <trkpt lat="46.98973" lon="8.6952">
        <ele>562</ele>
        <time>2021-08-05T10:35:34.491Z</time>
      </trkpt>
      <trkpt lat="46.98973" lon="8.69521">
        <ele>563</ele>
        <time>2021-08-05T10:35:35.491Z</time>
      </trkpt>
      <trkpt lat="46.98972" lon="8.69522">
        <ele>564</ele>
        <time>2021-08-05T10:35:36.491Z</time>
      </trkpt>
      <trkpt lat="46.98971" lon="8.69523">
        <ele>565</ele>
        <time>2021-08-05T10:35:37.490Z</time>
      </trkpt>
      <trkpt lat="46.9897" lon="8.69525">
        <ele>566</ele>
        <time>2021-08-05T10:35:38.491Z</time>
      </trkpt>
      <trkpt lat="46.98969" lon="8.69526">
        <ele>566</ele>
        <time>2021-08-05T10:35:39.491Z</time>
      </trkpt>
      <trkpt lat="46.98968" lon="8.69528">
        <ele>567</ele>
        <time>2021-08-05T10:35:40.491Z</time>
      </trkpt>
      <trkpt lat="46.98968" lon="8.69528">
        <ele>567</ele>
        <time>2021-08-05T10:35:41.491Z</time>
      </trkpt>
      <trkpt lat="46.98968" lon="8.6953">
        <ele>567</ele>
        <time>2021-08-05T10:35:42.491Z</time>
      </trkpt>
      <trkpt lat="46.98967" lon="8.69532">
        <ele>568</ele>
        <time>2021-08-05T10:35:43.491Z</time>
      </trkpt>
      <trkpt lat="46.98967" lon="8.69535">
        <ele>568</ele>
        <time>2021-08-05T10:35:44.491Z</time>
      </trkpt>
      <trkpt lat="46.98967" lon="8.69536">
        <ele>568</ele>
        <time>2021-08-05T10:35:45.491Z</time>
      </trkpt>
      <trkpt lat="46.98967" lon="8.69538">
        <ele>568</ele>
        <time>2021-08-05T10:35:46.491Z</time>
      </trkpt>
      <trkpt lat="46.98967" lon="8.6954">
        <ele>567</ele>
        <time>2021-08-05T10:35:47.491Z</time>
      </trkpt>
      <trkpt lat="46.98967" lon="8.69542">
        <ele>567</ele>
        <time>2021-08-05T10:35:48.491Z</time>
      </trkpt>
      <trkpt lat="46.98967" lon="8.69544">
        <ele>566</ele>
        <time>2021-08-05T10:35:49.491Z</time>
      </trkpt>
      <trkpt lat="46.98967" lon="8.69547">
        <ele>566</ele>
        <time>2021-08-05T10:35:50.490Z</time>
      </trkpt>
      <trkpt lat="46.98966" lon="8.69548">
        <ele>566</ele>
        <time>2021-08-05T10:35:51.490Z</time>
      </trkpt>
      <trkpt lat="46.98966" lon="8.6955">
        <ele>565</ele>
        <time>2021-08-05T10:35:52.490Z</time>
      </trkpt>
      <trkpt lat="46.98966" lon="8.69552">
        <ele>565</ele>
        <time>2021-08-05T10:35:53.490Z</time>
      </trkpt>
      <trkpt lat="46.98966" lon="8.69554">
        <ele>565</ele>
        <time>2021-08-05T10:35:54.490Z</time>
      </trkpt>
      <trkpt lat="46.98965" lon="8.69555">
        <ele>565</ele>
        <time>2021-08-05T10:35:55.490Z</time>
      </trkpt>
      <trkpt lat="46.98965" lon="8.69556">
        <ele>565</ele>
        <time>2021-08-05T10:35:56.490Z</time>
      </trkpt>
      <trkpt lat="46.98964" lon="8.69558">
        <ele>565</ele>
        <time>2021-08-05T10:35:57.490Z</time>
      </trkpt>
      <trkpt lat="46.98963" lon="8.69559">
        <ele>565</ele>
        <time>2021-08-05T10:35:58.491Z</time>
      </trkpt>
      <trkpt lat="46.98962" lon="8.6956">
        <ele>565</ele>
        <time>2021-08-05T10:35:59.490Z</time>
      </trkpt>
      <trkpt lat="46.98962" lon="8.69562">
        <ele>565</ele>
        <time>2021-08-05T10:36:00.491Z</time>
      </trkpt>
      <trkpt lat="46.9896" lon="8.69563">
        <ele>565</ele>
        <time>2021-08-05T10:36:01.490Z</time>
      </trkpt>
      <trkpt lat="46.9896" lon="8.69564">
        <ele>565</ele>
        <time>2021-08-05T10:36:02.490Z</time>
      </trkpt>
      <trkpt lat="46.98959" lon="8.69565">
        <ele>565</ele>
        <time>2021-08-05T10:36:03.491Z</time>
      </trkpt>
      <trkpt lat="46.98959" lon="8.69566">
        <ele>564</ele>
        <time>2021-08-05T10:36:04.490Z</time>
      </trkpt>
      <trkpt lat="46.98959" lon="8.69567">
        <ele>563</ele>
        <time>2021-08-05T10:36:05.490Z</time>
      </trkpt>
      <trkpt lat="46.98958" lon="8.69569">
        <ele>563</ele>
        <time>2021-08-05T10:36:06.491Z</time>
      </trkpt>
      <trkpt lat="46.98958" lon="8.69571">
        <ele>563</ele>
        <time>2021-08-05T10:36:07.491Z</time>
      </trkpt>
      <trkpt lat="46.98957" lon="8.69572">
        <ele>563</ele>
        <time>2021-08-05T10:36:08.490Z</time>
      </trkpt>
      <trkpt lat="46.98957" lon="8.69574">
        <ele>564</ele>
        <time>2021-08-05T10:36:09.491Z</time>
      </trkpt>
      <trkpt lat="46.98957" lon="8.69575">
        <ele>564</ele>
        <time>2021-08-05T10:36:10.491Z</time>
      </trkpt>
      <trkpt lat="46.98956" lon="8.69578">
        <ele>564</ele>
        <time>2021-08-05T10:36:11.491Z</time>
      </trkpt>
      <trkpt lat="46.98955" lon="8.69579">
        <ele>565</ele>
        <time>2021-08-05T10:36:12.491Z</time>
      </trkpt>
      <trkpt lat="46.98955" lon="8.69581">
        <ele>565</ele>
        <time>2021-08-05T10:36:13.491Z</time>
      </trkpt>
      <trkpt lat="46.98955" lon="8.69583">
        <ele>565</ele>
        <time>2021-08-05T10:36:14.491Z</time>
      </trkpt>
      <trkpt lat="46.98954" lon="8.69584">
        <ele>565</ele>
        <time>2021-08-05T10:36:15.490Z</time>
      </trkpt>
      <trkpt lat="46.98954" lon="8.69585">
        <ele>565</ele>
        <time>2021-08-05T10:36:16.490Z</time>
      </trkpt>
      <trkpt lat="46.98954" lon="8.69586">
        <ele>565</ele>
        <time>2021-08-05T10:36:17.490Z</time>
      </trkpt>
      <trkpt lat="46.98953" lon="8.69587">
        <ele>565</ele>
        <time>2021-08-05T10:36:18.491Z</time>
      </trkpt>
      <trkpt lat="46.98953" lon="8.69588">
        <ele>565</ele>
        <time>2021-08-05T10:36:19.491Z</time>
      </trkpt>
      <trkpt lat="46.98952" lon="8.6959">
        <ele>565</ele>
        <time>2021-08-05T10:36:20.490Z</time>
      </trkpt>
      <trkpt lat="46.98952" lon="8.69592">
        <ele>565</ele>
        <time>2021-08-05T10:36:21.490Z</time>
      </trkpt>
      <trkpt lat="46.98951" lon="8.69593">
        <ele>565</ele>
        <time>2021-08-05T10:36:22.490Z</time>
      </trkpt>
      <trkpt lat="46.98951" lon="8.69595">
        <ele>565</ele>
        <time>2021-08-05T10:36:23.490Z</time>
      </trkpt>
      <trkpt lat="46.98951" lon="8.69596">
        <ele>565</ele>
        <time>2021-08-05T10:36:24.491Z</time>
      </trkpt>
      <trkpt lat="46.9895" lon="8.69598">
        <ele>564</ele>
        <time>2021-08-05T10:36:25.491Z</time>
      </trkpt>
      <trkpt lat="46.9895" lon="8.696">
        <ele>564</ele>
        <time>2021-08-05T10:36:26.491Z</time>
      </trkpt>
      <trkpt lat="46.98949" lon="8.69601">
        <ele>564</ele>
        <time>2021-08-05T10:36:27.491Z</time>
      </trkpt>
      <trkpt lat="46.98949" lon="8.69603">
        <ele>564</ele>
        <time>2021-08-05T10:36:28.490Z</time>
      </trkpt>
      <trkpt lat="46.98948" lon="8.69604">
        <ele>564</ele>
        <time>2021-08-05T10:36:29.491Z</time>
      </trkpt>
      <trkpt lat="46.98948" lon="8.69606">
        <ele>564</ele>
        <time>2021-08-05T10:36:30.491Z</time>
      </trkpt>
      <trkpt lat="46.98947" lon="8.69607">
        <ele>564</ele>
        <time>2021-08-05T10:36:31.491Z</time>
      </trkpt>
      <trkpt lat="46.98947" lon="8.69609">
        <ele>564</ele>
        <time>2021-08-05T10:36:32.491Z</time>
      </trkpt>
      <trkpt lat="46.98946" lon="8.69611">
        <ele>565</ele>
        <time>2021-08-05T10:36:33.490Z</time>
      </trkpt>
      <trkpt lat="46.98946" lon="8.69612">
        <ele>565</ele>
        <time>2021-08-05T10:36:34.490Z</time>
      </trkpt>
      <trkpt lat="46.98945" lon="8.69614">
        <ele>565</ele>
        <time>2021-08-05T10:36:35.491Z</time>
      </trkpt>
      <trkpt lat="46.98945" lon="8.69616">
        <ele>565</ele>
        <time>2021-08-05T10:36:36.490Z</time>
      </trkpt>
      <trkpt lat="46.98944" lon="8.69618">
        <ele>565</ele>
        <time>2021-08-05T10:36:37.491Z</time>
      </trkpt>
      <trkpt lat="46.98944" lon="8.69619">
        <ele>565</ele>
        <time>2021-08-05T10:36:38.491Z</time>
      </trkpt>
      <trkpt lat="46.98944" lon="8.6962">
        <ele>565</ele>
        <time>2021-08-05T10:36:39.491Z</time>
      </trkpt>
      <trkpt lat="46.98943" lon="8.69621">
        <ele>565</ele>
        <time>2021-08-05T10:36:40.491Z</time>
      </trkpt>
      <trkpt lat="46.98943" lon="8.69623">
        <ele>565</ele>
        <time>2021-08-05T10:36:41.490Z</time>
      </trkpt>
      <trkpt lat="46.98943" lon="8.69625">
        <ele>565</ele>
        <time>2021-08-05T10:36:42.490Z</time>
      </trkpt>
      <trkpt lat="46.98942" lon="8.69626">
        <ele>565</ele>
        <time>2021-08-05T10:36:43.491Z</time>
      </trkpt>
      <trkpt lat="46.98941" lon="8.69628">
        <ele>566</ele>
        <time>2021-08-05T10:36:44.491Z</time>
      </trkpt>
      <trkpt lat="46.98941" lon="8.6963">
        <ele>566</ele>
        <time>2021-08-05T10:36:45.490Z</time>
      </trkpt>
      <trkpt lat="46.9894" lon="8.69632">
        <ele>566</ele>
        <time>2021-08-05T10:36:46.490Z</time>
      </trkpt>
      <trkpt lat="46.9894" lon="8.69633">
        <ele>566</ele>
        <time>2021-08-05T10:36:47.491Z</time>
      </trkpt>
      <trkpt lat="46.9894" lon="8.69634">
        <ele>565</ele>
        <time>2021-08-05T10:36:48.491Z</time>
      </trkpt>
      <trkpt lat="46.98939" lon="8.69636">
        <ele>565</ele>
        <time>2021-08-05T10:36:49.490Z</time>
      </trkpt>
      <trkpt lat="46.98939" lon="8.69638">
        <ele>564</ele>
        <time>2021-08-05T10:36:50.491Z</time>
      </trkpt>
      <trkpt lat="46.98938" lon="8.6964">
        <ele>564</ele>
        <time>2021-08-05T10:36:51.491Z</time>
      </trkpt>
      <trkpt lat="46.98937" lon="8.69641">
        <ele>564</ele>
        <time>2021-08-05T10:36:52.491Z</time>
      </trkpt>
      <trkpt lat="46.98937" lon="8.69642">
        <ele>564</ele>
        <time>2021-08-05T10:36:53.490Z</time>
      </trkpt>
      <trkpt lat="46.98936" lon="8.69644">
        <ele>564</ele>
        <time>2021-08-05T10:36:54.491Z</time>
      </trkpt>
      <trkpt lat="46.98936" lon="8.69646">
        <ele>564</ele>
        <time>2021-08-05T10:36:55.491Z</time>
      </trkpt>
      <trkpt lat="46.98935" lon="8.69648">
        <ele>564</ele>
        <time>2021-08-05T10:36:56.491Z</time>
      </trkpt>
      <trkpt lat="46.98935" lon="8.69649">
        <ele>564</ele>
        <time>2021-08-05T10:36:57.491Z</time>
      </trkpt>
      <trkpt lat="46.98935" lon="8.69651">
        <ele>563</ele>
        <time>2021-08-05T10:36:58.491Z</time>
      </trkpt>
      <trkpt lat="46.98934" lon="8.69653">
        <ele>564</ele>
        <time>2021-08-05T10:36:59.491Z</time>
      </trkpt>
      <trkpt lat="46.98934" lon="8.69654">
        <ele>564</ele>
        <time>2021-08-05T10:37:00.490Z</time>
      </trkpt>
      <trkpt lat="46.98933" lon="8.69655">
        <ele>564</ele>
        <time>2021-08-05T10:37:01.491Z</time>
      </trkpt>
      <trkpt lat="46.98933" lon="8.69656">
        <ele>564</ele>
        <time>2021-08-05T10:37:02.491Z</time>
      </trkpt>
      <trkpt lat="46.98932" lon="8.69658">
        <ele>564</ele>
        <time>2021-08-05T10:37:03.491Z</time>
      </trkpt>
      <trkpt lat="46.98932" lon="8.69659">
        <ele>564</ele>
        <time>2021-08-05T10:37:04.491Z</time>
      </trkpt>
      <trkpt lat="46.98932" lon="8.69661">
        <ele>565</ele>
        <time>2021-08-05T10:37:05.490Z</time>
      </trkpt>
      <trkpt lat="46.98931" lon="8.69662">
        <ele>565</ele>
        <time>2021-08-05T10:37:06.490Z</time>
      </trkpt>
      <trkpt lat="46.98931" lon="8.69664">
        <ele>565</ele>
        <time>2021-08-05T10:37:07.491Z</time>
      </trkpt>
      <trkpt lat="46.9893" lon="8.69665">
        <ele>565</ele>
        <time>2021-08-05T10:37:08.491Z</time>
      </trkpt>
      <trkpt lat="46.9893" lon="8.69667">
        <ele>565</ele>
        <time>2021-08-05T10:37:09.490Z</time>
      </trkpt>
      <trkpt lat="46.98929" lon="8.69668">
        <ele>565</ele>
        <time>2021-08-05T10:37:10.491Z</time>
      </trkpt>
      <trkpt lat="46.98929" lon="8.6967">
        <ele>565</ele>
        <time>2021-08-05T10:37:11.490Z</time>
      </trkpt>
      <trkpt lat="46.98929" lon="8.69672">
        <ele>566</ele>
        <time>2021-08-05T10:37:12.491Z</time>
      </trkpt>
      <trkpt lat="46.98928" lon="8.69673">
        <ele>566</ele>
        <time>2021-08-05T10:37:13.491Z</time>
      </trkpt>
      <trkpt lat="46.98928" lon="8.69674">
        <ele>566</ele>
        <time>2021-08-05T10:37:14.491Z</time>
      </trkpt>
      <trkpt lat="46.98927" lon="8.69676">
        <ele>566</ele>
        <time>2021-08-05T10:37:15.491Z</time>
      </trkpt>
      <trkpt lat="46.98927" lon="8.69678">
        <ele>565</ele>
        <time>2021-08-05T10:37:16.490Z</time>
      </trkpt>
      <trkpt lat="46.98926" lon="8.69679">
        <ele>565</ele>
        <time>2021-08-05T10:37:17.491Z</time>
      </trkpt>
      <trkpt lat="46.98926" lon="8.69681">
        <ele>565</ele>
        <time>2021-08-05T10:37:18.490Z</time>
      </trkpt>
      <trkpt lat="46.98925" lon="8.69682">
        <ele>566</ele>
        <time>2021-08-05T10:37:19.490Z</time>
      </trkpt>
      <trkpt lat="46.98925" lon="8.69684">
        <ele>566</ele>
        <time>2021-08-05T10:37:20.491Z</time>
      </trkpt>
      <trkpt lat="46.98924" lon="8.69686">
        <ele>567</ele>
        <time>2021-08-05T10:37:21.490Z</time>
      </trkpt>
      <trkpt lat="46.98923" lon="8.69687">
        <ele>568</ele>
        <time>2021-08-05T10:37:22.490Z</time>
      </trkpt>
      <trkpt lat="46.98923" lon="8.69689">
        <ele>569</ele>
        <time>2021-08-05T10:37:23.491Z</time>
      </trkpt>
      <trkpt lat="46.98922" lon="8.69691">
        <ele>569</ele>
        <time>2021-08-05T10:37:24.491Z</time>
      </trkpt>
      <trkpt lat="46.98922" lon="8.69692">
        <ele>569</ele>
        <time>2021-08-05T10:37:25.491Z</time>
      </trkpt>
      <trkpt lat="46.98921" lon="8.69693">
        <ele>568</ele>
        <time>2021-08-05T10:37:26.491Z</time>
      </trkpt>
      <trkpt lat="46.98921" lon="8.69694">
        <ele>568</ele>
        <time>2021-08-05T10:37:27.491Z</time>
      </trkpt>
      <trkpt lat="46.9892" lon="8.69696">
        <ele>567</ele>
        <time>2021-08-05T10:37:28.491Z</time>
      </trkpt>
      <trkpt lat="46.98919" lon="8.69697">
        <ele>566</ele>
        <time>2021-08-05T10:37:29.491Z</time>
      </trkpt>
      <trkpt lat="46.98919" lon="8.69699">
        <ele>566</ele>
        <time>2021-08-05T10:37:30.491Z</time>
      </trkpt>
      <trkpt lat="46.98918" lon="8.697">
        <ele>566</ele>
        <time>2021-08-05T10:37:31.491Z</time>
      </trkpt>
      <trkpt lat="46.98917" lon="8.69703">
        <ele>566</ele>
        <time>2021-08-05T10:37:32.491Z</time>
      </trkpt>
      <trkpt lat="46.98917" lon="8.69704">
        <ele>566</ele>
        <time>2021-08-05T10:37:33.490Z</time>
      </trkpt>
      <trkpt lat="46.98916" lon="8.69705">
        <ele>565</ele>
        <time>2021-08-05T10:37:34.490Z</time>
      </trkpt>
      <trkpt lat="46.98916" lon="8.69707">
        <ele>565</ele>
        <time>2021-08-05T10:37:35.490Z</time>
      </trkpt>
      <trkpt lat="46.98916" lon="8.69708">
        <ele>565</ele>
        <time>2021-08-05T10:37:36.490Z</time>
      </trkpt>
      <trkpt lat="46.98915" lon="8.6971">
        <ele>565</ele>
        <time>2021-08-05T10:37:37.491Z</time>
      </trkpt>
      <trkpt lat="46.98915" lon="8.69712">
        <ele>565</ele>
        <time>2021-08-05T10:37:38.490Z</time>
      </trkpt>
      <trkpt lat="46.98914" lon="8.69713">
        <ele>566</ele>
        <time>2021-08-05T10:37:39.491Z</time>
      </trkpt>
      <trkpt lat="46.98913" lon="8.69715">
        <ele>566</ele>
        <time>2021-08-05T10:37:40.491Z</time>
      </trkpt>
      <trkpt lat="46.98913" lon="8.69716">
        <ele>566</ele>
        <time>2021-08-05T10:37:41.490Z</time>
      </trkpt>
      <trkpt lat="46.98913" lon="8.69718">
        <ele>567</ele>
        <time>2021-08-05T10:37:42.491Z</time>
      </trkpt>
      <trkpt lat="46.98913" lon="8.69719">
        <ele>567</ele>
        <time>2021-08-05T10:37:43.490Z</time>
      </trkpt>
      <trkpt lat="46.98912" lon="8.6972">
        <ele>566</ele>
        <time>2021-08-05T10:37:44.490Z</time>
      </trkpt>
      <trkpt lat="46.98912" lon="8.69722">
        <ele>566</ele>
        <time>2021-08-05T10:37:45.491Z</time>
      </trkpt>
      <trkpt lat="46.98912" lon="8.69723">
        <ele>566</ele>
        <time>2021-08-05T10:37:46.491Z</time>
      </trkpt>
      <trkpt lat="46.98911" lon="8.69725">
        <ele>566</ele>
        <time>2021-08-05T10:37:47.490Z</time>
      </trkpt>
      <trkpt lat="46.98911" lon="8.69726">
        <ele>566</ele>
        <time>2021-08-05T10:37:48.491Z</time>
      </trkpt>
      <trkpt lat="46.9891" lon="8.69728">
        <ele>566</ele>
        <time>2021-08-05T10:37:49.490Z</time>
      </trkpt>
      <trkpt lat="46.9891" lon="8.69729">
        <ele>566</ele>
        <time>2021-08-05T10:37:50.490Z</time>
      </trkpt>
      <trkpt lat="46.98909" lon="8.6973">
        <ele>567</ele>
        <time>2021-08-05T10:37:51.491Z</time>
      </trkpt>
      <trkpt lat="46.98909" lon="8.69731">
        <ele>567</ele>
        <time>2021-08-05T10:37:52.490Z</time>
      </trkpt>
      <trkpt lat="46.98908" lon="8.69733">
        <ele>566</ele>
        <time>2021-08-05T10:37:53.490Z</time>
      </trkpt>
      <trkpt lat="46.98908" lon="8.69734">
        <ele>566</ele>
        <time>2021-08-05T10:37:54.490Z</time>
      </trkpt>
      <trkpt lat="46.98907" lon="8.69736">
        <ele>566</ele>
        <time>2021-08-05T10:37:55.490Z</time>
      </trkpt>
      <trkpt lat="46.98907" lon="8.69737">
        <ele>566</ele>
        <time>2021-08-05T10:37:56.490Z</time>
      </trkpt>
      <trkpt lat="46.98906" lon="8.69738">
        <ele>566</ele>
        <time>2021-08-05T10:37:57.490Z</time>
      </trkpt>
      <trkpt lat="46.98906" lon="8.6974">
        <ele>566</ele>
        <time>2021-08-05T10:37:58.490Z</time>
      </trkpt>
      <trkpt lat="46.98905" lon="8.69741">
        <ele>566</ele>
        <time>2021-08-05T10:37:59.491Z</time>
      </trkpt>
      <trkpt lat="46.98905" lon="8.69743">
        <ele>567</ele>
        <time>2021-08-05T10:38:00.490Z</time>
      </trkpt>
      <trkpt lat="46.98904" lon="8.69744">
        <ele>567</ele>
        <time>2021-08-05T10:38:01.490Z</time>
      </trkpt>
      <trkpt lat="46.98904" lon="8.69746">
        <ele>567</ele>
        <time>2021-08-05T10:38:02.490Z</time>
      </trkpt>
      <trkpt lat="46.98903" lon="8.69748">
        <ele>567</ele>
        <time>2021-08-05T10:38:03.490Z</time>
      </trkpt>
      <trkpt lat="46.98903" lon="8.69749">
        <ele>568</ele>
        <time>2021-08-05T10:38:04.490Z</time>
      </trkpt>
      <trkpt lat="46.98902" lon="8.6975">
        <ele>568</ele>
        <time>2021-08-05T10:38:05.490Z</time>
      </trkpt>
      <trkpt lat="46.98902" lon="8.69752">
        <ele>568</ele>
        <time>2021-08-05T10:38:06.490Z</time>
      </trkpt>
      <trkpt lat="46.98902" lon="8.69753">
        <ele>568</ele>
        <time>2021-08-05T10:38:07.490Z</time>
      </trkpt>
      <trkpt lat="46.98901" lon="8.69754">
        <ele>568</ele>
        <time>2021-08-05T10:38:08.490Z</time>
      </trkpt>
      <trkpt lat="46.98901" lon="8.69756">
        <ele>569</ele>
        <time>2021-08-05T10:38:09.490Z</time>
      </trkpt>
      <trkpt lat="46.98901" lon="8.69757">
        <ele>569</ele>
        <time>2021-08-05T10:38:10.491Z</time>
      </trkpt>
      <trkpt lat="46.989" lon="8.69758">
        <ele>569</ele>
        <time>2021-08-05T10:38:11.490Z</time>
      </trkpt>
      <trkpt lat="46.989" lon="8.6976">
        <ele>569</ele>
        <time>2021-08-05T10:38:12.490Z</time>
      </trkpt>
      <trkpt lat="46.989" lon="8.69761">
        <ele>570</ele>
        <time>2021-08-05T10:38:13.490Z</time>
      </trkpt>
      <trkpt lat="46.98899" lon="8.69763">
        <ele>569</ele>
        <time>2021-08-05T10:38:14.490Z</time>
      </trkpt>
      <trkpt lat="46.98899" lon="8.69764">
        <ele>569</ele>
        <time>2021-08-05T10:38:15.490Z</time>
      </trkpt>
      <trkpt lat="46.98898" lon="8.69766">
        <ele>568</ele>
        <time>2021-08-05T10:38:16.490Z</time>
      </trkpt>
      <trkpt lat="46.98898" lon="8.69767">
        <ele>568</ele>
        <time>2021-08-05T10:38:17.490Z</time>
      </trkpt>
      <trkpt lat="46.98897" lon="8.69769">
        <ele>567</ele>
        <time>2021-08-05T10:38:18.490Z</time>
      </trkpt>
      <trkpt lat="46.98897" lon="8.6977">
        <ele>567</ele>
        <time>2021-08-05T10:38:19.491Z</time>
      </trkpt>
      <trkpt lat="46.98896" lon="8.69771">
        <ele>566</ele>
        <time>2021-08-05T10:38:20.491Z</time>
      </trkpt>
      <trkpt lat="46.98896" lon="8.69772">
        <ele>566</ele>
        <time>2021-08-05T10:38:21.490Z</time>
      </trkpt>
      <trkpt lat="46.98896" lon="8.69773">
        <ele>566</ele>
        <time>2021-08-05T10:38:22.490Z</time>
      </trkpt>
      <trkpt lat="46.98895" lon="8.69773">
        <ele>567</ele>
        <time>2021-08-05T10:38:23.490Z</time>
      </trkpt>
      <trkpt lat="46.98894" lon="8.69776">
        <ele>570</ele>
        <time>2021-08-05T10:38:24.490Z</time>
      </trkpt>
      <trkpt lat="46.98894" lon="8.69776">
        <ele>570</ele>
        <time>2021-08-05T10:38:25.491Z</time>
      </trkpt>
      <trkpt lat="46.98894" lon="8.69777">
        <ele>570</ele>
        <time>2021-08-05T10:38:26.490Z</time>
      </trkpt>
      <trkpt lat="46.98894" lon="8.69778">
        <ele>570</ele>
        <time>2021-08-05T10:38:27.491Z</time>
      </trkpt>
      <trkpt lat="46.98893" lon="8.69779">
        <ele>570</ele>
        <time>2021-08-05T10:38:28.491Z</time>
      </trkpt>
      <trkpt lat="46.98893" lon="8.6978">
        <ele>570</ele>
        <time>2021-08-05T10:38:29.491Z</time>
      </trkpt>
      <trkpt lat="46.98893" lon="8.69781">
        <ele>569</ele>
        <time>2021-08-05T10:38:30.491Z</time>
      </trkpt>
      <trkpt lat="46.98892" lon="8.69782">
        <ele>569</ele>
        <time>2021-08-05T10:38:31.491Z</time>
      </trkpt>
      <trkpt lat="46.98892" lon="8.69783">
        <ele>568</ele>
        <time>2021-08-05T10:38:32.491Z</time>
      </trkpt>
      <trkpt lat="46.98891" lon="8.69784">
        <ele>568</ele>
        <time>2021-08-05T10:38:33.491Z</time>
      </trkpt>
      <trkpt lat="46.98891" lon="8.69786">
        <ele>568</ele>
        <time>2021-08-05T10:38:34.490Z</time>
      </trkpt>
      <trkpt lat="46.98891" lon="8.69787">
        <ele>568</ele>
        <time>2021-08-05T10:38:35.491Z</time>
      </trkpt>
      <trkpt lat="46.98891" lon="8.69789">
        <ele>567</ele>
        <time>2021-08-05T10:38:36.491Z</time>
      </trkpt>
      <trkpt lat="46.98891" lon="8.6979">
        <ele>567</ele>
        <time>2021-08-05T10:38:37.491Z</time>
      </trkpt>
      <trkpt lat="46.98891" lon="8.69791">
        <ele>567</ele>
        <time>2021-08-05T10:38:38.491Z</time>
      </trkpt>
      <trkpt lat="46.98891" lon="8.69792">
        <ele>566</ele>
        <time>2021-08-05T10:38:39.490Z</time>
      </trkpt>
      <trkpt lat="46.9889" lon="8.69793">
        <ele>566</ele>
        <time>2021-08-05T10:38:40.490Z</time>
      </trkpt>
      <trkpt lat="46.9889" lon="8.69794">
        <ele>565</ele>
        <time>2021-08-05T10:38:41.490Z</time>
      </trkpt>
      <trkpt lat="46.9889" lon="8.69796">
        <ele>565</ele>
        <time>2021-08-05T10:38:42.490Z</time>
      </trkpt>
      <trkpt lat="46.9889" lon="8.69797">
        <ele>564</ele>
        <time>2021-08-05T10:38:43.490Z</time>
      </trkpt>
      <trkpt lat="46.98889" lon="8.69799">
        <ele>564</ele>
        <time>2021-08-05T10:38:44.491Z</time>
      </trkpt>
      <trkpt lat="46.98889" lon="8.698">
        <ele>564</ele>
        <time>2021-08-05T10:38:45.491Z</time>
      </trkpt>
      <trkpt lat="46.98889" lon="8.69801">
        <ele>564</ele>
        <time>2021-08-05T10:38:46.490Z</time>
      </trkpt>
      <trkpt lat="46.98888" lon="8.69802">
        <ele>564</ele>
        <time>2021-08-05T10:38:47.490Z</time>
      </trkpt>
      <trkpt lat="46.98888" lon="8.69803">
        <ele>564</ele>
        <time>2021-08-05T10:38:48.491Z</time>
      </trkpt>
      <trkpt lat="46.98887" lon="8.69804">
        <ele>564</ele>
        <time>2021-08-05T10:38:49.491Z</time>
      </trkpt>
      <trkpt lat="46.98887" lon="8.69805">
        <ele>564</ele>
        <time>2021-08-05T10:38:50.491Z</time>
      </trkpt>
      <trkpt lat="46.98887" lon="8.69807">
        <ele>564</ele>
        <time>2021-08-05T10:38:51.491Z</time>
      </trkpt>
      <trkpt lat="46.98887" lon="8.69808">
        <ele>565</ele>
        <time>2021-08-05T10:38:52.490Z</time>
      </trkpt>
      <trkpt lat="46.98886" lon="8.6981">
        <ele>565</ele>
        <time>2021-08-05T10:38:53.491Z</time>
      </trkpt>
      <trkpt lat="46.98886" lon="8.69812">
        <ele>565</ele>
        <time>2021-08-05T10:38:54.491Z</time>
      </trkpt>
      <trkpt lat="46.98885" lon="8.69814">
        <ele>565</ele>
        <time>2021-08-05T10:38:55.491Z</time>
      </trkpt>
      <trkpt lat="46.98885" lon="8.69815">
        <ele>565</ele>
        <time>2021-08-05T10:38:56.490Z</time>
      </trkpt>
      <trkpt lat="46.98884" lon="8.69816">
        <ele>565</ele>
        <time>2021-08-05T10:38:57.491Z</time>
      </trkpt>
      <trkpt lat="46.98884" lon="8.69818">
        <ele>564</ele>
        <time>2021-08-05T10:38:58.490Z</time>
      </trkpt>
      <trkpt lat="46.98883" lon="8.69819">
        <ele>565</ele>
        <time>2021-08-05T10:38:59.491Z</time>
      </trkpt>
      <trkpt lat="46.98883" lon="8.69821">
        <ele>565</ele>
        <time>2021-08-05T10:39:00.491Z</time>
      </trkpt>
      <trkpt lat="46.98882" lon="8.69822">
        <ele>565</ele>
        <time>2021-08-05T10:39:01.490Z</time>
      </trkpt>
      <trkpt lat="46.98882" lon="8.69824">
        <ele>564</ele>
        <time>2021-08-05T10:39:02.490Z</time>
      </trkpt>
      <trkpt lat="46.98881" lon="8.69825">
        <ele>564</ele>
        <time>2021-08-05T10:39:03.490Z</time>
      </trkpt>
      <trkpt lat="46.98881" lon="8.69826">
        <ele>564</ele>
        <time>2021-08-05T10:39:04.490Z</time>
      </trkpt>
      <trkpt lat="46.9888" lon="8.69827">
        <ele>563</ele>
        <time>2021-08-05T10:39:05.490Z</time>
      </trkpt>
      <trkpt lat="46.98879" lon="8.69829">
        <ele>562</ele>
        <time>2021-08-05T10:39:06.490Z</time>
      </trkpt>
      <trkpt lat="46.98879" lon="8.6983">
        <ele>562</ele>
        <time>2021-08-05T10:39:07.491Z</time>
      </trkpt>
      <trkpt lat="46.98878" lon="8.69831">
        <ele>561</ele>
        <time>2021-08-05T10:39:08.490Z</time>
      </trkpt>
      <trkpt lat="46.98878" lon="8.69833">
        <ele>560</ele>
        <time>2021-08-05T10:39:09.491Z</time>
      </trkpt>
      <trkpt lat="46.98878" lon="8.69834">
        <ele>560</ele>
        <time>2021-08-05T10:39:10.490Z</time>
      </trkpt>
      <trkpt lat="46.98877" lon="8.69836">
        <ele>559</ele>
        <time>2021-08-05T10:39:11.491Z</time>
      </trkpt>
      <trkpt lat="46.98877" lon="8.69837">
        <ele>559</ele>
        <time>2021-08-05T10:39:12.490Z</time>
      </trkpt>
      <trkpt lat="46.98877" lon="8.69839">
        <ele>559</ele>
        <time>2021-08-05T10:39:13.490Z</time>
      </trkpt>
      <trkpt lat="46.98876" lon="8.6984">
        <ele>559</ele>
        <time>2021-08-05T10:39:14.490Z</time>
      </trkpt>
      <trkpt lat="46.98875" lon="8.69841">
        <ele>558</ele>
        <time>2021-08-05T10:39:15.491Z</time>
      </trkpt>
      <trkpt lat="46.98875" lon="8.69842">
        <ele>558</ele>
        <time>2021-08-05T10:39:16.491Z</time>
      </trkpt>
      <trkpt lat="46.98874" lon="8.69844">
        <ele>558</ele>
        <time>2021-08-05T10:39:17.490Z</time>
      </trkpt>
      <trkpt lat="46.98874" lon="8.69845">
        <ele>558</ele>
        <time>2021-08-05T10:39:18.491Z</time>
      </trkpt>
      <trkpt lat="46.98873" lon="8.69846">
        <ele>558</ele>
        <time>2021-08-05T10:39:19.491Z</time>
      </trkpt>
      <trkpt lat="46.98873" lon="8.69848">
        <ele>558</ele>
        <time>2021-08-05T10:39:20.490Z</time>
      </trkpt>
      <trkpt lat="46.98872" lon="8.69849">
        <ele>557</ele>
        <time>2021-08-05T10:39:21.490Z</time>
      </trkpt>
      <trkpt lat="46.98872" lon="8.6985">
        <ele>557</ele>
        <time>2021-08-05T10:39:22.490Z</time>
      </trkpt>
      <trkpt lat="46.98871" lon="8.69851">
        <ele>557</ele>
        <time>2021-08-05T10:39:23.490Z</time>
      </trkpt>
      <trkpt lat="46.9887" lon="8.69853">
        <ele>557</ele>
        <time>2021-08-05T10:39:24.490Z</time>
      </trkpt>
      <trkpt lat="46.9887" lon="8.69854">
        <ele>557</ele>
        <time>2021-08-05T10:39:25.491Z</time>
      </trkpt>
      <trkpt lat="46.9887" lon="8.69856">
        <ele>557</ele>
        <time>2021-08-05T10:39:26.490Z</time>
      </trkpt>
      <trkpt lat="46.98869" lon="8.69858">
        <ele>557</ele>
        <time>2021-08-05T10:39:27.490Z</time>
      </trkpt>
      <trkpt lat="46.98869" lon="8.6986">
        <ele>556</ele>
        <time>2021-08-05T10:39:28.490Z</time>
      </trkpt>
      <trkpt lat="46.98868" lon="8.69862">
        <ele>556</ele>
        <time>2021-08-05T10:39:29.490Z</time>
      </trkpt>
      <trkpt lat="46.98868" lon="8.69863">
        <ele>556</ele>
        <time>2021-08-05T10:39:30.490Z</time>
      </trkpt>
      <trkpt lat="46.98867" lon="8.69864">
        <ele>556</ele>
        <time>2021-08-05T10:39:31.491Z</time>
      </trkpt>
      <trkpt lat="46.98866" lon="8.69865">
        <ele>555</ele>
        <time>2021-08-05T10:39:32.490Z</time>
      </trkpt>
      <trkpt lat="46.98865" lon="8.69866">
        <ele>555</ele>
        <time>2021-08-05T10:39:33.490Z</time>
      </trkpt>
      <trkpt lat="46.98864" lon="8.69867">
        <ele>556</ele>
        <time>2021-08-05T10:39:34.490Z</time>
      </trkpt>
      <trkpt lat="46.98864" lon="8.69869">
        <ele>556</ele>
        <time>2021-08-05T10:39:35.490Z</time>
      </trkpt>
      <trkpt lat="46.98864" lon="8.6987">
        <ele>557</ele>
        <time>2021-08-05T10:39:36.490Z</time>
      </trkpt>
      <trkpt lat="46.98863" lon="8.69872">
        <ele>557</ele>
        <time>2021-08-05T10:39:37.491Z</time>
      </trkpt>
      <trkpt lat="46.98862" lon="8.69873">
        <ele>558</ele>
        <time>2021-08-05T10:39:38.491Z</time>
      </trkpt>
      <trkpt lat="46.98861" lon="8.69875">
        <ele>559</ele>
        <time>2021-08-05T10:39:39.490Z</time>
      </trkpt>
      <trkpt lat="46.98861" lon="8.69877">
        <ele>560</ele>
        <time>2021-08-05T10:39:40.491Z</time>
      </trkpt>
      <trkpt lat="46.9886" lon="8.69878">
        <ele>561</ele>
        <time>2021-08-05T10:39:41.490Z</time>
      </trkpt>
      <trkpt lat="46.9886" lon="8.6988">
        <ele>561</ele>
        <time>2021-08-05T10:39:42.491Z</time>
      </trkpt>
      <trkpt lat="46.98859" lon="8.69882">
        <ele>562</ele>
        <time>2021-08-05T10:39:43.491Z</time>
      </trkpt>
      <trkpt lat="46.98859" lon="8.69884">
        <ele>563</ele>
        <time>2021-08-05T10:39:44.491Z</time>
      </trkpt>
      <trkpt lat="46.98858" lon="8.69885">
        <ele>563</ele>
        <time>2021-08-05T10:39:45.490Z</time>
      </trkpt>
      <trkpt lat="46.98857" lon="8.69887">
        <ele>564</ele>
        <time>2021-08-05T10:39:46.491Z</time>
      </trkpt>
      <trkpt lat="46.98856" lon="8.69889">
        <ele>565</ele>
        <time>2021-08-05T10:39:47.491Z</time>
      </trkpt>
      <trkpt lat="46.98856" lon="8.6989">
        <ele>566</ele>
        <time>2021-08-05T10:39:48.490Z</time>
      </trkpt>
      <trkpt lat="46.98855" lon="8.69891">
        <ele>567</ele>
        <time>2021-08-05T10:39:49.491Z</time>
      </trkpt>
      <trkpt lat="46.98854" lon="8.69892">
        <ele>567</ele>
        <time>2021-08-05T10:39:50.490Z</time>
      </trkpt>
      <trkpt lat="46.98854" lon="8.69894">
        <ele>567</ele>
        <time>2021-08-05T10:39:51.491Z</time>
      </trkpt>
      <trkpt lat="46.98853" lon="8.69896">
        <ele>567</ele>
        <time>2021-08-05T10:39:52.491Z</time>
      </trkpt>
      <trkpt lat="46.98853" lon="8.69897">
        <ele>566</ele>
        <time>2021-08-05T10:39:53.491Z</time>
      </trkpt>
      <trkpt lat="46.98853" lon="8.69898">
        <ele>565</ele>
        <time>2021-08-05T10:39:54.491Z</time>
      </trkpt>
      <trkpt lat="46.98852" lon="8.699">
        <ele>564</ele>
        <time>2021-08-05T10:39:55.490Z</time>
      </trkpt>
      <trkpt lat="46.98852" lon="8.69901">
        <ele>563</ele>
        <time>2021-08-05T10:39:56.491Z</time>
      </trkpt>
      <trkpt lat="46.98851" lon="8.69902">
        <ele>563</ele>
        <time>2021-08-05T10:39:57.490Z</time>
      </trkpt>
      <trkpt lat="46.98851" lon="8.69903">
        <ele>562</ele>
        <time>2021-08-05T10:39:58.491Z</time>
      </trkpt>
      <trkpt lat="46.9885" lon="8.69904">
        <ele>562</ele>
        <time>2021-08-05T10:39:59.490Z</time>
      </trkpt>
      <trkpt lat="46.98849" lon="8.69905">
        <ele>563</ele>
        <time>2021-08-05T10:40:00.491Z</time>
      </trkpt>
      <trkpt lat="46.98848" lon="8.69907">
        <ele>563</ele>
        <time>2021-08-05T10:40:01.491Z</time>
      </trkpt>
      <trkpt lat="46.98848" lon="8.69908">
        <ele>563</ele>
        <time>2021-08-05T10:40:02.490Z</time>
      </trkpt>
      <trkpt lat="46.98846" lon="8.6991">
        <ele>564</ele>
        <time>2021-08-05T10:40:03.491Z</time>
      </trkpt>
      <trkpt lat="46.98845" lon="8.69912">
        <ele>564</ele>
        <time>2021-08-05T10:40:04.490Z</time>
      </trkpt>
      <trkpt lat="46.98844" lon="8.69914">
        <ele>564</ele>
        <time>2021-08-05T10:40:05.491Z</time>
      </trkpt>
      <trkpt lat="46.98843" lon="8.69915">
        <ele>564</ele>
        <time>2021-08-05T10:40:06.491Z</time>
      </trkpt>
      <trkpt lat="46.98843" lon="8.69917">
        <ele>564</ele>
        <time>2021-08-05T10:40:07.490Z</time>
      </trkpt>
      <trkpt lat="46.98843" lon="8.69919">
        <ele>564</ele>
        <time>2021-08-05T10:40:08.490Z</time>
      </trkpt>
      <trkpt lat="46.98843" lon="8.69922">
        <ele>564</ele>
        <time>2021-08-05T10:40:09.490Z</time>
      </trkpt>
      <trkpt lat="46.98842" lon="8.69923">
        <ele>564</ele>
        <time>2021-08-05T10:40:10.490Z</time>
      </trkpt>
      <trkpt lat="46.98842" lon="8.69924">
        <ele>565</ele>
        <time>2021-08-05T10:40:11.491Z</time>
      </trkpt>
      <trkpt lat="46.98842" lon="8.69925">
        <ele>565</ele>
        <time>2021-08-05T10:40:12.491Z</time>
      </trkpt>
      <trkpt lat="46.98842" lon="8.69927">
        <ele>565</ele>
        <time>2021-08-05T10:40:13.490Z</time>
      </trkpt>
      <trkpt lat="46.98842" lon="8.69929">
        <ele>565</ele>
        <time>2021-08-05T10:40:14.491Z</time>
      </trkpt>
      <trkpt lat="46.98841" lon="8.69931">
        <ele>566</ele>
        <time>2021-08-05T10:40:15.490Z</time>
      </trkpt>
      <trkpt lat="46.98841" lon="8.69932">
        <ele>566</ele>
        <time>2021-08-05T10:40:16.491Z</time>
      </trkpt>
      <trkpt lat="46.98841" lon="8.69933">
        <ele>567</ele>
        <time>2021-08-05T10:40:17.490Z</time>
      </trkpt>
      <trkpt lat="46.98841" lon="8.69935">
        <ele>567</ele>
        <time>2021-08-05T10:40:18.490Z</time>
      </trkpt>
      <trkpt lat="46.9884" lon="8.69936">
        <ele>567</ele>
        <time>2021-08-05T10:40:19.491Z</time>
      </trkpt>
      <trkpt lat="46.9884" lon="8.69937">
        <ele>567</ele>
        <time>2021-08-05T10:40:20.490Z</time>
      </trkpt>
      <trkpt lat="46.9884" lon="8.69938">
        <ele>567</ele>
        <time>2021-08-05T10:40:21.491Z</time>
      </trkpt>
      <trkpt lat="46.98839" lon="8.6994">
        <ele>567</ele>
        <time>2021-08-05T10:40:22.491Z</time>
      </trkpt>
      <trkpt lat="46.98838" lon="8.69941">
        <ele>567</ele>
        <time>2021-08-05T10:40:23.490Z</time>
      </trkpt>
      <trkpt lat="46.98838" lon="8.69942">
        <ele>568</ele>
        <time>2021-08-05T10:40:24.491Z</time>
      </trkpt>
      <trkpt lat="46.98838" lon="8.69943">
        <ele>568</ele>
        <time>2021-08-05T10:40:25.491Z</time>
      </trkpt>
      <trkpt lat="46.98837" lon="8.69945">
        <ele>568</ele>
        <time>2021-08-05T10:40:26.490Z</time>
      </trkpt>
      <trkpt lat="46.98837" lon="8.69946">
        <ele>569</ele>
        <time>2021-08-05T10:40:27.491Z</time>
      </trkpt>
      <trkpt lat="46.98836" lon="8.69948">
        <ele>569</ele>
        <time>2021-08-05T10:40:28.490Z</time>
      </trkpt>
      <trkpt lat="46.98835" lon="8.69949">
        <ele>570</ele>
        <time>2021-08-05T10:40:29.491Z</time>
      </trkpt>
      <trkpt lat="46.98835" lon="8.69951">
        <ele>571</ele>
        <time>2021-08-05T10:40:30.491Z</time>
      </trkpt>
      <trkpt lat="46.98834" lon="8.69952">
        <ele>571</ele>
        <time>2021-08-05T10:40:31.490Z</time>
      </trkpt>
      <trkpt lat="46.98834" lon="8.69954">
        <ele>571</ele>
        <time>2021-08-05T10:40:32.491Z</time>
      </trkpt>
      <trkpt lat="46.98833" lon="8.69955">
        <ele>571</ele>
        <time>2021-08-05T10:40:33.490Z</time>
      </trkpt>
      <trkpt lat="46.98834" lon="8.69957">
        <ele>571</ele>
        <time>2021-08-05T10:40:34.490Z</time>
      </trkpt>
      <trkpt lat="46.98833" lon="8.69958">
        <ele>570</ele>
        <time>2021-08-05T10:40:35.490Z</time>
      </trkpt>
      <trkpt lat="46.98833" lon="8.6996">
        <ele>570</ele>
        <time>2021-08-05T10:40:36.491Z</time>
      </trkpt>
      <trkpt lat="46.98833" lon="8.69962">
        <ele>570</ele>
        <time>2021-08-05T10:40:37.491Z</time>
      </trkpt>
      <trkpt lat="46.98832" lon="8.69963">
        <ele>569</ele>
        <time>2021-08-05T10:40:38.490Z</time>
      </trkpt>
      <trkpt lat="46.98832" lon="8.69963">
        <ele>569</ele>
        <time>2021-08-05T10:40:39.491Z</time>
      </trkpt>
      <trkpt lat="46.98831" lon="8.69964">
        <ele>568</ele>
        <time>2021-08-05T10:40:48.558Z</time>
      </trkpt>
      <trkpt lat="46.9883" lon="8.69966">
        <ele>568</ele>
        <time>2021-08-05T10:40:49.558Z</time>
      </trkpt>
      <trkpt lat="46.98829" lon="8.69967">
        <ele>567</ele>
        <time>2021-08-05T10:40:50.558Z</time>
      </trkpt>
      <trkpt lat="46.98829" lon="8.69969">
        <ele>567</ele>
        <time>2021-08-05T10:40:51.557Z</time>
      </trkpt>
      <trkpt lat="46.98828" lon="8.6997">
        <ele>566</ele>
        <time>2021-08-05T10:40:52.557Z</time>
      </trkpt>
      <trkpt lat="46.98828" lon="8.69971">
        <ele>566</ele>
        <time>2021-08-05T10:40:53.558Z</time>
      </trkpt>
      <trkpt lat="46.98827" lon="8.69972">
        <ele>566</ele>
        <time>2021-08-05T10:40:54.558Z</time>
      </trkpt>
      <trkpt lat="46.98827" lon="8.69973">
        <ele>566</ele>
        <time>2021-08-05T10:40:55.558Z</time>
      </trkpt>
      <trkpt lat="46.98826" lon="8.69974">
        <ele>566</ele>
        <time>2021-08-05T10:40:56.557Z</time>
      </trkpt>
      <trkpt lat="46.98826" lon="8.69976">
        <ele>566</ele>
        <time>2021-08-05T10:40:57.558Z</time>
      </trkpt>
      <trkpt lat="46.98825" lon="8.69978">
        <ele>565</ele>
        <time>2021-08-05T10:40:58.558Z</time>
      </trkpt>
      <trkpt lat="46.98824" lon="8.6998">
        <ele>565</ele>
        <time>2021-08-05T10:40:59.557Z</time>
      </trkpt>
      <trkpt lat="46.98824" lon="8.69982">
        <ele>565</ele>
        <time>2021-08-05T10:41:00.557Z</time>
      </trkpt>
      <trkpt lat="46.98823" lon="8.69983">
        <ele>565</ele>
        <time>2021-08-05T10:41:01.558Z</time>
      </trkpt>
      <trkpt lat="46.98823" lon="8.69985">
        <ele>566</ele>
        <time>2021-08-05T10:41:02.558Z</time>
      </trkpt>
      <trkpt lat="46.98822" lon="8.69988">
        <ele>566</ele>
        <time>2021-08-05T10:41:03.557Z</time>
      </trkpt>
      <trkpt lat="46.98822" lon="8.6999">
        <ele>566</ele>
        <time>2021-08-05T10:41:04.558Z</time>
      </trkpt>
      <trkpt lat="46.98821" lon="8.69993">
        <ele>567</ele>
        <time>2021-08-05T10:41:05.558Z</time>
      </trkpt>
      <trkpt lat="46.98821" lon="8.69995">
        <ele>568</ele>
        <time>2021-08-05T10:41:06.558Z</time>
      </trkpt>
      <trkpt lat="46.9882" lon="8.69997">
        <ele>568</ele>
        <time>2021-08-05T10:41:07.557Z</time>
      </trkpt>
      <trkpt lat="46.9882" lon="8.69999">
        <ele>568</ele>
        <time>2021-08-05T10:41:08.557Z</time>
      </trkpt>
      <trkpt lat="46.98819" lon="8.70002">
        <ele>569</ele>
        <time>2021-08-05T10:41:09.558Z</time>
      </trkpt>
      <trkpt lat="46.98819" lon="8.70004">
        <ele>569</ele>
        <time>2021-08-05T10:41:10.558Z</time>
      </trkpt>
      <trkpt lat="46.98819" lon="8.70006">
        <ele>570</ele>
        <time>2021-08-05T10:41:11.558Z</time>
      </trkpt>
      <trkpt lat="46.98819" lon="8.70008">
        <ele>570</ele>
        <time>2021-08-05T10:41:12.557Z</time>
      </trkpt>
      <trkpt lat="46.98819" lon="8.7001">
        <ele>570</ele>
        <time>2021-08-05T10:41:13.557Z</time>
      </trkpt>
      <trkpt lat="46.98818" lon="8.70012">
        <ele>570</ele>
        <time>2021-08-05T10:41:14.557Z</time>
      </trkpt>
      <trkpt lat="46.98817" lon="8.70013">
        <ele>569</ele>
        <time>2021-08-05T10:41:15.558Z</time>
      </trkpt>
      <trkpt lat="46.98817" lon="8.70015">
        <ele>569</ele>
        <time>2021-08-05T10:41:16.557Z</time>
      </trkpt>
      <trkpt lat="46.98817" lon="8.70017">
        <ele>569</ele>
        <time>2021-08-05T10:41:17.557Z</time>
      </trkpt>
      <trkpt lat="46.98816" lon="8.70019">
        <ele>569</ele>
        <time>2021-08-05T10:41:18.558Z</time>
      </trkpt>
      <trkpt lat="46.98816" lon="8.70021">
        <ele>568</ele>
        <time>2021-08-05T10:41:19.557Z</time>
      </trkpt>
      <trkpt lat="46.98815" lon="8.70022">
        <ele>567</ele>
        <time>2021-08-05T10:41:20.557Z</time>
      </trkpt>
      <trkpt lat="46.98814" lon="8.70024">
        <ele>567</ele>
        <time>2021-08-05T10:41:21.557Z</time>
      </trkpt>
      <trkpt lat="46.98814" lon="8.70026">
        <ele>566</ele>
        <time>2021-08-05T10:41:22.557Z</time>
      </trkpt>
      <trkpt lat="46.98814" lon="8.70027">
        <ele>566</ele>
        <time>2021-08-05T10:41:23.558Z</time>
      </trkpt>
      <trkpt lat="46.98813" lon="8.70028">
        <ele>566</ele>
        <time>2021-08-05T10:41:24.557Z</time>
      </trkpt>
      <trkpt lat="46.98813" lon="8.70029">
        <ele>567</ele>
        <time>2021-08-05T10:41:25.557Z</time>
      </trkpt>
      <trkpt lat="46.98813" lon="8.7003">
        <ele>567</ele>
        <time>2021-08-05T10:41:26.557Z</time>
      </trkpt>
      <trkpt lat="46.98812" lon="8.70032">
        <ele>568</ele>
        <time>2021-08-05T10:41:27.557Z</time>
      </trkpt>
      <trkpt lat="46.98812" lon="8.70033">
        <ele>568</ele>
        <time>2021-08-05T10:41:28.558Z</time>
      </trkpt>
      <trkpt lat="46.98812" lon="8.70035">
        <ele>569</ele>
        <time>2021-08-05T10:41:29.557Z</time>
      </trkpt>
      <trkpt lat="46.98812" lon="8.70037">
        <ele>569</ele>
        <time>2021-08-05T10:41:30.557Z</time>
      </trkpt>
      <trkpt lat="46.98812" lon="8.70038">
        <ele>569</ele>
        <time>2021-08-05T10:41:31.557Z</time>
      </trkpt>
      <trkpt lat="46.98811" lon="8.7004">
        <ele>569</ele>
        <time>2021-08-05T10:41:32.557Z</time>
      </trkpt>
      <trkpt lat="46.98811" lon="8.70041">
        <ele>569</ele>
        <time>2021-08-05T10:41:33.558Z</time>
      </trkpt>
      <trkpt lat="46.98811" lon="8.70043">
        <ele>569</ele>
        <time>2021-08-05T10:41:34.558Z</time>
      </trkpt>
      <trkpt lat="46.98811" lon="8.70044">
        <ele>569</ele>
        <time>2021-08-05T10:41:35.557Z</time>
      </trkpt>
      <trkpt lat="46.98811" lon="8.70046">
        <ele>568</ele>
        <time>2021-08-05T10:41:36.557Z</time>
      </trkpt>
      <trkpt lat="46.9881" lon="8.70047">
        <ele>567</ele>
        <time>2021-08-05T10:41:37.557Z</time>
      </trkpt>
      <trkpt lat="46.9881" lon="8.70049">
        <ele>567</ele>
        <time>2021-08-05T10:41:38.557Z</time>
      </trkpt>
      <trkpt lat="46.9881" lon="8.7005">
        <ele>567</ele>
        <time>2021-08-05T10:41:39.558Z</time>
      </trkpt>
      <trkpt lat="46.9881" lon="8.70051">
        <ele>566</ele>
        <time>2021-08-05T10:41:40.557Z</time>
      </trkpt>
      <trkpt lat="46.98809" lon="8.70052">
        <ele>566</ele>
        <time>2021-08-05T10:41:41.557Z</time>
      </trkpt>
      <trkpt lat="46.98809" lon="8.70054">
        <ele>566</ele>
        <time>2021-08-05T10:41:42.557Z</time>
      </trkpt>
      <trkpt lat="46.98808" lon="8.70055">
        <ele>566</ele>
        <time>2021-08-05T10:41:43.558Z</time>
      </trkpt>
      <trkpt lat="46.98808" lon="8.70057">
        <ele>566</ele>
        <time>2021-08-05T10:41:44.558Z</time>
      </trkpt>
      <trkpt lat="46.98807" lon="8.70059">
        <ele>567</ele>
        <time>2021-08-05T10:41:45.557Z</time>
      </trkpt>
      <trkpt lat="46.98807" lon="8.7006">
        <ele>567</ele>
        <time>2021-08-05T10:41:46.557Z</time>
      </trkpt>
      <trkpt lat="46.98806" lon="8.70061">
        <ele>566</ele>
        <time>2021-08-05T10:41:47.557Z</time>
      </trkpt>
      <trkpt lat="46.98805" lon="8.70063">
        <ele>567</ele>
        <time>2021-08-05T10:41:48.557Z</time>
      </trkpt>
      <trkpt lat="46.98805" lon="8.70064">
        <ele>567</ele>
        <time>2021-08-05T10:41:49.558Z</time>
      </trkpt>
      <trkpt lat="46.98804" lon="8.70066">
        <ele>567</ele>
        <time>2021-08-05T10:41:50.557Z</time>
      </trkpt>
      <trkpt lat="46.98804" lon="8.70068">
        <ele>567</ele>
        <time>2021-08-05T10:41:51.557Z</time>
      </trkpt>
      <trkpt lat="46.98804" lon="8.7007">
        <ele>567</ele>
        <time>2021-08-05T10:41:52.557Z</time>
      </trkpt>
      <trkpt lat="46.98803" lon="8.70071">
        <ele>566</ele>
        <time>2021-08-05T10:41:53.557Z</time>
      </trkpt>
      <trkpt lat="46.98803" lon="8.70073">
        <ele>565</ele>
        <time>2021-08-05T10:41:54.557Z</time>
      </trkpt>
      <trkpt lat="46.98803" lon="8.70074">
        <ele>565</ele>
        <time>2021-08-05T10:41:55.557Z</time>
      </trkpt>
      <trkpt lat="46.98802" lon="8.70076">
        <ele>564</ele>
        <time>2021-08-05T10:41:56.557Z</time>
      </trkpt>
      <trkpt lat="46.98802" lon="8.70078">
        <ele>564</ele>
        <time>2021-08-05T10:41:57.557Z</time>
      </trkpt>
      <trkpt lat="46.98801" lon="8.70079">
        <ele>564</ele>
        <time>2021-08-05T10:41:58.557Z</time>
      </trkpt>
      <trkpt lat="46.98801" lon="8.70081">
        <ele>564</ele>
        <time>2021-08-05T10:41:59.557Z</time>
      </trkpt>
      <trkpt lat="46.988" lon="8.70082">
        <ele>563</ele>
        <time>2021-08-05T10:42:00.557Z</time>
      </trkpt>
      <trkpt lat="46.988" lon="8.70084">
        <ele>563</ele>
        <time>2021-08-05T10:42:01.558Z</time>
      </trkpt>
      <trkpt lat="46.98799" lon="8.70086">
        <ele>563</ele>
        <time>2021-08-05T10:42:02.557Z</time>
      </trkpt>
      <trkpt lat="46.98799" lon="8.70087">
        <ele>563</ele>
        <time>2021-08-05T10:42:03.558Z</time>
      </trkpt>
      <trkpt lat="46.98799" lon="8.70089">
        <ele>563</ele>
        <time>2021-08-05T10:42:04.558Z</time>
      </trkpt>
      <trkpt lat="46.98798" lon="8.7009">
        <ele>563</ele>
        <time>2021-08-05T10:42:05.558Z</time>
      </trkpt>
      <trkpt lat="46.98798" lon="8.70092">
        <ele>562</ele>
        <time>2021-08-05T10:42:06.558Z</time>
      </trkpt>
      <trkpt lat="46.98798" lon="8.70094">
        <ele>562</ele>
        <time>2021-08-05T10:42:07.558Z</time>
      </trkpt>
      <trkpt lat="46.98797" lon="8.70096">
        <ele>562</ele>
        <time>2021-08-05T10:42:08.558Z</time>
      </trkpt>
      <trkpt lat="46.98797" lon="8.70098">
        <ele>561</ele>
        <time>2021-08-05T10:42:09.558Z</time>
      </trkpt>
      <trkpt lat="46.98796" lon="8.70099">
        <ele>561</ele>
        <time>2021-08-05T10:42:10.558Z</time>
      </trkpt>
      <trkpt lat="46.98796" lon="8.70101">
        <ele>561</ele>
        <time>2021-08-05T10:42:11.558Z</time>
      </trkpt>
      <trkpt lat="46.98795" lon="8.70103">
        <ele>561</ele>
        <time>2021-08-05T10:42:12.557Z</time>
      </trkpt>
      <trkpt lat="46.98795" lon="8.70105">
        <ele>560</ele>
        <time>2021-08-05T10:42:13.558Z</time>
      </trkpt>
      <trkpt lat="46.98794" lon="8.70107">
        <ele>560</ele>
        <time>2021-08-05T10:42:14.558Z</time>
      </trkpt>
      <trkpt lat="46.98794" lon="8.70108">
        <ele>560</ele>
        <time>2021-08-05T10:42:15.558Z</time>
      </trkpt>
      <trkpt lat="46.98794" lon="8.7011">
        <ele>560</ele>
        <time>2021-08-05T10:42:16.558Z</time>
      </trkpt>
      <trkpt lat="46.98793" lon="8.70112">
        <ele>560</ele>
        <time>2021-08-05T10:42:17.557Z</time>
      </trkpt>
      <trkpt lat="46.98793" lon="8.70114">
        <ele>560</ele>
        <time>2021-08-05T10:42:18.558Z</time>
      </trkpt>
      <trkpt lat="46.98793" lon="8.70115">
        <ele>561</ele>
        <time>2021-08-05T10:42:19.557Z</time>
      </trkpt>
      <trkpt lat="46.98792" lon="8.70117">
        <ele>561</ele>
        <time>2021-08-05T10:42:20.557Z</time>
      </trkpt>
      <trkpt lat="46.98792" lon="8.70119">
        <ele>562</ele>
        <time>2021-08-05T10:42:21.557Z</time>
      </trkpt>
      <trkpt lat="46.98792" lon="8.70121">
        <ele>562</ele>
        <time>2021-08-05T10:42:22.557Z</time>
      </trkpt>
      <trkpt lat="46.98792" lon="8.70123">
        <ele>563</ele>
        <time>2021-08-05T10:42:23.557Z</time>
      </trkpt>
      <trkpt lat="46.98792" lon="8.70125">
        <ele>563</ele>
        <time>2021-08-05T10:42:24.558Z</time>
      </trkpt>
      <trkpt lat="46.98791" lon="8.70127">
        <ele>563</ele>
        <time>2021-08-05T10:42:25.558Z</time>
      </trkpt>
      <trkpt lat="46.98791" lon="8.70129">
        <ele>564</ele>
        <time>2021-08-05T10:42:26.557Z</time>
      </trkpt>
      <trkpt lat="46.9879" lon="8.7013">
        <ele>564</ele>
        <time>2021-08-05T10:42:27.558Z</time>
      </trkpt>
      <trkpt lat="46.98789" lon="8.70132">
        <ele>564</ele>
        <time>2021-08-05T10:42:28.558Z</time>
      </trkpt>
      <trkpt lat="46.98789" lon="8.70134">
        <ele>564</ele>
        <time>2021-08-05T10:42:29.558Z</time>
      </trkpt>
      <trkpt lat="46.98788" lon="8.70136">
        <ele>564</ele>
        <time>2021-08-05T10:42:30.557Z</time>
      </trkpt>
      <trkpt lat="46.98788" lon="8.70137">
        <ele>563</ele>
        <time>2021-08-05T10:42:31.558Z</time>
      </trkpt>
      <trkpt lat="46.98787" lon="8.70139">
        <ele>563</ele>
        <time>2021-08-05T10:42:32.557Z</time>
      </trkpt>
      <trkpt lat="46.98787" lon="8.7014">
        <ele>563</ele>
        <time>2021-08-05T10:42:33.558Z</time>
      </trkpt>
      <trkpt lat="46.98786" lon="8.70142">
        <ele>563</ele>
        <time>2021-08-05T10:42:34.558Z</time>
      </trkpt>
      <trkpt lat="46.98785" lon="8.70143">
        <ele>563</ele>
        <time>2021-08-05T10:42:35.557Z</time>
      </trkpt>
      <trkpt lat="46.98785" lon="8.70145">
        <ele>563</ele>
        <time>2021-08-05T10:42:36.558Z</time>
      </trkpt>
      <trkpt lat="46.98785" lon="8.70146">
        <ele>563</ele>
        <time>2021-08-05T10:42:37.558Z</time>
      </trkpt>
      <trkpt lat="46.98784" lon="8.70148">
        <ele>563</ele>
        <time>2021-08-05T10:42:38.557Z</time>
      </trkpt>
      <trkpt lat="46.98783" lon="8.7015">
        <ele>564</ele>
        <time>2021-08-05T10:42:39.557Z</time>
      </trkpt>
      <trkpt lat="46.98783" lon="8.70151">
        <ele>565</ele>
        <time>2021-08-05T10:42:40.557Z</time>
      </trkpt>
      <trkpt lat="46.98782" lon="8.70153">
        <ele>565</ele>
        <time>2021-08-05T10:42:41.557Z</time>
      </trkpt>
      <trkpt lat="46.98782" lon="8.70154">
        <ele>565</ele>
        <time>2021-08-05T10:42:42.557Z</time>
      </trkpt>
      <trkpt lat="46.98781" lon="8.70155">
        <ele>565</ele>
        <time>2021-08-05T10:42:43.558Z</time>
      </trkpt>
      <trkpt lat="46.98781" lon="8.70156">
        <ele>565</ele>
        <time>2021-08-05T10:42:44.557Z</time>
      </trkpt>
      <trkpt lat="46.98781" lon="8.70157">
        <ele>565</ele>
        <time>2021-08-05T10:42:45.557Z</time>
      </trkpt>
      <trkpt lat="46.9878" lon="8.70159">
        <ele>565</ele>
        <time>2021-08-05T10:42:46.557Z</time>
      </trkpt>
      <trkpt lat="46.98779" lon="8.7016">
        <ele>565</ele>
        <time>2021-08-05T10:42:47.557Z</time>
      </trkpt>
      <trkpt lat="46.98779" lon="8.70162">
        <ele>565</ele>
        <time>2021-08-05T10:42:48.558Z</time>
      </trkpt>
      <trkpt lat="46.98778" lon="8.70163">
        <ele>565</ele>
        <time>2021-08-05T10:43:05.552Z</time>
      </trkpt>
      <trkpt lat="46.98777" lon="8.70163">
        <ele>565</ele>
        <time>2021-08-05T10:43:06.551Z</time>
      </trkpt>
      <trkpt lat="46.98777" lon="8.70164">
        <ele>565</ele>
        <time>2021-08-05T10:43:07.552Z</time>
      </trkpt>
      <trkpt lat="46.98776" lon="8.70165">
        <ele>565</ele>
        <time>2021-08-05T10:43:08.551Z</time>
      </trkpt>
      <trkpt lat="46.98775" lon="8.70166">
        <ele>566</ele>
        <time>2021-08-05T10:43:09.551Z</time>
      </trkpt>
      <trkpt lat="46.98774" lon="8.70167">
        <ele>566</ele>
        <time>2021-08-05T10:43:10.552Z</time>
      </trkpt>
      <trkpt lat="46.98773" lon="8.70168">
        <ele>566</ele>
        <time>2021-08-05T10:43:44.700Z</time>
      </trkpt>
      <trkpt lat="46.98773" lon="8.70169">
        <ele>566</ele>
        <time>2021-08-05T10:43:45.699Z</time>
      </trkpt>
      <trkpt lat="46.98772" lon="8.7017">
        <ele>566</ele>
        <time>2021-08-05T10:43:46.699Z</time>
      </trkpt>
      <trkpt lat="46.98771" lon="8.70171">
        <ele>565</ele>
        <time>2021-08-05T10:43:47.699Z</time>
      </trkpt>
      <trkpt lat="46.9877" lon="8.70173">
        <ele>565</ele>
        <time>2021-08-05T10:43:48.699Z</time>
      </trkpt>
      <trkpt lat="46.9877" lon="8.70174">
        <ele>566</ele>
        <time>2021-08-05T10:43:49.699Z</time>
      </trkpt>
      <trkpt lat="46.98769" lon="8.70176">
        <ele>566</ele>
        <time>2021-08-05T10:43:50.699Z</time>
      </trkpt>
      <trkpt lat="46.98768" lon="8.70177">
        <ele>566</ele>
        <time>2021-08-05T10:43:51.699Z</time>
      </trkpt>
      <trkpt lat="46.98768" lon="8.70179">
        <ele>565</ele>
        <time>2021-08-05T10:43:52.699Z</time>
      </trkpt>
      <trkpt lat="46.98767" lon="8.7018">
        <ele>565</ele>
        <time>2021-08-05T10:43:53.699Z</time>
      </trkpt>
      <trkpt lat="46.98766" lon="8.70182">
        <ele>565</ele>
        <time>2021-08-05T10:43:54.700Z</time>
      </trkpt>
      <trkpt lat="46.98765" lon="8.70184">
        <ele>565</ele>
        <time>2021-08-05T10:43:55.700Z</time>
      </trkpt>
      <trkpt lat="46.98764" lon="8.70185">
        <ele>564</ele>
        <time>2021-08-05T10:43:57.808Z</time>
      </trkpt>
      <trkpt lat="46.98764" lon="8.70187">
        <ele>564</ele>
        <time>2021-08-05T10:44:27.698Z</time>
      </trkpt>
      <trkpt lat="46.98763" lon="8.70188">
        <ele>564</ele>
        <time>2021-08-05T10:44:28.699Z</time>
      </trkpt>
      <trkpt lat="46.98762" lon="8.7019">
        <ele>565</ele>
        <time>2021-08-05T10:44:33.582Z</time>
      </trkpt>
      <trkpt lat="46.98762" lon="8.70191">
        <ele>565</ele>
        <time>2021-08-05T10:44:34.583Z</time>
      </trkpt>
      <trkpt lat="46.98762" lon="8.70193">
        <ele>565</ele>
        <time>2021-08-05T10:44:35.583Z</time>
      </trkpt>
      <trkpt lat="46.98761" lon="8.70194">
        <ele>565</ele>
        <time>2021-08-05T10:44:36.583Z</time>
      </trkpt>
      <trkpt lat="46.98761" lon="8.70196">
        <ele>566</ele>
        <time>2021-08-05T10:44:37.583Z</time>
      </trkpt>
      <trkpt lat="46.9876" lon="8.70198">
        <ele>566</ele>
        <time>2021-08-05T10:44:38.583Z</time>
      </trkpt>
      <trkpt lat="46.9876" lon="8.702">
        <ele>567</ele>
        <time>2021-08-05T10:44:39.582Z</time>
      </trkpt>
      <trkpt lat="46.98759" lon="8.70202">
        <ele>567</ele>
        <time>2021-08-05T10:44:40.583Z</time>
      </trkpt>
      <trkpt lat="46.98758" lon="8.70204">
        <ele>567</ele>
        <time>2021-08-05T10:44:41.583Z</time>
      </trkpt>
      <trkpt lat="46.98758" lon="8.70206">
        <ele>566</ele>
        <time>2021-08-05T10:44:42.582Z</time>
      </trkpt>
      <trkpt lat="46.98757" lon="8.70208">
        <ele>566</ele>
        <time>2021-08-05T10:44:43.582Z</time>
      </trkpt>
      <trkpt lat="46.98757" lon="8.70209">
        <ele>566</ele>
        <time>2021-08-05T10:44:44.583Z</time>
      </trkpt>
      <trkpt lat="46.98756" lon="8.70211">
        <ele>566</ele>
        <time>2021-08-05T10:44:45.583Z</time>
      </trkpt>
      <trkpt lat="46.98755" lon="8.70212">
        <ele>566</ele>
        <time>2021-08-05T10:44:46.582Z</time>
      </trkpt>
      <trkpt lat="46.98755" lon="8.70214">
        <ele>566</ele>
        <time>2021-08-05T10:44:47.583Z</time>
      </trkpt>
      <trkpt lat="46.98755" lon="8.70215">
        <ele>566</ele>
        <time>2021-08-05T10:44:48.583Z</time>
      </trkpt>
      <trkpt lat="46.98754" lon="8.70217">
        <ele>566</ele>
        <time>2021-08-05T10:44:49.583Z</time>
      </trkpt>
      <trkpt lat="46.98754" lon="8.70218">
        <ele>566</ele>
        <time>2021-08-05T10:44:50.583Z</time>
      </trkpt>
      <trkpt lat="46.98754" lon="8.7022">
        <ele>567</ele>
        <time>2021-08-05T10:44:51.583Z</time>
      </trkpt>
      <trkpt lat="46.98755" lon="8.70221">
        <ele>567</ele>
        <time>2021-08-05T10:44:52.582Z</time>
      </trkpt>
      <trkpt lat="46.98755" lon="8.70222">
        <ele>568</ele>
        <time>2021-08-05T10:44:53.583Z</time>
      </trkpt>
      <trkpt lat="46.98755" lon="8.70224">
        <ele>568</ele>
        <time>2021-08-05T10:44:54.582Z</time>
      </trkpt>
      <trkpt lat="46.98754" lon="8.70225">
        <ele>568</ele>
        <time>2021-08-05T10:44:55.583Z</time>
      </trkpt>
      <trkpt lat="46.98754" lon="8.70226">
        <ele>568</ele>
        <time>2021-08-05T10:44:56.583Z</time>
      </trkpt>
      <trkpt lat="46.98754" lon="8.70228">
        <ele>567</ele>
        <time>2021-08-05T10:44:57.582Z</time>
      </trkpt>
      <trkpt lat="46.98753" lon="8.70229">
        <ele>567</ele>
        <time>2021-08-05T10:44:58.583Z</time>
      </trkpt>
      <trkpt lat="46.98753" lon="8.70231">
        <ele>566</ele>
        <time>2021-08-05T10:44:59.583Z</time>
      </trkpt>
      <trkpt lat="46.98752" lon="8.70233">
        <ele>566</ele>
        <time>2021-08-05T10:45:00.583Z</time>
      </trkpt>
      <trkpt lat="46.98751" lon="8.70235">
        <ele>566</ele>
        <time>2021-08-05T10:45:01.583Z</time>
      </trkpt>
      <trkpt lat="46.98751" lon="8.70237">
        <ele>567</ele>
        <time>2021-08-05T10:45:02.583Z</time>
      </trkpt>
      <trkpt lat="46.9875" lon="8.70238">
        <ele>567</ele>
        <time>2021-08-05T10:45:03.583Z</time>
      </trkpt>
      <trkpt lat="46.98749" lon="8.7024">
        <ele>567</ele>
        <time>2021-08-05T10:45:04.582Z</time>
      </trkpt>
      <trkpt lat="46.98749" lon="8.70241">
        <ele>568</ele>
        <time>2021-08-05T10:45:05.582Z</time>
      </trkpt>
      <trkpt lat="46.98749" lon="8.70243">
        <ele>568</ele>
        <time>2021-08-05T10:45:06.582Z</time>
      </trkpt>
      <trkpt lat="46.98748" lon="8.70245">
        <ele>568</ele>
        <time>2021-08-05T10:45:07.582Z</time>
      </trkpt>
      <trkpt lat="46.98748" lon="8.70246">
        <ele>568</ele>
        <time>2021-08-05T10:45:08.582Z</time>
      </trkpt>
      <trkpt lat="46.98748" lon="8.70248">
        <ele>568</ele>
        <time>2021-08-05T10:45:09.582Z</time>
      </trkpt>
      <trkpt lat="46.98747" lon="8.70249">
        <ele>568</ele>
        <time>2021-08-05T10:45:10.583Z</time>
      </trkpt>
      <trkpt lat="46.98746" lon="8.70251">
        <ele>568</ele>
        <time>2021-08-05T10:45:11.582Z</time>
      </trkpt>
      <trkpt lat="46.98746" lon="8.70252">
        <ele>568</ele>
        <time>2021-08-05T10:45:12.582Z</time>
      </trkpt>
      <trkpt lat="46.98745" lon="8.70253">
        <ele>569</ele>
        <time>2021-08-05T10:45:13.582Z</time>
      </trkpt>
      <trkpt lat="46.98745" lon="8.70255">
        <ele>569</ele>
        <time>2021-08-05T10:45:14.583Z</time>
      </trkpt>
      <trkpt lat="46.98744" lon="8.70257">
        <ele>569</ele>
        <time>2021-08-05T10:45:15.583Z</time>
      </trkpt>
      <trkpt lat="46.98743" lon="8.70258">
        <ele>570</ele>
        <time>2021-08-05T10:45:16.583Z</time>
      </trkpt>
      <trkpt lat="46.98742" lon="8.70259">
        <ele>570</ele>
        <time>2021-08-05T10:45:31.688Z</time>
      </trkpt>
      <trkpt lat="46.98742" lon="8.7026">
        <ele>570</ele>
        <time>2021-08-05T10:45:32.688Z</time>
      </trkpt>
      <trkpt lat="46.98741" lon="8.70262">
        <ele>570</ele>
        <time>2021-08-05T10:45:33.687Z</time>
      </trkpt>
      <trkpt lat="46.98741" lon="8.70263">
        <ele>569</ele>
        <time>2021-08-05T10:45:34.687Z</time>
      </trkpt>
      <trkpt lat="46.9874" lon="8.70265">
        <ele>569</ele>
        <time>2021-08-05T10:45:39.793Z</time>
      </trkpt>
      <trkpt lat="46.98739" lon="8.70267">
        <ele>568</ele>
        <time>2021-08-05T10:45:40.792Z</time>
      </trkpt>
      <trkpt lat="46.98739" lon="8.70269">
        <ele>568</ele>
        <time>2021-08-05T10:45:41.793Z</time>
      </trkpt>
      <trkpt lat="46.98738" lon="8.70271">
        <ele>567</ele>
        <time>2021-08-05T10:45:42.793Z</time>
      </trkpt>
      <trkpt lat="46.98737" lon="8.70272">
        <ele>566</ele>
        <time>2021-08-05T10:45:43.792Z</time>
      </trkpt>
      <trkpt lat="46.98736" lon="8.70274">
        <ele>566</ele>
        <time>2021-08-05T10:45:44.793Z</time>
      </trkpt>
      <trkpt lat="46.98736" lon="8.70275">
        <ele>565</ele>
        <time>2021-08-05T10:45:45.792Z</time>
      </trkpt>
      <trkpt lat="46.98736" lon="8.70277">
        <ele>565</ele>
        <time>2021-08-05T10:45:46.793Z</time>
      </trkpt>
      <trkpt lat="46.98736" lon="8.70278">
        <ele>564</ele>
        <time>2021-08-05T10:45:47.793Z</time>
      </trkpt>
      <trkpt lat="46.98735" lon="8.7028">
        <ele>564</ele>
        <time>2021-08-05T10:45:48.793Z</time>
      </trkpt>
      <trkpt lat="46.98735" lon="8.70282">
        <ele>564</ele>
        <time>2021-08-05T10:46:02.919Z</time>
      </trkpt>
      <trkpt lat="46.98735" lon="8.70284">
        <ele>565</ele>
        <time>2021-08-05T10:46:03.920Z</time>
      </trkpt>
      <trkpt lat="46.98735" lon="8.70285">
        <ele>565</ele>
        <time>2021-08-05T10:46:07.817Z</time>
      </trkpt>
      <trkpt lat="46.98734" lon="8.70286">
        <ele>566</ele>
        <time>2021-08-05T10:46:08.816Z</time>
      </trkpt>
      <trkpt lat="46.98734" lon="8.70288">
        <ele>566</ele>
        <time>2021-08-05T10:46:09.817Z</time>
      </trkpt>
      <trkpt lat="46.98733" lon="8.70289">
        <ele>566</ele>
        <time>2021-08-05T10:46:10.816Z</time>
      </trkpt>
      <trkpt lat="46.98733" lon="8.70291">
        <ele>566</ele>
        <time>2021-08-05T10:46:11.816Z</time>
      </trkpt>
      <trkpt lat="46.98732" lon="8.70292">
        <ele>565</ele>
        <time>2021-08-05T10:46:12.817Z</time>
      </trkpt>
      <trkpt lat="46.98731" lon="8.70294">
        <ele>565</ele>
        <time>2021-08-05T10:46:13.817Z</time>
      </trkpt>
      <trkpt lat="46.98731" lon="8.70295">
        <ele>565</ele>
        <time>2021-08-05T10:46:14.817Z</time>
      </trkpt>
      <trkpt lat="46.98731" lon="8.70297">
        <ele>564</ele>
        <time>2021-08-05T10:46:15.817Z</time>
      </trkpt>
      <trkpt lat="46.9873" lon="8.70298">
        <ele>564</ele>
        <time>2021-08-05T10:46:16.816Z</time>
      </trkpt>
      <trkpt lat="46.9873" lon="8.70299">
        <ele>564</ele>
        <time>2021-08-05T10:46:17.817Z</time>
      </trkpt>
      <trkpt lat="46.98729" lon="8.70301">
        <ele>563</ele>
        <time>2021-08-05T10:46:18.817Z</time>
      </trkpt>
      <trkpt lat="46.98729" lon="8.70302">
        <ele>563</ele>
        <time>2021-08-05T10:46:19.817Z</time>
      </trkpt>
      <trkpt lat="46.98729" lon="8.70303">
        <ele>563</ele>
        <time>2021-08-05T10:46:30.930Z</time>
      </trkpt>
      <trkpt lat="46.98728" lon="8.70305">
        <ele>563</ele>
        <time>2021-08-05T10:46:31.930Z</time>
      </trkpt>
      <trkpt lat="46.98727" lon="8.70307">
        <ele>563</ele>
        <time>2021-08-05T10:46:50.805Z</time>
      </trkpt>
      <trkpt lat="46.98726" lon="8.70308">
        <ele>563</ele>
        <time>2021-08-05T10:46:51.805Z</time>
      </trkpt>
      <trkpt lat="46.98726" lon="8.7031">
        <ele>563</ele>
        <time>2021-08-05T10:46:52.805Z</time>
      </trkpt>
      <trkpt lat="46.98725" lon="8.70312">
        <ele>564</ele>
        <time>2021-08-05T10:46:53.804Z</time>
      </trkpt>
      <trkpt lat="46.98724" lon="8.70313">
        <ele>564</ele>
        <time>2021-08-05T10:46:54.805Z</time>
      </trkpt>
      <trkpt lat="46.98723" lon="8.70314">
        <ele>564</ele>
        <time>2021-08-05T10:46:55.804Z</time>
      </trkpt>
      <trkpt lat="46.98723" lon="8.70316">
        <ele>565</ele>
        <time>2021-08-05T10:46:56.805Z</time>
      </trkpt>
      <trkpt lat="46.98722" lon="8.70317">
        <ele>565</ele>
        <time>2021-08-05T10:46:57.805Z</time>
      </trkpt>
      <trkpt lat="46.98722" lon="8.70319">
        <ele>565</ele>
        <time>2021-08-05T10:46:58.805Z</time>
      </trkpt>
      <trkpt lat="46.98721" lon="8.7032">
        <ele>566</ele>
        <time>2021-08-05T10:46:59.804Z</time>
      </trkpt>
      <trkpt lat="46.98721" lon="8.70322">
        <ele>566</ele>
        <time>2021-08-05T10:47:00.804Z</time>
      </trkpt>
      <trkpt lat="46.98719" lon="8.70323">
        <ele>567</ele>
        <time>2021-08-05T10:47:01.805Z</time>
      </trkpt>
      <trkpt lat="46.98719" lon="8.70325">
        <ele>567</ele>
        <time>2021-08-05T10:47:02.804Z</time>
      </trkpt>
      <trkpt lat="46.98718" lon="8.70326">
        <ele>567</ele>
        <time>2021-08-05T10:47:03.805Z</time>
      </trkpt>
      <trkpt lat="46.98717" lon="8.70327">
        <ele>567</ele>
        <time>2021-08-05T10:47:04.804Z</time>
      </trkpt>
      <trkpt lat="46.98717" lon="8.70329">
        <ele>567</ele>
        <time>2021-08-05T10:47:05.805Z</time>
      </trkpt>
      <trkpt lat="46.98716" lon="8.7033">
        <ele>567</ele>
        <time>2021-08-05T10:47:06.805Z</time>
      </trkpt>
      <trkpt lat="46.98716" lon="8.70331">
        <ele>566</ele>
        <time>2021-08-05T10:47:07.804Z</time>
      </trkpt>
      <trkpt lat="46.98715" lon="8.70333">
        <ele>566</ele>
        <time>2021-08-05T10:47:08.805Z</time>
      </trkpt>
      <trkpt lat="46.98714" lon="8.70334">
        <ele>565</ele>
        <time>2021-08-05T10:47:09.804Z</time>
      </trkpt>
      <trkpt lat="46.98714" lon="8.70336">
        <ele>565</ele>
        <time>2021-08-05T10:47:10.804Z</time>
      </trkpt>
      <trkpt lat="46.98713" lon="8.70338">
        <ele>565</ele>
        <time>2021-08-05T10:47:11.805Z</time>
      </trkpt>
      <trkpt lat="46.98713" lon="8.70339">
        <ele>565</ele>
        <time>2021-08-05T10:47:12.804Z</time>
      </trkpt>
      <trkpt lat="46.98712" lon="8.70341">
        <ele>566</ele>
        <time>2021-08-05T10:47:13.804Z</time>
      </trkpt>
      <trkpt lat="46.98711" lon="8.70342">
        <ele>566</ele>
        <time>2021-08-05T10:47:14.805Z</time>
      </trkpt>
      <trkpt lat="46.98711" lon="8.70344">
        <ele>566</ele>
        <time>2021-08-05T10:47:15.805Z</time>
      </trkpt>
      <trkpt lat="46.9871" lon="8.70345">
        <ele>566</ele>
        <time>2021-08-05T10:47:16.805Z</time>
      </trkpt>
      <trkpt lat="46.9871" lon="8.70347">
        <ele>566</ele>
        <time>2021-08-05T10:47:17.805Z</time>
      </trkpt>
      <trkpt lat="46.98709" lon="8.70348">
        <ele>565</ele>
        <time>2021-08-05T10:47:18.805Z</time>
      </trkpt>
      <trkpt lat="46.98708" lon="8.70349">
        <ele>565</ele>
        <time>2021-08-05T10:47:19.804Z</time>
      </trkpt>
      <trkpt lat="46.98708" lon="8.70351">
        <ele>565</ele>
        <time>2021-08-05T10:47:20.804Z</time>
      </trkpt>
      <trkpt lat="46.98707" lon="8.70352">
        <ele>566</ele>
        <time>2021-08-05T10:47:21.805Z</time>
      </trkpt>
      <trkpt lat="46.98706" lon="8.70353">
        <ele>566</ele>
        <time>2021-08-05T10:47:22.805Z</time>
      </trkpt>
      <trkpt lat="46.98706" lon="8.70354">
        <ele>566</ele>
        <time>2021-08-05T10:47:23.805Z</time>
      </trkpt>
      <trkpt lat="46.98706" lon="8.70356">
        <ele>567</ele>
        <time>2021-08-05T10:47:24.805Z</time>
      </trkpt>
      <trkpt lat="46.98706" lon="8.70358">
        <ele>567</ele>
        <time>2021-08-05T10:47:25.804Z</time>
      </trkpt>
      <trkpt lat="46.98705" lon="8.70359">
        <ele>567</ele>
        <time>2021-08-05T10:47:26.805Z</time>
      </trkpt>
      <trkpt lat="46.98705" lon="8.7036">
        <ele>566</ele>
        <time>2021-08-05T10:47:27.805Z</time>
      </trkpt>
      <trkpt lat="46.98704" lon="8.70361">
        <ele>566</ele>
        <time>2021-08-05T10:47:28.805Z</time>
      </trkpt>
      <trkpt lat="46.98703" lon="8.70362">
        <ele>566</ele>
        <time>2021-08-05T10:47:29.805Z</time>
      </trkpt>
      <trkpt lat="46.98702" lon="8.70363">
        <ele>566</ele>
        <time>2021-08-05T10:47:30.805Z</time>
      </trkpt>
      <trkpt lat="46.98701" lon="8.70365">
        <ele>566</ele>
        <time>2021-08-05T10:47:31.805Z</time>
      </trkpt>
      <trkpt lat="46.987" lon="8.70366">
        <ele>566</ele>
        <time>2021-08-05T10:47:32.804Z</time>
      </trkpt>
      <trkpt lat="46.98699" lon="8.70367">
        <ele>567</ele>
        <time>2021-08-05T10:47:33.805Z</time>
      </trkpt>
      <trkpt lat="46.98698" lon="8.70369">
        <ele>567</ele>
        <time>2021-08-05T10:47:34.805Z</time>
      </trkpt>
      <trkpt lat="46.98698" lon="8.7037">
        <ele>567</ele>
        <time>2021-08-05T10:47:35.804Z</time>
      </trkpt>
      <trkpt lat="46.98696" lon="8.70372">
        <ele>568</ele>
        <time>2021-08-05T10:47:36.805Z</time>
      </trkpt>
      <trkpt lat="46.98696" lon="8.70373">
        <ele>568</ele>
        <time>2021-08-05T10:47:37.805Z</time>
      </trkpt>
      <trkpt lat="46.98694" lon="8.70374">
        <ele>568</ele>
        <time>2021-08-05T10:47:38.804Z</time>
      </trkpt>
      <trkpt lat="46.98694" lon="8.70376">
        <ele>568</ele>
        <time>2021-08-05T10:47:39.804Z</time>
      </trkpt>
      <trkpt lat="46.98693" lon="8.70378">
        <ele>568</ele>
        <time>2021-08-05T10:47:40.805Z</time>
      </trkpt>
      <trkpt lat="46.98692" lon="8.70379">
        <ele>569</ele>
        <time>2021-08-05T10:47:41.805Z</time>
      </trkpt>
      <trkpt lat="46.98691" lon="8.7038">
        <ele>568</ele>
        <time>2021-08-05T10:47:42.805Z</time>
      </trkpt>
      <trkpt lat="46.9869" lon="8.70381">
        <ele>568</ele>
        <time>2021-08-05T10:47:43.804Z</time>
      </trkpt>
      <trkpt lat="46.98689" lon="8.70382">
        <ele>568</ele>
        <time>2021-08-05T10:47:44.804Z</time>
      </trkpt>
      <trkpt lat="46.98689" lon="8.70383">
        <ele>568</ele>
        <time>2021-08-05T10:47:45.805Z</time>
      </trkpt>
      <trkpt lat="46.98688" lon="8.70385">
        <ele>567</ele>
        <time>2021-08-05T10:47:46.805Z</time>
      </trkpt>
      <trkpt lat="46.98687" lon="8.70386">
        <ele>567</ele>
        <time>2021-08-05T10:47:47.805Z</time>
      </trkpt>
      <trkpt lat="46.98686" lon="8.70388">
        <ele>566</ele>
        <time>2021-08-05T10:47:48.805Z</time>
      </trkpt>
      <trkpt lat="46.98685" lon="8.70389">
        <ele>565</ele>
        <time>2021-08-05T10:47:49.804Z</time>
      </trkpt>
      <trkpt lat="46.98685" lon="8.7039">
        <ele>564</ele>
        <time>2021-08-05T10:47:50.804Z</time>
      </trkpt>
      <trkpt lat="46.98684" lon="8.70391">
        <ele>564</ele>
        <time>2021-08-05T10:47:51.805Z</time>
      </trkpt>
      <trkpt lat="46.98683" lon="8.70393">
        <ele>564</ele>
        <time>2021-08-05T10:47:52.804Z</time>
      </trkpt>
      <trkpt lat="46.98682" lon="8.70394">
        <ele>564</ele>
        <time>2021-08-05T10:47:53.805Z</time>
      </trkpt>
      <trkpt lat="46.98682" lon="8.70395">
        <ele>565</ele>
        <time>2021-08-05T10:47:54.805Z</time>
      </trkpt>
      <trkpt lat="46.98681" lon="8.70397">
        <ele>565</ele>
        <time>2021-08-05T10:47:55.804Z</time>
      </trkpt>
      <trkpt lat="46.9868" lon="8.70398">
        <ele>566</ele>
        <time>2021-08-05T10:47:56.804Z</time>
      </trkpt>
      <trkpt lat="46.98679" lon="8.70399">
        <ele>566</ele>
        <time>2021-08-05T10:47:57.805Z</time>
      </trkpt>
      <trkpt lat="46.98678" lon="8.704">
        <ele>567</ele>
        <time>2021-08-05T10:47:58.805Z</time>
      </trkpt>
      <trkpt lat="46.98677" lon="8.70401">
        <ele>567</ele>
        <time>2021-08-05T10:47:59.804Z</time>
      </trkpt>
      <trkpt lat="46.98676" lon="8.70402">
        <ele>567</ele>
        <time>2021-08-05T10:48:00.805Z</time>
      </trkpt>
      <trkpt lat="46.98676" lon="8.70404">
        <ele>566</ele>
        <time>2021-08-05T10:48:01.804Z</time>
      </trkpt>
      <trkpt lat="46.98675" lon="8.70405">
        <ele>566</ele>
        <time>2021-08-05T10:48:02.804Z</time>
      </trkpt>
      <trkpt lat="46.98674" lon="8.70406">
        <ele>565</ele>
        <time>2021-08-05T10:48:03.805Z</time>
      </trkpt>
      <trkpt lat="46.98673" lon="8.70407">
        <ele>565</ele>
        <time>2021-08-05T10:48:04.805Z</time>
      </trkpt>
      <trkpt lat="46.98673" lon="8.70408">
        <ele>565</ele>
        <time>2021-08-05T10:48:05.805Z</time>
      </trkpt>
      <trkpt lat="46.98672" lon="8.7041">
        <ele>565</ele>
        <time>2021-08-05T10:48:06.805Z</time>
      </trkpt>
      <trkpt lat="46.98672" lon="8.70411">
        <ele>565</ele>
        <time>2021-08-05T10:48:07.805Z</time>
      </trkpt>
      <trkpt lat="46.98671" lon="8.70413">
        <ele>565</ele>
        <time>2021-08-05T10:48:08.805Z</time>
      </trkpt>
      <trkpt lat="46.9867" lon="8.70413">
        <ele>565</ele>
        <time>2021-08-05T10:48:09.804Z</time>
      </trkpt>
      <trkpt lat="46.98669" lon="8.70414">
        <ele>566</ele>
        <time>2021-08-05T10:48:10.805Z</time>
      </trkpt>
      <trkpt lat="46.98668" lon="8.70416">
        <ele>566</ele>
        <time>2021-08-05T10:48:11.805Z</time>
      </trkpt>
      <trkpt lat="46.98667" lon="8.70417">
        <ele>566</ele>
        <time>2021-08-05T10:48:12.804Z</time>
      </trkpt>
      <trkpt lat="46.98666" lon="8.70418">
        <ele>566</ele>
        <time>2021-08-05T10:48:13.805Z</time>
      </trkpt>
      <trkpt lat="46.98666" lon="8.70419">
        <ele>566</ele>
        <time>2021-08-05T10:48:14.805Z</time>
      </trkpt>
      <trkpt lat="46.98665" lon="8.7042">
        <ele>566</ele>
        <time>2021-08-05T10:48:15.804Z</time>
      </trkpt>
      <trkpt lat="46.98664" lon="8.70422">
        <ele>566</ele>
        <time>2021-08-05T10:48:16.805Z</time>
      </trkpt>
      <trkpt lat="46.98664" lon="8.70424">
        <ele>566</ele>
        <time>2021-08-05T10:48:17.804Z</time>
      </trkpt>
      <trkpt lat="46.98663" lon="8.70425">
        <ele>566</ele>
        <time>2021-08-05T10:48:18.805Z</time>
      </trkpt>
      <trkpt lat="46.98662" lon="8.70426">
        <ele>567</ele>
        <time>2021-08-05T10:48:19.804Z</time>
      </trkpt>
      <trkpt lat="46.98661" lon="8.70428">
        <ele>567</ele>
        <time>2021-08-05T10:48:20.805Z</time>
      </trkpt>
      <trkpt lat="46.9866" lon="8.70429">
        <ele>567</ele>
        <time>2021-08-05T10:48:21.805Z</time>
      </trkpt>
      <trkpt lat="46.98659" lon="8.7043">
        <ele>567</ele>
        <time>2021-08-05T10:48:22.804Z</time>
      </trkpt>
      <trkpt lat="46.98658" lon="8.70431">
        <ele>566</ele>
        <time>2021-08-05T10:48:23.804Z</time>
      </trkpt>
      <trkpt lat="46.98658" lon="8.70432">
        <ele>566</ele>
        <time>2021-08-05T10:48:24.805Z</time>
      </trkpt>
      <trkpt lat="46.98657" lon="8.70433">
        <ele>566</ele>
        <time>2021-08-05T10:48:25.805Z</time>
      </trkpt>
      <trkpt lat="46.98656" lon="8.70434">
        <ele>566</ele>
        <time>2021-08-05T10:48:26.804Z</time>
      </trkpt>
      <trkpt lat="46.98656" lon="8.70436">
        <ele>565</ele>
        <time>2021-08-05T10:48:27.805Z</time>
      </trkpt>
      <trkpt lat="46.98655" lon="8.70437">
        <ele>565</ele>
        <time>2021-08-05T10:48:28.805Z</time>
      </trkpt>
      <trkpt lat="46.98655" lon="8.70439">
        <ele>565</ele>
        <time>2021-08-05T10:48:29.804Z</time>
      </trkpt>
      <trkpt lat="46.98654" lon="8.7044">
        <ele>565</ele>
        <time>2021-08-05T10:48:30.805Z</time>
      </trkpt>
      <trkpt lat="46.98653" lon="8.70441">
        <ele>566</ele>
        <time>2021-08-05T10:48:31.805Z</time>
      </trkpt>
      <trkpt lat="46.98652" lon="8.70443">
        <ele>566</ele>
        <time>2021-08-05T10:48:32.805Z</time>
      </trkpt>
      <trkpt lat="46.98651" lon="8.70444">
        <ele>567</ele>
        <time>2021-08-05T10:48:33.805Z</time>
      </trkpt>
      <trkpt lat="46.9865" lon="8.70445">
        <ele>566</ele>
        <time>2021-08-05T10:48:34.805Z</time>
      </trkpt>
      <trkpt lat="46.9865" lon="8.70446">
        <ele>566</ele>
        <time>2021-08-05T10:48:35.804Z</time>
      </trkpt>
      <trkpt lat="46.98649" lon="8.70447">
        <ele>566</ele>
        <time>2021-08-05T10:48:36.805Z</time>
      </trkpt>
      <trkpt lat="46.98648" lon="8.70448">
        <ele>566</ele>
        <time>2021-08-05T10:48:37.805Z</time>
      </trkpt>
      <trkpt lat="46.98647" lon="8.70449">
        <ele>565</ele>
        <time>2021-08-05T10:48:38.804Z</time>
      </trkpt>
      <trkpt lat="46.98647" lon="8.7045">
        <ele>564</ele>
        <time>2021-08-05T10:48:39.805Z</time>
      </trkpt>
      <trkpt lat="46.98646" lon="8.7045">
        <ele>564</ele>
        <time>2021-08-05T10:48:40.805Z</time>
      </trkpt>
      <trkpt lat="46.98645" lon="8.70452">
        <ele>564</ele>
        <time>2021-08-05T10:48:41.805Z</time>
      </trkpt>
      <trkpt lat="46.98645" lon="8.70453">
        <ele>564</ele>
        <time>2021-08-05T10:48:42.804Z</time>
      </trkpt>
      <trkpt lat="46.98644" lon="8.70454">
        <ele>565</ele>
        <time>2021-08-05T10:48:43.804Z</time>
      </trkpt>
      <trkpt lat="46.98644" lon="8.70455">
        <ele>565</ele>
        <time>2021-08-05T10:48:44.805Z</time>
      </trkpt>
      <trkpt lat="46.98643" lon="8.70456">
        <ele>565</ele>
        <time>2021-08-05T10:48:45.805Z</time>
      </trkpt>
      <trkpt lat="46.98642" lon="8.70457">
        <ele>565</ele>
        <time>2021-08-05T10:48:46.805Z</time>
      </trkpt>
      <trkpt lat="46.98641" lon="8.70458">
        <ele>565</ele>
        <time>2021-08-05T10:48:47.805Z</time>
      </trkpt>
      <trkpt lat="46.98641" lon="8.70459">
        <ele>565</ele>
        <time>2021-08-05T10:48:48.804Z</time>
      </trkpt>
      <trkpt lat="46.9864" lon="8.7046">
        <ele>564</ele>
        <time>2021-08-05T10:48:49.805Z</time>
      </trkpt>
      <trkpt lat="46.98639" lon="8.70461">
        <ele>564</ele>
        <time>2021-08-05T10:48:50.805Z</time>
      </trkpt>
      <trkpt lat="46.98639" lon="8.70462">
        <ele>564</ele>
        <time>2021-08-05T10:48:51.805Z</time>
      </trkpt>
      <trkpt lat="46.98638" lon="8.70463">
        <ele>564</ele>
        <time>2021-08-05T10:48:52.805Z</time>
      </trkpt>
      <trkpt lat="46.98637" lon="8.70464">
        <ele>564</ele>
        <time>2021-08-05T10:48:53.805Z</time>
      </trkpt>
      <trkpt lat="46.98636" lon="8.70465">
        <ele>563</ele>
        <time>2021-08-05T10:48:54.805Z</time>
      </trkpt>
      <trkpt lat="46.98635" lon="8.70466">
        <ele>564</ele>
        <time>2021-08-05T10:48:55.805Z</time>
      </trkpt>
      <trkpt lat="46.98634" lon="8.70467">
        <ele>564</ele>
        <time>2021-08-05T10:48:56.804Z</time>
      </trkpt>
      <trkpt lat="46.98634" lon="8.70467">
        <ele>564</ele>
        <time>2021-08-05T10:48:57.805Z</time>
      </trkpt>
      <trkpt lat="46.98634" lon="8.70468">
        <ele>564</ele>
        <time>2021-08-05T10:48:58.805Z</time>
      </trkpt>
      <trkpt lat="46.98633" lon="8.70468">
        <ele>564</ele>
        <time>2021-08-05T10:48:59.804Z</time>
      </trkpt>
      <trkpt lat="46.98633" lon="8.70469">
        <ele>564</ele>
        <time>2021-08-05T10:49:00.804Z</time>
      </trkpt>
      <trkpt lat="46.98632" lon="8.70468">
        <ele>564</ele>
        <time>2021-08-05T10:49:01.804Z</time>
      </trkpt>
      <trkpt lat="46.98632" lon="8.70469">
        <ele>565</ele>
        <time>2021-08-05T10:49:02.804Z</time>
      </trkpt>
      <trkpt lat="46.9863" lon="8.70472">
        <ele>566</ele>
        <time>2021-08-05T10:49:03.806Z</time>
      </trkpt>
      <trkpt lat="46.98631" lon="8.70471">
        <ele>566</ele>
        <time>2021-08-05T10:49:04.806Z</time>
      </trkpt>
      <trkpt lat="46.98631" lon="8.70469">
        <ele>565</ele>
        <time>2021-08-05T10:49:05.805Z</time>
      </trkpt>
      <trkpt lat="46.9863" lon="8.70469">
        <ele>565</ele>
        <time>2021-08-05T10:49:06.806Z</time>
      </trkpt>
      <trkpt lat="46.98629" lon="8.70469">
        <ele>566</ele>
        <time>2021-08-05T10:49:07.805Z</time>
      </trkpt>
      <trkpt lat="46.98629" lon="8.7047">
        <ele>567</ele>
        <time>2021-08-05T10:49:08.806Z</time>
      </trkpt>
      <trkpt lat="46.98628" lon="8.70471">
        <ele>567</ele>
        <time>2021-08-05T10:49:09.806Z</time>
      </trkpt>
      <trkpt lat="46.98627" lon="8.70473">
        <ele>568</ele>
        <time>2021-08-05T10:49:10.806Z</time>
      </trkpt>
      <trkpt lat="46.98626" lon="8.70473">
        <ele>569</ele>
        <time>2021-08-05T10:49:11.805Z</time>
      </trkpt>
      <trkpt lat="46.98625" lon="8.70474">
        <ele>570</ele>
        <time>2021-08-05T10:49:12.806Z</time>
      </trkpt>
      <trkpt lat="46.98624" lon="8.70476">
        <ele>570</ele>
        <time>2021-08-05T10:49:13.806Z</time>
      </trkpt>
      <trkpt lat="46.98623" lon="8.70477">
        <ele>571</ele>
        <time>2021-08-05T10:49:14.805Z</time>
      </trkpt>
      <trkpt lat="46.98622" lon="8.70478">
        <ele>571</ele>
        <time>2021-08-05T10:49:15.806Z</time>
      </trkpt>
      <trkpt lat="46.98621" lon="8.7048">
        <ele>571</ele>
        <time>2021-08-05T10:49:16.806Z</time>
      </trkpt>
      <trkpt lat="46.9862" lon="8.70481">
        <ele>571</ele>
        <time>2021-08-05T10:49:17.806Z</time>
      </trkpt>
      <trkpt lat="46.9862" lon="8.70483">
        <ele>571</ele>
        <time>2021-08-05T10:49:18.806Z</time>
      </trkpt>
      <trkpt lat="46.98619" lon="8.70484">
        <ele>571</ele>
        <time>2021-08-05T10:49:19.806Z</time>
      </trkpt>
      <trkpt lat="46.98618" lon="8.70485">
        <ele>571</ele>
        <time>2021-08-05T10:49:20.805Z</time>
      </trkpt>
      <trkpt lat="46.98617" lon="8.70486">
        <ele>571</ele>
        <time>2021-08-05T10:49:21.806Z</time>
      </trkpt>
      <trkpt lat="46.98616" lon="8.70488">
        <ele>572</ele>
        <time>2021-08-05T10:49:22.805Z</time>
      </trkpt>
      <trkpt lat="46.98615" lon="8.70489">
        <ele>573</ele>
        <time>2021-08-05T10:49:23.805Z</time>
      </trkpt>
      <trkpt lat="46.98614" lon="8.7049">
        <ele>573</ele>
        <time>2021-08-05T10:49:24.805Z</time>
      </trkpt>
      <trkpt lat="46.98612" lon="8.70491">
        <ele>573</ele>
        <time>2021-08-05T10:49:25.806Z</time>
      </trkpt>
      <trkpt lat="46.98611" lon="8.70492">
        <ele>573</ele>
        <time>2021-08-05T10:49:26.806Z</time>
      </trkpt>
      <trkpt lat="46.9861" lon="8.70493">
        <ele>573</ele>
        <time>2021-08-05T10:49:27.805Z</time>
      </trkpt>
      <trkpt lat="46.9861" lon="8.70494">
        <ele>574</ele>
        <time>2021-08-05T10:49:28.806Z</time>
      </trkpt>
      <trkpt lat="46.98609" lon="8.70496">
        <ele>574</ele>
        <time>2021-08-05T10:49:29.806Z</time>
      </trkpt>
      <trkpt lat="46.98608" lon="8.70496">
        <ele>574</ele>
        <time>2021-08-05T10:49:30.805Z</time>
      </trkpt>
      <trkpt lat="46.98607" lon="8.70497">
        <ele>574</ele>
        <time>2021-08-05T10:49:31.806Z</time>
      </trkpt>
      <trkpt lat="46.98606" lon="8.70499">
        <ele>574</ele>
        <time>2021-08-05T10:49:32.806Z</time>
      </trkpt>
      <trkpt lat="46.98606" lon="8.705">
        <ele>574</ele>
        <time>2021-08-05T10:49:33.806Z</time>
      </trkpt>
      <trkpt lat="46.98605" lon="8.70501">
        <ele>574</ele>
        <time>2021-08-05T10:49:34.806Z</time>
      </trkpt>
      <trkpt lat="46.98604" lon="8.70502">
        <ele>573</ele>
        <time>2021-08-05T10:49:35.806Z</time>
      </trkpt>
      <trkpt lat="46.98603" lon="8.70504">
        <ele>573</ele>
        <time>2021-08-05T10:49:36.806Z</time>
      </trkpt>
      <trkpt lat="46.98602" lon="8.70504">
        <ele>572</ele>
        <time>2021-08-05T10:49:37.806Z</time>
      </trkpt>
      <trkpt lat="46.98602" lon="8.70505">
        <ele>572</ele>
        <time>2021-08-05T10:49:38.806Z</time>
      </trkpt>
      <trkpt lat="46.98601" lon="8.70507">
        <ele>572</ele>
        <time>2021-08-05T10:49:39.806Z</time>
      </trkpt>
      <trkpt lat="46.986" lon="8.70508">
        <ele>571</ele>
        <time>2021-08-05T10:49:40.805Z</time>
      </trkpt>
      <trkpt lat="46.98598" lon="8.70509">
        <ele>571</ele>
        <time>2021-08-05T10:49:41.806Z</time>
      </trkpt>
      <trkpt lat="46.98596" lon="8.7051">
        <ele>571</ele>
        <time>2021-08-05T10:49:42.805Z</time>
      </trkpt>
      <trkpt lat="46.98595" lon="8.70511">
        <ele>571</ele>
        <time>2021-08-05T10:49:43.805Z</time>
      </trkpt>
      <trkpt lat="46.98594" lon="8.70512">
        <ele>571</ele>
        <time>2021-08-05T10:49:44.805Z</time>
      </trkpt>
      <trkpt lat="46.98593" lon="8.70513">
        <ele>571</ele>
        <time>2021-08-05T10:49:45.806Z</time>
      </trkpt>
      <trkpt lat="46.98592" lon="8.70513">
        <ele>571</ele>
        <time>2021-08-05T10:49:46.806Z</time>
      </trkpt>
      <trkpt lat="46.98592" lon="8.70515">
        <ele>571</ele>
        <time>2021-08-05T10:49:47.806Z</time>
      </trkpt>
      <trkpt lat="46.98591" lon="8.70516">
        <ele>571</ele>
        <time>2021-08-05T10:49:48.805Z</time>
      </trkpt>
      <trkpt lat="46.98591" lon="8.70518">
        <ele>571</ele>
        <time>2021-08-05T10:49:49.805Z</time>
      </trkpt>
      <trkpt lat="46.9859" lon="8.70519">
        <ele>571</ele>
        <time>2021-08-05T10:49:50.805Z</time>
      </trkpt>
      <trkpt lat="46.98589" lon="8.7052">
        <ele>571</ele>
        <time>2021-08-05T10:49:51.805Z</time>
      </trkpt>
      <trkpt lat="46.98588" lon="8.70521">
        <ele>570</ele>
        <time>2021-08-05T10:49:52.805Z</time>
      </trkpt>
      <trkpt lat="46.98587" lon="8.70522">
        <ele>570</ele>
        <time>2021-08-05T10:49:53.805Z</time>
      </trkpt>
      <trkpt lat="46.98587" lon="8.70523">
        <ele>570</ele>
        <time>2021-08-05T10:49:54.806Z</time>
      </trkpt>
      <trkpt lat="46.98586" lon="8.70524">
        <ele>570</ele>
        <time>2021-08-05T10:49:55.806Z</time>
      </trkpt>
      <trkpt lat="46.98586" lon="8.70526">
        <ele>570</ele>
        <time>2021-08-05T10:49:56.806Z</time>
      </trkpt>
      <trkpt lat="46.98585" lon="8.70527">
        <ele>570</ele>
        <time>2021-08-05T10:49:57.806Z</time>
      </trkpt>
      <trkpt lat="46.98585" lon="8.70528">
        <ele>570</ele>
        <time>2021-08-05T10:49:58.806Z</time>
      </trkpt>
      <trkpt lat="46.98584" lon="8.7053">
        <ele>570</ele>
        <time>2021-08-05T10:49:59.806Z</time>
      </trkpt>
      <trkpt lat="46.98583" lon="8.70531">
        <ele>570</ele>
        <time>2021-08-05T10:50:00.806Z</time>
      </trkpt>
      <trkpt lat="46.98582" lon="8.70532">
        <ele>570</ele>
        <time>2021-08-05T10:50:01.806Z</time>
      </trkpt>
      <trkpt lat="46.98581" lon="8.70533">
        <ele>570</ele>
        <time>2021-08-05T10:50:02.806Z</time>
      </trkpt>
      <trkpt lat="46.9858" lon="8.70535">
        <ele>571</ele>
        <time>2021-08-05T10:50:03.806Z</time>
      </trkpt>
      <trkpt lat="46.98579" lon="8.70536">
        <ele>571</ele>
        <time>2021-08-05T10:50:04.806Z</time>
      </trkpt>
      <trkpt lat="46.98577" lon="8.70537">
        <ele>571</ele>
        <time>2021-08-05T10:50:05.806Z</time>
      </trkpt>
      <trkpt lat="46.98576" lon="8.70538">
        <ele>571</ele>
        <time>2021-08-05T10:50:06.806Z</time>
      </trkpt>
      <trkpt lat="46.98575" lon="8.70539">
        <ele>571</ele>
        <time>2021-08-05T10:50:07.806Z</time>
      </trkpt>
      <trkpt lat="46.98574" lon="8.7054">
        <ele>571</ele>
        <time>2021-08-05T10:50:08.806Z</time>
      </trkpt>
      <trkpt lat="46.98573" lon="8.70541">
        <ele>571</ele>
        <time>2021-08-05T10:50:09.806Z</time>
      </trkpt>
      <trkpt lat="46.98572" lon="8.70541">
        <ele>571</ele>
        <time>2021-08-05T10:50:10.805Z</time>
      </trkpt>
      <trkpt lat="46.98571" lon="8.70542">
        <ele>571</ele>
        <time>2021-08-05T10:50:11.806Z</time>
      </trkpt>
      <trkpt lat="46.9857" lon="8.70543">
        <ele>570</ele>
        <time>2021-08-05T10:50:12.806Z</time>
      </trkpt>
      <trkpt lat="46.98569" lon="8.70544">
        <ele>569</ele>
        <time>2021-08-05T10:50:13.805Z</time>
      </trkpt>
      <trkpt lat="46.98567" lon="8.70544">
        <ele>568</ele>
        <time>2021-08-05T10:50:14.806Z</time>
      </trkpt>
      <trkpt lat="46.98567" lon="8.70545">
        <ele>568</ele>
        <time>2021-08-05T10:50:15.805Z</time>
      </trkpt>
      <trkpt lat="46.98566" lon="8.70547">
        <ele>567</ele>
        <time>2021-08-05T10:50:16.806Z</time>
      </trkpt>
      <trkpt lat="46.98565" lon="8.70547">
        <ele>567</ele>
        <time>2021-08-05T10:50:17.805Z</time>
      </trkpt>
      <trkpt lat="46.98565" lon="8.70548">
        <ele>567</ele>
        <time>2021-08-05T10:50:18.805Z</time>
      </trkpt>
      <trkpt lat="46.98564" lon="8.7055">
        <ele>568</ele>
        <time>2021-08-05T10:50:19.806Z</time>
      </trkpt>
      <trkpt lat="46.98563" lon="8.70551">
        <ele>569</ele>
        <time>2021-08-05T10:50:20.806Z</time>
      </trkpt>
      <trkpt lat="46.98563" lon="8.70552">
        <ele>570</ele>
        <time>2021-08-05T10:50:21.806Z</time>
      </trkpt>
      <trkpt lat="46.98562" lon="8.70553">
        <ele>571</ele>
        <time>2021-08-05T10:50:22.806Z</time>
      </trkpt>
      <trkpt lat="46.98561" lon="8.70554">
        <ele>571</ele>
        <time>2021-08-05T10:50:23.806Z</time>
      </trkpt>
      <trkpt lat="46.9856" lon="8.70555">
        <ele>571</ele>
        <time>2021-08-05T10:50:24.806Z</time>
      </trkpt>
      <trkpt lat="46.98559" lon="8.70557">
        <ele>571</ele>
        <time>2021-08-05T10:50:25.805Z</time>
      </trkpt>
      <trkpt lat="46.98558" lon="8.70558">
        <ele>571</ele>
        <time>2021-08-05T10:50:26.806Z</time>
      </trkpt>
      <trkpt lat="46.98558" lon="8.7056">
        <ele>571</ele>
        <time>2021-08-05T10:50:27.806Z</time>
      </trkpt>
      <trkpt lat="46.98557" lon="8.70562">
        <ele>571</ele>
        <time>2021-08-05T10:50:28.806Z</time>
      </trkpt>
      <trkpt lat="46.98556" lon="8.70563">
        <ele>572</ele>
        <time>2021-08-05T10:50:29.806Z</time>
      </trkpt>
      <trkpt lat="46.98555" lon="8.70564">
        <ele>573</ele>
        <time>2021-08-05T10:50:30.805Z</time>
      </trkpt>
      <trkpt lat="46.98554" lon="8.70566">
        <ele>573</ele>
        <time>2021-08-05T10:50:31.806Z</time>
      </trkpt>
      <trkpt lat="46.98554" lon="8.70567">
        <ele>574</ele>
        <time>2021-08-05T10:50:32.805Z</time>
      </trkpt>
      <trkpt lat="46.98553" lon="8.70568">
        <ele>574</ele>
        <time>2021-08-05T10:50:33.805Z</time>
      </trkpt>
      <trkpt lat="46.98552" lon="8.7057">
        <ele>574</ele>
        <time>2021-08-05T10:50:34.806Z</time>
      </trkpt>
      <trkpt lat="46.98551" lon="8.70571">
        <ele>574</ele>
        <time>2021-08-05T10:50:35.805Z</time>
      </trkpt>
      <trkpt lat="46.9855" lon="8.70572">
        <ele>573</ele>
        <time>2021-08-05T10:50:36.805Z</time>
      </trkpt>
      <trkpt lat="46.9855" lon="8.70574">
        <ele>573</ele>
        <time>2021-08-05T10:50:37.806Z</time>
      </trkpt>
      <trkpt lat="46.98549" lon="8.70575">
        <ele>572</ele>
        <time>2021-08-05T10:50:38.806Z</time>
      </trkpt>
      <trkpt lat="46.98548" lon="8.70576">
        <ele>572</ele>
        <time>2021-08-05T10:50:39.806Z</time>
      </trkpt>
      <trkpt lat="46.98547" lon="8.70578">
        <ele>572</ele>
        <time>2021-08-05T10:50:40.806Z</time>
      </trkpt>
      <trkpt lat="46.98547" lon="8.70579">
        <ele>572</ele>
        <time>2021-08-05T10:50:41.805Z</time>
      </trkpt>
      <trkpt lat="46.98546" lon="8.7058">
        <ele>572</ele>
        <time>2021-08-05T10:50:42.805Z</time>
      </trkpt>
      <trkpt lat="46.98545" lon="8.70581">
        <ele>572</ele>
        <time>2021-08-05T10:50:43.805Z</time>
      </trkpt>
      <trkpt lat="46.98544" lon="8.70583">
        <ele>572</ele>
        <time>2021-08-05T10:50:44.805Z</time>
      </trkpt>
      <trkpt lat="46.98544" lon="8.70583">
        <ele>572</ele>
        <time>2021-08-05T10:50:45.806Z</time>
      </trkpt>
      <trkpt lat="46.98543" lon="8.70585">
        <ele>571</ele>
        <time>2021-08-05T10:50:46.806Z</time>
      </trkpt>
      <trkpt lat="46.98542" lon="8.70586">
        <ele>571</ele>
        <time>2021-08-05T10:50:47.805Z</time>
      </trkpt>
      <trkpt lat="46.98541" lon="8.70587">
        <ele>571</ele>
        <time>2021-08-05T10:50:57.921Z</time>
      </trkpt>
      <trkpt lat="46.98541" lon="8.70589">
        <ele>571</ele>
        <time>2021-08-05T10:50:58.921Z</time>
      </trkpt>
      <trkpt lat="46.9854" lon="8.7059">
        <ele>571</ele>
        <time>2021-08-05T10:50:59.921Z</time>
      </trkpt>
      <trkpt lat="46.98539" lon="8.70592">
        <ele>571</ele>
        <time>2021-08-05T10:51:00.921Z</time>
      </trkpt>
      <trkpt lat="46.98539" lon="8.70594">
        <ele>572</ele>
        <time>2021-08-05T10:51:01.921Z</time>
      </trkpt>
      <trkpt lat="46.98538" lon="8.70595">
        <ele>572</ele>
        <time>2021-08-05T10:51:02.921Z</time>
      </trkpt>
      <trkpt lat="46.98537" lon="8.70596">
        <ele>573</ele>
        <time>2021-08-05T10:51:03.921Z</time>
      </trkpt>
      <trkpt lat="46.98536" lon="8.70597">
        <ele>573</ele>
        <time>2021-08-05T10:51:04.921Z</time>
      </trkpt>
      <trkpt lat="46.98535" lon="8.70599">
        <ele>573</ele>
        <time>2021-08-05T10:51:05.920Z</time>
      </trkpt>
      <trkpt lat="46.98534" lon="8.706">
        <ele>572</ele>
        <time>2021-08-05T10:51:06.920Z</time>
      </trkpt>
      <trkpt lat="46.98533" lon="8.70601">
        <ele>572</ele>
        <time>2021-08-05T10:51:07.920Z</time>
      </trkpt>
      <trkpt lat="46.98532" lon="8.70601">
        <ele>571</ele>
        <time>2021-08-05T10:51:08.920Z</time>
      </trkpt>
      <trkpt lat="46.98531" lon="8.70603">
        <ele>571</ele>
        <time>2021-08-05T10:51:09.921Z</time>
      </trkpt>
      <trkpt lat="46.9853" lon="8.70604">
        <ele>571</ele>
        <time>2021-08-05T10:51:10.921Z</time>
      </trkpt>
      <trkpt lat="46.98529" lon="8.70605">
        <ele>571</ele>
        <time>2021-08-05T10:51:11.920Z</time>
      </trkpt>
      <trkpt lat="46.98527" lon="8.70606">
        <ele>571</ele>
        <time>2021-08-05T10:51:12.920Z</time>
      </trkpt>
      <trkpt lat="46.98527" lon="8.70607">
        <ele>572</ele>
        <time>2021-08-05T10:51:27.082Z</time>
      </trkpt>
      <trkpt lat="46.98526" lon="8.70609">
        <ele>573</ele>
        <time>2021-08-05T10:51:28.081Z</time>
      </trkpt>
      <trkpt lat="46.98525" lon="8.7061">
        <ele>573</ele>
        <time>2021-08-05T10:51:29.082Z</time>
      </trkpt>
      <trkpt lat="46.98525" lon="8.70612">
        <ele>574</ele>
        <time>2021-08-05T10:51:30.082Z</time>
      </trkpt>
      <trkpt lat="46.98524" lon="8.70613">
        <ele>574</ele>
        <time>2021-08-05T10:51:31.082Z</time>
      </trkpt>
      <trkpt lat="46.98523" lon="8.70614">
        <ele>574</ele>
        <time>2021-08-05T10:51:32.081Z</time>
      </trkpt>
      <trkpt lat="46.98522" lon="8.70616">
        <ele>575</ele>
        <time>2021-08-05T10:51:33.082Z</time>
      </trkpt>
      <trkpt lat="46.98521" lon="8.70617">
        <ele>575</ele>
        <time>2021-08-05T10:51:34.082Z</time>
      </trkpt>
      <trkpt lat="46.9852" lon="8.70618">
        <ele>575</ele>
        <time>2021-08-05T10:51:35.082Z</time>
      </trkpt>
      <trkpt lat="46.98519" lon="8.70618">
        <ele>575</ele>
        <time>2021-08-05T10:51:36.081Z</time>
      </trkpt>
      <trkpt lat="46.98519" lon="8.70619">
        <ele>575</ele>
        <time>2021-08-05T10:51:37.081Z</time>
      </trkpt>
      <trkpt lat="46.98518" lon="8.7062">
        <ele>575</ele>
        <time>2021-08-05T10:51:38.082Z</time>
      </trkpt>
      <trkpt lat="46.98517" lon="8.70621">
        <ele>576</ele>
        <time>2021-08-05T10:51:39.082Z</time>
      </trkpt>
      <trkpt lat="46.98516" lon="8.70622">
        <ele>576</ele>
        <time>2021-08-05T10:51:40.082Z</time>
      </trkpt>
      <trkpt lat="46.98515" lon="8.70623">
        <ele>575</ele>
        <time>2021-08-05T10:51:41.082Z</time>
      </trkpt>
      <trkpt lat="46.98514" lon="8.70624">
        <ele>575</ele>
        <time>2021-08-05T10:51:42.081Z</time>
      </trkpt>
      <trkpt lat="46.98513" lon="8.70624">
        <ele>574</ele>
        <time>2021-08-05T10:51:43.081Z</time>
      </trkpt>
      <trkpt lat="46.98512" lon="8.70625">
        <ele>573</ele>
        <time>2021-08-05T10:51:44.081Z</time>
      </trkpt>
      <trkpt lat="46.98511" lon="8.70626">
        <ele>572</ele>
        <time>2021-08-05T10:51:45.082Z</time>
      </trkpt>
      <trkpt lat="46.9851" lon="8.70628">
        <ele>572</ele>
        <time>2021-08-05T10:51:46.081Z</time>
      </trkpt>
      <trkpt lat="46.98509" lon="8.70629">
        <ele>571</ele>
        <time>2021-08-05T10:51:47.081Z</time>
      </trkpt>
      <trkpt lat="46.98508" lon="8.7063">
        <ele>571</ele>
        <time>2021-08-05T10:51:48.082Z</time>
      </trkpt>
      <trkpt lat="46.98507" lon="8.70631">
        <ele>570</ele>
        <time>2021-08-05T10:51:49.081Z</time>
      </trkpt>
      <trkpt lat="46.98506" lon="8.70632">
        <ele>570</ele>
        <time>2021-08-05T10:51:50.082Z</time>
      </trkpt>
      <trkpt lat="46.98506" lon="8.70633">
        <ele>569</ele>
        <time>2021-08-05T10:51:51.081Z</time>
      </trkpt>
      <trkpt lat="46.98505" lon="8.70634">
        <ele>569</ele>
        <time>2021-08-05T10:51:52.081Z</time>
      </trkpt>
      <trkpt lat="46.98504" lon="8.70634">
        <ele>569</ele>
        <time>2021-08-05T10:51:53.082Z</time>
      </trkpt>
      <trkpt lat="46.98503" lon="8.70635">
        <ele>569</ele>
        <time>2021-08-05T10:51:54.081Z</time>
      </trkpt>
      <trkpt lat="46.98502" lon="8.70636">
        <ele>569</ele>
        <time>2021-08-05T10:51:55.081Z</time>
      </trkpt>
      <trkpt lat="46.98501" lon="8.70636">
        <ele>569</ele>
        <time>2021-08-05T10:51:56.082Z</time>
      </trkpt>
      <trkpt lat="46.98499" lon="8.70636">
        <ele>570</ele>
        <time>2021-08-05T10:51:57.082Z</time>
      </trkpt>
      <trkpt lat="46.98498" lon="8.70636">
        <ele>571</ele>
        <time>2021-08-05T10:51:58.081Z</time>
      </trkpt>
      <trkpt lat="46.98497" lon="8.70635">
        <ele>571</ele>
        <time>2021-08-05T10:51:59.082Z</time>
      </trkpt>
      <trkpt lat="46.98495" lon="8.70635">
        <ele>572</ele>
        <time>2021-08-05T10:52:00.082Z</time>
      </trkpt>
      <trkpt lat="46.98493" lon="8.70635">
        <ele>573</ele>
        <time>2021-08-05T10:52:01.081Z</time>
      </trkpt>
      <trkpt lat="46.98492" lon="8.70636">
        <ele>574</ele>
        <time>2021-08-05T10:52:02.082Z</time>
      </trkpt>
      <trkpt lat="46.98491" lon="8.70636">
        <ele>575</ele>
        <time>2021-08-05T10:52:03.082Z</time>
      </trkpt>
      <trkpt lat="46.9849" lon="8.70636">
        <ele>575</ele>
        <time>2021-08-05T10:52:04.082Z</time>
      </trkpt>
      <trkpt lat="46.9849" lon="8.70636">
        <ele>576</ele>
        <time>2021-08-05T10:52:05.082Z</time>
      </trkpt>
      <trkpt lat="46.98489" lon="8.70637">
        <ele>576</ele>
        <time>2021-08-05T10:52:06.082Z</time>
      </trkpt>
      <trkpt lat="46.98488" lon="8.70637">
        <ele>577</ele>
        <time>2021-08-05T10:52:07.082Z</time>
      </trkpt>
      <trkpt lat="46.98487" lon="8.70638">
        <ele>577</ele>
        <time>2021-08-05T10:52:08.082Z</time>
      </trkpt>
      <trkpt lat="46.98487" lon="8.70639">
        <ele>577</ele>
        <time>2021-08-05T10:52:09.082Z</time>
      </trkpt>
      <trkpt lat="46.98487" lon="8.70639">
        <ele>577</ele>
        <time>2021-08-05T10:52:10.082Z</time>
      </trkpt>
      <trkpt lat="46.98487" lon="8.70639">
        <ele>576</ele>
        <time>2021-08-05T10:52:11.082Z</time>
      </trkpt>
      <trkpt lat="46.98487" lon="8.7064">
        <ele>575</ele>
        <time>2021-08-05T10:52:12.082Z</time>
      </trkpt>
      <trkpt lat="46.98486" lon="8.7064">
        <ele>574</ele>
        <time>2021-08-05T10:52:13.082Z</time>
      </trkpt>
      <trkpt lat="46.98486" lon="8.70641">
        <ele>574</ele>
        <time>2021-08-05T10:52:14.081Z</time>
      </trkpt>
      <trkpt lat="46.98484" lon="8.70642">
        <ele>574</ele>
        <time>2021-08-05T10:52:15.081Z</time>
      </trkpt>
      <trkpt lat="46.98483" lon="8.70643">
        <ele>574</ele>
        <time>2021-08-05T10:52:16.082Z</time>
      </trkpt>
      <trkpt lat="46.98483" lon="8.70645">
        <ele>574</ele>
        <time>2021-08-05T10:52:17.082Z</time>
      </trkpt>
      <trkpt lat="46.98482" lon="8.70647">
        <ele>574</ele>
        <time>2021-08-05T10:52:18.081Z</time>
      </trkpt>
      <trkpt lat="46.98482" lon="8.70649">
        <ele>574</ele>
        <time>2021-08-05T10:52:19.081Z</time>
      </trkpt>
      <trkpt lat="46.98482" lon="8.70651">
        <ele>574</ele>
        <time>2021-08-05T10:52:20.081Z</time>
      </trkpt>
      <trkpt lat="46.98482" lon="8.70652">
        <ele>574</ele>
        <time>2021-08-05T10:52:21.082Z</time>
      </trkpt>
      <trkpt lat="46.98482" lon="8.70653">
        <ele>574</ele>
        <time>2021-08-05T10:52:22.081Z</time>
      </trkpt>
      <trkpt lat="46.98481" lon="8.70653">
        <ele>574</ele>
        <time>2021-08-05T10:52:23.081Z</time>
      </trkpt>
      <trkpt lat="46.98481" lon="8.70654">
        <ele>574</ele>
        <time>2021-08-05T10:52:24.081Z</time>
      </trkpt>
      <trkpt lat="46.9848" lon="8.70654">
        <ele>574</ele>
        <time>2021-08-05T10:52:25.081Z</time>
      </trkpt>
      <trkpt lat="46.98478" lon="8.70655">
        <ele>574</ele>
        <time>2021-08-05T10:52:26.082Z</time>
      </trkpt>
      <trkpt lat="46.98477" lon="8.70655">
        <ele>575</ele>
        <time>2021-08-05T10:52:27.081Z</time>
      </trkpt>
      <trkpt lat="46.98476" lon="8.70655">
        <ele>575</ele>
        <time>2021-08-05T10:52:28.082Z</time>
      </trkpt>
      <trkpt lat="46.98475" lon="8.70656">
        <ele>576</ele>
        <time>2021-08-05T10:52:29.081Z</time>
      </trkpt>
      <trkpt lat="46.98473" lon="8.70656">
        <ele>576</ele>
        <time>2021-08-05T10:52:30.082Z</time>
      </trkpt>
      <trkpt lat="46.98472" lon="8.70655">
        <ele>576</ele>
        <time>2021-08-05T10:52:31.082Z</time>
      </trkpt>
      <trkpt lat="46.98472" lon="8.70655">
        <ele>576</ele>
        <time>2021-08-05T10:52:32.081Z</time>
      </trkpt>
      <trkpt lat="46.98471" lon="8.70655">
        <ele>576</ele>
        <time>2021-08-05T10:52:33.081Z</time>
      </trkpt>
      <trkpt lat="46.9847" lon="8.70655">
        <ele>576</ele>
        <time>2021-08-05T10:52:34.081Z</time>
      </trkpt>
      <trkpt lat="46.98469" lon="8.70656">
        <ele>577</ele>
        <time>2021-08-05T10:52:35.082Z</time>
      </trkpt>
      <trkpt lat="46.98467" lon="8.70656">
        <ele>577</ele>
        <time>2021-08-05T10:52:36.082Z</time>
      </trkpt>
      <trkpt lat="46.98466" lon="8.70656">
        <ele>578</ele>
        <time>2021-08-05T10:52:37.082Z</time>
      </trkpt>
      <trkpt lat="46.98465" lon="8.70656">
        <ele>578</ele>
        <time>2021-08-05T10:52:38.081Z</time>
      </trkpt>
      <trkpt lat="46.98464" lon="8.70656">
        <ele>578</ele>
        <time>2021-08-05T10:52:39.081Z</time>
      </trkpt>
      <trkpt lat="46.98463" lon="8.70657">
        <ele>578</ele>
        <time>2021-08-05T10:52:40.081Z</time>
      </trkpt>
      <trkpt lat="46.98462" lon="8.70656">
        <ele>578</ele>
        <time>2021-08-05T10:52:41.081Z</time>
      </trkpt>
      <trkpt lat="46.98461" lon="8.70657">
        <ele>578</ele>
        <time>2021-08-05T10:52:42.082Z</time>
      </trkpt>
      <trkpt lat="46.9846" lon="8.70658">
        <ele>578</ele>
        <time>2021-08-05T10:52:43.081Z</time>
      </trkpt>
      <trkpt lat="46.98459" lon="8.70659">
        <ele>578</ele>
        <time>2021-08-05T10:52:44.082Z</time>
      </trkpt>
      <trkpt lat="46.98458" lon="8.70659">
        <ele>578</ele>
        <time>2021-08-05T10:52:45.081Z</time>
      </trkpt>
      <trkpt lat="46.98458" lon="8.7066">
        <ele>578</ele>
        <time>2021-08-05T10:52:46.081Z</time>
      </trkpt>
      <trkpt lat="46.98458" lon="8.70661">
        <ele>577</ele>
        <time>2021-08-05T10:52:47.081Z</time>
      </trkpt>
      <trkpt lat="46.98457" lon="8.70661">
        <ele>577</ele>
        <time>2021-08-05T10:52:48.082Z</time>
      </trkpt>
      <trkpt lat="46.98456" lon="8.70662">
        <ele>577</ele>
        <time>2021-08-05T10:52:49.082Z</time>
      </trkpt>
      <trkpt lat="46.98455" lon="8.70663">
        <ele>578</ele>
        <time>2021-08-05T10:52:50.082Z</time>
      </trkpt>
      <trkpt lat="46.98455" lon="8.70664">
        <ele>578</ele>
        <time>2021-08-05T10:52:51.082Z</time>
      </trkpt>
      <trkpt lat="46.98454" lon="8.70665">
        <ele>578</ele>
        <time>2021-08-05T10:52:52.082Z</time>
      </trkpt>
      <trkpt lat="46.98453" lon="8.70666">
        <ele>579</ele>
        <time>2021-08-05T10:52:53.081Z</time>
      </trkpt>
      <trkpt lat="46.98453" lon="8.70667">
        <ele>579</ele>
        <time>2021-08-05T10:52:54.081Z</time>
      </trkpt>
      <trkpt lat="46.98452" lon="8.70669">
        <ele>580</ele>
        <time>2021-08-05T10:52:55.082Z</time>
      </trkpt>
      <trkpt lat="46.98451" lon="8.7067">
        <ele>580</ele>
        <time>2021-08-05T10:52:56.082Z</time>
      </trkpt>
      <trkpt lat="46.9845" lon="8.70671">
        <ele>581</ele>
        <time>2021-08-05T10:52:57.082Z</time>
      </trkpt>
      <trkpt lat="46.98449" lon="8.70672">
        <ele>581</ele>
        <time>2021-08-05T10:52:58.081Z</time>
      </trkpt>
      <trkpt lat="46.98448" lon="8.70672">
        <ele>582</ele>
        <time>2021-08-05T10:52:59.082Z</time>
      </trkpt>
      <trkpt lat="46.98448" lon="8.70673">
        <ele>583</ele>
        <time>2021-08-05T10:53:00.082Z</time>
      </trkpt>
      <trkpt lat="46.98447" lon="8.70674">
        <ele>583</ele>
        <time>2021-08-05T10:53:01.082Z</time>
      </trkpt>
      <trkpt lat="46.98446" lon="8.70675">
        <ele>584</ele>
        <time>2021-08-05T10:53:02.082Z</time>
      </trkpt>
      <trkpt lat="46.98445" lon="8.70675">
        <ele>585</ele>
        <time>2021-08-05T10:53:03.082Z</time>
      </trkpt>
      <trkpt lat="46.98445" lon="8.70676">
        <ele>586</ele>
        <time>2021-08-05T10:53:04.082Z</time>
      </trkpt>
      <trkpt lat="46.98444" lon="8.70677">
        <ele>587</ele>
        <time>2021-08-05T10:53:05.082Z</time>
      </trkpt>
      <trkpt lat="46.98443" lon="8.70678">
        <ele>588</ele>
        <time>2021-08-05T10:53:06.082Z</time>
      </trkpt>
      <trkpt lat="46.98443" lon="8.7068">
        <ele>589</ele>
        <time>2021-08-05T10:53:07.082Z</time>
      </trkpt>
      <trkpt lat="46.98443" lon="8.70681">
        <ele>590</ele>
        <time>2021-08-05T10:53:08.081Z</time>
      </trkpt>
      <trkpt lat="46.98443" lon="8.70683">
        <ele>590</ele>
        <time>2021-08-05T10:53:09.082Z</time>
      </trkpt>
      <trkpt lat="46.98443" lon="8.70685">
        <ele>590</ele>
        <time>2021-08-05T10:53:10.082Z</time>
      </trkpt>
      <trkpt lat="46.98443" lon="8.70687">
        <ele>590</ele>
        <time>2021-08-05T10:53:11.082Z</time>
      </trkpt>
      <trkpt lat="46.98442" lon="8.70688">
        <ele>590</ele>
        <time>2021-08-05T10:53:12.081Z</time>
      </trkpt>
      <trkpt lat="46.98441" lon="8.70689">
        <ele>588</ele>
        <time>2021-08-05T10:53:13.082Z</time>
      </trkpt>
      <trkpt lat="46.98441" lon="8.70691">
        <ele>587</ele>
        <time>2021-08-05T10:53:14.082Z</time>
      </trkpt>
      <trkpt lat="46.9844" lon="8.70693">
        <ele>586</ele>
        <time>2021-08-05T10:53:15.082Z</time>
      </trkpt>
      <trkpt lat="46.9844" lon="8.70694">
        <ele>585</ele>
        <time>2021-08-05T10:53:16.082Z</time>
      </trkpt>
      <trkpt lat="46.9844" lon="8.70695">
        <ele>585</ele>
        <time>2021-08-05T10:53:17.081Z</time>
      </trkpt>
      <trkpt lat="46.98439" lon="8.70696">
        <ele>584</ele>
        <time>2021-08-05T10:53:18.081Z</time>
      </trkpt>
      <trkpt lat="46.98438" lon="8.70697">
        <ele>585</ele>
        <time>2021-08-05T10:53:19.082Z</time>
      </trkpt>
      <trkpt lat="46.98438" lon="8.70698">
        <ele>585</ele>
        <time>2021-08-05T10:53:20.082Z</time>
      </trkpt>
      <trkpt lat="46.98437" lon="8.70699">
        <ele>584</ele>
        <time>2021-08-05T10:53:21.082Z</time>
      </trkpt>
      <trkpt lat="46.98436" lon="8.70701">
        <ele>584</ele>
        <time>2021-08-05T10:53:22.082Z</time>
      </trkpt>
      <trkpt lat="46.98435" lon="8.70703">
        <ele>585</ele>
        <time>2021-08-05T10:53:23.081Z</time>
      </trkpt>
      <trkpt lat="46.98434" lon="8.70704">
        <ele>585</ele>
        <time>2021-08-05T10:53:24.082Z</time>
      </trkpt>
      <trkpt lat="46.98433" lon="8.70705">
        <ele>585</ele>
        <time>2021-08-05T10:53:25.081Z</time>
      </trkpt>
      <trkpt lat="46.98433" lon="8.70706">
        <ele>585</ele>
        <time>2021-08-05T10:53:26.081Z</time>
      </trkpt>
      <trkpt lat="46.98432" lon="8.70708">
        <ele>586</ele>
        <time>2021-08-05T10:53:27.081Z</time>
      </trkpt>
      <trkpt lat="46.98432" lon="8.70709">
        <ele>586</ele>
        <time>2021-08-05T10:53:28.082Z</time>
      </trkpt>
      <trkpt lat="46.98431" lon="8.7071">
        <ele>586</ele>
        <time>2021-08-05T10:53:29.081Z</time>
      </trkpt>
      <trkpt lat="46.98431" lon="8.70711">
        <ele>586</ele>
        <time>2021-08-05T10:53:30.082Z</time>
      </trkpt>
      <trkpt lat="46.9843" lon="8.70713">
        <ele>586</ele>
        <time>2021-08-05T10:53:31.082Z</time>
      </trkpt>
      <trkpt lat="46.98429" lon="8.70715">
        <ele>586</ele>
        <time>2021-08-05T10:53:32.081Z</time>
      </trkpt>
      <trkpt lat="46.98428" lon="8.70717">
        <ele>586</ele>
        <time>2021-08-05T10:53:33.082Z</time>
      </trkpt>
      <trkpt lat="46.98427" lon="8.70718">
        <ele>586</ele>
        <time>2021-08-05T10:53:34.081Z</time>
      </trkpt>
      <trkpt lat="46.98427" lon="8.7072">
        <ele>586</ele>
        <time>2021-08-05T10:53:35.082Z</time>
      </trkpt>
      <trkpt lat="46.98426" lon="8.70722">
        <ele>586</ele>
        <time>2021-08-05T10:53:36.082Z</time>
      </trkpt>
      <trkpt lat="46.98426" lon="8.70723">
        <ele>585</ele>
        <time>2021-08-05T10:53:37.082Z</time>
      </trkpt>
      <trkpt lat="46.98426" lon="8.70725">
        <ele>585</ele>
        <time>2021-08-05T10:53:38.082Z</time>
      </trkpt>
      <trkpt lat="46.98425" lon="8.70726">
        <ele>585</ele>
        <time>2021-08-05T10:53:39.082Z</time>
      </trkpt>
      <trkpt lat="46.98425" lon="8.70728">
        <ele>584</ele>
        <time>2021-08-05T10:53:40.081Z</time>
      </trkpt>
      <trkpt lat="46.98424" lon="8.70729">
        <ele>584</ele>
        <time>2021-08-05T10:53:41.082Z</time>
      </trkpt>
      <trkpt lat="46.98423" lon="8.70731">
        <ele>584</ele>
        <time>2021-08-05T10:53:42.082Z</time>
      </trkpt>
      <trkpt lat="46.98422" lon="8.70732">
        <ele>583</ele>
        <time>2021-08-05T10:53:43.082Z</time>
      </trkpt>
      <trkpt lat="46.98422" lon="8.70734">
        <ele>583</ele>
        <time>2021-08-05T10:53:44.082Z</time>
      </trkpt>
      <trkpt lat="46.98421" lon="8.70736">
        <ele>583</ele>
        <time>2021-08-05T10:53:45.082Z</time>
      </trkpt>
      <trkpt lat="46.9842" lon="8.70737">
        <ele>583</ele>
        <time>2021-08-05T10:53:46.082Z</time>
      </trkpt>
      <trkpt lat="46.9842" lon="8.70738">
        <ele>582</ele>
        <time>2021-08-05T10:53:47.081Z</time>
      </trkpt>
      <trkpt lat="46.9842" lon="8.70739">
        <ele>582</ele>
        <time>2021-08-05T10:53:48.082Z</time>
      </trkpt>
      <trkpt lat="46.98419" lon="8.70741">
        <ele>582</ele>
        <time>2021-08-05T10:53:49.082Z</time>
      </trkpt>
      <trkpt lat="46.98418" lon="8.70742">
        <ele>581</ele>
        <time>2021-08-05T10:53:50.082Z</time>
      </trkpt>
      <trkpt lat="46.98417" lon="8.70743">
        <ele>581</ele>
        <time>2021-08-05T10:53:51.082Z</time>
      </trkpt>
      <trkpt lat="46.98416" lon="8.70745">
        <ele>581</ele>
        <time>2021-08-05T10:53:52.081Z</time>
      </trkpt>
      <trkpt lat="46.98415" lon="8.70746">
        <ele>581</ele>
        <time>2021-08-05T10:53:53.082Z</time>
      </trkpt>
      <trkpt lat="46.98415" lon="8.70748">
        <ele>581</ele>
        <time>2021-08-05T10:53:54.082Z</time>
      </trkpt>
      <trkpt lat="46.98414" lon="8.70749">
        <ele>581</ele>
        <time>2021-08-05T10:53:55.081Z</time>
      </trkpt>
      <trkpt lat="46.98413" lon="8.7075">
        <ele>581</ele>
        <time>2021-08-05T10:53:56.082Z</time>
      </trkpt>
      <trkpt lat="46.98413" lon="8.70751">
        <ele>581</ele>
        <time>2021-08-05T10:53:57.081Z</time>
      </trkpt>
      <trkpt lat="46.98412" lon="8.70753">
        <ele>581</ele>
        <time>2021-08-05T10:53:58.081Z</time>
      </trkpt>
      <trkpt lat="46.98411" lon="8.70754">
        <ele>581</ele>
        <time>2021-08-05T10:53:59.082Z</time>
      </trkpt>
      <trkpt lat="46.98411" lon="8.70756">
        <ele>581</ele>
        <time>2021-08-05T10:54:00.081Z</time>
      </trkpt>
      <trkpt lat="46.98411" lon="8.70758">
        <ele>581</ele>
        <time>2021-08-05T10:54:01.082Z</time>
      </trkpt>
      <trkpt lat="46.9841" lon="8.7076">
        <ele>581</ele>
        <time>2021-08-05T10:54:02.082Z</time>
      </trkpt>
      <trkpt lat="46.9841" lon="8.70762">
        <ele>581</ele>
        <time>2021-08-05T10:54:03.082Z</time>
      </trkpt>
      <trkpt lat="46.98409" lon="8.70764">
        <ele>581</ele>
        <time>2021-08-05T10:54:04.082Z</time>
      </trkpt>
      <trkpt lat="46.98409" lon="8.70765">
        <ele>582</ele>
        <time>2021-08-05T10:54:05.081Z</time>
      </trkpt>
      <trkpt lat="46.98409" lon="8.70766">
        <ele>582</ele>
        <time>2021-08-05T10:54:06.081Z</time>
      </trkpt>
      <trkpt lat="46.98408" lon="8.70768">
        <ele>582</ele>
        <time>2021-08-05T10:54:07.081Z</time>
      </trkpt>
      <trkpt lat="46.98407" lon="8.7077">
        <ele>583</ele>
        <time>2021-08-05T10:54:08.082Z</time>
      </trkpt>
      <trkpt lat="46.98406" lon="8.70772">
        <ele>583</ele>
        <time>2021-08-05T10:54:09.082Z</time>
      </trkpt>
      <trkpt lat="46.98406" lon="8.70774">
        <ele>583</ele>
        <time>2021-08-05T10:54:10.082Z</time>
      </trkpt>
      <trkpt lat="46.98406" lon="8.70776">
        <ele>583</ele>
        <time>2021-08-05T10:54:11.082Z</time>
      </trkpt>
      <trkpt lat="46.98405" lon="8.70778">
        <ele>583</ele>
        <time>2021-08-05T10:54:12.081Z</time>
      </trkpt>
      <trkpt lat="46.98404" lon="8.7078">
        <ele>583</ele>
        <time>2021-08-05T10:54:13.081Z</time>
      </trkpt>
      <trkpt lat="46.98404" lon="8.70781">
        <ele>584</ele>
        <time>2021-08-05T10:54:14.081Z</time>
      </trkpt>
      <trkpt lat="46.98403" lon="8.70782">
        <ele>584</ele>
        <time>2021-08-05T10:54:15.082Z</time>
      </trkpt>
      <trkpt lat="46.98403" lon="8.70784">
        <ele>585</ele>
        <time>2021-08-05T10:54:16.081Z</time>
      </trkpt>
      <trkpt lat="46.98402" lon="8.70785">
        <ele>585</ele>
        <time>2021-08-05T10:54:17.082Z</time>
      </trkpt>
      <trkpt lat="46.98402" lon="8.70786">
        <ele>585</ele>
        <time>2021-08-05T10:54:18.082Z</time>
      </trkpt>
      <trkpt lat="46.98401" lon="8.70787">
        <ele>585</ele>
        <time>2021-08-05T10:54:19.082Z</time>
      </trkpt>
      <trkpt lat="46.984" lon="8.70788">
        <ele>586</ele>
        <time>2021-08-05T10:54:20.081Z</time>
      </trkpt>
      <trkpt lat="46.984" lon="8.7079">
        <ele>586</ele>
        <time>2021-08-05T10:54:21.082Z</time>
      </trkpt>
      <trkpt lat="46.98399" lon="8.70792">
        <ele>586</ele>
        <time>2021-08-05T10:54:22.082Z</time>
      </trkpt>
      <trkpt lat="46.98398" lon="8.70793">
        <ele>586</ele>
        <time>2021-08-05T10:54:23.082Z</time>
      </trkpt>
      <trkpt lat="46.98397" lon="8.70794">
        <ele>586</ele>
        <time>2021-08-05T10:54:24.082Z</time>
      </trkpt>
      <trkpt lat="46.98396" lon="8.70794">
        <ele>586</ele>
        <time>2021-08-05T10:54:25.081Z</time>
      </trkpt>
      <trkpt lat="46.98395" lon="8.70796">
        <ele>586</ele>
        <time>2021-08-05T10:54:26.082Z</time>
      </trkpt>
      <trkpt lat="46.98394" lon="8.70797">
        <ele>586</ele>
        <time>2021-08-05T10:54:27.081Z</time>
      </trkpt>
      <trkpt lat="46.98392" lon="8.70798">
        <ele>586</ele>
        <time>2021-08-05T10:54:28.081Z</time>
      </trkpt>
      <trkpt lat="46.98391" lon="8.708">
        <ele>586</ele>
        <time>2021-08-05T10:54:29.082Z</time>
      </trkpt>
      <trkpt lat="46.9839" lon="8.70802">
        <ele>586</ele>
        <time>2021-08-05T10:54:30.082Z</time>
      </trkpt>
      <trkpt lat="46.98389" lon="8.70803">
        <ele>586</ele>
        <time>2021-08-05T10:54:31.082Z</time>
      </trkpt>
      <trkpt lat="46.98388" lon="8.70805">
        <ele>586</ele>
        <time>2021-08-05T10:54:32.082Z</time>
      </trkpt>
      <trkpt lat="46.98387" lon="8.70808">
        <ele>586</ele>
        <time>2021-08-05T10:54:33.082Z</time>
      </trkpt>
      <trkpt lat="46.98386" lon="8.7081">
        <ele>586</ele>
        <time>2021-08-05T10:54:34.082Z</time>
      </trkpt>
      <trkpt lat="46.98385" lon="8.70812">
        <ele>586</ele>
        <time>2021-08-05T10:54:35.082Z</time>
      </trkpt>
      <trkpt lat="46.98384" lon="8.70815">
        <ele>586</ele>
        <time>2021-08-05T10:54:36.082Z</time>
      </trkpt>
      <trkpt lat="46.98383" lon="8.70816">
        <ele>585</ele>
        <time>2021-08-05T10:54:37.082Z</time>
      </trkpt>
      <trkpt lat="46.98381" lon="8.70818">
        <ele>585</ele>
        <time>2021-08-05T10:54:38.082Z</time>
      </trkpt>
      <trkpt lat="46.9838" lon="8.70819">
        <ele>585</ele>
        <time>2021-08-05T10:54:39.082Z</time>
      </trkpt>
      <trkpt lat="46.98379" lon="8.7082">
        <ele>585</ele>
        <time>2021-08-05T10:54:40.082Z</time>
      </trkpt>
      <trkpt lat="46.98378" lon="8.70821">
        <ele>585</ele>
        <time>2021-08-05T10:54:41.081Z</time>
      </trkpt>
      <trkpt lat="46.98377" lon="8.70822">
        <ele>584</ele>
        <time>2021-08-05T10:54:42.081Z</time>
      </trkpt>
      <trkpt lat="46.98376" lon="8.70823">
        <ele>584</ele>
        <time>2021-08-05T10:54:43.082Z</time>
      </trkpt>
      <trkpt lat="46.98375" lon="8.70824">
        <ele>584</ele>
        <time>2021-08-05T10:54:44.082Z</time>
      </trkpt>
      <trkpt lat="46.98374" lon="8.70825">
        <ele>585</ele>
        <time>2021-08-05T10:54:45.082Z</time>
      </trkpt>
      <trkpt lat="46.98373" lon="8.70827">
        <ele>585</ele>
        <time>2021-08-05T10:54:46.081Z</time>
      </trkpt>
      <trkpt lat="46.98372" lon="8.70827">
        <ele>585</ele>
        <time>2021-08-05T10:54:47.081Z</time>
      </trkpt>
      <trkpt lat="46.98371" lon="8.70828">
        <ele>585</ele>
        <time>2021-08-05T10:54:48.081Z</time>
      </trkpt>
      <trkpt lat="46.9837" lon="8.70829">
        <ele>585</ele>
        <time>2021-08-05T10:54:49.081Z</time>
      </trkpt>
      <trkpt lat="46.98369" lon="8.70829">
        <ele>585</ele>
        <time>2021-08-05T10:54:50.082Z</time>
      </trkpt>
      <trkpt lat="46.98368" lon="8.7083">
        <ele>585</ele>
        <time>2021-08-05T10:54:51.081Z</time>
      </trkpt>
      <trkpt lat="46.98367" lon="8.7083">
        <ele>585</ele>
        <time>2021-08-05T10:54:52.082Z</time>
      </trkpt>
      <trkpt lat="46.98366" lon="8.70831">
        <ele>584</ele>
        <time>2021-08-05T10:54:53.082Z</time>
      </trkpt>
      <trkpt lat="46.98366" lon="8.70832">
        <ele>583</ele>
        <time>2021-08-05T10:54:54.081Z</time>
      </trkpt>
      <trkpt lat="46.98365" lon="8.70833">
        <ele>583</ele>
        <time>2021-08-05T10:54:55.082Z</time>
      </trkpt>
      <trkpt lat="46.98363" lon="8.70834">
        <ele>583</ele>
        <time>2021-08-05T10:54:56.081Z</time>
      </trkpt>
      <trkpt lat="46.98362" lon="8.70836">
        <ele>583</ele>
        <time>2021-08-05T10:54:57.082Z</time>
      </trkpt>
      <trkpt lat="46.98361" lon="8.70837">
        <ele>582</ele>
        <time>2021-08-05T10:54:58.081Z</time>
      </trkpt>
      <trkpt lat="46.9836" lon="8.70839">
        <ele>582</ele>
        <time>2021-08-05T10:54:59.082Z</time>
      </trkpt>
      <trkpt lat="46.98359" lon="8.7084">
        <ele>581</ele>
        <time>2021-08-05T10:55:00.082Z</time>
      </trkpt>
      <trkpt lat="46.98358" lon="8.70842">
        <ele>581</ele>
        <time>2021-08-05T10:55:01.081Z</time>
      </trkpt>
      <trkpt lat="46.98357" lon="8.70843">
        <ele>580</ele>
        <time>2021-08-05T10:55:02.082Z</time>
      </trkpt>
      <trkpt lat="46.98356" lon="8.70844">
        <ele>579</ele>
        <time>2021-08-05T10:55:03.082Z</time>
      </trkpt>
      <trkpt lat="46.98355" lon="8.70845">
        <ele>579</ele>
        <time>2021-08-05T10:55:04.082Z</time>
      </trkpt>
      <trkpt lat="46.98354" lon="8.70846">
        <ele>579</ele>
        <time>2021-08-05T10:55:05.082Z</time>
      </trkpt>
      <trkpt lat="46.98353" lon="8.70848">
        <ele>579</ele>
        <time>2021-08-05T10:55:06.081Z</time>
      </trkpt>
      <trkpt lat="46.98352" lon="8.70849">
        <ele>579</ele>
        <time>2021-08-05T10:55:07.081Z</time>
      </trkpt>
      <trkpt lat="46.98351" lon="8.7085">
        <ele>579</ele>
        <time>2021-08-05T10:55:08.082Z</time>
      </trkpt>
      <trkpt lat="46.9835" lon="8.70851">
        <ele>579</ele>
        <time>2021-08-05T10:55:09.082Z</time>
      </trkpt>
      <trkpt lat="46.98349" lon="8.70852">
        <ele>579</ele>
        <time>2021-08-05T10:55:10.082Z</time>
      </trkpt>
      <trkpt lat="46.98348" lon="8.70853">
        <ele>579</ele>
        <time>2021-08-05T10:55:11.082Z</time>
      </trkpt>
      <trkpt lat="46.98348" lon="8.70854">
        <ele>579</ele>
        <time>2021-08-05T10:55:12.081Z</time>
      </trkpt>
      <trkpt lat="46.98348" lon="8.70856">
        <ele>579</ele>
        <time>2021-08-05T10:55:13.082Z</time>
      </trkpt>
      <trkpt lat="46.98347" lon="8.70857">
        <ele>579</ele>
        <time>2021-08-05T10:55:14.082Z</time>
      </trkpt>
      <trkpt lat="46.98347" lon="8.70857">
        <ele>578</ele>
        <time>2021-08-05T10:55:15.082Z</time>
      </trkpt>
      <trkpt lat="46.98347" lon="8.70858">
        <ele>578</ele>
        <time>2021-08-05T10:55:16.082Z</time>
      </trkpt>
      <trkpt lat="46.98347" lon="8.70858">
        <ele>578</ele>
        <time>2021-08-05T10:55:17.082Z</time>
      </trkpt>
      <trkpt lat="46.98347" lon="8.70858">
        <ele>578</ele>
        <time>2021-08-05T10:55:18.082Z</time>
      </trkpt>
      <trkpt lat="46.98348" lon="8.70859">
        <ele>576</ele>
        <time>2021-08-05T10:55:19.082Z</time>
      </trkpt>
      <trkpt lat="46.98348" lon="8.70862">
        <ele>573</ele>
        <time>2021-08-05T10:55:20.082Z</time>
      </trkpt>
      <trkpt lat="46.98348" lon="8.70863">
        <ele>573</ele>
        <time>2021-08-05T10:55:21.081Z</time>
      </trkpt>
      <trkpt lat="46.98346" lon="8.70862">
        <ele>570</ele>
        <time>2021-08-05T10:55:22.082Z</time>
      </trkpt>
      <trkpt lat="46.98347" lon="8.70863">
        <ele>570</ele>
        <time>2021-08-05T10:55:23.081Z</time>
      </trkpt>
      <trkpt lat="46.98347" lon="8.70864">
        <ele>570</ele>
        <time>2021-08-05T10:55:24.082Z</time>
      </trkpt>
      <trkpt lat="46.98347" lon="8.70864">
        <ele>570</ele>
        <time>2021-08-05T10:55:25.082Z</time>
      </trkpt>
      <trkpt lat="46.98346" lon="8.70866">
        <ele>570</ele>
        <time>2021-08-05T10:55:26.081Z</time>
      </trkpt>
      <trkpt lat="46.98345" lon="8.70867">
        <ele>571</ele>
        <time>2021-08-05T10:55:27.082Z</time>
      </trkpt>
      <trkpt lat="46.98345" lon="8.70868">
        <ele>571</ele>
        <time>2021-08-05T10:55:28.082Z</time>
      </trkpt>
      <trkpt lat="46.98344" lon="8.70868">
        <ele>571</ele>
        <time>2021-08-05T10:55:29.082Z</time>
      </trkpt>
      <trkpt lat="46.98344" lon="8.70869">
        <ele>571</ele>
        <time>2021-08-05T10:55:30.082Z</time>
      </trkpt>
      <trkpt lat="46.98344" lon="8.70869">
        <ele>572</ele>
        <time>2021-08-05T10:55:31.081Z</time>
      </trkpt>
      <trkpt lat="46.98343" lon="8.7087">
        <ele>573</ele>
        <time>2021-08-05T10:55:32.082Z</time>
      </trkpt>
      <trkpt lat="46.98343" lon="8.70871">
        <ele>573</ele>
        <time>2021-08-05T10:55:33.082Z</time>
      </trkpt>
      <trkpt lat="46.98343" lon="8.70871">
        <ele>573</ele>
        <time>2021-08-05T10:55:34.081Z</time>
      </trkpt>
      <trkpt lat="46.98342" lon="8.70864">
        <ele>570</ele>
        <time>2021-08-05T10:55:35.082Z</time>
      </trkpt>
      <trkpt lat="46.98342" lon="8.70864">
        <ele>570</ele>
        <time>2021-08-05T10:55:36.081Z</time>
      </trkpt>
      <trkpt lat="46.98343" lon="8.70865">
        <ele>570</ele>
        <time>2021-08-05T10:55:37.081Z</time>
      </trkpt>
      <trkpt lat="46.98342" lon="8.70866">
        <ele>571</ele>
        <time>2021-08-05T10:55:38.081Z</time>
      </trkpt>
      <trkpt lat="46.98341" lon="8.70866">
        <ele>572</ele>
        <time>2021-08-05T10:55:39.082Z</time>
      </trkpt>
      <trkpt lat="46.98341" lon="8.70867">
        <ele>573</ele>
        <time>2021-08-05T10:55:40.081Z</time>
      </trkpt>
      <trkpt lat="46.9834" lon="8.70868">
        <ele>574</ele>
        <time>2021-08-05T10:55:41.082Z</time>
      </trkpt>
      <trkpt lat="46.98339" lon="8.70869">
        <ele>574</ele>
        <time>2021-08-05T10:55:42.082Z</time>
      </trkpt>
      <trkpt lat="46.98339" lon="8.70869">
        <ele>575</ele>
        <time>2021-08-05T10:55:43.081Z</time>
      </trkpt>
      <trkpt lat="46.98338" lon="8.7087">
        <ele>576</ele>
        <time>2021-08-05T10:55:44.081Z</time>
      </trkpt>
      <trkpt lat="46.98338" lon="8.70871">
        <ele>576</ele>
        <time>2021-08-05T10:55:45.082Z</time>
      </trkpt>
      <trkpt lat="46.98338" lon="8.70872">
        <ele>576</ele>
        <time>2021-08-05T10:55:46.081Z</time>
      </trkpt>
      <trkpt lat="46.98337" lon="8.70873">
        <ele>576</ele>
        <time>2021-08-05T10:55:47.081Z</time>
      </trkpt>
      <trkpt lat="46.98337" lon="8.70874">
        <ele>575</ele>
        <time>2021-08-05T10:55:48.081Z</time>
      </trkpt>
      <trkpt lat="46.98336" lon="8.70875">
        <ele>575</ele>
        <time>2021-08-05T10:55:49.082Z</time>
      </trkpt>
      <trkpt lat="46.98336" lon="8.70876">
        <ele>575</ele>
        <time>2021-08-05T10:55:50.082Z</time>
      </trkpt>
      <trkpt lat="46.98335" lon="8.70877">
        <ele>574</ele>
        <time>2021-08-05T10:55:51.081Z</time>
      </trkpt>
      <trkpt lat="46.98334" lon="8.70878">
        <ele>574</ele>
        <time>2021-08-05T10:55:52.081Z</time>
      </trkpt>
      <trkpt lat="46.98333" lon="8.70879">
        <ele>573</ele>
        <time>2021-08-05T10:55:53.082Z</time>
      </trkpt>
      <trkpt lat="46.98332" lon="8.70881">
        <ele>573</ele>
        <time>2021-08-05T10:55:54.081Z</time>
      </trkpt>
      <trkpt lat="46.98331" lon="8.70882">
        <ele>573</ele>
        <time>2021-08-05T10:55:55.082Z</time>
      </trkpt>
      <trkpt lat="46.9833" lon="8.70884">
        <ele>572</ele>
        <time>2021-08-05T10:55:56.082Z</time>
      </trkpt>
      <trkpt lat="46.98328" lon="8.70886">
        <ele>572</ele>
        <time>2021-08-05T10:55:57.081Z</time>
      </trkpt>
      <trkpt lat="46.98327" lon="8.70887">
        <ele>571</ele>
        <time>2021-08-05T10:55:58.082Z</time>
      </trkpt>
      <trkpt lat="46.98326" lon="8.70889">
        <ele>571</ele>
        <time>2021-08-05T10:55:59.081Z</time>
      </trkpt>
      <trkpt lat="46.98325" lon="8.70889">
        <ele>571</ele>
        <time>2021-08-05T10:56:00.081Z</time>
      </trkpt>
      <trkpt lat="46.98324" lon="8.7089">
        <ele>571</ele>
        <time>2021-08-05T10:56:01.081Z</time>
      </trkpt>
      <trkpt lat="46.98323" lon="8.7089">
        <ele>571</ele>
        <time>2021-08-05T10:56:02.081Z</time>
      </trkpt>
      <trkpt lat="46.98322" lon="8.70891">
        <ele>571</ele>
        <time>2021-08-05T10:56:03.081Z</time>
      </trkpt>
      <trkpt lat="46.98321" lon="8.70892">
        <ele>571</ele>
        <time>2021-08-05T10:56:04.082Z</time>
      </trkpt>
      <trkpt lat="46.98319" lon="8.70893">
        <ele>572</ele>
        <time>2021-08-05T10:56:05.081Z</time>
      </trkpt>
      <trkpt lat="46.98319" lon="8.70894">
        <ele>572</ele>
        <time>2021-08-05T10:56:06.082Z</time>
      </trkpt>
      <trkpt lat="46.98319" lon="8.70894">
        <ele>572</ele>
        <time>2021-08-05T10:56:07.082Z</time>
      </trkpt>
      <trkpt lat="46.98318" lon="8.70895">
        <ele>572</ele>
        <time>2021-08-05T10:56:08.081Z</time>
      </trkpt>
      <trkpt lat="46.98317" lon="8.70898">
        <ele>572</ele>
        <time>2021-08-05T10:56:09.081Z</time>
      </trkpt>
      <trkpt lat="46.98316" lon="8.709">
        <ele>572</ele>
        <time>2021-08-05T10:56:10.082Z</time>
      </trkpt>
      <trkpt lat="46.98316" lon="8.70902">
        <ele>572</ele>
        <time>2021-08-05T10:56:11.081Z</time>
      </trkpt>
      <trkpt lat="46.98316" lon="8.70903">
        <ele>572</ele>
        <time>2021-08-05T10:56:12.082Z</time>
      </trkpt>
      <trkpt lat="46.98315" lon="8.70905">
        <ele>572</ele>
        <time>2021-08-05T10:56:13.081Z</time>
      </trkpt>
      <trkpt lat="46.98315" lon="8.70906">
        <ele>573</ele>
        <time>2021-08-05T10:56:14.082Z</time>
      </trkpt>
      <trkpt lat="46.98314" lon="8.70906">
        <ele>573</ele>
        <time>2021-08-05T10:56:15.082Z</time>
      </trkpt>
      <trkpt lat="46.98314" lon="8.70907">
        <ele>573</ele>
        <time>2021-08-05T10:56:16.082Z</time>
      </trkpt>
      <trkpt lat="46.98314" lon="8.70907">
        <ele>573</ele>
        <time>2021-08-05T10:56:17.082Z</time>
      </trkpt>
      <trkpt lat="46.98313" lon="8.70907">
        <ele>573</ele>
        <time>2021-08-05T10:56:18.082Z</time>
      </trkpt>
      <trkpt lat="46.98312" lon="8.70907">
        <ele>573</ele>
        <time>2021-08-05T10:56:19.082Z</time>
      </trkpt>
      <trkpt lat="46.98312" lon="8.70907">
        <ele>573</ele>
        <time>2021-08-05T10:56:20.082Z</time>
      </trkpt>
      <trkpt lat="46.98312" lon="8.70907">
        <ele>573</ele>
        <time>2021-08-05T10:56:21.081Z</time>
      </trkpt>
      <trkpt lat="46.98312" lon="8.70907">
        <ele>574</ele>
        <time>2021-08-05T10:56:22.081Z</time>
      </trkpt>
      <trkpt lat="46.98311" lon="8.70908">
        <ele>574</ele>
        <time>2021-08-05T10:56:23.082Z</time>
      </trkpt>
      <trkpt lat="46.98311" lon="8.70908">
        <ele>574</ele>
        <time>2021-08-05T10:56:24.082Z</time>
      </trkpt>
      <trkpt lat="46.98311" lon="8.7091">
        <ele>574</ele>
        <time>2021-08-05T10:56:25.082Z</time>
      </trkpt>
      <trkpt lat="46.9831" lon="8.70911">
        <ele>574</ele>
        <time>2021-08-05T10:56:26.081Z</time>
      </trkpt>
      <trkpt lat="46.9831" lon="8.70913">
        <ele>574</ele>
        <time>2021-08-05T10:56:27.081Z</time>
      </trkpt>
      <trkpt lat="46.98309" lon="8.70914">
        <ele>574</ele>
        <time>2021-08-05T10:56:28.082Z</time>
      </trkpt>
      <trkpt lat="46.98308" lon="8.70915">
        <ele>574</ele>
        <time>2021-08-05T10:56:44.218Z</time>
      </trkpt>
      <trkpt lat="46.98308" lon="8.70916">
        <ele>574</ele>
        <time>2021-08-05T10:56:45.218Z</time>
      </trkpt>
      <trkpt lat="46.98307" lon="8.70918">
        <ele>574</ele>
        <time>2021-08-05T10:56:46.218Z</time>
      </trkpt>
      <trkpt lat="46.98307" lon="8.7092">
        <ele>573</ele>
        <time>2021-08-05T10:57:32.307Z</time>
      </trkpt>
      <trkpt lat="46.98307" lon="8.70923">
        <ele>572</ele>
        <time>2021-08-05T10:57:33.307Z</time>
      </trkpt>
      <trkpt lat="46.98307" lon="8.70924">
        <ele>571</ele>
        <time>2021-08-05T10:57:34.307Z</time>
      </trkpt>
      <trkpt lat="46.98308" lon="8.70924">
        <ele>571</ele>
        <time>2021-08-05T10:57:35.307Z</time>
      </trkpt>
      <trkpt lat="46.98308" lon="8.70925">
        <ele>570</ele>
        <time>2021-08-05T10:57:36.307Z</time>
      </trkpt>
      <trkpt lat="46.98308" lon="8.70926">
        <ele>569</ele>
        <time>2021-08-05T10:57:37.306Z</time>
      </trkpt>
      <trkpt lat="46.98308" lon="8.70927">
        <ele>569</ele>
        <time>2021-08-05T10:57:38.307Z</time>
      </trkpt>
      <trkpt lat="46.98308" lon="8.70928">
        <ele>568</ele>
        <time>2021-08-05T10:57:39.307Z</time>
      </trkpt>
      <trkpt lat="46.98308" lon="8.70929">
        <ele>568</ele>
        <time>2021-08-05T10:57:40.307Z</time>
      </trkpt>
      <trkpt lat="46.98307" lon="8.70931">
        <ele>567</ele>
        <time>2021-08-05T10:57:52.451Z</time>
      </trkpt>
      <trkpt lat="46.98306" lon="8.70932">
        <ele>566</ele>
        <time>2021-08-05T10:57:53.450Z</time>
      </trkpt>
      <trkpt lat="46.98306" lon="8.70934">
        <ele>566</ele>
        <time>2021-08-05T10:57:54.451Z</time>
      </trkpt>
      <trkpt lat="46.98306" lon="8.70935">
        <ele>565</ele>
        <time>2021-08-05T10:57:57.421Z</time>
      </trkpt>
      <trkpt lat="46.98306" lon="8.70937">
        <ele>564</ele>
        <time>2021-08-05T10:57:58.421Z</time>
      </trkpt>
      <trkpt lat="46.98306" lon="8.70939">
        <ele>563</ele>
        <time>2021-08-05T10:57:59.421Z</time>
      </trkpt>
      <trkpt lat="46.98306" lon="8.70941">
        <ele>563</ele>
        <time>2021-08-05T10:58:00.421Z</time>
      </trkpt>
      <trkpt lat="46.98306" lon="8.70943">
        <ele>562</ele>
        <time>2021-08-05T10:58:01.421Z</time>
      </trkpt>
      <trkpt lat="46.98305" lon="8.70945">
        <ele>562</ele>
        <time>2021-08-05T10:58:02.421Z</time>
      </trkpt>
      <trkpt lat="46.98305" lon="8.70947">
        <ele>561</ele>
        <time>2021-08-05T10:58:03.422Z</time>
      </trkpt>
      <trkpt lat="46.98305" lon="8.70948">
        <ele>560</ele>
        <time>2021-08-05T10:58:04.421Z</time>
      </trkpt>
      <trkpt lat="46.98305" lon="8.70949">
        <ele>560</ele>
        <time>2021-08-05T10:58:05.421Z</time>
      </trkpt>
      <trkpt lat="46.98306" lon="8.7095">
        <ele>559</ele>
        <time>2021-08-05T10:58:06.421Z</time>
      </trkpt>
      <trkpt lat="46.98306" lon="8.7095">
        <ele>559</ele>
        <time>2021-08-05T10:58:07.422Z</time>
      </trkpt>
      <trkpt lat="46.98306" lon="8.70951">
        <ele>558</ele>
        <time>2021-08-05T10:58:08.422Z</time>
      </trkpt>
      <trkpt lat="46.98306" lon="8.70951">
        <ele>558</ele>
        <time>2021-08-05T10:58:09.421Z</time>
      </trkpt>
      <trkpt lat="46.98307" lon="8.70952">
        <ele>558</ele>
        <time>2021-08-05T10:58:10.421Z</time>
      </trkpt>
      <trkpt lat="46.98306" lon="8.70954">
        <ele>558</ele>
        <time>2021-08-05T10:58:11.421Z</time>
      </trkpt>
      <trkpt lat="46.98306" lon="8.70955">
        <ele>558</ele>
        <time>2021-08-05T10:58:12.421Z</time>
      </trkpt>
      <trkpt lat="46.98306" lon="8.70957">
        <ele>558</ele>
        <time>2021-08-05T10:58:13.421Z</time>
      </trkpt>
      <trkpt lat="46.98306" lon="8.70958">
        <ele>558</ele>
        <time>2021-08-05T10:58:14.421Z</time>
      </trkpt>
      <trkpt lat="46.98307" lon="8.70959">
        <ele>558</ele>
        <time>2021-08-05T10:58:15.421Z</time>
      </trkpt>
      <trkpt lat="46.98307" lon="8.7096">
        <ele>558</ele>
        <time>2021-08-05T10:58:16.421Z</time>
      </trkpt>
      <trkpt lat="46.98308" lon="8.70961">
        <ele>559</ele>
        <time>2021-08-05T10:58:17.422Z</time>
      </trkpt>
      <trkpt lat="46.98308" lon="8.70962">
        <ele>560</ele>
        <time>2021-08-05T10:58:18.421Z</time>
      </trkpt>
      <trkpt lat="46.98308" lon="8.70964">
        <ele>561</ele>
        <time>2021-08-05T10:58:19.421Z</time>
      </trkpt>
      <trkpt lat="46.98307" lon="8.70965">
        <ele>562</ele>
        <time>2021-08-05T10:58:20.421Z</time>
      </trkpt>
      <trkpt lat="46.98307" lon="8.70967">
        <ele>563</ele>
        <time>2021-08-05T10:58:21.421Z</time>
      </trkpt>
      <trkpt lat="46.98306" lon="8.70968">
        <ele>564</ele>
        <time>2021-08-05T10:58:22.421Z</time>
      </trkpt>
      <trkpt lat="46.98306" lon="8.7097">
        <ele>565</ele>
        <time>2021-08-05T10:58:23.421Z</time>
      </trkpt>
      <trkpt lat="46.98305" lon="8.70971">
        <ele>565</ele>
        <time>2021-08-05T10:58:24.422Z</time>
      </trkpt>
      <trkpt lat="46.98304" lon="8.70972">
        <ele>566</ele>
        <time>2021-08-05T10:58:25.421Z</time>
      </trkpt>
      <trkpt lat="46.98304" lon="8.70972">
        <ele>566</ele>
        <time>2021-08-05T10:58:26.421Z</time>
      </trkpt>
      <trkpt lat="46.98304" lon="8.70974">
        <ele>567</ele>
        <time>2021-08-05T10:58:27.421Z</time>
      </trkpt>
      <trkpt lat="46.98304" lon="8.70974">
        <ele>567</ele>
        <time>2021-08-05T10:58:28.422Z</time>
      </trkpt>
      <trkpt lat="46.98303" lon="8.70975">
        <ele>568</ele>
        <time>2021-08-05T10:58:29.421Z</time>
      </trkpt>
      <trkpt lat="46.98303" lon="8.70976">
        <ele>568</ele>
        <time>2021-08-05T10:58:30.422Z</time>
      </trkpt>
      <trkpt lat="46.98303" lon="8.70977">
        <ele>569</ele>
        <time>2021-08-05T10:58:31.421Z</time>
      </trkpt>
      <trkpt lat="46.98303" lon="8.70978">
        <ele>570</ele>
        <time>2021-08-05T10:58:32.422Z</time>
      </trkpt>
      <trkpt lat="46.98302" lon="8.70979">
        <ele>571</ele>
        <time>2021-08-05T10:58:33.422Z</time>
      </trkpt>
      <trkpt lat="46.98302" lon="8.70981">
        <ele>572</ele>
        <time>2021-08-05T10:58:34.422Z</time>
      </trkpt>
      <trkpt lat="46.98302" lon="8.70982">
        <ele>572</ele>
        <time>2021-08-05T10:58:35.421Z</time>
      </trkpt>
      <trkpt lat="46.98302" lon="8.70984">
        <ele>572</ele>
        <time>2021-08-05T10:58:36.422Z</time>
      </trkpt>
      <trkpt lat="46.98302" lon="8.70986">
        <ele>572</ele>
        <time>2021-08-05T10:58:37.422Z</time>
      </trkpt>
      <trkpt lat="46.98301" lon="8.70987">
        <ele>572</ele>
        <time>2021-08-05T10:58:38.422Z</time>
      </trkpt>
      <trkpt lat="46.98301" lon="8.70989">
        <ele>572</ele>
        <time>2021-08-05T10:58:39.421Z</time>
      </trkpt>
      <trkpt lat="46.983" lon="8.70991">
        <ele>571</ele>
        <time>2021-08-05T10:58:40.421Z</time>
      </trkpt>
      <trkpt lat="46.98299" lon="8.70992">
        <ele>571</ele>
        <time>2021-08-05T10:58:41.421Z</time>
      </trkpt>
      <trkpt lat="46.98298" lon="8.70994">
        <ele>571</ele>
        <time>2021-08-05T10:58:42.422Z</time>
      </trkpt>
      <trkpt lat="46.98297" lon="8.70997">
        <ele>570</ele>
        <time>2021-08-05T10:58:43.421Z</time>
      </trkpt>
      <trkpt lat="46.98296" lon="8.70998">
        <ele>570</ele>
        <time>2021-08-05T10:58:44.422Z</time>
      </trkpt>
      <trkpt lat="46.98295" lon="8.70999">
        <ele>570</ele>
        <time>2021-08-05T10:58:45.422Z</time>
      </trkpt>
      <trkpt lat="46.98295" lon="8.71">
        <ele>570</ele>
        <time>2021-08-05T10:58:46.422Z</time>
      </trkpt>
      <trkpt lat="46.98294" lon="8.71001">
        <ele>570</ele>
        <time>2021-08-05T10:58:47.422Z</time>
      </trkpt>
      <trkpt lat="46.98293" lon="8.71003">
        <ele>570</ele>
        <time>2021-08-05T10:58:48.421Z</time>
      </trkpt>
      <trkpt lat="46.98293" lon="8.71004">
        <ele>570</ele>
        <time>2021-08-05T10:58:49.422Z</time>
      </trkpt>
      <trkpt lat="46.98292" lon="8.71005">
        <ele>570</ele>
        <time>2021-08-05T10:58:50.422Z</time>
      </trkpt>
      <trkpt lat="46.9829" lon="8.71008">
        <ele>570</ele>
        <time>2021-08-05T10:58:51.422Z</time>
      </trkpt>
      <trkpt lat="46.98289" lon="8.71011">
        <ele>569</ele>
        <time>2021-08-05T10:58:52.422Z</time>
      </trkpt>
      <trkpt lat="46.98289" lon="8.71013">
        <ele>569</ele>
        <time>2021-08-05T10:58:53.422Z</time>
      </trkpt>
      <trkpt lat="46.98287" lon="8.71016">
        <ele>568</ele>
        <time>2021-08-05T10:58:54.422Z</time>
      </trkpt>
      <trkpt lat="46.98286" lon="8.71018">
        <ele>567</ele>
        <time>2021-08-05T10:58:55.422Z</time>
      </trkpt>
      <trkpt lat="46.98285" lon="8.7102">
        <ele>566</ele>
        <time>2021-08-05T10:58:56.422Z</time>
      </trkpt>
      <trkpt lat="46.98285" lon="8.71021">
        <ele>566</ele>
        <time>2021-08-05T10:58:57.421Z</time>
      </trkpt>
      <trkpt lat="46.98285" lon="8.71023">
        <ele>565</ele>
        <time>2021-08-05T10:58:58.422Z</time>
      </trkpt>
      <trkpt lat="46.98285" lon="8.71024">
        <ele>565</ele>
        <time>2021-08-05T10:58:59.422Z</time>
      </trkpt>
      <trkpt lat="46.98284" lon="8.71026">
        <ele>564</ele>
        <time>2021-08-05T10:59:00.422Z</time>
      </trkpt>
      <trkpt lat="46.98283" lon="8.71027">
        <ele>564</ele>
        <time>2021-08-05T10:59:01.421Z</time>
      </trkpt>
      <trkpt lat="46.98282" lon="8.71028">
        <ele>564</ele>
        <time>2021-08-05T10:59:02.422Z</time>
      </trkpt>
      <trkpt lat="46.98282" lon="8.7103">
        <ele>565</ele>
        <time>2021-08-05T10:59:03.422Z</time>
      </trkpt>
      <trkpt lat="46.98282" lon="8.71032">
        <ele>566</ele>
        <time>2021-08-05T10:59:04.422Z</time>
      </trkpt>
      <trkpt lat="46.98282" lon="8.71034">
        <ele>567</ele>
        <time>2021-08-05T10:59:05.421Z</time>
      </trkpt>
      <trkpt lat="46.98281" lon="8.71036">
        <ele>567</ele>
        <time>2021-08-05T10:59:06.422Z</time>
      </trkpt>
      <trkpt lat="46.9828" lon="8.71037">
        <ele>568</ele>
        <time>2021-08-05T10:59:07.422Z</time>
      </trkpt>
      <trkpt lat="46.98279" lon="8.71039">
        <ele>568</ele>
        <time>2021-08-05T10:59:08.422Z</time>
      </trkpt>
      <trkpt lat="46.98279" lon="8.7104">
        <ele>569</ele>
        <time>2021-08-05T10:59:09.421Z</time>
      </trkpt>
      <trkpt lat="46.98279" lon="8.71042">
        <ele>569</ele>
        <time>2021-08-05T10:59:10.421Z</time>
      </trkpt>
      <trkpt lat="46.98278" lon="8.71043">
        <ele>569</ele>
        <time>2021-08-05T10:59:11.422Z</time>
      </trkpt>
      <trkpt lat="46.98278" lon="8.71045">
        <ele>569</ele>
        <time>2021-08-05T10:59:12.422Z</time>
      </trkpt>
      <trkpt lat="46.98278" lon="8.71047">
        <ele>570</ele>
        <time>2021-08-05T10:59:13.422Z</time>
      </trkpt>
      <trkpt lat="46.98278" lon="8.71049">
        <ele>570</ele>
        <time>2021-08-05T10:59:14.421Z</time>
      </trkpt>
      <trkpt lat="46.98278" lon="8.71051">
        <ele>569</ele>
        <time>2021-08-05T10:59:15.421Z</time>
      </trkpt>
      <trkpt lat="46.98278" lon="8.71053">
        <ele>569</ele>
        <time>2021-08-05T10:59:16.421Z</time>
      </trkpt>
      <trkpt lat="46.98278" lon="8.71055">
        <ele>570</ele>
        <time>2021-08-05T10:59:17.421Z</time>
      </trkpt>
      <trkpt lat="46.98278" lon="8.71056">
        <ele>570</ele>
        <time>2021-08-05T10:59:18.422Z</time>
      </trkpt>
      <trkpt lat="46.98278" lon="8.71058">
        <ele>570</ele>
        <time>2021-08-05T10:59:19.422Z</time>
      </trkpt>
      <trkpt lat="46.98279" lon="8.71061">
        <ele>570</ele>
        <time>2021-08-05T10:59:20.422Z</time>
      </trkpt>
      <trkpt lat="46.98279" lon="8.71062">
        <ele>570</ele>
        <time>2021-08-05T10:59:21.422Z</time>
      </trkpt>
      <trkpt lat="46.9828" lon="8.71064">
        <ele>570</ele>
        <time>2021-08-05T10:59:22.422Z</time>
      </trkpt>
      <trkpt lat="46.9828" lon="8.71066">
        <ele>570</ele>
        <time>2021-08-05T10:59:23.421Z</time>
      </trkpt>
      <trkpt lat="46.98281" lon="8.71068">
        <ele>571</ele>
        <time>2021-08-05T10:59:24.422Z</time>
      </trkpt>
      <trkpt lat="46.98281" lon="8.71069">
        <ele>571</ele>
        <time>2021-08-05T10:59:25.422Z</time>
      </trkpt>
      <trkpt lat="46.98282" lon="8.71071">
        <ele>572</ele>
        <time>2021-08-05T10:59:26.422Z</time>
      </trkpt>
      <trkpt lat="46.98282" lon="8.71072">
        <ele>572</ele>
        <time>2021-08-05T10:59:27.421Z</time>
      </trkpt>
      <trkpt lat="46.98282" lon="8.71073">
        <ele>572</ele>
        <time>2021-08-05T10:59:28.422Z</time>
      </trkpt>
      <trkpt lat="46.98282" lon="8.71074">
        <ele>572</ele>
        <time>2021-08-05T10:59:29.422Z</time>
      </trkpt>
      <trkpt lat="46.98281" lon="8.71074">
        <ele>573</ele>
        <time>2021-08-05T10:59:30.422Z</time>
      </trkpt>
      <trkpt lat="46.98281" lon="8.71075">
        <ele>573</ele>
        <time>2021-08-05T10:59:31.422Z</time>
      </trkpt>
      <trkpt lat="46.98281" lon="8.71076">
        <ele>573</ele>
        <time>2021-08-05T10:59:32.422Z</time>
      </trkpt>
      <trkpt lat="46.98281" lon="8.71077">
        <ele>573</ele>
        <time>2021-08-05T10:59:33.422Z</time>
      </trkpt>
      <trkpt lat="46.98264" lon="8.71087">
        <ele>574</ele>
        <time>2021-08-05T11:00:03.421Z</time>
      </trkpt>
      <trkpt lat="46.98266" lon="8.71092">
        <ele>575</ele>
        <time>2021-08-05T11:00:04.422Z</time>
      </trkpt>
      <trkpt lat="46.98265" lon="8.71095">
        <ele>575</ele>
        <time>2021-08-05T11:00:05.421Z</time>
      </trkpt>
      <trkpt lat="46.98266" lon="8.71098">
        <ele>576</ele>
        <time>2021-08-05T11:00:06.422Z</time>
      </trkpt>
      <trkpt lat="46.98266" lon="8.71101">
        <ele>576</ele>
        <time>2021-08-05T11:00:07.421Z</time>
      </trkpt>
      <trkpt lat="46.98268" lon="8.71101">
        <ele>577</ele>
        <time>2021-08-05T11:00:08.422Z</time>
      </trkpt>
      <trkpt lat="46.98269" lon="8.71102">
        <ele>577</ele>
        <time>2021-08-05T11:00:09.422Z</time>
      </trkpt>
      <trkpt lat="46.98269" lon="8.71103">
        <ele>577</ele>
        <time>2021-08-05T11:00:10.421Z</time>
      </trkpt>
      <trkpt lat="46.98269" lon="8.71104">
        <ele>577</ele>
        <time>2021-08-05T11:00:11.422Z</time>
      </trkpt>
      <trkpt lat="46.9827" lon="8.71104">
        <ele>578</ele>
        <time>2021-08-05T11:00:12.422Z</time>
      </trkpt>
      <trkpt lat="46.9827" lon="8.71105">
        <ele>578</ele>
        <time>2021-08-05T11:00:13.421Z</time>
      </trkpt>
      <trkpt lat="46.98271" lon="8.71106">
        <ele>578</ele>
        <time>2021-08-05T11:00:14.421Z</time>
      </trkpt>
      <trkpt lat="46.98272" lon="8.71107">
        <ele>578</ele>
        <time>2021-08-05T11:00:15.422Z</time>
      </trkpt>
      <trkpt lat="46.98273" lon="8.71108">
        <ele>578</ele>
        <time>2021-08-05T11:00:16.422Z</time>
      </trkpt>
      <trkpt lat="46.98273" lon="8.7111">
        <ele>578</ele>
        <time>2021-08-05T11:00:17.421Z</time>
      </trkpt>
      <trkpt lat="46.98274" lon="8.71111">
        <ele>577</ele>
        <time>2021-08-05T11:00:18.422Z</time>
      </trkpt>
      <trkpt lat="46.98275" lon="8.71111">
        <ele>577</ele>
        <time>2021-08-05T11:00:19.421Z</time>
      </trkpt>
      <trkpt lat="46.98276" lon="8.71111">
        <ele>577</ele>
        <time>2021-08-05T11:00:20.421Z</time>
      </trkpt>
      <trkpt lat="46.98276" lon="8.71112">
        <ele>577</ele>
        <time>2021-08-05T11:00:21.421Z</time>
      </trkpt>
      <trkpt lat="46.98277" lon="8.71114">
        <ele>577</ele>
        <time>2021-08-05T11:00:22.422Z</time>
      </trkpt>
      <trkpt lat="46.98277" lon="8.71115">
        <ele>576</ele>
        <time>2021-08-05T11:00:23.422Z</time>
      </trkpt>
      <trkpt lat="46.98278" lon="8.71116">
        <ele>576</ele>
        <time>2021-08-05T11:00:24.422Z</time>
      </trkpt>
      <trkpt lat="46.98278" lon="8.71118">
        <ele>576</ele>
        <time>2021-08-05T11:00:25.421Z</time>
      </trkpt>
      <trkpt lat="46.98279" lon="8.71119">
        <ele>575</ele>
        <time>2021-08-05T11:00:26.422Z</time>
      </trkpt>
      <trkpt lat="46.98279" lon="8.7112">
        <ele>575</ele>
        <time>2021-08-05T11:00:27.422Z</time>
      </trkpt>
      <trkpt lat="46.98279" lon="8.71121">
        <ele>574</ele>
        <time>2021-08-05T11:00:28.422Z</time>
      </trkpt>
      <trkpt lat="46.98279" lon="8.71122">
        <ele>574</ele>
        <time>2021-08-05T11:00:29.421Z</time>
      </trkpt>
      <trkpt lat="46.98278" lon="8.71123">
        <ele>573</ele>
        <time>2021-08-05T11:00:30.421Z</time>
      </trkpt>
      <trkpt lat="46.98278" lon="8.71124">
        <ele>573</ele>
        <time>2021-08-05T11:00:31.421Z</time>
      </trkpt>
      <trkpt lat="46.98278" lon="8.71126">
        <ele>572</ele>
        <time>2021-08-05T11:00:32.421Z</time>
      </trkpt>
      <trkpt lat="46.98278" lon="8.71127">
        <ele>572</ele>
        <time>2021-08-05T11:00:33.421Z</time>
      </trkpt>
      <trkpt lat="46.98278" lon="8.71129">
        <ele>572</ele>
        <time>2021-08-05T11:00:34.421Z</time>
      </trkpt>
      <trkpt lat="46.98277" lon="8.7113">
        <ele>571</ele>
        <time>2021-08-05T11:00:35.421Z</time>
      </trkpt>
      <trkpt lat="46.98277" lon="8.71131">
        <ele>571</ele>
        <time>2021-08-05T11:00:36.421Z</time>
      </trkpt>
      <trkpt lat="46.98277" lon="8.71133">
        <ele>570</ele>
        <time>2021-08-05T11:00:37.421Z</time>
      </trkpt>
      <trkpt lat="46.98277" lon="8.71135">
        <ele>570</ele>
        <time>2021-08-05T11:00:38.421Z</time>
      </trkpt>
      <trkpt lat="46.98278" lon="8.71137">
        <ele>570</ele>
        <time>2021-08-05T11:00:39.421Z</time>
      </trkpt>
      <trkpt lat="46.98278" lon="8.71139">
        <ele>569</ele>
        <time>2021-08-05T11:00:40.421Z</time>
      </trkpt>
      <trkpt lat="46.98278" lon="8.71141">
        <ele>569</ele>
        <time>2021-08-05T11:00:41.421Z</time>
      </trkpt>
      <trkpt lat="46.98278" lon="8.71143">
        <ele>569</ele>
        <time>2021-08-05T11:00:42.421Z</time>
      </trkpt>
      <trkpt lat="46.98277" lon="8.71145">
        <ele>569</ele>
        <time>2021-08-05T11:00:43.422Z</time>
      </trkpt>
      <trkpt lat="46.98277" lon="8.71148">
        <ele>569</ele>
        <time>2021-08-05T11:00:44.422Z</time>
      </trkpt>
      <trkpt lat="46.98277" lon="8.71149">
        <ele>569</ele>
        <time>2021-08-05T11:00:45.421Z</time>
      </trkpt>
      <trkpt lat="46.98277" lon="8.71151">
        <ele>568</ele>
        <time>2021-08-05T11:00:46.422Z</time>
      </trkpt>
      <trkpt lat="46.98278" lon="8.71153">
        <ele>569</ele>
        <time>2021-08-05T11:00:47.422Z</time>
      </trkpt>
      <trkpt lat="46.98277" lon="8.71155">
        <ele>568</ele>
        <time>2021-08-05T11:00:48.422Z</time>
      </trkpt>
      <trkpt lat="46.98278" lon="8.71156">
        <ele>568</ele>
        <time>2021-08-05T11:00:49.421Z</time>
      </trkpt>
      <trkpt lat="46.98277" lon="8.71158">
        <ele>568</ele>
        <time>2021-08-05T11:00:50.422Z</time>
      </trkpt>
      <trkpt lat="46.98277" lon="8.7116">
        <ele>568</ele>
        <time>2021-08-05T11:00:51.422Z</time>
      </trkpt>
      <trkpt lat="46.98277" lon="8.71161">
        <ele>567</ele>
        <time>2021-08-05T11:00:52.422Z</time>
      </trkpt>
      <trkpt lat="46.98278" lon="8.71162">
        <ele>567</ele>
        <time>2021-08-05T11:00:53.421Z</time>
      </trkpt>
      <trkpt lat="46.98278" lon="8.71164">
        <ele>566</ele>
        <time>2021-08-05T11:00:54.422Z</time>
      </trkpt>
      <trkpt lat="46.98277" lon="8.71165">
        <ele>566</ele>
        <time>2021-08-05T11:00:55.422Z</time>
      </trkpt>
      <trkpt lat="46.98278" lon="8.71167">
        <ele>566</ele>
        <time>2021-08-05T11:00:56.422Z</time>
      </trkpt>
      <trkpt lat="46.98278" lon="8.71168">
        <ele>565</ele>
        <time>2021-08-05T11:00:57.422Z</time>
      </trkpt>
      <trkpt lat="46.98278" lon="8.71169">
        <ele>565</ele>
        <time>2021-08-05T11:00:58.421Z</time>
      </trkpt>
      <trkpt lat="46.98278" lon="8.71171">
        <ele>565</ele>
        <time>2021-08-05T11:00:59.422Z</time>
      </trkpt>
      <trkpt lat="46.98278" lon="8.71173">
        <ele>565</ele>
        <time>2021-08-05T11:01:00.422Z</time>
      </trkpt>
      <trkpt lat="46.98279" lon="8.71175">
        <ele>565</ele>
        <time>2021-08-05T11:01:01.422Z</time>
      </trkpt>
      <trkpt lat="46.98278" lon="8.71176">
        <ele>565</ele>
        <time>2021-08-05T11:01:02.421Z</time>
      </trkpt>
      <trkpt lat="46.98278" lon="8.71178">
        <ele>565</ele>
        <time>2021-08-05T11:01:03.422Z</time>
      </trkpt>
      <trkpt lat="46.98278" lon="8.7118">
        <ele>565</ele>
        <time>2021-08-05T11:01:04.422Z</time>
      </trkpt>
      <trkpt lat="46.98278" lon="8.71182">
        <ele>565</ele>
        <time>2021-08-05T11:01:05.421Z</time>
      </trkpt>
      <trkpt lat="46.98278" lon="8.71184">
        <ele>565</ele>
        <time>2021-08-05T11:01:06.422Z</time>
      </trkpt>
      <trkpt lat="46.98279" lon="8.71186">
        <ele>565</ele>
        <time>2021-08-05T11:01:07.421Z</time>
      </trkpt>
      <trkpt lat="46.98279" lon="8.71187">
        <ele>566</ele>
        <time>2021-08-05T11:01:08.421Z</time>
      </trkpt>
      <trkpt lat="46.9828" lon="8.71189">
        <ele>566</ele>
        <time>2021-08-05T11:01:09.422Z</time>
      </trkpt>
      <trkpt lat="46.9828" lon="8.7119">
        <ele>567</ele>
        <time>2021-08-05T11:01:10.421Z</time>
      </trkpt>
      <trkpt lat="46.98281" lon="8.71191">
        <ele>567</ele>
        <time>2021-08-05T11:01:11.421Z</time>
      </trkpt>
      <trkpt lat="46.98281" lon="8.71192">
        <ele>567</ele>
        <time>2021-08-05T11:01:12.422Z</time>
      </trkpt>
      <trkpt lat="46.98281" lon="8.71193">
        <ele>568</ele>
        <time>2021-08-05T11:01:13.422Z</time>
      </trkpt>
      <trkpt lat="46.98281" lon="8.71195">
        <ele>568</ele>
        <time>2021-08-05T11:01:14.422Z</time>
      </trkpt>
      <trkpt lat="46.98282" lon="8.71197">
        <ele>568</ele>
        <time>2021-08-05T11:01:15.422Z</time>
      </trkpt>
      <trkpt lat="46.98283" lon="8.71198">
        <ele>568</ele>
        <time>2021-08-05T11:01:16.422Z</time>
      </trkpt>
      <trkpt lat="46.98283" lon="8.712">
        <ele>568</ele>
        <time>2021-08-05T11:01:17.422Z</time>
      </trkpt>
      <trkpt lat="46.98283" lon="8.71201">
        <ele>568</ele>
        <time>2021-08-05T11:01:18.422Z</time>
      </trkpt>
      <trkpt lat="46.98283" lon="8.71201">
        <ele>568</ele>
        <time>2021-08-05T11:01:19.422Z</time>
      </trkpt>
      <trkpt lat="46.98283" lon="8.71202">
        <ele>568</ele>
        <time>2021-08-05T11:01:20.422Z</time>
      </trkpt>
      <trkpt lat="46.98284" lon="8.71201">
        <ele>568</ele>
        <time>2021-08-05T11:01:21.422Z</time>
      </trkpt>
      <trkpt lat="46.98284" lon="8.71201">
        <ele>569</ele>
        <time>2021-08-05T11:01:22.422Z</time>
      </trkpt>
      <trkpt lat="46.98283" lon="8.71201">
        <ele>569</ele>
        <time>2021-08-05T11:01:23.422Z</time>
      </trkpt>
      <trkpt lat="46.98282" lon="8.712">
        <ele>570</ele>
        <time>2021-08-05T11:01:24.421Z</time>
      </trkpt>
      <trkpt lat="46.98282" lon="8.712">
        <ele>571</ele>
        <time>2021-08-05T11:01:25.422Z</time>
      </trkpt>
      <trkpt lat="46.98281" lon="8.71201">
        <ele>571</ele>
        <time>2021-08-05T11:01:26.422Z</time>
      </trkpt>
      <trkpt lat="46.9828" lon="8.71202">
        <ele>572</ele>
        <time>2021-08-05T11:01:27.422Z</time>
      </trkpt>
      <trkpt lat="46.9828" lon="8.71204">
        <ele>573</ele>
        <time>2021-08-05T11:01:28.422Z</time>
      </trkpt>
      <trkpt lat="46.9828" lon="8.71206">
        <ele>574</ele>
        <time>2021-08-05T11:01:29.422Z</time>
      </trkpt>
      <trkpt lat="46.98279" lon="8.71208">
        <ele>575</ele>
        <time>2021-08-05T11:01:30.422Z</time>
      </trkpt>
      <trkpt lat="46.98279" lon="8.71208">
        <ele>576</ele>
        <time>2021-08-05T11:01:31.422Z</time>
      </trkpt>
      <trkpt lat="46.98278" lon="8.71209">
        <ele>576</ele>
        <time>2021-08-05T11:01:32.421Z</time>
      </trkpt>
      <trkpt lat="46.98277" lon="8.7121">
        <ele>577</ele>
        <time>2021-08-05T11:01:33.421Z</time>
      </trkpt>
      <trkpt lat="46.98276" lon="8.7121">
        <ele>577</ele>
        <time>2021-08-05T11:01:34.422Z</time>
      </trkpt>
      <trkpt lat="46.98276" lon="8.7121">
        <ele>578</ele>
        <time>2021-08-05T11:01:35.422Z</time>
      </trkpt>
      <trkpt lat="46.98275" lon="8.71211">
        <ele>578</ele>
        <time>2021-08-05T11:01:39.469Z</time>
      </trkpt>
      <trkpt lat="46.98275" lon="8.71211">
        <ele>578</ele>
        <time>2021-08-05T11:01:40.468Z</time>
      </trkpt>
      <trkpt lat="46.98274" lon="8.71212">
        <ele>578</ele>
        <time>2021-08-05T11:01:41.469Z</time>
      </trkpt>
      <trkpt lat="46.98273" lon="8.71213">
        <ele>579</ele>
        <time>2021-08-05T11:01:42.469Z</time>
      </trkpt>
      <trkpt lat="46.98273" lon="8.71215">
        <ele>579</ele>
        <time>2021-08-05T11:01:43.469Z</time>
      </trkpt>
      <trkpt lat="46.98272" lon="8.71216">
        <ele>580</ele>
        <time>2021-08-05T11:01:44.469Z</time>
      </trkpt>
      <trkpt lat="46.98272" lon="8.71216">
        <ele>582</ele>
        <time>2021-08-05T11:01:45.468Z</time>
      </trkpt>
      <trkpt lat="46.98272" lon="8.71218">
        <ele>583</ele>
        <time>2021-08-05T11:01:46.469Z</time>
      </trkpt>
      <trkpt lat="46.98272" lon="8.71219">
        <ele>585</ele>
        <time>2021-08-05T11:01:47.469Z</time>
      </trkpt>
      <trkpt lat="46.98272" lon="8.71221">
        <ele>586</ele>
        <time>2021-08-05T11:01:48.468Z</time>
      </trkpt>
      <trkpt lat="46.98272" lon="8.71222">
        <ele>588</ele>
        <time>2021-08-05T11:01:49.469Z</time>
      </trkpt>
      <trkpt lat="46.98272" lon="8.71223">
        <ele>589</ele>
        <time>2021-08-05T11:01:50.469Z</time>
      </trkpt>
      <trkpt lat="46.98272" lon="8.71224">
        <ele>590</ele>
        <time>2021-08-05T11:01:51.469Z</time>
      </trkpt>
      <trkpt lat="46.98271" lon="8.71225">
        <ele>590</ele>
        <time>2021-08-05T11:01:52.469Z</time>
      </trkpt>
      <trkpt lat="46.98271" lon="8.71225">
        <ele>591</ele>
        <time>2021-08-05T11:01:53.468Z</time>
      </trkpt>
      <trkpt lat="46.98271" lon="8.71223">
        <ele>592</ele>
        <time>2021-08-05T11:01:54.468Z</time>
      </trkpt>
      <trkpt lat="46.98273" lon="8.71224">
        <ele>592</ele>
        <time>2021-08-05T11:01:55.469Z</time>
      </trkpt>
      <trkpt lat="46.98275" lon="8.71227">
        <ele>592</ele>
        <time>2021-08-05T11:01:56.469Z</time>
      </trkpt>
      <trkpt lat="46.98276" lon="8.71229">
        <ele>592</ele>
        <time>2021-08-05T11:01:57.468Z</time>
      </trkpt>
      <trkpt lat="46.98277" lon="8.71225">
        <ele>594</ele>
        <time>2021-08-05T11:01:58.469Z</time>
      </trkpt>
      <trkpt lat="46.98278" lon="8.71228">
        <ele>594</ele>
        <time>2021-08-05T11:01:59.469Z</time>
      </trkpt>
      <trkpt lat="46.98278" lon="8.71229">
        <ele>594</ele>
        <time>2021-08-05T11:02:00.470Z</time>
      </trkpt>
      <trkpt lat="46.98279" lon="8.7123">
        <ele>594</ele>
        <time>2021-08-05T11:02:01.469Z</time>
      </trkpt>
      <trkpt lat="46.98279" lon="8.71231">
        <ele>594</ele>
        <time>2021-08-05T11:02:02.470Z</time>
      </trkpt>
      <trkpt lat="46.9828" lon="8.71232">
        <ele>594</ele>
        <time>2021-08-05T11:02:03.470Z</time>
      </trkpt>
      <trkpt lat="46.98281" lon="8.71232">
        <ele>593</ele>
        <time>2021-08-05T11:02:04.470Z</time>
      </trkpt>
      <trkpt lat="46.98282" lon="8.71232">
        <ele>593</ele>
        <time>2021-08-05T11:02:05.470Z</time>
      </trkpt>
      <trkpt lat="46.98282" lon="8.71232">
        <ele>593</ele>
        <time>2021-08-05T11:02:06.470Z</time>
      </trkpt>
      <trkpt lat="46.98282" lon="8.71233">
        <ele>593</ele>
        <time>2021-08-05T11:02:07.470Z</time>
      </trkpt>
      <trkpt lat="46.98283" lon="8.71233">
        <ele>593</ele>
        <time>2021-08-05T11:02:08.469Z</time>
      </trkpt>
      <trkpt lat="46.98284" lon="8.71233">
        <ele>592</ele>
        <time>2021-08-05T11:02:09.469Z</time>
      </trkpt>
      <trkpt lat="46.98285" lon="8.71233">
        <ele>592</ele>
        <time>2021-08-05T11:02:10.470Z</time>
      </trkpt>
      <trkpt lat="46.98286" lon="8.71233">
        <ele>592</ele>
        <time>2021-08-05T11:02:11.469Z</time>
      </trkpt>
      <trkpt lat="46.98287" lon="8.71234">
        <ele>592</ele>
        <time>2021-08-05T11:02:12.470Z</time>
      </trkpt>
      <trkpt lat="46.98288" lon="8.71233">
        <ele>591</ele>
        <time>2021-08-05T11:02:13.470Z</time>
      </trkpt>
      <trkpt lat="46.98288" lon="8.71233">
        <ele>592</ele>
        <time>2021-08-05T11:02:14.470Z</time>
      </trkpt>
      <trkpt lat="46.98288" lon="8.71233">
        <ele>592</ele>
        <time>2021-08-05T11:02:15.470Z</time>
      </trkpt>
      <trkpt lat="46.98288" lon="8.71232">
        <ele>592</ele>
        <time>2021-08-05T11:02:18.599Z</time>
      </trkpt>
      <trkpt lat="46.98286" lon="8.7123">
        <ele>592</ele>
        <time>2021-08-05T11:02:19.598Z</time>
      </trkpt>
      <trkpt lat="46.98284" lon="8.71228">
        <ele>593</ele>
        <time>2021-08-05T11:02:20.599Z</time>
      </trkpt>
      <trkpt lat="46.98284" lon="8.71227">
        <ele>593</ele>
        <time>2021-08-05T11:02:21.599Z</time>
      </trkpt>
      <trkpt lat="46.98284" lon="8.71227">
        <ele>593</ele>
        <time>2021-08-05T11:02:22.599Z</time>
      </trkpt>
      <trkpt lat="46.98282" lon="8.71227">
        <ele>590</ele>
        <time>2021-08-05T11:02:23.598Z</time>
      </trkpt>
      <trkpt lat="46.98283" lon="8.71229">
        <ele>585</ele>
        <time>2021-08-05T11:02:24.599Z</time>
      </trkpt>
      <trkpt lat="46.98283" lon="8.71232">
        <ele>585</ele>
        <time>2021-08-05T11:02:25.599Z</time>
      </trkpt>
      <trkpt lat="46.98283" lon="8.71234">
        <ele>585</ele>
        <time>2021-08-05T11:02:26.598Z</time>
      </trkpt>
      <trkpt lat="46.98283" lon="8.71235">
        <ele>584</ele>
        <time>2021-08-05T11:02:27.599Z</time>
      </trkpt>
      <trkpt lat="46.98283" lon="8.71237">
        <ele>584</ele>
        <time>2021-08-05T11:02:28.598Z</time>
      </trkpt>
      <trkpt lat="46.98283" lon="8.71238">
        <ele>584</ele>
        <time>2021-08-05T11:02:29.599Z</time>
      </trkpt>
      <trkpt lat="46.98284" lon="8.71239">
        <ele>583</ele>
        <time>2021-08-05T11:02:30.598Z</time>
      </trkpt>
      <trkpt lat="46.98284" lon="8.71241">
        <ele>583</ele>
        <time>2021-08-05T11:02:31.598Z</time>
      </trkpt>
      <trkpt lat="46.98285" lon="8.71242">
        <ele>582</ele>
        <time>2021-08-05T11:02:32.598Z</time>
      </trkpt>
      <trkpt lat="46.98285" lon="8.71242">
        <ele>582</ele>
        <time>2021-08-05T11:02:33.599Z</time>
      </trkpt>
      <trkpt lat="46.98285" lon="8.71244">
        <ele>581</ele>
        <time>2021-08-05T11:02:34.599Z</time>
      </trkpt>
      <trkpt lat="46.98285" lon="8.71245">
        <ele>581</ele>
        <time>2021-08-05T11:02:35.598Z</time>
      </trkpt>
      <trkpt lat="46.98285" lon="8.71247">
        <ele>581</ele>
        <time>2021-08-05T11:02:36.598Z</time>
      </trkpt>
      <trkpt lat="46.98285" lon="8.71248">
        <ele>580</ele>
        <time>2021-08-05T11:02:37.598Z</time>
      </trkpt>
      <trkpt lat="46.98285" lon="8.71249">
        <ele>580</ele>
        <time>2021-08-05T11:02:38.599Z</time>
      </trkpt>
      <trkpt lat="46.98284" lon="8.7125">
        <ele>579</ele>
        <time>2021-08-05T11:02:39.599Z</time>
      </trkpt>
      <trkpt lat="46.98284" lon="8.7125">
        <ele>579</ele>
        <time>2021-08-05T11:02:40.598Z</time>
      </trkpt>
      <trkpt lat="46.98283" lon="8.71251">
        <ele>579</ele>
        <time>2021-08-05T11:02:41.598Z</time>
      </trkpt>
      <trkpt lat="46.98282" lon="8.71253">
        <ele>578</ele>
        <time>2021-08-05T11:02:42.598Z</time>
      </trkpt>
      <trkpt lat="46.98282" lon="8.71254">
        <ele>578</ele>
        <time>2021-08-05T11:02:43.598Z</time>
      </trkpt>
      <trkpt lat="46.98281" lon="8.71256">
        <ele>578</ele>
        <time>2021-08-05T11:02:44.598Z</time>
      </trkpt>
      <trkpt lat="46.98281" lon="8.71258">
        <ele>578</ele>
        <time>2021-08-05T11:02:45.599Z</time>
      </trkpt>
      <trkpt lat="46.98281" lon="8.71259">
        <ele>578</ele>
        <time>2021-08-05T11:02:46.598Z</time>
      </trkpt>
      <trkpt lat="46.9828" lon="8.7126">
        <ele>578</ele>
        <time>2021-08-05T11:02:47.598Z</time>
      </trkpt>
      <trkpt lat="46.9828" lon="8.71261">
        <ele>577</ele>
        <time>2021-08-05T11:02:48.599Z</time>
      </trkpt>
      <trkpt lat="46.98279" lon="8.71261">
        <ele>577</ele>
        <time>2021-08-05T11:02:49.598Z</time>
      </trkpt>
      <trkpt lat="46.9828" lon="8.71262">
        <ele>576</ele>
        <time>2021-08-05T11:02:50.598Z</time>
      </trkpt>
      <trkpt lat="46.9828" lon="8.71262">
        <ele>576</ele>
        <time>2021-08-05T11:02:51.598Z</time>
      </trkpt>
      <trkpt lat="46.98281" lon="8.71263">
        <ele>576</ele>
        <time>2021-08-05T11:02:52.598Z</time>
      </trkpt>
      <trkpt lat="46.98281" lon="8.71264">
        <ele>576</ele>
        <time>2021-08-05T11:02:53.598Z</time>
      </trkpt>
      <trkpt lat="46.98281" lon="8.71266">
        <ele>576</ele>
        <time>2021-08-05T11:02:54.599Z</time>
      </trkpt>
      <trkpt lat="46.98281" lon="8.71267">
        <ele>576</ele>
        <time>2021-08-05T11:02:55.599Z</time>
      </trkpt>
      <trkpt lat="46.9828" lon="8.71268">
        <ele>576</ele>
        <time>2021-08-05T11:02:56.599Z</time>
      </trkpt>
      <trkpt lat="46.98279" lon="8.7127">
        <ele>576</ele>
        <time>2021-08-05T11:02:57.598Z</time>
      </trkpt>
      <trkpt lat="46.98279" lon="8.71271">
        <ele>576</ele>
        <time>2021-08-05T11:02:58.599Z</time>
      </trkpt>
      <trkpt lat="46.98278" lon="8.71273">
        <ele>576</ele>
        <time>2021-08-05T11:02:59.599Z</time>
      </trkpt>
      <trkpt lat="46.98278" lon="8.71274">
        <ele>576</ele>
        <time>2021-08-05T11:03:00.599Z</time>
      </trkpt>
      <trkpt lat="46.98277" lon="8.71275">
        <ele>576</ele>
        <time>2021-08-05T11:03:01.598Z</time>
      </trkpt>
      <trkpt lat="46.98277" lon="8.71276">
        <ele>577</ele>
        <time>2021-08-05T11:03:02.599Z</time>
      </trkpt>
      <trkpt lat="46.98277" lon="8.71277">
        <ele>577</ele>
        <time>2021-08-05T11:03:03.599Z</time>
      </trkpt>
      <trkpt lat="46.98276" lon="8.71278">
        <ele>578</ele>
        <time>2021-08-05T11:03:04.598Z</time>
      </trkpt>
      <trkpt lat="46.98276" lon="8.7128">
        <ele>578</ele>
        <time>2021-08-05T11:03:05.599Z</time>
      </trkpt>
      <trkpt lat="46.98276" lon="8.71282">
        <ele>579</ele>
        <time>2021-08-05T11:03:06.599Z</time>
      </trkpt>
      <trkpt lat="46.98276" lon="8.71284">
        <ele>580</ele>
        <time>2021-08-05T11:03:07.598Z</time>
      </trkpt>
      <trkpt lat="46.98276" lon="8.71285">
        <ele>580</ele>
        <time>2021-08-05T11:03:08.599Z</time>
      </trkpt>
      <trkpt lat="46.98276" lon="8.71286">
        <ele>580</ele>
        <time>2021-08-05T11:03:09.599Z</time>
      </trkpt>
      <trkpt lat="46.98275" lon="8.71288">
        <ele>581</ele>
        <time>2021-08-05T11:03:10.598Z</time>
      </trkpt>
      <trkpt lat="46.98274" lon="8.7129">
        <ele>581</ele>
        <time>2021-08-05T11:03:11.599Z</time>
      </trkpt>
      <trkpt lat="46.98272" lon="8.71292">
        <ele>581</ele>
        <time>2021-08-05T11:03:12.598Z</time>
      </trkpt>
      <trkpt lat="46.98271" lon="8.71294">
        <ele>581</ele>
        <time>2021-08-05T11:03:13.598Z</time>
      </trkpt>
      <trkpt lat="46.98271" lon="8.71296">
        <ele>581</ele>
        <time>2021-08-05T11:03:14.599Z</time>
      </trkpt>
      <trkpt lat="46.98271" lon="8.71298">
        <ele>581</ele>
        <time>2021-08-05T11:03:15.599Z</time>
      </trkpt>
      <trkpt lat="46.9827" lon="8.71299">
        <ele>581</ele>
        <time>2021-08-05T11:03:16.599Z</time>
      </trkpt>
      <trkpt lat="46.9827" lon="8.71301">
        <ele>581</ele>
        <time>2021-08-05T11:03:17.598Z</time>
      </trkpt>
      <trkpt lat="46.98269" lon="8.71303">
        <ele>580</ele>
        <time>2021-08-05T11:03:18.599Z</time>
      </trkpt>
      <trkpt lat="46.98268" lon="8.71305">
        <ele>580</ele>
        <time>2021-08-05T11:03:19.599Z</time>
      </trkpt>
      <trkpt lat="46.98268" lon="8.71306">
        <ele>580</ele>
        <time>2021-08-05T11:03:20.599Z</time>
      </trkpt>
      <trkpt lat="46.98267" lon="8.71308">
        <ele>579</ele>
        <time>2021-08-05T11:03:21.599Z</time>
      </trkpt>
      <trkpt lat="46.98266" lon="8.71308">
        <ele>579</ele>
        <time>2021-08-05T11:03:22.599Z</time>
      </trkpt>
      <trkpt lat="46.98265" lon="8.71309">
        <ele>579</ele>
        <time>2021-08-05T11:03:23.598Z</time>
      </trkpt>
      <trkpt lat="46.98264" lon="8.71311">
        <ele>578</ele>
        <time>2021-08-05T11:03:24.598Z</time>
      </trkpt>
      <trkpt lat="46.98264" lon="8.71312">
        <ele>578</ele>
        <time>2021-08-05T11:03:25.599Z</time>
      </trkpt>
      <trkpt lat="46.98263" lon="8.71314">
        <ele>578</ele>
        <time>2021-08-05T11:03:26.598Z</time>
      </trkpt>
      <trkpt lat="46.98262" lon="8.71315">
        <ele>578</ele>
        <time>2021-08-05T11:03:27.599Z</time>
      </trkpt>
      <trkpt lat="46.9826" lon="8.71317">
        <ele>578</ele>
        <time>2021-08-05T11:03:28.598Z</time>
      </trkpt>
      <trkpt lat="46.9826" lon="8.71319">
        <ele>578</ele>
        <time>2021-08-05T11:03:29.599Z</time>
      </trkpt>
      <trkpt lat="46.9826" lon="8.7132">
        <ele>579</ele>
        <time>2021-08-05T11:03:30.599Z</time>
      </trkpt>
      <trkpt lat="46.98259" lon="8.71321">
        <ele>579</ele>
        <time>2021-08-05T11:03:31.599Z</time>
      </trkpt>
      <trkpt lat="46.98259" lon="8.71321">
        <ele>579</ele>
        <time>2021-08-05T11:03:32.598Z</time>
      </trkpt>
      <trkpt lat="46.98257" lon="8.71322">
        <ele>579</ele>
        <time>2021-08-05T11:03:33.599Z</time>
      </trkpt>
      <trkpt lat="46.98256" lon="8.71322">
        <ele>579</ele>
        <time>2021-08-05T11:03:34.599Z</time>
      </trkpt>
      <trkpt lat="46.98255" lon="8.71323">
        <ele>579</ele>
        <time>2021-08-05T11:03:35.599Z</time>
      </trkpt>
      <trkpt lat="46.98254" lon="8.71323">
        <ele>579</ele>
        <time>2021-08-05T11:03:36.598Z</time>
      </trkpt>
      <trkpt lat="46.98254" lon="8.71324">
        <ele>579</ele>
        <time>2021-08-05T11:03:37.599Z</time>
      </trkpt>
      <trkpt lat="46.98253" lon="8.71324">
        <ele>579</ele>
        <time>2021-08-05T11:03:38.598Z</time>
      </trkpt>
      <trkpt lat="46.98253" lon="8.71325">
        <ele>579</ele>
        <time>2021-08-05T11:03:39.598Z</time>
      </trkpt>
      <trkpt lat="46.98252" lon="8.71325">
        <ele>579</ele>
        <time>2021-08-05T11:03:40.599Z</time>
      </trkpt>
      <trkpt lat="46.98251" lon="8.71326">
        <ele>579</ele>
        <time>2021-08-05T11:03:41.599Z</time>
      </trkpt>
      <trkpt lat="46.98251" lon="8.71327">
        <ele>579</ele>
        <time>2021-08-05T11:03:42.599Z</time>
      </trkpt>
      <trkpt lat="46.9825" lon="8.71328">
        <ele>579</ele>
        <time>2021-08-05T11:03:43.599Z</time>
      </trkpt>
      <trkpt lat="46.98249" lon="8.7133">
        <ele>579</ele>
        <time>2021-08-05T11:03:44.599Z</time>
      </trkpt>
      <trkpt lat="46.98248" lon="8.71332">
        <ele>579</ele>
        <time>2021-08-05T11:03:45.599Z</time>
      </trkpt>
      <trkpt lat="46.98247" lon="8.71333">
        <ele>580</ele>
        <time>2021-08-05T11:03:46.598Z</time>
      </trkpt>
      <trkpt lat="46.98246" lon="8.71334">
        <ele>580</ele>
        <time>2021-08-05T11:03:47.599Z</time>
      </trkpt>
      <trkpt lat="46.98245" lon="8.71336">
        <ele>580</ele>
        <time>2021-08-05T11:03:48.599Z</time>
      </trkpt>
      <trkpt lat="46.98245" lon="8.71338">
        <ele>581</ele>
        <time>2021-08-05T11:03:49.598Z</time>
      </trkpt>
      <trkpt lat="46.98245" lon="8.7134">
        <ele>581</ele>
        <time>2021-08-05T11:03:50.599Z</time>
      </trkpt>
      <trkpt lat="46.98245" lon="8.71341">
        <ele>581</ele>
        <time>2021-08-05T11:03:51.598Z</time>
      </trkpt>
      <trkpt lat="46.98244" lon="8.71343">
        <ele>582</ele>
        <time>2021-08-05T11:03:52.598Z</time>
      </trkpt>
      <trkpt lat="46.98243" lon="8.71345">
        <ele>582</ele>
        <time>2021-08-05T11:03:53.599Z</time>
      </trkpt>
      <trkpt lat="46.98243" lon="8.71346">
        <ele>582</ele>
        <time>2021-08-05T11:03:54.599Z</time>
      </trkpt>
      <trkpt lat="46.98242" lon="8.71348">
        <ele>583</ele>
        <time>2021-08-05T11:03:55.598Z</time>
      </trkpt>
      <trkpt lat="46.98242" lon="8.7135">
        <ele>583</ele>
        <time>2021-08-05T11:03:56.598Z</time>
      </trkpt>
      <trkpt lat="46.98241" lon="8.71351">
        <ele>583</ele>
        <time>2021-08-05T11:03:57.599Z</time>
      </trkpt>
      <trkpt lat="46.98241" lon="8.71352">
        <ele>584</ele>
        <time>2021-08-05T11:03:58.599Z</time>
      </trkpt>
      <trkpt lat="46.9824" lon="8.71353">
        <ele>584</ele>
        <time>2021-08-05T11:03:59.598Z</time>
      </trkpt>
      <trkpt lat="46.9824" lon="8.71355">
        <ele>584</ele>
        <time>2021-08-05T11:04:00.599Z</time>
      </trkpt>
      <trkpt lat="46.98239" lon="8.71356">
        <ele>584</ele>
        <time>2021-08-05T11:04:01.599Z</time>
      </trkpt>
      <trkpt lat="46.98239" lon="8.71357">
        <ele>584</ele>
        <time>2021-08-05T11:04:02.599Z</time>
      </trkpt>
      <trkpt lat="46.98238" lon="8.71359">
        <ele>584</ele>
        <time>2021-08-05T11:04:03.598Z</time>
      </trkpt>
      <trkpt lat="46.98237" lon="8.71361">
        <ele>584</ele>
        <time>2021-08-05T11:04:04.598Z</time>
      </trkpt>
      <trkpt lat="46.98236" lon="8.71362">
        <ele>584</ele>
        <time>2021-08-05T11:04:05.599Z</time>
      </trkpt>
      <trkpt lat="46.98235" lon="8.71364">
        <ele>584</ele>
        <time>2021-08-05T11:04:06.598Z</time>
      </trkpt>
      <trkpt lat="46.98234" lon="8.71367">
        <ele>584</ele>
        <time>2021-08-05T11:04:07.599Z</time>
      </trkpt>
      <trkpt lat="46.98234" lon="8.71369">
        <ele>583</ele>
        <time>2021-08-05T11:04:08.599Z</time>
      </trkpt>
      <trkpt lat="46.98234" lon="8.71371">
        <ele>584</ele>
        <time>2021-08-05T11:04:09.599Z</time>
      </trkpt>
      <trkpt lat="46.98234" lon="8.71374">
        <ele>584</ele>
        <time>2021-08-05T11:04:10.599Z</time>
      </trkpt>
      <trkpt lat="46.98232" lon="8.71376">
        <ele>584</ele>
        <time>2021-08-05T11:04:11.599Z</time>
      </trkpt>
      <trkpt lat="46.98231" lon="8.71378">
        <ele>584</ele>
        <time>2021-08-05T11:04:12.598Z</time>
      </trkpt>
      <trkpt lat="46.9823" lon="8.7138">
        <ele>584</ele>
        <time>2021-08-05T11:04:13.598Z</time>
      </trkpt>
      <trkpt lat="46.98229" lon="8.71382">
        <ele>584</ele>
        <time>2021-08-05T11:04:14.598Z</time>
      </trkpt>
      <trkpt lat="46.98228" lon="8.71384">
        <ele>584</ele>
        <time>2021-08-05T11:04:15.599Z</time>
      </trkpt>
      <trkpt lat="46.98228" lon="8.71386">
        <ele>585</ele>
        <time>2021-08-05T11:04:16.599Z</time>
      </trkpt>
      <trkpt lat="46.98228" lon="8.71388">
        <ele>585</ele>
        <time>2021-08-05T11:04:17.599Z</time>
      </trkpt>
      <trkpt lat="46.98227" lon="8.7139">
        <ele>585</ele>
        <time>2021-08-05T11:04:18.599Z</time>
      </trkpt>
      <trkpt lat="46.98226" lon="8.71392">
        <ele>586</ele>
        <time>2021-08-05T11:04:19.599Z</time>
      </trkpt>
      <trkpt lat="46.98224" lon="8.71393">
        <ele>586</ele>
        <time>2021-08-05T11:04:26.729Z</time>
      </trkpt>
      <trkpt lat="46.98223" lon="8.71394">
        <ele>586</ele>
        <time>2021-08-05T11:04:27.729Z</time>
      </trkpt>
      <trkpt lat="46.98222" lon="8.71396">
        <ele>585</ele>
        <time>2021-08-05T11:04:28.729Z</time>
      </trkpt>
      <trkpt lat="46.98221" lon="8.71399">
        <ele>585</ele>
        <time>2021-08-05T11:04:29.729Z</time>
      </trkpt>
      <trkpt lat="46.9822" lon="8.71401">
        <ele>585</ele>
        <time>2021-08-05T11:04:30.729Z</time>
      </trkpt>
      <trkpt lat="46.98219" lon="8.71403">
        <ele>585</ele>
        <time>2021-08-05T11:04:31.729Z</time>
      </trkpt>
      <trkpt lat="46.98218" lon="8.71404">
        <ele>585</ele>
        <time>2021-08-05T11:04:32.729Z</time>
      </trkpt>
      <trkpt lat="46.98217" lon="8.71406">
        <ele>585</ele>
        <time>2021-08-05T11:04:33.729Z</time>
      </trkpt>
      <trkpt lat="46.98216" lon="8.71407">
        <ele>585</ele>
        <time>2021-08-05T11:04:34.729Z</time>
      </trkpt>
      <trkpt lat="46.98216" lon="8.71408">
        <ele>585</ele>
        <time>2021-08-05T11:04:35.729Z</time>
      </trkpt>
      <trkpt lat="46.98215" lon="8.7141">
        <ele>585</ele>
        <time>2021-08-05T11:04:36.729Z</time>
      </trkpt>
      <trkpt lat="46.98214" lon="8.71411">
        <ele>585</ele>
        <time>2021-08-05T11:04:37.728Z</time>
      </trkpt>
      <trkpt lat="46.98213" lon="8.71413">
        <ele>585</ele>
        <time>2021-08-05T11:04:38.728Z</time>
      </trkpt>
      <trkpt lat="46.98212" lon="8.71414">
        <ele>585</ele>
        <time>2021-08-05T11:04:39.729Z</time>
      </trkpt>
      <trkpt lat="46.98212" lon="8.71416">
        <ele>586</ele>
        <time>2021-08-05T11:04:40.728Z</time>
      </trkpt>
      <trkpt lat="46.98211" lon="8.71418">
        <ele>586</ele>
        <time>2021-08-05T11:04:41.728Z</time>
      </trkpt>
      <trkpt lat="46.98211" lon="8.71421">
        <ele>586</ele>
        <time>2021-08-05T11:04:42.728Z</time>
      </trkpt>
      <trkpt lat="46.9821" lon="8.71422">
        <ele>586</ele>
        <time>2021-08-05T11:04:43.729Z</time>
      </trkpt>
      <trkpt lat="46.9821" lon="8.71424">
        <ele>587</ele>
        <time>2021-08-05T11:04:44.728Z</time>
      </trkpt>
      <trkpt lat="46.98209" lon="8.71426">
        <ele>587</ele>
        <time>2021-08-05T11:04:45.728Z</time>
      </trkpt>
      <trkpt lat="46.98208" lon="8.71427">
        <ele>587</ele>
        <time>2021-08-05T11:04:46.728Z</time>
      </trkpt>
      <trkpt lat="46.98208" lon="8.71429">
        <ele>587</ele>
        <time>2021-08-05T11:04:47.729Z</time>
      </trkpt>
      <trkpt lat="46.98207" lon="8.7143">
        <ele>587</ele>
        <time>2021-08-05T11:04:48.729Z</time>
      </trkpt>
      <trkpt lat="46.98206" lon="8.71432">
        <ele>587</ele>
        <time>2021-08-05T11:04:49.728Z</time>
      </trkpt>
      <trkpt lat="46.98206" lon="8.71433">
        <ele>587</ele>
        <time>2021-08-05T11:04:50.728Z</time>
      </trkpt>
      <trkpt lat="46.98205" lon="8.71434">
        <ele>587</ele>
        <time>2021-08-05T11:04:51.728Z</time>
      </trkpt>
      <trkpt lat="46.98204" lon="8.71435">
        <ele>587</ele>
        <time>2021-08-05T11:04:52.729Z</time>
      </trkpt>
      <trkpt lat="46.98203" lon="8.71436">
        <ele>586</ele>
        <time>2021-08-05T11:04:54.788Z</time>
      </trkpt>
      <trkpt lat="46.98203" lon="8.71437">
        <ele>586</ele>
        <time>2021-08-05T11:04:55.788Z</time>
      </trkpt>
      <trkpt lat="46.98202" lon="8.71439">
        <ele>586</ele>
        <time>2021-08-05T11:04:56.789Z</time>
      </trkpt>
      <trkpt lat="46.98201" lon="8.7144">
        <ele>586</ele>
        <time>2021-08-05T11:04:57.789Z</time>
      </trkpt>
      <trkpt lat="46.982" lon="8.71442">
        <ele>586</ele>
        <time>2021-08-05T11:04:58.789Z</time>
      </trkpt>
      <trkpt lat="46.982" lon="8.71443">
        <ele>586</ele>
        <time>2021-08-05T11:04:59.789Z</time>
      </trkpt>
      <trkpt lat="46.98199" lon="8.71445">
        <ele>587</ele>
        <time>2021-08-05T11:05:02.914Z</time>
      </trkpt>
      <trkpt lat="46.98198" lon="8.71446">
        <ele>587</ele>
        <time>2021-08-05T11:05:03.914Z</time>
      </trkpt>
      <trkpt lat="46.98197" lon="8.71448">
        <ele>587</ele>
        <time>2021-08-05T11:05:04.914Z</time>
      </trkpt>
      <trkpt lat="46.98197" lon="8.71449">
        <ele>587</ele>
        <time>2021-08-05T11:05:05.914Z</time>
      </trkpt>
      <trkpt lat="46.98196" lon="8.71451">
        <ele>587</ele>
        <time>2021-08-05T11:05:12.920Z</time>
      </trkpt>
      <trkpt lat="46.98195" lon="8.71453">
        <ele>587</ele>
        <time>2021-08-05T11:05:13.920Z</time>
      </trkpt>
      <trkpt lat="46.98194" lon="8.71455">
        <ele>587</ele>
        <time>2021-08-05T11:05:14.919Z</time>
      </trkpt>
      <trkpt lat="46.98194" lon="8.71456">
        <ele>587</ele>
        <time>2021-08-05T11:05:15.919Z</time>
      </trkpt>
      <trkpt lat="46.98193" lon="8.71458">
        <ele>587</ele>
        <time>2021-08-05T11:05:16.920Z</time>
      </trkpt>
      <trkpt lat="46.98192" lon="8.7146">
        <ele>587</ele>
        <time>2021-08-05T11:05:17.920Z</time>
      </trkpt>
      <trkpt lat="46.98191" lon="8.71461">
        <ele>588</ele>
        <time>2021-08-05T11:05:18.920Z</time>
      </trkpt>
      <trkpt lat="46.9819" lon="8.71463">
        <ele>588</ele>
        <time>2021-08-05T11:05:19.920Z</time>
      </trkpt>
      <trkpt lat="46.9819" lon="8.71464">
        <ele>588</ele>
        <time>2021-08-05T11:05:23.916Z</time>
      </trkpt>
      <trkpt lat="46.98189" lon="8.71466">
        <ele>589</ele>
        <time>2021-08-05T11:05:24.916Z</time>
      </trkpt>
      <trkpt lat="46.98188" lon="8.71469">
        <ele>589</ele>
        <time>2021-08-05T11:05:25.916Z</time>
      </trkpt>
      <trkpt lat="46.98187" lon="8.7147">
        <ele>589</ele>
        <time>2021-08-05T11:05:26.916Z</time>
      </trkpt>
      <trkpt lat="46.98186" lon="8.71472">
        <ele>590</ele>
        <time>2021-08-05T11:05:27.916Z</time>
      </trkpt>
      <trkpt lat="46.98186" lon="8.71473">
        <ele>590</ele>
        <time>2021-08-05T11:05:41.092Z</time>
      </trkpt>
      <trkpt lat="46.98185" lon="8.71475">
        <ele>591</ele>
        <time>2021-08-05T11:05:42.092Z</time>
      </trkpt>
      <trkpt lat="46.98184" lon="8.71476">
        <ele>591</ele>
        <time>2021-08-05T11:05:43.091Z</time>
      </trkpt>
      <trkpt lat="46.98183" lon="8.71478">
        <ele>591</ele>
        <time>2021-08-05T11:06:00.166Z</time>
      </trkpt>
      <trkpt lat="46.98182" lon="8.7148">
        <ele>591</ele>
        <time>2021-08-05T11:06:01.165Z</time>
      </trkpt>
      <trkpt lat="46.98181" lon="8.71481">
        <ele>591</ele>
        <time>2021-08-05T11:06:02.166Z</time>
      </trkpt>
      <trkpt lat="46.98181" lon="8.71483">
        <ele>591</ele>
        <time>2021-08-05T11:06:03.165Z</time>
      </trkpt>
      <trkpt lat="46.9818" lon="8.71484">
        <ele>591</ele>
        <time>2021-08-05T11:06:04.166Z</time>
      </trkpt>
      <trkpt lat="46.98179" lon="8.71485">
        <ele>591</ele>
        <time>2021-08-05T11:06:05.166Z</time>
      </trkpt>
      <trkpt lat="46.98178" lon="8.71487">
        <ele>591</ele>
        <time>2021-08-05T11:06:06.166Z</time>
      </trkpt>
      <trkpt lat="46.98178" lon="8.71489">
        <ele>591</ele>
        <time>2021-08-05T11:06:07.166Z</time>
      </trkpt>
      <trkpt lat="46.98177" lon="8.7149">
        <ele>591</ele>
        <time>2021-08-05T11:06:08.165Z</time>
      </trkpt>
      <trkpt lat="46.98176" lon="8.71491">
        <ele>591</ele>
        <time>2021-08-05T11:06:09.166Z</time>
      </trkpt>
      <trkpt lat="46.98175" lon="8.71493">
        <ele>591</ele>
        <time>2021-08-05T11:06:10.166Z</time>
      </trkpt>
      <trkpt lat="46.98174" lon="8.71494">
        <ele>592</ele>
        <time>2021-08-05T11:06:11.166Z</time>
      </trkpt>
      <trkpt lat="46.98173" lon="8.71495">
        <ele>592</ele>
        <time>2021-08-05T11:06:12.166Z</time>
      </trkpt>
      <trkpt lat="46.98172" lon="8.71497">
        <ele>592</ele>
        <time>2021-08-05T11:06:13.166Z</time>
      </trkpt>
      <trkpt lat="46.98172" lon="8.71498">
        <ele>592</ele>
        <time>2021-08-05T11:06:41.347Z</time>
      </trkpt>
      <trkpt lat="46.98171" lon="8.715">
        <ele>592</ele>
        <time>2021-08-05T11:06:42.346Z</time>
      </trkpt>
      <trkpt lat="46.98171" lon="8.71502">
        <ele>592</ele>
        <time>2021-08-05T11:06:43.347Z</time>
      </trkpt>
      <trkpt lat="46.9817" lon="8.71503">
        <ele>592</ele>
        <time>2021-08-05T11:06:44.346Z</time>
      </trkpt>
      <trkpt lat="46.98169" lon="8.71505">
        <ele>592</ele>
        <time>2021-08-05T11:06:45.346Z</time>
      </trkpt>
      <trkpt lat="46.98169" lon="8.71506">
        <ele>592</ele>
        <time>2021-08-05T11:06:46.347Z</time>
      </trkpt>
      <trkpt lat="46.98169" lon="8.71507">
        <ele>592</ele>
        <time>2021-08-05T11:06:47.346Z</time>
      </trkpt>
      <trkpt lat="46.98168" lon="8.71509">
        <ele>592</ele>
        <time>2021-08-05T11:06:51.448Z</time>
      </trkpt>
      <trkpt lat="46.98168" lon="8.71511">
        <ele>592</ele>
        <time>2021-08-05T11:06:52.449Z</time>
      </trkpt>
      <trkpt lat="46.98168" lon="8.71512">
        <ele>592</ele>
        <time>2021-08-05T11:06:53.448Z</time>
      </trkpt>
      <trkpt lat="46.98168" lon="8.71514">
        <ele>592</ele>
        <time>2021-08-05T11:06:59.314Z</time>
      </trkpt>
      <trkpt lat="46.98168" lon="8.71515">
        <ele>592</ele>
        <time>2021-08-05T11:07:01.160Z</time>
      </trkpt>
      <trkpt lat="46.98167" lon="8.71517">
        <ele>592</ele>
        <time>2021-08-05T11:07:02.161Z</time>
      </trkpt>
      <trkpt lat="46.98167" lon="8.71518">
        <ele>592</ele>
        <time>2021-08-05T11:07:03.161Z</time>
      </trkpt>
      <trkpt lat="46.98166" lon="8.71519">
        <ele>592</ele>
        <time>2021-08-05T11:07:04.160Z</time>
      </trkpt>
      <trkpt lat="46.98165" lon="8.71521">
        <ele>592</ele>
        <time>2021-08-05T11:07:05.161Z</time>
      </trkpt>
      <trkpt lat="46.98165" lon="8.71523">
        <ele>592</ele>
        <time>2021-08-05T11:07:07.162Z</time>
      </trkpt>
      <trkpt lat="46.98164" lon="8.71524">
        <ele>592</ele>
        <time>2021-08-05T11:07:08.161Z</time>
      </trkpt>
      <trkpt lat="46.98163" lon="8.71526">
        <ele>591</ele>
        <time>2021-08-05T11:07:09.161Z</time>
      </trkpt>
      <trkpt lat="46.98162" lon="8.71527">
        <ele>591</ele>
        <time>2021-08-05T11:07:10.161Z</time>
      </trkpt>
      <trkpt lat="46.98161" lon="8.71529">
        <ele>591</ele>
        <time>2021-08-05T11:07:11.161Z</time>
      </trkpt>
      <trkpt lat="46.9816" lon="8.71532">
        <ele>590</ele>
        <time>2021-08-05T11:07:12.161Z</time>
      </trkpt>
      <trkpt lat="46.98159" lon="8.71534">
        <ele>590</ele>
        <time>2021-08-05T11:07:13.162Z</time>
      </trkpt>
      <trkpt lat="46.98158" lon="8.71536">
        <ele>590</ele>
        <time>2021-08-05T11:07:14.162Z</time>
      </trkpt>
      <trkpt lat="46.98157" lon="8.71539">
        <ele>589</ele>
        <time>2021-08-05T11:07:15.162Z</time>
      </trkpt>
      <trkpt lat="46.98157" lon="8.71542">
        <ele>589</ele>
        <time>2021-08-05T11:07:16.162Z</time>
      </trkpt>
      <trkpt lat="46.98156" lon="8.71544">
        <ele>589</ele>
        <time>2021-08-05T11:07:17.162Z</time>
      </trkpt>
      <trkpt lat="46.98155" lon="8.71546">
        <ele>588</ele>
        <time>2021-08-05T11:07:18.162Z</time>
      </trkpt>
      <trkpt lat="46.98154" lon="8.71547">
        <ele>588</ele>
        <time>2021-08-05T11:07:20.200Z</time>
      </trkpt>
      <trkpt lat="46.98153" lon="8.7155">
        <ele>587</ele>
        <time>2021-08-05T11:07:22.022Z</time>
      </trkpt>
      <trkpt lat="46.98152" lon="8.71552">
        <ele>587</ele>
        <time>2021-08-05T11:07:25.797Z</time>
      </trkpt>
      <trkpt lat="46.98151" lon="8.71554">
        <ele>586</ele>
        <time>2021-08-05T11:07:26.798Z</time>
      </trkpt>
      <trkpt lat="46.98151" lon="8.71556">
        <ele>585</ele>
        <time>2021-08-05T11:07:27.798Z</time>
      </trkpt>
      <trkpt lat="46.98151" lon="8.71557">
        <ele>585</ele>
        <time>2021-08-05T11:07:28.797Z</time>
      </trkpt>
      <trkpt lat="46.9815" lon="8.71558">
        <ele>585</ele>
        <time>2021-08-05T11:07:29.797Z</time>
      </trkpt>
      <trkpt lat="46.98149" lon="8.71559">
        <ele>584</ele>
        <time>2021-08-05T11:07:30.798Z</time>
      </trkpt>
      <trkpt lat="46.98148" lon="8.71561">
        <ele>584</ele>
        <time>2021-08-05T11:07:31.798Z</time>
      </trkpt>
      <trkpt lat="46.98146" lon="8.71564">
        <ele>584</ele>
        <time>2021-08-05T11:08:25.784Z</time>
      </trkpt>
      <trkpt lat="46.98146" lon="8.71567">
        <ele>584</ele>
        <time>2021-08-05T11:08:31.706Z</time>
      </trkpt>
      <trkpt lat="46.98146" lon="8.71568">
        <ele>584</ele>
        <time>2021-08-05T11:08:32.706Z</time>
      </trkpt>
      <trkpt lat="46.98145" lon="8.71569">
        <ele>584</ele>
        <time>2021-08-05T11:08:33.706Z</time>
      </trkpt>
      <trkpt lat="46.98145" lon="8.7157">
        <ele>584</ele>
        <time>2021-08-05T11:08:34.706Z</time>
      </trkpt>
      <trkpt lat="46.98145" lon="8.71572">
        <ele>584</ele>
        <time>2021-08-05T11:08:35.706Z</time>
      </trkpt>
      <trkpt lat="46.98144" lon="8.71574">
        <ele>584</ele>
        <time>2021-08-05T11:08:36.705Z</time>
      </trkpt>
      <trkpt lat="46.98144" lon="8.71575">
        <ele>585</ele>
        <time>2021-08-05T11:08:37.705Z</time>
      </trkpt>
      <trkpt lat="46.98143" lon="8.71577">
        <ele>585</ele>
        <time>2021-08-05T11:08:38.706Z</time>
      </trkpt>
      <trkpt lat="46.98142" lon="8.71578">
        <ele>585</ele>
        <time>2021-08-05T11:08:39.706Z</time>
      </trkpt>
      <trkpt lat="46.98142" lon="8.7158">
        <ele>585</ele>
        <time>2021-08-05T11:08:40.705Z</time>
      </trkpt>
      <trkpt lat="46.98141" lon="8.71582">
        <ele>585</ele>
        <time>2021-08-05T11:08:41.706Z</time>
      </trkpt>
      <trkpt lat="46.9814" lon="8.71584">
        <ele>585</ele>
        <time>2021-08-05T11:08:42.705Z</time>
      </trkpt>
      <trkpt lat="46.98139" lon="8.71586">
        <ele>586</ele>
        <time>2021-08-05T11:08:43.706Z</time>
      </trkpt>
      <trkpt lat="46.98139" lon="8.71587">
        <ele>586</ele>
        <time>2021-08-05T11:08:44.706Z</time>
      </trkpt>
      <trkpt lat="46.98137" lon="8.7159">
        <ele>586</ele>
        <time>2021-08-05T11:08:45.706Z</time>
      </trkpt>
      <trkpt lat="46.98136" lon="8.71592">
        <ele>586</ele>
        <time>2021-08-05T11:08:46.706Z</time>
      </trkpt>
      <trkpt lat="46.98135" lon="8.71593">
        <ele>586</ele>
        <time>2021-08-05T11:08:47.706Z</time>
      </trkpt>
      <trkpt lat="46.98135" lon="8.71595">
        <ele>586</ele>
        <time>2021-08-05T11:08:50.789Z</time>
      </trkpt>
      <trkpt lat="46.98135" lon="8.71599">
        <ele>586</ele>
        <time>2021-08-05T11:08:51.789Z</time>
      </trkpt>
      <trkpt lat="46.98134" lon="8.71602">
        <ele>586</ele>
        <time>2021-08-05T11:08:52.790Z</time>
      </trkpt>
      <trkpt lat="46.98134" lon="8.71603">
        <ele>587</ele>
        <time>2021-08-05T11:08:53.790Z</time>
      </trkpt>
      <trkpt lat="46.98135" lon="8.71604">
        <ele>587</ele>
        <time>2021-08-05T11:08:54.790Z</time>
      </trkpt>
      <trkpt lat="46.98135" lon="8.71605">
        <ele>587</ele>
        <time>2021-08-05T11:09:23.911Z</time>
      </trkpt>
      <trkpt lat="46.98136" lon="8.71608">
        <ele>587</ele>
        <time>2021-08-05T11:09:24.910Z</time>
      </trkpt>
      <trkpt lat="46.98136" lon="8.71609">
        <ele>587</ele>
        <time>2021-08-05T11:09:25.910Z</time>
      </trkpt>
      <trkpt lat="46.98135" lon="8.71611">
        <ele>587</ele>
        <time>2021-08-05T11:09:26.911Z</time>
      </trkpt>
      <trkpt lat="46.98135" lon="8.71613">
        <ele>587</ele>
        <time>2021-08-05T11:09:27.910Z</time>
      </trkpt>
      <trkpt lat="46.98135" lon="8.71615">
        <ele>587</ele>
        <time>2021-08-05T11:09:28.911Z</time>
      </trkpt>
      <trkpt lat="46.98135" lon="8.71616">
        <ele>586</ele>
        <time>2021-08-05T11:09:36.091Z</time>
      </trkpt>
      <trkpt lat="46.98135" lon="8.71618">
        <ele>586</ele>
        <time>2021-08-05T11:09:37.091Z</time>
      </trkpt>
      <trkpt lat="46.98135" lon="8.7162">
        <ele>586</ele>
        <time>2021-08-05T11:09:38.091Z</time>
      </trkpt>
      <trkpt lat="46.98136" lon="8.71622">
        <ele>586</ele>
        <time>2021-08-05T11:09:39.091Z</time>
      </trkpt>
      <trkpt lat="46.98136" lon="8.71624">
        <ele>586</ele>
        <time>2021-08-05T11:09:40.090Z</time>
      </trkpt>
      <trkpt lat="46.98136" lon="8.71626">
        <ele>585</ele>
        <time>2021-08-05T11:09:41.091Z</time>
      </trkpt>
      <trkpt lat="46.98136" lon="8.71627">
        <ele>585</ele>
        <time>2021-08-05T11:09:42.091Z</time>
      </trkpt>
      <trkpt lat="46.98136" lon="8.71629">
        <ele>585</ele>
        <time>2021-08-05T11:09:43.091Z</time>
      </trkpt>
      <trkpt lat="46.98136" lon="8.71631">
        <ele>584</ele>
        <time>2021-08-05T11:09:44.091Z</time>
      </trkpt>
      <trkpt lat="46.98136" lon="8.71632">
        <ele>584</ele>
        <time>2021-08-05T11:09:45.090Z</time>
      </trkpt>
      <trkpt lat="46.98135" lon="8.71633">
        <ele>584</ele>
        <time>2021-08-05T11:09:46.091Z</time>
      </trkpt>
      <trkpt lat="46.98134" lon="8.71633">
        <ele>584</ele>
        <time>2021-08-05T11:09:47.091Z</time>
      </trkpt>
      <trkpt lat="46.98133" lon="8.71633">
        <ele>584</ele>
        <time>2021-08-05T11:09:48.091Z</time>
      </trkpt>
      <trkpt lat="46.98132" lon="8.71635">
        <ele>584</ele>
        <time>2021-08-05T11:09:49.091Z</time>
      </trkpt>
      <trkpt lat="46.98132" lon="8.71636">
        <ele>583</ele>
        <time>2021-08-05T11:09:50.091Z</time>
      </trkpt>
      <trkpt lat="46.98131" lon="8.71637">
        <ele>583</ele>
        <time>2021-08-05T11:09:51.090Z</time>
      </trkpt>
      <trkpt lat="46.98131" lon="8.71638">
        <ele>583</ele>
        <time>2021-08-05T11:09:52.091Z</time>
      </trkpt>
      <trkpt lat="46.9813" lon="8.71638">
        <ele>583</ele>
        <time>2021-08-05T11:09:53.091Z</time>
      </trkpt>
      <trkpt lat="46.98128" lon="8.71638">
        <ele>583</ele>
        <time>2021-08-05T11:09:54.091Z</time>
      </trkpt>
      <trkpt lat="46.98127" lon="8.71638">
        <ele>582</ele>
        <time>2021-08-05T11:09:55.090Z</time>
      </trkpt>
      <trkpt lat="46.98126" lon="8.71638">
        <ele>582</ele>
        <time>2021-08-05T11:09:56.091Z</time>
      </trkpt>
      <trkpt lat="46.98126" lon="8.7164">
        <ele>582</ele>
        <time>2021-08-05T11:09:57.090Z</time>
      </trkpt>
      <trkpt lat="46.98126" lon="8.71641">
        <ele>583</ele>
        <time>2021-08-05T11:09:58.091Z</time>
      </trkpt>
      <trkpt lat="46.98125" lon="8.71643">
        <ele>583</ele>
        <time>2021-08-05T11:09:59.090Z</time>
      </trkpt>
      <trkpt lat="46.98125" lon="8.71645">
        <ele>583</ele>
        <time>2021-08-05T11:10:00.090Z</time>
      </trkpt>
      <trkpt lat="46.98125" lon="8.71647">
        <ele>583</ele>
        <time>2021-08-05T11:10:01.091Z</time>
      </trkpt>
      <trkpt lat="46.98125" lon="8.71649">
        <ele>583</ele>
        <time>2021-08-05T11:10:02.090Z</time>
      </trkpt>
      <trkpt lat="46.98125" lon="8.71652">
        <ele>584</ele>
        <time>2021-08-05T11:10:03.090Z</time>
      </trkpt>
      <trkpt lat="46.98125" lon="8.71654">
        <ele>584</ele>
        <time>2021-08-05T11:10:04.091Z</time>
      </trkpt>
      <trkpt lat="46.98125" lon="8.71656">
        <ele>584</ele>
        <time>2021-08-05T11:10:05.091Z</time>
      </trkpt>
      <trkpt lat="46.98124" lon="8.71658">
        <ele>584</ele>
        <time>2021-08-05T11:10:06.090Z</time>
      </trkpt>
      <trkpt lat="46.98125" lon="8.7166">
        <ele>584</ele>
        <time>2021-08-05T11:10:07.090Z</time>
      </trkpt>
      <trkpt lat="46.98126" lon="8.71661">
        <ele>584</ele>
        <time>2021-08-05T11:10:08.090Z</time>
      </trkpt>
      <trkpt lat="46.98127" lon="8.71661">
        <ele>584</ele>
        <time>2021-08-05T11:10:09.090Z</time>
      </trkpt>
      <trkpt lat="46.98127" lon="8.71662">
        <ele>584</ele>
        <time>2021-08-05T11:10:10.090Z</time>
      </trkpt>
      <trkpt lat="46.98128" lon="8.71664">
        <ele>584</ele>
        <time>2021-08-05T11:10:11.090Z</time>
      </trkpt>
      <trkpt lat="46.98128" lon="8.71666">
        <ele>584</ele>
        <time>2021-08-05T11:10:12.091Z</time>
      </trkpt>
      <trkpt lat="46.98128" lon="8.71668">
        <ele>584</ele>
        <time>2021-08-05T11:10:13.091Z</time>
      </trkpt>
      <trkpt lat="46.98128" lon="8.7167">
        <ele>585</ele>
        <time>2021-08-05T11:10:14.090Z</time>
      </trkpt>
      <trkpt lat="46.98127" lon="8.71672">
        <ele>585</ele>
        <time>2021-08-05T11:10:15.090Z</time>
      </trkpt>
      <trkpt lat="46.98128" lon="8.71674">
        <ele>585</ele>
        <time>2021-08-05T11:10:16.091Z</time>
      </trkpt>
      <trkpt lat="46.98128" lon="8.71675">
        <ele>585</ele>
        <time>2021-08-05T11:10:17.090Z</time>
      </trkpt>
      <trkpt lat="46.98127" lon="8.71677">
        <ele>585</ele>
        <time>2021-08-05T11:10:18.090Z</time>
      </trkpt>
      <trkpt lat="46.98127" lon="8.71679">
        <ele>584</ele>
        <time>2021-08-05T11:10:19.090Z</time>
      </trkpt>
      <trkpt lat="46.98126" lon="8.71682">
        <ele>584</ele>
        <time>2021-08-05T11:10:20.090Z</time>
      </trkpt>
      <trkpt lat="46.98124" lon="8.71685">
        <ele>584</ele>
        <time>2021-08-05T11:10:21.090Z</time>
      </trkpt>
      <trkpt lat="46.98124" lon="8.71687">
        <ele>584</ele>
        <time>2021-08-05T11:10:22.090Z</time>
      </trkpt>
      <trkpt lat="46.98124" lon="8.71689">
        <ele>584</ele>
        <time>2021-08-05T11:10:23.090Z</time>
      </trkpt>
      <trkpt lat="46.98124" lon="8.7169">
        <ele>584</ele>
        <time>2021-08-05T11:10:24.090Z</time>
      </trkpt>
      <trkpt lat="46.98124" lon="8.71692">
        <ele>584</ele>
        <time>2021-08-05T11:10:25.090Z</time>
      </trkpt>
      <trkpt lat="46.98124" lon="8.71695">
        <ele>584</ele>
        <time>2021-08-05T11:10:26.090Z</time>
      </trkpt>
      <trkpt lat="46.98124" lon="8.71696">
        <ele>584</ele>
        <time>2021-08-05T11:10:27.090Z</time>
      </trkpt>
      <trkpt lat="46.98125" lon="8.71699">
        <ele>584</ele>
        <time>2021-08-05T11:10:28.090Z</time>
      </trkpt>
      <trkpt lat="46.98124" lon="8.71701">
        <ele>584</ele>
        <time>2021-08-05T11:10:29.090Z</time>
      </trkpt>
      <trkpt lat="46.98124" lon="8.71704">
        <ele>584</ele>
        <time>2021-08-05T11:10:30.091Z</time>
      </trkpt>
      <trkpt lat="46.98123" lon="8.71706">
        <ele>584</ele>
        <time>2021-08-05T11:10:31.090Z</time>
      </trkpt>
      <trkpt lat="46.98123" lon="8.71708">
        <ele>584</ele>
        <time>2021-08-05T11:10:32.091Z</time>
      </trkpt>
      <trkpt lat="46.98124" lon="8.7171">
        <ele>584</ele>
        <time>2021-08-05T11:10:33.091Z</time>
      </trkpt>
      <trkpt lat="46.98124" lon="8.71712">
        <ele>584</ele>
        <time>2021-08-05T11:10:34.091Z</time>
      </trkpt>
      <trkpt lat="46.98124" lon="8.71714">
        <ele>584</ele>
        <time>2021-08-05T11:10:35.091Z</time>
      </trkpt>
      <trkpt lat="46.98124" lon="8.71715">
        <ele>584</ele>
        <time>2021-08-05T11:10:36.090Z</time>
      </trkpt>
      <trkpt lat="46.98124" lon="8.71716">
        <ele>584</ele>
        <time>2021-08-05T11:10:37.091Z</time>
      </trkpt>
      <trkpt lat="46.98125" lon="8.71717">
        <ele>583</ele>
        <time>2021-08-05T11:10:38.090Z</time>
      </trkpt>
      <trkpt lat="46.98125" lon="8.71718">
        <ele>583</ele>
        <time>2021-08-05T11:10:39.091Z</time>
      </trkpt>
      <trkpt lat="46.98125" lon="8.71719">
        <ele>583</ele>
        <time>2021-08-05T11:10:40.091Z</time>
      </trkpt>
      <trkpt lat="46.98125" lon="8.7172">
        <ele>583</ele>
        <time>2021-08-05T11:10:41.090Z</time>
      </trkpt>
      <trkpt lat="46.98125" lon="8.7172">
        <ele>583</ele>
        <time>2021-08-05T11:10:42.090Z</time>
      </trkpt>
      <trkpt lat="46.98125" lon="8.71722">
        <ele>582</ele>
        <time>2021-08-05T11:10:43.091Z</time>
      </trkpt>
      <trkpt lat="46.98125" lon="8.71723">
        <ele>582</ele>
        <time>2021-08-05T11:10:44.090Z</time>
      </trkpt>
      <trkpt lat="46.98126" lon="8.71725">
        <ele>582</ele>
        <time>2021-08-05T11:10:45.091Z</time>
      </trkpt>
      <trkpt lat="46.98126" lon="8.71726">
        <ele>582</ele>
        <time>2021-08-05T11:10:46.090Z</time>
      </trkpt>
      <trkpt lat="46.98127" lon="8.71728">
        <ele>581</ele>
        <time>2021-08-05T11:10:47.090Z</time>
      </trkpt>
      <trkpt lat="46.98128" lon="8.7173">
        <ele>581</ele>
        <time>2021-08-05T11:10:48.090Z</time>
      </trkpt>
      <trkpt lat="46.98129" lon="8.71731">
        <ele>581</ele>
        <time>2021-08-05T11:10:49.091Z</time>
      </trkpt>
      <trkpt lat="46.9813" lon="8.71732">
        <ele>581</ele>
        <time>2021-08-05T11:10:50.090Z</time>
      </trkpt>
      <trkpt lat="46.98131" lon="8.71733">
        <ele>581</ele>
        <time>2021-08-05T11:10:51.091Z</time>
      </trkpt>
      <trkpt lat="46.98133" lon="8.71733">
        <ele>581</ele>
        <time>2021-08-05T11:10:52.091Z</time>
      </trkpt>
      <trkpt lat="46.98134" lon="8.71734">
        <ele>581</ele>
        <time>2021-08-05T11:10:53.091Z</time>
      </trkpt>
      <trkpt lat="46.98135" lon="8.71735">
        <ele>582</ele>
        <time>2021-08-05T11:10:54.091Z</time>
      </trkpt>
      <trkpt lat="46.98136" lon="8.71736">
        <ele>582</ele>
        <time>2021-08-05T11:10:55.090Z</time>
      </trkpt>
      <trkpt lat="46.98138" lon="8.71737">
        <ele>582</ele>
        <time>2021-08-05T11:10:56.091Z</time>
      </trkpt>
      <trkpt lat="46.98139" lon="8.71737">
        <ele>583</ele>
        <time>2021-08-05T11:10:57.090Z</time>
      </trkpt>
      <trkpt lat="46.98141" lon="8.71737">
        <ele>583</ele>
        <time>2021-08-05T11:10:58.090Z</time>
      </trkpt>
      <trkpt lat="46.98142" lon="8.71738">
        <ele>584</ele>
        <time>2021-08-05T11:10:59.091Z</time>
      </trkpt>
      <trkpt lat="46.98143" lon="8.7174">
        <ele>584</ele>
        <time>2021-08-05T11:11:00.090Z</time>
      </trkpt>
      <trkpt lat="46.98143" lon="8.71741">
        <ele>584</ele>
        <time>2021-08-05T11:11:01.091Z</time>
      </trkpt>
      <trkpt lat="46.98144" lon="8.71742">
        <ele>585</ele>
        <time>2021-08-05T11:11:02.091Z</time>
      </trkpt>
      <trkpt lat="46.98145" lon="8.71743">
        <ele>585</ele>
        <time>2021-08-05T11:11:03.091Z</time>
      </trkpt>
      <trkpt lat="46.98146" lon="8.71743">
        <ele>585</ele>
        <time>2021-08-05T11:11:04.091Z</time>
      </trkpt>
      <trkpt lat="46.98147" lon="8.71744">
        <ele>585</ele>
        <time>2021-08-05T11:11:05.090Z</time>
      </trkpt>
      <trkpt lat="46.98148" lon="8.71745">
        <ele>586</ele>
        <time>2021-08-05T11:11:06.091Z</time>
      </trkpt>
      <trkpt lat="46.98149" lon="8.71746">
        <ele>586</ele>
        <time>2021-08-05T11:11:07.090Z</time>
      </trkpt>
      <trkpt lat="46.98151" lon="8.71747">
        <ele>586</ele>
        <time>2021-08-05T11:11:08.090Z</time>
      </trkpt>
      <trkpt lat="46.98152" lon="8.71748">
        <ele>586</ele>
        <time>2021-08-05T11:11:09.090Z</time>
      </trkpt>
      <trkpt lat="46.98153" lon="8.71749">
        <ele>587</ele>
        <time>2021-08-05T11:11:10.090Z</time>
      </trkpt>
      <trkpt lat="46.98153" lon="8.71751">
        <ele>587</ele>
        <time>2021-08-05T11:11:11.091Z</time>
      </trkpt>
      <trkpt lat="46.98155" lon="8.71752">
        <ele>587</ele>
        <time>2021-08-05T11:11:12.091Z</time>
      </trkpt>
      <trkpt lat="46.98154" lon="8.71755">
        <ele>587</ele>
        <time>2021-08-05T11:11:13.091Z</time>
      </trkpt>
      <trkpt lat="46.98154" lon="8.71757">
        <ele>587</ele>
        <time>2021-08-05T11:11:14.091Z</time>
      </trkpt>
      <trkpt lat="46.98155" lon="8.71758">
        <ele>587</ele>
        <time>2021-08-05T11:11:15.090Z</time>
      </trkpt>
      <trkpt lat="46.98155" lon="8.71759">
        <ele>588</ele>
        <time>2021-08-05T11:11:16.090Z</time>
      </trkpt>
      <trkpt lat="46.98156" lon="8.7176">
        <ele>588</ele>
        <time>2021-08-05T11:11:17.090Z</time>
      </trkpt>
      <trkpt lat="46.98158" lon="8.7176">
        <ele>588</ele>
        <time>2021-08-05T11:11:18.091Z</time>
      </trkpt>
      <trkpt lat="46.98159" lon="8.71761">
        <ele>588</ele>
        <time>2021-08-05T11:11:19.091Z</time>
      </trkpt>
      <trkpt lat="46.9816" lon="8.71762">
        <ele>588</ele>
        <time>2021-08-05T11:11:20.091Z</time>
      </trkpt>
      <trkpt lat="46.98161" lon="8.71764">
        <ele>587</ele>
        <time>2021-08-05T11:11:21.090Z</time>
      </trkpt>
      <trkpt lat="46.98161" lon="8.71766">
        <ele>587</ele>
        <time>2021-08-05T11:11:22.091Z</time>
      </trkpt>
      <trkpt lat="46.98162" lon="8.71767">
        <ele>587</ele>
        <time>2021-08-05T11:11:23.090Z</time>
      </trkpt>
      <trkpt lat="46.98162" lon="8.71769">
        <ele>587</ele>
        <time>2021-08-05T11:11:24.091Z</time>
      </trkpt>
      <trkpt lat="46.98163" lon="8.7177">
        <ele>586</ele>
        <time>2021-08-05T11:11:25.091Z</time>
      </trkpt>
      <trkpt lat="46.98164" lon="8.71772">
        <ele>586</ele>
        <time>2021-08-05T11:11:26.091Z</time>
      </trkpt>
      <trkpt lat="46.98164" lon="8.71774">
        <ele>586</ele>
        <time>2021-08-05T11:11:27.091Z</time>
      </trkpt>
      <trkpt lat="46.98164" lon="8.71777">
        <ele>586</ele>
        <time>2021-08-05T11:11:28.090Z</time>
      </trkpt>
      <trkpt lat="46.98165" lon="8.71779">
        <ele>585</ele>
        <time>2021-08-05T11:11:29.090Z</time>
      </trkpt>
      <trkpt lat="46.98166" lon="8.71781">
        <ele>585</ele>
        <time>2021-08-05T11:11:30.090Z</time>
      </trkpt>
      <trkpt lat="46.98166" lon="8.71783">
        <ele>585</ele>
        <time>2021-08-05T11:11:31.091Z</time>
      </trkpt>
      <trkpt lat="46.98166" lon="8.71785">
        <ele>585</ele>
        <time>2021-08-05T11:11:32.091Z</time>
      </trkpt>
      <trkpt lat="46.98168" lon="8.71787">
        <ele>585</ele>
        <time>2021-08-05T11:11:33.090Z</time>
      </trkpt>
      <trkpt lat="46.98169" lon="8.71786">
        <ele>585</ele>
        <time>2021-08-05T11:11:34.090Z</time>
      </trkpt>
      <trkpt lat="46.98171" lon="8.71789">
        <ele>584</ele>
        <time>2021-08-05T11:11:35.090Z</time>
      </trkpt>
      <trkpt lat="46.9817" lon="8.71792">
        <ele>584</ele>
        <time>2021-08-05T11:11:36.090Z</time>
      </trkpt>
      <trkpt lat="46.9817" lon="8.71795">
        <ele>584</ele>
        <time>2021-08-05T11:11:37.090Z</time>
      </trkpt>
      <trkpt lat="46.98168" lon="8.71797">
        <ele>584</ele>
        <time>2021-08-05T11:11:38.090Z</time>
      </trkpt>
      <trkpt lat="46.98168" lon="8.718">
        <ele>584</ele>
        <time>2021-08-05T11:11:39.090Z</time>
      </trkpt>
      <trkpt lat="46.98168" lon="8.71802">
        <ele>584</ele>
        <time>2021-08-05T11:11:40.091Z</time>
      </trkpt>
      <trkpt lat="46.98169" lon="8.71804">
        <ele>584</ele>
        <time>2021-08-05T11:11:41.090Z</time>
      </trkpt>
      <trkpt lat="46.98169" lon="8.71806">
        <ele>584</ele>
        <time>2021-08-05T11:11:42.090Z</time>
      </trkpt>
      <trkpt lat="46.98169" lon="8.71807">
        <ele>583</ele>
        <time>2021-08-05T11:11:43.090Z</time>
      </trkpt>
      <trkpt lat="46.98169" lon="8.71808">
        <ele>583</ele>
        <time>2021-08-05T11:11:44.090Z</time>
      </trkpt>
      <trkpt lat="46.98169" lon="8.7181">
        <ele>583</ele>
        <time>2021-08-05T11:11:45.090Z</time>
      </trkpt>
      <trkpt lat="46.98169" lon="8.71812">
        <ele>583</ele>
        <time>2021-08-05T11:11:46.090Z</time>
      </trkpt>
      <trkpt lat="46.98169" lon="8.71813">
        <ele>583</ele>
        <time>2021-08-05T11:11:47.090Z</time>
      </trkpt>
      <trkpt lat="46.98169" lon="8.71815">
        <ele>583</ele>
        <time>2021-08-05T11:11:48.090Z</time>
      </trkpt>
      <trkpt lat="46.98169" lon="8.71817">
        <ele>583</ele>
        <time>2021-08-05T11:11:49.090Z</time>
      </trkpt>
      <trkpt lat="46.98169" lon="8.7182">
        <ele>582</ele>
        <time>2021-08-05T11:11:50.090Z</time>
      </trkpt>
      <trkpt lat="46.98168" lon="8.71823">
        <ele>582</ele>
        <time>2021-08-05T11:11:51.090Z</time>
      </trkpt>
      <trkpt lat="46.98168" lon="8.71826">
        <ele>581</ele>
        <time>2021-08-05T11:11:52.090Z</time>
      </trkpt>
      <trkpt lat="46.98168" lon="8.71829">
        <ele>581</ele>
        <time>2021-08-05T11:11:53.090Z</time>
      </trkpt>
      <trkpt lat="46.98167" lon="8.71832">
        <ele>581</ele>
        <time>2021-08-05T11:11:54.090Z</time>
      </trkpt>
      <trkpt lat="46.98167" lon="8.71833">
        <ele>580</ele>
        <time>2021-08-05T11:11:55.090Z</time>
      </trkpt>
      <trkpt lat="46.98167" lon="8.71836">
        <ele>580</ele>
        <time>2021-08-05T11:11:56.090Z</time>
      </trkpt>
      <trkpt lat="46.98167" lon="8.71837">
        <ele>580</ele>
        <time>2021-08-05T11:11:57.090Z</time>
      </trkpt>
      <trkpt lat="46.98166" lon="8.71839">
        <ele>580</ele>
        <time>2021-08-05T11:11:58.090Z</time>
      </trkpt>
      <trkpt lat="46.98166" lon="8.71841">
        <ele>580</ele>
        <time>2021-08-05T11:11:59.090Z</time>
      </trkpt>
      <trkpt lat="46.98166" lon="8.71842">
        <ele>580</ele>
        <time>2021-08-05T11:12:00.091Z</time>
      </trkpt>
      <trkpt lat="46.98166" lon="8.71844">
        <ele>580</ele>
        <time>2021-08-05T11:12:01.090Z</time>
      </trkpt>
      <trkpt lat="46.98166" lon="8.71846">
        <ele>580</ele>
        <time>2021-08-05T11:12:02.091Z</time>
      </trkpt>
      <trkpt lat="46.98166" lon="8.71847">
        <ele>580</ele>
        <time>2021-08-05T11:12:03.091Z</time>
      </trkpt>
      <trkpt lat="46.98167" lon="8.71849">
        <ele>580</ele>
        <time>2021-08-05T11:12:04.091Z</time>
      </trkpt>
      <trkpt lat="46.98167" lon="8.71851">
        <ele>579</ele>
        <time>2021-08-05T11:12:05.090Z</time>
      </trkpt>
      <trkpt lat="46.98167" lon="8.71853">
        <ele>579</ele>
        <time>2021-08-05T11:12:06.091Z</time>
      </trkpt>
      <trkpt lat="46.98166" lon="8.71855">
        <ele>580</ele>
        <time>2021-08-05T11:12:07.091Z</time>
      </trkpt>
      <trkpt lat="46.98166" lon="8.71856">
        <ele>580</ele>
        <time>2021-08-05T11:12:08.091Z</time>
      </trkpt>
      <trkpt lat="46.98166" lon="8.71859">
        <ele>580</ele>
        <time>2021-08-05T11:12:09.091Z</time>
      </trkpt>
      <trkpt lat="46.98166" lon="8.71861">
        <ele>580</ele>
        <time>2021-08-05T11:12:10.091Z</time>
      </trkpt>
      <trkpt lat="46.98166" lon="8.71863">
        <ele>580</ele>
        <time>2021-08-05T11:12:11.091Z</time>
      </trkpt>
      <trkpt lat="46.98165" lon="8.71865">
        <ele>580</ele>
        <time>2021-08-05T11:12:12.091Z</time>
      </trkpt>
      <trkpt lat="46.98165" lon="8.71867">
        <ele>580</ele>
        <time>2021-08-05T11:12:13.091Z</time>
      </trkpt>
      <trkpt lat="46.98165" lon="8.71869">
        <ele>580</ele>
        <time>2021-08-05T11:12:14.091Z</time>
      </trkpt>
      <trkpt lat="46.98165" lon="8.71871">
        <ele>581</ele>
        <time>2021-08-05T11:12:15.091Z</time>
      </trkpt>
      <trkpt lat="46.98165" lon="8.71872">
        <ele>582</ele>
        <time>2021-08-05T11:12:16.090Z</time>
      </trkpt>
      <trkpt lat="46.98165" lon="8.71874">
        <ele>582</ele>
        <time>2021-08-05T11:12:17.090Z</time>
      </trkpt>
      <trkpt lat="46.98165" lon="8.71876">
        <ele>583</ele>
        <time>2021-08-05T11:12:18.091Z</time>
      </trkpt>
      <trkpt lat="46.98165" lon="8.71877">
        <ele>583</ele>
        <time>2021-08-05T11:12:19.090Z</time>
      </trkpt>
      <trkpt lat="46.98164" lon="8.71879">
        <ele>583</ele>
        <time>2021-08-05T11:12:20.090Z</time>
      </trkpt>
      <trkpt lat="46.98164" lon="8.7188">
        <ele>583</ele>
        <time>2021-08-05T11:12:21.091Z</time>
      </trkpt>
      <trkpt lat="46.98164" lon="8.71882">
        <ele>583</ele>
        <time>2021-08-05T11:12:22.091Z</time>
      </trkpt>
      <trkpt lat="46.98163" lon="8.71885">
        <ele>584</ele>
        <time>2021-08-05T11:12:23.090Z</time>
      </trkpt>
      <trkpt lat="46.98163" lon="8.71887">
        <ele>584</ele>
        <time>2021-08-05T11:12:24.091Z</time>
      </trkpt>
      <trkpt lat="46.98163" lon="8.71889">
        <ele>584</ele>
        <time>2021-08-05T11:12:25.091Z</time>
      </trkpt>
      <trkpt lat="46.98162" lon="8.71891">
        <ele>584</ele>
        <time>2021-08-05T11:12:26.091Z</time>
      </trkpt>
      <trkpt lat="46.98162" lon="8.71894">
        <ele>584</ele>
        <time>2021-08-05T11:12:27.090Z</time>
      </trkpt>
      <trkpt lat="46.98162" lon="8.71896">
        <ele>584</ele>
        <time>2021-08-05T11:12:28.090Z</time>
      </trkpt>
      <trkpt lat="46.98162" lon="8.71898">
        <ele>584</ele>
        <time>2021-08-05T11:12:29.091Z</time>
      </trkpt>
      <trkpt lat="46.98162" lon="8.719">
        <ele>584</ele>
        <time>2021-08-05T11:12:30.091Z</time>
      </trkpt>
      <trkpt lat="46.98162" lon="8.71902">
        <ele>584</ele>
        <time>2021-08-05T11:12:31.091Z</time>
      </trkpt>
      <trkpt lat="46.98161" lon="8.71904">
        <ele>585</ele>
        <time>2021-08-05T11:12:32.090Z</time>
      </trkpt>
      <trkpt lat="46.98161" lon="8.71906">
        <ele>585</ele>
        <time>2021-08-05T11:12:33.090Z</time>
      </trkpt>
      <trkpt lat="46.98161" lon="8.71908">
        <ele>585</ele>
        <time>2021-08-05T11:12:34.090Z</time>
      </trkpt>
      <trkpt lat="46.98161" lon="8.7191">
        <ele>586</ele>
        <time>2021-08-05T11:12:35.091Z</time>
      </trkpt>
      <trkpt lat="46.98161" lon="8.71912">
        <ele>586</ele>
        <time>2021-08-05T11:12:36.090Z</time>
      </trkpt>
      <trkpt lat="46.98161" lon="8.71913">
        <ele>586</ele>
        <time>2021-08-05T11:12:37.090Z</time>
      </trkpt>
      <trkpt lat="46.98161" lon="8.71916">
        <ele>587</ele>
        <time>2021-08-05T11:12:38.091Z</time>
      </trkpt>
      <trkpt lat="46.98161" lon="8.71917">
        <ele>587</ele>
        <time>2021-08-05T11:12:39.091Z</time>
      </trkpt>
      <trkpt lat="46.98161" lon="8.7192">
        <ele>587</ele>
        <time>2021-08-05T11:12:40.090Z</time>
      </trkpt>
      <trkpt lat="46.98161" lon="8.71922">
        <ele>588</ele>
        <time>2021-08-05T11:12:41.091Z</time>
      </trkpt>
      <trkpt lat="46.98161" lon="8.71924">
        <ele>588</ele>
        <time>2021-08-05T11:12:42.091Z</time>
      </trkpt>
      <trkpt lat="46.9816" lon="8.71927">
        <ele>589</ele>
        <time>2021-08-05T11:12:43.091Z</time>
      </trkpt>
      <trkpt lat="46.9816" lon="8.71928">
        <ele>589</ele>
        <time>2021-08-05T11:12:44.090Z</time>
      </trkpt>
      <trkpt lat="46.98161" lon="8.7193">
        <ele>589</ele>
        <time>2021-08-05T11:12:45.091Z</time>
      </trkpt>
      <trkpt lat="46.9816" lon="8.71932">
        <ele>589</ele>
        <time>2021-08-05T11:12:46.091Z</time>
      </trkpt>
      <trkpt lat="46.9816" lon="8.71934">
        <ele>589</ele>
        <time>2021-08-05T11:12:47.090Z</time>
      </trkpt>
      <trkpt lat="46.9816" lon="8.71936">
        <ele>589</ele>
        <time>2021-08-05T11:12:48.091Z</time>
      </trkpt>
      <trkpt lat="46.9816" lon="8.71939">
        <ele>589</ele>
        <time>2021-08-05T11:12:49.091Z</time>
      </trkpt>
      <trkpt lat="46.98161" lon="8.71942">
        <ele>589</ele>
        <time>2021-08-05T11:12:50.091Z</time>
      </trkpt>
      <trkpt lat="46.98161" lon="8.71944">
        <ele>589</ele>
        <time>2021-08-05T11:12:51.091Z</time>
      </trkpt>
      <trkpt lat="46.9816" lon="8.71946">
        <ele>590</ele>
        <time>2021-08-05T11:12:52.090Z</time>
      </trkpt>
      <trkpt lat="46.9816" lon="8.71947">
        <ele>590</ele>
        <time>2021-08-05T11:12:53.090Z</time>
      </trkpt>
      <trkpt lat="46.9816" lon="8.71949">
        <ele>591</ele>
        <time>2021-08-05T11:12:54.091Z</time>
      </trkpt>
      <trkpt lat="46.9816" lon="8.71951">
        <ele>591</ele>
        <time>2021-08-05T11:12:55.090Z</time>
      </trkpt>
      <trkpt lat="46.9816" lon="8.71952">
        <ele>591</ele>
        <time>2021-08-05T11:12:56.091Z</time>
      </trkpt>
      <trkpt lat="46.9816" lon="8.71953">
        <ele>591</ele>
        <time>2021-08-05T11:12:57.091Z</time>
      </trkpt>
      <trkpt lat="46.9816" lon="8.71955">
        <ele>592</ele>
        <time>2021-08-05T11:12:58.091Z</time>
      </trkpt>
      <trkpt lat="46.98161" lon="8.71957">
        <ele>592</ele>
        <time>2021-08-05T11:12:59.091Z</time>
      </trkpt>
      <trkpt lat="46.98161" lon="8.71959">
        <ele>593</ele>
        <time>2021-08-05T11:13:00.090Z</time>
      </trkpt>
      <trkpt lat="46.9816" lon="8.71961">
        <ele>593</ele>
        <time>2021-08-05T11:13:01.090Z</time>
      </trkpt>
      <trkpt lat="46.9816" lon="8.71963">
        <ele>593</ele>
        <time>2021-08-05T11:13:02.091Z</time>
      </trkpt>
      <trkpt lat="46.9816" lon="8.71965">
        <ele>593</ele>
        <time>2021-08-05T11:13:03.090Z</time>
      </trkpt>
      <trkpt lat="46.9816" lon="8.71967">
        <ele>593</ele>
        <time>2021-08-05T11:13:04.090Z</time>
      </trkpt>
      <trkpt lat="46.98161" lon="8.71968">
        <ele>593</ele>
        <time>2021-08-05T11:13:05.091Z</time>
      </trkpt>
      <trkpt lat="46.9816" lon="8.7197">
        <ele>593</ele>
        <time>2021-08-05T11:13:06.090Z</time>
      </trkpt>
      <trkpt lat="46.9816" lon="8.71972">
        <ele>593</ele>
        <time>2021-08-05T11:13:07.091Z</time>
      </trkpt>
      <trkpt lat="46.9816" lon="8.71975">
        <ele>593</ele>
        <time>2021-08-05T11:13:08.091Z</time>
      </trkpt>
      <trkpt lat="46.9816" lon="8.71977">
        <ele>593</ele>
        <time>2021-08-05T11:13:09.091Z</time>
      </trkpt>
      <trkpt lat="46.9816" lon="8.7198">
        <ele>593</ele>
        <time>2021-08-05T11:13:10.091Z</time>
      </trkpt>
      <trkpt lat="46.9816" lon="8.71982">
        <ele>594</ele>
        <time>2021-08-05T11:13:11.090Z</time>
      </trkpt>
      <trkpt lat="46.9816" lon="8.71986">
        <ele>594</ele>
        <time>2021-08-05T11:13:12.090Z</time>
      </trkpt>
      <trkpt lat="46.9816" lon="8.71989">
        <ele>594</ele>
        <time>2021-08-05T11:13:13.090Z</time>
      </trkpt>
      <trkpt lat="46.9816" lon="8.71993">
        <ele>594</ele>
        <time>2021-08-05T11:13:14.091Z</time>
      </trkpt>
      <trkpt lat="46.9816" lon="8.71996">
        <ele>594</ele>
        <time>2021-08-05T11:13:15.090Z</time>
      </trkpt>
      <trkpt lat="46.9816" lon="8.71998">
        <ele>594</ele>
        <time>2021-08-05T11:13:16.090Z</time>
      </trkpt>
      <trkpt lat="46.9816" lon="8.72">
        <ele>594</ele>
        <time>2021-08-05T11:13:17.091Z</time>
      </trkpt>
      <trkpt lat="46.9816" lon="8.72002">
        <ele>593</ele>
        <time>2021-08-05T11:13:18.091Z</time>
      </trkpt>
      <trkpt lat="46.9816" lon="8.72004">
        <ele>593</ele>
        <time>2021-08-05T11:13:19.091Z</time>
      </trkpt>
      <trkpt lat="46.9816" lon="8.72005">
        <ele>593</ele>
        <time>2021-08-05T11:13:20.091Z</time>
      </trkpt>
      <trkpt lat="46.9816" lon="8.72008">
        <ele>593</ele>
        <time>2021-08-05T11:13:21.090Z</time>
      </trkpt>
      <trkpt lat="46.9816" lon="8.72009">
        <ele>592</ele>
        <time>2021-08-05T11:13:22.091Z</time>
      </trkpt>
      <trkpt lat="46.9816" lon="8.72011">
        <ele>592</ele>
        <time>2021-08-05T11:13:23.090Z</time>
      </trkpt>
      <trkpt lat="46.9816" lon="8.72012">
        <ele>592</ele>
        <time>2021-08-05T11:13:24.091Z</time>
      </trkpt>
      <trkpt lat="46.9816" lon="8.72013">
        <ele>592</ele>
        <time>2021-08-05T11:13:25.091Z</time>
      </trkpt>
      <trkpt lat="46.9816" lon="8.72014">
        <ele>592</ele>
        <time>2021-08-05T11:13:26.091Z</time>
      </trkpt>
      <trkpt lat="46.9816" lon="8.72015">
        <ele>592</ele>
        <time>2021-08-05T11:13:27.091Z</time>
      </trkpt>
      <trkpt lat="46.9816" lon="8.72017">
        <ele>592</ele>
        <time>2021-08-05T11:13:28.090Z</time>
      </trkpt>
      <trkpt lat="46.9816" lon="8.72019">
        <ele>592</ele>
        <time>2021-08-05T11:13:29.091Z</time>
      </trkpt>
      <trkpt lat="46.9816" lon="8.72021">
        <ele>592</ele>
        <time>2021-08-05T11:13:30.091Z</time>
      </trkpt>
      <trkpt lat="46.9816" lon="8.72023">
        <ele>592</ele>
        <time>2021-08-05T11:13:31.090Z</time>
      </trkpt>
      <trkpt lat="46.9816" lon="8.72025">
        <ele>592</ele>
        <time>2021-08-05T11:13:32.091Z</time>
      </trkpt>
      <trkpt lat="46.9816" lon="8.72026">
        <ele>592</ele>
        <time>2021-08-05T11:13:33.090Z</time>
      </trkpt>
      <trkpt lat="46.9816" lon="8.72028">
        <ele>592</ele>
        <time>2021-08-05T11:13:34.091Z</time>
      </trkpt>
      <trkpt lat="46.98159" lon="8.7203">
        <ele>593</ele>
        <time>2021-08-05T11:13:35.091Z</time>
      </trkpt>
      <trkpt lat="46.98159" lon="8.72033">
        <ele>593</ele>
        <time>2021-08-05T11:13:36.091Z</time>
      </trkpt>
      <trkpt lat="46.98159" lon="8.72034">
        <ele>593</ele>
        <time>2021-08-05T11:13:37.091Z</time>
      </trkpt>
      <trkpt lat="46.98158" lon="8.72036">
        <ele>594</ele>
        <time>2021-08-05T11:13:38.091Z</time>
      </trkpt>
      <trkpt lat="46.98158" lon="8.72038">
        <ele>594</ele>
        <time>2021-08-05T11:13:39.091Z</time>
      </trkpt>
      <trkpt lat="46.98158" lon="8.7204">
        <ele>594</ele>
        <time>2021-08-05T11:13:40.090Z</time>
      </trkpt>
      <trkpt lat="46.98158" lon="8.72042">
        <ele>595</ele>
        <time>2021-08-05T11:13:41.091Z</time>
      </trkpt>
      <trkpt lat="46.98158" lon="8.72044">
        <ele>595</ele>
        <time>2021-08-05T11:13:42.091Z</time>
      </trkpt>
      <trkpt lat="46.98158" lon="8.72046">
        <ele>595</ele>
        <time>2021-08-05T11:13:43.090Z</time>
      </trkpt>
      <trkpt lat="46.98158" lon="8.72048">
        <ele>596</ele>
        <time>2021-08-05T11:13:44.091Z</time>
      </trkpt>
      <trkpt lat="46.98158" lon="8.7205">
        <ele>596</ele>
        <time>2021-08-05T11:13:45.091Z</time>
      </trkpt>
      <trkpt lat="46.98158" lon="8.72051">
        <ele>596</ele>
        <time>2021-08-05T11:13:46.090Z</time>
      </trkpt>
      <trkpt lat="46.98157" lon="8.72053">
        <ele>595</ele>
        <time>2021-08-05T11:13:47.091Z</time>
      </trkpt>
      <trkpt lat="46.98158" lon="8.72054">
        <ele>595</ele>
        <time>2021-08-05T11:13:48.091Z</time>
      </trkpt>
      <trkpt lat="46.98158" lon="8.72056">
        <ele>594</ele>
        <time>2021-08-05T11:13:49.090Z</time>
      </trkpt>
      <trkpt lat="46.98158" lon="8.72057">
        <ele>594</ele>
        <time>2021-08-05T11:13:50.091Z</time>
      </trkpt>
      <trkpt lat="46.98158" lon="8.72059">
        <ele>594</ele>
        <time>2021-08-05T11:13:51.090Z</time>
      </trkpt>
      <trkpt lat="46.98159" lon="8.7206">
        <ele>593</ele>
        <time>2021-08-05T11:13:52.091Z</time>
      </trkpt>
      <trkpt lat="46.98159" lon="8.72061">
        <ele>593</ele>
        <time>2021-08-05T11:13:53.091Z</time>
      </trkpt>
      <trkpt lat="46.98159" lon="8.72063">
        <ele>593</ele>
        <time>2021-08-05T11:13:54.091Z</time>
      </trkpt>
      <trkpt lat="46.98159" lon="8.72065">
        <ele>592</ele>
        <time>2021-08-05T11:13:55.090Z</time>
      </trkpt>
      <trkpt lat="46.98159" lon="8.72066">
        <ele>591</ele>
        <time>2021-08-05T11:13:56.091Z</time>
      </trkpt>
      <trkpt lat="46.98159" lon="8.72068">
        <ele>591</ele>
        <time>2021-08-05T11:13:57.090Z</time>
      </trkpt>
      <trkpt lat="46.98159" lon="8.72069">
        <ele>590</ele>
        <time>2021-08-05T11:13:58.091Z</time>
      </trkpt>
      <trkpt lat="46.98159" lon="8.72071">
        <ele>590</ele>
        <time>2021-08-05T11:13:59.090Z</time>
      </trkpt>
      <trkpt lat="46.9816" lon="8.72072">
        <ele>590</ele>
        <time>2021-08-05T11:14:00.091Z</time>
      </trkpt>
      <trkpt lat="46.9816" lon="8.72074">
        <ele>590</ele>
        <time>2021-08-05T11:14:01.091Z</time>
      </trkpt>
      <trkpt lat="46.9816" lon="8.72076">
        <ele>590</ele>
        <time>2021-08-05T11:14:02.091Z</time>
      </trkpt>
      <trkpt lat="46.9816" lon="8.72077">
        <ele>589</ele>
        <time>2021-08-05T11:14:03.091Z</time>
      </trkpt>
      <trkpt lat="46.98161" lon="8.72079">
        <ele>588</ele>
        <time>2021-08-05T11:14:04.091Z</time>
      </trkpt>
      <trkpt lat="46.98161" lon="8.7208">
        <ele>587</ele>
        <time>2021-08-05T11:14:05.091Z</time>
      </trkpt>
      <trkpt lat="46.98161" lon="8.72083">
        <ele>588</ele>
        <time>2021-08-05T11:14:06.091Z</time>
      </trkpt>
      <trkpt lat="46.98162" lon="8.72084">
        <ele>588</ele>
        <time>2021-08-05T11:14:07.090Z</time>
      </trkpt>
      <trkpt lat="46.98162" lon="8.72086">
        <ele>588</ele>
        <time>2021-08-05T11:14:08.091Z</time>
      </trkpt>
      <trkpt lat="46.98163" lon="8.72087">
        <ele>588</ele>
        <time>2021-08-05T11:14:09.090Z</time>
      </trkpt>
      <trkpt lat="46.98163" lon="8.72089">
        <ele>588</ele>
        <time>2021-08-05T11:14:10.090Z</time>
      </trkpt>
      <trkpt lat="46.98163" lon="8.7209">
        <ele>589</ele>
        <time>2021-08-05T11:14:11.091Z</time>
      </trkpt>
      <trkpt lat="46.98164" lon="8.72091">
        <ele>589</ele>
        <time>2021-08-05T11:14:12.090Z</time>
      </trkpt>
      <trkpt lat="46.98164" lon="8.72093">
        <ele>589</ele>
        <time>2021-08-05T11:14:13.091Z</time>
      </trkpt>
      <trkpt lat="46.98165" lon="8.72095">
        <ele>589</ele>
        <time>2021-08-05T11:14:14.091Z</time>
      </trkpt>
      <trkpt lat="46.98165" lon="8.72097">
        <ele>588</ele>
        <time>2021-08-05T11:14:15.090Z</time>
      </trkpt>
      <trkpt lat="46.98165" lon="8.72099">
        <ele>588</ele>
        <time>2021-08-05T11:14:16.091Z</time>
      </trkpt>
      <trkpt lat="46.98166" lon="8.721">
        <ele>588</ele>
        <time>2021-08-05T11:14:17.091Z</time>
      </trkpt>
      <trkpt lat="46.98166" lon="8.72102">
        <ele>588</ele>
        <time>2021-08-05T11:14:18.091Z</time>
      </trkpt>
      <trkpt lat="46.98167" lon="8.72103">
        <ele>588</ele>
        <time>2021-08-05T11:14:19.090Z</time>
      </trkpt>
      <trkpt lat="46.98167" lon="8.72105">
        <ele>588</ele>
        <time>2021-08-05T11:14:20.091Z</time>
      </trkpt>
      <trkpt lat="46.98168" lon="8.72107">
        <ele>588</ele>
        <time>2021-08-05T11:14:21.091Z</time>
      </trkpt>
      <trkpt lat="46.98168" lon="8.72109">
        <ele>588</ele>
        <time>2021-08-05T11:14:22.091Z</time>
      </trkpt>
      <trkpt lat="46.98168" lon="8.72111">
        <ele>588</ele>
        <time>2021-08-05T11:14:23.091Z</time>
      </trkpt>
      <trkpt lat="46.98168" lon="8.72112">
        <ele>588</ele>
        <time>2021-08-05T11:14:24.091Z</time>
      </trkpt>
      <trkpt lat="46.98169" lon="8.72114">
        <ele>588</ele>
        <time>2021-08-05T11:14:25.091Z</time>
      </trkpt>
      <trkpt lat="46.98169" lon="8.72116">
        <ele>588</ele>
        <time>2021-08-05T11:14:26.091Z</time>
      </trkpt>
      <trkpt lat="46.98169" lon="8.72118">
        <ele>587</ele>
        <time>2021-08-05T11:14:36.177Z</time>
      </trkpt>
      <trkpt lat="46.98169" lon="8.7212">
        <ele>587</ele>
        <time>2021-08-05T11:14:37.177Z</time>
      </trkpt>
      <trkpt lat="46.9817" lon="8.72121">
        <ele>586</ele>
        <time>2021-08-05T11:14:38.177Z</time>
      </trkpt>
      <trkpt lat="46.9817" lon="8.72123">
        <ele>585</ele>
        <time>2021-08-05T11:14:39.177Z</time>
      </trkpt>
      <trkpt lat="46.98171" lon="8.72124">
        <ele>584</ele>
        <time>2021-08-05T11:14:40.177Z</time>
      </trkpt>
      <trkpt lat="46.98171" lon="8.72126">
        <ele>583</ele>
        <time>2021-08-05T11:14:41.176Z</time>
      </trkpt>
      <trkpt lat="46.98172" lon="8.72127">
        <ele>582</ele>
        <time>2021-08-05T11:14:42.177Z</time>
      </trkpt>
      <trkpt lat="46.98172" lon="8.72129">
        <ele>582</ele>
        <time>2021-08-05T11:14:43.177Z</time>
      </trkpt>
      <trkpt lat="46.98173" lon="8.72131">
        <ele>582</ele>
        <time>2021-08-05T11:14:44.177Z</time>
      </trkpt>
      <trkpt lat="46.98173" lon="8.72132">
        <ele>581</ele>
        <time>2021-08-05T11:14:45.177Z</time>
      </trkpt>
      <trkpt lat="46.98173" lon="8.72134">
        <ele>581</ele>
        <time>2021-08-05T11:14:46.176Z</time>
      </trkpt>
      <trkpt lat="46.98174" lon="8.72135">
        <ele>581</ele>
        <time>2021-08-05T11:14:47.176Z</time>
      </trkpt>
      <trkpt lat="46.98174" lon="8.72136">
        <ele>581</ele>
        <time>2021-08-05T11:14:48.177Z</time>
      </trkpt>
      <trkpt lat="46.98175" lon="8.72138">
        <ele>581</ele>
        <time>2021-08-05T11:14:49.177Z</time>
      </trkpt>
      <trkpt lat="46.98175" lon="8.72139">
        <ele>581</ele>
        <time>2021-08-05T11:14:50.177Z</time>
      </trkpt>
      <trkpt lat="46.98176" lon="8.72141">
        <ele>581</ele>
        <time>2021-08-05T11:14:51.177Z</time>
      </trkpt>
      <trkpt lat="46.98177" lon="8.72142">
        <ele>581</ele>
        <time>2021-08-05T11:14:52.177Z</time>
      </trkpt>
      <trkpt lat="46.98177" lon="8.72144">
        <ele>581</ele>
        <time>2021-08-05T11:14:53.177Z</time>
      </trkpt>
      <trkpt lat="46.98177" lon="8.72145">
        <ele>581</ele>
        <time>2021-08-05T11:14:54.177Z</time>
      </trkpt>
      <trkpt lat="46.98178" lon="8.72147">
        <ele>581</ele>
        <time>2021-08-05T11:14:55.177Z</time>
      </trkpt>
      <trkpt lat="46.98178" lon="8.72149">
        <ele>580</ele>
        <time>2021-08-05T11:14:56.177Z</time>
      </trkpt>
      <trkpt lat="46.98178" lon="8.7215">
        <ele>580</ele>
        <time>2021-08-05T11:14:57.176Z</time>
      </trkpt>
      <trkpt lat="46.98179" lon="8.72152">
        <ele>580</ele>
        <time>2021-08-05T11:14:58.177Z</time>
      </trkpt>
      <trkpt lat="46.98179" lon="8.72154">
        <ele>580</ele>
        <time>2021-08-05T11:14:59.177Z</time>
      </trkpt>
      <trkpt lat="46.98179" lon="8.72156">
        <ele>580</ele>
        <time>2021-08-05T11:15:00.177Z</time>
      </trkpt>
      <trkpt lat="46.9818" lon="8.72158">
        <ele>580</ele>
        <time>2021-08-05T11:15:01.177Z</time>
      </trkpt>
      <trkpt lat="46.9818" lon="8.7216">
        <ele>580</ele>
        <time>2021-08-05T11:15:02.177Z</time>
      </trkpt>
      <trkpt lat="46.9818" lon="8.72162">
        <ele>580</ele>
        <time>2021-08-05T11:15:03.177Z</time>
      </trkpt>
      <trkpt lat="46.9818" lon="8.72164">
        <ele>580</ele>
        <time>2021-08-05T11:15:04.177Z</time>
      </trkpt>
      <trkpt lat="46.98181" lon="8.72166">
        <ele>580</ele>
        <time>2021-08-05T11:15:05.177Z</time>
      </trkpt>
      <trkpt lat="46.98181" lon="8.72168">
        <ele>580</ele>
        <time>2021-08-05T11:15:06.177Z</time>
      </trkpt>
      <trkpt lat="46.98181" lon="8.7217">
        <ele>580</ele>
        <time>2021-08-05T11:15:07.177Z</time>
      </trkpt>
      <trkpt lat="46.98181" lon="8.72171">
        <ele>580</ele>
        <time>2021-08-05T11:15:08.177Z</time>
      </trkpt>
      <trkpt lat="46.98181" lon="8.72174">
        <ele>580</ele>
        <time>2021-08-05T11:15:09.177Z</time>
      </trkpt>
      <trkpt lat="46.98182" lon="8.72175">
        <ele>580</ele>
        <time>2021-08-05T11:15:10.177Z</time>
      </trkpt>
      <trkpt lat="46.98182" lon="8.72177">
        <ele>581</ele>
        <time>2021-08-05T11:15:11.177Z</time>
      </trkpt>
      <trkpt lat="46.98182" lon="8.72179">
        <ele>581</ele>
        <time>2021-08-05T11:15:12.177Z</time>
      </trkpt>
      <trkpt lat="46.98182" lon="8.72181">
        <ele>582</ele>
        <time>2021-08-05T11:15:13.177Z</time>
      </trkpt>
      <trkpt lat="46.98182" lon="8.72183">
        <ele>582</ele>
        <time>2021-08-05T11:15:14.176Z</time>
      </trkpt>
      <trkpt lat="46.98182" lon="8.72185">
        <ele>582</ele>
        <time>2021-08-05T11:15:15.177Z</time>
      </trkpt>
      <trkpt lat="46.98182" lon="8.72187">
        <ele>582</ele>
        <time>2021-08-05T11:15:16.176Z</time>
      </trkpt>
      <trkpt lat="46.98182" lon="8.72188">
        <ele>582</ele>
        <time>2021-08-05T11:15:17.176Z</time>
      </trkpt>
      <trkpt lat="46.98182" lon="8.7219">
        <ele>582</ele>
        <time>2021-08-05T11:15:18.177Z</time>
      </trkpt>
      <trkpt lat="46.98183" lon="8.72191">
        <ele>582</ele>
        <time>2021-08-05T11:15:19.177Z</time>
      </trkpt>
      <trkpt lat="46.98183" lon="8.72193">
        <ele>581</ele>
        <time>2021-08-05T11:15:20.177Z</time>
      </trkpt>
      <trkpt lat="46.98183" lon="8.72194">
        <ele>580</ele>
        <time>2021-08-05T11:15:21.177Z</time>
      </trkpt>
      <trkpt lat="46.98183" lon="8.72196">
        <ele>580</ele>
        <time>2021-08-05T11:15:22.176Z</time>
      </trkpt>
      <trkpt lat="46.98183" lon="8.72198">
        <ele>580</ele>
        <time>2021-08-05T11:15:23.176Z</time>
      </trkpt>
      <trkpt lat="46.98182" lon="8.72199">
        <ele>580</ele>
        <time>2021-08-05T11:15:24.176Z</time>
      </trkpt>
      <trkpt lat="46.98182" lon="8.72201">
        <ele>580</ele>
        <time>2021-08-05T11:15:25.176Z</time>
      </trkpt>
      <trkpt lat="46.98182" lon="8.72203">
        <ele>579</ele>
        <time>2021-08-05T11:15:26.177Z</time>
      </trkpt>
      <trkpt lat="46.98182" lon="8.72205">
        <ele>580</ele>
        <time>2021-08-05T11:15:27.177Z</time>
      </trkpt>
      <trkpt lat="46.98182" lon="8.72207">
        <ele>580</ele>
        <time>2021-08-05T11:15:28.176Z</time>
      </trkpt>
      <trkpt lat="46.98182" lon="8.72209">
        <ele>579</ele>
        <time>2021-08-05T11:15:29.176Z</time>
      </trkpt>
      <trkpt lat="46.98182" lon="8.72211">
        <ele>579</ele>
        <time>2021-08-05T11:15:30.176Z</time>
      </trkpt>
      <trkpt lat="46.98183" lon="8.72213">
        <ele>580</ele>
        <time>2021-08-05T11:15:31.176Z</time>
      </trkpt>
      <trkpt lat="46.98183" lon="8.72215">
        <ele>580</ele>
        <time>2021-08-05T11:15:32.177Z</time>
      </trkpt>
      <trkpt lat="46.98183" lon="8.72217">
        <ele>580</ele>
        <time>2021-08-05T11:15:33.177Z</time>
      </trkpt>
      <trkpt lat="46.98184" lon="8.72219">
        <ele>579</ele>
        <time>2021-08-05T11:15:34.176Z</time>
      </trkpt>
      <trkpt lat="46.98184" lon="8.7222">
        <ele>579</ele>
        <time>2021-08-05T11:15:35.177Z</time>
      </trkpt>
      <trkpt lat="46.98184" lon="8.72221">
        <ele>580</ele>
        <time>2021-08-05T11:15:36.177Z</time>
      </trkpt>
      <trkpt lat="46.98184" lon="8.72223">
        <ele>580</ele>
        <time>2021-08-05T11:15:37.176Z</time>
      </trkpt>
      <trkpt lat="46.98184" lon="8.72225">
        <ele>581</ele>
        <time>2021-08-05T11:15:38.177Z</time>
      </trkpt>
      <trkpt lat="46.98184" lon="8.72227">
        <ele>581</ele>
        <time>2021-08-05T11:15:39.176Z</time>
      </trkpt>
      <trkpt lat="46.98184" lon="8.72228">
        <ele>581</ele>
        <time>2021-08-05T11:15:40.176Z</time>
      </trkpt>
      <trkpt lat="46.98184" lon="8.7223">
        <ele>582</ele>
        <time>2021-08-05T11:15:41.177Z</time>
      </trkpt>
      <trkpt lat="46.98184" lon="8.72231">
        <ele>581</ele>
        <time>2021-08-05T11:15:42.177Z</time>
      </trkpt>
      <trkpt lat="46.98184" lon="8.72233">
        <ele>581</ele>
        <time>2021-08-05T11:15:43.177Z</time>
      </trkpt>
      <trkpt lat="46.98184" lon="8.72235">
        <ele>581</ele>
        <time>2021-08-05T11:15:44.176Z</time>
      </trkpt>
      <trkpt lat="46.98184" lon="8.72236">
        <ele>581</ele>
        <time>2021-08-05T11:15:45.177Z</time>
      </trkpt>
      <trkpt lat="46.98184" lon="8.72238">
        <ele>580</ele>
        <time>2021-08-05T11:15:46.177Z</time>
      </trkpt>
      <trkpt lat="46.98184" lon="8.7224">
        <ele>580</ele>
        <time>2021-08-05T11:15:47.176Z</time>
      </trkpt>
      <trkpt lat="46.98185" lon="8.72241">
        <ele>579</ele>
        <time>2021-08-05T11:15:48.177Z</time>
      </trkpt>
      <trkpt lat="46.98185" lon="8.72243">
        <ele>579</ele>
        <time>2021-08-05T11:15:49.177Z</time>
      </trkpt>
      <trkpt lat="46.98185" lon="8.72245">
        <ele>580</ele>
        <time>2021-08-05T11:15:50.177Z</time>
      </trkpt>
      <trkpt lat="46.98185" lon="8.72246">
        <ele>580</ele>
        <time>2021-08-05T11:15:51.177Z</time>
      </trkpt>
      <trkpt lat="46.98185" lon="8.72248">
        <ele>580</ele>
        <time>2021-08-05T11:15:52.177Z</time>
      </trkpt>
      <trkpt lat="46.98185" lon="8.7225">
        <ele>580</ele>
        <time>2021-08-05T11:15:53.176Z</time>
      </trkpt>
      <trkpt lat="46.98185" lon="8.72252">
        <ele>581</ele>
        <time>2021-08-05T11:15:54.177Z</time>
      </trkpt>
      <trkpt lat="46.98186" lon="8.72253">
        <ele>581</ele>
        <time>2021-08-05T11:15:55.177Z</time>
      </trkpt>
      <trkpt lat="46.98186" lon="8.72255">
        <ele>582</ele>
        <time>2021-08-05T11:15:56.177Z</time>
      </trkpt>
      <trkpt lat="46.98186" lon="8.72257">
        <ele>582</ele>
        <time>2021-08-05T11:15:57.176Z</time>
      </trkpt>
      <trkpt lat="46.98186" lon="8.72259">
        <ele>582</ele>
        <time>2021-08-05T11:15:58.176Z</time>
      </trkpt>
      <trkpt lat="46.98186" lon="8.72261">
        <ele>582</ele>
        <time>2021-08-05T11:15:59.177Z</time>
      </trkpt>
      <trkpt lat="46.98186" lon="8.72263">
        <ele>582</ele>
        <time>2021-08-05T11:16:00.176Z</time>
      </trkpt>
      <trkpt lat="46.98186" lon="8.72265">
        <ele>582</ele>
        <time>2021-08-05T11:16:01.177Z</time>
      </trkpt>
      <trkpt lat="46.98186" lon="8.72266">
        <ele>582</ele>
        <time>2021-08-05T11:16:02.176Z</time>
      </trkpt>
      <trkpt lat="46.98185" lon="8.72268">
        <ele>582</ele>
        <time>2021-08-05T11:16:03.176Z</time>
      </trkpt>
      <trkpt lat="46.98185" lon="8.7227">
        <ele>582</ele>
        <time>2021-08-05T11:16:04.177Z</time>
      </trkpt>
      <trkpt lat="46.98185" lon="8.72271">
        <ele>582</ele>
        <time>2021-08-05T11:16:05.176Z</time>
      </trkpt>
      <trkpt lat="46.98185" lon="8.72273">
        <ele>582</ele>
        <time>2021-08-05T11:16:06.177Z</time>
      </trkpt>
      <trkpt lat="46.98185" lon="8.72274">
        <ele>581</ele>
        <time>2021-08-05T11:16:07.177Z</time>
      </trkpt>
      <trkpt lat="46.98186" lon="8.72276">
        <ele>581</ele>
        <time>2021-08-05T11:16:08.177Z</time>
      </trkpt>
      <trkpt lat="46.98186" lon="8.72278">
        <ele>581</ele>
        <time>2021-08-05T11:16:09.177Z</time>
      </trkpt>
      <trkpt lat="46.98185" lon="8.72279">
        <ele>581</ele>
        <time>2021-08-05T11:16:10.177Z</time>
      </trkpt>
      <trkpt lat="46.98185" lon="8.72281">
        <ele>581</ele>
        <time>2021-08-05T11:16:11.176Z</time>
      </trkpt>
      <trkpt lat="46.98185" lon="8.72283">
        <ele>581</ele>
        <time>2021-08-05T11:16:12.177Z</time>
      </trkpt>
      <trkpt lat="46.98185" lon="8.72285">
        <ele>582</ele>
        <time>2021-08-05T11:16:13.177Z</time>
      </trkpt>
      <trkpt lat="46.98185" lon="8.72287">
        <ele>582</ele>
        <time>2021-08-05T11:16:14.177Z</time>
      </trkpt>
      <trkpt lat="46.98184" lon="8.72288">
        <ele>582</ele>
        <time>2021-08-05T11:16:15.177Z</time>
      </trkpt>
      <trkpt lat="46.98184" lon="8.7229">
        <ele>582</ele>
        <time>2021-08-05T11:16:16.177Z</time>
      </trkpt>
      <trkpt lat="46.98184" lon="8.72291">
        <ele>582</ele>
        <time>2021-08-05T11:16:17.176Z</time>
      </trkpt>
      <trkpt lat="46.98184" lon="8.72293">
        <ele>582</ele>
        <time>2021-08-05T11:16:18.177Z</time>
      </trkpt>
      <trkpt lat="46.98184" lon="8.72295">
        <ele>582</ele>
        <time>2021-08-05T11:16:19.176Z</time>
      </trkpt>
      <trkpt lat="46.98183" lon="8.72297">
        <ele>581</ele>
        <time>2021-08-05T11:16:20.177Z</time>
      </trkpt>
      <trkpt lat="46.98184" lon="8.72298">
        <ele>580</ele>
        <time>2021-08-05T11:16:21.177Z</time>
      </trkpt>
      <trkpt lat="46.98184" lon="8.723">
        <ele>579</ele>
        <time>2021-08-05T11:16:22.177Z</time>
      </trkpt>
      <trkpt lat="46.98184" lon="8.72302">
        <ele>579</ele>
        <time>2021-08-05T11:16:23.176Z</time>
      </trkpt>
      <trkpt lat="46.98184" lon="8.72304">
        <ele>579</ele>
        <time>2021-08-05T11:16:24.176Z</time>
      </trkpt>
      <trkpt lat="46.98184" lon="8.72307">
        <ele>579</ele>
        <time>2021-08-05T11:16:25.177Z</time>
      </trkpt>
      <trkpt lat="46.98184" lon="8.72309">
        <ele>578</ele>
        <time>2021-08-05T11:16:26.177Z</time>
      </trkpt>
      <trkpt lat="46.98184" lon="8.72311">
        <ele>578</ele>
        <time>2021-08-05T11:16:27.176Z</time>
      </trkpt>
      <trkpt lat="46.98184" lon="8.72313">
        <ele>578</ele>
        <time>2021-08-05T11:16:28.176Z</time>
      </trkpt>
      <trkpt lat="46.98184" lon="8.72314">
        <ele>578</ele>
        <time>2021-08-05T11:16:29.176Z</time>
      </trkpt>
      <trkpt lat="46.98184" lon="8.72316">
        <ele>578</ele>
        <time>2021-08-05T11:16:30.176Z</time>
      </trkpt>
      <trkpt lat="46.98184" lon="8.72318">
        <ele>578</ele>
        <time>2021-08-05T11:16:31.177Z</time>
      </trkpt>
      <trkpt lat="46.98184" lon="8.7232">
        <ele>579</ele>
        <time>2021-08-05T11:16:32.176Z</time>
      </trkpt>
      <trkpt lat="46.98185" lon="8.72322">
        <ele>579</ele>
        <time>2021-08-05T11:16:33.176Z</time>
      </trkpt>
      <trkpt lat="46.98185" lon="8.72324">
        <ele>579</ele>
        <time>2021-08-05T11:16:34.177Z</time>
      </trkpt>
      <trkpt lat="46.98185" lon="8.72326">
        <ele>579</ele>
        <time>2021-08-05T11:16:35.176Z</time>
      </trkpt>
      <trkpt lat="46.98185" lon="8.72328">
        <ele>580</ele>
        <time>2021-08-05T11:16:36.176Z</time>
      </trkpt>
      <trkpt lat="46.98185" lon="8.7233">
        <ele>580</ele>
        <time>2021-08-05T11:16:37.176Z</time>
      </trkpt>
      <trkpt lat="46.98186" lon="8.72332">
        <ele>580</ele>
        <time>2021-08-05T11:16:38.177Z</time>
      </trkpt>
      <trkpt lat="46.98186" lon="8.72335">
        <ele>581</ele>
        <time>2021-08-05T11:16:39.176Z</time>
      </trkpt>
      <trkpt lat="46.98186" lon="8.72337">
        <ele>581</ele>
        <time>2021-08-05T11:16:40.176Z</time>
      </trkpt>
      <trkpt lat="46.98186" lon="8.72339">
        <ele>581</ele>
        <time>2021-08-05T11:16:41.176Z</time>
      </trkpt>
      <trkpt lat="46.98186" lon="8.7234">
        <ele>580</ele>
        <time>2021-08-05T11:16:42.177Z</time>
      </trkpt>
      <trkpt lat="46.98186" lon="8.72342">
        <ele>580</ele>
        <time>2021-08-05T11:16:43.177Z</time>
      </trkpt>
      <trkpt lat="46.98186" lon="8.72344">
        <ele>580</ele>
        <time>2021-08-05T11:16:44.176Z</time>
      </trkpt>
      <trkpt lat="46.98186" lon="8.72346">
        <ele>580</ele>
        <time>2021-08-05T11:16:45.177Z</time>
      </trkpt>
      <trkpt lat="46.98186" lon="8.72348">
        <ele>580</ele>
        <time>2021-08-05T11:16:46.177Z</time>
      </trkpt>
      <trkpt lat="46.98186" lon="8.72349">
        <ele>580</ele>
        <time>2021-08-05T11:16:47.176Z</time>
      </trkpt>
      <trkpt lat="46.98185" lon="8.72351">
        <ele>580</ele>
        <time>2021-08-05T11:16:48.177Z</time>
      </trkpt>
      <trkpt lat="46.98185" lon="8.72354">
        <ele>579</ele>
        <time>2021-08-05T11:16:49.176Z</time>
      </trkpt>
      <trkpt lat="46.98185" lon="8.72356">
        <ele>579</ele>
        <time>2021-08-05T11:16:50.177Z</time>
      </trkpt>
      <trkpt lat="46.98185" lon="8.72358">
        <ele>579</ele>
        <time>2021-08-05T11:16:51.177Z</time>
      </trkpt>
      <trkpt lat="46.98185" lon="8.7236">
        <ele>580</ele>
        <time>2021-08-05T11:16:52.177Z</time>
      </trkpt>
      <trkpt lat="46.98185" lon="8.72363">
        <ele>580</ele>
        <time>2021-08-05T11:16:53.177Z</time>
      </trkpt>
      <trkpt lat="46.98185" lon="8.72365">
        <ele>580</ele>
        <time>2021-08-05T11:16:54.177Z</time>
      </trkpt>
      <trkpt lat="46.98185" lon="8.72367">
        <ele>580</ele>
        <time>2021-08-05T11:16:55.177Z</time>
      </trkpt>
      <trkpt lat="46.98185" lon="8.72368">
        <ele>580</ele>
        <time>2021-08-05T11:16:56.177Z</time>
      </trkpt>
      <trkpt lat="46.98184" lon="8.7237">
        <ele>580</ele>
        <time>2021-08-05T11:16:57.176Z</time>
      </trkpt>
      <trkpt lat="46.98184" lon="8.72372">
        <ele>580</ele>
        <time>2021-08-05T11:16:58.177Z</time>
      </trkpt>
      <trkpt lat="46.98184" lon="8.72374">
        <ele>580</ele>
        <time>2021-08-05T11:16:59.176Z</time>
      </trkpt>
      <trkpt lat="46.98184" lon="8.72376">
        <ele>580</ele>
        <time>2021-08-05T11:17:00.177Z</time>
      </trkpt>
      <trkpt lat="46.98183" lon="8.72378">
        <ele>580</ele>
        <time>2021-08-05T11:17:01.176Z</time>
      </trkpt>
      <trkpt lat="46.98183" lon="8.7238">
        <ele>580</ele>
        <time>2021-08-05T11:17:02.176Z</time>
      </trkpt>
      <trkpt lat="46.98183" lon="8.72382">
        <ele>580</ele>
        <time>2021-08-05T11:17:03.177Z</time>
      </trkpt>
      <trkpt lat="46.98182" lon="8.72384">
        <ele>580</ele>
        <time>2021-08-05T11:17:04.176Z</time>
      </trkpt>
      <trkpt lat="46.98182" lon="8.72386">
        <ele>581</ele>
        <time>2021-08-05T11:17:05.176Z</time>
      </trkpt>
      <trkpt lat="46.98182" lon="8.72388">
        <ele>580</ele>
        <time>2021-08-05T11:17:06.177Z</time>
      </trkpt>
      <trkpt lat="46.98182" lon="8.7239">
        <ele>580</ele>
        <time>2021-08-05T11:17:07.176Z</time>
      </trkpt>
      <trkpt lat="46.98182" lon="8.72392">
        <ele>580</ele>
        <time>2021-08-05T11:17:08.176Z</time>
      </trkpt>
      <trkpt lat="46.98182" lon="8.72394">
        <ele>581</ele>
        <time>2021-08-05T11:17:09.176Z</time>
      </trkpt>
      <trkpt lat="46.98182" lon="8.72396">
        <ele>581</ele>
        <time>2021-08-05T11:17:10.176Z</time>
      </trkpt>
      <trkpt lat="46.98182" lon="8.72398">
        <ele>582</ele>
        <time>2021-08-05T11:17:11.176Z</time>
      </trkpt>
      <trkpt lat="46.98182" lon="8.724">
        <ele>582</ele>
        <time>2021-08-05T11:17:12.176Z</time>
      </trkpt>
      <trkpt lat="46.98182" lon="8.72402">
        <ele>583</ele>
        <time>2021-08-05T11:17:13.176Z</time>
      </trkpt>
      <trkpt lat="46.98182" lon="8.72404">
        <ele>583</ele>
        <time>2021-08-05T11:17:14.177Z</time>
      </trkpt>
      <trkpt lat="46.98182" lon="8.72406">
        <ele>584</ele>
        <time>2021-08-05T11:17:15.176Z</time>
      </trkpt>
      <trkpt lat="46.98182" lon="8.72408">
        <ele>584</ele>
        <time>2021-08-05T11:17:16.177Z</time>
      </trkpt>
      <trkpt lat="46.98182" lon="8.7241">
        <ele>585</ele>
        <time>2021-08-05T11:17:17.177Z</time>
      </trkpt>
      <trkpt lat="46.98182" lon="8.72412">
        <ele>585</ele>
        <time>2021-08-05T11:17:18.176Z</time>
      </trkpt>
      <trkpt lat="46.98182" lon="8.72414">
        <ele>585</ele>
        <time>2021-08-05T11:17:19.176Z</time>
      </trkpt>
      <trkpt lat="46.98182" lon="8.72416">
        <ele>585</ele>
        <time>2021-08-05T11:17:20.176Z</time>
      </trkpt>
      <trkpt lat="46.98182" lon="8.72418">
        <ele>585</ele>
        <time>2021-08-05T11:17:21.177Z</time>
      </trkpt>
      <trkpt lat="46.98182" lon="8.7242">
        <ele>585</ele>
        <time>2021-08-05T11:17:22.176Z</time>
      </trkpt>
      <trkpt lat="46.98182" lon="8.72422">
        <ele>585</ele>
        <time>2021-08-05T11:17:23.176Z</time>
      </trkpt>
      <trkpt lat="46.98182" lon="8.72425">
        <ele>585</ele>
        <time>2021-08-05T11:17:24.176Z</time>
      </trkpt>
      <trkpt lat="46.98182" lon="8.72426">
        <ele>585</ele>
        <time>2021-08-05T11:17:25.176Z</time>
      </trkpt>
      <trkpt lat="46.98182" lon="8.72428">
        <ele>584</ele>
        <time>2021-08-05T11:17:26.176Z</time>
      </trkpt>
      <trkpt lat="46.98182" lon="8.72431">
        <ele>584</ele>
        <time>2021-08-05T11:17:27.176Z</time>
      </trkpt>
      <trkpt lat="46.98182" lon="8.72433">
        <ele>584</ele>
        <time>2021-08-05T11:17:28.177Z</time>
      </trkpt>
      <trkpt lat="46.98182" lon="8.72435">
        <ele>584</ele>
        <time>2021-08-05T11:17:29.177Z</time>
      </trkpt>
      <trkpt lat="46.98182" lon="8.72437">
        <ele>583</ele>
        <time>2021-08-05T11:17:30.176Z</time>
      </trkpt>
      <trkpt lat="46.98182" lon="8.72439">
        <ele>583</ele>
        <time>2021-08-05T11:17:31.176Z</time>
      </trkpt>
      <trkpt lat="46.98181" lon="8.72441">
        <ele>583</ele>
        <time>2021-08-05T11:17:32.176Z</time>
      </trkpt>
      <trkpt lat="46.98181" lon="8.72443">
        <ele>583</ele>
        <time>2021-08-05T11:17:33.177Z</time>
      </trkpt>
      <trkpt lat="46.98181" lon="8.72445">
        <ele>583</ele>
        <time>2021-08-05T11:17:34.177Z</time>
      </trkpt>
      <trkpt lat="46.98181" lon="8.72447">
        <ele>583</ele>
        <time>2021-08-05T11:17:35.176Z</time>
      </trkpt>
      <trkpt lat="46.98181" lon="8.72448">
        <ele>582</ele>
        <time>2021-08-05T11:17:36.176Z</time>
      </trkpt>
      <trkpt lat="46.98181" lon="8.7245">
        <ele>582</ele>
        <time>2021-08-05T11:17:37.176Z</time>
      </trkpt>
      <trkpt lat="46.98181" lon="8.72452">
        <ele>581</ele>
        <time>2021-08-05T11:17:38.177Z</time>
      </trkpt>
      <trkpt lat="46.98181" lon="8.72454">
        <ele>581</ele>
        <time>2021-08-05T11:17:39.177Z</time>
      </trkpt>
      <trkpt lat="46.98181" lon="8.72455">
        <ele>581</ele>
        <time>2021-08-05T11:17:40.176Z</time>
      </trkpt>
      <trkpt lat="46.98181" lon="8.72457">
        <ele>581</ele>
        <time>2021-08-05T11:17:41.176Z</time>
      </trkpt>
      <trkpt lat="46.98181" lon="8.72459">
        <ele>581</ele>
        <time>2021-08-05T11:17:42.176Z</time>
      </trkpt>
      <trkpt lat="46.98181" lon="8.72461">
        <ele>581</ele>
        <time>2021-08-05T11:17:43.176Z</time>
      </trkpt>
      <trkpt lat="46.98181" lon="8.72462">
        <ele>581</ele>
        <time>2021-08-05T11:17:44.176Z</time>
      </trkpt>
      <trkpt lat="46.98181" lon="8.72464">
        <ele>581</ele>
        <time>2021-08-05T11:17:45.176Z</time>
      </trkpt>
      <trkpt lat="46.98181" lon="8.72467">
        <ele>581</ele>
        <time>2021-08-05T11:17:46.176Z</time>
      </trkpt>
      <trkpt lat="46.9818" lon="8.72469">
        <ele>581</ele>
        <time>2021-08-05T11:17:47.176Z</time>
      </trkpt>
      <trkpt lat="46.9818" lon="8.72471">
        <ele>581</ele>
        <time>2021-08-05T11:17:48.177Z</time>
      </trkpt>
      <trkpt lat="46.9818" lon="8.72472">
        <ele>582</ele>
        <time>2021-08-05T11:17:49.176Z</time>
      </trkpt>
      <trkpt lat="46.9818" lon="8.72475">
        <ele>582</ele>
        <time>2021-08-05T11:17:50.176Z</time>
      </trkpt>
      <trkpt lat="46.98179" lon="8.72476">
        <ele>582</ele>
        <time>2021-08-05T11:17:51.176Z</time>
      </trkpt>
      <trkpt lat="46.98179" lon="8.72477">
        <ele>582</ele>
        <time>2021-08-05T11:17:52.176Z</time>
      </trkpt>
      <trkpt lat="46.98179" lon="8.72479">
        <ele>582</ele>
        <time>2021-08-05T11:17:53.177Z</time>
      </trkpt>
      <trkpt lat="46.98178" lon="8.72481">
        <ele>582</ele>
        <time>2021-08-05T11:17:54.176Z</time>
      </trkpt>
      <trkpt lat="46.98178" lon="8.72483">
        <ele>581</ele>
        <time>2021-08-05T11:17:55.176Z</time>
      </trkpt>
      <trkpt lat="46.98178" lon="8.72485">
        <ele>582</ele>
        <time>2021-08-05T11:17:56.176Z</time>
      </trkpt>
      <trkpt lat="46.98177" lon="8.72486">
        <ele>582</ele>
        <time>2021-08-05T11:17:57.176Z</time>
      </trkpt>
      <trkpt lat="46.98177" lon="8.72488">
        <ele>582</ele>
        <time>2021-08-05T11:17:58.176Z</time>
      </trkpt>
      <trkpt lat="46.98176" lon="8.7249">
        <ele>582</ele>
        <time>2021-08-05T11:17:59.176Z</time>
      </trkpt>
      <trkpt lat="46.98176" lon="8.72492">
        <ele>582</ele>
        <time>2021-08-05T11:18:00.176Z</time>
      </trkpt>
      <trkpt lat="46.98175" lon="8.72494">
        <ele>583</ele>
        <time>2021-08-05T11:18:01.176Z</time>
      </trkpt>
      <trkpt lat="46.98175" lon="8.72497">
        <ele>583</ele>
        <time>2021-08-05T11:18:02.176Z</time>
      </trkpt>
      <trkpt lat="46.98174" lon="8.72498">
        <ele>583</ele>
        <time>2021-08-05T11:18:03.177Z</time>
      </trkpt>
      <trkpt lat="46.98174" lon="8.72501">
        <ele>583</ele>
        <time>2021-08-05T11:18:04.177Z</time>
      </trkpt>
      <trkpt lat="46.98173" lon="8.72502">
        <ele>583</ele>
        <time>2021-08-05T11:18:05.176Z</time>
      </trkpt>
      <trkpt lat="46.98173" lon="8.72504">
        <ele>583</ele>
        <time>2021-08-05T11:18:06.176Z</time>
      </trkpt>
      <trkpt lat="46.98172" lon="8.72506">
        <ele>583</ele>
        <time>2021-08-05T11:18:07.176Z</time>
      </trkpt>
      <trkpt lat="46.98172" lon="8.72508">
        <ele>583</ele>
        <time>2021-08-05T11:18:08.177Z</time>
      </trkpt>
      <trkpt lat="46.98172" lon="8.72509">
        <ele>583</ele>
        <time>2021-08-05T11:18:09.177Z</time>
      </trkpt>
      <trkpt lat="46.98171" lon="8.72511">
        <ele>583</ele>
        <time>2021-08-05T11:18:10.177Z</time>
      </trkpt>
      <trkpt lat="46.98171" lon="8.72512">
        <ele>582</ele>
        <time>2021-08-05T11:18:11.176Z</time>
      </trkpt>
      <trkpt lat="46.98171" lon="8.72514">
        <ele>582</ele>
        <time>2021-08-05T11:18:12.176Z</time>
      </trkpt>
      <trkpt lat="46.9817" lon="8.72516">
        <ele>582</ele>
        <time>2021-08-05T11:18:13.177Z</time>
      </trkpt>
      <trkpt lat="46.9817" lon="8.72518">
        <ele>581</ele>
        <time>2021-08-05T11:18:14.176Z</time>
      </trkpt>
      <trkpt lat="46.9817" lon="8.72519">
        <ele>581</ele>
        <time>2021-08-05T11:18:15.176Z</time>
      </trkpt>
      <trkpt lat="46.9817" lon="8.72521">
        <ele>580</ele>
        <time>2021-08-05T11:18:16.177Z</time>
      </trkpt>
      <trkpt lat="46.98169" lon="8.72523">
        <ele>580</ele>
        <time>2021-08-05T11:18:17.176Z</time>
      </trkpt>
      <trkpt lat="46.98169" lon="8.72524">
        <ele>580</ele>
        <time>2021-08-05T11:18:18.176Z</time>
      </trkpt>
      <trkpt lat="46.98169" lon="8.72526">
        <ele>580</ele>
        <time>2021-08-05T11:18:19.176Z</time>
      </trkpt>
      <trkpt lat="46.98168" lon="8.72528">
        <ele>580</ele>
        <time>2021-08-05T11:18:20.176Z</time>
      </trkpt>
      <trkpt lat="46.98168" lon="8.72529">
        <ele>581</ele>
        <time>2021-08-05T11:18:21.176Z</time>
      </trkpt>
      <trkpt lat="46.98168" lon="8.72531">
        <ele>581</ele>
        <time>2021-08-05T11:18:22.176Z</time>
      </trkpt>
      <trkpt lat="46.98167" lon="8.72533">
        <ele>581</ele>
        <time>2021-08-05T11:18:23.177Z</time>
      </trkpt>
      <trkpt lat="46.98167" lon="8.72535">
        <ele>581</ele>
        <time>2021-08-05T11:18:24.176Z</time>
      </trkpt>
      <trkpt lat="46.98167" lon="8.72536">
        <ele>581</ele>
        <time>2021-08-05T11:18:25.177Z</time>
      </trkpt>
      <trkpt lat="46.98167" lon="8.72538">
        <ele>581</ele>
        <time>2021-08-05T11:18:26.177Z</time>
      </trkpt>
      <trkpt lat="46.98167" lon="8.7254">
        <ele>581</ele>
        <time>2021-08-05T11:18:27.177Z</time>
      </trkpt>
      <trkpt lat="46.98166" lon="8.72542">
        <ele>581</ele>
        <time>2021-08-05T11:18:28.177Z</time>
      </trkpt>
      <trkpt lat="46.98166" lon="8.72543">
        <ele>581</ele>
        <time>2021-08-05T11:18:29.177Z</time>
      </trkpt>
      <trkpt lat="46.98165" lon="8.72545">
        <ele>581</ele>
        <time>2021-08-05T11:18:30.177Z</time>
      </trkpt>
      <trkpt lat="46.98165" lon="8.72547">
        <ele>581</ele>
        <time>2021-08-05T11:18:31.177Z</time>
      </trkpt>
      <trkpt lat="46.98164" lon="8.72549">
        <ele>582</ele>
        <time>2021-08-05T11:18:32.177Z</time>
      </trkpt>
      <trkpt lat="46.98164" lon="8.7255">
        <ele>582</ele>
        <time>2021-08-05T11:18:33.177Z</time>
      </trkpt>
      <trkpt lat="46.98163" lon="8.72552">
        <ele>582</ele>
        <time>2021-08-05T11:18:34.177Z</time>
      </trkpt>
      <trkpt lat="46.98163" lon="8.72554">
        <ele>582</ele>
        <time>2021-08-05T11:18:35.176Z</time>
      </trkpt>
      <trkpt lat="46.98162" lon="8.72555">
        <ele>581</ele>
        <time>2021-08-05T11:18:36.177Z</time>
      </trkpt>
      <trkpt lat="46.98162" lon="8.72557">
        <ele>581</ele>
        <time>2021-08-05T11:18:37.177Z</time>
      </trkpt>
      <trkpt lat="46.98161" lon="8.72558">
        <ele>581</ele>
        <time>2021-08-05T11:18:40.298Z</time>
      </trkpt>
      <trkpt lat="46.98161" lon="8.7256">
        <ele>581</ele>
        <time>2021-08-05T11:18:41.298Z</time>
      </trkpt>
      <trkpt lat="46.9816" lon="8.72561">
        <ele>581</ele>
        <time>2021-08-05T11:18:42.298Z</time>
      </trkpt>
      <trkpt lat="46.98159" lon="8.72562">
        <ele>581</ele>
        <time>2021-08-05T11:18:43.299Z</time>
      </trkpt>
      <trkpt lat="46.98158" lon="8.72563">
        <ele>580</ele>
        <time>2021-08-05T11:18:44.298Z</time>
      </trkpt>
      <trkpt lat="46.98158" lon="8.72565">
        <ele>580</ele>
        <time>2021-08-05T11:18:45.298Z</time>
      </trkpt>
      <trkpt lat="46.98157" lon="8.72566">
        <ele>579</ele>
        <time>2021-08-05T11:18:46.298Z</time>
      </trkpt>
      <trkpt lat="46.98157" lon="8.72568">
        <ele>579</ele>
        <time>2021-08-05T11:18:47.298Z</time>
      </trkpt>
      <trkpt lat="46.98156" lon="8.72569">
        <ele>579</ele>
        <time>2021-08-05T11:18:48.298Z</time>
      </trkpt>
      <trkpt lat="46.98155" lon="8.72571">
        <ele>579</ele>
        <time>2021-08-05T11:18:49.299Z</time>
      </trkpt>
      <trkpt lat="46.98154" lon="8.72572">
        <ele>580</ele>
        <time>2021-08-05T11:18:50.298Z</time>
      </trkpt>
      <trkpt lat="46.98153" lon="8.72573">
        <ele>580</ele>
        <time>2021-08-05T11:18:51.298Z</time>
      </trkpt>
      <trkpt lat="46.98152" lon="8.72574">
        <ele>580</ele>
        <time>2021-08-05T11:18:52.298Z</time>
      </trkpt>
      <trkpt lat="46.98152" lon="8.72576">
        <ele>581</ele>
        <time>2021-08-05T11:18:53.298Z</time>
      </trkpt>
      <trkpt lat="46.98152" lon="8.72577">
        <ele>582</ele>
        <time>2021-08-05T11:18:54.299Z</time>
      </trkpt>
      <trkpt lat="46.98151" lon="8.72579">
        <ele>582</ele>
        <time>2021-08-05T11:18:55.299Z</time>
      </trkpt>
      <trkpt lat="46.98151" lon="8.7258">
        <ele>583</ele>
        <time>2021-08-05T11:18:56.299Z</time>
      </trkpt>
      <trkpt lat="46.9815" lon="8.72582">
        <ele>584</ele>
        <time>2021-08-05T11:18:57.298Z</time>
      </trkpt>
      <trkpt lat="46.9815" lon="8.72584">
        <ele>584</ele>
        <time>2021-08-05T11:18:58.299Z</time>
      </trkpt>
      <trkpt lat="46.9815" lon="8.72584">
        <ele>585</ele>
        <time>2021-08-05T11:18:59.298Z</time>
      </trkpt>
      <trkpt lat="46.9815" lon="8.72584">
        <ele>585</ele>
        <time>2021-08-05T11:19:00.298Z</time>
      </trkpt>
      <trkpt lat="46.98149" lon="8.72584">
        <ele>585</ele>
        <time>2021-08-05T11:19:01.299Z</time>
      </trkpt>
      <trkpt lat="46.98148" lon="8.72585">
        <ele>585</ele>
        <time>2021-08-05T11:19:02.299Z</time>
      </trkpt>
      <trkpt lat="46.98147" lon="8.72585">
        <ele>585</ele>
        <time>2021-08-05T11:19:03.298Z</time>
      </trkpt>
      <trkpt lat="46.98146" lon="8.72586">
        <ele>585</ele>
        <time>2021-08-05T11:19:04.299Z</time>
      </trkpt>
      <trkpt lat="46.98146" lon="8.72587">
        <ele>585</ele>
        <time>2021-08-05T11:19:05.299Z</time>
      </trkpt>
      <trkpt lat="46.98145" lon="8.72589">
        <ele>585</ele>
        <time>2021-08-05T11:19:06.299Z</time>
      </trkpt>
      <trkpt lat="46.98145" lon="8.7259">
        <ele>584</ele>
        <time>2021-08-05T11:19:07.298Z</time>
      </trkpt>
      <trkpt lat="46.98144" lon="8.72591">
        <ele>584</ele>
        <time>2021-08-05T11:19:08.299Z</time>
      </trkpt>
      <trkpt lat="46.98143" lon="8.72592">
        <ele>584</ele>
        <time>2021-08-05T11:19:09.299Z</time>
      </trkpt>
      <trkpt lat="46.98143" lon="8.72593">
        <ele>584</ele>
        <time>2021-08-05T11:19:10.298Z</time>
      </trkpt>
      <trkpt lat="46.98142" lon="8.72594">
        <ele>584</ele>
        <time>2021-08-05T11:19:11.299Z</time>
      </trkpt>
      <trkpt lat="46.98141" lon="8.72594">
        <ele>584</ele>
        <time>2021-08-05T11:19:12.299Z</time>
      </trkpt>
      <trkpt lat="46.9814" lon="8.72596">
        <ele>584</ele>
        <time>2021-08-05T11:19:13.299Z</time>
      </trkpt>
      <trkpt lat="46.9814" lon="8.72597">
        <ele>584</ele>
        <time>2021-08-05T11:19:14.299Z</time>
      </trkpt>
      <trkpt lat="46.98139" lon="8.72598">
        <ele>585</ele>
        <time>2021-08-05T11:19:15.299Z</time>
      </trkpt>
      <trkpt lat="46.98138" lon="8.72599">
        <ele>585</ele>
        <time>2021-08-05T11:19:16.298Z</time>
      </trkpt>
      <trkpt lat="46.98137" lon="8.726">
        <ele>585</ele>
        <time>2021-08-05T11:19:17.298Z</time>
      </trkpt>
      <trkpt lat="46.98137" lon="8.72602">
        <ele>585</ele>
        <time>2021-08-05T11:19:18.299Z</time>
      </trkpt>
      <trkpt lat="46.98137" lon="8.72603">
        <ele>585</ele>
        <time>2021-08-05T11:19:19.299Z</time>
      </trkpt>
      <trkpt lat="46.98136" lon="8.72604">
        <ele>585</ele>
        <time>2021-08-05T11:19:20.299Z</time>
      </trkpt>
      <trkpt lat="46.98135" lon="8.72604">
        <ele>585</ele>
        <time>2021-08-05T11:19:21.299Z</time>
      </trkpt>
      <trkpt lat="46.98135" lon="8.72604">
        <ele>585</ele>
        <time>2021-08-05T11:19:22.298Z</time>
      </trkpt>
      <trkpt lat="46.98135" lon="8.72605">
        <ele>586</ele>
        <time>2021-08-05T11:19:23.299Z</time>
      </trkpt>
      <trkpt lat="46.98135" lon="8.72605">
        <ele>586</ele>
        <time>2021-08-05T11:19:24.300Z</time>
      </trkpt>
      <trkpt lat="46.98135" lon="8.72605">
        <ele>586</ele>
        <time>2021-08-05T11:19:25.300Z</time>
      </trkpt>
      <trkpt lat="46.98135" lon="8.72606">
        <ele>586</ele>
        <time>2021-08-05T11:19:26.300Z</time>
      </trkpt>
      <trkpt lat="46.98135" lon="8.72608">
        <ele>587</ele>
        <time>2021-08-05T11:19:27.300Z</time>
      </trkpt>
      <trkpt lat="46.98135" lon="8.72609">
        <ele>587</ele>
        <time>2021-08-05T11:19:28.299Z</time>
      </trkpt>
      <trkpt lat="46.98134" lon="8.72611">
        <ele>585</ele>
        <time>2021-08-05T11:19:29.299Z</time>
      </trkpt>
      <trkpt lat="46.98133" lon="8.72612">
        <ele>585</ele>
        <time>2021-08-05T11:19:30.299Z</time>
      </trkpt>
      <trkpt lat="46.98133" lon="8.72613">
        <ele>586</ele>
        <time>2021-08-05T11:19:31.299Z</time>
      </trkpt>
      <trkpt lat="46.98132" lon="8.72614">
        <ele>586</ele>
        <time>2021-08-05T11:19:32.299Z</time>
      </trkpt>
      <trkpt lat="46.98131" lon="8.72614">
        <ele>585</ele>
        <time>2021-08-05T11:19:33.300Z</time>
      </trkpt>
      <trkpt lat="46.98131" lon="8.72616">
        <ele>585</ele>
        <time>2021-08-05T11:19:34.300Z</time>
      </trkpt>
      <trkpt lat="46.98131" lon="8.72617">
        <ele>585</ele>
        <time>2021-08-05T11:19:35.299Z</time>
      </trkpt>
      <trkpt lat="46.9813" lon="8.72618">
        <ele>585</ele>
        <time>2021-08-05T11:19:36.299Z</time>
      </trkpt>
      <trkpt lat="46.9813" lon="8.72619">
        <ele>586</ele>
        <time>2021-08-05T11:19:37.300Z</time>
      </trkpt>
      <trkpt lat="46.9813" lon="8.7262">
        <ele>586</ele>
        <time>2021-08-05T11:19:38.300Z</time>
      </trkpt>
      <trkpt lat="46.98129" lon="8.72621">
        <ele>586</ele>
        <time>2021-08-05T11:19:39.300Z</time>
      </trkpt>
      <trkpt lat="46.98129" lon="8.72622">
        <ele>586</ele>
        <time>2021-08-05T11:19:40.299Z</time>
      </trkpt>
      <trkpt lat="46.98129" lon="8.72623">
        <ele>586</ele>
        <time>2021-08-05T11:19:41.299Z</time>
      </trkpt>
      <trkpt lat="46.98129" lon="8.72624">
        <ele>586</ele>
        <time>2021-08-05T11:19:42.300Z</time>
      </trkpt>
      <trkpt lat="46.98128" lon="8.72625">
        <ele>586</ele>
        <time>2021-08-05T11:19:43.299Z</time>
      </trkpt>
      <trkpt lat="46.98128" lon="8.72626">
        <ele>586</ele>
        <time>2021-08-05T11:19:44.300Z</time>
      </trkpt>
      <trkpt lat="46.98127" lon="8.72628">
        <ele>586</ele>
        <time>2021-08-05T11:19:45.300Z</time>
      </trkpt>
      <trkpt lat="46.98127" lon="8.7263">
        <ele>586</ele>
        <time>2021-08-05T11:19:46.299Z</time>
      </trkpt>
      <trkpt lat="46.98127" lon="8.72632">
        <ele>586</ele>
        <time>2021-08-05T11:19:47.299Z</time>
      </trkpt>
      <trkpt lat="46.98126" lon="8.72633">
        <ele>587</ele>
        <time>2021-08-05T11:19:48.300Z</time>
      </trkpt>
      <trkpt lat="46.98126" lon="8.72635">
        <ele>587</ele>
        <time>2021-08-05T11:19:49.300Z</time>
      </trkpt>
      <trkpt lat="46.98126" lon="8.72637">
        <ele>587</ele>
        <time>2021-08-05T11:19:50.299Z</time>
      </trkpt>
      <trkpt lat="46.98126" lon="8.72638">
        <ele>588</ele>
        <time>2021-08-05T11:19:51.299Z</time>
      </trkpt>
      <trkpt lat="46.98125" lon="8.7264">
        <ele>588</ele>
        <time>2021-08-05T11:19:52.300Z</time>
      </trkpt>
      <trkpt lat="46.98125" lon="8.72642">
        <ele>588</ele>
        <time>2021-08-05T11:19:53.300Z</time>
      </trkpt>
      <trkpt lat="46.98125" lon="8.72643">
        <ele>589</ele>
        <time>2021-08-05T11:19:54.300Z</time>
      </trkpt>
      <trkpt lat="46.98125" lon="8.72643">
        <ele>589</ele>
        <time>2021-08-05T11:19:55.300Z</time>
      </trkpt>
      <trkpt lat="46.98125" lon="8.72643">
        <ele>590</ele>
        <time>2021-08-05T11:19:56.299Z</time>
      </trkpt>
      <trkpt lat="46.98125" lon="8.72642">
        <ele>591</ele>
        <time>2021-08-05T11:19:57.301Z</time>
      </trkpt>
      <trkpt lat="46.98123" lon="8.72643">
        <ele>591</ele>
        <time>2021-08-05T11:19:58.301Z</time>
      </trkpt>
      <trkpt lat="46.98123" lon="8.72645">
        <ele>591</ele>
        <time>2021-08-05T11:19:59.300Z</time>
      </trkpt>
      <trkpt lat="46.98122" lon="8.72647">
        <ele>591</ele>
        <time>2021-08-05T11:20:00.300Z</time>
      </trkpt>
      <trkpt lat="46.98122" lon="8.72648">
        <ele>591</ele>
        <time>2021-08-05T11:20:01.301Z</time>
      </trkpt>
      <trkpt lat="46.98121" lon="8.7265">
        <ele>591</ele>
        <time>2021-08-05T11:20:02.300Z</time>
      </trkpt>
      <trkpt lat="46.98121" lon="8.72652">
        <ele>591</ele>
        <time>2021-08-05T11:20:03.300Z</time>
      </trkpt>
      <trkpt lat="46.9812" lon="8.72653">
        <ele>591</ele>
        <time>2021-08-05T11:20:04.300Z</time>
      </trkpt>
      <trkpt lat="46.9812" lon="8.72655">
        <ele>591</ele>
        <time>2021-08-05T11:20:05.301Z</time>
      </trkpt>
      <trkpt lat="46.98119" lon="8.72657">
        <ele>591</ele>
        <time>2021-08-05T11:20:06.300Z</time>
      </trkpt>
      <trkpt lat="46.98119" lon="8.72658">
        <ele>591</ele>
        <time>2021-08-05T11:20:07.301Z</time>
      </trkpt>
      <trkpt lat="46.98119" lon="8.7266">
        <ele>591</ele>
        <time>2021-08-05T11:20:08.300Z</time>
      </trkpt>
      <trkpt lat="46.98118" lon="8.72661">
        <ele>591</ele>
        <time>2021-08-05T11:20:09.300Z</time>
      </trkpt>
      <trkpt lat="46.98118" lon="8.72663">
        <ele>591</ele>
        <time>2021-08-05T11:20:10.301Z</time>
      </trkpt>
      <trkpt lat="46.98117" lon="8.72664">
        <ele>591</ele>
        <time>2021-08-05T11:20:11.301Z</time>
      </trkpt>
      <trkpt lat="46.98116" lon="8.72666">
        <ele>591</ele>
        <time>2021-08-05T11:20:12.301Z</time>
      </trkpt>
      <trkpt lat="46.98116" lon="8.72668">
        <ele>591</ele>
        <time>2021-08-05T11:20:13.300Z</time>
      </trkpt>
      <trkpt lat="46.98115" lon="8.7267">
        <ele>591</ele>
        <time>2021-08-05T11:20:14.301Z</time>
      </trkpt>
      <trkpt lat="46.98115" lon="8.72671">
        <ele>591</ele>
        <time>2021-08-05T11:20:15.301Z</time>
      </trkpt>
      <trkpt lat="46.98115" lon="8.72673">
        <ele>591</ele>
        <time>2021-08-05T11:20:16.301Z</time>
      </trkpt>
      <trkpt lat="46.98114" lon="8.72675">
        <ele>591</ele>
        <time>2021-08-05T11:20:17.301Z</time>
      </trkpt>
      <trkpt lat="46.98114" lon="8.72677">
        <ele>591</ele>
        <time>2021-08-05T11:20:18.301Z</time>
      </trkpt>
      <trkpt lat="46.98113" lon="8.72679">
        <ele>591</ele>
        <time>2021-08-05T11:20:19.301Z</time>
      </trkpt>
      <trkpt lat="46.98113" lon="8.7268">
        <ele>591</ele>
        <time>2021-08-05T11:20:20.301Z</time>
      </trkpt>
      <trkpt lat="46.98113" lon="8.72682">
        <ele>591</ele>
        <time>2021-08-05T11:20:21.300Z</time>
      </trkpt>
      <trkpt lat="46.98112" lon="8.72684">
        <ele>591</ele>
        <time>2021-08-05T11:20:22.301Z</time>
      </trkpt>
      <trkpt lat="46.98112" lon="8.72686">
        <ele>592</ele>
        <time>2021-08-05T11:20:23.301Z</time>
      </trkpt>
      <trkpt lat="46.98112" lon="8.72687">
        <ele>592</ele>
        <time>2021-08-05T11:20:24.300Z</time>
      </trkpt>
      <trkpt lat="46.98112" lon="8.72689">
        <ele>592</ele>
        <time>2021-08-05T11:20:25.301Z</time>
      </trkpt>
      <trkpt lat="46.98112" lon="8.72691">
        <ele>591</ele>
        <time>2021-08-05T11:20:26.301Z</time>
      </trkpt>
      <trkpt lat="46.98112" lon="8.72693">
        <ele>591</ele>
        <time>2021-08-05T11:20:27.300Z</time>
      </trkpt>
      <trkpt lat="46.98112" lon="8.72694">
        <ele>592</ele>
        <time>2021-08-05T11:20:28.300Z</time>
      </trkpt>
      <trkpt lat="46.98112" lon="8.72696">
        <ele>592</ele>
        <time>2021-08-05T11:20:29.301Z</time>
      </trkpt>
      <trkpt lat="46.98111" lon="8.72698">
        <ele>592</ele>
        <time>2021-08-05T11:20:30.301Z</time>
      </trkpt>
      <trkpt lat="46.98111" lon="8.727">
        <ele>592</ele>
        <time>2021-08-05T11:20:31.300Z</time>
      </trkpt>
      <trkpt lat="46.98111" lon="8.72702">
        <ele>592</ele>
        <time>2021-08-05T11:20:32.301Z</time>
      </trkpt>
      <trkpt lat="46.9811" lon="8.72704">
        <ele>593</ele>
        <time>2021-08-05T11:20:33.301Z</time>
      </trkpt>
      <trkpt lat="46.98109" lon="8.72705">
        <ele>593</ele>
        <time>2021-08-05T11:20:34.300Z</time>
      </trkpt>
      <trkpt lat="46.98109" lon="8.72707">
        <ele>593</ele>
        <time>2021-08-05T11:20:35.301Z</time>
      </trkpt>
      <trkpt lat="46.98108" lon="8.72708">
        <ele>593</ele>
        <time>2021-08-05T11:20:36.301Z</time>
      </trkpt>
      <trkpt lat="46.98108" lon="8.7271">
        <ele>593</ele>
        <time>2021-08-05T11:20:37.301Z</time>
      </trkpt>
      <trkpt lat="46.98107" lon="8.72711">
        <ele>593</ele>
        <time>2021-08-05T11:20:38.301Z</time>
      </trkpt>
      <trkpt lat="46.98107" lon="8.72713">
        <ele>593</ele>
        <time>2021-08-05T11:20:39.300Z</time>
      </trkpt>
      <trkpt lat="46.98107" lon="8.72715">
        <ele>593</ele>
        <time>2021-08-05T11:20:40.301Z</time>
      </trkpt>
      <trkpt lat="46.98106" lon="8.72717">
        <ele>592</ele>
        <time>2021-08-05T11:20:41.301Z</time>
      </trkpt>
      <trkpt lat="46.98106" lon="8.72718">
        <ele>592</ele>
        <time>2021-08-05T11:20:42.300Z</time>
      </trkpt>
      <trkpt lat="46.98106" lon="8.7272">
        <ele>592</ele>
        <time>2021-08-05T11:20:43.301Z</time>
      </trkpt>
      <trkpt lat="46.98105" lon="8.72721">
        <ele>592</ele>
        <time>2021-08-05T11:20:44.301Z</time>
      </trkpt>
      <trkpt lat="46.98105" lon="8.72723">
        <ele>592</ele>
        <time>2021-08-05T11:20:45.300Z</time>
      </trkpt>
      <trkpt lat="46.98104" lon="8.72724">
        <ele>591</ele>
        <time>2021-08-05T11:20:46.300Z</time>
      </trkpt>
      <trkpt lat="46.98104" lon="8.72726">
        <ele>591</ele>
        <time>2021-08-05T11:20:47.301Z</time>
      </trkpt>
      <trkpt lat="46.98103" lon="8.72728">
        <ele>591</ele>
        <time>2021-08-05T11:20:48.301Z</time>
      </trkpt>
      <trkpt lat="46.98102" lon="8.72729">
        <ele>590</ele>
        <time>2021-08-05T11:20:49.301Z</time>
      </trkpt>
      <trkpt lat="46.98102" lon="8.72731">
        <ele>590</ele>
        <time>2021-08-05T11:20:50.300Z</time>
      </trkpt>
      <trkpt lat="46.98101" lon="8.72732">
        <ele>590</ele>
        <time>2021-08-05T11:20:51.301Z</time>
      </trkpt>
      <trkpt lat="46.98101" lon="8.72733">
        <ele>589</ele>
        <time>2021-08-05T11:20:52.300Z</time>
      </trkpt>
      <trkpt lat="46.981" lon="8.72734">
        <ele>589</ele>
        <time>2021-08-05T11:20:53.301Z</time>
      </trkpt>
      <trkpt lat="46.98099" lon="8.72735">
        <ele>589</ele>
        <time>2021-08-05T11:20:54.301Z</time>
      </trkpt>
      <trkpt lat="46.98098" lon="8.72736">
        <ele>589</ele>
        <time>2021-08-05T11:20:55.300Z</time>
      </trkpt>
      <trkpt lat="46.98098" lon="8.72737">
        <ele>589</ele>
        <time>2021-08-05T11:20:56.300Z</time>
      </trkpt>
      <trkpt lat="46.98097" lon="8.72739">
        <ele>589</ele>
        <time>2021-08-05T11:20:57.300Z</time>
      </trkpt>
      <trkpt lat="46.98096" lon="8.7274">
        <ele>589</ele>
        <time>2021-08-05T11:20:58.300Z</time>
      </trkpt>
      <trkpt lat="46.98095" lon="8.72741">
        <ele>589</ele>
        <time>2021-08-05T11:20:59.301Z</time>
      </trkpt>
      <trkpt lat="46.98094" lon="8.72742">
        <ele>589</ele>
        <time>2021-08-05T11:21:00.301Z</time>
      </trkpt>
      <trkpt lat="46.98094" lon="8.72744">
        <ele>589</ele>
        <time>2021-08-05T11:21:01.300Z</time>
      </trkpt>
      <trkpt lat="46.98093" lon="8.72745">
        <ele>588</ele>
        <time>2021-08-05T11:21:02.301Z</time>
      </trkpt>
      <trkpt lat="46.98093" lon="8.72746">
        <ele>588</ele>
        <time>2021-08-05T11:21:03.301Z</time>
      </trkpt>
      <trkpt lat="46.98092" lon="8.72748">
        <ele>588</ele>
        <time>2021-08-05T11:21:04.300Z</time>
      </trkpt>
      <trkpt lat="46.98092" lon="8.72749">
        <ele>587</ele>
        <time>2021-08-05T11:21:05.300Z</time>
      </trkpt>
      <trkpt lat="46.98092" lon="8.7275">
        <ele>587</ele>
        <time>2021-08-05T11:21:06.301Z</time>
      </trkpt>
      <trkpt lat="46.98091" lon="8.72752">
        <ele>587</ele>
        <time>2021-08-05T11:21:07.301Z</time>
      </trkpt>
      <trkpt lat="46.98091" lon="8.72754">
        <ele>587</ele>
        <time>2021-08-05T11:21:08.301Z</time>
      </trkpt>
      <trkpt lat="46.9809" lon="8.72755">
        <ele>587</ele>
        <time>2021-08-05T11:21:09.301Z</time>
      </trkpt>
      <trkpt lat="46.9809" lon="8.72757">
        <ele>587</ele>
        <time>2021-08-05T11:21:10.300Z</time>
      </trkpt>
      <trkpt lat="46.98089" lon="8.72759">
        <ele>586</ele>
        <time>2021-08-05T11:21:11.300Z</time>
      </trkpt>
      <trkpt lat="46.98089" lon="8.72761">
        <ele>586</ele>
        <time>2021-08-05T11:21:12.300Z</time>
      </trkpt>
      <trkpt lat="46.98089" lon="8.72763">
        <ele>586</ele>
        <time>2021-08-05T11:21:13.300Z</time>
      </trkpt>
      <trkpt lat="46.98089" lon="8.72764">
        <ele>586</ele>
        <time>2021-08-05T11:21:14.301Z</time>
      </trkpt>
      <trkpt lat="46.98089" lon="8.72766">
        <ele>586</ele>
        <time>2021-08-05T11:21:15.301Z</time>
      </trkpt>
      <trkpt lat="46.98088" lon="8.72768">
        <ele>586</ele>
        <time>2021-08-05T11:21:16.301Z</time>
      </trkpt>
      <trkpt lat="46.98088" lon="8.72769">
        <ele>586</ele>
        <time>2021-08-05T11:21:17.300Z</time>
      </trkpt>
      <trkpt lat="46.98088" lon="8.72771">
        <ele>587</ele>
        <time>2021-08-05T11:21:18.300Z</time>
      </trkpt>
      <trkpt lat="46.98087" lon="8.72772">
        <ele>588</ele>
        <time>2021-08-05T11:21:19.301Z</time>
      </trkpt>
      <trkpt lat="46.98087" lon="8.72773">
        <ele>588</ele>
        <time>2021-08-05T11:21:20.301Z</time>
      </trkpt>
      <trkpt lat="46.98086" lon="8.72775">
        <ele>589</ele>
        <time>2021-08-05T11:21:21.301Z</time>
      </trkpt>
      <trkpt lat="46.98086" lon="8.72776">
        <ele>589</ele>
        <time>2021-08-05T11:21:22.300Z</time>
      </trkpt>
      <trkpt lat="46.98085" lon="8.72778">
        <ele>589</ele>
        <time>2021-08-05T11:21:23.300Z</time>
      </trkpt>
      <trkpt lat="46.98085" lon="8.72779">
        <ele>588</ele>
        <time>2021-08-05T11:21:24.301Z</time>
      </trkpt>
      <trkpt lat="46.98084" lon="8.72781">
        <ele>588</ele>
        <time>2021-08-05T11:21:25.300Z</time>
      </trkpt>
      <trkpt lat="46.98083" lon="8.72783">
        <ele>588</ele>
        <time>2021-08-05T11:21:26.300Z</time>
      </trkpt>
      <trkpt lat="46.98083" lon="8.72785">
        <ele>588</ele>
        <time>2021-08-05T11:21:27.301Z</time>
      </trkpt>
      <trkpt lat="46.98082" lon="8.72787">
        <ele>588</ele>
        <time>2021-08-05T11:21:28.301Z</time>
      </trkpt>
      <trkpt lat="46.98081" lon="8.72788">
        <ele>588</ele>
        <time>2021-08-05T11:21:29.300Z</time>
      </trkpt>
      <trkpt lat="46.9808" lon="8.7279">
        <ele>588</ele>
        <time>2021-08-05T11:21:30.301Z</time>
      </trkpt>
      <trkpt lat="46.9808" lon="8.72791">
        <ele>587</ele>
        <time>2021-08-05T11:21:31.300Z</time>
      </trkpt>
      <trkpt lat="46.98079" lon="8.72792">
        <ele>587</ele>
        <time>2021-08-05T11:21:32.301Z</time>
      </trkpt>
      <trkpt lat="46.98078" lon="8.72793">
        <ele>586</ele>
        <time>2021-08-05T11:21:33.301Z</time>
      </trkpt>
      <trkpt lat="46.98078" lon="8.72794">
        <ele>586</ele>
        <time>2021-08-05T11:21:34.300Z</time>
      </trkpt>
      <trkpt lat="46.98078" lon="8.72795">
        <ele>585</ele>
        <time>2021-08-05T11:21:35.301Z</time>
      </trkpt>
      <trkpt lat="46.98077" lon="8.72796">
        <ele>585</ele>
        <time>2021-08-05T11:21:36.300Z</time>
      </trkpt>
      <trkpt lat="46.98077" lon="8.72798">
        <ele>584</ele>
        <time>2021-08-05T11:21:37.301Z</time>
      </trkpt>
      <trkpt lat="46.98076" lon="8.72798">
        <ele>584</ele>
        <time>2021-08-05T11:21:38.301Z</time>
      </trkpt>
      <trkpt lat="46.98075" lon="8.728">
        <ele>583</ele>
        <time>2021-08-05T11:21:39.300Z</time>
      </trkpt>
      <trkpt lat="46.98075" lon="8.72801">
        <ele>583</ele>
        <time>2021-08-05T11:21:40.301Z</time>
      </trkpt>
      <trkpt lat="46.98074" lon="8.72802">
        <ele>582</ele>
        <time>2021-08-05T11:21:41.300Z</time>
      </trkpt>
      <trkpt lat="46.98073" lon="8.72803">
        <ele>582</ele>
        <time>2021-08-05T11:21:42.300Z</time>
      </trkpt>
      <trkpt lat="46.98072" lon="8.72803">
        <ele>582</ele>
        <time>2021-08-05T11:21:43.300Z</time>
      </trkpt>
      <trkpt lat="46.9807" lon="8.72804">
        <ele>581</ele>
        <time>2021-08-05T11:21:44.301Z</time>
      </trkpt>
      <trkpt lat="46.98069" lon="8.72804">
        <ele>581</ele>
        <time>2021-08-05T11:21:45.301Z</time>
      </trkpt>
      <trkpt lat="46.98068" lon="8.72805">
        <ele>581</ele>
        <time>2021-08-05T11:21:46.301Z</time>
      </trkpt>
      <trkpt lat="46.98067" lon="8.72806">
        <ele>581</ele>
        <time>2021-08-05T11:21:47.300Z</time>
      </trkpt>
      <trkpt lat="46.98066" lon="8.72807">
        <ele>580</ele>
        <time>2021-08-05T11:21:48.300Z</time>
      </trkpt>
      <trkpt lat="46.98064" lon="8.72808">
        <ele>580</ele>
        <time>2021-08-05T11:21:49.301Z</time>
      </trkpt>
      <trkpt lat="46.98063" lon="8.72809">
        <ele>579</ele>
        <time>2021-08-05T11:21:50.300Z</time>
      </trkpt>
      <trkpt lat="46.98062" lon="8.72809">
        <ele>579</ele>
        <time>2021-08-05T11:21:51.300Z</time>
      </trkpt>
      <trkpt lat="46.9806" lon="8.72809">
        <ele>579</ele>
        <time>2021-08-05T11:21:52.300Z</time>
      </trkpt>
      <trkpt lat="46.98059" lon="8.7281">
        <ele>579</ele>
        <time>2021-08-05T11:21:53.301Z</time>
      </trkpt>
      <trkpt lat="46.98058" lon="8.72811">
        <ele>579</ele>
        <time>2021-08-05T11:21:54.301Z</time>
      </trkpt>
      <trkpt lat="46.98057" lon="8.72811">
        <ele>580</ele>
        <time>2021-08-05T11:21:55.300Z</time>
      </trkpt>
      <trkpt lat="46.98056" lon="8.72812">
        <ele>580</ele>
        <time>2021-08-05T11:21:56.300Z</time>
      </trkpt>
      <trkpt lat="46.98055" lon="8.72813">
        <ele>580</ele>
        <time>2021-08-05T11:21:57.301Z</time>
      </trkpt>
      <trkpt lat="46.98054" lon="8.72814">
        <ele>580</ele>
        <time>2021-08-05T11:21:58.301Z</time>
      </trkpt>
      <trkpt lat="46.98053" lon="8.72814">
        <ele>580</ele>
        <time>2021-08-05T11:21:59.300Z</time>
      </trkpt>
      <trkpt lat="46.98052" lon="8.72815">
        <ele>581</ele>
        <time>2021-08-05T11:22:00.300Z</time>
      </trkpt>
      <trkpt lat="46.98052" lon="8.72815">
        <ele>581</ele>
        <time>2021-08-05T11:22:01.300Z</time>
      </trkpt>
      <trkpt lat="46.98051" lon="8.72816">
        <ele>582</ele>
        <time>2021-08-05T11:22:02.301Z</time>
      </trkpt>
      <trkpt lat="46.98049" lon="8.72817">
        <ele>582</ele>
        <time>2021-08-05T11:22:03.300Z</time>
      </trkpt>
      <trkpt lat="46.98048" lon="8.72817">
        <ele>583</ele>
        <time>2021-08-05T11:22:04.301Z</time>
      </trkpt>
      <trkpt lat="46.98048" lon="8.72818">
        <ele>583</ele>
        <time>2021-08-05T11:22:05.301Z</time>
      </trkpt>
      <trkpt lat="46.98046" lon="8.72819">
        <ele>584</ele>
        <time>2021-08-05T11:22:06.301Z</time>
      </trkpt>
      <trkpt lat="46.98045" lon="8.72819">
        <ele>584</ele>
        <time>2021-08-05T11:22:07.301Z</time>
      </trkpt>
      <trkpt lat="46.98044" lon="8.7282">
        <ele>585</ele>
        <time>2021-08-05T11:22:08.300Z</time>
      </trkpt>
      <trkpt lat="46.98043" lon="8.72821">
        <ele>585</ele>
        <time>2021-08-05T11:22:09.301Z</time>
      </trkpt>
      <trkpt lat="46.98042" lon="8.72822">
        <ele>585</ele>
        <time>2021-08-05T11:22:10.301Z</time>
      </trkpt>
      <trkpt lat="46.98041" lon="8.72823">
        <ele>585</ele>
        <time>2021-08-05T11:22:11.301Z</time>
      </trkpt>
      <trkpt lat="46.9804" lon="8.72824">
        <ele>585</ele>
        <time>2021-08-05T11:22:12.300Z</time>
      </trkpt>
      <trkpt lat="46.98039" lon="8.72825">
        <ele>585</ele>
        <time>2021-08-05T11:22:13.300Z</time>
      </trkpt>
      <trkpt lat="46.98037" lon="8.72826">
        <ele>585</ele>
        <time>2021-08-05T11:22:14.301Z</time>
      </trkpt>
      <trkpt lat="46.98036" lon="8.72826">
        <ele>584</ele>
        <time>2021-08-05T11:22:15.300Z</time>
      </trkpt>
      <trkpt lat="46.98036" lon="8.72827">
        <ele>584</ele>
        <time>2021-08-05T11:22:16.300Z</time>
      </trkpt>
      <trkpt lat="46.98035" lon="8.72828">
        <ele>584</ele>
        <time>2021-08-05T11:22:17.300Z</time>
      </trkpt>
      <trkpt lat="46.98033" lon="8.72828">
        <ele>584</ele>
        <time>2021-08-05T11:22:18.300Z</time>
      </trkpt>
      <trkpt lat="46.98032" lon="8.72829">
        <ele>585</ele>
        <time>2021-08-05T11:22:19.301Z</time>
      </trkpt>
      <trkpt lat="46.98031" lon="8.7283">
        <ele>585</ele>
        <time>2021-08-05T11:22:20.300Z</time>
      </trkpt>
      <trkpt lat="46.9803" lon="8.7283">
        <ele>585</ele>
        <time>2021-08-05T11:22:21.300Z</time>
      </trkpt>
      <trkpt lat="46.98029" lon="8.72831">
        <ele>585</ele>
        <time>2021-08-05T11:22:22.300Z</time>
      </trkpt>
      <trkpt lat="46.98028" lon="8.72831">
        <ele>586</ele>
        <time>2021-08-05T11:22:23.300Z</time>
      </trkpt>
      <trkpt lat="46.98027" lon="8.72832">
        <ele>586</ele>
        <time>2021-08-05T11:22:24.300Z</time>
      </trkpt>
      <trkpt lat="46.98026" lon="8.72832">
        <ele>586</ele>
        <time>2021-08-05T11:22:25.301Z</time>
      </trkpt>
      <trkpt lat="46.98024" lon="8.72833">
        <ele>586</ele>
        <time>2021-08-05T11:22:26.301Z</time>
      </trkpt>
      <trkpt lat="46.98023" lon="8.72833">
        <ele>586</ele>
        <time>2021-08-05T11:22:27.301Z</time>
      </trkpt>
      <trkpt lat="46.98022" lon="8.72834">
        <ele>586</ele>
        <time>2021-08-05T11:22:28.301Z</time>
      </trkpt>
      <trkpt lat="46.98022" lon="8.72835">
        <ele>586</ele>
        <time>2021-08-05T11:22:29.301Z</time>
      </trkpt>
      <trkpt lat="46.98021" lon="8.72835">
        <ele>586</ele>
        <time>2021-08-05T11:22:30.301Z</time>
      </trkpt>
      <trkpt lat="46.9802" lon="8.72836">
        <ele>585</ele>
        <time>2021-08-05T11:22:31.300Z</time>
      </trkpt>
      <trkpt lat="46.9802" lon="8.72836">
        <ele>585</ele>
        <time>2021-08-05T11:22:32.301Z</time>
      </trkpt>
      <trkpt lat="46.98019" lon="8.72837">
        <ele>585</ele>
        <time>2021-08-05T11:22:33.301Z</time>
      </trkpt>
      <trkpt lat="46.98018" lon="8.72837">
        <ele>585</ele>
        <time>2021-08-05T11:22:34.300Z</time>
      </trkpt>
      <trkpt lat="46.98017" lon="8.72838">
        <ele>585</ele>
        <time>2021-08-05T11:22:35.300Z</time>
      </trkpt>
      <trkpt lat="46.98015" lon="8.72839">
        <ele>585</ele>
        <time>2021-08-05T11:22:36.300Z</time>
      </trkpt>
      <trkpt lat="46.98014" lon="8.72839">
        <ele>585</ele>
        <time>2021-08-05T11:22:37.300Z</time>
      </trkpt>
      <trkpt lat="46.98013" lon="8.7284">
        <ele>585</ele>
        <time>2021-08-05T11:22:38.300Z</time>
      </trkpt>
      <trkpt lat="46.98012" lon="8.7284">
        <ele>585</ele>
        <time>2021-08-05T11:22:39.300Z</time>
      </trkpt>
      <trkpt lat="46.98011" lon="8.7284">
        <ele>585</ele>
        <time>2021-08-05T11:22:40.300Z</time>
      </trkpt>
      <trkpt lat="46.9801" lon="8.72841">
        <ele>584</ele>
        <time>2021-08-05T11:22:41.300Z</time>
      </trkpt>
      <trkpt lat="46.98009" lon="8.72842">
        <ele>584</ele>
        <time>2021-08-05T11:22:42.300Z</time>
      </trkpt>
      <trkpt lat="46.98008" lon="8.72842">
        <ele>584</ele>
        <time>2021-08-05T11:22:43.300Z</time>
      </trkpt>
      <trkpt lat="46.98006" lon="8.72843">
        <ele>584</ele>
        <time>2021-08-05T11:22:44.301Z</time>
      </trkpt>
      <trkpt lat="46.98005" lon="8.72844">
        <ele>584</ele>
        <time>2021-08-05T11:22:45.300Z</time>
      </trkpt>
      <trkpt lat="46.98004" lon="8.72844">
        <ele>584</ele>
        <time>2021-08-05T11:22:46.300Z</time>
      </trkpt>
      <trkpt lat="46.98003" lon="8.72845">
        <ele>584</ele>
        <time>2021-08-05T11:22:47.301Z</time>
      </trkpt>
      <trkpt lat="46.98002" lon="8.72846">
        <ele>583</ele>
        <time>2021-08-05T11:22:48.301Z</time>
      </trkpt>
      <trkpt lat="46.98001" lon="8.72847">
        <ele>583</ele>
        <time>2021-08-05T11:22:49.300Z</time>
      </trkpt>
      <trkpt lat="46.98" lon="8.72848">
        <ele>583</ele>
        <time>2021-08-05T11:22:50.300Z</time>
      </trkpt>
      <trkpt lat="46.97999" lon="8.72849">
        <ele>583</ele>
        <time>2021-08-05T11:22:51.301Z</time>
      </trkpt>
      <trkpt lat="46.97998" lon="8.7285">
        <ele>583</ele>
        <time>2021-08-05T11:22:52.301Z</time>
      </trkpt>
      <trkpt lat="46.97997" lon="8.72851">
        <ele>583</ele>
        <time>2021-08-05T11:22:53.301Z</time>
      </trkpt>
      <trkpt lat="46.97996" lon="8.72852">
        <ele>583</ele>
        <time>2021-08-05T11:22:54.301Z</time>
      </trkpt>
      <trkpt lat="46.97995" lon="8.72853">
        <ele>583</ele>
        <time>2021-08-05T11:22:55.301Z</time>
      </trkpt>
      <trkpt lat="46.97994" lon="8.72854">
        <ele>584</ele>
        <time>2021-08-05T11:22:56.301Z</time>
      </trkpt>
      <trkpt lat="46.97993" lon="8.72854">
        <ele>584</ele>
        <time>2021-08-05T11:22:57.300Z</time>
      </trkpt>
      <trkpt lat="46.97992" lon="8.72855">
        <ele>585</ele>
        <time>2021-08-05T11:22:58.300Z</time>
      </trkpt>
      <trkpt lat="46.97991" lon="8.72857">
        <ele>585</ele>
        <time>2021-08-05T11:22:59.300Z</time>
      </trkpt>
      <trkpt lat="46.9799" lon="8.72858">
        <ele>585</ele>
        <time>2021-08-05T11:23:00.301Z</time>
      </trkpt>
      <trkpt lat="46.97989" lon="8.72859">
        <ele>584</ele>
        <time>2021-08-05T11:23:01.300Z</time>
      </trkpt>
      <trkpt lat="46.97988" lon="8.72861">
        <ele>584</ele>
        <time>2021-08-05T11:23:02.301Z</time>
      </trkpt>
      <trkpt lat="46.97987" lon="8.72862">
        <ele>584</ele>
        <time>2021-08-05T11:23:03.301Z</time>
      </trkpt>
      <trkpt lat="46.97986" lon="8.72863">
        <ele>584</ele>
        <time>2021-08-05T11:23:04.301Z</time>
      </trkpt>
      <trkpt lat="46.97985" lon="8.72864">
        <ele>584</ele>
        <time>2021-08-05T11:23:05.301Z</time>
      </trkpt>
      <trkpt lat="46.97984" lon="8.72865">
        <ele>584</ele>
        <time>2021-08-05T11:23:06.300Z</time>
      </trkpt>
      <trkpt lat="46.97983" lon="8.72867">
        <ele>584</ele>
        <time>2021-08-05T11:23:07.301Z</time>
      </trkpt>
      <trkpt lat="46.97982" lon="8.72868">
        <ele>584</ele>
        <time>2021-08-05T11:23:08.301Z</time>
      </trkpt>
      <trkpt lat="46.97981" lon="8.72869">
        <ele>584</ele>
        <time>2021-08-05T11:23:09.301Z</time>
      </trkpt>
      <trkpt lat="46.97981" lon="8.7287">
        <ele>584</ele>
        <time>2021-08-05T11:23:10.301Z</time>
      </trkpt>
      <trkpt lat="46.9798" lon="8.72871">
        <ele>584</ele>
        <time>2021-08-05T11:23:11.300Z</time>
      </trkpt>
      <trkpt lat="46.97979" lon="8.72872">
        <ele>584</ele>
        <time>2021-08-05T11:23:12.300Z</time>
      </trkpt>
      <trkpt lat="46.97978" lon="8.72873">
        <ele>584</ele>
        <time>2021-08-05T11:23:13.300Z</time>
      </trkpt>
      <trkpt lat="46.97977" lon="8.72875">
        <ele>584</ele>
        <time>2021-08-05T11:23:14.301Z</time>
      </trkpt>
      <trkpt lat="46.97976" lon="8.72876">
        <ele>585</ele>
        <time>2021-08-05T11:23:15.300Z</time>
      </trkpt>
      <trkpt lat="46.97975" lon="8.72878">
        <ele>585</ele>
        <time>2021-08-05T11:23:16.301Z</time>
      </trkpt>
      <trkpt lat="46.97974" lon="8.72879">
        <ele>585</ele>
        <time>2021-08-05T11:23:17.301Z</time>
      </trkpt>
      <trkpt lat="46.97974" lon="8.7288">
        <ele>585</ele>
        <time>2021-08-05T11:23:18.300Z</time>
      </trkpt>
      <trkpt lat="46.97973" lon="8.72882">
        <ele>585</ele>
        <time>2021-08-05T11:23:19.300Z</time>
      </trkpt>
      <trkpt lat="46.97972" lon="8.72884">
        <ele>585</ele>
        <time>2021-08-05T11:23:20.301Z</time>
      </trkpt>
      <trkpt lat="46.97971" lon="8.72885">
        <ele>585</ele>
        <time>2021-08-05T11:23:21.301Z</time>
      </trkpt>
      <trkpt lat="46.9797" lon="8.72887">
        <ele>585</ele>
        <time>2021-08-05T11:23:22.301Z</time>
      </trkpt>
      <trkpt lat="46.9797" lon="8.72888">
        <ele>585</ele>
        <time>2021-08-05T11:23:23.301Z</time>
      </trkpt>
      <trkpt lat="46.97969" lon="8.7289">
        <ele>585</ele>
        <time>2021-08-05T11:23:24.300Z</time>
      </trkpt>
      <trkpt lat="46.97968" lon="8.72891">
        <ele>585</ele>
        <time>2021-08-05T11:23:25.300Z</time>
      </trkpt>
      <trkpt lat="46.97967" lon="8.72893">
        <ele>584</ele>
        <time>2021-08-05T11:23:26.301Z</time>
      </trkpt>
      <trkpt lat="46.97966" lon="8.72895">
        <ele>584</ele>
        <time>2021-08-05T11:23:27.300Z</time>
      </trkpt>
      <trkpt lat="46.97966" lon="8.72897">
        <ele>583</ele>
        <time>2021-08-05T11:23:28.300Z</time>
      </trkpt>
      <trkpt lat="46.97965" lon="8.72899">
        <ele>583</ele>
        <time>2021-08-05T11:23:29.301Z</time>
      </trkpt>
      <trkpt lat="46.97964" lon="8.729">
        <ele>583</ele>
        <time>2021-08-05T11:23:30.301Z</time>
      </trkpt>
      <trkpt lat="46.97964" lon="8.72902">
        <ele>583</ele>
        <time>2021-08-05T11:23:31.300Z</time>
      </trkpt>
      <trkpt lat="46.97963" lon="8.72903">
        <ele>583</ele>
        <time>2021-08-05T11:23:32.300Z</time>
      </trkpt>
      <trkpt lat="46.97962" lon="8.72904">
        <ele>583</ele>
        <time>2021-08-05T11:23:33.300Z</time>
      </trkpt>
      <trkpt lat="46.97962" lon="8.72905">
        <ele>583</ele>
        <time>2021-08-05T11:23:34.300Z</time>
      </trkpt>
      <trkpt lat="46.97961" lon="8.72907">
        <ele>583</ele>
        <time>2021-08-05T11:23:35.300Z</time>
      </trkpt>
      <trkpt lat="46.9796" lon="8.72908">
        <ele>583</ele>
        <time>2021-08-05T11:23:36.300Z</time>
      </trkpt>
      <trkpt lat="46.9796" lon="8.7291">
        <ele>583</ele>
        <time>2021-08-05T11:23:37.300Z</time>
      </trkpt>
      <trkpt lat="46.97959" lon="8.72911">
        <ele>583</ele>
        <time>2021-08-05T11:23:38.300Z</time>
      </trkpt>
      <trkpt lat="46.97958" lon="8.72913">
        <ele>583</ele>
        <time>2021-08-05T11:23:39.300Z</time>
      </trkpt>
      <trkpt lat="46.97958" lon="8.72914">
        <ele>583</ele>
        <time>2021-08-05T11:23:40.301Z</time>
      </trkpt>
      <trkpt lat="46.97957" lon="8.72916">
        <ele>582</ele>
        <time>2021-08-05T11:23:41.300Z</time>
      </trkpt>
      <trkpt lat="46.97956" lon="8.72917">
        <ele>582</ele>
        <time>2021-08-05T11:23:42.300Z</time>
      </trkpt>
      <trkpt lat="46.97955" lon="8.72918">
        <ele>581</ele>
        <time>2021-08-05T11:23:43.301Z</time>
      </trkpt>
      <trkpt lat="46.97954" lon="8.7292">
        <ele>581</ele>
        <time>2021-08-05T11:23:44.300Z</time>
      </trkpt>
      <trkpt lat="46.97953" lon="8.72921">
        <ele>581</ele>
        <time>2021-08-05T11:23:45.300Z</time>
      </trkpt>
      <trkpt lat="46.97953" lon="8.72923">
        <ele>581</ele>
        <time>2021-08-05T11:23:46.300Z</time>
      </trkpt>
      <trkpt lat="46.97952" lon="8.72924">
        <ele>581</ele>
        <time>2021-08-05T11:23:47.300Z</time>
      </trkpt>
      <trkpt lat="46.97951" lon="8.72925">
        <ele>581</ele>
        <time>2021-08-05T11:23:48.300Z</time>
      </trkpt>
      <trkpt lat="46.97951" lon="8.72926">
        <ele>581</ele>
        <time>2021-08-05T11:23:49.301Z</time>
      </trkpt>
      <trkpt lat="46.9795" lon="8.72928">
        <ele>581</ele>
        <time>2021-08-05T11:23:50.301Z</time>
      </trkpt>
      <trkpt lat="46.97949" lon="8.72929">
        <ele>581</ele>
        <time>2021-08-05T11:23:51.301Z</time>
      </trkpt>
      <trkpt lat="46.97948" lon="8.72931">
        <ele>581</ele>
        <time>2021-08-05T11:23:52.301Z</time>
      </trkpt>
      <trkpt lat="46.97948" lon="8.72932">
        <ele>582</ele>
        <time>2021-08-05T11:23:53.301Z</time>
      </trkpt>
      <trkpt lat="46.97947" lon="8.72934">
        <ele>582</ele>
        <time>2021-08-05T11:23:54.301Z</time>
      </trkpt>
      <trkpt lat="46.97946" lon="8.72935">
        <ele>582</ele>
        <time>2021-08-05T11:23:55.301Z</time>
      </trkpt>
      <trkpt lat="46.97946" lon="8.72937">
        <ele>582</ele>
        <time>2021-08-05T11:23:56.301Z</time>
      </trkpt>
      <trkpt lat="46.97945" lon="8.72938">
        <ele>583</ele>
        <time>2021-08-05T11:23:57.301Z</time>
      </trkpt>
      <trkpt lat="46.97944" lon="8.7294">
        <ele>583</ele>
        <time>2021-08-05T11:23:58.300Z</time>
      </trkpt>
      <trkpt lat="46.97943" lon="8.72941">
        <ele>584</ele>
        <time>2021-08-05T11:23:59.301Z</time>
      </trkpt>
      <trkpt lat="46.97942" lon="8.72943">
        <ele>584</ele>
        <time>2021-08-05T11:24:00.301Z</time>
      </trkpt>
      <trkpt lat="46.97942" lon="8.72945">
        <ele>585</ele>
        <time>2021-08-05T11:24:01.301Z</time>
      </trkpt>
      <trkpt lat="46.97941" lon="8.72947">
        <ele>585</ele>
        <time>2021-08-05T11:24:02.301Z</time>
      </trkpt>
      <trkpt lat="46.9794" lon="8.72948">
        <ele>585</ele>
        <time>2021-08-05T11:24:03.301Z</time>
      </trkpt>
      <trkpt lat="46.9794" lon="8.7295">
        <ele>585</ele>
        <time>2021-08-05T11:24:04.301Z</time>
      </trkpt>
      <trkpt lat="46.97939" lon="8.72951">
        <ele>586</ele>
        <time>2021-08-05T11:24:05.300Z</time>
      </trkpt>
      <trkpt lat="46.97939" lon="8.72953">
        <ele>586</ele>
        <time>2021-08-05T11:24:06.301Z</time>
      </trkpt>
      <trkpt lat="46.97938" lon="8.72954">
        <ele>586</ele>
        <time>2021-08-05T11:24:07.301Z</time>
      </trkpt>
      <trkpt lat="46.97938" lon="8.72955">
        <ele>586</ele>
        <time>2021-08-05T11:24:08.300Z</time>
      </trkpt>
      <trkpt lat="46.97937" lon="8.72956">
        <ele>586</ele>
        <time>2021-08-05T11:24:09.300Z</time>
      </trkpt>
      <trkpt lat="46.97937" lon="8.72957">
        <ele>586</ele>
        <time>2021-08-05T11:24:12.283Z</time>
      </trkpt>
      <trkpt lat="46.97936" lon="8.72959">
        <ele>586</ele>
        <time>2021-08-05T11:24:13.283Z</time>
      </trkpt>
      <trkpt lat="46.97935" lon="8.7296">
        <ele>586</ele>
        <time>2021-08-05T11:24:14.284Z</time>
      </trkpt>
      <trkpt lat="46.97935" lon="8.72961">
        <ele>586</ele>
        <time>2021-08-05T11:24:15.283Z</time>
      </trkpt>
      <trkpt lat="46.97934" lon="8.72963">
        <ele>586</ele>
        <time>2021-08-05T11:24:16.284Z</time>
      </trkpt>
      <trkpt lat="46.97934" lon="8.72964">
        <ele>586</ele>
        <time>2021-08-05T11:24:17.284Z</time>
      </trkpt>
      <trkpt lat="46.97933" lon="8.72965">
        <ele>585</ele>
        <time>2021-08-05T11:24:18.284Z</time>
      </trkpt>
      <trkpt lat="46.97932" lon="8.72967">
        <ele>585</ele>
        <time>2021-08-05T11:24:19.284Z</time>
      </trkpt>
      <trkpt lat="46.97932" lon="8.72968">
        <ele>585</ele>
        <time>2021-08-05T11:24:20.283Z</time>
      </trkpt>
      <trkpt lat="46.97931" lon="8.72969">
        <ele>586</ele>
        <time>2021-08-05T11:24:21.284Z</time>
      </trkpt>
      <trkpt lat="46.97931" lon="8.72971">
        <ele>586</ele>
        <time>2021-08-05T11:24:22.284Z</time>
      </trkpt>
      <trkpt lat="46.9793" lon="8.72972">
        <ele>586</ele>
        <time>2021-08-05T11:24:23.284Z</time>
      </trkpt>
      <trkpt lat="46.9793" lon="8.72973">
        <ele>587</ele>
        <time>2021-08-05T11:24:24.284Z</time>
      </trkpt>
      <trkpt lat="46.97929" lon="8.72974">
        <ele>587</ele>
        <time>2021-08-05T11:24:25.283Z</time>
      </trkpt>
      <trkpt lat="46.97928" lon="8.72975">
        <ele>588</ele>
        <time>2021-08-05T11:24:26.283Z</time>
      </trkpt>
      <trkpt lat="46.97927" lon="8.72976">
        <ele>588</ele>
        <time>2021-08-05T11:24:27.283Z</time>
      </trkpt>
      <trkpt lat="46.97926" lon="8.72977">
        <ele>588</ele>
        <time>2021-08-05T11:24:28.283Z</time>
      </trkpt>
      <trkpt lat="46.97925" lon="8.72978">
        <ele>588</ele>
        <time>2021-08-05T11:24:29.284Z</time>
      </trkpt>
      <trkpt lat="46.97924" lon="8.7298">
        <ele>588</ele>
        <time>2021-08-05T11:24:30.283Z</time>
      </trkpt>
      <trkpt lat="46.97923" lon="8.72982">
        <ele>588</ele>
        <time>2021-08-05T11:24:31.283Z</time>
      </trkpt>
      <trkpt lat="46.97923" lon="8.72983">
        <ele>588</ele>
        <time>2021-08-05T11:24:32.284Z</time>
      </trkpt>
      <trkpt lat="46.97922" lon="8.72985">
        <ele>588</ele>
        <time>2021-08-05T11:24:33.283Z</time>
      </trkpt>
      <trkpt lat="46.97921" lon="8.72986">
        <ele>589</ele>
        <time>2021-08-05T11:24:34.284Z</time>
      </trkpt>
      <trkpt lat="46.9792" lon="8.72987">
        <ele>589</ele>
        <time>2021-08-05T11:24:35.284Z</time>
      </trkpt>
      <trkpt lat="46.97919" lon="8.72988">
        <ele>589</ele>
        <time>2021-08-05T11:24:36.284Z</time>
      </trkpt>
      <trkpt lat="46.97919" lon="8.7299">
        <ele>589</ele>
        <time>2021-08-05T11:24:37.283Z</time>
      </trkpt>
      <trkpt lat="46.97918" lon="8.72992">
        <ele>589</ele>
        <time>2021-08-05T11:24:38.283Z</time>
      </trkpt>
      <trkpt lat="46.97917" lon="8.72993">
        <ele>589</ele>
        <time>2021-08-05T11:24:39.284Z</time>
      </trkpt>
      <trkpt lat="46.97917" lon="8.72994">
        <ele>589</ele>
        <time>2021-08-05T11:24:40.283Z</time>
      </trkpt>
      <trkpt lat="46.97916" lon="8.72996">
        <ele>589</ele>
        <time>2021-08-05T11:24:41.283Z</time>
      </trkpt>
      <trkpt lat="46.97915" lon="8.72997">
        <ele>588</ele>
        <time>2021-08-05T11:24:42.284Z</time>
      </trkpt>
      <trkpt lat="46.97914" lon="8.72999">
        <ele>588</ele>
        <time>2021-08-05T11:24:43.284Z</time>
      </trkpt>
      <trkpt lat="46.97913" lon="8.73">
        <ele>588</ele>
        <time>2021-08-05T11:24:44.283Z</time>
      </trkpt>
      <trkpt lat="46.97912" lon="8.73001">
        <ele>587</ele>
        <time>2021-08-05T11:24:45.283Z</time>
      </trkpt>
      <trkpt lat="46.97911" lon="8.73002">
        <ele>587</ele>
        <time>2021-08-05T11:24:46.284Z</time>
      </trkpt>
      <trkpt lat="46.9791" lon="8.73003">
        <ele>586</ele>
        <time>2021-08-05T11:24:47.284Z</time>
      </trkpt>
      <trkpt lat="46.97909" lon="8.73005">
        <ele>586</ele>
        <time>2021-08-05T11:24:48.283Z</time>
      </trkpt>
      <trkpt lat="46.97908" lon="8.73006">
        <ele>586</ele>
        <time>2021-08-05T11:24:49.284Z</time>
      </trkpt>
      <trkpt lat="46.97907" lon="8.73007">
        <ele>586</ele>
        <time>2021-08-05T11:24:50.283Z</time>
      </trkpt>
      <trkpt lat="46.97906" lon="8.73008">
        <ele>586</ele>
        <time>2021-08-05T11:24:51.283Z</time>
      </trkpt>
      <trkpt lat="46.97905" lon="8.73009">
        <ele>587</ele>
        <time>2021-08-05T11:24:52.283Z</time>
      </trkpt>
      <trkpt lat="46.97904" lon="8.73011">
        <ele>587</ele>
        <time>2021-08-05T11:24:53.284Z</time>
      </trkpt>
      <trkpt lat="46.97903" lon="8.73012">
        <ele>588</ele>
        <time>2021-08-05T11:24:54.284Z</time>
      </trkpt>
      <trkpt lat="46.97902" lon="8.73013">
        <ele>588</ele>
        <time>2021-08-05T11:24:55.284Z</time>
      </trkpt>
      <trkpt lat="46.97901" lon="8.73014">
        <ele>588</ele>
        <time>2021-08-05T11:24:56.283Z</time>
      </trkpt>
      <trkpt lat="46.979" lon="8.73015">
        <ele>588</ele>
        <time>2021-08-05T11:24:57.284Z</time>
      </trkpt>
      <trkpt lat="46.97899" lon="8.73016">
        <ele>588</ele>
        <time>2021-08-05T11:24:58.284Z</time>
      </trkpt>
      <trkpt lat="46.97898" lon="8.73017">
        <ele>588</ele>
        <time>2021-08-05T11:24:59.284Z</time>
      </trkpt>
      <trkpt lat="46.97897" lon="8.73018">
        <ele>589</ele>
        <time>2021-08-05T11:25:00.283Z</time>
      </trkpt>
      <trkpt lat="46.97896" lon="8.73019">
        <ele>589</ele>
        <time>2021-08-05T11:25:01.283Z</time>
      </trkpt>
      <trkpt lat="46.97895" lon="8.73021">
        <ele>589</ele>
        <time>2021-08-05T11:25:02.284Z</time>
      </trkpt>
      <trkpt lat="46.97894" lon="8.73022">
        <ele>590</ele>
        <time>2021-08-05T11:25:03.284Z</time>
      </trkpt>
      <trkpt lat="46.97893" lon="8.73023">
        <ele>590</ele>
        <time>2021-08-05T11:25:04.283Z</time>
      </trkpt>
      <trkpt lat="46.97892" lon="8.73025">
        <ele>590</ele>
        <time>2021-08-05T11:25:05.284Z</time>
      </trkpt>
      <trkpt lat="46.97892" lon="8.73026">
        <ele>590</ele>
        <time>2021-08-05T11:25:06.284Z</time>
      </trkpt>
      <trkpt lat="46.97891" lon="8.73028">
        <ele>589</ele>
        <time>2021-08-05T11:25:07.284Z</time>
      </trkpt>
      <trkpt lat="46.97891" lon="8.73029">
        <ele>589</ele>
        <time>2021-08-05T11:25:08.283Z</time>
      </trkpt>
      <trkpt lat="46.97891" lon="8.73031">
        <ele>589</ele>
        <time>2021-08-05T11:25:09.284Z</time>
      </trkpt>
      <trkpt lat="46.97891" lon="8.73033">
        <ele>589</ele>
        <time>2021-08-05T11:25:10.283Z</time>
      </trkpt>
      <trkpt lat="46.97891" lon="8.73035">
        <ele>588</ele>
        <time>2021-08-05T11:25:11.284Z</time>
      </trkpt>
      <trkpt lat="46.97891" lon="8.73037">
        <ele>588</ele>
        <time>2021-08-05T11:25:12.284Z</time>
      </trkpt>
      <trkpt lat="46.97891" lon="8.73039">
        <ele>588</ele>
        <time>2021-08-05T11:25:13.284Z</time>
      </trkpt>
      <trkpt lat="46.97891" lon="8.73041">
        <ele>587</ele>
        <time>2021-08-05T11:25:14.283Z</time>
      </trkpt>
      <trkpt lat="46.9789" lon="8.73043">
        <ele>587</ele>
        <time>2021-08-05T11:25:15.284Z</time>
      </trkpt>
      <trkpt lat="46.9789" lon="8.73045">
        <ele>587</ele>
        <time>2021-08-05T11:25:16.284Z</time>
      </trkpt>
      <trkpt lat="46.97889" lon="8.73047">
        <ele>587</ele>
        <time>2021-08-05T11:25:17.284Z</time>
      </trkpt>
      <trkpt lat="46.97888" lon="8.73048">
        <ele>588</ele>
        <time>2021-08-05T11:25:18.284Z</time>
      </trkpt>
      <trkpt lat="46.97887" lon="8.7305">
        <ele>588</ele>
        <time>2021-08-05T11:25:19.283Z</time>
      </trkpt>
      <trkpt lat="46.97887" lon="8.73051">
        <ele>588</ele>
        <time>2021-08-05T11:25:20.283Z</time>
      </trkpt>
      <trkpt lat="46.97886" lon="8.73053">
        <ele>588</ele>
        <time>2021-08-05T11:25:21.284Z</time>
      </trkpt>
      <trkpt lat="46.97886" lon="8.73055">
        <ele>588</ele>
        <time>2021-08-05T11:25:22.283Z</time>
      </trkpt>
      <trkpt lat="46.97885" lon="8.73056">
        <ele>589</ele>
        <time>2021-08-05T11:25:23.284Z</time>
      </trkpt>
      <trkpt lat="46.97885" lon="8.73058">
        <ele>589</ele>
        <time>2021-08-05T11:25:24.283Z</time>
      </trkpt>
      <trkpt lat="46.97884" lon="8.73059">
        <ele>590</ele>
        <time>2021-08-05T11:25:25.283Z</time>
      </trkpt>
      <trkpt lat="46.97884" lon="8.73061">
        <ele>590</ele>
        <time>2021-08-05T11:25:26.283Z</time>
      </trkpt>
      <trkpt lat="46.97883" lon="8.73063">
        <ele>591</ele>
        <time>2021-08-05T11:25:27.284Z</time>
      </trkpt>
      <trkpt lat="46.97882" lon="8.73064">
        <ele>591</ele>
        <time>2021-08-05T11:25:28.284Z</time>
      </trkpt>
      <trkpt lat="46.97882" lon="8.73066">
        <ele>591</ele>
        <time>2021-08-05T11:25:29.284Z</time>
      </trkpt>
      <trkpt lat="46.97881" lon="8.73068">
        <ele>592</ele>
        <time>2021-08-05T11:25:30.284Z</time>
      </trkpt>
      <trkpt lat="46.97881" lon="8.7307">
        <ele>592</ele>
        <time>2021-08-05T11:25:31.284Z</time>
      </trkpt>
      <trkpt lat="46.9788" lon="8.73072">
        <ele>592</ele>
        <time>2021-08-05T11:25:32.283Z</time>
      </trkpt>
      <trkpt lat="46.97879" lon="8.73073">
        <ele>593</ele>
        <time>2021-08-05T11:25:33.284Z</time>
      </trkpt>
      <trkpt lat="46.97879" lon="8.73075">
        <ele>593</ele>
        <time>2021-08-05T11:25:34.283Z</time>
      </trkpt>
      <trkpt lat="46.97878" lon="8.73077">
        <ele>593</ele>
        <time>2021-08-05T11:25:35.283Z</time>
      </trkpt>
      <trkpt lat="46.97878" lon="8.73079">
        <ele>593</ele>
        <time>2021-08-05T11:25:36.284Z</time>
      </trkpt>
      <trkpt lat="46.97878" lon="8.73081">
        <ele>593</ele>
        <time>2021-08-05T11:25:37.284Z</time>
      </trkpt>
      <trkpt lat="46.97877" lon="8.73084">
        <ele>593</ele>
        <time>2021-08-05T11:25:38.283Z</time>
      </trkpt>
      <trkpt lat="46.97877" lon="8.73085">
        <ele>593</ele>
        <time>2021-08-05T11:25:39.284Z</time>
      </trkpt>
      <trkpt lat="46.97877" lon="8.73087">
        <ele>593</ele>
        <time>2021-08-05T11:25:40.284Z</time>
      </trkpt>
      <trkpt lat="46.97877" lon="8.73089">
        <ele>593</ele>
        <time>2021-08-05T11:25:41.284Z</time>
      </trkpt>
      <trkpt lat="46.97877" lon="8.73091">
        <ele>592</ele>
        <time>2021-08-05T11:25:42.284Z</time>
      </trkpt>
      <trkpt lat="46.97877" lon="8.73093">
        <ele>592</ele>
        <time>2021-08-05T11:25:43.283Z</time>
      </trkpt>
      <trkpt lat="46.97877" lon="8.73094">
        <ele>592</ele>
        <time>2021-08-05T11:25:44.284Z</time>
      </trkpt>
      <trkpt lat="46.97877" lon="8.73096">
        <ele>591</ele>
        <time>2021-08-05T11:25:45.284Z</time>
      </trkpt>
      <trkpt lat="46.97876" lon="8.73098">
        <ele>591</ele>
        <time>2021-08-05T11:25:46.284Z</time>
      </trkpt>
      <trkpt lat="46.97876" lon="8.73101">
        <ele>591</ele>
        <time>2021-08-05T11:25:47.284Z</time>
      </trkpt>
      <trkpt lat="46.97877" lon="8.73102">
        <ele>591</ele>
        <time>2021-08-05T11:25:48.284Z</time>
      </trkpt>
      <trkpt lat="46.97877" lon="8.73104">
        <ele>591</ele>
        <time>2021-08-05T11:25:49.284Z</time>
      </trkpt>
      <trkpt lat="46.97876" lon="8.73106">
        <ele>590</ele>
        <time>2021-08-05T11:25:50.283Z</time>
      </trkpt>
      <trkpt lat="46.97876" lon="8.73108">
        <ele>590</ele>
        <time>2021-08-05T11:25:51.283Z</time>
      </trkpt>
      <trkpt lat="46.97876" lon="8.7311">
        <ele>590</ele>
        <time>2021-08-05T11:25:52.283Z</time>
      </trkpt>
      <trkpt lat="46.97876" lon="8.73112">
        <ele>591</ele>
        <time>2021-08-05T11:25:53.284Z</time>
      </trkpt>
      <trkpt lat="46.97876" lon="8.73114">
        <ele>591</ele>
        <time>2021-08-05T11:25:54.283Z</time>
      </trkpt>
      <trkpt lat="46.97876" lon="8.73116">
        <ele>591</ele>
        <time>2021-08-05T11:25:55.284Z</time>
      </trkpt>
      <trkpt lat="46.97876" lon="8.73118">
        <ele>591</ele>
        <time>2021-08-05T11:25:56.284Z</time>
      </trkpt>
      <trkpt lat="46.97875" lon="8.7312">
        <ele>591</ele>
        <time>2021-08-05T11:25:57.284Z</time>
      </trkpt>
      <trkpt lat="46.97875" lon="8.73122">
        <ele>590</ele>
        <time>2021-08-05T11:25:58.284Z</time>
      </trkpt>
      <trkpt lat="46.97875" lon="8.73124">
        <ele>590</ele>
        <time>2021-08-05T11:25:59.283Z</time>
      </trkpt>
      <trkpt lat="46.97876" lon="8.73126">
        <ele>590</ele>
        <time>2021-08-05T11:26:00.284Z</time>
      </trkpt>
      <trkpt lat="46.97876" lon="8.73127">
        <ele>590</ele>
        <time>2021-08-05T11:26:01.283Z</time>
      </trkpt>
      <trkpt lat="46.97876" lon="8.73129">
        <ele>589</ele>
        <time>2021-08-05T11:26:02.284Z</time>
      </trkpt>
      <trkpt lat="46.97876" lon="8.73131">
        <ele>589</ele>
        <time>2021-08-05T11:26:03.284Z</time>
      </trkpt>
      <trkpt lat="46.97876" lon="8.73133">
        <ele>588</ele>
        <time>2021-08-05T11:26:04.284Z</time>
      </trkpt>
      <trkpt lat="46.97876" lon="8.73135">
        <ele>587</ele>
        <time>2021-08-05T11:26:05.284Z</time>
      </trkpt>
      <trkpt lat="46.97877" lon="8.73137">
        <ele>587</ele>
        <time>2021-08-05T11:26:06.284Z</time>
      </trkpt>
      <trkpt lat="46.97877" lon="8.73139">
        <ele>587</ele>
        <time>2021-08-05T11:26:07.283Z</time>
      </trkpt>
      <trkpt lat="46.97877" lon="8.73141">
        <ele>587</ele>
        <time>2021-08-05T11:26:08.284Z</time>
      </trkpt>
      <trkpt lat="46.97876" lon="8.73143">
        <ele>587</ele>
        <time>2021-08-05T11:26:09.284Z</time>
      </trkpt>
      <trkpt lat="46.97876" lon="8.73145">
        <ele>587</ele>
        <time>2021-08-05T11:26:10.284Z</time>
      </trkpt>
      <trkpt lat="46.97876" lon="8.73147">
        <ele>587</ele>
        <time>2021-08-05T11:26:11.284Z</time>
      </trkpt>
      <trkpt lat="46.97876" lon="8.73148">
        <ele>588</ele>
        <time>2021-08-05T11:26:12.284Z</time>
      </trkpt>
      <trkpt lat="46.97875" lon="8.73149">
        <ele>588</ele>
        <time>2021-08-05T11:26:13.283Z</time>
      </trkpt>
      <trkpt lat="46.97875" lon="8.7315">
        <ele>589</ele>
        <time>2021-08-05T11:26:14.284Z</time>
      </trkpt>
      <trkpt lat="46.97874" lon="8.73152">
        <ele>589</ele>
        <time>2021-08-05T11:26:15.283Z</time>
      </trkpt>
      <trkpt lat="46.97874" lon="8.73154">
        <ele>590</ele>
        <time>2021-08-05T11:26:16.284Z</time>
      </trkpt>
      <trkpt lat="46.97871" lon="8.73162">
        <ele>590</ele>
        <time>2021-08-05T11:26:19.286Z</time>
      </trkpt>
      <trkpt lat="46.97872" lon="8.73164">
        <ele>590</ele>
        <time>2021-08-05T11:26:20.285Z</time>
      </trkpt>
      <trkpt lat="46.97873" lon="8.73165">
        <ele>590</ele>
        <time>2021-08-05T11:26:21.285Z</time>
      </trkpt>
      <trkpt lat="46.97874" lon="8.73167">
        <ele>590</ele>
        <time>2021-08-05T11:26:22.285Z</time>
      </trkpt>
      <trkpt lat="46.97875" lon="8.73168">
        <ele>590</ele>
        <time>2021-08-05T11:26:23.286Z</time>
      </trkpt>
      <trkpt lat="46.97875" lon="8.73169">
        <ele>590</ele>
        <time>2021-08-05T11:26:24.286Z</time>
      </trkpt>
      <trkpt lat="46.97876" lon="8.73171">
        <ele>591</ele>
        <time>2021-08-05T11:26:25.286Z</time>
      </trkpt>
      <trkpt lat="46.97876" lon="8.73173">
        <ele>591</ele>
        <time>2021-08-05T11:26:26.286Z</time>
      </trkpt>
      <trkpt lat="46.97876" lon="8.73175">
        <ele>591</ele>
        <time>2021-08-05T11:26:27.285Z</time>
      </trkpt>
      <trkpt lat="46.97877" lon="8.73176">
        <ele>591</ele>
        <time>2021-08-05T11:26:28.286Z</time>
      </trkpt>
      <trkpt lat="46.97877" lon="8.73178">
        <ele>591</ele>
        <time>2021-08-05T11:26:29.286Z</time>
      </trkpt>
      <trkpt lat="46.97877" lon="8.73182">
        <ele>591</ele>
        <time>2021-08-05T11:26:30.285Z</time>
      </trkpt>
      <trkpt lat="46.97878" lon="8.73185">
        <ele>592</ele>
        <time>2021-08-05T11:26:31.286Z</time>
      </trkpt>
      <trkpt lat="46.97878" lon="8.73187">
        <ele>592</ele>
        <time>2021-08-05T11:26:32.286Z</time>
      </trkpt>
      <trkpt lat="46.97878" lon="8.73189">
        <ele>592</ele>
        <time>2021-08-05T11:26:33.286Z</time>
      </trkpt>
      <trkpt lat="46.97878" lon="8.73191">
        <ele>592</ele>
        <time>2021-08-05T11:26:34.286Z</time>
      </trkpt>
      <trkpt lat="46.97878" lon="8.73194">
        <ele>592</ele>
        <time>2021-08-05T11:26:35.286Z</time>
      </trkpt>
      <trkpt lat="46.97878" lon="8.73195">
        <ele>593</ele>
        <time>2021-08-05T11:26:36.285Z</time>
      </trkpt>
      <trkpt lat="46.97878" lon="8.73197">
        <ele>593</ele>
        <time>2021-08-05T11:26:37.286Z</time>
      </trkpt>
      <trkpt lat="46.97878" lon="8.732">
        <ele>593</ele>
        <time>2021-08-05T11:26:38.286Z</time>
      </trkpt>
      <trkpt lat="46.97877" lon="8.73202">
        <ele>594</ele>
        <time>2021-08-05T11:26:39.285Z</time>
      </trkpt>
      <trkpt lat="46.97877" lon="8.73204">
        <ele>594</ele>
        <time>2021-08-05T11:26:40.285Z</time>
      </trkpt>
      <trkpt lat="46.97877" lon="8.73206">
        <ele>594</ele>
        <time>2021-08-05T11:26:41.286Z</time>
      </trkpt>
      <trkpt lat="46.97877" lon="8.73208">
        <ele>595</ele>
        <time>2021-08-05T11:26:42.285Z</time>
      </trkpt>
      <trkpt lat="46.97877" lon="8.73209">
        <ele>595</ele>
        <time>2021-08-05T11:26:43.286Z</time>
      </trkpt>
      <trkpt lat="46.97876" lon="8.73211">
        <ele>595</ele>
        <time>2021-08-05T11:26:44.285Z</time>
      </trkpt>
      <trkpt lat="46.97876" lon="8.73212">
        <ele>594</ele>
        <time>2021-08-05T11:26:45.286Z</time>
      </trkpt>
      <trkpt lat="46.97876" lon="8.73214">
        <ele>594</ele>
        <time>2021-08-05T11:26:46.286Z</time>
      </trkpt>
      <trkpt lat="46.97876" lon="8.73215">
        <ele>593</ele>
        <time>2021-08-05T11:26:47.286Z</time>
      </trkpt>
      <trkpt lat="46.97876" lon="8.73217">
        <ele>592</ele>
        <time>2021-08-05T11:26:48.286Z</time>
      </trkpt>
      <trkpt lat="46.97876" lon="8.73218">
        <ele>592</ele>
        <time>2021-08-05T11:26:49.285Z</time>
      </trkpt>
      <trkpt lat="46.97875" lon="8.7322">
        <ele>592</ele>
        <time>2021-08-05T11:26:50.285Z</time>
      </trkpt>
      <trkpt lat="46.97875" lon="8.73222">
        <ele>592</ele>
        <time>2021-08-05T11:26:51.286Z</time>
      </trkpt>
      <trkpt lat="46.97874" lon="8.73224">
        <ele>591</ele>
        <time>2021-08-05T11:26:52.285Z</time>
      </trkpt>
      <trkpt lat="46.97874" lon="8.73225">
        <ele>591</ele>
        <time>2021-08-05T11:26:53.286Z</time>
      </trkpt>
      <trkpt lat="46.97873" lon="8.73227">
        <ele>591</ele>
        <time>2021-08-05T11:26:54.286Z</time>
      </trkpt>
      <trkpt lat="46.97873" lon="8.73229">
        <ele>590</ele>
        <time>2021-08-05T11:26:55.285Z</time>
      </trkpt>
      <trkpt lat="46.97872" lon="8.7323">
        <ele>589</ele>
        <time>2021-08-05T11:26:56.286Z</time>
      </trkpt>
      <trkpt lat="46.97872" lon="8.73232">
        <ele>588</ele>
        <time>2021-08-05T11:26:57.285Z</time>
      </trkpt>
      <trkpt lat="46.97871" lon="8.73234">
        <ele>588</ele>
        <time>2021-08-05T11:26:58.285Z</time>
      </trkpt>
      <trkpt lat="46.97871" lon="8.73236">
        <ele>588</ele>
        <time>2021-08-05T11:26:59.285Z</time>
      </trkpt>
      <trkpt lat="46.9787" lon="8.73237">
        <ele>588</ele>
        <time>2021-08-05T11:27:00.286Z</time>
      </trkpt>
      <trkpt lat="46.97869" lon="8.73239">
        <ele>588</ele>
        <time>2021-08-05T11:27:01.286Z</time>
      </trkpt>
      <trkpt lat="46.97869" lon="8.73241">
        <ele>588</ele>
        <time>2021-08-05T11:27:02.286Z</time>
      </trkpt>
      <trkpt lat="46.97868" lon="8.73242">
        <ele>588</ele>
        <time>2021-08-05T11:27:03.285Z</time>
      </trkpt>
      <trkpt lat="46.97868" lon="8.73244">
        <ele>588</ele>
        <time>2021-08-05T11:27:04.286Z</time>
      </trkpt>
      <trkpt lat="46.97867" lon="8.73245">
        <ele>587</ele>
        <time>2021-08-05T11:27:05.286Z</time>
      </trkpt>
      <trkpt lat="46.97867" lon="8.73246">
        <ele>587</ele>
        <time>2021-08-05T11:27:06.286Z</time>
      </trkpt>
      <trkpt lat="46.97866" lon="8.73248">
        <ele>587</ele>
        <time>2021-08-05T11:27:07.286Z</time>
      </trkpt>
      <trkpt lat="46.97865" lon="8.7325">
        <ele>587</ele>
        <time>2021-08-05T11:27:08.285Z</time>
      </trkpt>
      <trkpt lat="46.97864" lon="8.73251">
        <ele>587</ele>
        <time>2021-08-05T11:27:09.286Z</time>
      </trkpt>
      <trkpt lat="46.97864" lon="8.73253">
        <ele>587</ele>
        <time>2021-08-05T11:27:10.285Z</time>
      </trkpt>
      <trkpt lat="46.97863" lon="8.73254">
        <ele>587</ele>
        <time>2021-08-05T11:27:11.286Z</time>
      </trkpt>
      <trkpt lat="46.97862" lon="8.73256">
        <ele>587</ele>
        <time>2021-08-05T11:27:12.285Z</time>
      </trkpt>
      <trkpt lat="46.97862" lon="8.73257">
        <ele>588</ele>
        <time>2021-08-05T11:27:13.286Z</time>
      </trkpt>
      <trkpt lat="46.97861" lon="8.73258">
        <ele>588</ele>
        <time>2021-08-05T11:27:14.286Z</time>
      </trkpt>
      <trkpt lat="46.9786" lon="8.7326">
        <ele>588</ele>
        <time>2021-08-05T11:27:15.286Z</time>
      </trkpt>
      <trkpt lat="46.97859" lon="8.73262">
        <ele>589</ele>
        <time>2021-08-05T11:27:16.286Z</time>
      </trkpt>
      <trkpt lat="46.97858" lon="8.73264">
        <ele>589</ele>
        <time>2021-08-05T11:27:17.285Z</time>
      </trkpt>
      <trkpt lat="46.97857" lon="8.73266">
        <ele>589</ele>
        <time>2021-08-05T11:27:18.286Z</time>
      </trkpt>
      <trkpt lat="46.97857" lon="8.73268">
        <ele>589</ele>
        <time>2021-08-05T11:27:19.286Z</time>
      </trkpt>
      <trkpt lat="46.97856" lon="8.73269">
        <ele>589</ele>
        <time>2021-08-05T11:27:20.285Z</time>
      </trkpt>
      <trkpt lat="46.97855" lon="8.7327">
        <ele>589</ele>
        <time>2021-08-05T11:27:21.285Z</time>
      </trkpt>
      <trkpt lat="46.97854" lon="8.73272">
        <ele>589</ele>
        <time>2021-08-05T11:27:22.286Z</time>
      </trkpt>
      <trkpt lat="46.97853" lon="8.73274">
        <ele>590</ele>
        <time>2021-08-05T11:27:23.286Z</time>
      </trkpt>
      <trkpt lat="46.97853" lon="8.73275">
        <ele>591</ele>
        <time>2021-08-05T11:27:24.286Z</time>
      </trkpt>
      <trkpt lat="46.97852" lon="8.73276">
        <ele>591</ele>
        <time>2021-08-05T11:27:25.286Z</time>
      </trkpt>
      <trkpt lat="46.97851" lon="8.73277">
        <ele>592</ele>
        <time>2021-08-05T11:27:26.286Z</time>
      </trkpt>
      <trkpt lat="46.97851" lon="8.73278">
        <ele>593</ele>
        <time>2021-08-05T11:27:27.286Z</time>
      </trkpt>
      <trkpt lat="46.9785" lon="8.7328">
        <ele>594</ele>
        <time>2021-08-05T11:27:28.286Z</time>
      </trkpt>
      <trkpt lat="46.97849" lon="8.73282">
        <ele>594</ele>
        <time>2021-08-05T11:27:29.286Z</time>
      </trkpt>
      <trkpt lat="46.97849" lon="8.73283">
        <ele>594</ele>
        <time>2021-08-05T11:27:30.285Z</time>
      </trkpt>
      <trkpt lat="46.97848" lon="8.73285">
        <ele>595</ele>
        <time>2021-08-05T11:27:31.285Z</time>
      </trkpt>
      <trkpt lat="46.97847" lon="8.73287">
        <ele>595</ele>
        <time>2021-08-05T11:27:32.285Z</time>
      </trkpt>
      <trkpt lat="46.97846" lon="8.73289">
        <ele>595</ele>
        <time>2021-08-05T11:27:33.285Z</time>
      </trkpt>
      <trkpt lat="46.97846" lon="8.7329">
        <ele>595</ele>
        <time>2021-08-05T11:27:34.285Z</time>
      </trkpt>
      <trkpt lat="46.97845" lon="8.73292">
        <ele>595</ele>
        <time>2021-08-05T11:27:35.285Z</time>
      </trkpt>
      <trkpt lat="46.97844" lon="8.73293">
        <ele>595</ele>
        <time>2021-08-05T11:27:36.286Z</time>
      </trkpt>
      <trkpt lat="46.97843" lon="8.73293">
        <ele>595</ele>
        <time>2021-08-05T11:27:37.285Z</time>
      </trkpt>
      <trkpt lat="46.97841" lon="8.73294">
        <ele>595</ele>
        <time>2021-08-05T11:27:38.286Z</time>
      </trkpt>
      <trkpt lat="46.97841" lon="8.73296">
        <ele>595</ele>
        <time>2021-08-05T11:27:39.286Z</time>
      </trkpt>
      <trkpt lat="46.9784" lon="8.73297">
        <ele>595</ele>
        <time>2021-08-05T11:27:40.285Z</time>
      </trkpt>
      <trkpt lat="46.97839" lon="8.73299">
        <ele>595</ele>
        <time>2021-08-05T11:27:41.286Z</time>
      </trkpt>
      <trkpt lat="46.97839" lon="8.733">
        <ele>595</ele>
        <time>2021-08-05T11:27:42.285Z</time>
      </trkpt>
      <trkpt lat="46.97838" lon="8.73302">
        <ele>594</ele>
        <time>2021-08-05T11:27:43.286Z</time>
      </trkpt>
      <trkpt lat="46.97838" lon="8.73304">
        <ele>594</ele>
        <time>2021-08-05T11:27:44.285Z</time>
      </trkpt>
      <trkpt lat="46.97837" lon="8.73305">
        <ele>594</ele>
        <time>2021-08-05T11:27:45.285Z</time>
      </trkpt>
      <trkpt lat="46.97836" lon="8.73306">
        <ele>594</ele>
        <time>2021-08-05T11:27:46.285Z</time>
      </trkpt>
      <trkpt lat="46.97835" lon="8.73307">
        <ele>593</ele>
        <time>2021-08-05T11:27:47.286Z</time>
      </trkpt>
      <trkpt lat="46.97835" lon="8.73309">
        <ele>593</ele>
        <time>2021-08-05T11:27:48.285Z</time>
      </trkpt>
      <trkpt lat="46.97834" lon="8.7331">
        <ele>593</ele>
        <time>2021-08-05T11:27:49.285Z</time>
      </trkpt>
      <trkpt lat="46.97833" lon="8.73312">
        <ele>593</ele>
        <time>2021-08-05T11:27:50.286Z</time>
      </trkpt>
      <trkpt lat="46.97832" lon="8.73314">
        <ele>593</ele>
        <time>2021-08-05T11:27:51.286Z</time>
      </trkpt>
      <trkpt lat="46.97832" lon="8.73316">
        <ele>593</ele>
        <time>2021-08-05T11:27:52.285Z</time>
      </trkpt>
      <trkpt lat="46.97832" lon="8.73318">
        <ele>593</ele>
        <time>2021-08-05T11:27:53.285Z</time>
      </trkpt>
      <trkpt lat="46.97831" lon="8.73319">
        <ele>592</ele>
        <time>2021-08-05T11:27:54.285Z</time>
      </trkpt>
      <trkpt lat="46.97831" lon="8.73321">
        <ele>592</ele>
        <time>2021-08-05T11:27:55.285Z</time>
      </trkpt>
      <trkpt lat="46.9783" lon="8.73323">
        <ele>592</ele>
        <time>2021-08-05T11:27:56.285Z</time>
      </trkpt>
      <trkpt lat="46.9783" lon="8.73325">
        <ele>592</ele>
        <time>2021-08-05T11:27:57.286Z</time>
      </trkpt>
      <trkpt lat="46.9783" lon="8.73327">
        <ele>592</ele>
        <time>2021-08-05T11:27:58.285Z</time>
      </trkpt>
      <trkpt lat="46.97831" lon="8.73329">
        <ele>591</ele>
        <time>2021-08-05T11:27:59.285Z</time>
      </trkpt>
      <trkpt lat="46.97831" lon="8.7333">
        <ele>591</ele>
        <time>2021-08-05T11:28:00.285Z</time>
      </trkpt>
      <trkpt lat="46.97831" lon="8.73332">
        <ele>591</ele>
        <time>2021-08-05T11:28:01.286Z</time>
      </trkpt>
      <trkpt lat="46.97831" lon="8.73333">
        <ele>590</ele>
        <time>2021-08-05T11:28:02.285Z</time>
      </trkpt>
      <trkpt lat="46.97832" lon="8.73335">
        <ele>590</ele>
        <time>2021-08-05T11:28:03.285Z</time>
      </trkpt>
      <trkpt lat="46.97832" lon="8.73336">
        <ele>590</ele>
        <time>2021-08-05T11:28:04.285Z</time>
      </trkpt>
      <trkpt lat="46.97832" lon="8.73338">
        <ele>590</ele>
        <time>2021-08-05T11:28:05.285Z</time>
      </trkpt>
      <trkpt lat="46.97833" lon="8.73339">
        <ele>590</ele>
        <time>2021-08-05T11:28:06.286Z</time>
      </trkpt>
      <trkpt lat="46.97833" lon="8.7334">
        <ele>590</ele>
        <time>2021-08-05T11:28:07.285Z</time>
      </trkpt>
      <trkpt lat="46.97833" lon="8.73342">
        <ele>590</ele>
        <time>2021-08-05T11:28:08.285Z</time>
      </trkpt>
      <trkpt lat="46.97833" lon="8.73344">
        <ele>591</ele>
        <time>2021-08-05T11:28:09.286Z</time>
      </trkpt>
      <trkpt lat="46.97832" lon="8.73346">
        <ele>591</ele>
        <time>2021-08-05T11:28:10.285Z</time>
      </trkpt>
      <trkpt lat="46.97832" lon="8.73348">
        <ele>591</ele>
        <time>2021-08-05T11:28:11.285Z</time>
      </trkpt>
      <trkpt lat="46.97831" lon="8.7335">
        <ele>592</ele>
        <time>2021-08-05T11:28:12.285Z</time>
      </trkpt>
      <trkpt lat="46.97831" lon="8.73352">
        <ele>592</ele>
        <time>2021-08-05T11:28:13.286Z</time>
      </trkpt>
      <trkpt lat="46.97831" lon="8.73354">
        <ele>592</ele>
        <time>2021-08-05T11:28:14.286Z</time>
      </trkpt>
      <trkpt lat="46.9783" lon="8.73357">
        <ele>593</ele>
        <time>2021-08-05T11:28:15.285Z</time>
      </trkpt>
      <trkpt lat="46.97831" lon="8.73359">
        <ele>593</ele>
        <time>2021-08-05T11:28:16.285Z</time>
      </trkpt>
      <trkpt lat="46.97831" lon="8.7336">
        <ele>592</ele>
        <time>2021-08-05T11:28:17.286Z</time>
      </trkpt>
      <trkpt lat="46.97831" lon="8.73362">
        <ele>592</ele>
        <time>2021-08-05T11:28:18.285Z</time>
      </trkpt>
      <trkpt lat="46.97831" lon="8.73363">
        <ele>591</ele>
        <time>2021-08-05T11:28:19.286Z</time>
      </trkpt>
      <trkpt lat="46.97831" lon="8.73365">
        <ele>591</ele>
        <time>2021-08-05T11:28:20.285Z</time>
      </trkpt>
      <trkpt lat="46.9783" lon="8.73366">
        <ele>591</ele>
        <time>2021-08-05T11:28:21.286Z</time>
      </trkpt>
      <trkpt lat="46.9783" lon="8.73367">
        <ele>590</ele>
        <time>2021-08-05T11:28:22.286Z</time>
      </trkpt>
      <trkpt lat="46.9783" lon="8.73369">
        <ele>590</ele>
        <time>2021-08-05T11:28:23.286Z</time>
      </trkpt>
      <trkpt lat="46.9783" lon="8.7337">
        <ele>589</ele>
        <time>2021-08-05T11:28:24.286Z</time>
      </trkpt>
      <trkpt lat="46.9783" lon="8.73372">
        <ele>589</ele>
        <time>2021-08-05T11:28:25.286Z</time>
      </trkpt>
      <trkpt lat="46.9783" lon="8.73374">
        <ele>589</ele>
        <time>2021-08-05T11:28:26.286Z</time>
      </trkpt>
      <trkpt lat="46.9783" lon="8.73376">
        <ele>589</ele>
        <time>2021-08-05T11:28:27.285Z</time>
      </trkpt>
      <trkpt lat="46.97829" lon="8.73378">
        <ele>589</ele>
        <time>2021-08-05T11:28:28.286Z</time>
      </trkpt>
      <trkpt lat="46.97829" lon="8.7338">
        <ele>589</ele>
        <time>2021-08-05T11:28:29.285Z</time>
      </trkpt>
      <trkpt lat="46.97829" lon="8.73381">
        <ele>590</ele>
        <time>2021-08-05T11:28:30.286Z</time>
      </trkpt>
      <trkpt lat="46.97829" lon="8.73383">
        <ele>590</ele>
        <time>2021-08-05T11:28:31.285Z</time>
      </trkpt>
      <trkpt lat="46.97829" lon="8.73385">
        <ele>590</ele>
        <time>2021-08-05T11:28:32.286Z</time>
      </trkpt>
      <trkpt lat="46.97828" lon="8.73386">
        <ele>591</ele>
        <time>2021-08-05T11:28:33.286Z</time>
      </trkpt>
      <trkpt lat="46.97828" lon="8.73388">
        <ele>591</ele>
        <time>2021-08-05T11:28:34.286Z</time>
      </trkpt>
      <trkpt lat="46.97828" lon="8.7339">
        <ele>591</ele>
        <time>2021-08-05T11:28:35.286Z</time>
      </trkpt>
      <trkpt lat="46.97828" lon="8.73392">
        <ele>591</ele>
        <time>2021-08-05T11:28:36.286Z</time>
      </trkpt>
      <trkpt lat="46.97827" lon="8.73393">
        <ele>591</ele>
        <time>2021-08-05T11:28:37.286Z</time>
      </trkpt>
      <trkpt lat="46.97827" lon="8.73394">
        <ele>591</ele>
        <time>2021-08-05T11:28:38.285Z</time>
      </trkpt>
      <trkpt lat="46.97827" lon="8.73396">
        <ele>591</ele>
        <time>2021-08-05T11:28:39.285Z</time>
      </trkpt>
      <trkpt lat="46.97826" lon="8.73397">
        <ele>592</ele>
        <time>2021-08-05T11:28:40.286Z</time>
      </trkpt>
      <trkpt lat="46.97825" lon="8.73399">
        <ele>592</ele>
        <time>2021-08-05T11:28:41.285Z</time>
      </trkpt>
      <trkpt lat="46.97824" lon="8.734">
        <ele>592</ele>
        <time>2021-08-05T11:28:42.285Z</time>
      </trkpt>
      <trkpt lat="46.97824" lon="8.73402">
        <ele>593</ele>
        <time>2021-08-05T11:28:43.286Z</time>
      </trkpt>
      <trkpt lat="46.97823" lon="8.73404">
        <ele>593</ele>
        <time>2021-08-05T11:28:44.286Z</time>
      </trkpt>
      <trkpt lat="46.97823" lon="8.73405">
        <ele>592</ele>
        <time>2021-08-05T11:28:45.286Z</time>
      </trkpt>
      <trkpt lat="46.97822" lon="8.73407">
        <ele>592</ele>
        <time>2021-08-05T11:28:46.286Z</time>
      </trkpt>
      <trkpt lat="46.97821" lon="8.73408">
        <ele>592</ele>
        <time>2021-08-05T11:28:47.286Z</time>
      </trkpt>
      <trkpt lat="46.9782" lon="8.7341">
        <ele>591</ele>
        <time>2021-08-05T11:28:48.285Z</time>
      </trkpt>
      <trkpt lat="46.9782" lon="8.73411">
        <ele>591</ele>
        <time>2021-08-05T11:28:49.285Z</time>
      </trkpt>
      <trkpt lat="46.97819" lon="8.73413">
        <ele>591</ele>
        <time>2021-08-05T11:28:50.286Z</time>
      </trkpt>
      <trkpt lat="46.97819" lon="8.73414">
        <ele>591</ele>
        <time>2021-08-05T11:28:51.285Z</time>
      </trkpt>
      <trkpt lat="46.97818" lon="8.73416">
        <ele>591</ele>
        <time>2021-08-05T11:28:52.285Z</time>
      </trkpt>
      <trkpt lat="46.97818" lon="8.73418">
        <ele>591</ele>
        <time>2021-08-05T11:28:53.285Z</time>
      </trkpt>
      <trkpt lat="46.97817" lon="8.73419">
        <ele>590</ele>
        <time>2021-08-05T11:28:54.286Z</time>
      </trkpt>
      <trkpt lat="46.97817" lon="8.7342">
        <ele>589</ele>
        <time>2021-08-05T11:28:55.285Z</time>
      </trkpt>
      <trkpt lat="46.97816" lon="8.73421">
        <ele>589</ele>
        <time>2021-08-05T11:28:56.286Z</time>
      </trkpt>
      <trkpt lat="46.97815" lon="8.73422">
        <ele>588</ele>
        <time>2021-08-05T11:28:57.285Z</time>
      </trkpt>
      <trkpt lat="46.97814" lon="8.73423">
        <ele>588</ele>
        <time>2021-08-05T11:28:58.285Z</time>
      </trkpt>
      <trkpt lat="46.97813" lon="8.73425">
        <ele>588</ele>
        <time>2021-08-05T11:28:59.285Z</time>
      </trkpt>
      <trkpt lat="46.97813" lon="8.73426">
        <ele>588</ele>
        <time>2021-08-05T11:29:00.286Z</time>
      </trkpt>
      <trkpt lat="46.97812" lon="8.73427">
        <ele>587</ele>
        <time>2021-08-05T11:29:01.286Z</time>
      </trkpt>
      <trkpt lat="46.97811" lon="8.73429">
        <ele>586</ele>
        <time>2021-08-05T11:29:02.285Z</time>
      </trkpt>
      <trkpt lat="46.9781" lon="8.7343">
        <ele>586</ele>
        <time>2021-08-05T11:29:03.285Z</time>
      </trkpt>
      <trkpt lat="46.97809" lon="8.73431">
        <ele>585</ele>
        <time>2021-08-05T11:29:04.286Z</time>
      </trkpt>
      <trkpt lat="46.97808" lon="8.73432">
        <ele>585</ele>
        <time>2021-08-05T11:29:05.285Z</time>
      </trkpt>
      <trkpt lat="46.97807" lon="8.73433">
        <ele>585</ele>
        <time>2021-08-05T11:29:06.286Z</time>
      </trkpt>
      <trkpt lat="46.97806" lon="8.73434">
        <ele>585</ele>
        <time>2021-08-05T11:29:07.286Z</time>
      </trkpt>
      <trkpt lat="46.97806" lon="8.73435">
        <ele>585</ele>
        <time>2021-08-05T11:29:08.286Z</time>
      </trkpt>
      <trkpt lat="46.97805" lon="8.73437">
        <ele>585</ele>
        <time>2021-08-05T11:29:09.285Z</time>
      </trkpt>
      <trkpt lat="46.97804" lon="8.73439">
        <ele>586</ele>
        <time>2021-08-05T11:29:10.285Z</time>
      </trkpt>
      <trkpt lat="46.97803" lon="8.7344">
        <ele>587</ele>
        <time>2021-08-05T11:29:11.285Z</time>
      </trkpt>
      <trkpt lat="46.97803" lon="8.73442">
        <ele>588</ele>
        <time>2021-08-05T11:29:12.286Z</time>
      </trkpt>
      <trkpt lat="46.97802" lon="8.73444">
        <ele>588</ele>
        <time>2021-08-05T11:29:13.285Z</time>
      </trkpt>
      <trkpt lat="46.97802" lon="8.73445">
        <ele>589</ele>
        <time>2021-08-05T11:29:14.285Z</time>
      </trkpt>
      <trkpt lat="46.97801" lon="8.73447">
        <ele>589</ele>
        <time>2021-08-05T11:29:15.285Z</time>
      </trkpt>
      <trkpt lat="46.978" lon="8.73448">
        <ele>589</ele>
        <time>2021-08-05T11:29:16.286Z</time>
      </trkpt>
      <trkpt lat="46.97799" lon="8.7345">
        <ele>590</ele>
        <time>2021-08-05T11:29:17.286Z</time>
      </trkpt>
      <trkpt lat="46.97798" lon="8.73451">
        <ele>590</ele>
        <time>2021-08-05T11:29:18.286Z</time>
      </trkpt>
      <trkpt lat="46.97798" lon="8.73452">
        <ele>590</ele>
        <time>2021-08-05T11:29:19.286Z</time>
      </trkpt>
      <trkpt lat="46.97797" lon="8.73453">
        <ele>590</ele>
        <time>2021-08-05T11:29:20.285Z</time>
      </trkpt>
      <trkpt lat="46.97796" lon="8.73454">
        <ele>590</ele>
        <time>2021-08-05T11:29:21.286Z</time>
      </trkpt>
      <trkpt lat="46.97795" lon="8.73456">
        <ele>590</ele>
        <time>2021-08-05T11:29:22.286Z</time>
      </trkpt>
      <trkpt lat="46.97795" lon="8.73457">
        <ele>590</ele>
        <time>2021-08-05T11:29:23.285Z</time>
      </trkpt>
      <trkpt lat="46.97794" lon="8.73458">
        <ele>590</ele>
        <time>2021-08-05T11:29:24.286Z</time>
      </trkpt>
      <trkpt lat="46.97793" lon="8.7346">
        <ele>590</ele>
        <time>2021-08-05T11:29:25.285Z</time>
      </trkpt>
      <trkpt lat="46.97793" lon="8.73462">
        <ele>590</ele>
        <time>2021-08-05T11:29:26.285Z</time>
      </trkpt>
      <trkpt lat="46.97792" lon="8.73463">
        <ele>590</ele>
        <time>2021-08-05T11:29:27.285Z</time>
      </trkpt>
      <trkpt lat="46.97791" lon="8.73465">
        <ele>590</ele>
        <time>2021-08-05T11:29:28.285Z</time>
      </trkpt>
      <trkpt lat="46.97791" lon="8.73467">
        <ele>590</ele>
        <time>2021-08-05T11:29:29.286Z</time>
      </trkpt>
      <trkpt lat="46.9779" lon="8.73468">
        <ele>590</ele>
        <time>2021-08-05T11:29:30.286Z</time>
      </trkpt>
      <trkpt lat="46.97788" lon="8.73469">
        <ele>590</ele>
        <time>2021-08-05T11:29:31.286Z</time>
      </trkpt>
      <trkpt lat="46.97788" lon="8.73471">
        <ele>591</ele>
        <time>2021-08-05T11:29:32.285Z</time>
      </trkpt>
      <trkpt lat="46.97787" lon="8.73471">
        <ele>591</ele>
        <time>2021-08-05T11:29:33.285Z</time>
      </trkpt>
      <trkpt lat="46.97785" lon="8.73472">
        <ele>592</ele>
        <time>2021-08-05T11:29:34.286Z</time>
      </trkpt>
      <trkpt lat="46.97784" lon="8.73474">
        <ele>593</ele>
        <time>2021-08-05T11:29:35.286Z</time>
      </trkpt>
      <trkpt lat="46.97783" lon="8.73475">
        <ele>594</ele>
        <time>2021-08-05T11:29:36.286Z</time>
      </trkpt>
      <trkpt lat="46.97783" lon="8.73477">
        <ele>595</ele>
        <time>2021-08-05T11:29:37.286Z</time>
      </trkpt>
      <trkpt lat="46.97782" lon="8.73478">
        <ele>596</ele>
        <time>2021-08-05T11:29:38.285Z</time>
      </trkpt>
      <trkpt lat="46.97781" lon="8.73479">
        <ele>597</ele>
        <time>2021-08-05T11:29:39.285Z</time>
      </trkpt>
      <trkpt lat="46.9778" lon="8.73481">
        <ele>597</ele>
        <time>2021-08-05T11:29:40.286Z</time>
      </trkpt>
      <trkpt lat="46.9778" lon="8.73482">
        <ele>597</ele>
        <time>2021-08-05T11:29:41.286Z</time>
      </trkpt>
      <trkpt lat="46.9778" lon="8.73484">
        <ele>597</ele>
        <time>2021-08-05T11:29:42.285Z</time>
      </trkpt>
      <trkpt lat="46.97779" lon="8.73485">
        <ele>597</ele>
        <time>2021-08-05T11:29:43.285Z</time>
      </trkpt>
      <trkpt lat="46.97779" lon="8.73487">
        <ele>596</ele>
        <time>2021-08-05T11:29:44.285Z</time>
      </trkpt>
      <trkpt lat="46.97778" lon="8.73489">
        <ele>596</ele>
        <time>2021-08-05T11:29:45.286Z</time>
      </trkpt>
      <trkpt lat="46.97778" lon="8.7349">
        <ele>595</ele>
        <time>2021-08-05T11:29:46.285Z</time>
      </trkpt>
      <trkpt lat="46.97777" lon="8.73492">
        <ele>595</ele>
        <time>2021-08-05T11:29:47.285Z</time>
      </trkpt>
      <trkpt lat="46.97776" lon="8.73494">
        <ele>594</ele>
        <time>2021-08-05T11:29:48.285Z</time>
      </trkpt>
      <trkpt lat="46.97776" lon="8.73496">
        <ele>594</ele>
        <time>2021-08-05T11:29:49.286Z</time>
      </trkpt>
      <trkpt lat="46.97775" lon="8.73498">
        <ele>593</ele>
        <time>2021-08-05T11:29:50.285Z</time>
      </trkpt>
      <trkpt lat="46.97775" lon="8.735">
        <ele>593</ele>
        <time>2021-08-05T11:29:51.286Z</time>
      </trkpt>
      <trkpt lat="46.97774" lon="8.73501">
        <ele>592</ele>
        <time>2021-08-05T11:29:52.286Z</time>
      </trkpt>
      <trkpt lat="46.97773" lon="8.73503">
        <ele>591</ele>
        <time>2021-08-05T11:29:53.285Z</time>
      </trkpt>
      <trkpt lat="46.97773" lon="8.73505">
        <ele>591</ele>
        <time>2021-08-05T11:29:54.285Z</time>
      </trkpt>
      <trkpt lat="46.97772" lon="8.73507">
        <ele>591</ele>
        <time>2021-08-05T11:29:55.285Z</time>
      </trkpt>
      <trkpt lat="46.97771" lon="8.73509">
        <ele>591</ele>
        <time>2021-08-05T11:29:56.286Z</time>
      </trkpt>
      <trkpt lat="46.9777" lon="8.73511">
        <ele>591</ele>
        <time>2021-08-05T11:29:57.286Z</time>
      </trkpt>
      <trkpt lat="46.9777" lon="8.73513">
        <ele>591</ele>
        <time>2021-08-05T11:29:58.286Z</time>
      </trkpt>
      <trkpt lat="46.97769" lon="8.73515">
        <ele>590</ele>
        <time>2021-08-05T11:29:59.286Z</time>
      </trkpt>
      <trkpt lat="46.97768" lon="8.73517">
        <ele>590</ele>
        <time>2021-08-05T11:30:00.285Z</time>
      </trkpt>
      <trkpt lat="46.97768" lon="8.73518">
        <ele>590</ele>
        <time>2021-08-05T11:30:01.286Z</time>
      </trkpt>
      <trkpt lat="46.97767" lon="8.73519">
        <ele>590</ele>
        <time>2021-08-05T11:30:02.286Z</time>
      </trkpt>
      <trkpt lat="46.97766" lon="8.73521">
        <ele>590</ele>
        <time>2021-08-05T11:30:03.285Z</time>
      </trkpt>
      <trkpt lat="46.97766" lon="8.73522">
        <ele>590</ele>
        <time>2021-08-05T11:30:04.286Z</time>
      </trkpt>
      <trkpt lat="46.97765" lon="8.73523">
        <ele>590</ele>
        <time>2021-08-05T11:30:05.286Z</time>
      </trkpt>
      <trkpt lat="46.97765" lon="8.73525">
        <ele>590</ele>
        <time>2021-08-05T11:30:06.286Z</time>
      </trkpt>
      <trkpt lat="46.97764" lon="8.73526">
        <ele>590</ele>
        <time>2021-08-05T11:30:07.286Z</time>
      </trkpt>
      <trkpt lat="46.97763" lon="8.73527">
        <ele>590</ele>
        <time>2021-08-05T11:30:08.286Z</time>
      </trkpt>
      <trkpt lat="46.97763" lon="8.73529">
        <ele>590</ele>
        <time>2021-08-05T11:30:09.286Z</time>
      </trkpt>
      <trkpt lat="46.97762" lon="8.7353">
        <ele>590</ele>
        <time>2021-08-05T11:30:10.286Z</time>
      </trkpt>
      <trkpt lat="46.97761" lon="8.73532">
        <ele>590</ele>
        <time>2021-08-05T11:30:11.286Z</time>
      </trkpt>
      <trkpt lat="46.97761" lon="8.73534">
        <ele>590</ele>
        <time>2021-08-05T11:30:12.286Z</time>
      </trkpt>
      <trkpt lat="46.9776" lon="8.73536">
        <ele>589</ele>
        <time>2021-08-05T11:30:13.285Z</time>
      </trkpt>
      <trkpt lat="46.97759" lon="8.73537">
        <ele>589</ele>
        <time>2021-08-05T11:30:14.285Z</time>
      </trkpt>
      <trkpt lat="46.97758" lon="8.73539">
        <ele>589</ele>
        <time>2021-08-05T11:30:15.286Z</time>
      </trkpt>
      <trkpt lat="46.97757" lon="8.73541">
        <ele>589</ele>
        <time>2021-08-05T11:30:16.286Z</time>
      </trkpt>
      <trkpt lat="46.97757" lon="8.73542">
        <ele>589</ele>
        <time>2021-08-05T11:30:17.285Z</time>
      </trkpt>
      <trkpt lat="46.97756" lon="8.73544">
        <ele>589</ele>
        <time>2021-08-05T11:30:18.285Z</time>
      </trkpt>
      <trkpt lat="46.97755" lon="8.73546">
        <ele>589</ele>
        <time>2021-08-05T11:30:19.286Z</time>
      </trkpt>
      <trkpt lat="46.97755" lon="8.73547">
        <ele>589</ele>
        <time>2021-08-05T11:30:20.286Z</time>
      </trkpt>
      <trkpt lat="46.97754" lon="8.73549">
        <ele>589</ele>
        <time>2021-08-05T11:30:21.285Z</time>
      </trkpt>
      <trkpt lat="46.97754" lon="8.73551">
        <ele>589</ele>
        <time>2021-08-05T11:30:22.286Z</time>
      </trkpt>
      <trkpt lat="46.97753" lon="8.73553">
        <ele>589</ele>
        <time>2021-08-05T11:30:23.286Z</time>
      </trkpt>
      <trkpt lat="46.97753" lon="8.73554">
        <ele>589</ele>
        <time>2021-08-05T11:30:24.285Z</time>
      </trkpt>
      <trkpt lat="46.97753" lon="8.73556">
        <ele>590</ele>
        <time>2021-08-05T11:30:25.286Z</time>
      </trkpt>
      <trkpt lat="46.97752" lon="8.73558">
        <ele>590</ele>
        <time>2021-08-05T11:30:26.285Z</time>
      </trkpt>
      <trkpt lat="46.97752" lon="8.73559">
        <ele>590</ele>
        <time>2021-08-05T11:30:27.286Z</time>
      </trkpt>
      <trkpt lat="46.97751" lon="8.7356">
        <ele>590</ele>
        <time>2021-08-05T11:30:28.285Z</time>
      </trkpt>
      <trkpt lat="46.9775" lon="8.73562">
        <ele>590</ele>
        <time>2021-08-05T11:30:29.285Z</time>
      </trkpt>
      <trkpt lat="46.9775" lon="8.73564">
        <ele>590</ele>
        <time>2021-08-05T11:30:30.285Z</time>
      </trkpt>
      <trkpt lat="46.97749" lon="8.73565">
        <ele>590</ele>
        <time>2021-08-05T11:30:31.285Z</time>
      </trkpt>
      <trkpt lat="46.97749" lon="8.73567">
        <ele>591</ele>
        <time>2021-08-05T11:30:32.285Z</time>
      </trkpt>
      <trkpt lat="46.97748" lon="8.73569">
        <ele>591</ele>
        <time>2021-08-05T11:30:33.285Z</time>
      </trkpt>
      <trkpt lat="46.97747" lon="8.73571">
        <ele>592</ele>
        <time>2021-08-05T11:30:34.285Z</time>
      </trkpt>
      <trkpt lat="46.97746" lon="8.73573">
        <ele>592</ele>
        <time>2021-08-05T11:30:35.285Z</time>
      </trkpt>
      <trkpt lat="46.97746" lon="8.73575">
        <ele>593</ele>
        <time>2021-08-05T11:30:36.286Z</time>
      </trkpt>
      <trkpt lat="46.97745" lon="8.73577">
        <ele>593</ele>
        <time>2021-08-05T11:30:37.286Z</time>
      </trkpt>
      <trkpt lat="46.97744" lon="8.73579">
        <ele>593</ele>
        <time>2021-08-05T11:30:38.285Z</time>
      </trkpt>
      <trkpt lat="46.97743" lon="8.73581">
        <ele>593</ele>
        <time>2021-08-05T11:30:39.285Z</time>
      </trkpt>
      <trkpt lat="46.97743" lon="8.73583">
        <ele>592</ele>
        <time>2021-08-05T11:30:40.285Z</time>
      </trkpt>
      <trkpt lat="46.97742" lon="8.73585">
        <ele>592</ele>
        <time>2021-08-05T11:30:41.286Z</time>
      </trkpt>
      <trkpt lat="46.97741" lon="8.73586">
        <ele>592</ele>
        <time>2021-08-05T11:30:42.285Z</time>
      </trkpt>
      <trkpt lat="46.97741" lon="8.73588">
        <ele>592</ele>
        <time>2021-08-05T11:30:43.286Z</time>
      </trkpt>
      <trkpt lat="46.9774" lon="8.73589">
        <ele>592</ele>
        <time>2021-08-05T11:30:44.286Z</time>
      </trkpt>
      <trkpt lat="46.97739" lon="8.73591">
        <ele>591</ele>
        <time>2021-08-05T11:30:45.285Z</time>
      </trkpt>
      <trkpt lat="46.97738" lon="8.73593">
        <ele>591</ele>
        <time>2021-08-05T11:30:46.285Z</time>
      </trkpt>
      <trkpt lat="46.97738" lon="8.73595">
        <ele>591</ele>
        <time>2021-08-05T11:30:47.285Z</time>
      </trkpt>
      <trkpt lat="46.97738" lon="8.73597">
        <ele>590</ele>
        <time>2021-08-05T11:30:48.285Z</time>
      </trkpt>
      <trkpt lat="46.97737" lon="8.73599">
        <ele>590</ele>
        <time>2021-08-05T11:30:49.285Z</time>
      </trkpt>
      <trkpt lat="46.97737" lon="8.73601">
        <ele>590</ele>
        <time>2021-08-05T11:30:50.286Z</time>
      </trkpt>
      <trkpt lat="46.97736" lon="8.73603">
        <ele>590</ele>
        <time>2021-08-05T11:30:51.285Z</time>
      </trkpt>
      <trkpt lat="46.97736" lon="8.73605">
        <ele>590</ele>
        <time>2021-08-05T11:30:52.285Z</time>
      </trkpt>
      <trkpt lat="46.97736" lon="8.73607">
        <ele>591</ele>
        <time>2021-08-05T11:30:53.286Z</time>
      </trkpt>
      <trkpt lat="46.97735" lon="8.73609">
        <ele>591</ele>
        <time>2021-08-05T11:30:54.286Z</time>
      </trkpt>
      <trkpt lat="46.97735" lon="8.73612">
        <ele>591</ele>
        <time>2021-08-05T11:30:55.285Z</time>
      </trkpt>
      <trkpt lat="46.97734" lon="8.73613">
        <ele>591</ele>
        <time>2021-08-05T11:30:56.286Z</time>
      </trkpt>
      <trkpt lat="46.97734" lon="8.73614">
        <ele>591</ele>
        <time>2021-08-05T11:30:57.285Z</time>
      </trkpt>
      <trkpt lat="46.97734" lon="8.73616">
        <ele>591</ele>
        <time>2021-08-05T11:30:58.285Z</time>
      </trkpt>
      <trkpt lat="46.97733" lon="8.73618">
        <ele>590</ele>
        <time>2021-08-05T11:30:59.286Z</time>
      </trkpt>
      <trkpt lat="46.97732" lon="8.7362">
        <ele>590</ele>
        <time>2021-08-05T11:31:00.286Z</time>
      </trkpt>
      <trkpt lat="46.97732" lon="8.73622">
        <ele>590</ele>
        <time>2021-08-05T11:31:01.285Z</time>
      </trkpt>
      <trkpt lat="46.97732" lon="8.73623">
        <ele>590</ele>
        <time>2021-08-05T11:31:02.286Z</time>
      </trkpt>
      <trkpt lat="46.97732" lon="8.73625">
        <ele>591</ele>
        <time>2021-08-05T11:31:03.286Z</time>
      </trkpt>
      <trkpt lat="46.97731" lon="8.73627">
        <ele>591</ele>
        <time>2021-08-05T11:31:04.285Z</time>
      </trkpt>
      <trkpt lat="46.97731" lon="8.73629">
        <ele>591</ele>
        <time>2021-08-05T11:31:05.286Z</time>
      </trkpt>
      <trkpt lat="46.9773" lon="8.7363">
        <ele>591</ele>
        <time>2021-08-05T11:31:06.285Z</time>
      </trkpt>
      <trkpt lat="46.9773" lon="8.73632">
        <ele>591</ele>
        <time>2021-08-05T11:31:07.286Z</time>
      </trkpt>
      <trkpt lat="46.9773" lon="8.73635">
        <ele>591</ele>
        <time>2021-08-05T11:31:08.286Z</time>
      </trkpt>
      <trkpt lat="46.97729" lon="8.73637">
        <ele>591</ele>
        <time>2021-08-05T11:31:09.285Z</time>
      </trkpt>
      <trkpt lat="46.97729" lon="8.73638">
        <ele>590</ele>
        <time>2021-08-05T11:31:10.286Z</time>
      </trkpt>
      <trkpt lat="46.97729" lon="8.73641">
        <ele>590</ele>
        <time>2021-08-05T11:31:11.285Z</time>
      </trkpt>
      <trkpt lat="46.97728" lon="8.73643">
        <ele>590</ele>
        <time>2021-08-05T11:31:12.286Z</time>
      </trkpt>
      <trkpt lat="46.97728" lon="8.73645">
        <ele>590</ele>
        <time>2021-08-05T11:31:13.286Z</time>
      </trkpt>
      <trkpt lat="46.97728" lon="8.73647">
        <ele>590</ele>
        <time>2021-08-05T11:31:14.285Z</time>
      </trkpt>
      <trkpt lat="46.97727" lon="8.73648">
        <ele>589</ele>
        <time>2021-08-05T11:31:15.285Z</time>
      </trkpt>
      <trkpt lat="46.97727" lon="8.73649">
        <ele>589</ele>
        <time>2021-08-05T11:31:16.285Z</time>
      </trkpt>
      <trkpt lat="46.97727" lon="8.73651">
        <ele>589</ele>
        <time>2021-08-05T11:31:17.286Z</time>
      </trkpt>
      <trkpt lat="46.97726" lon="8.73653">
        <ele>588</ele>
        <time>2021-08-05T11:31:18.286Z</time>
      </trkpt>
      <trkpt lat="46.97726" lon="8.73654">
        <ele>588</ele>
        <time>2021-08-05T11:31:19.285Z</time>
      </trkpt>
      <trkpt lat="46.97726" lon="8.73656">
        <ele>588</ele>
        <time>2021-08-05T11:31:20.285Z</time>
      </trkpt>
      <trkpt lat="46.97725" lon="8.73658">
        <ele>588</ele>
        <time>2021-08-05T11:31:21.285Z</time>
      </trkpt>
      <trkpt lat="46.97725" lon="8.73659">
        <ele>588</ele>
        <time>2021-08-05T11:31:22.285Z</time>
      </trkpt>
      <trkpt lat="46.97725" lon="8.73661">
        <ele>588</ele>
        <time>2021-08-05T11:31:23.285Z</time>
      </trkpt>
      <trkpt lat="46.97725" lon="8.73663">
        <ele>588</ele>
        <time>2021-08-05T11:31:24.285Z</time>
      </trkpt>
      <trkpt lat="46.97725" lon="8.73665">
        <ele>589</ele>
        <time>2021-08-05T11:31:25.285Z</time>
      </trkpt>
      <trkpt lat="46.97725" lon="8.73667">
        <ele>589</ele>
        <time>2021-08-05T11:31:26.286Z</time>
      </trkpt>
      <trkpt lat="46.97724" lon="8.73669">
        <ele>589</ele>
        <time>2021-08-05T11:31:27.285Z</time>
      </trkpt>
      <trkpt lat="46.97724" lon="8.73672">
        <ele>589</ele>
        <time>2021-08-05T11:31:28.285Z</time>
      </trkpt>
      <trkpt lat="46.97723" lon="8.73674">
        <ele>590</ele>
        <time>2021-08-05T11:31:29.285Z</time>
      </trkpt>
      <trkpt lat="46.97723" lon="8.73676">
        <ele>590</ele>
        <time>2021-08-05T11:31:30.285Z</time>
      </trkpt>
      <trkpt lat="46.97723" lon="8.73678">
        <ele>590</ele>
        <time>2021-08-05T11:31:31.285Z</time>
      </trkpt>
      <trkpt lat="46.97723" lon="8.7368">
        <ele>590</ele>
        <time>2021-08-05T11:31:32.285Z</time>
      </trkpt>
      <trkpt lat="46.97723" lon="8.73682">
        <ele>590</ele>
        <time>2021-08-05T11:31:33.286Z</time>
      </trkpt>
      <trkpt lat="46.97723" lon="8.73684">
        <ele>590</ele>
        <time>2021-08-05T11:31:34.286Z</time>
      </trkpt>
      <trkpt lat="46.97722" lon="8.73686">
        <ele>590</ele>
        <time>2021-08-05T11:31:35.285Z</time>
      </trkpt>
      <trkpt lat="46.97722" lon="8.73688">
        <ele>589</ele>
        <time>2021-08-05T11:31:36.286Z</time>
      </trkpt>
      <trkpt lat="46.97722" lon="8.7369">
        <ele>589</ele>
        <time>2021-08-05T11:31:37.286Z</time>
      </trkpt>
      <trkpt lat="46.97722" lon="8.73693">
        <ele>589</ele>
        <time>2021-08-05T11:31:38.286Z</time>
      </trkpt>
      <trkpt lat="46.97722" lon="8.73695">
        <ele>590</ele>
        <time>2021-08-05T11:31:39.285Z</time>
      </trkpt>
      <trkpt lat="46.97721" lon="8.73697">
        <ele>590</ele>
        <time>2021-08-05T11:31:40.286Z</time>
      </trkpt>
      <trkpt lat="46.97721" lon="8.73699">
        <ele>590</ele>
        <time>2021-08-05T11:31:41.285Z</time>
      </trkpt>
      <trkpt lat="46.97721" lon="8.73702">
        <ele>590</ele>
        <time>2021-08-05T11:31:42.286Z</time>
      </trkpt>
      <trkpt lat="46.9772" lon="8.73704">
        <ele>591</ele>
        <time>2021-08-05T11:31:43.285Z</time>
      </trkpt>
      <trkpt lat="46.9772" lon="8.73706">
        <ele>591</ele>
        <time>2021-08-05T11:31:44.285Z</time>
      </trkpt>
      <trkpt lat="46.9772" lon="8.73708">
        <ele>591</ele>
        <time>2021-08-05T11:31:45.285Z</time>
      </trkpt>
      <trkpt lat="46.9772" lon="8.7371">
        <ele>591</ele>
        <time>2021-08-05T11:31:46.285Z</time>
      </trkpt>
      <trkpt lat="46.9772" lon="8.73712">
        <ele>591</ele>
        <time>2021-08-05T11:31:47.286Z</time>
      </trkpt>
      <trkpt lat="46.9772" lon="8.73714">
        <ele>591</ele>
        <time>2021-08-05T11:31:48.285Z</time>
      </trkpt>
      <trkpt lat="46.9772" lon="8.73717">
        <ele>590</ele>
        <time>2021-08-05T11:31:49.286Z</time>
      </trkpt>
      <trkpt lat="46.9772" lon="8.73719">
        <ele>590</ele>
        <time>2021-08-05T11:31:50.285Z</time>
      </trkpt>
      <trkpt lat="46.9772" lon="8.73721">
        <ele>591</ele>
        <time>2021-08-05T11:31:51.285Z</time>
      </trkpt>
      <trkpt lat="46.9772" lon="8.73723">
        <ele>590</ele>
        <time>2021-08-05T11:31:52.285Z</time>
      </trkpt>
      <trkpt lat="46.97719" lon="8.73725">
        <ele>591</ele>
        <time>2021-08-05T11:31:53.286Z</time>
      </trkpt>
      <trkpt lat="46.97719" lon="8.73727">
        <ele>591</ele>
        <time>2021-08-05T11:31:54.285Z</time>
      </trkpt>
      <trkpt lat="46.97719" lon="8.73729">
        <ele>591</ele>
        <time>2021-08-05T11:31:55.285Z</time>
      </trkpt>
      <trkpt lat="46.97719" lon="8.73731">
        <ele>591</ele>
        <time>2021-08-05T11:31:56.285Z</time>
      </trkpt>
      <trkpt lat="46.9772" lon="8.73732">
        <ele>591</ele>
        <time>2021-08-05T11:31:57.286Z</time>
      </trkpt>
      <trkpt lat="46.9772" lon="8.73733">
        <ele>591</ele>
        <time>2021-08-05T11:31:58.285Z</time>
      </trkpt>
      <trkpt lat="46.9772" lon="8.73736">
        <ele>591</ele>
        <time>2021-08-05T11:31:59.285Z</time>
      </trkpt>
      <trkpt lat="46.9772" lon="8.73737">
        <ele>591</ele>
        <time>2021-08-05T11:32:00.285Z</time>
      </trkpt>
      <trkpt lat="46.9772" lon="8.73739">
        <ele>592</ele>
        <time>2021-08-05T11:32:01.285Z</time>
      </trkpt>
      <trkpt lat="46.9772" lon="8.73741">
        <ele>592</ele>
        <time>2021-08-05T11:32:02.285Z</time>
      </trkpt>
      <trkpt lat="46.9772" lon="8.73743">
        <ele>592</ele>
        <time>2021-08-05T11:32:03.286Z</time>
      </trkpt>
      <trkpt lat="46.9772" lon="8.73744">
        <ele>592</ele>
        <time>2021-08-05T11:32:04.285Z</time>
      </trkpt>
      <trkpt lat="46.9772" lon="8.73746">
        <ele>592</ele>
        <time>2021-08-05T11:32:05.285Z</time>
      </trkpt>
      <trkpt lat="46.9772" lon="8.73748">
        <ele>592</ele>
        <time>2021-08-05T11:32:06.285Z</time>
      </trkpt>
      <trkpt lat="46.97721" lon="8.73749">
        <ele>592</ele>
        <time>2021-08-05T11:32:07.285Z</time>
      </trkpt>
      <trkpt lat="46.97721" lon="8.73751">
        <ele>592</ele>
        <time>2021-08-05T11:32:08.286Z</time>
      </trkpt>
      <trkpt lat="46.97721" lon="8.73753">
        <ele>593</ele>
        <time>2021-08-05T11:32:09.285Z</time>
      </trkpt>
      <trkpt lat="46.97721" lon="8.73755">
        <ele>593</ele>
        <time>2021-08-05T11:32:10.285Z</time>
      </trkpt>
      <trkpt lat="46.97721" lon="8.73757">
        <ele>593</ele>
        <time>2021-08-05T11:32:11.285Z</time>
      </trkpt>
      <trkpt lat="46.97721" lon="8.73759">
        <ele>593</ele>
        <time>2021-08-05T11:32:12.285Z</time>
      </trkpt>
      <trkpt lat="46.97721" lon="8.73761">
        <ele>593</ele>
        <time>2021-08-05T11:32:13.285Z</time>
      </trkpt>
      <trkpt lat="46.97721" lon="8.73763">
        <ele>593</ele>
        <time>2021-08-05T11:32:14.286Z</time>
      </trkpt>
      <trkpt lat="46.97721" lon="8.73765">
        <ele>593</ele>
        <time>2021-08-05T11:32:15.285Z</time>
      </trkpt>
      <trkpt lat="46.97721" lon="8.73767">
        <ele>593</ele>
        <time>2021-08-05T11:32:16.286Z</time>
      </trkpt>
      <trkpt lat="46.97721" lon="8.7377">
        <ele>593</ele>
        <time>2021-08-05T11:32:17.285Z</time>
      </trkpt>
      <trkpt lat="46.97721" lon="8.73772">
        <ele>593</ele>
        <time>2021-08-05T11:32:18.285Z</time>
      </trkpt>
      <trkpt lat="46.97721" lon="8.73774">
        <ele>593</ele>
        <time>2021-08-05T11:32:19.286Z</time>
      </trkpt>
      <trkpt lat="46.97721" lon="8.73776">
        <ele>593</ele>
        <time>2021-08-05T11:32:20.285Z</time>
      </trkpt>
      <trkpt lat="46.97722" lon="8.73778">
        <ele>593</ele>
        <time>2021-08-05T11:32:21.286Z</time>
      </trkpt>
      <trkpt lat="46.97722" lon="8.7378">
        <ele>593</ele>
        <time>2021-08-05T11:32:22.285Z</time>
      </trkpt>
      <trkpt lat="46.97722" lon="8.73782">
        <ele>594</ele>
        <time>2021-08-05T11:32:23.285Z</time>
      </trkpt>
      <trkpt lat="46.97722" lon="8.73784">
        <ele>594</ele>
        <time>2021-08-05T11:32:24.285Z</time>
      </trkpt>
      <trkpt lat="46.97723" lon="8.73786">
        <ele>594</ele>
        <time>2021-08-05T11:32:25.286Z</time>
      </trkpt>
      <trkpt lat="46.97723" lon="8.73787">
        <ele>595</ele>
        <time>2021-08-05T11:32:26.285Z</time>
      </trkpt>
      <trkpt lat="46.97723" lon="8.73789">
        <ele>595</ele>
        <time>2021-08-05T11:32:27.286Z</time>
      </trkpt>
      <trkpt lat="46.97724" lon="8.73791">
        <ele>595</ele>
        <time>2021-08-05T11:32:28.285Z</time>
      </trkpt>
      <trkpt lat="46.97724" lon="8.73793">
        <ele>595</ele>
        <time>2021-08-05T11:32:29.285Z</time>
      </trkpt>
      <trkpt lat="46.97724" lon="8.73795">
        <ele>595</ele>
        <time>2021-08-05T11:32:30.285Z</time>
      </trkpt>
      <trkpt lat="46.97724" lon="8.73797">
        <ele>595</ele>
        <time>2021-08-05T11:32:31.285Z</time>
      </trkpt>
      <trkpt lat="46.97725" lon="8.73799">
        <ele>595</ele>
        <time>2021-08-05T11:32:32.285Z</time>
      </trkpt>
      <trkpt lat="46.97725" lon="8.73801">
        <ele>595</ele>
        <time>2021-08-05T11:32:33.285Z</time>
      </trkpt>
      <trkpt lat="46.97725" lon="8.73803">
        <ele>595</ele>
        <time>2021-08-05T11:32:34.286Z</time>
      </trkpt>
      <trkpt lat="46.97725" lon="8.73804">
        <ele>595</ele>
        <time>2021-08-05T11:32:35.286Z</time>
      </trkpt>
      <trkpt lat="46.97725" lon="8.73806">
        <ele>595</ele>
        <time>2021-08-05T11:32:36.286Z</time>
      </trkpt>
      <trkpt lat="46.97726" lon="8.73808">
        <ele>594</ele>
        <time>2021-08-05T11:32:37.285Z</time>
      </trkpt>
      <trkpt lat="46.97726" lon="8.7381">
        <ele>594</ele>
        <time>2021-08-05T11:32:38.286Z</time>
      </trkpt>
      <trkpt lat="46.97726" lon="8.73812">
        <ele>594</ele>
        <time>2021-08-05T11:32:39.286Z</time>
      </trkpt>
      <trkpt lat="46.97727" lon="8.73814">
        <ele>593</ele>
        <time>2021-08-05T11:32:40.285Z</time>
      </trkpt>
      <trkpt lat="46.97727" lon="8.73816">
        <ele>593</ele>
        <time>2021-08-05T11:32:41.286Z</time>
      </trkpt>
      <trkpt lat="46.97727" lon="8.73818">
        <ele>593</ele>
        <time>2021-08-05T11:32:42.286Z</time>
      </trkpt>
      <trkpt lat="46.97728" lon="8.7382">
        <ele>593</ele>
        <time>2021-08-05T11:32:43.286Z</time>
      </trkpt>
      <trkpt lat="46.97728" lon="8.73821">
        <ele>593</ele>
        <time>2021-08-05T11:32:44.286Z</time>
      </trkpt>
      <trkpt lat="46.97729" lon="8.73823">
        <ele>592</ele>
        <time>2021-08-05T11:32:45.285Z</time>
      </trkpt>
      <trkpt lat="46.97729" lon="8.73825">
        <ele>592</ele>
        <time>2021-08-05T11:32:46.285Z</time>
      </trkpt>
      <trkpt lat="46.9773" lon="8.73826">
        <ele>592</ele>
        <time>2021-08-05T11:32:47.285Z</time>
      </trkpt>
      <trkpt lat="46.9773" lon="8.73828">
        <ele>592</ele>
        <time>2021-08-05T11:32:48.286Z</time>
      </trkpt>
      <trkpt lat="46.97731" lon="8.7383">
        <ele>592</ele>
        <time>2021-08-05T11:32:49.286Z</time>
      </trkpt>
      <trkpt lat="46.97731" lon="8.73832">
        <ele>592</ele>
        <time>2021-08-05T11:32:50.285Z</time>
      </trkpt>
      <trkpt lat="46.97732" lon="8.73833">
        <ele>593</ele>
        <time>2021-08-05T11:32:51.286Z</time>
      </trkpt>
      <trkpt lat="46.97733" lon="8.73834">
        <ele>593</ele>
        <time>2021-08-05T11:32:52.286Z</time>
      </trkpt>
      <trkpt lat="46.97733" lon="8.73836">
        <ele>594</ele>
        <time>2021-08-05T11:32:53.285Z</time>
      </trkpt>
      <trkpt lat="46.97734" lon="8.73838">
        <ele>594</ele>
        <time>2021-08-05T11:32:54.285Z</time>
      </trkpt>
      <trkpt lat="46.97734" lon="8.7384">
        <ele>594</ele>
        <time>2021-08-05T11:32:55.285Z</time>
      </trkpt>
      <trkpt lat="46.97734" lon="8.73842">
        <ele>595</ele>
        <time>2021-08-05T11:32:56.285Z</time>
      </trkpt>
      <trkpt lat="46.97734" lon="8.73845">
        <ele>595</ele>
        <time>2021-08-05T11:32:57.285Z</time>
      </trkpt>
      <trkpt lat="46.97735" lon="8.73847">
        <ele>595</ele>
        <time>2021-08-05T11:32:58.285Z</time>
      </trkpt>
      <trkpt lat="46.97735" lon="8.73849">
        <ele>595</ele>
        <time>2021-08-05T11:32:59.286Z</time>
      </trkpt>
      <trkpt lat="46.97736" lon="8.73851">
        <ele>595</ele>
        <time>2021-08-05T11:33:00.285Z</time>
      </trkpt>
      <trkpt lat="46.97737" lon="8.73853">
        <ele>595</ele>
        <time>2021-08-05T11:33:01.285Z</time>
      </trkpt>
      <trkpt lat="46.97738" lon="8.73854">
        <ele>595</ele>
        <time>2021-08-05T11:33:02.285Z</time>
      </trkpt>
      <trkpt lat="46.97738" lon="8.73856">
        <ele>595</ele>
        <time>2021-08-05T11:33:03.285Z</time>
      </trkpt>
      <trkpt lat="46.97738" lon="8.73859">
        <ele>595</ele>
        <time>2021-08-05T11:33:04.286Z</time>
      </trkpt>
      <trkpt lat="46.97738" lon="8.73861">
        <ele>595</ele>
        <time>2021-08-05T11:33:05.286Z</time>
      </trkpt>
      <trkpt lat="46.97739" lon="8.73862">
        <ele>596</ele>
        <time>2021-08-05T11:33:06.285Z</time>
      </trkpt>
      <trkpt lat="46.9774" lon="8.73864">
        <ele>596</ele>
        <time>2021-08-05T11:33:07.286Z</time>
      </trkpt>
      <trkpt lat="46.97741" lon="8.73865">
        <ele>596</ele>
        <time>2021-08-05T11:33:08.286Z</time>
      </trkpt>
      <trkpt lat="46.97741" lon="8.73867">
        <ele>596</ele>
        <time>2021-08-05T11:33:09.286Z</time>
      </trkpt>
      <trkpt lat="46.97741" lon="8.73869">
        <ele>596</ele>
        <time>2021-08-05T11:33:10.285Z</time>
      </trkpt>
      <trkpt lat="46.97742" lon="8.73871">
        <ele>597</ele>
        <time>2021-08-05T11:33:11.286Z</time>
      </trkpt>
      <trkpt lat="46.97742" lon="8.73873">
        <ele>597</ele>
        <time>2021-08-05T11:33:12.286Z</time>
      </trkpt>
      <trkpt lat="46.97742" lon="8.73875">
        <ele>597</ele>
        <time>2021-08-05T11:33:13.286Z</time>
      </trkpt>
      <trkpt lat="46.97743" lon="8.73877">
        <ele>597</ele>
        <time>2021-08-05T11:33:14.286Z</time>
      </trkpt>
      <trkpt lat="46.97743" lon="8.73879">
        <ele>597</ele>
        <time>2021-08-05T11:33:15.286Z</time>
      </trkpt>
      <trkpt lat="46.97744" lon="8.7388">
        <ele>598</ele>
        <time>2021-08-05T11:33:16.286Z</time>
      </trkpt>
      <trkpt lat="46.97745" lon="8.73882">
        <ele>598</ele>
        <time>2021-08-05T11:33:17.285Z</time>
      </trkpt>
      <trkpt lat="46.97746" lon="8.73884">
        <ele>598</ele>
        <time>2021-08-05T11:33:18.285Z</time>
      </trkpt>
      <trkpt lat="46.97747" lon="8.73885">
        <ele>598</ele>
        <time>2021-08-05T11:33:19.285Z</time>
      </trkpt>
      <trkpt lat="46.97747" lon="8.73886">
        <ele>598</ele>
        <time>2021-08-05T11:33:20.285Z</time>
      </trkpt>
      <trkpt lat="46.97748" lon="8.73888">
        <ele>599</ele>
        <time>2021-08-05T11:33:21.286Z</time>
      </trkpt>
      <trkpt lat="46.97749" lon="8.73889">
        <ele>599</ele>
        <time>2021-08-05T11:33:22.285Z</time>
      </trkpt>
      <trkpt lat="46.97749" lon="8.73891">
        <ele>599</ele>
        <time>2021-08-05T11:33:23.285Z</time>
      </trkpt>
      <trkpt lat="46.9775" lon="8.73894">
        <ele>600</ele>
        <time>2021-08-05T11:33:24.286Z</time>
      </trkpt>
      <trkpt lat="46.9775" lon="8.73895">
        <ele>600</ele>
        <time>2021-08-05T11:33:25.286Z</time>
      </trkpt>
      <trkpt lat="46.97751" lon="8.73896">
        <ele>600</ele>
        <time>2021-08-05T11:33:26.285Z</time>
      </trkpt>
      <trkpt lat="46.97752" lon="8.73898">
        <ele>600</ele>
        <time>2021-08-05T11:33:27.285Z</time>
      </trkpt>
      <trkpt lat="46.97753" lon="8.73899">
        <ele>601</ele>
        <time>2021-08-05T11:33:28.286Z</time>
      </trkpt>
      <trkpt lat="46.97754" lon="8.73901">
        <ele>601</ele>
        <time>2021-08-05T11:33:29.286Z</time>
      </trkpt>
      <trkpt lat="46.97755" lon="8.73903">
        <ele>601</ele>
        <time>2021-08-05T11:33:30.285Z</time>
      </trkpt>
      <trkpt lat="46.97756" lon="8.73904">
        <ele>601</ele>
        <time>2021-08-05T11:33:31.286Z</time>
      </trkpt>
      <trkpt lat="46.97756" lon="8.73906">
        <ele>601</ele>
        <time>2021-08-05T11:33:32.286Z</time>
      </trkpt>
      <trkpt lat="46.97757" lon="8.73907">
        <ele>601</ele>
        <time>2021-08-05T11:33:33.285Z</time>
      </trkpt>
      <trkpt lat="46.97758" lon="8.73909">
        <ele>601</ele>
        <time>2021-08-05T11:33:34.285Z</time>
      </trkpt>
      <trkpt lat="46.97759" lon="8.73911">
        <ele>601</ele>
        <time>2021-08-05T11:33:35.285Z</time>
      </trkpt>
      <trkpt lat="46.9776" lon="8.73912">
        <ele>601</ele>
        <time>2021-08-05T11:33:36.286Z</time>
      </trkpt>
      <trkpt lat="46.97761" lon="8.73914">
        <ele>601</ele>
        <time>2021-08-05T11:33:37.286Z</time>
      </trkpt>
      <trkpt lat="46.97761" lon="8.73916">
        <ele>600</ele>
        <time>2021-08-05T11:33:38.285Z</time>
      </trkpt>
      <trkpt lat="46.97762" lon="8.73918">
        <ele>600</ele>
        <time>2021-08-05T11:33:39.286Z</time>
      </trkpt>
      <trkpt lat="46.97764" lon="8.73919">
        <ele>599</ele>
        <time>2021-08-05T11:33:40.286Z</time>
      </trkpt>
      <trkpt lat="46.97765" lon="8.7392">
        <ele>599</ele>
        <time>2021-08-05T11:33:41.286Z</time>
      </trkpt>
      <trkpt lat="46.97765" lon="8.73921">
        <ele>598</ele>
        <time>2021-08-05T11:33:42.286Z</time>
      </trkpt>
      <trkpt lat="46.97766" lon="8.73922">
        <ele>598</ele>
        <time>2021-08-05T11:33:43.285Z</time>
      </trkpt>
      <trkpt lat="46.97767" lon="8.73924">
        <ele>598</ele>
        <time>2021-08-05T11:33:44.285Z</time>
      </trkpt>
      <trkpt lat="46.97768" lon="8.73925">
        <ele>598</ele>
        <time>2021-08-05T11:33:45.286Z</time>
      </trkpt>
      <trkpt lat="46.97769" lon="8.73926">
        <ele>599</ele>
        <time>2021-08-05T11:33:46.285Z</time>
      </trkpt>
      <trkpt lat="46.9777" lon="8.73927">
        <ele>599</ele>
        <time>2021-08-05T11:33:47.285Z</time>
      </trkpt>
      <trkpt lat="46.97771" lon="8.73928">
        <ele>599</ele>
        <time>2021-08-05T11:33:48.285Z</time>
      </trkpt>
      <trkpt lat="46.97772" lon="8.73929">
        <ele>599</ele>
        <time>2021-08-05T11:33:49.286Z</time>
      </trkpt>
      <trkpt lat="46.97773" lon="8.7393">
        <ele>599</ele>
        <time>2021-08-05T11:33:50.285Z</time>
      </trkpt>
      <trkpt lat="46.97774" lon="8.73931">
        <ele>599</ele>
        <time>2021-08-05T11:33:51.286Z</time>
      </trkpt>
      <trkpt lat="46.97774" lon="8.73933">
        <ele>599</ele>
        <time>2021-08-05T11:33:52.285Z</time>
      </trkpt>
      <trkpt lat="46.97775" lon="8.73934">
        <ele>599</ele>
        <time>2021-08-05T11:33:53.286Z</time>
      </trkpt>
      <trkpt lat="46.97776" lon="8.73935">
        <ele>599</ele>
        <time>2021-08-05T11:33:54.286Z</time>
      </trkpt>
      <trkpt lat="46.97777" lon="8.73937">
        <ele>599</ele>
        <time>2021-08-05T11:33:55.286Z</time>
      </trkpt>
      <trkpt lat="46.97778" lon="8.73939">
        <ele>599</ele>
        <time>2021-08-05T11:33:56.286Z</time>
      </trkpt>
      <trkpt lat="46.97779" lon="8.7394">
        <ele>598</ele>
        <time>2021-08-05T11:33:57.286Z</time>
      </trkpt>
      <trkpt lat="46.9778" lon="8.73941">
        <ele>598</ele>
        <time>2021-08-05T11:33:58.286Z</time>
      </trkpt>
      <trkpt lat="46.97781" lon="8.73943">
        <ele>598</ele>
        <time>2021-08-05T11:33:59.286Z</time>
      </trkpt>
      <trkpt lat="46.97782" lon="8.73944">
        <ele>597</ele>
        <time>2021-08-05T11:34:00.285Z</time>
      </trkpt>
      <trkpt lat="46.97783" lon="8.73945">
        <ele>596</ele>
        <time>2021-08-05T11:34:01.286Z</time>
      </trkpt>
      <trkpt lat="46.97784" lon="8.73946">
        <ele>596</ele>
        <time>2021-08-05T11:34:02.285Z</time>
      </trkpt>
      <trkpt lat="46.97785" lon="8.73948">
        <ele>595</ele>
        <time>2021-08-05T11:34:03.286Z</time>
      </trkpt>
      <trkpt lat="46.97786" lon="8.73949">
        <ele>595</ele>
        <time>2021-08-05T11:34:04.286Z</time>
      </trkpt>
      <trkpt lat="46.97787" lon="8.73951">
        <ele>595</ele>
        <time>2021-08-05T11:34:05.286Z</time>
      </trkpt>
      <trkpt lat="46.97788" lon="8.73952">
        <ele>595</ele>
        <time>2021-08-05T11:34:06.285Z</time>
      </trkpt>
      <trkpt lat="46.97789" lon="8.73953">
        <ele>595</ele>
        <time>2021-08-05T11:34:07.285Z</time>
      </trkpt>
      <trkpt lat="46.9779" lon="8.73954">
        <ele>595</ele>
        <time>2021-08-05T11:34:08.285Z</time>
      </trkpt>
      <trkpt lat="46.97791" lon="8.73955">
        <ele>596</ele>
        <time>2021-08-05T11:34:09.286Z</time>
      </trkpt>
      <trkpt lat="46.97792" lon="8.73956">
        <ele>596</ele>
        <time>2021-08-05T11:34:10.286Z</time>
      </trkpt>
      <trkpt lat="46.97793" lon="8.73957">
        <ele>596</ele>
        <time>2021-08-05T11:34:11.285Z</time>
      </trkpt>
      <trkpt lat="46.97794" lon="8.73958">
        <ele>596</ele>
        <time>2021-08-05T11:34:12.286Z</time>
      </trkpt>
      <trkpt lat="46.97794" lon="8.7396">
        <ele>596</ele>
        <time>2021-08-05T11:34:13.286Z</time>
      </trkpt>
      <trkpt lat="46.97795" lon="8.73961">
        <ele>596</ele>
        <time>2021-08-05T11:34:14.285Z</time>
      </trkpt>
      <trkpt lat="46.97796" lon="8.73963">
        <ele>595</ele>
        <time>2021-08-05T11:34:15.285Z</time>
      </trkpt>
      <trkpt lat="46.97797" lon="8.73964">
        <ele>595</ele>
        <time>2021-08-05T11:34:16.286Z</time>
      </trkpt>
      <trkpt lat="46.97798" lon="8.73965">
        <ele>595</ele>
        <time>2021-08-05T11:34:17.285Z</time>
      </trkpt>
      <trkpt lat="46.97799" lon="8.73967">
        <ele>596</ele>
        <time>2021-08-05T11:34:18.286Z</time>
      </trkpt>
      <trkpt lat="46.978" lon="8.73969">
        <ele>596</ele>
        <time>2021-08-05T11:34:19.285Z</time>
      </trkpt>
      <trkpt lat="46.978" lon="8.7397">
        <ele>596</ele>
        <time>2021-08-05T11:34:20.285Z</time>
      </trkpt>
      <trkpt lat="46.97801" lon="8.73972">
        <ele>597</ele>
        <time>2021-08-05T11:34:21.285Z</time>
      </trkpt>
      <trkpt lat="46.97802" lon="8.73974">
        <ele>597</ele>
        <time>2021-08-05T11:34:22.285Z</time>
      </trkpt>
      <trkpt lat="46.97802" lon="8.73976">
        <ele>596</ele>
        <time>2021-08-05T11:34:23.286Z</time>
      </trkpt>
      <trkpt lat="46.97803" lon="8.73978">
        <ele>596</ele>
        <time>2021-08-05T11:34:24.286Z</time>
      </trkpt>
      <trkpt lat="46.97803" lon="8.73979">
        <ele>596</ele>
        <time>2021-08-05T11:34:25.285Z</time>
      </trkpt>
      <trkpt lat="46.97804" lon="8.73982">
        <ele>596</ele>
        <time>2021-08-05T11:34:26.286Z</time>
      </trkpt>
      <trkpt lat="46.97804" lon="8.73984">
        <ele>596</ele>
        <time>2021-08-05T11:34:27.286Z</time>
      </trkpt>
      <trkpt lat="46.97804" lon="8.73985">
        <ele>596</ele>
        <time>2021-08-05T11:34:28.285Z</time>
      </trkpt>
      <trkpt lat="46.97805" lon="8.73987">
        <ele>596</ele>
        <time>2021-08-05T11:34:29.286Z</time>
      </trkpt>
      <trkpt lat="46.97805" lon="8.73989">
        <ele>596</ele>
        <time>2021-08-05T11:34:30.285Z</time>
      </trkpt>
      <trkpt lat="46.97805" lon="8.73991">
        <ele>596</ele>
        <time>2021-08-05T11:34:31.285Z</time>
      </trkpt>
      <trkpt lat="46.97806" lon="8.73992">
        <ele>596</ele>
        <time>2021-08-05T11:34:32.286Z</time>
      </trkpt>
      <trkpt lat="46.97807" lon="8.73993">
        <ele>596</ele>
        <time>2021-08-05T11:34:33.286Z</time>
      </trkpt>
      <trkpt lat="46.97807" lon="8.73995">
        <ele>595</ele>
        <time>2021-08-05T11:34:34.285Z</time>
      </trkpt>
      <trkpt lat="46.97807" lon="8.73997">
        <ele>595</ele>
        <time>2021-08-05T11:34:35.285Z</time>
      </trkpt>
      <trkpt lat="46.97808" lon="8.73999">
        <ele>595</ele>
        <time>2021-08-05T11:34:36.286Z</time>
      </trkpt>
      <trkpt lat="46.97808" lon="8.74001">
        <ele>595</ele>
        <time>2021-08-05T11:34:37.286Z</time>
      </trkpt>
      <trkpt lat="46.97808" lon="8.74003">
        <ele>595</ele>
        <time>2021-08-05T11:34:38.286Z</time>
      </trkpt>
      <trkpt lat="46.97809" lon="8.74005">
        <ele>595</ele>
        <time>2021-08-05T11:34:39.285Z</time>
      </trkpt>
      <trkpt lat="46.97809" lon="8.74007">
        <ele>595</ele>
        <time>2021-08-05T11:34:40.286Z</time>
      </trkpt>
      <trkpt lat="46.97809" lon="8.74009">
        <ele>595</ele>
        <time>2021-08-05T11:34:41.285Z</time>
      </trkpt>
      <trkpt lat="46.9781" lon="8.74011">
        <ele>596</ele>
        <time>2021-08-05T11:34:42.286Z</time>
      </trkpt>
      <trkpt lat="46.9781" lon="8.74013">
        <ele>596</ele>
        <time>2021-08-05T11:34:43.286Z</time>
      </trkpt>
      <trkpt lat="46.97811" lon="8.74014">
        <ele>596</ele>
        <time>2021-08-05T11:34:44.286Z</time>
      </trkpt>
      <trkpt lat="46.97812" lon="8.74017">
        <ele>596</ele>
        <time>2021-08-05T11:34:45.286Z</time>
      </trkpt>
      <trkpt lat="46.97812" lon="8.74018">
        <ele>596</ele>
        <time>2021-08-05T11:34:46.286Z</time>
      </trkpt>
      <trkpt lat="46.97813" lon="8.7402">
        <ele>596</ele>
        <time>2021-08-05T11:34:47.286Z</time>
      </trkpt>
      <trkpt lat="46.97813" lon="8.74022">
        <ele>596</ele>
        <time>2021-08-05T11:34:48.285Z</time>
      </trkpt>
      <trkpt lat="46.97814" lon="8.74024">
        <ele>597</ele>
        <time>2021-08-05T11:34:49.285Z</time>
      </trkpt>
      <trkpt lat="46.97814" lon="8.74026">
        <ele>597</ele>
        <time>2021-08-05T11:34:50.286Z</time>
      </trkpt>
      <trkpt lat="46.97814" lon="8.74028">
        <ele>597</ele>
        <time>2021-08-05T11:34:51.286Z</time>
      </trkpt>
      <trkpt lat="46.97815" lon="8.7403">
        <ele>597</ele>
        <time>2021-08-05T11:34:52.285Z</time>
      </trkpt>
      <trkpt lat="46.97815" lon="8.74033">
        <ele>597</ele>
        <time>2021-08-05T11:34:53.286Z</time>
      </trkpt>
      <trkpt lat="46.97816" lon="8.74035">
        <ele>598</ele>
        <time>2021-08-05T11:34:54.286Z</time>
      </trkpt>
      <trkpt lat="46.97816" lon="8.74037">
        <ele>598</ele>
        <time>2021-08-05T11:34:55.286Z</time>
      </trkpt>
      <trkpt lat="46.97817" lon="8.74039">
        <ele>598</ele>
        <time>2021-08-05T11:34:56.286Z</time>
      </trkpt>
      <trkpt lat="46.97818" lon="8.7404">
        <ele>598</ele>
        <time>2021-08-05T11:34:57.286Z</time>
      </trkpt>
      <trkpt lat="46.97819" lon="8.74041">
        <ele>599</ele>
        <time>2021-08-05T11:34:58.285Z</time>
      </trkpt>
      <trkpt lat="46.9782" lon="8.74042">
        <ele>599</ele>
        <time>2021-08-05T11:34:59.286Z</time>
      </trkpt>
      <trkpt lat="46.97822" lon="8.74042">
        <ele>600</ele>
        <time>2021-08-05T11:35:00.286Z</time>
      </trkpt>
      <trkpt lat="46.97823" lon="8.74042">
        <ele>600</ele>
        <time>2021-08-05T11:35:01.286Z</time>
      </trkpt>
      <trkpt lat="46.97824" lon="8.74042">
        <ele>600</ele>
        <time>2021-08-05T11:35:02.285Z</time>
      </trkpt>
      <trkpt lat="46.97825" lon="8.74041">
        <ele>600</ele>
        <time>2021-08-05T11:35:03.286Z</time>
      </trkpt>
      <trkpt lat="46.97826" lon="8.7404">
        <ele>600</ele>
        <time>2021-08-05T11:35:04.285Z</time>
      </trkpt>
      <trkpt lat="46.97828" lon="8.74039">
        <ele>600</ele>
        <time>2021-08-05T11:35:05.286Z</time>
      </trkpt>
      <trkpt lat="46.97829" lon="8.74038">
        <ele>600</ele>
        <time>2021-08-05T11:35:06.285Z</time>
      </trkpt>
      <trkpt lat="46.97831" lon="8.74037">
        <ele>600</ele>
        <time>2021-08-05T11:35:07.286Z</time>
      </trkpt>
      <trkpt lat="46.97832" lon="8.74036">
        <ele>600</ele>
        <time>2021-08-05T11:35:08.286Z</time>
      </trkpt>
      <trkpt lat="46.97833" lon="8.74035">
        <ele>599</ele>
        <time>2021-08-05T11:35:09.285Z</time>
      </trkpt>
      <trkpt lat="46.97835" lon="8.74034">
        <ele>599</ele>
        <time>2021-08-05T11:35:10.285Z</time>
      </trkpt>
      <trkpt lat="46.97836" lon="8.74033">
        <ele>599</ele>
        <time>2021-08-05T11:35:11.286Z</time>
      </trkpt>
      <trkpt lat="46.97837" lon="8.74033">
        <ele>598</ele>
        <time>2021-08-05T11:35:12.285Z</time>
      </trkpt>
      <trkpt lat="46.97838" lon="8.74033">
        <ele>598</ele>
        <time>2021-08-05T11:35:13.286Z</time>
      </trkpt>
      <trkpt lat="46.97839" lon="8.74034">
        <ele>598</ele>
        <time>2021-08-05T11:35:14.285Z</time>
      </trkpt>
      <trkpt lat="46.9784" lon="8.74034">
        <ele>598</ele>
        <time>2021-08-05T11:35:15.286Z</time>
      </trkpt>
      <trkpt lat="46.97841" lon="8.74035">
        <ele>597</ele>
        <time>2021-08-05T11:35:16.285Z</time>
      </trkpt>
      <trkpt lat="46.97843" lon="8.74035">
        <ele>597</ele>
        <time>2021-08-05T11:35:17.285Z</time>
      </trkpt>
      <trkpt lat="46.97844" lon="8.74036">
        <ele>597</ele>
        <time>2021-08-05T11:35:18.286Z</time>
      </trkpt>
      <trkpt lat="46.97844" lon="8.74037">
        <ele>596</ele>
        <time>2021-08-05T11:35:19.286Z</time>
      </trkpt>
      <trkpt lat="46.97846" lon="8.74039">
        <ele>596</ele>
        <time>2021-08-05T11:35:20.286Z</time>
      </trkpt>
      <trkpt lat="46.97846" lon="8.7404">
        <ele>596</ele>
        <time>2021-08-05T11:35:21.286Z</time>
      </trkpt>
      <trkpt lat="46.97847" lon="8.74041">
        <ele>597</ele>
        <time>2021-08-05T11:35:22.286Z</time>
      </trkpt>
      <trkpt lat="46.97848" lon="8.74043">
        <ele>597</ele>
        <time>2021-08-05T11:35:23.285Z</time>
      </trkpt>
      <trkpt lat="46.97849" lon="8.74045">
        <ele>597</ele>
        <time>2021-08-05T11:35:24.286Z</time>
      </trkpt>
      <trkpt lat="46.9785" lon="8.74046">
        <ele>597</ele>
        <time>2021-08-05T11:35:25.286Z</time>
      </trkpt>
      <trkpt lat="46.9785" lon="8.74048">
        <ele>598</ele>
        <time>2021-08-05T11:35:26.286Z</time>
      </trkpt>
      <trkpt lat="46.97851" lon="8.7405">
        <ele>598</ele>
        <time>2021-08-05T11:35:27.286Z</time>
      </trkpt>
      <trkpt lat="46.97852" lon="8.74051">
        <ele>597</ele>
        <time>2021-08-05T11:35:28.286Z</time>
      </trkpt>
      <trkpt lat="46.97853" lon="8.74053">
        <ele>597</ele>
        <time>2021-08-05T11:35:29.286Z</time>
      </trkpt>
      <trkpt lat="46.97854" lon="8.74054">
        <ele>597</ele>
        <time>2021-08-05T11:35:30.286Z</time>
      </trkpt>
      <trkpt lat="46.97854" lon="8.74055">
        <ele>597</ele>
        <time>2021-08-05T11:35:31.285Z</time>
      </trkpt>
      <trkpt lat="46.97855" lon="8.74056">
        <ele>597</ele>
        <time>2021-08-05T11:35:32.286Z</time>
      </trkpt>
      <trkpt lat="46.97856" lon="8.74057">
        <ele>596</ele>
        <time>2021-08-05T11:35:33.286Z</time>
      </trkpt>
      <trkpt lat="46.97857" lon="8.74058">
        <ele>596</ele>
        <time>2021-08-05T11:35:34.286Z</time>
      </trkpt>
      <trkpt lat="46.97859" lon="8.7406">
        <ele>595</ele>
        <time>2021-08-05T11:35:35.285Z</time>
      </trkpt>
      <trkpt lat="46.97859" lon="8.74061">
        <ele>594</ele>
        <time>2021-08-05T11:35:36.285Z</time>
      </trkpt>
      <trkpt lat="46.9786" lon="8.74063">
        <ele>594</ele>
        <time>2021-08-05T11:35:37.286Z</time>
      </trkpt>
      <trkpt lat="46.97861" lon="8.74065">
        <ele>593</ele>
        <time>2021-08-05T11:35:38.285Z</time>
      </trkpt>
      <trkpt lat="46.97861" lon="8.74067">
        <ele>593</ele>
        <time>2021-08-05T11:35:39.286Z</time>
      </trkpt>
      <trkpt lat="46.97862" lon="8.74068">
        <ele>592</ele>
        <time>2021-08-05T11:35:40.285Z</time>
      </trkpt>
      <trkpt lat="46.97863" lon="8.74069">
        <ele>592</ele>
        <time>2021-08-05T11:35:41.286Z</time>
      </trkpt>
      <trkpt lat="46.97864" lon="8.74071">
        <ele>591</ele>
        <time>2021-08-05T11:35:42.286Z</time>
      </trkpt>
      <trkpt lat="46.97865" lon="8.74073">
        <ele>591</ele>
        <time>2021-08-05T11:35:43.286Z</time>
      </trkpt>
      <trkpt lat="46.97865" lon="8.74075">
        <ele>591</ele>
        <time>2021-08-05T11:35:44.286Z</time>
      </trkpt>
      <trkpt lat="46.97866" lon="8.74076">
        <ele>591</ele>
        <time>2021-08-05T11:35:45.286Z</time>
      </trkpt>
      <trkpt lat="46.97867" lon="8.74078">
        <ele>592</ele>
        <time>2021-08-05T11:35:46.286Z</time>
      </trkpt>
      <trkpt lat="46.97868" lon="8.7408">
        <ele>592</ele>
        <time>2021-08-05T11:35:47.285Z</time>
      </trkpt>
      <trkpt lat="46.97868" lon="8.74081">
        <ele>593</ele>
        <time>2021-08-05T11:35:48.285Z</time>
      </trkpt>
      <trkpt lat="46.97868" lon="8.74083">
        <ele>594</ele>
        <time>2021-08-05T11:35:49.286Z</time>
      </trkpt>
      <trkpt lat="46.97869" lon="8.74085">
        <ele>594</ele>
        <time>2021-08-05T11:35:50.285Z</time>
      </trkpt>
      <trkpt lat="46.97869" lon="8.74087">
        <ele>594</ele>
        <time>2021-08-05T11:35:51.286Z</time>
      </trkpt>
      <trkpt lat="46.9787" lon="8.74088">
        <ele>594</ele>
        <time>2021-08-05T11:35:52.286Z</time>
      </trkpt>
      <trkpt lat="46.9787" lon="8.7409">
        <ele>594</ele>
        <time>2021-08-05T11:35:53.286Z</time>
      </trkpt>
      <trkpt lat="46.97871" lon="8.74092">
        <ele>594</ele>
        <time>2021-08-05T11:35:54.286Z</time>
      </trkpt>
      <trkpt lat="46.97871" lon="8.74094">
        <ele>594</ele>
        <time>2021-08-05T11:35:55.286Z</time>
      </trkpt>
      <trkpt lat="46.97872" lon="8.74095">
        <ele>594</ele>
        <time>2021-08-05T11:35:56.285Z</time>
      </trkpt>
      <trkpt lat="46.97872" lon="8.74097">
        <ele>594</ele>
        <time>2021-08-05T11:35:57.286Z</time>
      </trkpt>
      <trkpt lat="46.97872" lon="8.74099">
        <ele>594</ele>
        <time>2021-08-05T11:35:58.286Z</time>
      </trkpt>
      <trkpt lat="46.97873" lon="8.74101">
        <ele>594</ele>
        <time>2021-08-05T11:35:59.285Z</time>
      </trkpt>
      <trkpt lat="46.97873" lon="8.74104">
        <ele>594</ele>
        <time>2021-08-05T11:36:00.285Z</time>
      </trkpt>
      <trkpt lat="46.97872" lon="8.74106">
        <ele>593</ele>
        <time>2021-08-05T11:36:01.286Z</time>
      </trkpt>
      <trkpt lat="46.97873" lon="8.74108">
        <ele>593</ele>
        <time>2021-08-05T11:36:02.286Z</time>
      </trkpt>
      <trkpt lat="46.97874" lon="8.74109">
        <ele>592</ele>
        <time>2021-08-05T11:36:03.286Z</time>
      </trkpt>
      <trkpt lat="46.97874" lon="8.7411">
        <ele>592</ele>
        <time>2021-08-05T11:36:04.286Z</time>
      </trkpt>
      <trkpt lat="46.97874" lon="8.74112">
        <ele>593</ele>
        <time>2021-08-05T11:36:05.286Z</time>
      </trkpt>
      <trkpt lat="46.97874" lon="8.74114">
        <ele>593</ele>
        <time>2021-08-05T11:36:06.286Z</time>
      </trkpt>
      <trkpt lat="46.97875" lon="8.74115">
        <ele>594</ele>
        <time>2021-08-05T11:36:07.286Z</time>
      </trkpt>
      <trkpt lat="46.97875" lon="8.74117">
        <ele>594</ele>
        <time>2021-08-05T11:36:08.285Z</time>
      </trkpt>
      <trkpt lat="46.97875" lon="8.74118">
        <ele>594</ele>
        <time>2021-08-05T11:36:09.285Z</time>
      </trkpt>
      <trkpt lat="46.97875" lon="8.7412">
        <ele>594</ele>
        <time>2021-08-05T11:36:10.286Z</time>
      </trkpt>
      <trkpt lat="46.97875" lon="8.74122">
        <ele>593</ele>
        <time>2021-08-05T11:36:11.285Z</time>
      </trkpt>
      <trkpt lat="46.97876" lon="8.74123">
        <ele>593</ele>
        <time>2021-08-05T11:36:12.286Z</time>
      </trkpt>
      <trkpt lat="46.97876" lon="8.74125">
        <ele>593</ele>
        <time>2021-08-05T11:36:13.286Z</time>
      </trkpt>
      <trkpt lat="46.97876" lon="8.74127">
        <ele>592</ele>
        <time>2021-08-05T11:36:14.285Z</time>
      </trkpt>
      <trkpt lat="46.97876" lon="8.74129">
        <ele>593</ele>
        <time>2021-08-05T11:36:15.286Z</time>
      </trkpt>
      <trkpt lat="46.97876" lon="8.74131">
        <ele>593</ele>
        <time>2021-08-05T11:36:16.286Z</time>
      </trkpt>
      <trkpt lat="46.97877" lon="8.74133">
        <ele>593</ele>
        <time>2021-08-05T11:36:17.285Z</time>
      </trkpt>
      <trkpt lat="46.97877" lon="8.74135">
        <ele>594</ele>
        <time>2021-08-05T11:36:18.285Z</time>
      </trkpt>
      <trkpt lat="46.97877" lon="8.74136">
        <ele>594</ele>
        <time>2021-08-05T11:36:19.286Z</time>
      </trkpt>
      <trkpt lat="46.97876" lon="8.74138">
        <ele>594</ele>
        <time>2021-08-05T11:36:20.286Z</time>
      </trkpt>
      <trkpt lat="46.97876" lon="8.7414">
        <ele>594</ele>
        <time>2021-08-05T11:36:21.285Z</time>
      </trkpt>
      <trkpt lat="46.97876" lon="8.74142">
        <ele>594</ele>
        <time>2021-08-05T11:36:22.286Z</time>
      </trkpt>
      <trkpt lat="46.97876" lon="8.74144">
        <ele>594</ele>
        <time>2021-08-05T11:36:23.286Z</time>
      </trkpt>
      <trkpt lat="46.97876" lon="8.74145">
        <ele>594</ele>
        <time>2021-08-05T11:36:24.285Z</time>
      </trkpt>
      <trkpt lat="46.97876" lon="8.74147">
        <ele>594</ele>
        <time>2021-08-05T11:36:25.286Z</time>
      </trkpt>
      <trkpt lat="46.97875" lon="8.74148">
        <ele>594</ele>
        <time>2021-08-05T11:36:26.285Z</time>
      </trkpt>
      <trkpt lat="46.97875" lon="8.7415">
        <ele>594</ele>
        <time>2021-08-05T11:36:27.286Z</time>
      </trkpt>
      <trkpt lat="46.97875" lon="8.74153">
        <ele>594</ele>
        <time>2021-08-05T11:36:28.286Z</time>
      </trkpt>
      <trkpt lat="46.97874" lon="8.74155">
        <ele>594</ele>
        <time>2021-08-05T11:36:29.286Z</time>
      </trkpt>
      <trkpt lat="46.97874" lon="8.74157">
        <ele>594</ele>
        <time>2021-08-05T11:36:30.285Z</time>
      </trkpt>
      <trkpt lat="46.97874" lon="8.74159">
        <ele>594</ele>
        <time>2021-08-05T11:36:31.286Z</time>
      </trkpt>
      <trkpt lat="46.97873" lon="8.74161">
        <ele>594</ele>
        <time>2021-08-05T11:36:32.285Z</time>
      </trkpt>
      <trkpt lat="46.97873" lon="8.74163">
        <ele>595</ele>
        <time>2021-08-05T11:36:33.286Z</time>
      </trkpt>
      <trkpt lat="46.97872" lon="8.74165">
        <ele>595</ele>
        <time>2021-08-05T11:36:34.286Z</time>
      </trkpt>
      <trkpt lat="46.97872" lon="8.74166">
        <ele>595</ele>
        <time>2021-08-05T11:36:35.285Z</time>
      </trkpt>
      <trkpt lat="46.97871" lon="8.74168">
        <ele>596</ele>
        <time>2021-08-05T11:36:36.286Z</time>
      </trkpt>
      <trkpt lat="46.97871" lon="8.7417">
        <ele>596</ele>
        <time>2021-08-05T11:36:37.285Z</time>
      </trkpt>
      <trkpt lat="46.9787" lon="8.74172">
        <ele>597</ele>
        <time>2021-08-05T11:36:38.285Z</time>
      </trkpt>
      <trkpt lat="46.97869" lon="8.74174">
        <ele>597</ele>
        <time>2021-08-05T11:36:39.286Z</time>
      </trkpt>
      <trkpt lat="46.97869" lon="8.74176">
        <ele>598</ele>
        <time>2021-08-05T11:36:40.286Z</time>
      </trkpt>
      <trkpt lat="46.97868" lon="8.74178">
        <ele>598</ele>
        <time>2021-08-05T11:36:41.285Z</time>
      </trkpt>
      <trkpt lat="46.97868" lon="8.7418">
        <ele>598</ele>
        <time>2021-08-05T11:36:42.286Z</time>
      </trkpt>
      <trkpt lat="46.97868" lon="8.74182">
        <ele>598</ele>
        <time>2021-08-05T11:36:43.285Z</time>
      </trkpt>
      <trkpt lat="46.97867" lon="8.74184">
        <ele>598</ele>
        <time>2021-08-05T11:36:44.285Z</time>
      </trkpt>
      <trkpt lat="46.97867" lon="8.74186">
        <ele>598</ele>
        <time>2021-08-05T11:36:45.286Z</time>
      </trkpt>
      <trkpt lat="46.97867" lon="8.74188">
        <ele>597</ele>
        <time>2021-08-05T11:36:46.286Z</time>
      </trkpt>
      <trkpt lat="46.97866" lon="8.7419">
        <ele>597</ele>
        <time>2021-08-05T11:36:47.286Z</time>
      </trkpt>
      <trkpt lat="46.97866" lon="8.74192">
        <ele>597</ele>
        <time>2021-08-05T11:36:48.286Z</time>
      </trkpt>
      <trkpt lat="46.97865" lon="8.74194">
        <ele>597</ele>
        <time>2021-08-05T11:36:49.286Z</time>
      </trkpt>
      <trkpt lat="46.97865" lon="8.74195">
        <ele>598</ele>
        <time>2021-08-05T11:36:50.286Z</time>
      </trkpt>
      <trkpt lat="46.97865" lon="8.74197">
        <ele>598</ele>
        <time>2021-08-05T11:36:51.285Z</time>
      </trkpt>
      <trkpt lat="46.97864" lon="8.74199">
        <ele>598</ele>
        <time>2021-08-05T11:36:52.285Z</time>
      </trkpt>
      <trkpt lat="46.97864" lon="8.742">
        <ele>598</ele>
        <time>2021-08-05T11:36:53.286Z</time>
      </trkpt>
      <trkpt lat="46.97863" lon="8.74202">
        <ele>598</ele>
        <time>2021-08-05T11:36:54.285Z</time>
      </trkpt>
      <trkpt lat="46.97863" lon="8.74204">
        <ele>597</ele>
        <time>2021-08-05T11:36:55.286Z</time>
      </trkpt>
      <trkpt lat="46.97863" lon="8.74206">
        <ele>597</ele>
        <time>2021-08-05T11:36:56.286Z</time>
      </trkpt>
      <trkpt lat="46.97862" lon="8.74208">
        <ele>597</ele>
        <time>2021-08-05T11:36:57.285Z</time>
      </trkpt>
      <trkpt lat="46.97862" lon="8.74209">
        <ele>597</ele>
        <time>2021-08-05T11:36:58.286Z</time>
      </trkpt>
      <trkpt lat="46.97861" lon="8.74211">
        <ele>597</ele>
        <time>2021-08-05T11:36:59.286Z</time>
      </trkpt>
      <trkpt lat="46.97861" lon="8.74213">
        <ele>597</ele>
        <time>2021-08-05T11:37:00.286Z</time>
      </trkpt>
      <trkpt lat="46.97861" lon="8.74215">
        <ele>597</ele>
        <time>2021-08-05T11:37:01.286Z</time>
      </trkpt>
      <trkpt lat="46.9786" lon="8.74217">
        <ele>597</ele>
        <time>2021-08-05T11:37:02.286Z</time>
      </trkpt>
      <trkpt lat="46.9786" lon="8.74218">
        <ele>597</ele>
        <time>2021-08-05T11:37:03.285Z</time>
      </trkpt>
      <trkpt lat="46.97859" lon="8.7422">
        <ele>597</ele>
        <time>2021-08-05T11:37:04.285Z</time>
      </trkpt>
      <trkpt lat="46.97859" lon="8.74222">
        <ele>597</ele>
        <time>2021-08-05T11:37:05.286Z</time>
      </trkpt>
      <trkpt lat="46.97859" lon="8.74224">
        <ele>596</ele>
        <time>2021-08-05T11:37:06.285Z</time>
      </trkpt>
      <trkpt lat="46.97858" lon="8.74225">
        <ele>596</ele>
        <time>2021-08-05T11:37:07.286Z</time>
      </trkpt>
      <trkpt lat="46.97858" lon="8.74226">
        <ele>597</ele>
        <time>2021-08-05T11:37:08.286Z</time>
      </trkpt>
      <trkpt lat="46.97857" lon="8.74228">
        <ele>597</ele>
        <time>2021-08-05T11:37:09.286Z</time>
      </trkpt>
      <trkpt lat="46.97857" lon="8.74231">
        <ele>596</ele>
        <time>2021-08-05T11:37:10.286Z</time>
      </trkpt>
      <trkpt lat="46.97856" lon="8.74232">
        <ele>596</ele>
        <time>2021-08-05T11:37:11.285Z</time>
      </trkpt>
      <trkpt lat="46.97856" lon="8.74234">
        <ele>596</ele>
        <time>2021-08-05T11:37:12.286Z</time>
      </trkpt>
      <trkpt lat="46.97856" lon="8.74236">
        <ele>596</ele>
        <time>2021-08-05T11:37:13.286Z</time>
      </trkpt>
      <trkpt lat="46.97855" lon="8.74239">
        <ele>596</ele>
        <time>2021-08-05T11:37:14.286Z</time>
      </trkpt>
      <trkpt lat="46.97855" lon="8.74241">
        <ele>596</ele>
        <time>2021-08-05T11:37:15.285Z</time>
      </trkpt>
      <trkpt lat="46.97855" lon="8.74243">
        <ele>596</ele>
        <time>2021-08-05T11:37:16.286Z</time>
      </trkpt>
      <trkpt lat="46.97854" lon="8.74243">
        <ele>596</ele>
        <time>2021-08-05T11:37:17.285Z</time>
      </trkpt>
      <trkpt lat="46.97854" lon="8.74246">
        <ele>596</ele>
        <time>2021-08-05T11:37:18.286Z</time>
      </trkpt>
      <trkpt lat="46.97854" lon="8.74249">
        <ele>596</ele>
        <time>2021-08-05T11:37:19.286Z</time>
      </trkpt>
      <trkpt lat="46.97853" lon="8.74252">
        <ele>596</ele>
        <time>2021-08-05T11:37:20.285Z</time>
      </trkpt>
      <trkpt lat="46.97853" lon="8.74253">
        <ele>596</ele>
        <time>2021-08-05T11:37:21.285Z</time>
      </trkpt>
      <trkpt lat="46.97853" lon="8.74255">
        <ele>596</ele>
        <time>2021-08-05T11:37:22.286Z</time>
      </trkpt>
      <trkpt lat="46.97852" lon="8.74257">
        <ele>596</ele>
        <time>2021-08-05T11:37:23.286Z</time>
      </trkpt>
      <trkpt lat="46.97852" lon="8.74258">
        <ele>595</ele>
        <time>2021-08-05T11:37:24.286Z</time>
      </trkpt>
      <trkpt lat="46.97852" lon="8.74259">
        <ele>595</ele>
        <time>2021-08-05T11:37:25.285Z</time>
      </trkpt>
      <trkpt lat="46.97851" lon="8.74261">
        <ele>595</ele>
        <time>2021-08-05T11:37:26.286Z</time>
      </trkpt>
      <trkpt lat="46.97851" lon="8.74264">
        <ele>595</ele>
        <time>2021-08-05T11:37:27.285Z</time>
      </trkpt>
      <trkpt lat="46.9785" lon="8.74266">
        <ele>595</ele>
        <time>2021-08-05T11:37:28.285Z</time>
      </trkpt>
      <trkpt lat="46.9785" lon="8.74268">
        <ele>596</ele>
        <time>2021-08-05T11:37:29.286Z</time>
      </trkpt>
      <trkpt lat="46.97849" lon="8.7427">
        <ele>596</ele>
        <time>2021-08-05T11:37:30.286Z</time>
      </trkpt>
      <trkpt lat="46.97849" lon="8.74271">
        <ele>595</ele>
        <time>2021-08-05T11:37:31.285Z</time>
      </trkpt>
      <trkpt lat="46.97849" lon="8.74273">
        <ele>595</ele>
        <time>2021-08-05T11:37:32.285Z</time>
      </trkpt>
      <trkpt lat="46.97848" lon="8.74275">
        <ele>595</ele>
        <time>2021-08-05T11:37:33.285Z</time>
      </trkpt>
      <trkpt lat="46.97847" lon="8.74277">
        <ele>595</ele>
        <time>2021-08-05T11:37:35.431Z</time>
      </trkpt>
      <trkpt lat="46.97847" lon="8.74278">
        <ele>595</ele>
        <time>2021-08-05T11:37:36.431Z</time>
      </trkpt>
      <trkpt lat="46.97846" lon="8.7428">
        <ele>595</ele>
        <time>2021-08-05T11:37:37.431Z</time>
      </trkpt>
      <trkpt lat="46.97846" lon="8.74281">
        <ele>595</ele>
        <time>2021-08-05T11:37:38.432Z</time>
      </trkpt>
      <trkpt lat="46.97846" lon="8.74282">
        <ele>595</ele>
        <time>2021-08-05T11:37:39.431Z</time>
      </trkpt>
      <trkpt lat="46.97846" lon="8.74282">
        <ele>595</ele>
        <time>2021-08-05T11:37:40.431Z</time>
      </trkpt>
      <trkpt lat="46.97845" lon="8.74278">
        <ele>595</ele>
        <time>2021-08-05T11:37:41.431Z</time>
      </trkpt>
      <trkpt lat="46.97845" lon="8.7428">
        <ele>596</ele>
        <time>2021-08-05T11:37:42.432Z</time>
      </trkpt>
      <trkpt lat="46.97844" lon="8.74282">
        <ele>596</ele>
        <time>2021-08-05T11:37:43.431Z</time>
      </trkpt>
      <trkpt lat="46.97844" lon="8.74284">
        <ele>597</ele>
        <time>2021-08-05T11:37:44.431Z</time>
      </trkpt>
      <trkpt lat="46.97843" lon="8.74286">
        <ele>597</ele>
        <time>2021-08-05T11:37:45.431Z</time>
      </trkpt>
      <trkpt lat="46.97843" lon="8.74288">
        <ele>598</ele>
        <time>2021-08-05T11:37:46.432Z</time>
      </trkpt>
      <trkpt lat="46.97843" lon="8.74291">
        <ele>598</ele>
        <time>2021-08-05T11:37:47.432Z</time>
      </trkpt>
      <trkpt lat="46.97843" lon="8.74293">
        <ele>598</ele>
        <time>2021-08-05T11:37:48.431Z</time>
      </trkpt>
      <trkpt lat="46.97842" lon="8.74294">
        <ele>598</ele>
        <time>2021-08-05T11:37:49.431Z</time>
      </trkpt>
      <trkpt lat="46.97841" lon="8.74296">
        <ele>598</ele>
        <time>2021-08-05T11:37:50.432Z</time>
      </trkpt>
      <trkpt lat="46.97841" lon="8.74298">
        <ele>599</ele>
        <time>2021-08-05T11:37:51.431Z</time>
      </trkpt>
      <trkpt lat="46.9784" lon="8.743">
        <ele>599</ele>
        <time>2021-08-05T11:37:52.432Z</time>
      </trkpt>
      <trkpt lat="46.9784" lon="8.74302">
        <ele>599</ele>
        <time>2021-08-05T11:37:53.432Z</time>
      </trkpt>
      <trkpt lat="46.97839" lon="8.74303">
        <ele>599</ele>
        <time>2021-08-05T11:37:54.432Z</time>
      </trkpt>
      <trkpt lat="46.97839" lon="8.74306">
        <ele>599</ele>
        <time>2021-08-05T11:37:55.431Z</time>
      </trkpt>
      <trkpt lat="46.97839" lon="8.74308">
        <ele>599</ele>
        <time>2021-08-05T11:37:56.432Z</time>
      </trkpt>
      <trkpt lat="46.97838" lon="8.7431">
        <ele>599</ele>
        <time>2021-08-05T11:37:57.432Z</time>
      </trkpt>
      <trkpt lat="46.97837" lon="8.74312">
        <ele>599</ele>
        <time>2021-08-05T11:37:58.431Z</time>
      </trkpt>
      <trkpt lat="46.97837" lon="8.74313">
        <ele>598</ele>
        <time>2021-08-05T11:37:59.432Z</time>
      </trkpt>
      <trkpt lat="46.97836" lon="8.74315">
        <ele>598</ele>
        <time>2021-08-05T11:38:00.432Z</time>
      </trkpt>
      <trkpt lat="46.97836" lon="8.74318">
        <ele>598</ele>
        <time>2021-08-05T11:38:01.432Z</time>
      </trkpt>
      <trkpt lat="46.97835" lon="8.74318">
        <ele>598</ele>
        <time>2021-08-05T11:38:02.432Z</time>
      </trkpt>
      <trkpt lat="46.97834" lon="8.74319">
        <ele>598</ele>
        <time>2021-08-05T11:38:03.432Z</time>
      </trkpt>
      <trkpt lat="46.97834" lon="8.74321">
        <ele>598</ele>
        <time>2021-08-05T11:38:04.432Z</time>
      </trkpt>
      <trkpt lat="46.97834" lon="8.74323">
        <ele>597</ele>
        <time>2021-08-05T11:38:05.432Z</time>
      </trkpt>
      <trkpt lat="46.97834" lon="8.74325">
        <ele>597</ele>
        <time>2021-08-05T11:38:06.432Z</time>
      </trkpt>
      <trkpt lat="46.97834" lon="8.74327">
        <ele>597</ele>
        <time>2021-08-05T11:38:07.432Z</time>
      </trkpt>
      <trkpt lat="46.97834" lon="8.74328">
        <ele>597</ele>
        <time>2021-08-05T11:38:08.432Z</time>
      </trkpt>
      <trkpt lat="46.97833" lon="8.7433">
        <ele>597</ele>
        <time>2021-08-05T11:38:09.432Z</time>
      </trkpt>
      <trkpt lat="46.97833" lon="8.74332">
        <ele>596</ele>
        <time>2021-08-05T11:38:10.432Z</time>
      </trkpt>
      <trkpt lat="46.97832" lon="8.74333">
        <ele>596</ele>
        <time>2021-08-05T11:38:11.431Z</time>
      </trkpt>
      <trkpt lat="46.97832" lon="8.74335">
        <ele>596</ele>
        <time>2021-08-05T11:38:12.432Z</time>
      </trkpt>
      <trkpt lat="46.97831" lon="8.74337">
        <ele>596</ele>
        <time>2021-08-05T11:38:13.432Z</time>
      </trkpt>
      <trkpt lat="46.97831" lon="8.74339">
        <ele>596</ele>
        <time>2021-08-05T11:38:14.432Z</time>
      </trkpt>
      <trkpt lat="46.9783" lon="8.7434">
        <ele>596</ele>
        <time>2021-08-05T11:38:15.431Z</time>
      </trkpt>
      <trkpt lat="46.9783" lon="8.74342">
        <ele>596</ele>
        <time>2021-08-05T11:38:16.431Z</time>
      </trkpt>
      <trkpt lat="46.97829" lon="8.74343">
        <ele>597</ele>
        <time>2021-08-05T11:38:17.431Z</time>
      </trkpt>
      <trkpt lat="46.97828" lon="8.74345">
        <ele>597</ele>
        <time>2021-08-05T11:38:18.432Z</time>
      </trkpt>
      <trkpt lat="46.97828" lon="8.74347">
        <ele>596</ele>
        <time>2021-08-05T11:38:19.431Z</time>
      </trkpt>
      <trkpt lat="46.97827" lon="8.74349">
        <ele>597</ele>
        <time>2021-08-05T11:38:20.431Z</time>
      </trkpt>
      <trkpt lat="46.97827" lon="8.7435">
        <ele>597</ele>
        <time>2021-08-05T11:38:21.431Z</time>
      </trkpt>
      <trkpt lat="46.97826" lon="8.74352">
        <ele>598</ele>
        <time>2021-08-05T11:38:22.431Z</time>
      </trkpt>
      <trkpt lat="46.97825" lon="8.74355">
        <ele>598</ele>
        <time>2021-08-05T11:38:23.431Z</time>
      </trkpt>
      <trkpt lat="46.97825" lon="8.74357">
        <ele>598</ele>
        <time>2021-08-05T11:38:24.431Z</time>
      </trkpt>
      <trkpt lat="46.97824" lon="8.74359">
        <ele>599</ele>
        <time>2021-08-05T11:38:25.432Z</time>
      </trkpt>
      <trkpt lat="46.97824" lon="8.74361">
        <ele>599</ele>
        <time>2021-08-05T11:38:26.431Z</time>
      </trkpt>
      <trkpt lat="46.97824" lon="8.74363">
        <ele>599</ele>
        <time>2021-08-05T11:38:27.432Z</time>
      </trkpt>
      <trkpt lat="46.97823" lon="8.74364">
        <ele>599</ele>
        <time>2021-08-05T11:38:28.432Z</time>
      </trkpt>
      <trkpt lat="46.97823" lon="8.74366">
        <ele>599</ele>
        <time>2021-08-05T11:38:29.432Z</time>
      </trkpt>
      <trkpt lat="46.97822" lon="8.74368">
        <ele>599</ele>
        <time>2021-08-05T11:38:30.432Z</time>
      </trkpt>
      <trkpt lat="46.97822" lon="8.7437">
        <ele>598</ele>
        <time>2021-08-05T11:38:31.432Z</time>
      </trkpt>
      <trkpt lat="46.97822" lon="8.74372">
        <ele>598</ele>
        <time>2021-08-05T11:38:32.432Z</time>
      </trkpt>
      <trkpt lat="46.97821" lon="8.74375">
        <ele>598</ele>
        <time>2021-08-05T11:38:33.431Z</time>
      </trkpt>
      <trkpt lat="46.97821" lon="8.74376">
        <ele>598</ele>
        <time>2021-08-05T11:38:34.431Z</time>
      </trkpt>
      <trkpt lat="46.9782" lon="8.74378">
        <ele>598</ele>
        <time>2021-08-05T11:38:35.432Z</time>
      </trkpt>
      <trkpt lat="46.9782" lon="8.7438">
        <ele>598</ele>
        <time>2021-08-05T11:38:36.432Z</time>
      </trkpt>
      <trkpt lat="46.97819" lon="8.74381">
        <ele>597</ele>
        <time>2021-08-05T11:38:37.432Z</time>
      </trkpt>
      <trkpt lat="46.97819" lon="8.74383">
        <ele>597</ele>
        <time>2021-08-05T11:38:38.432Z</time>
      </trkpt>
      <trkpt lat="46.97818" lon="8.74385">
        <ele>597</ele>
        <time>2021-08-05T11:38:39.431Z</time>
      </trkpt>
      <trkpt lat="46.97818" lon="8.74387">
        <ele>597</ele>
        <time>2021-08-05T11:38:40.431Z</time>
      </trkpt>
      <trkpt lat="46.97818" lon="8.74389">
        <ele>596</ele>
        <time>2021-08-05T11:38:41.431Z</time>
      </trkpt>
      <trkpt lat="46.97817" lon="8.74391">
        <ele>596</ele>
        <time>2021-08-05T11:38:42.432Z</time>
      </trkpt>
      <trkpt lat="46.97817" lon="8.74393">
        <ele>595</ele>
        <time>2021-08-05T11:38:43.431Z</time>
      </trkpt>
      <trkpt lat="46.97816" lon="8.74395">
        <ele>595</ele>
        <time>2021-08-05T11:38:44.432Z</time>
      </trkpt>
      <trkpt lat="46.97815" lon="8.74397">
        <ele>595</ele>
        <time>2021-08-05T11:38:45.431Z</time>
      </trkpt>
      <trkpt lat="46.97815" lon="8.74399">
        <ele>595</ele>
        <time>2021-08-05T11:38:46.432Z</time>
      </trkpt>
      <trkpt lat="46.97814" lon="8.74401">
        <ele>596</ele>
        <time>2021-08-05T11:38:47.432Z</time>
      </trkpt>
      <trkpt lat="46.97814" lon="8.74403">
        <ele>596</ele>
        <time>2021-08-05T11:38:48.432Z</time>
      </trkpt>
      <trkpt lat="46.97813" lon="8.74404">
        <ele>596</ele>
        <time>2021-08-05T11:38:49.432Z</time>
      </trkpt>
      <trkpt lat="46.97813" lon="8.74406">
        <ele>596</ele>
        <time>2021-08-05T11:38:50.432Z</time>
      </trkpt>
      <trkpt lat="46.97812" lon="8.74408">
        <ele>596</ele>
        <time>2021-08-05T11:38:51.431Z</time>
      </trkpt>
      <trkpt lat="46.97812" lon="8.7441">
        <ele>596</ele>
        <time>2021-08-05T11:38:52.432Z</time>
      </trkpt>
      <trkpt lat="46.97811" lon="8.74412">
        <ele>596</ele>
        <time>2021-08-05T11:38:53.432Z</time>
      </trkpt>
      <trkpt lat="46.97811" lon="8.74414">
        <ele>596</ele>
        <time>2021-08-05T11:38:54.432Z</time>
      </trkpt>
      <trkpt lat="46.9781" lon="8.74416">
        <ele>596</ele>
        <time>2021-08-05T11:38:55.432Z</time>
      </trkpt>
      <trkpt lat="46.97809" lon="8.74418">
        <ele>596</ele>
        <time>2021-08-05T11:38:56.432Z</time>
      </trkpt>
      <trkpt lat="46.97809" lon="8.7442">
        <ele>596</ele>
        <time>2021-08-05T11:39:08.535Z</time>
      </trkpt>
      <trkpt lat="46.97808" lon="8.74422">
        <ele>596</ele>
        <time>2021-08-05T11:39:09.536Z</time>
      </trkpt>
      <trkpt lat="46.97807" lon="8.74423">
        <ele>596</ele>
        <time>2021-08-05T11:39:18.328Z</time>
      </trkpt>
      <trkpt lat="46.97807" lon="8.74425">
        <ele>595</ele>
        <time>2021-08-05T11:39:19.328Z</time>
      </trkpt>
      <trkpt lat="46.97806" lon="8.74427">
        <ele>595</ele>
        <time>2021-08-05T11:39:20.328Z</time>
      </trkpt>
      <trkpt lat="46.97805" lon="8.74429">
        <ele>595</ele>
        <time>2021-08-05T11:39:21.327Z</time>
      </trkpt>
      <trkpt lat="46.97805" lon="8.7443">
        <ele>595</ele>
        <time>2021-08-05T11:39:22.328Z</time>
      </trkpt>
      <trkpt lat="46.97804" lon="8.74432">
        <ele>595</ele>
        <time>2021-08-05T11:39:23.327Z</time>
      </trkpt>
      <trkpt lat="46.97804" lon="8.74434">
        <ele>595</ele>
        <time>2021-08-05T11:39:24.327Z</time>
      </trkpt>
      <trkpt lat="46.97804" lon="8.74435">
        <ele>595</ele>
        <time>2021-08-05T11:39:25.328Z</time>
      </trkpt>
      <trkpt lat="46.97803" lon="8.74437">
        <ele>595</ele>
        <time>2021-08-05T11:39:26.328Z</time>
      </trkpt>
      <trkpt lat="46.97803" lon="8.74439">
        <ele>595</ele>
        <time>2021-08-05T11:39:27.328Z</time>
      </trkpt>
      <trkpt lat="46.97802" lon="8.74441">
        <ele>596</ele>
        <time>2021-08-05T11:39:28.328Z</time>
      </trkpt>
      <trkpt lat="46.97802" lon="8.74443">
        <ele>596</ele>
        <time>2021-08-05T11:39:38.451Z</time>
      </trkpt>
      <trkpt lat="46.97802" lon="8.74445">
        <ele>597</ele>
        <time>2021-08-05T11:39:39.451Z</time>
      </trkpt>
      <trkpt lat="46.97801" lon="8.74447">
        <ele>597</ele>
        <time>2021-08-05T11:39:40.450Z</time>
      </trkpt>
      <trkpt lat="46.97801" lon="8.74449">
        <ele>598</ele>
        <time>2021-08-05T11:39:50.329Z</time>
      </trkpt>
      <trkpt lat="46.978" lon="8.7445">
        <ele>598</ele>
        <time>2021-08-05T11:39:51.330Z</time>
      </trkpt>
      <trkpt lat="46.978" lon="8.74452">
        <ele>598</ele>
        <time>2021-08-05T11:39:57.177Z</time>
      </trkpt>
      <trkpt lat="46.978" lon="8.74453">
        <ele>599</ele>
        <time>2021-08-05T11:39:58.177Z</time>
      </trkpt>
      <trkpt lat="46.97799" lon="8.74455">
        <ele>600</ele>
        <time>2021-08-05T11:39:59.177Z</time>
      </trkpt>
      <trkpt lat="46.97799" lon="8.74457">
        <ele>600</ele>
        <time>2021-08-05T11:40:30.308Z</time>
      </trkpt>
      <trkpt lat="46.97798" lon="8.74459">
        <ele>600</ele>
        <time>2021-08-05T11:40:31.307Z</time>
      </trkpt>
      <trkpt lat="46.97797" lon="8.74461">
        <ele>601</ele>
        <time>2021-08-05T11:40:32.308Z</time>
      </trkpt>
      <trkpt lat="46.97797" lon="8.74463">
        <ele>601</ele>
        <time>2021-08-05T11:40:33.308Z</time>
      </trkpt>
      <trkpt lat="46.97796" lon="8.74465">
        <ele>601</ele>
        <time>2021-08-05T11:40:34.308Z</time>
      </trkpt>
      <trkpt lat="46.97795" lon="8.74466">
        <ele>602</ele>
        <time>2021-08-05T11:40:35.307Z</time>
      </trkpt>
      <trkpt lat="46.97794" lon="8.74468">
        <ele>602</ele>
        <time>2021-08-05T11:40:36.308Z</time>
      </trkpt>
      <trkpt lat="46.97794" lon="8.7447">
        <ele>602</ele>
        <time>2021-08-05T11:40:42.444Z</time>
      </trkpt>
      <trkpt lat="46.97793" lon="8.74472">
        <ele>603</ele>
        <time>2021-08-05T11:40:43.443Z</time>
      </trkpt>
      <trkpt lat="46.97793" lon="8.74474">
        <ele>603</ele>
        <time>2021-08-05T11:40:44.444Z</time>
      </trkpt>
      <trkpt lat="46.97792" lon="8.74476">
        <ele>603</ele>
        <time>2021-08-05T11:40:45.443Z</time>
      </trkpt>
      <trkpt lat="46.97792" lon="8.74478">
        <ele>603</ele>
        <time>2021-08-05T11:40:57.533Z</time>
      </trkpt>
      <trkpt lat="46.97792" lon="8.74479">
        <ele>602</ele>
        <time>2021-08-05T11:40:58.533Z</time>
      </trkpt>
      <trkpt lat="46.97792" lon="8.7448">
        <ele>601</ele>
        <time>2021-08-05T11:40:59.533Z</time>
      </trkpt>
      <trkpt lat="46.97792" lon="8.74481">
        <ele>600</ele>
        <time>2021-08-05T11:41:06.659Z</time>
      </trkpt>
      <trkpt lat="46.97791" lon="8.74482">
        <ele>600</ele>
        <time>2021-08-05T11:41:07.659Z</time>
      </trkpt>
      <trkpt lat="46.97791" lon="8.74484">
        <ele>600</ele>
        <time>2021-08-05T11:41:08.660Z</time>
      </trkpt>
      <trkpt lat="46.97791" lon="8.74485">
        <ele>599</ele>
        <time>2021-08-05T11:41:09.659Z</time>
      </trkpt>
      <trkpt lat="46.9779" lon="8.74486">
        <ele>599</ele>
        <time>2021-08-05T11:41:10.659Z</time>
      </trkpt>
      <trkpt lat="46.9779" lon="8.74486">
        <ele>599</ele>
        <time>2021-08-05T11:41:11.660Z</time>
      </trkpt>
      <trkpt lat="46.97789" lon="8.74488">
        <ele>599</ele>
        <time>2021-08-05T11:41:12.659Z</time>
      </trkpt>
      <trkpt lat="46.97789" lon="8.7449">
        <ele>599</ele>
        <time>2021-08-05T11:41:23.783Z</time>
      </trkpt>
      <trkpt lat="46.97789" lon="8.74493">
        <ele>599</ele>
        <time>2021-08-05T11:41:24.783Z</time>
      </trkpt>
      <trkpt lat="46.97788" lon="8.74495">
        <ele>599</ele>
        <time>2021-08-05T11:41:30.572Z</time>
      </trkpt>
      <trkpt lat="46.97788" lon="8.74497">
        <ele>599</ele>
        <time>2021-08-05T11:41:31.572Z</time>
      </trkpt>
      <trkpt lat="46.97787" lon="8.74499">
        <ele>599</ele>
        <time>2021-08-05T11:41:32.571Z</time>
      </trkpt>
      <trkpt lat="46.97787" lon="8.74501">
        <ele>599</ele>
        <time>2021-08-05T11:41:34.675Z</time>
      </trkpt>
      <trkpt lat="46.97786" lon="8.74502">
        <ele>599</ele>
        <time>2021-08-05T11:41:35.675Z</time>
      </trkpt>
      <trkpt lat="46.97786" lon="8.74504">
        <ele>599</ele>
        <time>2021-08-05T11:41:43.556Z</time>
      </trkpt>
      <trkpt lat="46.97785" lon="8.74506">
        <ele>599</ele>
        <time>2021-08-05T11:41:44.556Z</time>
      </trkpt>
      <trkpt lat="46.97785" lon="8.74509">
        <ele>599</ele>
        <time>2021-08-05T11:41:45.556Z</time>
      </trkpt>
      <trkpt lat="46.97784" lon="8.74511">
        <ele>598</ele>
        <time>2021-08-05T11:41:46.557Z</time>
      </trkpt>
      <trkpt lat="46.97784" lon="8.74513">
        <ele>598</ele>
        <time>2021-08-05T11:41:47.557Z</time>
      </trkpt>
      <trkpt lat="46.97783" lon="8.74515">
        <ele>598</ele>
        <time>2021-08-05T11:41:53.659Z</time>
      </trkpt>
      <trkpt lat="46.97783" lon="8.74518">
        <ele>598</ele>
        <time>2021-08-05T11:42:10.549Z</time>
      </trkpt>
      <trkpt lat="46.97782" lon="8.7452">
        <ele>598</ele>
        <time>2021-08-05T11:42:11.548Z</time>
      </trkpt>
      <trkpt lat="46.97781" lon="8.74522">
        <ele>598</ele>
        <time>2021-08-05T11:42:12.549Z</time>
      </trkpt>
      <trkpt lat="46.97781" lon="8.74524">
        <ele>598</ele>
        <time>2021-08-05T11:42:13.548Z</time>
      </trkpt>
      <trkpt lat="46.9778" lon="8.74526">
        <ele>598</ele>
        <time>2021-08-05T11:42:14.548Z</time>
      </trkpt>
      <trkpt lat="46.9778" lon="8.74527">
        <ele>598</ele>
        <time>2021-08-05T11:42:15.549Z</time>
      </trkpt>
      <trkpt lat="46.97779" lon="8.74529">
        <ele>598</ele>
        <time>2021-08-05T11:42:29.668Z</time>
      </trkpt>
      <trkpt lat="46.97779" lon="8.74531">
        <ele>598</ele>
        <time>2021-08-05T11:42:30.668Z</time>
      </trkpt>
      <trkpt lat="46.97779" lon="8.74533">
        <ele>598</ele>
        <time>2021-08-05T11:42:31.668Z</time>
      </trkpt>
      <trkpt lat="46.97778" lon="8.74534">
        <ele>598</ele>
        <time>2021-08-05T11:42:32.668Z</time>
      </trkpt>
      <trkpt lat="46.97778" lon="8.74536">
        <ele>598</ele>
        <time>2021-08-05T11:42:33.668Z</time>
      </trkpt>
      <trkpt lat="46.97778" lon="8.74538">
        <ele>597</ele>
        <time>2021-08-05T11:42:34.668Z</time>
      </trkpt>
      <trkpt lat="46.97777" lon="8.7454">
        <ele>597</ele>
        <time>2021-08-05T11:42:35.667Z</time>
      </trkpt>
      <trkpt lat="46.97777" lon="8.74542">
        <ele>597</ele>
        <time>2021-08-05T11:42:36.667Z</time>
      </trkpt>
      <trkpt lat="46.97776" lon="8.74544">
        <ele>597</ele>
        <time>2021-08-05T11:42:37.667Z</time>
      </trkpt>
      <trkpt lat="46.97776" lon="8.74546">
        <ele>597</ele>
        <time>2021-08-05T11:42:38.668Z</time>
      </trkpt>
      <trkpt lat="46.97775" lon="8.74549">
        <ele>597</ele>
        <time>2021-08-05T11:42:39.668Z</time>
      </trkpt>
      <trkpt lat="46.97774" lon="8.74551">
        <ele>597</ele>
        <time>2021-08-05T11:42:40.668Z</time>
      </trkpt>
      <trkpt lat="46.97774" lon="8.74553">
        <ele>597</ele>
        <time>2021-08-05T11:42:41.668Z</time>
      </trkpt>
      <trkpt lat="46.97774" lon="8.74555">
        <ele>597</ele>
        <time>2021-08-05T11:42:42.668Z</time>
      </trkpt>
      <trkpt lat="46.97774" lon="8.74556">
        <ele>597</ele>
        <time>2021-08-05T11:42:43.668Z</time>
      </trkpt>
      <trkpt lat="46.97773" lon="8.74557">
        <ele>596</ele>
        <time>2021-08-05T11:42:44.668Z</time>
      </trkpt>
      <trkpt lat="46.97773" lon="8.74559">
        <ele>596</ele>
        <time>2021-08-05T11:42:45.667Z</time>
      </trkpt>
      <trkpt lat="46.97772" lon="8.7456">
        <ele>596</ele>
        <time>2021-08-05T11:42:46.667Z</time>
      </trkpt>
      <trkpt lat="46.97772" lon="8.74561">
        <ele>595</ele>
        <time>2021-08-05T11:42:47.668Z</time>
      </trkpt>
      <trkpt lat="46.97772" lon="8.74562">
        <ele>595</ele>
        <time>2021-08-05T11:42:48.668Z</time>
      </trkpt>
      <trkpt lat="46.97771" lon="8.74563">
        <ele>594</ele>
        <time>2021-08-05T11:42:49.668Z</time>
      </trkpt>
      <trkpt lat="46.97771" lon="8.74564">
        <ele>594</ele>
        <time>2021-08-05T11:42:50.667Z</time>
      </trkpt>
      <trkpt lat="46.97771" lon="8.74566">
        <ele>594</ele>
        <time>2021-08-05T11:42:51.667Z</time>
      </trkpt>
      <trkpt lat="46.97771" lon="8.74567">
        <ele>594</ele>
        <time>2021-08-05T11:42:52.668Z</time>
      </trkpt>
      <trkpt lat="46.9777" lon="8.74569">
        <ele>594</ele>
        <time>2021-08-05T11:42:53.667Z</time>
      </trkpt>
      <trkpt lat="46.9777" lon="8.74571">
        <ele>593</ele>
        <time>2021-08-05T11:42:54.668Z</time>
      </trkpt>
      <trkpt lat="46.9777" lon="8.74574">
        <ele>593</ele>
        <time>2021-08-05T11:42:55.668Z</time>
      </trkpt>
      <trkpt lat="46.9777" lon="8.74576">
        <ele>593</ele>
        <time>2021-08-05T11:42:56.668Z</time>
      </trkpt>
      <trkpt lat="46.97769" lon="8.74578">
        <ele>593</ele>
        <time>2021-08-05T11:42:57.668Z</time>
      </trkpt>
      <trkpt lat="46.97769" lon="8.74579">
        <ele>592</ele>
        <time>2021-08-05T11:42:58.667Z</time>
      </trkpt>
      <trkpt lat="46.97768" lon="8.74581">
        <ele>592</ele>
        <time>2021-08-05T11:42:59.668Z</time>
      </trkpt>
      <trkpt lat="46.97768" lon="8.74583">
        <ele>592</ele>
        <time>2021-08-05T11:43:00.668Z</time>
      </trkpt>
      <trkpt lat="46.97768" lon="8.74585">
        <ele>592</ele>
        <time>2021-08-05T11:43:01.667Z</time>
      </trkpt>
      <trkpt lat="46.97768" lon="8.74587">
        <ele>592</ele>
        <time>2021-08-05T11:43:02.668Z</time>
      </trkpt>
      <trkpt lat="46.97768" lon="8.7459">
        <ele>592</ele>
        <time>2021-08-05T11:43:03.668Z</time>
      </trkpt>
      <trkpt lat="46.97768" lon="8.74592">
        <ele>592</ele>
        <time>2021-08-05T11:43:04.668Z</time>
      </trkpt>
      <trkpt lat="46.97768" lon="8.74594">
        <ele>592</ele>
        <time>2021-08-05T11:43:05.668Z</time>
      </trkpt>
      <trkpt lat="46.97768" lon="8.74596">
        <ele>592</ele>
        <time>2021-08-05T11:43:06.667Z</time>
      </trkpt>
      <trkpt lat="46.97767" lon="8.74597">
        <ele>592</ele>
        <time>2021-08-05T11:43:07.668Z</time>
      </trkpt>
      <trkpt lat="46.97767" lon="8.74599">
        <ele>592</ele>
        <time>2021-08-05T11:43:08.667Z</time>
      </trkpt>
      <trkpt lat="46.97767" lon="8.746">
        <ele>592</ele>
        <time>2021-08-05T11:43:09.668Z</time>
      </trkpt>
      <trkpt lat="46.97766" lon="8.74602">
        <ele>593</ele>
        <time>2021-08-05T11:43:10.668Z</time>
      </trkpt>
      <trkpt lat="46.97766" lon="8.74603">
        <ele>593</ele>
        <time>2021-08-05T11:43:11.667Z</time>
      </trkpt>
      <trkpt lat="46.97765" lon="8.74605">
        <ele>594</ele>
        <time>2021-08-05T11:43:12.667Z</time>
      </trkpt>
      <trkpt lat="46.97764" lon="8.74607">
        <ele>594</ele>
        <time>2021-08-05T11:43:13.667Z</time>
      </trkpt>
      <trkpt lat="46.97764" lon="8.7461">
        <ele>594</ele>
        <time>2021-08-05T11:43:14.667Z</time>
      </trkpt>
      <trkpt lat="46.97764" lon="8.74611">
        <ele>594</ele>
        <time>2021-08-05T11:43:15.667Z</time>
      </trkpt>
      <trkpt lat="46.97764" lon="8.74613">
        <ele>595</ele>
        <time>2021-08-05T11:43:16.667Z</time>
      </trkpt>
      <trkpt lat="46.97764" lon="8.74614">
        <ele>595</ele>
        <time>2021-08-05T11:43:17.667Z</time>
      </trkpt>
      <trkpt lat="46.97764" lon="8.74616">
        <ele>596</ele>
        <time>2021-08-05T11:43:18.667Z</time>
      </trkpt>
      <trkpt lat="46.97764" lon="8.74617">
        <ele>596</ele>
        <time>2021-08-05T11:43:19.667Z</time>
      </trkpt>
      <trkpt lat="46.97763" lon="8.74618">
        <ele>596</ele>
        <time>2021-08-05T11:43:20.668Z</time>
      </trkpt>
      <trkpt lat="46.97763" lon="8.7462">
        <ele>596</ele>
        <time>2021-08-05T11:43:40.678Z</time>
      </trkpt>
      <trkpt lat="46.97763" lon="8.74621">
        <ele>596</ele>
        <time>2021-08-05T11:43:41.678Z</time>
      </trkpt>
      <trkpt lat="46.97764" lon="8.74623">
        <ele>595</ele>
        <time>2021-08-05T11:43:42.678Z</time>
      </trkpt>
      <trkpt lat="46.97764" lon="8.74625">
        <ele>595</ele>
        <time>2021-08-05T11:43:55.790Z</time>
      </trkpt>
      <trkpt lat="46.97764" lon="8.74627">
        <ele>595</ele>
        <time>2021-08-05T11:43:56.790Z</time>
      </trkpt>
      <trkpt lat="46.97764" lon="8.74629">
        <ele>595</ele>
        <time>2021-08-05T11:43:57.790Z</time>
      </trkpt>
      <trkpt lat="46.97764" lon="8.74631">
        <ele>595</ele>
        <time>2021-08-05T11:43:58.790Z</time>
      </trkpt>
      <trkpt lat="46.97763" lon="8.74633">
        <ele>595</ele>
        <time>2021-08-05T11:43:59.791Z</time>
      </trkpt>
      <trkpt lat="46.97763" lon="8.74635">
        <ele>595</ele>
        <time>2021-08-05T11:44:00.790Z</time>
      </trkpt>
      <trkpt lat="46.97763" lon="8.74637">
        <ele>595</ele>
        <time>2021-08-05T11:44:01.790Z</time>
      </trkpt>
      <trkpt lat="46.97762" lon="8.74639">
        <ele>596</ele>
        <time>2021-08-05T11:44:02.790Z</time>
      </trkpt>
      <trkpt lat="46.97762" lon="8.74641">
        <ele>596</ele>
        <time>2021-08-05T11:44:03.790Z</time>
      </trkpt>
      <trkpt lat="46.97762" lon="8.74643">
        <ele>596</ele>
        <time>2021-08-05T11:44:04.790Z</time>
      </trkpt>
      <trkpt lat="46.97762" lon="8.74645">
        <ele>597</ele>
        <time>2021-08-05T11:44:05.790Z</time>
      </trkpt>
      <trkpt lat="46.97762" lon="8.74647">
        <ele>597</ele>
        <time>2021-08-05T11:44:06.790Z</time>
      </trkpt>
      <trkpt lat="46.97761" lon="8.7465">
        <ele>597</ele>
        <time>2021-08-05T11:44:07.791Z</time>
      </trkpt>
      <trkpt lat="46.97761" lon="8.74651">
        <ele>597</ele>
        <time>2021-08-05T11:44:08.790Z</time>
      </trkpt>
      <trkpt lat="46.97761" lon="8.74654">
        <ele>598</ele>
        <time>2021-08-05T11:44:09.790Z</time>
      </trkpt>
      <trkpt lat="46.97761" lon="8.74656">
        <ele>598</ele>
        <time>2021-08-05T11:44:10.790Z</time>
      </trkpt>
      <trkpt lat="46.97761" lon="8.74657">
        <ele>598</ele>
        <time>2021-08-05T11:44:11.791Z</time>
      </trkpt>
      <trkpt lat="46.97761" lon="8.74659">
        <ele>598</ele>
        <time>2021-08-05T11:44:12.791Z</time>
      </trkpt>
      <trkpt lat="46.9776" lon="8.7466">
        <ele>598</ele>
        <time>2021-08-05T11:44:13.791Z</time>
      </trkpt>
      <trkpt lat="46.9776" lon="8.74662">
        <ele>597</ele>
        <time>2021-08-05T11:44:14.791Z</time>
      </trkpt>
      <trkpt lat="46.9776" lon="8.74663">
        <ele>597</ele>
        <time>2021-08-05T11:44:15.790Z</time>
      </trkpt>
      <trkpt lat="46.9776" lon="8.74665">
        <ele>597</ele>
        <time>2021-08-05T11:44:16.791Z</time>
      </trkpt>
      <trkpt lat="46.97759" lon="8.74666">
        <ele>598</ele>
        <time>2021-08-05T11:44:17.791Z</time>
      </trkpt>
      <trkpt lat="46.97759" lon="8.74668">
        <ele>598</ele>
        <time>2021-08-05T11:44:18.791Z</time>
      </trkpt>
      <trkpt lat="46.97759" lon="8.74669">
        <ele>598</ele>
        <time>2021-08-05T11:44:19.791Z</time>
      </trkpt>
      <trkpt lat="46.97759" lon="8.74671">
        <ele>599</ele>
        <time>2021-08-05T11:44:20.790Z</time>
      </trkpt>
      <trkpt lat="46.97759" lon="8.74673">
        <ele>599</ele>
        <time>2021-08-05T11:44:21.790Z</time>
      </trkpt>
      <trkpt lat="46.97759" lon="8.74676">
        <ele>599</ele>
        <time>2021-08-05T11:44:22.791Z</time>
      </trkpt>
      <trkpt lat="46.97758" lon="8.74678">
        <ele>599</ele>
        <time>2021-08-05T11:44:23.791Z</time>
      </trkpt>
      <trkpt lat="46.97758" lon="8.74679">
        <ele>599</ele>
        <time>2021-08-05T11:44:24.790Z</time>
      </trkpt>
      <trkpt lat="46.97758" lon="8.74681">
        <ele>599</ele>
        <time>2021-08-05T11:44:25.790Z</time>
      </trkpt>
      <trkpt lat="46.97758" lon="8.74683">
        <ele>599</ele>
        <time>2021-08-05T11:44:26.791Z</time>
      </trkpt>
      <trkpt lat="46.97758" lon="8.74685">
        <ele>599</ele>
        <time>2021-08-05T11:44:27.790Z</time>
      </trkpt>
      <trkpt lat="46.97757" lon="8.74687">
        <ele>599</ele>
        <time>2021-08-05T11:44:28.791Z</time>
      </trkpt>
      <trkpt lat="46.97758" lon="8.7469">
        <ele>599</ele>
        <time>2021-08-05T11:44:29.790Z</time>
      </trkpt>
      <trkpt lat="46.97758" lon="8.74692">
        <ele>599</ele>
        <time>2021-08-05T11:44:30.791Z</time>
      </trkpt>
      <trkpt lat="46.97758" lon="8.74694">
        <ele>599</ele>
        <time>2021-08-05T11:44:31.791Z</time>
      </trkpt>
      <trkpt lat="46.97757" lon="8.74696">
        <ele>599</ele>
        <time>2021-08-05T11:44:32.790Z</time>
      </trkpt>
      <trkpt lat="46.97756" lon="8.74698">
        <ele>600</ele>
        <time>2021-08-05T11:44:33.791Z</time>
      </trkpt>
      <trkpt lat="46.97756" lon="8.747">
        <ele>600</ele>
        <time>2021-08-05T11:44:34.790Z</time>
      </trkpt>
      <trkpt lat="46.97756" lon="8.74702">
        <ele>601</ele>
        <time>2021-08-05T11:44:35.791Z</time>
      </trkpt>
      <trkpt lat="46.97755" lon="8.74704">
        <ele>601</ele>
        <time>2021-08-05T11:44:36.791Z</time>
      </trkpt>
      <trkpt lat="46.97755" lon="8.74706">
        <ele>601</ele>
        <time>2021-08-05T11:44:37.790Z</time>
      </trkpt>
      <trkpt lat="46.97755" lon="8.74709">
        <ele>601</ele>
        <time>2021-08-05T11:44:38.791Z</time>
      </trkpt>
      <trkpt lat="46.97755" lon="8.74711">
        <ele>601</ele>
        <time>2021-08-05T11:44:39.790Z</time>
      </trkpt>
      <trkpt lat="46.97754" lon="8.74713">
        <ele>601</ele>
        <time>2021-08-05T11:44:40.790Z</time>
      </trkpt>
      <trkpt lat="46.97754" lon="8.74714">
        <ele>601</ele>
        <time>2021-08-05T11:44:41.790Z</time>
      </trkpt>
      <trkpt lat="46.97754" lon="8.74716">
        <ele>601</ele>
        <time>2021-08-05T11:44:42.791Z</time>
      </trkpt>
      <trkpt lat="46.97754" lon="8.74718">
        <ele>601</ele>
        <time>2021-08-05T11:44:43.790Z</time>
      </trkpt>
      <trkpt lat="46.97753" lon="8.7472">
        <ele>600</ele>
        <time>2021-08-05T11:44:44.791Z</time>
      </trkpt>
      <trkpt lat="46.97753" lon="8.74722">
        <ele>600</ele>
        <time>2021-08-05T11:44:45.791Z</time>
      </trkpt>
      <trkpt lat="46.97753" lon="8.74723">
        <ele>599</ele>
        <time>2021-08-05T11:44:46.790Z</time>
      </trkpt>
      <trkpt lat="46.97753" lon="8.74726">
        <ele>599</ele>
        <time>2021-08-05T11:44:47.791Z</time>
      </trkpt>
      <trkpt lat="46.97753" lon="8.74729">
        <ele>599</ele>
        <time>2021-08-05T11:44:48.791Z</time>
      </trkpt>
      <trkpt lat="46.97752" lon="8.7473">
        <ele>599</ele>
        <time>2021-08-05T11:44:49.790Z</time>
      </trkpt>
      <trkpt lat="46.97752" lon="8.74732">
        <ele>599</ele>
        <time>2021-08-05T11:44:50.790Z</time>
      </trkpt>
      <trkpt lat="46.97751" lon="8.74734">
        <ele>600</ele>
        <time>2021-08-05T11:44:51.790Z</time>
      </trkpt>
      <trkpt lat="46.97751" lon="8.74736">
        <ele>600</ele>
        <time>2021-08-05T11:44:52.790Z</time>
      </trkpt>
      <trkpt lat="46.97751" lon="8.74738">
        <ele>601</ele>
        <time>2021-08-05T11:44:53.790Z</time>
      </trkpt>
      <trkpt lat="46.9775" lon="8.7474">
        <ele>601</ele>
        <time>2021-08-05T11:44:54.790Z</time>
      </trkpt>
      <trkpt lat="46.97749" lon="8.74742">
        <ele>601</ele>
        <time>2021-08-05T11:44:55.790Z</time>
      </trkpt>
      <trkpt lat="46.97749" lon="8.74744">
        <ele>602</ele>
        <time>2021-08-05T11:44:56.791Z</time>
      </trkpt>
      <trkpt lat="46.97749" lon="8.74746">
        <ele>602</ele>
        <time>2021-08-05T11:44:57.791Z</time>
      </trkpt>
      <trkpt lat="46.97748" lon="8.74748">
        <ele>602</ele>
        <time>2021-08-05T11:44:58.790Z</time>
      </trkpt>
      <trkpt lat="46.97748" lon="8.74749">
        <ele>602</ele>
        <time>2021-08-05T11:44:59.790Z</time>
      </trkpt>
      <trkpt lat="46.97748" lon="8.74751">
        <ele>603</ele>
        <time>2021-08-05T11:45:00.791Z</time>
      </trkpt>
      <trkpt lat="46.97747" lon="8.74753">
        <ele>603</ele>
        <time>2021-08-05T11:45:01.790Z</time>
      </trkpt>
      <trkpt lat="46.97747" lon="8.74755">
        <ele>603</ele>
        <time>2021-08-05T11:45:02.790Z</time>
      </trkpt>
      <trkpt lat="46.97747" lon="8.74757">
        <ele>604</ele>
        <time>2021-08-05T11:45:03.791Z</time>
      </trkpt>
      <trkpt lat="46.97747" lon="8.74759">
        <ele>604</ele>
        <time>2021-08-05T11:45:04.791Z</time>
      </trkpt>
      <trkpt lat="46.97747" lon="8.74761">
        <ele>605</ele>
        <time>2021-08-05T11:45:05.790Z</time>
      </trkpt>
      <trkpt lat="46.97747" lon="8.74763">
        <ele>605</ele>
        <time>2021-08-05T11:45:06.791Z</time>
      </trkpt>
      <trkpt lat="46.97747" lon="8.74765">
        <ele>605</ele>
        <time>2021-08-05T11:45:07.791Z</time>
      </trkpt>
      <trkpt lat="46.97747" lon="8.74766">
        <ele>605</ele>
        <time>2021-08-05T11:45:08.790Z</time>
      </trkpt>
      <trkpt lat="46.97747" lon="8.74768">
        <ele>605</ele>
        <time>2021-08-05T11:45:09.791Z</time>
      </trkpt>
      <trkpt lat="46.97747" lon="8.7477">
        <ele>604</ele>
        <time>2021-08-05T11:45:10.790Z</time>
      </trkpt>
      <trkpt lat="46.97747" lon="8.74773">
        <ele>604</ele>
        <time>2021-08-05T11:45:11.791Z</time>
      </trkpt>
      <trkpt lat="46.97748" lon="8.74775">
        <ele>603</ele>
        <time>2021-08-05T11:45:12.790Z</time>
      </trkpt>
      <trkpt lat="46.97748" lon="8.74777">
        <ele>603</ele>
        <time>2021-08-05T11:45:13.790Z</time>
      </trkpt>
      <trkpt lat="46.97748" lon="8.74778">
        <ele>602</ele>
        <time>2021-08-05T11:45:14.790Z</time>
      </trkpt>
      <trkpt lat="46.97748" lon="8.7478">
        <ele>602</ele>
        <time>2021-08-05T11:45:15.791Z</time>
      </trkpt>
      <trkpt lat="46.97748" lon="8.74782">
        <ele>601</ele>
        <time>2021-08-05T11:45:16.791Z</time>
      </trkpt>
      <trkpt lat="46.97748" lon="8.74784">
        <ele>601</ele>
        <time>2021-08-05T11:45:17.790Z</time>
      </trkpt>
      <trkpt lat="46.97748" lon="8.74786">
        <ele>601</ele>
        <time>2021-08-05T11:45:18.790Z</time>
      </trkpt>
      <trkpt lat="46.97748" lon="8.74789">
        <ele>601</ele>
        <time>2021-08-05T11:45:19.790Z</time>
      </trkpt>
      <trkpt lat="46.97748" lon="8.74791">
        <ele>600</ele>
        <time>2021-08-05T11:45:20.790Z</time>
      </trkpt>
      <trkpt lat="46.97747" lon="8.74793">
        <ele>601</ele>
        <time>2021-08-05T11:45:21.791Z</time>
      </trkpt>
      <trkpt lat="46.97747" lon="8.74795">
        <ele>601</ele>
        <time>2021-08-05T11:45:22.791Z</time>
      </trkpt>
      <trkpt lat="46.97747" lon="8.74797">
        <ele>601</ele>
        <time>2021-08-05T11:45:23.790Z</time>
      </trkpt>
      <trkpt lat="46.97747" lon="8.74799">
        <ele>601</ele>
        <time>2021-08-05T11:45:24.790Z</time>
      </trkpt>
      <trkpt lat="46.97747" lon="8.74802">
        <ele>600</ele>
        <time>2021-08-05T11:45:25.790Z</time>
      </trkpt>
      <trkpt lat="46.97747" lon="8.74804">
        <ele>600</ele>
        <time>2021-08-05T11:45:26.791Z</time>
      </trkpt>
      <trkpt lat="46.97746" lon="8.74806">
        <ele>600</ele>
        <time>2021-08-05T11:45:27.791Z</time>
      </trkpt>
      <trkpt lat="46.97746" lon="8.74808">
        <ele>600</ele>
        <time>2021-08-05T11:45:28.791Z</time>
      </trkpt>
      <trkpt lat="46.97746" lon="8.7481">
        <ele>600</ele>
        <time>2021-08-05T11:45:29.791Z</time>
      </trkpt>
      <trkpt lat="46.97745" lon="8.74812">
        <ele>600</ele>
        <time>2021-08-05T11:45:30.791Z</time>
      </trkpt>
      <trkpt lat="46.97745" lon="8.74814">
        <ele>600</ele>
        <time>2021-08-05T11:45:31.791Z</time>
      </trkpt>
      <trkpt lat="46.97745" lon="8.74817">
        <ele>601</ele>
        <time>2021-08-05T11:45:32.790Z</time>
      </trkpt>
      <trkpt lat="46.97745" lon="8.74819">
        <ele>601</ele>
        <time>2021-08-05T11:45:33.791Z</time>
      </trkpt>
      <trkpt lat="46.97745" lon="8.74821">
        <ele>602</ele>
        <time>2021-08-05T11:45:34.791Z</time>
      </trkpt>
      <trkpt lat="46.97744" lon="8.74823">
        <ele>602</ele>
        <time>2021-08-05T11:45:35.791Z</time>
      </trkpt>
      <trkpt lat="46.97744" lon="8.74825">
        <ele>603</ele>
        <time>2021-08-05T11:45:36.791Z</time>
      </trkpt>
      <trkpt lat="46.97744" lon="8.74827">
        <ele>603</ele>
        <time>2021-08-05T11:45:37.790Z</time>
      </trkpt>
      <trkpt lat="46.97744" lon="8.74829">
        <ele>603</ele>
        <time>2021-08-05T11:45:38.790Z</time>
      </trkpt>
      <trkpt lat="46.97744" lon="8.74832">
        <ele>604</ele>
        <time>2021-08-05T11:45:39.790Z</time>
      </trkpt>
      <trkpt lat="46.97743" lon="8.74834">
        <ele>604</ele>
        <time>2021-08-05T11:45:40.790Z</time>
      </trkpt>
      <trkpt lat="46.97743" lon="8.74836">
        <ele>604</ele>
        <time>2021-08-05T11:45:41.790Z</time>
      </trkpt>
      <trkpt lat="46.97742" lon="8.74837">
        <ele>605</ele>
        <time>2021-08-05T11:45:42.790Z</time>
      </trkpt>
      <trkpt lat="46.97742" lon="8.74839">
        <ele>605</ele>
        <time>2021-08-05T11:45:43.791Z</time>
      </trkpt>
      <trkpt lat="46.97742" lon="8.74841">
        <ele>605</ele>
        <time>2021-08-05T11:45:44.791Z</time>
      </trkpt>
      <trkpt lat="46.97741" lon="8.74843">
        <ele>605</ele>
        <time>2021-08-05T11:45:45.791Z</time>
      </trkpt>
      <trkpt lat="46.97741" lon="8.74845">
        <ele>605</ele>
        <time>2021-08-05T11:45:46.791Z</time>
      </trkpt>
      <trkpt lat="46.97741" lon="8.74846">
        <ele>605</ele>
        <time>2021-08-05T11:45:47.791Z</time>
      </trkpt>
      <trkpt lat="46.9774" lon="8.74849">
        <ele>604</ele>
        <time>2021-08-05T11:45:48.791Z</time>
      </trkpt>
      <trkpt lat="46.9774" lon="8.74851">
        <ele>604</ele>
        <time>2021-08-05T11:45:49.791Z</time>
      </trkpt>
      <trkpt lat="46.9774" lon="8.74853">
        <ele>604</ele>
        <time>2021-08-05T11:45:50.791Z</time>
      </trkpt>
      <trkpt lat="46.9774" lon="8.74855">
        <ele>604</ele>
        <time>2021-08-05T11:45:51.790Z</time>
      </trkpt>
      <trkpt lat="46.97739" lon="8.74857">
        <ele>603</ele>
        <time>2021-08-05T11:45:52.790Z</time>
      </trkpt>
      <trkpt lat="46.97739" lon="8.74859">
        <ele>603</ele>
        <time>2021-08-05T11:45:53.791Z</time>
      </trkpt>
      <trkpt lat="46.97739" lon="8.7486">
        <ele>603</ele>
        <time>2021-08-05T11:45:54.791Z</time>
      </trkpt>
      <trkpt lat="46.97738" lon="8.74863">
        <ele>603</ele>
        <time>2021-08-05T11:45:55.790Z</time>
      </trkpt>
      <trkpt lat="46.97738" lon="8.74865">
        <ele>603</ele>
        <time>2021-08-05T11:45:56.790Z</time>
      </trkpt>
      <trkpt lat="46.97738" lon="8.74867">
        <ele>602</ele>
        <time>2021-08-05T11:45:57.790Z</time>
      </trkpt>
      <trkpt lat="46.97738" lon="8.74869">
        <ele>602</ele>
        <time>2021-08-05T11:45:58.791Z</time>
      </trkpt>
      <trkpt lat="46.97737" lon="8.7487">
        <ele>601</ele>
        <time>2021-08-05T11:45:59.790Z</time>
      </trkpt>
      <trkpt lat="46.97737" lon="8.74871">
        <ele>601</ele>
        <time>2021-08-05T11:46:00.790Z</time>
      </trkpt>
      <trkpt lat="46.97737" lon="8.74873">
        <ele>601</ele>
        <time>2021-08-05T11:46:01.790Z</time>
      </trkpt>
      <trkpt lat="46.97736" lon="8.74875">
        <ele>601</ele>
        <time>2021-08-05T11:46:02.790Z</time>
      </trkpt>
      <trkpt lat="46.97736" lon="8.74877">
        <ele>602</ele>
        <time>2021-08-05T11:46:03.790Z</time>
      </trkpt>
      <trkpt lat="46.97735" lon="8.74879">
        <ele>602</ele>
        <time>2021-08-05T11:46:04.790Z</time>
      </trkpt>
      <trkpt lat="46.97735" lon="8.7488">
        <ele>603</ele>
        <time>2021-08-05T11:46:05.790Z</time>
      </trkpt>
      <trkpt lat="46.97733" lon="8.74882">
        <ele>604</ele>
        <time>2021-08-05T11:46:06.790Z</time>
      </trkpt>
      <trkpt lat="46.97732" lon="8.74883">
        <ele>605</ele>
        <time>2021-08-05T11:46:07.791Z</time>
      </trkpt>
      <trkpt lat="46.97731" lon="8.74884">
        <ele>605</ele>
        <time>2021-08-05T11:46:08.790Z</time>
      </trkpt>
      <trkpt lat="46.97731" lon="8.74885">
        <ele>606</ele>
        <time>2021-08-05T11:46:09.791Z</time>
      </trkpt>
      <trkpt lat="46.9773" lon="8.74887">
        <ele>606</ele>
        <time>2021-08-05T11:46:10.790Z</time>
      </trkpt>
      <trkpt lat="46.9773" lon="8.74889">
        <ele>607</ele>
        <time>2021-08-05T11:46:11.790Z</time>
      </trkpt>
      <trkpt lat="46.97729" lon="8.74891">
        <ele>607</ele>
        <time>2021-08-05T11:46:12.790Z</time>
      </trkpt>
      <trkpt lat="46.97728" lon="8.74892">
        <ele>607</ele>
        <time>2021-08-05T11:46:13.791Z</time>
      </trkpt>
      <trkpt lat="46.97728" lon="8.74894">
        <ele>608</ele>
        <time>2021-08-05T11:46:14.791Z</time>
      </trkpt>
      <trkpt lat="46.97728" lon="8.74896">
        <ele>608</ele>
        <time>2021-08-05T11:46:15.791Z</time>
      </trkpt>
      <trkpt lat="46.97729" lon="8.74899">
        <ele>608</ele>
        <time>2021-08-05T11:46:16.790Z</time>
      </trkpt>
      <trkpt lat="46.97729" lon="8.74901">
        <ele>608</ele>
        <time>2021-08-05T11:46:17.791Z</time>
      </trkpt>
      <trkpt lat="46.97729" lon="8.74903">
        <ele>608</ele>
        <time>2021-08-05T11:46:18.791Z</time>
      </trkpt>
      <trkpt lat="46.97728" lon="8.74905">
        <ele>609</ele>
        <time>2021-08-05T11:46:19.791Z</time>
      </trkpt>
      <trkpt lat="46.97727" lon="8.74906">
        <ele>610</ele>
        <time>2021-08-05T11:46:20.790Z</time>
      </trkpt>
      <trkpt lat="46.97726" lon="8.74908">
        <ele>610</ele>
        <time>2021-08-05T11:46:21.790Z</time>
      </trkpt>
      <trkpt lat="46.97726" lon="8.7491">
        <ele>610</ele>
        <time>2021-08-05T11:46:22.790Z</time>
      </trkpt>
      <trkpt lat="46.97726" lon="8.74912">
        <ele>610</ele>
        <time>2021-08-05T11:46:23.791Z</time>
      </trkpt>
      <trkpt lat="46.97726" lon="8.74914">
        <ele>610</ele>
        <time>2021-08-05T11:46:24.791Z</time>
      </trkpt>
      <trkpt lat="46.97726" lon="8.74917">
        <ele>611</ele>
        <time>2021-08-05T11:46:25.790Z</time>
      </trkpt>
      <trkpt lat="46.97725" lon="8.74918">
        <ele>611</ele>
        <time>2021-08-05T11:46:26.790Z</time>
      </trkpt>
      <trkpt lat="46.97725" lon="8.7492">
        <ele>611</ele>
        <time>2021-08-05T11:46:27.791Z</time>
      </trkpt>
      <trkpt lat="46.97725" lon="8.74922">
        <ele>612</ele>
        <time>2021-08-05T11:46:28.791Z</time>
      </trkpt>
      <trkpt lat="46.97724" lon="8.74924">
        <ele>612</ele>
        <time>2021-08-05T11:46:29.790Z</time>
      </trkpt>
      <trkpt lat="46.97724" lon="8.74926">
        <ele>613</ele>
        <time>2021-08-05T11:46:30.790Z</time>
      </trkpt>
      <trkpt lat="46.97724" lon="8.74929">
        <ele>613</ele>
        <time>2021-08-05T11:46:31.790Z</time>
      </trkpt>
      <trkpt lat="46.97724" lon="8.74931">
        <ele>613</ele>
        <time>2021-08-05T11:46:32.790Z</time>
      </trkpt>
      <trkpt lat="46.97723" lon="8.74932">
        <ele>613</ele>
        <time>2021-08-05T11:46:33.790Z</time>
      </trkpt>
      <trkpt lat="46.97723" lon="8.74934">
        <ele>614</ele>
        <time>2021-08-05T11:46:34.791Z</time>
      </trkpt>
      <trkpt lat="46.97723" lon="8.74936">
        <ele>614</ele>
        <time>2021-08-05T11:46:35.790Z</time>
      </trkpt>
      <trkpt lat="46.97723" lon="8.74939">
        <ele>614</ele>
        <time>2021-08-05T11:46:36.791Z</time>
      </trkpt>
      <trkpt lat="46.97723" lon="8.74941">
        <ele>614</ele>
        <time>2021-08-05T11:46:37.790Z</time>
      </trkpt>
      <trkpt lat="46.97723" lon="8.74943">
        <ele>614</ele>
        <time>2021-08-05T11:46:38.791Z</time>
      </trkpt>
      <trkpt lat="46.97723" lon="8.74945">
        <ele>614</ele>
        <time>2021-08-05T11:46:39.791Z</time>
      </trkpt>
      <trkpt lat="46.97722" lon="8.74947">
        <ele>615</ele>
        <time>2021-08-05T11:46:40.790Z</time>
      </trkpt>
      <trkpt lat="46.97721" lon="8.74949">
        <ele>615</ele>
        <time>2021-08-05T11:46:41.790Z</time>
      </trkpt>
      <trkpt lat="46.97721" lon="8.74951">
        <ele>615</ele>
        <time>2021-08-05T11:46:42.791Z</time>
      </trkpt>
      <trkpt lat="46.97721" lon="8.74953">
        <ele>616</ele>
        <time>2021-08-05T11:46:43.791Z</time>
      </trkpt>
      <trkpt lat="46.97721" lon="8.74955">
        <ele>616</ele>
        <time>2021-08-05T11:46:44.791Z</time>
      </trkpt>
      <trkpt lat="46.9772" lon="8.74957">
        <ele>616</ele>
        <time>2021-08-05T11:46:45.790Z</time>
      </trkpt>
      <trkpt lat="46.9772" lon="8.74959">
        <ele>616</ele>
        <time>2021-08-05T11:46:46.790Z</time>
      </trkpt>
      <trkpt lat="46.9772" lon="8.74961">
        <ele>616</ele>
        <time>2021-08-05T11:46:47.791Z</time>
      </trkpt>
      <trkpt lat="46.97721" lon="8.74963">
        <ele>615</ele>
        <time>2021-08-05T11:46:48.790Z</time>
      </trkpt>
      <trkpt lat="46.97721" lon="8.74965">
        <ele>614</ele>
        <time>2021-08-05T11:46:49.791Z</time>
      </trkpt>
      <trkpt lat="46.97721" lon="8.74967">
        <ele>613</ele>
        <time>2021-08-05T11:46:50.791Z</time>
      </trkpt>
      <trkpt lat="46.97721" lon="8.74969">
        <ele>613</ele>
        <time>2021-08-05T11:46:51.791Z</time>
      </trkpt>
      <trkpt lat="46.97721" lon="8.74971">
        <ele>612</ele>
        <time>2021-08-05T11:46:52.791Z</time>
      </trkpt>
      <trkpt lat="46.97721" lon="8.74974">
        <ele>611</ele>
        <time>2021-08-05T11:46:53.791Z</time>
      </trkpt>
      <trkpt lat="46.97721" lon="8.74977">
        <ele>611</ele>
        <time>2021-08-05T11:46:54.791Z</time>
      </trkpt>
      <trkpt lat="46.97721" lon="8.7498">
        <ele>610</ele>
        <time>2021-08-05T11:46:55.791Z</time>
      </trkpt>
      <trkpt lat="46.97721" lon="8.74982">
        <ele>609</ele>
        <time>2021-08-05T11:46:56.791Z</time>
      </trkpt>
      <trkpt lat="46.9772" lon="8.74984">
        <ele>608</ele>
        <time>2021-08-05T11:46:57.790Z</time>
      </trkpt>
      <trkpt lat="46.9772" lon="8.74984">
        <ele>607</ele>
        <time>2021-08-05T11:46:58.790Z</time>
      </trkpt>
      <trkpt lat="46.9772" lon="8.74986">
        <ele>606</ele>
        <time>2021-08-05T11:46:59.791Z</time>
      </trkpt>
      <trkpt lat="46.9772" lon="8.74987">
        <ele>605</ele>
        <time>2021-08-05T11:47:00.791Z</time>
      </trkpt>
      <trkpt lat="46.9772" lon="8.74989">
        <ele>604</ele>
        <time>2021-08-05T11:47:01.791Z</time>
      </trkpt>
      <trkpt lat="46.9772" lon="8.74992">
        <ele>604</ele>
        <time>2021-08-05T11:47:02.791Z</time>
      </trkpt>
      <trkpt lat="46.97719" lon="8.74995">
        <ele>604</ele>
        <time>2021-08-05T11:47:03.791Z</time>
      </trkpt>
      <trkpt lat="46.97719" lon="8.74997">
        <ele>604</ele>
        <time>2021-08-05T11:47:04.791Z</time>
      </trkpt>
      <trkpt lat="46.97719" lon="8.74999">
        <ele>605</ele>
        <time>2021-08-05T11:47:05.791Z</time>
      </trkpt>
      <trkpt lat="46.9772" lon="8.75">
        <ele>605</ele>
        <time>2021-08-05T11:47:06.791Z</time>
      </trkpt>
      <trkpt lat="46.9772" lon="8.75002">
        <ele>605</ele>
        <time>2021-08-05T11:47:07.790Z</time>
      </trkpt>
      <trkpt lat="46.9772" lon="8.75004">
        <ele>606</ele>
        <time>2021-08-05T11:47:08.791Z</time>
      </trkpt>
      <trkpt lat="46.97719" lon="8.75007">
        <ele>606</ele>
        <time>2021-08-05T11:47:09.791Z</time>
      </trkpt>
      <trkpt lat="46.97719" lon="8.75009">
        <ele>606</ele>
        <time>2021-08-05T11:47:10.791Z</time>
      </trkpt>
      <trkpt lat="46.97719" lon="8.75012">
        <ele>606</ele>
        <time>2021-08-05T11:47:11.791Z</time>
      </trkpt>
      <trkpt lat="46.97718" lon="8.75015">
        <ele>606</ele>
        <time>2021-08-05T11:47:12.791Z</time>
      </trkpt>
      <trkpt lat="46.97719" lon="8.75016">
        <ele>606</ele>
        <time>2021-08-05T11:47:13.791Z</time>
      </trkpt>
      <trkpt lat="46.97719" lon="8.75017">
        <ele>606</ele>
        <time>2021-08-05T11:47:14.790Z</time>
      </trkpt>
      <trkpt lat="46.97719" lon="8.75019">
        <ele>606</ele>
        <time>2021-08-05T11:47:15.790Z</time>
      </trkpt>
      <trkpt lat="46.97718" lon="8.75021">
        <ele>606</ele>
        <time>2021-08-05T11:47:16.790Z</time>
      </trkpt>
      <trkpt lat="46.97718" lon="8.75023">
        <ele>606</ele>
        <time>2021-08-05T11:47:17.790Z</time>
      </trkpt>
      <trkpt lat="46.97718" lon="8.75025">
        <ele>605</ele>
        <time>2021-08-05T11:47:18.791Z</time>
      </trkpt>
      <trkpt lat="46.97718" lon="8.75027">
        <ele>605</ele>
        <time>2021-08-05T11:47:19.791Z</time>
      </trkpt>
      <trkpt lat="46.97717" lon="8.75029">
        <ele>605</ele>
        <time>2021-08-05T11:47:20.791Z</time>
      </trkpt>
      <trkpt lat="46.97717" lon="8.75031">
        <ele>605</ele>
        <time>2021-08-05T11:47:21.790Z</time>
      </trkpt>
      <trkpt lat="46.97716" lon="8.75033">
        <ele>605</ele>
        <time>2021-08-05T11:47:22.790Z</time>
      </trkpt>
      <trkpt lat="46.97716" lon="8.75036">
        <ele>606</ele>
        <time>2021-08-05T11:47:23.791Z</time>
      </trkpt>
      <trkpt lat="46.97715" lon="8.75038">
        <ele>606</ele>
        <time>2021-08-05T11:47:24.791Z</time>
      </trkpt>
      <trkpt lat="46.97715" lon="8.7504">
        <ele>606</ele>
        <time>2021-08-05T11:47:25.790Z</time>
      </trkpt>
      <trkpt lat="46.97715" lon="8.75042">
        <ele>607</ele>
        <time>2021-08-05T11:47:26.790Z</time>
      </trkpt>
      <trkpt lat="46.97714" lon="8.75044">
        <ele>607</ele>
        <time>2021-08-05T11:47:27.790Z</time>
      </trkpt>
      <trkpt lat="46.97714" lon="8.75046">
        <ele>608</ele>
        <time>2021-08-05T11:47:28.790Z</time>
      </trkpt>
      <trkpt lat="46.97714" lon="8.75048">
        <ele>608</ele>
        <time>2021-08-05T11:47:29.791Z</time>
      </trkpt>
      <trkpt lat="46.97714" lon="8.75049">
        <ele>608</ele>
        <time>2021-08-05T11:47:30.790Z</time>
      </trkpt>
      <trkpt lat="46.97714" lon="8.75052">
        <ele>608</ele>
        <time>2021-08-05T11:47:31.790Z</time>
      </trkpt>
      <trkpt lat="46.97714" lon="8.75054">
        <ele>608</ele>
        <time>2021-08-05T11:47:32.791Z</time>
      </trkpt>
      <trkpt lat="46.97714" lon="8.75056">
        <ele>609</ele>
        <time>2021-08-05T11:47:33.791Z</time>
      </trkpt>
      <trkpt lat="46.97715" lon="8.75059">
        <ele>608</ele>
        <time>2021-08-05T11:47:34.791Z</time>
      </trkpt>
      <trkpt lat="46.97715" lon="8.75061">
        <ele>608</ele>
        <time>2021-08-05T11:47:35.790Z</time>
      </trkpt>
      <trkpt lat="46.97714" lon="8.75063">
        <ele>607</ele>
        <time>2021-08-05T11:47:36.790Z</time>
      </trkpt>
      <trkpt lat="46.97714" lon="8.75065">
        <ele>607</ele>
        <time>2021-08-05T11:47:37.790Z</time>
      </trkpt>
      <trkpt lat="46.97715" lon="8.75066">
        <ele>606</ele>
        <time>2021-08-05T11:47:38.790Z</time>
      </trkpt>
      <trkpt lat="46.97715" lon="8.75069">
        <ele>606</ele>
        <time>2021-08-05T11:47:39.791Z</time>
      </trkpt>
      <trkpt lat="46.97715" lon="8.75071">
        <ele>605</ele>
        <time>2021-08-05T11:47:40.791Z</time>
      </trkpt>
      <trkpt lat="46.97715" lon="8.75073">
        <ele>605</ele>
        <time>2021-08-05T11:47:41.790Z</time>
      </trkpt>
      <trkpt lat="46.97714" lon="8.75075">
        <ele>604</ele>
        <time>2021-08-05T11:47:42.791Z</time>
      </trkpt>
      <trkpt lat="46.97714" lon="8.75077">
        <ele>604</ele>
        <time>2021-08-05T11:47:43.791Z</time>
      </trkpt>
      <trkpt lat="46.97714" lon="8.75079">
        <ele>604</ele>
        <time>2021-08-05T11:47:44.791Z</time>
      </trkpt>
      <trkpt lat="46.97713" lon="8.75084">
        <ele>603</ele>
        <time>2021-08-05T11:47:45.791Z</time>
      </trkpt>
      <trkpt lat="46.97713" lon="8.75086">
        <ele>603</ele>
        <time>2021-08-05T11:47:46.791Z</time>
      </trkpt>
      <trkpt lat="46.97712" lon="8.75088">
        <ele>603</ele>
        <time>2021-08-05T11:47:47.791Z</time>
      </trkpt>
      <trkpt lat="46.97712" lon="8.7509">
        <ele>603</ele>
        <time>2021-08-05T11:47:48.791Z</time>
      </trkpt>
      <trkpt lat="46.97711" lon="8.7509">
        <ele>603</ele>
        <time>2021-08-05T11:47:49.791Z</time>
      </trkpt>
      <trkpt lat="46.97711" lon="8.75092">
        <ele>603</ele>
        <time>2021-08-05T11:47:50.791Z</time>
      </trkpt>
      <trkpt lat="46.97711" lon="8.75093">
        <ele>602</ele>
        <time>2021-08-05T11:47:51.790Z</time>
      </trkpt>
      <trkpt lat="46.97711" lon="8.75093">
        <ele>602</ele>
        <time>2021-08-05T11:47:52.791Z</time>
      </trkpt>
      <trkpt lat="46.97711" lon="8.75095">
        <ele>602</ele>
        <time>2021-08-05T11:47:53.791Z</time>
      </trkpt>
      <trkpt lat="46.97711" lon="8.75096">
        <ele>601</ele>
        <time>2021-08-05T11:47:54.791Z</time>
      </trkpt>
      <trkpt lat="46.97711" lon="8.75098">
        <ele>601</ele>
        <time>2021-08-05T11:47:55.791Z</time>
      </trkpt>
      <trkpt lat="46.97711" lon="8.75099">
        <ele>601</ele>
        <time>2021-08-05T11:47:56.791Z</time>
      </trkpt>
      <trkpt lat="46.97711" lon="8.75101">
        <ele>601</ele>
        <time>2021-08-05T11:47:57.790Z</time>
      </trkpt>
      <trkpt lat="46.97711" lon="8.75102">
        <ele>601</ele>
        <time>2021-08-05T11:47:58.790Z</time>
      </trkpt>
      <trkpt lat="46.97712" lon="8.75103">
        <ele>601</ele>
        <time>2021-08-05T11:47:59.791Z</time>
      </trkpt>
      <trkpt lat="46.97712" lon="8.75105">
        <ele>601</ele>
        <time>2021-08-05T11:48:00.791Z</time>
      </trkpt>
      <trkpt lat="46.97712" lon="8.75106">
        <ele>601</ele>
        <time>2021-08-05T11:48:01.790Z</time>
      </trkpt>
      <trkpt lat="46.97711" lon="8.75109">
        <ele>601</ele>
        <time>2021-08-05T11:48:02.791Z</time>
      </trkpt>
      <trkpt lat="46.97712" lon="8.75111">
        <ele>601</ele>
        <time>2021-08-05T11:48:03.791Z</time>
      </trkpt>
      <trkpt lat="46.97712" lon="8.75112">
        <ele>601</ele>
        <time>2021-08-05T11:48:04.791Z</time>
      </trkpt>
      <trkpt lat="46.97712" lon="8.75114">
        <ele>602</ele>
        <time>2021-08-05T11:48:05.791Z</time>
      </trkpt>
      <trkpt lat="46.97712" lon="8.75116">
        <ele>602</ele>
        <time>2021-08-05T11:48:06.790Z</time>
      </trkpt>
      <trkpt lat="46.97712" lon="8.75118">
        <ele>602</ele>
        <time>2021-08-05T11:48:07.790Z</time>
      </trkpt>
      <trkpt lat="46.97713" lon="8.7512">
        <ele>602</ele>
        <time>2021-08-05T11:48:08.791Z</time>
      </trkpt>
      <trkpt lat="46.97713" lon="8.75122">
        <ele>603</ele>
        <time>2021-08-05T11:48:09.791Z</time>
      </trkpt>
      <trkpt lat="46.97712" lon="8.75123">
        <ele>603</ele>
        <time>2021-08-05T11:48:10.790Z</time>
      </trkpt>
      <trkpt lat="46.97712" lon="8.75125">
        <ele>603</ele>
        <time>2021-08-05T11:48:11.790Z</time>
      </trkpt>
      <trkpt lat="46.97711" lon="8.75127">
        <ele>603</ele>
        <time>2021-08-05T11:48:12.791Z</time>
      </trkpt>
      <trkpt lat="46.97711" lon="8.7513">
        <ele>603</ele>
        <time>2021-08-05T11:48:13.791Z</time>
      </trkpt>
      <trkpt lat="46.97711" lon="8.75133">
        <ele>603</ele>
        <time>2021-08-05T11:48:14.791Z</time>
      </trkpt>
      <trkpt lat="46.97711" lon="8.75135">
        <ele>603</ele>
        <time>2021-08-05T11:48:15.791Z</time>
      </trkpt>
      <trkpt lat="46.97711" lon="8.75136">
        <ele>603</ele>
        <time>2021-08-05T11:48:16.791Z</time>
      </trkpt>
      <trkpt lat="46.97711" lon="8.75138">
        <ele>603</ele>
        <time>2021-08-05T11:48:17.791Z</time>
      </trkpt>
      <trkpt lat="46.97711" lon="8.7514">
        <ele>603</ele>
        <time>2021-08-05T11:48:18.790Z</time>
      </trkpt>
      <trkpt lat="46.97711" lon="8.75142">
        <ele>603</ele>
        <time>2021-08-05T11:48:19.790Z</time>
      </trkpt>
      <trkpt lat="46.97711" lon="8.75143">
        <ele>603</ele>
        <time>2021-08-05T11:48:20.790Z</time>
      </trkpt>
      <trkpt lat="46.97711" lon="8.75146">
        <ele>603</ele>
        <time>2021-08-05T11:48:21.790Z</time>
      </trkpt>
      <trkpt lat="46.97711" lon="8.75148">
        <ele>603</ele>
        <time>2021-08-05T11:48:22.791Z</time>
      </trkpt>
      <trkpt lat="46.9771" lon="8.7515">
        <ele>603</ele>
        <time>2021-08-05T11:48:23.791Z</time>
      </trkpt>
      <trkpt lat="46.97711" lon="8.75152">
        <ele>603</ele>
        <time>2021-08-05T11:48:24.791Z</time>
      </trkpt>
      <trkpt lat="46.97711" lon="8.75155">
        <ele>603</ele>
        <time>2021-08-05T11:48:25.791Z</time>
      </trkpt>
      <trkpt lat="46.97711" lon="8.75156">
        <ele>604</ele>
        <time>2021-08-05T11:48:26.791Z</time>
      </trkpt>
      <trkpt lat="46.97711" lon="8.75157">
        <ele>604</ele>
        <time>2021-08-05T11:48:27.791Z</time>
      </trkpt>
      <trkpt lat="46.97711" lon="8.75159">
        <ele>604</ele>
        <time>2021-08-05T11:48:28.790Z</time>
      </trkpt>
      <trkpt lat="46.97711" lon="8.7516">
        <ele>603</ele>
        <time>2021-08-05T11:48:29.791Z</time>
      </trkpt>
      <trkpt lat="46.97711" lon="8.75162">
        <ele>603</ele>
        <time>2021-08-05T11:48:30.791Z</time>
      </trkpt>
      <trkpt lat="46.97711" lon="8.75164">
        <ele>603</ele>
        <time>2021-08-05T11:48:31.791Z</time>
      </trkpt>
      <trkpt lat="46.97712" lon="8.75166">
        <ele>603</ele>
        <time>2021-08-05T11:48:32.791Z</time>
      </trkpt>
      <trkpt lat="46.97712" lon="8.75167">
        <ele>603</ele>
        <time>2021-08-05T11:48:33.791Z</time>
      </trkpt>
      <trkpt lat="46.97711" lon="8.75169">
        <ele>603</ele>
        <time>2021-08-05T11:48:34.791Z</time>
      </trkpt>
      <trkpt lat="46.97711" lon="8.75172">
        <ele>604</ele>
        <time>2021-08-05T11:48:35.790Z</time>
      </trkpt>
      <trkpt lat="46.9771" lon="8.75174">
        <ele>604</ele>
        <time>2021-08-05T11:48:36.791Z</time>
      </trkpt>
      <trkpt lat="46.97709" lon="8.75176">
        <ele>604</ele>
        <time>2021-08-05T11:48:37.791Z</time>
      </trkpt>
      <trkpt lat="46.97709" lon="8.75178">
        <ele>605</ele>
        <time>2021-08-05T11:48:38.791Z</time>
      </trkpt>
      <trkpt lat="46.97708" lon="8.7518">
        <ele>605</ele>
        <time>2021-08-05T11:48:39.790Z</time>
      </trkpt>
      <trkpt lat="46.97708" lon="8.75182">
        <ele>605</ele>
        <time>2021-08-05T11:48:40.791Z</time>
      </trkpt>
      <trkpt lat="46.97708" lon="8.75185">
        <ele>605</ele>
        <time>2021-08-05T11:48:41.790Z</time>
      </trkpt>
      <trkpt lat="46.97707" lon="8.75187">
        <ele>604</ele>
        <time>2021-08-05T11:48:42.790Z</time>
      </trkpt>
      <trkpt lat="46.97707" lon="8.7519">
        <ele>604</ele>
        <time>2021-08-05T11:48:43.791Z</time>
      </trkpt>
      <trkpt lat="46.97706" lon="8.75192">
        <ele>604</ele>
        <time>2021-08-05T11:48:44.791Z</time>
      </trkpt>
      <trkpt lat="46.97705" lon="8.75193">
        <ele>604</ele>
        <time>2021-08-05T11:48:45.791Z</time>
      </trkpt>
      <trkpt lat="46.97705" lon="8.75196">
        <ele>604</ele>
        <time>2021-08-05T11:48:46.791Z</time>
      </trkpt>
      <trkpt lat="46.97705" lon="8.75198">
        <ele>604</ele>
        <time>2021-08-05T11:48:47.791Z</time>
      </trkpt>
      <trkpt lat="46.97705" lon="8.752">
        <ele>604</ele>
        <time>2021-08-05T11:48:48.791Z</time>
      </trkpt>
      <trkpt lat="46.97705" lon="8.75202">
        <ele>604</ele>
        <time>2021-08-05T11:48:49.791Z</time>
      </trkpt>
      <trkpt lat="46.97704" lon="8.75204">
        <ele>604</ele>
        <time>2021-08-05T11:48:50.791Z</time>
      </trkpt>
      <trkpt lat="46.97704" lon="8.75206">
        <ele>604</ele>
        <time>2021-08-05T11:48:51.791Z</time>
      </trkpt>
      <trkpt lat="46.97704" lon="8.75208">
        <ele>604</ele>
        <time>2021-08-05T11:48:52.791Z</time>
      </trkpt>
      <trkpt lat="46.97704" lon="8.7521">
        <ele>604</ele>
        <time>2021-08-05T11:48:53.790Z</time>
      </trkpt>
      <trkpt lat="46.97704" lon="8.75212">
        <ele>604</ele>
        <time>2021-08-05T11:48:54.791Z</time>
      </trkpt>
      <trkpt lat="46.97703" lon="8.75214">
        <ele>604</ele>
        <time>2021-08-05T11:48:55.791Z</time>
      </trkpt>
      <trkpt lat="46.97703" lon="8.75217">
        <ele>604</ele>
        <time>2021-08-05T11:48:56.791Z</time>
      </trkpt>
      <trkpt lat="46.97703" lon="8.75218">
        <ele>604</ele>
        <time>2021-08-05T11:48:57.790Z</time>
      </trkpt>
      <trkpt lat="46.97702" lon="8.75221">
        <ele>605</ele>
        <time>2021-08-05T11:48:58.791Z</time>
      </trkpt>
      <trkpt lat="46.97702" lon="8.75223">
        <ele>605</ele>
        <time>2021-08-05T11:48:59.791Z</time>
      </trkpt>
      <trkpt lat="46.97702" lon="8.75225">
        <ele>605</ele>
        <time>2021-08-05T11:49:00.791Z</time>
      </trkpt>
      <trkpt lat="46.97701" lon="8.75228">
        <ele>605</ele>
        <time>2021-08-05T11:49:01.791Z</time>
      </trkpt>
      <trkpt lat="46.97701" lon="8.7523">
        <ele>605</ele>
        <time>2021-08-05T11:49:02.791Z</time>
      </trkpt>
      <trkpt lat="46.97701" lon="8.75231">
        <ele>605</ele>
        <time>2021-08-05T11:49:03.791Z</time>
      </trkpt>
      <trkpt lat="46.97701" lon="8.75233">
        <ele>605</ele>
        <time>2021-08-05T11:49:04.791Z</time>
      </trkpt>
      <trkpt lat="46.97701" lon="8.75235">
        <ele>606</ele>
        <time>2021-08-05T11:49:05.791Z</time>
      </trkpt>
      <trkpt lat="46.97701" lon="8.75237">
        <ele>606</ele>
        <time>2021-08-05T11:49:06.790Z</time>
      </trkpt>
      <trkpt lat="46.97701" lon="8.75239">
        <ele>606</ele>
        <time>2021-08-05T11:49:07.790Z</time>
      </trkpt>
      <trkpt lat="46.977" lon="8.75242">
        <ele>606</ele>
        <time>2021-08-05T11:49:08.791Z</time>
      </trkpt>
      <trkpt lat="46.977" lon="8.75243">
        <ele>607</ele>
        <time>2021-08-05T11:49:09.790Z</time>
      </trkpt>
      <trkpt lat="46.977" lon="8.75245">
        <ele>607</ele>
        <time>2021-08-05T11:49:10.790Z</time>
      </trkpt>
      <trkpt lat="46.97699" lon="8.75247">
        <ele>607</ele>
        <time>2021-08-05T11:49:11.791Z</time>
      </trkpt>
      <trkpt lat="46.97699" lon="8.75249">
        <ele>607</ele>
        <time>2021-08-05T11:49:12.790Z</time>
      </trkpt>
      <trkpt lat="46.97698" lon="8.75251">
        <ele>608</ele>
        <time>2021-08-05T11:49:13.790Z</time>
      </trkpt>
      <trkpt lat="46.97698" lon="8.75253">
        <ele>608</ele>
        <time>2021-08-05T11:49:14.790Z</time>
      </trkpt>
      <trkpt lat="46.97698" lon="8.75255">
        <ele>608</ele>
        <time>2021-08-05T11:49:15.791Z</time>
      </trkpt>
      <trkpt lat="46.97698" lon="8.75257">
        <ele>608</ele>
        <time>2021-08-05T11:49:16.790Z</time>
      </trkpt>
      <trkpt lat="46.97698" lon="8.75259">
        <ele>609</ele>
        <time>2021-08-05T11:49:17.791Z</time>
      </trkpt>
      <trkpt lat="46.97697" lon="8.75261">
        <ele>609</ele>
        <time>2021-08-05T11:49:18.791Z</time>
      </trkpt>
      <trkpt lat="46.97697" lon="8.75263">
        <ele>610</ele>
        <time>2021-08-05T11:49:19.790Z</time>
      </trkpt>
      <trkpt lat="46.97696" lon="8.75265">
        <ele>610</ele>
        <time>2021-08-05T11:49:20.790Z</time>
      </trkpt>
      <trkpt lat="46.97696" lon="8.75267">
        <ele>611</ele>
        <time>2021-08-05T11:49:21.790Z</time>
      </trkpt>
      <trkpt lat="46.97695" lon="8.75269">
        <ele>611</ele>
        <time>2021-08-05T11:49:22.790Z</time>
      </trkpt>
      <trkpt lat="46.97695" lon="8.75271">
        <ele>611</ele>
        <time>2021-08-05T11:49:23.790Z</time>
      </trkpt>
      <trkpt lat="46.97695" lon="8.75273">
        <ele>611</ele>
        <time>2021-08-05T11:49:24.791Z</time>
      </trkpt>
      <trkpt lat="46.97694" lon="8.75276">
        <ele>610</ele>
        <time>2021-08-05T11:49:25.790Z</time>
      </trkpt>
      <trkpt lat="46.97694" lon="8.75278">
        <ele>610</ele>
        <time>2021-08-05T11:49:26.791Z</time>
      </trkpt>
      <trkpt lat="46.97694" lon="8.7528">
        <ele>610</ele>
        <time>2021-08-05T11:49:27.791Z</time>
      </trkpt>
      <trkpt lat="46.97694" lon="8.75282">
        <ele>609</ele>
        <time>2021-08-05T11:49:28.790Z</time>
      </trkpt>
      <trkpt lat="46.97693" lon="8.75284">
        <ele>608</ele>
        <time>2021-08-05T11:49:29.791Z</time>
      </trkpt>
      <trkpt lat="46.97693" lon="8.75286">
        <ele>608</ele>
        <time>2021-08-05T11:49:30.791Z</time>
      </trkpt>
      <trkpt lat="46.97693" lon="8.75288">
        <ele>608</ele>
        <time>2021-08-05T11:49:31.791Z</time>
      </trkpt>
      <trkpt lat="46.97692" lon="8.75289">
        <ele>607</ele>
        <time>2021-08-05T11:49:32.791Z</time>
      </trkpt>
      <trkpt lat="46.97692" lon="8.75291">
        <ele>607</ele>
        <time>2021-08-05T11:49:33.791Z</time>
      </trkpt>
      <trkpt lat="46.97692" lon="8.75293">
        <ele>607</ele>
        <time>2021-08-05T11:49:34.790Z</time>
      </trkpt>
      <trkpt lat="46.97691" lon="8.75296">
        <ele>607</ele>
        <time>2021-08-05T11:49:35.790Z</time>
      </trkpt>
      <trkpt lat="46.97691" lon="8.75298">
        <ele>607</ele>
        <time>2021-08-05T11:49:36.790Z</time>
      </trkpt>
      <trkpt lat="46.97691" lon="8.753">
        <ele>607</ele>
        <time>2021-08-05T11:49:37.791Z</time>
      </trkpt>
      <trkpt lat="46.9769" lon="8.75302">
        <ele>607</ele>
        <time>2021-08-05T11:49:38.791Z</time>
      </trkpt>
      <trkpt lat="46.9769" lon="8.75305">
        <ele>607</ele>
        <time>2021-08-05T11:49:39.791Z</time>
      </trkpt>
      <trkpt lat="46.9769" lon="8.75307">
        <ele>607</ele>
        <time>2021-08-05T11:49:40.790Z</time>
      </trkpt>
      <trkpt lat="46.97689" lon="8.75309">
        <ele>607</ele>
        <time>2021-08-05T11:49:41.790Z</time>
      </trkpt>
      <trkpt lat="46.97689" lon="8.75311">
        <ele>607</ele>
        <time>2021-08-05T11:49:42.790Z</time>
      </trkpt>
      <trkpt lat="46.97689" lon="8.75313">
        <ele>606</ele>
        <time>2021-08-05T11:49:43.791Z</time>
      </trkpt>
      <trkpt lat="46.97689" lon="8.75315">
        <ele>606</ele>
        <time>2021-08-05T11:49:44.791Z</time>
      </trkpt>
      <trkpt lat="46.97688" lon="8.75317">
        <ele>605</ele>
        <time>2021-08-05T11:49:45.790Z</time>
      </trkpt>
      <trkpt lat="46.97688" lon="8.75319">
        <ele>605</ele>
        <time>2021-08-05T11:49:46.790Z</time>
      </trkpt>
      <trkpt lat="46.97688" lon="8.75321">
        <ele>604</ele>
        <time>2021-08-05T11:49:47.790Z</time>
      </trkpt>
      <trkpt lat="46.97688" lon="8.75323">
        <ele>604</ele>
        <time>2021-08-05T11:49:48.791Z</time>
      </trkpt>
      <trkpt lat="46.97688" lon="8.75325">
        <ele>603</ele>
        <time>2021-08-05T11:49:49.790Z</time>
      </trkpt>
      <trkpt lat="46.97687" lon="8.75327">
        <ele>603</ele>
        <time>2021-08-05T11:49:50.790Z</time>
      </trkpt>
      <trkpt lat="46.97687" lon="8.75328">
        <ele>603</ele>
        <time>2021-08-05T11:49:51.790Z</time>
      </trkpt>
      <trkpt lat="46.97687" lon="8.7533">
        <ele>603</ele>
        <time>2021-08-05T11:49:52.790Z</time>
      </trkpt>
      <trkpt lat="46.97687" lon="8.75332">
        <ele>603</ele>
        <time>2021-08-05T11:49:53.790Z</time>
      </trkpt>
      <trkpt lat="46.97687" lon="8.75334">
        <ele>603</ele>
        <time>2021-08-05T11:49:54.790Z</time>
      </trkpt>
      <trkpt lat="46.97687" lon="8.75336">
        <ele>602</ele>
        <time>2021-08-05T11:49:55.790Z</time>
      </trkpt>
      <trkpt lat="46.97687" lon="8.75337">
        <ele>602</ele>
        <time>2021-08-05T11:49:56.790Z</time>
      </trkpt>
      <trkpt lat="46.97687" lon="8.7534">
        <ele>602</ele>
        <time>2021-08-05T11:49:57.790Z</time>
      </trkpt>
      <trkpt lat="46.97687" lon="8.75341">
        <ele>602</ele>
        <time>2021-08-05T11:49:58.790Z</time>
      </trkpt>
      <trkpt lat="46.97687" lon="8.75343">
        <ele>602</ele>
        <time>2021-08-05T11:49:59.790Z</time>
      </trkpt>
      <trkpt lat="46.97687" lon="8.75345">
        <ele>602</ele>
        <time>2021-08-05T11:50:00.790Z</time>
      </trkpt>
      <trkpt lat="46.97687" lon="8.75347">
        <ele>602</ele>
        <time>2021-08-05T11:50:01.790Z</time>
      </trkpt>
      <trkpt lat="46.97687" lon="8.75349">
        <ele>602</ele>
        <time>2021-08-05T11:50:02.790Z</time>
      </trkpt>
      <trkpt lat="46.97686" lon="8.75351">
        <ele>603</ele>
        <time>2021-08-05T11:50:03.790Z</time>
      </trkpt>
      <trkpt lat="46.97686" lon="8.75352">
        <ele>603</ele>
        <time>2021-08-05T11:50:04.791Z</time>
      </trkpt>
      <trkpt lat="46.97686" lon="8.75355">
        <ele>603</ele>
        <time>2021-08-05T11:50:05.791Z</time>
      </trkpt>
      <trkpt lat="46.97686" lon="8.75357">
        <ele>603</ele>
        <time>2021-08-05T11:50:06.790Z</time>
      </trkpt>
      <trkpt lat="46.97686" lon="8.75359">
        <ele>603</ele>
        <time>2021-08-05T11:50:07.790Z</time>
      </trkpt>
      <trkpt lat="46.97686" lon="8.75361">
        <ele>602</ele>
        <time>2021-08-05T11:50:08.791Z</time>
      </trkpt>
      <trkpt lat="46.97686" lon="8.75364">
        <ele>603</ele>
        <time>2021-08-05T11:50:09.791Z</time>
      </trkpt>
      <trkpt lat="46.97686" lon="8.75366">
        <ele>603</ele>
        <time>2021-08-05T11:50:10.790Z</time>
      </trkpt>
      <trkpt lat="46.97686" lon="8.75368">
        <ele>603</ele>
        <time>2021-08-05T11:50:11.790Z</time>
      </trkpt>
      <trkpt lat="46.97686" lon="8.7537">
        <ele>604</ele>
        <time>2021-08-05T11:50:12.791Z</time>
      </trkpt>
      <trkpt lat="46.97686" lon="8.75372">
        <ele>604</ele>
        <time>2021-08-05T11:50:13.790Z</time>
      </trkpt>
      <trkpt lat="46.97685" lon="8.75374">
        <ele>604</ele>
        <time>2021-08-05T11:50:14.791Z</time>
      </trkpt>
      <trkpt lat="46.97685" lon="8.75376">
        <ele>605</ele>
        <time>2021-08-05T11:50:15.790Z</time>
      </trkpt>
      <trkpt lat="46.97685" lon="8.75378">
        <ele>605</ele>
        <time>2021-08-05T11:50:16.791Z</time>
      </trkpt>
      <trkpt lat="46.97685" lon="8.7538">
        <ele>605</ele>
        <time>2021-08-05T11:50:17.791Z</time>
      </trkpt>
      <trkpt lat="46.97684" lon="8.75382">
        <ele>606</ele>
        <time>2021-08-05T11:50:18.791Z</time>
      </trkpt>
      <trkpt lat="46.97684" lon="8.75384">
        <ele>606</ele>
        <time>2021-08-05T11:50:19.791Z</time>
      </trkpt>
      <trkpt lat="46.97684" lon="8.75386">
        <ele>606</ele>
        <time>2021-08-05T11:50:20.791Z</time>
      </trkpt>
      <trkpt lat="46.97684" lon="8.75388">
        <ele>607</ele>
        <time>2021-08-05T11:50:21.791Z</time>
      </trkpt>
      <trkpt lat="46.97684" lon="8.7539">
        <ele>608</ele>
        <time>2021-08-05T11:50:22.791Z</time>
      </trkpt>
      <trkpt lat="46.97685" lon="8.75392">
        <ele>608</ele>
        <time>2021-08-05T11:50:23.790Z</time>
      </trkpt>
      <trkpt lat="46.97685" lon="8.75394">
        <ele>609</ele>
        <time>2021-08-05T11:50:24.791Z</time>
      </trkpt>
      <trkpt lat="46.97685" lon="8.75396">
        <ele>610</ele>
        <time>2021-08-05T11:50:25.791Z</time>
      </trkpt>
      <trkpt lat="46.97685" lon="8.75399">
        <ele>610</ele>
        <time>2021-08-05T11:50:26.791Z</time>
      </trkpt>
      <trkpt lat="46.97685" lon="8.754">
        <ele>610</ele>
        <time>2021-08-05T11:50:27.791Z</time>
      </trkpt>
      <trkpt lat="46.97685" lon="8.75402">
        <ele>611</ele>
        <time>2021-08-05T11:50:28.791Z</time>
      </trkpt>
      <trkpt lat="46.97685" lon="8.75404">
        <ele>610</ele>
        <time>2021-08-05T11:50:29.791Z</time>
      </trkpt>
      <trkpt lat="46.97685" lon="8.75406">
        <ele>610</ele>
        <time>2021-08-05T11:50:30.791Z</time>
      </trkpt>
      <trkpt lat="46.97685" lon="8.75407">
        <ele>609</ele>
        <time>2021-08-05T11:50:31.791Z</time>
      </trkpt>
      <trkpt lat="46.97685" lon="8.75409">
        <ele>609</ele>
        <time>2021-08-05T11:50:32.791Z</time>
      </trkpt>
      <trkpt lat="46.97685" lon="8.75411">
        <ele>608</ele>
        <time>2021-08-05T11:50:33.790Z</time>
      </trkpt>
      <trkpt lat="46.97685" lon="8.75413">
        <ele>608</ele>
        <time>2021-08-05T11:50:34.791Z</time>
      </trkpt>
      <trkpt lat="46.97685" lon="8.75416">
        <ele>607</ele>
        <time>2021-08-05T11:50:35.790Z</time>
      </trkpt>
      <trkpt lat="46.97685" lon="8.75418">
        <ele>607</ele>
        <time>2021-08-05T11:50:36.791Z</time>
      </trkpt>
      <trkpt lat="46.97685" lon="8.7542">
        <ele>606</ele>
        <time>2021-08-05T11:50:37.791Z</time>
      </trkpt>
      <trkpt lat="46.97685" lon="8.75421">
        <ele>606</ele>
        <time>2021-08-05T11:50:38.790Z</time>
      </trkpt>
      <trkpt lat="46.97684" lon="8.75424">
        <ele>606</ele>
        <time>2021-08-05T11:50:39.790Z</time>
      </trkpt>
      <trkpt lat="46.97684" lon="8.75425">
        <ele>606</ele>
        <time>2021-08-05T11:50:40.791Z</time>
      </trkpt>
      <trkpt lat="46.97684" lon="8.75427">
        <ele>605</ele>
        <time>2021-08-05T11:50:41.791Z</time>
      </trkpt>
      <trkpt lat="46.97683" lon="8.75429">
        <ele>605</ele>
        <time>2021-08-05T11:50:42.791Z</time>
      </trkpt>
      <trkpt lat="46.97683" lon="8.75431">
        <ele>605</ele>
        <time>2021-08-05T11:50:43.790Z</time>
      </trkpt>
      <trkpt lat="46.97683" lon="8.75433">
        <ele>604</ele>
        <time>2021-08-05T11:50:44.791Z</time>
      </trkpt>
      <trkpt lat="46.97682" lon="8.75435">
        <ele>604</ele>
        <time>2021-08-05T11:50:45.790Z</time>
      </trkpt>
      <trkpt lat="46.97682" lon="8.75437">
        <ele>605</ele>
        <time>2021-08-05T11:50:46.791Z</time>
      </trkpt>
      <trkpt lat="46.97681" lon="8.75439">
        <ele>605</ele>
        <time>2021-08-05T11:50:47.790Z</time>
      </trkpt>
      <trkpt lat="46.97681" lon="8.75441">
        <ele>605</ele>
        <time>2021-08-05T11:50:48.791Z</time>
      </trkpt>
      <trkpt lat="46.9768" lon="8.75443">
        <ele>605</ele>
        <time>2021-08-05T11:50:49.791Z</time>
      </trkpt>
      <trkpt lat="46.9768" lon="8.75445">
        <ele>605</ele>
        <time>2021-08-05T11:50:50.791Z</time>
      </trkpt>
      <trkpt lat="46.9768" lon="8.75447">
        <ele>606</ele>
        <time>2021-08-05T11:50:51.790Z</time>
      </trkpt>
      <trkpt lat="46.97679" lon="8.75449">
        <ele>606</ele>
        <time>2021-08-05T11:50:52.791Z</time>
      </trkpt>
      <trkpt lat="46.97678" lon="8.75452">
        <ele>606</ele>
        <time>2021-08-05T11:50:53.790Z</time>
      </trkpt>
      <trkpt lat="46.97678" lon="8.75454">
        <ele>606</ele>
        <time>2021-08-05T11:50:54.791Z</time>
      </trkpt>
      <trkpt lat="46.97678" lon="8.75456">
        <ele>606</ele>
        <time>2021-08-05T11:50:55.791Z</time>
      </trkpt>
      <trkpt lat="46.97677" lon="8.75458">
        <ele>606</ele>
        <time>2021-08-05T11:50:56.791Z</time>
      </trkpt>
      <trkpt lat="46.97677" lon="8.75459">
        <ele>606</ele>
        <time>2021-08-05T11:50:57.791Z</time>
      </trkpt>
      <trkpt lat="46.97676" lon="8.75461">
        <ele>606</ele>
        <time>2021-08-05T11:50:58.790Z</time>
      </trkpt>
      <trkpt lat="46.97676" lon="8.75463">
        <ele>607</ele>
        <time>2021-08-05T11:50:59.791Z</time>
      </trkpt>
      <trkpt lat="46.97675" lon="8.75464">
        <ele>607</ele>
        <time>2021-08-05T11:51:00.790Z</time>
      </trkpt>
      <trkpt lat="46.97675" lon="8.75466">
        <ele>607</ele>
        <time>2021-08-05T11:51:01.791Z</time>
      </trkpt>
      <trkpt lat="46.97674" lon="8.75468">
        <ele>608</ele>
        <time>2021-08-05T11:51:02.791Z</time>
      </trkpt>
      <trkpt lat="46.97674" lon="8.7547">
        <ele>608</ele>
        <time>2021-08-05T11:51:03.791Z</time>
      </trkpt>
      <trkpt lat="46.97673" lon="8.75471">
        <ele>609</ele>
        <time>2021-08-05T11:51:05.777Z</time>
      </trkpt>
      <trkpt lat="46.97672" lon="8.75473">
        <ele>609</ele>
        <time>2021-08-05T11:51:06.777Z</time>
      </trkpt>
      <trkpt lat="46.97671" lon="8.75475">
        <ele>610</ele>
        <time>2021-08-05T11:51:07.776Z</time>
      </trkpt>
      <trkpt lat="46.97671" lon="8.75477">
        <ele>610</ele>
        <time>2021-08-05T11:51:08.776Z</time>
      </trkpt>
      <trkpt lat="46.9767" lon="8.75478">
        <ele>609</ele>
        <time>2021-08-05T11:51:09.777Z</time>
      </trkpt>
      <trkpt lat="46.9767" lon="8.7548">
        <ele>609</ele>
        <time>2021-08-05T11:51:10.777Z</time>
      </trkpt>
      <trkpt lat="46.97669" lon="8.75482">
        <ele>608</ele>
        <time>2021-08-05T11:51:11.776Z</time>
      </trkpt>
      <trkpt lat="46.97669" lon="8.75484">
        <ele>608</ele>
        <time>2021-08-05T11:51:12.777Z</time>
      </trkpt>
      <trkpt lat="46.97669" lon="8.75486">
        <ele>607</ele>
        <time>2021-08-05T11:51:13.777Z</time>
      </trkpt>
      <trkpt lat="46.97668" lon="8.75488">
        <ele>607</ele>
        <time>2021-08-05T11:51:14.777Z</time>
      </trkpt>
      <trkpt lat="46.97668" lon="8.7549">
        <ele>607</ele>
        <time>2021-08-05T11:51:15.777Z</time>
      </trkpt>
      <trkpt lat="46.97667" lon="8.75491">
        <ele>606</ele>
        <time>2021-08-05T11:51:16.777Z</time>
      </trkpt>
      <trkpt lat="46.97667" lon="8.75493">
        <ele>606</ele>
        <time>2021-08-05T11:51:17.776Z</time>
      </trkpt>
      <trkpt lat="46.97666" lon="8.75494">
        <ele>606</ele>
        <time>2021-08-05T11:51:18.776Z</time>
      </trkpt>
      <trkpt lat="46.97665" lon="8.75497">
        <ele>607</ele>
        <time>2021-08-05T11:51:19.777Z</time>
      </trkpt>
      <trkpt lat="46.97665" lon="8.75498">
        <ele>608</ele>
        <time>2021-08-05T11:51:20.777Z</time>
      </trkpt>
      <trkpt lat="46.97664" lon="8.755">
        <ele>608</ele>
        <time>2021-08-05T11:51:21.776Z</time>
      </trkpt>
      <trkpt lat="46.97663" lon="8.75502">
        <ele>609</ele>
        <time>2021-08-05T11:51:22.777Z</time>
      </trkpt>
      <trkpt lat="46.97663" lon="8.75504">
        <ele>610</ele>
        <time>2021-08-05T11:51:23.777Z</time>
      </trkpt>
      <trkpt lat="46.97662" lon="8.75506">
        <ele>611</ele>
        <time>2021-08-05T11:51:24.776Z</time>
      </trkpt>
      <trkpt lat="46.97662" lon="8.75508">
        <ele>612</ele>
        <time>2021-08-05T11:51:25.777Z</time>
      </trkpt>
      <trkpt lat="46.97661" lon="8.75509">
        <ele>612</ele>
        <time>2021-08-05T11:51:26.777Z</time>
      </trkpt>
      <trkpt lat="46.97661" lon="8.75511">
        <ele>612</ele>
        <time>2021-08-05T11:51:27.777Z</time>
      </trkpt>
      <trkpt lat="46.9766" lon="8.75513">
        <ele>612</ele>
        <time>2021-08-05T11:51:28.776Z</time>
      </trkpt>
      <trkpt lat="46.9766" lon="8.75515">
        <ele>611</ele>
        <time>2021-08-05T11:51:29.777Z</time>
      </trkpt>
      <trkpt lat="46.97659" lon="8.75516">
        <ele>611</ele>
        <time>2021-08-05T11:51:30.777Z</time>
      </trkpt>
      <trkpt lat="46.97658" lon="8.75518">
        <ele>611</ele>
        <time>2021-08-05T11:51:31.777Z</time>
      </trkpt>
      <trkpt lat="46.97658" lon="8.75519">
        <ele>611</ele>
        <time>2021-08-05T11:51:32.776Z</time>
      </trkpt>
      <trkpt lat="46.97657" lon="8.75521">
        <ele>611</ele>
        <time>2021-08-05T11:51:33.777Z</time>
      </trkpt>
      <trkpt lat="46.97656" lon="8.75523">
        <ele>611</ele>
        <time>2021-08-05T11:51:34.776Z</time>
      </trkpt>
      <trkpt lat="46.97656" lon="8.75525">
        <ele>610</ele>
        <time>2021-08-05T11:51:35.777Z</time>
      </trkpt>
      <trkpt lat="46.97655" lon="8.75527">
        <ele>611</ele>
        <time>2021-08-05T11:51:36.776Z</time>
      </trkpt>
      <trkpt lat="46.97654" lon="8.75528">
        <ele>611</ele>
        <time>2021-08-05T11:51:37.777Z</time>
      </trkpt>
      <trkpt lat="46.97654" lon="8.7553">
        <ele>610</ele>
        <time>2021-08-05T11:51:38.777Z</time>
      </trkpt>
      <trkpt lat="46.97653" lon="8.75531">
        <ele>610</ele>
        <time>2021-08-05T11:51:39.777Z</time>
      </trkpt>
      <trkpt lat="46.97653" lon="8.75533">
        <ele>610</ele>
        <time>2021-08-05T11:51:40.776Z</time>
      </trkpt>
      <trkpt lat="46.97652" lon="8.75535">
        <ele>609</ele>
        <time>2021-08-05T11:51:41.777Z</time>
      </trkpt>
      <trkpt lat="46.97651" lon="8.75537">
        <ele>609</ele>
        <time>2021-08-05T11:51:42.776Z</time>
      </trkpt>
      <trkpt lat="46.97651" lon="8.75538">
        <ele>610</ele>
        <time>2021-08-05T11:51:43.776Z</time>
      </trkpt>
      <trkpt lat="46.9765" lon="8.75541">
        <ele>610</ele>
        <time>2021-08-05T11:51:44.777Z</time>
      </trkpt>
      <trkpt lat="46.97649" lon="8.75543">
        <ele>610</ele>
        <time>2021-08-05T11:51:45.777Z</time>
      </trkpt>
      <trkpt lat="46.97648" lon="8.75544">
        <ele>611</ele>
        <time>2021-08-05T11:51:46.776Z</time>
      </trkpt>
      <trkpt lat="46.97647" lon="8.75546">
        <ele>611</ele>
        <time>2021-08-05T11:51:47.776Z</time>
      </trkpt>
      <trkpt lat="46.97646" lon="8.75548">
        <ele>611</ele>
        <time>2021-08-05T11:51:48.777Z</time>
      </trkpt>
      <trkpt lat="46.97646" lon="8.7555">
        <ele>611</ele>
        <time>2021-08-05T11:51:49.776Z</time>
      </trkpt>
      <trkpt lat="46.97646" lon="8.75552">
        <ele>610</ele>
        <time>2021-08-05T11:51:50.777Z</time>
      </trkpt>
      <trkpt lat="46.97645" lon="8.75553">
        <ele>610</ele>
        <time>2021-08-05T11:51:51.777Z</time>
      </trkpt>
      <trkpt lat="46.97645" lon="8.75555">
        <ele>610</ele>
        <time>2021-08-05T11:51:52.776Z</time>
      </trkpt>
      <trkpt lat="46.97644" lon="8.75557">
        <ele>610</ele>
        <time>2021-08-05T11:51:53.777Z</time>
      </trkpt>
      <trkpt lat="46.97644" lon="8.75559">
        <ele>610</ele>
        <time>2021-08-05T11:51:54.777Z</time>
      </trkpt>
      <trkpt lat="46.97643" lon="8.75561">
        <ele>610</ele>
        <time>2021-08-05T11:51:55.777Z</time>
      </trkpt>
      <trkpt lat="46.97642" lon="8.75562">
        <ele>610</ele>
        <time>2021-08-05T11:51:56.777Z</time>
      </trkpt>
      <trkpt lat="46.97641" lon="8.75564">
        <ele>610</ele>
        <time>2021-08-05T11:51:57.776Z</time>
      </trkpt>
      <trkpt lat="46.9764" lon="8.75566">
        <ele>610</ele>
        <time>2021-08-05T11:51:58.777Z</time>
      </trkpt>
      <trkpt lat="46.97639" lon="8.75567">
        <ele>610</ele>
        <time>2021-08-05T11:51:59.777Z</time>
      </trkpt>
      <trkpt lat="46.97639" lon="8.75569">
        <ele>610</ele>
        <time>2021-08-05T11:52:00.777Z</time>
      </trkpt>
      <trkpt lat="46.97638" lon="8.7557">
        <ele>610</ele>
        <time>2021-08-05T11:52:01.776Z</time>
      </trkpt>
      <trkpt lat="46.97637" lon="8.75572">
        <ele>610</ele>
        <time>2021-08-05T11:52:02.776Z</time>
      </trkpt>
      <trkpt lat="46.97637" lon="8.75574">
        <ele>610</ele>
        <time>2021-08-05T11:52:03.777Z</time>
      </trkpt>
      <trkpt lat="46.97636" lon="8.75575">
        <ele>610</ele>
        <time>2021-08-05T11:52:04.777Z</time>
      </trkpt>
      <trkpt lat="46.97635" lon="8.75577">
        <ele>610</ele>
        <time>2021-08-05T11:52:05.777Z</time>
      </trkpt>
      <trkpt lat="46.97634" lon="8.75578">
        <ele>609</ele>
        <time>2021-08-05T11:52:06.777Z</time>
      </trkpt>
      <trkpt lat="46.97633" lon="8.7558">
        <ele>609</ele>
        <time>2021-08-05T11:52:07.777Z</time>
      </trkpt>
      <trkpt lat="46.97632" lon="8.75581">
        <ele>609</ele>
        <time>2021-08-05T11:52:08.777Z</time>
      </trkpt>
      <trkpt lat="46.97631" lon="8.75583">
        <ele>610</ele>
        <time>2021-08-05T11:52:09.777Z</time>
      </trkpt>
      <trkpt lat="46.97631" lon="8.75585">
        <ele>610</ele>
        <time>2021-08-05T11:52:10.777Z</time>
      </trkpt>
      <trkpt lat="46.9763" lon="8.75587">
        <ele>610</ele>
        <time>2021-08-05T11:52:11.776Z</time>
      </trkpt>
      <trkpt lat="46.9763" lon="8.75589">
        <ele>610</ele>
        <time>2021-08-05T11:52:12.776Z</time>
      </trkpt>
      <trkpt lat="46.97629" lon="8.75591">
        <ele>610</ele>
        <time>2021-08-05T11:52:13.777Z</time>
      </trkpt>
      <trkpt lat="46.97629" lon="8.75593">
        <ele>610</ele>
        <time>2021-08-05T11:52:14.777Z</time>
      </trkpt>
      <trkpt lat="46.97628" lon="8.75595">
        <ele>610</ele>
        <time>2021-08-05T11:52:15.776Z</time>
      </trkpt>
      <trkpt lat="46.97628" lon="8.75596">
        <ele>610</ele>
        <time>2021-08-05T11:52:16.776Z</time>
      </trkpt>
      <trkpt lat="46.97627" lon="8.75598">
        <ele>610</ele>
        <time>2021-08-05T11:52:17.776Z</time>
      </trkpt>
      <trkpt lat="46.97627" lon="8.75599">
        <ele>610</ele>
        <time>2021-08-05T11:52:18.777Z</time>
      </trkpt>
      <trkpt lat="46.97626" lon="8.75601">
        <ele>610</ele>
        <time>2021-08-05T11:52:19.777Z</time>
      </trkpt>
      <trkpt lat="46.97625" lon="8.75603">
        <ele>610</ele>
        <time>2021-08-05T11:52:20.777Z</time>
      </trkpt>
      <trkpt lat="46.97625" lon="8.75605">
        <ele>610</ele>
        <time>2021-08-05T11:52:21.776Z</time>
      </trkpt>
      <trkpt lat="46.97624" lon="8.75606">
        <ele>611</ele>
        <time>2021-08-05T11:52:22.776Z</time>
      </trkpt>
      <trkpt lat="46.97623" lon="8.75608">
        <ele>611</ele>
        <time>2021-08-05T11:52:23.777Z</time>
      </trkpt>
      <trkpt lat="46.97623" lon="8.75609">
        <ele>610</ele>
        <time>2021-08-05T11:52:24.776Z</time>
      </trkpt>
      <trkpt lat="46.97622" lon="8.75611">
        <ele>610</ele>
        <time>2021-08-05T11:52:25.776Z</time>
      </trkpt>
      <trkpt lat="46.97621" lon="8.75613">
        <ele>610</ele>
        <time>2021-08-05T11:52:26.776Z</time>
      </trkpt>
      <trkpt lat="46.9762" lon="8.75615">
        <ele>610</ele>
        <time>2021-08-05T11:52:27.776Z</time>
      </trkpt>
      <trkpt lat="46.9762" lon="8.75617">
        <ele>610</ele>
        <time>2021-08-05T11:52:28.776Z</time>
      </trkpt>
      <trkpt lat="46.97619" lon="8.75619">
        <ele>610</ele>
        <time>2021-08-05T11:52:29.777Z</time>
      </trkpt>
      <trkpt lat="46.97619" lon="8.75621">
        <ele>611</ele>
        <time>2021-08-05T11:52:30.776Z</time>
      </trkpt>
      <trkpt lat="46.97618" lon="8.75623">
        <ele>612</ele>
        <time>2021-08-05T11:52:31.776Z</time>
      </trkpt>
      <trkpt lat="46.97617" lon="8.75624">
        <ele>612</ele>
        <time>2021-08-05T11:52:32.777Z</time>
      </trkpt>
      <trkpt lat="46.97616" lon="8.75625">
        <ele>612</ele>
        <time>2021-08-05T11:52:33.776Z</time>
      </trkpt>
      <trkpt lat="46.97616" lon="8.75627">
        <ele>612</ele>
        <time>2021-08-05T11:52:34.777Z</time>
      </trkpt>
      <trkpt lat="46.97616" lon="8.75628">
        <ele>612</ele>
        <time>2021-08-05T11:52:35.777Z</time>
      </trkpt>
      <trkpt lat="46.97615" lon="8.7563">
        <ele>612</ele>
        <time>2021-08-05T11:52:36.777Z</time>
      </trkpt>
      <trkpt lat="46.97614" lon="8.75631">
        <ele>613</ele>
        <time>2021-08-05T11:52:37.776Z</time>
      </trkpt>
      <trkpt lat="46.97614" lon="8.75633">
        <ele>613</ele>
        <time>2021-08-05T11:52:38.777Z</time>
      </trkpt>
      <trkpt lat="46.97613" lon="8.75635">
        <ele>613</ele>
        <time>2021-08-05T11:52:39.777Z</time>
      </trkpt>
      <trkpt lat="46.97612" lon="8.75637">
        <ele>614</ele>
        <time>2021-08-05T11:52:42.901Z</time>
      </trkpt>
      <trkpt lat="46.97611" lon="8.75639">
        <ele>614</ele>
        <time>2021-08-05T11:52:43.901Z</time>
      </trkpt>
      <trkpt lat="46.9761" lon="8.75641">
        <ele>614</ele>
        <time>2021-08-05T11:52:44.901Z</time>
      </trkpt>
      <trkpt lat="46.9761" lon="8.75642">
        <ele>614</ele>
        <time>2021-08-05T11:52:45.901Z</time>
      </trkpt>
      <trkpt lat="46.97609" lon="8.75643">
        <ele>615</ele>
        <time>2021-08-05T11:52:46.901Z</time>
      </trkpt>
      <trkpt lat="46.97609" lon="8.75644">
        <ele>615</ele>
        <time>2021-08-05T11:52:47.901Z</time>
      </trkpt>
      <trkpt lat="46.97608" lon="8.75646">
        <ele>615</ele>
        <time>2021-08-05T11:52:48.902Z</time>
      </trkpt>
      <trkpt lat="46.97608" lon="8.75647">
        <ele>615</ele>
        <time>2021-08-05T11:52:49.901Z</time>
      </trkpt>
      <trkpt lat="46.97608" lon="8.75649">
        <ele>615</ele>
        <time>2021-08-05T11:52:50.902Z</time>
      </trkpt>
      <trkpt lat="46.97607" lon="8.75651">
        <ele>615</ele>
        <time>2021-08-05T11:52:51.902Z</time>
      </trkpt>
      <trkpt lat="46.97607" lon="8.75652">
        <ele>615</ele>
        <time>2021-08-05T11:52:52.902Z</time>
      </trkpt>
      <trkpt lat="46.97605" lon="8.75655">
        <ele>615</ele>
        <time>2021-08-05T11:52:53.901Z</time>
      </trkpt>
      <trkpt lat="46.97604" lon="8.75657">
        <ele>615</ele>
        <time>2021-08-05T11:52:54.901Z</time>
      </trkpt>
      <trkpt lat="46.97603" lon="8.75659">
        <ele>614</ele>
        <time>2021-08-05T11:52:55.902Z</time>
      </trkpt>
      <trkpt lat="46.97603" lon="8.7566">
        <ele>614</ele>
        <time>2021-08-05T11:52:56.901Z</time>
      </trkpt>
      <trkpt lat="46.97602" lon="8.75661">
        <ele>614</ele>
        <time>2021-08-05T11:52:57.902Z</time>
      </trkpt>
      <trkpt lat="46.97602" lon="8.75662">
        <ele>614</ele>
        <time>2021-08-05T11:52:58.901Z</time>
      </trkpt>
      <trkpt lat="46.97601" lon="8.75663">
        <ele>614</ele>
        <time>2021-08-05T11:52:59.902Z</time>
      </trkpt>
      <trkpt lat="46.97599" lon="8.75663">
        <ele>613</ele>
        <time>2021-08-05T11:53:00.902Z</time>
      </trkpt>
      <trkpt lat="46.97598" lon="8.75663">
        <ele>613</ele>
        <time>2021-08-05T11:53:01.902Z</time>
      </trkpt>
      <trkpt lat="46.97597" lon="8.75664">
        <ele>613</ele>
        <time>2021-08-05T11:53:02.902Z</time>
      </trkpt>
      <trkpt lat="46.97596" lon="8.75665">
        <ele>613</ele>
        <time>2021-08-05T11:53:03.902Z</time>
      </trkpt>
      <trkpt lat="46.97596" lon="8.75665">
        <ele>614</ele>
        <time>2021-08-05T11:53:04.901Z</time>
      </trkpt>
      <trkpt lat="46.97595" lon="8.75666">
        <ele>614</ele>
        <time>2021-08-05T11:53:05.902Z</time>
      </trkpt>
      <trkpt lat="46.97594" lon="8.75667">
        <ele>614</ele>
        <time>2021-08-05T11:53:06.902Z</time>
      </trkpt>
      <trkpt lat="46.97594" lon="8.75668">
        <ele>614</ele>
        <time>2021-08-05T11:53:07.902Z</time>
      </trkpt>
      <trkpt lat="46.97593" lon="8.75669">
        <ele>614</ele>
        <time>2021-08-05T11:53:08.902Z</time>
      </trkpt>
      <trkpt lat="46.97592" lon="8.75669">
        <ele>615</ele>
        <time>2021-08-05T11:53:09.901Z</time>
      </trkpt>
      <trkpt lat="46.97591" lon="8.7567">
        <ele>615</ele>
        <time>2021-08-05T11:53:10.902Z</time>
      </trkpt>
      <trkpt lat="46.9759" lon="8.75671">
        <ele>615</ele>
        <time>2021-08-05T11:53:11.901Z</time>
      </trkpt>
      <trkpt lat="46.9759" lon="8.75669">
        <ele>614</ele>
        <time>2021-08-05T11:53:12.902Z</time>
      </trkpt>
      <trkpt lat="46.9759" lon="8.75666">
        <ele>614</ele>
        <time>2021-08-05T11:53:13.902Z</time>
      </trkpt>
      <trkpt lat="46.97588" lon="8.75666">
        <ele>614</ele>
        <time>2021-08-05T11:53:14.903Z</time>
      </trkpt>
      <trkpt lat="46.97588" lon="8.75666">
        <ele>613</ele>
        <time>2021-08-05T11:53:15.903Z</time>
      </trkpt>
      <trkpt lat="46.97588" lon="8.75666">
        <ele>613</ele>
        <time>2021-08-05T11:53:16.902Z</time>
      </trkpt>
      <trkpt lat="46.97589" lon="8.75666">
        <ele>623</ele>
        <time>2021-08-05T11:53:17.903Z</time>
      </trkpt>
      <trkpt lat="46.97589" lon="8.75666">
        <ele>624</ele>
        <time>2021-08-05T11:53:18.903Z</time>
      </trkpt>
      <trkpt lat="46.9759" lon="8.75665">
        <ele>625</ele>
        <time>2021-08-05T11:53:19.902Z</time>
      </trkpt>
      <trkpt lat="46.9759" lon="8.75665">
        <ele>626</ele>
        <time>2021-08-05T11:53:20.903Z</time>
      </trkpt>
      <trkpt lat="46.97589" lon="8.75664">
        <ele>626</ele>
        <time>2021-08-05T11:53:21.902Z</time>
      </trkpt>
      <trkpt lat="46.97589" lon="8.75663">
        <ele>627</ele>
        <time>2021-08-05T11:53:22.902Z</time>
      </trkpt>
      <trkpt lat="46.97589" lon="8.75663">
        <ele>628</ele>
        <time>2021-08-05T11:53:23.903Z</time>
      </trkpt>
      <trkpt lat="46.97589" lon="8.75663">
        <ele>628</ele>
        <time>2021-08-05T11:53:24.903Z</time>
      </trkpt>
      <trkpt lat="46.97589" lon="8.75663">
        <ele>629</ele>
        <time>2021-08-05T11:53:25.903Z</time>
      </trkpt>
      <trkpt lat="46.97591" lon="8.75666">
        <ele>633</ele>
        <time>2021-08-05T11:53:26.903Z</time>
      </trkpt>
      <trkpt lat="46.9759" lon="8.75669">
        <ele>633</ele>
        <time>2021-08-05T11:53:27.903Z</time>
      </trkpt>
      <trkpt lat="46.9759" lon="8.75671">
        <ele>634</ele>
        <time>2021-08-05T11:53:28.902Z</time>
      </trkpt>
      <trkpt lat="46.9759" lon="8.75675">
        <ele>637</ele>
        <time>2021-08-05T11:53:29.903Z</time>
      </trkpt>
      <trkpt lat="46.9759" lon="8.75675">
        <ele>637</ele>
        <time>2021-08-05T11:53:30.902Z</time>
      </trkpt>
      <trkpt lat="46.97591" lon="8.75676">
        <ele>637</ele>
        <time>2021-08-05T11:53:31.903Z</time>
      </trkpt>
      <trkpt lat="46.9759" lon="8.75682">
        <ele>638</ele>
        <time>2021-08-05T11:53:32.903Z</time>
      </trkpt>
      <trkpt lat="46.9759" lon="8.75683">
        <ele>638</ele>
        <time>2021-08-05T11:53:33.903Z</time>
      </trkpt>
      <trkpt lat="46.9759" lon="8.75683">
        <ele>639</ele>
        <time>2021-08-05T11:53:34.902Z</time>
      </trkpt>
      <trkpt lat="46.97591" lon="8.75683">
        <ele>639</ele>
        <time>2021-08-05T11:53:35.902Z</time>
      </trkpt>
      <trkpt lat="46.97592" lon="8.75688">
        <ele>636</ele>
        <time>2021-08-05T11:53:36.903Z</time>
      </trkpt>
      <trkpt lat="46.97592" lon="8.75688">
        <ele>635</ele>
        <time>2021-08-05T11:53:37.904Z</time>
      </trkpt>
      <trkpt lat="46.97592" lon="8.7569">
        <ele>632</ele>
        <time>2021-08-05T11:53:38.905Z</time>
      </trkpt>
      <trkpt lat="46.97592" lon="8.75692">
        <ele>630</ele>
        <time>2021-08-05T11:53:39.906Z</time>
      </trkpt>
      <trkpt lat="46.97592" lon="8.75692">
        <ele>630</ele>
        <time>2021-08-05T11:53:40.906Z</time>
      </trkpt>
      <trkpt lat="46.97592" lon="8.75693">
        <ele>630</ele>
        <time>2021-08-05T11:53:41.905Z</time>
      </trkpt>
      <trkpt lat="46.97591" lon="8.75694">
        <ele>630</ele>
        <time>2021-08-05T11:53:42.905Z</time>
      </trkpt>
      <trkpt lat="46.9759" lon="8.75695">
        <ele>629</ele>
        <time>2021-08-05T11:53:43.906Z</time>
      </trkpt>
      <trkpt lat="46.9759" lon="8.75697">
        <ele>629</ele>
        <time>2021-08-05T11:53:44.906Z</time>
      </trkpt>
      <trkpt lat="46.9759" lon="8.75698">
        <ele>629</ele>
        <time>2021-08-05T11:53:45.906Z</time>
      </trkpt>
      <trkpt lat="46.9759" lon="8.75696">
        <ele>627</ele>
        <time>2021-08-05T11:53:46.905Z</time>
      </trkpt>
      <trkpt lat="46.9759" lon="8.75695">
        <ele>627</ele>
        <time>2021-08-05T11:53:47.906Z</time>
      </trkpt>
      <trkpt lat="46.9759" lon="8.75695">
        <ele>626</ele>
        <time>2021-08-05T11:53:48.905Z</time>
      </trkpt>
      <trkpt lat="46.9759" lon="8.75694">
        <ele>626</ele>
        <time>2021-08-05T11:53:49.905Z</time>
      </trkpt>
      <trkpt lat="46.9759" lon="8.75691">
        <ele>624</ele>
        <time>2021-08-05T11:53:50.906Z</time>
      </trkpt>
      <trkpt lat="46.9759" lon="8.7569">
        <ele>623</ele>
        <time>2021-08-05T11:53:51.907Z</time>
      </trkpt>
      <trkpt lat="46.9759" lon="8.75689">
        <ele>622</ele>
        <time>2021-08-05T11:53:52.906Z</time>
      </trkpt>
      <trkpt lat="46.97591" lon="8.75689">
        <ele>622</ele>
        <time>2021-08-05T11:53:53.906Z</time>
      </trkpt>
      <trkpt lat="46.97591" lon="8.75688">
        <ele>621</ele>
        <time>2021-08-05T11:53:54.906Z</time>
      </trkpt>
      <trkpt lat="46.97591" lon="8.75687">
        <ele>620</ele>
        <time>2021-08-05T11:53:55.906Z</time>
      </trkpt>
      <trkpt lat="46.97591" lon="8.75687">
        <ele>618</ele>
        <time>2021-08-05T11:53:56.907Z</time>
      </trkpt>
      <trkpt lat="46.97592" lon="8.75686">
        <ele>617</ele>
        <time>2021-08-05T11:53:57.907Z</time>
      </trkpt>
      <trkpt lat="46.97592" lon="8.75687">
        <ele>616</ele>
        <time>2021-08-05T11:53:58.906Z</time>
      </trkpt>
      <trkpt lat="46.97592" lon="8.75686">
        <ele>616</ele>
        <time>2021-08-05T11:53:59.907Z</time>
      </trkpt>
      <trkpt lat="46.97593" lon="8.75686">
        <ele>616</ele>
        <time>2021-08-05T11:54:00.906Z</time>
      </trkpt>
      <trkpt lat="46.97594" lon="8.75685">
        <ele>616</ele>
        <time>2021-08-05T11:54:01.907Z</time>
      </trkpt>
      <trkpt lat="46.97595" lon="8.75684">
        <ele>616</ele>
        <time>2021-08-05T11:54:02.907Z</time>
      </trkpt>
      <trkpt lat="46.97595" lon="8.75683">
        <ele>616</ele>
        <time>2021-08-05T11:54:03.906Z</time>
      </trkpt>
      <trkpt lat="46.97595" lon="8.75682">
        <ele>616</ele>
        <time>2021-08-05T11:54:04.907Z</time>
      </trkpt>
      <trkpt lat="46.97595" lon="8.75681">
        <ele>616</ele>
        <time>2021-08-05T11:54:05.906Z</time>
      </trkpt>
      <trkpt lat="46.97595" lon="8.75679">
        <ele>616</ele>
        <time>2021-08-05T11:54:06.907Z</time>
      </trkpt>
      <trkpt lat="46.97596" lon="8.75675">
        <ele>612</ele>
        <time>2021-08-05T11:54:07.908Z</time>
      </trkpt>
      <trkpt lat="46.97596" lon="8.75674">
        <ele>612</ele>
        <time>2021-08-05T11:54:08.908Z</time>
      </trkpt>
      <trkpt lat="46.97596" lon="8.75674">
        <ele>611</ele>
        <time>2021-08-05T11:54:09.907Z</time>
      </trkpt>
      <trkpt lat="46.97596" lon="8.75674">
        <ele>611</ele>
        <time>2021-08-05T11:54:10.907Z</time>
      </trkpt>
      <trkpt lat="46.97596" lon="8.75674">
        <ele>611</ele>
        <time>2021-08-05T11:54:11.908Z</time>
      </trkpt>
      <trkpt lat="46.97597" lon="8.75674">
        <ele>610</ele>
        <time>2021-08-05T11:54:12.907Z</time>
      </trkpt>
      <trkpt lat="46.97598" lon="8.75674">
        <ele>611</ele>
        <time>2021-08-05T11:54:13.907Z</time>
      </trkpt>
      <trkpt lat="46.97599" lon="8.75673">
        <ele>611</ele>
        <time>2021-08-05T11:54:14.907Z</time>
      </trkpt>
      <trkpt lat="46.976" lon="8.75672">
        <ele>611</ele>
        <time>2021-08-05T11:54:15.907Z</time>
      </trkpt>
      <trkpt lat="46.97604" lon="8.75672">
        <ele>612</ele>
        <time>2021-08-05T11:54:16.907Z</time>
      </trkpt>
      <trkpt lat="46.97604" lon="8.75673">
        <ele>612</ele>
        <time>2021-08-05T11:54:17.907Z</time>
      </trkpt>
      <trkpt lat="46.97603" lon="8.75673">
        <ele>613</ele>
        <time>2021-08-05T11:54:18.907Z</time>
      </trkpt>
      <trkpt lat="46.97603" lon="8.75673">
        <ele>613</ele>
        <time>2021-08-05T11:54:19.907Z</time>
      </trkpt>
      <trkpt lat="46.97603" lon="8.75672">
        <ele>614</ele>
        <time>2021-08-05T11:54:20.908Z</time>
      </trkpt>
      <trkpt lat="46.97603" lon="8.75672">
        <ele>614</ele>
        <time>2021-08-05T11:54:21.908Z</time>
      </trkpt>
      <trkpt lat="46.97604" lon="8.75671">
        <ele>614</ele>
        <time>2021-08-05T11:54:25.909Z</time>
      </trkpt>
      <trkpt lat="46.97604" lon="8.75671">
        <ele>614</ele>
        <time>2021-08-05T11:54:26.908Z</time>
      </trkpt>
      <trkpt lat="46.97604" lon="8.7567">
        <ele>614</ele>
        <time>2021-08-05T11:54:27.908Z</time>
      </trkpt>
      <trkpt lat="46.97604" lon="8.75673">
        <ele>614</ele>
        <time>2021-08-05T11:54:28.909Z</time>
      </trkpt>
      <trkpt lat="46.9759" lon="8.75659">
        <ele>613</ele>
        <time>2021-08-05T11:56:07.910Z</time>
      </trkpt>
      <trkpt lat="46.97595" lon="8.75662">
        <ele>613</ele>
        <time>2021-08-05T11:56:08.910Z</time>
      </trkpt>
      <trkpt lat="46.97596" lon="8.75664">
        <ele>612</ele>
        <time>2021-08-05T11:56:09.910Z</time>
      </trkpt>
      <trkpt lat="46.97597" lon="8.75665">
        <ele>612</ele>
        <time>2021-08-05T11:56:10.910Z</time>
      </trkpt>
      <trkpt lat="46.97598" lon="8.75665">
        <ele>611</ele>
        <time>2021-08-05T11:56:11.910Z</time>
      </trkpt>
      <trkpt lat="46.97599" lon="8.75665">
        <ele>611</ele>
        <time>2021-08-05T11:56:12.910Z</time>
      </trkpt>
      <trkpt lat="46.97599" lon="8.75665">
        <ele>611</ele>
        <time>2021-08-05T11:56:13.909Z</time>
      </trkpt>
      <trkpt lat="46.97601" lon="8.75664">
        <ele>611</ele>
        <time>2021-08-05T11:56:14.910Z</time>
      </trkpt>
      <trkpt lat="46.97601" lon="8.75664">
        <ele>611</ele>
        <time>2021-08-05T11:56:15.910Z</time>
      </trkpt>
      <trkpt lat="46.976" lon="8.75665">
        <ele>611</ele>
        <time>2021-08-05T11:56:16.910Z</time>
      </trkpt>
      <trkpt lat="46.97599" lon="8.75666">
        <ele>611</ele>
        <time>2021-08-05T11:56:17.909Z</time>
      </trkpt>
      <trkpt lat="46.97598" lon="8.75666">
        <ele>611</ele>
        <time>2021-08-05T11:56:18.910Z</time>
      </trkpt>
      <trkpt lat="46.97598" lon="8.75665">
        <ele>610</ele>
        <time>2021-08-05T11:56:19.909Z</time>
      </trkpt>
      <trkpt lat="46.97598" lon="8.75664">
        <ele>610</ele>
        <time>2021-08-05T11:56:20.909Z</time>
      </trkpt>
      <trkpt lat="46.97598" lon="8.75662">
        <ele>610</ele>
        <time>2021-08-05T11:56:21.910Z</time>
      </trkpt>
      <trkpt lat="46.97597" lon="8.75662">
        <ele>610</ele>
        <time>2021-08-05T11:56:22.910Z</time>
      </trkpt>
      <trkpt lat="46.97596" lon="8.75662">
        <ele>611</ele>
        <time>2021-08-05T11:56:23.910Z</time>
      </trkpt>
      <trkpt lat="46.97595" lon="8.75662">
        <ele>611</ele>
        <time>2021-08-05T11:56:24.910Z</time>
      </trkpt>
      <trkpt lat="46.97594" lon="8.75661">
        <ele>611</ele>
        <time>2021-08-05T11:56:25.909Z</time>
      </trkpt>
      <trkpt lat="46.97593" lon="8.7566">
        <ele>611</ele>
        <time>2021-08-05T11:56:26.910Z</time>
      </trkpt>
      <trkpt lat="46.97592" lon="8.75658">
        <ele>611</ele>
        <time>2021-08-05T11:56:27.910Z</time>
      </trkpt>
      <trkpt lat="46.97591" lon="8.75655">
        <ele>612</ele>
        <time>2021-08-05T11:56:28.910Z</time>
      </trkpt>
      <trkpt lat="46.97588" lon="8.75657">
        <ele>617</ele>
        <time>2021-08-05T11:56:29.909Z</time>
      </trkpt>
      <trkpt lat="46.97588" lon="8.75657">
        <ele>618</ele>
        <time>2021-08-05T11:56:30.909Z</time>
      </trkpt>
      <trkpt lat="46.97586" lon="8.75657">
        <ele>619</ele>
        <time>2021-08-05T11:56:31.909Z</time>
      </trkpt>
      <trkpt lat="46.97585" lon="8.75657">
        <ele>619</ele>
        <time>2021-08-05T11:56:32.909Z</time>
      </trkpt>
      <trkpt lat="46.97584" lon="8.75656">
        <ele>620</ele>
        <time>2021-08-05T11:56:33.909Z</time>
      </trkpt>
      <trkpt lat="46.97583" lon="8.75656">
        <ele>620</ele>
        <time>2021-08-05T11:56:34.909Z</time>
      </trkpt>
      <trkpt lat="46.97582" lon="8.75656">
        <ele>621</ele>
        <time>2021-08-05T11:56:35.909Z</time>
      </trkpt>
      <trkpt lat="46.97581" lon="8.75656">
        <ele>621</ele>
        <time>2021-08-05T11:56:36.909Z</time>
      </trkpt>
      <trkpt lat="46.9758" lon="8.75656">
        <ele>620</ele>
        <time>2021-08-05T11:56:37.909Z</time>
      </trkpt>
      <trkpt lat="46.9758" lon="8.75656">
        <ele>620</ele>
        <time>2021-08-05T11:56:38.909Z</time>
      </trkpt>
      <trkpt lat="46.97579" lon="8.75656">
        <ele>619</ele>
        <time>2021-08-05T11:56:39.909Z</time>
      </trkpt>
      <trkpt lat="46.97578" lon="8.75656">
        <ele>619</ele>
        <time>2021-08-05T11:56:40.909Z</time>
      </trkpt>
      <trkpt lat="46.97576" lon="8.75656">
        <ele>619</ele>
        <time>2021-08-05T11:56:41.909Z</time>
      </trkpt>
      <trkpt lat="46.97575" lon="8.75656">
        <ele>618</ele>
        <time>2021-08-05T11:56:42.909Z</time>
      </trkpt>
      <trkpt lat="46.97573" lon="8.75655">
        <ele>618</ele>
        <time>2021-08-05T11:56:43.909Z</time>
      </trkpt>
      <trkpt lat="46.97572" lon="8.75655">
        <ele>617</ele>
        <time>2021-08-05T11:56:44.909Z</time>
      </trkpt>
      <trkpt lat="46.97571" lon="8.75655">
        <ele>617</ele>
        <time>2021-08-05T11:56:45.909Z</time>
      </trkpt>
      <trkpt lat="46.9757" lon="8.75654">
        <ele>617</ele>
        <time>2021-08-05T11:56:46.909Z</time>
      </trkpt>
      <trkpt lat="46.97569" lon="8.75653">
        <ele>617</ele>
        <time>2021-08-05T11:56:47.909Z</time>
      </trkpt>
      <trkpt lat="46.97568" lon="8.75654">
        <ele>616</ele>
        <time>2021-08-05T11:56:48.909Z</time>
      </trkpt>
      <trkpt lat="46.97567" lon="8.75655">
        <ele>616</ele>
        <time>2021-08-05T11:56:49.909Z</time>
      </trkpt>
      <trkpt lat="46.97567" lon="8.75655">
        <ele>616</ele>
        <time>2021-08-05T11:56:50.909Z</time>
      </trkpt>
      <trkpt lat="46.97566" lon="8.75656">
        <ele>616</ele>
        <time>2021-08-05T11:56:51.909Z</time>
      </trkpt>
      <trkpt lat="46.97565" lon="8.75657">
        <ele>615</ele>
        <time>2021-08-05T11:56:52.909Z</time>
      </trkpt>
      <trkpt lat="46.97565" lon="8.75658">
        <ele>615</ele>
        <time>2021-08-05T11:56:53.909Z</time>
      </trkpt>
      <trkpt lat="46.97564" lon="8.75659">
        <ele>615</ele>
        <time>2021-08-05T11:56:54.909Z</time>
      </trkpt>
      <trkpt lat="46.97563" lon="8.7566">
        <ele>615</ele>
        <time>2021-08-05T11:56:55.909Z</time>
      </trkpt>
      <trkpt lat="46.97562" lon="8.7566">
        <ele>615</ele>
        <time>2021-08-05T11:56:56.909Z</time>
      </trkpt>
      <trkpt lat="46.97561" lon="8.7566">
        <ele>615</ele>
        <time>2021-08-05T11:56:57.909Z</time>
      </trkpt>
      <trkpt lat="46.9756" lon="8.7566">
        <ele>616</ele>
        <time>2021-08-05T11:56:58.909Z</time>
      </trkpt>
      <trkpt lat="46.97559" lon="8.75659">
        <ele>616</ele>
        <time>2021-08-05T11:56:59.909Z</time>
      </trkpt>
      <trkpt lat="46.97558" lon="8.75659">
        <ele>616</ele>
        <time>2021-08-05T11:57:00.909Z</time>
      </trkpt>
      <trkpt lat="46.97557" lon="8.75659">
        <ele>616</ele>
        <time>2021-08-05T11:57:01.909Z</time>
      </trkpt>
      <trkpt lat="46.97556" lon="8.75659">
        <ele>616</ele>
        <time>2021-08-05T11:57:02.909Z</time>
      </trkpt>
      <trkpt lat="46.97555" lon="8.75659">
        <ele>616</ele>
        <time>2021-08-05T11:57:03.909Z</time>
      </trkpt>
      <trkpt lat="46.97554" lon="8.7566">
        <ele>616</ele>
        <time>2021-08-05T11:57:04.909Z</time>
      </trkpt>
      <trkpt lat="46.97553" lon="8.7566">
        <ele>617</ele>
        <time>2021-08-05T11:57:05.909Z</time>
      </trkpt>
      <trkpt lat="46.97552" lon="8.75661">
        <ele>617</ele>
        <time>2021-08-05T11:57:06.909Z</time>
      </trkpt>
      <trkpt lat="46.97551" lon="8.75662">
        <ele>617</ele>
        <time>2021-08-05T11:57:07.909Z</time>
      </trkpt>
      <trkpt lat="46.9755" lon="8.75662">
        <ele>618</ele>
        <time>2021-08-05T11:57:08.909Z</time>
      </trkpt>
      <trkpt lat="46.97549" lon="8.75662">
        <ele>619</ele>
        <time>2021-08-05T11:57:09.909Z</time>
      </trkpt>
      <trkpt lat="46.97548" lon="8.75663">
        <ele>619</ele>
        <time>2021-08-05T11:57:10.909Z</time>
      </trkpt>
      <trkpt lat="46.97546" lon="8.75665">
        <ele>619</ele>
        <time>2021-08-05T11:57:11.909Z</time>
      </trkpt>
      <trkpt lat="46.97545" lon="8.75665">
        <ele>620</ele>
        <time>2021-08-05T11:57:12.909Z</time>
      </trkpt>
      <trkpt lat="46.97544" lon="8.75666">
        <ele>621</ele>
        <time>2021-08-05T11:57:13.909Z</time>
      </trkpt>
      <trkpt lat="46.97543" lon="8.75666">
        <ele>621</ele>
        <time>2021-08-05T11:57:14.909Z</time>
      </trkpt>
      <trkpt lat="46.97543" lon="8.75665">
        <ele>621</ele>
        <time>2021-08-05T11:57:15.909Z</time>
      </trkpt>
      <trkpt lat="46.97542" lon="8.75665">
        <ele>622</ele>
        <time>2021-08-05T11:57:16.909Z</time>
      </trkpt>
      <trkpt lat="46.97541" lon="8.75665">
        <ele>622</ele>
        <time>2021-08-05T11:57:17.909Z</time>
      </trkpt>
      <trkpt lat="46.9754" lon="8.75666">
        <ele>622</ele>
        <time>2021-08-05T11:57:18.909Z</time>
      </trkpt>
      <trkpt lat="46.97538" lon="8.75667">
        <ele>622</ele>
        <time>2021-08-05T11:57:19.909Z</time>
      </trkpt>
      <trkpt lat="46.97536" lon="8.75667">
        <ele>622</ele>
        <time>2021-08-05T11:57:20.909Z</time>
      </trkpt>
      <trkpt lat="46.97535" lon="8.75668">
        <ele>622</ele>
        <time>2021-08-05T11:57:21.909Z</time>
      </trkpt>
      <trkpt lat="46.97534" lon="8.75669">
        <ele>622</ele>
        <time>2021-08-05T11:57:22.909Z</time>
      </trkpt>
      <trkpt lat="46.97533" lon="8.7567">
        <ele>622</ele>
        <time>2021-08-05T11:57:23.909Z</time>
      </trkpt>
      <trkpt lat="46.97532" lon="8.75671">
        <ele>622</ele>
        <time>2021-08-05T11:57:24.909Z</time>
      </trkpt>
      <trkpt lat="46.97531" lon="8.75671">
        <ele>622</ele>
        <time>2021-08-05T11:57:25.909Z</time>
      </trkpt>
      <trkpt lat="46.9753" lon="8.75672">
        <ele>621</ele>
        <time>2021-08-05T11:57:26.909Z</time>
      </trkpt>
      <trkpt lat="46.97529" lon="8.75672">
        <ele>621</ele>
        <time>2021-08-05T11:57:27.909Z</time>
      </trkpt>
      <trkpt lat="46.97529" lon="8.75672">
        <ele>621</ele>
        <time>2021-08-05T11:57:28.909Z</time>
      </trkpt>
      <trkpt lat="46.97529" lon="8.75672">
        <ele>620</ele>
        <time>2021-08-05T11:57:29.909Z</time>
      </trkpt>
      <trkpt lat="46.97528" lon="8.75673">
        <ele>620</ele>
        <time>2021-08-05T11:57:30.909Z</time>
      </trkpt>
      <trkpt lat="46.9753" lon="8.75676">
        <ele>619</ele>
        <time>2021-08-05T11:57:31.909Z</time>
      </trkpt>
      <trkpt lat="46.97531" lon="8.75677">
        <ele>619</ele>
        <time>2021-08-05T11:57:32.909Z</time>
      </trkpt>
      <trkpt lat="46.97558" lon="8.75684">
        <ele>619</ele>
        <time>2021-08-05T12:10:33.473Z</time>
      </trkpt>
      <trkpt lat="46.97569" lon="8.75679">
        <ele>620</ele>
        <time>2021-08-05T12:10:34.473Z</time>
      </trkpt>
      <trkpt lat="46.97572" lon="8.75677">
        <ele>620</ele>
        <time>2021-08-05T12:10:35.473Z</time>
      </trkpt>
      <trkpt lat="46.9757" lon="8.75678">
        <ele>621</ele>
        <time>2021-08-05T12:10:36.473Z</time>
      </trkpt>
      <trkpt lat="46.97569" lon="8.75678">
        <ele>622</ele>
        <time>2021-08-05T12:10:37.473Z</time>
      </trkpt>
      <trkpt lat="46.97561" lon="8.75681">
        <ele>622</ele>
        <time>2021-08-05T12:10:38.473Z</time>
      </trkpt>
      <trkpt lat="46.97558" lon="8.75681">
        <ele>621</ele>
        <time>2021-08-05T12:10:39.473Z</time>
      </trkpt>
      <trkpt lat="46.97558" lon="8.7568">
        <ele>621</ele>
        <time>2021-08-05T12:10:40.473Z</time>
      </trkpt>
      <trkpt lat="46.97559" lon="8.75679">
        <ele>621</ele>
        <time>2021-08-05T12:10:41.473Z</time>
      </trkpt>
      <trkpt lat="46.97559" lon="8.75679">
        <ele>620</ele>
        <time>2021-08-05T12:10:42.473Z</time>
      </trkpt>
      <trkpt lat="46.97558" lon="8.75676">
        <ele>620</ele>
        <time>2021-08-05T12:10:43.473Z</time>
      </trkpt>
      <trkpt lat="46.97557" lon="8.75674">
        <ele>620</ele>
        <time>2021-08-05T12:10:44.473Z</time>
      </trkpt>
      <trkpt lat="46.97557" lon="8.75674">
        <ele>620</ele>
        <time>2021-08-05T12:10:45.473Z</time>
      </trkpt>
      <trkpt lat="46.97558" lon="8.75672">
        <ele>620</ele>
        <time>2021-08-05T12:10:46.473Z</time>
      </trkpt>
      <trkpt lat="46.97558" lon="8.7567">
        <ele>620</ele>
        <time>2021-08-05T12:10:47.473Z</time>
      </trkpt>
      <trkpt lat="46.97559" lon="8.75668">
        <ele>619</ele>
        <time>2021-08-05T12:10:48.473Z</time>
      </trkpt>
      <trkpt lat="46.97559" lon="8.75666">
        <ele>619</ele>
        <time>2021-08-05T12:10:49.473Z</time>
      </trkpt>
      <trkpt lat="46.9756" lon="8.75665">
        <ele>619</ele>
        <time>2021-08-05T12:10:50.473Z</time>
      </trkpt>
      <trkpt lat="46.9756" lon="8.75664">
        <ele>618</ele>
        <time>2021-08-05T12:10:51.473Z</time>
      </trkpt>
      <trkpt lat="46.97561" lon="8.75662">
        <ele>618</ele>
        <time>2021-08-05T12:10:52.473Z</time>
      </trkpt>
      <trkpt lat="46.97561" lon="8.75663">
        <ele>617</ele>
        <time>2021-08-05T12:10:53.473Z</time>
      </trkpt>
      <trkpt lat="46.97562" lon="8.75664">
        <ele>616</ele>
        <time>2021-08-05T12:10:54.473Z</time>
      </trkpt>
      <trkpt lat="46.97563" lon="8.75663">
        <ele>614</ele>
        <time>2021-08-05T12:10:55.473Z</time>
      </trkpt>
      <trkpt lat="46.97563" lon="8.75663">
        <ele>613</ele>
        <time>2021-08-05T12:10:56.473Z</time>
      </trkpt>
      <trkpt lat="46.97564" lon="8.75663">
        <ele>613</ele>
        <time>2021-08-05T12:10:57.473Z</time>
      </trkpt>
      <trkpt lat="46.97566" lon="8.75662">
        <ele>612</ele>
        <time>2021-08-05T12:10:58.474Z</time>
      </trkpt>
      <trkpt lat="46.97567" lon="8.75662">
        <ele>612</ele>
        <time>2021-08-05T12:10:59.474Z</time>
      </trkpt>
      <trkpt lat="46.97568" lon="8.75661">
        <ele>612</ele>
        <time>2021-08-05T12:11:00.473Z</time>
      </trkpt>
      <trkpt lat="46.97568" lon="8.7566">
        <ele>612</ele>
        <time>2021-08-05T12:11:01.474Z</time>
      </trkpt>
      <trkpt lat="46.97569" lon="8.7566">
        <ele>612</ele>
        <time>2021-08-05T12:11:02.474Z</time>
      </trkpt>
      <trkpt lat="46.9757" lon="8.75659">
        <ele>611</ele>
        <time>2021-08-05T12:11:03.474Z</time>
      </trkpt>
      <trkpt lat="46.97571" lon="8.7566">
        <ele>612</ele>
        <time>2021-08-05T12:11:04.473Z</time>
      </trkpt>
      <trkpt lat="46.97572" lon="8.75659">
        <ele>612</ele>
        <time>2021-08-05T12:11:05.474Z</time>
      </trkpt>
      <trkpt lat="46.97573" lon="8.75658">
        <ele>612</ele>
        <time>2021-08-05T12:11:06.473Z</time>
      </trkpt>
      <trkpt lat="46.97573" lon="8.75659">
        <ele>612</ele>
        <time>2021-08-05T12:11:07.474Z</time>
      </trkpt>
      <trkpt lat="46.97574" lon="8.75661">
        <ele>612</ele>
        <time>2021-08-05T12:11:08.474Z</time>
      </trkpt>
      <trkpt lat="46.97576" lon="8.75662">
        <ele>612</ele>
        <time>2021-08-05T12:11:09.474Z</time>
      </trkpt>
      <trkpt lat="46.97577" lon="8.75663">
        <ele>612</ele>
        <time>2021-08-05T12:11:10.474Z</time>
      </trkpt>
      <trkpt lat="46.97578" lon="8.75662">
        <ele>611</ele>
        <time>2021-08-05T12:11:11.473Z</time>
      </trkpt>
      <trkpt lat="46.97579" lon="8.75662">
        <ele>611</ele>
        <time>2021-08-05T12:11:12.474Z</time>
      </trkpt>
      <trkpt lat="46.9758" lon="8.75661">
        <ele>611</ele>
        <time>2021-08-05T12:11:13.474Z</time>
      </trkpt>
      <trkpt lat="46.97581" lon="8.75661">
        <ele>611</ele>
        <time>2021-08-05T12:11:14.473Z</time>
      </trkpt>
      <trkpt lat="46.97583" lon="8.75661">
        <ele>612</ele>
        <time>2021-08-05T12:11:15.473Z</time>
      </trkpt>
      <trkpt lat="46.97584" lon="8.75661">
        <ele>612</ele>
        <time>2021-08-05T12:11:16.474Z</time>
      </trkpt>
      <trkpt lat="46.97585" lon="8.75662">
        <ele>613</ele>
        <time>2021-08-05T12:11:17.474Z</time>
      </trkpt>
      <trkpt lat="46.97585" lon="8.75663">
        <ele>613</ele>
        <time>2021-08-05T12:11:18.474Z</time>
      </trkpt>
      <trkpt lat="46.97586" lon="8.75664">
        <ele>613</ele>
        <time>2021-08-05T12:11:19.474Z</time>
      </trkpt>
      <trkpt lat="46.97587" lon="8.75665">
        <ele>614</ele>
        <time>2021-08-05T12:11:20.474Z</time>
      </trkpt>
      <trkpt lat="46.97588" lon="8.75667">
        <ele>614</ele>
        <time>2021-08-05T12:11:21.474Z</time>
      </trkpt>
      <trkpt lat="46.97589" lon="8.75668">
        <ele>615</ele>
        <time>2021-08-05T12:11:22.474Z</time>
      </trkpt>
      <trkpt lat="46.9759" lon="8.7567">
        <ele>615</ele>
        <time>2021-08-05T12:11:23.474Z</time>
      </trkpt>
      <trkpt lat="46.9759" lon="8.75671">
        <ele>616</ele>
        <time>2021-08-05T12:11:24.474Z</time>
      </trkpt>
      <trkpt lat="46.9759" lon="8.75673">
        <ele>617</ele>
        <time>2021-08-05T12:11:25.473Z</time>
      </trkpt>
      <trkpt lat="46.9759" lon="8.75675">
        <ele>617</ele>
        <time>2021-08-05T12:11:26.473Z</time>
      </trkpt>
      <trkpt lat="46.9759" lon="8.75676">
        <ele>616</ele>
        <time>2021-08-05T12:11:27.473Z</time>
      </trkpt>
      <trkpt lat="46.9759" lon="8.75676">
        <ele>616</ele>
        <time>2021-08-05T12:11:28.473Z</time>
      </trkpt>
      <trkpt lat="46.97591" lon="8.75676">
        <ele>616</ele>
        <time>2021-08-05T12:11:29.474Z</time>
      </trkpt>
      <trkpt lat="46.9759" lon="8.75675">
        <ele>616</ele>
        <time>2021-08-05T12:11:30.474Z</time>
      </trkpt>
      <trkpt lat="46.97589" lon="8.75677">
        <ele>611</ele>
        <time>2021-08-05T12:11:31.475Z</time>
      </trkpt>
      <trkpt lat="46.97589" lon="8.75679">
        <ele>610</ele>
        <time>2021-08-05T12:11:32.475Z</time>
      </trkpt>
      <trkpt lat="46.9759" lon="8.75681">
        <ele>609</ele>
        <time>2021-08-05T12:11:33.474Z</time>
      </trkpt>
      <trkpt lat="46.9759" lon="8.75683">
        <ele>609</ele>
        <time>2021-08-05T12:11:34.475Z</time>
      </trkpt>
      <trkpt lat="46.9759" lon="8.75685">
        <ele>609</ele>
        <time>2021-08-05T12:11:35.475Z</time>
      </trkpt>
      <trkpt lat="46.9759" lon="8.75687">
        <ele>609</ele>
        <time>2021-08-05T12:11:36.475Z</time>
      </trkpt>
      <trkpt lat="46.9759" lon="8.7569">
        <ele>609</ele>
        <time>2021-08-05T12:11:37.475Z</time>
      </trkpt>
      <trkpt lat="46.9759" lon="8.75691">
        <ele>610</ele>
        <time>2021-08-05T12:11:38.475Z</time>
      </trkpt>
      <trkpt lat="46.9759" lon="8.75694">
        <ele>611</ele>
        <time>2021-08-05T12:11:39.475Z</time>
      </trkpt>
      <trkpt lat="46.9759" lon="8.75695">
        <ele>611</ele>
        <time>2021-08-05T12:11:40.475Z</time>
      </trkpt>
      <trkpt lat="46.9759" lon="8.75698">
        <ele>612</ele>
        <time>2021-08-05T12:11:41.475Z</time>
      </trkpt>
      <trkpt lat="46.9759" lon="8.75699">
        <ele>612</ele>
        <time>2021-08-05T12:11:42.475Z</time>
      </trkpt>
      <trkpt lat="46.9759" lon="8.757">
        <ele>612</ele>
        <time>2021-08-05T12:11:43.475Z</time>
      </trkpt>
      <trkpt lat="46.9759" lon="8.75701">
        <ele>612</ele>
        <time>2021-08-05T12:11:44.475Z</time>
      </trkpt>
      <trkpt lat="46.9759" lon="8.75701">
        <ele>612</ele>
        <time>2021-08-05T12:11:45.475Z</time>
      </trkpt>
      <trkpt lat="46.9759" lon="8.75702">
        <ele>611</ele>
        <time>2021-08-05T12:11:46.474Z</time>
      </trkpt>
      <trkpt lat="46.9759" lon="8.75704">
        <ele>611</ele>
        <time>2021-08-05T12:11:47.475Z</time>
      </trkpt>
      <trkpt lat="46.97589" lon="8.75704">
        <ele>610</ele>
        <time>2021-08-05T12:11:48.475Z</time>
      </trkpt>
      <trkpt lat="46.97589" lon="8.75705">
        <ele>610</ele>
        <time>2021-08-05T12:11:49.474Z</time>
      </trkpt>
      <trkpt lat="46.97588" lon="8.75707">
        <ele>610</ele>
        <time>2021-08-05T12:11:50.475Z</time>
      </trkpt>
      <trkpt lat="46.97588" lon="8.75708">
        <ele>610</ele>
        <time>2021-08-05T12:11:51.474Z</time>
      </trkpt>
      <trkpt lat="46.97587" lon="8.75709">
        <ele>610</ele>
        <time>2021-08-05T12:11:52.475Z</time>
      </trkpt>
      <trkpt lat="46.97587" lon="8.7571">
        <ele>610</ele>
        <time>2021-08-05T12:11:53.475Z</time>
      </trkpt>
      <trkpt lat="46.97586" lon="8.75711">
        <ele>611</ele>
        <time>2021-08-05T12:11:54.475Z</time>
      </trkpt>
      <trkpt lat="46.97586" lon="8.75712">
        <ele>611</ele>
        <time>2021-08-05T12:11:55.475Z</time>
      </trkpt>
      <trkpt lat="46.97585" lon="8.75713">
        <ele>612</ele>
        <time>2021-08-05T12:11:56.474Z</time>
      </trkpt>
      <trkpt lat="46.97584" lon="8.75714">
        <ele>612</ele>
        <time>2021-08-05T12:11:57.475Z</time>
      </trkpt>
      <trkpt lat="46.97584" lon="8.75715">
        <ele>613</ele>
        <time>2021-08-05T12:11:58.474Z</time>
      </trkpt>
      <trkpt lat="46.97583" lon="8.75716">
        <ele>614</ele>
        <time>2021-08-05T12:11:59.474Z</time>
      </trkpt>
      <trkpt lat="46.97583" lon="8.75717">
        <ele>614</ele>
        <time>2021-08-05T12:12:00.474Z</time>
      </trkpt>
      <trkpt lat="46.97582" lon="8.75719">
        <ele>614</ele>
        <time>2021-08-05T12:12:01.475Z</time>
      </trkpt>
      <trkpt lat="46.97582" lon="8.75719">
        <ele>614</ele>
        <time>2021-08-05T12:12:04.554Z</time>
      </trkpt>
      <trkpt lat="46.97581" lon="8.75721">
        <ele>613</ele>
        <time>2021-08-05T12:12:05.555Z</time>
      </trkpt>
      <trkpt lat="46.97581" lon="8.75721">
        <ele>613</ele>
        <time>2021-08-05T12:12:06.554Z</time>
      </trkpt>
      <trkpt lat="46.9758" lon="8.75722">
        <ele>613</ele>
        <time>2021-08-05T12:12:07.554Z</time>
      </trkpt>
      <trkpt lat="46.9758" lon="8.75724">
        <ele>613</ele>
        <time>2021-08-05T12:12:08.554Z</time>
      </trkpt>
      <trkpt lat="46.97579" lon="8.75726">
        <ele>613</ele>
        <time>2021-08-05T12:12:09.555Z</time>
      </trkpt>
      <trkpt lat="46.97579" lon="8.75727">
        <ele>613</ele>
        <time>2021-08-05T12:12:10.555Z</time>
      </trkpt>
      <trkpt lat="46.97578" lon="8.75729">
        <ele>613</ele>
        <time>2021-08-05T12:12:11.555Z</time>
      </trkpt>
      <trkpt lat="46.97578" lon="8.7573">
        <ele>612</ele>
        <time>2021-08-05T12:12:12.555Z</time>
      </trkpt>
      <trkpt lat="46.97578" lon="8.75731">
        <ele>612</ele>
        <time>2021-08-05T12:12:13.555Z</time>
      </trkpt>
      <trkpt lat="46.97578" lon="8.75732">
        <ele>612</ele>
        <time>2021-08-05T12:12:14.554Z</time>
      </trkpt>
      <trkpt lat="46.97578" lon="8.75733">
        <ele>612</ele>
        <time>2021-08-05T12:12:15.554Z</time>
      </trkpt>
      <trkpt lat="46.97578" lon="8.75735">
        <ele>612</ele>
        <time>2021-08-05T12:12:16.554Z</time>
      </trkpt>
      <trkpt lat="46.97577" lon="8.75737">
        <ele>612</ele>
        <time>2021-08-05T12:12:17.554Z</time>
      </trkpt>
      <trkpt lat="46.97577" lon="8.75738">
        <ele>612</ele>
        <time>2021-08-05T12:12:18.555Z</time>
      </trkpt>
      <trkpt lat="46.97577" lon="8.7574">
        <ele>611</ele>
        <time>2021-08-05T12:12:19.555Z</time>
      </trkpt>
      <trkpt lat="46.97577" lon="8.7574">
        <ele>611</ele>
        <time>2021-08-05T12:12:20.555Z</time>
      </trkpt>
      <trkpt lat="46.97577" lon="8.75741">
        <ele>610</ele>
        <time>2021-08-05T12:12:21.554Z</time>
      </trkpt>
      <trkpt lat="46.97577" lon="8.75742">
        <ele>610</ele>
        <time>2021-08-05T12:12:22.555Z</time>
      </trkpt>
      <trkpt lat="46.97576" lon="8.75743">
        <ele>609</ele>
        <time>2021-08-05T12:12:23.555Z</time>
      </trkpt>
      <trkpt lat="46.97576" lon="8.75745">
        <ele>609</ele>
        <time>2021-08-05T12:12:24.554Z</time>
      </trkpt>
      <trkpt lat="46.97576" lon="8.75746">
        <ele>609</ele>
        <time>2021-08-05T12:12:25.554Z</time>
      </trkpt>
      <trkpt lat="46.97576" lon="8.75747">
        <ele>609</ele>
        <time>2021-08-05T12:12:26.555Z</time>
      </trkpt>
      <trkpt lat="46.97575" lon="8.75748">
        <ele>609</ele>
        <time>2021-08-05T12:12:27.555Z</time>
      </trkpt>
      <trkpt lat="46.97575" lon="8.7575">
        <ele>609</ele>
        <time>2021-08-05T12:12:28.555Z</time>
      </trkpt>
      <trkpt lat="46.97574" lon="8.75751">
        <ele>609</ele>
        <time>2021-08-05T12:12:29.554Z</time>
      </trkpt>
      <trkpt lat="46.97574" lon="8.75753">
        <ele>609</ele>
        <time>2021-08-05T12:12:30.554Z</time>
      </trkpt>
      <trkpt lat="46.97573" lon="8.75754">
        <ele>610</ele>
        <time>2021-08-05T12:12:31.554Z</time>
      </trkpt>
      <trkpt lat="46.97573" lon="8.75755">
        <ele>610</ele>
        <time>2021-08-05T12:12:34.677Z</time>
      </trkpt>
      <trkpt lat="46.97573" lon="8.75756">
        <ele>611</ele>
        <time>2021-08-05T12:12:35.678Z</time>
      </trkpt>
      <trkpt lat="46.97572" lon="8.75757">
        <ele>612</ele>
        <time>2021-08-05T12:12:36.678Z</time>
      </trkpt>
      <trkpt lat="46.97572" lon="8.75758">
        <ele>612</ele>
        <time>2021-08-05T12:12:37.678Z</time>
      </trkpt>
      <trkpt lat="46.97572" lon="8.75758">
        <ele>612</ele>
        <time>2021-08-05T12:12:38.678Z</time>
      </trkpt>
      <trkpt lat="46.97572" lon="8.75759">
        <ele>613</ele>
        <time>2021-08-05T12:12:39.677Z</time>
      </trkpt>
      <trkpt lat="46.97572" lon="8.7576">
        <ele>613</ele>
        <time>2021-08-05T12:12:40.677Z</time>
      </trkpt>
      <trkpt lat="46.97572" lon="8.75761">
        <ele>613</ele>
        <time>2021-08-05T12:12:41.678Z</time>
      </trkpt>
      <trkpt lat="46.97572" lon="8.75762">
        <ele>613</ele>
        <time>2021-08-05T12:12:42.677Z</time>
      </trkpt>
      <trkpt lat="46.97572" lon="8.75763">
        <ele>614</ele>
        <time>2021-08-05T12:12:43.677Z</time>
      </trkpt>
      <trkpt lat="46.97572" lon="8.75765">
        <ele>614</ele>
        <time>2021-08-05T12:12:44.678Z</time>
      </trkpt>
      <trkpt lat="46.97571" lon="8.75766">
        <ele>615</ele>
        <time>2021-08-05T12:12:45.678Z</time>
      </trkpt>
      <trkpt lat="46.97571" lon="8.75767">
        <ele>615</ele>
        <time>2021-08-05T12:12:46.677Z</time>
      </trkpt>
      <trkpt lat="46.97571" lon="8.75769">
        <ele>616</ele>
        <time>2021-08-05T12:12:47.677Z</time>
      </trkpt>
      <trkpt lat="46.97571" lon="8.75771">
        <ele>616</ele>
        <time>2021-08-05T12:12:48.678Z</time>
      </trkpt>
      <trkpt lat="46.97572" lon="8.75773">
        <ele>616</ele>
        <time>2021-08-05T12:12:49.677Z</time>
      </trkpt>
      <trkpt lat="46.97572" lon="8.75775">
        <ele>616</ele>
        <time>2021-08-05T12:12:50.678Z</time>
      </trkpt>
      <trkpt lat="46.97572" lon="8.75776">
        <ele>617</ele>
        <time>2021-08-05T12:12:51.677Z</time>
      </trkpt>
      <trkpt lat="46.97571" lon="8.75778">
        <ele>617</ele>
        <time>2021-08-05T12:12:52.677Z</time>
      </trkpt>
      <trkpt lat="46.97571" lon="8.75779">
        <ele>617</ele>
        <time>2021-08-05T12:12:53.678Z</time>
      </trkpt>
      <trkpt lat="46.9757" lon="8.75781">
        <ele>617</ele>
        <time>2021-08-05T12:12:54.677Z</time>
      </trkpt>
      <trkpt lat="46.9757" lon="8.75782">
        <ele>617</ele>
        <time>2021-08-05T12:12:55.678Z</time>
      </trkpt>
      <trkpt lat="46.9757" lon="8.75784">
        <ele>616</ele>
        <time>2021-08-05T12:12:56.677Z</time>
      </trkpt>
      <trkpt lat="46.97569" lon="8.75785">
        <ele>616</ele>
        <time>2021-08-05T12:12:57.678Z</time>
      </trkpt>
      <trkpt lat="46.97568" lon="8.75787">
        <ele>616</ele>
        <time>2021-08-05T12:12:58.677Z</time>
      </trkpt>
      <trkpt lat="46.97568" lon="8.75788">
        <ele>616</ele>
        <time>2021-08-05T12:12:59.677Z</time>
      </trkpt>
      <trkpt lat="46.97568" lon="8.75789">
        <ele>616</ele>
        <time>2021-08-05T12:13:00.677Z</time>
      </trkpt>
      <trkpt lat="46.97568" lon="8.75788">
        <ele>617</ele>
        <time>2021-08-05T12:13:01.678Z</time>
      </trkpt>
      <trkpt lat="46.97567" lon="8.75788">
        <ele>616</ele>
        <time>2021-08-05T12:13:02.678Z</time>
      </trkpt>
      <trkpt lat="46.97567" lon="8.7579">
        <ele>616</ele>
        <time>2021-08-05T12:13:03.677Z</time>
      </trkpt>
      <trkpt lat="46.97566" lon="8.75791">
        <ele>616</ele>
        <time>2021-08-05T12:13:04.677Z</time>
      </trkpt>
      <trkpt lat="46.97566" lon="8.75793">
        <ele>616</ele>
        <time>2021-08-05T12:13:05.677Z</time>
      </trkpt>
      <trkpt lat="46.97566" lon="8.75795">
        <ele>615</ele>
        <time>2021-08-05T12:13:06.678Z</time>
      </trkpt>
      <trkpt lat="46.97565" lon="8.75796">
        <ele>615</ele>
        <time>2021-08-05T12:13:07.678Z</time>
      </trkpt>
      <trkpt lat="46.97565" lon="8.75798">
        <ele>615</ele>
        <time>2021-08-05T12:13:08.678Z</time>
      </trkpt>
      <trkpt lat="46.97564" lon="8.75799">
        <ele>615</ele>
        <time>2021-08-05T12:13:09.677Z</time>
      </trkpt>
      <trkpt lat="46.97564" lon="8.75801">
        <ele>615</ele>
        <time>2021-08-05T12:13:10.678Z</time>
      </trkpt>
      <trkpt lat="46.97564" lon="8.75802">
        <ele>615</ele>
        <time>2021-08-05T12:13:11.677Z</time>
      </trkpt>
      <trkpt lat="46.97564" lon="8.75804">
        <ele>614</ele>
        <time>2021-08-05T12:13:12.677Z</time>
      </trkpt>
      <trkpt lat="46.97563" lon="8.75805">
        <ele>614</ele>
        <time>2021-08-05T12:13:13.678Z</time>
      </trkpt>
      <trkpt lat="46.97563" lon="8.75806">
        <ele>613</ele>
        <time>2021-08-05T12:13:14.677Z</time>
      </trkpt>
      <trkpt lat="46.97563" lon="8.75807">
        <ele>613</ele>
        <time>2021-08-05T12:13:15.677Z</time>
      </trkpt>
      <trkpt lat="46.97562" lon="8.75808">
        <ele>613</ele>
        <time>2021-08-05T12:13:16.678Z</time>
      </trkpt>
      <trkpt lat="46.97562" lon="8.7581">
        <ele>613</ele>
        <time>2021-08-05T12:13:17.678Z</time>
      </trkpt>
      <trkpt lat="46.97562" lon="8.75812">
        <ele>613</ele>
        <time>2021-08-05T12:13:18.678Z</time>
      </trkpt>
      <trkpt lat="46.97561" lon="8.75813">
        <ele>613</ele>
        <time>2021-08-05T12:13:19.677Z</time>
      </trkpt>
      <trkpt lat="46.97561" lon="8.75815">
        <ele>614</ele>
        <time>2021-08-05T12:13:20.678Z</time>
      </trkpt>
      <trkpt lat="46.97561" lon="8.75817">
        <ele>614</ele>
        <time>2021-08-05T12:13:21.678Z</time>
      </trkpt>
      <trkpt lat="46.9756" lon="8.75818">
        <ele>614</ele>
        <time>2021-08-05T12:13:22.678Z</time>
      </trkpt>
      <trkpt lat="46.9756" lon="8.7582">
        <ele>614</ele>
        <time>2021-08-05T12:13:23.677Z</time>
      </trkpt>
      <trkpt lat="46.9756" lon="8.75821">
        <ele>615</ele>
        <time>2021-08-05T12:13:24.677Z</time>
      </trkpt>
      <trkpt lat="46.9756" lon="8.75822">
        <ele>615</ele>
        <time>2021-08-05T12:13:25.678Z</time>
      </trkpt>
      <trkpt lat="46.97559" lon="8.75824">
        <ele>615</ele>
        <time>2021-08-05T12:13:26.678Z</time>
      </trkpt>
      <trkpt lat="46.97559" lon="8.75826">
        <ele>614</ele>
        <time>2021-08-05T12:13:27.677Z</time>
      </trkpt>
      <trkpt lat="46.97559" lon="8.75828">
        <ele>614</ele>
        <time>2021-08-05T12:13:28.678Z</time>
      </trkpt>
      <trkpt lat="46.97559" lon="8.75829">
        <ele>613</ele>
        <time>2021-08-05T12:13:29.677Z</time>
      </trkpt>
      <trkpt lat="46.97559" lon="8.75831">
        <ele>613</ele>
        <time>2021-08-05T12:13:30.678Z</time>
      </trkpt>
      <trkpt lat="46.97558" lon="8.75832">
        <ele>614</ele>
        <time>2021-08-05T12:13:31.677Z</time>
      </trkpt>
      <trkpt lat="46.97557" lon="8.75834">
        <ele>614</ele>
        <time>2021-08-05T12:13:32.678Z</time>
      </trkpt>
      <trkpt lat="46.97557" lon="8.75836">
        <ele>614</ele>
        <time>2021-08-05T12:13:33.678Z</time>
      </trkpt>
      <trkpt lat="46.97557" lon="8.75838">
        <ele>614</ele>
        <time>2021-08-05T12:13:34.678Z</time>
      </trkpt>
      <trkpt lat="46.97557" lon="8.75839">
        <ele>613</ele>
        <time>2021-08-05T12:13:35.678Z</time>
      </trkpt>
      <trkpt lat="46.97557" lon="8.75841">
        <ele>613</ele>
        <time>2021-08-05T12:13:36.678Z</time>
      </trkpt>
      <trkpt lat="46.97556" lon="8.75842">
        <ele>612</ele>
        <time>2021-08-05T12:13:37.677Z</time>
      </trkpt>
      <trkpt lat="46.97556" lon="8.75843">
        <ele>612</ele>
        <time>2021-08-05T12:13:38.678Z</time>
      </trkpt>
      <trkpt lat="46.97557" lon="8.75844">
        <ele>612</ele>
        <time>2021-08-05T12:13:39.678Z</time>
      </trkpt>
      <trkpt lat="46.97557" lon="8.75845">
        <ele>612</ele>
        <time>2021-08-05T12:13:40.677Z</time>
      </trkpt>
      <trkpt lat="46.97557" lon="8.75846">
        <ele>612</ele>
        <time>2021-08-05T12:13:41.678Z</time>
      </trkpt>
      <trkpt lat="46.97556" lon="8.75848">
        <ele>612</ele>
        <time>2021-08-05T12:13:42.677Z</time>
      </trkpt>
      <trkpt lat="46.97556" lon="8.75849">
        <ele>613</ele>
        <time>2021-08-05T12:13:43.677Z</time>
      </trkpt>
      <trkpt lat="46.97556" lon="8.7585">
        <ele>613</ele>
        <time>2021-08-05T12:13:44.678Z</time>
      </trkpt>
      <trkpt lat="46.97556" lon="8.75851">
        <ele>613</ele>
        <time>2021-08-05T12:13:45.677Z</time>
      </trkpt>
      <trkpt lat="46.97556" lon="8.75851">
        <ele>613</ele>
        <time>2021-08-05T12:13:46.678Z</time>
      </trkpt>
      <trkpt lat="46.97556" lon="8.75852">
        <ele>613</ele>
        <time>2021-08-05T12:13:47.678Z</time>
      </trkpt>
      <trkpt lat="46.97555" lon="8.75854">
        <ele>613</ele>
        <time>2021-08-05T12:13:48.677Z</time>
      </trkpt>
      <trkpt lat="46.97554" lon="8.75856">
        <ele>613</ele>
        <time>2021-08-05T12:13:49.678Z</time>
      </trkpt>
      <trkpt lat="46.97554" lon="8.75858">
        <ele>613</ele>
        <time>2021-08-05T12:13:50.677Z</time>
      </trkpt>
      <trkpt lat="46.97554" lon="8.75859">
        <ele>613</ele>
        <time>2021-08-05T12:13:51.677Z</time>
      </trkpt>
      <trkpt lat="46.97553" lon="8.7586">
        <ele>613</ele>
        <time>2021-08-05T12:13:52.678Z</time>
      </trkpt>
      <trkpt lat="46.97552" lon="8.75861">
        <ele>614</ele>
        <time>2021-08-05T12:13:53.678Z</time>
      </trkpt>
      <trkpt lat="46.97551" lon="8.75861">
        <ele>614</ele>
        <time>2021-08-05T12:13:54.677Z</time>
      </trkpt>
      <trkpt lat="46.97551" lon="8.75861">
        <ele>615</ele>
        <time>2021-08-05T12:13:55.677Z</time>
      </trkpt>
      <trkpt lat="46.9755" lon="8.75862">
        <ele>615</ele>
        <time>2021-08-05T12:13:56.678Z</time>
      </trkpt>
      <trkpt lat="46.9755" lon="8.75862">
        <ele>615</ele>
        <time>2021-08-05T12:13:57.678Z</time>
      </trkpt>
      <trkpt lat="46.97551" lon="8.75863">
        <ele>614</ele>
        <time>2021-08-05T12:13:58.679Z</time>
      </trkpt>
      <trkpt lat="46.9755" lon="8.75864">
        <ele>613</ele>
        <time>2021-08-05T12:13:59.678Z</time>
      </trkpt>
      <trkpt lat="46.9755" lon="8.75865">
        <ele>613</ele>
        <time>2021-08-05T12:14:00.678Z</time>
      </trkpt>
      <trkpt lat="46.9755" lon="8.75867">
        <ele>613</ele>
        <time>2021-08-05T12:14:06.792Z</time>
      </trkpt>
      <trkpt lat="46.9755" lon="8.75868">
        <ele>612</ele>
        <time>2021-08-05T12:14:07.792Z</time>
      </trkpt>
      <trkpt lat="46.9755" lon="8.7587">
        <ele>612</ele>
        <time>2021-08-05T12:14:08.791Z</time>
      </trkpt>
      <trkpt lat="46.9755" lon="8.75871">
        <ele>612</ele>
        <time>2021-08-05T12:14:09.791Z</time>
      </trkpt>
      <trkpt lat="46.9755" lon="8.75873">
        <ele>612</ele>
        <time>2021-08-05T12:14:10.792Z</time>
      </trkpt>
      <trkpt lat="46.97549" lon="8.75874">
        <ele>612</ele>
        <time>2021-08-05T12:14:11.792Z</time>
      </trkpt>
      <trkpt lat="46.97549" lon="8.75875">
        <ele>612</ele>
        <time>2021-08-05T12:14:12.792Z</time>
      </trkpt>
      <trkpt lat="46.97549" lon="8.75876">
        <ele>612</ele>
        <time>2021-08-05T12:14:13.791Z</time>
      </trkpt>
      <trkpt lat="46.97549" lon="8.75878">
        <ele>611</ele>
        <time>2021-08-05T12:14:14.792Z</time>
      </trkpt>
      <trkpt lat="46.97548" lon="8.75879">
        <ele>611</ele>
        <time>2021-08-05T12:14:15.791Z</time>
      </trkpt>
      <trkpt lat="46.97548" lon="8.7588">
        <ele>611</ele>
        <time>2021-08-05T12:14:16.792Z</time>
      </trkpt>
      <trkpt lat="46.97548" lon="8.75882">
        <ele>610</ele>
        <time>2021-08-05T12:14:17.791Z</time>
      </trkpt>
      <trkpt lat="46.97549" lon="8.75883">
        <ele>610</ele>
        <time>2021-08-05T12:14:18.791Z</time>
      </trkpt>
      <trkpt lat="46.97548" lon="8.75884">
        <ele>609</ele>
        <time>2021-08-05T12:14:40.943Z</time>
      </trkpt>
      <trkpt lat="46.97548" lon="8.75886">
        <ele>609</ele>
        <time>2021-08-05T12:14:41.942Z</time>
      </trkpt>
      <trkpt lat="46.97548" lon="8.75888">
        <ele>608</ele>
        <time>2021-08-05T12:14:42.943Z</time>
      </trkpt>
      <trkpt lat="46.97547" lon="8.75891">
        <ele>608</ele>
        <time>2021-08-05T12:14:43.942Z</time>
      </trkpt>
      <trkpt lat="46.97547" lon="8.75892">
        <ele>608</ele>
        <time>2021-08-05T12:14:44.943Z</time>
      </trkpt>
      <trkpt lat="46.97547" lon="8.75894">
        <ele>608</ele>
        <time>2021-08-05T12:14:45.943Z</time>
      </trkpt>
      <trkpt lat="46.97546" lon="8.75896">
        <ele>608</ele>
        <time>2021-08-05T12:14:46.942Z</time>
      </trkpt>
      <trkpt lat="46.97545" lon="8.75899">
        <ele>608</ele>
        <time>2021-08-05T12:14:47.943Z</time>
      </trkpt>
      <trkpt lat="46.97544" lon="8.75903">
        <ele>608</ele>
        <time>2021-08-05T12:14:48.943Z</time>
      </trkpt>
      <trkpt lat="46.97543" lon="8.75904">
        <ele>608</ele>
        <time>2021-08-05T12:14:49.942Z</time>
      </trkpt>
      <trkpt lat="46.97543" lon="8.75906">
        <ele>609</ele>
        <time>2021-08-05T12:14:50.943Z</time>
      </trkpt>
      <trkpt lat="46.97543" lon="8.75908">
        <ele>609</ele>
        <time>2021-08-05T12:14:51.942Z</time>
      </trkpt>
      <trkpt lat="46.97542" lon="8.75909">
        <ele>609</ele>
        <time>2021-08-05T12:14:52.942Z</time>
      </trkpt>
      <trkpt lat="46.97542" lon="8.7591">
        <ele>609</ele>
        <time>2021-08-05T12:14:53.942Z</time>
      </trkpt>
      <trkpt lat="46.97542" lon="8.75912">
        <ele>608</ele>
        <time>2021-08-05T12:14:54.943Z</time>
      </trkpt>
      <trkpt lat="46.97542" lon="8.75913">
        <ele>608</ele>
        <time>2021-08-05T12:14:55.942Z</time>
      </trkpt>
      <trkpt lat="46.97541" lon="8.75915">
        <ele>609</ele>
        <time>2021-08-05T12:14:56.942Z</time>
      </trkpt>
      <trkpt lat="46.97541" lon="8.75917">
        <ele>609</ele>
        <time>2021-08-05T12:14:57.942Z</time>
      </trkpt>
      <trkpt lat="46.9754" lon="8.75918">
        <ele>610</ele>
        <time>2021-08-05T12:14:58.943Z</time>
      </trkpt>
      <trkpt lat="46.97539" lon="8.7592">
        <ele>610</ele>
        <time>2021-08-05T12:14:59.942Z</time>
      </trkpt>
      <trkpt lat="46.97538" lon="8.75922">
        <ele>610</ele>
        <time>2021-08-05T12:15:00.943Z</time>
      </trkpt>
      <trkpt lat="46.97538" lon="8.75923">
        <ele>610</ele>
        <time>2021-08-05T12:15:01.943Z</time>
      </trkpt>
      <trkpt lat="46.97538" lon="8.75924">
        <ele>611</ele>
        <time>2021-08-05T12:15:02.942Z</time>
      </trkpt>
      <trkpt lat="46.97537" lon="8.75926">
        <ele>611</ele>
        <time>2021-08-05T12:15:03.943Z</time>
      </trkpt>
      <trkpt lat="46.97537" lon="8.75928">
        <ele>612</ele>
        <time>2021-08-05T12:15:04.943Z</time>
      </trkpt>
      <trkpt lat="46.97536" lon="8.7593">
        <ele>612</ele>
        <time>2021-08-05T12:15:05.942Z</time>
      </trkpt>
      <trkpt lat="46.97536" lon="8.75931">
        <ele>612</ele>
        <time>2021-08-05T12:15:06.942Z</time>
      </trkpt>
      <trkpt lat="46.97535" lon="8.75934">
        <ele>611</ele>
        <time>2021-08-05T12:15:07.943Z</time>
      </trkpt>
      <trkpt lat="46.97535" lon="8.75935">
        <ele>611</ele>
        <time>2021-08-05T12:15:08.943Z</time>
      </trkpt>
      <trkpt lat="46.97535" lon="8.75937">
        <ele>612</ele>
        <time>2021-08-05T12:15:09.942Z</time>
      </trkpt>
      <trkpt lat="46.97535" lon="8.75938">
        <ele>612</ele>
        <time>2021-08-05T12:15:10.943Z</time>
      </trkpt>
      <trkpt lat="46.97535" lon="8.75939">
        <ele>612</ele>
        <time>2021-08-05T12:15:11.943Z</time>
      </trkpt>
      <trkpt lat="46.97535" lon="8.7594">
        <ele>612</ele>
        <time>2021-08-05T12:15:12.943Z</time>
      </trkpt>
      <trkpt lat="46.97534" lon="8.75941">
        <ele>611</ele>
        <time>2021-08-05T12:15:13.943Z</time>
      </trkpt>
      <trkpt lat="46.97533" lon="8.75943">
        <ele>611</ele>
        <time>2021-08-05T12:15:14.943Z</time>
      </trkpt>
      <trkpt lat="46.97532" lon="8.75944">
        <ele>611</ele>
        <time>2021-08-05T12:15:15.943Z</time>
      </trkpt>
      <trkpt lat="46.97532" lon="8.75946">
        <ele>610</ele>
        <time>2021-08-05T12:15:16.942Z</time>
      </trkpt>
      <trkpt lat="46.97532" lon="8.75947">
        <ele>610</ele>
        <time>2021-08-05T12:15:17.942Z</time>
      </trkpt>
      <trkpt lat="46.97532" lon="8.75948">
        <ele>609</ele>
        <time>2021-08-05T12:15:18.943Z</time>
      </trkpt>
      <trkpt lat="46.97533" lon="8.75949">
        <ele>609</ele>
        <time>2021-08-05T12:15:19.943Z</time>
      </trkpt>
      <trkpt lat="46.97534" lon="8.75949">
        <ele>609</ele>
        <time>2021-08-05T12:15:20.943Z</time>
      </trkpt>
      <trkpt lat="46.97534" lon="8.7595">
        <ele>609</ele>
        <time>2021-08-05T12:15:21.943Z</time>
      </trkpt>
      <trkpt lat="46.97534" lon="8.75951">
        <ele>608</ele>
        <time>2021-08-05T12:15:22.942Z</time>
      </trkpt>
      <trkpt lat="46.97534" lon="8.75953">
        <ele>608</ele>
        <time>2021-08-05T12:15:23.943Z</time>
      </trkpt>
      <trkpt lat="46.97534" lon="8.75955">
        <ele>608</ele>
        <time>2021-08-05T12:15:24.943Z</time>
      </trkpt>
      <trkpt lat="46.97535" lon="8.75956">
        <ele>608</ele>
        <time>2021-08-05T12:15:25.943Z</time>
      </trkpt>
      <trkpt lat="46.97534" lon="8.75958">
        <ele>608</ele>
        <time>2021-08-05T12:15:26.943Z</time>
      </trkpt>
      <trkpt lat="46.97534" lon="8.75959">
        <ele>608</ele>
        <time>2021-08-05T12:15:27.943Z</time>
      </trkpt>
      <trkpt lat="46.97535" lon="8.7596">
        <ele>608</ele>
        <time>2021-08-05T12:15:28.943Z</time>
      </trkpt>
      <trkpt lat="46.97535" lon="8.7596">
        <ele>611</ele>
        <time>2021-08-05T12:15:29.943Z</time>
      </trkpt>
      <trkpt lat="46.97536" lon="8.7596">
        <ele>611</ele>
        <time>2021-08-05T12:15:30.942Z</time>
      </trkpt>
      <trkpt lat="46.97536" lon="8.75963">
        <ele>613</ele>
        <time>2021-08-05T12:15:31.943Z</time>
      </trkpt>
      <trkpt lat="46.97536" lon="8.75963">
        <ele>613</ele>
        <time>2021-08-05T12:15:32.942Z</time>
      </trkpt>
      <trkpt lat="46.97535" lon="8.75964">
        <ele>613</ele>
        <time>2021-08-05T12:15:33.943Z</time>
      </trkpt>
      <trkpt lat="46.97535" lon="8.75966">
        <ele>613</ele>
        <time>2021-08-05T12:15:34.942Z</time>
      </trkpt>
      <trkpt lat="46.97535" lon="8.75968">
        <ele>613</ele>
        <time>2021-08-05T12:15:35.942Z</time>
      </trkpt>
      <trkpt lat="46.97534" lon="8.7597">
        <ele>613</ele>
        <time>2021-08-05T12:15:36.942Z</time>
      </trkpt>
      <trkpt lat="46.97534" lon="8.75972">
        <ele>613</ele>
        <time>2021-08-05T12:15:37.942Z</time>
      </trkpt>
      <trkpt lat="46.97534" lon="8.75973">
        <ele>613</ele>
        <time>2021-08-05T12:15:38.942Z</time>
      </trkpt>
      <trkpt lat="46.97533" lon="8.75975">
        <ele>612</ele>
        <time>2021-08-05T12:15:39.942Z</time>
      </trkpt>
      <trkpt lat="46.97533" lon="8.75976">
        <ele>612</ele>
        <time>2021-08-05T12:15:40.942Z</time>
      </trkpt>
      <trkpt lat="46.97533" lon="8.75977">
        <ele>612</ele>
        <time>2021-08-05T12:15:41.942Z</time>
      </trkpt>
      <trkpt lat="46.97533" lon="8.75978">
        <ele>612</ele>
        <time>2021-08-05T12:15:42.943Z</time>
      </trkpt>
      <trkpt lat="46.97533" lon="8.75979">
        <ele>611</ele>
        <time>2021-08-05T12:15:43.943Z</time>
      </trkpt>
      <trkpt lat="46.97533" lon="8.7598">
        <ele>611</ele>
        <time>2021-08-05T12:15:44.942Z</time>
      </trkpt>
      <trkpt lat="46.97532" lon="8.75981">
        <ele>611</ele>
        <time>2021-08-05T12:15:45.943Z</time>
      </trkpt>
      <trkpt lat="46.97532" lon="8.75983">
        <ele>611</ele>
        <time>2021-08-05T12:15:46.942Z</time>
      </trkpt>
      <trkpt lat="46.9753" lon="8.75985">
        <ele>611</ele>
        <time>2021-08-05T12:15:47.942Z</time>
      </trkpt>
      <trkpt lat="46.97529" lon="8.75988">
        <ele>610</ele>
        <time>2021-08-05T12:15:48.942Z</time>
      </trkpt>
      <trkpt lat="46.97528" lon="8.7599">
        <ele>610</ele>
        <time>2021-08-05T12:15:49.942Z</time>
      </trkpt>
      <trkpt lat="46.97527" lon="8.75991">
        <ele>610</ele>
        <time>2021-08-05T12:15:50.942Z</time>
      </trkpt>
      <trkpt lat="46.97526" lon="8.75993">
        <ele>610</ele>
        <time>2021-08-05T12:15:51.942Z</time>
      </trkpt>
      <trkpt lat="46.97526" lon="8.75995">
        <ele>610</ele>
        <time>2021-08-05T12:15:52.942Z</time>
      </trkpt>
      <trkpt lat="46.97525" lon="8.75997">
        <ele>611</ele>
        <time>2021-08-05T12:15:53.943Z</time>
      </trkpt>
      <trkpt lat="46.97526" lon="8.75998">
        <ele>611</ele>
        <time>2021-08-05T12:15:54.942Z</time>
      </trkpt>
      <trkpt lat="46.97525" lon="8.76">
        <ele>612</ele>
        <time>2021-08-05T12:15:55.942Z</time>
      </trkpt>
      <trkpt lat="46.97524" lon="8.76003">
        <ele>612</ele>
        <time>2021-08-05T12:15:56.942Z</time>
      </trkpt>
      <trkpt lat="46.97523" lon="8.76006">
        <ele>612</ele>
        <time>2021-08-05T12:15:57.942Z</time>
      </trkpt>
      <trkpt lat="46.97522" lon="8.76007">
        <ele>612</ele>
        <time>2021-08-05T12:15:58.942Z</time>
      </trkpt>
      <trkpt lat="46.97522" lon="8.76008">
        <ele>613</ele>
        <time>2021-08-05T12:15:59.942Z</time>
      </trkpt>
      <trkpt lat="46.97522" lon="8.7601">
        <ele>613</ele>
        <time>2021-08-05T12:16:00.942Z</time>
      </trkpt>
      <trkpt lat="46.97521" lon="8.76012">
        <ele>613</ele>
        <time>2021-08-05T12:16:01.942Z</time>
      </trkpt>
      <trkpt lat="46.97521" lon="8.76014">
        <ele>613</ele>
        <time>2021-08-05T12:16:02.942Z</time>
      </trkpt>
      <trkpt lat="46.97521" lon="8.76016">
        <ele>613</ele>
        <time>2021-08-05T12:16:03.942Z</time>
      </trkpt>
      <trkpt lat="46.9752" lon="8.76018">
        <ele>614</ele>
        <time>2021-08-05T12:16:04.942Z</time>
      </trkpt>
      <trkpt lat="46.9752" lon="8.76019">
        <ele>614</ele>
        <time>2021-08-05T12:16:09.056Z</time>
      </trkpt>
      <trkpt lat="46.9752" lon="8.76022">
        <ele>614</ele>
        <time>2021-08-05T12:16:10.057Z</time>
      </trkpt>
      <trkpt lat="46.9752" lon="8.76024">
        <ele>614</ele>
        <time>2021-08-05T12:16:11.056Z</time>
      </trkpt>
      <trkpt lat="46.9752" lon="8.76026">
        <ele>614</ele>
        <time>2021-08-05T12:16:12.056Z</time>
      </trkpt>
      <trkpt lat="46.97518" lon="8.76028">
        <ele>614</ele>
        <time>2021-08-05T12:16:13.056Z</time>
      </trkpt>
      <trkpt lat="46.97516" lon="8.76031">
        <ele>614</ele>
        <time>2021-08-05T12:16:14.056Z</time>
      </trkpt>
      <trkpt lat="46.97516" lon="8.76033">
        <ele>614</ele>
        <time>2021-08-05T12:16:15.056Z</time>
      </trkpt>
      <trkpt lat="46.97515" lon="8.76034">
        <ele>613</ele>
        <time>2021-08-05T12:16:16.056Z</time>
      </trkpt>
      <trkpt lat="46.97516" lon="8.76036">
        <ele>613</ele>
        <time>2021-08-05T12:16:17.056Z</time>
      </trkpt>
      <trkpt lat="46.97516" lon="8.76038">
        <ele>613</ele>
        <time>2021-08-05T12:16:18.057Z</time>
      </trkpt>
      <trkpt lat="46.97517" lon="8.7604">
        <ele>613</ele>
        <time>2021-08-05T12:16:19.057Z</time>
      </trkpt>
      <trkpt lat="46.97517" lon="8.76041">
        <ele>613</ele>
        <time>2021-08-05T12:16:39.219Z</time>
      </trkpt>
      <trkpt lat="46.97517" lon="8.76043">
        <ele>613</ele>
        <time>2021-08-05T12:16:40.219Z</time>
      </trkpt>
      <trkpt lat="46.97517" lon="8.76044">
        <ele>613</ele>
        <time>2021-08-05T12:16:41.219Z</time>
      </trkpt>
      <trkpt lat="46.97517" lon="8.76046">
        <ele>613</ele>
        <time>2021-08-05T12:16:42.220Z</time>
      </trkpt>
      <trkpt lat="46.97516" lon="8.76048">
        <ele>613</ele>
        <time>2021-08-05T12:16:43.219Z</time>
      </trkpt>
      <trkpt lat="46.97516" lon="8.76049">
        <ele>612</ele>
        <time>2021-08-05T12:16:44.219Z</time>
      </trkpt>
      <trkpt lat="46.97516" lon="8.7605">
        <ele>612</ele>
        <time>2021-08-05T12:16:45.220Z</time>
      </trkpt>
      <trkpt lat="46.97516" lon="8.76051">
        <ele>612</ele>
        <time>2021-08-05T12:16:46.219Z</time>
      </trkpt>
      <trkpt lat="46.97515" lon="8.76053">
        <ele>612</ele>
        <time>2021-08-05T12:16:47.219Z</time>
      </trkpt>
      <trkpt lat="46.97515" lon="8.76055">
        <ele>612</ele>
        <time>2021-08-05T12:16:48.219Z</time>
      </trkpt>
      <trkpt lat="46.97514" lon="8.76057">
        <ele>612</ele>
        <time>2021-08-05T12:16:49.219Z</time>
      </trkpt>
      <trkpt lat="46.97514" lon="8.76058">
        <ele>612</ele>
        <time>2021-08-05T12:16:50.220Z</time>
      </trkpt>
      <trkpt lat="46.97514" lon="8.7606">
        <ele>612</ele>
        <time>2021-08-05T12:16:51.219Z</time>
      </trkpt>
      <trkpt lat="46.97513" lon="8.76062">
        <ele>611</ele>
        <time>2021-08-05T12:16:52.219Z</time>
      </trkpt>
      <trkpt lat="46.97512" lon="8.76064">
        <ele>611</ele>
        <time>2021-08-05T12:16:53.219Z</time>
      </trkpt>
      <trkpt lat="46.97512" lon="8.76066">
        <ele>611</ele>
        <time>2021-08-05T12:16:54.219Z</time>
      </trkpt>
      <trkpt lat="46.97512" lon="8.76067">
        <ele>611</ele>
        <time>2021-08-05T12:16:55.219Z</time>
      </trkpt>
      <trkpt lat="46.97511" lon="8.76069">
        <ele>611</ele>
        <time>2021-08-05T12:16:56.219Z</time>
      </trkpt>
      <trkpt lat="46.9751" lon="8.7607">
        <ele>611</ele>
        <time>2021-08-05T12:16:57.219Z</time>
      </trkpt>
      <trkpt lat="46.9751" lon="8.76071">
        <ele>610</ele>
        <time>2021-08-05T12:16:58.220Z</time>
      </trkpt>
      <trkpt lat="46.97509" lon="8.76073">
        <ele>610</ele>
        <time>2021-08-05T12:16:59.219Z</time>
      </trkpt>
      <trkpt lat="46.97509" lon="8.76075">
        <ele>610</ele>
        <time>2021-08-05T12:17:01.324Z</time>
      </trkpt>
      <trkpt lat="46.97508" lon="8.76077">
        <ele>611</ele>
        <time>2021-08-05T12:17:02.323Z</time>
      </trkpt>
      <trkpt lat="46.97507" lon="8.76079">
        <ele>610</ele>
        <time>2021-08-05T12:17:03.323Z</time>
      </trkpt>
      <trkpt lat="46.97505" lon="8.76082">
        <ele>610</ele>
        <time>2021-08-05T12:17:04.323Z</time>
      </trkpt>
      <trkpt lat="46.97504" lon="8.76084">
        <ele>610</ele>
        <time>2021-08-05T12:17:05.323Z</time>
      </trkpt>
      <trkpt lat="46.97504" lon="8.76086">
        <ele>610</ele>
        <time>2021-08-05T12:17:06.323Z</time>
      </trkpt>
      <trkpt lat="46.97504" lon="8.76087">
        <ele>610</ele>
        <time>2021-08-05T12:17:07.323Z</time>
      </trkpt>
      <trkpt lat="46.97504" lon="8.76089">
        <ele>610</ele>
        <time>2021-08-05T12:17:24.443Z</time>
      </trkpt>
      <trkpt lat="46.97504" lon="8.7609">
        <ele>611</ele>
        <time>2021-08-05T12:17:25.443Z</time>
      </trkpt>
      <trkpt lat="46.97504" lon="8.76092">
        <ele>611</ele>
        <time>2021-08-05T12:17:26.443Z</time>
      </trkpt>
      <trkpt lat="46.97504" lon="8.76094">
        <ele>611</ele>
        <time>2021-08-05T12:17:27.443Z</time>
      </trkpt>
      <trkpt lat="46.97504" lon="8.76095">
        <ele>611</ele>
        <time>2021-08-05T12:17:28.443Z</time>
      </trkpt>
      <trkpt lat="46.97504" lon="8.76097">
        <ele>611</ele>
        <time>2021-08-05T12:17:39.593Z</time>
      </trkpt>
      <trkpt lat="46.97504" lon="8.76098">
        <ele>612</ele>
        <time>2021-08-05T12:17:51.416Z</time>
      </trkpt>
      <trkpt lat="46.97503" lon="8.76099">
        <ele>612</ele>
        <time>2021-08-05T12:17:52.416Z</time>
      </trkpt>
      <trkpt lat="46.97503" lon="8.76101">
        <ele>612</ele>
        <time>2021-08-05T12:17:53.416Z</time>
      </trkpt>
      <trkpt lat="46.97502" lon="8.76102">
        <ele>612</ele>
        <time>2021-08-05T12:18:05.529Z</time>
      </trkpt>
      <trkpt lat="46.97502" lon="8.76104">
        <ele>613</ele>
        <time>2021-08-05T12:18:08.413Z</time>
      </trkpt>
      <trkpt lat="46.97502" lon="8.76106">
        <ele>613</ele>
        <time>2021-08-05T12:18:09.413Z</time>
      </trkpt>
      <trkpt lat="46.97502" lon="8.76107">
        <ele>614</ele>
        <time>2021-08-05T12:18:10.413Z</time>
      </trkpt>
      <trkpt lat="46.97502" lon="8.76109">
        <ele>614</ele>
        <time>2021-08-05T12:18:15.292Z</time>
      </trkpt>
      <trkpt lat="46.97501" lon="8.76111">
        <ele>614</ele>
        <time>2021-08-05T12:18:16.292Z</time>
      </trkpt>
      <trkpt lat="46.97501" lon="8.76113">
        <ele>613</ele>
        <time>2021-08-05T12:18:17.292Z</time>
      </trkpt>
      <trkpt lat="46.97501" lon="8.76115">
        <ele>613</ele>
        <time>2021-08-05T12:18:18.292Z</time>
      </trkpt>
      <trkpt lat="46.97501" lon="8.76116">
        <ele>613</ele>
        <time>2021-08-05T12:18:19.292Z</time>
      </trkpt>
      <trkpt lat="46.975" lon="8.76118">
        <ele>613</ele>
        <time>2021-08-05T12:18:20.292Z</time>
      </trkpt>
      <trkpt lat="46.97501" lon="8.7612">
        <ele>613</ele>
        <time>2021-08-05T12:18:41.440Z</time>
      </trkpt>
      <trkpt lat="46.97501" lon="8.76122">
        <ele>613</ele>
        <time>2021-08-05T12:18:42.440Z</time>
      </trkpt>
      <trkpt lat="46.97501" lon="8.76124">
        <ele>613</ele>
        <time>2021-08-05T12:19:21.148Z</time>
      </trkpt>
      <trkpt lat="46.97502" lon="8.76125">
        <ele>613</ele>
        <time>2021-08-05T12:19:22.149Z</time>
      </trkpt>
      <trkpt lat="46.97501" lon="8.76127">
        <ele>613</ele>
        <time>2021-08-05T12:19:23.148Z</time>
      </trkpt>
      <trkpt lat="46.97501" lon="8.76129">
        <ele>613</ele>
        <time>2021-08-05T12:19:24.148Z</time>
      </trkpt>
      <trkpt lat="46.97501" lon="8.76131">
        <ele>613</ele>
        <time>2021-08-05T12:19:25.148Z</time>
      </trkpt>
      <trkpt lat="46.975" lon="8.76133">
        <ele>613</ele>
        <time>2021-08-05T12:19:26.148Z</time>
      </trkpt>
      <trkpt lat="46.975" lon="8.76134">
        <ele>613</ele>
        <time>2021-08-05T12:19:27.148Z</time>
      </trkpt>
      <trkpt lat="46.975" lon="8.76135">
        <ele>613</ele>
        <time>2021-08-05T12:19:28.148Z</time>
      </trkpt>
      <trkpt lat="46.97499" lon="8.76137">
        <ele>613</ele>
        <time>2021-08-05T12:19:29.148Z</time>
      </trkpt>
      <trkpt lat="46.97498" lon="8.76139">
        <ele>613</ele>
        <time>2021-08-05T12:19:30.148Z</time>
      </trkpt>
      <trkpt lat="46.97498" lon="8.7614">
        <ele>612</ele>
        <time>2021-08-05T12:19:34.193Z</time>
      </trkpt>
      <trkpt lat="46.97497" lon="8.76142">
        <ele>612</ele>
        <time>2021-08-05T12:19:35.193Z</time>
      </trkpt>
      <trkpt lat="46.97497" lon="8.76143">
        <ele>612</ele>
        <time>2021-08-05T12:19:36.193Z</time>
      </trkpt>
      <trkpt lat="46.97497" lon="8.76144">
        <ele>612</ele>
        <time>2021-08-05T12:19:37.194Z</time>
      </trkpt>
      <trkpt lat="46.97496" lon="8.76145">
        <ele>611</ele>
        <time>2021-08-05T12:19:38.193Z</time>
      </trkpt>
      <trkpt lat="46.97496" lon="8.76146">
        <ele>611</ele>
        <time>2021-08-05T12:19:39.193Z</time>
      </trkpt>
      <trkpt lat="46.97496" lon="8.76148">
        <ele>611</ele>
        <time>2021-08-05T12:19:40.193Z</time>
      </trkpt>
      <trkpt lat="46.97495" lon="8.7615">
        <ele>612</ele>
        <time>2021-08-05T12:19:41.193Z</time>
      </trkpt>
      <trkpt lat="46.97495" lon="8.76151">
        <ele>612</ele>
        <time>2021-08-05T12:19:42.194Z</time>
      </trkpt>
      <trkpt lat="46.97495" lon="8.76153">
        <ele>612</ele>
        <time>2021-08-05T12:19:43.193Z</time>
      </trkpt>
      <trkpt lat="46.97494" lon="8.76155">
        <ele>612</ele>
        <time>2021-08-05T12:19:44.193Z</time>
      </trkpt>
      <trkpt lat="46.97494" lon="8.76157">
        <ele>612</ele>
        <time>2021-08-05T12:19:45.193Z</time>
      </trkpt>
      <trkpt lat="46.97494" lon="8.76159">
        <ele>612</ele>
        <time>2021-08-05T12:19:46.193Z</time>
      </trkpt>
      <trkpt lat="46.97494" lon="8.76161">
        <ele>612</ele>
        <time>2021-08-05T12:19:47.193Z</time>
      </trkpt>
      <trkpt lat="46.97494" lon="8.76162">
        <ele>612</ele>
        <time>2021-08-05T12:19:48.193Z</time>
      </trkpt>
      <trkpt lat="46.97494" lon="8.76164">
        <ele>612</ele>
        <time>2021-08-05T12:19:49.193Z</time>
      </trkpt>
      <trkpt lat="46.97494" lon="8.76165">
        <ele>612</ele>
        <time>2021-08-05T12:19:50.193Z</time>
      </trkpt>
      <trkpt lat="46.97494" lon="8.76166">
        <ele>613</ele>
        <time>2021-08-05T12:19:51.194Z</time>
      </trkpt>
      <trkpt lat="46.97494" lon="8.76167">
        <ele>612</ele>
        <time>2021-08-05T12:19:52.193Z</time>
      </trkpt>
      <trkpt lat="46.97493" lon="8.76168">
        <ele>612</ele>
        <time>2021-08-05T12:19:53.193Z</time>
      </trkpt>
      <trkpt lat="46.97493" lon="8.76169">
        <ele>612</ele>
        <time>2021-08-05T12:19:54.193Z</time>
      </trkpt>
      <trkpt lat="46.97492" lon="8.76171">
        <ele>612</ele>
        <time>2021-08-05T12:19:55.193Z</time>
      </trkpt>
      <trkpt lat="46.97492" lon="8.76172">
        <ele>612</ele>
        <time>2021-08-05T12:19:56.193Z</time>
      </trkpt>
      <trkpt lat="46.97492" lon="8.76173">
        <ele>612</ele>
        <time>2021-08-05T12:19:57.193Z</time>
      </trkpt>
      <trkpt lat="46.97492" lon="8.76174">
        <ele>612</ele>
        <time>2021-08-05T12:19:58.193Z</time>
      </trkpt>
      <trkpt lat="46.97492" lon="8.76175">
        <ele>612</ele>
        <time>2021-08-05T12:19:59.193Z</time>
      </trkpt>
      <trkpt lat="46.97491" lon="8.76176">
        <ele>612</ele>
        <time>2021-08-05T12:20:00.193Z</time>
      </trkpt>
      <trkpt lat="46.97491" lon="8.76177">
        <ele>612</ele>
        <time>2021-08-05T12:20:01.193Z</time>
      </trkpt>
      <trkpt lat="46.97491" lon="8.76179">
        <ele>613</ele>
        <time>2021-08-05T12:20:02.193Z</time>
      </trkpt>
      <trkpt lat="46.97491" lon="8.7618">
        <ele>613</ele>
        <time>2021-08-05T12:20:03.193Z</time>
      </trkpt>
      <trkpt lat="46.97491" lon="8.76182">
        <ele>613</ele>
        <time>2021-08-05T12:20:04.193Z</time>
      </trkpt>
      <trkpt lat="46.97489" lon="8.76185">
        <ele>613</ele>
        <time>2021-08-05T12:20:05.193Z</time>
      </trkpt>
      <trkpt lat="46.97489" lon="8.76187">
        <ele>612</ele>
        <time>2021-08-05T12:20:06.193Z</time>
      </trkpt>
      <trkpt lat="46.97488" lon="8.76188">
        <ele>612</ele>
        <time>2021-08-05T12:20:07.193Z</time>
      </trkpt>
      <trkpt lat="46.97487" lon="8.76189">
        <ele>612</ele>
        <time>2021-08-05T12:20:08.193Z</time>
      </trkpt>
      <trkpt lat="46.97487" lon="8.7619">
        <ele>612</ele>
        <time>2021-08-05T12:20:09.194Z</time>
      </trkpt>
      <trkpt lat="46.97488" lon="8.76191">
        <ele>612</ele>
        <time>2021-08-05T12:20:10.193Z</time>
      </trkpt>
      <trkpt lat="46.97488" lon="8.76193">
        <ele>612</ele>
        <time>2021-08-05T12:20:11.193Z</time>
      </trkpt>
      <trkpt lat="46.97488" lon="8.76195">
        <ele>612</ele>
        <time>2021-08-05T12:20:12.193Z</time>
      </trkpt>
      <trkpt lat="46.97488" lon="8.76196">
        <ele>612</ele>
        <time>2021-08-05T12:20:15.277Z</time>
      </trkpt>
      <trkpt lat="46.97488" lon="8.76196">
        <ele>612</ele>
        <time>2021-08-05T12:20:16.277Z</time>
      </trkpt>
      <trkpt lat="46.97488" lon="8.76197">
        <ele>613</ele>
        <time>2021-08-05T12:20:17.277Z</time>
      </trkpt>
      <trkpt lat="46.97488" lon="8.76199">
        <ele>613</ele>
        <time>2021-08-05T12:20:18.277Z</time>
      </trkpt>
      <trkpt lat="46.97488" lon="8.762">
        <ele>614</ele>
        <time>2021-08-05T12:20:19.277Z</time>
      </trkpt>
      <trkpt lat="46.97487" lon="8.76201">
        <ele>615</ele>
        <time>2021-08-05T12:20:20.278Z</time>
      </trkpt>
      <trkpt lat="46.97485" lon="8.76204">
        <ele>615</ele>
        <time>2021-08-05T12:20:21.277Z</time>
      </trkpt>
      <trkpt lat="46.97484" lon="8.76205">
        <ele>615</ele>
        <time>2021-08-05T12:20:22.277Z</time>
      </trkpt>
      <trkpt lat="46.97484" lon="8.76206">
        <ele>615</ele>
        <time>2021-08-05T12:20:23.277Z</time>
      </trkpt>
      <trkpt lat="46.97483" lon="8.76207">
        <ele>615</ele>
        <time>2021-08-05T12:20:24.277Z</time>
      </trkpt>
      <trkpt lat="46.97483" lon="8.76209">
        <ele>614</ele>
        <time>2021-08-05T12:20:25.277Z</time>
      </trkpt>
      <trkpt lat="46.97483" lon="8.7621">
        <ele>614</ele>
        <time>2021-08-05T12:20:26.277Z</time>
      </trkpt>
      <trkpt lat="46.97482" lon="8.76212">
        <ele>614</ele>
        <time>2021-08-05T12:20:27.277Z</time>
      </trkpt>
      <trkpt lat="46.97482" lon="8.76214">
        <ele>614</ele>
        <time>2021-08-05T12:20:28.277Z</time>
      </trkpt>
      <trkpt lat="46.97481" lon="8.76215">
        <ele>613</ele>
        <time>2021-08-05T12:20:29.278Z</time>
      </trkpt>
      <trkpt lat="46.97481" lon="8.76217">
        <ele>613</ele>
        <time>2021-08-05T12:20:30.277Z</time>
      </trkpt>
      <trkpt lat="46.97481" lon="8.76219">
        <ele>613</ele>
        <time>2021-08-05T12:20:31.277Z</time>
      </trkpt>
      <trkpt lat="46.97481" lon="8.7622">
        <ele>613</ele>
        <time>2021-08-05T12:20:32.278Z</time>
      </trkpt>
      <trkpt lat="46.97481" lon="8.76221">
        <ele>613</ele>
        <time>2021-08-05T12:20:33.278Z</time>
      </trkpt>
      <trkpt lat="46.97481" lon="8.76221">
        <ele>613</ele>
        <time>2021-08-05T12:20:34.278Z</time>
      </trkpt>
      <trkpt lat="46.97481" lon="8.76222">
        <ele>613</ele>
        <time>2021-08-05T12:20:35.278Z</time>
      </trkpt>
      <trkpt lat="46.97481" lon="8.76224">
        <ele>613</ele>
        <time>2021-08-05T12:20:36.278Z</time>
      </trkpt>
      <trkpt lat="46.9748" lon="8.76226">
        <ele>613</ele>
        <time>2021-08-05T12:20:37.278Z</time>
      </trkpt>
      <trkpt lat="46.9748" lon="8.76227">
        <ele>613</ele>
        <time>2021-08-05T12:20:38.277Z</time>
      </trkpt>
      <trkpt lat="46.9748" lon="8.76229">
        <ele>613</ele>
        <time>2021-08-05T12:20:39.277Z</time>
      </trkpt>
      <trkpt lat="46.9748" lon="8.7623">
        <ele>612</ele>
        <time>2021-08-05T12:20:40.278Z</time>
      </trkpt>
      <trkpt lat="46.9748" lon="8.76231">
        <ele>612</ele>
        <time>2021-08-05T12:20:41.278Z</time>
      </trkpt>
      <trkpt lat="46.9748" lon="8.76232">
        <ele>612</ele>
        <time>2021-08-05T12:21:05.288Z</time>
      </trkpt>
      <trkpt lat="46.97479" lon="8.76233">
        <ele>611</ele>
        <time>2021-08-05T12:21:06.288Z</time>
      </trkpt>
      <trkpt lat="46.97479" lon="8.76235">
        <ele>611</ele>
        <time>2021-08-05T12:21:21.173Z</time>
      </trkpt>
      <trkpt lat="46.97479" lon="8.76237">
        <ele>611</ele>
        <time>2021-08-05T12:21:22.173Z</time>
      </trkpt>
      <trkpt lat="46.97478" lon="8.76238">
        <ele>611</ele>
        <time>2021-08-05T12:21:23.173Z</time>
      </trkpt>
      <trkpt lat="46.97478" lon="8.7624">
        <ele>611</ele>
        <time>2021-08-05T12:21:24.173Z</time>
      </trkpt>
      <trkpt lat="46.97478" lon="8.76241">
        <ele>611</ele>
        <time>2021-08-05T12:21:25.173Z</time>
      </trkpt>
      <trkpt lat="46.97478" lon="8.76242">
        <ele>611</ele>
        <time>2021-08-05T12:21:26.173Z</time>
      </trkpt>
      <trkpt lat="46.97477" lon="8.76243">
        <ele>611</ele>
        <time>2021-08-05T12:21:27.173Z</time>
      </trkpt>
      <trkpt lat="46.97477" lon="8.76245">
        <ele>611</ele>
        <time>2021-08-05T12:21:28.174Z</time>
      </trkpt>
      <trkpt lat="46.97477" lon="8.76247">
        <ele>611</ele>
        <time>2021-08-05T12:21:29.173Z</time>
      </trkpt>
      <trkpt lat="46.97477" lon="8.76248">
        <ele>611</ele>
        <time>2021-08-05T12:21:30.173Z</time>
      </trkpt>
      <trkpt lat="46.97477" lon="8.7625">
        <ele>612</ele>
        <time>2021-08-05T12:21:31.173Z</time>
      </trkpt>
      <trkpt lat="46.97477" lon="8.76251">
        <ele>612</ele>
        <time>2021-08-05T12:21:32.173Z</time>
      </trkpt>
      <trkpt lat="46.97478" lon="8.76252">
        <ele>612</ele>
        <time>2021-08-05T12:21:33.174Z</time>
      </trkpt>
      <trkpt lat="46.97478" lon="8.76253">
        <ele>613</ele>
        <time>2021-08-05T12:21:34.173Z</time>
      </trkpt>
      <trkpt lat="46.97477" lon="8.76254">
        <ele>613</ele>
        <time>2021-08-05T12:21:35.173Z</time>
      </trkpt>
      <trkpt lat="46.97477" lon="8.76256">
        <ele>613</ele>
        <time>2021-08-05T12:21:36.173Z</time>
      </trkpt>
      <trkpt lat="46.97476" lon="8.76258">
        <ele>614</ele>
        <time>2021-08-05T12:21:37.173Z</time>
      </trkpt>
      <trkpt lat="46.97475" lon="8.76259">
        <ele>614</ele>
        <time>2021-08-05T12:21:38.174Z</time>
      </trkpt>
      <trkpt lat="46.97474" lon="8.76261">
        <ele>614</ele>
        <time>2021-08-05T12:21:39.174Z</time>
      </trkpt>
      <trkpt lat="46.97474" lon="8.76263">
        <ele>614</ele>
        <time>2021-08-05T12:21:40.173Z</time>
      </trkpt>
      <trkpt lat="46.97474" lon="8.76263">
        <ele>614</ele>
        <time>2021-08-05T12:21:41.174Z</time>
      </trkpt>
      <trkpt lat="46.97475" lon="8.76264">
        <ele>614</ele>
        <time>2021-08-05T12:21:42.174Z</time>
      </trkpt>
      <trkpt lat="46.97475" lon="8.76264">
        <ele>614</ele>
        <time>2021-08-05T12:21:43.173Z</time>
      </trkpt>
      <trkpt lat="46.97475" lon="8.76265">
        <ele>614</ele>
        <time>2021-08-05T12:21:44.174Z</time>
      </trkpt>
      <trkpt lat="46.97475" lon="8.76266">
        <ele>615</ele>
        <time>2021-08-05T12:21:45.173Z</time>
      </trkpt>
      <trkpt lat="46.97475" lon="8.76267">
        <ele>615</ele>
        <time>2021-08-05T12:21:46.173Z</time>
      </trkpt>
      <trkpt lat="46.97474" lon="8.76268">
        <ele>616</ele>
        <time>2021-08-05T12:21:47.174Z</time>
      </trkpt>
      <trkpt lat="46.97474" lon="8.76271">
        <ele>616</ele>
        <time>2021-08-05T12:21:48.173Z</time>
      </trkpt>
      <trkpt lat="46.97473" lon="8.76271">
        <ele>616</ele>
        <time>2021-08-05T12:21:49.173Z</time>
      </trkpt>
      <trkpt lat="46.97471" lon="8.76271">
        <ele>617</ele>
        <time>2021-08-05T12:21:50.173Z</time>
      </trkpt>
      <trkpt lat="46.97471" lon="8.76271">
        <ele>617</ele>
        <time>2021-08-05T12:21:51.174Z</time>
      </trkpt>
      <trkpt lat="46.9747" lon="8.76271">
        <ele>616</ele>
        <time>2021-08-05T12:21:52.174Z</time>
      </trkpt>
      <trkpt lat="46.9747" lon="8.76272">
        <ele>616</ele>
        <time>2021-08-05T12:21:53.173Z</time>
      </trkpt>
      <trkpt lat="46.97469" lon="8.76273">
        <ele>616</ele>
        <time>2021-08-05T12:21:54.173Z</time>
      </trkpt>
      <trkpt lat="46.97469" lon="8.76275">
        <ele>617</ele>
        <time>2021-08-05T12:21:55.174Z</time>
      </trkpt>
      <trkpt lat="46.97469" lon="8.76276">
        <ele>617</ele>
        <time>2021-08-05T12:21:56.173Z</time>
      </trkpt>
      <trkpt lat="46.9747" lon="8.76277">
        <ele>617</ele>
        <time>2021-08-05T12:21:57.173Z</time>
      </trkpt>
      <trkpt lat="46.9747" lon="8.76278">
        <ele>617</ele>
        <time>2021-08-05T12:21:58.173Z</time>
      </trkpt>
      <trkpt lat="46.9747" lon="8.76279">
        <ele>617</ele>
        <time>2021-08-05T12:21:59.174Z</time>
      </trkpt>
      <trkpt lat="46.9747" lon="8.7628">
        <ele>617</ele>
        <time>2021-08-05T12:22:00.174Z</time>
      </trkpt>
      <trkpt lat="46.97471" lon="8.7628">
        <ele>617</ele>
        <time>2021-08-05T12:22:01.174Z</time>
      </trkpt>
      <trkpt lat="46.97472" lon="8.7628">
        <ele>617</ele>
        <time>2021-08-05T12:22:02.173Z</time>
      </trkpt>
      <trkpt lat="46.97473" lon="8.7628">
        <ele>617</ele>
        <time>2021-08-05T12:22:03.173Z</time>
      </trkpt>
      <trkpt lat="46.97474" lon="8.7628">
        <ele>617</ele>
        <time>2021-08-05T12:22:04.174Z</time>
      </trkpt>
      <trkpt lat="46.97476" lon="8.7628">
        <ele>617</ele>
        <time>2021-08-05T12:22:05.174Z</time>
      </trkpt>
      <trkpt lat="46.97476" lon="8.76281">
        <ele>617</ele>
        <time>2021-08-05T12:22:06.174Z</time>
      </trkpt>
      <trkpt lat="46.97476" lon="8.76281">
        <ele>617</ele>
        <time>2021-08-05T12:22:07.173Z</time>
      </trkpt>
      <trkpt lat="46.97475" lon="8.76283">
        <ele>617</ele>
        <time>2021-08-05T12:22:08.173Z</time>
      </trkpt>
      <trkpt lat="46.97474" lon="8.76283">
        <ele>617</ele>
        <time>2021-08-05T12:22:09.174Z</time>
      </trkpt>
      <trkpt lat="46.97474" lon="8.76282">
        <ele>618</ele>
        <time>2021-08-05T12:22:10.173Z</time>
      </trkpt>
      <trkpt lat="46.97475" lon="8.76282">
        <ele>618</ele>
        <time>2021-08-05T12:22:11.173Z</time>
      </trkpt>
      <trkpt lat="46.97475" lon="8.76282">
        <ele>618</ele>
        <time>2021-08-05T12:22:12.174Z</time>
      </trkpt>
      <trkpt lat="46.97476" lon="8.76281">
        <ele>618</ele>
        <time>2021-08-05T12:22:13.174Z</time>
      </trkpt>
      <trkpt lat="46.97476" lon="8.76281">
        <ele>618</ele>
        <time>2021-08-05T12:22:14.174Z</time>
      </trkpt>
      <trkpt lat="46.97477" lon="8.76281">
        <ele>618</ele>
        <time>2021-08-05T12:22:15.173Z</time>
      </trkpt>
      <trkpt lat="46.97477" lon="8.76281">
        <ele>619</ele>
        <time>2021-08-05T12:22:16.174Z</time>
      </trkpt>
      <trkpt lat="46.97478" lon="8.76281">
        <ele>620</ele>
        <time>2021-08-05T12:22:17.176Z</time>
      </trkpt>
      <trkpt lat="46.97478" lon="8.76281">
        <ele>620</ele>
        <time>2021-08-05T12:22:18.176Z</time>
      </trkpt>
      <trkpt lat="46.97478" lon="8.76281">
        <ele>620</ele>
        <time>2021-08-05T12:22:19.176Z</time>
      </trkpt>
      <trkpt lat="46.97478" lon="8.76281">
        <ele>620</ele>
        <time>2021-08-05T12:22:20.176Z</time>
      </trkpt>
      <trkpt lat="46.97479" lon="8.76281">
        <ele>621</ele>
        <time>2021-08-05T12:22:21.175Z</time>
      </trkpt>
      <trkpt lat="46.97478" lon="8.76282">
        <ele>621</ele>
        <time>2021-08-05T12:22:22.177Z</time>
      </trkpt>
      <trkpt lat="46.97478" lon="8.76283">
        <ele>621</ele>
        <time>2021-08-05T12:22:23.178Z</time>
      </trkpt>
      <trkpt lat="46.97477" lon="8.76283">
        <ele>622</ele>
        <time>2021-08-05T12:22:24.178Z</time>
      </trkpt>
      <trkpt lat="46.97487" lon="8.76285">
        <ele>628</ele>
        <time>2021-08-05T12:22:25.179Z</time>
      </trkpt>
      <trkpt lat="46.97487" lon="8.76286">
        <ele>627</ele>
        <time>2021-08-05T12:22:26.179Z</time>
      </trkpt>
      <trkpt lat="46.97485" lon="8.76286">
        <ele>626</ele>
        <time>2021-08-05T12:22:27.180Z</time>
      </trkpt>
      <trkpt lat="46.97483" lon="8.76287">
        <ele>626</ele>
        <time>2021-08-05T12:22:28.179Z</time>
      </trkpt>
      <trkpt lat="46.97485" lon="8.76286">
        <ele>615</ele>
        <time>2021-08-05T12:22:29.182Z</time>
      </trkpt>
      <trkpt lat="46.97485" lon="8.76286">
        <ele>615</ele>
        <time>2021-08-05T12:22:30.182Z</time>
      </trkpt>
      <trkpt lat="46.97486" lon="8.76285">
        <ele>614</ele>
        <time>2021-08-05T12:22:31.182Z</time>
      </trkpt>
      <trkpt lat="46.97486" lon="8.76285">
        <ele>614</ele>
        <time>2021-08-05T12:22:32.181Z</time>
      </trkpt>
      <trkpt lat="46.97486" lon="8.76285">
        <ele>613</ele>
        <time>2021-08-05T12:22:33.182Z</time>
      </trkpt>
      <trkpt lat="46.97485" lon="8.76285">
        <ele>611</ele>
        <time>2021-08-05T12:22:34.183Z</time>
      </trkpt>
      <trkpt lat="46.97485" lon="8.76284">
        <ele>610</ele>
        <time>2021-08-05T12:22:35.183Z</time>
      </trkpt>
      <trkpt lat="46.9748" lon="8.76284">
        <ele>606</ele>
        <time>2021-08-05T12:22:36.184Z</time>
      </trkpt>
      <trkpt lat="46.97478" lon="8.76285">
        <ele>606</ele>
        <time>2021-08-05T12:22:37.184Z</time>
      </trkpt>
      <trkpt lat="46.97473" lon="8.76286">
        <ele>603</ele>
        <time>2021-08-05T12:22:38.185Z</time>
      </trkpt>
      <trkpt lat="46.97472" lon="8.76287">
        <ele>603</ele>
        <time>2021-08-05T12:22:39.185Z</time>
      </trkpt>
      <trkpt lat="46.97471" lon="8.76289">
        <ele>603</ele>
        <time>2021-08-05T12:22:40.184Z</time>
      </trkpt>
      <trkpt lat="46.97469" lon="8.7629">
        <ele>602</ele>
        <time>2021-08-05T12:22:41.185Z</time>
      </trkpt>
      <trkpt lat="46.97468" lon="8.76291">
        <ele>602</ele>
        <time>2021-08-05T12:22:42.185Z</time>
      </trkpt>
      <trkpt lat="46.97466" lon="8.76292">
        <ele>601</ele>
        <time>2021-08-05T12:22:43.184Z</time>
      </trkpt>
      <trkpt lat="46.97465" lon="8.76293">
        <ele>601</ele>
        <time>2021-08-05T12:22:44.185Z</time>
      </trkpt>
      <trkpt lat="46.97464" lon="8.76295">
        <ele>601</ele>
        <time>2021-08-05T12:22:45.185Z</time>
      </trkpt>
      <trkpt lat="46.97464" lon="8.76296">
        <ele>600</ele>
        <time>2021-08-05T12:22:46.184Z</time>
      </trkpt>
      <trkpt lat="46.97464" lon="8.76297">
        <ele>600</ele>
        <time>2021-08-05T12:22:47.185Z</time>
      </trkpt>
      <trkpt lat="46.97464" lon="8.76298">
        <ele>601</ele>
        <time>2021-08-05T12:22:48.185Z</time>
      </trkpt>
      <trkpt lat="46.97464" lon="8.76299">
        <ele>601</ele>
        <time>2021-08-05T12:22:49.184Z</time>
      </trkpt>
      <trkpt lat="46.97465" lon="8.763">
        <ele>601</ele>
        <time>2021-08-05T12:22:50.185Z</time>
      </trkpt>
      <trkpt lat="46.97465" lon="8.76301">
        <ele>601</ele>
        <time>2021-08-05T12:22:51.184Z</time>
      </trkpt>
      <trkpt lat="46.97465" lon="8.76302">
        <ele>600</ele>
        <time>2021-08-05T12:22:52.185Z</time>
      </trkpt>
      <trkpt lat="46.97464" lon="8.76304">
        <ele>600</ele>
        <time>2021-08-05T12:22:53.185Z</time>
      </trkpt>
      <trkpt lat="46.97464" lon="8.76306">
        <ele>600</ele>
        <time>2021-08-05T12:22:54.185Z</time>
      </trkpt>
      <trkpt lat="46.97464" lon="8.76308">
        <ele>600</ele>
        <time>2021-08-05T12:22:55.184Z</time>
      </trkpt>
      <trkpt lat="46.97463" lon="8.76311">
        <ele>600</ele>
        <time>2021-08-05T12:22:56.185Z</time>
      </trkpt>
      <trkpt lat="46.97464" lon="8.76313">
        <ele>602</ele>
        <time>2021-08-05T12:22:57.184Z</time>
      </trkpt>
      <trkpt lat="46.97464" lon="8.76314">
        <ele>603</ele>
        <time>2021-08-05T12:22:58.184Z</time>
      </trkpt>
      <trkpt lat="46.97465" lon="8.76315">
        <ele>604</ele>
        <time>2021-08-05T12:22:59.185Z</time>
      </trkpt>
      <trkpt lat="46.97466" lon="8.76316">
        <ele>605</ele>
        <time>2021-08-05T12:23:00.184Z</time>
      </trkpt>
      <trkpt lat="46.97465" lon="8.76317">
        <ele>606</ele>
        <time>2021-08-05T12:23:01.184Z</time>
      </trkpt>
      <trkpt lat="46.97465" lon="8.76318">
        <ele>607</ele>
        <time>2021-08-05T12:23:02.184Z</time>
      </trkpt>
      <trkpt lat="46.97465" lon="8.76319">
        <ele>608</ele>
        <time>2021-08-05T12:23:03.184Z</time>
      </trkpt>
      <trkpt lat="46.97464" lon="8.7632">
        <ele>608</ele>
        <time>2021-08-05T12:23:04.184Z</time>
      </trkpt>
      <trkpt lat="46.97463" lon="8.76321">
        <ele>609</ele>
        <time>2021-08-05T12:23:05.184Z</time>
      </trkpt>
      <trkpt lat="46.97463" lon="8.76322">
        <ele>609</ele>
        <time>2021-08-05T12:23:06.184Z</time>
      </trkpt>
      <trkpt lat="46.97462" lon="8.76324">
        <ele>610</ele>
        <time>2021-08-05T12:23:07.184Z</time>
      </trkpt>
      <trkpt lat="46.97461" lon="8.76326">
        <ele>610</ele>
        <time>2021-08-05T12:23:08.184Z</time>
      </trkpt>
      <trkpt lat="46.9746" lon="8.76328">
        <ele>610</ele>
        <time>2021-08-05T12:23:09.184Z</time>
      </trkpt>
      <trkpt lat="46.97459" lon="8.76329">
        <ele>611</ele>
        <time>2021-08-05T12:23:10.184Z</time>
      </trkpt>
      <trkpt lat="46.97458" lon="8.76331">
        <ele>611</ele>
        <time>2021-08-05T12:23:11.184Z</time>
      </trkpt>
      <trkpt lat="46.97458" lon="8.76333">
        <ele>612</ele>
        <time>2021-08-05T12:23:12.185Z</time>
      </trkpt>
      <trkpt lat="46.97457" lon="8.76335">
        <ele>612</ele>
        <time>2021-08-05T12:23:13.185Z</time>
      </trkpt>
      <trkpt lat="46.97456" lon="8.76337">
        <ele>613</ele>
        <time>2021-08-05T12:23:14.185Z</time>
      </trkpt>
      <trkpt lat="46.97456" lon="8.76338">
        <ele>613</ele>
        <time>2021-08-05T12:23:15.185Z</time>
      </trkpt>
      <trkpt lat="46.97455" lon="8.76339">
        <ele>613</ele>
        <time>2021-08-05T12:23:16.185Z</time>
      </trkpt>
      <trkpt lat="46.97455" lon="8.7634">
        <ele>613</ele>
        <time>2021-08-05T12:23:17.185Z</time>
      </trkpt>
      <trkpt lat="46.97454" lon="8.76341">
        <ele>613</ele>
        <time>2021-08-05T12:23:18.184Z</time>
      </trkpt>
      <trkpt lat="46.97453" lon="8.76343">
        <ele>613</ele>
        <time>2021-08-05T12:23:19.184Z</time>
      </trkpt>
      <trkpt lat="46.97453" lon="8.76346">
        <ele>614</ele>
        <time>2021-08-05T12:23:20.185Z</time>
      </trkpt>
      <trkpt lat="46.97452" lon="8.76348">
        <ele>614</ele>
        <time>2021-08-05T12:23:21.184Z</time>
      </trkpt>
      <trkpt lat="46.97451" lon="8.7635">
        <ele>614</ele>
        <time>2021-08-05T12:23:22.185Z</time>
      </trkpt>
      <trkpt lat="46.97451" lon="8.76351">
        <ele>614</ele>
        <time>2021-08-05T12:23:23.185Z</time>
      </trkpt>
      <trkpt lat="46.97451" lon="8.76352">
        <ele>615</ele>
        <time>2021-08-05T12:23:24.185Z</time>
      </trkpt>
      <trkpt lat="46.97451" lon="8.76353">
        <ele>615</ele>
        <time>2021-08-05T12:23:25.185Z</time>
      </trkpt>
      <trkpt lat="46.97451" lon="8.76354">
        <ele>616</ele>
        <time>2021-08-05T12:23:26.185Z</time>
      </trkpt>
      <trkpt lat="46.97452" lon="8.76355">
        <ele>617</ele>
        <time>2021-08-05T12:23:27.185Z</time>
      </trkpt>
      <trkpt lat="46.97452" lon="8.76357">
        <ele>617</ele>
        <time>2021-08-05T12:23:28.185Z</time>
      </trkpt>
      <trkpt lat="46.97453" lon="8.76358">
        <ele>618</ele>
        <time>2021-08-05T12:23:29.184Z</time>
      </trkpt>
      <trkpt lat="46.97453" lon="8.76359">
        <ele>619</ele>
        <time>2021-08-05T12:23:30.185Z</time>
      </trkpt>
      <trkpt lat="46.97452" lon="8.76361">
        <ele>620</ele>
        <time>2021-08-05T12:23:31.185Z</time>
      </trkpt>
      <trkpt lat="46.97452" lon="8.76362">
        <ele>620</ele>
        <time>2021-08-05T12:23:32.185Z</time>
      </trkpt>
      <trkpt lat="46.97452" lon="8.76363">
        <ele>620</ele>
        <time>2021-08-05T12:23:33.184Z</time>
      </trkpt>
      <trkpt lat="46.97452" lon="8.76365">
        <ele>621</ele>
        <time>2021-08-05T12:23:34.185Z</time>
      </trkpt>
      <trkpt lat="46.97452" lon="8.76366">
        <ele>621</ele>
        <time>2021-08-05T12:23:35.185Z</time>
      </trkpt>
      <trkpt lat="46.97452" lon="8.76367">
        <ele>621</ele>
        <time>2021-08-05T12:23:36.185Z</time>
      </trkpt>
      <trkpt lat="46.97452" lon="8.76368">
        <ele>621</ele>
        <time>2021-08-05T12:23:37.184Z</time>
      </trkpt>
      <trkpt lat="46.97452" lon="8.76369">
        <ele>621</ele>
        <time>2021-08-05T12:23:38.185Z</time>
      </trkpt>
      <trkpt lat="46.97452" lon="8.76371">
        <ele>621</ele>
        <time>2021-08-05T12:23:39.184Z</time>
      </trkpt>
      <trkpt lat="46.97452" lon="8.76372">
        <ele>621</ele>
        <time>2021-08-05T12:23:40.184Z</time>
      </trkpt>
      <trkpt lat="46.97451" lon="8.76374">
        <ele>621</ele>
        <time>2021-08-05T12:23:41.184Z</time>
      </trkpt>
      <trkpt lat="46.97451" lon="8.76376">
        <ele>621</ele>
        <time>2021-08-05T12:23:42.185Z</time>
      </trkpt>
      <trkpt lat="46.97451" lon="8.76377">
        <ele>620</ele>
        <time>2021-08-05T12:23:43.184Z</time>
      </trkpt>
      <trkpt lat="46.97452" lon="8.76378">
        <ele>620</ele>
        <time>2021-08-05T12:23:44.184Z</time>
      </trkpt>
      <trkpt lat="46.97451" lon="8.76379">
        <ele>621</ele>
        <time>2021-08-05T12:23:45.184Z</time>
      </trkpt>
      <trkpt lat="46.97451" lon="8.76381">
        <ele>621</ele>
        <time>2021-08-05T12:23:49.203Z</time>
      </trkpt>
      <trkpt lat="46.97451" lon="8.76382">
        <ele>621</ele>
        <time>2021-08-05T12:23:50.203Z</time>
      </trkpt>
      <trkpt lat="46.97451" lon="8.76384">
        <ele>621</ele>
        <time>2021-08-05T12:23:51.203Z</time>
      </trkpt>
      <trkpt lat="46.9745" lon="8.76386">
        <ele>622</ele>
        <time>2021-08-05T12:23:52.203Z</time>
      </trkpt>
      <trkpt lat="46.97449" lon="8.76388">
        <ele>621</ele>
        <time>2021-08-05T12:23:53.203Z</time>
      </trkpt>
      <trkpt lat="46.97448" lon="8.7639">
        <ele>621</ele>
        <time>2021-08-05T12:23:54.203Z</time>
      </trkpt>
      <trkpt lat="46.97448" lon="8.76392">
        <ele>621</ele>
        <time>2021-08-05T12:23:55.204Z</time>
      </trkpt>
      <trkpt lat="46.97447" lon="8.76394">
        <ele>621</ele>
        <time>2021-08-05T12:23:56.204Z</time>
      </trkpt>
      <trkpt lat="46.97448" lon="8.76396">
        <ele>621</ele>
        <time>2021-08-05T12:23:57.204Z</time>
      </trkpt>
      <trkpt lat="46.97447" lon="8.76399">
        <ele>621</ele>
        <time>2021-08-05T12:23:58.204Z</time>
      </trkpt>
      <trkpt lat="46.97447" lon="8.764">
        <ele>621</ele>
        <time>2021-08-05T12:23:59.203Z</time>
      </trkpt>
      <trkpt lat="46.97447" lon="8.76402">
        <ele>621</ele>
        <time>2021-08-05T12:24:00.204Z</time>
      </trkpt>
      <trkpt lat="46.97446" lon="8.76404">
        <ele>621</ele>
        <time>2021-08-05T12:24:01.204Z</time>
      </trkpt>
      <trkpt lat="46.97446" lon="8.76406">
        <ele>620</ele>
        <time>2021-08-05T12:24:02.204Z</time>
      </trkpt>
      <trkpt lat="46.97446" lon="8.76407">
        <ele>620</ele>
        <time>2021-08-05T12:24:03.203Z</time>
      </trkpt>
      <trkpt lat="46.97446" lon="8.76408">
        <ele>620</ele>
        <time>2021-08-05T12:24:04.204Z</time>
      </trkpt>
      <trkpt lat="46.97445" lon="8.7641">
        <ele>620</ele>
        <time>2021-08-05T12:24:05.204Z</time>
      </trkpt>
      <trkpt lat="46.97445" lon="8.76411">
        <ele>621</ele>
        <time>2021-08-05T12:24:06.203Z</time>
      </trkpt>
      <trkpt lat="46.97444" lon="8.76413">
        <ele>620</ele>
        <time>2021-08-05T12:24:07.204Z</time>
      </trkpt>
      <trkpt lat="46.97443" lon="8.76415">
        <ele>620</ele>
        <time>2021-08-05T12:24:08.204Z</time>
      </trkpt>
      <trkpt lat="46.97443" lon="8.76417">
        <ele>620</ele>
        <time>2021-08-05T12:24:09.204Z</time>
      </trkpt>
      <trkpt lat="46.97442" lon="8.76419">
        <ele>620</ele>
        <time>2021-08-05T12:24:10.204Z</time>
      </trkpt>
      <trkpt lat="46.97442" lon="8.7642">
        <ele>620</ele>
        <time>2021-08-05T12:24:11.204Z</time>
      </trkpt>
      <trkpt lat="46.97442" lon="8.76421">
        <ele>620</ele>
        <time>2021-08-05T12:24:12.204Z</time>
      </trkpt>
      <trkpt lat="46.97442" lon="8.76422">
        <ele>621</ele>
        <time>2021-08-05T12:24:13.204Z</time>
      </trkpt>
      <trkpt lat="46.97442" lon="8.76424">
        <ele>621</ele>
        <time>2021-08-05T12:24:14.204Z</time>
      </trkpt>
      <trkpt lat="46.97442" lon="8.76426">
        <ele>621</ele>
        <time>2021-08-05T12:24:15.203Z</time>
      </trkpt>
      <trkpt lat="46.9744" lon="8.76428">
        <ele>621</ele>
        <time>2021-08-05T12:24:16.204Z</time>
      </trkpt>
      <trkpt lat="46.9744" lon="8.76429">
        <ele>621</ele>
        <time>2021-08-05T12:24:17.203Z</time>
      </trkpt>
      <trkpt lat="46.9744" lon="8.7643">
        <ele>621</ele>
        <time>2021-08-05T12:24:18.204Z</time>
      </trkpt>
      <trkpt lat="46.97439" lon="8.76432">
        <ele>620</ele>
        <time>2021-08-05T12:24:19.203Z</time>
      </trkpt>
      <trkpt lat="46.9744" lon="8.76433">
        <ele>620</ele>
        <time>2021-08-05T12:24:20.204Z</time>
      </trkpt>
      <trkpt lat="46.9744" lon="8.76435">
        <ele>620</ele>
        <time>2021-08-05T12:24:21.204Z</time>
      </trkpt>
      <trkpt lat="46.9744" lon="8.76436">
        <ele>620</ele>
        <time>2021-08-05T12:24:22.204Z</time>
      </trkpt>
      <trkpt lat="46.9744" lon="8.76438">
        <ele>620</ele>
        <time>2021-08-05T12:24:23.204Z</time>
      </trkpt>
      <trkpt lat="46.97439" lon="8.7644">
        <ele>621</ele>
        <time>2021-08-05T12:24:24.204Z</time>
      </trkpt>
      <trkpt lat="46.97439" lon="8.76442">
        <ele>621</ele>
        <time>2021-08-05T12:24:25.204Z</time>
      </trkpt>
      <trkpt lat="46.97438" lon="8.76443">
        <ele>620</ele>
        <time>2021-08-05T12:24:26.203Z</time>
      </trkpt>
      <trkpt lat="46.97438" lon="8.76445">
        <ele>620</ele>
        <time>2021-08-05T12:24:27.204Z</time>
      </trkpt>
      <trkpt lat="46.97437" lon="8.76446">
        <ele>619</ele>
        <time>2021-08-05T12:24:28.204Z</time>
      </trkpt>
      <trkpt lat="46.97437" lon="8.76448">
        <ele>618</ele>
        <time>2021-08-05T12:24:29.204Z</time>
      </trkpt>
      <trkpt lat="46.97437" lon="8.76449">
        <ele>617</ele>
        <time>2021-08-05T12:24:30.204Z</time>
      </trkpt>
      <trkpt lat="46.97436" lon="8.76451">
        <ele>616</ele>
        <time>2021-08-05T12:24:31.203Z</time>
      </trkpt>
      <trkpt lat="46.97435" lon="8.76453">
        <ele>616</ele>
        <time>2021-08-05T12:24:32.203Z</time>
      </trkpt>
      <trkpt lat="46.97435" lon="8.76454">
        <ele>615</ele>
        <time>2021-08-05T12:24:33.204Z</time>
      </trkpt>
      <trkpt lat="46.97434" lon="8.76457">
        <ele>615</ele>
        <time>2021-08-05T12:24:34.203Z</time>
      </trkpt>
      <trkpt lat="46.97434" lon="8.76459">
        <ele>614</ele>
        <time>2021-08-05T12:24:35.203Z</time>
      </trkpt>
      <trkpt lat="46.97434" lon="8.76461">
        <ele>614</ele>
        <time>2021-08-05T12:24:36.204Z</time>
      </trkpt>
      <trkpt lat="46.97433" lon="8.76463">
        <ele>614</ele>
        <time>2021-08-05T12:24:37.204Z</time>
      </trkpt>
      <trkpt lat="46.97432" lon="8.76465">
        <ele>614</ele>
        <time>2021-08-05T12:24:38.203Z</time>
      </trkpt>
      <trkpt lat="46.97431" lon="8.76467">
        <ele>614</ele>
        <time>2021-08-05T12:24:39.204Z</time>
      </trkpt>
      <trkpt lat="46.97431" lon="8.76468">
        <ele>614</ele>
        <time>2021-08-05T12:24:40.204Z</time>
      </trkpt>
      <trkpt lat="46.9743" lon="8.7647">
        <ele>614</ele>
        <time>2021-08-05T12:24:41.204Z</time>
      </trkpt>
      <trkpt lat="46.97429" lon="8.76472">
        <ele>614</ele>
        <time>2021-08-05T12:24:42.204Z</time>
      </trkpt>
      <trkpt lat="46.97429" lon="8.76473">
        <ele>614</ele>
        <time>2021-08-05T12:24:43.204Z</time>
      </trkpt>
      <trkpt lat="46.97429" lon="8.76475">
        <ele>614</ele>
        <time>2021-08-05T12:24:44.204Z</time>
      </trkpt>
      <trkpt lat="46.97429" lon="8.76477">
        <ele>614</ele>
        <time>2021-08-05T12:24:45.204Z</time>
      </trkpt>
      <trkpt lat="46.97428" lon="8.76479">
        <ele>615</ele>
        <time>2021-08-05T12:24:46.203Z</time>
      </trkpt>
      <trkpt lat="46.97428" lon="8.7648">
        <ele>615</ele>
        <time>2021-08-05T12:24:47.204Z</time>
      </trkpt>
      <trkpt lat="46.97427" lon="8.76483">
        <ele>615</ele>
        <time>2021-08-05T12:24:48.203Z</time>
      </trkpt>
      <trkpt lat="46.97427" lon="8.76484">
        <ele>616</ele>
        <time>2021-08-05T12:24:49.204Z</time>
      </trkpt>
      <trkpt lat="46.97427" lon="8.76486">
        <ele>616</ele>
        <time>2021-08-05T12:24:50.204Z</time>
      </trkpt>
      <trkpt lat="46.97427" lon="8.76489">
        <ele>616</ele>
        <time>2021-08-05T12:24:51.203Z</time>
      </trkpt>
      <trkpt lat="46.97426" lon="8.76491">
        <ele>617</ele>
        <time>2021-08-05T12:24:52.203Z</time>
      </trkpt>
      <trkpt lat="46.97426" lon="8.76494">
        <ele>617</ele>
        <time>2021-08-05T12:24:53.203Z</time>
      </trkpt>
      <trkpt lat="46.97425" lon="8.76496">
        <ele>617</ele>
        <time>2021-08-05T12:24:54.203Z</time>
      </trkpt>
      <trkpt lat="46.97425" lon="8.76498">
        <ele>617</ele>
        <time>2021-08-05T12:24:55.203Z</time>
      </trkpt>
      <trkpt lat="46.97423" lon="8.765">
        <ele>617</ele>
        <time>2021-08-05T12:24:56.203Z</time>
      </trkpt>
      <trkpt lat="46.97422" lon="8.76502">
        <ele>617</ele>
        <time>2021-08-05T12:24:57.204Z</time>
      </trkpt>
      <trkpt lat="46.97422" lon="8.76504">
        <ele>617</ele>
        <time>2021-08-05T12:24:58.203Z</time>
      </trkpt>
      <trkpt lat="46.97421" lon="8.76506">
        <ele>616</ele>
        <time>2021-08-05T12:24:59.204Z</time>
      </trkpt>
      <trkpt lat="46.97421" lon="8.76508">
        <ele>616</ele>
        <time>2021-08-05T12:25:00.204Z</time>
      </trkpt>
      <trkpt lat="46.97421" lon="8.76511">
        <ele>616</ele>
        <time>2021-08-05T12:25:01.203Z</time>
      </trkpt>
      <trkpt lat="46.97421" lon="8.76513">
        <ele>616</ele>
        <time>2021-08-05T12:25:02.203Z</time>
      </trkpt>
      <trkpt lat="46.97421" lon="8.76515">
        <ele>617</ele>
        <time>2021-08-05T12:25:03.203Z</time>
      </trkpt>
      <trkpt lat="46.9742" lon="8.76517">
        <ele>617</ele>
        <time>2021-08-05T12:25:04.203Z</time>
      </trkpt>
      <trkpt lat="46.9742" lon="8.76519">
        <ele>618</ele>
        <time>2021-08-05T12:25:05.204Z</time>
      </trkpt>
      <trkpt lat="46.9742" lon="8.76521">
        <ele>618</ele>
        <time>2021-08-05T12:25:06.203Z</time>
      </trkpt>
      <trkpt lat="46.97419" lon="8.76522">
        <ele>618</ele>
        <time>2021-08-05T12:25:07.204Z</time>
      </trkpt>
      <trkpt lat="46.97419" lon="8.76524">
        <ele>618</ele>
        <time>2021-08-05T12:25:08.204Z</time>
      </trkpt>
      <trkpt lat="46.97418" lon="8.76526">
        <ele>618</ele>
        <time>2021-08-05T12:25:09.204Z</time>
      </trkpt>
      <trkpt lat="46.97418" lon="8.76527">
        <ele>617</ele>
        <time>2021-08-05T12:25:10.203Z</time>
      </trkpt>
      <trkpt lat="46.97418" lon="8.76528">
        <ele>617</ele>
        <time>2021-08-05T12:25:11.204Z</time>
      </trkpt>
      <trkpt lat="46.97419" lon="8.76531">
        <ele>617</ele>
        <time>2021-08-05T12:25:12.203Z</time>
      </trkpt>
      <trkpt lat="46.97419" lon="8.76532">
        <ele>617</ele>
        <time>2021-08-05T12:25:13.204Z</time>
      </trkpt>
      <trkpt lat="46.97418" lon="8.76533">
        <ele>617</ele>
        <time>2021-08-05T12:25:14.204Z</time>
      </trkpt>
      <trkpt lat="46.97418" lon="8.76534">
        <ele>617</ele>
        <time>2021-08-05T12:25:15.204Z</time>
      </trkpt>
      <trkpt lat="46.97418" lon="8.76535">
        <ele>617</ele>
        <time>2021-08-05T12:25:16.204Z</time>
      </trkpt>
      <trkpt lat="46.97418" lon="8.76535">
        <ele>618</ele>
        <time>2021-08-05T12:25:17.204Z</time>
      </trkpt>
      <trkpt lat="46.97418" lon="8.76535">
        <ele>618</ele>
        <time>2021-08-05T12:25:18.204Z</time>
      </trkpt>
      <trkpt lat="46.97417" lon="8.76535">
        <ele>618</ele>
        <time>2021-08-05T12:25:19.204Z</time>
      </trkpt>
      <trkpt lat="46.97416" lon="8.76535">
        <ele>619</ele>
        <time>2021-08-05T12:25:20.204Z</time>
      </trkpt>
      <trkpt lat="46.97415" lon="8.76534">
        <ele>619</ele>
        <time>2021-08-05T12:25:21.204Z</time>
      </trkpt>
      <trkpt lat="46.97414" lon="8.76534">
        <ele>619</ele>
        <time>2021-08-05T12:25:22.204Z</time>
      </trkpt>
      <trkpt lat="46.97414" lon="8.76534">
        <ele>620</ele>
        <time>2021-08-05T12:25:23.204Z</time>
      </trkpt>
      <trkpt lat="46.97415" lon="8.76535">
        <ele>620</ele>
        <time>2021-08-05T12:25:24.204Z</time>
      </trkpt>
      <trkpt lat="46.97416" lon="8.76536">
        <ele>620</ele>
        <time>2021-08-05T12:25:25.204Z</time>
      </trkpt>
      <trkpt lat="46.97417" lon="8.76537">
        <ele>620</ele>
        <time>2021-08-05T12:25:26.203Z</time>
      </trkpt>
      <trkpt lat="46.97418" lon="8.76537">
        <ele>620</ele>
        <time>2021-08-05T12:25:27.203Z</time>
      </trkpt>
      <trkpt lat="46.97419" lon="8.76536">
        <ele>620</ele>
        <time>2021-08-05T12:25:28.204Z</time>
      </trkpt>
      <trkpt lat="46.97419" lon="8.76535">
        <ele>620</ele>
        <time>2021-08-05T12:25:29.204Z</time>
      </trkpt>
      <trkpt lat="46.97418" lon="8.76534">
        <ele>620</ele>
        <time>2021-08-05T12:25:30.204Z</time>
      </trkpt>
      <trkpt lat="46.97417" lon="8.76532">
        <ele>621</ele>
        <time>2021-08-05T12:25:31.204Z</time>
      </trkpt>
      <trkpt lat="46.97416" lon="8.76531">
        <ele>621</ele>
        <time>2021-08-05T12:25:32.204Z</time>
      </trkpt>
      <trkpt lat="46.97415" lon="8.7653">
        <ele>621</ele>
        <time>2021-08-05T12:25:33.203Z</time>
      </trkpt>
      <trkpt lat="46.97414" lon="8.76529">
        <ele>621</ele>
        <time>2021-08-05T12:25:34.204Z</time>
      </trkpt>
      <trkpt lat="46.97413" lon="8.76527">
        <ele>621</ele>
        <time>2021-08-05T12:25:35.203Z</time>
      </trkpt>
      <trkpt lat="46.97412" lon="8.76525">
        <ele>621</ele>
        <time>2021-08-05T12:25:36.203Z</time>
      </trkpt>
      <trkpt lat="46.97411" lon="8.76524">
        <ele>621</ele>
        <time>2021-08-05T12:25:37.203Z</time>
      </trkpt>
      <trkpt lat="46.9741" lon="8.76522">
        <ele>621</ele>
        <time>2021-08-05T12:25:38.203Z</time>
      </trkpt>
      <trkpt lat="46.97409" lon="8.76521">
        <ele>621</ele>
        <time>2021-08-05T12:25:39.203Z</time>
      </trkpt>
      <trkpt lat="46.97409" lon="8.76518">
        <ele>621</ele>
        <time>2021-08-05T12:25:40.204Z</time>
      </trkpt>
      <trkpt lat="46.97408" lon="8.76514">
        <ele>621</ele>
        <time>2021-08-05T12:25:41.204Z</time>
      </trkpt>
      <trkpt lat="46.97407" lon="8.76513">
        <ele>621</ele>
        <time>2021-08-05T12:25:42.203Z</time>
      </trkpt>
      <trkpt lat="46.97392" lon="8.76544">
        <ele>620</ele>
        <time>2021-08-05T12:26:52.204Z</time>
      </trkpt>
      <trkpt lat="46.97395" lon="8.76526">
        <ele>619</ele>
        <time>2021-08-05T12:26:53.204Z</time>
      </trkpt>
      <trkpt lat="46.97391" lon="8.76519">
        <ele>618</ele>
        <time>2021-08-05T12:26:54.204Z</time>
      </trkpt>
      <trkpt lat="46.97385" lon="8.7652">
        <ele>617</ele>
        <time>2021-08-05T12:26:55.204Z</time>
      </trkpt>
      <trkpt lat="46.97383" lon="8.76519">
        <ele>617</ele>
        <time>2021-08-05T12:26:56.203Z</time>
      </trkpt>
      <trkpt lat="46.9738" lon="8.76517">
        <ele>616</ele>
        <time>2021-08-05T12:26:57.204Z</time>
      </trkpt>
      <trkpt lat="46.97381" lon="8.76508">
        <ele>614</ele>
        <time>2021-08-05T12:27:01.196Z</time>
      </trkpt>
      <trkpt lat="46.97382" lon="8.76506">
        <ele>613</ele>
        <time>2021-08-05T12:27:04.035Z</time>
      </trkpt>
      <trkpt lat="46.97383" lon="8.76506">
        <ele>613</ele>
        <time>2021-08-05T12:27:05.036Z</time>
      </trkpt>
      <trkpt lat="46.97385" lon="8.76506">
        <ele>611</ele>
        <time>2021-08-05T12:27:06.036Z</time>
      </trkpt>
      <trkpt lat="46.97384" lon="8.76507">
        <ele>612</ele>
        <time>2021-08-05T12:27:07.036Z</time>
      </trkpt>
      <trkpt lat="46.97384" lon="8.76508">
        <ele>612</ele>
        <time>2021-08-05T12:27:08.035Z</time>
      </trkpt>
      <trkpt lat="46.97384" lon="8.76508">
        <ele>612</ele>
        <time>2021-08-05T12:27:09.036Z</time>
      </trkpt>
      <trkpt lat="46.97383" lon="8.76507">
        <ele>612</ele>
        <time>2021-08-05T12:27:10.036Z</time>
      </trkpt>
      <trkpt lat="46.97384" lon="8.76507">
        <ele>612</ele>
        <time>2021-08-05T12:27:11.036Z</time>
      </trkpt>
      <trkpt lat="46.97385" lon="8.76506">
        <ele>612</ele>
        <time>2021-08-05T12:27:12.035Z</time>
      </trkpt>
      <trkpt lat="46.97386" lon="8.76506">
        <ele>612</ele>
        <time>2021-08-05T12:27:13.036Z</time>
      </trkpt>
      <trkpt lat="46.97386" lon="8.76506">
        <ele>612</ele>
        <time>2021-08-05T12:27:14.036Z</time>
      </trkpt>
      <trkpt lat="46.97385" lon="8.76506">
        <ele>612</ele>
        <time>2021-08-05T12:27:15.036Z</time>
      </trkpt>
      <trkpt lat="46.97384" lon="8.76507">
        <ele>613</ele>
        <time>2021-08-05T12:27:16.037Z</time>
      </trkpt>
      <trkpt lat="46.97385" lon="8.76507">
        <ele>612</ele>
        <time>2021-08-05T12:27:17.036Z</time>
      </trkpt>
      <trkpt lat="46.97386" lon="8.76507">
        <ele>612</ele>
        <time>2021-08-05T12:27:18.036Z</time>
      </trkpt>
      <trkpt lat="46.97386" lon="8.76507">
        <ele>612</ele>
        <time>2021-08-05T12:27:19.037Z</time>
      </trkpt>
      <trkpt lat="46.97387" lon="8.76507">
        <ele>612</ele>
        <time>2021-08-05T12:27:20.036Z</time>
      </trkpt>
      <trkpt lat="46.97388" lon="8.76507">
        <ele>612</ele>
        <time>2021-08-05T12:27:21.037Z</time>
      </trkpt>
      <trkpt lat="46.97388" lon="8.76507">
        <ele>612</ele>
        <time>2021-08-05T12:27:22.037Z</time>
      </trkpt>
      <trkpt lat="46.97388" lon="8.76506">
        <ele>612</ele>
        <time>2021-08-05T12:27:23.037Z</time>
      </trkpt>
      <trkpt lat="46.97388" lon="8.76506">
        <ele>612</ele>
        <time>2021-08-05T12:27:24.036Z</time>
      </trkpt>
      <trkpt lat="46.97388" lon="8.76507">
        <ele>611</ele>
        <time>2021-08-05T12:27:25.037Z</time>
      </trkpt>
      <trkpt lat="46.97389" lon="8.76508">
        <ele>611</ele>
        <time>2021-08-05T12:27:26.037Z</time>
      </trkpt>
      <trkpt lat="46.97389" lon="8.76509">
        <ele>611</ele>
        <time>2021-08-05T12:27:27.037Z</time>
      </trkpt>
      <trkpt lat="46.9739" lon="8.76509">
        <ele>610</ele>
        <time>2021-08-05T12:27:28.037Z</time>
      </trkpt>
      <trkpt lat="46.97391" lon="8.7651">
        <ele>610</ele>
        <time>2021-08-05T12:27:29.036Z</time>
      </trkpt>
      <trkpt lat="46.97391" lon="8.76511">
        <ele>610</ele>
        <time>2021-08-05T12:27:30.037Z</time>
      </trkpt>
      <trkpt lat="46.97391" lon="8.76511">
        <ele>610</ele>
        <time>2021-08-05T12:27:31.036Z</time>
      </trkpt>
      <trkpt lat="46.97391" lon="8.76512">
        <ele>610</ele>
        <time>2021-08-05T12:27:32.037Z</time>
      </trkpt>
      <trkpt lat="46.97392" lon="8.76513">
        <ele>610</ele>
        <time>2021-08-05T12:27:33.036Z</time>
      </trkpt>
      <trkpt lat="46.97392" lon="8.76513">
        <ele>609</ele>
        <time>2021-08-05T12:27:34.036Z</time>
      </trkpt>
      <trkpt lat="46.97393" lon="8.76513">
        <ele>609</ele>
        <time>2021-08-05T12:27:35.036Z</time>
      </trkpt>
      <trkpt lat="46.97393" lon="8.76514">
        <ele>609</ele>
        <time>2021-08-05T12:27:36.037Z</time>
      </trkpt>
      <trkpt lat="46.97393" lon="8.76515">
        <ele>609</ele>
        <time>2021-08-05T12:27:37.037Z</time>
      </trkpt>
      <trkpt lat="46.97394" lon="8.76516">
        <ele>609</ele>
        <time>2021-08-05T12:27:38.036Z</time>
      </trkpt>
      <trkpt lat="46.97393" lon="8.76517">
        <ele>609</ele>
        <time>2021-08-05T12:27:39.036Z</time>
      </trkpt>
      <trkpt lat="46.97393" lon="8.76518">
        <ele>610</ele>
        <time>2021-08-05T12:27:40.036Z</time>
      </trkpt>
      <trkpt lat="46.97393" lon="8.76519">
        <ele>610</ele>
        <time>2021-08-05T12:27:41.037Z</time>
      </trkpt>
      <trkpt lat="46.97393" lon="8.7652">
        <ele>610</ele>
        <time>2021-08-05T12:27:42.036Z</time>
      </trkpt>
      <trkpt lat="46.97394" lon="8.7652">
        <ele>610</ele>
        <time>2021-08-05T12:27:43.036Z</time>
      </trkpt>
      <trkpt lat="46.97394" lon="8.7652">
        <ele>611</ele>
        <time>2021-08-05T12:27:44.036Z</time>
      </trkpt>
      <trkpt lat="46.97395" lon="8.7652">
        <ele>611</ele>
        <time>2021-08-05T12:27:45.036Z</time>
      </trkpt>
      <trkpt lat="46.97396" lon="8.7652">
        <ele>611</ele>
        <time>2021-08-05T12:27:46.037Z</time>
      </trkpt>
      <trkpt lat="46.97396" lon="8.76521">
        <ele>611</ele>
        <time>2021-08-05T12:27:47.036Z</time>
      </trkpt>
      <trkpt lat="46.97396" lon="8.76521">
        <ele>611</ele>
        <time>2021-08-05T12:27:48.036Z</time>
      </trkpt>
      <trkpt lat="46.97396" lon="8.76522">
        <ele>611</ele>
        <time>2021-08-05T12:27:49.036Z</time>
      </trkpt>
      <trkpt lat="46.97395" lon="8.76523">
        <ele>611</ele>
        <time>2021-08-05T12:27:50.036Z</time>
      </trkpt>
      <trkpt lat="46.97394" lon="8.76524">
        <ele>611</ele>
        <time>2021-08-05T12:27:51.036Z</time>
      </trkpt>
      <trkpt lat="46.97394" lon="8.76525">
        <ele>611</ele>
        <time>2021-08-05T12:27:52.036Z</time>
      </trkpt>
      <trkpt lat="46.97394" lon="8.76525">
        <ele>611</ele>
        <time>2021-08-05T12:27:53.036Z</time>
      </trkpt>
      <trkpt lat="46.97394" lon="8.76525">
        <ele>611</ele>
        <time>2021-08-05T12:27:55.036Z</time>
      </trkpt>
      <trkpt lat="46.974" lon="8.76525">
        <ele>610</ele>
        <time>2021-08-05T12:27:56.037Z</time>
      </trkpt>
      <trkpt lat="46.974" lon="8.76526">
        <ele>610</ele>
        <time>2021-08-05T12:28:00.063Z</time>
      </trkpt>
      <trkpt lat="46.97401" lon="8.76527">
        <ele>610</ele>
        <time>2021-08-05T12:28:01.062Z</time>
      </trkpt>
      <trkpt lat="46.97402" lon="8.76527">
        <ele>610</ele>
        <time>2021-08-05T12:28:02.062Z</time>
      </trkpt>
      <trkpt lat="46.97403" lon="8.76528">
        <ele>610</ele>
        <time>2021-08-05T12:28:03.063Z</time>
      </trkpt>
      <trkpt lat="46.97402" lon="8.76528">
        <ele>610</ele>
        <time>2021-08-05T12:28:04.063Z</time>
      </trkpt>
      <trkpt lat="46.97401" lon="8.76527">
        <ele>610</ele>
        <time>2021-08-05T12:28:05.062Z</time>
      </trkpt>
      <trkpt lat="46.974" lon="8.76527">
        <ele>610</ele>
        <time>2021-08-05T12:28:06.062Z</time>
      </trkpt>
      <trkpt lat="46.97399" lon="8.76526">
        <ele>610</ele>
        <time>2021-08-05T12:28:07.063Z</time>
      </trkpt>
      <trkpt lat="46.97398" lon="8.76525">
        <ele>610</ele>
        <time>2021-08-05T12:28:08.063Z</time>
      </trkpt>
      <trkpt lat="46.97398" lon="8.76525">
        <ele>610</ele>
        <time>2021-08-05T12:28:09.062Z</time>
      </trkpt>
      <trkpt lat="46.97398" lon="8.76525">
        <ele>611</ele>
        <time>2021-08-05T12:28:10.062Z</time>
      </trkpt>
      <trkpt lat="46.97399" lon="8.76524">
        <ele>611</ele>
        <time>2021-08-05T12:28:11.063Z</time>
      </trkpt>
      <trkpt lat="46.97401" lon="8.76524">
        <ele>612</ele>
        <time>2021-08-05T12:28:12.063Z</time>
      </trkpt>
      <trkpt lat="46.97401" lon="8.76524">
        <ele>612</ele>
        <time>2021-08-05T12:28:13.063Z</time>
      </trkpt>
      <trkpt lat="46.97401" lon="8.76524">
        <ele>612</ele>
        <time>2021-08-05T12:28:14.062Z</time>
      </trkpt>
      <trkpt lat="46.97401" lon="8.76523">
        <ele>612</ele>
        <time>2021-08-05T12:28:15.064Z</time>
      </trkpt>
      <trkpt lat="46.97402" lon="8.76523">
        <ele>612</ele>
        <time>2021-08-05T12:28:16.063Z</time>
      </trkpt>
      <trkpt lat="46.97403" lon="8.76522">
        <ele>612</ele>
        <time>2021-08-05T12:28:17.063Z</time>
      </trkpt>
      <trkpt lat="46.97404" lon="8.76522">
        <ele>612</ele>
        <time>2021-08-05T12:28:18.063Z</time>
      </trkpt>
      <trkpt lat="46.97405" lon="8.76521">
        <ele>612</ele>
        <time>2021-08-05T12:28:19.064Z</time>
      </trkpt>
      <trkpt lat="46.97406" lon="8.76522">
        <ele>613</ele>
        <time>2021-08-05T12:28:20.064Z</time>
      </trkpt>
      <trkpt lat="46.97406" lon="8.76522">
        <ele>613</ele>
        <time>2021-08-05T12:28:21.063Z</time>
      </trkpt>
      <trkpt lat="46.97405" lon="8.76523">
        <ele>613</ele>
        <time>2021-08-05T12:28:22.064Z</time>
      </trkpt>
      <trkpt lat="46.97404" lon="8.76523">
        <ele>613</ele>
        <time>2021-08-05T12:28:23.064Z</time>
      </trkpt>
      <trkpt lat="46.97402" lon="8.76524">
        <ele>616</ele>
        <time>2021-08-05T12:28:24.064Z</time>
      </trkpt>
      <trkpt lat="46.97401" lon="8.76524">
        <ele>616</ele>
        <time>2021-08-05T12:28:25.064Z</time>
      </trkpt>
      <trkpt lat="46.974" lon="8.76525">
        <ele>617</ele>
        <time>2021-08-05T12:28:26.063Z</time>
      </trkpt>
      <trkpt lat="46.97399" lon="8.76526">
        <ele>617</ele>
        <time>2021-08-05T12:28:27.064Z</time>
      </trkpt>
      <trkpt lat="46.97395" lon="8.76528">
        <ele>618</ele>
        <time>2021-08-05T12:28:28.064Z</time>
      </trkpt>
      <trkpt lat="46.97391" lon="8.76529">
        <ele>618</ele>
        <time>2021-08-05T12:28:29.064Z</time>
      </trkpt>
      <trkpt lat="46.97388" lon="8.7653">
        <ele>618</ele>
        <time>2021-08-05T12:28:30.063Z</time>
      </trkpt>
      <trkpt lat="46.97386" lon="8.7653">
        <ele>619</ele>
        <time>2021-08-05T12:28:31.063Z</time>
      </trkpt>
      <trkpt lat="46.97385" lon="8.76531">
        <ele>619</ele>
        <time>2021-08-05T12:28:32.063Z</time>
      </trkpt>
      <trkpt lat="46.97383" lon="8.7653">
        <ele>620</ele>
        <time>2021-08-05T12:28:34.064Z</time>
      </trkpt>
      <trkpt lat="46.97382" lon="8.76529">
        <ele>620</ele>
        <time>2021-08-05T12:28:35.064Z</time>
      </trkpt>
      <trkpt lat="46.97381" lon="8.76528">
        <ele>620</ele>
        <time>2021-08-05T12:28:36.063Z</time>
      </trkpt>
      <trkpt lat="46.9738" lon="8.76528">
        <ele>620</ele>
        <time>2021-08-05T12:28:37.064Z</time>
      </trkpt>
      <trkpt lat="46.97379" lon="8.76528">
        <ele>620</ele>
        <time>2021-08-05T12:28:38.064Z</time>
      </trkpt>
      <trkpt lat="46.97381" lon="8.76527">
        <ele>620</ele>
        <time>2021-08-05T12:28:39.064Z</time>
      </trkpt>
      <trkpt lat="46.97384" lon="8.76528">
        <ele>620</ele>
        <time>2021-08-05T12:28:40.064Z</time>
      </trkpt>
      <trkpt lat="46.97386" lon="8.76528">
        <ele>619</ele>
        <time>2021-08-05T12:28:41.064Z</time>
      </trkpt>
      <trkpt lat="46.97388" lon="8.76528">
        <ele>619</ele>
        <time>2021-08-05T12:28:42.064Z</time>
      </trkpt>
      <trkpt lat="46.97391" lon="8.76527">
        <ele>617</ele>
        <time>2021-08-05T12:28:43.064Z</time>
      </trkpt>
      <trkpt lat="46.97391" lon="8.76527">
        <ele>617</ele>
        <time>2021-08-05T12:28:44.064Z</time>
      </trkpt>
      <trkpt lat="46.97391" lon="8.76527">
        <ele>616</ele>
        <time>2021-08-05T12:28:45.063Z</time>
      </trkpt>
      <trkpt lat="46.97391" lon="8.76528">
        <ele>616</ele>
        <time>2021-08-05T12:28:46.063Z</time>
      </trkpt>
      <trkpt lat="46.9739" lon="8.76528">
        <ele>615</ele>
        <time>2021-08-05T12:28:47.063Z</time>
      </trkpt>
      <trkpt lat="46.9739" lon="8.76527">
        <ele>615</ele>
        <time>2021-08-05T12:28:48.063Z</time>
      </trkpt>
      <trkpt lat="46.9739" lon="8.76526">
        <ele>614</ele>
        <time>2021-08-05T12:28:49.064Z</time>
      </trkpt>
      <trkpt lat="46.9739" lon="8.76525">
        <ele>614</ele>
        <time>2021-08-05T12:28:50.064Z</time>
      </trkpt>
      <trkpt lat="46.9739" lon="8.76525">
        <ele>614</ele>
        <time>2021-08-05T12:28:51.064Z</time>
      </trkpt>
      <trkpt lat="46.9739" lon="8.76524">
        <ele>614</ele>
        <time>2021-08-05T12:28:52.065Z</time>
      </trkpt>
      <trkpt lat="46.97391" lon="8.76523">
        <ele>614</ele>
        <time>2021-08-05T12:28:53.065Z</time>
      </trkpt>
      <trkpt lat="46.97391" lon="8.76523">
        <ele>614</ele>
        <time>2021-08-05T12:28:54.065Z</time>
      </trkpt>
      <trkpt lat="46.9739" lon="8.76523">
        <ele>614</ele>
        <time>2021-08-05T12:28:55.064Z</time>
      </trkpt>
      <trkpt lat="46.97389" lon="8.76524">
        <ele>615</ele>
        <time>2021-08-05T12:28:56.065Z</time>
      </trkpt>
      <trkpt lat="46.97388" lon="8.76525">
        <ele>615</ele>
        <time>2021-08-05T12:28:57.065Z</time>
      </trkpt>
      <trkpt lat="46.97387" lon="8.76526">
        <ele>615</ele>
        <time>2021-08-05T12:28:58.064Z</time>
      </trkpt>
      <trkpt lat="46.97385" lon="8.76527">
        <ele>615</ele>
        <time>2021-08-05T12:28:59.065Z</time>
      </trkpt>
      <trkpt lat="46.97383" lon="8.76528">
        <ele>615</ele>
        <time>2021-08-05T12:29:00.065Z</time>
      </trkpt>
      <trkpt lat="46.97382" lon="8.76528">
        <ele>616</ele>
        <time>2021-08-05T12:29:01.065Z</time>
      </trkpt>
      <trkpt lat="46.97382" lon="8.76528">
        <ele>616</ele>
        <time>2021-08-05T12:29:02.065Z</time>
      </trkpt>
      <trkpt lat="46.97382" lon="8.76527">
        <ele>616</ele>
        <time>2021-08-05T12:29:03.065Z</time>
      </trkpt>
      <trkpt lat="46.97382" lon="8.76527">
        <ele>617</ele>
        <time>2021-08-05T12:29:04.065Z</time>
      </trkpt>
      <trkpt lat="46.97383" lon="8.76528">
        <ele>617</ele>
        <time>2021-08-05T12:29:05.065Z</time>
      </trkpt>
      <trkpt lat="46.97385" lon="8.76528">
        <ele>618</ele>
        <time>2021-08-05T12:29:06.065Z</time>
      </trkpt>
      <trkpt lat="46.97386" lon="8.76528">
        <ele>618</ele>
        <time>2021-08-05T12:29:07.065Z</time>
      </trkpt>
      <trkpt lat="46.97387" lon="8.76528">
        <ele>619</ele>
        <time>2021-08-05T12:29:08.065Z</time>
      </trkpt>
      <trkpt lat="46.97388" lon="8.76528">
        <ele>619</ele>
        <time>2021-08-05T12:29:09.065Z</time>
      </trkpt>
      <trkpt lat="46.97389" lon="8.76528">
        <ele>620</ele>
        <time>2021-08-05T12:29:10.064Z</time>
      </trkpt>
      <trkpt lat="46.97395" lon="8.76525">
        <ele>622</ele>
        <time>2021-08-05T12:29:11.065Z</time>
      </trkpt>
      <trkpt lat="46.97396" lon="8.76524">
        <ele>622</ele>
        <time>2021-08-05T12:29:12.065Z</time>
      </trkpt>
      <trkpt lat="46.97397" lon="8.76522">
        <ele>622</ele>
        <time>2021-08-05T12:29:13.065Z</time>
      </trkpt>
      <trkpt lat="46.97397" lon="8.7652">
        <ele>623</ele>
        <time>2021-08-05T12:29:14.065Z</time>
      </trkpt>
      <trkpt lat="46.97397" lon="8.76518">
        <ele>623</ele>
        <time>2021-08-05T12:29:15.066Z</time>
      </trkpt>
      <trkpt lat="46.97397" lon="8.76516">
        <ele>623</ele>
        <time>2021-08-05T12:29:16.066Z</time>
      </trkpt>
      <trkpt lat="46.97397" lon="8.76515">
        <ele>623</ele>
        <time>2021-08-05T12:29:17.065Z</time>
      </trkpt>
      <trkpt lat="46.97397" lon="8.76514">
        <ele>623</ele>
        <time>2021-08-05T12:29:18.065Z</time>
      </trkpt>
      <trkpt lat="46.97397" lon="8.76514">
        <ele>623</ele>
        <time>2021-08-05T12:29:19.065Z</time>
      </trkpt>
      <trkpt lat="46.97398" lon="8.76514">
        <ele>623</ele>
        <time>2021-08-05T12:29:20.067Z</time>
      </trkpt>
      <trkpt lat="46.97399" lon="8.76514">
        <ele>623</ele>
        <time>2021-08-05T12:29:21.066Z</time>
      </trkpt>
      <trkpt lat="46.974" lon="8.76514">
        <ele>623</ele>
        <time>2021-08-05T12:29:22.067Z</time>
      </trkpt>
      <trkpt lat="46.974" lon="8.76513">
        <ele>622</ele>
        <time>2021-08-05T12:29:23.066Z</time>
      </trkpt>
      <trkpt lat="46.97401" lon="8.76513">
        <ele>623</ele>
        <time>2021-08-05T12:29:24.067Z</time>
      </trkpt>
      <trkpt lat="46.97401" lon="8.76512">
        <ele>623</ele>
        <time>2021-08-05T12:29:25.066Z</time>
      </trkpt>
      <trkpt lat="46.97401" lon="8.76512">
        <ele>623</ele>
        <time>2021-08-05T12:29:26.066Z</time>
      </trkpt>
      <trkpt lat="46.974" lon="8.76512">
        <ele>623</ele>
        <time>2021-08-05T12:29:27.067Z</time>
      </trkpt>
      <trkpt lat="46.974" lon="8.76512">
        <ele>623</ele>
        <time>2021-08-05T12:29:28.067Z</time>
      </trkpt>
      <trkpt lat="46.97399" lon="8.76511">
        <ele>623</ele>
        <time>2021-08-05T12:29:29.067Z</time>
      </trkpt>
      <trkpt lat="46.97398" lon="8.76511">
        <ele>623</ele>
        <time>2021-08-05T12:29:30.067Z</time>
      </trkpt>
      <trkpt lat="46.97397" lon="8.76511">
        <ele>622</ele>
        <time>2021-08-05T12:29:31.066Z</time>
      </trkpt>
      <trkpt lat="46.97398" lon="8.76511">
        <ele>622</ele>
        <time>2021-08-05T12:29:32.067Z</time>
      </trkpt>
      <trkpt lat="46.97398" lon="8.76512">
        <ele>622</ele>
        <time>2021-08-05T12:29:33.067Z</time>
      </trkpt>
      <trkpt lat="46.97399" lon="8.76512">
        <ele>622</ele>
        <time>2021-08-05T12:29:34.066Z</time>
      </trkpt>
      <trkpt lat="46.97399" lon="8.76512">
        <ele>622</ele>
        <time>2021-08-05T12:29:35.066Z</time>
      </trkpt>
      <trkpt lat="46.97398" lon="8.76513">
        <ele>621</ele>
        <time>2021-08-05T12:29:36.066Z</time>
      </trkpt>
      <trkpt lat="46.97398" lon="8.76513">
        <ele>621</ele>
        <time>2021-08-05T12:29:37.067Z</time>
      </trkpt>
      <trkpt lat="46.97401" lon="8.76515">
        <ele>620</ele>
        <time>2021-08-05T12:29:38.067Z</time>
      </trkpt>
      <trkpt lat="46.97402" lon="8.76516">
        <ele>620</ele>
        <time>2021-08-05T12:29:39.067Z</time>
      </trkpt>
      <trkpt lat="46.97403" lon="8.76516">
        <ele>620</ele>
        <time>2021-08-05T12:29:40.066Z</time>
      </trkpt>
      <trkpt lat="46.97403" lon="8.76516">
        <ele>620</ele>
        <time>2021-08-05T12:29:41.067Z</time>
      </trkpt>
      <trkpt lat="46.97404" lon="8.76517">
        <ele>619</ele>
        <time>2021-08-05T12:29:42.067Z</time>
      </trkpt>
      <trkpt lat="46.97404" lon="8.76517">
        <ele>619</ele>
        <time>2021-08-05T12:29:43.067Z</time>
      </trkpt>
      <trkpt lat="46.97405" lon="8.76517">
        <ele>619</ele>
        <time>2021-08-05T12:29:44.067Z</time>
      </trkpt>
      <trkpt lat="46.97406" lon="8.76517">
        <ele>619</ele>
        <time>2021-08-05T12:29:45.066Z</time>
      </trkpt>
      <trkpt lat="46.97407" lon="8.76517">
        <ele>619</ele>
        <time>2021-08-05T12:29:46.066Z</time>
      </trkpt>
      <trkpt lat="46.97407" lon="8.76517">
        <ele>619</ele>
        <time>2021-08-05T12:29:47.066Z</time>
      </trkpt>
      <trkpt lat="46.97407" lon="8.76516">
        <ele>619</ele>
        <time>2021-08-05T12:29:48.066Z</time>
      </trkpt>
      <trkpt lat="46.97408" lon="8.76516">
        <ele>619</ele>
        <time>2021-08-05T12:29:49.066Z</time>
      </trkpt>
      <trkpt lat="46.97408" lon="8.76516">
        <ele>619</ele>
        <time>2021-08-05T12:29:50.066Z</time>
      </trkpt>
      <trkpt lat="46.97408" lon="8.76517">
        <ele>620</ele>
        <time>2021-08-05T12:29:51.066Z</time>
      </trkpt>
      <trkpt lat="46.97408" lon="8.76518">
        <ele>620</ele>
        <time>2021-08-05T12:29:52.066Z</time>
      </trkpt>
      <trkpt lat="46.97408" lon="8.76519">
        <ele>621</ele>
        <time>2021-08-05T12:29:53.066Z</time>
      </trkpt>
      <trkpt lat="46.97409" lon="8.7652">
        <ele>621</ele>
        <time>2021-08-05T12:29:54.066Z</time>
      </trkpt>
      <trkpt lat="46.97409" lon="8.7652">
        <ele>622</ele>
        <time>2021-08-05T12:29:55.066Z</time>
      </trkpt>
      <trkpt lat="46.9741" lon="8.76519">
        <ele>622</ele>
        <time>2021-08-05T12:29:56.066Z</time>
      </trkpt>
      <trkpt lat="46.97411" lon="8.76519">
        <ele>623</ele>
        <time>2021-08-05T12:29:57.067Z</time>
      </trkpt>
      <trkpt lat="46.97409" lon="8.76516">
        <ele>624</ele>
        <time>2021-08-05T12:29:58.066Z</time>
      </trkpt>
      <trkpt lat="46.97409" lon="8.76516">
        <ele>625</ele>
        <time>2021-08-05T12:29:59.067Z</time>
      </trkpt>
      <trkpt lat="46.97409" lon="8.76515">
        <ele>625</ele>
        <time>2021-08-05T12:30:00.067Z</time>
      </trkpt>
      <trkpt lat="46.9741" lon="8.76514">
        <ele>625</ele>
        <time>2021-08-05T12:30:01.066Z</time>
      </trkpt>
      <trkpt lat="46.9741" lon="8.76514">
        <ele>625</ele>
        <time>2021-08-05T12:30:02.066Z</time>
      </trkpt>
      <trkpt lat="46.9741" lon="8.76517">
        <ele>626</ele>
        <time>2021-08-05T12:30:03.066Z</time>
      </trkpt>
      <trkpt lat="46.97409" lon="8.76519">
        <ele>626</ele>
        <time>2021-08-05T12:30:04.066Z</time>
      </trkpt>
      <trkpt lat="46.97409" lon="8.76521">
        <ele>626</ele>
        <time>2021-08-05T12:30:05.066Z</time>
      </trkpt>
      <trkpt lat="46.97409" lon="8.76522">
        <ele>626</ele>
        <time>2021-08-05T12:30:06.066Z</time>
      </trkpt>
      <trkpt lat="46.97409" lon="8.76524">
        <ele>626</ele>
        <time>2021-08-05T12:30:07.066Z</time>
      </trkpt>
      <trkpt lat="46.9741" lon="8.76524">
        <ele>626</ele>
        <time>2021-08-05T12:30:08.066Z</time>
      </trkpt>
      <trkpt lat="46.97411" lon="8.76525">
        <ele>626</ele>
        <time>2021-08-05T12:30:09.066Z</time>
      </trkpt>
      <trkpt lat="46.97412" lon="8.76524">
        <ele>627</ele>
        <time>2021-08-05T12:30:10.066Z</time>
      </trkpt>
      <trkpt lat="46.97412" lon="8.76524">
        <ele>627</ele>
        <time>2021-08-05T12:30:11.067Z</time>
      </trkpt>
      <trkpt lat="46.97411" lon="8.76524">
        <ele>627</ele>
        <time>2021-08-05T12:30:12.067Z</time>
      </trkpt>
      <trkpt lat="46.97411" lon="8.76524">
        <ele>627</ele>
        <time>2021-08-05T12:30:13.066Z</time>
      </trkpt>
      <trkpt lat="46.97411" lon="8.76525">
        <ele>628</ele>
        <time>2021-08-05T12:30:14.066Z</time>
      </trkpt>
      <trkpt lat="46.97411" lon="8.76525">
        <ele>628</ele>
        <time>2021-08-05T12:30:15.066Z</time>
      </trkpt>
      <trkpt lat="46.97412" lon="8.76525">
        <ele>629</ele>
        <time>2021-08-05T12:30:16.066Z</time>
      </trkpt>
      <trkpt lat="46.97411" lon="8.76526">
        <ele>629</ele>
        <time>2021-08-05T12:30:17.066Z</time>
      </trkpt>
      <trkpt lat="46.97409" lon="8.76528">
        <ele>629</ele>
        <time>2021-08-05T12:30:18.067Z</time>
      </trkpt>
      <trkpt lat="46.97407" lon="8.76529">
        <ele>629</ele>
        <time>2021-08-05T12:30:19.067Z</time>
      </trkpt>
      <trkpt lat="46.97406" lon="8.76531">
        <ele>629</ele>
        <time>2021-08-05T12:30:20.066Z</time>
      </trkpt>
      <trkpt lat="46.97406" lon="8.76531">
        <ele>630</ele>
        <time>2021-08-05T12:30:21.066Z</time>
      </trkpt>
      <trkpt lat="46.97406" lon="8.76532">
        <ele>630</ele>
        <time>2021-08-05T12:30:22.067Z</time>
      </trkpt>
      <trkpt lat="46.97406" lon="8.76532">
        <ele>631</ele>
        <time>2021-08-05T12:30:23.066Z</time>
      </trkpt>
      <trkpt lat="46.97407" lon="8.76533">
        <ele>631</ele>
        <time>2021-08-05T12:30:24.066Z</time>
      </trkpt>
      <trkpt lat="46.97407" lon="8.76534">
        <ele>631</ele>
        <time>2021-08-05T12:30:25.066Z</time>
      </trkpt>
      <trkpt lat="46.97407" lon="8.76535">
        <ele>631</ele>
        <time>2021-08-05T12:30:26.066Z</time>
      </trkpt>
      <trkpt lat="46.97407" lon="8.76536">
        <ele>631</ele>
        <time>2021-08-05T12:30:27.066Z</time>
      </trkpt>
      <trkpt lat="46.97407" lon="8.76538">
        <ele>631</ele>
        <time>2021-08-05T12:30:28.066Z</time>
      </trkpt>
      <trkpt lat="46.97406" lon="8.76539">
        <ele>631</ele>
        <time>2021-08-05T12:30:29.067Z</time>
      </trkpt>
      <trkpt lat="46.97406" lon="8.76541">
        <ele>631</ele>
        <time>2021-08-05T12:30:30.067Z</time>
      </trkpt>
      <trkpt lat="46.97406" lon="8.76542">
        <ele>631</ele>
        <time>2021-08-05T12:30:31.067Z</time>
      </trkpt>
      <trkpt lat="46.97405" lon="8.76543">
        <ele>631</ele>
        <time>2021-08-05T12:30:32.067Z</time>
      </trkpt>
      <trkpt lat="46.97405" lon="8.76544">
        <ele>631</ele>
        <time>2021-08-05T12:30:33.067Z</time>
      </trkpt>
      <trkpt lat="46.97404" lon="8.76545">
        <ele>631</ele>
        <time>2021-08-05T12:30:34.066Z</time>
      </trkpt>
      <trkpt lat="46.97404" lon="8.76545">
        <ele>631</ele>
        <time>2021-08-05T12:30:35.067Z</time>
      </trkpt>
      <trkpt lat="46.97405" lon="8.76546">
        <ele>631</ele>
        <time>2021-08-05T12:30:36.066Z</time>
      </trkpt>
      <trkpt lat="46.97405" lon="8.76547">
        <ele>631</ele>
        <time>2021-08-05T12:30:37.067Z</time>
      </trkpt>
      <trkpt lat="46.97404" lon="8.76548">
        <ele>631</ele>
        <time>2021-08-05T12:30:38.067Z</time>
      </trkpt>
      <trkpt lat="46.97403" lon="8.7655">
        <ele>631</ele>
        <time>2021-08-05T12:30:39.066Z</time>
      </trkpt>
      <trkpt lat="46.97402" lon="8.7655">
        <ele>631</ele>
        <time>2021-08-05T12:30:40.067Z</time>
      </trkpt>
      <trkpt lat="46.97404" lon="8.76548">
        <ele>631</ele>
        <time>2021-08-05T12:30:41.067Z</time>
      </trkpt>
      <trkpt lat="46.97405" lon="8.76545">
        <ele>631</ele>
        <time>2021-08-05T12:30:42.067Z</time>
      </trkpt>
      <trkpt lat="46.97405" lon="8.76544">
        <ele>631</ele>
        <time>2021-08-05T12:30:43.067Z</time>
      </trkpt>
      <trkpt lat="46.97406" lon="8.76543">
        <ele>631</ele>
        <time>2021-08-05T12:30:44.066Z</time>
      </trkpt>
      <trkpt lat="46.97406" lon="8.76542">
        <ele>632</ele>
        <time>2021-08-05T12:30:45.066Z</time>
      </trkpt>
      <trkpt lat="46.97407" lon="8.76541">
        <ele>632</ele>
        <time>2021-08-05T12:30:46.066Z</time>
      </trkpt>
      <trkpt lat="46.97409" lon="8.7654">
        <ele>632</ele>
        <time>2021-08-05T12:30:47.067Z</time>
      </trkpt>
      <trkpt lat="46.97411" lon="8.76539">
        <ele>633</ele>
        <time>2021-08-05T12:30:48.067Z</time>
      </trkpt>
      <trkpt lat="46.97412" lon="8.76538">
        <ele>633</ele>
        <time>2021-08-05T12:30:49.066Z</time>
      </trkpt>
      <trkpt lat="46.97413" lon="8.76538">
        <ele>634</ele>
        <time>2021-08-05T12:30:50.067Z</time>
      </trkpt>
      <trkpt lat="46.97412" lon="8.76538">
        <ele>634</ele>
        <time>2021-08-05T12:30:51.067Z</time>
      </trkpt>
      <trkpt lat="46.97412" lon="8.76538">
        <ele>634</ele>
        <time>2021-08-05T12:30:52.066Z</time>
      </trkpt>
      <trkpt lat="46.97411" lon="8.76538">
        <ele>635</ele>
        <time>2021-08-05T12:30:53.067Z</time>
      </trkpt>
      <trkpt lat="46.97411" lon="8.76538">
        <ele>635</ele>
        <time>2021-08-05T12:30:54.067Z</time>
      </trkpt>
      <trkpt lat="46.97411" lon="8.76537">
        <ele>635</ele>
        <time>2021-08-05T12:30:55.066Z</time>
      </trkpt>
      <trkpt lat="46.97411" lon="8.76536">
        <ele>635</ele>
        <time>2021-08-05T12:30:56.066Z</time>
      </trkpt>
      <trkpt lat="46.97412" lon="8.76535">
        <ele>636</ele>
        <time>2021-08-05T12:30:57.067Z</time>
      </trkpt>
      <trkpt lat="46.97412" lon="8.76535">
        <ele>636</ele>
        <time>2021-08-05T12:30:58.066Z</time>
      </trkpt>
      <trkpt lat="46.97412" lon="8.76535">
        <ele>636</ele>
        <time>2021-08-05T12:30:59.066Z</time>
      </trkpt>
      <trkpt lat="46.97414" lon="8.76534">
        <ele>637</ele>
        <time>2021-08-05T12:31:00.066Z</time>
      </trkpt>
      <trkpt lat="46.97415" lon="8.76534">
        <ele>637</ele>
        <time>2021-08-05T12:31:01.067Z</time>
      </trkpt>
      <trkpt lat="46.97415" lon="8.76533">
        <ele>638</ele>
        <time>2021-08-05T12:31:02.067Z</time>
      </trkpt>
      <trkpt lat="46.97415" lon="8.76532">
        <ele>638</ele>
        <time>2021-08-05T12:31:03.067Z</time>
      </trkpt>
      <trkpt lat="46.97415" lon="8.76532">
        <ele>638</ele>
        <time>2021-08-05T12:31:04.067Z</time>
      </trkpt>
      <trkpt lat="46.97415" lon="8.76532">
        <ele>638</ele>
        <time>2021-08-05T12:31:05.067Z</time>
      </trkpt>
      <trkpt lat="46.97414" lon="8.76532">
        <ele>639</ele>
        <time>2021-08-05T12:31:07.066Z</time>
      </trkpt>
      <trkpt lat="46.97414" lon="8.76533">
        <ele>639</ele>
        <time>2021-08-05T12:31:08.066Z</time>
      </trkpt>
      <trkpt lat="46.97414" lon="8.76533">
        <ele>639</ele>
        <time>2021-08-05T12:31:09.066Z</time>
      </trkpt>
      <trkpt lat="46.97412" lon="8.76533">
        <ele>639</ele>
        <time>2021-08-05T12:31:10.067Z</time>
      </trkpt>
      <trkpt lat="46.97412" lon="8.76534">
        <ele>639</ele>
        <time>2021-08-05T12:31:11.067Z</time>
      </trkpt>
      <trkpt lat="46.97411" lon="8.76533">
        <ele>639</ele>
        <time>2021-08-05T12:31:12.067Z</time>
      </trkpt>
      <trkpt lat="46.97411" lon="8.76533">
        <ele>639</ele>
        <time>2021-08-05T12:31:13.067Z</time>
      </trkpt>
      <trkpt lat="46.9741" lon="8.76532">
        <ele>639</ele>
        <time>2021-08-05T12:31:14.067Z</time>
      </trkpt>
      <trkpt lat="46.97411" lon="8.76531">
        <ele>640</ele>
        <time>2021-08-05T12:31:15.068Z</time>
      </trkpt>
      <trkpt lat="46.97411" lon="8.76531">
        <ele>640</ele>
        <time>2021-08-05T12:31:16.067Z</time>
      </trkpt>
      <trkpt lat="46.9741" lon="8.76531">
        <ele>640</ele>
        <time>2021-08-05T12:31:17.067Z</time>
      </trkpt>
      <trkpt lat="46.97409" lon="8.76531">
        <ele>640</ele>
        <time>2021-08-05T12:31:18.067Z</time>
      </trkpt>
      <trkpt lat="46.97408" lon="8.76532">
        <ele>640</ele>
        <time>2021-08-05T12:31:19.068Z</time>
      </trkpt>
      <trkpt lat="46.97407" lon="8.76532">
        <ele>639</ele>
        <time>2021-08-05T12:31:20.068Z</time>
      </trkpt>
      <trkpt lat="46.97407" lon="8.76532">
        <ele>639</ele>
        <time>2021-08-05T12:31:21.067Z</time>
      </trkpt>
      <trkpt lat="46.97407" lon="8.76531">
        <ele>639</ele>
        <time>2021-08-05T12:31:22.067Z</time>
      </trkpt>
      <trkpt lat="46.97406" lon="8.76532">
        <ele>639</ele>
        <time>2021-08-05T12:31:23.068Z</time>
      </trkpt>
      <trkpt lat="46.97406" lon="8.76531">
        <ele>639</ele>
        <time>2021-08-05T12:31:24.067Z</time>
      </trkpt>
      <trkpt lat="46.97406" lon="8.76531">
        <ele>639</ele>
        <time>2021-08-05T12:31:25.068Z</time>
      </trkpt>
      <trkpt lat="46.97405" lon="8.76531">
        <ele>639</ele>
        <time>2021-08-05T12:31:26.068Z</time>
      </trkpt>
      <trkpt lat="46.97405" lon="8.76531">
        <ele>638</ele>
        <time>2021-08-05T12:31:27.068Z</time>
      </trkpt>
      <trkpt lat="46.97404" lon="8.76531">
        <ele>638</ele>
        <time>2021-08-05T12:31:28.068Z</time>
      </trkpt>
      <trkpt lat="46.97395" lon="8.76534">
        <ele>635</ele>
        <time>2021-08-05T12:31:29.068Z</time>
      </trkpt>
      <trkpt lat="46.97394" lon="8.76534">
        <ele>634</ele>
        <time>2021-08-05T12:31:30.068Z</time>
      </trkpt>
      <trkpt lat="46.97395" lon="8.76532">
        <ele>634</ele>
        <time>2021-08-05T12:31:31.067Z</time>
      </trkpt>
      <trkpt lat="46.97395" lon="8.76531">
        <ele>633</ele>
        <time>2021-08-05T12:31:32.068Z</time>
      </trkpt>
      <trkpt lat="46.97395" lon="8.7653">
        <ele>632</ele>
        <time>2021-08-05T12:31:33.067Z</time>
      </trkpt>
      <trkpt lat="46.97395" lon="8.76528">
        <ele>627</ele>
        <time>2021-08-05T12:31:34.069Z</time>
      </trkpt>
      <trkpt lat="46.97396" lon="8.76528">
        <ele>627</ele>
        <time>2021-08-05T12:31:35.068Z</time>
      </trkpt>
      <trkpt lat="46.97396" lon="8.76527">
        <ele>627</ele>
        <time>2021-08-05T12:31:36.068Z</time>
      </trkpt>
      <trkpt lat="46.97396" lon="8.76527">
        <ele>626</ele>
        <time>2021-08-05T12:31:37.068Z</time>
      </trkpt>
      <trkpt lat="46.97394" lon="8.76526">
        <ele>625</ele>
        <time>2021-08-05T12:31:38.068Z</time>
      </trkpt>
      <trkpt lat="46.97395" lon="8.76527">
        <ele>625</ele>
        <time>2021-08-05T12:31:39.069Z</time>
      </trkpt>
      <trkpt lat="46.97397" lon="8.7652">
        <ele>624</ele>
        <time>2021-08-05T12:32:49.069Z</time>
      </trkpt>
      <trkpt lat="46.974" lon="8.76517">
        <ele>623</ele>
        <time>2021-08-05T12:32:50.069Z</time>
      </trkpt>
      <trkpt lat="46.974" lon="8.76515">
        <ele>622</ele>
        <time>2021-08-05T12:32:51.069Z</time>
      </trkpt>
      <trkpt lat="46.97398" lon="8.76518">
        <ele>622</ele>
        <time>2021-08-05T12:32:52.068Z</time>
      </trkpt>
      <trkpt lat="46.97391" lon="8.7651">
        <ele>618</ele>
        <time>2021-08-05T12:32:53.068Z</time>
      </trkpt>
      <trkpt lat="46.97392" lon="8.76509">
        <ele>618</ele>
        <time>2021-08-05T12:32:54.069Z</time>
      </trkpt>
      <trkpt lat="46.97393" lon="8.76507">
        <ele>617</ele>
        <time>2021-08-05T12:32:55.068Z</time>
      </trkpt>
      <trkpt lat="46.97393" lon="8.76505">
        <ele>617</ele>
        <time>2021-08-05T12:32:56.069Z</time>
      </trkpt>
      <trkpt lat="46.97394" lon="8.76504">
        <ele>616</ele>
        <time>2021-08-05T12:32:57.069Z</time>
      </trkpt>
      <trkpt lat="46.97393" lon="8.76503">
        <ele>616</ele>
        <time>2021-08-05T12:32:58.068Z</time>
      </trkpt>
      <trkpt lat="46.97393" lon="8.76503">
        <ele>616</ele>
        <time>2021-08-05T12:32:59.069Z</time>
      </trkpt>
      <trkpt lat="46.97392" lon="8.76503">
        <ele>616</ele>
        <time>2021-08-05T12:33:00.068Z</time>
      </trkpt>
      <trkpt lat="46.97392" lon="8.76504">
        <ele>615</ele>
        <time>2021-08-05T12:33:01.068Z</time>
      </trkpt>
      <trkpt lat="46.97392" lon="8.76506">
        <ele>615</ele>
        <time>2021-08-05T12:33:02.068Z</time>
      </trkpt>
      <trkpt lat="46.97391" lon="8.76507">
        <ele>615</ele>
        <time>2021-08-05T12:33:03.069Z</time>
      </trkpt>
      <trkpt lat="46.97391" lon="8.76507">
        <ele>615</ele>
        <time>2021-08-05T12:33:04.069Z</time>
      </trkpt>
      <trkpt lat="46.97391" lon="8.76508">
        <ele>614</ele>
        <time>2021-08-05T12:33:05.069Z</time>
      </trkpt>
      <trkpt lat="46.97391" lon="8.76508">
        <ele>614</ele>
        <time>2021-08-05T12:33:06.068Z</time>
      </trkpt>
      <trkpt lat="46.9739" lon="8.76509">
        <ele>614</ele>
        <time>2021-08-05T12:33:07.069Z</time>
      </trkpt>
      <trkpt lat="46.97389" lon="8.7651">
        <ele>614</ele>
        <time>2021-08-05T12:33:08.070Z</time>
      </trkpt>
      <trkpt lat="46.97389" lon="8.76511">
        <ele>614</ele>
        <time>2021-08-05T12:33:09.070Z</time>
      </trkpt>
      <trkpt lat="46.97389" lon="8.76512">
        <ele>614</ele>
        <time>2021-08-05T12:33:10.070Z</time>
      </trkpt>
      <trkpt lat="46.97389" lon="8.76512">
        <ele>614</ele>
        <time>2021-08-05T12:33:11.070Z</time>
      </trkpt>
      <trkpt lat="46.97388" lon="8.76512">
        <ele>615</ele>
        <time>2021-08-05T12:33:12.070Z</time>
      </trkpt>
      <trkpt lat="46.97388" lon="8.76513">
        <ele>615</ele>
        <time>2021-08-05T12:33:13.070Z</time>
      </trkpt>
      <trkpt lat="46.97388" lon="8.76513">
        <ele>615</ele>
        <time>2021-08-05T12:33:14.070Z</time>
      </trkpt>
      <trkpt lat="46.97388" lon="8.76512">
        <ele>615</ele>
        <time>2021-08-05T12:33:15.070Z</time>
      </trkpt>
      <trkpt lat="46.97388" lon="8.76511">
        <ele>615</ele>
        <time>2021-08-05T12:33:16.069Z</time>
      </trkpt>
      <trkpt lat="46.97387" lon="8.7651">
        <ele>615</ele>
        <time>2021-08-05T12:33:17.070Z</time>
      </trkpt>
      <trkpt lat="46.97387" lon="8.76509">
        <ele>615</ele>
        <time>2021-08-05T12:33:18.070Z</time>
      </trkpt>
      <trkpt lat="46.97388" lon="8.76505">
        <ele>615</ele>
        <time>2021-08-05T12:33:19.070Z</time>
      </trkpt>
      <trkpt lat="46.97387" lon="8.76501">
        <ele>615</ele>
        <time>2021-08-05T12:33:20.069Z</time>
      </trkpt>
      <trkpt lat="46.97386" lon="8.76498">
        <ele>615</ele>
        <time>2021-08-05T12:33:21.070Z</time>
      </trkpt>
      <trkpt lat="46.97384" lon="8.76496">
        <ele>614</ele>
        <time>2021-08-05T12:33:22.070Z</time>
      </trkpt>
      <trkpt lat="46.97384" lon="8.76496">
        <ele>614</ele>
        <time>2021-08-05T12:33:23.069Z</time>
      </trkpt>
      <trkpt lat="46.97383" lon="8.76495">
        <ele>614</ele>
        <time>2021-08-05T12:33:24.070Z</time>
      </trkpt>
      <trkpt lat="46.97383" lon="8.76495">
        <ele>613</ele>
        <time>2021-08-05T12:33:25.070Z</time>
      </trkpt>
      <trkpt lat="46.97384" lon="8.76494">
        <ele>613</ele>
        <time>2021-08-05T12:33:26.070Z</time>
      </trkpt>
      <trkpt lat="46.97385" lon="8.76493">
        <ele>613</ele>
        <time>2021-08-05T12:33:27.069Z</time>
      </trkpt>
      <trkpt lat="46.97385" lon="8.76493">
        <ele>613</ele>
        <time>2021-08-05T12:33:28.070Z</time>
      </trkpt>
      <trkpt lat="46.97413" lon="8.76528">
        <ele>613</ele>
        <time>2021-08-05T12:35:10.339Z</time>
      </trkpt>
      <trkpt lat="46.97411" lon="8.7653">
        <ele>614</ele>
        <time>2021-08-05T12:35:11.338Z</time>
      </trkpt>
      <trkpt lat="46.97413" lon="8.76531">
        <ele>615</ele>
        <time>2021-08-05T12:35:12.339Z</time>
      </trkpt>
      <trkpt lat="46.97414" lon="8.76531">
        <ele>616</ele>
        <time>2021-08-05T12:35:13.339Z</time>
      </trkpt>
      <trkpt lat="46.9741" lon="8.76531">
        <ele>617</ele>
        <time>2021-08-05T12:35:14.338Z</time>
      </trkpt>
      <trkpt lat="46.97406" lon="8.7653">
        <ele>617</ele>
        <time>2021-08-05T12:35:15.338Z</time>
      </trkpt>
      <trkpt lat="46.9741" lon="8.76531">
        <ele>619</ele>
        <time>2021-08-05T12:35:16.339Z</time>
      </trkpt>
      <trkpt lat="46.97412" lon="8.76531">
        <ele>620</ele>
        <time>2021-08-05T12:35:17.339Z</time>
      </trkpt>
      <trkpt lat="46.97414" lon="8.76529">
        <ele>622</ele>
        <time>2021-08-05T12:35:18.338Z</time>
      </trkpt>
      <trkpt lat="46.97412" lon="8.7653">
        <ele>623</ele>
        <time>2021-08-05T12:35:19.339Z</time>
      </trkpt>
      <trkpt lat="46.97412" lon="8.76532">
        <ele>624</ele>
        <time>2021-08-05T12:35:20.338Z</time>
      </trkpt>
      <trkpt lat="46.97409" lon="8.76534">
        <ele>626</ele>
        <time>2021-08-05T12:35:21.338Z</time>
      </trkpt>
      <trkpt lat="46.97409" lon="8.76537">
        <ele>627</ele>
        <time>2021-08-05T12:35:22.339Z</time>
      </trkpt>
      <trkpt lat="46.97407" lon="8.76538">
        <ele>627</ele>
        <time>2021-08-05T12:35:23.338Z</time>
      </trkpt>
      <trkpt lat="46.97404" lon="8.76536">
        <ele>628</ele>
        <time>2021-08-05T12:35:26.339Z</time>
      </trkpt>
      <trkpt lat="46.97407" lon="8.76538">
        <ele>632</ele>
        <time>2021-08-05T12:35:27.340Z</time>
      </trkpt>
      <trkpt lat="46.97408" lon="8.76539">
        <ele>633</ele>
        <time>2021-08-05T12:35:28.340Z</time>
      </trkpt>
      <trkpt lat="46.97409" lon="8.7654">
        <ele>634</ele>
        <time>2021-08-05T12:35:29.339Z</time>
      </trkpt>
      <trkpt lat="46.97409" lon="8.7654">
        <ele>635</ele>
        <time>2021-08-05T12:35:30.339Z</time>
      </trkpt>
      <trkpt lat="46.97409" lon="8.7654">
        <ele>637</ele>
        <time>2021-08-05T12:35:31.339Z</time>
      </trkpt>
      <trkpt lat="46.97409" lon="8.76539">
        <ele>638</ele>
        <time>2021-08-05T12:35:32.339Z</time>
      </trkpt>
      <trkpt lat="46.9741" lon="8.76538">
        <ele>639</ele>
        <time>2021-08-05T12:35:33.340Z</time>
      </trkpt>
      <trkpt lat="46.97411" lon="8.76538">
        <ele>640</ele>
        <time>2021-08-05T12:35:34.339Z</time>
      </trkpt>
      <trkpt lat="46.97411" lon="8.76537">
        <ele>641</ele>
        <time>2021-08-05T12:35:35.339Z</time>
      </trkpt>
      <trkpt lat="46.97413" lon="8.76538">
        <ele>642</ele>
        <time>2021-08-05T12:35:36.339Z</time>
      </trkpt>
      <trkpt lat="46.97415" lon="8.76538">
        <ele>643</ele>
        <time>2021-08-05T12:35:37.340Z</time>
      </trkpt>
      <trkpt lat="46.97416" lon="8.76538">
        <ele>645</ele>
        <time>2021-08-05T12:35:38.339Z</time>
      </trkpt>
      <trkpt lat="46.97418" lon="8.76539">
        <ele>646</ele>
        <time>2021-08-05T12:35:39.339Z</time>
      </trkpt>
      <trkpt lat="46.97419" lon="8.7654">
        <ele>647</ele>
        <time>2021-08-05T12:35:40.340Z</time>
      </trkpt>
      <trkpt lat="46.9742" lon="8.7654">
        <ele>648</ele>
        <time>2021-08-05T12:35:41.339Z</time>
      </trkpt>
      <trkpt lat="46.97422" lon="8.76542">
        <ele>650</ele>
        <time>2021-08-05T12:35:42.339Z</time>
      </trkpt>
      <trkpt lat="46.97423" lon="8.76542">
        <ele>651</ele>
        <time>2021-08-05T12:35:43.339Z</time>
      </trkpt>
      <trkpt lat="46.97424" lon="8.76543">
        <ele>652</ele>
        <time>2021-08-05T12:35:44.339Z</time>
      </trkpt>
      <trkpt lat="46.97424" lon="8.76543">
        <ele>653</ele>
        <time>2021-08-05T12:35:45.339Z</time>
      </trkpt>
      <trkpt lat="46.97424" lon="8.76542">
        <ele>654</ele>
        <time>2021-08-05T12:35:46.339Z</time>
      </trkpt>
      <trkpt lat="46.97424" lon="8.76542">
        <ele>655</ele>
        <time>2021-08-05T12:35:47.339Z</time>
      </trkpt>
      <trkpt lat="46.97424" lon="8.76542">
        <ele>656</ele>
        <time>2021-08-05T12:35:48.340Z</time>
      </trkpt>
      <trkpt lat="46.97425" lon="8.76542">
        <ele>657</ele>
        <time>2021-08-05T12:35:49.339Z</time>
      </trkpt>
      <trkpt lat="46.97426" lon="8.76542">
        <ele>658</ele>
        <time>2021-08-05T12:35:50.339Z</time>
      </trkpt>
      <trkpt lat="46.97426" lon="8.76541">
        <ele>659</ele>
        <time>2021-08-05T12:35:51.339Z</time>
      </trkpt>
      <trkpt lat="46.97427" lon="8.7654">
        <ele>660</ele>
        <time>2021-08-05T12:35:52.339Z</time>
      </trkpt>
      <trkpt lat="46.97427" lon="8.7654">
        <ele>660</ele>
        <time>2021-08-05T12:35:53.339Z</time>
      </trkpt>
      <trkpt lat="46.97427" lon="8.76539">
        <ele>661</ele>
        <time>2021-08-05T12:35:54.339Z</time>
      </trkpt>
      <trkpt lat="46.97427" lon="8.76539">
        <ele>662</ele>
        <time>2021-08-05T12:35:55.339Z</time>
      </trkpt>
      <trkpt lat="46.97427" lon="8.76538">
        <ele>663</ele>
        <time>2021-08-05T12:35:56.340Z</time>
      </trkpt>
      <trkpt lat="46.97427" lon="8.76537">
        <ele>664</ele>
        <time>2021-08-05T12:35:57.339Z</time>
      </trkpt>
      <trkpt lat="46.97427" lon="8.76536">
        <ele>665</ele>
        <time>2021-08-05T12:35:58.339Z</time>
      </trkpt>
      <trkpt lat="46.97427" lon="8.76536">
        <ele>666</ele>
        <time>2021-08-05T12:35:59.340Z</time>
      </trkpt>
      <trkpt lat="46.97427" lon="8.76536">
        <ele>666</ele>
        <time>2021-08-05T12:36:00.340Z</time>
      </trkpt>
      <trkpt lat="46.97427" lon="8.76535">
        <ele>667</ele>
        <time>2021-08-05T12:36:01.339Z</time>
      </trkpt>
      <trkpt lat="46.97427" lon="8.76537">
        <ele>671</ele>
        <time>2021-08-05T12:36:02.339Z</time>
      </trkpt>
      <trkpt lat="46.97426" lon="8.76536">
        <ele>670</ele>
        <time>2021-08-05T12:36:03.339Z</time>
      </trkpt>
      <trkpt lat="46.97425" lon="8.76536">
        <ele>670</ele>
        <time>2021-08-05T12:36:04.339Z</time>
      </trkpt>
      <trkpt lat="46.97425" lon="8.76536">
        <ele>670</ele>
        <time>2021-08-05T12:36:05.339Z</time>
      </trkpt>
      <trkpt lat="46.97425" lon="8.76537">
        <ele>670</ele>
        <time>2021-08-05T12:36:06.340Z</time>
      </trkpt>
      <trkpt lat="46.97425" lon="8.76536">
        <ele>670</ele>
        <time>2021-08-05T12:36:07.340Z</time>
      </trkpt>
      <trkpt lat="46.97425" lon="8.76535">
        <ele>670</ele>
        <time>2021-08-05T12:36:08.340Z</time>
      </trkpt>
      <trkpt lat="46.97425" lon="8.76535">
        <ele>670</ele>
        <time>2021-08-05T12:36:09.340Z</time>
      </trkpt>
      <trkpt lat="46.97425" lon="8.76535">
        <ele>670</ele>
        <time>2021-08-05T12:36:10.341Z</time>
      </trkpt>
      <trkpt lat="46.97424" lon="8.76535">
        <ele>670</ele>
        <time>2021-08-05T12:36:11.340Z</time>
      </trkpt>
      <trkpt lat="46.97423" lon="8.76535">
        <ele>669</ele>
        <time>2021-08-05T12:36:12.341Z</time>
      </trkpt>
      <trkpt lat="46.97422" lon="8.76535">
        <ele>669</ele>
        <time>2021-08-05T12:36:13.340Z</time>
      </trkpt>
      <trkpt lat="46.9742" lon="8.76534">
        <ele>669</ele>
        <time>2021-08-05T12:36:14.340Z</time>
      </trkpt>
      <trkpt lat="46.97419" lon="8.76534">
        <ele>669</ele>
        <time>2021-08-05T12:36:15.340Z</time>
      </trkpt>
      <trkpt lat="46.97419" lon="8.76533">
        <ele>669</ele>
        <time>2021-08-05T12:36:16.341Z</time>
      </trkpt>
      <trkpt lat="46.97418" lon="8.76532">
        <ele>669</ele>
        <time>2021-08-05T12:36:17.341Z</time>
      </trkpt>
      <trkpt lat="46.97418" lon="8.76532">
        <ele>668</ele>
        <time>2021-08-05T12:36:18.341Z</time>
      </trkpt>
      <trkpt lat="46.97418" lon="8.76531">
        <ele>668</ele>
        <time>2021-08-05T12:36:19.341Z</time>
      </trkpt>
      <trkpt lat="46.97418" lon="8.76531">
        <ele>668</ele>
        <time>2021-08-05T12:36:20.340Z</time>
      </trkpt>
      <trkpt lat="46.97417" lon="8.76532">
        <ele>668</ele>
        <time>2021-08-05T12:36:21.343Z</time>
      </trkpt>
      <trkpt lat="46.97416" lon="8.76533">
        <ele>668</ele>
        <time>2021-08-05T12:36:22.343Z</time>
      </trkpt>
      <trkpt lat="46.97416" lon="8.76534">
        <ele>667</ele>
        <time>2021-08-05T12:36:23.342Z</time>
      </trkpt>
      <trkpt lat="46.97415" lon="8.76534">
        <ele>667</ele>
        <time>2021-08-05T12:36:24.343Z</time>
      </trkpt>
      <trkpt lat="46.97414" lon="8.76535">
        <ele>667</ele>
        <time>2021-08-05T12:36:25.343Z</time>
      </trkpt>
      <trkpt lat="46.97414" lon="8.76535">
        <ele>667</ele>
        <time>2021-08-05T12:36:26.343Z</time>
      </trkpt>
      <trkpt lat="46.97414" lon="8.76535">
        <ele>666</ele>
        <time>2021-08-05T12:36:27.343Z</time>
      </trkpt>
      <trkpt lat="46.97414" lon="8.76534">
        <ele>666</ele>
        <time>2021-08-05T12:36:28.343Z</time>
      </trkpt>
      <trkpt lat="46.97414" lon="8.76534">
        <ele>666</ele>
        <time>2021-08-05T12:36:29.343Z</time>
      </trkpt>
      <trkpt lat="46.97414" lon="8.76536">
        <ele>665</ele>
        <time>2021-08-05T12:36:30.342Z</time>
      </trkpt>
      <trkpt lat="46.97414" lon="8.76536">
        <ele>665</ele>
        <time>2021-08-05T12:36:31.342Z</time>
      </trkpt>
      <trkpt lat="46.97404" lon="8.76549">
        <ele>664</ele>
        <time>2021-08-05T12:37:05.343Z</time>
      </trkpt>
      <trkpt lat="46.97405" lon="8.76556">
        <ele>664</ele>
        <time>2021-08-05T12:37:07.342Z</time>
      </trkpt>
      <trkpt lat="46.97406" lon="8.76558">
        <ele>664</ele>
        <time>2021-08-05T12:37:08.342Z</time>
      </trkpt>
      <trkpt lat="46.97407" lon="8.76559">
        <ele>664</ele>
        <time>2021-08-05T12:37:11.446Z</time>
      </trkpt>
      <trkpt lat="46.97408" lon="8.7656">
        <ele>664</ele>
        <time>2021-08-05T12:37:12.446Z</time>
      </trkpt>
      <trkpt lat="46.97408" lon="8.76559">
        <ele>664</ele>
        <time>2021-08-05T12:37:13.445Z</time>
      </trkpt>
      <trkpt lat="46.97407" lon="8.76558">
        <ele>663</ele>
        <time>2021-08-05T12:37:14.445Z</time>
      </trkpt>
      <trkpt lat="46.97406" lon="8.76558">
        <ele>663</ele>
        <time>2021-08-05T12:37:15.446Z</time>
      </trkpt>
      <trkpt lat="46.97405" lon="8.76559">
        <ele>662</ele>
        <time>2021-08-05T12:37:16.445Z</time>
      </trkpt>
      <trkpt lat="46.97404" lon="8.7656">
        <ele>661</ele>
        <time>2021-08-05T12:37:17.446Z</time>
      </trkpt>
      <trkpt lat="46.97402" lon="8.76561">
        <ele>660</ele>
        <time>2021-08-05T12:37:18.446Z</time>
      </trkpt>
      <trkpt lat="46.97401" lon="8.76561">
        <ele>659</ele>
        <time>2021-08-05T12:37:19.445Z</time>
      </trkpt>
      <trkpt lat="46.974" lon="8.7656">
        <ele>658</ele>
        <time>2021-08-05T12:37:20.446Z</time>
      </trkpt>
      <trkpt lat="46.974" lon="8.76559">
        <ele>657</ele>
        <time>2021-08-05T12:37:21.446Z</time>
      </trkpt>
      <trkpt lat="46.97401" lon="8.76559">
        <ele>656</ele>
        <time>2021-08-05T12:37:22.445Z</time>
      </trkpt>
      <trkpt lat="46.97403" lon="8.76558">
        <ele>655</ele>
        <time>2021-08-05T12:37:23.446Z</time>
      </trkpt>
      <trkpt lat="46.97403" lon="8.76557">
        <ele>655</ele>
        <time>2021-08-05T12:37:24.447Z</time>
      </trkpt>
      <trkpt lat="46.97403" lon="8.76556">
        <ele>655</ele>
        <time>2021-08-05T12:37:25.446Z</time>
      </trkpt>
      <trkpt lat="46.97402" lon="8.76551">
        <ele>653</ele>
        <time>2021-08-05T12:37:26.448Z</time>
      </trkpt>
      <trkpt lat="46.97402" lon="8.76549">
        <ele>652</ele>
        <time>2021-08-05T12:37:27.448Z</time>
      </trkpt>
      <trkpt lat="46.97403" lon="8.76548">
        <ele>652</ele>
        <time>2021-08-05T12:37:28.448Z</time>
      </trkpt>
      <trkpt lat="46.97403" lon="8.76547">
        <ele>651</ele>
        <time>2021-08-05T12:37:29.448Z</time>
      </trkpt>
      <trkpt lat="46.97402" lon="8.76537">
        <ele>649</ele>
        <time>2021-08-05T12:37:41.567Z</time>
      </trkpt>
      <trkpt lat="46.97401" lon="8.76538">
        <ele>648</ele>
        <time>2021-08-05T12:37:52.566Z</time>
      </trkpt>
      <trkpt lat="46.97401" lon="8.76538">
        <ele>648</ele>
        <time>2021-08-05T12:37:53.567Z</time>
      </trkpt>
      <trkpt lat="46.97401" lon="8.76539">
        <ele>648</ele>
        <time>2021-08-05T12:37:54.566Z</time>
      </trkpt>
      <trkpt lat="46.974" lon="8.76538">
        <ele>648</ele>
        <time>2021-08-05T12:37:55.567Z</time>
      </trkpt>
      <trkpt lat="46.974" lon="8.76539">
        <ele>648</ele>
        <time>2021-08-05T12:37:56.567Z</time>
      </trkpt>
      <trkpt lat="46.97399" lon="8.76538">
        <ele>648</ele>
        <time>2021-08-05T12:37:57.566Z</time>
      </trkpt>
      <trkpt lat="46.97399" lon="8.76538">
        <ele>648</ele>
        <time>2021-08-05T12:37:58.567Z</time>
      </trkpt>
      <trkpt lat="46.97399" lon="8.76538">
        <ele>648</ele>
        <time>2021-08-05T12:37:59.566Z</time>
      </trkpt>
      <trkpt lat="46.97399" lon="8.76537">
        <ele>648</ele>
        <time>2021-08-05T12:38:00.567Z</time>
      </trkpt>
      <trkpt lat="46.97399" lon="8.76536">
        <ele>648</ele>
        <time>2021-08-05T12:38:01.566Z</time>
      </trkpt>
      <trkpt lat="46.97399" lon="8.76534">
        <ele>648</ele>
        <time>2021-08-05T12:38:02.567Z</time>
      </trkpt>
      <trkpt lat="46.97399" lon="8.76532">
        <ele>647</ele>
        <time>2021-08-05T12:38:03.566Z</time>
      </trkpt>
      <trkpt lat="46.97399" lon="8.7653">
        <ele>647</ele>
        <time>2021-08-05T12:38:04.567Z</time>
      </trkpt>
      <trkpt lat="46.97398" lon="8.76529">
        <ele>647</ele>
        <time>2021-08-05T12:38:05.567Z</time>
      </trkpt>
      <trkpt lat="46.97397" lon="8.76529">
        <ele>647</ele>
        <time>2021-08-05T12:38:06.567Z</time>
      </trkpt>
      <trkpt lat="46.97396" lon="8.7653">
        <ele>647</ele>
        <time>2021-08-05T12:38:07.567Z</time>
      </trkpt>
      <trkpt lat="46.97393" lon="8.76531">
        <ele>646</ele>
        <time>2021-08-05T12:38:08.567Z</time>
      </trkpt>
      <trkpt lat="46.97392" lon="8.76531">
        <ele>646</ele>
        <time>2021-08-05T12:38:09.567Z</time>
      </trkpt>
      <trkpt lat="46.97391" lon="8.76529">
        <ele>645</ele>
        <time>2021-08-05T12:38:10.567Z</time>
      </trkpt>
      <trkpt lat="46.97391" lon="8.76528">
        <ele>645</ele>
        <time>2021-08-05T12:38:11.566Z</time>
      </trkpt>
      <trkpt lat="46.97391" lon="8.76526">
        <ele>644</ele>
        <time>2021-08-05T12:38:12.566Z</time>
      </trkpt>
      <trkpt lat="46.97392" lon="8.76524">
        <ele>644</ele>
        <time>2021-08-05T12:38:13.567Z</time>
      </trkpt>
      <trkpt lat="46.97392" lon="8.76522">
        <ele>644</ele>
        <time>2021-08-05T12:38:14.566Z</time>
      </trkpt>
      <trkpt lat="46.97393" lon="8.7652">
        <ele>643</ele>
        <time>2021-08-05T12:38:15.567Z</time>
      </trkpt>
      <trkpt lat="46.97394" lon="8.76519">
        <ele>643</ele>
        <time>2021-08-05T12:38:16.567Z</time>
      </trkpt>
      <trkpt lat="46.97394" lon="8.76518">
        <ele>642</ele>
        <time>2021-08-05T12:38:17.566Z</time>
      </trkpt>
      <trkpt lat="46.97404" lon="8.76522">
        <ele>641</ele>
        <time>2021-08-05T12:38:52.566Z</time>
      </trkpt>
      <trkpt lat="46.97402" lon="8.76524">
        <ele>641</ele>
        <time>2021-08-05T12:38:53.566Z</time>
      </trkpt>
      <trkpt lat="46.97396" lon="8.76521">
        <ele>640</ele>
        <time>2021-08-05T12:38:54.566Z</time>
      </trkpt>
      <trkpt lat="46.97394" lon="8.76517">
        <ele>640</ele>
        <time>2021-08-05T12:38:55.567Z</time>
      </trkpt>
      <trkpt lat="46.97397" lon="8.76512">
        <ele>638</ele>
        <time>2021-08-05T12:38:58.567Z</time>
      </trkpt>
      <trkpt lat="46.97399" lon="8.76507">
        <ele>638</ele>
        <time>2021-08-05T12:38:59.567Z</time>
      </trkpt>
      <trkpt lat="46.97401" lon="8.76506">
        <ele>637</ele>
        <time>2021-08-05T12:39:00.566Z</time>
      </trkpt>
      <trkpt lat="46.97402" lon="8.76506">
        <ele>637</ele>
        <time>2021-08-05T12:39:04.688Z</time>
      </trkpt>
      <trkpt lat="46.97401" lon="8.76506">
        <ele>636</ele>
        <time>2021-08-05T12:39:05.688Z</time>
      </trkpt>
      <trkpt lat="46.974" lon="8.76506">
        <ele>636</ele>
        <time>2021-08-05T12:39:07.688Z</time>
      </trkpt>
      <trkpt lat="46.974" lon="8.76507">
        <ele>636</ele>
        <time>2021-08-05T12:39:08.688Z</time>
      </trkpt>
      <trkpt lat="46.97399" lon="8.76508">
        <ele>635</ele>
        <time>2021-08-05T12:39:09.687Z</time>
      </trkpt>
      <trkpt lat="46.97398" lon="8.76511">
        <ele>635</ele>
        <time>2021-08-05T12:39:15.672Z</time>
      </trkpt>
      <trkpt lat="46.97398" lon="8.76514">
        <ele>634</ele>
        <time>2021-08-05T12:39:16.673Z</time>
      </trkpt>
      <trkpt lat="46.97398" lon="8.76515">
        <ele>634</ele>
        <time>2021-08-05T12:39:17.673Z</time>
      </trkpt>
      <trkpt lat="46.97397" lon="8.76515">
        <ele>633</ele>
        <time>2021-08-05T12:39:18.672Z</time>
      </trkpt>
      <trkpt lat="46.97397" lon="8.76515">
        <ele>633</ele>
        <time>2021-08-05T12:39:22.671Z</time>
      </trkpt>
      <trkpt lat="46.97396" lon="8.76516">
        <ele>632</ele>
        <time>2021-08-05T12:39:24.671Z</time>
      </trkpt>
      <trkpt lat="46.97396" lon="8.76515">
        <ele>632</ele>
        <time>2021-08-05T12:39:25.670Z</time>
      </trkpt>
      <trkpt lat="46.97395" lon="8.76517">
        <ele>631</ele>
        <time>2021-08-05T12:39:27.671Z</time>
      </trkpt>
      <trkpt lat="46.97395" lon="8.76516">
        <ele>631</ele>
        <time>2021-08-05T12:39:30.670Z</time>
      </trkpt>
      <trkpt lat="46.97396" lon="8.76516">
        <ele>630</ele>
        <time>2021-08-05T12:39:31.670Z</time>
      </trkpt>
      <trkpt lat="46.97396" lon="8.76516">
        <ele>630</ele>
        <time>2021-08-05T12:39:38.805Z</time>
      </trkpt>
      <trkpt lat="46.97396" lon="8.76515">
        <ele>630</ele>
        <time>2021-08-05T12:39:43.698Z</time>
      </trkpt>
      <trkpt lat="46.97396" lon="8.76516">
        <ele>629</ele>
        <time>2021-08-05T12:39:44.697Z</time>
      </trkpt>
      <trkpt lat="46.97396" lon="8.76515">
        <ele>629</ele>
        <time>2021-08-05T12:39:45.697Z</time>
      </trkpt>
      <trkpt lat="46.97395" lon="8.76516">
        <ele>628</ele>
        <time>2021-08-05T12:39:52.545Z</time>
      </trkpt>
      <trkpt lat="46.97394" lon="8.76521">
        <ele>627</ele>
        <time>2021-08-05T12:39:54.546Z</time>
      </trkpt>
      <trkpt lat="46.97394" lon="8.76523">
        <ele>627</ele>
        <time>2021-08-05T12:39:55.545Z</time>
      </trkpt>
      <trkpt lat="46.97393" lon="8.76523">
        <ele>626</ele>
        <time>2021-08-05T12:39:59.687Z</time>
      </trkpt>
      <trkpt lat="46.97392" lon="8.76523">
        <ele>626</ele>
        <time>2021-08-05T12:40:00.687Z</time>
      </trkpt>
      <trkpt lat="46.97391" lon="8.76523">
        <ele>626</ele>
        <time>2021-08-05T12:40:01.687Z</time>
      </trkpt>
      <trkpt lat="46.9739" lon="8.76522">
        <ele>625</ele>
        <time>2021-08-05T12:40:02.687Z</time>
      </trkpt>
      <trkpt lat="46.9739" lon="8.7652">
        <ele>625</ele>
        <time>2021-08-05T12:40:03.687Z</time>
      </trkpt>
      <trkpt lat="46.97392" lon="8.76516">
        <ele>624</ele>
        <time>2021-08-05T12:40:04.687Z</time>
      </trkpt>
      <trkpt lat="46.97392" lon="8.76516">
        <ele>624</ele>
        <time>2021-08-05T12:40:05.687Z</time>
      </trkpt>
      <trkpt lat="46.97392" lon="8.76516">
        <ele>624</ele>
        <time>2021-08-05T12:40:06.686Z</time>
      </trkpt>
      <trkpt lat="46.97392" lon="8.76515">
        <ele>623</ele>
        <time>2021-08-05T12:40:07.687Z</time>
      </trkpt>
      <trkpt lat="46.97392" lon="8.76516">
        <ele>623</ele>
        <time>2021-08-05T12:40:08.687Z</time>
      </trkpt>
      <trkpt lat="46.97391" lon="8.76517">
        <ele>622</ele>
        <time>2021-08-05T12:40:09.686Z</time>
      </trkpt>
      <trkpt lat="46.97391" lon="8.76518">
        <ele>622</ele>
        <time>2021-08-05T12:40:10.687Z</time>
      </trkpt>
      <trkpt lat="46.9739" lon="8.76518">
        <ele>621</ele>
        <time>2021-08-05T12:40:11.687Z</time>
      </trkpt>
      <trkpt lat="46.97389" lon="8.76518">
        <ele>621</ele>
        <time>2021-08-05T12:40:12.687Z</time>
      </trkpt>
      <trkpt lat="46.97389" lon="8.76517">
        <ele>620</ele>
        <time>2021-08-05T12:40:13.687Z</time>
      </trkpt>
      <trkpt lat="46.97388" lon="8.76515">
        <ele>620</ele>
        <time>2021-08-05T12:40:14.687Z</time>
      </trkpt>
      <trkpt lat="46.97389" lon="8.76513">
        <ele>619</ele>
        <time>2021-08-05T12:40:15.687Z</time>
      </trkpt>
      <trkpt lat="46.9739" lon="8.76508">
        <ele>619</ele>
        <time>2021-08-05T12:40:16.687Z</time>
      </trkpt>
      <trkpt lat="46.97391" lon="8.76502">
        <ele>618</ele>
        <time>2021-08-05T12:40:17.686Z</time>
      </trkpt>
      <trkpt lat="46.97391" lon="8.76493">
        <ele>618</ele>
        <time>2021-08-05T12:40:18.687Z</time>
      </trkpt>
      <trkpt lat="46.97391" lon="8.76488">
        <ele>617</ele>
        <time>2021-08-05T12:40:19.687Z</time>
      </trkpt>
      <trkpt lat="46.97391" lon="8.76486">
        <ele>617</ele>
        <time>2021-08-05T12:40:20.687Z</time>
      </trkpt>
      <trkpt lat="46.9739" lon="8.76485">
        <ele>616</ele>
        <time>2021-08-05T12:40:22.811Z</time>
      </trkpt>
      <trkpt lat="46.9739" lon="8.76485">
        <ele>616</ele>
        <time>2021-08-05T12:40:23.812Z</time>
      </trkpt>
      <trkpt lat="46.9739" lon="8.76485">
        <ele>615</ele>
        <time>2021-08-05T12:40:24.812Z</time>
      </trkpt>
      <trkpt lat="46.9739" lon="8.76485">
        <ele>615</ele>
        <time>2021-08-05T12:40:25.811Z</time>
      </trkpt>
      <trkpt lat="46.9739" lon="8.76486">
        <ele>614</ele>
        <time>2021-08-05T12:40:31.936Z</time>
      </trkpt>
      <trkpt lat="46.97389" lon="8.76486">
        <ele>613</ele>
        <time>2021-08-05T12:40:32.936Z</time>
      </trkpt>
      <trkpt lat="46.97389" lon="8.76484">
        <ele>612</ele>
        <time>2021-08-05T12:40:33.936Z</time>
      </trkpt>
      <trkpt lat="46.9739" lon="8.76482">
        <ele>611</ele>
        <time>2021-08-05T12:40:37.050Z</time>
      </trkpt>
      <trkpt lat="46.97391" lon="8.76481">
        <ele>611</ele>
        <time>2021-08-05T12:40:38.049Z</time>
      </trkpt>
      <trkpt lat="46.97391" lon="8.76481">
        <ele>610</ele>
        <time>2021-08-05T12:40:39.050Z</time>
      </trkpt>
      <trkpt lat="46.97392" lon="8.76482">
        <ele>610</ele>
        <time>2021-08-05T12:40:40.049Z</time>
      </trkpt>
      <trkpt lat="46.97392" lon="8.76484">
        <ele>610</ele>
        <time>2021-08-05T12:40:41.050Z</time>
      </trkpt>
      <trkpt lat="46.97392" lon="8.76487">
        <ele>609</ele>
        <time>2021-08-05T12:40:42.049Z</time>
      </trkpt>
      <trkpt lat="46.97392" lon="8.76488">
        <ele>609</ele>
        <time>2021-08-05T12:40:44.179Z</time>
      </trkpt>
      <trkpt lat="46.97391" lon="8.76489">
        <ele>609</ele>
        <time>2021-08-05T12:40:45.179Z</time>
      </trkpt>
      <trkpt lat="46.97391" lon="8.7649">
        <ele>609</ele>
        <time>2021-08-05T12:40:46.179Z</time>
      </trkpt>
      <trkpt lat="46.97391" lon="8.7649">
        <ele>608</ele>
        <time>2021-08-05T12:40:47.179Z</time>
      </trkpt>
      <trkpt lat="46.97391" lon="8.76491">
        <ele>608</ele>
        <time>2021-08-05T12:40:53.198Z</time>
      </trkpt>
      <trkpt lat="46.97392" lon="8.76491">
        <ele>608</ele>
        <time>2021-08-05T12:40:54.199Z</time>
      </trkpt>
      <trkpt lat="46.97392" lon="8.76491">
        <ele>608</ele>
        <time>2021-08-05T12:40:55.198Z</time>
      </trkpt>
      <trkpt lat="46.97392" lon="8.76492">
        <ele>608</ele>
        <time>2021-08-05T12:41:27.319Z</time>
      </trkpt>
      <trkpt lat="46.97392" lon="8.76493">
        <ele>608</ele>
        <time>2021-08-05T12:41:28.319Z</time>
      </trkpt>
      <trkpt lat="46.97392" lon="8.76496">
        <ele>608</ele>
        <time>2021-08-05T12:41:37.476Z</time>
      </trkpt>
      <trkpt lat="46.97391" lon="8.76498">
        <ele>608</ele>
        <time>2021-08-05T12:41:38.476Z</time>
      </trkpt>
      <trkpt lat="46.97391" lon="8.76499">
        <ele>608</ele>
        <time>2021-08-05T12:41:39.476Z</time>
      </trkpt>
      <trkpt lat="46.9739" lon="8.76506">
        <ele>608</ele>
        <time>2021-08-05T12:41:40.475Z</time>
      </trkpt>
      <trkpt lat="46.9739" lon="8.76506">
        <ele>608</ele>
        <time>2021-08-05T12:41:41.476Z</time>
      </trkpt>
      <trkpt lat="46.97389" lon="8.76508">
        <ele>608</ele>
        <time>2021-08-05T12:42:07.593Z</time>
      </trkpt>
      <trkpt lat="46.97388" lon="8.76509">
        <ele>608</ele>
        <time>2021-08-05T12:42:08.593Z</time>
      </trkpt>
      <trkpt lat="46.97387" lon="8.7651">
        <ele>608</ele>
        <time>2021-08-05T12:42:09.594Z</time>
      </trkpt>
      <trkpt lat="46.97385" lon="8.76511">
        <ele>607</ele>
        <time>2021-08-05T12:42:10.593Z</time>
      </trkpt>
      <trkpt lat="46.97383" lon="8.76514">
        <ele>607</ele>
        <time>2021-08-05T12:42:21.672Z</time>
      </trkpt>
      <trkpt lat="46.9738" lon="8.76515">
        <ele>607</ele>
        <time>2021-08-05T12:42:22.671Z</time>
      </trkpt>
      <trkpt lat="46.9738" lon="8.76516">
        <ele>607</ele>
        <time>2021-08-05T12:42:28.556Z</time>
      </trkpt>
      <trkpt lat="46.97381" lon="8.76518">
        <ele>607</ele>
        <time>2021-08-05T12:42:29.555Z</time>
      </trkpt>
      <trkpt lat="46.97381" lon="8.76519">
        <ele>607</ele>
        <time>2021-08-05T12:42:52.475Z</time>
      </trkpt>
      <trkpt lat="46.97381" lon="8.7652">
        <ele>608</ele>
        <time>2021-08-05T12:42:53.475Z</time>
      </trkpt>
      <trkpt lat="46.9738" lon="8.7652">
        <ele>608</ele>
        <time>2021-08-05T12:42:54.475Z</time>
      </trkpt>
      <trkpt lat="46.97379" lon="8.7652">
        <ele>608</ele>
        <time>2021-08-05T12:43:00.544Z</time>
      </trkpt>
      <trkpt lat="46.97379" lon="8.7652">
        <ele>609</ele>
        <time>2021-08-05T12:43:01.545Z</time>
      </trkpt>
      <trkpt lat="46.97379" lon="8.7652">
        <ele>609</ele>
        <time>2021-08-05T12:43:02.544Z</time>
      </trkpt>
      <trkpt lat="46.97379" lon="8.76521">
        <ele>609</ele>
        <time>2021-08-05T12:43:03.544Z</time>
      </trkpt>
      <trkpt lat="46.97378" lon="8.76521">
        <ele>610</ele>
        <time>2021-08-05T12:43:16.572Z</time>
      </trkpt>
      <trkpt lat="46.97378" lon="8.76523">
        <ele>610</ele>
        <time>2021-08-05T12:43:17.572Z</time>
      </trkpt>
      <trkpt lat="46.97378" lon="8.76524">
        <ele>611</ele>
        <time>2021-08-05T12:43:18.572Z</time>
      </trkpt>
      <trkpt lat="46.97378" lon="8.76525">
        <ele>612</ele>
        <time>2021-08-05T12:43:19.572Z</time>
      </trkpt>
      <trkpt lat="46.97378" lon="8.76525">
        <ele>612</ele>
        <time>2021-08-05T12:43:32.699Z</time>
      </trkpt>
      <trkpt lat="46.97378" lon="8.76524">
        <ele>613</ele>
        <time>2021-08-05T12:43:33.700Z</time>
      </trkpt>
      <trkpt lat="46.97379" lon="8.76524">
        <ele>614</ele>
        <time>2021-08-05T12:43:39.548Z</time>
      </trkpt>
      <trkpt lat="46.9738" lon="8.76523">
        <ele>615</ele>
        <time>2021-08-05T12:43:40.547Z</time>
      </trkpt>
      <trkpt lat="46.9738" lon="8.76523">
        <ele>615</ele>
        <time>2021-08-05T12:43:41.547Z</time>
      </trkpt>
      <trkpt lat="46.97381" lon="8.76523">
        <ele>616</ele>
        <time>2021-08-05T12:43:42.547Z</time>
      </trkpt>
      <trkpt lat="46.97381" lon="8.76524">
        <ele>617</ele>
        <time>2021-08-05T12:43:43.547Z</time>
      </trkpt>
      <trkpt lat="46.97382" lon="8.76524">
        <ele>617</ele>
        <time>2021-08-05T12:43:44.548Z</time>
      </trkpt>
      <trkpt lat="46.97383" lon="8.76524">
        <ele>618</ele>
        <time>2021-08-05T12:43:45.547Z</time>
      </trkpt>
      <trkpt lat="46.97384" lon="8.76524">
        <ele>618</ele>
        <time>2021-08-05T12:43:53.663Z</time>
      </trkpt>
      <trkpt lat="46.97385" lon="8.76523">
        <ele>619</ele>
        <time>2021-08-05T12:43:54.662Z</time>
      </trkpt>
      <trkpt lat="46.97386" lon="8.76521">
        <ele>620</ele>
        <time>2021-08-05T12:43:55.662Z</time>
      </trkpt>
      <trkpt lat="46.97387" lon="8.76521">
        <ele>620</ele>
        <time>2021-08-05T12:44:16.681Z</time>
      </trkpt>
      <trkpt lat="46.97388" lon="8.76522">
        <ele>620</ele>
        <time>2021-08-05T12:44:27.589Z</time>
      </trkpt>
      <trkpt lat="46.9739" lon="8.76522">
        <ele>621</ele>
        <time>2021-08-05T12:44:28.589Z</time>
      </trkpt>
      <trkpt lat="46.97394" lon="8.76518">
        <ele>621</ele>
        <time>2021-08-05T12:44:29.590Z</time>
      </trkpt>
      <trkpt lat="46.97396" lon="8.76516">
        <ele>622</ele>
        <time>2021-08-05T12:44:30.589Z</time>
      </trkpt>
      <trkpt lat="46.97395" lon="8.76513">
        <ele>622</ele>
        <time>2021-08-05T12:44:31.589Z</time>
      </trkpt>
      <trkpt lat="46.97396" lon="8.76512">
        <ele>622</ele>
        <time>2021-08-05T12:44:42.680Z</time>
      </trkpt>
      <trkpt lat="46.97397" lon="8.76512">
        <ele>623</ele>
        <time>2021-08-05T12:44:43.679Z</time>
      </trkpt>
      <trkpt lat="46.97398" lon="8.7651">
        <ele>623</ele>
        <time>2021-08-05T12:44:54.548Z</time>
      </trkpt>
      <trkpt lat="46.97399" lon="8.76508">
        <ele>624</ele>
        <time>2021-08-05T12:44:55.548Z</time>
      </trkpt>
      <trkpt lat="46.974" lon="8.76506">
        <ele>624</ele>
        <time>2021-08-05T12:45:04.452Z</time>
      </trkpt>
      <trkpt lat="46.974" lon="8.76505">
        <ele>625</ele>
        <time>2021-08-05T12:45:05.451Z</time>
      </trkpt>
      <trkpt lat="46.974" lon="8.76505">
        <ele>625</ele>
        <time>2021-08-05T12:45:06.451Z</time>
      </trkpt>
      <trkpt lat="46.97401" lon="8.76507">
        <ele>626</ele>
        <time>2021-08-05T12:45:07.453Z</time>
      </trkpt>
      <trkpt lat="46.97401" lon="8.76507">
        <ele>626</ele>
        <time>2021-08-05T12:45:09.556Z</time>
      </trkpt>
      <trkpt lat="46.97399" lon="8.76507">
        <ele>627</ele>
        <time>2021-08-05T12:45:10.556Z</time>
      </trkpt>
      <trkpt lat="46.97398" lon="8.76507">
        <ele>627</ele>
        <time>2021-08-05T12:45:11.556Z</time>
      </trkpt>
      <trkpt lat="46.97397" lon="8.76507">
        <ele>627</ele>
        <time>2021-08-05T12:45:23.657Z</time>
      </trkpt>
      <trkpt lat="46.97397" lon="8.76506">
        <ele>628</ele>
        <time>2021-08-05T12:45:24.657Z</time>
      </trkpt>
      <trkpt lat="46.97394" lon="8.76504">
        <ele>628</ele>
        <time>2021-08-05T12:45:36.452Z</time>
      </trkpt>
      <trkpt lat="46.97391" lon="8.76502">
        <ele>629</ele>
        <time>2021-08-05T12:45:37.453Z</time>
      </trkpt>
      <trkpt lat="46.97389" lon="8.76501">
        <ele>629</ele>
        <time>2021-08-05T12:45:38.452Z</time>
      </trkpt>
      <trkpt lat="46.97387" lon="8.76504">
        <ele>629</ele>
        <time>2021-08-05T12:46:32.658Z</time>
      </trkpt>
      <trkpt lat="46.97385" lon="8.76507">
        <ele>629</ele>
        <time>2021-08-05T13:23:01.494Z</time>
      </trkpt>
      <trkpt lat="46.97388" lon="8.76514">
        <ele>630</ele>
        <time>2021-08-05T13:23:07.493Z</time>
      </trkpt>
      <trkpt lat="46.97386" lon="8.76517">
        <ele>630</ele>
        <time>2021-08-05T13:23:08.494Z</time>
      </trkpt>
      <trkpt lat="46.97386" lon="8.76521">
        <ele>630</ele>
        <time>2021-08-05T13:23:09.494Z</time>
      </trkpt>
      <trkpt lat="46.97391" lon="8.76528">
        <ele>630</ele>
        <time>2021-08-05T13:23:15.493Z</time>
      </trkpt>
      <trkpt lat="46.97392" lon="8.76528">
        <ele>630</ele>
        <time>2021-08-05T13:23:17.494Z</time>
      </trkpt>
      <trkpt lat="46.97391" lon="8.76527">
        <ele>630</ele>
        <time>2021-08-05T13:23:18.494Z</time>
      </trkpt>
      <trkpt lat="46.9739" lon="8.76526">
        <ele>630</ele>
        <time>2021-08-05T13:23:19.493Z</time>
      </trkpt>
      <trkpt lat="46.97392" lon="8.76525">
        <ele>630</ele>
        <time>2021-08-05T13:23:25.494Z</time>
      </trkpt>
      <trkpt lat="46.97392" lon="8.76527">
        <ele>630</ele>
        <time>2021-08-05T13:23:26.494Z</time>
      </trkpt>
      <trkpt lat="46.97389" lon="8.76546">
        <ele>630</ele>
        <time>2021-08-05T13:23:33.494Z</time>
      </trkpt>
      <trkpt lat="46.97389" lon="8.76545">
        <ele>630</ele>
        <time>2021-08-05T13:23:34.494Z</time>
      </trkpt>
      <trkpt lat="46.97388" lon="8.76545">
        <ele>630</ele>
        <time>2021-08-05T13:23:35.494Z</time>
      </trkpt>
      <trkpt lat="46.97387" lon="8.76545">
        <ele>630</ele>
        <time>2021-08-05T13:23:36.494Z</time>
      </trkpt>
      <trkpt lat="46.97385" lon="8.76545">
        <ele>630</ele>
        <time>2021-08-05T13:23:37.494Z</time>
      </trkpt>
      <trkpt lat="46.97385" lon="8.76545">
        <ele>629</ele>
        <time>2021-08-05T13:23:38.493Z</time>
      </trkpt>
      <trkpt lat="46.97382" lon="8.76544">
        <ele>629</ele>
        <time>2021-08-05T13:23:39.494Z</time>
      </trkpt>
      <trkpt lat="46.97384" lon="8.76542">
        <ele>629</ele>
        <time>2021-08-05T13:23:40.493Z</time>
      </trkpt>
      <trkpt lat="46.97386" lon="8.76541">
        <ele>628</ele>
        <time>2021-08-05T13:23:41.494Z</time>
      </trkpt>
      <trkpt lat="46.97395" lon="8.76541">
        <ele>626</ele>
        <time>2021-08-05T13:23:44.493Z</time>
      </trkpt>
      <trkpt lat="46.97396" lon="8.76541">
        <ele>625</ele>
        <time>2021-08-05T13:23:45.493Z</time>
      </trkpt>
      <trkpt lat="46.97399" lon="8.7654">
        <ele>624</ele>
        <time>2021-08-05T13:23:48.493Z</time>
      </trkpt>
      <trkpt lat="46.97397" lon="8.76538">
        <ele>624</ele>
        <time>2021-08-05T13:23:49.494Z</time>
      </trkpt>
      <trkpt lat="46.97396" lon="8.76537">
        <ele>624</ele>
        <time>2021-08-05T13:23:59.571Z</time>
      </trkpt>
      <trkpt lat="46.97394" lon="8.76535">
        <ele>625</ele>
        <time>2021-08-05T13:24:00.570Z</time>
      </trkpt>
      <trkpt lat="46.97395" lon="8.76535">
        <ele>625</ele>
        <time>2021-08-05T13:24:01.571Z</time>
      </trkpt>
      <trkpt lat="46.97397" lon="8.76535">
        <ele>625</ele>
        <time>2021-08-05T13:24:02.570Z</time>
      </trkpt>
      <trkpt lat="46.974" lon="8.76536">
        <ele>626</ele>
        <time>2021-08-05T13:24:03.570Z</time>
      </trkpt>
      <trkpt lat="46.97402" lon="8.76537">
        <ele>627</ele>
        <time>2021-08-05T13:24:04.570Z</time>
      </trkpt>
      <trkpt lat="46.97405" lon="8.76538">
        <ele>627</ele>
        <time>2021-08-05T13:24:05.570Z</time>
      </trkpt>
      <trkpt lat="46.97407" lon="8.76538">
        <ele>628</ele>
        <time>2021-08-05T13:24:06.570Z</time>
      </trkpt>
      <trkpt lat="46.9741" lon="8.76542">
        <ele>629</ele>
        <time>2021-08-05T13:24:07.570Z</time>
      </trkpt>
      <trkpt lat="46.97408" lon="8.76542">
        <ele>630</ele>
        <time>2021-08-05T13:24:08.570Z</time>
      </trkpt>
      <trkpt lat="46.97358" lon="8.76513">
        <ele>634</ele>
        <time>2021-08-05T13:27:17.532Z</time>
      </trkpt>
      <trkpt lat="46.97362" lon="8.7654">
        <ele>636</ele>
        <time>2021-08-05T13:27:18.532Z</time>
      </trkpt>
      <trkpt lat="46.97369" lon="8.76513">
        <ele>638</ele>
        <time>2021-08-05T13:27:19.531Z</time>
      </trkpt>
      <trkpt lat="46.97373" lon="8.76502">
        <ele>639</ele>
        <time>2021-08-05T13:27:20.532Z</time>
      </trkpt>
      <trkpt lat="46.97377" lon="8.76494">
        <ele>640</ele>
        <time>2021-08-05T13:27:21.531Z</time>
      </trkpt>
      <trkpt lat="46.97375" lon="8.76488">
        <ele>642</ele>
        <time>2021-08-05T13:27:22.532Z</time>
      </trkpt>
      <trkpt lat="46.97376" lon="8.76489">
        <ele>642</ele>
        <time>2021-08-05T13:27:23.531Z</time>
      </trkpt>
      <trkpt lat="46.97381" lon="8.76493">
        <ele>643</ele>
        <time>2021-08-05T13:27:24.531Z</time>
      </trkpt>
      <trkpt lat="46.97386" lon="8.76496">
        <ele>644</ele>
        <time>2021-08-05T13:27:25.531Z</time>
      </trkpt>
      <trkpt lat="46.97381" lon="8.76511">
        <ele>644</ele>
        <time>2021-08-05T13:27:26.532Z</time>
      </trkpt>
      <trkpt lat="46.97383" lon="8.76518">
        <ele>644</ele>
        <time>2021-08-05T13:27:27.531Z</time>
      </trkpt>
      <trkpt lat="46.97384" lon="8.76523">
        <ele>643</ele>
        <time>2021-08-05T13:27:28.531Z</time>
      </trkpt>
      <trkpt lat="46.97385" lon="8.76526">
        <ele>642</ele>
        <time>2021-08-05T13:27:29.531Z</time>
      </trkpt>
      <trkpt lat="46.97385" lon="8.76526">
        <ele>641</ele>
        <time>2021-08-05T13:27:30.531Z</time>
      </trkpt>
      <trkpt lat="46.97386" lon="8.76523">
        <ele>640</ele>
        <time>2021-08-05T13:27:31.531Z</time>
      </trkpt>
      <trkpt lat="46.97388" lon="8.76515">
        <ele>639</ele>
        <time>2021-08-05T13:27:32.531Z</time>
      </trkpt>
      <trkpt lat="46.97391" lon="8.765">
        <ele>637</ele>
        <time>2021-08-05T13:27:34.532Z</time>
      </trkpt>
      <trkpt lat="46.97392" lon="8.76495">
        <ele>637</ele>
        <time>2021-08-05T13:27:35.531Z</time>
      </trkpt>
      <trkpt lat="46.97396" lon="8.76482">
        <ele>636</ele>
        <time>2021-08-05T13:27:36.531Z</time>
      </trkpt>
      <trkpt lat="46.97397" lon="8.76479">
        <ele>636</ele>
        <time>2021-08-05T13:27:37.531Z</time>
      </trkpt>
      <trkpt lat="46.974" lon="8.76474">
        <ele>635</ele>
        <time>2021-08-05T13:27:38.531Z</time>
      </trkpt>
      <trkpt lat="46.97402" lon="8.76473">
        <ele>634</ele>
        <time>2021-08-05T13:27:39.531Z</time>
      </trkpt>
      <trkpt lat="46.97401" lon="8.76471">
        <ele>634</ele>
        <time>2021-08-05T13:27:40.531Z</time>
      </trkpt>
      <trkpt lat="46.97402" lon="8.76468">
        <ele>633</ele>
        <time>2021-08-05T13:27:41.531Z</time>
      </trkpt>
      <trkpt lat="46.97403" lon="8.76465">
        <ele>633</ele>
        <time>2021-08-05T13:27:42.531Z</time>
      </trkpt>
      <trkpt lat="46.97403" lon="8.76462">
        <ele>632</ele>
        <time>2021-08-05T13:27:43.531Z</time>
      </trkpt>
      <trkpt lat="46.97402" lon="8.76462">
        <ele>632</ele>
        <time>2021-08-05T13:27:44.531Z</time>
      </trkpt>
      <trkpt lat="46.97401" lon="8.76462">
        <ele>632</ele>
        <time>2021-08-05T13:27:45.531Z</time>
      </trkpt>
      <trkpt lat="46.97401" lon="8.76462">
        <ele>632</ele>
        <time>2021-08-05T13:27:46.532Z</time>
      </trkpt>
      <trkpt lat="46.974" lon="8.76461">
        <ele>632</ele>
        <time>2021-08-05T13:27:47.531Z</time>
      </trkpt>
      <trkpt lat="46.974" lon="8.76459">
        <ele>633</ele>
        <time>2021-08-05T13:27:48.531Z</time>
      </trkpt>
      <trkpt lat="46.97399" lon="8.76462">
        <ele>633</ele>
        <time>2021-08-05T13:27:49.532Z</time>
      </trkpt>
      <trkpt lat="46.97397" lon="8.76467">
        <ele>633</ele>
        <time>2021-08-05T13:27:50.532Z</time>
      </trkpt>
      <trkpt lat="46.97395" lon="8.7647">
        <ele>634</ele>
        <time>2021-08-05T13:27:51.532Z</time>
      </trkpt>
      <trkpt lat="46.97393" lon="8.76473">
        <ele>634</ele>
        <time>2021-08-05T13:27:52.531Z</time>
      </trkpt>
      <trkpt lat="46.97391" lon="8.76475">
        <ele>635</ele>
        <time>2021-08-05T13:27:53.532Z</time>
      </trkpt>
      <trkpt lat="46.97391" lon="8.76475">
        <ele>635</ele>
        <time>2021-08-05T13:27:54.532Z</time>
      </trkpt>
      <trkpt lat="46.97389" lon="8.76475">
        <ele>636</ele>
        <time>2021-08-05T13:27:55.532Z</time>
      </trkpt>
      <trkpt lat="46.97387" lon="8.76479">
        <ele>637</ele>
        <time>2021-08-05T13:27:56.532Z</time>
      </trkpt>
      <trkpt lat="46.97386" lon="8.7648">
        <ele>637</ele>
        <time>2021-08-05T13:27:57.531Z</time>
      </trkpt>
      <trkpt lat="46.97385" lon="8.76481">
        <ele>638</ele>
        <time>2021-08-05T13:27:58.532Z</time>
      </trkpt>
      <trkpt lat="46.97384" lon="8.76483">
        <ele>639</ele>
        <time>2021-08-05T13:27:59.531Z</time>
      </trkpt>
      <trkpt lat="46.97383" lon="8.76484">
        <ele>640</ele>
        <time>2021-08-05T13:28:00.532Z</time>
      </trkpt>
      <trkpt lat="46.97384" lon="8.76484">
        <ele>641</ele>
        <time>2021-08-05T13:28:01.531Z</time>
      </trkpt>
      <trkpt lat="46.97384" lon="8.76482">
        <ele>642</ele>
        <time>2021-08-05T13:28:02.532Z</time>
      </trkpt>
      <trkpt lat="46.97384" lon="8.76481">
        <ele>642</ele>
        <time>2021-08-05T13:28:03.532Z</time>
      </trkpt>
      <trkpt lat="46.97383" lon="8.76482">
        <ele>643</ele>
        <time>2021-08-05T13:28:04.532Z</time>
      </trkpt>
      <trkpt lat="46.97384" lon="8.76481">
        <ele>644</ele>
        <time>2021-08-05T13:28:05.532Z</time>
      </trkpt>
      <trkpt lat="46.97385" lon="8.7648">
        <ele>645</ele>
        <time>2021-08-05T13:28:06.532Z</time>
      </trkpt>
      <trkpt lat="46.97386" lon="8.76479">
        <ele>646</ele>
        <time>2021-08-05T13:28:07.532Z</time>
      </trkpt>
      <trkpt lat="46.97386" lon="8.76478">
        <ele>646</ele>
        <time>2021-08-05T13:28:08.532Z</time>
      </trkpt>
      <trkpt lat="46.97387" lon="8.76478">
        <ele>646</ele>
        <time>2021-08-05T13:28:09.532Z</time>
      </trkpt>
      <trkpt lat="46.97385" lon="8.76479">
        <ele>647</ele>
        <time>2021-08-05T13:28:10.532Z</time>
      </trkpt>
      <trkpt lat="46.97385" lon="8.76479">
        <ele>647</ele>
        <time>2021-08-05T13:28:11.531Z</time>
      </trkpt>
      <trkpt lat="46.97384" lon="8.7648">
        <ele>647</ele>
        <time>2021-08-05T13:28:12.532Z</time>
      </trkpt>
      <trkpt lat="46.97382" lon="8.76484">
        <ele>648</ele>
        <time>2021-08-05T13:28:13.532Z</time>
      </trkpt>
      <trkpt lat="46.97381" lon="8.76488">
        <ele>648</ele>
        <time>2021-08-05T13:28:14.532Z</time>
      </trkpt>
      <trkpt lat="46.9738" lon="8.76491">
        <ele>649</ele>
        <time>2021-08-05T13:28:15.531Z</time>
      </trkpt>
      <trkpt lat="46.97379" lon="8.76495">
        <ele>649</ele>
        <time>2021-08-05T13:28:16.532Z</time>
      </trkpt>
      <trkpt lat="46.97379" lon="8.76498">
        <ele>649</ele>
        <time>2021-08-05T13:28:17.531Z</time>
      </trkpt>
      <trkpt lat="46.97377" lon="8.76502">
        <ele>650</ele>
        <time>2021-08-05T13:28:18.532Z</time>
      </trkpt>
      <trkpt lat="46.97376" lon="8.76505">
        <ele>650</ele>
        <time>2021-08-05T13:28:19.531Z</time>
      </trkpt>
      <trkpt lat="46.97376" lon="8.76507">
        <ele>651</ele>
        <time>2021-08-05T13:28:20.531Z</time>
      </trkpt>
      <trkpt lat="46.97377" lon="8.76509">
        <ele>652</ele>
        <time>2021-08-05T13:28:21.531Z</time>
      </trkpt>
      <trkpt lat="46.97377" lon="8.7651">
        <ele>652</ele>
        <time>2021-08-05T13:28:22.532Z</time>
      </trkpt>
      <trkpt lat="46.97376" lon="8.7651">
        <ele>653</ele>
        <time>2021-08-05T13:28:23.532Z</time>
      </trkpt>
      <trkpt lat="46.97376" lon="8.7651">
        <ele>654</ele>
        <time>2021-08-05T13:28:24.532Z</time>
      </trkpt>
      <trkpt lat="46.97376" lon="8.76511">
        <ele>654</ele>
        <time>2021-08-05T13:28:25.531Z</time>
      </trkpt>
      <trkpt lat="46.97376" lon="8.76512">
        <ele>655</ele>
        <time>2021-08-05T13:28:26.531Z</time>
      </trkpt>
      <trkpt lat="46.97375" lon="8.76511">
        <ele>655</ele>
        <time>2021-08-05T13:28:27.532Z</time>
      </trkpt>
      <trkpt lat="46.97373" lon="8.76513">
        <ele>657</ele>
        <time>2021-08-05T13:28:28.532Z</time>
      </trkpt>
      <trkpt lat="46.97373" lon="8.76512">
        <ele>657</ele>
        <time>2021-08-05T13:28:29.533Z</time>
      </trkpt>
      <trkpt lat="46.97373" lon="8.76511">
        <ele>657</ele>
        <time>2021-08-05T13:28:30.532Z</time>
      </trkpt>
      <trkpt lat="46.97373" lon="8.76509">
        <ele>658</ele>
        <time>2021-08-05T13:28:31.533Z</time>
      </trkpt>
      <trkpt lat="46.97373" lon="8.76508">
        <ele>658</ele>
        <time>2021-08-05T13:28:32.532Z</time>
      </trkpt>
      <trkpt lat="46.97373" lon="8.76508">
        <ele>659</ele>
        <time>2021-08-05T13:28:33.532Z</time>
      </trkpt>
      <trkpt lat="46.97373" lon="8.76507">
        <ele>659</ele>
        <time>2021-08-05T13:28:34.532Z</time>
      </trkpt>
      <trkpt lat="46.97372" lon="8.76507">
        <ele>660</ele>
        <time>2021-08-05T13:28:35.532Z</time>
      </trkpt>
      <trkpt lat="46.97372" lon="8.76507">
        <ele>660</ele>
        <time>2021-08-05T13:28:36.533Z</time>
      </trkpt>
      <trkpt lat="46.97372" lon="8.76507">
        <ele>661</ele>
        <time>2021-08-05T13:28:37.533Z</time>
      </trkpt>
      <trkpt lat="46.97371" lon="8.76507">
        <ele>661</ele>
        <time>2021-08-05T13:28:38.533Z</time>
      </trkpt>
      <trkpt lat="46.97371" lon="8.76507">
        <ele>661</ele>
        <time>2021-08-05T13:28:39.533Z</time>
      </trkpt>
      <trkpt lat="46.97371" lon="8.76507">
        <ele>662</ele>
        <time>2021-08-05T13:28:40.533Z</time>
      </trkpt>
      <trkpt lat="46.97371" lon="8.76505">
        <ele>662</ele>
        <time>2021-08-05T13:28:41.533Z</time>
      </trkpt>
      <trkpt lat="46.97372" lon="8.76502">
        <ele>663</ele>
        <time>2021-08-05T13:28:42.532Z</time>
      </trkpt>
      <trkpt lat="46.97373" lon="8.765">
        <ele>663</ele>
        <time>2021-08-05T13:28:43.533Z</time>
      </trkpt>
      <trkpt lat="46.9738" lon="8.76493">
        <ele>667</ele>
        <time>2021-08-05T13:28:44.533Z</time>
      </trkpt>
      <trkpt lat="46.9738" lon="8.76493">
        <ele>667</ele>
        <time>2021-08-05T13:28:45.533Z</time>
      </trkpt>
      <trkpt lat="46.9738" lon="8.76494">
        <ele>666</ele>
        <time>2021-08-05T13:28:46.532Z</time>
      </trkpt>
      <trkpt lat="46.97379" lon="8.76494">
        <ele>666</ele>
        <time>2021-08-05T13:28:47.533Z</time>
      </trkpt>
      <trkpt lat="46.97379" lon="8.76495">
        <ele>666</ele>
        <time>2021-08-05T13:28:48.532Z</time>
      </trkpt>
      <trkpt lat="46.9738" lon="8.76494">
        <ele>665</ele>
        <time>2021-08-05T13:28:49.532Z</time>
      </trkpt>
      <trkpt lat="46.9738" lon="8.76493">
        <ele>665</ele>
        <time>2021-08-05T13:28:50.533Z</time>
      </trkpt>
      <trkpt lat="46.97379" lon="8.76494">
        <ele>664</ele>
        <time>2021-08-05T13:28:51.533Z</time>
      </trkpt>
      <trkpt lat="46.97379" lon="8.76494">
        <ele>664</ele>
        <time>2021-08-05T13:28:52.532Z</time>
      </trkpt>
      <trkpt lat="46.97379" lon="8.76495">
        <ele>664</ele>
        <time>2021-08-05T13:28:53.532Z</time>
      </trkpt>
      <trkpt lat="46.97379" lon="8.76496">
        <ele>663</ele>
        <time>2021-08-05T13:28:54.533Z</time>
      </trkpt>
      <trkpt lat="46.97379" lon="8.76497">
        <ele>663</ele>
        <time>2021-08-05T13:28:55.532Z</time>
      </trkpt>
      <trkpt lat="46.97379" lon="8.76498">
        <ele>662</ele>
        <time>2021-08-05T13:28:56.532Z</time>
      </trkpt>
      <trkpt lat="46.9738" lon="8.76498">
        <ele>662</ele>
        <time>2021-08-05T13:28:57.532Z</time>
      </trkpt>
      <trkpt lat="46.9738" lon="8.76497">
        <ele>661</ele>
        <time>2021-08-05T13:28:58.532Z</time>
      </trkpt>
      <trkpt lat="46.97381" lon="8.76497">
        <ele>661</ele>
        <time>2021-08-05T13:28:59.532Z</time>
      </trkpt>
      <trkpt lat="46.97382" lon="8.76496">
        <ele>660</ele>
        <time>2021-08-05T13:29:00.532Z</time>
      </trkpt>
      <trkpt lat="46.97383" lon="8.76496">
        <ele>660</ele>
        <time>2021-08-05T13:29:01.532Z</time>
      </trkpt>
      <trkpt lat="46.97382" lon="8.76498">
        <ele>659</ele>
        <time>2021-08-05T13:29:02.532Z</time>
      </trkpt>
      <trkpt lat="46.97382" lon="8.765">
        <ele>659</ele>
        <time>2021-08-05T13:29:03.532Z</time>
      </trkpt>
      <trkpt lat="46.97382" lon="8.76501">
        <ele>659</ele>
        <time>2021-08-05T13:29:04.532Z</time>
      </trkpt>
      <trkpt lat="46.97381" lon="8.76502">
        <ele>658</ele>
        <time>2021-08-05T13:29:05.532Z</time>
      </trkpt>
      <trkpt lat="46.97381" lon="8.76503">
        <ele>658</ele>
        <time>2021-08-05T13:29:06.532Z</time>
      </trkpt>
      <trkpt lat="46.9738" lon="8.76505">
        <ele>657</ele>
        <time>2021-08-05T13:29:07.532Z</time>
      </trkpt>
      <trkpt lat="46.9738" lon="8.76506">
        <ele>657</ele>
        <time>2021-08-05T13:29:08.532Z</time>
      </trkpt>
      <trkpt lat="46.97381" lon="8.76505">
        <ele>657</ele>
        <time>2021-08-05T13:29:09.532Z</time>
      </trkpt>
      <trkpt lat="46.97381" lon="8.76505">
        <ele>656</ele>
        <time>2021-08-05T13:29:10.533Z</time>
      </trkpt>
      <trkpt lat="46.97381" lon="8.76505">
        <ele>656</ele>
        <time>2021-08-05T13:29:11.532Z</time>
      </trkpt>
      <trkpt lat="46.97381" lon="8.76507">
        <ele>655</ele>
        <time>2021-08-05T13:29:12.534Z</time>
      </trkpt>
      <trkpt lat="46.97381" lon="8.76508">
        <ele>655</ele>
        <time>2021-08-05T13:29:13.534Z</time>
      </trkpt>
      <trkpt lat="46.97381" lon="8.76509">
        <ele>654</ele>
        <time>2021-08-05T13:29:14.534Z</time>
      </trkpt>
      <trkpt lat="46.97381" lon="8.76509">
        <ele>654</ele>
        <time>2021-08-05T13:29:15.533Z</time>
      </trkpt>
      <trkpt lat="46.97381" lon="8.76509">
        <ele>654</ele>
        <time>2021-08-05T13:29:16.533Z</time>
      </trkpt>
      <trkpt lat="46.9738" lon="8.76509">
        <ele>654</ele>
        <time>2021-08-05T13:29:17.534Z</time>
      </trkpt>
      <trkpt lat="46.9738" lon="8.76508">
        <ele>654</ele>
        <time>2021-08-05T13:29:18.533Z</time>
      </trkpt>
      <trkpt lat="46.9738" lon="8.76508">
        <ele>653</ele>
        <time>2021-08-05T13:29:19.534Z</time>
      </trkpt>
      <trkpt lat="46.97379" lon="8.76509">
        <ele>653</ele>
        <time>2021-08-05T13:29:20.533Z</time>
      </trkpt>
      <trkpt lat="46.97378" lon="8.7651">
        <ele>653</ele>
        <time>2021-08-05T13:29:21.533Z</time>
      </trkpt>
      <trkpt lat="46.97376" lon="8.76511">
        <ele>653</ele>
        <time>2021-08-05T13:29:22.533Z</time>
      </trkpt>
      <trkpt lat="46.97375" lon="8.7651">
        <ele>653</ele>
        <time>2021-08-05T13:29:23.534Z</time>
      </trkpt>
      <trkpt lat="46.97375" lon="8.76508">
        <ele>653</ele>
        <time>2021-08-05T13:29:24.533Z</time>
      </trkpt>
      <trkpt lat="46.97375" lon="8.76507">
        <ele>653</ele>
        <time>2021-08-05T13:29:25.534Z</time>
      </trkpt>
      <trkpt lat="46.97376" lon="8.76506">
        <ele>653</ele>
        <time>2021-08-05T13:29:26.534Z</time>
      </trkpt>
      <trkpt lat="46.97378" lon="8.76504">
        <ele>653</ele>
        <time>2021-08-05T13:29:27.534Z</time>
      </trkpt>
      <trkpt lat="46.97379" lon="8.76503">
        <ele>653</ele>
        <time>2021-08-05T13:29:28.533Z</time>
      </trkpt>
      <trkpt lat="46.97379" lon="8.76503">
        <ele>653</ele>
        <time>2021-08-05T13:29:29.534Z</time>
      </trkpt>
      <trkpt lat="46.97379" lon="8.76504">
        <ele>652</ele>
        <time>2021-08-05T13:29:30.534Z</time>
      </trkpt>
      <trkpt lat="46.9738" lon="8.76505">
        <ele>652</ele>
        <time>2021-08-05T13:29:31.534Z</time>
      </trkpt>
      <trkpt lat="46.9738" lon="8.76505">
        <ele>652</ele>
        <time>2021-08-05T13:29:32.534Z</time>
      </trkpt>
      <trkpt lat="46.9738" lon="8.76505">
        <ele>651</ele>
        <time>2021-08-05T13:29:33.534Z</time>
      </trkpt>
      <trkpt lat="46.97377" lon="8.76511">
        <ele>650</ele>
        <time>2021-08-05T13:29:34.534Z</time>
      </trkpt>
      <trkpt lat="46.97377" lon="8.76511">
        <ele>650</ele>
        <time>2021-08-05T13:29:35.533Z</time>
      </trkpt>
      <trkpt lat="46.97376" lon="8.76512">
        <ele>650</ele>
        <time>2021-08-05T13:29:36.534Z</time>
      </trkpt>
      <trkpt lat="46.97376" lon="8.76512">
        <ele>650</ele>
        <time>2021-08-05T13:29:37.533Z</time>
      </trkpt>
      <trkpt lat="46.97376" lon="8.76512">
        <ele>650</ele>
        <time>2021-08-05T13:29:38.534Z</time>
      </trkpt>
      <trkpt lat="46.97376" lon="8.76512">
        <ele>650</ele>
        <time>2021-08-05T13:29:39.534Z</time>
      </trkpt>
      <trkpt lat="46.97376" lon="8.76512">
        <ele>650</ele>
        <time>2021-08-05T13:29:40.533Z</time>
      </trkpt>
      <trkpt lat="46.97377" lon="8.76512">
        <ele>650</ele>
        <time>2021-08-05T13:29:41.534Z</time>
      </trkpt>
      <trkpt lat="46.97378" lon="8.76511">
        <ele>650</ele>
        <time>2021-08-05T13:29:42.533Z</time>
      </trkpt>
      <trkpt lat="46.9738" lon="8.76511">
        <ele>650</ele>
        <time>2021-08-05T13:29:43.533Z</time>
      </trkpt>
      <trkpt lat="46.97381" lon="8.76511">
        <ele>649</ele>
        <time>2021-08-05T13:29:44.534Z</time>
      </trkpt>
      <trkpt lat="46.97381" lon="8.76511">
        <ele>649</ele>
        <time>2021-08-05T13:29:45.533Z</time>
      </trkpt>
      <trkpt lat="46.97381" lon="8.76512">
        <ele>649</ele>
        <time>2021-08-05T13:29:46.534Z</time>
      </trkpt>
      <trkpt lat="46.97382" lon="8.76512">
        <ele>649</ele>
        <time>2021-08-05T13:29:47.534Z</time>
      </trkpt>
      <trkpt lat="46.97382" lon="8.76512">
        <ele>649</ele>
        <time>2021-08-05T13:29:48.534Z</time>
      </trkpt>
      <trkpt lat="46.97383" lon="8.76513">
        <ele>648</ele>
        <time>2021-08-05T13:29:49.534Z</time>
      </trkpt>
      <trkpt lat="46.97383" lon="8.76513">
        <ele>648</ele>
        <time>2021-08-05T13:29:50.533Z</time>
      </trkpt>
      <trkpt lat="46.97384" lon="8.76512">
        <ele>648</ele>
        <time>2021-08-05T13:29:51.534Z</time>
      </trkpt>
      <trkpt lat="46.97385" lon="8.76511">
        <ele>648</ele>
        <time>2021-08-05T13:29:52.533Z</time>
      </trkpt>
      <trkpt lat="46.97386" lon="8.76509">
        <ele>647</ele>
        <time>2021-08-05T13:29:53.533Z</time>
      </trkpt>
      <trkpt lat="46.97387" lon="8.76507">
        <ele>647</ele>
        <time>2021-08-05T13:29:54.534Z</time>
      </trkpt>
      <trkpt lat="46.97387" lon="8.76505">
        <ele>647</ele>
        <time>2021-08-05T13:29:55.533Z</time>
      </trkpt>
      <trkpt lat="46.97388" lon="8.76503">
        <ele>647</ele>
        <time>2021-08-05T13:29:56.533Z</time>
      </trkpt>
      <trkpt lat="46.97388" lon="8.76501">
        <ele>646</ele>
        <time>2021-08-05T13:29:57.534Z</time>
      </trkpt>
      <trkpt lat="46.97387" lon="8.765">
        <ele>646</ele>
        <time>2021-08-05T13:29:58.534Z</time>
      </trkpt>
      <trkpt lat="46.97388" lon="8.76498">
        <ele>646</ele>
        <time>2021-08-05T13:29:59.533Z</time>
      </trkpt>
      <trkpt lat="46.97389" lon="8.76496">
        <ele>646</ele>
        <time>2021-08-05T13:30:00.534Z</time>
      </trkpt>
      <trkpt lat="46.97391" lon="8.76493">
        <ele>645</ele>
        <time>2021-08-05T13:30:01.534Z</time>
      </trkpt>
      <trkpt lat="46.97392" lon="8.76491">
        <ele>645</ele>
        <time>2021-08-05T13:30:02.534Z</time>
      </trkpt>
      <trkpt lat="46.97393" lon="8.7649">
        <ele>645</ele>
        <time>2021-08-05T13:30:03.533Z</time>
      </trkpt>
      <trkpt lat="46.97393" lon="8.76488">
        <ele>644</ele>
        <time>2021-08-05T13:30:04.534Z</time>
      </trkpt>
      <trkpt lat="46.97393" lon="8.76487">
        <ele>644</ele>
        <time>2021-08-05T13:30:05.533Z</time>
      </trkpt>
      <trkpt lat="46.97393" lon="8.76486">
        <ele>644</ele>
        <time>2021-08-05T13:30:06.534Z</time>
      </trkpt>
      <trkpt lat="46.97394" lon="8.76484">
        <ele>644</ele>
        <time>2021-08-05T13:30:07.534Z</time>
      </trkpt>
      <trkpt lat="46.97393" lon="8.76482">
        <ele>643</ele>
        <time>2021-08-05T13:30:08.534Z</time>
      </trkpt>
      <trkpt lat="46.97393" lon="8.76482">
        <ele>643</ele>
        <time>2021-08-05T13:30:09.533Z</time>
      </trkpt>
      <trkpt lat="46.97392" lon="8.76482">
        <ele>642</ele>
        <time>2021-08-05T13:30:10.534Z</time>
      </trkpt>
      <trkpt lat="46.97392" lon="8.76482">
        <ele>642</ele>
        <time>2021-08-05T13:30:11.534Z</time>
      </trkpt>
      <trkpt lat="46.97391" lon="8.76483">
        <ele>642</ele>
        <time>2021-08-05T13:30:12.533Z</time>
      </trkpt>
      <trkpt lat="46.97391" lon="8.76483">
        <ele>641</ele>
        <time>2021-08-05T13:30:13.533Z</time>
      </trkpt>
      <trkpt lat="46.97391" lon="8.76484">
        <ele>641</ele>
        <time>2021-08-05T13:30:14.534Z</time>
      </trkpt>
      <trkpt lat="46.97392" lon="8.76486">
        <ele>641</ele>
        <time>2021-08-05T13:30:15.534Z</time>
      </trkpt>
      <trkpt lat="46.97391" lon="8.76487">
        <ele>641</ele>
        <time>2021-08-05T13:30:16.533Z</time>
      </trkpt>
      <trkpt lat="46.97391" lon="8.76489">
        <ele>641</ele>
        <time>2021-08-05T13:30:17.534Z</time>
      </trkpt>
      <trkpt lat="46.9739" lon="8.76491">
        <ele>641</ele>
        <time>2021-08-05T13:30:18.533Z</time>
      </trkpt>
      <trkpt lat="46.9739" lon="8.76494">
        <ele>640</ele>
        <time>2021-08-05T13:30:19.534Z</time>
      </trkpt>
      <trkpt lat="46.97389" lon="8.76496">
        <ele>640</ele>
        <time>2021-08-05T13:30:20.534Z</time>
      </trkpt>
      <trkpt lat="46.97389" lon="8.76497">
        <ele>640</ele>
        <time>2021-08-05T13:30:21.534Z</time>
      </trkpt>
      <trkpt lat="46.97389" lon="8.76498">
        <ele>640</ele>
        <time>2021-08-05T13:30:22.533Z</time>
      </trkpt>
      <trkpt lat="46.9739" lon="8.76496">
        <ele>640</ele>
        <time>2021-08-05T13:30:23.534Z</time>
      </trkpt>
      <trkpt lat="46.9739" lon="8.76496">
        <ele>640</ele>
        <time>2021-08-05T13:30:24.534Z</time>
      </trkpt>
      <trkpt lat="46.97389" lon="8.76496">
        <ele>640</ele>
        <time>2021-08-05T13:30:25.534Z</time>
      </trkpt>
      <trkpt lat="46.97389" lon="8.76496">
        <ele>640</ele>
        <time>2021-08-05T13:30:26.534Z</time>
      </trkpt>
      <trkpt lat="46.97389" lon="8.76496">
        <ele>640</ele>
        <time>2021-08-05T13:30:27.533Z</time>
      </trkpt>
      <trkpt lat="46.97391" lon="8.76495">
        <ele>639</ele>
        <time>2021-08-05T13:30:28.534Z</time>
      </trkpt>
      <trkpt lat="46.97392" lon="8.76495">
        <ele>639</ele>
        <time>2021-08-05T13:30:29.533Z</time>
      </trkpt>
      <trkpt lat="46.97394" lon="8.76494">
        <ele>639</ele>
        <time>2021-08-05T13:30:30.534Z</time>
      </trkpt>
      <trkpt lat="46.97396" lon="8.76493">
        <ele>639</ele>
        <time>2021-08-05T13:30:31.534Z</time>
      </trkpt>
      <trkpt lat="46.97397" lon="8.76491">
        <ele>639</ele>
        <time>2021-08-05T13:30:32.533Z</time>
      </trkpt>
      <trkpt lat="46.97399" lon="8.7649">
        <ele>639</ele>
        <time>2021-08-05T13:30:33.534Z</time>
      </trkpt>
      <trkpt lat="46.974" lon="8.76488">
        <ele>639</ele>
        <time>2021-08-05T13:30:34.534Z</time>
      </trkpt>
      <trkpt lat="46.97401" lon="8.76487">
        <ele>639</ele>
        <time>2021-08-05T13:30:35.533Z</time>
      </trkpt>
      <trkpt lat="46.97402" lon="8.76486">
        <ele>639</ele>
        <time>2021-08-05T13:30:36.533Z</time>
      </trkpt>
      <trkpt lat="46.97403" lon="8.76485">
        <ele>639</ele>
        <time>2021-08-05T13:30:37.533Z</time>
      </trkpt>
      <trkpt lat="46.97403" lon="8.76486">
        <ele>638</ele>
        <time>2021-08-05T13:30:42.580Z</time>
      </trkpt>
      <trkpt lat="46.97402" lon="8.76486">
        <ele>638</ele>
        <time>2021-08-05T13:30:43.581Z</time>
      </trkpt>
      <trkpt lat="46.97402" lon="8.76487">
        <ele>638</ele>
        <time>2021-08-05T13:30:44.580Z</time>
      </trkpt>
      <trkpt lat="46.97403" lon="8.76486">
        <ele>638</ele>
        <time>2021-08-05T13:30:45.581Z</time>
      </trkpt>
      <trkpt lat="46.97403" lon="8.76487">
        <ele>638</ele>
        <time>2021-08-05T13:30:46.581Z</time>
      </trkpt>
      <trkpt lat="46.97404" lon="8.76486">
        <ele>638</ele>
        <time>2021-08-05T13:30:47.580Z</time>
      </trkpt>
      <trkpt lat="46.97404" lon="8.76486">
        <ele>638</ele>
        <time>2021-08-05T13:30:48.581Z</time>
      </trkpt>
      <trkpt lat="46.97404" lon="8.76487">
        <ele>638</ele>
        <time>2021-08-05T13:31:01.712Z</time>
      </trkpt>
      <trkpt lat="46.97404" lon="8.76488">
        <ele>638</ele>
        <time>2021-08-05T13:31:02.711Z</time>
      </trkpt>
      <trkpt lat="46.97403" lon="8.76488">
        <ele>638</ele>
        <time>2021-08-05T13:31:03.712Z</time>
      </trkpt>
      <trkpt lat="46.97403" lon="8.76489">
        <ele>638</ele>
        <time>2021-08-05T13:31:04.712Z</time>
      </trkpt>
      <trkpt lat="46.97403" lon="8.76489">
        <ele>638</ele>
        <time>2021-08-05T13:31:05.712Z</time>
      </trkpt>
      <trkpt lat="46.97403" lon="8.76489">
        <ele>638</ele>
        <time>2021-08-05T13:31:06.711Z</time>
      </trkpt>
      <trkpt lat="46.97402" lon="8.76489">
        <ele>637</ele>
        <time>2021-08-05T13:31:07.712Z</time>
      </trkpt>
      <trkpt lat="46.97402" lon="8.76489">
        <ele>637</ele>
        <time>2021-08-05T13:31:08.713Z</time>
      </trkpt>
      <trkpt lat="46.97402" lon="8.7649">
        <ele>637</ele>
        <time>2021-08-05T13:31:09.712Z</time>
      </trkpt>
      <trkpt lat="46.97402" lon="8.7649">
        <ele>637</ele>
        <time>2021-08-05T13:31:10.712Z</time>
      </trkpt>
      <trkpt lat="46.97402" lon="8.76491">
        <ele>637</ele>
        <time>2021-08-05T13:31:11.712Z</time>
      </trkpt>
      <trkpt lat="46.97401" lon="8.76493">
        <ele>637</ele>
        <time>2021-08-05T13:31:12.712Z</time>
      </trkpt>
      <trkpt lat="46.974" lon="8.76496">
        <ele>636</ele>
        <time>2021-08-05T13:31:17.829Z</time>
      </trkpt>
      <trkpt lat="46.97399" lon="8.76497">
        <ele>636</ele>
        <time>2021-08-05T13:31:18.829Z</time>
      </trkpt>
      <trkpt lat="46.97397" lon="8.76498">
        <ele>636</ele>
        <time>2021-08-05T13:31:19.829Z</time>
      </trkpt>
      <trkpt lat="46.97395" lon="8.765">
        <ele>636</ele>
        <time>2021-08-05T13:31:20.829Z</time>
      </trkpt>
      <trkpt lat="46.97394" lon="8.76502">
        <ele>636</ele>
        <time>2021-08-05T13:31:24.958Z</time>
      </trkpt>
      <trkpt lat="46.97393" lon="8.76504">
        <ele>636</ele>
        <time>2021-08-05T13:31:25.958Z</time>
      </trkpt>
      <trkpt lat="46.97392" lon="8.76506">
        <ele>636</ele>
        <time>2021-08-05T13:31:26.958Z</time>
      </trkpt>
      <trkpt lat="46.97392" lon="8.76507">
        <ele>636</ele>
        <time>2021-08-05T13:31:27.959Z</time>
      </trkpt>
      <trkpt lat="46.97391" lon="8.76508">
        <ele>636</ele>
        <time>2021-08-05T13:31:31.070Z</time>
      </trkpt>
      <trkpt lat="46.97391" lon="8.76508">
        <ele>636</ele>
        <time>2021-08-05T13:31:32.070Z</time>
      </trkpt>
      <trkpt lat="46.9739" lon="8.76508">
        <ele>636</ele>
        <time>2021-08-05T13:31:33.069Z</time>
      </trkpt>
      <trkpt lat="46.97386" lon="8.76509">
        <ele>637</ele>
        <time>2021-08-05T13:31:34.070Z</time>
      </trkpt>
      <trkpt lat="46.97386" lon="8.76509">
        <ele>637</ele>
        <time>2021-08-05T13:31:35.069Z</time>
      </trkpt>
      <trkpt lat="46.97386" lon="8.76508">
        <ele>637</ele>
        <time>2021-08-05T13:31:36.069Z</time>
      </trkpt>
      <trkpt lat="46.97385" lon="8.76508">
        <ele>638</ele>
        <time>2021-08-05T13:31:37.069Z</time>
      </trkpt>
      <trkpt lat="46.97385" lon="8.76509">
        <ele>640</ele>
        <time>2021-08-05T13:31:38.070Z</time>
      </trkpt>
      <trkpt lat="46.97386" lon="8.76509">
        <ele>645</ele>
        <time>2021-08-05T13:31:39.070Z</time>
      </trkpt>
      <trkpt lat="46.97386" lon="8.76509">
        <ele>645</ele>
        <time>2021-08-05T13:31:40.070Z</time>
      </trkpt>
      <trkpt lat="46.97386" lon="8.76509">
        <ele>645</ele>
        <time>2021-08-05T13:31:41.069Z</time>
      </trkpt>
      <trkpt lat="46.97386" lon="8.7651">
        <ele>645</ele>
        <time>2021-08-05T13:31:42.070Z</time>
      </trkpt>
      <trkpt lat="46.9739" lon="8.76516">
        <ele>644</ele>
        <time>2021-08-05T13:31:43.069Z</time>
      </trkpt>
      <trkpt lat="46.97389" lon="8.76518">
        <ele>644</ele>
        <time>2021-08-05T13:31:44.070Z</time>
      </trkpt>
      <trkpt lat="46.97388" lon="8.76519">
        <ele>644</ele>
        <time>2021-08-05T13:31:45.070Z</time>
      </trkpt>
      <trkpt lat="46.97386" lon="8.76515">
        <ele>646</ele>
        <time>2021-08-05T13:31:46.069Z</time>
      </trkpt>
      <trkpt lat="46.97387" lon="8.76513">
        <ele>646</ele>
        <time>2021-08-05T13:31:47.069Z</time>
      </trkpt>
      <trkpt lat="46.97387" lon="8.76513">
        <ele>646</ele>
        <time>2021-08-05T13:31:48.069Z</time>
      </trkpt>
      <trkpt lat="46.97388" lon="8.76512">
        <ele>646</ele>
        <time>2021-08-05T13:31:49.069Z</time>
      </trkpt>
      <trkpt lat="46.97387" lon="8.76512">
        <ele>646</ele>
        <time>2021-08-05T13:31:50.069Z</time>
      </trkpt>
      <trkpt lat="46.9739" lon="8.7651">
        <ele>646</ele>
        <time>2021-08-05T13:31:51.069Z</time>
      </trkpt>
      <trkpt lat="46.97391" lon="8.76507">
        <ele>646</ele>
        <time>2021-08-05T13:31:52.070Z</time>
      </trkpt>
      <trkpt lat="46.9739" lon="8.76507">
        <ele>646</ele>
        <time>2021-08-05T13:31:53.069Z</time>
      </trkpt>
      <trkpt lat="46.9739" lon="8.76508">
        <ele>646</ele>
        <time>2021-08-05T13:31:54.070Z</time>
      </trkpt>
      <trkpt lat="46.9739" lon="8.76506">
        <ele>646</ele>
        <time>2021-08-05T13:31:55.069Z</time>
      </trkpt>
      <trkpt lat="46.97391" lon="8.76504">
        <ele>646</ele>
        <time>2021-08-05T13:31:56.070Z</time>
      </trkpt>
      <trkpt lat="46.97393" lon="8.76504">
        <ele>647</ele>
        <time>2021-08-05T13:31:57.069Z</time>
      </trkpt>
      <trkpt lat="46.97395" lon="8.76502">
        <ele>647</ele>
        <time>2021-08-05T13:31:58.069Z</time>
      </trkpt>
      <trkpt lat="46.97397" lon="8.76498">
        <ele>647</ele>
        <time>2021-08-05T13:31:59.069Z</time>
      </trkpt>
      <trkpt lat="46.97396" lon="8.76497">
        <ele>647</ele>
        <time>2021-08-05T13:32:00.069Z</time>
      </trkpt>
      <trkpt lat="46.97395" lon="8.76496">
        <ele>647</ele>
        <time>2021-08-05T13:32:01.069Z</time>
      </trkpt>
      <trkpt lat="46.97393" lon="8.76495">
        <ele>648</ele>
        <time>2021-08-05T13:32:02.069Z</time>
      </trkpt>
      <trkpt lat="46.97392" lon="8.76495">
        <ele>648</ele>
        <time>2021-08-05T13:32:03.069Z</time>
      </trkpt>
      <trkpt lat="46.97391" lon="8.76495">
        <ele>648</ele>
        <time>2021-08-05T13:32:04.070Z</time>
      </trkpt>
      <trkpt lat="46.97391" lon="8.76495">
        <ele>648</ele>
        <time>2021-08-05T13:32:05.070Z</time>
      </trkpt>
      <trkpt lat="46.97391" lon="8.76495">
        <ele>648</ele>
        <time>2021-08-05T13:32:06.069Z</time>
      </trkpt>
      <trkpt lat="46.97389" lon="8.76495">
        <ele>648</ele>
        <time>2021-08-05T13:32:07.069Z</time>
      </trkpt>
      <trkpt lat="46.97389" lon="8.76495">
        <ele>648</ele>
        <time>2021-08-05T13:32:07.947Z</time>
      </trkpt>
      <trkpt lat="46.97389" lon="8.76497">
        <ele>648</ele>
        <time>2021-08-05T13:32:08.947Z</time>
      </trkpt>
      <trkpt lat="46.97389" lon="8.76499">
        <ele>648</ele>
        <time>2021-08-05T13:32:09.947Z</time>
      </trkpt>
      <trkpt lat="46.97388" lon="8.76501">
        <ele>648</ele>
        <time>2021-08-05T13:32:10.947Z</time>
      </trkpt>
      <trkpt lat="46.97388" lon="8.76501">
        <ele>648</ele>
        <time>2021-08-05T13:32:11.947Z</time>
      </trkpt>
      <trkpt lat="46.97387" lon="8.76501">
        <ele>648</ele>
        <time>2021-08-05T13:32:12.947Z</time>
      </trkpt>
      <trkpt lat="46.97387" lon="8.765">
        <ele>648</ele>
        <time>2021-08-05T13:32:13.947Z</time>
      </trkpt>
      <trkpt lat="46.97385" lon="8.76502">
        <ele>648</ele>
        <time>2021-08-05T13:32:14.947Z</time>
      </trkpt>
      <trkpt lat="46.97384" lon="8.76504">
        <ele>648</ele>
        <time>2021-08-05T13:32:15.947Z</time>
      </trkpt>
      <trkpt lat="46.97384" lon="8.76505">
        <ele>648</ele>
        <time>2021-08-05T13:32:16.947Z</time>
      </trkpt>
      <trkpt lat="46.97383" lon="8.7651">
        <ele>647</ele>
        <time>2021-08-05T13:32:18.072Z</time>
      </trkpt>
      <trkpt lat="46.97382" lon="8.76511">
        <ele>647</ele>
        <time>2021-08-05T13:32:18.947Z</time>
      </trkpt>
      <trkpt lat="46.9738" lon="8.76513">
        <ele>646</ele>
        <time>2021-08-05T13:32:19.947Z</time>
      </trkpt>
      <trkpt lat="46.9738" lon="8.76513">
        <ele>646</ele>
        <time>2021-08-05T13:32:20.947Z</time>
      </trkpt>
      <trkpt lat="46.97379" lon="8.76514">
        <ele>646</ele>
        <time>2021-08-05T13:32:22.072Z</time>
      </trkpt>
      <trkpt lat="46.9738" lon="8.76513">
        <ele>646</ele>
        <time>2021-08-05T13:32:22.947Z</time>
      </trkpt>
      <trkpt lat="46.97381" lon="8.76513">
        <ele>645</ele>
        <time>2021-08-05T13:32:23.947Z</time>
      </trkpt>
      <trkpt lat="46.97381" lon="8.76511">
        <ele>645</ele>
        <time>2021-08-05T13:32:24.947Z</time>
      </trkpt>
      <trkpt lat="46.97382" lon="8.7651">
        <ele>645</ele>
        <time>2021-08-05T13:32:25.947Z</time>
      </trkpt>
      <trkpt lat="46.97383" lon="8.76509">
        <ele>645</ele>
        <time>2021-08-05T13:32:26.947Z</time>
      </trkpt>
      <trkpt lat="46.97384" lon="8.76507">
        <ele>644</ele>
        <time>2021-08-05T13:32:27.947Z</time>
      </trkpt>
      <trkpt lat="46.97384" lon="8.76507">
        <ele>644</ele>
        <time>2021-08-05T13:32:29.071Z</time>
      </trkpt>
      <trkpt lat="46.97383" lon="8.76507">
        <ele>644</ele>
        <time>2021-08-05T13:32:29.947Z</time>
      </trkpt>
      <trkpt lat="46.97383" lon="8.76508">
        <ele>643</ele>
        <time>2021-08-05T13:32:31.071Z</time>
      </trkpt>
      <trkpt lat="46.97383" lon="8.7651">
        <ele>643</ele>
        <time>2021-08-05T13:32:31.947Z</time>
      </trkpt>
      <trkpt lat="46.97383" lon="8.76511">
        <ele>643</ele>
        <time>2021-08-05T13:32:32.947Z</time>
      </trkpt>
      <trkpt lat="46.97383" lon="8.76512">
        <ele>643</ele>
        <time>2021-08-05T13:32:33.947Z</time>
      </trkpt>
      <trkpt lat="46.97384" lon="8.76512">
        <ele>642</ele>
        <time>2021-08-05T13:32:35.071Z</time>
      </trkpt>
      <trkpt lat="46.97384" lon="8.76513">
        <ele>642</ele>
        <time>2021-08-05T13:32:36.071Z</time>
      </trkpt>
      <trkpt lat="46.97384" lon="8.76514">
        <ele>642</ele>
        <time>2021-08-05T13:32:37.071Z</time>
      </trkpt>
      <trkpt lat="46.97385" lon="8.76515">
        <ele>642</ele>
        <time>2021-08-05T13:32:38.072Z</time>
      </trkpt>
      <trkpt lat="46.97385" lon="8.76515">
        <ele>642</ele>
        <time>2021-08-05T13:32:39.072Z</time>
      </trkpt>
      <trkpt lat="46.97384" lon="8.76517">
        <ele>641</ele>
        <time>2021-08-05T13:32:39.947Z</time>
      </trkpt>
      <trkpt lat="46.97383" lon="8.76518">
        <ele>641</ele>
        <time>2021-08-05T13:32:41.071Z</time>
      </trkpt>
      <trkpt lat="46.97383" lon="8.76519">
        <ele>641</ele>
        <time>2021-08-05T13:32:42.072Z</time>
      </trkpt>
      <trkpt lat="46.97382" lon="8.76519">
        <ele>641</ele>
        <time>2021-08-05T13:32:43.071Z</time>
      </trkpt>
      <trkpt lat="46.97383" lon="8.76519">
        <ele>640</ele>
        <time>2021-08-05T13:32:44.071Z</time>
      </trkpt>
      <trkpt lat="46.97385" lon="8.76518">
        <ele>640</ele>
        <time>2021-08-05T13:32:44.947Z</time>
      </trkpt>
      <trkpt lat="46.97387" lon="8.76517">
        <ele>640</ele>
        <time>2021-08-05T13:32:47.072Z</time>
      </trkpt>
      <trkpt lat="46.97388" lon="8.76515">
        <ele>640</ele>
        <time>2021-08-05T13:32:49.072Z</time>
      </trkpt>
      <trkpt lat="46.97388" lon="8.76519">
        <ele>639</ele>
        <time>2021-08-05T13:32:53.071Z</time>
      </trkpt>
      <trkpt lat="46.97426" lon="8.76475">
        <ele>638</ele>
        <time>2021-08-05T13:32:53.948Z</time>
      </trkpt>
      <trkpt lat="46.97429" lon="8.76469">
        <ele>638</ele>
        <time>2021-08-05T13:32:54.948Z</time>
      </trkpt>
      <trkpt lat="46.9743" lon="8.76467">
        <ele>637</ele>
        <time>2021-08-05T13:32:55.948Z</time>
      </trkpt>
      <trkpt lat="46.9743" lon="8.76467">
        <ele>637</ele>
        <time>2021-08-05T13:32:56.947Z</time>
      </trkpt>
      <trkpt lat="46.97429" lon="8.76468">
        <ele>637</ele>
        <time>2021-08-05T13:32:57.947Z</time>
      </trkpt>
      <trkpt lat="46.97426" lon="8.76474">
        <ele>637</ele>
        <time>2021-08-05T13:32:58.948Z</time>
      </trkpt>
      <trkpt lat="46.97422" lon="8.76481">
        <ele>636</ele>
        <time>2021-08-05T13:32:59.947Z</time>
      </trkpt>
      <trkpt lat="46.97419" lon="8.76489">
        <ele>636</ele>
        <time>2021-08-05T13:33:00.947Z</time>
      </trkpt>
      <trkpt lat="46.97416" lon="8.76493">
        <ele>636</ele>
        <time>2021-08-05T13:33:01.948Z</time>
      </trkpt>
      <trkpt lat="46.97413" lon="8.76496">
        <ele>636</ele>
        <time>2021-08-05T13:33:02.948Z</time>
      </trkpt>
      <trkpt lat="46.97411" lon="8.76498">
        <ele>636</ele>
        <time>2021-08-05T13:33:03.947Z</time>
      </trkpt>
      <trkpt lat="46.97408" lon="8.76499">
        <ele>636</ele>
        <time>2021-08-05T13:33:04.947Z</time>
      </trkpt>
      <trkpt lat="46.97406" lon="8.765">
        <ele>636</ele>
        <time>2021-08-05T13:33:05.947Z</time>
      </trkpt>
      <trkpt lat="46.97403" lon="8.76504">
        <ele>636</ele>
        <time>2021-08-05T13:33:06.947Z</time>
      </trkpt>
      <trkpt lat="46.97402" lon="8.76506">
        <ele>635</ele>
        <time>2021-08-05T13:33:07.948Z</time>
      </trkpt>
      <trkpt lat="46.97402" lon="8.76505">
        <ele>635</ele>
        <time>2021-08-05T13:33:08.947Z</time>
      </trkpt>
      <trkpt lat="46.97402" lon="8.76505">
        <ele>634</ele>
        <time>2021-08-05T13:33:09.948Z</time>
      </trkpt>
      <trkpt lat="46.97403" lon="8.76505">
        <ele>634</ele>
        <time>2021-08-05T13:33:10.948Z</time>
      </trkpt>
      <trkpt lat="46.97403" lon="8.76505">
        <ele>634</ele>
        <time>2021-08-05T13:33:11.948Z</time>
      </trkpt>
      <trkpt lat="46.97403" lon="8.76506">
        <ele>634</ele>
        <time>2021-08-05T13:33:12.948Z</time>
      </trkpt>
      <trkpt lat="46.97403" lon="8.76506">
        <ele>634</ele>
        <time>2021-08-05T13:33:13.948Z</time>
      </trkpt>
      <trkpt lat="46.97403" lon="8.76505">
        <ele>633</ele>
        <time>2021-08-05T13:33:14.948Z</time>
      </trkpt>
      <trkpt lat="46.97403" lon="8.76505">
        <ele>633</ele>
        <time>2021-08-05T13:33:15.948Z</time>
      </trkpt>
      <trkpt lat="46.97403" lon="8.76505">
        <ele>633</ele>
        <time>2021-08-05T13:33:16.947Z</time>
      </trkpt>
      <trkpt lat="46.97403" lon="8.76506">
        <ele>633</ele>
        <time>2021-08-05T13:33:17.948Z</time>
      </trkpt>
      <trkpt lat="46.97403" lon="8.76506">
        <ele>632</ele>
        <time>2021-08-05T13:33:18.948Z</time>
      </trkpt>
      <trkpt lat="46.97403" lon="8.76506">
        <ele>632</ele>
        <time>2021-08-05T13:33:19.948Z</time>
      </trkpt>
      <trkpt lat="46.97403" lon="8.76506">
        <ele>632</ele>
        <time>2021-08-05T13:33:20.947Z</time>
      </trkpt>
      <trkpt lat="46.97402" lon="8.76505">
        <ele>632</ele>
        <time>2021-08-05T13:33:21.948Z</time>
      </trkpt>
      <trkpt lat="46.97403" lon="8.76505">
        <ele>632</ele>
        <time>2021-08-05T13:33:22.948Z</time>
      </trkpt>
      <trkpt lat="46.97403" lon="8.76504">
        <ele>631</ele>
        <time>2021-08-05T13:33:23.948Z</time>
      </trkpt>
      <trkpt lat="46.97403" lon="8.76504">
        <ele>631</ele>
        <time>2021-08-05T13:33:24.947Z</time>
      </trkpt>
      <trkpt lat="46.97404" lon="8.76504">
        <ele>631</ele>
        <time>2021-08-05T13:33:25.948Z</time>
      </trkpt>
      <trkpt lat="46.97405" lon="8.76502">
        <ele>630</ele>
        <time>2021-08-05T13:33:26.947Z</time>
      </trkpt>
      <trkpt lat="46.97405" lon="8.76503">
        <ele>630</ele>
        <time>2021-08-05T13:33:27.947Z</time>
      </trkpt>
      <trkpt lat="46.97405" lon="8.76502">
        <ele>630</ele>
        <time>2021-08-05T13:33:28.948Z</time>
      </trkpt>
      <trkpt lat="46.97405" lon="8.76502">
        <ele>630</ele>
        <time>2021-08-05T13:33:29.947Z</time>
      </trkpt>
      <trkpt lat="46.97404" lon="8.76502">
        <ele>630</ele>
        <time>2021-08-05T13:33:30.947Z</time>
      </trkpt>
      <trkpt lat="46.97403" lon="8.76501">
        <ele>630</ele>
        <time>2021-08-05T13:33:31.948Z</time>
      </trkpt>
      <trkpt lat="46.97404" lon="8.765">
        <ele>630</ele>
        <time>2021-08-05T13:33:32.947Z</time>
      </trkpt>
      <trkpt lat="46.97404" lon="8.765">
        <ele>630</ele>
        <time>2021-08-05T13:33:33.947Z</time>
      </trkpt>
      <trkpt lat="46.97406" lon="8.76499">
        <ele>629</ele>
        <time>2021-08-05T13:33:34.947Z</time>
      </trkpt>
      <trkpt lat="46.97407" lon="8.76499">
        <ele>629</ele>
        <time>2021-08-05T13:33:35.947Z</time>
      </trkpt>
      <trkpt lat="46.97408" lon="8.76497">
        <ele>629</ele>
        <time>2021-08-05T13:33:36.947Z</time>
      </trkpt>
      <trkpt lat="46.97409" lon="8.76496">
        <ele>629</ele>
        <time>2021-08-05T13:33:37.947Z</time>
      </trkpt>
      <trkpt lat="46.97411" lon="8.76493">
        <ele>629</ele>
        <time>2021-08-05T13:33:38.947Z</time>
      </trkpt>
      <trkpt lat="46.97414" lon="8.76489">
        <ele>629</ele>
        <time>2021-08-05T13:33:39.947Z</time>
      </trkpt>
      <trkpt lat="46.97418" lon="8.76482">
        <ele>629</ele>
        <time>2021-08-05T13:33:40.947Z</time>
      </trkpt>
      <trkpt lat="46.9742" lon="8.76479">
        <ele>628</ele>
        <time>2021-08-05T13:33:41.947Z</time>
      </trkpt>
      <trkpt lat="46.97421" lon="8.76484">
        <ele>627</ele>
        <time>2021-08-05T13:33:48.947Z</time>
      </trkpt>
      <trkpt lat="46.97421" lon="8.76485">
        <ele>627</ele>
        <time>2021-08-05T13:33:49.947Z</time>
      </trkpt>
      <trkpt lat="46.97421" lon="8.76485">
        <ele>627</ele>
        <time>2021-08-05T13:33:50.947Z</time>
      </trkpt>
      <trkpt lat="46.97421" lon="8.76485">
        <ele>627</ele>
        <time>2021-08-05T13:33:51.947Z</time>
      </trkpt>
      <trkpt lat="46.97421" lon="8.76486">
        <ele>627</ele>
        <time>2021-08-05T13:33:52.947Z</time>
      </trkpt>
      <trkpt lat="46.97421" lon="8.76487">
        <ele>627</ele>
        <time>2021-08-05T13:33:53.947Z</time>
      </trkpt>
      <trkpt lat="46.9742" lon="8.76489">
        <ele>627</ele>
        <time>2021-08-05T13:33:54.947Z</time>
      </trkpt>
      <trkpt lat="46.9742" lon="8.76491">
        <ele>627</ele>
        <time>2021-08-05T13:33:55.947Z</time>
      </trkpt>
      <trkpt lat="46.9742" lon="8.76492">
        <ele>627</ele>
        <time>2021-08-05T13:33:56.947Z</time>
      </trkpt>
      <trkpt lat="46.97419" lon="8.76493">
        <ele>627</ele>
        <time>2021-08-05T13:33:57.947Z</time>
      </trkpt>
      <trkpt lat="46.97419" lon="8.76495">
        <ele>627</ele>
        <time>2021-08-05T13:33:58.947Z</time>
      </trkpt>
      <trkpt lat="46.97419" lon="8.76496">
        <ele>627</ele>
        <time>2021-08-05T13:33:59.947Z</time>
      </trkpt>
      <trkpt lat="46.97419" lon="8.76497">
        <ele>627</ele>
        <time>2021-08-05T13:34:00.947Z</time>
      </trkpt>
      <trkpt lat="46.97419" lon="8.76498">
        <ele>627</ele>
        <time>2021-08-05T13:34:01.947Z</time>
      </trkpt>
      <trkpt lat="46.97419" lon="8.76498">
        <ele>627</ele>
        <time>2021-08-05T13:34:02.947Z</time>
      </trkpt>
      <trkpt lat="46.97418" lon="8.76499">
        <ele>627</ele>
        <time>2021-08-05T13:34:03.947Z</time>
      </trkpt>
      <trkpt lat="46.97417" lon="8.765">
        <ele>627</ele>
        <time>2021-08-05T13:34:04.948Z</time>
      </trkpt>
      <trkpt lat="46.97415" lon="8.76501">
        <ele>627</ele>
        <time>2021-08-05T13:34:05.947Z</time>
      </trkpt>
      <trkpt lat="46.97414" lon="8.76503">
        <ele>627</ele>
        <time>2021-08-05T13:34:06.947Z</time>
      </trkpt>
      <trkpt lat="46.97413" lon="8.76508">
        <ele>627</ele>
        <time>2021-08-05T13:34:07.947Z</time>
      </trkpt>
      <trkpt lat="46.97412" lon="8.76509">
        <ele>627</ele>
        <time>2021-08-05T13:34:08.947Z</time>
      </trkpt>
      <trkpt lat="46.97411" lon="8.76512">
        <ele>627</ele>
        <time>2021-08-05T13:34:09.947Z</time>
      </trkpt>
      <trkpt lat="46.9741" lon="8.76512">
        <ele>627</ele>
        <time>2021-08-05T13:34:10.948Z</time>
      </trkpt>
      <trkpt lat="46.97408" lon="8.7651">
        <ele>627</ele>
        <time>2021-08-05T13:34:11.948Z</time>
      </trkpt>
      <trkpt lat="46.97407" lon="8.76508">
        <ele>626</ele>
        <time>2021-08-05T13:34:12.948Z</time>
      </trkpt>
      <trkpt lat="46.97406" lon="8.76507">
        <ele>626</ele>
        <time>2021-08-05T13:34:13.947Z</time>
      </trkpt>
      <trkpt lat="46.97406" lon="8.76506">
        <ele>626</ele>
        <time>2021-08-05T13:34:14.947Z</time>
      </trkpt>
      <trkpt lat="46.97406" lon="8.76506">
        <ele>626</ele>
        <time>2021-08-05T13:34:15.948Z</time>
      </trkpt>
      <trkpt lat="46.97406" lon="8.76507">
        <ele>626</ele>
        <time>2021-08-05T13:34:16.948Z</time>
      </trkpt>
      <trkpt lat="46.97406" lon="8.76507">
        <ele>626</ele>
        <time>2021-08-05T13:34:17.947Z</time>
      </trkpt>
      <trkpt lat="46.97406" lon="8.76508">
        <ele>625</ele>
        <time>2021-08-05T13:34:18.948Z</time>
      </trkpt>
      <trkpt lat="46.97404" lon="8.76507">
        <ele>624</ele>
        <time>2021-08-05T13:34:19.948Z</time>
      </trkpt>
      <trkpt lat="46.97403" lon="8.76507">
        <ele>624</ele>
        <time>2021-08-05T13:34:20.948Z</time>
      </trkpt>
      <trkpt lat="46.97403" lon="8.76506">
        <ele>624</ele>
        <time>2021-08-05T13:34:21.947Z</time>
      </trkpt>
      <trkpt lat="46.97402" lon="8.76506">
        <ele>624</ele>
        <time>2021-08-05T13:34:22.948Z</time>
      </trkpt>
      <trkpt lat="46.97402" lon="8.76506">
        <ele>623</ele>
        <time>2021-08-05T13:34:23.948Z</time>
      </trkpt>
      <trkpt lat="46.97402" lon="8.76507">
        <ele>623</ele>
        <time>2021-08-05T13:34:24.948Z</time>
      </trkpt>
      <trkpt lat="46.97401" lon="8.76508">
        <ele>623</ele>
        <time>2021-08-05T13:34:25.948Z</time>
      </trkpt>
      <trkpt lat="46.97401" lon="8.76509">
        <ele>623</ele>
        <time>2021-08-05T13:34:26.948Z</time>
      </trkpt>
      <trkpt lat="46.974" lon="8.7651">
        <ele>623</ele>
        <time>2021-08-05T13:34:27.948Z</time>
      </trkpt>
      <trkpt lat="46.974" lon="8.76511">
        <ele>623</ele>
        <time>2021-08-05T13:34:28.947Z</time>
      </trkpt>
      <trkpt lat="46.974" lon="8.76511">
        <ele>623</ele>
        <time>2021-08-05T13:34:29.948Z</time>
      </trkpt>
      <trkpt lat="46.974" lon="8.76512">
        <ele>623</ele>
        <time>2021-08-05T13:34:30.948Z</time>
      </trkpt>
      <trkpt lat="46.974" lon="8.76512">
        <ele>624</ele>
        <time>2021-08-05T13:34:31.947Z</time>
      </trkpt>
      <trkpt lat="46.97399" lon="8.76512">
        <ele>624</ele>
        <time>2021-08-05T13:34:32.947Z</time>
      </trkpt>
      <trkpt lat="46.97399" lon="8.76513">
        <ele>624</ele>
        <time>2021-08-05T13:34:33.948Z</time>
      </trkpt>
      <trkpt lat="46.97399" lon="8.76512">
        <ele>624</ele>
        <time>2021-08-05T13:34:34.947Z</time>
      </trkpt>
      <trkpt lat="46.97399" lon="8.76512">
        <ele>624</ele>
        <time>2021-08-05T13:34:35.947Z</time>
      </trkpt>
      <trkpt lat="46.974" lon="8.76511">
        <ele>624</ele>
        <time>2021-08-05T13:34:36.948Z</time>
      </trkpt>
      <trkpt lat="46.97399" lon="8.76511">
        <ele>624</ele>
        <time>2021-08-05T13:34:37.948Z</time>
      </trkpt>
      <trkpt lat="46.97401" lon="8.76511">
        <ele>624</ele>
        <time>2021-08-05T13:34:38.948Z</time>
      </trkpt>
      <trkpt lat="46.97402" lon="8.76511">
        <ele>624</ele>
        <time>2021-08-05T13:34:39.948Z</time>
      </trkpt>
      <trkpt lat="46.97403" lon="8.76521">
        <ele>624</ele>
        <time>2021-08-05T13:34:40.948Z</time>
      </trkpt>
      <trkpt lat="46.97399" lon="8.76522">
        <ele>624</ele>
        <time>2021-08-05T13:34:41.948Z</time>
      </trkpt>
      <trkpt lat="46.97396" lon="8.7652">
        <ele>625</ele>
        <time>2021-08-05T13:34:42.948Z</time>
      </trkpt>
      <trkpt lat="46.97395" lon="8.7652">
        <ele>625</ele>
        <time>2021-08-05T13:34:43.948Z</time>
      </trkpt>
      <trkpt lat="46.97395" lon="8.7652">
        <ele>625</ele>
        <time>2021-08-05T13:34:44.948Z</time>
      </trkpt>
      <trkpt lat="46.97395" lon="8.76521">
        <ele>625</ele>
        <time>2021-08-05T13:34:45.948Z</time>
      </trkpt>
      <trkpt lat="46.97393" lon="8.76521">
        <ele>625</ele>
        <time>2021-08-05T13:34:46.947Z</time>
      </trkpt>
      <trkpt lat="46.97392" lon="8.76522">
        <ele>625</ele>
        <time>2021-08-05T13:34:47.948Z</time>
      </trkpt>
      <trkpt lat="46.97391" lon="8.76523">
        <ele>625</ele>
        <time>2021-08-05T13:34:48.947Z</time>
      </trkpt>
      <trkpt lat="46.9739" lon="8.76522">
        <ele>625</ele>
        <time>2021-08-05T13:34:49.948Z</time>
      </trkpt>
      <trkpt lat="46.9739" lon="8.76522">
        <ele>625</ele>
        <time>2021-08-05T13:34:50.948Z</time>
      </trkpt>
      <trkpt lat="46.9739" lon="8.76522">
        <ele>625</ele>
        <time>2021-08-05T13:34:51.948Z</time>
      </trkpt>
      <trkpt lat="46.97391" lon="8.76522">
        <ele>626</ele>
        <time>2021-08-05T13:34:52.948Z</time>
      </trkpt>
      <trkpt lat="46.9739" lon="8.76523">
        <ele>626</ele>
        <time>2021-08-05T13:34:53.948Z</time>
      </trkpt>
      <trkpt lat="46.9739" lon="8.76524">
        <ele>626</ele>
        <time>2021-08-05T13:34:54.947Z</time>
      </trkpt>
      <trkpt lat="46.97391" lon="8.76525">
        <ele>626</ele>
        <time>2021-08-05T13:34:55.948Z</time>
      </trkpt>
      <trkpt lat="46.97391" lon="8.76525">
        <ele>626</ele>
        <time>2021-08-05T13:34:56.948Z</time>
      </trkpt>
      <trkpt lat="46.97391" lon="8.76525">
        <ele>626</ele>
        <time>2021-08-05T13:34:57.948Z</time>
      </trkpt>
      <trkpt lat="46.97391" lon="8.76524">
        <ele>626</ele>
        <time>2021-08-05T13:34:58.947Z</time>
      </trkpt>
      <trkpt lat="46.9739" lon="8.76524">
        <ele>626</ele>
        <time>2021-08-05T13:34:59.948Z</time>
      </trkpt>
      <trkpt lat="46.9739" lon="8.76523">
        <ele>627</ele>
        <time>2021-08-05T13:35:00.948Z</time>
      </trkpt>
      <trkpt lat="46.97389" lon="8.76523">
        <ele>627</ele>
        <time>2021-08-05T13:35:01.947Z</time>
      </trkpt>
      <trkpt lat="46.97389" lon="8.76524">
        <ele>628</ele>
        <time>2021-08-05T13:35:02.947Z</time>
      </trkpt>
      <trkpt lat="46.97388" lon="8.76524">
        <ele>628</ele>
        <time>2021-08-05T13:35:03.948Z</time>
      </trkpt>
      <trkpt lat="46.97387" lon="8.76525">
        <ele>629</ele>
        <time>2021-08-05T13:35:04.947Z</time>
      </trkpt>
      <trkpt lat="46.97387" lon="8.76526">
        <ele>635</ele>
        <time>2021-08-05T13:35:05.949Z</time>
      </trkpt>
      <trkpt lat="46.97385" lon="8.76527">
        <ele>637</ele>
        <time>2021-08-05T13:35:06.950Z</time>
      </trkpt>
      <trkpt lat="46.97386" lon="8.76525">
        <ele>637</ele>
        <time>2021-08-05T13:35:07.949Z</time>
      </trkpt>
      <trkpt lat="46.97386" lon="8.76523">
        <ele>638</ele>
        <time>2021-08-05T13:35:08.950Z</time>
      </trkpt>
      <trkpt lat="46.97387" lon="8.76522">
        <ele>638</ele>
        <time>2021-08-05T13:35:09.950Z</time>
      </trkpt>
      <trkpt lat="46.97387" lon="8.76523">
        <ele>638</ele>
        <time>2021-08-05T13:35:10.950Z</time>
      </trkpt>
      <trkpt lat="46.97387" lon="8.76523">
        <ele>638</ele>
        <time>2021-08-05T13:35:11.949Z</time>
      </trkpt>
      <trkpt lat="46.97389" lon="8.76516">
        <ele>640</ele>
        <time>2021-08-05T13:35:12.950Z</time>
      </trkpt>
      <trkpt lat="46.9739" lon="8.76513">
        <ele>640</ele>
        <time>2021-08-05T13:35:13.950Z</time>
      </trkpt>
      <trkpt lat="46.9739" lon="8.76511">
        <ele>640</ele>
        <time>2021-08-05T13:35:14.949Z</time>
      </trkpt>
      <trkpt lat="46.9739" lon="8.7651">
        <ele>640</ele>
        <time>2021-08-05T13:35:15.949Z</time>
      </trkpt>
      <trkpt lat="46.97389" lon="8.76511">
        <ele>640</ele>
        <time>2021-08-05T13:35:16.950Z</time>
      </trkpt>
      <trkpt lat="46.9739" lon="8.7651">
        <ele>640</ele>
        <time>2021-08-05T13:35:17.950Z</time>
      </trkpt>
      <trkpt lat="46.9739" lon="8.76509">
        <ele>640</ele>
        <time>2021-08-05T13:35:18.950Z</time>
      </trkpt>
      <trkpt lat="46.97391" lon="8.76506">
        <ele>640</ele>
        <time>2021-08-05T13:35:19.949Z</time>
      </trkpt>
      <trkpt lat="46.97391" lon="8.76507">
        <ele>639</ele>
        <time>2021-08-05T13:35:20.949Z</time>
      </trkpt>
      <trkpt lat="46.9739" lon="8.76508">
        <ele>639</ele>
        <time>2021-08-05T13:35:21.950Z</time>
      </trkpt>
      <trkpt lat="46.97391" lon="8.76509">
        <ele>638</ele>
        <time>2021-08-05T13:35:22.950Z</time>
      </trkpt>
      <trkpt lat="46.97392" lon="8.76512">
        <ele>636</ele>
        <time>2021-08-05T13:35:23.950Z</time>
      </trkpt>
      <trkpt lat="46.97392" lon="8.76512">
        <ele>636</ele>
        <time>2021-08-05T13:35:24.950Z</time>
      </trkpt>
      <trkpt lat="46.97391" lon="8.76511">
        <ele>636</ele>
        <time>2021-08-05T13:35:25.950Z</time>
      </trkpt>
      <trkpt lat="46.97391" lon="8.7651">
        <ele>635</ele>
        <time>2021-08-05T13:35:26.950Z</time>
      </trkpt>
      <trkpt lat="46.9739" lon="8.76508">
        <ele>635</ele>
        <time>2021-08-05T13:35:27.950Z</time>
      </trkpt>
      <trkpt lat="46.97389" lon="8.76507">
        <ele>635</ele>
        <time>2021-08-05T13:35:28.950Z</time>
      </trkpt>
      <trkpt lat="46.97388" lon="8.76505">
        <ele>634</ele>
        <time>2021-08-05T13:35:29.950Z</time>
      </trkpt>
      <trkpt lat="46.97387" lon="8.76504">
        <ele>634</ele>
        <time>2021-08-05T13:35:30.950Z</time>
      </trkpt>
      <trkpt lat="46.97385" lon="8.76502">
        <ele>634</ele>
        <time>2021-08-05T13:35:33.950Z</time>
      </trkpt>
      <trkpt lat="46.97385" lon="8.76502">
        <ele>633</ele>
        <time>2021-08-05T13:35:34.950Z</time>
      </trkpt>
      <trkpt lat="46.97385" lon="8.76502">
        <ele>633</ele>
        <time>2021-08-05T13:35:35.950Z</time>
      </trkpt>
      <trkpt lat="46.97387" lon="8.76504">
        <ele>631</ele>
        <time>2021-08-05T13:35:36.951Z</time>
      </trkpt>
      <trkpt lat="46.97387" lon="8.76504">
        <ele>631</ele>
        <time>2021-08-05T13:35:37.951Z</time>
      </trkpt>
      <trkpt lat="46.97387" lon="8.76503">
        <ele>631</ele>
        <time>2021-08-05T13:35:38.951Z</time>
      </trkpt>
      <trkpt lat="46.97386" lon="8.76504">
        <ele>631</ele>
        <time>2021-08-05T13:35:39.951Z</time>
      </trkpt>
      <trkpt lat="46.97386" lon="8.76507">
        <ele>631</ele>
        <time>2021-08-05T13:35:40.951Z</time>
      </trkpt>
      <trkpt lat="46.97386" lon="8.76509">
        <ele>632</ele>
        <time>2021-08-05T13:35:41.950Z</time>
      </trkpt>
      <trkpt lat="46.97386" lon="8.76511">
        <ele>632</ele>
        <time>2021-08-05T13:35:42.951Z</time>
      </trkpt>
      <trkpt lat="46.97386" lon="8.76511">
        <ele>632</ele>
        <time>2021-08-05T13:35:43.951Z</time>
      </trkpt>
      <trkpt lat="46.97386" lon="8.76511">
        <ele>632</ele>
        <time>2021-08-05T13:35:44.950Z</time>
      </trkpt>
      <trkpt lat="46.97386" lon="8.76512">
        <ele>633</ele>
        <time>2021-08-05T13:35:45.951Z</time>
      </trkpt>
      <trkpt lat="46.97385" lon="8.76512">
        <ele>633</ele>
        <time>2021-08-05T13:35:46.950Z</time>
      </trkpt>
      <trkpt lat="46.97385" lon="8.76513">
        <ele>633</ele>
        <time>2021-08-05T13:35:47.951Z</time>
      </trkpt>
      <trkpt lat="46.97385" lon="8.76514">
        <ele>633</ele>
        <time>2021-08-05T13:35:48.950Z</time>
      </trkpt>
      <trkpt lat="46.97385" lon="8.76514">
        <ele>633</ele>
        <time>2021-08-05T13:35:49.951Z</time>
      </trkpt>
      <trkpt lat="46.97385" lon="8.76513">
        <ele>633</ele>
        <time>2021-08-05T13:35:50.950Z</time>
      </trkpt>
      <trkpt lat="46.97385" lon="8.76512">
        <ele>633</ele>
        <time>2021-08-05T13:35:51.950Z</time>
      </trkpt>
      <trkpt lat="46.97384" lon="8.76512">
        <ele>633</ele>
        <time>2021-08-05T13:35:52.951Z</time>
      </trkpt>
      <trkpt lat="46.97385" lon="8.76513">
        <ele>632</ele>
        <time>2021-08-05T13:35:53.951Z</time>
      </trkpt>
      <trkpt lat="46.97386" lon="8.76512">
        <ele>632</ele>
        <time>2021-08-05T13:35:54.950Z</time>
      </trkpt>
      <trkpt lat="46.97387" lon="8.76512">
        <ele>632</ele>
        <time>2021-08-05T13:35:55.950Z</time>
      </trkpt>
      <trkpt lat="46.97388" lon="8.76513">
        <ele>632</ele>
        <time>2021-08-05T13:35:56.951Z</time>
      </trkpt>
      <trkpt lat="46.97388" lon="8.76513">
        <ele>631</ele>
        <time>2021-08-05T13:35:57.951Z</time>
      </trkpt>
      <trkpt lat="46.97388" lon="8.76513">
        <ele>631</ele>
        <time>2021-08-05T13:35:58.950Z</time>
      </trkpt>
      <trkpt lat="46.97388" lon="8.76515">
        <ele>631</ele>
        <time>2021-08-05T13:35:59.950Z</time>
      </trkpt>
      <trkpt lat="46.97388" lon="8.76515">
        <ele>631</ele>
        <time>2021-08-05T13:36:00.950Z</time>
      </trkpt>
      <trkpt lat="46.97387" lon="8.76515">
        <ele>630</ele>
        <time>2021-08-05T13:36:01.950Z</time>
      </trkpt>
      <trkpt lat="46.97386" lon="8.76514">
        <ele>630</ele>
        <time>2021-08-05T13:36:02.950Z</time>
      </trkpt>
      <trkpt lat="46.97384" lon="8.76513">
        <ele>630</ele>
        <time>2021-08-05T13:36:03.950Z</time>
      </trkpt>
      <trkpt lat="46.97385" lon="8.76512">
        <ele>629</ele>
        <time>2021-08-05T13:36:04.950Z</time>
      </trkpt>
      <trkpt lat="46.97385" lon="8.76511">
        <ele>629</ele>
        <time>2021-08-05T13:36:05.950Z</time>
      </trkpt>
      <trkpt lat="46.97386" lon="8.76513">
        <ele>628</ele>
        <time>2021-08-05T13:36:06.950Z</time>
      </trkpt>
      <trkpt lat="46.97386" lon="8.76514">
        <ele>628</ele>
        <time>2021-08-05T13:36:07.950Z</time>
      </trkpt>
      <trkpt lat="46.97387" lon="8.76516">
        <ele>628</ele>
        <time>2021-08-05T13:36:08.950Z</time>
      </trkpt>
      <trkpt lat="46.97387" lon="8.76517">
        <ele>627</ele>
        <time>2021-08-05T13:36:09.950Z</time>
      </trkpt>
      <trkpt lat="46.97388" lon="8.76517">
        <ele>627</ele>
        <time>2021-08-05T13:36:15.079Z</time>
      </trkpt>
      <trkpt lat="46.97389" lon="8.76517">
        <ele>627</ele>
        <time>2021-08-05T13:36:16.080Z</time>
      </trkpt>
      <trkpt lat="46.97389" lon="8.76516">
        <ele>626</ele>
        <time>2021-08-05T13:36:17.079Z</time>
      </trkpt>
      <trkpt lat="46.9739" lon="8.76517">
        <ele>626</ele>
        <time>2021-08-05T13:36:18.079Z</time>
      </trkpt>
      <trkpt lat="46.97389" lon="8.76517">
        <ele>626</ele>
        <time>2021-08-05T13:36:19.079Z</time>
      </trkpt>
      <trkpt lat="46.97389" lon="8.76516">
        <ele>626</ele>
        <time>2021-08-05T13:36:20.080Z</time>
      </trkpt>
      <trkpt lat="46.97388" lon="8.76515">
        <ele>625</ele>
        <time>2021-08-05T13:36:21.079Z</time>
      </trkpt>
      <trkpt lat="46.97388" lon="8.76514">
        <ele>625</ele>
        <time>2021-08-05T13:36:22.080Z</time>
      </trkpt>
      <trkpt lat="46.97388" lon="8.76514">
        <ele>624</ele>
        <time>2021-08-05T13:36:23.081Z</time>
      </trkpt>
      <trkpt lat="46.97388" lon="8.76514">
        <ele>624</ele>
        <time>2021-08-05T13:36:24.080Z</time>
      </trkpt>
      <trkpt lat="46.9739" lon="8.76513">
        <ele>623</ele>
        <time>2021-08-05T13:36:25.080Z</time>
      </trkpt>
      <trkpt lat="46.97391" lon="8.76512">
        <ele>622</ele>
        <time>2021-08-05T13:36:26.080Z</time>
      </trkpt>
      <trkpt lat="46.97392" lon="8.7651">
        <ele>622</ele>
        <time>2021-08-05T13:36:27.080Z</time>
      </trkpt>
      <trkpt lat="46.97393" lon="8.76509">
        <ele>621</ele>
        <time>2021-08-05T13:36:28.081Z</time>
      </trkpt>
      <trkpt lat="46.97393" lon="8.76508">
        <ele>620</ele>
        <time>2021-08-05T13:36:29.080Z</time>
      </trkpt>
      <trkpt lat="46.97392" lon="8.76508">
        <ele>620</ele>
        <time>2021-08-05T13:36:30.081Z</time>
      </trkpt>
      <trkpt lat="46.97391" lon="8.76503">
        <ele>617</ele>
        <time>2021-08-05T13:36:31.081Z</time>
      </trkpt>
      <trkpt lat="46.97392" lon="8.76501">
        <ele>617</ele>
        <time>2021-08-05T13:36:32.083Z</time>
      </trkpt>
      <trkpt lat="46.97391" lon="8.76498">
        <ele>616</ele>
        <time>2021-08-05T13:36:33.083Z</time>
      </trkpt>
      <trkpt lat="46.97392" lon="8.76496">
        <ele>616</ele>
        <time>2021-08-05T13:36:34.082Z</time>
      </trkpt>
      <trkpt lat="46.97392" lon="8.76496">
        <ele>616</ele>
        <time>2021-08-05T13:36:35.083Z</time>
      </trkpt>
      <trkpt lat="46.97393" lon="8.76497">
        <ele>616</ele>
        <time>2021-08-05T13:36:36.083Z</time>
      </trkpt>
      <trkpt lat="46.97393" lon="8.76498">
        <ele>615</ele>
        <time>2021-08-05T13:36:37.083Z</time>
      </trkpt>
      <trkpt lat="46.97396" lon="8.76499">
        <ele>613</ele>
        <time>2021-08-05T13:36:38.083Z</time>
      </trkpt>
      <trkpt lat="46.97396" lon="8.76497">
        <ele>613</ele>
        <time>2021-08-05T13:36:39.083Z</time>
      </trkpt>
      <trkpt lat="46.97396" lon="8.76497">
        <ele>612</ele>
        <time>2021-08-05T13:36:40.082Z</time>
      </trkpt>
      <trkpt lat="46.97396" lon="8.76496">
        <ele>611</ele>
        <time>2021-08-05T13:36:41.082Z</time>
      </trkpt>
      <trkpt lat="46.97396" lon="8.76497">
        <ele>611</ele>
        <time>2021-08-05T13:36:42.082Z</time>
      </trkpt>
      <trkpt lat="46.97395" lon="8.76498">
        <ele>610</ele>
        <time>2021-08-05T13:36:43.082Z</time>
      </trkpt>
      <trkpt lat="46.97392" lon="8.76497">
        <ele>609</ele>
        <time>2021-08-05T13:36:44.084Z</time>
      </trkpt>
      <trkpt lat="46.97391" lon="8.76498">
        <ele>609</ele>
        <time>2021-08-05T13:36:45.084Z</time>
      </trkpt>
      <trkpt lat="46.97391" lon="8.76499">
        <ele>608</ele>
        <time>2021-08-05T13:36:46.083Z</time>
      </trkpt>
      <trkpt lat="46.97391" lon="8.76501">
        <ele>608</ele>
        <time>2021-08-05T13:36:47.083Z</time>
      </trkpt>
      <trkpt lat="46.97391" lon="8.76503">
        <ele>607</ele>
        <time>2021-08-05T13:36:48.083Z</time>
      </trkpt>
      <trkpt lat="46.97391" lon="8.76504">
        <ele>607</ele>
        <time>2021-08-05T13:36:49.083Z</time>
      </trkpt>
      <trkpt lat="46.9739" lon="8.76504">
        <ele>606</ele>
        <time>2021-08-05T13:36:50.084Z</time>
      </trkpt>
      <trkpt lat="46.97389" lon="8.76504">
        <ele>606</ele>
        <time>2021-08-05T13:36:51.084Z</time>
      </trkpt>
      <trkpt lat="46.97388" lon="8.76503">
        <ele>606</ele>
        <time>2021-08-05T13:36:52.084Z</time>
      </trkpt>
      <trkpt lat="46.9739" lon="8.76502">
        <ele>606</ele>
        <time>2021-08-05T13:36:53.084Z</time>
      </trkpt>
      <trkpt lat="46.97391" lon="8.76502">
        <ele>605</ele>
        <time>2021-08-05T13:36:54.085Z</time>
      </trkpt>
      <trkpt lat="46.97392" lon="8.76502">
        <ele>605</ele>
        <time>2021-08-05T13:36:55.084Z</time>
      </trkpt>
      <trkpt lat="46.97392" lon="8.76501">
        <ele>605</ele>
        <time>2021-08-05T13:36:56.084Z</time>
      </trkpt>
      <trkpt lat="46.97393" lon="8.76501">
        <ele>605</ele>
        <time>2021-08-05T13:36:57.085Z</time>
      </trkpt>
      <trkpt lat="46.97393" lon="8.76501">
        <ele>604</ele>
        <time>2021-08-05T13:36:58.085Z</time>
      </trkpt>
      <trkpt lat="46.97394" lon="8.76501">
        <ele>604</ele>
        <time>2021-08-05T13:36:59.085Z</time>
      </trkpt>
      <trkpt lat="46.97395" lon="8.76501">
        <ele>604</ele>
        <time>2021-08-05T13:37:00.085Z</time>
      </trkpt>
      <trkpt lat="46.97396" lon="8.76501">
        <ele>604</ele>
        <time>2021-08-05T13:37:01.085Z</time>
      </trkpt>
      <trkpt lat="46.97397" lon="8.76502">
        <ele>604</ele>
        <time>2021-08-05T13:37:02.085Z</time>
      </trkpt>
      <trkpt lat="46.97397" lon="8.76502">
        <ele>604</ele>
        <time>2021-08-05T13:37:03.085Z</time>
      </trkpt>
      <trkpt lat="46.97398" lon="8.76503">
        <ele>604</ele>
        <time>2021-08-05T13:37:04.084Z</time>
      </trkpt>
      <trkpt lat="46.97398" lon="8.76504">
        <ele>604</ele>
        <time>2021-08-05T13:37:05.084Z</time>
      </trkpt>
      <trkpt lat="46.97398" lon="8.76504">
        <ele>604</ele>
        <time>2021-08-05T13:37:06.084Z</time>
      </trkpt>
      <trkpt lat="46.97398" lon="8.76504">
        <ele>604</ele>
        <time>2021-08-05T13:37:07.084Z</time>
      </trkpt>
      <trkpt lat="46.97399" lon="8.76505">
        <ele>604</ele>
        <time>2021-08-05T13:37:08.085Z</time>
      </trkpt>
      <trkpt lat="46.97398" lon="8.76505">
        <ele>604</ele>
        <time>2021-08-05T13:37:09.085Z</time>
      </trkpt>
      <trkpt lat="46.97398" lon="8.76507">
        <ele>604</ele>
        <time>2021-08-05T13:37:10.085Z</time>
      </trkpt>
      <trkpt lat="46.97397" lon="8.76505">
        <ele>605</ele>
        <time>2021-08-05T13:37:11.085Z</time>
      </trkpt>
      <trkpt lat="46.97396" lon="8.76503">
        <ele>605</ele>
        <time>2021-08-05T13:37:12.085Z</time>
      </trkpt>
      <trkpt lat="46.97395" lon="8.76503">
        <ele>605</ele>
        <time>2021-08-05T13:37:13.085Z</time>
      </trkpt>
      <trkpt lat="46.97396" lon="8.76505">
        <ele>606</ele>
        <time>2021-08-05T13:37:14.084Z</time>
      </trkpt>
      <trkpt lat="46.97398" lon="8.76508">
        <ele>606</ele>
        <time>2021-08-05T13:37:15.085Z</time>
      </trkpt>
      <trkpt lat="46.97402" lon="8.76511">
        <ele>606</ele>
        <time>2021-08-05T13:37:16.085Z</time>
      </trkpt>
      <trkpt lat="46.97404" lon="8.76512">
        <ele>606</ele>
        <time>2021-08-05T13:37:17.085Z</time>
      </trkpt>
      <trkpt lat="46.97406" lon="8.76514">
        <ele>607</ele>
        <time>2021-08-05T13:37:18.085Z</time>
      </trkpt>
      <trkpt lat="46.97408" lon="8.76515">
        <ele>607</ele>
        <time>2021-08-05T13:37:19.085Z</time>
      </trkpt>
      <trkpt lat="46.97408" lon="8.76519">
        <ele>607</ele>
        <time>2021-08-05T13:37:20.084Z</time>
      </trkpt>
      <trkpt lat="46.97406" lon="8.76517">
        <ele>608</ele>
        <time>2021-08-05T13:37:21.084Z</time>
      </trkpt>
      <trkpt lat="46.97407" lon="8.76515">
        <ele>608</ele>
        <time>2021-08-05T13:37:22.085Z</time>
      </trkpt>
      <trkpt lat="46.97407" lon="8.76515">
        <ele>608</ele>
        <time>2021-08-05T13:37:23.085Z</time>
      </trkpt>
      <trkpt lat="46.97407" lon="8.76515">
        <ele>608</ele>
        <time>2021-08-05T13:37:24.084Z</time>
      </trkpt>
      <trkpt lat="46.97408" lon="8.76515">
        <ele>609</ele>
        <time>2021-08-05T13:37:25.085Z</time>
      </trkpt>
      <trkpt lat="46.97409" lon="8.76518">
        <ele>609</ele>
        <time>2021-08-05T13:37:26.084Z</time>
      </trkpt>
      <trkpt lat="46.97409" lon="8.76519">
        <ele>609</ele>
        <time>2021-08-05T13:37:27.085Z</time>
      </trkpt>
      <trkpt lat="46.97409" lon="8.76522">
        <ele>609</ele>
        <time>2021-08-05T13:37:28.084Z</time>
      </trkpt>
      <trkpt lat="46.9741" lon="8.76526">
        <ele>610</ele>
        <time>2021-08-05T13:37:29.084Z</time>
      </trkpt>
      <trkpt lat="46.9741" lon="8.76528">
        <ele>610</ele>
        <time>2021-08-05T13:37:30.085Z</time>
      </trkpt>
      <trkpt lat="46.9741" lon="8.76529">
        <ele>611</ele>
        <time>2021-08-05T13:37:31.085Z</time>
      </trkpt>
      <trkpt lat="46.9741" lon="8.76531">
        <ele>611</ele>
        <time>2021-08-05T13:37:32.084Z</time>
      </trkpt>
      <trkpt lat="46.97409" lon="8.76532">
        <ele>612</ele>
        <time>2021-08-05T13:37:33.084Z</time>
      </trkpt>
      <trkpt lat="46.97407" lon="8.76532">
        <ele>612</ele>
        <time>2021-08-05T13:37:34.084Z</time>
      </trkpt>
      <trkpt lat="46.97407" lon="8.76533">
        <ele>612</ele>
        <time>2021-08-05T13:37:35.085Z</time>
      </trkpt>
      <trkpt lat="46.97407" lon="8.76533">
        <ele>613</ele>
        <time>2021-08-05T13:37:36.085Z</time>
      </trkpt>
      <trkpt lat="46.97407" lon="8.76533">
        <ele>613</ele>
        <time>2021-08-05T13:37:37.085Z</time>
      </trkpt>
      <trkpt lat="46.97408" lon="8.76533">
        <ele>613</ele>
        <time>2021-08-05T13:37:38.085Z</time>
      </trkpt>
      <trkpt lat="46.97408" lon="8.76532">
        <ele>614</ele>
        <time>2021-08-05T13:37:39.085Z</time>
      </trkpt>
      <trkpt lat="46.97408" lon="8.76532">
        <ele>614</ele>
        <time>2021-08-05T13:37:40.084Z</time>
      </trkpt>
      <trkpt lat="46.97409" lon="8.76532">
        <ele>614</ele>
        <time>2021-08-05T13:37:41.085Z</time>
      </trkpt>
      <trkpt lat="46.97409" lon="8.76532">
        <ele>615</ele>
        <time>2021-08-05T13:37:42.084Z</time>
      </trkpt>
      <trkpt lat="46.97409" lon="8.76531">
        <ele>615</ele>
        <time>2021-08-05T13:37:43.084Z</time>
      </trkpt>
      <trkpt lat="46.97408" lon="8.7653">
        <ele>615</ele>
        <time>2021-08-05T13:37:44.085Z</time>
      </trkpt>
      <trkpt lat="46.97407" lon="8.76529">
        <ele>616</ele>
        <time>2021-08-05T13:37:45.084Z</time>
      </trkpt>
      <trkpt lat="46.97406" lon="8.76528">
        <ele>616</ele>
        <time>2021-08-05T13:37:46.085Z</time>
      </trkpt>
      <trkpt lat="46.97405" lon="8.76527">
        <ele>616</ele>
        <time>2021-08-05T13:37:47.085Z</time>
      </trkpt>
      <trkpt lat="46.97405" lon="8.76526">
        <ele>616</ele>
        <time>2021-08-05T13:37:48.085Z</time>
      </trkpt>
      <trkpt lat="46.97404" lon="8.76526">
        <ele>617</ele>
        <time>2021-08-05T13:37:49.084Z</time>
      </trkpt>
      <trkpt lat="46.97404" lon="8.76527">
        <ele>617</ele>
        <time>2021-08-05T13:37:50.084Z</time>
      </trkpt>
      <trkpt lat="46.97404" lon="8.76527">
        <ele>617</ele>
        <time>2021-08-05T13:37:51.085Z</time>
      </trkpt>
      <trkpt lat="46.97404" lon="8.76527">
        <ele>617</ele>
        <time>2021-08-05T13:37:52.085Z</time>
      </trkpt>
      <trkpt lat="46.97404" lon="8.76526">
        <ele>617</ele>
        <time>2021-08-05T13:37:53.084Z</time>
      </trkpt>
      <trkpt lat="46.97404" lon="8.76524">
        <ele>617</ele>
        <time>2021-08-05T13:37:54.085Z</time>
      </trkpt>
      <trkpt lat="46.97403" lon="8.76523">
        <ele>617</ele>
        <time>2021-08-05T13:37:55.085Z</time>
      </trkpt>
      <trkpt lat="46.97403" lon="8.76522">
        <ele>617</ele>
        <time>2021-08-05T13:37:56.084Z</time>
      </trkpt>
      <trkpt lat="46.97404" lon="8.76521">
        <ele>617</ele>
        <time>2021-08-05T13:37:57.084Z</time>
      </trkpt>
      <trkpt lat="46.97406" lon="8.76522">
        <ele>616</ele>
        <time>2021-08-05T13:37:58.084Z</time>
      </trkpt>
      <trkpt lat="46.97407" lon="8.76523">
        <ele>616</ele>
        <time>2021-08-05T13:37:59.084Z</time>
      </trkpt>
      <trkpt lat="46.97409" lon="8.76525">
        <ele>616</ele>
        <time>2021-08-05T13:38:00.085Z</time>
      </trkpt>
      <trkpt lat="46.9741" lon="8.76526">
        <ele>616</ele>
        <time>2021-08-05T13:38:01.085Z</time>
      </trkpt>
      <trkpt lat="46.97409" lon="8.76526">
        <ele>615</ele>
        <time>2021-08-05T13:38:02.084Z</time>
      </trkpt>
      <trkpt lat="46.97409" lon="8.76527">
        <ele>615</ele>
        <time>2021-08-05T13:38:03.085Z</time>
      </trkpt>
      <trkpt lat="46.97409" lon="8.76529">
        <ele>615</ele>
        <time>2021-08-05T13:38:04.084Z</time>
      </trkpt>
      <trkpt lat="46.97409" lon="8.7653">
        <ele>615</ele>
        <time>2021-08-05T13:38:05.085Z</time>
      </trkpt>
      <trkpt lat="46.97409" lon="8.7653">
        <ele>615</ele>
        <time>2021-08-05T13:38:06.085Z</time>
      </trkpt>
      <trkpt lat="46.97409" lon="8.76529">
        <ele>615</ele>
        <time>2021-08-05T13:38:07.084Z</time>
      </trkpt>
      <trkpt lat="46.97409" lon="8.76528">
        <ele>615</ele>
        <time>2021-08-05T13:38:08.085Z</time>
      </trkpt>
      <trkpt lat="46.97408" lon="8.76528">
        <ele>615</ele>
        <time>2021-08-05T13:38:09.084Z</time>
      </trkpt>
      <trkpt lat="46.97408" lon="8.76527">
        <ele>615</ele>
        <time>2021-08-05T13:38:10.085Z</time>
      </trkpt>
      <trkpt lat="46.97408" lon="8.76526">
        <ele>615</ele>
        <time>2021-08-05T13:38:11.084Z</time>
      </trkpt>
      <trkpt lat="46.97407" lon="8.76525">
        <ele>615</ele>
        <time>2021-08-05T13:38:12.085Z</time>
      </trkpt>
      <trkpt lat="46.97406" lon="8.76524">
        <ele>614</ele>
        <time>2021-08-05T13:38:13.085Z</time>
      </trkpt>
      <trkpt lat="46.97405" lon="8.76523">
        <ele>614</ele>
        <time>2021-08-05T13:38:14.084Z</time>
      </trkpt>
      <trkpt lat="46.97404" lon="8.76522">
        <ele>614</ele>
        <time>2021-08-05T13:38:15.085Z</time>
      </trkpt>
      <trkpt lat="46.97403" lon="8.76522">
        <ele>613</ele>
        <time>2021-08-05T13:38:16.085Z</time>
      </trkpt>
      <trkpt lat="46.97402" lon="8.76521">
        <ele>613</ele>
        <time>2021-08-05T13:38:17.084Z</time>
      </trkpt>
      <trkpt lat="46.97401" lon="8.7652">
        <ele>612</ele>
        <time>2021-08-05T13:38:18.084Z</time>
      </trkpt>
      <trkpt lat="46.97401" lon="8.76519">
        <ele>612</ele>
        <time>2021-08-05T13:38:19.084Z</time>
      </trkpt>
      <trkpt lat="46.97401" lon="8.76518">
        <ele>611</ele>
        <time>2021-08-05T13:38:20.085Z</time>
      </trkpt>
      <trkpt lat="46.97401" lon="8.76519">
        <ele>610</ele>
        <time>2021-08-05T13:38:21.084Z</time>
      </trkpt>
      <trkpt lat="46.97401" lon="8.7652">
        <ele>609</ele>
        <time>2021-08-05T13:38:22.085Z</time>
      </trkpt>
      <trkpt lat="46.97399" lon="8.76518">
        <ele>608</ele>
        <time>2021-08-05T13:38:23.084Z</time>
      </trkpt>
      <trkpt lat="46.97399" lon="8.76516">
        <ele>609</ele>
        <time>2021-08-05T13:38:24.085Z</time>
      </trkpt>
      <trkpt lat="46.97399" lon="8.76514">
        <ele>610</ele>
        <time>2021-08-05T13:38:25.085Z</time>
      </trkpt>
      <trkpt lat="46.97399" lon="8.76513">
        <ele>611</ele>
        <time>2021-08-05T13:38:26.085Z</time>
      </trkpt>
      <trkpt lat="46.97399" lon="8.76514">
        <ele>612</ele>
        <time>2021-08-05T13:38:27.084Z</time>
      </trkpt>
      <trkpt lat="46.974" lon="8.76514">
        <ele>613</ele>
        <time>2021-08-05T13:38:28.084Z</time>
      </trkpt>
      <trkpt lat="46.974" lon="8.76513">
        <ele>614</ele>
        <time>2021-08-05T13:38:29.084Z</time>
      </trkpt>
      <trkpt lat="46.974" lon="8.76513">
        <ele>615</ele>
        <time>2021-08-05T13:38:30.085Z</time>
      </trkpt>
      <trkpt lat="46.97401" lon="8.76514">
        <ele>616</ele>
        <time>2021-08-05T13:38:31.084Z</time>
      </trkpt>
      <trkpt lat="46.97402" lon="8.76514">
        <ele>617</ele>
        <time>2021-08-05T13:38:32.085Z</time>
      </trkpt>
      <trkpt lat="46.97403" lon="8.76514">
        <ele>617</ele>
        <time>2021-08-05T13:38:33.085Z</time>
      </trkpt>
      <trkpt lat="46.97403" lon="8.76513">
        <ele>618</ele>
        <time>2021-08-05T13:38:34.085Z</time>
      </trkpt>
      <trkpt lat="46.97403" lon="8.76514">
        <ele>618</ele>
        <time>2021-08-05T13:38:35.084Z</time>
      </trkpt>
      <trkpt lat="46.97402" lon="8.76515">
        <ele>619</ele>
        <time>2021-08-05T13:38:36.085Z</time>
      </trkpt>
      <trkpt lat="46.97402" lon="8.76516">
        <ele>619</ele>
        <time>2021-08-05T13:38:37.085Z</time>
      </trkpt>
      <trkpt lat="46.97403" lon="8.76512">
        <ele>620</ele>
        <time>2021-08-05T13:38:38.086Z</time>
      </trkpt>
      <trkpt lat="46.97403" lon="8.76511">
        <ele>621</ele>
        <time>2021-08-05T13:38:39.086Z</time>
      </trkpt>
      <trkpt lat="46.97403" lon="8.76511">
        <ele>621</ele>
        <time>2021-08-05T13:38:40.085Z</time>
      </trkpt>
      <trkpt lat="46.97402" lon="8.76512">
        <ele>622</ele>
        <time>2021-08-05T13:38:41.086Z</time>
      </trkpt>
      <trkpt lat="46.97403" lon="8.76512">
        <ele>623</ele>
        <time>2021-08-05T13:38:42.087Z</time>
      </trkpt>
      <trkpt lat="46.97403" lon="8.76512">
        <ele>623</ele>
        <time>2021-08-05T13:38:43.086Z</time>
      </trkpt>
      <trkpt lat="46.97402" lon="8.76513">
        <ele>623</ele>
        <time>2021-08-05T13:38:44.086Z</time>
      </trkpt>
      <trkpt lat="46.974" lon="8.76517">
        <ele>623</ele>
        <time>2021-08-05T13:38:45.088Z</time>
      </trkpt>
      <trkpt lat="46.97399" lon="8.76518">
        <ele>623</ele>
        <time>2021-08-05T13:38:46.088Z</time>
      </trkpt>
      <trkpt lat="46.97399" lon="8.76518">
        <ele>622</ele>
        <time>2021-08-05T13:38:47.088Z</time>
      </trkpt>
      <trkpt lat="46.97398" lon="8.76519">
        <ele>622</ele>
        <time>2021-08-05T13:38:48.088Z</time>
      </trkpt>
      <trkpt lat="46.97399" lon="8.76521">
        <ele>622</ele>
        <time>2021-08-05T13:38:49.088Z</time>
      </trkpt>
      <trkpt lat="46.97399" lon="8.76524">
        <ele>622</ele>
        <time>2021-08-05T13:38:50.087Z</time>
      </trkpt>
      <trkpt lat="46.974" lon="8.76526">
        <ele>622</ele>
        <time>2021-08-05T13:38:51.088Z</time>
      </trkpt>
      <trkpt lat="46.97401" lon="8.76528">
        <ele>622</ele>
        <time>2021-08-05T13:38:52.088Z</time>
      </trkpt>
      <trkpt lat="46.97401" lon="8.76529">
        <ele>622</ele>
        <time>2021-08-05T13:38:53.088Z</time>
      </trkpt>
      <trkpt lat="46.97399" lon="8.76529">
        <ele>622</ele>
        <time>2021-08-05T13:38:54.088Z</time>
      </trkpt>
      <trkpt lat="46.97398" lon="8.76529">
        <ele>621</ele>
        <time>2021-08-05T13:38:55.088Z</time>
      </trkpt>
      <trkpt lat="46.97396" lon="8.76528">
        <ele>621</ele>
        <time>2021-08-05T13:38:56.088Z</time>
      </trkpt>
      <trkpt lat="46.97394" lon="8.76528">
        <ele>621</ele>
        <time>2021-08-05T13:38:57.088Z</time>
      </trkpt>
      <trkpt lat="46.97391" lon="8.76527">
        <ele>621</ele>
        <time>2021-08-05T13:38:58.088Z</time>
      </trkpt>
      <trkpt lat="46.9739" lon="8.76526">
        <ele>621</ele>
        <time>2021-08-05T13:38:59.088Z</time>
      </trkpt>
      <trkpt lat="46.97389" lon="8.76525">
        <ele>621</ele>
        <time>2021-08-05T13:39:00.088Z</time>
      </trkpt>
      <trkpt lat="46.97389" lon="8.76523">
        <ele>620</ele>
        <time>2021-08-05T13:39:01.088Z</time>
      </trkpt>
      <trkpt lat="46.97388" lon="8.76522">
        <ele>620</ele>
        <time>2021-08-05T13:39:02.088Z</time>
      </trkpt>
      <trkpt lat="46.97388" lon="8.7652">
        <ele>620</ele>
        <time>2021-08-05T13:39:03.088Z</time>
      </trkpt>
      <trkpt lat="46.97387" lon="8.76519">
        <ele>619</ele>
        <time>2021-08-05T13:39:04.087Z</time>
      </trkpt>
      <trkpt lat="46.97388" lon="8.76518">
        <ele>619</ele>
        <time>2021-08-05T13:39:05.088Z</time>
      </trkpt>
      <trkpt lat="46.97388" lon="8.76518">
        <ele>619</ele>
        <time>2021-08-05T13:39:06.088Z</time>
      </trkpt>
      <trkpt lat="46.97388" lon="8.76518">
        <ele>618</ele>
        <time>2021-08-05T13:39:07.088Z</time>
      </trkpt>
      <trkpt lat="46.97389" lon="8.76519">
        <ele>618</ele>
        <time>2021-08-05T13:39:08.088Z</time>
      </trkpt>
      <trkpt lat="46.9739" lon="8.76519">
        <ele>618</ele>
        <time>2021-08-05T13:39:09.088Z</time>
      </trkpt>
      <trkpt lat="46.97391" lon="8.76519">
        <ele>617</ele>
        <time>2021-08-05T13:39:10.088Z</time>
      </trkpt>
      <trkpt lat="46.97391" lon="8.76519">
        <ele>617</ele>
        <time>2021-08-05T13:39:11.087Z</time>
      </trkpt>
      <trkpt lat="46.97392" lon="8.7652">
        <ele>616</ele>
        <time>2021-08-05T13:39:12.088Z</time>
      </trkpt>
      <trkpt lat="46.97393" lon="8.76522">
        <ele>616</ele>
        <time>2021-08-05T13:39:13.087Z</time>
      </trkpt>
      <trkpt lat="46.97393" lon="8.76523">
        <ele>615</ele>
        <time>2021-08-05T13:39:14.088Z</time>
      </trkpt>
      <trkpt lat="46.97394" lon="8.76524">
        <ele>615</ele>
        <time>2021-08-05T13:39:15.088Z</time>
      </trkpt>
      <trkpt lat="46.97395" lon="8.76525">
        <ele>615</ele>
        <time>2021-08-05T13:39:16.087Z</time>
      </trkpt>
      <trkpt lat="46.97396" lon="8.76527">
        <ele>614</ele>
        <time>2021-08-05T13:39:17.088Z</time>
      </trkpt>
      <trkpt lat="46.97398" lon="8.7653">
        <ele>614</ele>
        <time>2021-08-05T13:39:18.087Z</time>
      </trkpt>
      <trkpt lat="46.97402" lon="8.76533">
        <ele>614</ele>
        <time>2021-08-05T13:39:19.088Z</time>
      </trkpt>
      <trkpt lat="46.97403" lon="8.76534">
        <ele>613</ele>
        <time>2021-08-05T13:39:20.088Z</time>
      </trkpt>
      <trkpt lat="46.97403" lon="8.76533">
        <ele>613</ele>
        <time>2021-08-05T13:39:21.088Z</time>
      </trkpt>
      <trkpt lat="46.97403" lon="8.76533">
        <ele>613</ele>
        <time>2021-08-05T13:39:22.087Z</time>
      </trkpt>
      <trkpt lat="46.97402" lon="8.76533">
        <ele>613</ele>
        <time>2021-08-05T13:39:23.087Z</time>
      </trkpt>
      <trkpt lat="46.97402" lon="8.76532">
        <ele>612</ele>
        <time>2021-08-05T13:39:24.088Z</time>
      </trkpt>
      <trkpt lat="46.97402" lon="8.76532">
        <ele>612</ele>
        <time>2021-08-05T13:39:25.089Z</time>
      </trkpt>
      <trkpt lat="46.97403" lon="8.76531">
        <ele>612</ele>
        <time>2021-08-05T13:39:26.089Z</time>
      </trkpt>
      <trkpt lat="46.97403" lon="8.7653">
        <ele>612</ele>
        <time>2021-08-05T13:39:27.088Z</time>
      </trkpt>
      <trkpt lat="46.97403" lon="8.7653">
        <ele>611</ele>
        <time>2021-08-05T13:39:28.089Z</time>
      </trkpt>
      <trkpt lat="46.97403" lon="8.76529">
        <ele>611</ele>
        <time>2021-08-05T13:39:29.088Z</time>
      </trkpt>
      <trkpt lat="46.97403" lon="8.76529">
        <ele>610</ele>
        <time>2021-08-05T13:39:30.089Z</time>
      </trkpt>
      <trkpt lat="46.97402" lon="8.76528">
        <ele>610</ele>
        <time>2021-08-05T13:39:31.089Z</time>
      </trkpt>
      <trkpt lat="46.97402" lon="8.76528">
        <ele>609</ele>
        <time>2021-08-05T13:39:32.088Z</time>
      </trkpt>
      <trkpt lat="46.97399" lon="8.76524">
        <ele>608</ele>
        <time>2021-08-05T13:39:33.089Z</time>
      </trkpt>
      <trkpt lat="46.97398" lon="8.76524">
        <ele>607</ele>
        <time>2021-08-05T13:39:34.088Z</time>
      </trkpt>
      <trkpt lat="46.97396" lon="8.76524">
        <ele>608</ele>
        <time>2021-08-05T13:39:35.089Z</time>
      </trkpt>
      <trkpt lat="46.97397" lon="8.76524">
        <ele>608</ele>
        <time>2021-08-05T13:39:36.089Z</time>
      </trkpt>
      <trkpt lat="46.97399" lon="8.76527">
        <ele>608</ele>
        <time>2021-08-05T13:39:37.089Z</time>
      </trkpt>
      <trkpt lat="46.974" lon="8.76528">
        <ele>608</ele>
        <time>2021-08-05T13:39:38.090Z</time>
      </trkpt>
      <trkpt lat="46.974" lon="8.76529">
        <ele>608</ele>
        <time>2021-08-05T13:39:39.089Z</time>
      </trkpt>
      <trkpt lat="46.974" lon="8.76528">
        <ele>608</ele>
        <time>2021-08-05T13:39:40.089Z</time>
      </trkpt>
      <trkpt lat="46.974" lon="8.76528">
        <ele>608</ele>
        <time>2021-08-05T13:39:41.089Z</time>
      </trkpt>
      <trkpt lat="46.97401" lon="8.76528">
        <ele>607</ele>
        <time>2021-08-05T13:39:42.090Z</time>
      </trkpt>
      <trkpt lat="46.97402" lon="8.76527">
        <ele>607</ele>
        <time>2021-08-05T13:39:43.090Z</time>
      </trkpt>
      <trkpt lat="46.97402" lon="8.76528">
        <ele>607</ele>
        <time>2021-08-05T13:39:44.090Z</time>
      </trkpt>
      <trkpt lat="46.97403" lon="8.76528">
        <ele>608</ele>
        <time>2021-08-05T13:39:45.091Z</time>
      </trkpt>
      <trkpt lat="46.97403" lon="8.76528">
        <ele>609</ele>
        <time>2021-08-05T13:39:46.091Z</time>
      </trkpt>
      <trkpt lat="46.97404" lon="8.76529">
        <ele>610</ele>
        <time>2021-08-05T13:39:47.091Z</time>
      </trkpt>
      <trkpt lat="46.97404" lon="8.76529">
        <ele>610</ele>
        <time>2021-08-05T13:39:48.091Z</time>
      </trkpt>
      <trkpt lat="46.97404" lon="8.76529">
        <ele>611</ele>
        <time>2021-08-05T13:39:49.091Z</time>
      </trkpt>
      <trkpt lat="46.97404" lon="8.76529">
        <ele>616</ele>
        <time>2021-08-05T13:39:50.093Z</time>
      </trkpt>
      <trkpt lat="46.97405" lon="8.76529">
        <ele>617</ele>
        <time>2021-08-05T13:39:51.093Z</time>
      </trkpt>
      <trkpt lat="46.97405" lon="8.7653">
        <ele>618</ele>
        <time>2021-08-05T13:39:52.092Z</time>
      </trkpt>
      <trkpt lat="46.97405" lon="8.7653">
        <ele>620</ele>
        <time>2021-08-05T13:39:53.092Z</time>
      </trkpt>
      <trkpt lat="46.97405" lon="8.7653">
        <ele>620</ele>
        <time>2021-08-05T13:39:54.092Z</time>
      </trkpt>
      <trkpt lat="46.97406" lon="8.7653">
        <ele>621</ele>
        <time>2021-08-05T13:39:55.092Z</time>
      </trkpt>
      <trkpt lat="46.97406" lon="8.76531">
        <ele>622</ele>
        <time>2021-08-05T13:39:56.093Z</time>
      </trkpt>
      <trkpt lat="46.97406" lon="8.76532">
        <ele>622</ele>
        <time>2021-08-05T13:39:57.092Z</time>
      </trkpt>
      <trkpt lat="46.97406" lon="8.76531">
        <ele>623</ele>
        <time>2021-08-05T13:39:58.093Z</time>
      </trkpt>
      <trkpt lat="46.97407" lon="8.76531">
        <ele>623</ele>
        <time>2021-08-05T13:39:59.093Z</time>
      </trkpt>
      <trkpt lat="46.97407" lon="8.76531">
        <ele>624</ele>
        <time>2021-08-05T13:40:00.093Z</time>
      </trkpt>
      <trkpt lat="46.97407" lon="8.7653">
        <ele>624</ele>
        <time>2021-08-05T13:40:01.093Z</time>
      </trkpt>
      <trkpt lat="46.97407" lon="8.7653">
        <ele>624</ele>
        <time>2021-08-05T13:40:02.093Z</time>
      </trkpt>
      <trkpt lat="46.97407" lon="8.7653">
        <ele>624</ele>
        <time>2021-08-05T13:40:03.093Z</time>
      </trkpt>
      <trkpt lat="46.97406" lon="8.76527">
        <ele>625</ele>
        <time>2021-08-05T13:40:04.094Z</time>
      </trkpt>
      <trkpt lat="46.97405" lon="8.76525">
        <ele>626</ele>
        <time>2021-08-05T13:40:05.094Z</time>
      </trkpt>
      <trkpt lat="46.97405" lon="8.76525">
        <ele>626</ele>
        <time>2021-08-05T13:40:06.093Z</time>
      </trkpt>
      <trkpt lat="46.97404" lon="8.76523">
        <ele>626</ele>
        <time>2021-08-05T13:40:07.093Z</time>
      </trkpt>
      <trkpt lat="46.97404" lon="8.76523">
        <ele>626</ele>
        <time>2021-08-05T13:40:08.094Z</time>
      </trkpt>
      <trkpt lat="46.97404" lon="8.76523">
        <ele>627</ele>
        <time>2021-08-05T13:40:09.094Z</time>
      </trkpt>
      <trkpt lat="46.97404" lon="8.76523">
        <ele>627</ele>
        <time>2021-08-05T13:40:10.093Z</time>
      </trkpt>
      <trkpt lat="46.97405" lon="8.76523">
        <ele>628</ele>
        <time>2021-08-05T13:40:11.093Z</time>
      </trkpt>
      <trkpt lat="46.97406" lon="8.76523">
        <ele>628</ele>
        <time>2021-08-05T13:40:12.093Z</time>
      </trkpt>
      <trkpt lat="46.97407" lon="8.76525">
        <ele>628</ele>
        <time>2021-08-05T13:40:13.094Z</time>
      </trkpt>
      <trkpt lat="46.97407" lon="8.76525">
        <ele>628</ele>
        <time>2021-08-05T13:40:14.094Z</time>
      </trkpt>
      <trkpt lat="46.97407" lon="8.76525">
        <ele>629</ele>
        <time>2021-08-05T13:40:15.096Z</time>
      </trkpt>
      <trkpt lat="46.97407" lon="8.76525">
        <ele>629</ele>
        <time>2021-08-05T13:40:16.096Z</time>
      </trkpt>
      <trkpt lat="46.97407" lon="8.76525">
        <ele>629</ele>
        <time>2021-08-05T13:40:17.095Z</time>
      </trkpt>
      <trkpt lat="46.97408" lon="8.76525">
        <ele>627</ele>
        <time>2021-08-05T13:40:18.096Z</time>
      </trkpt>
      <trkpt lat="46.97409" lon="8.76525">
        <ele>627</ele>
        <time>2021-08-05T13:40:19.097Z</time>
      </trkpt>
      <trkpt lat="46.97409" lon="8.76526">
        <ele>627</ele>
        <time>2021-08-05T13:40:20.096Z</time>
      </trkpt>
      <trkpt lat="46.9741" lon="8.76526">
        <ele>626</ele>
        <time>2021-08-05T13:40:21.097Z</time>
      </trkpt>
      <trkpt lat="46.9741" lon="8.76526">
        <ele>626</ele>
        <time>2021-08-05T13:40:22.096Z</time>
      </trkpt>
      <trkpt lat="46.9741" lon="8.76525">
        <ele>626</ele>
        <time>2021-08-05T13:40:23.097Z</time>
      </trkpt>
      <trkpt lat="46.9741" lon="8.76524">
        <ele>626</ele>
        <time>2021-08-05T13:40:24.097Z</time>
      </trkpt>
      <trkpt lat="46.9741" lon="8.76523">
        <ele>626</ele>
        <time>2021-08-05T13:40:25.096Z</time>
      </trkpt>
      <trkpt lat="46.97409" lon="8.76528">
        <ele>624</ele>
        <time>2021-08-05T13:40:26.098Z</time>
      </trkpt>
      <trkpt lat="46.97408" lon="8.76527">
        <ele>624</ele>
        <time>2021-08-05T13:40:27.098Z</time>
      </trkpt>
      <trkpt lat="46.97408" lon="8.76526">
        <ele>625</ele>
        <time>2021-08-05T13:40:28.097Z</time>
      </trkpt>
      <trkpt lat="46.9741" lon="8.76528">
        <ele>624</ele>
        <time>2021-08-05T13:40:29.099Z</time>
      </trkpt>
      <trkpt lat="46.97411" lon="8.76529">
        <ele>624</ele>
        <time>2021-08-05T13:40:30.100Z</time>
      </trkpt>
      <trkpt lat="46.97412" lon="8.76529">
        <ele>624</ele>
        <time>2021-08-05T13:40:31.099Z</time>
      </trkpt>
      <trkpt lat="46.97413" lon="8.7653">
        <ele>624</ele>
        <time>2021-08-05T13:40:32.099Z</time>
      </trkpt>
      <trkpt lat="46.97414" lon="8.76531">
        <ele>623</ele>
        <time>2021-08-05T13:40:33.100Z</time>
      </trkpt>
      <trkpt lat="46.97414" lon="8.76532">
        <ele>623</ele>
        <time>2021-08-05T13:40:34.100Z</time>
      </trkpt>
      <trkpt lat="46.97415" lon="8.76532">
        <ele>623</ele>
        <time>2021-08-05T13:40:35.100Z</time>
      </trkpt>
      <trkpt lat="46.97415" lon="8.76533">
        <ele>622</ele>
        <time>2021-08-05T13:40:36.100Z</time>
      </trkpt>
      <trkpt lat="46.97416" lon="8.76534">
        <ele>622</ele>
        <time>2021-08-05T13:40:37.099Z</time>
      </trkpt>
      <trkpt lat="46.97416" lon="8.76535">
        <ele>622</ele>
        <time>2021-08-05T13:40:38.100Z</time>
      </trkpt>
      <trkpt lat="46.97416" lon="8.76536">
        <ele>622</ele>
        <time>2021-08-05T13:40:39.100Z</time>
      </trkpt>
      <trkpt lat="46.97416" lon="8.76536">
        <ele>622</ele>
        <time>2021-08-05T13:40:40.100Z</time>
      </trkpt>
      <trkpt lat="46.97415" lon="8.76537">
        <ele>622</ele>
        <time>2021-08-05T13:40:41.100Z</time>
      </trkpt>
      <trkpt lat="46.97415" lon="8.76537">
        <ele>622</ele>
        <time>2021-08-05T13:40:42.099Z</time>
      </trkpt>
      <trkpt lat="46.97414" lon="8.76537">
        <ele>622</ele>
        <time>2021-08-05T13:40:43.100Z</time>
      </trkpt>
      <trkpt lat="46.97414" lon="8.76538">
        <ele>622</ele>
        <time>2021-08-05T13:40:44.100Z</time>
      </trkpt>
      <trkpt lat="46.97413" lon="8.76538">
        <ele>622</ele>
        <time>2021-08-05T13:40:45.099Z</time>
      </trkpt>
      <trkpt lat="46.97413" lon="8.76539">
        <ele>622</ele>
        <time>2021-08-05T13:40:46.100Z</time>
      </trkpt>
      <trkpt lat="46.97413" lon="8.76539">
        <ele>622</ele>
        <time>2021-08-05T13:40:47.100Z</time>
      </trkpt>
      <trkpt lat="46.97413" lon="8.7654">
        <ele>623</ele>
        <time>2021-08-05T13:40:48.099Z</time>
      </trkpt>
      <trkpt lat="46.97412" lon="8.76541">
        <ele>623</ele>
        <time>2021-08-05T13:40:49.100Z</time>
      </trkpt>
      <trkpt lat="46.97412" lon="8.76542">
        <ele>624</ele>
        <time>2021-08-05T13:40:50.100Z</time>
      </trkpt>
      <trkpt lat="46.97412" lon="8.76543">
        <ele>624</ele>
        <time>2021-08-05T13:40:51.100Z</time>
      </trkpt>
      <trkpt lat="46.97412" lon="8.76544">
        <ele>625</ele>
        <time>2021-08-05T13:40:52.100Z</time>
      </trkpt>
      <trkpt lat="46.97411" lon="8.76546">
        <ele>625</ele>
        <time>2021-08-05T13:40:53.100Z</time>
      </trkpt>
      <trkpt lat="46.97411" lon="8.76547">
        <ele>625</ele>
        <time>2021-08-05T13:40:54.100Z</time>
      </trkpt>
      <trkpt lat="46.97411" lon="8.76549">
        <ele>626</ele>
        <time>2021-08-05T13:40:55.100Z</time>
      </trkpt>
      <trkpt lat="46.97411" lon="8.7655">
        <ele>626</ele>
        <time>2021-08-05T13:40:56.100Z</time>
      </trkpt>
      <trkpt lat="46.9741" lon="8.76551">
        <ele>626</ele>
        <time>2021-08-05T13:40:57.100Z</time>
      </trkpt>
      <trkpt lat="46.9741" lon="8.76551">
        <ele>627</ele>
        <time>2021-08-05T13:40:58.100Z</time>
      </trkpt>
      <trkpt lat="46.9741" lon="8.76552">
        <ele>627</ele>
        <time>2021-08-05T13:40:59.099Z</time>
      </trkpt>
      <trkpt lat="46.97411" lon="8.76557">
        <ele>624</ele>
        <time>2021-08-05T13:41:00.099Z</time>
      </trkpt>
      <trkpt lat="46.97411" lon="8.76559">
        <ele>623</ele>
        <time>2021-08-05T13:41:01.099Z</time>
      </trkpt>
      <trkpt lat="46.97411" lon="8.7656">
        <ele>623</ele>
        <time>2021-08-05T13:41:02.099Z</time>
      </trkpt>
      <trkpt lat="46.97411" lon="8.76562">
        <ele>623</ele>
        <time>2021-08-05T13:41:03.099Z</time>
      </trkpt>
      <trkpt lat="46.97411" lon="8.76564">
        <ele>623</ele>
        <time>2021-08-05T13:41:04.099Z</time>
      </trkpt>
      <trkpt lat="46.97411" lon="8.76565">
        <ele>623</ele>
        <time>2021-08-05T13:41:05.099Z</time>
      </trkpt>
      <trkpt lat="46.97411" lon="8.76566">
        <ele>623</ele>
        <time>2021-08-05T13:41:06.100Z</time>
      </trkpt>
      <trkpt lat="46.97411" lon="8.76568">
        <ele>622</ele>
        <time>2021-08-05T13:41:07.099Z</time>
      </trkpt>
      <trkpt lat="46.97411" lon="8.76568">
        <ele>622</ele>
        <time>2021-08-05T13:41:08.100Z</time>
      </trkpt>
      <trkpt lat="46.97411" lon="8.7657">
        <ele>622</ele>
        <time>2021-08-05T13:41:09.099Z</time>
      </trkpt>
      <trkpt lat="46.97411" lon="8.76571">
        <ele>622</ele>
        <time>2021-08-05T13:41:10.099Z</time>
      </trkpt>
      <trkpt lat="46.9741" lon="8.76572">
        <ele>622</ele>
        <time>2021-08-05T13:41:11.099Z</time>
      </trkpt>
      <trkpt lat="46.9741" lon="8.76573">
        <ele>622</ele>
        <time>2021-08-05T13:41:12.099Z</time>
      </trkpt>
      <trkpt lat="46.97409" lon="8.76575">
        <ele>622</ele>
        <time>2021-08-05T13:41:13.099Z</time>
      </trkpt>
      <trkpt lat="46.97409" lon="8.76576">
        <ele>623</ele>
        <time>2021-08-05T13:41:14.099Z</time>
      </trkpt>
      <trkpt lat="46.97408" lon="8.76577">
        <ele>623</ele>
        <time>2021-08-05T13:41:15.099Z</time>
      </trkpt>
      <trkpt lat="46.97408" lon="8.76578">
        <ele>624</ele>
        <time>2021-08-05T13:41:16.100Z</time>
      </trkpt>
      <trkpt lat="46.97408" lon="8.76579">
        <ele>624</ele>
        <time>2021-08-05T13:41:17.100Z</time>
      </trkpt>
      <trkpt lat="46.97407" lon="8.7658">
        <ele>625</ele>
        <time>2021-08-05T13:41:18.100Z</time>
      </trkpt>
      <trkpt lat="46.97407" lon="8.76581">
        <ele>625</ele>
        <time>2021-08-05T13:41:19.100Z</time>
      </trkpt>
      <trkpt lat="46.97407" lon="8.76582">
        <ele>626</ele>
        <time>2021-08-05T13:41:20.099Z</time>
      </trkpt>
      <trkpt lat="46.97407" lon="8.76583">
        <ele>626</ele>
        <time>2021-08-05T13:41:21.099Z</time>
      </trkpt>
      <trkpt lat="46.97406" lon="8.76584">
        <ele>626</ele>
        <time>2021-08-05T13:41:22.099Z</time>
      </trkpt>
      <trkpt lat="46.97406" lon="8.76585">
        <ele>626</ele>
        <time>2021-08-05T13:41:23.099Z</time>
      </trkpt>
      <trkpt lat="46.97405" lon="8.76586">
        <ele>626</ele>
        <time>2021-08-05T13:41:24.099Z</time>
      </trkpt>
      <trkpt lat="46.97405" lon="8.76587">
        <ele>626</ele>
        <time>2021-08-05T13:41:25.099Z</time>
      </trkpt>
      <trkpt lat="46.97405" lon="8.76589">
        <ele>625</ele>
        <time>2021-08-05T13:41:26.099Z</time>
      </trkpt>
      <trkpt lat="46.97404" lon="8.76591">
        <ele>625</ele>
        <time>2021-08-05T13:41:27.099Z</time>
      </trkpt>
      <trkpt lat="46.97403" lon="8.76592">
        <ele>625</ele>
        <time>2021-08-05T13:41:28.099Z</time>
      </trkpt>
      <trkpt lat="46.97403" lon="8.76594">
        <ele>625</ele>
        <time>2021-08-05T13:41:29.099Z</time>
      </trkpt>
      <trkpt lat="46.97403" lon="8.76596">
        <ele>625</ele>
        <time>2021-08-05T13:41:30.099Z</time>
      </trkpt>
      <trkpt lat="46.97403" lon="8.76597">
        <ele>625</ele>
        <time>2021-08-05T13:41:31.100Z</time>
      </trkpt>
      <trkpt lat="46.97402" lon="8.76599">
        <ele>626</ele>
        <time>2021-08-05T13:41:32.099Z</time>
      </trkpt>
      <trkpt lat="46.97401" lon="8.766">
        <ele>625</ele>
        <time>2021-08-05T13:41:33.099Z</time>
      </trkpt>
      <trkpt lat="46.974" lon="8.76601">
        <ele>625</ele>
        <time>2021-08-05T13:41:34.099Z</time>
      </trkpt>
      <trkpt lat="46.974" lon="8.76601">
        <ele>625</ele>
        <time>2021-08-05T13:41:35.099Z</time>
      </trkpt>
      <trkpt lat="46.974" lon="8.76603">
        <ele>625</ele>
        <time>2021-08-05T13:41:36.099Z</time>
      </trkpt>
      <trkpt lat="46.97399" lon="8.76605">
        <ele>626</ele>
        <time>2021-08-05T13:41:37.099Z</time>
      </trkpt>
      <trkpt lat="46.97399" lon="8.76606">
        <ele>626</ele>
        <time>2021-08-05T13:41:38.099Z</time>
      </trkpt>
      <trkpt lat="46.97399" lon="8.76607">
        <ele>626</ele>
        <time>2021-08-05T13:41:39.099Z</time>
      </trkpt>
      <trkpt lat="46.97398" lon="8.76609">
        <ele>626</ele>
        <time>2021-08-05T13:41:40.099Z</time>
      </trkpt>
      <trkpt lat="46.97398" lon="8.7661">
        <ele>627</ele>
        <time>2021-08-05T13:41:41.100Z</time>
      </trkpt>
      <trkpt lat="46.97397" lon="8.76611">
        <ele>627</ele>
        <time>2021-08-05T13:41:42.100Z</time>
      </trkpt>
      <trkpt lat="46.97397" lon="8.76612">
        <ele>628</ele>
        <time>2021-08-05T13:41:43.100Z</time>
      </trkpt>
      <trkpt lat="46.97397" lon="8.76614">
        <ele>628</ele>
        <time>2021-08-05T13:41:44.100Z</time>
      </trkpt>
      <trkpt lat="46.97397" lon="8.76615">
        <ele>628</ele>
        <time>2021-08-05T13:41:45.100Z</time>
      </trkpt>
      <trkpt lat="46.97398" lon="8.76616">
        <ele>628</ele>
        <time>2021-08-05T13:41:46.100Z</time>
      </trkpt>
      <trkpt lat="46.97397" lon="8.76617">
        <ele>629</ele>
        <time>2021-08-05T13:41:47.100Z</time>
      </trkpt>
      <trkpt lat="46.97397" lon="8.76618">
        <ele>628</ele>
        <time>2021-08-05T13:41:48.099Z</time>
      </trkpt>
      <trkpt lat="46.97397" lon="8.7662">
        <ele>628</ele>
        <time>2021-08-05T13:41:49.099Z</time>
      </trkpt>
      <trkpt lat="46.97397" lon="8.76622">
        <ele>627</ele>
        <time>2021-08-05T13:41:50.099Z</time>
      </trkpt>
      <trkpt lat="46.97396" lon="8.76624">
        <ele>627</ele>
        <time>2021-08-05T13:41:51.100Z</time>
      </trkpt>
      <trkpt lat="46.97396" lon="8.76625">
        <ele>627</ele>
        <time>2021-08-05T13:41:52.099Z</time>
      </trkpt>
      <trkpt lat="46.97395" lon="8.76626">
        <ele>627</ele>
        <time>2021-08-05T13:41:53.100Z</time>
      </trkpt>
      <trkpt lat="46.97395" lon="8.76627">
        <ele>628</ele>
        <time>2021-08-05T13:41:54.100Z</time>
      </trkpt>
      <trkpt lat="46.97395" lon="8.76627">
        <ele>628</ele>
        <time>2021-08-05T13:41:55.099Z</time>
      </trkpt>
      <trkpt lat="46.97394" lon="8.76629">
        <ele>628</ele>
        <time>2021-08-05T13:41:56.099Z</time>
      </trkpt>
      <trkpt lat="46.97394" lon="8.7663">
        <ele>627</ele>
        <time>2021-08-05T13:41:57.099Z</time>
      </trkpt>
      <trkpt lat="46.97394" lon="8.76632">
        <ele>627</ele>
        <time>2021-08-05T13:41:58.100Z</time>
      </trkpt>
      <trkpt lat="46.97393" lon="8.76633">
        <ele>627</ele>
        <time>2021-08-05T13:41:59.099Z</time>
      </trkpt>
      <trkpt lat="46.97393" lon="8.76635">
        <ele>627</ele>
        <time>2021-08-05T13:42:00.099Z</time>
      </trkpt>
      <trkpt lat="46.97393" lon="8.76636">
        <ele>628</ele>
        <time>2021-08-05T13:42:01.100Z</time>
      </trkpt>
      <trkpt lat="46.97393" lon="8.76636">
        <ele>628</ele>
        <time>2021-08-05T13:42:02.099Z</time>
      </trkpt>
      <trkpt lat="46.97392" lon="8.76637">
        <ele>628</ele>
        <time>2021-08-05T13:42:03.099Z</time>
      </trkpt>
      <trkpt lat="46.97392" lon="8.76638">
        <ele>628</ele>
        <time>2021-08-05T13:42:04.099Z</time>
      </trkpt>
      <trkpt lat="46.97391" lon="8.7664">
        <ele>629</ele>
        <time>2021-08-05T13:42:05.099Z</time>
      </trkpt>
      <trkpt lat="46.97391" lon="8.76641">
        <ele>629</ele>
        <time>2021-08-05T13:42:06.099Z</time>
      </trkpt>
      <trkpt lat="46.97391" lon="8.76642">
        <ele>629</ele>
        <time>2021-08-05T13:42:07.100Z</time>
      </trkpt>
      <trkpt lat="46.9739" lon="8.76644">
        <ele>629</ele>
        <time>2021-08-05T13:42:08.099Z</time>
      </trkpt>
      <trkpt lat="46.97389" lon="8.76646">
        <ele>629</ele>
        <time>2021-08-05T13:42:09.100Z</time>
      </trkpt>
      <trkpt lat="46.97389" lon="8.76647">
        <ele>629</ele>
        <time>2021-08-05T13:42:10.099Z</time>
      </trkpt>
      <trkpt lat="46.97388" lon="8.76648">
        <ele>629</ele>
        <time>2021-08-05T13:42:11.099Z</time>
      </trkpt>
      <trkpt lat="46.97388" lon="8.76649">
        <ele>628</ele>
        <time>2021-08-05T13:42:12.099Z</time>
      </trkpt>
      <trkpt lat="46.97387" lon="8.76651">
        <ele>628</ele>
        <time>2021-08-05T13:42:13.100Z</time>
      </trkpt>
      <trkpt lat="46.97387" lon="8.76652">
        <ele>628</ele>
        <time>2021-08-05T13:42:14.099Z</time>
      </trkpt>
      <trkpt lat="46.97386" lon="8.76653">
        <ele>627</ele>
        <time>2021-08-05T13:42:15.099Z</time>
      </trkpt>
      <trkpt lat="46.97386" lon="8.76655">
        <ele>627</ele>
        <time>2021-08-05T13:42:16.099Z</time>
      </trkpt>
      <trkpt lat="46.97386" lon="8.76656">
        <ele>627</ele>
        <time>2021-08-05T13:42:17.099Z</time>
      </trkpt>
      <trkpt lat="46.97385" lon="8.76657">
        <ele>626</ele>
        <time>2021-08-05T13:42:18.100Z</time>
      </trkpt>
      <trkpt lat="46.97384" lon="8.76659">
        <ele>626</ele>
        <time>2021-08-05T13:42:19.099Z</time>
      </trkpt>
      <trkpt lat="46.97383" lon="8.7666">
        <ele>627</ele>
        <time>2021-08-05T13:42:20.099Z</time>
      </trkpt>
      <trkpt lat="46.97383" lon="8.76661">
        <ele>627</ele>
        <time>2021-08-05T13:42:21.100Z</time>
      </trkpt>
      <trkpt lat="46.97382" lon="8.76663">
        <ele>627</ele>
        <time>2021-08-05T13:42:22.100Z</time>
      </trkpt>
      <trkpt lat="46.97381" lon="8.76664">
        <ele>627</ele>
        <time>2021-08-05T13:42:23.100Z</time>
      </trkpt>
      <trkpt lat="46.97381" lon="8.76665">
        <ele>627</ele>
        <time>2021-08-05T13:42:24.099Z</time>
      </trkpt>
      <trkpt lat="46.97381" lon="8.76667">
        <ele>628</ele>
        <time>2021-08-05T13:42:25.099Z</time>
      </trkpt>
      <trkpt lat="46.9738" lon="8.76668">
        <ele>628</ele>
        <time>2021-08-05T13:42:26.099Z</time>
      </trkpt>
      <trkpt lat="46.9738" lon="8.7667">
        <ele>628</ele>
        <time>2021-08-05T13:42:27.100Z</time>
      </trkpt>
      <trkpt lat="46.97379" lon="8.76671">
        <ele>628</ele>
        <time>2021-08-05T13:42:28.100Z</time>
      </trkpt>
      <trkpt lat="46.97379" lon="8.76672">
        <ele>628</ele>
        <time>2021-08-05T13:42:29.100Z</time>
      </trkpt>
      <trkpt lat="46.97378" lon="8.76674">
        <ele>627</ele>
        <time>2021-08-05T13:42:30.099Z</time>
      </trkpt>
      <trkpt lat="46.97377" lon="8.76675">
        <ele>627</ele>
        <time>2021-08-05T13:42:31.099Z</time>
      </trkpt>
      <trkpt lat="46.97377" lon="8.76677">
        <ele>628</ele>
        <time>2021-08-05T13:42:32.100Z</time>
      </trkpt>
      <trkpt lat="46.97377" lon="8.76679">
        <ele>628</ele>
        <time>2021-08-05T13:42:33.099Z</time>
      </trkpt>
      <trkpt lat="46.97376" lon="8.7668">
        <ele>628</ele>
        <time>2021-08-05T13:42:34.099Z</time>
      </trkpt>
      <trkpt lat="46.97376" lon="8.76681">
        <ele>628</ele>
        <time>2021-08-05T13:42:35.099Z</time>
      </trkpt>
      <trkpt lat="46.97376" lon="8.76683">
        <ele>628</ele>
        <time>2021-08-05T13:42:36.100Z</time>
      </trkpt>
      <trkpt lat="46.97375" lon="8.76684">
        <ele>628</ele>
        <time>2021-08-05T13:42:37.099Z</time>
      </trkpt>
      <trkpt lat="46.97375" lon="8.76685">
        <ele>627</ele>
        <time>2021-08-05T13:42:38.100Z</time>
      </trkpt>
      <trkpt lat="46.97374" lon="8.76687">
        <ele>627</ele>
        <time>2021-08-05T13:42:39.099Z</time>
      </trkpt>
      <trkpt lat="46.97374" lon="8.76688">
        <ele>626</ele>
        <time>2021-08-05T13:42:40.100Z</time>
      </trkpt>
      <trkpt lat="46.97373" lon="8.76689">
        <ele>626</ele>
        <time>2021-08-05T13:42:41.100Z</time>
      </trkpt>
      <trkpt lat="46.97372" lon="8.7669">
        <ele>626</ele>
        <time>2021-08-05T13:42:42.100Z</time>
      </trkpt>
      <trkpt lat="46.97371" lon="8.76691">
        <ele>626</ele>
        <time>2021-08-05T13:42:43.099Z</time>
      </trkpt>
      <trkpt lat="46.97371" lon="8.76692">
        <ele>626</ele>
        <time>2021-08-05T13:42:44.099Z</time>
      </trkpt>
      <trkpt lat="46.9737" lon="8.76693">
        <ele>627</ele>
        <time>2021-08-05T13:42:45.099Z</time>
      </trkpt>
      <trkpt lat="46.9737" lon="8.76695">
        <ele>627</ele>
        <time>2021-08-05T13:42:46.099Z</time>
      </trkpt>
      <trkpt lat="46.97369" lon="8.76697">
        <ele>627</ele>
        <time>2021-08-05T13:42:47.099Z</time>
      </trkpt>
      <trkpt lat="46.97369" lon="8.76698">
        <ele>627</ele>
        <time>2021-08-05T13:42:48.100Z</time>
      </trkpt>
      <trkpt lat="46.97369" lon="8.767">
        <ele>627</ele>
        <time>2021-08-05T13:42:49.099Z</time>
      </trkpt>
      <trkpt lat="46.97369" lon="8.76702">
        <ele>627</ele>
        <time>2021-08-05T13:42:50.099Z</time>
      </trkpt>
      <trkpt lat="46.97368" lon="8.76703">
        <ele>627</ele>
        <time>2021-08-05T13:42:51.099Z</time>
      </trkpt>
      <trkpt lat="46.97367" lon="8.76704">
        <ele>628</ele>
        <time>2021-08-05T13:42:52.100Z</time>
      </trkpt>
      <trkpt lat="46.97366" lon="8.76705">
        <ele>628</ele>
        <time>2021-08-05T13:42:53.099Z</time>
      </trkpt>
      <trkpt lat="46.97366" lon="8.76706">
        <ele>628</ele>
        <time>2021-08-05T13:42:54.099Z</time>
      </trkpt>
      <trkpt lat="46.97366" lon="8.76708">
        <ele>628</ele>
        <time>2021-08-05T13:42:55.099Z</time>
      </trkpt>
      <trkpt lat="46.97366" lon="8.76709">
        <ele>628</ele>
        <time>2021-08-05T13:42:56.100Z</time>
      </trkpt>
      <trkpt lat="46.97366" lon="8.7671">
        <ele>628</ele>
        <time>2021-08-05T13:42:57.099Z</time>
      </trkpt>
      <trkpt lat="46.97366" lon="8.76712">
        <ele>627</ele>
        <time>2021-08-05T13:42:58.099Z</time>
      </trkpt>
      <trkpt lat="46.97365" lon="8.76713">
        <ele>627</ele>
        <time>2021-08-05T13:42:59.100Z</time>
      </trkpt>
      <trkpt lat="46.97365" lon="8.76715">
        <ele>626</ele>
        <time>2021-08-05T13:43:00.100Z</time>
      </trkpt>
      <trkpt lat="46.97365" lon="8.76716">
        <ele>626</ele>
        <time>2021-08-05T13:43:01.100Z</time>
      </trkpt>
      <trkpt lat="46.97364" lon="8.76717">
        <ele>626</ele>
        <time>2021-08-05T13:43:02.099Z</time>
      </trkpt>
      <trkpt lat="46.97363" lon="8.76719">
        <ele>627</ele>
        <time>2021-08-05T13:43:03.100Z</time>
      </trkpt>
      <trkpt lat="46.97363" lon="8.7672">
        <ele>627</ele>
        <time>2021-08-05T13:43:04.100Z</time>
      </trkpt>
      <trkpt lat="46.97362" lon="8.76721">
        <ele>628</ele>
        <time>2021-08-05T13:43:05.099Z</time>
      </trkpt>
      <trkpt lat="46.97362" lon="8.76722">
        <ele>628</ele>
        <time>2021-08-05T13:43:06.099Z</time>
      </trkpt>
      <trkpt lat="46.97362" lon="8.76724">
        <ele>629</ele>
        <time>2021-08-05T13:43:07.099Z</time>
      </trkpt>
      <trkpt lat="46.97361" lon="8.76724">
        <ele>629</ele>
        <time>2021-08-05T13:43:08.099Z</time>
      </trkpt>
      <trkpt lat="46.9736" lon="8.76726">
        <ele>630</ele>
        <time>2021-08-05T13:43:09.099Z</time>
      </trkpt>
      <trkpt lat="46.9736" lon="8.76727">
        <ele>630</ele>
        <time>2021-08-05T13:43:10.099Z</time>
      </trkpt>
      <trkpt lat="46.97359" lon="8.76728">
        <ele>631</ele>
        <time>2021-08-05T13:43:11.099Z</time>
      </trkpt>
      <trkpt lat="46.97358" lon="8.76729">
        <ele>631</ele>
        <time>2021-08-05T13:43:12.100Z</time>
      </trkpt>
      <trkpt lat="46.97358" lon="8.7673">
        <ele>631</ele>
        <time>2021-08-05T13:43:13.100Z</time>
      </trkpt>
      <trkpt lat="46.97357" lon="8.76732">
        <ele>631</ele>
        <time>2021-08-05T13:43:14.099Z</time>
      </trkpt>
      <trkpt lat="46.97357" lon="8.76733">
        <ele>631</ele>
        <time>2021-08-05T13:43:15.100Z</time>
      </trkpt>
      <trkpt lat="46.97356" lon="8.76735">
        <ele>631</ele>
        <time>2021-08-05T13:43:16.099Z</time>
      </trkpt>
      <trkpt lat="46.97356" lon="8.76736">
        <ele>631</ele>
        <time>2021-08-05T13:43:17.099Z</time>
      </trkpt>
      <trkpt lat="46.97355" lon="8.76738">
        <ele>630</ele>
        <time>2021-08-05T13:43:18.099Z</time>
      </trkpt>
      <trkpt lat="46.97355" lon="8.76739">
        <ele>629</ele>
        <time>2021-08-05T13:43:19.099Z</time>
      </trkpt>
      <trkpt lat="46.97354" lon="8.7674">
        <ele>629</ele>
        <time>2021-08-05T13:43:20.099Z</time>
      </trkpt>
      <trkpt lat="46.97354" lon="8.76741">
        <ele>628</ele>
        <time>2021-08-05T13:43:21.099Z</time>
      </trkpt>
      <trkpt lat="46.97354" lon="8.76743">
        <ele>628</ele>
        <time>2021-08-05T13:43:22.099Z</time>
      </trkpt>
      <trkpt lat="46.97354" lon="8.76745">
        <ele>627</ele>
        <time>2021-08-05T13:43:23.100Z</time>
      </trkpt>
      <trkpt lat="46.97354" lon="8.76747">
        <ele>627</ele>
        <time>2021-08-05T13:43:24.100Z</time>
      </trkpt>
      <trkpt lat="46.97353" lon="8.76748">
        <ele>626</ele>
        <time>2021-08-05T13:43:25.099Z</time>
      </trkpt>
      <trkpt lat="46.97352" lon="8.76749">
        <ele>626</ele>
        <time>2021-08-05T13:43:26.099Z</time>
      </trkpt>
      <trkpt lat="46.97352" lon="8.7675">
        <ele>626</ele>
        <time>2021-08-05T13:43:27.100Z</time>
      </trkpt>
      <trkpt lat="46.97351" lon="8.76751">
        <ele>626</ele>
        <time>2021-08-05T13:43:28.099Z</time>
      </trkpt>
      <trkpt lat="46.9735" lon="8.76753">
        <ele>626</ele>
        <time>2021-08-05T13:43:29.099Z</time>
      </trkpt>
      <trkpt lat="46.97349" lon="8.76755">
        <ele>627</ele>
        <time>2021-08-05T13:43:30.099Z</time>
      </trkpt>
      <trkpt lat="46.97349" lon="8.76757">
        <ele>627</ele>
        <time>2021-08-05T13:43:31.099Z</time>
      </trkpt>
      <trkpt lat="46.97349" lon="8.76759">
        <ele>627</ele>
        <time>2021-08-05T13:43:32.100Z</time>
      </trkpt>
      <trkpt lat="46.97349" lon="8.7676">
        <ele>627</ele>
        <time>2021-08-05T13:43:33.099Z</time>
      </trkpt>
      <trkpt lat="46.97348" lon="8.76762">
        <ele>627</ele>
        <time>2021-08-05T13:43:34.099Z</time>
      </trkpt>
      <trkpt lat="46.97347" lon="8.76763">
        <ele>626</ele>
        <time>2021-08-05T13:43:35.099Z</time>
      </trkpt>
      <trkpt lat="46.97347" lon="8.76764">
        <ele>626</ele>
        <time>2021-08-05T13:43:36.099Z</time>
      </trkpt>
      <trkpt lat="46.97346" lon="8.76765">
        <ele>626</ele>
        <time>2021-08-05T13:43:37.099Z</time>
      </trkpt>
      <trkpt lat="46.97345" lon="8.76766">
        <ele>626</ele>
        <time>2021-08-05T13:43:38.100Z</time>
      </trkpt>
      <trkpt lat="46.97345" lon="8.76768">
        <ele>626</ele>
        <time>2021-08-05T13:43:39.099Z</time>
      </trkpt>
      <trkpt lat="46.97344" lon="8.76769">
        <ele>626</ele>
        <time>2021-08-05T13:43:40.099Z</time>
      </trkpt>
      <trkpt lat="46.97343" lon="8.76771">
        <ele>626</ele>
        <time>2021-08-05T13:43:41.100Z</time>
      </trkpt>
      <trkpt lat="46.97342" lon="8.76772">
        <ele>626</ele>
        <time>2021-08-05T13:43:42.099Z</time>
      </trkpt>
      <trkpt lat="46.97342" lon="8.76774">
        <ele>626</ele>
        <time>2021-08-05T13:43:43.099Z</time>
      </trkpt>
      <trkpt lat="46.97341" lon="8.76775">
        <ele>626</ele>
        <time>2021-08-05T13:43:44.099Z</time>
      </trkpt>
      <trkpt lat="46.9734" lon="8.76776">
        <ele>626</ele>
        <time>2021-08-05T13:43:45.099Z</time>
      </trkpt>
      <trkpt lat="46.97339" lon="8.76777">
        <ele>627</ele>
        <time>2021-08-05T13:43:46.099Z</time>
      </trkpt>
      <trkpt lat="46.97339" lon="8.76779">
        <ele>627</ele>
        <time>2021-08-05T13:43:47.099Z</time>
      </trkpt>
      <trkpt lat="46.97338" lon="8.7678">
        <ele>628</ele>
        <time>2021-08-05T13:43:48.099Z</time>
      </trkpt>
      <trkpt lat="46.97338" lon="8.76781">
        <ele>628</ele>
        <time>2021-08-05T13:43:49.100Z</time>
      </trkpt>
      <trkpt lat="46.97337" lon="8.76783">
        <ele>628</ele>
        <time>2021-08-05T13:43:50.099Z</time>
      </trkpt>
      <trkpt lat="46.97336" lon="8.76784">
        <ele>628</ele>
        <time>2021-08-05T13:43:51.099Z</time>
      </trkpt>
      <trkpt lat="46.97336" lon="8.76784">
        <ele>628</ele>
        <time>2021-08-05T13:43:52.099Z</time>
      </trkpt>
      <trkpt lat="46.97335" lon="8.76786">
        <ele>628</ele>
        <time>2021-08-05T13:43:53.100Z</time>
      </trkpt>
      <trkpt lat="46.97335" lon="8.76787">
        <ele>628</ele>
        <time>2021-08-05T13:43:54.099Z</time>
      </trkpt>
      <trkpt lat="46.97335" lon="8.76789">
        <ele>629</ele>
        <time>2021-08-05T13:43:55.100Z</time>
      </trkpt>
      <trkpt lat="46.97335" lon="8.76791">
        <ele>629</ele>
        <time>2021-08-05T13:43:56.099Z</time>
      </trkpt>
      <trkpt lat="46.97334" lon="8.76792">
        <ele>629</ele>
        <time>2021-08-05T13:43:57.100Z</time>
      </trkpt>
      <trkpt lat="46.97334" lon="8.76794">
        <ele>628</ele>
        <time>2021-08-05T13:43:58.100Z</time>
      </trkpt>
      <trkpt lat="46.97334" lon="8.76796">
        <ele>628</ele>
        <time>2021-08-05T13:43:59.099Z</time>
      </trkpt>
      <trkpt lat="46.97333" lon="8.76797">
        <ele>629</ele>
        <time>2021-08-05T13:44:00.099Z</time>
      </trkpt>
      <trkpt lat="46.97332" lon="8.76798">
        <ele>629</ele>
        <time>2021-08-05T13:44:01.099Z</time>
      </trkpt>
      <trkpt lat="46.97331" lon="8.76799">
        <ele>628</ele>
        <time>2021-08-05T13:44:02.099Z</time>
      </trkpt>
      <trkpt lat="46.9733" lon="8.76801">
        <ele>629</ele>
        <time>2021-08-05T13:44:03.100Z</time>
      </trkpt>
      <trkpt lat="46.97329" lon="8.76803">
        <ele>629</ele>
        <time>2021-08-05T13:44:04.099Z</time>
      </trkpt>
      <trkpt lat="46.97328" lon="8.76804">
        <ele>629</ele>
        <time>2021-08-05T13:44:05.099Z</time>
      </trkpt>
      <trkpt lat="46.97328" lon="8.76806">
        <ele>628</ele>
        <time>2021-08-05T13:44:06.100Z</time>
      </trkpt>
      <trkpt lat="46.97327" lon="8.76807">
        <ele>628</ele>
        <time>2021-08-05T13:44:07.099Z</time>
      </trkpt>
      <trkpt lat="46.97326" lon="8.76807">
        <ele>628</ele>
        <time>2021-08-05T13:44:08.100Z</time>
      </trkpt>
      <trkpt lat="46.97325" lon="8.76809">
        <ele>628</ele>
        <time>2021-08-05T13:44:09.099Z</time>
      </trkpt>
      <trkpt lat="46.97324" lon="8.7681">
        <ele>628</ele>
        <time>2021-08-05T13:44:10.099Z</time>
      </trkpt>
      <trkpt lat="46.97324" lon="8.76812">
        <ele>628</ele>
        <time>2021-08-05T13:44:11.100Z</time>
      </trkpt>
      <trkpt lat="46.97323" lon="8.76813">
        <ele>628</ele>
        <time>2021-08-05T13:44:12.100Z</time>
      </trkpt>
      <trkpt lat="46.97322" lon="8.76815">
        <ele>629</ele>
        <time>2021-08-05T13:44:13.099Z</time>
      </trkpt>
      <trkpt lat="46.97322" lon="8.76816">
        <ele>629</ele>
        <time>2021-08-05T13:44:14.100Z</time>
      </trkpt>
      <trkpt lat="46.97321" lon="8.76818">
        <ele>630</ele>
        <time>2021-08-05T13:44:15.100Z</time>
      </trkpt>
      <trkpt lat="46.9732" lon="8.76819">
        <ele>630</ele>
        <time>2021-08-05T13:44:16.099Z</time>
      </trkpt>
      <trkpt lat="46.9732" lon="8.7682">
        <ele>631</ele>
        <time>2021-08-05T13:44:17.099Z</time>
      </trkpt>
      <trkpt lat="46.97319" lon="8.76822">
        <ele>631</ele>
        <time>2021-08-05T13:44:18.099Z</time>
      </trkpt>
      <trkpt lat="46.97319" lon="8.76823">
        <ele>631</ele>
        <time>2021-08-05T13:44:19.099Z</time>
      </trkpt>
      <trkpt lat="46.97318" lon="8.76825">
        <ele>632</ele>
        <time>2021-08-05T13:44:20.099Z</time>
      </trkpt>
      <trkpt lat="46.97317" lon="8.76826">
        <ele>632</ele>
        <time>2021-08-05T13:44:25.107Z</time>
      </trkpt>
      <trkpt lat="46.97317" lon="8.76827">
        <ele>632</ele>
        <time>2021-08-05T13:44:26.107Z</time>
      </trkpt>
      <trkpt lat="46.97316" lon="8.76828">
        <ele>632</ele>
        <time>2021-08-05T13:44:27.108Z</time>
      </trkpt>
      <trkpt lat="46.97315" lon="8.76829">
        <ele>632</ele>
        <time>2021-08-05T13:44:28.108Z</time>
      </trkpt>
      <trkpt lat="46.97315" lon="8.7683">
        <ele>632</ele>
        <time>2021-08-05T13:44:29.108Z</time>
      </trkpt>
      <trkpt lat="46.97314" lon="8.76831">
        <ele>632</ele>
        <time>2021-08-05T13:44:30.108Z</time>
      </trkpt>
      <trkpt lat="46.97313" lon="8.76833">
        <ele>632</ele>
        <time>2021-08-05T13:44:31.107Z</time>
      </trkpt>
      <trkpt lat="46.97312" lon="8.76834">
        <ele>632</ele>
        <time>2021-08-05T13:44:32.107Z</time>
      </trkpt>
      <trkpt lat="46.97311" lon="8.76835">
        <ele>633</ele>
        <time>2021-08-05T13:44:33.107Z</time>
      </trkpt>
      <trkpt lat="46.97311" lon="8.76836">
        <ele>633</ele>
        <time>2021-08-05T13:44:34.107Z</time>
      </trkpt>
      <trkpt lat="46.9731" lon="8.76838">
        <ele>634</ele>
        <time>2021-08-05T13:44:35.107Z</time>
      </trkpt>
      <trkpt lat="46.9731" lon="8.76839">
        <ele>634</ele>
        <time>2021-08-05T13:44:36.108Z</time>
      </trkpt>
      <trkpt lat="46.97309" lon="8.7684">
        <ele>634</ele>
        <time>2021-08-05T13:44:37.107Z</time>
      </trkpt>
      <trkpt lat="46.97309" lon="8.7684">
        <ele>634</ele>
        <time>2021-08-05T13:44:38.108Z</time>
      </trkpt>
      <trkpt lat="46.97308" lon="8.76841">
        <ele>634</ele>
        <time>2021-08-05T13:44:39.108Z</time>
      </trkpt>
      <trkpt lat="46.97308" lon="8.76842">
        <ele>634</ele>
        <time>2021-08-05T13:44:40.108Z</time>
      </trkpt>
      <trkpt lat="46.97308" lon="8.76845">
        <ele>633</ele>
        <time>2021-08-05T13:44:41.108Z</time>
      </trkpt>
      <trkpt lat="46.97308" lon="8.76849">
        <ele>632</ele>
        <time>2021-08-05T13:44:42.108Z</time>
      </trkpt>
      <trkpt lat="46.97307" lon="8.7685">
        <ele>631</ele>
        <time>2021-08-05T13:44:43.107Z</time>
      </trkpt>
      <trkpt lat="46.97307" lon="8.7685">
        <ele>631</ele>
        <time>2021-08-05T13:44:44.107Z</time>
      </trkpt>
      <trkpt lat="46.97307" lon="8.76851">
        <ele>630</ele>
        <time>2021-08-05T13:44:45.107Z</time>
      </trkpt>
      <trkpt lat="46.97307" lon="8.76857">
        <ele>625</ele>
        <time>2021-08-05T13:44:46.107Z</time>
      </trkpt>
      <trkpt lat="46.97307" lon="8.76859">
        <ele>624</ele>
        <time>2021-08-05T13:44:47.108Z</time>
      </trkpt>
      <trkpt lat="46.97308" lon="8.7686">
        <ele>623</ele>
        <time>2021-08-05T13:44:48.108Z</time>
      </trkpt>
      <trkpt lat="46.97308" lon="8.76861">
        <ele>622</ele>
        <time>2021-08-05T13:44:49.108Z</time>
      </trkpt>
      <trkpt lat="46.97308" lon="8.76862">
        <ele>621</ele>
        <time>2021-08-05T13:44:50.107Z</time>
      </trkpt>
      <trkpt lat="46.97308" lon="8.76863">
        <ele>620</ele>
        <time>2021-08-05T13:44:51.107Z</time>
      </trkpt>
      <trkpt lat="46.97308" lon="8.76863">
        <ele>620</ele>
        <time>2021-08-05T13:44:52.108Z</time>
      </trkpt>
      <trkpt lat="46.97308" lon="8.76863">
        <ele>619</ele>
        <time>2021-08-05T13:44:53.108Z</time>
      </trkpt>
      <trkpt lat="46.97308" lon="8.76863">
        <ele>618</ele>
        <time>2021-08-05T13:44:54.108Z</time>
      </trkpt>
      <trkpt lat="46.97309" lon="8.76864">
        <ele>617</ele>
        <time>2021-08-05T13:44:55.107Z</time>
      </trkpt>
      <trkpt lat="46.9731" lon="8.76864">
        <ele>617</ele>
        <time>2021-08-05T13:44:56.107Z</time>
      </trkpt>
      <trkpt lat="46.9731" lon="8.76864">
        <ele>617</ele>
        <time>2021-08-05T13:44:57.107Z</time>
      </trkpt>
      <trkpt lat="46.97311" lon="8.76864">
        <ele>618</ele>
        <time>2021-08-05T13:44:58.108Z</time>
      </trkpt>
      <trkpt lat="46.97311" lon="8.76864">
        <ele>618</ele>
        <time>2021-08-05T13:44:59.108Z</time>
      </trkpt>
      <trkpt lat="46.97312" lon="8.76864">
        <ele>619</ele>
        <time>2021-08-05T13:45:00.108Z</time>
      </trkpt>
      <trkpt lat="46.97314" lon="8.76864">
        <ele>619</ele>
        <time>2021-08-05T13:45:01.108Z</time>
      </trkpt>
      <trkpt lat="46.97315" lon="8.76865">
        <ele>620</ele>
        <time>2021-08-05T13:45:02.108Z</time>
      </trkpt>
      <trkpt lat="46.97316" lon="8.76866">
        <ele>621</ele>
        <time>2021-08-05T13:45:03.107Z</time>
      </trkpt>
      <trkpt lat="46.97316" lon="8.76865">
        <ele>622</ele>
        <time>2021-08-05T13:45:04.108Z</time>
      </trkpt>
      <trkpt lat="46.97317" lon="8.76865">
        <ele>623</ele>
        <time>2021-08-05T13:45:05.107Z</time>
      </trkpt>
      <trkpt lat="46.97319" lon="8.76866">
        <ele>623</ele>
        <time>2021-08-05T13:45:06.107Z</time>
      </trkpt>
      <trkpt lat="46.9732" lon="8.76866">
        <ele>624</ele>
        <time>2021-08-05T13:45:07.107Z</time>
      </trkpt>
      <trkpt lat="46.9732" lon="8.76866">
        <ele>624</ele>
        <time>2021-08-05T13:45:08.107Z</time>
      </trkpt>
      <trkpt lat="46.9732" lon="8.76866">
        <ele>625</ele>
        <time>2021-08-05T13:45:09.108Z</time>
      </trkpt>
      <trkpt lat="46.97321" lon="8.76865">
        <ele>625</ele>
        <time>2021-08-05T13:45:10.108Z</time>
      </trkpt>
      <trkpt lat="46.97321" lon="8.76866">
        <ele>625</ele>
        <time>2021-08-05T13:45:11.108Z</time>
      </trkpt>
      <trkpt lat="46.97322" lon="8.76866">
        <ele>625</ele>
        <time>2021-08-05T13:45:12.107Z</time>
      </trkpt>
      <trkpt lat="46.97323" lon="8.76867">
        <ele>625</ele>
        <time>2021-08-05T13:45:13.108Z</time>
      </trkpt>
      <trkpt lat="46.97324" lon="8.76867">
        <ele>625</ele>
        <time>2021-08-05T13:45:14.108Z</time>
      </trkpt>
      <trkpt lat="46.97325" lon="8.76868">
        <ele>625</ele>
        <time>2021-08-05T13:45:15.108Z</time>
      </trkpt>
      <trkpt lat="46.97325" lon="8.76868">
        <ele>624</ele>
        <time>2021-08-05T13:45:16.107Z</time>
      </trkpt>
      <trkpt lat="46.97326" lon="8.76869">
        <ele>624</ele>
        <time>2021-08-05T13:45:17.108Z</time>
      </trkpt>
      <trkpt lat="46.97326" lon="8.76869">
        <ele>624</ele>
        <time>2021-08-05T13:45:18.108Z</time>
      </trkpt>
      <trkpt lat="46.97327" lon="8.7687">
        <ele>624</ele>
        <time>2021-08-05T13:45:19.107Z</time>
      </trkpt>
      <trkpt lat="46.97328" lon="8.76872">
        <ele>624</ele>
        <time>2021-08-05T13:45:20.108Z</time>
      </trkpt>
      <trkpt lat="46.97328" lon="8.76872">
        <ele>623</ele>
        <time>2021-08-05T13:45:21.108Z</time>
      </trkpt>
      <trkpt lat="46.97328" lon="8.76872">
        <ele>623</ele>
        <time>2021-08-05T13:45:22.107Z</time>
      </trkpt>
      <trkpt lat="46.97329" lon="8.76873">
        <ele>624</ele>
        <time>2021-08-05T13:45:23.108Z</time>
      </trkpt>
      <trkpt lat="46.97329" lon="8.76873">
        <ele>624</ele>
        <time>2021-08-05T13:45:24.107Z</time>
      </trkpt>
      <trkpt lat="46.97328" lon="8.76874">
        <ele>624</ele>
        <time>2021-08-05T13:45:25.108Z</time>
      </trkpt>
      <trkpt lat="46.97328" lon="8.76874">
        <ele>624</ele>
        <time>2021-08-05T13:45:26.107Z</time>
      </trkpt>
      <trkpt lat="46.97327" lon="8.76876">
        <ele>624</ele>
        <time>2021-08-05T13:45:27.107Z</time>
      </trkpt>
      <trkpt lat="46.97327" lon="8.76878">
        <ele>624</ele>
        <time>2021-08-05T13:45:28.107Z</time>
      </trkpt>
      <trkpt lat="46.97327" lon="8.7688">
        <ele>624</ele>
        <time>2021-08-05T13:45:29.108Z</time>
      </trkpt>
      <trkpt lat="46.97326" lon="8.76881">
        <ele>623</ele>
        <time>2021-08-05T13:45:30.107Z</time>
      </trkpt>
      <trkpt lat="46.97326" lon="8.76883">
        <ele>623</ele>
        <time>2021-08-05T13:45:31.108Z</time>
      </trkpt>
      <trkpt lat="46.97325" lon="8.76883">
        <ele>622</ele>
        <time>2021-08-05T13:45:32.108Z</time>
      </trkpt>
      <trkpt lat="46.97325" lon="8.76884">
        <ele>622</ele>
        <time>2021-08-05T13:45:33.107Z</time>
      </trkpt>
      <trkpt lat="46.97325" lon="8.76885">
        <ele>622</ele>
        <time>2021-08-05T13:45:34.108Z</time>
      </trkpt>
      <trkpt lat="46.97325" lon="8.76884">
        <ele>622</ele>
        <time>2021-08-05T13:45:35.108Z</time>
      </trkpt>
      <trkpt lat="46.97324" lon="8.76885">
        <ele>622</ele>
        <time>2021-08-05T13:45:36.108Z</time>
      </trkpt>
      <trkpt lat="46.97324" lon="8.76885">
        <ele>622</ele>
        <time>2021-08-05T13:45:37.107Z</time>
      </trkpt>
      <trkpt lat="46.97323" lon="8.76886">
        <ele>621</ele>
        <time>2021-08-05T13:45:38.108Z</time>
      </trkpt>
      <trkpt lat="46.97323" lon="8.76887">
        <ele>621</ele>
        <time>2021-08-05T13:45:39.108Z</time>
      </trkpt>
      <trkpt lat="46.97322" lon="8.76889">
        <ele>621</ele>
        <time>2021-08-05T13:45:40.108Z</time>
      </trkpt>
      <trkpt lat="46.97321" lon="8.7689">
        <ele>621</ele>
        <time>2021-08-05T13:45:41.108Z</time>
      </trkpt>
      <trkpt lat="46.9732" lon="8.76891">
        <ele>621</ele>
        <time>2021-08-05T13:45:42.108Z</time>
      </trkpt>
      <trkpt lat="46.9732" lon="8.76893">
        <ele>621</ele>
        <time>2021-08-05T13:45:43.108Z</time>
      </trkpt>
      <trkpt lat="46.97319" lon="8.76894">
        <ele>621</ele>
        <time>2021-08-05T13:45:44.108Z</time>
      </trkpt>
      <trkpt lat="46.97319" lon="8.76896">
        <ele>621</ele>
        <time>2021-08-05T13:45:45.107Z</time>
      </trkpt>
      <trkpt lat="46.97319" lon="8.76897">
        <ele>621</ele>
        <time>2021-08-05T13:45:46.108Z</time>
      </trkpt>
      <trkpt lat="46.97318" lon="8.76899">
        <ele>620</ele>
        <time>2021-08-05T13:45:47.108Z</time>
      </trkpt>
      <trkpt lat="46.97318" lon="8.76901">
        <ele>620</ele>
        <time>2021-08-05T13:45:48.108Z</time>
      </trkpt>
      <trkpt lat="46.97317" lon="8.76902">
        <ele>620</ele>
        <time>2021-08-05T13:45:49.108Z</time>
      </trkpt>
      <trkpt lat="46.97317" lon="8.76904">
        <ele>620</ele>
        <time>2021-08-05T13:45:50.108Z</time>
      </trkpt>
      <trkpt lat="46.97316" lon="8.76906">
        <ele>620</ele>
        <time>2021-08-05T13:45:51.108Z</time>
      </trkpt>
      <trkpt lat="46.97316" lon="8.76908">
        <ele>620</ele>
        <time>2021-08-05T13:45:52.108Z</time>
      </trkpt>
      <trkpt lat="46.97315" lon="8.7691">
        <ele>620</ele>
        <time>2021-08-05T13:45:53.108Z</time>
      </trkpt>
      <trkpt lat="46.97315" lon="8.76911">
        <ele>620</ele>
        <time>2021-08-05T13:45:54.108Z</time>
      </trkpt>
      <trkpt lat="46.97315" lon="8.76913">
        <ele>620</ele>
        <time>2021-08-05T13:45:55.108Z</time>
      </trkpt>
      <trkpt lat="46.97314" lon="8.76914">
        <ele>620</ele>
        <time>2021-08-05T13:45:56.108Z</time>
      </trkpt>
      <trkpt lat="46.97313" lon="8.76916">
        <ele>620</ele>
        <time>2021-08-05T13:45:57.107Z</time>
      </trkpt>
      <trkpt lat="46.97313" lon="8.76917">
        <ele>620</ele>
        <time>2021-08-05T13:45:58.107Z</time>
      </trkpt>
      <trkpt lat="46.97312" lon="8.76919">
        <ele>620</ele>
        <time>2021-08-05T13:45:59.108Z</time>
      </trkpt>
      <trkpt lat="46.97311" lon="8.7692">
        <ele>620</ele>
        <time>2021-08-05T13:46:00.107Z</time>
      </trkpt>
      <trkpt lat="46.97311" lon="8.76922">
        <ele>620</ele>
        <time>2021-08-05T13:46:01.108Z</time>
      </trkpt>
      <trkpt lat="46.9731" lon="8.76923">
        <ele>620</ele>
        <time>2021-08-05T13:46:02.108Z</time>
      </trkpt>
      <trkpt lat="46.9731" lon="8.76924">
        <ele>620</ele>
        <time>2021-08-05T13:46:03.108Z</time>
      </trkpt>
      <trkpt lat="46.97309" lon="8.76925">
        <ele>621</ele>
        <time>2021-08-05T13:46:04.107Z</time>
      </trkpt>
      <trkpt lat="46.97308" lon="8.76926">
        <ele>621</ele>
        <time>2021-08-05T13:46:05.107Z</time>
      </trkpt>
      <trkpt lat="46.97308" lon="8.76928">
        <ele>622</ele>
        <time>2021-08-05T13:46:06.108Z</time>
      </trkpt>
      <trkpt lat="46.97307" lon="8.7693">
        <ele>623</ele>
        <time>2021-08-05T13:46:07.108Z</time>
      </trkpt>
      <trkpt lat="46.97307" lon="8.76931">
        <ele>624</ele>
        <time>2021-08-05T13:46:08.108Z</time>
      </trkpt>
      <trkpt lat="46.97306" lon="8.76933">
        <ele>625</ele>
        <time>2021-08-05T13:46:09.107Z</time>
      </trkpt>
      <trkpt lat="46.97305" lon="8.76934">
        <ele>626</ele>
        <time>2021-08-05T13:46:10.107Z</time>
      </trkpt>
      <trkpt lat="46.97305" lon="8.76936">
        <ele>626</ele>
        <time>2021-08-05T13:46:11.107Z</time>
      </trkpt>
      <trkpt lat="46.97305" lon="8.76937">
        <ele>627</ele>
        <time>2021-08-05T13:46:12.107Z</time>
      </trkpt>
      <trkpt lat="46.97304" lon="8.76938">
        <ele>627</ele>
        <time>2021-08-05T13:46:13.108Z</time>
      </trkpt>
      <trkpt lat="46.97304" lon="8.76939">
        <ele>628</ele>
        <time>2021-08-05T13:46:14.108Z</time>
      </trkpt>
      <trkpt lat="46.97304" lon="8.7694">
        <ele>628</ele>
        <time>2021-08-05T13:46:15.108Z</time>
      </trkpt>
      <trkpt lat="46.97304" lon="8.76941">
        <ele>628</ele>
        <time>2021-08-05T13:46:16.107Z</time>
      </trkpt>
      <trkpt lat="46.97304" lon="8.76942">
        <ele>628</ele>
        <time>2021-08-05T13:46:17.108Z</time>
      </trkpt>
      <trkpt lat="46.97303" lon="8.76944">
        <ele>628</ele>
        <time>2021-08-05T13:46:18.107Z</time>
      </trkpt>
      <trkpt lat="46.97303" lon="8.76945">
        <ele>628</ele>
        <time>2021-08-05T13:46:19.107Z</time>
      </trkpt>
      <trkpt lat="46.97303" lon="8.76946">
        <ele>628</ele>
        <time>2021-08-05T13:46:20.108Z</time>
      </trkpt>
      <trkpt lat="46.97302" lon="8.76948">
        <ele>628</ele>
        <time>2021-08-05T13:46:21.108Z</time>
      </trkpt>
      <trkpt lat="46.97302" lon="8.76949">
        <ele>629</ele>
        <time>2021-08-05T13:46:22.108Z</time>
      </trkpt>
      <trkpt lat="46.97301" lon="8.7695">
        <ele>629</ele>
        <time>2021-08-05T13:46:23.108Z</time>
      </trkpt>
      <trkpt lat="46.97301" lon="8.76952">
        <ele>629</ele>
        <time>2021-08-05T13:46:24.108Z</time>
      </trkpt>
      <trkpt lat="46.97301" lon="8.76954">
        <ele>629</ele>
        <time>2021-08-05T13:46:25.108Z</time>
      </trkpt>
      <trkpt lat="46.973" lon="8.76955">
        <ele>629</ele>
        <time>2021-08-05T13:46:26.107Z</time>
      </trkpt>
      <trkpt lat="46.973" lon="8.76957">
        <ele>630</ele>
        <time>2021-08-05T13:46:27.107Z</time>
      </trkpt>
      <trkpt lat="46.973" lon="8.76958">
        <ele>630</ele>
        <time>2021-08-05T13:46:28.107Z</time>
      </trkpt>
      <trkpt lat="46.97299" lon="8.7696">
        <ele>630</ele>
        <time>2021-08-05T13:46:29.108Z</time>
      </trkpt>
      <trkpt lat="46.97299" lon="8.76962">
        <ele>629</ele>
        <time>2021-08-05T13:46:30.108Z</time>
      </trkpt>
      <trkpt lat="46.97299" lon="8.76963">
        <ele>629</ele>
        <time>2021-08-05T13:46:31.108Z</time>
      </trkpt>
      <trkpt lat="46.97299" lon="8.76965">
        <ele>629</ele>
        <time>2021-08-05T13:46:32.108Z</time>
      </trkpt>
      <trkpt lat="46.97298" lon="8.76967">
        <ele>629</ele>
        <time>2021-08-05T13:46:33.107Z</time>
      </trkpt>
      <trkpt lat="46.97298" lon="8.76968">
        <ele>629</ele>
        <time>2021-08-05T13:46:34.107Z</time>
      </trkpt>
      <trkpt lat="46.97297" lon="8.7697">
        <ele>629</ele>
        <time>2021-08-05T13:46:35.107Z</time>
      </trkpt>
      <trkpt lat="46.97297" lon="8.76971">
        <ele>630</ele>
        <time>2021-08-05T13:46:36.108Z</time>
      </trkpt>
      <trkpt lat="46.97296" lon="8.76973">
        <ele>630</ele>
        <time>2021-08-05T13:46:37.107Z</time>
      </trkpt>
      <trkpt lat="46.97296" lon="8.76974">
        <ele>630</ele>
        <time>2021-08-05T13:46:38.107Z</time>
      </trkpt>
      <trkpt lat="46.97295" lon="8.76976">
        <ele>630</ele>
        <time>2021-08-05T13:46:39.107Z</time>
      </trkpt>
      <trkpt lat="46.97295" lon="8.76977">
        <ele>630</ele>
        <time>2021-08-05T13:46:40.107Z</time>
      </trkpt>
      <trkpt lat="46.97295" lon="8.76978">
        <ele>630</ele>
        <time>2021-08-05T13:46:41.108Z</time>
      </trkpt>
      <trkpt lat="46.97295" lon="8.76979">
        <ele>630</ele>
        <time>2021-08-05T13:46:42.108Z</time>
      </trkpt>
      <trkpt lat="46.97295" lon="8.7698">
        <ele>631</ele>
        <time>2021-08-05T13:46:43.108Z</time>
      </trkpt>
      <trkpt lat="46.97295" lon="8.76982">
        <ele>630</ele>
        <time>2021-08-05T13:46:44.108Z</time>
      </trkpt>
      <trkpt lat="46.97295" lon="8.76983">
        <ele>631</ele>
        <time>2021-08-05T13:46:45.107Z</time>
      </trkpt>
      <trkpt lat="46.97294" lon="8.76985">
        <ele>631</ele>
        <time>2021-08-05T13:46:46.108Z</time>
      </trkpt>
      <trkpt lat="46.97294" lon="8.76986">
        <ele>631</ele>
        <time>2021-08-05T13:46:47.107Z</time>
      </trkpt>
      <trkpt lat="46.97294" lon="8.76988">
        <ele>631</ele>
        <time>2021-08-05T13:46:48.108Z</time>
      </trkpt>
      <trkpt lat="46.97293" lon="8.76989">
        <ele>631</ele>
        <time>2021-08-05T13:46:49.107Z</time>
      </trkpt>
      <trkpt lat="46.97292" lon="8.76992">
        <ele>631</ele>
        <time>2021-08-05T13:46:50.108Z</time>
      </trkpt>
      <trkpt lat="46.97292" lon="8.76994">
        <ele>631</ele>
        <time>2021-08-05T13:46:51.108Z</time>
      </trkpt>
      <trkpt lat="46.97291" lon="8.76995">
        <ele>632</ele>
        <time>2021-08-05T13:46:52.108Z</time>
      </trkpt>
      <trkpt lat="46.9729" lon="8.76997">
        <ele>632</ele>
        <time>2021-08-05T13:46:53.107Z</time>
      </trkpt>
      <trkpt lat="46.9729" lon="8.76998">
        <ele>632</ele>
        <time>2021-08-05T13:46:54.108Z</time>
      </trkpt>
      <trkpt lat="46.9729" lon="8.77">
        <ele>632</ele>
        <time>2021-08-05T13:46:55.108Z</time>
      </trkpt>
      <trkpt lat="46.97289" lon="8.77002">
        <ele>632</ele>
        <time>2021-08-05T13:46:56.108Z</time>
      </trkpt>
      <trkpt lat="46.97289" lon="8.77003">
        <ele>632</ele>
        <time>2021-08-05T13:46:57.108Z</time>
      </trkpt>
      <trkpt lat="46.97289" lon="8.77005">
        <ele>633</ele>
        <time>2021-08-05T13:46:58.108Z</time>
      </trkpt>
      <trkpt lat="46.97289" lon="8.77006">
        <ele>633</ele>
        <time>2021-08-05T13:46:59.108Z</time>
      </trkpt>
      <trkpt lat="46.97288" lon="8.77008">
        <ele>634</ele>
        <time>2021-08-05T13:47:00.108Z</time>
      </trkpt>
      <trkpt lat="46.97288" lon="8.77009">
        <ele>634</ele>
        <time>2021-08-05T13:47:01.107Z</time>
      </trkpt>
      <trkpt lat="46.97288" lon="8.77011">
        <ele>634</ele>
        <time>2021-08-05T13:47:02.108Z</time>
      </trkpt>
      <trkpt lat="46.97288" lon="8.77012">
        <ele>634</ele>
        <time>2021-08-05T13:47:03.108Z</time>
      </trkpt>
      <trkpt lat="46.97287" lon="8.77014">
        <ele>634</ele>
        <time>2021-08-05T13:47:04.107Z</time>
      </trkpt>
      <trkpt lat="46.97287" lon="8.77016">
        <ele>634</ele>
        <time>2021-08-05T13:47:05.107Z</time>
      </trkpt>
      <trkpt lat="46.97286" lon="8.77018">
        <ele>634</ele>
        <time>2021-08-05T13:47:06.107Z</time>
      </trkpt>
      <trkpt lat="46.97286" lon="8.77019">
        <ele>634</ele>
        <time>2021-08-05T13:47:07.107Z</time>
      </trkpt>
      <trkpt lat="46.97286" lon="8.77021">
        <ele>635</ele>
        <time>2021-08-05T13:47:08.107Z</time>
      </trkpt>
      <trkpt lat="46.97286" lon="8.77023">
        <ele>635</ele>
        <time>2021-08-05T13:47:09.108Z</time>
      </trkpt>
      <trkpt lat="46.97285" lon="8.77025">
        <ele>635</ele>
        <time>2021-08-05T13:47:10.107Z</time>
      </trkpt>
      <trkpt lat="46.97285" lon="8.77027">
        <ele>635</ele>
        <time>2021-08-05T13:47:12.067Z</time>
      </trkpt>
      <trkpt lat="46.97285" lon="8.77028">
        <ele>635</ele>
        <time>2021-08-05T13:47:13.067Z</time>
      </trkpt>
      <trkpt lat="46.97284" lon="8.77029">
        <ele>635</ele>
        <time>2021-08-05T13:47:14.067Z</time>
      </trkpt>
      <trkpt lat="46.97284" lon="8.7703">
        <ele>636</ele>
        <time>2021-08-05T13:47:15.067Z</time>
      </trkpt>
      <trkpt lat="46.97284" lon="8.77031">
        <ele>636</ele>
        <time>2021-08-05T13:47:16.066Z</time>
      </trkpt>
      <trkpt lat="46.97284" lon="8.77033">
        <ele>636</ele>
        <time>2021-08-05T13:47:17.066Z</time>
      </trkpt>
      <trkpt lat="46.97283" lon="8.77034">
        <ele>636</ele>
        <time>2021-08-05T13:47:18.067Z</time>
      </trkpt>
      <trkpt lat="46.97283" lon="8.77036">
        <ele>636</ele>
        <time>2021-08-05T13:47:19.066Z</time>
      </trkpt>
      <trkpt lat="46.97283" lon="8.77038">
        <ele>636</ele>
        <time>2021-08-05T13:47:20.066Z</time>
      </trkpt>
      <trkpt lat="46.97283" lon="8.7704">
        <ele>637</ele>
        <time>2021-08-05T13:47:21.067Z</time>
      </trkpt>
      <trkpt lat="46.97283" lon="8.77041">
        <ele>637</ele>
        <time>2021-08-05T13:47:22.066Z</time>
      </trkpt>
      <trkpt lat="46.97283" lon="8.77042">
        <ele>637</ele>
        <time>2021-08-05T13:47:23.067Z</time>
      </trkpt>
      <trkpt lat="46.97283" lon="8.77044">
        <ele>638</ele>
        <time>2021-08-05T13:47:24.067Z</time>
      </trkpt>
      <trkpt lat="46.97283" lon="8.77046">
        <ele>638</ele>
        <time>2021-08-05T13:47:25.066Z</time>
      </trkpt>
      <trkpt lat="46.97283" lon="8.77049">
        <ele>638</ele>
        <time>2021-08-05T13:47:26.066Z</time>
      </trkpt>
      <trkpt lat="46.97283" lon="8.7705">
        <ele>638</ele>
        <time>2021-08-05T13:47:27.067Z</time>
      </trkpt>
      <trkpt lat="46.97282" lon="8.77051">
        <ele>638</ele>
        <time>2021-08-05T13:47:28.067Z</time>
      </trkpt>
      <trkpt lat="46.97282" lon="8.77052">
        <ele>638</ele>
        <time>2021-08-05T13:47:29.067Z</time>
      </trkpt>
      <trkpt lat="46.97281" lon="8.77053">
        <ele>638</ele>
        <time>2021-08-05T13:47:30.067Z</time>
      </trkpt>
      <trkpt lat="46.9728" lon="8.77055">
        <ele>638</ele>
        <time>2021-08-05T13:47:31.066Z</time>
      </trkpt>
      <trkpt lat="46.9728" lon="8.77057">
        <ele>638</ele>
        <time>2021-08-05T13:47:32.066Z</time>
      </trkpt>
      <trkpt lat="46.9728" lon="8.77059">
        <ele>639</ele>
        <time>2021-08-05T13:47:33.066Z</time>
      </trkpt>
      <trkpt lat="46.9728" lon="8.7706">
        <ele>639</ele>
        <time>2021-08-05T13:47:34.067Z</time>
      </trkpt>
      <trkpt lat="46.97279" lon="8.77061">
        <ele>639</ele>
        <time>2021-08-05T13:47:35.067Z</time>
      </trkpt>
      <trkpt lat="46.97279" lon="8.77063">
        <ele>639</ele>
        <time>2021-08-05T13:47:36.067Z</time>
      </trkpt>
      <trkpt lat="46.97278" lon="8.77064">
        <ele>639</ele>
        <time>2021-08-05T13:47:37.067Z</time>
      </trkpt>
      <trkpt lat="46.97278" lon="8.77066">
        <ele>639</ele>
        <time>2021-08-05T13:47:38.067Z</time>
      </trkpt>
      <trkpt lat="46.97279" lon="8.77068">
        <ele>639</ele>
        <time>2021-08-05T13:47:39.067Z</time>
      </trkpt>
      <trkpt lat="46.97279" lon="8.7707">
        <ele>637</ele>
        <time>2021-08-05T13:47:40.066Z</time>
      </trkpt>
      <trkpt lat="46.97279" lon="8.77071">
        <ele>637</ele>
        <time>2021-08-05T13:47:41.066Z</time>
      </trkpt>
      <trkpt lat="46.97279" lon="8.77073">
        <ele>636</ele>
        <time>2021-08-05T13:47:42.066Z</time>
      </trkpt>
      <trkpt lat="46.9728" lon="8.77074">
        <ele>635</ele>
        <time>2021-08-05T13:47:43.066Z</time>
      </trkpt>
      <trkpt lat="46.9728" lon="8.77076">
        <ele>634</ele>
        <time>2021-08-05T13:47:44.066Z</time>
      </trkpt>
      <trkpt lat="46.9728" lon="8.77077">
        <ele>633</ele>
        <time>2021-08-05T13:47:45.067Z</time>
      </trkpt>
      <trkpt lat="46.9728" lon="8.77079">
        <ele>632</ele>
        <time>2021-08-05T13:47:46.067Z</time>
      </trkpt>
      <trkpt lat="46.9728" lon="8.77081">
        <ele>632</ele>
        <time>2021-08-05T13:47:47.066Z</time>
      </trkpt>
      <trkpt lat="46.9728" lon="8.77083">
        <ele>631</ele>
        <time>2021-08-05T13:47:48.066Z</time>
      </trkpt>
      <trkpt lat="46.9728" lon="8.77084">
        <ele>631</ele>
        <time>2021-08-05T13:47:49.067Z</time>
      </trkpt>
      <trkpt lat="46.9728" lon="8.77086">
        <ele>631</ele>
        <time>2021-08-05T13:47:50.066Z</time>
      </trkpt>
      <trkpt lat="46.9728" lon="8.77089">
        <ele>631</ele>
        <time>2021-08-05T13:47:51.067Z</time>
      </trkpt>
      <trkpt lat="46.97279" lon="8.77091">
        <ele>631</ele>
        <time>2021-08-05T13:47:52.066Z</time>
      </trkpt>
      <trkpt lat="46.97279" lon="8.77093">
        <ele>632</ele>
        <time>2021-08-05T13:47:53.067Z</time>
      </trkpt>
      <trkpt lat="46.97279" lon="8.77095">
        <ele>632</ele>
        <time>2021-08-05T13:47:54.066Z</time>
      </trkpt>
      <trkpt lat="46.97278" lon="8.77096">
        <ele>632</ele>
        <time>2021-08-05T13:47:55.067Z</time>
      </trkpt>
      <trkpt lat="46.97278" lon="8.77098">
        <ele>633</ele>
        <time>2021-08-05T13:47:56.067Z</time>
      </trkpt>
      <trkpt lat="46.97278" lon="8.77099">
        <ele>633</ele>
        <time>2021-08-05T13:47:57.066Z</time>
      </trkpt>
      <trkpt lat="46.97278" lon="8.77101">
        <ele>633</ele>
        <time>2021-08-05T13:47:58.067Z</time>
      </trkpt>
      <trkpt lat="46.97278" lon="8.77103">
        <ele>634</ele>
        <time>2021-08-05T13:47:59.066Z</time>
      </trkpt>
      <trkpt lat="46.97279" lon="8.77104">
        <ele>634</ele>
        <time>2021-08-05T13:48:00.067Z</time>
      </trkpt>
      <trkpt lat="46.97279" lon="8.77106">
        <ele>635</ele>
        <time>2021-08-05T13:48:01.066Z</time>
      </trkpt>
      <trkpt lat="46.97279" lon="8.77108">
        <ele>635</ele>
        <time>2021-08-05T13:48:02.067Z</time>
      </trkpt>
      <trkpt lat="46.97279" lon="8.7711">
        <ele>635</ele>
        <time>2021-08-05T13:48:03.067Z</time>
      </trkpt>
      <trkpt lat="46.97279" lon="8.77111">
        <ele>635</ele>
        <time>2021-08-05T13:48:04.067Z</time>
      </trkpt>
      <trkpt lat="46.97279" lon="8.77113">
        <ele>635</ele>
        <time>2021-08-05T13:48:05.067Z</time>
      </trkpt>
      <trkpt lat="46.97279" lon="8.77115">
        <ele>636</ele>
        <time>2021-08-05T13:48:06.067Z</time>
      </trkpt>
      <trkpt lat="46.97279" lon="8.77116">
        <ele>636</ele>
        <time>2021-08-05T13:48:07.067Z</time>
      </trkpt>
      <trkpt lat="46.97279" lon="8.77117">
        <ele>636</ele>
        <time>2021-08-05T13:48:08.067Z</time>
      </trkpt>
      <trkpt lat="46.9728" lon="8.77118">
        <ele>636</ele>
        <time>2021-08-05T13:48:09.067Z</time>
      </trkpt>
      <trkpt lat="46.9728" lon="8.7712">
        <ele>636</ele>
        <time>2021-08-05T13:48:10.066Z</time>
      </trkpt>
      <trkpt lat="46.9728" lon="8.77121">
        <ele>636</ele>
        <time>2021-08-05T13:48:11.066Z</time>
      </trkpt>
      <trkpt lat="46.9728" lon="8.77122">
        <ele>636</ele>
        <time>2021-08-05T13:48:12.067Z</time>
      </trkpt>
      <trkpt lat="46.9728" lon="8.77124">
        <ele>635</ele>
        <time>2021-08-05T13:48:13.067Z</time>
      </trkpt>
      <trkpt lat="46.97281" lon="8.77126">
        <ele>635</ele>
        <time>2021-08-05T13:48:14.067Z</time>
      </trkpt>
      <trkpt lat="46.97281" lon="8.77126">
        <ele>635</ele>
        <time>2021-08-05T13:48:15.066Z</time>
      </trkpt>
      <trkpt lat="46.97281" lon="8.77127">
        <ele>635</ele>
        <time>2021-08-05T13:48:16.067Z</time>
      </trkpt>
      <trkpt lat="46.97281" lon="8.77129">
        <ele>635</ele>
        <time>2021-08-05T13:48:17.067Z</time>
      </trkpt>
      <trkpt lat="46.97282" lon="8.77131">
        <ele>634</ele>
        <time>2021-08-05T13:48:18.067Z</time>
      </trkpt>
      <trkpt lat="46.97282" lon="8.77133">
        <ele>634</ele>
        <time>2021-08-05T13:48:19.067Z</time>
      </trkpt>
      <trkpt lat="46.97282" lon="8.77135">
        <ele>634</ele>
        <time>2021-08-05T13:48:20.066Z</time>
      </trkpt>
      <trkpt lat="46.97282" lon="8.77136">
        <ele>634</ele>
        <time>2021-08-05T13:48:21.067Z</time>
      </trkpt>
      <trkpt lat="46.97282" lon="8.77138">
        <ele>635</ele>
        <time>2021-08-05T13:48:22.066Z</time>
      </trkpt>
      <trkpt lat="46.97282" lon="8.77139">
        <ele>636</ele>
        <time>2021-08-05T13:48:23.067Z</time>
      </trkpt>
      <trkpt lat="46.97282" lon="8.77141">
        <ele>636</ele>
        <time>2021-08-05T13:48:24.066Z</time>
      </trkpt>
      <trkpt lat="46.97282" lon="8.77142">
        <ele>637</ele>
        <time>2021-08-05T13:48:25.067Z</time>
      </trkpt>
      <trkpt lat="46.97282" lon="8.77144">
        <ele>637</ele>
        <time>2021-08-05T13:48:26.067Z</time>
      </trkpt>
      <trkpt lat="46.97283" lon="8.77146">
        <ele>636</ele>
        <time>2021-08-05T13:48:27.066Z</time>
      </trkpt>
      <trkpt lat="46.97283" lon="8.77148">
        <ele>636</ele>
        <time>2021-08-05T13:48:28.066Z</time>
      </trkpt>
      <trkpt lat="46.97283" lon="8.7715">
        <ele>635</ele>
        <time>2021-08-05T13:48:29.066Z</time>
      </trkpt>
      <trkpt lat="46.97283" lon="8.77152">
        <ele>635</ele>
        <time>2021-08-05T13:48:30.066Z</time>
      </trkpt>
      <trkpt lat="46.97283" lon="8.77153">
        <ele>635</ele>
        <time>2021-08-05T13:48:31.066Z</time>
      </trkpt>
      <trkpt lat="46.97283" lon="8.77154">
        <ele>635</ele>
        <time>2021-08-05T13:48:32.067Z</time>
      </trkpt>
      <trkpt lat="46.97283" lon="8.77156">
        <ele>635</ele>
        <time>2021-08-05T13:48:33.067Z</time>
      </trkpt>
      <trkpt lat="46.97283" lon="8.77157">
        <ele>635</ele>
        <time>2021-08-05T13:48:34.067Z</time>
      </trkpt>
      <trkpt lat="46.97283" lon="8.77159">
        <ele>635</ele>
        <time>2021-08-05T13:48:35.067Z</time>
      </trkpt>
      <trkpt lat="46.97283" lon="8.77161">
        <ele>635</ele>
        <time>2021-08-05T13:48:36.066Z</time>
      </trkpt>
      <trkpt lat="46.97283" lon="8.77163">
        <ele>635</ele>
        <time>2021-08-05T13:48:37.066Z</time>
      </trkpt>
      <trkpt lat="46.97283" lon="8.77164">
        <ele>635</ele>
        <time>2021-08-05T13:48:38.066Z</time>
      </trkpt>
      <trkpt lat="46.97284" lon="8.77166">
        <ele>635</ele>
        <time>2021-08-05T13:48:39.066Z</time>
      </trkpt>
      <trkpt lat="46.97284" lon="8.77167">
        <ele>635</ele>
        <time>2021-08-05T13:48:40.066Z</time>
      </trkpt>
      <trkpt lat="46.97284" lon="8.77169">
        <ele>635</ele>
        <time>2021-08-05T13:48:41.067Z</time>
      </trkpt>
      <trkpt lat="46.97284" lon="8.7717">
        <ele>635</ele>
        <time>2021-08-05T13:48:42.067Z</time>
      </trkpt>
      <trkpt lat="46.97284" lon="8.77171">
        <ele>634</ele>
        <time>2021-08-05T13:48:43.067Z</time>
      </trkpt>
      <trkpt lat="46.97285" lon="8.77173">
        <ele>634</ele>
        <time>2021-08-05T13:48:44.066Z</time>
      </trkpt>
      <trkpt lat="46.97285" lon="8.77174">
        <ele>633</ele>
        <time>2021-08-05T13:48:45.066Z</time>
      </trkpt>
      <trkpt lat="46.97285" lon="8.77175">
        <ele>633</ele>
        <time>2021-08-05T13:48:46.066Z</time>
      </trkpt>
      <trkpt lat="46.97286" lon="8.77176">
        <ele>632</ele>
        <time>2021-08-05T13:48:47.067Z</time>
      </trkpt>
      <trkpt lat="46.97287" lon="8.77178">
        <ele>632</ele>
        <time>2021-08-05T13:48:48.066Z</time>
      </trkpt>
      <trkpt lat="46.97288" lon="8.77179">
        <ele>632</ele>
        <time>2021-08-05T13:48:49.066Z</time>
      </trkpt>
      <trkpt lat="46.97288" lon="8.7718">
        <ele>632</ele>
        <time>2021-08-05T13:48:50.066Z</time>
      </trkpt>
      <trkpt lat="46.97288" lon="8.77182">
        <ele>632</ele>
        <time>2021-08-05T13:48:51.066Z</time>
      </trkpt>
      <trkpt lat="46.97289" lon="8.77185">
        <ele>632</ele>
        <time>2021-08-05T13:48:52.066Z</time>
      </trkpt>
      <trkpt lat="46.97289" lon="8.77186">
        <ele>632</ele>
        <time>2021-08-05T13:48:53.067Z</time>
      </trkpt>
      <trkpt lat="46.97289" lon="8.77188">
        <ele>633</ele>
        <time>2021-08-05T13:48:54.067Z</time>
      </trkpt>
      <trkpt lat="46.9729" lon="8.7719">
        <ele>633</ele>
        <time>2021-08-05T13:48:55.067Z</time>
      </trkpt>
      <trkpt lat="46.97289" lon="8.77191">
        <ele>634</ele>
        <time>2021-08-05T13:48:56.066Z</time>
      </trkpt>
      <trkpt lat="46.9729" lon="8.77193">
        <ele>634</ele>
        <time>2021-08-05T13:48:57.066Z</time>
      </trkpt>
      <trkpt lat="46.9729" lon="8.77195">
        <ele>634</ele>
        <time>2021-08-05T13:48:58.066Z</time>
      </trkpt>
      <trkpt lat="46.9729" lon="8.77197">
        <ele>635</ele>
        <time>2021-08-05T13:48:59.066Z</time>
      </trkpt>
      <trkpt lat="46.9729" lon="8.77199">
        <ele>635</ele>
        <time>2021-08-05T13:49:00.066Z</time>
      </trkpt>
      <trkpt lat="46.97291" lon="8.77201">
        <ele>635</ele>
        <time>2021-08-05T13:49:01.067Z</time>
      </trkpt>
      <trkpt lat="46.97291" lon="8.77202">
        <ele>635</ele>
        <time>2021-08-05T13:49:02.067Z</time>
      </trkpt>
      <trkpt lat="46.97291" lon="8.77203">
        <ele>636</ele>
        <time>2021-08-05T13:49:03.066Z</time>
      </trkpt>
      <trkpt lat="46.97292" lon="8.77205">
        <ele>636</ele>
        <time>2021-08-05T13:49:04.066Z</time>
      </trkpt>
      <trkpt lat="46.97292" lon="8.77207">
        <ele>636</ele>
        <time>2021-08-05T13:49:05.066Z</time>
      </trkpt>
      <trkpt lat="46.97293" lon="8.77208">
        <ele>637</ele>
        <time>2021-08-05T13:49:06.066Z</time>
      </trkpt>
      <trkpt lat="46.97293" lon="8.7721">
        <ele>637</ele>
        <time>2021-08-05T13:49:07.066Z</time>
      </trkpt>
      <trkpt lat="46.97294" lon="8.77211">
        <ele>637</ele>
        <time>2021-08-05T13:49:08.066Z</time>
      </trkpt>
      <trkpt lat="46.97294" lon="8.77212">
        <ele>637</ele>
        <time>2021-08-05T13:49:09.066Z</time>
      </trkpt>
      <trkpt lat="46.97294" lon="8.77213">
        <ele>636</ele>
        <time>2021-08-05T13:49:10.066Z</time>
      </trkpt>
      <trkpt lat="46.97295" lon="8.77214">
        <ele>636</ele>
        <time>2021-08-05T13:49:11.066Z</time>
      </trkpt>
      <trkpt lat="46.97295" lon="8.77215">
        <ele>635</ele>
        <time>2021-08-05T13:49:12.066Z</time>
      </trkpt>
      <trkpt lat="46.97296" lon="8.77216">
        <ele>635</ele>
        <time>2021-08-05T13:49:13.067Z</time>
      </trkpt>
      <trkpt lat="46.97295" lon="8.77216">
        <ele>635</ele>
        <time>2021-08-05T13:49:14.067Z</time>
      </trkpt>
      <trkpt lat="46.97296" lon="8.77216">
        <ele>635</ele>
        <time>2021-08-05T13:49:15.066Z</time>
      </trkpt>
      <trkpt lat="46.97298" lon="8.77218">
        <ele>634</ele>
        <time>2021-08-05T13:49:16.068Z</time>
      </trkpt>
      <trkpt lat="46.97299" lon="8.77219">
        <ele>634</ele>
        <time>2021-08-05T13:49:17.067Z</time>
      </trkpt>
      <trkpt lat="46.97299" lon="8.7722">
        <ele>634</ele>
        <time>2021-08-05T13:49:18.067Z</time>
      </trkpt>
      <trkpt lat="46.97299" lon="8.77221">
        <ele>634</ele>
        <time>2021-08-05T13:49:19.068Z</time>
      </trkpt>
      <trkpt lat="46.97299" lon="8.77223">
        <ele>635</ele>
        <time>2021-08-05T13:49:20.068Z</time>
      </trkpt>
      <trkpt lat="46.97299" lon="8.77224">
        <ele>635</ele>
        <time>2021-08-05T13:49:21.067Z</time>
      </trkpt>
      <trkpt lat="46.97299" lon="8.77226">
        <ele>635</ele>
        <time>2021-08-05T13:49:22.067Z</time>
      </trkpt>
      <trkpt lat="46.97299" lon="8.77228">
        <ele>635</ele>
        <time>2021-08-05T13:49:23.068Z</time>
      </trkpt>
      <trkpt lat="46.97299" lon="8.77229">
        <ele>636</ele>
        <time>2021-08-05T13:49:24.067Z</time>
      </trkpt>
      <trkpt lat="46.973" lon="8.77231">
        <ele>636</ele>
        <time>2021-08-05T13:49:25.068Z</time>
      </trkpt>
      <trkpt lat="46.973" lon="8.77232">
        <ele>636</ele>
        <time>2021-08-05T13:49:26.068Z</time>
      </trkpt>
      <trkpt lat="46.97301" lon="8.77232">
        <ele>636</ele>
        <time>2021-08-05T13:49:27.068Z</time>
      </trkpt>
      <trkpt lat="46.97301" lon="8.77234">
        <ele>636</ele>
        <time>2021-08-05T13:49:28.067Z</time>
      </trkpt>
      <trkpt lat="46.97302" lon="8.77235">
        <ele>636</ele>
        <time>2021-08-05T13:49:29.067Z</time>
      </trkpt>
      <trkpt lat="46.97302" lon="8.77236">
        <ele>635</ele>
        <time>2021-08-05T13:49:30.068Z</time>
      </trkpt>
      <trkpt lat="46.97302" lon="8.77238">
        <ele>635</ele>
        <time>2021-08-05T13:49:31.068Z</time>
      </trkpt>
      <trkpt lat="46.97303" lon="8.77239">
        <ele>634</ele>
        <time>2021-08-05T13:49:32.067Z</time>
      </trkpt>
      <trkpt lat="46.97303" lon="8.7724">
        <ele>634</ele>
        <time>2021-08-05T13:49:33.068Z</time>
      </trkpt>
      <trkpt lat="46.97304" lon="8.77241">
        <ele>634</ele>
        <time>2021-08-05T13:49:34.068Z</time>
      </trkpt>
      <trkpt lat="46.97304" lon="8.77242">
        <ele>634</ele>
        <time>2021-08-05T13:49:35.067Z</time>
      </trkpt>
      <trkpt lat="46.97305" lon="8.77244">
        <ele>635</ele>
        <time>2021-08-05T13:49:36.067Z</time>
      </trkpt>
      <trkpt lat="46.97305" lon="8.77246">
        <ele>635</ele>
        <time>2021-08-05T13:49:37.068Z</time>
      </trkpt>
      <trkpt lat="46.97306" lon="8.77247">
        <ele>636</ele>
        <time>2021-08-05T13:49:38.068Z</time>
      </trkpt>
      <trkpt lat="46.97306" lon="8.77249">
        <ele>637</ele>
        <time>2021-08-05T13:49:39.068Z</time>
      </trkpt>
      <trkpt lat="46.97306" lon="8.7725">
        <ele>637</ele>
        <time>2021-08-05T13:49:40.067Z</time>
      </trkpt>
      <trkpt lat="46.97306" lon="8.77252">
        <ele>638</ele>
        <time>2021-08-05T13:49:41.068Z</time>
      </trkpt>
      <trkpt lat="46.97307" lon="8.77254">
        <ele>638</ele>
        <time>2021-08-05T13:49:42.068Z</time>
      </trkpt>
      <trkpt lat="46.97307" lon="8.77255">
        <ele>639</ele>
        <time>2021-08-05T13:49:43.067Z</time>
      </trkpt>
      <trkpt lat="46.97307" lon="8.77257">
        <ele>639</ele>
        <time>2021-08-05T13:49:44.067Z</time>
      </trkpt>
      <trkpt lat="46.97307" lon="8.77258">
        <ele>640</ele>
        <time>2021-08-05T13:49:45.068Z</time>
      </trkpt>
      <trkpt lat="46.97308" lon="8.7726">
        <ele>641</ele>
        <time>2021-08-05T13:49:46.067Z</time>
      </trkpt>
      <trkpt lat="46.97308" lon="8.77261">
        <ele>641</ele>
        <time>2021-08-05T13:49:47.068Z</time>
      </trkpt>
      <trkpt lat="46.97308" lon="8.77263">
        <ele>642</ele>
        <time>2021-08-05T13:49:48.067Z</time>
      </trkpt>
      <trkpt lat="46.97309" lon="8.77265">
        <ele>642</ele>
        <time>2021-08-05T13:49:49.067Z</time>
      </trkpt>
      <trkpt lat="46.97308" lon="8.77267">
        <ele>643</ele>
        <time>2021-08-05T13:49:50.067Z</time>
      </trkpt>
      <trkpt lat="46.97308" lon="8.77268">
        <ele>643</ele>
        <time>2021-08-05T13:49:51.067Z</time>
      </trkpt>
      <trkpt lat="46.97308" lon="8.7727">
        <ele>643</ele>
        <time>2021-08-05T13:49:52.068Z</time>
      </trkpt>
      <trkpt lat="46.97309" lon="8.77271">
        <ele>643</ele>
        <time>2021-08-05T13:49:53.067Z</time>
      </trkpt>
      <trkpt lat="46.97309" lon="8.77272">
        <ele>643</ele>
        <time>2021-08-05T13:49:54.068Z</time>
      </trkpt>
      <trkpt lat="46.97309" lon="8.77274">
        <ele>643</ele>
        <time>2021-08-05T13:49:55.068Z</time>
      </trkpt>
      <trkpt lat="46.9731" lon="8.77277">
        <ele>644</ele>
        <time>2021-08-05T13:49:56.068Z</time>
      </trkpt>
      <trkpt lat="46.97309" lon="8.77279">
        <ele>644</ele>
        <time>2021-08-05T13:49:57.068Z</time>
      </trkpt>
      <trkpt lat="46.97309" lon="8.7728">
        <ele>644</ele>
        <time>2021-08-05T13:49:58.067Z</time>
      </trkpt>
      <trkpt lat="46.9731" lon="8.77282">
        <ele>644</ele>
        <time>2021-08-05T13:49:59.068Z</time>
      </trkpt>
      <trkpt lat="46.97311" lon="8.77284">
        <ele>644</ele>
        <time>2021-08-05T13:50:00.068Z</time>
      </trkpt>
      <trkpt lat="46.97311" lon="8.77285">
        <ele>644</ele>
        <time>2021-08-05T13:50:01.068Z</time>
      </trkpt>
      <trkpt lat="46.97312" lon="8.77286">
        <ele>644</ele>
        <time>2021-08-05T13:50:02.068Z</time>
      </trkpt>
      <trkpt lat="46.97314" lon="8.77287">
        <ele>644</ele>
        <time>2021-08-05T13:50:03.068Z</time>
      </trkpt>
      <trkpt lat="46.97316" lon="8.77289">
        <ele>643</ele>
        <time>2021-08-05T13:50:04.068Z</time>
      </trkpt>
      <trkpt lat="46.97318" lon="8.77289">
        <ele>643</ele>
        <time>2021-08-05T13:50:05.068Z</time>
      </trkpt>
      <trkpt lat="46.97319" lon="8.77291">
        <ele>642</ele>
        <time>2021-08-05T13:50:06.068Z</time>
      </trkpt>
      <trkpt lat="46.9732" lon="8.77293">
        <ele>641</ele>
        <time>2021-08-05T13:50:07.068Z</time>
      </trkpt>
      <trkpt lat="46.97321" lon="8.77294">
        <ele>640</ele>
        <time>2021-08-05T13:50:08.067Z</time>
      </trkpt>
      <trkpt lat="46.97321" lon="8.77295">
        <ele>640</ele>
        <time>2021-08-05T13:50:09.067Z</time>
      </trkpt>
      <trkpt lat="46.97321" lon="8.77297">
        <ele>640</ele>
        <time>2021-08-05T13:50:10.068Z</time>
      </trkpt>
      <trkpt lat="46.97322" lon="8.77299">
        <ele>640</ele>
        <time>2021-08-05T13:50:11.068Z</time>
      </trkpt>
      <trkpt lat="46.97322" lon="8.773">
        <ele>640</ele>
        <time>2021-08-05T13:50:12.068Z</time>
      </trkpt>
      <trkpt lat="46.97323" lon="8.77301">
        <ele>640</ele>
        <time>2021-08-05T13:50:13.067Z</time>
      </trkpt>
      <trkpt lat="46.97324" lon="8.77301">
        <ele>640</ele>
        <time>2021-08-05T13:50:14.068Z</time>
      </trkpt>
      <trkpt lat="46.97324" lon="8.77301">
        <ele>639</ele>
        <time>2021-08-05T13:50:15.068Z</time>
      </trkpt>
      <trkpt lat="46.97325" lon="8.77302">
        <ele>639</ele>
        <time>2021-08-05T13:50:16.068Z</time>
      </trkpt>
      <trkpt lat="46.97326" lon="8.77304">
        <ele>639</ele>
        <time>2021-08-05T13:50:17.067Z</time>
      </trkpt>
      <trkpt lat="46.97327" lon="8.77305">
        <ele>639</ele>
        <time>2021-08-05T13:50:18.068Z</time>
      </trkpt>
      <trkpt lat="46.97327" lon="8.77306">
        <ele>638</ele>
        <time>2021-08-05T13:50:25.075Z</time>
      </trkpt>
      <trkpt lat="46.97327" lon="8.77307">
        <ele>638</ele>
        <time>2021-08-05T13:50:35.862Z</time>
      </trkpt>
      <trkpt lat="46.97327" lon="8.77308">
        <ele>638</ele>
        <time>2021-08-05T13:50:36.862Z</time>
      </trkpt>
      <trkpt lat="46.97328" lon="8.77309">
        <ele>638</ele>
        <time>2021-08-05T13:50:49.569Z</time>
      </trkpt>
      <trkpt lat="46.9733" lon="8.7731">
        <ele>638</ele>
        <time>2021-08-05T13:50:50.569Z</time>
      </trkpt>
      <trkpt lat="46.97332" lon="8.77312">
        <ele>638</ele>
        <time>2021-08-05T13:50:51.570Z</time>
      </trkpt>
      <trkpt lat="46.97334" lon="8.77314">
        <ele>638</ele>
        <time>2021-08-05T13:50:52.570Z</time>
      </trkpt>
      <trkpt lat="46.97336" lon="8.77315">
        <ele>638</ele>
        <time>2021-08-05T13:50:53.569Z</time>
      </trkpt>
      <trkpt lat="46.97336" lon="8.77317">
        <ele>637</ele>
        <time>2021-08-05T13:50:54.570Z</time>
      </trkpt>
      <trkpt lat="46.97336" lon="8.77319">
        <ele>637</ele>
        <time>2021-08-05T13:50:55.570Z</time>
      </trkpt>
      <trkpt lat="46.97336" lon="8.77321">
        <ele>637</ele>
        <time>2021-08-05T13:50:56.569Z</time>
      </trkpt>
      <trkpt lat="46.97336" lon="8.77322">
        <ele>637</ele>
        <time>2021-08-05T13:50:57.570Z</time>
      </trkpt>
      <trkpt lat="46.97335" lon="8.77323">
        <ele>637</ele>
        <time>2021-08-05T13:50:58.570Z</time>
      </trkpt>
      <trkpt lat="46.97333" lon="8.77323">
        <ele>637</ele>
        <time>2021-08-05T13:51:07.568Z</time>
      </trkpt>
      <trkpt lat="46.97333" lon="8.77323">
        <ele>637</ele>
        <time>2021-08-05T13:51:08.569Z</time>
      </trkpt>
      <trkpt lat="46.97332" lon="8.77325">
        <ele>637</ele>
        <time>2021-08-05T13:51:09.569Z</time>
      </trkpt>
      <trkpt lat="46.97331" lon="8.77326">
        <ele>637</ele>
        <time>2021-08-05T13:51:32.380Z</time>
      </trkpt>
      <trkpt lat="46.9733" lon="8.77327">
        <ele>637</ele>
        <time>2021-08-05T13:51:33.381Z</time>
      </trkpt>
      <trkpt lat="46.97329" lon="8.77327">
        <ele>637</ele>
        <time>2021-08-05T13:51:37.223Z</time>
      </trkpt>
      <trkpt lat="46.97328" lon="8.77328">
        <ele>636</ele>
        <time>2021-08-05T13:51:38.223Z</time>
      </trkpt>
      <trkpt lat="46.97327" lon="8.77329">
        <ele>636</ele>
        <time>2021-08-05T13:51:39.224Z</time>
      </trkpt>
      <trkpt lat="46.97326" lon="8.7733">
        <ele>635</ele>
        <time>2021-08-05T13:51:40.223Z</time>
      </trkpt>
      <trkpt lat="46.97325" lon="8.77331">
        <ele>635</ele>
        <time>2021-08-05T13:51:41.224Z</time>
      </trkpt>
      <trkpt lat="46.97325" lon="8.77334">
        <ele>635</ele>
        <time>2021-08-05T13:51:42.223Z</time>
      </trkpt>
      <trkpt lat="46.97324" lon="8.77335">
        <ele>635</ele>
        <time>2021-08-05T13:51:43.223Z</time>
      </trkpt>
      <trkpt lat="46.97323" lon="8.77335">
        <ele>635</ele>
        <time>2021-08-05T13:51:44.224Z</time>
      </trkpt>
      <trkpt lat="46.97322" lon="8.77336">
        <ele>634</ele>
        <time>2021-08-05T13:51:45.223Z</time>
      </trkpt>
      <trkpt lat="46.97321" lon="8.77338">
        <ele>634</ele>
        <time>2021-08-05T13:51:46.224Z</time>
      </trkpt>
      <trkpt lat="46.9732" lon="8.77339">
        <ele>633</ele>
        <time>2021-08-05T13:51:47.224Z</time>
      </trkpt>
      <trkpt lat="46.97319" lon="8.77339">
        <ele>632</ele>
        <time>2021-08-05T13:51:48.223Z</time>
      </trkpt>
      <trkpt lat="46.97318" lon="8.7734">
        <ele>632</ele>
        <time>2021-08-05T13:51:49.224Z</time>
      </trkpt>
      <trkpt lat="46.97318" lon="8.77341">
        <ele>632</ele>
        <time>2021-08-05T13:51:50.224Z</time>
      </trkpt>
      <trkpt lat="46.97316" lon="8.77341">
        <ele>631</ele>
        <time>2021-08-05T13:51:51.224Z</time>
      </trkpt>
      <trkpt lat="46.97315" lon="8.77342">
        <ele>631</ele>
        <time>2021-08-05T13:51:52.224Z</time>
      </trkpt>
      <trkpt lat="46.97314" lon="8.77343">
        <ele>630</ele>
        <time>2021-08-05T13:51:53.224Z</time>
      </trkpt>
      <trkpt lat="46.97313" lon="8.77344">
        <ele>631</ele>
        <time>2021-08-05T13:51:54.224Z</time>
      </trkpt>
      <trkpt lat="46.97312" lon="8.77345">
        <ele>631</ele>
        <time>2021-08-05T13:51:55.224Z</time>
      </trkpt>
      <trkpt lat="46.97311" lon="8.77346">
        <ele>632</ele>
        <time>2021-08-05T13:51:56.224Z</time>
      </trkpt>
      <trkpt lat="46.97311" lon="8.77348">
        <ele>633</ele>
        <time>2021-08-05T13:51:57.224Z</time>
      </trkpt>
      <trkpt lat="46.9731" lon="8.77349">
        <ele>633</ele>
        <time>2021-08-05T13:51:58.224Z</time>
      </trkpt>
      <trkpt lat="46.9731" lon="8.7735">
        <ele>634</ele>
        <time>2021-08-05T13:51:59.224Z</time>
      </trkpt>
      <trkpt lat="46.97309" lon="8.77351">
        <ele>634</ele>
        <time>2021-08-05T13:52:00.224Z</time>
      </trkpt>
      <trkpt lat="46.97309" lon="8.77352">
        <ele>635</ele>
        <time>2021-08-05T13:52:01.224Z</time>
      </trkpt>
      <trkpt lat="46.97309" lon="8.77353">
        <ele>635</ele>
        <time>2021-08-05T13:52:02.223Z</time>
      </trkpt>
      <trkpt lat="46.97309" lon="8.77355">
        <ele>636</ele>
        <time>2021-08-05T13:52:03.224Z</time>
      </trkpt>
      <trkpt lat="46.97309" lon="8.77357">
        <ele>636</ele>
        <time>2021-08-05T13:52:04.224Z</time>
      </trkpt>
      <trkpt lat="46.97309" lon="8.77359">
        <ele>636</ele>
        <time>2021-08-05T13:52:05.223Z</time>
      </trkpt>
      <trkpt lat="46.97309" lon="8.7736">
        <ele>637</ele>
        <time>2021-08-05T13:52:06.223Z</time>
      </trkpt>
      <trkpt lat="46.9731" lon="8.77362">
        <ele>637</ele>
        <time>2021-08-05T13:52:07.224Z</time>
      </trkpt>
      <trkpt lat="46.9731" lon="8.77364">
        <ele>638</ele>
        <time>2021-08-05T13:52:08.224Z</time>
      </trkpt>
      <trkpt lat="46.9731" lon="8.77365">
        <ele>638</ele>
        <time>2021-08-05T13:52:11.215Z</time>
      </trkpt>
      <trkpt lat="46.9731" lon="8.77367">
        <ele>638</ele>
        <time>2021-08-05T13:52:12.215Z</time>
      </trkpt>
      <trkpt lat="46.9731" lon="8.77368">
        <ele>638</ele>
        <time>2021-08-05T13:52:13.215Z</time>
      </trkpt>
      <trkpt lat="46.9731" lon="8.7737">
        <ele>638</ele>
        <time>2021-08-05T13:52:14.214Z</time>
      </trkpt>
      <trkpt lat="46.97309" lon="8.77371">
        <ele>638</ele>
        <time>2021-08-05T13:52:15.215Z</time>
      </trkpt>
      <trkpt lat="46.97309" lon="8.77373">
        <ele>638</ele>
        <time>2021-08-05T13:52:16.215Z</time>
      </trkpt>
      <trkpt lat="46.97308" lon="8.77375">
        <ele>638</ele>
        <time>2021-08-05T13:52:17.215Z</time>
      </trkpt>
      <trkpt lat="46.97308" lon="8.77376">
        <ele>638</ele>
        <time>2021-08-05T13:52:18.214Z</time>
      </trkpt>
      <trkpt lat="46.97307" lon="8.77377">
        <ele>638</ele>
        <time>2021-08-05T13:52:19.214Z</time>
      </trkpt>
      <trkpt lat="46.97307" lon="8.77378">
        <ele>638</ele>
        <time>2021-08-05T13:52:20.215Z</time>
      </trkpt>
      <trkpt lat="46.97306" lon="8.77379">
        <ele>638</ele>
        <time>2021-08-05T13:52:21.214Z</time>
      </trkpt>
      <trkpt lat="46.97306" lon="8.77381">
        <ele>638</ele>
        <time>2021-08-05T13:52:22.215Z</time>
      </trkpt>
      <trkpt lat="46.97305" lon="8.77382">
        <ele>638</ele>
        <time>2021-08-05T13:52:23.215Z</time>
      </trkpt>
      <trkpt lat="46.97304" lon="8.77383">
        <ele>638</ele>
        <time>2021-08-05T13:52:24.214Z</time>
      </trkpt>
      <trkpt lat="46.97304" lon="8.77384">
        <ele>638</ele>
        <time>2021-08-05T13:52:25.214Z</time>
      </trkpt>
      <trkpt lat="46.97303" lon="8.77385">
        <ele>638</ele>
        <time>2021-08-05T13:52:26.214Z</time>
      </trkpt>
      <trkpt lat="46.97302" lon="8.77386">
        <ele>638</ele>
        <time>2021-08-05T13:52:27.215Z</time>
      </trkpt>
      <trkpt lat="46.97301" lon="8.77386">
        <ele>638</ele>
        <time>2021-08-05T13:52:28.215Z</time>
      </trkpt>
      <trkpt lat="46.973" lon="8.77386">
        <ele>638</ele>
        <time>2021-08-05T13:52:29.214Z</time>
      </trkpt>
      <trkpt lat="46.97299" lon="8.77387">
        <ele>637</ele>
        <time>2021-08-05T13:52:30.215Z</time>
      </trkpt>
      <trkpt lat="46.97297" lon="8.77387">
        <ele>637</ele>
        <time>2021-08-05T13:52:31.215Z</time>
      </trkpt>
      <trkpt lat="46.97295" lon="8.77386">
        <ele>638</ele>
        <time>2021-08-05T13:52:32.214Z</time>
      </trkpt>
      <trkpt lat="46.97294" lon="8.77385">
        <ele>638</ele>
        <time>2021-08-05T13:52:33.215Z</time>
      </trkpt>
      <trkpt lat="46.97292" lon="8.77384">
        <ele>638</ele>
        <time>2021-08-05T13:52:34.214Z</time>
      </trkpt>
      <trkpt lat="46.97291" lon="8.77385">
        <ele>639</ele>
        <time>2021-08-05T13:52:35.215Z</time>
      </trkpt>
      <trkpt lat="46.9729" lon="8.77387">
        <ele>639</ele>
        <time>2021-08-05T13:52:36.214Z</time>
      </trkpt>
      <trkpt lat="46.9729" lon="8.77388">
        <ele>638</ele>
        <time>2021-08-05T13:52:37.214Z</time>
      </trkpt>
      <trkpt lat="46.97289" lon="8.77388">
        <ele>638</ele>
        <time>2021-08-05T13:52:38.215Z</time>
      </trkpt>
      <trkpt lat="46.97287" lon="8.7739">
        <ele>638</ele>
        <time>2021-08-05T13:52:39.214Z</time>
      </trkpt>
      <trkpt lat="46.97286" lon="8.77391">
        <ele>639</ele>
        <time>2021-08-05T13:52:40.214Z</time>
      </trkpt>
      <trkpt lat="46.97285" lon="8.77392">
        <ele>638</ele>
        <time>2021-08-05T13:52:41.215Z</time>
      </trkpt>
      <trkpt lat="46.97285" lon="8.77394">
        <ele>637</ele>
        <time>2021-08-05T13:52:42.215Z</time>
      </trkpt>
      <trkpt lat="46.97284" lon="8.77395">
        <ele>636</ele>
        <time>2021-08-05T13:52:43.215Z</time>
      </trkpt>
      <trkpt lat="46.97283" lon="8.77397">
        <ele>636</ele>
        <time>2021-08-05T13:52:44.215Z</time>
      </trkpt>
      <trkpt lat="46.97282" lon="8.77398">
        <ele>635</ele>
        <time>2021-08-05T13:52:45.214Z</time>
      </trkpt>
      <trkpt lat="46.97282" lon="8.77399">
        <ele>634</ele>
        <time>2021-08-05T13:52:46.215Z</time>
      </trkpt>
      <trkpt lat="46.97281" lon="8.774">
        <ele>634</ele>
        <time>2021-08-05T13:52:47.215Z</time>
      </trkpt>
      <trkpt lat="46.97281" lon="8.77402">
        <ele>633</ele>
        <time>2021-08-05T13:52:48.215Z</time>
      </trkpt>
      <trkpt lat="46.97281" lon="8.77404">
        <ele>633</ele>
        <time>2021-08-05T13:52:49.215Z</time>
      </trkpt>
      <trkpt lat="46.97281" lon="8.77404">
        <ele>632</ele>
        <time>2021-08-05T13:52:50.215Z</time>
      </trkpt>
      <trkpt lat="46.97281" lon="8.77405">
        <ele>632</ele>
        <time>2021-08-05T13:52:51.215Z</time>
      </trkpt>
      <trkpt lat="46.97284" lon="8.77407">
        <ele>637</ele>
        <time>2021-08-05T13:52:52.215Z</time>
      </trkpt>
      <trkpt lat="46.97284" lon="8.77407">
        <ele>637</ele>
        <time>2021-08-05T13:52:53.215Z</time>
      </trkpt>
      <trkpt lat="46.97285" lon="8.77406">
        <ele>638</ele>
        <time>2021-08-05T13:52:54.214Z</time>
      </trkpt>
      <trkpt lat="46.97289" lon="8.77407">
        <ele>641</ele>
        <time>2021-08-05T13:52:55.214Z</time>
      </trkpt>
      <trkpt lat="46.97289" lon="8.77406">
        <ele>641</ele>
        <time>2021-08-05T13:52:56.215Z</time>
      </trkpt>
      <trkpt lat="46.97291" lon="8.77404">
        <ele>641</ele>
        <time>2021-08-05T13:52:57.214Z</time>
      </trkpt>
      <trkpt lat="46.97292" lon="8.77403">
        <ele>640</ele>
        <time>2021-08-05T13:52:58.215Z</time>
      </trkpt>
      <trkpt lat="46.97293" lon="8.77402">
        <ele>640</ele>
        <time>2021-08-05T13:52:59.215Z</time>
      </trkpt>
      <trkpt lat="46.97294" lon="8.77401">
        <ele>639</ele>
        <time>2021-08-05T13:53:00.214Z</time>
      </trkpt>
      <trkpt lat="46.97294" lon="8.77399">
        <ele>638</ele>
        <time>2021-08-05T13:53:01.215Z</time>
      </trkpt>
      <trkpt lat="46.97294" lon="8.77398">
        <ele>638</ele>
        <time>2021-08-05T13:53:02.214Z</time>
      </trkpt>
      <trkpt lat="46.97294" lon="8.77397">
        <ele>637</ele>
        <time>2021-08-05T13:53:03.215Z</time>
      </trkpt>
      <trkpt lat="46.97294" lon="8.77395">
        <ele>637</ele>
        <time>2021-08-05T13:53:04.215Z</time>
      </trkpt>
      <trkpt lat="46.97294" lon="8.77395">
        <ele>636</ele>
        <time>2021-08-05T13:53:05.215Z</time>
      </trkpt>
      <trkpt lat="46.97294" lon="8.77394">
        <ele>636</ele>
        <time>2021-08-05T13:53:06.215Z</time>
      </trkpt>
      <trkpt lat="46.97295" lon="8.77394">
        <ele>636</ele>
        <time>2021-08-05T13:53:07.214Z</time>
      </trkpt>
      <trkpt lat="46.97296" lon="8.77393">
        <ele>635</ele>
        <time>2021-08-05T13:53:08.214Z</time>
      </trkpt>
      <trkpt lat="46.97297" lon="8.77394">
        <ele>635</ele>
        <time>2021-08-05T13:53:09.214Z</time>
      </trkpt>
      <trkpt lat="46.97298" lon="8.77393">
        <ele>635</ele>
        <time>2021-08-05T13:53:10.214Z</time>
      </trkpt>
      <trkpt lat="46.97299" lon="8.77392">
        <ele>635</ele>
        <time>2021-08-05T13:53:11.215Z</time>
      </trkpt>
      <trkpt lat="46.97299" lon="8.77391">
        <ele>634</ele>
        <time>2021-08-05T13:53:12.215Z</time>
      </trkpt>
      <trkpt lat="46.973" lon="8.77391">
        <ele>634</ele>
        <time>2021-08-05T13:53:13.214Z</time>
      </trkpt>
      <trkpt lat="46.97301" lon="8.77391">
        <ele>634</ele>
        <time>2021-08-05T13:53:14.215Z</time>
      </trkpt>
      <trkpt lat="46.97303" lon="8.77392">
        <ele>634</ele>
        <time>2021-08-05T13:53:15.214Z</time>
      </trkpt>
      <trkpt lat="46.97305" lon="8.77393">
        <ele>634</ele>
        <time>2021-08-05T13:53:16.215Z</time>
      </trkpt>
      <trkpt lat="46.97306" lon="8.77395">
        <ele>633</ele>
        <time>2021-08-05T13:53:17.214Z</time>
      </trkpt>
      <trkpt lat="46.97308" lon="8.77396">
        <ele>633</ele>
        <time>2021-08-05T13:53:18.215Z</time>
      </trkpt>
      <trkpt lat="46.97309" lon="8.77398">
        <ele>632</ele>
        <time>2021-08-05T13:53:19.215Z</time>
      </trkpt>
      <trkpt lat="46.97309" lon="8.77399">
        <ele>632</ele>
        <time>2021-08-05T13:53:20.214Z</time>
      </trkpt>
      <trkpt lat="46.97309" lon="8.774">
        <ele>632</ele>
        <time>2021-08-05T13:53:21.214Z</time>
      </trkpt>
      <trkpt lat="46.9731" lon="8.77401">
        <ele>631</ele>
        <time>2021-08-05T13:53:22.215Z</time>
      </trkpt>
      <trkpt lat="46.9731" lon="8.77401">
        <ele>631</ele>
        <time>2021-08-05T13:53:23.215Z</time>
      </trkpt>
      <trkpt lat="46.9731" lon="8.77402">
        <ele>631</ele>
        <time>2021-08-05T13:53:24.215Z</time>
      </trkpt>
      <trkpt lat="46.9731" lon="8.77403">
        <ele>630</ele>
        <time>2021-08-05T13:53:25.214Z</time>
      </trkpt>
      <trkpt lat="46.9731" lon="8.77405">
        <ele>630</ele>
        <time>2021-08-05T13:53:26.214Z</time>
      </trkpt>
      <trkpt lat="46.9731" lon="8.77406">
        <ele>630</ele>
        <time>2021-08-05T13:53:27.215Z</time>
      </trkpt>
      <trkpt lat="46.97311" lon="8.77406">
        <ele>630</ele>
        <time>2021-08-05T13:53:28.214Z</time>
      </trkpt>
      <trkpt lat="46.97312" lon="8.77408">
        <ele>630</ele>
        <time>2021-08-05T13:53:29.215Z</time>
      </trkpt>
      <trkpt lat="46.97312" lon="8.7741">
        <ele>630</ele>
        <time>2021-08-05T13:53:30.215Z</time>
      </trkpt>
      <trkpt lat="46.97312" lon="8.77412">
        <ele>630</ele>
        <time>2021-08-05T13:53:31.215Z</time>
      </trkpt>
      <trkpt lat="46.97312" lon="8.77413">
        <ele>630</ele>
        <time>2021-08-05T13:53:32.214Z</time>
      </trkpt>
      <trkpt lat="46.97313" lon="8.77414">
        <ele>630</ele>
        <time>2021-08-05T13:53:33.214Z</time>
      </trkpt>
      <trkpt lat="46.97313" lon="8.77414">
        <ele>630</ele>
        <time>2021-08-05T13:53:34.214Z</time>
      </trkpt>
      <trkpt lat="46.97314" lon="8.77415">
        <ele>631</ele>
        <time>2021-08-05T13:53:35.215Z</time>
      </trkpt>
      <trkpt lat="46.97316" lon="8.77417">
        <ele>631</ele>
        <time>2021-08-05T13:53:36.214Z</time>
      </trkpt>
      <trkpt lat="46.97317" lon="8.77418">
        <ele>631</ele>
        <time>2021-08-05T13:53:37.215Z</time>
      </trkpt>
      <trkpt lat="46.97317" lon="8.7742">
        <ele>631</ele>
        <time>2021-08-05T13:53:38.215Z</time>
      </trkpt>
      <trkpt lat="46.97317" lon="8.77421">
        <ele>632</ele>
        <time>2021-08-05T13:53:39.215Z</time>
      </trkpt>
      <trkpt lat="46.97316" lon="8.77422">
        <ele>632</ele>
        <time>2021-08-05T13:53:40.214Z</time>
      </trkpt>
      <trkpt lat="46.97316" lon="8.77422">
        <ele>632</ele>
        <time>2021-08-05T13:53:41.215Z</time>
      </trkpt>
      <trkpt lat="46.97316" lon="8.77422">
        <ele>633</ele>
        <time>2021-08-05T13:53:42.214Z</time>
      </trkpt>
      <trkpt lat="46.97317" lon="8.77423">
        <ele>633</ele>
        <time>2021-08-05T13:53:43.215Z</time>
      </trkpt>
      <trkpt lat="46.9732" lon="8.77423">
        <ele>635</ele>
        <time>2021-08-05T13:53:44.216Z</time>
      </trkpt>
      <trkpt lat="46.97319" lon="8.77423">
        <ele>635</ele>
        <time>2021-08-05T13:53:45.216Z</time>
      </trkpt>
      <trkpt lat="46.97319" lon="8.77423">
        <ele>634</ele>
        <time>2021-08-05T13:53:46.215Z</time>
      </trkpt>
      <trkpt lat="46.97321" lon="8.77423">
        <ele>634</ele>
        <time>2021-08-05T13:53:47.216Z</time>
      </trkpt>
      <trkpt lat="46.97322" lon="8.77423">
        <ele>634</ele>
        <time>2021-08-05T13:53:48.216Z</time>
      </trkpt>
      <trkpt lat="46.97322" lon="8.77424">
        <ele>634</ele>
        <time>2021-08-05T13:53:49.215Z</time>
      </trkpt>
      <trkpt lat="46.97322" lon="8.77424">
        <ele>633</ele>
        <time>2021-08-05T13:53:50.216Z</time>
      </trkpt>
      <trkpt lat="46.97322" lon="8.77424">
        <ele>633</ele>
        <time>2021-08-05T13:53:51.216Z</time>
      </trkpt>
      <trkpt lat="46.97322" lon="8.77425">
        <ele>633</ele>
        <time>2021-08-05T13:53:52.215Z</time>
      </trkpt>
      <trkpt lat="46.97322" lon="8.77426">
        <ele>632</ele>
        <time>2021-08-05T13:53:53.215Z</time>
      </trkpt>
      <trkpt lat="46.97322" lon="8.77426">
        <ele>632</ele>
        <time>2021-08-05T13:53:54.216Z</time>
      </trkpt>
      <trkpt lat="46.97322" lon="8.77427">
        <ele>632</ele>
        <time>2021-08-05T13:53:55.216Z</time>
      </trkpt>
      <trkpt lat="46.97321" lon="8.77428">
        <ele>631</ele>
        <time>2021-08-05T13:53:56.216Z</time>
      </trkpt>
      <trkpt lat="46.97321" lon="8.77429">
        <ele>631</ele>
        <time>2021-08-05T13:53:57.216Z</time>
      </trkpt>
      <trkpt lat="46.97322" lon="8.7743">
        <ele>630</ele>
        <time>2021-08-05T13:53:58.216Z</time>
      </trkpt>
      <trkpt lat="46.97322" lon="8.77431">
        <ele>629</ele>
        <time>2021-08-05T13:53:59.216Z</time>
      </trkpt>
      <trkpt lat="46.97323" lon="8.77432">
        <ele>629</ele>
        <time>2021-08-05T13:54:00.216Z</time>
      </trkpt>
      <trkpt lat="46.97324" lon="8.77433">
        <ele>629</ele>
        <time>2021-08-05T13:54:01.215Z</time>
      </trkpt>
      <trkpt lat="46.97325" lon="8.77434">
        <ele>628</ele>
        <time>2021-08-05T13:54:02.216Z</time>
      </trkpt>
      <trkpt lat="46.97325" lon="8.77434">
        <ele>628</ele>
        <time>2021-08-05T13:54:03.216Z</time>
      </trkpt>
      <trkpt lat="46.97326" lon="8.77434">
        <ele>628</ele>
        <time>2021-08-05T13:54:04.215Z</time>
      </trkpt>
      <trkpt lat="46.97327" lon="8.77435">
        <ele>628</ele>
        <time>2021-08-05T13:54:05.216Z</time>
      </trkpt>
      <trkpt lat="46.97328" lon="8.77435">
        <ele>628</ele>
        <time>2021-08-05T13:54:06.215Z</time>
      </trkpt>
      <trkpt lat="46.97329" lon="8.77435">
        <ele>628</ele>
        <time>2021-08-05T13:54:07.216Z</time>
      </trkpt>
      <trkpt lat="46.9733" lon="8.77435">
        <ele>628</ele>
        <time>2021-08-05T13:54:08.216Z</time>
      </trkpt>
      <trkpt lat="46.97331" lon="8.77435">
        <ele>628</ele>
        <time>2021-08-05T13:54:09.216Z</time>
      </trkpt>
      <trkpt lat="46.97331" lon="8.77435">
        <ele>628</ele>
        <time>2021-08-05T13:54:10.216Z</time>
      </trkpt>
      <trkpt lat="46.97332" lon="8.77435">
        <ele>628</ele>
        <time>2021-08-05T13:54:11.216Z</time>
      </trkpt>
      <trkpt lat="46.97334" lon="8.77435">
        <ele>628</ele>
        <time>2021-08-05T13:54:12.215Z</time>
      </trkpt>
      <trkpt lat="46.97335" lon="8.77435">
        <ele>628</ele>
        <time>2021-08-05T13:54:13.216Z</time>
      </trkpt>
      <trkpt lat="46.97336" lon="8.77435">
        <ele>628</ele>
        <time>2021-08-05T13:54:14.216Z</time>
      </trkpt>
      <trkpt lat="46.97336" lon="8.77434">
        <ele>628</ele>
        <time>2021-08-05T13:54:15.215Z</time>
      </trkpt>
      <trkpt lat="46.97337" lon="8.77434">
        <ele>628</ele>
        <time>2021-08-05T13:54:16.216Z</time>
      </trkpt>
      <trkpt lat="46.97338" lon="8.77435">
        <ele>628</ele>
        <time>2021-08-05T13:54:17.216Z</time>
      </trkpt>
      <trkpt lat="46.97339" lon="8.77435">
        <ele>628</ele>
        <time>2021-08-05T13:54:18.216Z</time>
      </trkpt>
      <trkpt lat="46.97339" lon="8.77437">
        <ele>628</ele>
        <time>2021-08-05T13:54:19.216Z</time>
      </trkpt>
      <trkpt lat="46.97339" lon="8.77438">
        <ele>628</ele>
        <time>2021-08-05T13:54:20.215Z</time>
      </trkpt>
      <trkpt lat="46.97338" lon="8.77439">
        <ele>627</ele>
        <time>2021-08-05T13:54:21.216Z</time>
      </trkpt>
      <trkpt lat="46.97338" lon="8.7744">
        <ele>627</ele>
        <time>2021-08-05T13:54:22.215Z</time>
      </trkpt>
      <trkpt lat="46.97338" lon="8.77441">
        <ele>626</ele>
        <time>2021-08-05T13:54:23.215Z</time>
      </trkpt>
      <trkpt lat="46.97338" lon="8.77443">
        <ele>626</ele>
        <time>2021-08-05T13:54:24.216Z</time>
      </trkpt>
      <trkpt lat="46.97339" lon="8.77444">
        <ele>625</ele>
        <time>2021-08-05T13:54:25.216Z</time>
      </trkpt>
      <trkpt lat="46.97339" lon="8.77446">
        <ele>625</ele>
        <time>2021-08-05T13:54:26.215Z</time>
      </trkpt>
      <trkpt lat="46.97339" lon="8.77448">
        <ele>625</ele>
        <time>2021-08-05T13:54:27.216Z</time>
      </trkpt>
      <trkpt lat="46.97339" lon="8.77449">
        <ele>625</ele>
        <time>2021-08-05T13:54:28.216Z</time>
      </trkpt>
      <trkpt lat="46.9734" lon="8.77451">
        <ele>625</ele>
        <time>2021-08-05T13:54:29.216Z</time>
      </trkpt>
      <trkpt lat="46.9734" lon="8.77453">
        <ele>626</ele>
        <time>2021-08-05T13:54:30.216Z</time>
      </trkpt>
      <trkpt lat="46.97341" lon="8.77455">
        <ele>626</ele>
        <time>2021-08-05T13:54:31.216Z</time>
      </trkpt>
      <trkpt lat="46.97341" lon="8.77456">
        <ele>626</ele>
        <time>2021-08-05T13:54:32.216Z</time>
      </trkpt>
      <trkpt lat="46.97342" lon="8.77458">
        <ele>626</ele>
        <time>2021-08-05T13:54:33.216Z</time>
      </trkpt>
      <trkpt lat="46.97342" lon="8.7746">
        <ele>627</ele>
        <time>2021-08-05T13:54:34.216Z</time>
      </trkpt>
      <trkpt lat="46.97342" lon="8.77461">
        <ele>627</ele>
        <time>2021-08-05T13:54:35.215Z</time>
      </trkpt>
      <trkpt lat="46.97343" lon="8.77463">
        <ele>627</ele>
        <time>2021-08-05T13:54:36.216Z</time>
      </trkpt>
      <trkpt lat="46.97343" lon="8.77464">
        <ele>627</ele>
        <time>2021-08-05T13:54:37.216Z</time>
      </trkpt>
      <trkpt lat="46.97344" lon="8.77465">
        <ele>626</ele>
        <time>2021-08-05T13:54:38.216Z</time>
      </trkpt>
      <trkpt lat="46.97344" lon="8.77467">
        <ele>626</ele>
        <time>2021-08-05T13:54:39.216Z</time>
      </trkpt>
      <trkpt lat="46.97344" lon="8.77468">
        <ele>626</ele>
        <time>2021-08-05T13:54:40.216Z</time>
      </trkpt>
      <trkpt lat="46.97344" lon="8.7747">
        <ele>626</ele>
        <time>2021-08-05T13:54:41.216Z</time>
      </trkpt>
      <trkpt lat="46.97345" lon="8.77471">
        <ele>626</ele>
        <time>2021-08-05T13:54:42.216Z</time>
      </trkpt>
      <trkpt lat="46.97345" lon="8.77473">
        <ele>626</ele>
        <time>2021-08-05T13:54:43.215Z</time>
      </trkpt>
      <trkpt lat="46.97345" lon="8.77475">
        <ele>626</ele>
        <time>2021-08-05T13:54:44.215Z</time>
      </trkpt>
      <trkpt lat="46.97345" lon="8.77477">
        <ele>627</ele>
        <time>2021-08-05T13:54:45.216Z</time>
      </trkpt>
      <trkpt lat="46.97346" lon="8.77478">
        <ele>626</ele>
        <time>2021-08-05T13:54:46.216Z</time>
      </trkpt>
      <trkpt lat="46.97346" lon="8.7748">
        <ele>626</ele>
        <time>2021-08-05T13:54:47.215Z</time>
      </trkpt>
      <trkpt lat="46.97346" lon="8.77482">
        <ele>626</ele>
        <time>2021-08-05T13:54:48.215Z</time>
      </trkpt>
      <trkpt lat="46.97347" lon="8.77484">
        <ele>626</ele>
        <time>2021-08-05T13:54:49.216Z</time>
      </trkpt>
      <trkpt lat="46.97347" lon="8.77485">
        <ele>626</ele>
        <time>2021-08-05T13:54:50.215Z</time>
      </trkpt>
      <trkpt lat="46.97347" lon="8.77487">
        <ele>626</ele>
        <time>2021-08-05T13:54:51.216Z</time>
      </trkpt>
      <trkpt lat="46.97347" lon="8.77489">
        <ele>625</ele>
        <time>2021-08-05T13:54:52.216Z</time>
      </trkpt>
      <trkpt lat="46.97348" lon="8.7749">
        <ele>625</ele>
        <time>2021-08-05T13:54:53.216Z</time>
      </trkpt>
      <trkpt lat="46.97348" lon="8.77492">
        <ele>625</ele>
        <time>2021-08-05T13:54:54.216Z</time>
      </trkpt>
      <trkpt lat="46.97349" lon="8.77494">
        <ele>626</ele>
        <time>2021-08-05T13:54:55.215Z</time>
      </trkpt>
      <trkpt lat="46.97349" lon="8.77496">
        <ele>625</ele>
        <time>2021-08-05T13:54:56.216Z</time>
      </trkpt>
      <trkpt lat="46.97349" lon="8.77497">
        <ele>625</ele>
        <time>2021-08-05T13:54:57.215Z</time>
      </trkpt>
      <trkpt lat="46.97349" lon="8.77499">
        <ele>625</ele>
        <time>2021-08-05T13:54:58.216Z</time>
      </trkpt>
      <trkpt lat="46.97349" lon="8.775">
        <ele>625</ele>
        <time>2021-08-05T13:54:59.216Z</time>
      </trkpt>
      <trkpt lat="46.9735" lon="8.77502">
        <ele>625</ele>
        <time>2021-08-05T13:55:00.216Z</time>
      </trkpt>
      <trkpt lat="46.9735" lon="8.77503">
        <ele>625</ele>
        <time>2021-08-05T13:55:01.215Z</time>
      </trkpt>
      <trkpt lat="46.9735" lon="8.77505">
        <ele>624</ele>
        <time>2021-08-05T13:55:02.216Z</time>
      </trkpt>
      <trkpt lat="46.97351" lon="8.77506">
        <ele>624</ele>
        <time>2021-08-05T13:55:03.216Z</time>
      </trkpt>
      <trkpt lat="46.97351" lon="8.77508">
        <ele>624</ele>
        <time>2021-08-05T13:55:04.215Z</time>
      </trkpt>
      <trkpt lat="46.97351" lon="8.7751">
        <ele>624</ele>
        <time>2021-08-05T13:55:05.216Z</time>
      </trkpt>
      <trkpt lat="46.97352" lon="8.77511">
        <ele>624</ele>
        <time>2021-08-05T13:55:06.215Z</time>
      </trkpt>
      <trkpt lat="46.97352" lon="8.77513">
        <ele>624</ele>
        <time>2021-08-05T13:55:07.216Z</time>
      </trkpt>
      <trkpt lat="46.97352" lon="8.77514">
        <ele>624</ele>
        <time>2021-08-05T13:55:08.216Z</time>
      </trkpt>
      <trkpt lat="46.97352" lon="8.77515">
        <ele>624</ele>
        <time>2021-08-05T13:55:09.216Z</time>
      </trkpt>
      <trkpt lat="46.97352" lon="8.77517">
        <ele>624</ele>
        <time>2021-08-05T13:55:10.215Z</time>
      </trkpt>
      <trkpt lat="46.97352" lon="8.77519">
        <ele>624</ele>
        <time>2021-08-05T13:55:11.215Z</time>
      </trkpt>
      <trkpt lat="46.97353" lon="8.77521">
        <ele>624</ele>
        <time>2021-08-05T13:55:12.216Z</time>
      </trkpt>
      <trkpt lat="46.97353" lon="8.77522">
        <ele>624</ele>
        <time>2021-08-05T13:55:13.216Z</time>
      </trkpt>
      <trkpt lat="46.97354" lon="8.77524">
        <ele>624</ele>
        <time>2021-08-05T13:55:14.216Z</time>
      </trkpt>
      <trkpt lat="46.97354" lon="8.77527">
        <ele>625</ele>
        <time>2021-08-05T13:55:15.216Z</time>
      </trkpt>
      <trkpt lat="46.97354" lon="8.77528">
        <ele>625</ele>
        <time>2021-08-05T13:55:16.216Z</time>
      </trkpt>
      <trkpt lat="46.97354" lon="8.77532">
        <ele>625</ele>
        <time>2021-08-05T13:55:17.216Z</time>
      </trkpt>
      <trkpt lat="46.97354" lon="8.77535">
        <ele>625</ele>
        <time>2021-08-05T13:55:18.216Z</time>
      </trkpt>
      <trkpt lat="46.97353" lon="8.77538">
        <ele>626</ele>
        <time>2021-08-05T13:55:19.216Z</time>
      </trkpt>
      <trkpt lat="46.97354" lon="8.7754">
        <ele>626</ele>
        <time>2021-08-05T13:55:20.215Z</time>
      </trkpt>
      <trkpt lat="46.97354" lon="8.77542">
        <ele>626</ele>
        <time>2021-08-05T13:55:21.215Z</time>
      </trkpt>
      <trkpt lat="46.97354" lon="8.77544">
        <ele>627</ele>
        <time>2021-08-05T13:55:22.216Z</time>
      </trkpt>
      <trkpt lat="46.97355" lon="8.77546">
        <ele>627</ele>
        <time>2021-08-05T13:55:23.216Z</time>
      </trkpt>
      <trkpt lat="46.97355" lon="8.77547">
        <ele>627</ele>
        <time>2021-08-05T13:55:24.216Z</time>
      </trkpt>
      <trkpt lat="46.97355" lon="8.77549">
        <ele>626</ele>
        <time>2021-08-05T13:55:25.216Z</time>
      </trkpt>
      <trkpt lat="46.97355" lon="8.7755">
        <ele>626</ele>
        <time>2021-08-05T13:55:26.215Z</time>
      </trkpt>
      <trkpt lat="46.97355" lon="8.77552">
        <ele>626</ele>
        <time>2021-08-05T13:55:27.216Z</time>
      </trkpt>
      <trkpt lat="46.97356" lon="8.77554">
        <ele>626</ele>
        <time>2021-08-05T13:55:28.216Z</time>
      </trkpt>
      <trkpt lat="46.97356" lon="8.77555">
        <ele>626</ele>
        <time>2021-08-05T13:55:29.216Z</time>
      </trkpt>
      <trkpt lat="46.97356" lon="8.77556">
        <ele>625</ele>
        <time>2021-08-05T13:55:30.215Z</time>
      </trkpt>
      <trkpt lat="46.97357" lon="8.77557">
        <ele>625</ele>
        <time>2021-08-05T13:55:31.216Z</time>
      </trkpt>
      <trkpt lat="46.97357" lon="8.77559">
        <ele>625</ele>
        <time>2021-08-05T13:55:32.215Z</time>
      </trkpt>
      <trkpt lat="46.97358" lon="8.77561">
        <ele>624</ele>
        <time>2021-08-05T13:55:33.216Z</time>
      </trkpt>
      <trkpt lat="46.97358" lon="8.77562">
        <ele>625</ele>
        <time>2021-08-05T13:55:34.216Z</time>
      </trkpt>
      <trkpt lat="46.97359" lon="8.77564">
        <ele>625</ele>
        <time>2021-08-05T13:55:35.215Z</time>
      </trkpt>
      <trkpt lat="46.97359" lon="8.77565">
        <ele>625</ele>
        <time>2021-08-05T13:55:36.216Z</time>
      </trkpt>
      <trkpt lat="46.9736" lon="8.77567">
        <ele>626</ele>
        <time>2021-08-05T13:55:37.216Z</time>
      </trkpt>
      <trkpt lat="46.97361" lon="8.77568">
        <ele>626</ele>
        <time>2021-08-05T13:55:38.216Z</time>
      </trkpt>
      <trkpt lat="46.97361" lon="8.77569">
        <ele>626</ele>
        <time>2021-08-05T13:55:39.215Z</time>
      </trkpt>
      <trkpt lat="46.97362" lon="8.77571">
        <ele>626</ele>
        <time>2021-08-05T13:55:40.216Z</time>
      </trkpt>
      <trkpt lat="46.97363" lon="8.77573">
        <ele>626</ele>
        <time>2021-08-05T13:55:41.216Z</time>
      </trkpt>
      <trkpt lat="46.97364" lon="8.77575">
        <ele>626</ele>
        <time>2021-08-05T13:55:42.216Z</time>
      </trkpt>
      <trkpt lat="46.97364" lon="8.77576">
        <ele>626</ele>
        <time>2021-08-05T13:55:43.215Z</time>
      </trkpt>
      <trkpt lat="46.97365" lon="8.77577">
        <ele>626</ele>
        <time>2021-08-05T13:55:44.215Z</time>
      </trkpt>
      <trkpt lat="46.97364" lon="8.77579">
        <ele>626</ele>
        <time>2021-08-05T13:55:45.216Z</time>
      </trkpt>
      <trkpt lat="46.97365" lon="8.77581">
        <ele>626</ele>
        <time>2021-08-05T13:55:46.215Z</time>
      </trkpt>
      <trkpt lat="46.97365" lon="8.77583">
        <ele>626</ele>
        <time>2021-08-05T13:55:47.216Z</time>
      </trkpt>
      <trkpt lat="46.97365" lon="8.77585">
        <ele>625</ele>
        <time>2021-08-05T13:55:48.216Z</time>
      </trkpt>
      <trkpt lat="46.97365" lon="8.77586">
        <ele>625</ele>
        <time>2021-08-05T13:55:49.215Z</time>
      </trkpt>
      <trkpt lat="46.97365" lon="8.77588">
        <ele>625</ele>
        <time>2021-08-05T13:55:50.215Z</time>
      </trkpt>
      <trkpt lat="46.97366" lon="8.7759">
        <ele>625</ele>
        <time>2021-08-05T13:55:51.215Z</time>
      </trkpt>
      <trkpt lat="46.97365" lon="8.77593">
        <ele>625</ele>
        <time>2021-08-05T13:55:52.215Z</time>
      </trkpt>
      <trkpt lat="46.97365" lon="8.77595">
        <ele>625</ele>
        <time>2021-08-05T13:55:53.215Z</time>
      </trkpt>
      <trkpt lat="46.97364" lon="8.77597">
        <ele>625</ele>
        <time>2021-08-05T13:55:54.215Z</time>
      </trkpt>
      <trkpt lat="46.97364" lon="8.77599">
        <ele>625</ele>
        <time>2021-08-05T13:55:55.215Z</time>
      </trkpt>
      <trkpt lat="46.97363" lon="8.77601">
        <ele>625</ele>
        <time>2021-08-05T13:55:56.215Z</time>
      </trkpt>
      <trkpt lat="46.97363" lon="8.77602">
        <ele>625</ele>
        <time>2021-08-05T13:55:57.215Z</time>
      </trkpt>
      <trkpt lat="46.97363" lon="8.77603">
        <ele>624</ele>
        <time>2021-08-05T13:55:58.215Z</time>
      </trkpt>
      <trkpt lat="46.97363" lon="8.77605">
        <ele>624</ele>
        <time>2021-08-05T13:55:59.216Z</time>
      </trkpt>
      <trkpt lat="46.97363" lon="8.77606">
        <ele>624</ele>
        <time>2021-08-05T13:56:00.216Z</time>
      </trkpt>
      <trkpt lat="46.97364" lon="8.77608">
        <ele>624</ele>
        <time>2021-08-05T13:56:01.216Z</time>
      </trkpt>
      <trkpt lat="46.97364" lon="8.77609">
        <ele>624</ele>
        <time>2021-08-05T13:56:02.216Z</time>
      </trkpt>
      <trkpt lat="46.97364" lon="8.77612">
        <ele>624</ele>
        <time>2021-08-05T13:56:03.216Z</time>
      </trkpt>
      <trkpt lat="46.97364" lon="8.77614">
        <ele>624</ele>
        <time>2021-08-05T13:56:04.216Z</time>
      </trkpt>
      <trkpt lat="46.97364" lon="8.77616">
        <ele>623</ele>
        <time>2021-08-05T13:56:05.215Z</time>
      </trkpt>
      <trkpt lat="46.97363" lon="8.77618">
        <ele>623</ele>
        <time>2021-08-05T13:56:06.216Z</time>
      </trkpt>
      <trkpt lat="46.97363" lon="8.77619">
        <ele>623</ele>
        <time>2021-08-05T13:56:07.216Z</time>
      </trkpt>
      <trkpt lat="46.97364" lon="8.77621">
        <ele>623</ele>
        <time>2021-08-05T13:56:08.216Z</time>
      </trkpt>
      <trkpt lat="46.97364" lon="8.77622">
        <ele>623</ele>
        <time>2021-08-05T13:56:09.216Z</time>
      </trkpt>
      <trkpt lat="46.97364" lon="8.77624">
        <ele>623</ele>
        <time>2021-08-05T13:56:10.216Z</time>
      </trkpt>
      <trkpt lat="46.97364" lon="8.77625">
        <ele>624</ele>
        <time>2021-08-05T13:56:11.215Z</time>
      </trkpt>
      <trkpt lat="46.97364" lon="8.77627">
        <ele>624</ele>
        <time>2021-08-05T13:56:12.216Z</time>
      </trkpt>
      <trkpt lat="46.97364" lon="8.77627">
        <ele>624</ele>
        <time>2021-08-05T13:56:13.216Z</time>
      </trkpt>
      <trkpt lat="46.97364" lon="8.77629">
        <ele>624</ele>
        <time>2021-08-05T13:56:14.216Z</time>
      </trkpt>
      <trkpt lat="46.97364" lon="8.7763">
        <ele>624</ele>
        <time>2021-08-05T13:56:15.215Z</time>
      </trkpt>
      <trkpt lat="46.97364" lon="8.77632">
        <ele>623</ele>
        <time>2021-08-05T13:56:16.215Z</time>
      </trkpt>
      <trkpt lat="46.97364" lon="8.77634">
        <ele>623</ele>
        <time>2021-08-05T13:56:17.216Z</time>
      </trkpt>
      <trkpt lat="46.97363" lon="8.77635">
        <ele>622</ele>
        <time>2021-08-05T13:56:18.215Z</time>
      </trkpt>
      <trkpt lat="46.97364" lon="8.77637">
        <ele>622</ele>
        <time>2021-08-05T13:56:19.216Z</time>
      </trkpt>
      <trkpt lat="46.97364" lon="8.77638">
        <ele>621</ele>
        <time>2021-08-05T13:56:20.216Z</time>
      </trkpt>
      <trkpt lat="46.97364" lon="8.77639">
        <ele>621</ele>
        <time>2021-08-05T13:56:21.215Z</time>
      </trkpt>
      <trkpt lat="46.97363" lon="8.77641">
        <ele>621</ele>
        <time>2021-08-05T13:56:22.215Z</time>
      </trkpt>
      <trkpt lat="46.97363" lon="8.77643">
        <ele>620</ele>
        <time>2021-08-05T13:56:23.216Z</time>
      </trkpt>
      <trkpt lat="46.97363" lon="8.77644">
        <ele>620</ele>
        <time>2021-08-05T13:56:24.216Z</time>
      </trkpt>
      <trkpt lat="46.97363" lon="8.77646">
        <ele>620</ele>
        <time>2021-08-05T13:56:25.215Z</time>
      </trkpt>
      <trkpt lat="46.97363" lon="8.77647">
        <ele>621</ele>
        <time>2021-08-05T13:56:26.215Z</time>
      </trkpt>
      <trkpt lat="46.97362" lon="8.7765">
        <ele>621</ele>
        <time>2021-08-05T13:56:27.216Z</time>
      </trkpt>
      <trkpt lat="46.97362" lon="8.77651">
        <ele>621</ele>
        <time>2021-08-05T13:56:28.216Z</time>
      </trkpt>
      <trkpt lat="46.97362" lon="8.77653">
        <ele>621</ele>
        <time>2021-08-05T13:56:29.215Z</time>
      </trkpt>
      <trkpt lat="46.97362" lon="8.77654">
        <ele>622</ele>
        <time>2021-08-05T13:56:30.216Z</time>
      </trkpt>
      <trkpt lat="46.97362" lon="8.77656">
        <ele>622</ele>
        <time>2021-08-05T13:56:31.216Z</time>
      </trkpt>
      <trkpt lat="46.97362" lon="8.77658">
        <ele>622</ele>
        <time>2021-08-05T13:56:32.216Z</time>
      </trkpt>
      <trkpt lat="46.97361" lon="8.77661">
        <ele>623</ele>
        <time>2021-08-05T13:56:33.216Z</time>
      </trkpt>
      <trkpt lat="46.97361" lon="8.77662">
        <ele>623</ele>
        <time>2021-08-05T13:56:34.216Z</time>
      </trkpt>
      <trkpt lat="46.97361" lon="8.77664">
        <ele>623</ele>
        <time>2021-08-05T13:56:35.216Z</time>
      </trkpt>
      <trkpt lat="46.9736" lon="8.77665">
        <ele>623</ele>
        <time>2021-08-05T13:56:36.215Z</time>
      </trkpt>
      <trkpt lat="46.97359" lon="8.77666">
        <ele>624</ele>
        <time>2021-08-05T13:56:37.216Z</time>
      </trkpt>
      <trkpt lat="46.97358" lon="8.77668">
        <ele>624</ele>
        <time>2021-08-05T13:56:38.216Z</time>
      </trkpt>
      <trkpt lat="46.97359" lon="8.7767">
        <ele>624</ele>
        <time>2021-08-05T13:56:39.216Z</time>
      </trkpt>
      <trkpt lat="46.97358" lon="8.77672">
        <ele>625</ele>
        <time>2021-08-05T13:56:40.216Z</time>
      </trkpt>
      <trkpt lat="46.97357" lon="8.77674">
        <ele>625</ele>
        <time>2021-08-05T13:56:41.216Z</time>
      </trkpt>
      <trkpt lat="46.97357" lon="8.77676">
        <ele>624</ele>
        <time>2021-08-05T13:56:42.216Z</time>
      </trkpt>
      <trkpt lat="46.97357" lon="8.77678">
        <ele>624</ele>
        <time>2021-08-05T13:56:43.215Z</time>
      </trkpt>
      <trkpt lat="46.97356" lon="8.7768">
        <ele>624</ele>
        <time>2021-08-05T13:56:54.212Z</time>
      </trkpt>
      <trkpt lat="46.97356" lon="8.77682">
        <ele>625</ele>
        <time>2021-08-05T13:56:58.094Z</time>
      </trkpt>
      <trkpt lat="46.97356" lon="8.77683">
        <ele>625</ele>
        <time>2021-08-05T13:56:59.094Z</time>
      </trkpt>
      <trkpt lat="46.97355" lon="8.77685">
        <ele>625</ele>
        <time>2021-08-05T13:57:00.093Z</time>
      </trkpt>
      <trkpt lat="46.97355" lon="8.77686">
        <ele>626</ele>
        <time>2021-08-05T13:57:01.093Z</time>
      </trkpt>
      <trkpt lat="46.97354" lon="8.77688">
        <ele>626</ele>
        <time>2021-08-05T13:57:02.093Z</time>
      </trkpt>
      <trkpt lat="46.97354" lon="8.7769">
        <ele>626</ele>
        <time>2021-08-05T13:57:03.093Z</time>
      </trkpt>
      <trkpt lat="46.97354" lon="8.77692">
        <ele>626</ele>
        <time>2021-08-05T13:57:04.094Z</time>
      </trkpt>
      <trkpt lat="46.97353" lon="8.77693">
        <ele>626</ele>
        <time>2021-08-05T13:57:05.093Z</time>
      </trkpt>
      <trkpt lat="46.97353" lon="8.77695">
        <ele>626</ele>
        <time>2021-08-05T13:57:06.093Z</time>
      </trkpt>
      <trkpt lat="46.97353" lon="8.77697">
        <ele>626</ele>
        <time>2021-08-05T13:57:07.093Z</time>
      </trkpt>
      <trkpt lat="46.97353" lon="8.77699">
        <ele>625</ele>
        <time>2021-08-05T13:57:08.093Z</time>
      </trkpt>
      <trkpt lat="46.97352" lon="8.777">
        <ele>624</ele>
        <time>2021-08-05T13:57:09.094Z</time>
      </trkpt>
      <trkpt lat="46.97352" lon="8.77702">
        <ele>624</ele>
        <time>2021-08-05T13:57:10.093Z</time>
      </trkpt>
      <trkpt lat="46.97352" lon="8.77703">
        <ele>624</ele>
        <time>2021-08-05T13:57:11.093Z</time>
      </trkpt>
      <trkpt lat="46.97351" lon="8.77705">
        <ele>624</ele>
        <time>2021-08-05T13:57:12.093Z</time>
      </trkpt>
      <trkpt lat="46.97351" lon="8.77706">
        <ele>624</ele>
        <time>2021-08-05T13:57:13.093Z</time>
      </trkpt>
      <trkpt lat="46.97351" lon="8.77708">
        <ele>624</ele>
        <time>2021-08-05T13:57:14.093Z</time>
      </trkpt>
      <trkpt lat="46.97351" lon="8.77709">
        <ele>624</ele>
        <time>2021-08-05T13:57:15.093Z</time>
      </trkpt>
      <trkpt lat="46.9735" lon="8.77711">
        <ele>624</ele>
        <time>2021-08-05T13:57:16.093Z</time>
      </trkpt>
      <trkpt lat="46.97349" lon="8.77712">
        <ele>625</ele>
        <time>2021-08-05T13:57:17.093Z</time>
      </trkpt>
      <trkpt lat="46.97349" lon="8.77714">
        <ele>625</ele>
        <time>2021-08-05T13:57:18.093Z</time>
      </trkpt>
      <trkpt lat="46.97349" lon="8.77715">
        <ele>626</ele>
        <time>2021-08-05T13:57:19.093Z</time>
      </trkpt>
      <trkpt lat="46.97348" lon="8.77717">
        <ele>627</ele>
        <time>2021-08-05T13:57:26.210Z</time>
      </trkpt>
      <trkpt lat="46.97348" lon="8.77719">
        <ele>628</ele>
        <time>2021-08-05T13:57:40.117Z</time>
      </trkpt>
      <trkpt lat="46.97348" lon="8.7772">
        <ele>628</ele>
        <time>2021-08-05T13:57:41.965Z</time>
      </trkpt>
      <trkpt lat="46.97348" lon="8.77721">
        <ele>629</ele>
        <time>2021-08-05T13:57:42.965Z</time>
      </trkpt>
      <trkpt lat="46.97348" lon="8.77722">
        <ele>629</ele>
        <time>2021-08-05T13:57:43.966Z</time>
      </trkpt>
      <trkpt lat="46.97348" lon="8.77723">
        <ele>629</ele>
        <time>2021-08-05T13:57:44.965Z</time>
      </trkpt>
      <trkpt lat="46.97347" lon="8.77725">
        <ele>630</ele>
        <time>2021-08-05T13:57:45.965Z</time>
      </trkpt>
      <trkpt lat="46.97347" lon="8.77727">
        <ele>630</ele>
        <time>2021-08-05T13:57:46.965Z</time>
      </trkpt>
      <trkpt lat="46.97347" lon="8.77728">
        <ele>630</ele>
        <time>2021-08-05T13:57:47.966Z</time>
      </trkpt>
      <trkpt lat="46.97347" lon="8.77729">
        <ele>630</ele>
        <time>2021-08-05T13:57:48.966Z</time>
      </trkpt>
      <trkpt lat="46.97346" lon="8.77731">
        <ele>631</ele>
        <time>2021-08-05T13:57:49.966Z</time>
      </trkpt>
      <trkpt lat="46.97346" lon="8.77732">
        <ele>631</ele>
        <time>2021-08-05T13:57:50.965Z</time>
      </trkpt>
      <trkpt lat="46.97345" lon="8.77733">
        <ele>631</ele>
        <time>2021-08-05T13:57:51.965Z</time>
      </trkpt>
      <trkpt lat="46.97345" lon="8.77735">
        <ele>631</ele>
        <time>2021-08-05T13:57:52.965Z</time>
      </trkpt>
      <trkpt lat="46.97345" lon="8.77736">
        <ele>631</ele>
        <time>2021-08-05T13:57:53.965Z</time>
      </trkpt>
      <trkpt lat="46.97345" lon="8.77737">
        <ele>632</ele>
        <time>2021-08-05T13:57:54.966Z</time>
      </trkpt>
      <trkpt lat="46.97346" lon="8.7774">
        <ele>632</ele>
        <time>2021-08-05T13:57:55.966Z</time>
      </trkpt>
      <trkpt lat="46.97347" lon="8.77742">
        <ele>632</ele>
        <time>2021-08-05T13:57:56.966Z</time>
      </trkpt>
      <trkpt lat="46.97347" lon="8.77743">
        <ele>632</ele>
        <time>2021-08-05T13:57:57.966Z</time>
      </trkpt>
      <trkpt lat="46.97347" lon="8.77745">
        <ele>632</ele>
        <time>2021-08-05T13:57:58.965Z</time>
      </trkpt>
      <trkpt lat="46.97348" lon="8.77746">
        <ele>632</ele>
        <time>2021-08-05T13:57:59.965Z</time>
      </trkpt>
      <trkpt lat="46.97348" lon="8.77748">
        <ele>632</ele>
        <time>2021-08-05T13:58:00.966Z</time>
      </trkpt>
      <trkpt lat="46.97347" lon="8.77751">
        <ele>632</ele>
        <time>2021-08-05T13:58:01.965Z</time>
      </trkpt>
      <trkpt lat="46.97347" lon="8.77753">
        <ele>632</ele>
        <time>2021-08-05T13:58:02.966Z</time>
      </trkpt>
      <trkpt lat="46.97347" lon="8.77754">
        <ele>632</ele>
        <time>2021-08-05T13:58:03.966Z</time>
      </trkpt>
      <trkpt lat="46.97347" lon="8.77756">
        <ele>632</ele>
        <time>2021-08-05T13:58:04.965Z</time>
      </trkpt>
      <trkpt lat="46.97346" lon="8.77758">
        <ele>632</ele>
        <time>2021-08-05T13:58:05.966Z</time>
      </trkpt>
      <trkpt lat="46.97345" lon="8.77759">
        <ele>632</ele>
        <time>2021-08-05T13:58:06.966Z</time>
      </trkpt>
      <trkpt lat="46.97344" lon="8.77761">
        <ele>631</ele>
        <time>2021-08-05T13:58:07.966Z</time>
      </trkpt>
      <trkpt lat="46.97344" lon="8.77763">
        <ele>631</ele>
        <time>2021-08-05T13:58:08.966Z</time>
      </trkpt>
      <trkpt lat="46.97342" lon="8.77764">
        <ele>631</ele>
        <time>2021-08-05T13:58:09.966Z</time>
      </trkpt>
      <trkpt lat="46.97341" lon="8.77766">
        <ele>630</ele>
        <time>2021-08-05T13:58:10.966Z</time>
      </trkpt>
      <trkpt lat="46.97341" lon="8.77767">
        <ele>630</ele>
        <time>2021-08-05T13:58:11.966Z</time>
      </trkpt>
      <trkpt lat="46.97341" lon="8.77768">
        <ele>630</ele>
        <time>2021-08-05T13:58:12.966Z</time>
      </trkpt>
      <trkpt lat="46.97341" lon="8.77769">
        <ele>630</ele>
        <time>2021-08-05T13:58:13.966Z</time>
      </trkpt>
      <trkpt lat="46.9734" lon="8.77771">
        <ele>630</ele>
        <time>2021-08-05T13:58:14.966Z</time>
      </trkpt>
      <trkpt lat="46.97339" lon="8.77772">
        <ele>629</ele>
        <time>2021-08-05T13:58:15.965Z</time>
      </trkpt>
      <trkpt lat="46.97338" lon="8.77772">
        <ele>629</ele>
        <time>2021-08-05T13:58:16.966Z</time>
      </trkpt>
      <trkpt lat="46.97338" lon="8.77773">
        <ele>629</ele>
        <time>2021-08-05T13:58:17.965Z</time>
      </trkpt>
      <trkpt lat="46.97338" lon="8.77774">
        <ele>629</ele>
        <time>2021-08-05T13:58:18.965Z</time>
      </trkpt>
      <trkpt lat="46.97337" lon="8.77773">
        <ele>629</ele>
        <time>2021-08-05T13:58:19.965Z</time>
      </trkpt>
      <trkpt lat="46.97336" lon="8.77774">
        <ele>629</ele>
        <time>2021-08-05T13:58:20.966Z</time>
      </trkpt>
      <trkpt lat="46.97336" lon="8.77776">
        <ele>629</ele>
        <time>2021-08-05T13:58:21.966Z</time>
      </trkpt>
      <trkpt lat="46.97335" lon="8.77778">
        <ele>630</ele>
        <time>2021-08-05T13:58:22.966Z</time>
      </trkpt>
      <trkpt lat="46.97334" lon="8.77779">
        <ele>630</ele>
        <time>2021-08-05T13:58:23.966Z</time>
      </trkpt>
      <trkpt lat="46.97332" lon="8.7778">
        <ele>630</ele>
        <time>2021-08-05T13:58:24.965Z</time>
      </trkpt>
      <trkpt lat="46.9733" lon="8.77781">
        <ele>631</ele>
        <time>2021-08-05T13:58:25.966Z</time>
      </trkpt>
      <trkpt lat="46.97329" lon="8.77781">
        <ele>631</ele>
        <time>2021-08-05T13:58:26.966Z</time>
      </trkpt>
      <trkpt lat="46.97329" lon="8.77782">
        <ele>631</ele>
        <time>2021-08-05T13:58:27.966Z</time>
      </trkpt>
      <trkpt lat="46.97328" lon="8.77783">
        <ele>631</ele>
        <time>2021-08-05T13:58:28.966Z</time>
      </trkpt>
      <trkpt lat="46.97328" lon="8.77785">
        <ele>632</ele>
        <time>2021-08-05T13:58:29.966Z</time>
      </trkpt>
      <trkpt lat="46.97329" lon="8.77787">
        <ele>632</ele>
        <time>2021-08-05T13:58:30.966Z</time>
      </trkpt>
      <trkpt lat="46.9733" lon="8.77789">
        <ele>633</ele>
        <time>2021-08-05T13:58:31.965Z</time>
      </trkpt>
      <trkpt lat="46.9733" lon="8.77791">
        <ele>633</ele>
        <time>2021-08-05T13:58:32.965Z</time>
      </trkpt>
      <trkpt lat="46.97331" lon="8.77793">
        <ele>634</ele>
        <time>2021-08-05T13:58:33.965Z</time>
      </trkpt>
      <trkpt lat="46.97332" lon="8.77796">
        <ele>635</ele>
        <time>2021-08-05T13:58:34.966Z</time>
      </trkpt>
      <trkpt lat="46.97334" lon="8.77798">
        <ele>635</ele>
        <time>2021-08-05T13:58:35.966Z</time>
      </trkpt>
      <trkpt lat="46.97335" lon="8.778">
        <ele>636</ele>
        <time>2021-08-05T13:58:36.966Z</time>
      </trkpt>
      <trkpt lat="46.97335" lon="8.77801">
        <ele>636</ele>
        <time>2021-08-05T13:58:37.966Z</time>
      </trkpt>
      <trkpt lat="46.97335" lon="8.77802">
        <ele>637</ele>
        <time>2021-08-05T13:58:38.966Z</time>
      </trkpt>
      <trkpt lat="46.97334" lon="8.77804">
        <ele>637</ele>
        <time>2021-08-05T13:58:39.966Z</time>
      </trkpt>
      <trkpt lat="46.97334" lon="8.77805">
        <ele>638</ele>
        <time>2021-08-05T13:58:40.966Z</time>
      </trkpt>
      <trkpt lat="46.97333" lon="8.77806">
        <ele>638</ele>
        <time>2021-08-05T13:58:41.966Z</time>
      </trkpt>
      <trkpt lat="46.97333" lon="8.77806">
        <ele>639</ele>
        <time>2021-08-05T13:58:42.966Z</time>
      </trkpt>
      <trkpt lat="46.97333" lon="8.77808">
        <ele>639</ele>
        <time>2021-08-05T13:58:43.966Z</time>
      </trkpt>
      <trkpt lat="46.97334" lon="8.7781">
        <ele>639</ele>
        <time>2021-08-05T13:58:44.966Z</time>
      </trkpt>
      <trkpt lat="46.97335" lon="8.77812">
        <ele>639</ele>
        <time>2021-08-05T13:58:45.966Z</time>
      </trkpt>
      <trkpt lat="46.97336" lon="8.77813">
        <ele>639</ele>
        <time>2021-08-05T13:58:46.966Z</time>
      </trkpt>
      <trkpt lat="46.97335" lon="8.77815">
        <ele>640</ele>
        <time>2021-08-05T13:58:47.966Z</time>
      </trkpt>
      <trkpt lat="46.97335" lon="8.77816">
        <ele>639</ele>
        <time>2021-08-05T13:58:48.966Z</time>
      </trkpt>
      <trkpt lat="46.97334" lon="8.77817">
        <ele>639</ele>
        <time>2021-08-05T13:58:49.966Z</time>
      </trkpt>
      <trkpt lat="46.97333" lon="8.77818">
        <ele>640</ele>
        <time>2021-08-05T13:58:50.965Z</time>
      </trkpt>
      <trkpt lat="46.97332" lon="8.77819">
        <ele>640</ele>
        <time>2021-08-05T13:58:51.965Z</time>
      </trkpt>
      <trkpt lat="46.97331" lon="8.77821">
        <ele>640</ele>
        <time>2021-08-05T13:58:52.965Z</time>
      </trkpt>
      <trkpt lat="46.97332" lon="8.77823">
        <ele>640</ele>
        <time>2021-08-05T13:58:53.965Z</time>
      </trkpt>
      <trkpt lat="46.97332" lon="8.77825">
        <ele>640</ele>
        <time>2021-08-05T13:58:54.965Z</time>
      </trkpt>
      <trkpt lat="46.97332" lon="8.77826">
        <ele>641</ele>
        <time>2021-08-05T13:58:55.966Z</time>
      </trkpt>
      <trkpt lat="46.9733" lon="8.77828">
        <ele>641</ele>
        <time>2021-08-05T13:58:56.966Z</time>
      </trkpt>
      <trkpt lat="46.97329" lon="8.77829">
        <ele>641</ele>
        <time>2021-08-05T13:58:57.966Z</time>
      </trkpt>
      <trkpt lat="46.97327" lon="8.7783">
        <ele>642</ele>
        <time>2021-08-05T13:58:58.966Z</time>
      </trkpt>
      <trkpt lat="46.97326" lon="8.7783">
        <ele>642</ele>
        <time>2021-08-05T13:58:59.965Z</time>
      </trkpt>
      <trkpt lat="46.97325" lon="8.77831">
        <ele>642</ele>
        <time>2021-08-05T13:59:00.965Z</time>
      </trkpt>
      <trkpt lat="46.97324" lon="8.77832">
        <ele>643</ele>
        <time>2021-08-05T13:59:01.965Z</time>
      </trkpt>
      <trkpt lat="46.97323" lon="8.77833">
        <ele>643</ele>
        <time>2021-08-05T13:59:02.966Z</time>
      </trkpt>
      <trkpt lat="46.97322" lon="8.77834">
        <ele>644</ele>
        <time>2021-08-05T13:59:03.966Z</time>
      </trkpt>
      <trkpt lat="46.9732" lon="8.77835">
        <ele>644</ele>
        <time>2021-08-05T13:59:04.965Z</time>
      </trkpt>
      <trkpt lat="46.9732" lon="8.77837">
        <ele>645</ele>
        <time>2021-08-05T13:59:05.966Z</time>
      </trkpt>
      <trkpt lat="46.97321" lon="8.77838">
        <ele>645</ele>
        <time>2021-08-05T13:59:06.965Z</time>
      </trkpt>
      <trkpt lat="46.97321" lon="8.7784">
        <ele>646</ele>
        <time>2021-08-05T13:59:07.966Z</time>
      </trkpt>
      <trkpt lat="46.97321" lon="8.77841">
        <ele>646</ele>
        <time>2021-08-05T13:59:08.966Z</time>
      </trkpt>
      <trkpt lat="46.9732" lon="8.77842">
        <ele>647</ele>
        <time>2021-08-05T13:59:09.965Z</time>
      </trkpt>
      <trkpt lat="46.97319" lon="8.77843">
        <ele>647</ele>
        <time>2021-08-05T13:59:10.965Z</time>
      </trkpt>
      <trkpt lat="46.9732" lon="8.77845">
        <ele>647</ele>
        <time>2021-08-05T13:59:11.966Z</time>
      </trkpt>
      <trkpt lat="46.9732" lon="8.77846">
        <ele>647</ele>
        <time>2021-08-05T13:59:12.966Z</time>
      </trkpt>
      <trkpt lat="46.9732" lon="8.77848">
        <ele>648</ele>
        <time>2021-08-05T13:59:13.966Z</time>
      </trkpt>
      <trkpt lat="46.9732" lon="8.77849">
        <ele>648</ele>
        <time>2021-08-05T13:59:14.965Z</time>
      </trkpt>
      <trkpt lat="46.9732" lon="8.77851">
        <ele>648</ele>
        <time>2021-08-05T13:59:15.966Z</time>
      </trkpt>
      <trkpt lat="46.97321" lon="8.77853">
        <ele>648</ele>
        <time>2021-08-05T13:59:16.966Z</time>
      </trkpt>
      <trkpt lat="46.9732" lon="8.77854">
        <ele>647</ele>
        <time>2021-08-05T13:59:17.965Z</time>
      </trkpt>
      <trkpt lat="46.97321" lon="8.77856">
        <ele>647</ele>
        <time>2021-08-05T13:59:18.965Z</time>
      </trkpt>
      <trkpt lat="46.97322" lon="8.77857">
        <ele>647</ele>
        <time>2021-08-05T13:59:19.966Z</time>
      </trkpt>
      <trkpt lat="46.97323" lon="8.77858">
        <ele>647</ele>
        <time>2021-08-05T13:59:20.966Z</time>
      </trkpt>
      <trkpt lat="46.97323" lon="8.77859">
        <ele>646</ele>
        <time>2021-08-05T13:59:21.965Z</time>
      </trkpt>
      <trkpt lat="46.97323" lon="8.7786">
        <ele>646</ele>
        <time>2021-08-05T13:59:22.965Z</time>
      </trkpt>
      <trkpt lat="46.97323" lon="8.77862">
        <ele>645</ele>
        <time>2021-08-05T13:59:23.966Z</time>
      </trkpt>
      <trkpt lat="46.97322" lon="8.77863">
        <ele>645</ele>
        <time>2021-08-05T13:59:24.966Z</time>
      </trkpt>
      <trkpt lat="46.97321" lon="8.77864">
        <ele>644</ele>
        <time>2021-08-05T13:59:25.965Z</time>
      </trkpt>
      <trkpt lat="46.97321" lon="8.77865">
        <ele>643</ele>
        <time>2021-08-05T13:59:26.966Z</time>
      </trkpt>
      <trkpt lat="46.97321" lon="8.77866">
        <ele>642</ele>
        <time>2021-08-05T13:59:27.966Z</time>
      </trkpt>
      <trkpt lat="46.9732" lon="8.77868">
        <ele>642</ele>
        <time>2021-08-05T13:59:28.966Z</time>
      </trkpt>
      <trkpt lat="46.97319" lon="8.77869">
        <ele>641</ele>
        <time>2021-08-05T13:59:29.965Z</time>
      </trkpt>
      <trkpt lat="46.97319" lon="8.7787">
        <ele>641</ele>
        <time>2021-08-05T13:59:30.966Z</time>
      </trkpt>
      <trkpt lat="46.97319" lon="8.7787">
        <ele>640</ele>
        <time>2021-08-05T13:59:31.965Z</time>
      </trkpt>
      <trkpt lat="46.97319" lon="8.77871">
        <ele>640</ele>
        <time>2021-08-05T13:59:32.966Z</time>
      </trkpt>
      <trkpt lat="46.97319" lon="8.77872">
        <ele>640</ele>
        <time>2021-08-05T13:59:33.965Z</time>
      </trkpt>
      <trkpt lat="46.9732" lon="8.77873">
        <ele>640</ele>
        <time>2021-08-05T13:59:34.965Z</time>
      </trkpt>
      <trkpt lat="46.97319" lon="8.77874">
        <ele>639</ele>
        <time>2021-08-05T13:59:35.965Z</time>
      </trkpt>
      <trkpt lat="46.97316" lon="8.77874">
        <ele>642</ele>
        <time>2021-08-05T13:59:36.965Z</time>
      </trkpt>
      <trkpt lat="46.97315" lon="8.77875">
        <ele>642</ele>
        <time>2021-08-05T13:59:37.965Z</time>
      </trkpt>
      <trkpt lat="46.97315" lon="8.77875">
        <ele>643</ele>
        <time>2021-08-05T13:59:38.965Z</time>
      </trkpt>
      <trkpt lat="46.97315" lon="8.77875">
        <ele>643</ele>
        <time>2021-08-05T13:59:39.966Z</time>
      </trkpt>
      <trkpt lat="46.97315" lon="8.77877">
        <ele>643</ele>
        <time>2021-08-05T13:59:40.966Z</time>
      </trkpt>
      <trkpt lat="46.97315" lon="8.77877">
        <ele>643</ele>
        <time>2021-08-05T13:59:41.966Z</time>
      </trkpt>
      <trkpt lat="46.97314" lon="8.77877">
        <ele>643</ele>
        <time>2021-08-05T13:59:42.966Z</time>
      </trkpt>
      <trkpt lat="46.97313" lon="8.77877">
        <ele>643</ele>
        <time>2021-08-05T13:59:43.966Z</time>
      </trkpt>
      <trkpt lat="46.97313" lon="8.77877">
        <ele>643</ele>
        <time>2021-08-05T13:59:44.965Z</time>
      </trkpt>
      <trkpt lat="46.97313" lon="8.77877">
        <ele>644</ele>
        <time>2021-08-05T13:59:45.965Z</time>
      </trkpt>
      <trkpt lat="46.97313" lon="8.77877">
        <ele>644</ele>
        <time>2021-08-05T13:59:46.966Z</time>
      </trkpt>
      <trkpt lat="46.97313" lon="8.77877">
        <ele>644</ele>
        <time>2021-08-05T13:59:47.966Z</time>
      </trkpt>
      <trkpt lat="46.97313" lon="8.77877">
        <ele>645</ele>
        <time>2021-08-05T13:59:48.966Z</time>
      </trkpt>
      <trkpt lat="46.97313" lon="8.77877">
        <ele>645</ele>
        <time>2021-08-05T13:59:49.966Z</time>
      </trkpt>
      <trkpt lat="46.97313" lon="8.77876">
        <ele>645</ele>
        <time>2021-08-05T13:59:50.966Z</time>
      </trkpt>
      <trkpt lat="46.97312" lon="8.77876">
        <ele>646</ele>
        <time>2021-08-05T13:59:51.965Z</time>
      </trkpt>
      <trkpt lat="46.97311" lon="8.77876">
        <ele>646</ele>
        <time>2021-08-05T13:59:52.966Z</time>
      </trkpt>
      <trkpt lat="46.9731" lon="8.77877">
        <ele>646</ele>
        <time>2021-08-05T13:59:53.965Z</time>
      </trkpt>
      <trkpt lat="46.9731" lon="8.77877">
        <ele>646</ele>
        <time>2021-08-05T13:59:54.966Z</time>
      </trkpt>
      <trkpt lat="46.97309" lon="8.77878">
        <ele>646</ele>
        <time>2021-08-05T13:59:55.966Z</time>
      </trkpt>
      <trkpt lat="46.97309" lon="8.77878">
        <ele>646</ele>
        <time>2021-08-05T13:59:56.965Z</time>
      </trkpt>
      <trkpt lat="46.97309" lon="8.77879">
        <ele>646</ele>
        <time>2021-08-05T13:59:57.966Z</time>
      </trkpt>
      <trkpt lat="46.9731" lon="8.77881">
        <ele>646</ele>
        <time>2021-08-05T13:59:58.966Z</time>
      </trkpt>
      <trkpt lat="46.97311" lon="8.77883">
        <ele>645</ele>
        <time>2021-08-05T13:59:59.966Z</time>
      </trkpt>
      <trkpt lat="46.97312" lon="8.77884">
        <ele>645</ele>
        <time>2021-08-05T14:00:00.966Z</time>
      </trkpt>
      <trkpt lat="46.97312" lon="8.77886">
        <ele>645</ele>
        <time>2021-08-05T14:00:01.965Z</time>
      </trkpt>
      <trkpt lat="46.97313" lon="8.77887">
        <ele>645</ele>
        <time>2021-08-05T14:00:02.965Z</time>
      </trkpt>
      <trkpt lat="46.97313" lon="8.77889">
        <ele>644</ele>
        <time>2021-08-05T14:00:03.966Z</time>
      </trkpt>
      <trkpt lat="46.97313" lon="8.77889">
        <ele>644</ele>
        <time>2021-08-05T14:00:04.965Z</time>
      </trkpt>
      <trkpt lat="46.97312" lon="8.7789">
        <ele>644</ele>
        <time>2021-08-05T14:00:05.965Z</time>
      </trkpt>
      <trkpt lat="46.97312" lon="8.77891">
        <ele>644</ele>
        <time>2021-08-05T14:00:06.965Z</time>
      </trkpt>
      <trkpt lat="46.97312" lon="8.77891">
        <ele>643</ele>
        <time>2021-08-05T14:00:07.965Z</time>
      </trkpt>
      <trkpt lat="46.97311" lon="8.77891">
        <ele>643</ele>
        <time>2021-08-05T14:00:08.965Z</time>
      </trkpt>
      <trkpt lat="46.97311" lon="8.77891">
        <ele>643</ele>
        <time>2021-08-05T14:00:09.965Z</time>
      </trkpt>
      <trkpt lat="46.9731" lon="8.77892">
        <ele>643</ele>
        <time>2021-08-05T14:00:10.965Z</time>
      </trkpt>
      <trkpt lat="46.9731" lon="8.77892">
        <ele>643</ele>
        <time>2021-08-05T14:00:11.965Z</time>
      </trkpt>
      <trkpt lat="46.9731" lon="8.77892">
        <ele>643</ele>
        <time>2021-08-05T14:00:12.965Z</time>
      </trkpt>
      <trkpt lat="46.9731" lon="8.77893">
        <ele>643</ele>
        <time>2021-08-05T14:00:13.965Z</time>
      </trkpt>
      <trkpt lat="46.9731" lon="8.77893">
        <ele>642</ele>
        <time>2021-08-05T14:00:14.965Z</time>
      </trkpt>
      <trkpt lat="46.97309" lon="8.77894">
        <ele>642</ele>
        <time>2021-08-05T14:00:15.965Z</time>
      </trkpt>
      <trkpt lat="46.97307" lon="8.77894">
        <ele>642</ele>
        <time>2021-08-05T14:00:16.965Z</time>
      </trkpt>
      <trkpt lat="46.97307" lon="8.77896">
        <ele>642</ele>
        <time>2021-08-05T14:00:17.965Z</time>
      </trkpt>
      <trkpt lat="46.97307" lon="8.77897">
        <ele>642</ele>
        <time>2021-08-05T14:00:18.965Z</time>
      </trkpt>
      <trkpt lat="46.97306" lon="8.77899">
        <ele>642</ele>
        <time>2021-08-05T14:00:19.965Z</time>
      </trkpt>
      <trkpt lat="46.97306" lon="8.779">
        <ele>641</ele>
        <time>2021-08-05T14:00:20.966Z</time>
      </trkpt>
      <trkpt lat="46.97305" lon="8.77901">
        <ele>641</ele>
        <time>2021-08-05T14:00:21.966Z</time>
      </trkpt>
      <trkpt lat="46.97305" lon="8.77901">
        <ele>640</ele>
        <time>2021-08-05T14:00:22.965Z</time>
      </trkpt>
      <trkpt lat="46.97304" lon="8.77902">
        <ele>640</ele>
        <time>2021-08-05T14:00:23.965Z</time>
      </trkpt>
      <trkpt lat="46.97303" lon="8.77903">
        <ele>639</ele>
        <time>2021-08-05T14:00:24.965Z</time>
      </trkpt>
      <trkpt lat="46.97303" lon="8.77905">
        <ele>639</ele>
        <time>2021-08-05T14:00:25.965Z</time>
      </trkpt>
      <trkpt lat="46.97302" lon="8.77907">
        <ele>638</ele>
        <time>2021-08-05T14:00:26.965Z</time>
      </trkpt>
      <trkpt lat="46.97302" lon="8.77908">
        <ele>638</ele>
        <time>2021-08-05T14:00:27.965Z</time>
      </trkpt>
      <trkpt lat="46.97302" lon="8.7791">
        <ele>638</ele>
        <time>2021-08-05T14:00:28.965Z</time>
      </trkpt>
      <trkpt lat="46.97303" lon="8.77912">
        <ele>637</ele>
        <time>2021-08-05T14:00:29.965Z</time>
      </trkpt>
      <trkpt lat="46.97303" lon="8.77915">
        <ele>637</ele>
        <time>2021-08-05T14:00:30.965Z</time>
      </trkpt>
      <trkpt lat="46.97303" lon="8.77916">
        <ele>637</ele>
        <time>2021-08-05T14:00:31.965Z</time>
      </trkpt>
      <trkpt lat="46.97302" lon="8.77917">
        <ele>637</ele>
        <time>2021-08-05T14:00:32.965Z</time>
      </trkpt>
      <trkpt lat="46.97301" lon="8.77918">
        <ele>637</ele>
        <time>2021-08-05T14:00:33.966Z</time>
      </trkpt>
      <trkpt lat="46.973" lon="8.77919">
        <ele>637</ele>
        <time>2021-08-05T14:00:34.966Z</time>
      </trkpt>
      <trkpt lat="46.97299" lon="8.77919">
        <ele>638</ele>
        <time>2021-08-05T14:00:35.966Z</time>
      </trkpt>
      <trkpt lat="46.97298" lon="8.7792">
        <ele>638</ele>
        <time>2021-08-05T14:00:36.966Z</time>
      </trkpt>
      <trkpt lat="46.97298" lon="8.77922">
        <ele>638</ele>
        <time>2021-08-05T14:00:37.966Z</time>
      </trkpt>
      <trkpt lat="46.97298" lon="8.77924">
        <ele>638</ele>
        <time>2021-08-05T14:00:38.965Z</time>
      </trkpt>
      <trkpt lat="46.97297" lon="8.77924">
        <ele>638</ele>
        <time>2021-08-05T14:00:39.966Z</time>
      </trkpt>
      <trkpt lat="46.97296" lon="8.77924">
        <ele>638</ele>
        <time>2021-08-05T14:00:40.966Z</time>
      </trkpt>
      <trkpt lat="46.97295" lon="8.77925">
        <ele>639</ele>
        <time>2021-08-05T14:00:41.965Z</time>
      </trkpt>
      <trkpt lat="46.97294" lon="8.77925">
        <ele>639</ele>
        <time>2021-08-05T14:00:42.966Z</time>
      </trkpt>
      <trkpt lat="46.97294" lon="8.77926">
        <ele>640</ele>
        <time>2021-08-05T14:00:43.965Z</time>
      </trkpt>
      <trkpt lat="46.97293" lon="8.77927">
        <ele>640</ele>
        <time>2021-08-05T14:00:44.966Z</time>
      </trkpt>
      <trkpt lat="46.97293" lon="8.77928">
        <ele>641</ele>
        <time>2021-08-05T14:00:45.965Z</time>
      </trkpt>
      <trkpt lat="46.97293" lon="8.7793">
        <ele>641</ele>
        <time>2021-08-05T14:00:46.966Z</time>
      </trkpt>
      <trkpt lat="46.97292" lon="8.7793">
        <ele>642</ele>
        <time>2021-08-05T14:00:47.965Z</time>
      </trkpt>
      <trkpt lat="46.97292" lon="8.77931">
        <ele>642</ele>
        <time>2021-08-05T14:00:48.966Z</time>
      </trkpt>
      <trkpt lat="46.97292" lon="8.77933">
        <ele>642</ele>
        <time>2021-08-05T14:00:49.966Z</time>
      </trkpt>
      <trkpt lat="46.97292" lon="8.77934">
        <ele>643</ele>
        <time>2021-08-05T14:00:50.966Z</time>
      </trkpt>
      <trkpt lat="46.97292" lon="8.77935">
        <ele>643</ele>
        <time>2021-08-05T14:00:51.966Z</time>
      </trkpt>
      <trkpt lat="46.97292" lon="8.77937">
        <ele>643</ele>
        <time>2021-08-05T14:00:52.966Z</time>
      </trkpt>
      <trkpt lat="46.97292" lon="8.77938">
        <ele>643</ele>
        <time>2021-08-05T14:00:53.966Z</time>
      </trkpt>
      <trkpt lat="46.97291" lon="8.77939">
        <ele>643</ele>
        <time>2021-08-05T14:00:54.966Z</time>
      </trkpt>
      <trkpt lat="46.97291" lon="8.7794">
        <ele>644</ele>
        <time>2021-08-05T14:00:55.965Z</time>
      </trkpt>
      <trkpt lat="46.97291" lon="8.77941">
        <ele>644</ele>
        <time>2021-08-05T14:00:56.966Z</time>
      </trkpt>
      <trkpt lat="46.97291" lon="8.77942">
        <ele>644</ele>
        <time>2021-08-05T14:00:57.965Z</time>
      </trkpt>
      <trkpt lat="46.97291" lon="8.77943">
        <ele>644</ele>
        <time>2021-08-05T14:00:58.966Z</time>
      </trkpt>
      <trkpt lat="46.97291" lon="8.77942">
        <ele>644</ele>
        <time>2021-08-05T14:00:59.966Z</time>
      </trkpt>
      <trkpt lat="46.97291" lon="8.77942">
        <ele>644</ele>
        <time>2021-08-05T14:01:00.966Z</time>
      </trkpt>
      <trkpt lat="46.97291" lon="8.77943">
        <ele>644</ele>
        <time>2021-08-05T14:01:01.965Z</time>
      </trkpt>
      <trkpt lat="46.97291" lon="8.77944">
        <ele>644</ele>
        <time>2021-08-05T14:01:02.966Z</time>
      </trkpt>
      <trkpt lat="46.9729" lon="8.77945">
        <ele>644</ele>
        <time>2021-08-05T14:01:03.966Z</time>
      </trkpt>
      <trkpt lat="46.9729" lon="8.77946">
        <ele>644</ele>
        <time>2021-08-05T14:01:04.966Z</time>
      </trkpt>
      <trkpt lat="46.97289" lon="8.77947">
        <ele>644</ele>
        <time>2021-08-05T14:01:05.966Z</time>
      </trkpt>
      <trkpt lat="46.97289" lon="8.77948">
        <ele>644</ele>
        <time>2021-08-05T14:01:06.966Z</time>
      </trkpt>
      <trkpt lat="46.97288" lon="8.77949">
        <ele>645</ele>
        <time>2021-08-05T14:01:07.965Z</time>
      </trkpt>
      <trkpt lat="46.97288" lon="8.77949">
        <ele>645</ele>
        <time>2021-08-05T14:01:08.966Z</time>
      </trkpt>
      <trkpt lat="46.97287" lon="8.77951">
        <ele>645</ele>
        <time>2021-08-05T14:01:09.966Z</time>
      </trkpt>
      <trkpt lat="46.97286" lon="8.77951">
        <ele>646</ele>
        <time>2021-08-05T14:01:10.965Z</time>
      </trkpt>
      <trkpt lat="46.97285" lon="8.77951">
        <ele>646</ele>
        <time>2021-08-05T14:01:11.966Z</time>
      </trkpt>
      <trkpt lat="46.97283" lon="8.77951">
        <ele>647</ele>
        <time>2021-08-05T14:01:12.966Z</time>
      </trkpt>
      <trkpt lat="46.97282" lon="8.77952">
        <ele>647</ele>
        <time>2021-08-05T14:01:13.966Z</time>
      </trkpt>
      <trkpt lat="46.97282" lon="8.77953">
        <ele>648</ele>
        <time>2021-08-05T14:01:14.966Z</time>
      </trkpt>
      <trkpt lat="46.97281" lon="8.77956">
        <ele>648</ele>
        <time>2021-08-05T14:01:15.966Z</time>
      </trkpt>
      <trkpt lat="46.9728" lon="8.77958">
        <ele>649</ele>
        <time>2021-08-05T14:01:16.965Z</time>
      </trkpt>
      <trkpt lat="46.97281" lon="8.77962">
        <ele>649</ele>
        <time>2021-08-05T14:01:17.965Z</time>
      </trkpt>
      <trkpt lat="46.97281" lon="8.77966">
        <ele>649</ele>
        <time>2021-08-05T14:01:18.966Z</time>
      </trkpt>
      <trkpt lat="46.97281" lon="8.77968">
        <ele>649</ele>
        <time>2021-08-05T14:01:19.966Z</time>
      </trkpt>
      <trkpt lat="46.97281" lon="8.77969">
        <ele>649</ele>
        <time>2021-08-05T14:01:20.966Z</time>
      </trkpt>
      <trkpt lat="46.9728" lon="8.7797">
        <ele>650</ele>
        <time>2021-08-05T14:01:21.966Z</time>
      </trkpt>
      <trkpt lat="46.9728" lon="8.7797">
        <ele>650</ele>
        <time>2021-08-05T14:01:22.966Z</time>
      </trkpt>
      <trkpt lat="46.97279" lon="8.77971">
        <ele>650</ele>
        <time>2021-08-05T14:01:23.966Z</time>
      </trkpt>
      <trkpt lat="46.97278" lon="8.77971">
        <ele>650</ele>
        <time>2021-08-05T14:01:24.966Z</time>
      </trkpt>
      <trkpt lat="46.97277" lon="8.77971">
        <ele>651</ele>
        <time>2021-08-05T14:01:25.966Z</time>
      </trkpt>
      <trkpt lat="46.97276" lon="8.77972">
        <ele>651</ele>
        <time>2021-08-05T14:01:26.965Z</time>
      </trkpt>
      <trkpt lat="46.97276" lon="8.77973">
        <ele>651</ele>
        <time>2021-08-05T14:01:27.966Z</time>
      </trkpt>
      <trkpt lat="46.97276" lon="8.77975">
        <ele>652</ele>
        <time>2021-08-05T14:01:28.965Z</time>
      </trkpt>
      <trkpt lat="46.97275" lon="8.77976">
        <ele>652</ele>
        <time>2021-08-05T14:01:29.966Z</time>
      </trkpt>
      <trkpt lat="46.97275" lon="8.77977">
        <ele>653</ele>
        <time>2021-08-05T14:01:30.966Z</time>
      </trkpt>
      <trkpt lat="46.97274" lon="8.77977">
        <ele>653</ele>
        <time>2021-08-05T14:01:31.965Z</time>
      </trkpt>
      <trkpt lat="46.97273" lon="8.77978">
        <ele>654</ele>
        <time>2021-08-05T14:01:32.965Z</time>
      </trkpt>
      <trkpt lat="46.97274" lon="8.77979">
        <ele>654</ele>
        <time>2021-08-05T14:01:33.965Z</time>
      </trkpt>
      <trkpt lat="46.97274" lon="8.7798">
        <ele>655</ele>
        <time>2021-08-05T14:01:34.966Z</time>
      </trkpt>
      <trkpt lat="46.97273" lon="8.77981">
        <ele>655</ele>
        <time>2021-08-05T14:01:35.965Z</time>
      </trkpt>
      <trkpt lat="46.97273" lon="8.77981">
        <ele>655</ele>
        <time>2021-08-05T14:01:36.966Z</time>
      </trkpt>
      <trkpt lat="46.97272" lon="8.77982">
        <ele>656</ele>
        <time>2021-08-05T14:01:37.966Z</time>
      </trkpt>
      <trkpt lat="46.97272" lon="8.77984">
        <ele>656</ele>
        <time>2021-08-05T14:01:38.965Z</time>
      </trkpt>
      <trkpt lat="46.97271" lon="8.77985">
        <ele>656</ele>
        <time>2021-08-05T14:01:39.966Z</time>
      </trkpt>
      <trkpt lat="46.97271" lon="8.77987">
        <ele>656</ele>
        <time>2021-08-05T14:01:40.965Z</time>
      </trkpt>
      <trkpt lat="46.97271" lon="8.7799">
        <ele>657</ele>
        <time>2021-08-05T14:01:41.966Z</time>
      </trkpt>
      <trkpt lat="46.97271" lon="8.77992">
        <ele>657</ele>
        <time>2021-08-05T14:01:42.965Z</time>
      </trkpt>
      <trkpt lat="46.97271" lon="8.77993">
        <ele>657</ele>
        <time>2021-08-05T14:01:43.965Z</time>
      </trkpt>
      <trkpt lat="46.9727" lon="8.77994">
        <ele>657</ele>
        <time>2021-08-05T14:01:44.966Z</time>
      </trkpt>
      <trkpt lat="46.97269" lon="8.77993">
        <ele>657</ele>
        <time>2021-08-05T14:01:45.966Z</time>
      </trkpt>
      <trkpt lat="46.97268" lon="8.77994">
        <ele>657</ele>
        <time>2021-08-05T14:01:46.966Z</time>
      </trkpt>
      <trkpt lat="46.97268" lon="8.77993">
        <ele>657</ele>
        <time>2021-08-05T14:01:47.966Z</time>
      </trkpt>
      <trkpt lat="46.97268" lon="8.77994">
        <ele>657</ele>
        <time>2021-08-05T14:01:48.966Z</time>
      </trkpt>
      <trkpt lat="46.97267" lon="8.77994">
        <ele>657</ele>
        <time>2021-08-05T14:01:49.966Z</time>
      </trkpt>
      <trkpt lat="46.97268" lon="8.77996">
        <ele>656</ele>
        <time>2021-08-05T14:01:50.966Z</time>
      </trkpt>
      <trkpt lat="46.97268" lon="8.77998">
        <ele>656</ele>
        <time>2021-08-05T14:01:51.966Z</time>
      </trkpt>
      <trkpt lat="46.97268" lon="8.78001">
        <ele>656</ele>
        <time>2021-08-05T14:01:52.966Z</time>
      </trkpt>
      <trkpt lat="46.97268" lon="8.78001">
        <ele>656</ele>
        <time>2021-08-05T14:01:53.965Z</time>
      </trkpt>
      <trkpt lat="46.97267" lon="8.78">
        <ele>655</ele>
        <time>2021-08-05T14:01:54.965Z</time>
      </trkpt>
      <trkpt lat="46.97267" lon="8.78">
        <ele>655</ele>
        <time>2021-08-05T14:01:55.965Z</time>
      </trkpt>
      <trkpt lat="46.97267" lon="8.78001">
        <ele>655</ele>
        <time>2021-08-05T14:01:56.965Z</time>
      </trkpt>
      <trkpt lat="46.97267" lon="8.78002">
        <ele>655</ele>
        <time>2021-08-05T14:01:57.966Z</time>
      </trkpt>
      <trkpt lat="46.97267" lon="8.78003">
        <ele>655</ele>
        <time>2021-08-05T14:01:58.966Z</time>
      </trkpt>
      <trkpt lat="46.97267" lon="8.78005">
        <ele>655</ele>
        <time>2021-08-05T14:01:59.965Z</time>
      </trkpt>
      <trkpt lat="46.97267" lon="8.78007">
        <ele>655</ele>
        <time>2021-08-05T14:02:00.965Z</time>
      </trkpt>
      <trkpt lat="46.97267" lon="8.78009">
        <ele>655</ele>
        <time>2021-08-05T14:02:01.965Z</time>
      </trkpt>
      <trkpt lat="46.97267" lon="8.78011">
        <ele>655</ele>
        <time>2021-08-05T14:02:02.965Z</time>
      </trkpt>
      <trkpt lat="46.97267" lon="8.78013">
        <ele>655</ele>
        <time>2021-08-05T14:02:03.966Z</time>
      </trkpt>
      <trkpt lat="46.97267" lon="8.78015">
        <ele>655</ele>
        <time>2021-08-05T14:02:04.966Z</time>
      </trkpt>
      <trkpt lat="46.97267" lon="8.78017">
        <ele>656</ele>
        <time>2021-08-05T14:02:05.966Z</time>
      </trkpt>
      <trkpt lat="46.97268" lon="8.7802">
        <ele>655</ele>
        <time>2021-08-05T14:02:06.966Z</time>
      </trkpt>
      <trkpt lat="46.97268" lon="8.78022">
        <ele>655</ele>
        <time>2021-08-05T14:02:07.966Z</time>
      </trkpt>
      <trkpt lat="46.97268" lon="8.78024">
        <ele>655</ele>
        <time>2021-08-05T14:02:08.966Z</time>
      </trkpt>
      <trkpt lat="46.97267" lon="8.78027">
        <ele>655</ele>
        <time>2021-08-05T14:02:09.966Z</time>
      </trkpt>
      <trkpt lat="46.97267" lon="8.78029">
        <ele>654</ele>
        <time>2021-08-05T14:02:10.965Z</time>
      </trkpt>
      <trkpt lat="46.97267" lon="8.78031">
        <ele>654</ele>
        <time>2021-08-05T14:02:11.966Z</time>
      </trkpt>
      <trkpt lat="46.97267" lon="8.78034">
        <ele>654</ele>
        <time>2021-08-05T14:02:12.966Z</time>
      </trkpt>
      <trkpt lat="46.97266" lon="8.78036">
        <ele>654</ele>
        <time>2021-08-05T14:02:13.966Z</time>
      </trkpt>
      <trkpt lat="46.97265" lon="8.78039">
        <ele>653</ele>
        <time>2021-08-05T14:02:14.966Z</time>
      </trkpt>
      <trkpt lat="46.97265" lon="8.78042">
        <ele>653</ele>
        <time>2021-08-05T14:02:15.965Z</time>
      </trkpt>
      <trkpt lat="46.97265" lon="8.78044">
        <ele>653</ele>
        <time>2021-08-05T14:02:16.966Z</time>
      </trkpt>
      <trkpt lat="46.97266" lon="8.78045">
        <ele>653</ele>
        <time>2021-08-05T14:02:17.965Z</time>
      </trkpt>
      <trkpt lat="46.97265" lon="8.78046">
        <ele>653</ele>
        <time>2021-08-05T14:02:18.966Z</time>
      </trkpt>
      <trkpt lat="46.97265" lon="8.78047">
        <ele>653</ele>
        <time>2021-08-05T14:02:19.966Z</time>
      </trkpt>
      <trkpt lat="46.97265" lon="8.78049">
        <ele>652</ele>
        <time>2021-08-05T14:02:20.966Z</time>
      </trkpt>
      <trkpt lat="46.97265" lon="8.7805">
        <ele>652</ele>
        <time>2021-08-05T14:02:21.965Z</time>
      </trkpt>
      <trkpt lat="46.97264" lon="8.78052">
        <ele>652</ele>
        <time>2021-08-05T14:02:22.966Z</time>
      </trkpt>
      <trkpt lat="46.97264" lon="8.78053">
        <ele>652</ele>
        <time>2021-08-05T14:02:23.965Z</time>
      </trkpt>
      <trkpt lat="46.97264" lon="8.78055">
        <ele>652</ele>
        <time>2021-08-05T14:02:24.965Z</time>
      </trkpt>
      <trkpt lat="46.97263" lon="8.78056">
        <ele>652</ele>
        <time>2021-08-05T14:02:25.966Z</time>
      </trkpt>
      <trkpt lat="46.97263" lon="8.78058">
        <ele>653</ele>
        <time>2021-08-05T14:02:26.966Z</time>
      </trkpt>
      <trkpt lat="46.97262" lon="8.7806">
        <ele>653</ele>
        <time>2021-08-05T14:02:27.966Z</time>
      </trkpt>
      <trkpt lat="46.97262" lon="8.78061">
        <ele>654</ele>
        <time>2021-08-05T14:02:28.966Z</time>
      </trkpt>
      <trkpt lat="46.97262" lon="8.78063">
        <ele>654</ele>
        <time>2021-08-05T14:02:29.966Z</time>
      </trkpt>
      <trkpt lat="46.97261" lon="8.78065">
        <ele>655</ele>
        <time>2021-08-05T14:02:30.966Z</time>
      </trkpt>
      <trkpt lat="46.97261" lon="8.78066">
        <ele>655</ele>
        <time>2021-08-05T14:02:31.965Z</time>
      </trkpt>
      <trkpt lat="46.9726" lon="8.78067">
        <ele>656</ele>
        <time>2021-08-05T14:02:32.966Z</time>
      </trkpt>
      <trkpt lat="46.9726" lon="8.78068">
        <ele>656</ele>
        <time>2021-08-05T14:02:33.965Z</time>
      </trkpt>
      <trkpt lat="46.97261" lon="8.7807">
        <ele>656</ele>
        <time>2021-08-05T14:02:34.966Z</time>
      </trkpt>
      <trkpt lat="46.97261" lon="8.78072">
        <ele>656</ele>
        <time>2021-08-05T14:02:35.965Z</time>
      </trkpt>
      <trkpt lat="46.97261" lon="8.78073">
        <ele>656</ele>
        <time>2021-08-05T14:02:36.966Z</time>
      </trkpt>
      <trkpt lat="46.97261" lon="8.78075">
        <ele>656</ele>
        <time>2021-08-05T14:02:37.966Z</time>
      </trkpt>
      <trkpt lat="46.9726" lon="8.78075">
        <ele>656</ele>
        <time>2021-08-05T14:02:38.966Z</time>
      </trkpt>
      <trkpt lat="46.97259" lon="8.78077">
        <ele>656</ele>
        <time>2021-08-05T14:02:39.966Z</time>
      </trkpt>
      <trkpt lat="46.97259" lon="8.78078">
        <ele>656</ele>
        <time>2021-08-05T14:02:40.966Z</time>
      </trkpt>
      <trkpt lat="46.97259" lon="8.78079">
        <ele>656</ele>
        <time>2021-08-05T14:02:41.965Z</time>
      </trkpt>
      <trkpt lat="46.9726" lon="8.78081">
        <ele>655</ele>
        <time>2021-08-05T14:02:42.966Z</time>
      </trkpt>
      <trkpt lat="46.9726" lon="8.78082">
        <ele>655</ele>
        <time>2021-08-05T14:02:43.966Z</time>
      </trkpt>
      <trkpt lat="46.9726" lon="8.78083">
        <ele>655</ele>
        <time>2021-08-05T14:02:44.965Z</time>
      </trkpt>
      <trkpt lat="46.9726" lon="8.78085">
        <ele>655</ele>
        <time>2021-08-05T14:02:45.966Z</time>
      </trkpt>
      <trkpt lat="46.9726" lon="8.78086">
        <ele>655</ele>
        <time>2021-08-05T14:02:46.965Z</time>
      </trkpt>
      <trkpt lat="46.97259" lon="8.78088">
        <ele>655</ele>
        <time>2021-08-05T14:02:47.966Z</time>
      </trkpt>
      <trkpt lat="46.97259" lon="8.78089">
        <ele>655</ele>
        <time>2021-08-05T14:02:48.966Z</time>
      </trkpt>
      <trkpt lat="46.97259" lon="8.78091">
        <ele>655</ele>
        <time>2021-08-05T14:02:49.966Z</time>
      </trkpt>
      <trkpt lat="46.97259" lon="8.78092">
        <ele>654</ele>
        <time>2021-08-05T14:02:50.965Z</time>
      </trkpt>
      <trkpt lat="46.97259" lon="8.78093">
        <ele>654</ele>
        <time>2021-08-05T14:02:51.966Z</time>
      </trkpt>
      <trkpt lat="46.97259" lon="8.78095">
        <ele>653</ele>
        <time>2021-08-05T14:02:52.965Z</time>
      </trkpt>
      <trkpt lat="46.97258" lon="8.78096">
        <ele>653</ele>
        <time>2021-08-05T14:02:53.965Z</time>
      </trkpt>
      <trkpt lat="46.97258" lon="8.78097">
        <ele>652</ele>
        <time>2021-08-05T14:02:54.965Z</time>
      </trkpt>
      <trkpt lat="46.97257" lon="8.78098">
        <ele>652</ele>
        <time>2021-08-05T14:02:55.965Z</time>
      </trkpt>
      <trkpt lat="46.97256" lon="8.78099">
        <ele>652</ele>
        <time>2021-08-05T14:03:01.111Z</time>
      </trkpt>
      <trkpt lat="46.97255" lon="8.781">
        <ele>651</ele>
        <time>2021-08-05T14:03:02.111Z</time>
      </trkpt>
      <trkpt lat="46.97255" lon="8.78101">
        <ele>651</ele>
        <time>2021-08-05T14:03:03.110Z</time>
      </trkpt>
      <trkpt lat="46.97254" lon="8.78102">
        <ele>651</ele>
        <time>2021-08-05T14:03:04.110Z</time>
      </trkpt>
      <trkpt lat="46.97253" lon="8.78103">
        <ele>650</ele>
        <time>2021-08-05T14:03:05.110Z</time>
      </trkpt>
      <trkpt lat="46.97253" lon="8.78104">
        <ele>650</ele>
        <time>2021-08-05T14:03:06.110Z</time>
      </trkpt>
      <trkpt lat="46.97252" lon="8.78105">
        <ele>650</ele>
        <time>2021-08-05T14:03:07.110Z</time>
      </trkpt>
      <trkpt lat="46.97252" lon="8.78107">
        <ele>650</ele>
        <time>2021-08-05T14:03:08.111Z</time>
      </trkpt>
      <trkpt lat="46.97252" lon="8.78109">
        <ele>649</ele>
        <time>2021-08-05T14:03:09.110Z</time>
      </trkpt>
      <trkpt lat="46.97252" lon="8.7811">
        <ele>649</ele>
        <time>2021-08-05T14:03:10.110Z</time>
      </trkpt>
      <trkpt lat="46.97253" lon="8.78111">
        <ele>648</ele>
        <time>2021-08-05T14:03:11.111Z</time>
      </trkpt>
      <trkpt lat="46.97253" lon="8.78111">
        <ele>648</ele>
        <time>2021-08-05T14:03:12.110Z</time>
      </trkpt>
      <trkpt lat="46.97253" lon="8.78112">
        <ele>648</ele>
        <time>2021-08-05T14:03:13.111Z</time>
      </trkpt>
      <trkpt lat="46.97253" lon="8.78113">
        <ele>647</ele>
        <time>2021-08-05T14:03:14.111Z</time>
      </trkpt>
      <trkpt lat="46.97253" lon="8.78113">
        <ele>647</ele>
        <time>2021-08-05T14:03:15.111Z</time>
      </trkpt>
      <trkpt lat="46.97254" lon="8.78113">
        <ele>646</ele>
        <time>2021-08-05T14:03:16.110Z</time>
      </trkpt>
      <trkpt lat="46.97254" lon="8.78115">
        <ele>646</ele>
        <time>2021-08-05T14:03:17.110Z</time>
      </trkpt>
      <trkpt lat="46.97255" lon="8.78117">
        <ele>646</ele>
        <time>2021-08-05T14:03:18.111Z</time>
      </trkpt>
      <trkpt lat="46.97255" lon="8.78118">
        <ele>646</ele>
        <time>2021-08-05T14:03:19.111Z</time>
      </trkpt>
      <trkpt lat="46.97256" lon="8.78119">
        <ele>646</ele>
        <time>2021-08-05T14:03:20.111Z</time>
      </trkpt>
      <trkpt lat="46.97256" lon="8.78121">
        <ele>646</ele>
        <time>2021-08-05T14:03:21.111Z</time>
      </trkpt>
      <trkpt lat="46.97256" lon="8.78122">
        <ele>645</ele>
        <time>2021-08-05T14:03:22.110Z</time>
      </trkpt>
      <trkpt lat="46.97256" lon="8.78123">
        <ele>645</ele>
        <time>2021-08-05T14:03:23.110Z</time>
      </trkpt>
      <trkpt lat="46.97256" lon="8.78124">
        <ele>644</ele>
        <time>2021-08-05T14:03:24.111Z</time>
      </trkpt>
      <trkpt lat="46.97255" lon="8.78125">
        <ele>644</ele>
        <time>2021-08-05T14:03:25.111Z</time>
      </trkpt>
      <trkpt lat="46.97255" lon="8.78126">
        <ele>643</ele>
        <time>2021-08-05T14:03:26.110Z</time>
      </trkpt>
      <trkpt lat="46.97254" lon="8.78127">
        <ele>642</ele>
        <time>2021-08-05T14:03:27.110Z</time>
      </trkpt>
      <trkpt lat="46.97253" lon="8.78127">
        <ele>642</ele>
        <time>2021-08-05T14:03:28.111Z</time>
      </trkpt>
      <trkpt lat="46.97253" lon="8.78128">
        <ele>642</ele>
        <time>2021-08-05T14:03:29.111Z</time>
      </trkpt>
      <trkpt lat="46.97253" lon="8.7813">
        <ele>641</ele>
        <time>2021-08-05T14:03:30.110Z</time>
      </trkpt>
      <trkpt lat="46.97252" lon="8.78132">
        <ele>641</ele>
        <time>2021-08-05T14:03:31.111Z</time>
      </trkpt>
      <trkpt lat="46.97252" lon="8.78133">
        <ele>641</ele>
        <time>2021-08-05T14:03:32.110Z</time>
      </trkpt>
      <trkpt lat="46.97251" lon="8.78134">
        <ele>641</ele>
        <time>2021-08-05T14:03:33.111Z</time>
      </trkpt>
      <trkpt lat="46.97251" lon="8.78135">
        <ele>642</ele>
        <time>2021-08-05T14:03:34.111Z</time>
      </trkpt>
      <trkpt lat="46.97251" lon="8.78137">
        <ele>642</ele>
        <time>2021-08-05T14:03:35.111Z</time>
      </trkpt>
      <trkpt lat="46.9725" lon="8.78139">
        <ele>642</ele>
        <time>2021-08-05T14:03:36.111Z</time>
      </trkpt>
      <trkpt lat="46.9725" lon="8.78141">
        <ele>642</ele>
        <time>2021-08-05T14:03:37.110Z</time>
      </trkpt>
      <trkpt lat="46.9725" lon="8.78142">
        <ele>642</ele>
        <time>2021-08-05T14:03:38.110Z</time>
      </trkpt>
      <trkpt lat="46.9725" lon="8.78144">
        <ele>641</ele>
        <time>2021-08-05T14:03:39.110Z</time>
      </trkpt>
      <trkpt lat="46.9725" lon="8.78145">
        <ele>641</ele>
        <time>2021-08-05T14:03:40.111Z</time>
      </trkpt>
      <trkpt lat="46.9725" lon="8.78147">
        <ele>641</ele>
        <time>2021-08-05T14:03:41.110Z</time>
      </trkpt>
      <trkpt lat="46.9725" lon="8.78148">
        <ele>641</ele>
        <time>2021-08-05T14:03:42.111Z</time>
      </trkpt>
      <trkpt lat="46.9725" lon="8.7815">
        <ele>641</ele>
        <time>2021-08-05T14:03:43.110Z</time>
      </trkpt>
      <trkpt lat="46.97249" lon="8.78151">
        <ele>641</ele>
        <time>2021-08-05T14:03:44.111Z</time>
      </trkpt>
      <trkpt lat="46.97249" lon="8.78152">
        <ele>641</ele>
        <time>2021-08-05T14:03:45.111Z</time>
      </trkpt>
      <trkpt lat="46.97248" lon="8.78153">
        <ele>641</ele>
        <time>2021-08-05T14:03:46.110Z</time>
      </trkpt>
      <trkpt lat="46.97248" lon="8.78155">
        <ele>641</ele>
        <time>2021-08-05T14:03:47.110Z</time>
      </trkpt>
      <trkpt lat="46.97248" lon="8.78156">
        <ele>641</ele>
        <time>2021-08-05T14:03:48.110Z</time>
      </trkpt>
      <trkpt lat="46.97248" lon="8.78157">
        <ele>641</ele>
        <time>2021-08-05T14:03:49.110Z</time>
      </trkpt>
      <trkpt lat="46.97247" lon="8.78159">
        <ele>642</ele>
        <time>2021-08-05T14:03:50.110Z</time>
      </trkpt>
      <trkpt lat="46.97247" lon="8.7816">
        <ele>642</ele>
        <time>2021-08-05T14:03:51.110Z</time>
      </trkpt>
      <trkpt lat="46.97246" lon="8.78162">
        <ele>643</ele>
        <time>2021-08-05T14:03:52.110Z</time>
      </trkpt>
      <trkpt lat="46.97246" lon="8.78164">
        <ele>643</ele>
        <time>2021-08-05T14:03:53.110Z</time>
      </trkpt>
      <trkpt lat="46.97245" lon="8.78165">
        <ele>642</ele>
        <time>2021-08-05T14:03:54.110Z</time>
      </trkpt>
      <trkpt lat="46.97244" lon="8.78167">
        <ele>642</ele>
        <time>2021-08-05T14:03:55.110Z</time>
      </trkpt>
      <trkpt lat="46.97244" lon="8.78168">
        <ele>641</ele>
        <time>2021-08-05T14:03:56.110Z</time>
      </trkpt>
      <trkpt lat="46.97243" lon="8.78169">
        <ele>641</ele>
        <time>2021-08-05T14:03:57.110Z</time>
      </trkpt>
      <trkpt lat="46.97243" lon="8.78171">
        <ele>641</ele>
        <time>2021-08-05T14:03:58.110Z</time>
      </trkpt>
      <trkpt lat="46.97242" lon="8.78173">
        <ele>640</ele>
        <time>2021-08-05T14:03:59.111Z</time>
      </trkpt>
      <trkpt lat="46.97242" lon="8.78175">
        <ele>640</ele>
        <time>2021-08-05T14:04:00.110Z</time>
      </trkpt>
      <trkpt lat="46.97241" lon="8.78177">
        <ele>640</ele>
        <time>2021-08-05T14:04:01.111Z</time>
      </trkpt>
      <trkpt lat="46.97241" lon="8.78179">
        <ele>640</ele>
        <time>2021-08-05T14:04:02.111Z</time>
      </trkpt>
      <trkpt lat="46.97239" lon="8.7818">
        <ele>641</ele>
        <time>2021-08-05T14:04:03.110Z</time>
      </trkpt>
      <trkpt lat="46.97238" lon="8.78181">
        <ele>641</ele>
        <time>2021-08-05T14:04:04.110Z</time>
      </trkpt>
      <trkpt lat="46.97238" lon="8.78183">
        <ele>641</ele>
        <time>2021-08-05T14:04:05.111Z</time>
      </trkpt>
      <trkpt lat="46.97239" lon="8.78186">
        <ele>641</ele>
        <time>2021-08-05T14:04:06.110Z</time>
      </trkpt>
      <trkpt lat="46.97238" lon="8.78187">
        <ele>642</ele>
        <time>2021-08-05T14:04:07.111Z</time>
      </trkpt>
      <trkpt lat="46.97238" lon="8.78189">
        <ele>642</ele>
        <time>2021-08-05T14:04:08.110Z</time>
      </trkpt>
      <trkpt lat="46.97238" lon="8.78191">
        <ele>643</ele>
        <time>2021-08-05T14:04:09.111Z</time>
      </trkpt>
      <trkpt lat="46.97237" lon="8.78192">
        <ele>643</ele>
        <time>2021-08-05T14:04:10.110Z</time>
      </trkpt>
      <trkpt lat="46.97237" lon="8.78194">
        <ele>643</ele>
        <time>2021-08-05T14:04:11.110Z</time>
      </trkpt>
      <trkpt lat="46.97237" lon="8.78196">
        <ele>643</ele>
        <time>2021-08-05T14:04:12.110Z</time>
      </trkpt>
      <trkpt lat="46.97237" lon="8.78198">
        <ele>644</ele>
        <time>2021-08-05T14:04:13.110Z</time>
      </trkpt>
      <trkpt lat="46.97237" lon="8.782">
        <ele>644</ele>
        <time>2021-08-05T14:04:14.110Z</time>
      </trkpt>
      <trkpt lat="46.97237" lon="8.78203">
        <ele>644</ele>
        <time>2021-08-05T14:04:15.110Z</time>
      </trkpt>
      <trkpt lat="46.97236" lon="8.78205">
        <ele>644</ele>
        <time>2021-08-05T14:04:16.110Z</time>
      </trkpt>
      <trkpt lat="46.97236" lon="8.78206">
        <ele>644</ele>
        <time>2021-08-05T14:04:17.110Z</time>
      </trkpt>
      <trkpt lat="46.97236" lon="8.78208">
        <ele>644</ele>
        <time>2021-08-05T14:04:18.110Z</time>
      </trkpt>
      <trkpt lat="46.97236" lon="8.7821">
        <ele>644</ele>
        <time>2021-08-05T14:04:19.110Z</time>
      </trkpt>
      <trkpt lat="46.97235" lon="8.78211">
        <ele>644</ele>
        <time>2021-08-05T14:04:20.110Z</time>
      </trkpt>
      <trkpt lat="46.97235" lon="8.78213">
        <ele>645</ele>
        <time>2021-08-05T14:04:21.110Z</time>
      </trkpt>
      <trkpt lat="46.97234" lon="8.78214">
        <ele>645</ele>
        <time>2021-08-05T14:04:22.110Z</time>
      </trkpt>
      <trkpt lat="46.97234" lon="8.78215">
        <ele>645</ele>
        <time>2021-08-05T14:04:23.110Z</time>
      </trkpt>
      <trkpt lat="46.97233" lon="8.78215">
        <ele>646</ele>
        <time>2021-08-05T14:04:24.111Z</time>
      </trkpt>
      <trkpt lat="46.97233" lon="8.78216">
        <ele>646</ele>
        <time>2021-08-05T14:04:25.110Z</time>
      </trkpt>
      <trkpt lat="46.97233" lon="8.78217">
        <ele>646</ele>
        <time>2021-08-05T14:04:26.110Z</time>
      </trkpt>
      <trkpt lat="46.97233" lon="8.78219">
        <ele>645</ele>
        <time>2021-08-05T14:04:27.110Z</time>
      </trkpt>
      <trkpt lat="46.97233" lon="8.78221">
        <ele>645</ele>
        <time>2021-08-05T14:04:28.110Z</time>
      </trkpt>
      <trkpt lat="46.97232" lon="8.78222">
        <ele>644</ele>
        <time>2021-08-05T14:04:29.110Z</time>
      </trkpt>
      <trkpt lat="46.97231" lon="8.78225">
        <ele>644</ele>
        <time>2021-08-05T14:04:30.110Z</time>
      </trkpt>
      <trkpt lat="46.9723" lon="8.78228">
        <ele>643</ele>
        <time>2021-08-05T14:04:31.110Z</time>
      </trkpt>
      <trkpt lat="46.9723" lon="8.7823">
        <ele>642</ele>
        <time>2021-08-05T14:04:32.111Z</time>
      </trkpt>
      <trkpt lat="46.97229" lon="8.78232">
        <ele>642</ele>
        <time>2021-08-05T14:04:33.111Z</time>
      </trkpt>
      <trkpt lat="46.97229" lon="8.78233">
        <ele>641</ele>
        <time>2021-08-05T14:04:34.110Z</time>
      </trkpt>
      <trkpt lat="46.97229" lon="8.78235">
        <ele>641</ele>
        <time>2021-08-05T14:04:35.110Z</time>
      </trkpt>
      <trkpt lat="46.97229" lon="8.78237">
        <ele>640</ele>
        <time>2021-08-05T14:04:36.110Z</time>
      </trkpt>
      <trkpt lat="46.97228" lon="8.78238">
        <ele>640</ele>
        <time>2021-08-05T14:04:37.111Z</time>
      </trkpt>
      <trkpt lat="46.97228" lon="8.78239">
        <ele>640</ele>
        <time>2021-08-05T14:04:38.111Z</time>
      </trkpt>
      <trkpt lat="46.97228" lon="8.78241">
        <ele>640</ele>
        <time>2021-08-05T14:04:39.111Z</time>
      </trkpt>
      <trkpt lat="46.97228" lon="8.78242">
        <ele>640</ele>
        <time>2021-08-05T14:04:40.111Z</time>
      </trkpt>
      <trkpt lat="46.97228" lon="8.78243">
        <ele>640</ele>
        <time>2021-08-05T14:04:41.111Z</time>
      </trkpt>
      <trkpt lat="46.97227" lon="8.78245">
        <ele>641</ele>
        <time>2021-08-05T14:04:42.110Z</time>
      </trkpt>
      <trkpt lat="46.97227" lon="8.78246">
        <ele>641</ele>
        <time>2021-08-05T14:04:43.111Z</time>
      </trkpt>
      <trkpt lat="46.97227" lon="8.78248">
        <ele>641</ele>
        <time>2021-08-05T14:04:44.111Z</time>
      </trkpt>
      <trkpt lat="46.97227" lon="8.7825">
        <ele>641</ele>
        <time>2021-08-05T14:04:45.111Z</time>
      </trkpt>
      <trkpt lat="46.97227" lon="8.78251">
        <ele>642</ele>
        <time>2021-08-05T14:04:46.111Z</time>
      </trkpt>
      <trkpt lat="46.97226" lon="8.78253">
        <ele>642</ele>
        <time>2021-08-05T14:04:47.110Z</time>
      </trkpt>
      <trkpt lat="46.97226" lon="8.78255">
        <ele>642</ele>
        <time>2021-08-05T14:04:48.110Z</time>
      </trkpt>
      <trkpt lat="46.97226" lon="8.78257">
        <ele>642</ele>
        <time>2021-08-05T14:04:49.111Z</time>
      </trkpt>
      <trkpt lat="46.97225" lon="8.78259">
        <ele>641</ele>
        <time>2021-08-05T14:04:50.110Z</time>
      </trkpt>
      <trkpt lat="46.97225" lon="8.7826">
        <ele>641</ele>
        <time>2021-08-05T14:04:51.111Z</time>
      </trkpt>
      <trkpt lat="46.97224" lon="8.78262">
        <ele>641</ele>
        <time>2021-08-05T14:04:52.110Z</time>
      </trkpt>
      <trkpt lat="46.97223" lon="8.78264">
        <ele>641</ele>
        <time>2021-08-05T14:04:53.111Z</time>
      </trkpt>
      <trkpt lat="46.97223" lon="8.78266">
        <ele>641</ele>
        <time>2021-08-05T14:04:54.111Z</time>
      </trkpt>
      <trkpt lat="46.97222" lon="8.78267">
        <ele>641</ele>
        <time>2021-08-05T14:04:55.111Z</time>
      </trkpt>
      <trkpt lat="46.97222" lon="8.78269">
        <ele>640</ele>
        <time>2021-08-05T14:04:56.110Z</time>
      </trkpt>
      <trkpt lat="46.97222" lon="8.78271">
        <ele>640</ele>
        <time>2021-08-05T14:04:57.110Z</time>
      </trkpt>
      <trkpt lat="46.97222" lon="8.78273">
        <ele>640</ele>
        <time>2021-08-05T14:04:58.110Z</time>
      </trkpt>
      <trkpt lat="46.97221" lon="8.78274">
        <ele>640</ele>
        <time>2021-08-05T14:04:59.111Z</time>
      </trkpt>
      <trkpt lat="46.97222" lon="8.78277">
        <ele>640</ele>
        <time>2021-08-05T14:05:00.110Z</time>
      </trkpt>
      <trkpt lat="46.97222" lon="8.78279">
        <ele>640</ele>
        <time>2021-08-05T14:05:01.111Z</time>
      </trkpt>
      <trkpt lat="46.97222" lon="8.78281">
        <ele>640</ele>
        <time>2021-08-05T14:05:02.111Z</time>
      </trkpt>
      <trkpt lat="46.97221" lon="8.78282">
        <ele>640</ele>
        <time>2021-08-05T14:05:03.111Z</time>
      </trkpt>
      <trkpt lat="46.97221" lon="8.78283">
        <ele>640</ele>
        <time>2021-08-05T14:05:04.110Z</time>
      </trkpt>
      <trkpt lat="46.9722" lon="8.78285">
        <ele>640</ele>
        <time>2021-08-05T14:05:05.111Z</time>
      </trkpt>
      <trkpt lat="46.9722" lon="8.78286">
        <ele>640</ele>
        <time>2021-08-05T14:05:06.111Z</time>
      </trkpt>
      <trkpt lat="46.97219" lon="8.78288">
        <ele>640</ele>
        <time>2021-08-05T14:05:07.111Z</time>
      </trkpt>
      <trkpt lat="46.97219" lon="8.78289">
        <ele>640</ele>
        <time>2021-08-05T14:05:08.110Z</time>
      </trkpt>
      <trkpt lat="46.97219" lon="8.78291">
        <ele>640</ele>
        <time>2021-08-05T14:05:09.111Z</time>
      </trkpt>
      <trkpt lat="46.97218" lon="8.78292">
        <ele>640</ele>
        <time>2021-08-05T14:05:10.110Z</time>
      </trkpt>
      <trkpt lat="46.97218" lon="8.78294">
        <ele>639</ele>
        <time>2021-08-05T14:05:11.110Z</time>
      </trkpt>
      <trkpt lat="46.97217" lon="8.78296">
        <ele>639</ele>
        <time>2021-08-05T14:05:12.110Z</time>
      </trkpt>
      <trkpt lat="46.97216" lon="8.78297">
        <ele>640</ele>
        <time>2021-08-05T14:05:13.110Z</time>
      </trkpt>
      <trkpt lat="46.97216" lon="8.78298">
        <ele>640</ele>
        <time>2021-08-05T14:05:14.111Z</time>
      </trkpt>
      <trkpt lat="46.97215" lon="8.78299">
        <ele>640</ele>
        <time>2021-08-05T14:05:15.111Z</time>
      </trkpt>
      <trkpt lat="46.97215" lon="8.78301">
        <ele>641</ele>
        <time>2021-08-05T14:05:16.111Z</time>
      </trkpt>
      <trkpt lat="46.97215" lon="8.78302">
        <ele>641</ele>
        <time>2021-08-05T14:05:17.111Z</time>
      </trkpt>
      <trkpt lat="46.97214" lon="8.78304">
        <ele>641</ele>
        <time>2021-08-05T14:05:18.111Z</time>
      </trkpt>
      <trkpt lat="46.97214" lon="8.78306">
        <ele>641</ele>
        <time>2021-08-05T14:05:19.111Z</time>
      </trkpt>
      <trkpt lat="46.97213" lon="8.78308">
        <ele>641</ele>
        <time>2021-08-05T14:05:20.111Z</time>
      </trkpt>
      <trkpt lat="46.97212" lon="8.7831">
        <ele>641</ele>
        <time>2021-08-05T14:05:21.110Z</time>
      </trkpt>
      <trkpt lat="46.97211" lon="8.78312">
        <ele>641</ele>
        <time>2021-08-05T14:05:22.110Z</time>
      </trkpt>
      <trkpt lat="46.97211" lon="8.78314">
        <ele>641</ele>
        <time>2021-08-05T14:05:23.111Z</time>
      </trkpt>
      <trkpt lat="46.97211" lon="8.78315">
        <ele>641</ele>
        <time>2021-08-05T14:05:24.111Z</time>
      </trkpt>
      <trkpt lat="46.97211" lon="8.78317">
        <ele>641</ele>
        <time>2021-08-05T14:05:25.110Z</time>
      </trkpt>
      <trkpt lat="46.9721" lon="8.78319">
        <ele>641</ele>
        <time>2021-08-05T14:05:26.110Z</time>
      </trkpt>
      <trkpt lat="46.9721" lon="8.7832">
        <ele>641</ele>
        <time>2021-08-05T14:05:27.110Z</time>
      </trkpt>
      <trkpt lat="46.9721" lon="8.78321">
        <ele>641</ele>
        <time>2021-08-05T14:05:28.111Z</time>
      </trkpt>
      <trkpt lat="46.97209" lon="8.78323">
        <ele>642</ele>
        <time>2021-08-05T14:05:29.110Z</time>
      </trkpt>
      <trkpt lat="46.97209" lon="8.78325">
        <ele>642</ele>
        <time>2021-08-05T14:05:30.110Z</time>
      </trkpt>
      <trkpt lat="46.97209" lon="8.78326">
        <ele>642</ele>
        <time>2021-08-05T14:05:31.111Z</time>
      </trkpt>
      <trkpt lat="46.97208" lon="8.78328">
        <ele>642</ele>
        <time>2021-08-05T14:05:32.111Z</time>
      </trkpt>
      <trkpt lat="46.97208" lon="8.78329">
        <ele>642</ele>
        <time>2021-08-05T14:05:33.111Z</time>
      </trkpt>
      <trkpt lat="46.97208" lon="8.78331">
        <ele>641</ele>
        <time>2021-08-05T14:05:34.110Z</time>
      </trkpt>
      <trkpt lat="46.97207" lon="8.78333">
        <ele>641</ele>
        <time>2021-08-05T14:05:35.110Z</time>
      </trkpt>
      <trkpt lat="46.97207" lon="8.78334">
        <ele>641</ele>
        <time>2021-08-05T14:05:36.111Z</time>
      </trkpt>
      <trkpt lat="46.97207" lon="8.78336">
        <ele>641</ele>
        <time>2021-08-05T14:05:37.110Z</time>
      </trkpt>
      <trkpt lat="46.97206" lon="8.78337">
        <ele>641</ele>
        <time>2021-08-05T14:05:38.111Z</time>
      </trkpt>
      <trkpt lat="46.97206" lon="8.78339">
        <ele>641</ele>
        <time>2021-08-05T14:05:39.111Z</time>
      </trkpt>
      <trkpt lat="46.97205" lon="8.7834">
        <ele>641</ele>
        <time>2021-08-05T14:05:40.110Z</time>
      </trkpt>
      <trkpt lat="46.97205" lon="8.78342">
        <ele>641</ele>
        <time>2021-08-05T14:05:41.111Z</time>
      </trkpt>
      <trkpt lat="46.97204" lon="8.78344">
        <ele>641</ele>
        <time>2021-08-05T14:05:42.110Z</time>
      </trkpt>
      <trkpt lat="46.97204" lon="8.78346">
        <ele>641</ele>
        <time>2021-08-05T14:05:43.111Z</time>
      </trkpt>
      <trkpt lat="46.97202" lon="8.78347">
        <ele>641</ele>
        <time>2021-08-05T14:05:44.111Z</time>
      </trkpt>
      <trkpt lat="46.97202" lon="8.78348">
        <ele>641</ele>
        <time>2021-08-05T14:05:45.111Z</time>
      </trkpt>
      <trkpt lat="46.97201" lon="8.7835">
        <ele>641</ele>
        <time>2021-08-05T14:05:46.110Z</time>
      </trkpt>
      <trkpt lat="46.97201" lon="8.78352">
        <ele>641</ele>
        <time>2021-08-05T14:05:47.111Z</time>
      </trkpt>
      <trkpt lat="46.97201" lon="8.78353">
        <ele>641</ele>
        <time>2021-08-05T14:05:48.110Z</time>
      </trkpt>
      <trkpt lat="46.97201" lon="8.78355">
        <ele>640</ele>
        <time>2021-08-05T14:05:49.111Z</time>
      </trkpt>
      <trkpt lat="46.97201" lon="8.78356">
        <ele>640</ele>
        <time>2021-08-05T14:05:50.111Z</time>
      </trkpt>
      <trkpt lat="46.97201" lon="8.78358">
        <ele>640</ele>
        <time>2021-08-05T14:05:51.110Z</time>
      </trkpt>
      <trkpt lat="46.97201" lon="8.78359">
        <ele>640</ele>
        <time>2021-08-05T14:05:52.110Z</time>
      </trkpt>
      <trkpt lat="46.97201" lon="8.78361">
        <ele>641</ele>
        <time>2021-08-05T14:05:53.111Z</time>
      </trkpt>
      <trkpt lat="46.972" lon="8.78363">
        <ele>641</ele>
        <time>2021-08-05T14:05:54.111Z</time>
      </trkpt>
      <trkpt lat="46.972" lon="8.78365">
        <ele>641</ele>
        <time>2021-08-05T14:05:55.110Z</time>
      </trkpt>
      <trkpt lat="46.972" lon="8.78366">
        <ele>641</ele>
        <time>2021-08-05T14:05:56.111Z</time>
      </trkpt>
      <trkpt lat="46.97199" lon="8.78368">
        <ele>641</ele>
        <time>2021-08-05T14:05:57.111Z</time>
      </trkpt>
      <trkpt lat="46.97199" lon="8.78369">
        <ele>642</ele>
        <time>2021-08-05T14:05:58.110Z</time>
      </trkpt>
      <trkpt lat="46.97198" lon="8.78371">
        <ele>642</ele>
        <time>2021-08-05T14:05:59.111Z</time>
      </trkpt>
      <trkpt lat="46.97198" lon="8.78372">
        <ele>642</ele>
        <time>2021-08-05T14:06:00.110Z</time>
      </trkpt>
      <trkpt lat="46.97197" lon="8.78374">
        <ele>643</ele>
        <time>2021-08-05T14:06:01.110Z</time>
      </trkpt>
      <trkpt lat="46.97196" lon="8.78376">
        <ele>644</ele>
        <time>2021-08-05T14:06:02.110Z</time>
      </trkpt>
      <trkpt lat="46.97196" lon="8.78378">
        <ele>644</ele>
        <time>2021-08-05T14:06:03.110Z</time>
      </trkpt>
      <trkpt lat="46.97195" lon="8.7838">
        <ele>645</ele>
        <time>2021-08-05T14:06:04.111Z</time>
      </trkpt>
      <trkpt lat="46.97195" lon="8.78383">
        <ele>646</ele>
        <time>2021-08-05T14:06:05.111Z</time>
      </trkpt>
      <trkpt lat="46.97194" lon="8.78385">
        <ele>646</ele>
        <time>2021-08-05T14:06:06.111Z</time>
      </trkpt>
      <trkpt lat="46.97194" lon="8.78387">
        <ele>647</ele>
        <time>2021-08-05T14:06:07.111Z</time>
      </trkpt>
      <trkpt lat="46.97194" lon="8.78388">
        <ele>647</ele>
        <time>2021-08-05T14:06:08.111Z</time>
      </trkpt>
      <trkpt lat="46.97194" lon="8.7839">
        <ele>647</ele>
        <time>2021-08-05T14:06:09.111Z</time>
      </trkpt>
      <trkpt lat="46.97193" lon="8.78391">
        <ele>647</ele>
        <time>2021-08-05T14:06:10.111Z</time>
      </trkpt>
      <trkpt lat="46.97192" lon="8.78393">
        <ele>648</ele>
        <time>2021-08-05T14:06:11.110Z</time>
      </trkpt>
      <trkpt lat="46.97191" lon="8.78394">
        <ele>648</ele>
        <time>2021-08-05T14:06:12.110Z</time>
      </trkpt>
      <trkpt lat="46.97191" lon="8.78396">
        <ele>648</ele>
        <time>2021-08-05T14:06:13.110Z</time>
      </trkpt>
      <trkpt lat="46.9719" lon="8.78398">
        <ele>648</ele>
        <time>2021-08-05T14:06:14.111Z</time>
      </trkpt>
      <trkpt lat="46.9719" lon="8.784">
        <ele>648</ele>
        <time>2021-08-05T14:06:15.111Z</time>
      </trkpt>
      <trkpt lat="46.97191" lon="8.78403">
        <ele>647</ele>
        <time>2021-08-05T14:06:16.110Z</time>
      </trkpt>
      <trkpt lat="46.97191" lon="8.78404">
        <ele>647</ele>
        <time>2021-08-05T14:06:17.111Z</time>
      </trkpt>
      <trkpt lat="46.97191" lon="8.78406">
        <ele>646</ele>
        <time>2021-08-05T14:06:18.111Z</time>
      </trkpt>
      <trkpt lat="46.9719" lon="8.78407">
        <ele>646</ele>
        <time>2021-08-05T14:06:19.111Z</time>
      </trkpt>
      <trkpt lat="46.9719" lon="8.78409">
        <ele>646</ele>
        <time>2021-08-05T14:06:20.111Z</time>
      </trkpt>
      <trkpt lat="46.97189" lon="8.78411">
        <ele>646</ele>
        <time>2021-08-05T14:06:21.111Z</time>
      </trkpt>
      <trkpt lat="46.97189" lon="8.78412">
        <ele>645</ele>
        <time>2021-08-05T14:06:22.111Z</time>
      </trkpt>
      <trkpt lat="46.97189" lon="8.78415">
        <ele>645</ele>
        <time>2021-08-05T14:06:23.110Z</time>
      </trkpt>
      <trkpt lat="46.97189" lon="8.78417">
        <ele>645</ele>
        <time>2021-08-05T14:06:24.111Z</time>
      </trkpt>
      <trkpt lat="46.97189" lon="8.78418">
        <ele>644</ele>
        <time>2021-08-05T14:06:25.111Z</time>
      </trkpt>
      <trkpt lat="46.97188" lon="8.7842">
        <ele>644</ele>
        <time>2021-08-05T14:06:26.111Z</time>
      </trkpt>
      <trkpt lat="46.97188" lon="8.78421">
        <ele>644</ele>
        <time>2021-08-05T14:06:27.111Z</time>
      </trkpt>
      <trkpt lat="46.97187" lon="8.78423">
        <ele>644</ele>
        <time>2021-08-05T14:06:28.110Z</time>
      </trkpt>
      <trkpt lat="46.97187" lon="8.78424">
        <ele>644</ele>
        <time>2021-08-05T14:06:29.111Z</time>
      </trkpt>
      <trkpt lat="46.97187" lon="8.78425">
        <ele>644</ele>
        <time>2021-08-05T14:06:30.111Z</time>
      </trkpt>
      <trkpt lat="46.97186" lon="8.78426">
        <ele>644</ele>
        <time>2021-08-05T14:06:31.111Z</time>
      </trkpt>
      <trkpt lat="46.97186" lon="8.78428">
        <ele>644</ele>
        <time>2021-08-05T14:06:32.111Z</time>
      </trkpt>
      <trkpt lat="46.97185" lon="8.78429">
        <ele>644</ele>
        <time>2021-08-05T14:06:33.110Z</time>
      </trkpt>
      <trkpt lat="46.97185" lon="8.7843">
        <ele>644</ele>
        <time>2021-08-05T14:06:34.111Z</time>
      </trkpt>
      <trkpt lat="46.97185" lon="8.78432">
        <ele>644</ele>
        <time>2021-08-05T14:06:35.111Z</time>
      </trkpt>
      <trkpt lat="46.97185" lon="8.78433">
        <ele>645</ele>
        <time>2021-08-05T14:06:36.111Z</time>
      </trkpt>
      <trkpt lat="46.97184" lon="8.78435">
        <ele>645</ele>
        <time>2021-08-05T14:06:37.111Z</time>
      </trkpt>
      <trkpt lat="46.97184" lon="8.78436">
        <ele>646</ele>
        <time>2021-08-05T14:06:38.110Z</time>
      </trkpt>
      <trkpt lat="46.97183" lon="8.78437">
        <ele>646</ele>
        <time>2021-08-05T14:06:39.110Z</time>
      </trkpt>
      <trkpt lat="46.97183" lon="8.78439">
        <ele>647</ele>
        <time>2021-08-05T14:06:40.110Z</time>
      </trkpt>
      <trkpt lat="46.97183" lon="8.7844">
        <ele>647</ele>
        <time>2021-08-05T14:06:41.111Z</time>
      </trkpt>
      <trkpt lat="46.97182" lon="8.78441">
        <ele>647</ele>
        <time>2021-08-05T14:06:42.111Z</time>
      </trkpt>
      <trkpt lat="46.97182" lon="8.78443">
        <ele>647</ele>
        <time>2021-08-05T14:06:43.111Z</time>
      </trkpt>
      <trkpt lat="46.97181" lon="8.78445">
        <ele>647</ele>
        <time>2021-08-05T14:06:44.111Z</time>
      </trkpt>
      <trkpt lat="46.97181" lon="8.78446">
        <ele>647</ele>
        <time>2021-08-05T14:06:45.110Z</time>
      </trkpt>
      <trkpt lat="46.97181" lon="8.78449">
        <ele>647</ele>
        <time>2021-08-05T14:06:46.111Z</time>
      </trkpt>
      <trkpt lat="46.9718" lon="8.7845">
        <ele>647</ele>
        <time>2021-08-05T14:06:47.110Z</time>
      </trkpt>
      <trkpt lat="46.9718" lon="8.78452">
        <ele>647</ele>
        <time>2021-08-05T14:06:48.110Z</time>
      </trkpt>
      <trkpt lat="46.9718" lon="8.78453">
        <ele>648</ele>
        <time>2021-08-05T14:06:49.111Z</time>
      </trkpt>
      <trkpt lat="46.9718" lon="8.78454">
        <ele>648</ele>
        <time>2021-08-05T14:06:50.111Z</time>
      </trkpt>
      <trkpt lat="46.97179" lon="8.78456">
        <ele>648</ele>
        <time>2021-08-05T14:06:51.110Z</time>
      </trkpt>
      <trkpt lat="46.97179" lon="8.78458">
        <ele>648</ele>
        <time>2021-08-05T14:06:52.110Z</time>
      </trkpt>
      <trkpt lat="46.97178" lon="8.78459">
        <ele>648</ele>
        <time>2021-08-05T14:06:53.111Z</time>
      </trkpt>
      <trkpt lat="46.97178" lon="8.78461">
        <ele>648</ele>
        <time>2021-08-05T14:06:54.110Z</time>
      </trkpt>
      <trkpt lat="46.97177" lon="8.78464">
        <ele>648</ele>
        <time>2021-08-05T14:06:55.111Z</time>
      </trkpt>
      <trkpt lat="46.97177" lon="8.78466">
        <ele>648</ele>
        <time>2021-08-05T14:06:56.110Z</time>
      </trkpt>
      <trkpt lat="46.97177" lon="8.78467">
        <ele>647</ele>
        <time>2021-08-05T14:06:57.111Z</time>
      </trkpt>
      <trkpt lat="46.97177" lon="8.78468">
        <ele>647</ele>
        <time>2021-08-05T14:06:58.110Z</time>
      </trkpt>
      <trkpt lat="46.97176" lon="8.78469">
        <ele>648</ele>
        <time>2021-08-05T14:06:59.111Z</time>
      </trkpt>
      <trkpt lat="46.97176" lon="8.78471">
        <ele>648</ele>
        <time>2021-08-05T14:07:00.111Z</time>
      </trkpt>
      <trkpt lat="46.97176" lon="8.78473">
        <ele>648</ele>
        <time>2021-08-05T14:07:01.111Z</time>
      </trkpt>
      <trkpt lat="46.97176" lon="8.78474">
        <ele>648</ele>
        <time>2021-08-05T14:07:02.110Z</time>
      </trkpt>
      <trkpt lat="46.97176" lon="8.78475">
        <ele>648</ele>
        <time>2021-08-05T14:07:03.111Z</time>
      </trkpt>
      <trkpt lat="46.97175" lon="8.78477">
        <ele>648</ele>
        <time>2021-08-05T14:07:04.110Z</time>
      </trkpt>
      <trkpt lat="46.97174" lon="8.78479">
        <ele>649</ele>
        <time>2021-08-05T14:07:05.111Z</time>
      </trkpt>
      <trkpt lat="46.97174" lon="8.78481">
        <ele>649</ele>
        <time>2021-08-05T14:07:06.111Z</time>
      </trkpt>
      <trkpt lat="46.97173" lon="8.78482">
        <ele>649</ele>
        <time>2021-08-05T14:07:07.111Z</time>
      </trkpt>
      <trkpt lat="46.97172" lon="8.78484">
        <ele>649</ele>
        <time>2021-08-05T14:07:08.111Z</time>
      </trkpt>
      <trkpt lat="46.97172" lon="8.78486">
        <ele>649</ele>
        <time>2021-08-05T14:07:09.111Z</time>
      </trkpt>
      <trkpt lat="46.97172" lon="8.78488">
        <ele>649</ele>
        <time>2021-08-05T14:07:10.111Z</time>
      </trkpt>
      <trkpt lat="46.97172" lon="8.7849">
        <ele>649</ele>
        <time>2021-08-05T14:07:11.111Z</time>
      </trkpt>
      <trkpt lat="46.97172" lon="8.78492">
        <ele>650</ele>
        <time>2021-08-05T14:07:12.111Z</time>
      </trkpt>
      <trkpt lat="46.9717" lon="8.78493">
        <ele>650</ele>
        <time>2021-08-05T14:07:13.111Z</time>
      </trkpt>
      <trkpt lat="46.9717" lon="8.78495">
        <ele>651</ele>
        <time>2021-08-05T14:07:14.110Z</time>
      </trkpt>
      <trkpt lat="46.97169" lon="8.78496">
        <ele>651</ele>
        <time>2021-08-05T14:07:15.110Z</time>
      </trkpt>
      <trkpt lat="46.97169" lon="8.78498">
        <ele>652</ele>
        <time>2021-08-05T14:07:16.110Z</time>
      </trkpt>
      <trkpt lat="46.97167" lon="8.785">
        <ele>652</ele>
        <time>2021-08-05T14:07:17.111Z</time>
      </trkpt>
      <trkpt lat="46.97166" lon="8.78502">
        <ele>652</ele>
        <time>2021-08-05T14:07:18.111Z</time>
      </trkpt>
      <trkpt lat="46.97166" lon="8.78504">
        <ele>653</ele>
        <time>2021-08-05T14:07:19.110Z</time>
      </trkpt>
      <trkpt lat="46.97165" lon="8.78506">
        <ele>653</ele>
        <time>2021-08-05T14:07:20.110Z</time>
      </trkpt>
      <trkpt lat="46.97165" lon="8.78508">
        <ele>653</ele>
        <time>2021-08-05T14:07:21.110Z</time>
      </trkpt>
      <trkpt lat="46.97165" lon="8.7851">
        <ele>654</ele>
        <time>2021-08-05T14:07:22.110Z</time>
      </trkpt>
      <trkpt lat="46.97164" lon="8.78511">
        <ele>654</ele>
        <time>2021-08-05T14:07:23.110Z</time>
      </trkpt>
      <trkpt lat="46.97164" lon="8.78512">
        <ele>654</ele>
        <time>2021-08-05T14:07:24.110Z</time>
      </trkpt>
      <trkpt lat="46.97164" lon="8.78513">
        <ele>654</ele>
        <time>2021-08-05T14:07:25.111Z</time>
      </trkpt>
      <trkpt lat="46.97164" lon="8.78514">
        <ele>655</ele>
        <time>2021-08-05T14:07:26.111Z</time>
      </trkpt>
      <trkpt lat="46.97163" lon="8.78516">
        <ele>655</ele>
        <time>2021-08-05T14:07:27.110Z</time>
      </trkpt>
      <trkpt lat="46.97163" lon="8.78518">
        <ele>655</ele>
        <time>2021-08-05T14:07:28.110Z</time>
      </trkpt>
      <trkpt lat="46.97163" lon="8.78519">
        <ele>655</ele>
        <time>2021-08-05T14:07:29.110Z</time>
      </trkpt>
      <trkpt lat="46.97163" lon="8.7852">
        <ele>655</ele>
        <time>2021-08-05T14:07:30.110Z</time>
      </trkpt>
      <trkpt lat="46.97163" lon="8.78521">
        <ele>656</ele>
        <time>2021-08-05T14:07:31.110Z</time>
      </trkpt>
      <trkpt lat="46.97163" lon="8.78523">
        <ele>656</ele>
        <time>2021-08-05T14:07:32.110Z</time>
      </trkpt>
      <trkpt lat="46.97163" lon="8.78524">
        <ele>656</ele>
        <time>2021-08-05T14:07:33.111Z</time>
      </trkpt>
      <trkpt lat="46.97163" lon="8.78525">
        <ele>656</ele>
        <time>2021-08-05T14:07:34.110Z</time>
      </trkpt>
      <trkpt lat="46.97162" lon="8.78525">
        <ele>655</ele>
        <time>2021-08-05T14:07:35.110Z</time>
      </trkpt>
      <trkpt lat="46.97161" lon="8.78526">
        <ele>655</ele>
        <time>2021-08-05T14:07:36.111Z</time>
      </trkpt>
      <trkpt lat="46.97161" lon="8.78527">
        <ele>654</ele>
        <time>2021-08-05T14:07:37.111Z</time>
      </trkpt>
      <trkpt lat="46.9716" lon="8.78527">
        <ele>654</ele>
        <time>2021-08-05T14:07:38.110Z</time>
      </trkpt>
      <trkpt lat="46.9716" lon="8.78528">
        <ele>654</ele>
        <time>2021-08-05T14:07:39.110Z</time>
      </trkpt>
      <trkpt lat="46.97159" lon="8.7853">
        <ele>653</ele>
        <time>2021-08-05T14:07:40.110Z</time>
      </trkpt>
      <trkpt lat="46.97159" lon="8.78531">
        <ele>653</ele>
        <time>2021-08-05T14:07:41.110Z</time>
      </trkpt>
      <trkpt lat="46.97158" lon="8.78533">
        <ele>653</ele>
        <time>2021-08-05T14:07:42.110Z</time>
      </trkpt>
      <trkpt lat="46.97158" lon="8.78535">
        <ele>653</ele>
        <time>2021-08-05T14:07:43.111Z</time>
      </trkpt>
      <trkpt lat="46.97157" lon="8.78537">
        <ele>654</ele>
        <time>2021-08-05T14:07:44.111Z</time>
      </trkpt>
      <trkpt lat="46.97157" lon="8.78539">
        <ele>654</ele>
        <time>2021-08-05T14:07:45.110Z</time>
      </trkpt>
      <trkpt lat="46.97156" lon="8.78541">
        <ele>655</ele>
        <time>2021-08-05T14:07:46.110Z</time>
      </trkpt>
      <trkpt lat="46.97156" lon="8.78545">
        <ele>656</ele>
        <time>2021-08-05T14:07:47.111Z</time>
      </trkpt>
      <trkpt lat="46.97156" lon="8.78547">
        <ele>656</ele>
        <time>2021-08-05T14:07:48.110Z</time>
      </trkpt>
      <trkpt lat="46.97156" lon="8.78549">
        <ele>657</ele>
        <time>2021-08-05T14:07:49.110Z</time>
      </trkpt>
      <trkpt lat="46.97155" lon="8.7855">
        <ele>658</ele>
        <time>2021-08-05T14:07:50.110Z</time>
      </trkpt>
      <trkpt lat="46.97155" lon="8.78551">
        <ele>658</ele>
        <time>2021-08-05T14:07:51.111Z</time>
      </trkpt>
      <trkpt lat="46.97155" lon="8.78552">
        <ele>659</ele>
        <time>2021-08-05T14:07:52.110Z</time>
      </trkpt>
      <trkpt lat="46.97155" lon="8.78555">
        <ele>659</ele>
        <time>2021-08-05T14:07:53.111Z</time>
      </trkpt>
      <trkpt lat="46.97154" lon="8.78557">
        <ele>660</ele>
        <time>2021-08-05T14:07:54.110Z</time>
      </trkpt>
      <trkpt lat="46.97154" lon="8.78559">
        <ele>660</ele>
        <time>2021-08-05T14:07:55.111Z</time>
      </trkpt>
      <trkpt lat="46.97153" lon="8.78561">
        <ele>661</ele>
        <time>2021-08-05T14:07:56.111Z</time>
      </trkpt>
      <trkpt lat="46.97154" lon="8.78562">
        <ele>661</ele>
        <time>2021-08-05T14:07:57.110Z</time>
      </trkpt>
      <trkpt lat="46.97153" lon="8.78564">
        <ele>661</ele>
        <time>2021-08-05T14:07:58.110Z</time>
      </trkpt>
      <trkpt lat="46.97152" lon="8.78565">
        <ele>661</ele>
        <time>2021-08-05T14:07:59.110Z</time>
      </trkpt>
      <trkpt lat="46.97152" lon="8.78566">
        <ele>661</ele>
        <time>2021-08-05T14:08:00.110Z</time>
      </trkpt>
      <trkpt lat="46.97151" lon="8.78567">
        <ele>660</ele>
        <time>2021-08-05T14:08:01.110Z</time>
      </trkpt>
      <trkpt lat="46.9715" lon="8.78569">
        <ele>660</ele>
        <time>2021-08-05T14:08:02.111Z</time>
      </trkpt>
      <trkpt lat="46.9715" lon="8.78569">
        <ele>660</ele>
        <time>2021-08-05T14:08:03.110Z</time>
      </trkpt>
      <trkpt lat="46.9715" lon="8.7857">
        <ele>659</ele>
        <time>2021-08-05T14:08:04.110Z</time>
      </trkpt>
      <trkpt lat="46.97149" lon="8.78572">
        <ele>658</ele>
        <time>2021-08-05T14:08:05.111Z</time>
      </trkpt>
      <trkpt lat="46.97148" lon="8.78574">
        <ele>658</ele>
        <time>2021-08-05T14:08:06.110Z</time>
      </trkpt>
      <trkpt lat="46.97147" lon="8.78576">
        <ele>658</ele>
        <time>2021-08-05T14:08:07.111Z</time>
      </trkpt>
      <trkpt lat="46.97147" lon="8.78578">
        <ele>658</ele>
        <time>2021-08-05T14:08:08.111Z</time>
      </trkpt>
      <trkpt lat="46.97147" lon="8.7858">
        <ele>657</ele>
        <time>2021-08-05T14:08:09.111Z</time>
      </trkpt>
      <trkpt lat="46.97146" lon="8.78581">
        <ele>657</ele>
        <time>2021-08-05T14:08:10.110Z</time>
      </trkpt>
      <trkpt lat="46.97146" lon="8.78582">
        <ele>657</ele>
        <time>2021-08-05T14:08:11.111Z</time>
      </trkpt>
      <trkpt lat="46.97145" lon="8.78584">
        <ele>657</ele>
        <time>2021-08-05T14:08:12.110Z</time>
      </trkpt>
      <trkpt lat="46.97145" lon="8.78586">
        <ele>657</ele>
        <time>2021-08-05T14:08:13.111Z</time>
      </trkpt>
      <trkpt lat="46.97145" lon="8.78587">
        <ele>657</ele>
        <time>2021-08-05T14:08:14.111Z</time>
      </trkpt>
      <trkpt lat="46.97144" lon="8.78589">
        <ele>657</ele>
        <time>2021-08-05T14:08:15.110Z</time>
      </trkpt>
      <trkpt lat="46.97144" lon="8.78591">
        <ele>657</ele>
        <time>2021-08-05T14:08:16.110Z</time>
      </trkpt>
      <trkpt lat="46.97144" lon="8.78593">
        <ele>656</ele>
        <time>2021-08-05T14:08:17.110Z</time>
      </trkpt>
      <trkpt lat="46.97144" lon="8.78595">
        <ele>656</ele>
        <time>2021-08-05T14:08:18.110Z</time>
      </trkpt>
      <trkpt lat="46.97143" lon="8.78596">
        <ele>655</ele>
        <time>2021-08-05T14:08:19.110Z</time>
      </trkpt>
      <trkpt lat="46.97143" lon="8.78598">
        <ele>655</ele>
        <time>2021-08-05T14:08:20.110Z</time>
      </trkpt>
      <trkpt lat="46.97142" lon="8.786">
        <ele>654</ele>
        <time>2021-08-05T14:08:21.110Z</time>
      </trkpt>
      <trkpt lat="46.97142" lon="8.78602">
        <ele>654</ele>
        <time>2021-08-05T14:08:22.111Z</time>
      </trkpt>
      <trkpt lat="46.97142" lon="8.78603">
        <ele>654</ele>
        <time>2021-08-05T14:08:23.110Z</time>
      </trkpt>
      <trkpt lat="46.97141" lon="8.78604">
        <ele>654</ele>
        <time>2021-08-05T14:08:24.110Z</time>
      </trkpt>
      <trkpt lat="46.97141" lon="8.78606">
        <ele>654</ele>
        <time>2021-08-05T14:08:25.111Z</time>
      </trkpt>
      <trkpt lat="46.97141" lon="8.78607">
        <ele>654</ele>
        <time>2021-08-05T14:08:26.110Z</time>
      </trkpt>
      <trkpt lat="46.9714" lon="8.78609">
        <ele>654</ele>
        <time>2021-08-05T14:08:27.110Z</time>
      </trkpt>
      <trkpt lat="46.9714" lon="8.78611">
        <ele>654</ele>
        <time>2021-08-05T14:08:28.110Z</time>
      </trkpt>
      <trkpt lat="46.97139" lon="8.78612">
        <ele>653</ele>
        <time>2021-08-05T14:08:29.111Z</time>
      </trkpt>
      <trkpt lat="46.97139" lon="8.78614">
        <ele>653</ele>
        <time>2021-08-05T14:08:30.111Z</time>
      </trkpt>
      <trkpt lat="46.97139" lon="8.78616">
        <ele>653</ele>
        <time>2021-08-05T14:08:31.111Z</time>
      </trkpt>
      <trkpt lat="46.97138" lon="8.78618">
        <ele>652</ele>
        <time>2021-08-05T14:08:32.111Z</time>
      </trkpt>
      <trkpt lat="46.97138" lon="8.7862">
        <ele>652</ele>
        <time>2021-08-05T14:08:33.110Z</time>
      </trkpt>
      <trkpt lat="46.97138" lon="8.78621">
        <ele>653</ele>
        <time>2021-08-05T14:08:34.110Z</time>
      </trkpt>
      <trkpt lat="46.97137" lon="8.78623">
        <ele>653</ele>
        <time>2021-08-05T14:08:35.111Z</time>
      </trkpt>
      <trkpt lat="46.97137" lon="8.78624">
        <ele>653</ele>
        <time>2021-08-05T14:08:36.110Z</time>
      </trkpt>
      <trkpt lat="46.97137" lon="8.78625">
        <ele>653</ele>
        <time>2021-08-05T14:08:37.111Z</time>
      </trkpt>
      <trkpt lat="46.97137" lon="8.78627">
        <ele>653</ele>
        <time>2021-08-05T14:08:38.111Z</time>
      </trkpt>
      <trkpt lat="46.97136" lon="8.78629">
        <ele>653</ele>
        <time>2021-08-05T14:08:39.111Z</time>
      </trkpt>
      <trkpt lat="46.97136" lon="8.7863">
        <ele>653</ele>
        <time>2021-08-05T14:08:40.111Z</time>
      </trkpt>
      <trkpt lat="46.97136" lon="8.78632">
        <ele>652</ele>
        <time>2021-08-05T14:08:41.111Z</time>
      </trkpt>
      <trkpt lat="46.97136" lon="8.78634">
        <ele>652</ele>
        <time>2021-08-05T14:08:42.111Z</time>
      </trkpt>
      <trkpt lat="46.97136" lon="8.78636">
        <ele>651</ele>
        <time>2021-08-05T14:08:43.111Z</time>
      </trkpt>
      <trkpt lat="46.97135" lon="8.78637">
        <ele>651</ele>
        <time>2021-08-05T14:08:44.111Z</time>
      </trkpt>
      <trkpt lat="46.97134" lon="8.78639">
        <ele>651</ele>
        <time>2021-08-05T14:08:45.111Z</time>
      </trkpt>
      <trkpt lat="46.97134" lon="8.78641">
        <ele>651</ele>
        <time>2021-08-05T14:08:46.111Z</time>
      </trkpt>
      <trkpt lat="46.97134" lon="8.78643">
        <ele>651</ele>
        <time>2021-08-05T14:08:47.110Z</time>
      </trkpt>
      <trkpt lat="46.97133" lon="8.78644">
        <ele>651</ele>
        <time>2021-08-05T14:08:48.111Z</time>
      </trkpt>
      <trkpt lat="46.97132" lon="8.78646">
        <ele>651</ele>
        <time>2021-08-05T14:08:49.111Z</time>
      </trkpt>
      <trkpt lat="46.9713" lon="8.78647">
        <ele>651</ele>
        <time>2021-08-05T14:08:50.111Z</time>
      </trkpt>
      <trkpt lat="46.97129" lon="8.78648">
        <ele>651</ele>
        <time>2021-08-05T14:08:51.111Z</time>
      </trkpt>
      <trkpt lat="46.97129" lon="8.78649">
        <ele>651</ele>
        <time>2021-08-05T14:08:52.111Z</time>
      </trkpt>
      <trkpt lat="46.97128" lon="8.7865">
        <ele>651</ele>
        <time>2021-08-05T14:08:53.111Z</time>
      </trkpt>
      <trkpt lat="46.97128" lon="8.7865">
        <ele>650</ele>
        <time>2021-08-05T14:08:54.111Z</time>
      </trkpt>
      <trkpt lat="46.97127" lon="8.78651">
        <ele>649</ele>
        <time>2021-08-05T14:08:55.110Z</time>
      </trkpt>
      <trkpt lat="46.97126" lon="8.78652">
        <ele>648</ele>
        <time>2021-08-05T14:08:56.110Z</time>
      </trkpt>
      <trkpt lat="46.97125" lon="8.78653">
        <ele>648</ele>
        <time>2021-08-05T14:08:57.111Z</time>
      </trkpt>
      <trkpt lat="46.97124" lon="8.78654">
        <ele>647</ele>
        <time>2021-08-05T14:08:58.111Z</time>
      </trkpt>
      <trkpt lat="46.97123" lon="8.78655">
        <ele>647</ele>
        <time>2021-08-05T14:08:59.111Z</time>
      </trkpt>
      <trkpt lat="46.97122" lon="8.78656">
        <ele>647</ele>
        <time>2021-08-05T14:09:00.110Z</time>
      </trkpt>
      <trkpt lat="46.97121" lon="8.78657">
        <ele>646</ele>
        <time>2021-08-05T14:09:01.110Z</time>
      </trkpt>
      <trkpt lat="46.9712" lon="8.78657">
        <ele>645</ele>
        <time>2021-08-05T14:09:02.111Z</time>
      </trkpt>
      <trkpt lat="46.97119" lon="8.78657">
        <ele>645</ele>
        <time>2021-08-05T14:09:03.111Z</time>
      </trkpt>
      <trkpt lat="46.97118" lon="8.78658">
        <ele>644</ele>
        <time>2021-08-05T14:09:04.110Z</time>
      </trkpt>
      <trkpt lat="46.97117" lon="8.78658">
        <ele>644</ele>
        <time>2021-08-05T14:09:05.111Z</time>
      </trkpt>
      <trkpt lat="46.97117" lon="8.78659">
        <ele>644</ele>
        <time>2021-08-05T14:09:06.110Z</time>
      </trkpt>
      <trkpt lat="46.97116" lon="8.78659">
        <ele>643</ele>
        <time>2021-08-05T14:09:07.111Z</time>
      </trkpt>
      <trkpt lat="46.97116" lon="8.78659">
        <ele>643</ele>
        <time>2021-08-05T14:09:08.111Z</time>
      </trkpt>
      <trkpt lat="46.97115" lon="8.78659">
        <ele>643</ele>
        <time>2021-08-05T14:09:09.110Z</time>
      </trkpt>
      <trkpt lat="46.97116" lon="8.78659">
        <ele>642</ele>
        <time>2021-08-05T14:09:10.111Z</time>
      </trkpt>
      <trkpt lat="46.97141" lon="8.7867">
        <ele>641</ele>
        <time>2021-08-05T14:10:53.111Z</time>
      </trkpt>
      <trkpt lat="46.9714" lon="8.78674">
        <ele>639</ele>
        <time>2021-08-05T14:10:54.110Z</time>
      </trkpt>
      <trkpt lat="46.97149" lon="8.78678">
        <ele>639</ele>
        <time>2021-08-05T14:10:55.111Z</time>
      </trkpt>
      <trkpt lat="46.97144" lon="8.78676">
        <ele>638</ele>
        <time>2021-08-05T14:10:56.110Z</time>
      </trkpt>
      <trkpt lat="46.97142" lon="8.78677">
        <ele>637</ele>
        <time>2021-08-05T14:10:57.111Z</time>
      </trkpt>
      <trkpt lat="46.97135" lon="8.78676">
        <ele>637</ele>
        <time>2021-08-05T14:10:58.110Z</time>
      </trkpt>
      <trkpt lat="46.97134" lon="8.78677">
        <ele>637</ele>
        <time>2021-08-05T14:10:59.111Z</time>
      </trkpt>
      <trkpt lat="46.97134" lon="8.78679">
        <ele>637</ele>
        <time>2021-08-05T14:11:00.111Z</time>
      </trkpt>
      <trkpt lat="46.97129" lon="8.78678">
        <ele>638</ele>
        <time>2021-08-05T14:11:01.111Z</time>
      </trkpt>
      <trkpt lat="46.97125" lon="8.78677">
        <ele>640</ele>
        <time>2021-08-05T14:11:02.111Z</time>
      </trkpt>
      <trkpt lat="46.97122" lon="8.78678">
        <ele>641</ele>
        <time>2021-08-05T14:11:03.111Z</time>
      </trkpt>
      <trkpt lat="46.97122" lon="8.7868">
        <ele>642</ele>
        <time>2021-08-05T14:11:04.111Z</time>
      </trkpt>
      <trkpt lat="46.97122" lon="8.78683">
        <ele>644</ele>
        <time>2021-08-05T14:11:05.111Z</time>
      </trkpt>
      <trkpt lat="46.97121" lon="8.78685">
        <ele>645</ele>
        <time>2021-08-05T14:11:06.111Z</time>
      </trkpt>
      <trkpt lat="46.97121" lon="8.78687">
        <ele>646</ele>
        <time>2021-08-05T14:11:07.110Z</time>
      </trkpt>
      <trkpt lat="46.97121" lon="8.78688">
        <ele>646</ele>
        <time>2021-08-05T14:11:08.111Z</time>
      </trkpt>
      <trkpt lat="46.9712" lon="8.7869">
        <ele>647</ele>
        <time>2021-08-05T14:11:09.111Z</time>
      </trkpt>
      <trkpt lat="46.97119" lon="8.78692">
        <ele>647</ele>
        <time>2021-08-05T14:11:10.111Z</time>
      </trkpt>
      <trkpt lat="46.97119" lon="8.78694">
        <ele>647</ele>
        <time>2021-08-05T14:11:11.111Z</time>
      </trkpt>
      <trkpt lat="46.97119" lon="8.78696">
        <ele>646</ele>
        <time>2021-08-05T14:11:12.111Z</time>
      </trkpt>
      <trkpt lat="46.97119" lon="8.78697">
        <ele>646</ele>
        <time>2021-08-05T14:11:13.110Z</time>
      </trkpt>
      <trkpt lat="46.97118" lon="8.78699">
        <ele>646</ele>
        <time>2021-08-05T14:11:14.111Z</time>
      </trkpt>
      <trkpt lat="46.97118" lon="8.78701">
        <ele>646</ele>
        <time>2021-08-05T14:11:15.111Z</time>
      </trkpt>
      <trkpt lat="46.97117" lon="8.78702">
        <ele>646</ele>
        <time>2021-08-05T14:11:16.110Z</time>
      </trkpt>
      <trkpt lat="46.97117" lon="8.78704">
        <ele>646</ele>
        <time>2021-08-05T14:11:17.111Z</time>
      </trkpt>
      <trkpt lat="46.97116" lon="8.78706">
        <ele>646</ele>
        <time>2021-08-05T14:11:18.110Z</time>
      </trkpt>
      <trkpt lat="46.97115" lon="8.78707">
        <ele>647</ele>
        <time>2021-08-05T14:11:19.111Z</time>
      </trkpt>
      <trkpt lat="46.97115" lon="8.7871">
        <ele>647</ele>
        <time>2021-08-05T14:11:20.111Z</time>
      </trkpt>
      <trkpt lat="46.97115" lon="8.78711">
        <ele>646</ele>
        <time>2021-08-05T14:11:21.111Z</time>
      </trkpt>
      <trkpt lat="46.97115" lon="8.78712">
        <ele>646</ele>
        <time>2021-08-05T14:11:22.110Z</time>
      </trkpt>
      <trkpt lat="46.97114" lon="8.78714">
        <ele>646</ele>
        <time>2021-08-05T14:11:23.110Z</time>
      </trkpt>
      <trkpt lat="46.97113" lon="8.78715">
        <ele>646</ele>
        <time>2021-08-05T14:11:24.111Z</time>
      </trkpt>
      <trkpt lat="46.97113" lon="8.78717">
        <ele>647</ele>
        <time>2021-08-05T14:11:25.111Z</time>
      </trkpt>
      <trkpt lat="46.97113" lon="8.78718">
        <ele>648</ele>
        <time>2021-08-05T14:11:26.111Z</time>
      </trkpt>
      <trkpt lat="46.97112" lon="8.7872">
        <ele>648</ele>
        <time>2021-08-05T14:11:27.110Z</time>
      </trkpt>
      <trkpt lat="46.97112" lon="8.78722">
        <ele>649</ele>
        <time>2021-08-05T14:11:28.110Z</time>
      </trkpt>
      <trkpt lat="46.97111" lon="8.78723">
        <ele>649</ele>
        <time>2021-08-05T14:11:29.110Z</time>
      </trkpt>
      <trkpt lat="46.97111" lon="8.78725">
        <ele>650</ele>
        <time>2021-08-05T14:11:30.110Z</time>
      </trkpt>
      <trkpt lat="46.9711" lon="8.78726">
        <ele>650</ele>
        <time>2021-08-05T14:11:32.205Z</time>
      </trkpt>
      <trkpt lat="46.97109" lon="8.78727">
        <ele>650</ele>
        <time>2021-08-05T14:11:33.205Z</time>
      </trkpt>
      <trkpt lat="46.97109" lon="8.78729">
        <ele>650</ele>
        <time>2021-08-05T14:11:34.204Z</time>
      </trkpt>
      <trkpt lat="46.97108" lon="8.78731">
        <ele>650</ele>
        <time>2021-08-05T14:11:35.204Z</time>
      </trkpt>
      <trkpt lat="46.97108" lon="8.78733">
        <ele>651</ele>
        <time>2021-08-05T14:11:36.205Z</time>
      </trkpt>
      <trkpt lat="46.97108" lon="8.78734">
        <ele>651</ele>
        <time>2021-08-05T14:11:47.348Z</time>
      </trkpt>
      <trkpt lat="46.97108" lon="8.78736">
        <ele>652</ele>
        <time>2021-08-05T14:11:48.348Z</time>
      </trkpt>
      <trkpt lat="46.97107" lon="8.78737">
        <ele>652</ele>
        <time>2021-08-05T14:11:49.348Z</time>
      </trkpt>
      <trkpt lat="46.97107" lon="8.78739">
        <ele>652</ele>
        <time>2021-08-05T14:11:50.347Z</time>
      </trkpt>
      <trkpt lat="46.97106" lon="8.78741">
        <ele>652</ele>
        <time>2021-08-05T14:11:51.348Z</time>
      </trkpt>
      <trkpt lat="46.97106" lon="8.78743">
        <ele>652</ele>
        <time>2021-08-05T14:11:52.347Z</time>
      </trkpt>
      <trkpt lat="46.97106" lon="8.78745">
        <ele>652</ele>
        <time>2021-08-05T14:11:53.347Z</time>
      </trkpt>
      <trkpt lat="46.97106" lon="8.78747">
        <ele>652</ele>
        <time>2021-08-05T14:11:54.348Z</time>
      </trkpt>
      <trkpt lat="46.97105" lon="8.78748">
        <ele>652</ele>
        <time>2021-08-05T14:11:55.347Z</time>
      </trkpt>
      <trkpt lat="46.97105" lon="8.7875">
        <ele>653</ele>
        <time>2021-08-05T14:11:56.347Z</time>
      </trkpt>
      <trkpt lat="46.97104" lon="8.78751">
        <ele>653</ele>
        <time>2021-08-05T14:11:57.347Z</time>
      </trkpt>
      <trkpt lat="46.97104" lon="8.78752">
        <ele>653</ele>
        <time>2021-08-05T14:11:58.348Z</time>
      </trkpt>
      <trkpt lat="46.97103" lon="8.78754">
        <ele>654</ele>
        <time>2021-08-05T14:11:59.348Z</time>
      </trkpt>
      <trkpt lat="46.97103" lon="8.78755">
        <ele>654</ele>
        <time>2021-08-05T14:12:00.347Z</time>
      </trkpt>
      <trkpt lat="46.97102" lon="8.78756">
        <ele>654</ele>
        <time>2021-08-05T14:12:01.348Z</time>
      </trkpt>
      <trkpt lat="46.97102" lon="8.78758">
        <ele>654</ele>
        <time>2021-08-05T14:12:02.348Z</time>
      </trkpt>
      <trkpt lat="46.97101" lon="8.78759">
        <ele>654</ele>
        <time>2021-08-05T14:12:03.347Z</time>
      </trkpt>
      <trkpt lat="46.97101" lon="8.7876">
        <ele>654</ele>
        <time>2021-08-05T14:12:04.348Z</time>
      </trkpt>
      <trkpt lat="46.97101" lon="8.78762">
        <ele>654</ele>
        <time>2021-08-05T14:12:05.347Z</time>
      </trkpt>
      <trkpt lat="46.97101" lon="8.78763">
        <ele>654</ele>
        <time>2021-08-05T14:12:06.348Z</time>
      </trkpt>
      <trkpt lat="46.97101" lon="8.78764">
        <ele>655</ele>
        <time>2021-08-05T14:12:07.347Z</time>
      </trkpt>
      <trkpt lat="46.97101" lon="8.78765">
        <ele>655</ele>
        <time>2021-08-05T14:12:08.348Z</time>
      </trkpt>
      <trkpt lat="46.971" lon="8.78765">
        <ele>655</ele>
        <time>2021-08-05T14:12:09.348Z</time>
      </trkpt>
      <trkpt lat="46.97101" lon="8.78765">
        <ele>655</ele>
        <time>2021-08-05T14:12:10.348Z</time>
      </trkpt>
      <trkpt lat="46.97101" lon="8.78765">
        <ele>654</ele>
        <time>2021-08-05T14:12:11.348Z</time>
      </trkpt>
      <trkpt lat="46.97102" lon="8.78765">
        <ele>653</ele>
        <time>2021-08-05T14:12:12.349Z</time>
      </trkpt>
      <trkpt lat="46.97104" lon="8.78767">
        <ele>648</ele>
        <time>2021-08-05T14:12:13.348Z</time>
      </trkpt>
      <trkpt lat="46.97105" lon="8.78768">
        <ele>648</ele>
        <time>2021-08-05T14:12:14.348Z</time>
      </trkpt>
      <trkpt lat="46.97107" lon="8.7877">
        <ele>647</ele>
        <time>2021-08-05T14:12:17.470Z</time>
      </trkpt>
      <trkpt lat="46.97108" lon="8.78766">
        <ele>644</ele>
        <time>2021-08-05T14:12:18.472Z</time>
      </trkpt>
      <trkpt lat="46.97108" lon="8.78766">
        <ele>645</ele>
        <time>2021-08-05T14:12:19.471Z</time>
      </trkpt>
      <trkpt lat="46.97108" lon="8.78765">
        <ele>645</ele>
        <time>2021-08-05T14:12:20.471Z</time>
      </trkpt>
      <trkpt lat="46.9711" lon="8.78769">
        <ele>650</ele>
        <time>2021-08-05T14:12:21.472Z</time>
      </trkpt>
      <trkpt lat="46.97109" lon="8.78768">
        <ele>649</ele>
        <time>2021-08-05T14:12:22.473Z</time>
      </trkpt>
      <trkpt lat="46.97109" lon="8.78767">
        <ele>649</ele>
        <time>2021-08-05T14:12:23.472Z</time>
      </trkpt>
      <trkpt lat="46.97106" lon="8.78765">
        <ele>655</ele>
        <time>2021-08-05T14:12:24.473Z</time>
      </trkpt>
      <trkpt lat="46.97102" lon="8.78765">
        <ele>649</ele>
        <time>2021-08-05T14:12:25.473Z</time>
      </trkpt>
      <trkpt lat="46.97101" lon="8.78763">
        <ele>651</ele>
        <time>2021-08-05T14:12:26.474Z</time>
      </trkpt>
      <trkpt lat="46.971" lon="8.78763">
        <ele>651</ele>
        <time>2021-08-05T14:12:27.475Z</time>
      </trkpt>
      <trkpt lat="46.97099" lon="8.78763">
        <ele>652</ele>
        <time>2021-08-05T14:12:28.474Z</time>
      </trkpt>
      <trkpt lat="46.97098" lon="8.78763">
        <ele>652</ele>
        <time>2021-08-05T14:12:29.474Z</time>
      </trkpt>
      <trkpt lat="46.97097" lon="8.78763">
        <ele>651</ele>
        <time>2021-08-05T14:12:30.474Z</time>
      </trkpt>
      <trkpt lat="46.97096" lon="8.78763">
        <ele>651</ele>
        <time>2021-08-05T14:12:31.475Z</time>
      </trkpt>
      <trkpt lat="46.97095" lon="8.78763">
        <ele>650</ele>
        <time>2021-08-05T14:12:32.475Z</time>
      </trkpt>
      <trkpt lat="46.97095" lon="8.78763">
        <ele>649</ele>
        <time>2021-08-05T14:12:33.474Z</time>
      </trkpt>
      <trkpt lat="46.97095" lon="8.78764">
        <ele>649</ele>
        <time>2021-08-05T14:12:34.474Z</time>
      </trkpt>
      <trkpt lat="46.97095" lon="8.78764">
        <ele>648</ele>
        <time>2021-08-05T14:12:35.474Z</time>
      </trkpt>
      <trkpt lat="46.97095" lon="8.78766">
        <ele>650</ele>
        <time>2021-08-05T14:12:36.475Z</time>
      </trkpt>
      <trkpt lat="46.97095" lon="8.78765">
        <ele>651</ele>
        <time>2021-08-05T14:12:37.475Z</time>
      </trkpt>
      <trkpt lat="46.97093" lon="8.78759">
        <ele>657</ele>
        <time>2021-08-05T14:12:38.476Z</time>
      </trkpt>
      <trkpt lat="46.97093" lon="8.78759">
        <ele>656</ele>
        <time>2021-08-05T14:12:39.476Z</time>
      </trkpt>
      <trkpt lat="46.97095" lon="8.78758">
        <ele>658</ele>
        <time>2021-08-05T14:12:40.476Z</time>
      </trkpt>
      <trkpt lat="46.97095" lon="8.7876">
        <ele>659</ele>
        <time>2021-08-05T14:12:41.476Z</time>
      </trkpt>
      <trkpt lat="46.97095" lon="8.78761">
        <ele>659</ele>
        <time>2021-08-05T14:12:42.476Z</time>
      </trkpt>
      <trkpt lat="46.97092" lon="8.78763">
        <ele>655</ele>
        <time>2021-08-05T14:12:43.477Z</time>
      </trkpt>
      <trkpt lat="46.97092" lon="8.78763">
        <ele>655</ele>
        <time>2021-08-05T14:12:44.477Z</time>
      </trkpt>
      <trkpt lat="46.97092" lon="8.78763">
        <ele>654</ele>
        <time>2021-08-05T14:12:45.476Z</time>
      </trkpt>
      <trkpt lat="46.97092" lon="8.78764">
        <ele>653</ele>
        <time>2021-08-05T14:12:46.477Z</time>
      </trkpt>
      <trkpt lat="46.97092" lon="8.78764">
        <ele>652</ele>
        <time>2021-08-05T14:12:47.477Z</time>
      </trkpt>
      <trkpt lat="46.97092" lon="8.78765">
        <ele>650</ele>
        <time>2021-08-05T14:12:48.477Z</time>
      </trkpt>
      <trkpt lat="46.97091" lon="8.78765">
        <ele>650</ele>
        <time>2021-08-05T14:12:49.477Z</time>
      </trkpt>
      <trkpt lat="46.9709" lon="8.78766">
        <ele>649</ele>
        <time>2021-08-05T14:12:50.476Z</time>
      </trkpt>
      <trkpt lat="46.9709" lon="8.78766">
        <ele>649</ele>
        <time>2021-08-05T14:12:51.476Z</time>
      </trkpt>
      <trkpt lat="46.9709" lon="8.78766">
        <ele>648</ele>
        <time>2021-08-05T14:12:52.476Z</time>
      </trkpt>
      <trkpt lat="46.97091" lon="8.78764">
        <ele>658</ele>
        <time>2021-08-05T14:12:53.477Z</time>
      </trkpt>
      <trkpt lat="46.9709" lon="8.78765">
        <ele>658</ele>
        <time>2021-08-05T14:12:54.477Z</time>
      </trkpt>
      <trkpt lat="46.97089" lon="8.78767">
        <ele>658</ele>
        <time>2021-08-05T14:12:55.477Z</time>
      </trkpt>
      <trkpt lat="46.97088" lon="8.78768">
        <ele>657</ele>
        <time>2021-08-05T14:12:56.478Z</time>
      </trkpt>
      <trkpt lat="46.97087" lon="8.7877">
        <ele>656</ele>
        <time>2021-08-05T14:12:57.477Z</time>
      </trkpt>
      <trkpt lat="46.97086" lon="8.7877">
        <ele>656</ele>
        <time>2021-08-05T14:12:58.478Z</time>
      </trkpt>
      <trkpt lat="46.97086" lon="8.78771">
        <ele>655</ele>
        <time>2021-08-05T14:12:59.477Z</time>
      </trkpt>
      <trkpt lat="46.97085" lon="8.78772">
        <ele>654</ele>
        <time>2021-08-05T14:13:00.478Z</time>
      </trkpt>
      <trkpt lat="46.97085" lon="8.78772">
        <ele>654</ele>
        <time>2021-08-05T14:13:01.477Z</time>
      </trkpt>
      <trkpt lat="46.97084" lon="8.78772">
        <ele>653</ele>
        <time>2021-08-05T14:13:02.478Z</time>
      </trkpt>
      <trkpt lat="46.97083" lon="8.78772">
        <ele>652</ele>
        <time>2021-08-05T14:13:03.478Z</time>
      </trkpt>
      <trkpt lat="46.97083" lon="8.78771">
        <ele>651</ele>
        <time>2021-08-05T14:13:04.478Z</time>
      </trkpt>
      <trkpt lat="46.97082" lon="8.78771">
        <ele>650</ele>
        <time>2021-08-05T14:13:05.478Z</time>
      </trkpt>
      <trkpt lat="46.97082" lon="8.78771">
        <ele>650</ele>
        <time>2021-08-05T14:13:06.478Z</time>
      </trkpt>
      <trkpt lat="46.97083" lon="8.78773">
        <ele>649</ele>
        <time>2021-08-05T14:13:07.477Z</time>
      </trkpt>
      <trkpt lat="46.97083" lon="8.78774">
        <ele>649</ele>
        <time>2021-08-05T14:13:08.478Z</time>
      </trkpt>
      <trkpt lat="46.97082" lon="8.78775">
        <ele>649</ele>
        <time>2021-08-05T14:13:09.478Z</time>
      </trkpt>
      <trkpt lat="46.97082" lon="8.78776">
        <ele>649</ele>
        <time>2021-08-05T14:13:10.478Z</time>
      </trkpt>
      <trkpt lat="46.97081" lon="8.78775">
        <ele>649</ele>
        <time>2021-08-05T14:13:11.478Z</time>
      </trkpt>
      <trkpt lat="46.97083" lon="8.78777">
        <ele>649</ele>
        <time>2021-08-05T14:13:12.478Z</time>
      </trkpt>
      <trkpt lat="46.97083" lon="8.78778">
        <ele>649</ele>
        <time>2021-08-05T14:13:13.478Z</time>
      </trkpt>
      <trkpt lat="46.97083" lon="8.78778">
        <ele>650</ele>
        <time>2021-08-05T14:13:14.478Z</time>
      </trkpt>
      <trkpt lat="46.97083" lon="8.78779">
        <ele>651</ele>
        <time>2021-08-05T14:13:15.479Z</time>
      </trkpt>
      <trkpt lat="46.97083" lon="8.78781">
        <ele>653</ele>
        <time>2021-08-05T14:13:16.479Z</time>
      </trkpt>
      <trkpt lat="46.97083" lon="8.78782">
        <ele>653</ele>
        <time>2021-08-05T14:13:17.480Z</time>
      </trkpt>
      <trkpt lat="46.97083" lon="8.78783">
        <ele>653</ele>
        <time>2021-08-05T14:13:18.479Z</time>
      </trkpt>
      <trkpt lat="46.97082" lon="8.78785">
        <ele>653</ele>
        <time>2021-08-05T14:13:19.479Z</time>
      </trkpt>
      <trkpt lat="46.97082" lon="8.78786">
        <ele>653</ele>
        <time>2021-08-05T14:13:20.479Z</time>
      </trkpt>
      <trkpt lat="46.97082" lon="8.78788">
        <ele>653</ele>
        <time>2021-08-05T14:13:21.480Z</time>
      </trkpt>
      <trkpt lat="46.97082" lon="8.7879">
        <ele>652</ele>
        <time>2021-08-05T14:13:22.480Z</time>
      </trkpt>
      <trkpt lat="46.97081" lon="8.78791">
        <ele>652</ele>
        <time>2021-08-05T14:13:23.480Z</time>
      </trkpt>
      <trkpt lat="46.97081" lon="8.78792">
        <ele>652</ele>
        <time>2021-08-05T14:13:24.480Z</time>
      </trkpt>
      <trkpt lat="46.97081" lon="8.78793">
        <ele>652</ele>
        <time>2021-08-05T14:13:25.480Z</time>
      </trkpt>
      <trkpt lat="46.97081" lon="8.78794">
        <ele>652</ele>
        <time>2021-08-05T14:13:26.479Z</time>
      </trkpt>
      <trkpt lat="46.9708" lon="8.78795">
        <ele>651</ele>
        <time>2021-08-05T14:13:27.480Z</time>
      </trkpt>
      <trkpt lat="46.97079" lon="8.78796">
        <ele>651</ele>
        <time>2021-08-05T14:13:28.479Z</time>
      </trkpt>
      <trkpt lat="46.97079" lon="8.78798">
        <ele>650</ele>
        <time>2021-08-05T14:13:29.480Z</time>
      </trkpt>
      <trkpt lat="46.97078" lon="8.78799">
        <ele>650</ele>
        <time>2021-08-05T14:13:30.480Z</time>
      </trkpt>
      <trkpt lat="46.97077" lon="8.78799">
        <ele>651</ele>
        <time>2021-08-05T14:13:31.480Z</time>
      </trkpt>
      <trkpt lat="46.97077" lon="8.788">
        <ele>651</ele>
        <time>2021-08-05T14:13:32.480Z</time>
      </trkpt>
      <trkpt lat="46.97076" lon="8.788">
        <ele>652</ele>
        <time>2021-08-05T14:13:33.480Z</time>
      </trkpt>
      <trkpt lat="46.97075" lon="8.788">
        <ele>652</ele>
        <time>2021-08-05T14:13:34.480Z</time>
      </trkpt>
      <trkpt lat="46.97073" lon="8.788">
        <ele>652</ele>
        <time>2021-08-05T14:13:35.480Z</time>
      </trkpt>
      <trkpt lat="46.97072" lon="8.788">
        <ele>652</ele>
        <time>2021-08-05T14:13:36.480Z</time>
      </trkpt>
      <trkpt lat="46.97072" lon="8.78801">
        <ele>652</ele>
        <time>2021-08-05T14:13:37.480Z</time>
      </trkpt>
      <trkpt lat="46.97071" lon="8.78802">
        <ele>652</ele>
        <time>2021-08-05T14:13:38.480Z</time>
      </trkpt>
      <trkpt lat="46.9707" lon="8.78802">
        <ele>651</ele>
        <time>2021-08-05T14:13:39.479Z</time>
      </trkpt>
      <trkpt lat="46.97069" lon="8.78803">
        <ele>651</ele>
        <time>2021-08-05T14:13:40.480Z</time>
      </trkpt>
      <trkpt lat="46.97069" lon="8.78805">
        <ele>651</ele>
        <time>2021-08-05T14:13:41.479Z</time>
      </trkpt>
      <trkpt lat="46.97069" lon="8.78806">
        <ele>651</ele>
        <time>2021-08-05T14:13:42.480Z</time>
      </trkpt>
      <trkpt lat="46.97069" lon="8.78808">
        <ele>650</ele>
        <time>2021-08-05T14:13:43.480Z</time>
      </trkpt>
      <trkpt lat="46.97069" lon="8.78809">
        <ele>650</ele>
        <time>2021-08-05T14:13:44.479Z</time>
      </trkpt>
      <trkpt lat="46.97069" lon="8.78811">
        <ele>650</ele>
        <time>2021-08-05T14:13:45.480Z</time>
      </trkpt>
      <trkpt lat="46.97069" lon="8.78812">
        <ele>651</ele>
        <time>2021-08-05T14:13:46.479Z</time>
      </trkpt>
      <trkpt lat="46.97069" lon="8.78813">
        <ele>652</ele>
        <time>2021-08-05T14:13:47.479Z</time>
      </trkpt>
      <trkpt lat="46.97069" lon="8.78815">
        <ele>653</ele>
        <time>2021-08-05T14:13:48.479Z</time>
      </trkpt>
      <trkpt lat="46.97069" lon="8.78817">
        <ele>654</ele>
        <time>2021-08-05T14:13:49.479Z</time>
      </trkpt>
      <trkpt lat="46.97069" lon="8.78818">
        <ele>655</ele>
        <time>2021-08-05T14:13:50.479Z</time>
      </trkpt>
      <trkpt lat="46.97069" lon="8.78819">
        <ele>655</ele>
        <time>2021-08-05T14:13:51.480Z</time>
      </trkpt>
      <trkpt lat="46.97069" lon="8.7882">
        <ele>656</ele>
        <time>2021-08-05T14:13:52.480Z</time>
      </trkpt>
      <trkpt lat="46.97068" lon="8.78822">
        <ele>657</ele>
        <time>2021-08-05T14:13:53.479Z</time>
      </trkpt>
      <trkpt lat="46.97068" lon="8.78823">
        <ele>657</ele>
        <time>2021-08-05T14:13:54.480Z</time>
      </trkpt>
      <trkpt lat="46.97068" lon="8.78825">
        <ele>658</ele>
        <time>2021-08-05T14:13:55.479Z</time>
      </trkpt>
      <trkpt lat="46.97068" lon="8.78827">
        <ele>658</ele>
        <time>2021-08-05T14:13:56.480Z</time>
      </trkpt>
      <trkpt lat="46.97066" lon="8.78829">
        <ele>658</ele>
        <time>2021-08-05T14:13:57.480Z</time>
      </trkpt>
      <trkpt lat="46.97065" lon="8.7883">
        <ele>658</ele>
        <time>2021-08-05T14:13:58.480Z</time>
      </trkpt>
      <trkpt lat="46.97064" lon="8.78831">
        <ele>658</ele>
        <time>2021-08-05T14:13:59.480Z</time>
      </trkpt>
      <trkpt lat="46.97063" lon="8.78831">
        <ele>659</ele>
        <time>2021-08-05T14:14:00.480Z</time>
      </trkpt>
      <trkpt lat="46.97063" lon="8.78832">
        <ele>659</ele>
        <time>2021-08-05T14:14:01.479Z</time>
      </trkpt>
      <trkpt lat="46.97062" lon="8.78832">
        <ele>660</ele>
        <time>2021-08-05T14:14:02.479Z</time>
      </trkpt>
      <trkpt lat="46.97061" lon="8.78833">
        <ele>660</ele>
        <time>2021-08-05T14:14:03.479Z</time>
      </trkpt>
      <trkpt lat="46.97061" lon="8.78834">
        <ele>660</ele>
        <time>2021-08-05T14:14:04.479Z</time>
      </trkpt>
      <trkpt lat="46.9706" lon="8.78835">
        <ele>660</ele>
        <time>2021-08-05T14:14:05.480Z</time>
      </trkpt>
      <trkpt lat="46.9706" lon="8.78836">
        <ele>660</ele>
        <time>2021-08-05T14:14:06.479Z</time>
      </trkpt>
      <trkpt lat="46.9706" lon="8.78836">
        <ele>660</ele>
        <time>2021-08-05T14:14:07.479Z</time>
      </trkpt>
      <trkpt lat="46.9706" lon="8.78836">
        <ele>660</ele>
        <time>2021-08-05T14:14:08.480Z</time>
      </trkpt>
      <trkpt lat="46.97059" lon="8.78836">
        <ele>661</ele>
        <time>2021-08-05T14:14:09.482Z</time>
      </trkpt>
      <trkpt lat="46.9706" lon="8.78835">
        <ele>662</ele>
        <time>2021-08-05T14:14:10.482Z</time>
      </trkpt>
      <trkpt lat="46.9706" lon="8.78835">
        <ele>662</ele>
        <time>2021-08-05T14:14:11.481Z</time>
      </trkpt>
      <trkpt lat="46.97059" lon="8.78834">
        <ele>663</ele>
        <time>2021-08-05T14:14:12.482Z</time>
      </trkpt>
      <trkpt lat="46.97059" lon="8.78833">
        <ele>664</ele>
        <time>2021-08-05T14:14:13.482Z</time>
      </trkpt>
      <trkpt lat="46.97059" lon="8.78833">
        <ele>664</ele>
        <time>2021-08-05T14:14:14.482Z</time>
      </trkpt>
      <trkpt lat="46.97058" lon="8.78833">
        <ele>664</ele>
        <time>2021-08-05T14:14:15.482Z</time>
      </trkpt>
      <trkpt lat="46.97057" lon="8.78832">
        <ele>665</ele>
        <time>2021-08-05T14:14:16.481Z</time>
      </trkpt>
      <trkpt lat="46.97056" lon="8.78831">
        <ele>665</ele>
        <time>2021-08-05T14:14:17.482Z</time>
      </trkpt>
      <trkpt lat="46.97055" lon="8.78831">
        <ele>665</ele>
        <time>2021-08-05T14:14:18.482Z</time>
      </trkpt>
      <trkpt lat="46.97054" lon="8.78832">
        <ele>666</ele>
        <time>2021-08-05T14:14:19.482Z</time>
      </trkpt>
      <trkpt lat="46.97106" lon="8.78913">
        <ele>665</ele>
        <time>2021-08-05T14:14:56.482Z</time>
      </trkpt>
      <trkpt lat="46.97114" lon="8.78899">
        <ele>663</ele>
        <time>2021-08-05T14:14:57.482Z</time>
      </trkpt>
      <trkpt lat="46.97111" lon="8.78883">
        <ele>660</ele>
        <time>2021-08-05T14:14:58.481Z</time>
      </trkpt>
      <trkpt lat="46.97106" lon="8.78872">
        <ele>658</ele>
        <time>2021-08-05T14:14:59.482Z</time>
      </trkpt>
      <trkpt lat="46.971" lon="8.78864">
        <ele>656</ele>
        <time>2021-08-05T14:15:00.482Z</time>
      </trkpt>
      <trkpt lat="46.97095" lon="8.78852">
        <ele>655</ele>
        <time>2021-08-05T14:15:01.482Z</time>
      </trkpt>
      <trkpt lat="46.97092" lon="8.78846">
        <ele>654</ele>
        <time>2021-08-05T14:15:02.482Z</time>
      </trkpt>
      <trkpt lat="46.9709" lon="8.78841">
        <ele>654</ele>
        <time>2021-08-05T14:15:03.481Z</time>
      </trkpt>
      <trkpt lat="46.97089" lon="8.78836">
        <ele>653</ele>
        <time>2021-08-05T14:15:04.482Z</time>
      </trkpt>
      <trkpt lat="46.97088" lon="8.78832">
        <ele>653</ele>
        <time>2021-08-05T14:15:05.482Z</time>
      </trkpt>
      <trkpt lat="46.97086" lon="8.78828">
        <ele>653</ele>
        <time>2021-08-05T14:15:06.482Z</time>
      </trkpt>
      <trkpt lat="46.97084" lon="8.78824">
        <ele>652</ele>
        <time>2021-08-05T14:15:07.481Z</time>
      </trkpt>
      <trkpt lat="46.97082" lon="8.78822">
        <ele>652</ele>
        <time>2021-08-05T14:15:08.481Z</time>
      </trkpt>
      <trkpt lat="46.97081" lon="8.78821">
        <ele>652</ele>
        <time>2021-08-05T14:15:09.482Z</time>
      </trkpt>
      <trkpt lat="46.97081" lon="8.7882">
        <ele>652</ele>
        <time>2021-08-05T14:15:10.482Z</time>
      </trkpt>
      <trkpt lat="46.97081" lon="8.7882">
        <ele>652</ele>
        <time>2021-08-05T14:15:11.482Z</time>
      </trkpt>
      <trkpt lat="46.97082" lon="8.78819">
        <ele>652</ele>
        <time>2021-08-05T14:15:12.481Z</time>
      </trkpt>
      <trkpt lat="46.9708" lon="8.78815">
        <ele>652</ele>
        <time>2021-08-05T14:15:13.483Z</time>
      </trkpt>
      <trkpt lat="46.97079" lon="8.78814">
        <ele>652</ele>
        <time>2021-08-05T14:15:14.483Z</time>
      </trkpt>
      <trkpt lat="46.9708" lon="8.78813">
        <ele>652</ele>
        <time>2021-08-05T14:15:15.483Z</time>
      </trkpt>
      <trkpt lat="46.9708" lon="8.78812">
        <ele>652</ele>
        <time>2021-08-05T14:15:16.482Z</time>
      </trkpt>
      <trkpt lat="46.97081" lon="8.78811">
        <ele>653</ele>
        <time>2021-08-05T14:15:17.482Z</time>
      </trkpt>
      <trkpt lat="46.97081" lon="8.7881">
        <ele>653</ele>
        <time>2021-08-05T14:15:18.482Z</time>
      </trkpt>
      <trkpt lat="46.97081" lon="8.78809">
        <ele>654</ele>
        <time>2021-08-05T14:15:19.483Z</time>
      </trkpt>
      <trkpt lat="46.97081" lon="8.78808">
        <ele>654</ele>
        <time>2021-08-05T14:15:20.483Z</time>
      </trkpt>
      <trkpt lat="46.97081" lon="8.78808">
        <ele>654</ele>
        <time>2021-08-05T14:15:21.483Z</time>
      </trkpt>
      <trkpt lat="46.97082" lon="8.78808">
        <ele>654</ele>
        <time>2021-08-05T14:15:22.482Z</time>
      </trkpt>
      <trkpt lat="46.97084" lon="8.78807">
        <ele>654</ele>
        <time>2021-08-05T14:15:23.482Z</time>
      </trkpt>
      <trkpt lat="46.97085" lon="8.78806">
        <ele>654</ele>
        <time>2021-08-05T14:15:24.483Z</time>
      </trkpt>
      <trkpt lat="46.97086" lon="8.78804">
        <ele>654</ele>
        <time>2021-08-05T14:15:25.482Z</time>
      </trkpt>
      <trkpt lat="46.97086" lon="8.78803">
        <ele>654</ele>
        <time>2021-08-05T14:15:26.483Z</time>
      </trkpt>
      <trkpt lat="46.97087" lon="8.78802">
        <ele>654</ele>
        <time>2021-08-05T14:15:27.482Z</time>
      </trkpt>
      <trkpt lat="46.97088" lon="8.78801">
        <ele>653</ele>
        <time>2021-08-05T14:15:28.483Z</time>
      </trkpt>
      <trkpt lat="46.97089" lon="8.788">
        <ele>653</ele>
        <time>2021-08-05T14:15:29.483Z</time>
      </trkpt>
      <trkpt lat="46.97089" lon="8.78798">
        <ele>653</ele>
        <time>2021-08-05T14:15:30.483Z</time>
      </trkpt>
      <trkpt lat="46.9709" lon="8.78796">
        <ele>653</ele>
        <time>2021-08-05T14:15:31.483Z</time>
      </trkpt>
      <trkpt lat="46.97089" lon="8.78793">
        <ele>653</ele>
        <time>2021-08-05T14:15:32.482Z</time>
      </trkpt>
      <trkpt lat="46.97089" lon="8.78792">
        <ele>654</ele>
        <time>2021-08-05T14:15:33.483Z</time>
      </trkpt>
      <trkpt lat="46.97089" lon="8.78792">
        <ele>654</ele>
        <time>2021-08-05T14:15:34.483Z</time>
      </trkpt>
      <trkpt lat="46.97088" lon="8.78788">
        <ele>658</ele>
        <time>2021-08-05T14:15:35.483Z</time>
      </trkpt>
      <trkpt lat="46.97088" lon="8.78787">
        <ele>657</ele>
        <time>2021-08-05T14:15:36.483Z</time>
      </trkpt>
      <trkpt lat="46.97088" lon="8.78785">
        <ele>657</ele>
        <time>2021-08-05T14:15:37.483Z</time>
      </trkpt>
      <trkpt lat="46.97088" lon="8.78784">
        <ele>657</ele>
        <time>2021-08-05T14:15:38.483Z</time>
      </trkpt>
      <trkpt lat="46.97089" lon="8.78782">
        <ele>657</ele>
        <time>2021-08-05T14:15:39.483Z</time>
      </trkpt>
      <trkpt lat="46.97089" lon="8.78781">
        <ele>656</ele>
        <time>2021-08-05T14:15:40.483Z</time>
      </trkpt>
      <trkpt lat="46.97089" lon="8.7878">
        <ele>656</ele>
        <time>2021-08-05T14:15:41.483Z</time>
      </trkpt>
      <trkpt lat="46.97089" lon="8.7878">
        <ele>656</ele>
        <time>2021-08-05T14:15:42.483Z</time>
      </trkpt>
      <trkpt lat="46.97089" lon="8.78779">
        <ele>655</ele>
        <time>2021-08-05T14:15:43.483Z</time>
      </trkpt>
      <trkpt lat="46.97089" lon="8.78779">
        <ele>655</ele>
        <time>2021-08-05T14:15:44.483Z</time>
      </trkpt>
      <trkpt lat="46.97089" lon="8.78779">
        <ele>655</ele>
        <time>2021-08-05T14:15:45.483Z</time>
      </trkpt>
      <trkpt lat="46.9709" lon="8.78779">
        <ele>655</ele>
        <time>2021-08-05T14:15:46.483Z</time>
      </trkpt>
      <trkpt lat="46.97091" lon="8.78779">
        <ele>655</ele>
        <time>2021-08-05T14:15:47.483Z</time>
      </trkpt>
      <trkpt lat="46.97091" lon="8.78779">
        <ele>654</ele>
        <time>2021-08-05T14:15:48.483Z</time>
      </trkpt>
      <trkpt lat="46.97091" lon="8.7878">
        <ele>654</ele>
        <time>2021-08-05T14:15:49.483Z</time>
      </trkpt>
      <trkpt lat="46.9709" lon="8.7878">
        <ele>653</ele>
        <time>2021-08-05T14:15:50.483Z</time>
      </trkpt>
      <trkpt lat="46.97091" lon="8.7878">
        <ele>652</ele>
        <time>2021-08-05T14:15:51.483Z</time>
      </trkpt>
      <trkpt lat="46.97089" lon="8.78779">
        <ele>652</ele>
        <time>2021-08-05T14:15:52.484Z</time>
      </trkpt>
      <trkpt lat="46.9709" lon="8.78781">
        <ele>652</ele>
        <time>2021-08-05T14:15:53.484Z</time>
      </trkpt>
      <trkpt lat="46.9709" lon="8.78781">
        <ele>652</ele>
        <time>2021-08-05T14:15:54.483Z</time>
      </trkpt>
      <trkpt lat="46.9709" lon="8.78779">
        <ele>652</ele>
        <time>2021-08-05T14:15:55.483Z</time>
      </trkpt>
      <trkpt lat="46.97088" lon="8.78778">
        <ele>652</ele>
        <time>2021-08-05T14:15:56.484Z</time>
      </trkpt>
      <trkpt lat="46.97087" lon="8.78778">
        <ele>652</ele>
        <time>2021-08-05T14:15:57.484Z</time>
      </trkpt>
      <trkpt lat="46.97086" lon="8.78778">
        <ele>653</ele>
        <time>2021-08-05T14:15:58.483Z</time>
      </trkpt>
      <trkpt lat="46.97087" lon="8.78779">
        <ele>653</ele>
        <time>2021-08-05T14:15:59.484Z</time>
      </trkpt>
      <trkpt lat="46.97089" lon="8.78781">
        <ele>657</ele>
        <time>2021-08-05T14:16:00.485Z</time>
      </trkpt>
      <trkpt lat="46.9709" lon="8.78782">
        <ele>657</ele>
        <time>2021-08-05T14:16:01.485Z</time>
      </trkpt>
      <trkpt lat="46.9709" lon="8.78782">
        <ele>657</ele>
        <time>2021-08-05T14:16:02.484Z</time>
      </trkpt>
      <trkpt lat="46.97089" lon="8.78781">
        <ele>657</ele>
        <time>2021-08-05T14:16:03.485Z</time>
      </trkpt>
      <trkpt lat="46.97089" lon="8.7878">
        <ele>657</ele>
        <time>2021-08-05T14:16:04.485Z</time>
      </trkpt>
      <trkpt lat="46.97087" lon="8.78784">
        <ele>661</ele>
        <time>2021-08-05T14:16:05.485Z</time>
      </trkpt>
      <trkpt lat="46.97087" lon="8.78784">
        <ele>662</ele>
        <time>2021-08-05T14:16:06.485Z</time>
      </trkpt>
      <trkpt lat="46.97087" lon="8.78784">
        <ele>660</ele>
        <time>2021-08-05T14:16:07.486Z</time>
      </trkpt>
      <trkpt lat="46.97087" lon="8.78784">
        <ele>659</ele>
        <time>2021-08-05T14:16:08.486Z</time>
      </trkpt>
      <trkpt lat="46.97087" lon="8.78785">
        <ele>659</ele>
        <time>2021-08-05T14:16:09.485Z</time>
      </trkpt>
      <trkpt lat="46.97088" lon="8.78785">
        <ele>659</ele>
        <time>2021-08-05T14:16:10.488Z</time>
      </trkpt>
      <trkpt lat="46.97088" lon="8.78784">
        <ele>659</ele>
        <time>2021-08-05T14:16:11.488Z</time>
      </trkpt>
      <trkpt lat="46.97088" lon="8.78784">
        <ele>654</ele>
        <time>2021-08-05T14:16:12.488Z</time>
      </trkpt>
      <trkpt lat="46.97088" lon="8.78783">
        <ele>654</ele>
        <time>2021-08-05T14:16:13.488Z</time>
      </trkpt>
      <trkpt lat="46.97088" lon="8.78782">
        <ele>654</ele>
        <time>2021-08-05T14:16:14.488Z</time>
      </trkpt>
      <trkpt lat="46.97088" lon="8.78782">
        <ele>654</ele>
        <time>2021-08-05T14:16:15.488Z</time>
      </trkpt>
      <trkpt lat="46.9709" lon="8.78781">
        <ele>654</ele>
        <time>2021-08-05T14:16:16.489Z</time>
      </trkpt>
      <trkpt lat="46.97091" lon="8.7878">
        <ele>655</ele>
        <time>2021-08-05T14:16:17.488Z</time>
      </trkpt>
      <trkpt lat="46.97093" lon="8.78779">
        <ele>655</ele>
        <time>2021-08-05T14:16:18.488Z</time>
      </trkpt>
      <trkpt lat="46.97094" lon="8.78777">
        <ele>656</ele>
        <time>2021-08-05T14:16:19.488Z</time>
      </trkpt>
      <trkpt lat="46.97096" lon="8.78774">
        <ele>657</ele>
        <time>2021-08-05T14:16:20.489Z</time>
      </trkpt>
      <trkpt lat="46.97096" lon="8.78772">
        <ele>658</ele>
        <time>2021-08-05T14:16:21.489Z</time>
      </trkpt>
      <trkpt lat="46.97097" lon="8.7877">
        <ele>658</ele>
        <time>2021-08-05T14:16:22.488Z</time>
      </trkpt>
      <trkpt lat="46.97097" lon="8.78769">
        <ele>658</ele>
        <time>2021-08-05T14:16:23.489Z</time>
      </trkpt>
      <trkpt lat="46.97098" lon="8.78768">
        <ele>658</ele>
        <time>2021-08-05T14:16:24.489Z</time>
      </trkpt>
      <trkpt lat="46.97098" lon="8.78766">
        <ele>657</ele>
        <time>2021-08-05T14:16:25.489Z</time>
      </trkpt>
      <trkpt lat="46.97098" lon="8.78765">
        <ele>657</ele>
        <time>2021-08-05T14:16:26.488Z</time>
      </trkpt>
      <trkpt lat="46.97098" lon="8.78763">
        <ele>657</ele>
        <time>2021-08-05T14:16:27.488Z</time>
      </trkpt>
      <trkpt lat="46.97099" lon="8.78762">
        <ele>657</ele>
        <time>2021-08-05T14:16:28.489Z</time>
      </trkpt>
      <trkpt lat="46.971" lon="8.7876">
        <ele>657</ele>
        <time>2021-08-05T14:16:29.488Z</time>
      </trkpt>
      <trkpt lat="46.971" lon="8.7876">
        <ele>657</ele>
        <time>2021-08-05T14:16:30.489Z</time>
      </trkpt>
      <trkpt lat="46.97101" lon="8.78758">
        <ele>656</ele>
        <time>2021-08-05T14:16:31.489Z</time>
      </trkpt>
      <trkpt lat="46.971" lon="8.78757">
        <ele>656</ele>
        <time>2021-08-05T14:16:32.489Z</time>
      </trkpt>
      <trkpt lat="46.971" lon="8.78756">
        <ele>656</ele>
        <time>2021-08-05T14:16:33.489Z</time>
      </trkpt>
      <trkpt lat="46.971" lon="8.78755">
        <ele>656</ele>
        <time>2021-08-05T14:16:34.489Z</time>
      </trkpt>
      <trkpt lat="46.971" lon="8.78754">
        <ele>656</ele>
        <time>2021-08-05T14:16:35.488Z</time>
      </trkpt>
      <trkpt lat="46.971" lon="8.78753">
        <ele>656</ele>
        <time>2021-08-05T14:16:36.489Z</time>
      </trkpt>
      <trkpt lat="46.971" lon="8.78753">
        <ele>656</ele>
        <time>2021-08-05T14:16:37.489Z</time>
      </trkpt>
      <trkpt lat="46.97096" lon="8.78755">
        <ele>649</ele>
        <time>2021-08-05T14:16:38.488Z</time>
      </trkpt>
      <trkpt lat="46.97096" lon="8.78755">
        <ele>648</ele>
        <time>2021-08-05T14:16:39.488Z</time>
      </trkpt>
      <trkpt lat="46.97095" lon="8.78754">
        <ele>642</ele>
        <time>2021-08-05T14:16:40.490Z</time>
      </trkpt>
      <trkpt lat="46.97095" lon="8.78754">
        <ele>641</ele>
        <time>2021-08-05T14:16:41.489Z</time>
      </trkpt>
      <trkpt lat="46.97095" lon="8.78754">
        <ele>641</ele>
        <time>2021-08-05T14:16:42.490Z</time>
      </trkpt>
      <trkpt lat="46.97096" lon="8.78755">
        <ele>640</ele>
        <time>2021-08-05T14:16:43.490Z</time>
      </trkpt>
      <trkpt lat="46.97096" lon="8.78755">
        <ele>641</ele>
        <time>2021-08-05T14:16:44.490Z</time>
      </trkpt>
      <trkpt lat="46.97096" lon="8.78754">
        <ele>642</ele>
        <time>2021-08-05T14:16:45.489Z</time>
      </trkpt>
      <trkpt lat="46.97099" lon="8.78755">
        <ele>645</ele>
        <time>2021-08-05T14:16:46.491Z</time>
      </trkpt>
      <trkpt lat="46.97099" lon="8.78755">
        <ele>646</ele>
        <time>2021-08-05T14:16:47.490Z</time>
      </trkpt>
      <trkpt lat="46.971" lon="8.78755">
        <ele>647</ele>
        <time>2021-08-05T14:16:48.490Z</time>
      </trkpt>
      <trkpt lat="46.97101" lon="8.78756">
        <ele>648</ele>
        <time>2021-08-05T14:16:49.491Z</time>
      </trkpt>
      <trkpt lat="46.97102" lon="8.78756">
        <ele>650</ele>
        <time>2021-08-05T14:16:50.491Z</time>
      </trkpt>
      <trkpt lat="46.97103" lon="8.78756">
        <ele>651</ele>
        <time>2021-08-05T14:16:51.491Z</time>
      </trkpt>
      <trkpt lat="46.97105" lon="8.78755">
        <ele>651</ele>
        <time>2021-08-05T14:16:52.491Z</time>
      </trkpt>
      <trkpt lat="46.97108" lon="8.78751">
        <ele>652</ele>
        <time>2021-08-05T14:16:53.490Z</time>
      </trkpt>
      <trkpt lat="46.97109" lon="8.78749">
        <ele>653</ele>
        <time>2021-08-05T14:16:54.491Z</time>
      </trkpt>
      <trkpt lat="46.9711" lon="8.78747">
        <ele>653</ele>
        <time>2021-08-05T14:16:55.490Z</time>
      </trkpt>
      <trkpt lat="46.9711" lon="8.78745">
        <ele>654</ele>
        <time>2021-08-05T14:16:56.491Z</time>
      </trkpt>
      <trkpt lat="46.97111" lon="8.78743">
        <ele>654</ele>
        <time>2021-08-05T14:16:57.490Z</time>
      </trkpt>
      <trkpt lat="46.97111" lon="8.78742">
        <ele>655</ele>
        <time>2021-08-05T14:16:58.491Z</time>
      </trkpt>
      <trkpt lat="46.97111" lon="8.7874">
        <ele>655</ele>
        <time>2021-08-05T14:16:59.491Z</time>
      </trkpt>
      <trkpt lat="46.97112" lon="8.78738">
        <ele>654</ele>
        <time>2021-08-05T14:17:00.491Z</time>
      </trkpt>
      <trkpt lat="46.97112" lon="8.78737">
        <ele>654</ele>
        <time>2021-08-05T14:17:01.491Z</time>
      </trkpt>
      <trkpt lat="46.97113" lon="8.78735">
        <ele>654</ele>
        <time>2021-08-05T14:17:02.490Z</time>
      </trkpt>
      <trkpt lat="46.97113" lon="8.78734">
        <ele>654</ele>
        <time>2021-08-05T14:17:03.490Z</time>
      </trkpt>
      <trkpt lat="46.97114" lon="8.78732">
        <ele>654</ele>
        <time>2021-08-05T14:17:04.490Z</time>
      </trkpt>
      <trkpt lat="46.97114" lon="8.78731">
        <ele>654</ele>
        <time>2021-08-05T14:17:05.491Z</time>
      </trkpt>
      <trkpt lat="46.97115" lon="8.78729">
        <ele>654</ele>
        <time>2021-08-05T14:17:06.490Z</time>
      </trkpt>
      <trkpt lat="46.97115" lon="8.78727">
        <ele>655</ele>
        <time>2021-08-05T14:17:07.490Z</time>
      </trkpt>
      <trkpt lat="46.97115" lon="8.78725">
        <ele>655</ele>
        <time>2021-08-05T14:17:08.491Z</time>
      </trkpt>
      <trkpt lat="46.97115" lon="8.78723">
        <ele>655</ele>
        <time>2021-08-05T14:17:09.490Z</time>
      </trkpt>
      <trkpt lat="46.97115" lon="8.78722">
        <ele>654</ele>
        <time>2021-08-05T14:17:10.491Z</time>
      </trkpt>
      <trkpt lat="46.97116" lon="8.78721">
        <ele>654</ele>
        <time>2021-08-05T14:17:11.490Z</time>
      </trkpt>
      <trkpt lat="46.97117" lon="8.78719">
        <ele>653</ele>
        <time>2021-08-05T14:17:12.490Z</time>
      </trkpt>
      <trkpt lat="46.97117" lon="8.78717">
        <ele>652</ele>
        <time>2021-08-05T14:17:13.490Z</time>
      </trkpt>
      <trkpt lat="46.97118" lon="8.78715">
        <ele>651</ele>
        <time>2021-08-05T14:17:14.490Z</time>
      </trkpt>
      <trkpt lat="46.97119" lon="8.78713">
        <ele>651</ele>
        <time>2021-08-05T14:17:15.491Z</time>
      </trkpt>
      <trkpt lat="46.97119" lon="8.78712">
        <ele>651</ele>
        <time>2021-08-05T14:17:16.491Z</time>
      </trkpt>
      <trkpt lat="46.97119" lon="8.7871">
        <ele>651</ele>
        <time>2021-08-05T14:17:17.490Z</time>
      </trkpt>
      <trkpt lat="46.9712" lon="8.78708">
        <ele>651</ele>
        <time>2021-08-05T14:17:18.490Z</time>
      </trkpt>
      <trkpt lat="46.97121" lon="8.78707">
        <ele>651</ele>
        <time>2021-08-05T14:17:19.490Z</time>
      </trkpt>
      <trkpt lat="46.97122" lon="8.78705">
        <ele>651</ele>
        <time>2021-08-05T14:17:20.491Z</time>
      </trkpt>
      <trkpt lat="46.97123" lon="8.78704">
        <ele>651</ele>
        <time>2021-08-05T14:17:21.490Z</time>
      </trkpt>
      <trkpt lat="46.97123" lon="8.78702">
        <ele>651</ele>
        <time>2021-08-05T14:17:22.490Z</time>
      </trkpt>
      <trkpt lat="46.97124" lon="8.787">
        <ele>651</ele>
        <time>2021-08-05T14:17:23.490Z</time>
      </trkpt>
      <trkpt lat="46.97124" lon="8.78699">
        <ele>652</ele>
        <time>2021-08-05T14:17:24.491Z</time>
      </trkpt>
      <trkpt lat="46.97124" lon="8.78698">
        <ele>652</ele>
        <time>2021-08-05T14:17:25.491Z</time>
      </trkpt>
      <trkpt lat="46.97125" lon="8.78698">
        <ele>654</ele>
        <time>2021-08-05T14:17:26.491Z</time>
      </trkpt>
      <trkpt lat="46.97126" lon="8.78696">
        <ele>655</ele>
        <time>2021-08-05T14:17:27.490Z</time>
      </trkpt>
      <trkpt lat="46.97127" lon="8.78695">
        <ele>655</ele>
        <time>2021-08-05T14:17:28.490Z</time>
      </trkpt>
      <trkpt lat="46.97128" lon="8.78693">
        <ele>655</ele>
        <time>2021-08-05T14:17:29.491Z</time>
      </trkpt>
      <trkpt lat="46.97128" lon="8.7869">
        <ele>655</ele>
        <time>2021-08-05T14:17:30.491Z</time>
      </trkpt>
      <trkpt lat="46.97128" lon="8.78687">
        <ele>655</ele>
        <time>2021-08-05T14:17:31.491Z</time>
      </trkpt>
      <trkpt lat="46.97128" lon="8.78685">
        <ele>655</ele>
        <time>2021-08-05T14:17:32.491Z</time>
      </trkpt>
      <trkpt lat="46.97127" lon="8.78683">
        <ele>655</ele>
        <time>2021-08-05T14:17:33.491Z</time>
      </trkpt>
      <trkpt lat="46.97127" lon="8.78681">
        <ele>656</ele>
        <time>2021-08-05T14:17:34.491Z</time>
      </trkpt>
      <trkpt lat="46.97126" lon="8.78679">
        <ele>656</ele>
        <time>2021-08-05T14:17:35.491Z</time>
      </trkpt>
      <trkpt lat="46.97126" lon="8.78677">
        <ele>656</ele>
        <time>2021-08-05T14:17:36.490Z</time>
      </trkpt>
      <trkpt lat="46.97126" lon="8.78675">
        <ele>656</ele>
        <time>2021-08-05T14:17:37.490Z</time>
      </trkpt>
      <trkpt lat="46.97126" lon="8.78673">
        <ele>655</ele>
        <time>2021-08-05T14:17:38.491Z</time>
      </trkpt>
      <trkpt lat="46.97126" lon="8.78672">
        <ele>654</ele>
        <time>2021-08-05T14:17:39.491Z</time>
      </trkpt>
      <trkpt lat="46.97126" lon="8.7867">
        <ele>654</ele>
        <time>2021-08-05T14:17:40.491Z</time>
      </trkpt>
      <trkpt lat="46.97125" lon="8.78668">
        <ele>653</ele>
        <time>2021-08-05T14:17:41.491Z</time>
      </trkpt>
      <trkpt lat="46.97125" lon="8.78666">
        <ele>653</ele>
        <time>2021-08-05T14:17:42.491Z</time>
      </trkpt>
      <trkpt lat="46.97124" lon="8.78664">
        <ele>653</ele>
        <time>2021-08-05T14:17:43.490Z</time>
      </trkpt>
      <trkpt lat="46.97123" lon="8.78663">
        <ele>653</ele>
        <time>2021-08-05T14:17:44.490Z</time>
      </trkpt>
      <trkpt lat="46.97122" lon="8.78661">
        <ele>654</ele>
        <time>2021-08-05T14:17:45.490Z</time>
      </trkpt>
      <trkpt lat="46.97121" lon="8.7866">
        <ele>654</ele>
        <time>2021-08-05T14:17:46.490Z</time>
      </trkpt>
      <trkpt lat="46.9712" lon="8.78659">
        <ele>654</ele>
        <time>2021-08-05T14:17:47.490Z</time>
      </trkpt>
      <trkpt lat="46.9712" lon="8.78658">
        <ele>654</ele>
        <time>2021-08-05T14:17:48.490Z</time>
      </trkpt>
      <trkpt lat="46.97119" lon="8.78658">
        <ele>654</ele>
        <time>2021-08-05T14:17:49.490Z</time>
      </trkpt>
      <trkpt lat="46.9712" lon="8.78657">
        <ele>654</ele>
        <time>2021-08-05T14:17:50.491Z</time>
      </trkpt>
      <trkpt lat="46.97119" lon="8.78656">
        <ele>654</ele>
        <time>2021-08-05T14:17:51.490Z</time>
      </trkpt>
      <trkpt lat="46.97121" lon="8.78683">
        <ele>653</ele>
        <time>2021-08-05T14:28:22.499Z</time>
      </trkpt>
      <trkpt lat="46.97122" lon="8.78683">
        <ele>652</ele>
        <time>2021-08-05T14:28:23.500Z</time>
      </trkpt>
      <trkpt lat="46.97122" lon="8.78683">
        <ele>651</ele>
        <time>2021-08-05T14:28:24.499Z</time>
      </trkpt>
      <trkpt lat="46.97128" lon="8.78676">
        <ele>650</ele>
        <time>2021-08-05T14:28:25.500Z</time>
      </trkpt>
      <trkpt lat="46.97128" lon="8.78678">
        <ele>649</ele>
        <time>2021-08-05T14:28:26.499Z</time>
      </trkpt>
      <trkpt lat="46.97126" lon="8.7868">
        <ele>649</ele>
        <time>2021-08-05T14:28:27.500Z</time>
      </trkpt>
      <trkpt lat="46.97129" lon="8.78684">
        <ele>648</ele>
        <time>2021-08-05T14:28:28.499Z</time>
      </trkpt>
      <trkpt lat="46.97131" lon="8.78687">
        <ele>647</ele>
        <time>2021-08-05T14:28:29.499Z</time>
      </trkpt>
      <trkpt lat="46.97132" lon="8.7869">
        <ele>647</ele>
        <time>2021-08-05T14:28:30.500Z</time>
      </trkpt>
      <trkpt lat="46.97131" lon="8.78694">
        <ele>647</ele>
        <time>2021-08-05T14:28:31.499Z</time>
      </trkpt>
      <trkpt lat="46.97129" lon="8.78699">
        <ele>646</ele>
        <time>2021-08-05T14:28:32.500Z</time>
      </trkpt>
      <trkpt lat="46.97127" lon="8.78705">
        <ele>645</ele>
        <time>2021-08-05T14:28:33.500Z</time>
      </trkpt>
      <trkpt lat="46.97125" lon="8.7871">
        <ele>644</ele>
        <time>2021-08-05T14:28:34.500Z</time>
      </trkpt>
      <trkpt lat="46.97124" lon="8.78713">
        <ele>642</ele>
        <time>2021-08-05T14:28:35.500Z</time>
      </trkpt>
      <trkpt lat="46.97123" lon="8.78713">
        <ele>640</ele>
        <time>2021-08-05T14:28:36.500Z</time>
      </trkpt>
      <trkpt lat="46.97121" lon="8.78713">
        <ele>639</ele>
        <time>2021-08-05T14:28:37.500Z</time>
      </trkpt>
      <trkpt lat="46.9712" lon="8.78713">
        <ele>637</ele>
        <time>2021-08-05T14:28:38.500Z</time>
      </trkpt>
      <trkpt lat="46.9712" lon="8.78714">
        <ele>636</ele>
        <time>2021-08-05T14:28:39.500Z</time>
      </trkpt>
      <trkpt lat="46.97119" lon="8.78716">
        <ele>635</ele>
        <time>2021-08-05T14:28:40.500Z</time>
      </trkpt>
      <trkpt lat="46.97119" lon="8.78717">
        <ele>634</ele>
        <time>2021-08-05T14:28:41.499Z</time>
      </trkpt>
      <trkpt lat="46.97118" lon="8.78718">
        <ele>634</ele>
        <time>2021-08-05T14:28:42.499Z</time>
      </trkpt>
      <trkpt lat="46.97117" lon="8.7872">
        <ele>633</ele>
        <time>2021-08-05T14:28:43.499Z</time>
      </trkpt>
      <trkpt lat="46.97116" lon="8.78721">
        <ele>633</ele>
        <time>2021-08-05T14:28:44.500Z</time>
      </trkpt>
      <trkpt lat="46.97116" lon="8.78722">
        <ele>633</ele>
        <time>2021-08-05T14:28:45.499Z</time>
      </trkpt>
      <trkpt lat="46.97115" lon="8.78723">
        <ele>633</ele>
        <time>2021-08-05T14:28:46.499Z</time>
      </trkpt>
      <trkpt lat="46.97115" lon="8.78725">
        <ele>633</ele>
        <time>2021-08-05T14:28:47.500Z</time>
      </trkpt>
      <trkpt lat="46.97114" lon="8.78726">
        <ele>633</ele>
        <time>2021-08-05T14:28:48.500Z</time>
      </trkpt>
      <trkpt lat="46.97113" lon="8.78728">
        <ele>633</ele>
        <time>2021-08-05T14:28:49.500Z</time>
      </trkpt>
      <trkpt lat="46.97112" lon="8.78729">
        <ele>633</ele>
        <time>2021-08-05T14:28:50.499Z</time>
      </trkpt>
      <trkpt lat="46.97111" lon="8.78731">
        <ele>633</ele>
        <time>2021-08-05T14:28:51.500Z</time>
      </trkpt>
      <trkpt lat="46.97111" lon="8.78732">
        <ele>634</ele>
        <time>2021-08-05T14:28:52.500Z</time>
      </trkpt>
      <trkpt lat="46.9711" lon="8.78735">
        <ele>634</ele>
        <time>2021-08-05T14:28:53.499Z</time>
      </trkpt>
      <trkpt lat="46.9711" lon="8.78736">
        <ele>636</ele>
        <time>2021-08-05T14:28:54.500Z</time>
      </trkpt>
      <trkpt lat="46.9711" lon="8.78738">
        <ele>637</ele>
        <time>2021-08-05T14:28:55.500Z</time>
      </trkpt>
      <trkpt lat="46.9711" lon="8.78739">
        <ele>638</ele>
        <time>2021-08-05T14:28:56.500Z</time>
      </trkpt>
      <trkpt lat="46.97108" lon="8.78741">
        <ele>639</ele>
        <time>2021-08-05T14:28:57.499Z</time>
      </trkpt>
      <trkpt lat="46.97108" lon="8.78742">
        <ele>640</ele>
        <time>2021-08-05T14:28:58.500Z</time>
      </trkpt>
      <trkpt lat="46.97107" lon="8.78745">
        <ele>640</ele>
        <time>2021-08-05T14:28:59.500Z</time>
      </trkpt>
      <trkpt lat="46.97107" lon="8.78747">
        <ele>641</ele>
        <time>2021-08-05T14:29:00.500Z</time>
      </trkpt>
      <trkpt lat="46.97106" lon="8.78748">
        <ele>642</ele>
        <time>2021-08-05T14:29:01.499Z</time>
      </trkpt>
      <trkpt lat="46.97106" lon="8.7875">
        <ele>642</ele>
        <time>2021-08-05T14:29:02.499Z</time>
      </trkpt>
      <trkpt lat="46.97105" lon="8.78751">
        <ele>643</ele>
        <time>2021-08-05T14:29:03.500Z</time>
      </trkpt>
      <trkpt lat="46.97104" lon="8.78752">
        <ele>644</ele>
        <time>2021-08-05T14:29:04.500Z</time>
      </trkpt>
      <trkpt lat="46.97103" lon="8.78754">
        <ele>644</ele>
        <time>2021-08-05T14:29:05.499Z</time>
      </trkpt>
      <trkpt lat="46.97103" lon="8.78755">
        <ele>644</ele>
        <time>2021-08-05T14:29:06.499Z</time>
      </trkpt>
      <trkpt lat="46.97102" lon="8.78757">
        <ele>645</ele>
        <time>2021-08-05T14:29:07.499Z</time>
      </trkpt>
      <trkpt lat="46.97101" lon="8.78759">
        <ele>645</ele>
        <time>2021-08-05T14:29:08.499Z</time>
      </trkpt>
      <trkpt lat="46.97101" lon="8.78761">
        <ele>645</ele>
        <time>2021-08-05T14:29:09.500Z</time>
      </trkpt>
      <trkpt lat="46.971" lon="8.78762">
        <ele>645</ele>
        <time>2021-08-05T14:29:10.500Z</time>
      </trkpt>
      <trkpt lat="46.97099" lon="8.78763">
        <ele>645</ele>
        <time>2021-08-05T14:29:11.500Z</time>
      </trkpt>
      <trkpt lat="46.97099" lon="8.78765">
        <ele>646</ele>
        <time>2021-08-05T14:29:12.500Z</time>
      </trkpt>
      <trkpt lat="46.97098" lon="8.78766">
        <ele>646</ele>
        <time>2021-08-05T14:29:13.500Z</time>
      </trkpt>
      <trkpt lat="46.97096" lon="8.78766">
        <ele>647</ele>
        <time>2021-08-05T14:29:14.500Z</time>
      </trkpt>
      <trkpt lat="46.97095" lon="8.78767">
        <ele>647</ele>
        <time>2021-08-05T14:29:15.500Z</time>
      </trkpt>
      <trkpt lat="46.97094" lon="8.78768">
        <ele>647</ele>
        <time>2021-08-05T14:29:16.500Z</time>
      </trkpt>
      <trkpt lat="46.97092" lon="8.78768">
        <ele>647</ele>
        <time>2021-08-05T14:29:17.500Z</time>
      </trkpt>
      <trkpt lat="46.97091" lon="8.78769">
        <ele>647</ele>
        <time>2021-08-05T14:29:18.500Z</time>
      </trkpt>
      <trkpt lat="46.9709" lon="8.78771">
        <ele>647</ele>
        <time>2021-08-05T14:29:19.500Z</time>
      </trkpt>
      <trkpt lat="46.97089" lon="8.78772">
        <ele>647</ele>
        <time>2021-08-05T14:29:20.499Z</time>
      </trkpt>
      <trkpt lat="46.97088" lon="8.78772">
        <ele>647</ele>
        <time>2021-08-05T14:29:21.500Z</time>
      </trkpt>
      <trkpt lat="46.97088" lon="8.78774">
        <ele>647</ele>
        <time>2021-08-05T14:29:22.499Z</time>
      </trkpt>
      <trkpt lat="46.97087" lon="8.78775">
        <ele>647</ele>
        <time>2021-08-05T14:29:23.500Z</time>
      </trkpt>
      <trkpt lat="46.97086" lon="8.78776">
        <ele>647</ele>
        <time>2021-08-05T14:29:24.499Z</time>
      </trkpt>
      <trkpt lat="46.97086" lon="8.78776">
        <ele>648</ele>
        <time>2021-08-05T14:29:25.500Z</time>
      </trkpt>
      <trkpt lat="46.97084" lon="8.78775">
        <ele>648</ele>
        <time>2021-08-05T14:29:26.500Z</time>
      </trkpt>
      <trkpt lat="46.97083" lon="8.78776">
        <ele>648</ele>
        <time>2021-08-05T14:29:27.500Z</time>
      </trkpt>
      <trkpt lat="46.97082" lon="8.78777">
        <ele>647</ele>
        <time>2021-08-05T14:29:28.500Z</time>
      </trkpt>
      <trkpt lat="46.97082" lon="8.78778">
        <ele>647</ele>
        <time>2021-08-05T14:29:29.500Z</time>
      </trkpt>
      <trkpt lat="46.97081" lon="8.78779">
        <ele>647</ele>
        <time>2021-08-05T14:29:30.500Z</time>
      </trkpt>
      <trkpt lat="46.97081" lon="8.7878">
        <ele>648</ele>
        <time>2021-08-05T14:29:31.500Z</time>
      </trkpt>
      <trkpt lat="46.97082" lon="8.78782">
        <ele>648</ele>
        <time>2021-08-05T14:29:32.500Z</time>
      </trkpt>
      <trkpt lat="46.97082" lon="8.78782">
        <ele>649</ele>
        <time>2021-08-05T14:29:33.499Z</time>
      </trkpt>
      <trkpt lat="46.97083" lon="8.78781">
        <ele>650</ele>
        <time>2021-08-05T14:29:34.500Z</time>
      </trkpt>
      <trkpt lat="46.97084" lon="8.78781">
        <ele>651</ele>
        <time>2021-08-05T14:29:35.500Z</time>
      </trkpt>
      <trkpt lat="46.97085" lon="8.78781">
        <ele>651</ele>
        <time>2021-08-05T14:29:36.499Z</time>
      </trkpt>
      <trkpt lat="46.97085" lon="8.78781">
        <ele>652</ele>
        <time>2021-08-05T14:29:37.500Z</time>
      </trkpt>
      <trkpt lat="46.97086" lon="8.78781">
        <ele>652</ele>
        <time>2021-08-05T14:29:38.499Z</time>
      </trkpt>
      <trkpt lat="46.97085" lon="8.78782">
        <ele>654</ele>
        <time>2021-08-05T14:29:39.500Z</time>
      </trkpt>
      <trkpt lat="46.97083" lon="8.78784">
        <ele>658</ele>
        <time>2021-08-05T14:29:40.500Z</time>
      </trkpt>
      <trkpt lat="46.97084" lon="8.78785">
        <ele>658</ele>
        <time>2021-08-05T14:29:41.500Z</time>
      </trkpt>
      <trkpt lat="46.97084" lon="8.78786">
        <ele>659</ele>
        <time>2021-08-05T14:29:42.499Z</time>
      </trkpt>
      <trkpt lat="46.97084" lon="8.78787">
        <ele>658</ele>
        <time>2021-08-05T14:29:43.499Z</time>
      </trkpt>
      <trkpt lat="46.97085" lon="8.78787">
        <ele>658</ele>
        <time>2021-08-05T14:29:44.500Z</time>
      </trkpt>
      <trkpt lat="46.97085" lon="8.78786">
        <ele>658</ele>
        <time>2021-08-05T14:29:45.500Z</time>
      </trkpt>
      <trkpt lat="46.97086" lon="8.78786">
        <ele>657</ele>
        <time>2021-08-05T14:29:46.500Z</time>
      </trkpt>
      <trkpt lat="46.97087" lon="8.78786">
        <ele>657</ele>
        <time>2021-08-05T14:29:47.500Z</time>
      </trkpt>
      <trkpt lat="46.97088" lon="8.78785">
        <ele>656</ele>
        <time>2021-08-05T14:29:48.499Z</time>
      </trkpt>
      <trkpt lat="46.97084" lon="8.78786">
        <ele>660</ele>
        <time>2021-08-05T14:29:49.500Z</time>
      </trkpt>
      <trkpt lat="46.97084" lon="8.78786">
        <ele>660</ele>
        <time>2021-08-05T14:29:50.500Z</time>
      </trkpt>
      <trkpt lat="46.97084" lon="8.78785">
        <ele>659</ele>
        <time>2021-08-05T14:29:51.500Z</time>
      </trkpt>
      <trkpt lat="46.97084" lon="8.78785">
        <ele>659</ele>
        <time>2021-08-05T14:29:52.501Z</time>
      </trkpt>
      <trkpt lat="46.97086" lon="8.78785">
        <ele>654</ele>
        <time>2021-08-05T14:29:53.502Z</time>
      </trkpt>
      <trkpt lat="46.97086" lon="8.78782">
        <ele>651</ele>
        <time>2021-08-05T14:29:54.503Z</time>
      </trkpt>
      <trkpt lat="46.97087" lon="8.78784">
        <ele>651</ele>
        <time>2021-08-05T14:29:55.503Z</time>
      </trkpt>
      <trkpt lat="46.97087" lon="8.78783">
        <ele>652</ele>
        <time>2021-08-05T14:29:56.503Z</time>
      </trkpt>
      <trkpt lat="46.97087" lon="8.78782">
        <ele>651</ele>
        <time>2021-08-05T14:29:57.503Z</time>
      </trkpt>
      <trkpt lat="46.97088" lon="8.78781">
        <ele>651</ele>
        <time>2021-08-05T14:29:58.502Z</time>
      </trkpt>
      <trkpt lat="46.97089" lon="8.78781">
        <ele>650</ele>
        <time>2021-08-05T14:29:59.503Z</time>
      </trkpt>
      <trkpt lat="46.97089" lon="8.78782">
        <ele>649</ele>
        <time>2021-08-05T14:30:05.632Z</time>
      </trkpt>
      <trkpt lat="46.97088" lon="8.78783">
        <ele>650</ele>
        <time>2021-08-05T14:30:06.632Z</time>
      </trkpt>
      <trkpt lat="46.97087" lon="8.78783">
        <ele>650</ele>
        <time>2021-08-05T14:30:07.632Z</time>
      </trkpt>
      <trkpt lat="46.97087" lon="8.78784">
        <ele>651</ele>
        <time>2021-08-05T14:30:08.632Z</time>
      </trkpt>
      <trkpt lat="46.97086" lon="8.78781">
        <ele>650</ele>
        <time>2021-08-05T14:30:09.635Z</time>
      </trkpt>
      <trkpt lat="46.97086" lon="8.78782">
        <ele>650</ele>
        <time>2021-08-05T14:30:10.634Z</time>
      </trkpt>
      <trkpt lat="46.97085" lon="8.78782">
        <ele>649</ele>
        <time>2021-08-05T14:30:11.634Z</time>
      </trkpt>
      <trkpt lat="46.97086" lon="8.78782">
        <ele>648</ele>
        <time>2021-08-05T14:30:12.634Z</time>
      </trkpt>
      <trkpt lat="46.97085" lon="8.78782">
        <ele>648</ele>
        <time>2021-08-05T14:30:13.634Z</time>
      </trkpt>
      <trkpt lat="46.9708" lon="8.78779">
        <ele>651</ele>
        <time>2021-08-05T14:30:14.636Z</time>
      </trkpt>
      <trkpt lat="46.9708" lon="8.7878">
        <ele>650</ele>
        <time>2021-08-05T14:30:15.635Z</time>
      </trkpt>
      <trkpt lat="46.97081" lon="8.7878">
        <ele>650</ele>
        <time>2021-08-05T14:30:16.636Z</time>
      </trkpt>
      <trkpt lat="46.97075" lon="8.78775">
        <ele>654</ele>
        <time>2021-08-05T14:30:17.636Z</time>
      </trkpt>
      <trkpt lat="46.97075" lon="8.78776">
        <ele>655</ele>
        <time>2021-08-05T14:30:18.636Z</time>
      </trkpt>
      <trkpt lat="46.97075" lon="8.78776">
        <ele>655</ele>
        <time>2021-08-05T14:30:19.636Z</time>
      </trkpt>
      <trkpt lat="46.97075" lon="8.78776">
        <ele>656</ele>
        <time>2021-08-05T14:30:20.636Z</time>
      </trkpt>
      <trkpt lat="46.97075" lon="8.78775">
        <ele>656</ele>
        <time>2021-08-05T14:30:21.636Z</time>
      </trkpt>
      <trkpt lat="46.97078" lon="8.78778">
        <ele>657</ele>
        <time>2021-08-05T14:30:22.636Z</time>
      </trkpt>
      <trkpt lat="46.97079" lon="8.78779">
        <ele>657</ele>
        <time>2021-08-05T14:30:23.637Z</time>
      </trkpt>
      <trkpt lat="46.9708" lon="8.78779">
        <ele>657</ele>
        <time>2021-08-05T14:30:24.637Z</time>
      </trkpt>
      <trkpt lat="46.9708" lon="8.7878">
        <ele>656</ele>
        <time>2021-08-05T14:30:25.636Z</time>
      </trkpt>
      <trkpt lat="46.9708" lon="8.78781">
        <ele>656</ele>
        <time>2021-08-05T14:30:26.636Z</time>
      </trkpt>
      <trkpt lat="46.97081" lon="8.78779">
        <ele>657</ele>
        <time>2021-08-05T14:30:27.638Z</time>
      </trkpt>
      <trkpt lat="46.97081" lon="8.7878">
        <ele>657</ele>
        <time>2021-08-05T14:30:28.638Z</time>
      </trkpt>
      <trkpt lat="46.9708" lon="8.78779">
        <ele>656</ele>
        <time>2021-08-05T14:30:29.638Z</time>
      </trkpt>
      <trkpt lat="46.97083" lon="8.78779">
        <ele>654</ele>
        <time>2021-08-05T14:30:30.638Z</time>
      </trkpt>
      <trkpt lat="46.97084" lon="8.78779">
        <ele>654</ele>
        <time>2021-08-05T14:30:31.638Z</time>
      </trkpt>
      <trkpt lat="46.97085" lon="8.78778">
        <ele>654</ele>
        <time>2021-08-05T14:30:32.637Z</time>
      </trkpt>
      <trkpt lat="46.97085" lon="8.78777">
        <ele>654</ele>
        <time>2021-08-05T14:30:33.638Z</time>
      </trkpt>
      <trkpt lat="46.97085" lon="8.78776">
        <ele>654</ele>
        <time>2021-08-05T14:30:34.637Z</time>
      </trkpt>
      <trkpt lat="46.97085" lon="8.78774">
        <ele>654</ele>
        <time>2021-08-05T14:30:35.637Z</time>
      </trkpt>
      <trkpt lat="46.97085" lon="8.78773">
        <ele>655</ele>
        <time>2021-08-05T14:30:36.637Z</time>
      </trkpt>
      <trkpt lat="46.97084" lon="8.78772">
        <ele>656</ele>
        <time>2021-08-05T14:30:37.638Z</time>
      </trkpt>
      <trkpt lat="46.97083" lon="8.78772">
        <ele>656</ele>
        <time>2021-08-05T14:30:38.637Z</time>
      </trkpt>
      <trkpt lat="46.97083" lon="8.78772">
        <ele>657</ele>
        <time>2021-08-05T14:30:39.637Z</time>
      </trkpt>
      <trkpt lat="46.97083" lon="8.78773">
        <ele>657</ele>
        <time>2021-08-05T14:30:40.638Z</time>
      </trkpt>
      <trkpt lat="46.97083" lon="8.78774">
        <ele>657</ele>
        <time>2021-08-05T14:30:41.638Z</time>
      </trkpt>
      <trkpt lat="46.97088" lon="8.78776">
        <ele>651</ele>
        <time>2021-08-05T14:30:42.639Z</time>
      </trkpt>
      <trkpt lat="46.97088" lon="8.78776">
        <ele>651</ele>
        <time>2021-08-05T14:30:43.639Z</time>
      </trkpt>
      <trkpt lat="46.97088" lon="8.78777">
        <ele>651</ele>
        <time>2021-08-05T14:30:44.639Z</time>
      </trkpt>
      <trkpt lat="46.97088" lon="8.78777">
        <ele>651</ele>
        <time>2021-08-05T14:30:45.638Z</time>
      </trkpt>
      <trkpt lat="46.97088" lon="8.78777">
        <ele>651</ele>
        <time>2021-08-05T14:30:46.638Z</time>
      </trkpt>
      <trkpt lat="46.97088" lon="8.78777">
        <ele>651</ele>
        <time>2021-08-05T14:30:47.639Z</time>
      </trkpt>
      <trkpt lat="46.97089" lon="8.78777">
        <ele>651</ele>
        <time>2021-08-05T14:30:48.638Z</time>
      </trkpt>
      <trkpt lat="46.97088" lon="8.78776">
        <ele>650</ele>
        <time>2021-08-05T14:30:49.640Z</time>
      </trkpt>
      <trkpt lat="46.97088" lon="8.78777">
        <ele>649</ele>
        <time>2021-08-05T14:30:50.640Z</time>
      </trkpt>
      <trkpt lat="46.97087" lon="8.78777">
        <ele>649</ele>
        <time>2021-08-05T14:30:51.639Z</time>
      </trkpt>
      <trkpt lat="46.97086" lon="8.78778">
        <ele>648</ele>
        <time>2021-08-05T14:30:52.639Z</time>
      </trkpt>
      <trkpt lat="46.97084" lon="8.78777">
        <ele>647</ele>
        <time>2021-08-05T14:30:53.640Z</time>
      </trkpt>
      <trkpt lat="46.97083" lon="8.78779">
        <ele>647</ele>
        <time>2021-08-05T14:30:54.639Z</time>
      </trkpt>
      <trkpt lat="46.97082" lon="8.7878">
        <ele>647</ele>
        <time>2021-08-05T14:30:55.640Z</time>
      </trkpt>
      <trkpt lat="46.97082" lon="8.78782">
        <ele>647</ele>
        <time>2021-08-05T14:30:56.640Z</time>
      </trkpt>
      <trkpt lat="46.97082" lon="8.78784">
        <ele>646</ele>
        <time>2021-08-05T14:30:57.640Z</time>
      </trkpt>
      <trkpt lat="46.97083" lon="8.78785">
        <ele>646</ele>
        <time>2021-08-05T14:30:58.640Z</time>
      </trkpt>
      <trkpt lat="46.97083" lon="8.78786">
        <ele>646</ele>
        <time>2021-08-05T14:30:59.640Z</time>
      </trkpt>
      <trkpt lat="46.97083" lon="8.78788">
        <ele>646</ele>
        <time>2021-08-05T14:31:00.640Z</time>
      </trkpt>
      <trkpt lat="46.97083" lon="8.78789">
        <ele>646</ele>
        <time>2021-08-05T14:31:01.639Z</time>
      </trkpt>
      <trkpt lat="46.97082" lon="8.7879">
        <ele>646</ele>
        <time>2021-08-05T14:31:02.640Z</time>
      </trkpt>
      <trkpt lat="46.97082" lon="8.78792">
        <ele>647</ele>
        <time>2021-08-05T14:31:03.640Z</time>
      </trkpt>
      <trkpt lat="46.97082" lon="8.78793">
        <ele>647</ele>
        <time>2021-08-05T14:31:04.639Z</time>
      </trkpt>
      <trkpt lat="46.97081" lon="8.78794">
        <ele>648</ele>
        <time>2021-08-05T14:31:05.640Z</time>
      </trkpt>
      <trkpt lat="46.97081" lon="8.78795">
        <ele>648</ele>
        <time>2021-08-05T14:31:06.640Z</time>
      </trkpt>
      <trkpt lat="46.9708" lon="8.78796">
        <ele>648</ele>
        <time>2021-08-05T14:31:07.640Z</time>
      </trkpt>
      <trkpt lat="46.9708" lon="8.78797">
        <ele>648</ele>
        <time>2021-08-05T14:31:08.639Z</time>
      </trkpt>
      <trkpt lat="46.97079" lon="8.78798">
        <ele>648</ele>
        <time>2021-08-05T14:31:09.640Z</time>
      </trkpt>
      <trkpt lat="46.97078" lon="8.78799">
        <ele>649</ele>
        <time>2021-08-05T14:31:10.640Z</time>
      </trkpt>
      <trkpt lat="46.97077" lon="8.788">
        <ele>649</ele>
        <time>2021-08-05T14:31:11.639Z</time>
      </trkpt>
      <trkpt lat="46.97076" lon="8.78801">
        <ele>649</ele>
        <time>2021-08-05T14:31:12.640Z</time>
      </trkpt>
      <trkpt lat="46.97075" lon="8.78803">
        <ele>649</ele>
        <time>2021-08-05T14:31:13.639Z</time>
      </trkpt>
      <trkpt lat="46.97074" lon="8.78804">
        <ele>649</ele>
        <time>2021-08-05T14:31:14.640Z</time>
      </trkpt>
      <trkpt lat="46.97073" lon="8.78805">
        <ele>649</ele>
        <time>2021-08-05T14:31:15.639Z</time>
      </trkpt>
      <trkpt lat="46.97073" lon="8.78805">
        <ele>649</ele>
        <time>2021-08-05T14:31:16.639Z</time>
      </trkpt>
      <trkpt lat="46.97072" lon="8.78806">
        <ele>649</ele>
        <time>2021-08-05T14:31:17.640Z</time>
      </trkpt>
      <trkpt lat="46.97072" lon="8.78806">
        <ele>649</ele>
        <time>2021-08-05T14:31:18.639Z</time>
      </trkpt>
      <trkpt lat="46.97071" lon="8.78806">
        <ele>648</ele>
        <time>2021-08-05T14:31:19.640Z</time>
      </trkpt>
      <trkpt lat="46.97071" lon="8.78806">
        <ele>648</ele>
        <time>2021-08-05T14:31:20.640Z</time>
      </trkpt>
      <trkpt lat="46.97071" lon="8.78806">
        <ele>648</ele>
        <time>2021-08-05T14:31:21.640Z</time>
      </trkpt>
      <trkpt lat="46.97071" lon="8.78808">
        <ele>647</ele>
        <time>2021-08-05T14:31:22.640Z</time>
      </trkpt>
      <trkpt lat="46.97069" lon="8.78808">
        <ele>647</ele>
        <time>2021-08-05T14:31:23.640Z</time>
      </trkpt>
      <trkpt lat="46.97071" lon="8.78807">
        <ele>654</ele>
        <time>2021-08-05T14:31:24.642Z</time>
      </trkpt>
      <trkpt lat="46.97072" lon="8.78808">
        <ele>655</ele>
        <time>2021-08-05T14:31:25.641Z</time>
      </trkpt>
      <trkpt lat="46.97072" lon="8.78808">
        <ele>655</ele>
        <time>2021-08-05T14:31:26.641Z</time>
      </trkpt>
      <trkpt lat="46.97073" lon="8.78808">
        <ele>659</ele>
        <time>2021-08-05T14:31:27.642Z</time>
      </trkpt>
      <trkpt lat="46.97074" lon="8.78808">
        <ele>660</ele>
        <time>2021-08-05T14:31:28.642Z</time>
      </trkpt>
      <trkpt lat="46.97074" lon="8.78809">
        <ele>660</ele>
        <time>2021-08-05T14:31:29.641Z</time>
      </trkpt>
      <trkpt lat="46.97074" lon="8.78809">
        <ele>661</ele>
        <time>2021-08-05T14:31:30.641Z</time>
      </trkpt>
      <trkpt lat="46.97073" lon="8.78809">
        <ele>661</ele>
        <time>2021-08-05T14:31:31.641Z</time>
      </trkpt>
      <trkpt lat="46.97072" lon="8.7881">
        <ele>661</ele>
        <time>2021-08-05T14:31:32.642Z</time>
      </trkpt>
      <trkpt lat="46.97072" lon="8.7881">
        <ele>661</ele>
        <time>2021-08-05T14:31:33.642Z</time>
      </trkpt>
      <trkpt lat="46.9707" lon="8.78809">
        <ele>661</ele>
        <time>2021-08-05T14:31:34.642Z</time>
      </trkpt>
      <trkpt lat="46.9707" lon="8.78808">
        <ele>660</ele>
        <time>2021-08-05T14:31:35.641Z</time>
      </trkpt>
      <trkpt lat="46.97071" lon="8.78808">
        <ele>660</ele>
        <time>2021-08-05T14:31:36.641Z</time>
      </trkpt>
      <trkpt lat="46.97072" lon="8.78808">
        <ele>660</ele>
        <time>2021-08-05T14:31:37.642Z</time>
      </trkpt>
      <trkpt lat="46.97074" lon="8.78811">
        <ele>660</ele>
        <time>2021-08-05T14:31:38.642Z</time>
      </trkpt>
      <trkpt lat="46.97074" lon="8.78811">
        <ele>659</ele>
        <time>2021-08-05T14:31:39.642Z</time>
      </trkpt>
      <trkpt lat="46.97076" lon="8.78812">
        <ele>651</ele>
        <time>2021-08-05T14:31:40.642Z</time>
      </trkpt>
      <trkpt lat="46.97076" lon="8.78812">
        <ele>650</ele>
        <time>2021-08-05T14:31:41.641Z</time>
      </trkpt>
      <trkpt lat="46.97075" lon="8.78812">
        <ele>649</ele>
        <time>2021-08-05T14:31:42.641Z</time>
      </trkpt>
      <trkpt lat="46.97071" lon="8.7881">
        <ele>647</ele>
        <time>2021-08-05T14:31:43.641Z</time>
      </trkpt>
      <trkpt lat="46.97071" lon="8.7881">
        <ele>648</ele>
        <time>2021-08-05T14:31:44.641Z</time>
      </trkpt>
      <trkpt lat="46.97074" lon="8.78812">
        <ele>652</ele>
        <time>2021-08-05T14:31:45.643Z</time>
      </trkpt>
      <trkpt lat="46.97076" lon="8.78812">
        <ele>659</ele>
        <time>2021-08-05T14:31:46.643Z</time>
      </trkpt>
      <trkpt lat="46.97076" lon="8.78812">
        <ele>659</ele>
        <time>2021-08-05T14:31:47.642Z</time>
      </trkpt>
      <trkpt lat="46.97077" lon="8.78811">
        <ele>659</ele>
        <time>2021-08-05T14:31:48.642Z</time>
      </trkpt>
      <trkpt lat="46.97078" lon="8.7881">
        <ele>659</ele>
        <time>2021-08-05T14:31:49.642Z</time>
      </trkpt>
      <trkpt lat="46.97079" lon="8.78809">
        <ele>659</ele>
        <time>2021-08-05T14:31:50.642Z</time>
      </trkpt>
      <trkpt lat="46.9708" lon="8.78807">
        <ele>658</ele>
        <time>2021-08-05T14:31:51.642Z</time>
      </trkpt>
      <trkpt lat="46.97081" lon="8.78807">
        <ele>658</ele>
        <time>2021-08-05T14:31:52.642Z</time>
      </trkpt>
      <trkpt lat="46.97081" lon="8.78806">
        <ele>658</ele>
        <time>2021-08-05T14:31:53.642Z</time>
      </trkpt>
      <trkpt lat="46.97081" lon="8.78804">
        <ele>658</ele>
        <time>2021-08-05T14:31:54.642Z</time>
      </trkpt>
      <trkpt lat="46.97081" lon="8.78803">
        <ele>658</ele>
        <time>2021-08-05T14:31:55.643Z</time>
      </trkpt>
      <trkpt lat="46.97082" lon="8.78802">
        <ele>658</ele>
        <time>2021-08-05T14:31:56.643Z</time>
      </trkpt>
      <trkpt lat="46.97082" lon="8.78801">
        <ele>658</ele>
        <time>2021-08-05T14:31:57.642Z</time>
      </trkpt>
      <trkpt lat="46.97083" lon="8.788">
        <ele>658</ele>
        <time>2021-08-05T14:31:58.642Z</time>
      </trkpt>
      <trkpt lat="46.97083" lon="8.78798">
        <ele>658</ele>
        <time>2021-08-05T14:31:59.642Z</time>
      </trkpt>
      <trkpt lat="46.97084" lon="8.78797">
        <ele>658</ele>
        <time>2021-08-05T14:32:00.642Z</time>
      </trkpt>
      <trkpt lat="46.97084" lon="8.78795">
        <ele>658</ele>
        <time>2021-08-05T14:32:01.642Z</time>
      </trkpt>
      <trkpt lat="46.97084" lon="8.78793">
        <ele>658</ele>
        <time>2021-08-05T14:32:02.642Z</time>
      </trkpt>
      <trkpt lat="46.97084" lon="8.78793">
        <ele>658</ele>
        <time>2021-08-05T14:32:03.642Z</time>
      </trkpt>
      <trkpt lat="46.97084" lon="8.78792">
        <ele>658</ele>
        <time>2021-08-05T14:32:04.642Z</time>
      </trkpt>
      <trkpt lat="46.97085" lon="8.7879">
        <ele>658</ele>
        <time>2021-08-05T14:32:05.642Z</time>
      </trkpt>
      <trkpt lat="46.97086" lon="8.78788">
        <ele>658</ele>
        <time>2021-08-05T14:32:06.643Z</time>
      </trkpt>
      <trkpt lat="46.97087" lon="8.78787">
        <ele>657</ele>
        <time>2021-08-05T14:32:07.643Z</time>
      </trkpt>
      <trkpt lat="46.97087" lon="8.78786">
        <ele>657</ele>
        <time>2021-08-05T14:32:08.642Z</time>
      </trkpt>
      <trkpt lat="46.97087" lon="8.78784">
        <ele>657</ele>
        <time>2021-08-05T14:32:09.643Z</time>
      </trkpt>
      <trkpt lat="46.97088" lon="8.78784">
        <ele>657</ele>
        <time>2021-08-05T14:32:10.642Z</time>
      </trkpt>
      <trkpt lat="46.97089" lon="8.78784">
        <ele>656</ele>
        <time>2021-08-05T14:32:11.643Z</time>
      </trkpt>
      <trkpt lat="46.9709" lon="8.78784">
        <ele>656</ele>
        <time>2021-08-05T14:32:12.643Z</time>
      </trkpt>
      <trkpt lat="46.97092" lon="8.78785">
        <ele>656</ele>
        <time>2021-08-05T14:32:13.643Z</time>
      </trkpt>
      <trkpt lat="46.97092" lon="8.78784">
        <ele>655</ele>
        <time>2021-08-05T14:32:14.643Z</time>
      </trkpt>
      <trkpt lat="46.97091" lon="8.78784">
        <ele>654</ele>
        <time>2021-08-05T14:32:15.642Z</time>
      </trkpt>
      <trkpt lat="46.97089" lon="8.78784">
        <ele>652</ele>
        <time>2021-08-05T14:32:16.642Z</time>
      </trkpt>
      <trkpt lat="46.9709" lon="8.78784">
        <ele>652</ele>
        <time>2021-08-05T14:32:17.642Z</time>
      </trkpt>
      <trkpt lat="46.9709" lon="8.78784">
        <ele>652</ele>
        <time>2021-08-05T14:32:18.642Z</time>
      </trkpt>
      <trkpt lat="46.9709" lon="8.78784">
        <ele>656</ele>
        <time>2021-08-05T14:32:19.644Z</time>
      </trkpt>
      <trkpt lat="46.9709" lon="8.78785">
        <ele>656</ele>
        <time>2021-08-05T14:32:20.643Z</time>
      </trkpt>
      <trkpt lat="46.97091" lon="8.78784">
        <ele>656</ele>
        <time>2021-08-05T14:32:21.645Z</time>
      </trkpt>
      <trkpt lat="46.97088" lon="8.78782">
        <ele>655</ele>
        <time>2021-08-05T14:32:22.646Z</time>
      </trkpt>
      <trkpt lat="46.97087" lon="8.78781">
        <ele>655</ele>
        <time>2021-08-05T14:32:23.645Z</time>
      </trkpt>
      <trkpt lat="46.97087" lon="8.78781">
        <ele>655</ele>
        <time>2021-08-05T14:32:24.645Z</time>
      </trkpt>
      <trkpt lat="46.97086" lon="8.78781">
        <ele>655</ele>
        <time>2021-08-05T14:32:25.645Z</time>
      </trkpt>
      <trkpt lat="46.97086" lon="8.78782">
        <ele>655</ele>
        <time>2021-08-05T14:32:26.646Z</time>
      </trkpt>
      <trkpt lat="46.97084" lon="8.78785">
        <ele>649</ele>
        <time>2021-08-05T14:32:27.646Z</time>
      </trkpt>
      <trkpt lat="46.97085" lon="8.78786">
        <ele>649</ele>
        <time>2021-08-05T14:32:28.646Z</time>
      </trkpt>
      <trkpt lat="46.97085" lon="8.78788">
        <ele>649</ele>
        <time>2021-08-05T14:32:29.645Z</time>
      </trkpt>
      <trkpt lat="46.97085" lon="8.78789">
        <ele>649</ele>
        <time>2021-08-05T14:32:30.646Z</time>
      </trkpt>
      <trkpt lat="46.97086" lon="8.78789">
        <ele>650</ele>
        <time>2021-08-05T14:32:31.646Z</time>
      </trkpt>
      <trkpt lat="46.97086" lon="8.7879">
        <ele>651</ele>
        <time>2021-08-05T14:32:32.645Z</time>
      </trkpt>
      <trkpt lat="46.97086" lon="8.7879">
        <ele>651</ele>
        <time>2021-08-05T14:32:33.646Z</time>
      </trkpt>
      <trkpt lat="46.97086" lon="8.7879">
        <ele>652</ele>
        <time>2021-08-05T14:32:34.646Z</time>
      </trkpt>
      <trkpt lat="46.97087" lon="8.7879">
        <ele>653</ele>
        <time>2021-08-05T14:32:35.645Z</time>
      </trkpt>
      <trkpt lat="46.97088" lon="8.7879">
        <ele>653</ele>
        <time>2021-08-05T14:32:36.645Z</time>
      </trkpt>
      <trkpt lat="46.9709" lon="8.7879">
        <ele>656</ele>
        <time>2021-08-05T14:32:37.646Z</time>
      </trkpt>
      <trkpt lat="46.97089" lon="8.7879">
        <ele>657</ele>
        <time>2021-08-05T14:32:38.645Z</time>
      </trkpt>
      <trkpt lat="46.97089" lon="8.7879">
        <ele>658</ele>
        <time>2021-08-05T14:32:39.645Z</time>
      </trkpt>
      <trkpt lat="46.9709" lon="8.7879">
        <ele>658</ele>
        <time>2021-08-05T14:32:40.646Z</time>
      </trkpt>
      <trkpt lat="46.9709" lon="8.78789">
        <ele>659</ele>
        <time>2021-08-05T14:32:41.645Z</time>
      </trkpt>
      <trkpt lat="46.97089" lon="8.78787">
        <ele>661</ele>
        <time>2021-08-05T14:32:42.646Z</time>
      </trkpt>
      <trkpt lat="46.97089" lon="8.78786">
        <ele>662</ele>
        <time>2021-08-05T14:32:43.645Z</time>
      </trkpt>
      <trkpt lat="46.9709" lon="8.78785">
        <ele>662</ele>
        <time>2021-08-05T14:32:44.646Z</time>
      </trkpt>
      <trkpt lat="46.9709" lon="8.78785">
        <ele>662</ele>
        <time>2021-08-05T14:32:45.645Z</time>
      </trkpt>
      <trkpt lat="46.9709" lon="8.78784">
        <ele>661</ele>
        <time>2021-08-05T14:32:46.645Z</time>
      </trkpt>
      <trkpt lat="46.9709" lon="8.78784">
        <ele>660</ele>
        <time>2021-08-05T14:32:47.646Z</time>
      </trkpt>
      <trkpt lat="46.97091" lon="8.78784">
        <ele>658</ele>
        <time>2021-08-05T14:32:48.645Z</time>
      </trkpt>
      <trkpt lat="46.97091" lon="8.78784">
        <ele>656</ele>
        <time>2021-08-05T14:32:49.646Z</time>
      </trkpt>
      <trkpt lat="46.97087" lon="8.78786">
        <ele>650</ele>
        <time>2021-08-05T14:32:50.647Z</time>
      </trkpt>
      <trkpt lat="46.97089" lon="8.78786">
        <ele>647</ele>
        <time>2021-08-05T14:32:51.647Z</time>
      </trkpt>
      <trkpt lat="46.97089" lon="8.78786">
        <ele>647</ele>
        <time>2021-08-05T14:32:52.648Z</time>
      </trkpt>
      <trkpt lat="46.97088" lon="8.78781">
        <ele>646</ele>
        <time>2021-08-05T14:32:53.647Z</time>
      </trkpt>
      <trkpt lat="46.97088" lon="8.78781">
        <ele>645</ele>
        <time>2021-08-05T14:32:54.649Z</time>
      </trkpt>
      <trkpt lat="46.97088" lon="8.78781">
        <ele>645</ele>
        <time>2021-08-05T14:32:55.649Z</time>
      </trkpt>
      <trkpt lat="46.97088" lon="8.78781">
        <ele>646</ele>
        <time>2021-08-05T14:32:56.648Z</time>
      </trkpt>
      <trkpt lat="46.97088" lon="8.78782">
        <ele>646</ele>
        <time>2021-08-05T14:32:57.649Z</time>
      </trkpt>
      <trkpt lat="46.97088" lon="8.78782">
        <ele>646</ele>
        <time>2021-08-05T14:32:58.649Z</time>
      </trkpt>
      <trkpt lat="46.97085" lon="8.78786">
        <ele>641</ele>
        <time>2021-08-05T14:32:59.648Z</time>
      </trkpt>
      <trkpt lat="46.97084" lon="8.78786">
        <ele>641</ele>
        <time>2021-08-05T14:33:00.648Z</time>
      </trkpt>
      <trkpt lat="46.97084" lon="8.78786">
        <ele>641</ele>
        <time>2021-08-05T14:33:01.648Z</time>
      </trkpt>
      <trkpt lat="46.97084" lon="8.78787">
        <ele>641</ele>
        <time>2021-08-05T14:33:02.648Z</time>
      </trkpt>
      <trkpt lat="46.97084" lon="8.78786">
        <ele>641</ele>
        <time>2021-08-05T14:33:03.648Z</time>
      </trkpt>
      <trkpt lat="46.97084" lon="8.78786">
        <ele>640</ele>
        <time>2021-08-05T14:33:04.648Z</time>
      </trkpt>
      <trkpt lat="46.97084" lon="8.78785">
        <ele>640</ele>
        <time>2021-08-05T14:33:05.649Z</time>
      </trkpt>
      <trkpt lat="46.97084" lon="8.78784">
        <ele>640</ele>
        <time>2021-08-05T14:33:06.649Z</time>
      </trkpt>
      <trkpt lat="46.97083" lon="8.78782">
        <ele>652</ele>
        <time>2021-08-05T14:33:07.649Z</time>
      </trkpt>
      <trkpt lat="46.97083" lon="8.78782">
        <ele>652</ele>
        <time>2021-08-05T14:33:08.649Z</time>
      </trkpt>
      <trkpt lat="46.97084" lon="8.78783">
        <ele>653</ele>
        <time>2021-08-05T14:33:09.649Z</time>
      </trkpt>
      <trkpt lat="46.97084" lon="8.78783">
        <ele>653</ele>
        <time>2021-08-05T14:33:10.650Z</time>
      </trkpt>
      <trkpt lat="46.97085" lon="8.78782">
        <ele>652</ele>
        <time>2021-08-05T14:33:11.649Z</time>
      </trkpt>
      <trkpt lat="46.97085" lon="8.78783">
        <ele>652</ele>
        <time>2021-08-05T14:33:12.649Z</time>
      </trkpt>
      <trkpt lat="46.97086" lon="8.78782">
        <ele>652</ele>
        <time>2021-08-05T14:33:13.649Z</time>
      </trkpt>
      <trkpt lat="46.97086" lon="8.78782">
        <ele>652</ele>
        <time>2021-08-05T14:33:14.649Z</time>
      </trkpt>
      <trkpt lat="46.97086" lon="8.78781">
        <ele>652</ele>
        <time>2021-08-05T14:33:15.649Z</time>
      </trkpt>
      <trkpt lat="46.97087" lon="8.78781">
        <ele>652</ele>
        <time>2021-08-05T14:33:16.649Z</time>
      </trkpt>
      <trkpt lat="46.97087" lon="8.7878">
        <ele>653</ele>
        <time>2021-08-05T14:33:17.650Z</time>
      </trkpt>
      <trkpt lat="46.97087" lon="8.78781">
        <ele>653</ele>
        <time>2021-08-05T14:33:18.649Z</time>
      </trkpt>
      <trkpt lat="46.97087" lon="8.78782">
        <ele>653</ele>
        <time>2021-08-05T14:33:19.649Z</time>
      </trkpt>
      <trkpt lat="46.97088" lon="8.78783">
        <ele>657</ele>
        <time>2021-08-05T14:33:20.651Z</time>
      </trkpt>
      <trkpt lat="46.97088" lon="8.78782">
        <ele>656</ele>
        <time>2021-08-05T14:33:21.650Z</time>
      </trkpt>
      <trkpt lat="46.97088" lon="8.78782">
        <ele>656</ele>
        <time>2021-08-05T14:33:22.650Z</time>
      </trkpt>
      <trkpt lat="46.97088" lon="8.78782">
        <ele>656</ele>
        <time>2021-08-05T14:33:23.650Z</time>
      </trkpt>
      <trkpt lat="46.97088" lon="8.78781">
        <ele>656</ele>
        <time>2021-08-05T14:33:24.651Z</time>
      </trkpt>
      <trkpt lat="46.97089" lon="8.78781">
        <ele>655</ele>
        <time>2021-08-05T14:33:25.651Z</time>
      </trkpt>
      <trkpt lat="46.97089" lon="8.78781">
        <ele>655</ele>
        <time>2021-08-05T14:33:26.651Z</time>
      </trkpt>
      <trkpt lat="46.97089" lon="8.78781">
        <ele>654</ele>
        <time>2021-08-05T14:33:27.651Z</time>
      </trkpt>
      <trkpt lat="46.97089" lon="8.78781">
        <ele>653</ele>
        <time>2021-08-05T14:33:28.650Z</time>
      </trkpt>
      <trkpt lat="46.97091" lon="8.7878">
        <ele>654</ele>
        <time>2021-08-05T14:33:29.653Z</time>
      </trkpt>
      <trkpt lat="46.97091" lon="8.7878">
        <ele>654</ele>
        <time>2021-08-05T14:33:30.653Z</time>
      </trkpt>
      <trkpt lat="46.9709" lon="8.7878">
        <ele>656</ele>
        <time>2021-08-05T14:33:31.653Z</time>
      </trkpt>
      <trkpt lat="46.9709" lon="8.7878">
        <ele>657</ele>
        <time>2021-08-05T14:33:32.653Z</time>
      </trkpt>
      <trkpt lat="46.9709" lon="8.7878">
        <ele>657</ele>
        <time>2021-08-05T14:33:33.653Z</time>
      </trkpt>
      <trkpt lat="46.9709" lon="8.78781">
        <ele>657</ele>
        <time>2021-08-05T14:33:34.652Z</time>
      </trkpt>
      <trkpt lat="46.9709" lon="8.78781">
        <ele>658</ele>
        <time>2021-08-05T14:33:35.653Z</time>
      </trkpt>
      <trkpt lat="46.9709" lon="8.78781">
        <ele>657</ele>
        <time>2021-08-05T14:33:36.652Z</time>
      </trkpt>
      <trkpt lat="46.9709" lon="8.78782">
        <ele>657</ele>
        <time>2021-08-05T14:33:37.652Z</time>
      </trkpt>
      <trkpt lat="46.97089" lon="8.78782">
        <ele>657</ele>
        <time>2021-08-05T14:33:38.653Z</time>
      </trkpt>
      <trkpt lat="46.97087" lon="8.78782">
        <ele>646</ele>
        <time>2021-08-06T08:25:04.294Z</time>
      </trkpt>
      <trkpt lat="46.97087" lon="8.78782">
        <ele>646</ele>
        <time>2021-08-06T08:25:04.294Z</time>
      </trkpt>
      <trkpt lat="46.97087" lon="8.78782">
        <ele>646</ele>
        <time>2021-08-06T08:25:04.294Z</time>
      </trkpt>
      <trkpt lat="46.97087" lon="8.78782">
        <ele>646</ele>
        <time>2021-08-06T08:25:05.295Z</time>
      </trkpt>
      <trkpt lat="46.97087" lon="8.78782">
        <ele>646</ele>
        <time>2021-08-06T08:25:06.295Z</time>
      </trkpt>
      <trkpt lat="46.97087" lon="8.78782">
        <ele>646</ele>
        <time>2021-08-06T08:25:07.295Z</time>
      </trkpt>
      <trkpt lat="46.97087" lon="8.78782">
        <ele>646</ele>
        <time>2021-08-06T08:25:08.295Z</time>
      </trkpt>
      <trkpt lat="46.97087" lon="8.78782">
        <ele>647</ele>
        <time>2021-08-06T08:25:09.295Z</time>
      </trkpt>
      <trkpt lat="46.97087" lon="8.78782">
        <ele>647</ele>
        <time>2021-08-06T08:25:10.295Z</time>
      </trkpt>
      <trkpt lat="46.97087" lon="8.78782">
        <ele>646</ele>
        <time>2021-08-06T08:25:11.294Z</time>
      </trkpt>
      <trkpt lat="46.97087" lon="8.78783">
        <ele>646</ele>
        <time>2021-08-06T08:25:12.294Z</time>
      </trkpt>
      <trkpt lat="46.97087" lon="8.78783">
        <ele>646</ele>
        <time>2021-08-06T08:25:13.294Z</time>
      </trkpt>
      <trkpt lat="46.97087" lon="8.78784">
        <ele>646</ele>
        <time>2021-08-06T08:25:14.295Z</time>
      </trkpt>
      <trkpt lat="46.97087" lon="8.78785">
        <ele>647</ele>
        <time>2021-08-06T08:25:15.294Z</time>
      </trkpt>
      <trkpt lat="46.97087" lon="8.78785">
        <ele>647</ele>
        <time>2021-08-06T08:25:16.294Z</time>
      </trkpt>
      <trkpt lat="46.97087" lon="8.78785">
        <ele>647</ele>
        <time>2021-08-06T08:25:17.294Z</time>
      </trkpt>
      <trkpt lat="46.97088" lon="8.78785">
        <ele>647</ele>
        <time>2021-08-06T08:25:18.294Z</time>
      </trkpt>
      <trkpt lat="46.97088" lon="8.78784">
        <ele>647</ele>
        <time>2021-08-06T08:25:19.294Z</time>
      </trkpt>
      <trkpt lat="46.97088" lon="8.78785">
        <ele>648</ele>
        <time>2021-08-06T08:25:20.295Z</time>
      </trkpt>
      <trkpt lat="46.97088" lon="8.78785">
        <ele>648</ele>
        <time>2021-08-06T08:25:21.294Z</time>
      </trkpt>
      <trkpt lat="46.97088" lon="8.78785">
        <ele>648</ele>
        <time>2021-08-06T08:25:22.295Z</time>
      </trkpt>
      <trkpt lat="46.97088" lon="8.78785">
        <ele>648</ele>
        <time>2021-08-06T08:25:23.294Z</time>
      </trkpt>
      <trkpt lat="46.97088" lon="8.78785">
        <ele>648</ele>
        <time>2021-08-06T08:25:24.294Z</time>
      </trkpt>
      <trkpt lat="46.97087" lon="8.78785">
        <ele>648</ele>
        <time>2021-08-06T08:25:25.294Z</time>
      </trkpt>
      <trkpt lat="46.97087" lon="8.78785">
        <ele>648</ele>
        <time>2021-08-06T08:25:26.295Z</time>
      </trkpt>
      <trkpt lat="46.97087" lon="8.78785">
        <ele>648</ele>
        <time>2021-08-06T08:25:27.294Z</time>
      </trkpt>
      <trkpt lat="46.97086" lon="8.78784">
        <ele>648</ele>
        <time>2021-08-06T08:25:28.295Z</time>
      </trkpt>
      <trkpt lat="46.97085" lon="8.78783">
        <ele>648</ele>
        <time>2021-08-06T08:25:29.294Z</time>
      </trkpt>
      <trkpt lat="46.97085" lon="8.78783">
        <ele>648</ele>
        <time>2021-08-06T08:25:30.294Z</time>
      </trkpt>
      <trkpt lat="46.97085" lon="8.78784">
        <ele>648</ele>
        <time>2021-08-06T08:25:31.295Z</time>
      </trkpt>
      <trkpt lat="46.97086" lon="8.78785">
        <ele>647</ele>
        <time>2021-08-06T08:25:32.295Z</time>
      </trkpt>
      <trkpt lat="46.97086" lon="8.78785">
        <ele>647</ele>
        <time>2021-08-06T08:25:33.295Z</time>
      </trkpt>
      <trkpt lat="46.97086" lon="8.78785">
        <ele>647</ele>
        <time>2021-08-06T08:25:34.294Z</time>
      </trkpt>
      <trkpt lat="46.97087" lon="8.78785">
        <ele>647</ele>
        <time>2021-08-06T08:25:35.294Z</time>
      </trkpt>
      <trkpt lat="46.97087" lon="8.78786">
        <ele>647</ele>
        <time>2021-08-06T08:25:36.295Z</time>
      </trkpt>
      <trkpt lat="46.97088" lon="8.78786">
        <ele>648</ele>
        <time>2021-08-06T08:25:37.295Z</time>
      </trkpt>
      <trkpt lat="46.97088" lon="8.78786">
        <ele>648</ele>
        <time>2021-08-06T08:25:38.294Z</time>
      </trkpt>
      <trkpt lat="46.97087" lon="8.78786">
        <ele>649</ele>
        <time>2021-08-06T08:25:39.295Z</time>
      </trkpt>
      <trkpt lat="46.97087" lon="8.78786">
        <ele>649</ele>
        <time>2021-08-06T08:25:40.295Z</time>
      </trkpt>
      <trkpt lat="46.97087" lon="8.78787">
        <ele>650</ele>
        <time>2021-08-06T08:25:41.295Z</time>
      </trkpt>
      <trkpt lat="46.97088" lon="8.78787">
        <ele>650</ele>
        <time>2021-08-06T08:25:42.294Z</time>
      </trkpt>
      <trkpt lat="46.97088" lon="8.78788">
        <ele>650</ele>
        <time>2021-08-06T08:25:43.294Z</time>
      </trkpt>
      <trkpt lat="46.97089" lon="8.78788">
        <ele>650</ele>
        <time>2021-08-06T08:25:44.295Z</time>
      </trkpt>
      <trkpt lat="46.97089" lon="8.78787">
        <ele>650</ele>
        <time>2021-08-06T08:25:45.295Z</time>
      </trkpt>
      <trkpt lat="46.97086" lon="8.78784">
        <ele>643</ele>
        <time>2021-08-06T08:25:46.294Z</time>
      </trkpt>
      <trkpt lat="46.97087" lon="8.78785">
        <ele>643</ele>
        <time>2021-08-06T08:25:47.294Z</time>
      </trkpt>
      <trkpt lat="46.97086" lon="8.78783">
        <ele>642</ele>
        <time>2021-08-06T08:25:48.295Z</time>
      </trkpt>
      <trkpt lat="46.9709" lon="8.78785">
        <ele>646</ele>
        <time>2021-08-06T08:25:49.296Z</time>
      </trkpt>
      <trkpt lat="46.9709" lon="8.78785">
        <ele>646</ele>
        <time>2021-08-06T08:25:50.295Z</time>
      </trkpt>
      <trkpt lat="46.97089" lon="8.78784">
        <ele>646</ele>
        <time>2021-08-06T08:25:51.295Z</time>
      </trkpt>
      <trkpt lat="46.97089" lon="8.78784">
        <ele>647</ele>
        <time>2021-08-06T08:25:52.295Z</time>
      </trkpt>
      <trkpt lat="46.97089" lon="8.78785">
        <ele>647</ele>
        <time>2021-08-06T08:25:53.296Z</time>
      </trkpt>
      <trkpt lat="46.97089" lon="8.78786">
        <ele>643</ele>
        <time>2021-08-06T08:25:54.295Z</time>
      </trkpt>
      <trkpt lat="46.9709" lon="8.78787">
        <ele>643</ele>
        <time>2021-08-06T08:25:55.296Z</time>
      </trkpt>
      <trkpt lat="46.9709" lon="8.78788">
        <ele>643</ele>
        <time>2021-08-06T08:25:56.295Z</time>
      </trkpt>
      <trkpt lat="46.97086" lon="8.78785">
        <ele>645</ele>
        <time>2021-08-06T08:25:57.296Z</time>
      </trkpt>
      <trkpt lat="46.97086" lon="8.78785">
        <ele>645</ele>
        <time>2021-08-06T08:25:58.296Z</time>
      </trkpt>
      <trkpt lat="46.97087" lon="8.78786">
        <ele>645</ele>
        <time>2021-08-06T08:25:59.296Z</time>
      </trkpt>
      <trkpt lat="46.97087" lon="8.78786">
        <ele>645</ele>
        <time>2021-08-06T08:26:00.297Z</time>
      </trkpt>
      <trkpt lat="46.97087" lon="8.78787">
        <ele>645</ele>
        <time>2021-08-06T08:26:01.297Z</time>
      </trkpt>
      <trkpt lat="46.97086" lon="8.78785">
        <ele>645</ele>
        <time>2021-08-06T08:26:02.298Z</time>
      </trkpt>
      <trkpt lat="46.97085" lon="8.78784">
        <ele>645</ele>
        <time>2021-08-06T08:26:03.298Z</time>
      </trkpt>
      <trkpt lat="46.97085" lon="8.78786">
        <ele>646</ele>
        <time>2021-08-06T08:26:04.298Z</time>
      </trkpt>
      <trkpt lat="46.97086" lon="8.78787">
        <ele>646</ele>
        <time>2021-08-06T08:26:05.297Z</time>
      </trkpt>
      <trkpt lat="46.97087" lon="8.78787">
        <ele>645</ele>
        <time>2021-08-06T08:26:06.297Z</time>
      </trkpt>
      <trkpt lat="46.97087" lon="8.78787">
        <ele>645</ele>
        <time>2021-08-06T08:26:07.298Z</time>
      </trkpt>
      <trkpt lat="46.97088" lon="8.78786">
        <ele>645</ele>
        <time>2021-08-06T08:26:08.298Z</time>
      </trkpt>
      <trkpt lat="46.97088" lon="8.78786">
        <ele>645</ele>
        <time>2021-08-06T08:26:09.297Z</time>
      </trkpt>
      <trkpt lat="46.97089" lon="8.78786">
        <ele>645</ele>
        <time>2021-08-06T08:26:10.298Z</time>
      </trkpt>
      <trkpt lat="46.97088" lon="8.78782">
        <ele>646</ele>
        <time>2021-08-06T08:26:11.298Z</time>
      </trkpt>
      <trkpt lat="46.97087" lon="8.78781">
        <ele>646</ele>
        <time>2021-08-06T08:26:12.297Z</time>
      </trkpt>
      <trkpt lat="46.97087" lon="8.78782">
        <ele>648</ele>
        <time>2021-08-06T08:26:13.298Z</time>
      </trkpt>
      <trkpt lat="46.97087" lon="8.78782">
        <ele>648</ele>
        <time>2021-08-06T08:26:14.299Z</time>
      </trkpt>
      <trkpt lat="46.97087" lon="8.78782">
        <ele>649</ele>
        <time>2021-08-06T08:26:15.299Z</time>
      </trkpt>
      <trkpt lat="46.97088" lon="8.78783">
        <ele>649</ele>
        <time>2021-08-06T08:26:16.299Z</time>
      </trkpt>
      <trkpt lat="46.97088" lon="8.78784">
        <ele>648</ele>
        <time>2021-08-06T08:26:17.298Z</time>
      </trkpt>
      <trkpt lat="46.97088" lon="8.78784">
        <ele>649</ele>
        <time>2021-08-06T08:26:18.299Z</time>
      </trkpt>
      <trkpt lat="46.97088" lon="8.78784">
        <ele>649</ele>
        <time>2021-08-06T08:26:19.299Z</time>
      </trkpt>
      <trkpt lat="46.97089" lon="8.78784">
        <ele>649</ele>
        <time>2021-08-06T08:26:20.299Z</time>
      </trkpt>
      <trkpt lat="46.97089" lon="8.78783">
        <ele>649</ele>
        <time>2021-08-06T08:26:21.299Z</time>
      </trkpt>
      <trkpt lat="46.97089" lon="8.78781">
        <ele>650</ele>
        <time>2021-08-06T08:26:22.299Z</time>
      </trkpt>
      <trkpt lat="46.97089" lon="8.78781">
        <ele>650</ele>
        <time>2021-08-06T08:26:23.298Z</time>
      </trkpt>
      <trkpt lat="46.97088" lon="8.7878">
        <ele>649</ele>
        <time>2021-08-06T08:26:24.298Z</time>
      </trkpt>
      <trkpt lat="46.97087" lon="8.7878">
        <ele>649</ele>
        <time>2021-08-06T08:26:25.298Z</time>
      </trkpt>
      <trkpt lat="46.97087" lon="8.7878">
        <ele>649</ele>
        <time>2021-08-06T08:26:26.298Z</time>
      </trkpt>
      <trkpt lat="46.97086" lon="8.7878">
        <ele>649</ele>
        <time>2021-08-06T08:26:27.298Z</time>
      </trkpt>
      <trkpt lat="46.97085" lon="8.7878">
        <ele>649</ele>
        <time>2021-08-06T08:26:28.298Z</time>
      </trkpt>
      <trkpt lat="46.97085" lon="8.7878">
        <ele>649</ele>
        <time>2021-08-06T08:26:29.299Z</time>
      </trkpt>
      <trkpt lat="46.97085" lon="8.78781">
        <ele>649</ele>
        <time>2021-08-06T08:26:30.298Z</time>
      </trkpt>
      <trkpt lat="46.97086" lon="8.78782">
        <ele>648</ele>
        <time>2021-08-06T08:26:31.298Z</time>
      </trkpt>
      <trkpt lat="46.97087" lon="8.78782">
        <ele>648</ele>
        <time>2021-08-06T08:26:32.298Z</time>
      </trkpt>
      <trkpt lat="46.97087" lon="8.78783">
        <ele>648</ele>
        <time>2021-08-06T08:26:33.298Z</time>
      </trkpt>
      <trkpt lat="46.97088" lon="8.78783">
        <ele>648</ele>
        <time>2021-08-06T08:26:34.299Z</time>
      </trkpt>
      <trkpt lat="46.97089" lon="8.78783">
        <ele>647</ele>
        <time>2021-08-06T08:26:35.298Z</time>
      </trkpt>
      <trkpt lat="46.9709" lon="8.78783">
        <ele>647</ele>
        <time>2021-08-06T08:26:36.298Z</time>
      </trkpt>
      <trkpt lat="46.97091" lon="8.78783">
        <ele>646</ele>
        <time>2021-08-06T08:26:37.298Z</time>
      </trkpt>
      <trkpt lat="46.97093" lon="8.78783">
        <ele>646</ele>
        <time>2021-08-06T08:26:38.299Z</time>
      </trkpt>
      <trkpt lat="46.97094" lon="8.78782">
        <ele>646</ele>
        <time>2021-08-06T08:26:39.298Z</time>
      </trkpt>
      <trkpt lat="46.97095" lon="8.78781">
        <ele>645</ele>
        <time>2021-08-06T08:26:40.298Z</time>
      </trkpt>
      <trkpt lat="46.97096" lon="8.78781">
        <ele>645</ele>
        <time>2021-08-06T08:26:41.298Z</time>
      </trkpt>
      <trkpt lat="46.97097" lon="8.7878">
        <ele>644</ele>
        <time>2021-08-06T08:26:42.299Z</time>
      </trkpt>
      <trkpt lat="46.97097" lon="8.7878">
        <ele>644</ele>
        <time>2021-08-06T08:26:43.298Z</time>
      </trkpt>
      <trkpt lat="46.97097" lon="8.78778">
        <ele>644</ele>
        <time>2021-08-06T08:26:44.298Z</time>
      </trkpt>
      <trkpt lat="46.97097" lon="8.78776">
        <ele>643</ele>
        <time>2021-08-06T08:26:45.300Z</time>
      </trkpt>
      <trkpt lat="46.97097" lon="8.78776">
        <ele>643</ele>
        <time>2021-08-06T08:26:46.300Z</time>
      </trkpt>
      <trkpt lat="46.97098" lon="8.78776">
        <ele>643</ele>
        <time>2021-08-06T08:26:47.299Z</time>
      </trkpt>
      <trkpt lat="46.97098" lon="8.78776">
        <ele>643</ele>
        <time>2021-08-06T08:26:48.299Z</time>
      </trkpt>
      <trkpt lat="46.97098" lon="8.78777">
        <ele>644</ele>
        <time>2021-08-06T08:26:49.301Z</time>
      </trkpt>
      <trkpt lat="46.97099" lon="8.78776">
        <ele>644</ele>
        <time>2021-08-06T08:26:50.300Z</time>
      </trkpt>
      <trkpt lat="46.971" lon="8.78776">
        <ele>644</ele>
        <time>2021-08-06T08:26:51.301Z</time>
      </trkpt>
      <trkpt lat="46.971" lon="8.78775">
        <ele>644</ele>
        <time>2021-08-06T08:26:52.301Z</time>
      </trkpt>
      <trkpt lat="46.97102" lon="8.78775">
        <ele>644</ele>
        <time>2021-08-06T08:26:53.301Z</time>
      </trkpt>
      <trkpt lat="46.97103" lon="8.78775">
        <ele>644</ele>
        <time>2021-08-06T08:26:54.301Z</time>
      </trkpt>
      <trkpt lat="46.97104" lon="8.78774">
        <ele>645</ele>
        <time>2021-08-06T08:26:55.300Z</time>
      </trkpt>
      <trkpt lat="46.97105" lon="8.78773">
        <ele>645</ele>
        <time>2021-08-06T08:26:56.301Z</time>
      </trkpt>
      <trkpt lat="46.97105" lon="8.78772">
        <ele>645</ele>
        <time>2021-08-06T08:26:57.300Z</time>
      </trkpt>
      <trkpt lat="46.97104" lon="8.78771">
        <ele>645</ele>
        <time>2021-08-06T08:26:58.301Z</time>
      </trkpt>
      <trkpt lat="46.97106" lon="8.7877">
        <ele>649</ele>
        <time>2021-08-06T08:26:59.301Z</time>
      </trkpt>
      <trkpt lat="46.97107" lon="8.7877">
        <ele>649</ele>
        <time>2021-08-06T08:27:00.301Z</time>
      </trkpt>
      <trkpt lat="46.97108" lon="8.78769">
        <ele>649</ele>
        <time>2021-08-06T08:27:01.302Z</time>
      </trkpt>
      <trkpt lat="46.97109" lon="8.78768">
        <ele>650</ele>
        <time>2021-08-06T08:27:02.301Z</time>
      </trkpt>
      <trkpt lat="46.9711" lon="8.78766">
        <ele>650</ele>
        <time>2021-08-06T08:27:03.301Z</time>
      </trkpt>
      <trkpt lat="46.9711" lon="8.78765">
        <ele>650</ele>
        <time>2021-08-06T08:27:04.302Z</time>
      </trkpt>
      <trkpt lat="46.97111" lon="8.78764">
        <ele>650</ele>
        <time>2021-08-06T08:27:05.302Z</time>
      </trkpt>
      <trkpt lat="46.97112" lon="8.78762">
        <ele>650</ele>
        <time>2021-08-06T08:27:06.302Z</time>
      </trkpt>
      <trkpt lat="46.97112" lon="8.78761">
        <ele>650</ele>
        <time>2021-08-06T08:27:07.301Z</time>
      </trkpt>
      <trkpt lat="46.97113" lon="8.78759">
        <ele>650</ele>
        <time>2021-08-06T08:27:08.302Z</time>
      </trkpt>
      <trkpt lat="46.97113" lon="8.78758">
        <ele>650</ele>
        <time>2021-08-06T08:27:09.301Z</time>
      </trkpt>
      <trkpt lat="46.97114" lon="8.78756">
        <ele>649</ele>
        <time>2021-08-06T08:27:10.302Z</time>
      </trkpt>
      <trkpt lat="46.97114" lon="8.78755">
        <ele>649</ele>
        <time>2021-08-06T08:27:11.301Z</time>
      </trkpt>
      <trkpt lat="46.97115" lon="8.78754">
        <ele>648</ele>
        <time>2021-08-06T08:27:12.301Z</time>
      </trkpt>
      <trkpt lat="46.97115" lon="8.78752">
        <ele>648</ele>
        <time>2021-08-06T08:27:13.301Z</time>
      </trkpt>
      <trkpt lat="46.97115" lon="8.78751">
        <ele>648</ele>
        <time>2021-08-06T08:27:14.301Z</time>
      </trkpt>
      <trkpt lat="46.97116" lon="8.7875">
        <ele>647</ele>
        <time>2021-08-06T08:27:15.302Z</time>
      </trkpt>
      <trkpt lat="46.97116" lon="8.78748">
        <ele>647</ele>
        <time>2021-08-06T08:27:16.301Z</time>
      </trkpt>
      <trkpt lat="46.97116" lon="8.78747">
        <ele>647</ele>
        <time>2021-08-06T08:27:17.301Z</time>
      </trkpt>
      <trkpt lat="46.97117" lon="8.78745">
        <ele>646</ele>
        <time>2021-08-06T08:27:18.302Z</time>
      </trkpt>
      <trkpt lat="46.97117" lon="8.78744">
        <ele>646</ele>
        <time>2021-08-06T08:27:19.302Z</time>
      </trkpt>
      <trkpt lat="46.97118" lon="8.78743">
        <ele>646</ele>
        <time>2021-08-06T08:27:20.302Z</time>
      </trkpt>
      <trkpt lat="46.97119" lon="8.78741">
        <ele>646</ele>
        <time>2021-08-06T08:27:21.302Z</time>
      </trkpt>
      <trkpt lat="46.9712" lon="8.7874">
        <ele>646</ele>
        <time>2021-08-06T08:27:22.301Z</time>
      </trkpt>
      <trkpt lat="46.97121" lon="8.78738">
        <ele>647</ele>
        <time>2021-08-06T08:27:23.302Z</time>
      </trkpt>
      <trkpt lat="46.97121" lon="8.78736">
        <ele>647</ele>
        <time>2021-08-06T08:27:24.302Z</time>
      </trkpt>
      <trkpt lat="46.97122" lon="8.78735">
        <ele>648</ele>
        <time>2021-08-06T08:27:25.301Z</time>
      </trkpt>
      <trkpt lat="46.97123" lon="8.78733">
        <ele>648</ele>
        <time>2021-08-06T08:27:26.301Z</time>
      </trkpt>
      <trkpt lat="46.97123" lon="8.78732">
        <ele>647</ele>
        <time>2021-08-06T08:27:27.301Z</time>
      </trkpt>
      <trkpt lat="46.97123" lon="8.7873">
        <ele>647</ele>
        <time>2021-08-06T08:27:28.301Z</time>
      </trkpt>
      <trkpt lat="46.97124" lon="8.78729">
        <ele>647</ele>
        <time>2021-08-06T08:27:29.302Z</time>
      </trkpt>
      <trkpt lat="46.97124" lon="8.78728">
        <ele>647</ele>
        <time>2021-08-06T08:27:30.301Z</time>
      </trkpt>
      <trkpt lat="46.97124" lon="8.78726">
        <ele>647</ele>
        <time>2021-08-06T08:27:31.302Z</time>
      </trkpt>
      <trkpt lat="46.97124" lon="8.78725">
        <ele>646</ele>
        <time>2021-08-06T08:27:32.302Z</time>
      </trkpt>
      <trkpt lat="46.97124" lon="8.78723">
        <ele>646</ele>
        <time>2021-08-06T08:27:33.301Z</time>
      </trkpt>
      <trkpt lat="46.97124" lon="8.78722">
        <ele>646</ele>
        <time>2021-08-06T08:27:34.302Z</time>
      </trkpt>
      <trkpt lat="46.97124" lon="8.7872">
        <ele>646</ele>
        <time>2021-08-06T08:27:35.302Z</time>
      </trkpt>
      <trkpt lat="46.97124" lon="8.78719">
        <ele>646</ele>
        <time>2021-08-06T08:27:36.302Z</time>
      </trkpt>
      <trkpt lat="46.97124" lon="8.78718">
        <ele>646</ele>
        <time>2021-08-06T08:27:37.301Z</time>
      </trkpt>
      <trkpt lat="46.97124" lon="8.78716">
        <ele>646</ele>
        <time>2021-08-06T08:27:38.302Z</time>
      </trkpt>
      <trkpt lat="46.97124" lon="8.78714">
        <ele>647</ele>
        <time>2021-08-06T08:27:39.302Z</time>
      </trkpt>
      <trkpt lat="46.97124" lon="8.78713">
        <ele>647</ele>
        <time>2021-08-06T08:27:40.301Z</time>
      </trkpt>
      <trkpt lat="46.97124" lon="8.78711">
        <ele>647</ele>
        <time>2021-08-06T08:27:41.302Z</time>
      </trkpt>
      <trkpt lat="46.97125" lon="8.7871">
        <ele>647</ele>
        <time>2021-08-06T08:27:42.301Z</time>
      </trkpt>
      <trkpt lat="46.97125" lon="8.78709">
        <ele>647</ele>
        <time>2021-08-06T08:27:43.302Z</time>
      </trkpt>
      <trkpt lat="46.97126" lon="8.78707">
        <ele>647</ele>
        <time>2021-08-06T08:27:44.301Z</time>
      </trkpt>
      <trkpt lat="46.97127" lon="8.78706">
        <ele>647</ele>
        <time>2021-08-06T08:27:45.302Z</time>
      </trkpt>
      <trkpt lat="46.97127" lon="8.78704">
        <ele>646</ele>
        <time>2021-08-06T08:27:46.302Z</time>
      </trkpt>
      <trkpt lat="46.97127" lon="8.78703">
        <ele>646</ele>
        <time>2021-08-06T08:27:47.301Z</time>
      </trkpt>
      <trkpt lat="46.97127" lon="8.78701">
        <ele>646</ele>
        <time>2021-08-06T08:27:48.301Z</time>
      </trkpt>
      <trkpt lat="46.97127" lon="8.787">
        <ele>646</ele>
        <time>2021-08-06T08:27:49.302Z</time>
      </trkpt>
      <trkpt lat="46.97127" lon="8.78698">
        <ele>646</ele>
        <time>2021-08-06T08:27:50.302Z</time>
      </trkpt>
      <trkpt lat="46.97128" lon="8.78696">
        <ele>646</ele>
        <time>2021-08-06T08:27:51.302Z</time>
      </trkpt>
      <trkpt lat="46.97128" lon="8.78694">
        <ele>646</ele>
        <time>2021-08-06T08:27:52.302Z</time>
      </trkpt>
      <trkpt lat="46.97129" lon="8.78693">
        <ele>646</ele>
        <time>2021-08-06T08:27:53.302Z</time>
      </trkpt>
      <trkpt lat="46.9713" lon="8.78691">
        <ele>646</ele>
        <time>2021-08-06T08:27:54.301Z</time>
      </trkpt>
      <trkpt lat="46.97131" lon="8.78689">
        <ele>646</ele>
        <time>2021-08-06T08:27:55.301Z</time>
      </trkpt>
      <trkpt lat="46.97131" lon="8.78688">
        <ele>646</ele>
        <time>2021-08-06T08:27:56.302Z</time>
      </trkpt>
      <trkpt lat="46.97131" lon="8.78686">
        <ele>646</ele>
        <time>2021-08-06T08:27:57.302Z</time>
      </trkpt>
      <trkpt lat="46.97131" lon="8.78685">
        <ele>646</ele>
        <time>2021-08-06T08:27:58.302Z</time>
      </trkpt>
      <trkpt lat="46.97131" lon="8.78683">
        <ele>645</ele>
        <time>2021-08-06T08:27:59.302Z</time>
      </trkpt>
      <trkpt lat="46.97131" lon="8.78681">
        <ele>645</ele>
        <time>2021-08-06T08:28:00.302Z</time>
      </trkpt>
      <trkpt lat="46.97132" lon="8.78679">
        <ele>645</ele>
        <time>2021-08-06T08:28:01.302Z</time>
      </trkpt>
      <trkpt lat="46.97133" lon="8.78677">
        <ele>645</ele>
        <time>2021-08-06T08:28:02.302Z</time>
      </trkpt>
      <trkpt lat="46.97134" lon="8.78676">
        <ele>646</ele>
        <time>2021-08-06T08:28:03.301Z</time>
      </trkpt>
      <trkpt lat="46.97134" lon="8.78674">
        <ele>646</ele>
        <time>2021-08-06T08:28:04.302Z</time>
      </trkpt>
      <trkpt lat="46.97135" lon="8.78673">
        <ele>646</ele>
        <time>2021-08-06T08:28:05.302Z</time>
      </trkpt>
      <trkpt lat="46.97135" lon="8.78671">
        <ele>647</ele>
        <time>2021-08-06T08:28:06.302Z</time>
      </trkpt>
      <trkpt lat="46.97136" lon="8.7867">
        <ele>647</ele>
        <time>2021-08-06T08:28:07.302Z</time>
      </trkpt>
      <trkpt lat="46.97136" lon="8.78668">
        <ele>648</ele>
        <time>2021-08-06T08:28:08.301Z</time>
      </trkpt>
      <trkpt lat="46.97137" lon="8.78666">
        <ele>648</ele>
        <time>2021-08-06T08:28:09.302Z</time>
      </trkpt>
      <trkpt lat="46.97138" lon="8.78665">
        <ele>648</ele>
        <time>2021-08-06T08:28:10.302Z</time>
      </trkpt>
      <trkpt lat="46.97138" lon="8.78663">
        <ele>647</ele>
        <time>2021-08-06T08:28:11.302Z</time>
      </trkpt>
      <trkpt lat="46.97138" lon="8.78662">
        <ele>647</ele>
        <time>2021-08-06T08:28:12.302Z</time>
      </trkpt>
      <trkpt lat="46.97138" lon="8.7866">
        <ele>647</ele>
        <time>2021-08-06T08:28:13.302Z</time>
      </trkpt>
      <trkpt lat="46.97138" lon="8.78658">
        <ele>647</ele>
        <time>2021-08-06T08:28:14.301Z</time>
      </trkpt>
      <trkpt lat="46.97138" lon="8.78656">
        <ele>647</ele>
        <time>2021-08-06T08:28:15.302Z</time>
      </trkpt>
      <trkpt lat="46.97139" lon="8.78654">
        <ele>647</ele>
        <time>2021-08-06T08:28:16.301Z</time>
      </trkpt>
      <trkpt lat="46.97139" lon="8.78653">
        <ele>647</ele>
        <time>2021-08-06T08:28:17.302Z</time>
      </trkpt>
      <trkpt lat="46.9714" lon="8.78651">
        <ele>646</ele>
        <time>2021-08-06T08:28:18.302Z</time>
      </trkpt>
      <trkpt lat="46.97141" lon="8.7865">
        <ele>646</ele>
        <time>2021-08-06T08:28:19.301Z</time>
      </trkpt>
      <trkpt lat="46.97141" lon="8.78648">
        <ele>646</ele>
        <time>2021-08-06T08:28:20.302Z</time>
      </trkpt>
      <trkpt lat="46.97141" lon="8.78647">
        <ele>646</ele>
        <time>2021-08-06T08:28:21.301Z</time>
      </trkpt>
      <trkpt lat="46.97141" lon="8.78646">
        <ele>645</ele>
        <time>2021-08-06T08:28:22.302Z</time>
      </trkpt>
      <trkpt lat="46.97141" lon="8.78644">
        <ele>645</ele>
        <time>2021-08-06T08:28:23.302Z</time>
      </trkpt>
      <trkpt lat="46.97141" lon="8.78642">
        <ele>645</ele>
        <time>2021-08-06T08:28:24.301Z</time>
      </trkpt>
      <trkpt lat="46.97141" lon="8.78641">
        <ele>644</ele>
        <time>2021-08-06T08:28:25.302Z</time>
      </trkpt>
      <trkpt lat="46.97142" lon="8.7864">
        <ele>644</ele>
        <time>2021-08-06T08:28:26.302Z</time>
      </trkpt>
      <trkpt lat="46.97142" lon="8.78638">
        <ele>643</ele>
        <time>2021-08-06T08:28:27.302Z</time>
      </trkpt>
      <trkpt lat="46.97142" lon="8.78637">
        <ele>643</ele>
        <time>2021-08-06T08:28:28.302Z</time>
      </trkpt>
      <trkpt lat="46.97142" lon="8.78635">
        <ele>643</ele>
        <time>2021-08-06T08:28:29.301Z</time>
      </trkpt>
      <trkpt lat="46.97142" lon="8.78634">
        <ele>643</ele>
        <time>2021-08-06T08:28:30.301Z</time>
      </trkpt>
      <trkpt lat="46.97143" lon="8.78633">
        <ele>643</ele>
        <time>2021-08-06T08:28:31.302Z</time>
      </trkpt>
      <trkpt lat="46.97143" lon="8.78632">
        <ele>643</ele>
        <time>2021-08-06T08:28:32.301Z</time>
      </trkpt>
      <trkpt lat="46.97144" lon="8.7863">
        <ele>643</ele>
        <time>2021-08-06T08:28:33.301Z</time>
      </trkpt>
      <trkpt lat="46.97145" lon="8.78629">
        <ele>643</ele>
        <time>2021-08-06T08:28:34.301Z</time>
      </trkpt>
      <trkpt lat="46.97145" lon="8.78627">
        <ele>643</ele>
        <time>2021-08-06T08:28:35.301Z</time>
      </trkpt>
      <trkpt lat="46.97145" lon="8.78626">
        <ele>643</ele>
        <time>2021-08-06T08:28:36.301Z</time>
      </trkpt>
      <trkpt lat="46.97145" lon="8.78625">
        <ele>643</ele>
        <time>2021-08-06T08:28:37.302Z</time>
      </trkpt>
      <trkpt lat="46.97145" lon="8.78624">
        <ele>643</ele>
        <time>2021-08-06T08:28:38.301Z</time>
      </trkpt>
      <trkpt lat="46.97145" lon="8.78622">
        <ele>644</ele>
        <time>2021-08-06T08:28:39.301Z</time>
      </trkpt>
      <trkpt lat="46.97145" lon="8.78621">
        <ele>644</ele>
        <time>2021-08-06T08:28:40.301Z</time>
      </trkpt>
      <trkpt lat="46.97146" lon="8.7862">
        <ele>645</ele>
        <time>2021-08-06T08:28:41.302Z</time>
      </trkpt>
      <trkpt lat="46.97146" lon="8.78618">
        <ele>645</ele>
        <time>2021-08-06T08:28:42.302Z</time>
      </trkpt>
      <trkpt lat="46.97147" lon="8.78617">
        <ele>646</ele>
        <time>2021-08-06T08:28:43.301Z</time>
      </trkpt>
      <trkpt lat="46.97148" lon="8.78615">
        <ele>646</ele>
        <time>2021-08-06T08:28:44.301Z</time>
      </trkpt>
      <trkpt lat="46.97148" lon="8.78614">
        <ele>646</ele>
        <time>2021-08-06T08:28:45.302Z</time>
      </trkpt>
      <trkpt lat="46.97149" lon="8.78612">
        <ele>647</ele>
        <time>2021-08-06T08:28:46.302Z</time>
      </trkpt>
      <trkpt lat="46.97149" lon="8.78611">
        <ele>647</ele>
        <time>2021-08-06T08:28:47.301Z</time>
      </trkpt>
      <trkpt lat="46.9715" lon="8.78609">
        <ele>647</ele>
        <time>2021-08-06T08:28:48.301Z</time>
      </trkpt>
      <trkpt lat="46.9715" lon="8.78607">
        <ele>648</ele>
        <time>2021-08-06T08:28:49.302Z</time>
      </trkpt>
      <trkpt lat="46.9715" lon="8.78605">
        <ele>648</ele>
        <time>2021-08-06T08:28:50.301Z</time>
      </trkpt>
      <trkpt lat="46.97151" lon="8.78603">
        <ele>648</ele>
        <time>2021-08-06T08:28:51.302Z</time>
      </trkpt>
      <trkpt lat="46.97152" lon="8.78601">
        <ele>649</ele>
        <time>2021-08-06T08:28:52.302Z</time>
      </trkpt>
      <trkpt lat="46.97153" lon="8.786">
        <ele>649</ele>
        <time>2021-08-06T08:28:53.302Z</time>
      </trkpt>
      <trkpt lat="46.97153" lon="8.78597">
        <ele>650</ele>
        <time>2021-08-06T08:28:54.301Z</time>
      </trkpt>
      <trkpt lat="46.97153" lon="8.78595">
        <ele>650</ele>
        <time>2021-08-06T08:28:55.301Z</time>
      </trkpt>
      <trkpt lat="46.97153" lon="8.78593">
        <ele>651</ele>
        <time>2021-08-06T08:28:56.302Z</time>
      </trkpt>
      <trkpt lat="46.97154" lon="8.78591">
        <ele>651</ele>
        <time>2021-08-06T08:28:57.302Z</time>
      </trkpt>
      <trkpt lat="46.97155" lon="8.7859">
        <ele>651</ele>
        <time>2021-08-06T08:28:58.301Z</time>
      </trkpt>
      <trkpt lat="46.97155" lon="8.78589">
        <ele>651</ele>
        <time>2021-08-06T08:28:59.301Z</time>
      </trkpt>
      <trkpt lat="46.97155" lon="8.78588">
        <ele>652</ele>
        <time>2021-08-06T08:29:00.302Z</time>
      </trkpt>
      <trkpt lat="46.97156" lon="8.78586">
        <ele>652</ele>
        <time>2021-08-06T08:29:01.302Z</time>
      </trkpt>
      <trkpt lat="46.97156" lon="8.78585">
        <ele>652</ele>
        <time>2021-08-06T08:29:02.302Z</time>
      </trkpt>
      <trkpt lat="46.97157" lon="8.78584">
        <ele>652</ele>
        <time>2021-08-06T08:29:03.301Z</time>
      </trkpt>
      <trkpt lat="46.97158" lon="8.78582">
        <ele>653</ele>
        <time>2021-08-06T08:29:04.302Z</time>
      </trkpt>
      <trkpt lat="46.97158" lon="8.78581">
        <ele>653</ele>
        <time>2021-08-06T08:29:05.301Z</time>
      </trkpt>
      <trkpt lat="46.97159" lon="8.78579">
        <ele>653</ele>
        <time>2021-08-06T08:29:06.302Z</time>
      </trkpt>
      <trkpt lat="46.97159" lon="8.78578">
        <ele>653</ele>
        <time>2021-08-06T08:29:07.302Z</time>
      </trkpt>
      <trkpt lat="46.97159" lon="8.78576">
        <ele>653</ele>
        <time>2021-08-06T08:29:08.302Z</time>
      </trkpt>
      <trkpt lat="46.97159" lon="8.78575">
        <ele>653</ele>
        <time>2021-08-06T08:29:09.301Z</time>
      </trkpt>
      <trkpt lat="46.97159" lon="8.78573">
        <ele>653</ele>
        <time>2021-08-06T08:29:10.301Z</time>
      </trkpt>
      <trkpt lat="46.97159" lon="8.78572">
        <ele>652</ele>
        <time>2021-08-06T08:29:11.301Z</time>
      </trkpt>
      <trkpt lat="46.97159" lon="8.7857">
        <ele>652</ele>
        <time>2021-08-06T08:29:12.302Z</time>
      </trkpt>
      <trkpt lat="46.97159" lon="8.78569">
        <ele>651</ele>
        <time>2021-08-06T08:29:13.302Z</time>
      </trkpt>
      <trkpt lat="46.97159" lon="8.78568">
        <ele>651</ele>
        <time>2021-08-06T08:29:14.302Z</time>
      </trkpt>
      <trkpt lat="46.9716" lon="8.78566">
        <ele>651</ele>
        <time>2021-08-06T08:29:15.301Z</time>
      </trkpt>
      <trkpt lat="46.97161" lon="8.78565">
        <ele>651</ele>
        <time>2021-08-06T08:29:16.301Z</time>
      </trkpt>
      <trkpt lat="46.97161" lon="8.78563">
        <ele>652</ele>
        <time>2021-08-06T08:29:17.302Z</time>
      </trkpt>
      <trkpt lat="46.97162" lon="8.78562">
        <ele>652</ele>
        <time>2021-08-06T08:29:18.301Z</time>
      </trkpt>
      <trkpt lat="46.97162" lon="8.78561">
        <ele>652</ele>
        <time>2021-08-06T08:29:19.302Z</time>
      </trkpt>
      <trkpt lat="46.97162" lon="8.7856">
        <ele>652</ele>
        <time>2021-08-06T08:29:20.301Z</time>
      </trkpt>
      <trkpt lat="46.97163" lon="8.78559">
        <ele>652</ele>
        <time>2021-08-06T08:29:21.301Z</time>
      </trkpt>
      <trkpt lat="46.97163" lon="8.78557">
        <ele>652</ele>
        <time>2021-08-06T08:29:22.302Z</time>
      </trkpt>
      <trkpt lat="46.97163" lon="8.78556">
        <ele>653</ele>
        <time>2021-08-06T08:29:23.301Z</time>
      </trkpt>
      <trkpt lat="46.97163" lon="8.78554">
        <ele>653</ele>
        <time>2021-08-06T08:29:24.302Z</time>
      </trkpt>
      <trkpt lat="46.97162" lon="8.78552">
        <ele>653</ele>
        <time>2021-08-06T08:29:25.301Z</time>
      </trkpt>
      <trkpt lat="46.97162" lon="8.78551">
        <ele>653</ele>
        <time>2021-08-06T08:29:26.302Z</time>
      </trkpt>
      <trkpt lat="46.97162" lon="8.78549">
        <ele>652</ele>
        <time>2021-08-06T08:29:27.301Z</time>
      </trkpt>
      <trkpt lat="46.97162" lon="8.78548">
        <ele>652</ele>
        <time>2021-08-06T08:29:28.302Z</time>
      </trkpt>
      <trkpt lat="46.97162" lon="8.78547">
        <ele>652</ele>
        <time>2021-08-06T08:29:29.301Z</time>
      </trkpt>
      <trkpt lat="46.97162" lon="8.78546">
        <ele>652</ele>
        <time>2021-08-06T08:29:30.302Z</time>
      </trkpt>
      <trkpt lat="46.97162" lon="8.78544">
        <ele>652</ele>
        <time>2021-08-06T08:29:31.301Z</time>
      </trkpt>
      <trkpt lat="46.97162" lon="8.78542">
        <ele>652</ele>
        <time>2021-08-06T08:29:32.301Z</time>
      </trkpt>
      <trkpt lat="46.97163" lon="8.7854">
        <ele>652</ele>
        <time>2021-08-06T08:29:33.302Z</time>
      </trkpt>
      <trkpt lat="46.97163" lon="8.78539">
        <ele>652</ele>
        <time>2021-08-06T08:29:34.301Z</time>
      </trkpt>
      <trkpt lat="46.97162" lon="8.78537">
        <ele>652</ele>
        <time>2021-08-06T08:29:35.302Z</time>
      </trkpt>
      <trkpt lat="46.97162" lon="8.78535">
        <ele>652</ele>
        <time>2021-08-06T08:29:36.302Z</time>
      </trkpt>
      <trkpt lat="46.97163" lon="8.78533">
        <ele>651</ele>
        <time>2021-08-06T08:29:37.301Z</time>
      </trkpt>
      <trkpt lat="46.97163" lon="8.78532">
        <ele>651</ele>
        <time>2021-08-06T08:29:38.301Z</time>
      </trkpt>
      <trkpt lat="46.97163" lon="8.78532">
        <ele>650</ele>
        <time>2021-08-06T08:29:39.301Z</time>
      </trkpt>
      <trkpt lat="46.97164" lon="8.78531">
        <ele>649</ele>
        <time>2021-08-06T08:29:40.301Z</time>
      </trkpt>
      <trkpt lat="46.97164" lon="8.7853">
        <ele>649</ele>
        <time>2021-08-06T08:29:41.301Z</time>
      </trkpt>
      <trkpt lat="46.97165" lon="8.78529">
        <ele>648</ele>
        <time>2021-08-06T08:29:42.301Z</time>
      </trkpt>
      <trkpt lat="46.97166" lon="8.78528">
        <ele>648</ele>
        <time>2021-08-06T08:29:43.301Z</time>
      </trkpt>
      <trkpt lat="46.97167" lon="8.78527">
        <ele>647</ele>
        <time>2021-08-06T08:29:44.301Z</time>
      </trkpt>
      <trkpt lat="46.97168" lon="8.78526">
        <ele>647</ele>
        <time>2021-08-06T08:29:45.301Z</time>
      </trkpt>
      <trkpt lat="46.97168" lon="8.78525">
        <ele>646</ele>
        <time>2021-08-06T08:29:46.302Z</time>
      </trkpt>
      <trkpt lat="46.97168" lon="8.78524">
        <ele>645</ele>
        <time>2021-08-06T08:29:47.301Z</time>
      </trkpt>
      <trkpt lat="46.97168" lon="8.78523">
        <ele>645</ele>
        <time>2021-08-06T08:29:48.302Z</time>
      </trkpt>
      <trkpt lat="46.97169" lon="8.78522">
        <ele>644</ele>
        <time>2021-08-06T08:29:49.301Z</time>
      </trkpt>
      <trkpt lat="46.97168" lon="8.78522">
        <ele>644</ele>
        <time>2021-08-06T08:29:50.302Z</time>
      </trkpt>
      <trkpt lat="46.97167" lon="8.78522">
        <ele>643</ele>
        <time>2021-08-06T08:29:51.301Z</time>
      </trkpt>
      <trkpt lat="46.97166" lon="8.78522">
        <ele>643</ele>
        <time>2021-08-06T08:29:52.302Z</time>
      </trkpt>
      <trkpt lat="46.97163" lon="8.78522">
        <ele>644</ele>
        <time>2021-08-06T08:29:53.302Z</time>
      </trkpt>
      <trkpt lat="46.97161" lon="8.78523">
        <ele>646</ele>
        <time>2021-08-06T08:29:54.302Z</time>
      </trkpt>
      <trkpt lat="46.97161" lon="8.78522">
        <ele>648</ele>
        <time>2021-08-06T08:29:55.303Z</time>
      </trkpt>
      <trkpt lat="46.97161" lon="8.78521">
        <ele>648</ele>
        <time>2021-08-06T08:29:56.303Z</time>
      </trkpt>
      <trkpt lat="46.97161" lon="8.7852">
        <ele>648</ele>
        <time>2021-08-06T08:29:57.302Z</time>
      </trkpt>
      <trkpt lat="46.97161" lon="8.78519">
        <ele>648</ele>
        <time>2021-08-06T08:29:58.303Z</time>
      </trkpt>
      <trkpt lat="46.97161" lon="8.78517">
        <ele>648</ele>
        <time>2021-08-06T08:29:59.303Z</time>
      </trkpt>
      <trkpt lat="46.97161" lon="8.78516">
        <ele>648</ele>
        <time>2021-08-06T08:30:00.302Z</time>
      </trkpt>
      <trkpt lat="46.97161" lon="8.78515">
        <ele>648</ele>
        <time>2021-08-06T08:30:01.302Z</time>
      </trkpt>
      <trkpt lat="46.9716" lon="8.78513">
        <ele>648</ele>
        <time>2021-08-06T08:30:02.302Z</time>
      </trkpt>
      <trkpt lat="46.9716" lon="8.78512">
        <ele>648</ele>
        <time>2021-08-06T08:30:03.303Z</time>
      </trkpt>
      <trkpt lat="46.97161" lon="8.7851">
        <ele>648</ele>
        <time>2021-08-06T08:30:04.302Z</time>
      </trkpt>
      <trkpt lat="46.97161" lon="8.78508">
        <ele>648</ele>
        <time>2021-08-06T08:30:05.303Z</time>
      </trkpt>
      <trkpt lat="46.97162" lon="8.78507">
        <ele>648</ele>
        <time>2021-08-06T08:30:06.303Z</time>
      </trkpt>
      <trkpt lat="46.97163" lon="8.78506">
        <ele>648</ele>
        <time>2021-08-06T08:30:07.303Z</time>
      </trkpt>
      <trkpt lat="46.97163" lon="8.78504">
        <ele>648</ele>
        <time>2021-08-06T08:30:08.303Z</time>
      </trkpt>
      <trkpt lat="46.97164" lon="8.78502">
        <ele>648</ele>
        <time>2021-08-06T08:30:09.303Z</time>
      </trkpt>
      <trkpt lat="46.97165" lon="8.78501">
        <ele>648</ele>
        <time>2021-08-06T08:30:10.302Z</time>
      </trkpt>
      <trkpt lat="46.97165" lon="8.78499">
        <ele>649</ele>
        <time>2021-08-06T08:30:11.302Z</time>
      </trkpt>
      <trkpt lat="46.97166" lon="8.78498">
        <ele>649</ele>
        <time>2021-08-06T08:30:12.302Z</time>
      </trkpt>
      <trkpt lat="46.97167" lon="8.78497">
        <ele>649</ele>
        <time>2021-08-06T08:30:13.302Z</time>
      </trkpt>
      <trkpt lat="46.97168" lon="8.78496">
        <ele>649</ele>
        <time>2021-08-06T08:30:14.303Z</time>
      </trkpt>
      <trkpt lat="46.97169" lon="8.78495">
        <ele>649</ele>
        <time>2021-08-06T08:30:15.302Z</time>
      </trkpt>
      <trkpt lat="46.9717" lon="8.78494">
        <ele>649</ele>
        <time>2021-08-06T08:30:16.303Z</time>
      </trkpt>
      <trkpt lat="46.97172" lon="8.78493">
        <ele>648</ele>
        <time>2021-08-06T08:30:17.303Z</time>
      </trkpt>
      <trkpt lat="46.97173" lon="8.78491">
        <ele>648</ele>
        <time>2021-08-06T08:30:18.302Z</time>
      </trkpt>
      <trkpt lat="46.97174" lon="8.7849">
        <ele>648</ele>
        <time>2021-08-06T08:30:19.303Z</time>
      </trkpt>
      <trkpt lat="46.97176" lon="8.78488">
        <ele>648</ele>
        <time>2021-08-06T08:30:20.302Z</time>
      </trkpt>
      <trkpt lat="46.97176" lon="8.78486">
        <ele>648</ele>
        <time>2021-08-06T08:30:21.302Z</time>
      </trkpt>
      <trkpt lat="46.97177" lon="8.78484">
        <ele>648</ele>
        <time>2021-08-06T08:30:22.303Z</time>
      </trkpt>
      <trkpt lat="46.97178" lon="8.78483">
        <ele>648</ele>
        <time>2021-08-06T08:30:23.302Z</time>
      </trkpt>
      <trkpt lat="46.97178" lon="8.78482">
        <ele>648</ele>
        <time>2021-08-06T08:30:24.302Z</time>
      </trkpt>
      <trkpt lat="46.97178" lon="8.7848">
        <ele>647</ele>
        <time>2021-08-06T08:30:25.303Z</time>
      </trkpt>
      <trkpt lat="46.97178" lon="8.78479">
        <ele>647</ele>
        <time>2021-08-06T08:30:26.303Z</time>
      </trkpt>
      <trkpt lat="46.97179" lon="8.78477">
        <ele>647</ele>
        <time>2021-08-06T08:30:27.303Z</time>
      </trkpt>
      <trkpt lat="46.97179" lon="8.78476">
        <ele>647</ele>
        <time>2021-08-06T08:30:28.302Z</time>
      </trkpt>
      <trkpt lat="46.9718" lon="8.78475">
        <ele>648</ele>
        <time>2021-08-06T08:30:29.302Z</time>
      </trkpt>
      <trkpt lat="46.9718" lon="8.78474">
        <ele>648</ele>
        <time>2021-08-06T08:30:30.303Z</time>
      </trkpt>
      <trkpt lat="46.9718" lon="8.78472">
        <ele>648</ele>
        <time>2021-08-06T08:30:31.303Z</time>
      </trkpt>
      <trkpt lat="46.9718" lon="8.78471">
        <ele>648</ele>
        <time>2021-08-06T08:30:32.303Z</time>
      </trkpt>
      <trkpt lat="46.97181" lon="8.7847">
        <ele>648</ele>
        <time>2021-08-06T08:30:33.303Z</time>
      </trkpt>
      <trkpt lat="46.97181" lon="8.78469">
        <ele>648</ele>
        <time>2021-08-06T08:30:34.302Z</time>
      </trkpt>
      <trkpt lat="46.97182" lon="8.78466">
        <ele>647</ele>
        <time>2021-08-06T08:30:35.302Z</time>
      </trkpt>
      <trkpt lat="46.97182" lon="8.78464">
        <ele>647</ele>
        <time>2021-08-06T08:30:36.302Z</time>
      </trkpt>
      <trkpt lat="46.97183" lon="8.78462">
        <ele>647</ele>
        <time>2021-08-06T08:30:37.302Z</time>
      </trkpt>
      <trkpt lat="46.97183" lon="8.78461">
        <ele>647</ele>
        <time>2021-08-06T08:30:38.302Z</time>
      </trkpt>
      <trkpt lat="46.97184" lon="8.78459">
        <ele>646</ele>
        <time>2021-08-06T08:30:39.302Z</time>
      </trkpt>
      <trkpt lat="46.97184" lon="8.78458">
        <ele>646</ele>
        <time>2021-08-06T08:30:40.303Z</time>
      </trkpt>
      <trkpt lat="46.97185" lon="8.78457">
        <ele>645</ele>
        <time>2021-08-06T08:30:41.303Z</time>
      </trkpt>
      <trkpt lat="46.97185" lon="8.78456">
        <ele>645</ele>
        <time>2021-08-06T08:30:42.302Z</time>
      </trkpt>
      <trkpt lat="46.97185" lon="8.78455">
        <ele>645</ele>
        <time>2021-08-06T08:30:43.302Z</time>
      </trkpt>
      <trkpt lat="46.97186" lon="8.78454">
        <ele>645</ele>
        <time>2021-08-06T08:30:44.302Z</time>
      </trkpt>
      <trkpt lat="46.97186" lon="8.78452">
        <ele>644</ele>
        <time>2021-08-06T08:30:45.303Z</time>
      </trkpt>
      <trkpt lat="46.97186" lon="8.7845">
        <ele>644</ele>
        <time>2021-08-06T08:30:46.303Z</time>
      </trkpt>
      <trkpt lat="46.97187" lon="8.78449">
        <ele>644</ele>
        <time>2021-08-06T08:30:47.303Z</time>
      </trkpt>
      <trkpt lat="46.97188" lon="8.78447">
        <ele>644</ele>
        <time>2021-08-06T08:30:48.303Z</time>
      </trkpt>
      <trkpt lat="46.97189" lon="8.78445">
        <ele>644</ele>
        <time>2021-08-06T08:30:49.302Z</time>
      </trkpt>
      <trkpt lat="46.9719" lon="8.78444">
        <ele>644</ele>
        <time>2021-08-06T08:30:50.303Z</time>
      </trkpt>
      <trkpt lat="46.9719" lon="8.78442">
        <ele>644</ele>
        <time>2021-08-06T08:30:51.302Z</time>
      </trkpt>
      <trkpt lat="46.97191" lon="8.78441">
        <ele>644</ele>
        <time>2021-08-06T08:30:52.303Z</time>
      </trkpt>
      <trkpt lat="46.97191" lon="8.78439">
        <ele>644</ele>
        <time>2021-08-06T08:30:53.303Z</time>
      </trkpt>
      <trkpt lat="46.97191" lon="8.78438">
        <ele>644</ele>
        <time>2021-08-06T08:30:54.303Z</time>
      </trkpt>
      <trkpt lat="46.97192" lon="8.78436">
        <ele>644</ele>
        <time>2021-08-06T08:30:55.303Z</time>
      </trkpt>
      <trkpt lat="46.97192" lon="8.78435">
        <ele>644</ele>
        <time>2021-08-06T08:30:56.303Z</time>
      </trkpt>
      <trkpt lat="46.97192" lon="8.78433">
        <ele>644</ele>
        <time>2021-08-06T08:30:57.302Z</time>
      </trkpt>
      <trkpt lat="46.97192" lon="8.78431">
        <ele>643</ele>
        <time>2021-08-06T08:30:58.302Z</time>
      </trkpt>
      <trkpt lat="46.97193" lon="8.7843">
        <ele>643</ele>
        <time>2021-08-06T08:30:59.302Z</time>
      </trkpt>
      <trkpt lat="46.97193" lon="8.78428">
        <ele>643</ele>
        <time>2021-08-06T08:31:00.302Z</time>
      </trkpt>
      <trkpt lat="46.97193" lon="8.78426">
        <ele>643</ele>
        <time>2021-08-06T08:31:01.302Z</time>
      </trkpt>
      <trkpt lat="46.97195" lon="8.78424">
        <ele>644</ele>
        <time>2021-08-06T08:31:02.303Z</time>
      </trkpt>
      <trkpt lat="46.97195" lon="8.78422">
        <ele>645</ele>
        <time>2021-08-06T08:31:03.302Z</time>
      </trkpt>
      <trkpt lat="46.97196" lon="8.7842">
        <ele>646</ele>
        <time>2021-08-06T08:31:04.303Z</time>
      </trkpt>
      <trkpt lat="46.97196" lon="8.78419">
        <ele>646</ele>
        <time>2021-08-06T08:31:05.302Z</time>
      </trkpt>
      <trkpt lat="46.97197" lon="8.78417">
        <ele>647</ele>
        <time>2021-08-06T08:31:06.302Z</time>
      </trkpt>
      <trkpt lat="46.97197" lon="8.78415">
        <ele>647</ele>
        <time>2021-08-06T08:31:07.303Z</time>
      </trkpt>
      <trkpt lat="46.97197" lon="8.78414">
        <ele>647</ele>
        <time>2021-08-06T08:31:08.302Z</time>
      </trkpt>
      <trkpt lat="46.97198" lon="8.78412">
        <ele>647</ele>
        <time>2021-08-06T08:31:09.302Z</time>
      </trkpt>
      <trkpt lat="46.97198" lon="8.78411">
        <ele>647</ele>
        <time>2021-08-06T08:31:10.302Z</time>
      </trkpt>
      <trkpt lat="46.97199" lon="8.78409">
        <ele>646</ele>
        <time>2021-08-06T08:31:11.302Z</time>
      </trkpt>
      <trkpt lat="46.97199" lon="8.78408">
        <ele>646</ele>
        <time>2021-08-06T08:31:12.302Z</time>
      </trkpt>
      <trkpt lat="46.97199" lon="8.78406">
        <ele>647</ele>
        <time>2021-08-06T08:31:13.302Z</time>
      </trkpt>
      <trkpt lat="46.972" lon="8.78404">
        <ele>647</ele>
        <time>2021-08-06T08:31:14.302Z</time>
      </trkpt>
      <trkpt lat="46.972" lon="8.78402">
        <ele>647</ele>
        <time>2021-08-06T08:31:15.302Z</time>
      </trkpt>
      <trkpt lat="46.97201" lon="8.784">
        <ele>647</ele>
        <time>2021-08-06T08:31:16.302Z</time>
      </trkpt>
      <trkpt lat="46.97201" lon="8.78398">
        <ele>648</ele>
        <time>2021-08-06T08:31:17.302Z</time>
      </trkpt>
      <trkpt lat="46.97202" lon="8.78396">
        <ele>648</ele>
        <time>2021-08-06T08:31:18.302Z</time>
      </trkpt>
      <trkpt lat="46.97203" lon="8.78395">
        <ele>649</ele>
        <time>2021-08-06T08:31:19.302Z</time>
      </trkpt>
      <trkpt lat="46.97203" lon="8.78393">
        <ele>649</ele>
        <time>2021-08-06T08:31:20.302Z</time>
      </trkpt>
      <trkpt lat="46.97203" lon="8.78392">
        <ele>649</ele>
        <time>2021-08-06T08:31:21.302Z</time>
      </trkpt>
      <trkpt lat="46.97203" lon="8.7839">
        <ele>650</ele>
        <time>2021-08-06T08:31:22.302Z</time>
      </trkpt>
      <trkpt lat="46.97203" lon="8.78389">
        <ele>650</ele>
        <time>2021-08-06T08:31:23.303Z</time>
      </trkpt>
      <trkpt lat="46.97203" lon="8.78387">
        <ele>650</ele>
        <time>2021-08-06T08:31:24.302Z</time>
      </trkpt>
      <trkpt lat="46.97203" lon="8.78386">
        <ele>651</ele>
        <time>2021-08-06T08:31:25.303Z</time>
      </trkpt>
      <trkpt lat="46.97204" lon="8.78385">
        <ele>652</ele>
        <time>2021-08-06T08:31:26.303Z</time>
      </trkpt>
      <trkpt lat="46.97204" lon="8.78383">
        <ele>652</ele>
        <time>2021-08-06T08:31:27.303Z</time>
      </trkpt>
      <trkpt lat="46.97205" lon="8.78382">
        <ele>652</ele>
        <time>2021-08-06T08:31:28.303Z</time>
      </trkpt>
      <trkpt lat="46.97206" lon="8.7838">
        <ele>653</ele>
        <time>2021-08-06T08:31:29.303Z</time>
      </trkpt>
      <trkpt lat="46.97208" lon="8.78378">
        <ele>652</ele>
        <time>2021-08-06T08:31:30.303Z</time>
      </trkpt>
      <trkpt lat="46.97209" lon="8.78376">
        <ele>652</ele>
        <time>2021-08-06T08:31:31.303Z</time>
      </trkpt>
      <trkpt lat="46.97209" lon="8.78374">
        <ele>652</ele>
        <time>2021-08-06T08:31:32.303Z</time>
      </trkpt>
      <trkpt lat="46.97209" lon="8.78372">
        <ele>652</ele>
        <time>2021-08-06T08:31:33.302Z</time>
      </trkpt>
      <trkpt lat="46.97209" lon="8.78371">
        <ele>652</ele>
        <time>2021-08-06T08:31:34.302Z</time>
      </trkpt>
      <trkpt lat="46.97209" lon="8.78369">
        <ele>652</ele>
        <time>2021-08-06T08:31:35.303Z</time>
      </trkpt>
      <trkpt lat="46.97209" lon="8.78367">
        <ele>652</ele>
        <time>2021-08-06T08:31:36.303Z</time>
      </trkpt>
      <trkpt lat="46.97209" lon="8.78366">
        <ele>652</ele>
        <time>2021-08-06T08:31:37.303Z</time>
      </trkpt>
      <trkpt lat="46.9721" lon="8.78365">
        <ele>651</ele>
        <time>2021-08-06T08:31:38.303Z</time>
      </trkpt>
      <trkpt lat="46.9721" lon="8.78363">
        <ele>651</ele>
        <time>2021-08-06T08:31:39.303Z</time>
      </trkpt>
      <trkpt lat="46.9721" lon="8.78362">
        <ele>650</ele>
        <time>2021-08-06T08:31:40.302Z</time>
      </trkpt>
      <trkpt lat="46.97209" lon="8.7836">
        <ele>650</ele>
        <time>2021-08-06T08:31:41.302Z</time>
      </trkpt>
      <trkpt lat="46.9721" lon="8.78359">
        <ele>649</ele>
        <time>2021-08-06T08:31:42.302Z</time>
      </trkpt>
      <trkpt lat="46.9721" lon="8.78358">
        <ele>648</ele>
        <time>2021-08-06T08:31:43.302Z</time>
      </trkpt>
      <trkpt lat="46.9721" lon="8.78355">
        <ele>648</ele>
        <time>2021-08-06T08:31:44.303Z</time>
      </trkpt>
      <trkpt lat="46.9721" lon="8.78353">
        <ele>648</ele>
        <time>2021-08-06T08:31:45.302Z</time>
      </trkpt>
      <trkpt lat="46.97209" lon="8.78352">
        <ele>648</ele>
        <time>2021-08-06T08:31:46.303Z</time>
      </trkpt>
      <trkpt lat="46.9721" lon="8.78351">
        <ele>647</ele>
        <time>2021-08-06T08:31:47.303Z</time>
      </trkpt>
      <trkpt lat="46.9721" lon="8.7835">
        <ele>647</ele>
        <time>2021-08-06T08:31:48.303Z</time>
      </trkpt>
      <trkpt lat="46.97211" lon="8.78349">
        <ele>646</ele>
        <time>2021-08-06T08:31:49.303Z</time>
      </trkpt>
      <trkpt lat="46.97211" lon="8.78348">
        <ele>646</ele>
        <time>2021-08-06T08:31:50.302Z</time>
      </trkpt>
      <trkpt lat="46.97212" lon="8.78346">
        <ele>645</ele>
        <time>2021-08-06T08:31:51.302Z</time>
      </trkpt>
      <trkpt lat="46.97212" lon="8.78345">
        <ele>645</ele>
        <time>2021-08-06T08:31:52.303Z</time>
      </trkpt>
      <trkpt lat="46.97212" lon="8.78343">
        <ele>644</ele>
        <time>2021-08-06T08:31:53.303Z</time>
      </trkpt>
      <trkpt lat="46.97212" lon="8.78342">
        <ele>644</ele>
        <time>2021-08-06T08:31:54.302Z</time>
      </trkpt>
      <trkpt lat="46.97212" lon="8.7834">
        <ele>643</ele>
        <time>2021-08-06T08:31:55.303Z</time>
      </trkpt>
      <trkpt lat="46.97212" lon="8.78339">
        <ele>642</ele>
        <time>2021-08-06T08:31:56.303Z</time>
      </trkpt>
      <trkpt lat="46.97212" lon="8.78337">
        <ele>641</ele>
        <time>2021-08-06T08:31:57.303Z</time>
      </trkpt>
      <trkpt lat="46.97213" lon="8.78335">
        <ele>641</ele>
        <time>2021-08-06T08:31:58.302Z</time>
      </trkpt>
      <trkpt lat="46.97213" lon="8.78334">
        <ele>641</ele>
        <time>2021-08-06T08:31:59.302Z</time>
      </trkpt>
      <trkpt lat="46.97213" lon="8.78332">
        <ele>641</ele>
        <time>2021-08-06T08:32:00.302Z</time>
      </trkpt>
      <trkpt lat="46.97213" lon="8.7833">
        <ele>641</ele>
        <time>2021-08-06T08:32:01.302Z</time>
      </trkpt>
      <trkpt lat="46.97213" lon="8.78328">
        <ele>641</ele>
        <time>2021-08-06T08:32:02.303Z</time>
      </trkpt>
      <trkpt lat="46.97213" lon="8.78327">
        <ele>642</ele>
        <time>2021-08-06T08:32:03.302Z</time>
      </trkpt>
      <trkpt lat="46.97214" lon="8.78326">
        <ele>642</ele>
        <time>2021-08-06T08:32:04.303Z</time>
      </trkpt>
      <trkpt lat="46.97214" lon="8.78324">
        <ele>643</ele>
        <time>2021-08-06T08:32:05.303Z</time>
      </trkpt>
      <trkpt lat="46.97214" lon="8.78323">
        <ele>642</ele>
        <time>2021-08-06T08:32:06.302Z</time>
      </trkpt>
      <trkpt lat="46.97215" lon="8.78321">
        <ele>642</ele>
        <time>2021-08-06T08:32:07.303Z</time>
      </trkpt>
      <trkpt lat="46.97215" lon="8.78319">
        <ele>642</ele>
        <time>2021-08-06T08:32:08.303Z</time>
      </trkpt>
      <trkpt lat="46.97215" lon="8.78317">
        <ele>642</ele>
        <time>2021-08-06T08:32:09.302Z</time>
      </trkpt>
      <trkpt lat="46.97216" lon="8.78316">
        <ele>643</ele>
        <time>2021-08-06T08:32:10.302Z</time>
      </trkpt>
      <trkpt lat="46.97216" lon="8.78315">
        <ele>643</ele>
        <time>2021-08-06T08:32:11.302Z</time>
      </trkpt>
      <trkpt lat="46.97216" lon="8.78313">
        <ele>643</ele>
        <time>2021-08-06T08:32:12.303Z</time>
      </trkpt>
      <trkpt lat="46.97216" lon="8.78312">
        <ele>643</ele>
        <time>2021-08-06T08:32:13.303Z</time>
      </trkpt>
      <trkpt lat="46.97216" lon="8.7831">
        <ele>643</ele>
        <time>2021-08-06T08:32:14.303Z</time>
      </trkpt>
      <trkpt lat="46.97216" lon="8.78309">
        <ele>643</ele>
        <time>2021-08-06T08:32:15.302Z</time>
      </trkpt>
      <trkpt lat="46.97216" lon="8.78307">
        <ele>642</ele>
        <time>2021-08-06T08:32:16.302Z</time>
      </trkpt>
      <trkpt lat="46.97216" lon="8.78306">
        <ele>642</ele>
        <time>2021-08-06T08:32:17.303Z</time>
      </trkpt>
      <trkpt lat="46.97217" lon="8.78304">
        <ele>642</ele>
        <time>2021-08-06T08:32:18.303Z</time>
      </trkpt>
      <trkpt lat="46.97217" lon="8.78303">
        <ele>642</ele>
        <time>2021-08-06T08:32:19.302Z</time>
      </trkpt>
      <trkpt lat="46.97217" lon="8.78301">
        <ele>642</ele>
        <time>2021-08-06T08:32:20.303Z</time>
      </trkpt>
      <trkpt lat="46.97217" lon="8.78299">
        <ele>641</ele>
        <time>2021-08-06T08:32:21.303Z</time>
      </trkpt>
      <trkpt lat="46.97217" lon="8.78297">
        <ele>641</ele>
        <time>2021-08-06T08:32:22.303Z</time>
      </trkpt>
      <trkpt lat="46.97218" lon="8.78295">
        <ele>641</ele>
        <time>2021-08-06T08:32:23.303Z</time>
      </trkpt>
      <trkpt lat="46.97218" lon="8.78294">
        <ele>641</ele>
        <time>2021-08-06T08:32:24.303Z</time>
      </trkpt>
      <trkpt lat="46.97218" lon="8.78292">
        <ele>641</ele>
        <time>2021-08-06T08:32:25.302Z</time>
      </trkpt>
      <trkpt lat="46.97218" lon="8.78291">
        <ele>641</ele>
        <time>2021-08-06T08:32:26.302Z</time>
      </trkpt>
      <trkpt lat="46.97219" lon="8.78289">
        <ele>641</ele>
        <time>2021-08-06T08:32:27.303Z</time>
      </trkpt>
      <trkpt lat="46.97219" lon="8.78287">
        <ele>641</ele>
        <time>2021-08-06T08:32:28.302Z</time>
      </trkpt>
      <trkpt lat="46.97219" lon="8.78286">
        <ele>642</ele>
        <time>2021-08-06T08:32:29.302Z</time>
      </trkpt>
      <trkpt lat="46.9722" lon="8.78284">
        <ele>642</ele>
        <time>2021-08-06T08:32:30.302Z</time>
      </trkpt>
      <trkpt lat="46.97221" lon="8.78282">
        <ele>643</ele>
        <time>2021-08-06T08:32:31.302Z</time>
      </trkpt>
      <trkpt lat="46.97221" lon="8.78281">
        <ele>643</ele>
        <time>2021-08-06T08:32:32.303Z</time>
      </trkpt>
      <trkpt lat="46.97222" lon="8.78279">
        <ele>644</ele>
        <time>2021-08-06T08:32:33.302Z</time>
      </trkpt>
      <trkpt lat="46.97222" lon="8.78277">
        <ele>644</ele>
        <time>2021-08-06T08:32:34.302Z</time>
      </trkpt>
      <trkpt lat="46.97222" lon="8.78275">
        <ele>643</ele>
        <time>2021-08-06T08:32:35.302Z</time>
      </trkpt>
      <trkpt lat="46.97223" lon="8.78274">
        <ele>643</ele>
        <time>2021-08-06T08:32:36.303Z</time>
      </trkpt>
      <trkpt lat="46.97223" lon="8.78272">
        <ele>643</ele>
        <time>2021-08-06T08:32:37.303Z</time>
      </trkpt>
      <trkpt lat="46.97224" lon="8.78271">
        <ele>643</ele>
        <time>2021-08-06T08:32:38.303Z</time>
      </trkpt>
      <trkpt lat="46.97224" lon="8.78269">
        <ele>644</ele>
        <time>2021-08-06T08:32:39.303Z</time>
      </trkpt>
      <trkpt lat="46.97225" lon="8.78267">
        <ele>644</ele>
        <time>2021-08-06T08:32:40.302Z</time>
      </trkpt>
      <trkpt lat="46.97226" lon="8.78266">
        <ele>645</ele>
        <time>2021-08-06T08:32:41.302Z</time>
      </trkpt>
      <trkpt lat="46.97226" lon="8.78264">
        <ele>645</ele>
        <time>2021-08-06T08:32:42.302Z</time>
      </trkpt>
      <trkpt lat="46.97227" lon="8.78263">
        <ele>645</ele>
        <time>2021-08-06T08:32:43.302Z</time>
      </trkpt>
      <trkpt lat="46.97227" lon="8.7826">
        <ele>645</ele>
        <time>2021-08-06T08:32:44.302Z</time>
      </trkpt>
      <trkpt lat="46.97228" lon="8.78258">
        <ele>645</ele>
        <time>2021-08-06T08:32:45.302Z</time>
      </trkpt>
      <trkpt lat="46.97228" lon="8.78257">
        <ele>645</ele>
        <time>2021-08-06T08:32:46.303Z</time>
      </trkpt>
      <trkpt lat="46.97228" lon="8.78255">
        <ele>645</ele>
        <time>2021-08-06T08:32:47.302Z</time>
      </trkpt>
      <trkpt lat="46.97228" lon="8.78254">
        <ele>645</ele>
        <time>2021-08-06T08:32:48.303Z</time>
      </trkpt>
      <trkpt lat="46.97228" lon="8.78252">
        <ele>644</ele>
        <time>2021-08-06T08:32:49.302Z</time>
      </trkpt>
      <trkpt lat="46.97229" lon="8.7825">
        <ele>644</ele>
        <time>2021-08-06T08:32:50.302Z</time>
      </trkpt>
      <trkpt lat="46.97229" lon="8.78249">
        <ele>644</ele>
        <time>2021-08-06T08:32:51.302Z</time>
      </trkpt>
      <trkpt lat="46.97229" lon="8.78247">
        <ele>644</ele>
        <time>2021-08-06T08:32:52.303Z</time>
      </trkpt>
      <trkpt lat="46.9723" lon="8.78245">
        <ele>644</ele>
        <time>2021-08-06T08:32:53.302Z</time>
      </trkpt>
      <trkpt lat="46.9723" lon="8.78243">
        <ele>644</ele>
        <time>2021-08-06T08:32:54.302Z</time>
      </trkpt>
      <trkpt lat="46.97231" lon="8.78242">
        <ele>644</ele>
        <time>2021-08-06T08:32:55.302Z</time>
      </trkpt>
      <trkpt lat="46.97231" lon="8.78241">
        <ele>644</ele>
        <time>2021-08-06T08:32:56.303Z</time>
      </trkpt>
      <trkpt lat="46.97232" lon="8.78238">
        <ele>644</ele>
        <time>2021-08-06T08:32:57.303Z</time>
      </trkpt>
      <trkpt lat="46.97232" lon="8.78237">
        <ele>644</ele>
        <time>2021-08-06T08:32:58.302Z</time>
      </trkpt>
      <trkpt lat="46.97233" lon="8.78235">
        <ele>645</ele>
        <time>2021-08-06T08:32:59.302Z</time>
      </trkpt>
      <trkpt lat="46.97233" lon="8.78234">
        <ele>645</ele>
        <time>2021-08-06T08:33:00.302Z</time>
      </trkpt>
      <trkpt lat="46.97234" lon="8.78232">
        <ele>645</ele>
        <time>2021-08-06T08:33:01.302Z</time>
      </trkpt>
      <trkpt lat="46.97234" lon="8.7823">
        <ele>645</ele>
        <time>2021-08-06T08:33:02.302Z</time>
      </trkpt>
      <trkpt lat="46.97234" lon="8.78229">
        <ele>645</ele>
        <time>2021-08-06T08:33:03.302Z</time>
      </trkpt>
      <trkpt lat="46.97235" lon="8.78227">
        <ele>645</ele>
        <time>2021-08-06T08:33:04.302Z</time>
      </trkpt>
      <trkpt lat="46.97235" lon="8.78226">
        <ele>644</ele>
        <time>2021-08-06T08:33:05.302Z</time>
      </trkpt>
      <trkpt lat="46.97236" lon="8.78224">
        <ele>645</ele>
        <time>2021-08-06T08:33:06.302Z</time>
      </trkpt>
      <trkpt lat="46.97236" lon="8.78223">
        <ele>645</ele>
        <time>2021-08-06T08:33:07.302Z</time>
      </trkpt>
      <trkpt lat="46.97237" lon="8.78221">
        <ele>645</ele>
        <time>2021-08-06T08:33:08.302Z</time>
      </trkpt>
      <trkpt lat="46.97237" lon="8.7822">
        <ele>645</ele>
        <time>2021-08-06T08:33:09.302Z</time>
      </trkpt>
      <trkpt lat="46.97237" lon="8.78218">
        <ele>645</ele>
        <time>2021-08-06T08:33:10.302Z</time>
      </trkpt>
      <trkpt lat="46.97237" lon="8.78217">
        <ele>645</ele>
        <time>2021-08-06T08:33:11.302Z</time>
      </trkpt>
      <trkpt lat="46.97238" lon="8.78215">
        <ele>645</ele>
        <time>2021-08-06T08:33:12.302Z</time>
      </trkpt>
      <trkpt lat="46.97238" lon="8.78213">
        <ele>645</ele>
        <time>2021-08-06T08:33:13.302Z</time>
      </trkpt>
      <trkpt lat="46.97239" lon="8.78212">
        <ele>645</ele>
        <time>2021-08-06T08:33:14.303Z</time>
      </trkpt>
      <trkpt lat="46.97239" lon="8.78211">
        <ele>645</ele>
        <time>2021-08-06T08:33:15.302Z</time>
      </trkpt>
      <trkpt lat="46.9724" lon="8.78209">
        <ele>645</ele>
        <time>2021-08-06T08:33:16.303Z</time>
      </trkpt>
      <trkpt lat="46.9724" lon="8.78208">
        <ele>645</ele>
        <time>2021-08-06T08:33:17.303Z</time>
      </trkpt>
      <trkpt lat="46.97241" lon="8.78206">
        <ele>645</ele>
        <time>2021-08-06T08:33:18.302Z</time>
      </trkpt>
      <trkpt lat="46.97241" lon="8.78204">
        <ele>646</ele>
        <time>2021-08-06T08:33:19.302Z</time>
      </trkpt>
      <trkpt lat="46.97242" lon="8.78203">
        <ele>646</ele>
        <time>2021-08-06T08:33:20.303Z</time>
      </trkpt>
      <trkpt lat="46.97243" lon="8.78201">
        <ele>646</ele>
        <time>2021-08-06T08:33:21.303Z</time>
      </trkpt>
      <trkpt lat="46.97243" lon="8.782">
        <ele>646</ele>
        <time>2021-08-06T08:33:22.302Z</time>
      </trkpt>
      <trkpt lat="46.97244" lon="8.78199">
        <ele>647</ele>
        <time>2021-08-06T08:33:23.303Z</time>
      </trkpt>
      <trkpt lat="46.97245" lon="8.78197">
        <ele>647</ele>
        <time>2021-08-06T08:33:24.303Z</time>
      </trkpt>
      <trkpt lat="46.97245" lon="8.78195">
        <ele>647</ele>
        <time>2021-08-06T08:33:25.303Z</time>
      </trkpt>
      <trkpt lat="46.97245" lon="8.78193">
        <ele>648</ele>
        <time>2021-08-06T08:33:26.302Z</time>
      </trkpt>
      <trkpt lat="46.97245" lon="8.78191">
        <ele>648</ele>
        <time>2021-08-06T08:33:27.303Z</time>
      </trkpt>
      <trkpt lat="46.97245" lon="8.78189">
        <ele>648</ele>
        <time>2021-08-06T08:33:28.302Z</time>
      </trkpt>
      <trkpt lat="46.97245" lon="8.78188">
        <ele>648</ele>
        <time>2021-08-06T08:33:29.303Z</time>
      </trkpt>
      <trkpt lat="46.97245" lon="8.78186">
        <ele>647</ele>
        <time>2021-08-06T08:33:30.302Z</time>
      </trkpt>
      <trkpt lat="46.97244" lon="8.78184">
        <ele>646</ele>
        <time>2021-08-06T08:33:31.303Z</time>
      </trkpt>
      <trkpt lat="46.97243" lon="8.78183">
        <ele>646</ele>
        <time>2021-08-06T08:33:32.303Z</time>
      </trkpt>
      <trkpt lat="46.97243" lon="8.78183">
        <ele>645</ele>
        <time>2021-08-06T08:33:33.302Z</time>
      </trkpt>
      <trkpt lat="46.97243" lon="8.78183">
        <ele>645</ele>
        <time>2021-08-06T08:33:34.302Z</time>
      </trkpt>
      <trkpt lat="46.97242" lon="8.78182">
        <ele>643</ele>
        <time>2021-08-06T08:33:35.303Z</time>
      </trkpt>
      <trkpt lat="46.97242" lon="8.78182">
        <ele>642</ele>
        <time>2021-08-06T08:33:36.303Z</time>
      </trkpt>
      <trkpt lat="46.97242" lon="8.78182">
        <ele>641</ele>
        <time>2021-08-06T08:33:37.303Z</time>
      </trkpt>
      <trkpt lat="46.97241" lon="8.78182">
        <ele>641</ele>
        <time>2021-08-06T08:33:38.303Z</time>
      </trkpt>
      <trkpt lat="46.97241" lon="8.78182">
        <ele>639</ele>
        <time>2021-08-06T08:33:39.304Z</time>
      </trkpt>
      <trkpt lat="46.97241" lon="8.78182">
        <ele>639</ele>
        <time>2021-08-06T08:33:40.303Z</time>
      </trkpt>
      <trkpt lat="46.97239" lon="8.78179">
        <ele>637</ele>
        <time>2021-08-06T08:33:41.304Z</time>
      </trkpt>
      <trkpt lat="46.97239" lon="8.78178">
        <ele>638</ele>
        <time>2021-08-06T08:33:42.304Z</time>
      </trkpt>
      <trkpt lat="46.97239" lon="8.78178">
        <ele>639</ele>
        <time>2021-08-06T08:33:43.303Z</time>
      </trkpt>
      <trkpt lat="46.97242" lon="8.78177">
        <ele>649</ele>
        <time>2021-08-06T08:33:44.303Z</time>
      </trkpt>
      <trkpt lat="46.97242" lon="8.78176">
        <ele>649</ele>
        <time>2021-08-06T08:33:45.303Z</time>
      </trkpt>
      <trkpt lat="46.97243" lon="8.78175">
        <ele>649</ele>
        <time>2021-08-06T08:33:46.304Z</time>
      </trkpt>
      <trkpt lat="46.97244" lon="8.78174">
        <ele>649</ele>
        <time>2021-08-06T08:33:47.303Z</time>
      </trkpt>
      <trkpt lat="46.97244" lon="8.78173">
        <ele>648</ele>
        <time>2021-08-06T08:33:48.303Z</time>
      </trkpt>
      <trkpt lat="46.97245" lon="8.78172">
        <ele>648</ele>
        <time>2021-08-06T08:33:49.304Z</time>
      </trkpt>
      <trkpt lat="46.97247" lon="8.78171">
        <ele>647</ele>
        <time>2021-08-06T08:33:50.304Z</time>
      </trkpt>
      <trkpt lat="46.97247" lon="8.78169">
        <ele>647</ele>
        <time>2021-08-06T08:33:51.303Z</time>
      </trkpt>
      <trkpt lat="46.97248" lon="8.78167">
        <ele>647</ele>
        <time>2021-08-06T08:33:52.303Z</time>
      </trkpt>
      <trkpt lat="46.97248" lon="8.78165">
        <ele>647</ele>
        <time>2021-08-06T08:33:53.303Z</time>
      </trkpt>
      <trkpt lat="46.97249" lon="8.78163">
        <ele>647</ele>
        <time>2021-08-06T08:33:54.303Z</time>
      </trkpt>
      <trkpt lat="46.97249" lon="8.78162">
        <ele>646</ele>
        <time>2021-08-06T08:33:55.303Z</time>
      </trkpt>
      <trkpt lat="46.9725" lon="8.7816">
        <ele>646</ele>
        <time>2021-08-06T08:33:56.303Z</time>
      </trkpt>
      <trkpt lat="46.9725" lon="8.78159">
        <ele>646</ele>
        <time>2021-08-06T08:33:57.303Z</time>
      </trkpt>
      <trkpt lat="46.9725" lon="8.78157">
        <ele>646</ele>
        <time>2021-08-06T08:33:58.303Z</time>
      </trkpt>
      <trkpt lat="46.97251" lon="8.78155">
        <ele>646</ele>
        <time>2021-08-06T08:33:59.303Z</time>
      </trkpt>
      <trkpt lat="46.97251" lon="8.78154">
        <ele>646</ele>
        <time>2021-08-06T08:34:00.303Z</time>
      </trkpt>
      <trkpt lat="46.97252" lon="8.78152">
        <ele>646</ele>
        <time>2021-08-06T08:34:01.304Z</time>
      </trkpt>
      <trkpt lat="46.97252" lon="8.78151">
        <ele>646</ele>
        <time>2021-08-06T08:34:02.303Z</time>
      </trkpt>
      <trkpt lat="46.97253" lon="8.78149">
        <ele>646</ele>
        <time>2021-08-06T08:34:03.303Z</time>
      </trkpt>
      <trkpt lat="46.97254" lon="8.78147">
        <ele>646</ele>
        <time>2021-08-06T08:34:04.303Z</time>
      </trkpt>
      <trkpt lat="46.97254" lon="8.78146">
        <ele>646</ele>
        <time>2021-08-06T08:34:05.304Z</time>
      </trkpt>
      <trkpt lat="46.97254" lon="8.78145">
        <ele>645</ele>
        <time>2021-08-06T08:34:06.303Z</time>
      </trkpt>
      <trkpt lat="46.97255" lon="8.78144">
        <ele>645</ele>
        <time>2021-08-06T08:34:07.303Z</time>
      </trkpt>
      <trkpt lat="46.97255" lon="8.78142">
        <ele>645</ele>
        <time>2021-08-06T08:34:08.303Z</time>
      </trkpt>
      <trkpt lat="46.97256" lon="8.7814">
        <ele>644</ele>
        <time>2021-08-06T08:34:09.303Z</time>
      </trkpt>
      <trkpt lat="46.97256" lon="8.78139">
        <ele>644</ele>
        <time>2021-08-06T08:34:10.303Z</time>
      </trkpt>
      <trkpt lat="46.97257" lon="8.78137">
        <ele>644</ele>
        <time>2021-08-06T08:34:11.303Z</time>
      </trkpt>
      <trkpt lat="46.97257" lon="8.78136">
        <ele>644</ele>
        <time>2021-08-06T08:34:12.304Z</time>
      </trkpt>
      <trkpt lat="46.97257" lon="8.78134">
        <ele>644</ele>
        <time>2021-08-06T08:34:13.304Z</time>
      </trkpt>
      <trkpt lat="46.97258" lon="8.78133">
        <ele>644</ele>
        <time>2021-08-06T08:34:14.304Z</time>
      </trkpt>
      <trkpt lat="46.97258" lon="8.78131">
        <ele>644</ele>
        <time>2021-08-06T08:34:15.304Z</time>
      </trkpt>
      <trkpt lat="46.97259" lon="8.78129">
        <ele>644</ele>
        <time>2021-08-06T08:34:16.304Z</time>
      </trkpt>
      <trkpt lat="46.97259" lon="8.78128">
        <ele>644</ele>
        <time>2021-08-06T08:34:17.303Z</time>
      </trkpt>
      <trkpt lat="46.97259" lon="8.78126">
        <ele>644</ele>
        <time>2021-08-06T08:34:18.303Z</time>
      </trkpt>
      <trkpt lat="46.9726" lon="8.78124">
        <ele>643</ele>
        <time>2021-08-06T08:34:19.304Z</time>
      </trkpt>
      <trkpt lat="46.9726" lon="8.78123">
        <ele>643</ele>
        <time>2021-08-06T08:34:20.304Z</time>
      </trkpt>
      <trkpt lat="46.9726" lon="8.78121">
        <ele>643</ele>
        <time>2021-08-06T08:34:21.303Z</time>
      </trkpt>
      <trkpt lat="46.97261" lon="8.7812">
        <ele>643</ele>
        <time>2021-08-06T08:34:22.303Z</time>
      </trkpt>
      <trkpt lat="46.9726" lon="8.78118">
        <ele>643</ele>
        <time>2021-08-06T08:34:23.304Z</time>
      </trkpt>
      <trkpt lat="46.9726" lon="8.78116">
        <ele>643</ele>
        <time>2021-08-06T08:34:24.304Z</time>
      </trkpt>
      <trkpt lat="46.97259" lon="8.78115">
        <ele>643</ele>
        <time>2021-08-06T08:34:25.304Z</time>
      </trkpt>
      <trkpt lat="46.97258" lon="8.78113">
        <ele>643</ele>
        <time>2021-08-06T08:34:26.304Z</time>
      </trkpt>
      <trkpt lat="46.97257" lon="8.78112">
        <ele>643</ele>
        <time>2021-08-06T08:34:27.304Z</time>
      </trkpt>
      <trkpt lat="46.97256" lon="8.7811">
        <ele>643</ele>
        <time>2021-08-06T08:34:28.304Z</time>
      </trkpt>
      <trkpt lat="46.97256" lon="8.78108">
        <ele>643</ele>
        <time>2021-08-06T08:34:29.303Z</time>
      </trkpt>
      <trkpt lat="46.97256" lon="8.78108">
        <ele>643</ele>
        <time>2021-08-06T08:34:30.304Z</time>
      </trkpt>
      <trkpt lat="46.97256" lon="8.78107">
        <ele>644</ele>
        <time>2021-08-06T08:34:31.304Z</time>
      </trkpt>
      <trkpt lat="46.97257" lon="8.78106">
        <ele>644</ele>
        <time>2021-08-06T08:34:32.304Z</time>
      </trkpt>
      <trkpt lat="46.97258" lon="8.78106">
        <ele>644</ele>
        <time>2021-08-06T08:34:33.304Z</time>
      </trkpt>
      <trkpt lat="46.97258" lon="8.78105">
        <ele>644</ele>
        <time>2021-08-06T08:34:34.304Z</time>
      </trkpt>
      <trkpt lat="46.97259" lon="8.78104">
        <ele>645</ele>
        <time>2021-08-06T08:34:35.303Z</time>
      </trkpt>
      <trkpt lat="46.9726" lon="8.78103">
        <ele>645</ele>
        <time>2021-08-06T08:34:36.304Z</time>
      </trkpt>
      <trkpt lat="46.97261" lon="8.78102">
        <ele>645</ele>
        <time>2021-08-06T08:34:37.304Z</time>
      </trkpt>
      <trkpt lat="46.97262" lon="8.78101">
        <ele>646</ele>
        <time>2021-08-06T08:34:38.303Z</time>
      </trkpt>
      <trkpt lat="46.97263" lon="8.78099">
        <ele>646</ele>
        <time>2021-08-06T08:34:39.304Z</time>
      </trkpt>
      <trkpt lat="46.97264" lon="8.78098">
        <ele>647</ele>
        <time>2021-08-06T08:34:40.303Z</time>
      </trkpt>
      <trkpt lat="46.97264" lon="8.78097">
        <ele>647</ele>
        <time>2021-08-06T08:34:41.303Z</time>
      </trkpt>
      <trkpt lat="46.97265" lon="8.78095">
        <ele>646</ele>
        <time>2021-08-06T08:34:42.303Z</time>
      </trkpt>
      <trkpt lat="46.97265" lon="8.78093">
        <ele>646</ele>
        <time>2021-08-06T08:34:43.304Z</time>
      </trkpt>
      <trkpt lat="46.97266" lon="8.78091">
        <ele>645</ele>
        <time>2021-08-06T08:34:44.303Z</time>
      </trkpt>
      <trkpt lat="46.97267" lon="8.7809">
        <ele>644</ele>
        <time>2021-08-06T08:34:45.304Z</time>
      </trkpt>
      <trkpt lat="46.97267" lon="8.78088">
        <ele>644</ele>
        <time>2021-08-06T08:34:46.303Z</time>
      </trkpt>
      <trkpt lat="46.97268" lon="8.78087">
        <ele>644</ele>
        <time>2021-08-06T08:34:47.303Z</time>
      </trkpt>
      <trkpt lat="46.97268" lon="8.78084">
        <ele>643</ele>
        <time>2021-08-06T08:34:48.303Z</time>
      </trkpt>
      <trkpt lat="46.97268" lon="8.78083">
        <ele>643</ele>
        <time>2021-08-06T08:34:49.303Z</time>
      </trkpt>
      <trkpt lat="46.97268" lon="8.78081">
        <ele>642</ele>
        <time>2021-08-06T08:34:50.304Z</time>
      </trkpt>
      <trkpt lat="46.97268" lon="8.78079">
        <ele>642</ele>
        <time>2021-08-06T08:34:51.304Z</time>
      </trkpt>
      <trkpt lat="46.97269" lon="8.78077">
        <ele>642</ele>
        <time>2021-08-06T08:34:52.304Z</time>
      </trkpt>
      <trkpt lat="46.97269" lon="8.78076">
        <ele>642</ele>
        <time>2021-08-06T08:34:53.304Z</time>
      </trkpt>
      <trkpt lat="46.9727" lon="8.78074">
        <ele>641</ele>
        <time>2021-08-06T08:34:54.304Z</time>
      </trkpt>
      <trkpt lat="46.9727" lon="8.78072">
        <ele>641</ele>
        <time>2021-08-06T08:34:55.303Z</time>
      </trkpt>
      <trkpt lat="46.97271" lon="8.78071">
        <ele>641</ele>
        <time>2021-08-06T08:34:56.303Z</time>
      </trkpt>
      <trkpt lat="46.97271" lon="8.78069">
        <ele>641</ele>
        <time>2021-08-06T08:34:57.304Z</time>
      </trkpt>
      <trkpt lat="46.97271" lon="8.78068">
        <ele>641</ele>
        <time>2021-08-06T08:34:58.303Z</time>
      </trkpt>
      <trkpt lat="46.97272" lon="8.78066">
        <ele>641</ele>
        <time>2021-08-06T08:34:59.304Z</time>
      </trkpt>
      <trkpt lat="46.97272" lon="8.78064">
        <ele>641</ele>
        <time>2021-08-06T08:35:00.303Z</time>
      </trkpt>
      <trkpt lat="46.97272" lon="8.78063">
        <ele>641</ele>
        <time>2021-08-06T08:35:01.304Z</time>
      </trkpt>
      <trkpt lat="46.97273" lon="8.78061">
        <ele>641</ele>
        <time>2021-08-06T08:35:02.304Z</time>
      </trkpt>
      <trkpt lat="46.97273" lon="8.78059">
        <ele>642</ele>
        <time>2021-08-06T08:35:03.303Z</time>
      </trkpt>
      <trkpt lat="46.97274" lon="8.78058">
        <ele>643</ele>
        <time>2021-08-06T08:35:04.304Z</time>
      </trkpt>
      <trkpt lat="46.97275" lon="8.78056">
        <ele>643</ele>
        <time>2021-08-06T08:35:05.304Z</time>
      </trkpt>
      <trkpt lat="46.97275" lon="8.78055">
        <ele>643</ele>
        <time>2021-08-06T08:35:06.303Z</time>
      </trkpt>
      <trkpt lat="46.97276" lon="8.78053">
        <ele>644</ele>
        <time>2021-08-06T08:35:07.304Z</time>
      </trkpt>
      <trkpt lat="46.97276" lon="8.78051">
        <ele>644</ele>
        <time>2021-08-06T08:35:08.303Z</time>
      </trkpt>
      <trkpt lat="46.97277" lon="8.78049">
        <ele>644</ele>
        <time>2021-08-06T08:35:09.303Z</time>
      </trkpt>
      <trkpt lat="46.97277" lon="8.78048">
        <ele>644</ele>
        <time>2021-08-06T08:35:10.303Z</time>
      </trkpt>
      <trkpt lat="46.97277" lon="8.78046">
        <ele>643</ele>
        <time>2021-08-06T08:35:11.304Z</time>
      </trkpt>
      <trkpt lat="46.97277" lon="8.78045">
        <ele>643</ele>
        <time>2021-08-06T08:35:12.303Z</time>
      </trkpt>
      <trkpt lat="46.97278" lon="8.78043">
        <ele>643</ele>
        <time>2021-08-06T08:35:13.303Z</time>
      </trkpt>
      <trkpt lat="46.97278" lon="8.78041">
        <ele>643</ele>
        <time>2021-08-06T08:35:14.304Z</time>
      </trkpt>
      <trkpt lat="46.97278" lon="8.7804">
        <ele>642</ele>
        <time>2021-08-06T08:35:15.304Z</time>
      </trkpt>
      <trkpt lat="46.97278" lon="8.78037">
        <ele>642</ele>
        <time>2021-08-06T08:35:16.304Z</time>
      </trkpt>
      <trkpt lat="46.97278" lon="8.78036">
        <ele>642</ele>
        <time>2021-08-06T08:35:17.304Z</time>
      </trkpt>
      <trkpt lat="46.97278" lon="8.78034">
        <ele>642</ele>
        <time>2021-08-06T08:35:18.304Z</time>
      </trkpt>
      <trkpt lat="46.97279" lon="8.78033">
        <ele>641</ele>
        <time>2021-08-06T08:35:19.304Z</time>
      </trkpt>
      <trkpt lat="46.97279" lon="8.78032">
        <ele>641</ele>
        <time>2021-08-06T08:35:20.304Z</time>
      </trkpt>
      <trkpt lat="46.9728" lon="8.7803">
        <ele>641</ele>
        <time>2021-08-06T08:35:21.303Z</time>
      </trkpt>
      <trkpt lat="46.97281" lon="8.78028">
        <ele>641</ele>
        <time>2021-08-06T08:35:22.304Z</time>
      </trkpt>
      <trkpt lat="46.97281" lon="8.78027">
        <ele>641</ele>
        <time>2021-08-06T08:35:23.303Z</time>
      </trkpt>
      <trkpt lat="46.97282" lon="8.78026">
        <ele>641</ele>
        <time>2021-08-06T08:35:24.303Z</time>
      </trkpt>
      <trkpt lat="46.97283" lon="8.78024">
        <ele>641</ele>
        <time>2021-08-06T08:35:25.303Z</time>
      </trkpt>
      <trkpt lat="46.97283" lon="8.78023">
        <ele>642</ele>
        <time>2021-08-06T08:35:26.303Z</time>
      </trkpt>
      <trkpt lat="46.97283" lon="8.78021">
        <ele>642</ele>
        <time>2021-08-06T08:35:27.304Z</time>
      </trkpt>
      <trkpt lat="46.97284" lon="8.78019">
        <ele>642</ele>
        <time>2021-08-06T08:35:28.304Z</time>
      </trkpt>
      <trkpt lat="46.97284" lon="8.78017">
        <ele>642</ele>
        <time>2021-08-06T08:35:29.303Z</time>
      </trkpt>
      <trkpt lat="46.97285" lon="8.78015">
        <ele>642</ele>
        <time>2021-08-06T08:35:30.303Z</time>
      </trkpt>
      <trkpt lat="46.97285" lon="8.78014">
        <ele>643</ele>
        <time>2021-08-06T08:35:31.304Z</time>
      </trkpt>
      <trkpt lat="46.97286" lon="8.78012">
        <ele>643</ele>
        <time>2021-08-06T08:35:32.303Z</time>
      </trkpt>
      <trkpt lat="46.97286" lon="8.78011">
        <ele>642</ele>
        <time>2021-08-06T08:35:33.304Z</time>
      </trkpt>
      <trkpt lat="46.97286" lon="8.78009">
        <ele>642</ele>
        <time>2021-08-06T08:35:34.304Z</time>
      </trkpt>
      <trkpt lat="46.97286" lon="8.78008">
        <ele>642</ele>
        <time>2021-08-06T08:35:35.304Z</time>
      </trkpt>
      <trkpt lat="46.97286" lon="8.78006">
        <ele>641</ele>
        <time>2021-08-06T08:35:36.304Z</time>
      </trkpt>
      <trkpt lat="46.97287" lon="8.78004">
        <ele>641</ele>
        <time>2021-08-06T08:35:37.303Z</time>
      </trkpt>
      <trkpt lat="46.97287" lon="8.78003">
        <ele>641</ele>
        <time>2021-08-06T08:35:38.303Z</time>
      </trkpt>
      <trkpt lat="46.97288" lon="8.78001">
        <ele>641</ele>
        <time>2021-08-06T08:35:39.304Z</time>
      </trkpt>
      <trkpt lat="46.97288" lon="8.78">
        <ele>641</ele>
        <time>2021-08-06T08:35:40.303Z</time>
      </trkpt>
      <trkpt lat="46.97289" lon="8.77998">
        <ele>641</ele>
        <time>2021-08-06T08:35:41.304Z</time>
      </trkpt>
      <trkpt lat="46.97289" lon="8.77996">
        <ele>640</ele>
        <time>2021-08-06T08:35:42.304Z</time>
      </trkpt>
      <trkpt lat="46.97289" lon="8.77994">
        <ele>640</ele>
        <time>2021-08-06T08:35:43.303Z</time>
      </trkpt>
      <trkpt lat="46.9729" lon="8.77992">
        <ele>640</ele>
        <time>2021-08-06T08:35:44.304Z</time>
      </trkpt>
      <trkpt lat="46.9729" lon="8.77991">
        <ele>640</ele>
        <time>2021-08-06T08:35:45.304Z</time>
      </trkpt>
      <trkpt lat="46.9729" lon="8.77989">
        <ele>640</ele>
        <time>2021-08-06T08:35:46.304Z</time>
      </trkpt>
      <trkpt lat="46.97291" lon="8.77988">
        <ele>640</ele>
        <time>2021-08-06T08:35:47.304Z</time>
      </trkpt>
      <trkpt lat="46.97291" lon="8.77986">
        <ele>639</ele>
        <time>2021-08-06T08:35:48.304Z</time>
      </trkpt>
      <trkpt lat="46.97292" lon="8.77984">
        <ele>639</ele>
        <time>2021-08-06T08:35:49.304Z</time>
      </trkpt>
      <trkpt lat="46.97292" lon="8.77983">
        <ele>639</ele>
        <time>2021-08-06T08:35:50.304Z</time>
      </trkpt>
      <trkpt lat="46.97292" lon="8.77981">
        <ele>640</ele>
        <time>2021-08-06T08:35:51.303Z</time>
      </trkpt>
      <trkpt lat="46.97293" lon="8.7798">
        <ele>640</ele>
        <time>2021-08-06T08:35:52.303Z</time>
      </trkpt>
      <trkpt lat="46.97293" lon="8.77978">
        <ele>639</ele>
        <time>2021-08-06T08:35:53.303Z</time>
      </trkpt>
      <trkpt lat="46.97293" lon="8.77976">
        <ele>639</ele>
        <time>2021-08-06T08:35:54.303Z</time>
      </trkpt>
      <trkpt lat="46.97293" lon="8.77975">
        <ele>638</ele>
        <time>2021-08-06T08:35:55.304Z</time>
      </trkpt>
      <trkpt lat="46.97294" lon="8.77973">
        <ele>638</ele>
        <time>2021-08-06T08:35:56.303Z</time>
      </trkpt>
      <trkpt lat="46.97294" lon="8.77971">
        <ele>638</ele>
        <time>2021-08-06T08:35:57.304Z</time>
      </trkpt>
      <trkpt lat="46.97295" lon="8.7797">
        <ele>638</ele>
        <time>2021-08-06T08:35:58.303Z</time>
      </trkpt>
      <trkpt lat="46.97295" lon="8.77968">
        <ele>638</ele>
        <time>2021-08-06T08:35:59.304Z</time>
      </trkpt>
      <trkpt lat="46.97296" lon="8.77966">
        <ele>638</ele>
        <time>2021-08-06T08:36:00.304Z</time>
      </trkpt>
      <trkpt lat="46.97296" lon="8.77965">
        <ele>638</ele>
        <time>2021-08-06T08:36:01.303Z</time>
      </trkpt>
      <trkpt lat="46.97296" lon="8.77963">
        <ele>638</ele>
        <time>2021-08-06T08:36:02.304Z</time>
      </trkpt>
      <trkpt lat="46.97297" lon="8.77962">
        <ele>638</ele>
        <time>2021-08-06T08:36:03.303Z</time>
      </trkpt>
      <trkpt lat="46.97298" lon="8.7796">
        <ele>638</ele>
        <time>2021-08-06T08:36:04.303Z</time>
      </trkpt>
      <trkpt lat="46.97298" lon="8.77959">
        <ele>639</ele>
        <time>2021-08-06T08:36:05.303Z</time>
      </trkpt>
      <trkpt lat="46.97299" lon="8.77957">
        <ele>639</ele>
        <time>2021-08-06T08:36:06.303Z</time>
      </trkpt>
      <trkpt lat="46.97299" lon="8.77955">
        <ele>639</ele>
        <time>2021-08-06T08:36:07.304Z</time>
      </trkpt>
      <trkpt lat="46.973" lon="8.77954">
        <ele>639</ele>
        <time>2021-08-06T08:36:08.303Z</time>
      </trkpt>
      <trkpt lat="46.97301" lon="8.77952">
        <ele>639</ele>
        <time>2021-08-06T08:36:09.304Z</time>
      </trkpt>
      <trkpt lat="46.97301" lon="8.77951">
        <ele>639</ele>
        <time>2021-08-06T08:36:10.304Z</time>
      </trkpt>
      <trkpt lat="46.97302" lon="8.77949">
        <ele>639</ele>
        <time>2021-08-06T08:36:11.303Z</time>
      </trkpt>
      <trkpt lat="46.97303" lon="8.77947">
        <ele>639</ele>
        <time>2021-08-06T08:36:12.304Z</time>
      </trkpt>
      <trkpt lat="46.97304" lon="8.77946">
        <ele>639</ele>
        <time>2021-08-06T08:36:13.304Z</time>
      </trkpt>
      <trkpt lat="46.97304" lon="8.77944">
        <ele>639</ele>
        <time>2021-08-06T08:36:14.304Z</time>
      </trkpt>
      <trkpt lat="46.97305" lon="8.77942">
        <ele>639</ele>
        <time>2021-08-06T08:36:15.303Z</time>
      </trkpt>
      <trkpt lat="46.97307" lon="8.7794">
        <ele>639</ele>
        <time>2021-08-06T08:36:16.304Z</time>
      </trkpt>
      <trkpt lat="46.97307" lon="8.77939">
        <ele>639</ele>
        <time>2021-08-06T08:36:17.304Z</time>
      </trkpt>
      <trkpt lat="46.97308" lon="8.77937">
        <ele>639</ele>
        <time>2021-08-06T08:36:18.303Z</time>
      </trkpt>
      <trkpt lat="46.97309" lon="8.77936">
        <ele>640</ele>
        <time>2021-08-06T08:36:19.304Z</time>
      </trkpt>
      <trkpt lat="46.97309" lon="8.77934">
        <ele>640</ele>
        <time>2021-08-06T08:36:20.304Z</time>
      </trkpt>
      <trkpt lat="46.9731" lon="8.77933">
        <ele>640</ele>
        <time>2021-08-06T08:36:21.303Z</time>
      </trkpt>
      <trkpt lat="46.9731" lon="8.77931">
        <ele>641</ele>
        <time>2021-08-06T08:36:22.304Z</time>
      </trkpt>
      <trkpt lat="46.97311" lon="8.7793">
        <ele>641</ele>
        <time>2021-08-06T08:36:23.304Z</time>
      </trkpt>
      <trkpt lat="46.97311" lon="8.77929">
        <ele>641</ele>
        <time>2021-08-06T08:36:24.303Z</time>
      </trkpt>
      <trkpt lat="46.97311" lon="8.77927">
        <ele>641</ele>
        <time>2021-08-06T08:36:25.304Z</time>
      </trkpt>
      <trkpt lat="46.97311" lon="8.77925">
        <ele>641</ele>
        <time>2021-08-06T08:36:26.304Z</time>
      </trkpt>
      <trkpt lat="46.97311" lon="8.77923">
        <ele>642</ele>
        <time>2021-08-06T08:36:27.303Z</time>
      </trkpt>
      <trkpt lat="46.97312" lon="8.77922">
        <ele>642</ele>
        <time>2021-08-06T08:36:28.303Z</time>
      </trkpt>
      <trkpt lat="46.97313" lon="8.77921">
        <ele>642</ele>
        <time>2021-08-06T08:36:29.303Z</time>
      </trkpt>
      <trkpt lat="46.97314" lon="8.77919">
        <ele>642</ele>
        <time>2021-08-06T08:36:30.303Z</time>
      </trkpt>
      <trkpt lat="46.97314" lon="8.77918">
        <ele>642</ele>
        <time>2021-08-06T08:36:31.303Z</time>
      </trkpt>
      <trkpt lat="46.97314" lon="8.77916">
        <ele>641</ele>
        <time>2021-08-06T08:36:32.304Z</time>
      </trkpt>
      <trkpt lat="46.97313" lon="8.77915">
        <ele>641</ele>
        <time>2021-08-06T08:36:33.304Z</time>
      </trkpt>
      <trkpt lat="46.97314" lon="8.77914">
        <ele>641</ele>
        <time>2021-08-06T08:36:34.303Z</time>
      </trkpt>
      <trkpt lat="46.97314" lon="8.77913">
        <ele>641</ele>
        <time>2021-08-06T08:36:35.304Z</time>
      </trkpt>
      <trkpt lat="46.97314" lon="8.77911">
        <ele>641</ele>
        <time>2021-08-06T08:36:36.304Z</time>
      </trkpt>
      <trkpt lat="46.97315" lon="8.7791">
        <ele>641</ele>
        <time>2021-08-06T08:36:37.304Z</time>
      </trkpt>
      <trkpt lat="46.97315" lon="8.77908">
        <ele>641</ele>
        <time>2021-08-06T08:36:38.304Z</time>
      </trkpt>
      <trkpt lat="46.97315" lon="8.77907">
        <ele>641</ele>
        <time>2021-08-06T08:36:39.303Z</time>
      </trkpt>
      <trkpt lat="46.97316" lon="8.77906">
        <ele>641</ele>
        <time>2021-08-06T08:36:40.303Z</time>
      </trkpt>
      <trkpt lat="46.97316" lon="8.77905">
        <ele>642</ele>
        <time>2021-08-06T08:36:41.303Z</time>
      </trkpt>
      <trkpt lat="46.97316" lon="8.77903">
        <ele>642</ele>
        <time>2021-08-06T08:36:42.303Z</time>
      </trkpt>
      <trkpt lat="46.97316" lon="8.77902">
        <ele>642</ele>
        <time>2021-08-06T08:36:43.304Z</time>
      </trkpt>
      <trkpt lat="46.97316" lon="8.77901">
        <ele>643</ele>
        <time>2021-08-06T08:36:44.303Z</time>
      </trkpt>
      <trkpt lat="46.97316" lon="8.779">
        <ele>643</ele>
        <time>2021-08-06T08:36:45.304Z</time>
      </trkpt>
      <trkpt lat="46.97316" lon="8.77899">
        <ele>643</ele>
        <time>2021-08-06T08:36:46.304Z</time>
      </trkpt>
      <trkpt lat="46.97315" lon="8.77898">
        <ele>643</ele>
        <time>2021-08-06T08:36:47.304Z</time>
      </trkpt>
      <trkpt lat="46.97316" lon="8.77897">
        <ele>643</ele>
        <time>2021-08-06T08:36:48.303Z</time>
      </trkpt>
      <trkpt lat="46.97317" lon="8.77896">
        <ele>644</ele>
        <time>2021-08-06T08:36:49.303Z</time>
      </trkpt>
      <trkpt lat="46.97318" lon="8.77895">
        <ele>645</ele>
        <time>2021-08-06T08:36:50.304Z</time>
      </trkpt>
      <trkpt lat="46.97319" lon="8.77894">
        <ele>645</ele>
        <time>2021-08-06T08:36:51.303Z</time>
      </trkpt>
      <trkpt lat="46.97319" lon="8.77893">
        <ele>645</ele>
        <time>2021-08-06T08:36:52.304Z</time>
      </trkpt>
      <trkpt lat="46.97321" lon="8.77892">
        <ele>646</ele>
        <time>2021-08-06T08:36:53.303Z</time>
      </trkpt>
      <trkpt lat="46.97321" lon="8.7789">
        <ele>646</ele>
        <time>2021-08-06T08:36:54.303Z</time>
      </trkpt>
      <trkpt lat="46.97321" lon="8.77889">
        <ele>647</ele>
        <time>2021-08-06T08:36:55.303Z</time>
      </trkpt>
      <trkpt lat="46.97322" lon="8.77888">
        <ele>647</ele>
        <time>2021-08-06T08:36:56.304Z</time>
      </trkpt>
      <trkpt lat="46.97323" lon="8.77887">
        <ele>648</ele>
        <time>2021-08-06T08:36:57.303Z</time>
      </trkpt>
      <trkpt lat="46.97325" lon="8.77886">
        <ele>648</ele>
        <time>2021-08-06T08:36:58.304Z</time>
      </trkpt>
      <trkpt lat="46.97326" lon="8.77885">
        <ele>649</ele>
        <time>2021-08-06T08:36:59.303Z</time>
      </trkpt>
      <trkpt lat="46.97327" lon="8.77883">
        <ele>649</ele>
        <time>2021-08-06T08:37:00.304Z</time>
      </trkpt>
      <trkpt lat="46.97327" lon="8.77883">
        <ele>650</ele>
        <time>2021-08-06T08:37:01.303Z</time>
      </trkpt>
      <trkpt lat="46.97326" lon="8.77882">
        <ele>650</ele>
        <time>2021-08-06T08:37:02.303Z</time>
      </trkpt>
      <trkpt lat="46.97327" lon="8.77881">
        <ele>650</ele>
        <time>2021-08-06T08:37:03.304Z</time>
      </trkpt>
      <trkpt lat="46.97327" lon="8.77879">
        <ele>650</ele>
        <time>2021-08-06T08:37:04.304Z</time>
      </trkpt>
      <trkpt lat="46.97327" lon="8.77878">
        <ele>650</ele>
        <time>2021-08-06T08:37:05.303Z</time>
      </trkpt>
      <trkpt lat="46.97327" lon="8.77877">
        <ele>650</ele>
        <time>2021-08-06T08:37:06.303Z</time>
      </trkpt>
      <trkpt lat="46.97327" lon="8.77876">
        <ele>650</ele>
        <time>2021-08-06T08:37:07.304Z</time>
      </trkpt>
      <trkpt lat="46.97328" lon="8.77875">
        <ele>650</ele>
        <time>2021-08-06T08:37:08.304Z</time>
      </trkpt>
      <trkpt lat="46.97328" lon="8.77874">
        <ele>650</ele>
        <time>2021-08-06T08:37:09.303Z</time>
      </trkpt>
      <trkpt lat="46.97328" lon="8.77873">
        <ele>650</ele>
        <time>2021-08-06T08:37:10.304Z</time>
      </trkpt>
      <trkpt lat="46.97328" lon="8.77872">
        <ele>650</ele>
        <time>2021-08-06T08:37:11.303Z</time>
      </trkpt>
      <trkpt lat="46.97328" lon="8.7787">
        <ele>649</ele>
        <time>2021-08-06T08:37:12.304Z</time>
      </trkpt>
      <trkpt lat="46.97328" lon="8.77869">
        <ele>649</ele>
        <time>2021-08-06T08:37:13.303Z</time>
      </trkpt>
      <trkpt lat="46.97328" lon="8.77867">
        <ele>649</ele>
        <time>2021-08-06T08:37:14.304Z</time>
      </trkpt>
      <trkpt lat="46.97328" lon="8.77866">
        <ele>649</ele>
        <time>2021-08-06T08:37:15.304Z</time>
      </trkpt>
      <trkpt lat="46.9733" lon="8.77863">
        <ele>648</ele>
        <time>2021-08-06T08:37:16.304Z</time>
      </trkpt>
      <trkpt lat="46.97331" lon="8.77862">
        <ele>648</ele>
        <time>2021-08-06T08:37:17.303Z</time>
      </trkpt>
      <trkpt lat="46.97331" lon="8.7786">
        <ele>648</ele>
        <time>2021-08-06T08:37:18.303Z</time>
      </trkpt>
      <trkpt lat="46.97332" lon="8.77859">
        <ele>648</ele>
        <time>2021-08-06T08:37:19.304Z</time>
      </trkpt>
      <trkpt lat="46.97334" lon="8.77856">
        <ele>648</ele>
        <time>2021-08-06T08:37:20.303Z</time>
      </trkpt>
      <trkpt lat="46.97335" lon="8.77854">
        <ele>648</ele>
        <time>2021-08-06T08:37:21.303Z</time>
      </trkpt>
      <trkpt lat="46.97336" lon="8.77853">
        <ele>648</ele>
        <time>2021-08-06T08:37:22.304Z</time>
      </trkpt>
      <trkpt lat="46.97335" lon="8.77851">
        <ele>648</ele>
        <time>2021-08-06T08:37:23.303Z</time>
      </trkpt>
      <trkpt lat="46.97334" lon="8.7785">
        <ele>648</ele>
        <time>2021-08-06T08:37:24.303Z</time>
      </trkpt>
      <trkpt lat="46.97332" lon="8.77848">
        <ele>647</ele>
        <time>2021-08-06T08:37:25.304Z</time>
      </trkpt>
      <trkpt lat="46.97331" lon="8.77847">
        <ele>646</ele>
        <time>2021-08-06T08:37:26.303Z</time>
      </trkpt>
      <trkpt lat="46.97331" lon="8.77845">
        <ele>646</ele>
        <time>2021-08-06T08:37:27.304Z</time>
      </trkpt>
      <trkpt lat="46.97331" lon="8.77844">
        <ele>646</ele>
        <time>2021-08-06T08:37:28.304Z</time>
      </trkpt>
      <trkpt lat="46.97332" lon="8.77843">
        <ele>645</ele>
        <time>2021-08-06T08:37:29.303Z</time>
      </trkpt>
      <trkpt lat="46.97332" lon="8.77842">
        <ele>645</ele>
        <time>2021-08-06T08:37:30.304Z</time>
      </trkpt>
      <trkpt lat="46.97332" lon="8.7784">
        <ele>645</ele>
        <time>2021-08-06T08:37:31.303Z</time>
      </trkpt>
      <trkpt lat="46.97332" lon="8.77839">
        <ele>644</ele>
        <time>2021-08-06T08:37:32.303Z</time>
      </trkpt>
      <trkpt lat="46.97332" lon="8.77838">
        <ele>644</ele>
        <time>2021-08-06T08:37:33.303Z</time>
      </trkpt>
      <trkpt lat="46.97332" lon="8.77836">
        <ele>644</ele>
        <time>2021-08-06T08:37:34.304Z</time>
      </trkpt>
      <trkpt lat="46.97332" lon="8.77835">
        <ele>644</ele>
        <time>2021-08-06T08:37:35.304Z</time>
      </trkpt>
      <trkpt lat="46.97332" lon="8.77834">
        <ele>644</ele>
        <time>2021-08-06T08:37:36.303Z</time>
      </trkpt>
      <trkpt lat="46.97332" lon="8.77832">
        <ele>643</ele>
        <time>2021-08-06T08:37:37.303Z</time>
      </trkpt>
      <trkpt lat="46.97331" lon="8.7783">
        <ele>643</ele>
        <time>2021-08-06T08:37:38.303Z</time>
      </trkpt>
      <trkpt lat="46.9733" lon="8.77829">
        <ele>642</ele>
        <time>2021-08-06T08:37:39.303Z</time>
      </trkpt>
      <trkpt lat="46.97329" lon="8.77828">
        <ele>642</ele>
        <time>2021-08-06T08:37:40.303Z</time>
      </trkpt>
      <trkpt lat="46.97329" lon="8.77827">
        <ele>642</ele>
        <time>2021-08-06T08:37:41.303Z</time>
      </trkpt>
      <trkpt lat="46.97329" lon="8.77825">
        <ele>642</ele>
        <time>2021-08-06T08:37:42.303Z</time>
      </trkpt>
      <trkpt lat="46.97329" lon="8.77824">
        <ele>642</ele>
        <time>2021-08-06T08:37:43.303Z</time>
      </trkpt>
      <trkpt lat="46.97329" lon="8.77822">
        <ele>642</ele>
        <time>2021-08-06T08:37:44.303Z</time>
      </trkpt>
      <trkpt lat="46.97329" lon="8.77821">
        <ele>642</ele>
        <time>2021-08-06T08:37:45.303Z</time>
      </trkpt>
      <trkpt lat="46.97329" lon="8.77819">
        <ele>642</ele>
        <time>2021-08-06T08:37:46.304Z</time>
      </trkpt>
      <trkpt lat="46.97329" lon="8.77818">
        <ele>642</ele>
        <time>2021-08-06T08:37:47.304Z</time>
      </trkpt>
      <trkpt lat="46.97329" lon="8.77815">
        <ele>643</ele>
        <time>2021-08-06T08:37:48.303Z</time>
      </trkpt>
      <trkpt lat="46.97329" lon="8.77813">
        <ele>643</ele>
        <time>2021-08-06T08:37:49.303Z</time>
      </trkpt>
      <trkpt lat="46.97328" lon="8.7781">
        <ele>643</ele>
        <time>2021-08-06T08:37:50.303Z</time>
      </trkpt>
      <trkpt lat="46.97328" lon="8.77809">
        <ele>643</ele>
        <time>2021-08-06T08:37:51.303Z</time>
      </trkpt>
      <trkpt lat="46.97328" lon="8.77808">
        <ele>644</ele>
        <time>2021-08-06T08:37:52.303Z</time>
      </trkpt>
      <trkpt lat="46.97328" lon="8.77806">
        <ele>645</ele>
        <time>2021-08-06T08:37:53.303Z</time>
      </trkpt>
      <trkpt lat="46.97329" lon="8.77805">
        <ele>645</ele>
        <time>2021-08-06T08:37:54.303Z</time>
      </trkpt>
      <trkpt lat="46.97329" lon="8.77804">
        <ele>645</ele>
        <time>2021-08-06T08:37:55.303Z</time>
      </trkpt>
      <trkpt lat="46.9733" lon="8.77803">
        <ele>645</ele>
        <time>2021-08-06T08:37:56.304Z</time>
      </trkpt>
      <trkpt lat="46.9733" lon="8.77802">
        <ele>644</ele>
        <time>2021-08-06T08:37:57.304Z</time>
      </trkpt>
      <trkpt lat="46.9733" lon="8.77801">
        <ele>644</ele>
        <time>2021-08-06T08:37:58.304Z</time>
      </trkpt>
      <trkpt lat="46.9733" lon="8.778">
        <ele>644</ele>
        <time>2021-08-06T08:37:59.303Z</time>
      </trkpt>
      <trkpt lat="46.97331" lon="8.77799">
        <ele>644</ele>
        <time>2021-08-06T08:38:00.303Z</time>
      </trkpt>
      <trkpt lat="46.97332" lon="8.77798">
        <ele>644</ele>
        <time>2021-08-06T08:38:01.304Z</time>
      </trkpt>
      <trkpt lat="46.97333" lon="8.77797">
        <ele>644</ele>
        <time>2021-08-06T08:38:02.303Z</time>
      </trkpt>
      <trkpt lat="46.97333" lon="8.77795">
        <ele>645</ele>
        <time>2021-08-06T08:38:03.303Z</time>
      </trkpt>
      <trkpt lat="46.97333" lon="8.77794">
        <ele>645</ele>
        <time>2021-08-06T08:38:04.303Z</time>
      </trkpt>
      <trkpt lat="46.97333" lon="8.77793">
        <ele>645</ele>
        <time>2021-08-06T08:38:05.304Z</time>
      </trkpt>
      <trkpt lat="46.97334" lon="8.77792">
        <ele>645</ele>
        <time>2021-08-06T08:38:06.304Z</time>
      </trkpt>
      <trkpt lat="46.97334" lon="8.7779">
        <ele>645</ele>
        <time>2021-08-06T08:38:07.304Z</time>
      </trkpt>
      <trkpt lat="46.97335" lon="8.77789">
        <ele>645</ele>
        <time>2021-08-06T08:38:08.303Z</time>
      </trkpt>
      <trkpt lat="46.97335" lon="8.77788">
        <ele>645</ele>
        <time>2021-08-06T08:38:09.303Z</time>
      </trkpt>
      <trkpt lat="46.97335" lon="8.77787">
        <ele>645</ele>
        <time>2021-08-06T08:38:10.303Z</time>
      </trkpt>
      <trkpt lat="46.97335" lon="8.77786">
        <ele>644</ele>
        <time>2021-08-06T08:38:11.303Z</time>
      </trkpt>
      <trkpt lat="46.97335" lon="8.77784">
        <ele>644</ele>
        <time>2021-08-06T08:38:12.303Z</time>
      </trkpt>
      <trkpt lat="46.97336" lon="8.77783">
        <ele>644</ele>
        <time>2021-08-06T08:38:13.304Z</time>
      </trkpt>
      <trkpt lat="46.97337" lon="8.77781">
        <ele>644</ele>
        <time>2021-08-06T08:38:14.304Z</time>
      </trkpt>
      <trkpt lat="46.97337" lon="8.7778">
        <ele>644</ele>
        <time>2021-08-06T08:38:15.303Z</time>
      </trkpt>
      <trkpt lat="46.97338" lon="8.77778">
        <ele>644</ele>
        <time>2021-08-06T08:38:16.303Z</time>
      </trkpt>
      <trkpt lat="46.97339" lon="8.77776">
        <ele>643</ele>
        <time>2021-08-06T08:38:17.304Z</time>
      </trkpt>
      <trkpt lat="46.9734" lon="8.77774">
        <ele>643</ele>
        <time>2021-08-06T08:38:18.304Z</time>
      </trkpt>
      <trkpt lat="46.97341" lon="8.77772">
        <ele>642</ele>
        <time>2021-08-06T08:38:19.303Z</time>
      </trkpt>
      <trkpt lat="46.97342" lon="8.77771">
        <ele>642</ele>
        <time>2021-08-06T08:38:20.304Z</time>
      </trkpt>
      <trkpt lat="46.97343" lon="8.7777">
        <ele>641</ele>
        <time>2021-08-06T08:38:21.303Z</time>
      </trkpt>
      <trkpt lat="46.97344" lon="8.77769">
        <ele>641</ele>
        <time>2021-08-06T08:38:22.303Z</time>
      </trkpt>
      <trkpt lat="46.97344" lon="8.77768">
        <ele>640</ele>
        <time>2021-08-06T08:38:23.303Z</time>
      </trkpt>
      <trkpt lat="46.97344" lon="8.77767">
        <ele>640</ele>
        <time>2021-08-06T08:38:24.303Z</time>
      </trkpt>
      <trkpt lat="46.97345" lon="8.77766">
        <ele>639</ele>
        <time>2021-08-06T08:38:25.303Z</time>
      </trkpt>
      <trkpt lat="46.97345" lon="8.77764">
        <ele>639</ele>
        <time>2021-08-06T08:38:26.303Z</time>
      </trkpt>
      <trkpt lat="46.97345" lon="8.77763">
        <ele>639</ele>
        <time>2021-08-06T08:38:27.303Z</time>
      </trkpt>
      <trkpt lat="46.97345" lon="8.77761">
        <ele>639</ele>
        <time>2021-08-06T08:38:28.303Z</time>
      </trkpt>
      <trkpt lat="46.97345" lon="8.7776">
        <ele>639</ele>
        <time>2021-08-06T08:38:29.304Z</time>
      </trkpt>
      <trkpt lat="46.97346" lon="8.77758">
        <ele>639</ele>
        <time>2021-08-06T08:38:30.304Z</time>
      </trkpt>
      <trkpt lat="46.97347" lon="8.77757">
        <ele>639</ele>
        <time>2021-08-06T08:38:31.303Z</time>
      </trkpt>
      <trkpt lat="46.97348" lon="8.77755">
        <ele>639</ele>
        <time>2021-08-06T08:38:32.304Z</time>
      </trkpt>
      <trkpt lat="46.97348" lon="8.77754">
        <ele>640</ele>
        <time>2021-08-06T08:38:33.304Z</time>
      </trkpt>
      <trkpt lat="46.97349" lon="8.77752">
        <ele>640</ele>
        <time>2021-08-06T08:38:34.304Z</time>
      </trkpt>
      <trkpt lat="46.97349" lon="8.77751">
        <ele>641</ele>
        <time>2021-08-06T08:38:35.304Z</time>
      </trkpt>
      <trkpt lat="46.9735" lon="8.77749">
        <ele>641</ele>
        <time>2021-08-06T08:38:36.304Z</time>
      </trkpt>
      <trkpt lat="46.9735" lon="8.77747">
        <ele>640</ele>
        <time>2021-08-06T08:38:37.303Z</time>
      </trkpt>
      <trkpt lat="46.9735" lon="8.77746">
        <ele>640</ele>
        <time>2021-08-06T08:38:38.304Z</time>
      </trkpt>
      <trkpt lat="46.9735" lon="8.77744">
        <ele>639</ele>
        <time>2021-08-06T08:38:39.304Z</time>
      </trkpt>
      <trkpt lat="46.9735" lon="8.77742">
        <ele>639</ele>
        <time>2021-08-06T08:38:40.303Z</time>
      </trkpt>
      <trkpt lat="46.9735" lon="8.7774">
        <ele>639</ele>
        <time>2021-08-06T08:38:41.304Z</time>
      </trkpt>
      <trkpt lat="46.97351" lon="8.77738">
        <ele>639</ele>
        <time>2021-08-06T08:38:42.303Z</time>
      </trkpt>
      <trkpt lat="46.9735" lon="8.77736">
        <ele>639</ele>
        <time>2021-08-06T08:38:43.303Z</time>
      </trkpt>
      <trkpt lat="46.9735" lon="8.77734">
        <ele>638</ele>
        <time>2021-08-06T08:38:44.303Z</time>
      </trkpt>
      <trkpt lat="46.9735" lon="8.77733">
        <ele>638</ele>
        <time>2021-08-06T08:38:45.304Z</time>
      </trkpt>
      <trkpt lat="46.97351" lon="8.77731">
        <ele>638</ele>
        <time>2021-08-06T08:38:46.304Z</time>
      </trkpt>
      <trkpt lat="46.9735" lon="8.77729">
        <ele>637</ele>
        <time>2021-08-06T08:38:47.304Z</time>
      </trkpt>
      <trkpt lat="46.97351" lon="8.77727">
        <ele>637</ele>
        <time>2021-08-06T08:38:48.304Z</time>
      </trkpt>
      <trkpt lat="46.97351" lon="8.77727">
        <ele>637</ele>
        <time>2021-08-06T08:38:49.303Z</time>
      </trkpt>
      <trkpt lat="46.97351" lon="8.77725">
        <ele>637</ele>
        <time>2021-08-06T08:38:50.303Z</time>
      </trkpt>
      <trkpt lat="46.97351" lon="8.77723">
        <ele>637</ele>
        <time>2021-08-06T08:38:51.303Z</time>
      </trkpt>
      <trkpt lat="46.97352" lon="8.77722">
        <ele>636</ele>
        <time>2021-08-06T08:38:52.303Z</time>
      </trkpt>
      <trkpt lat="46.97351" lon="8.77721">
        <ele>636</ele>
        <time>2021-08-06T08:38:53.303Z</time>
      </trkpt>
      <trkpt lat="46.97351" lon="8.77719">
        <ele>636</ele>
        <time>2021-08-06T08:38:54.303Z</time>
      </trkpt>
      <trkpt lat="46.97351" lon="8.77718">
        <ele>636</ele>
        <time>2021-08-06T08:38:55.304Z</time>
      </trkpt>
      <trkpt lat="46.97352" lon="8.77717">
        <ele>636</ele>
        <time>2021-08-06T08:38:56.304Z</time>
      </trkpt>
      <trkpt lat="46.97352" lon="8.77716">
        <ele>636</ele>
        <time>2021-08-06T08:38:57.304Z</time>
      </trkpt>
      <trkpt lat="46.97353" lon="8.77714">
        <ele>636</ele>
        <time>2021-08-06T08:38:58.304Z</time>
      </trkpt>
      <trkpt lat="46.97353" lon="8.77713">
        <ele>637</ele>
        <time>2021-08-06T08:38:59.303Z</time>
      </trkpt>
      <trkpt lat="46.97353" lon="8.77712">
        <ele>637</ele>
        <time>2021-08-06T08:39:00.304Z</time>
      </trkpt>
      <trkpt lat="46.97353" lon="8.77711">
        <ele>638</ele>
        <time>2021-08-06T08:39:01.304Z</time>
      </trkpt>
      <trkpt lat="46.97353" lon="8.7771">
        <ele>638</ele>
        <time>2021-08-06T08:39:02.303Z</time>
      </trkpt>
      <trkpt lat="46.97353" lon="8.77709">
        <ele>638</ele>
        <time>2021-08-06T08:39:03.304Z</time>
      </trkpt>
      <trkpt lat="46.97354" lon="8.77707">
        <ele>639</ele>
        <time>2021-08-06T08:39:04.304Z</time>
      </trkpt>
      <trkpt lat="46.97354" lon="8.77705">
        <ele>639</ele>
        <time>2021-08-06T08:39:05.303Z</time>
      </trkpt>
      <trkpt lat="46.97354" lon="8.77704">
        <ele>639</ele>
        <time>2021-08-06T08:39:06.303Z</time>
      </trkpt>
      <trkpt lat="46.97354" lon="8.77703">
        <ele>639</ele>
        <time>2021-08-06T08:39:07.304Z</time>
      </trkpt>
      <trkpt lat="46.97354" lon="8.77701">
        <ele>639</ele>
        <time>2021-08-06T08:39:08.303Z</time>
      </trkpt>
      <trkpt lat="46.97355" lon="8.77699">
        <ele>639</ele>
        <time>2021-08-06T08:39:09.304Z</time>
      </trkpt>
      <trkpt lat="46.97355" lon="8.77698">
        <ele>639</ele>
        <time>2021-08-06T08:39:10.303Z</time>
      </trkpt>
      <trkpt lat="46.97355" lon="8.77696">
        <ele>639</ele>
        <time>2021-08-06T08:39:11.304Z</time>
      </trkpt>
      <trkpt lat="46.97355" lon="8.77695">
        <ele>638</ele>
        <time>2021-08-06T08:39:12.304Z</time>
      </trkpt>
      <trkpt lat="46.97356" lon="8.77694">
        <ele>638</ele>
        <time>2021-08-06T08:39:13.304Z</time>
      </trkpt>
      <trkpt lat="46.97356" lon="8.77693">
        <ele>638</ele>
        <time>2021-08-06T08:39:14.304Z</time>
      </trkpt>
      <trkpt lat="46.97356" lon="8.77692">
        <ele>638</ele>
        <time>2021-08-06T08:39:15.303Z</time>
      </trkpt>
      <trkpt lat="46.97356" lon="8.77691">
        <ele>638</ele>
        <time>2021-08-06T08:39:16.303Z</time>
      </trkpt>
      <trkpt lat="46.97356" lon="8.77689">
        <ele>638</ele>
        <time>2021-08-06T08:39:17.304Z</time>
      </trkpt>
      <trkpt lat="46.97356" lon="8.77688">
        <ele>638</ele>
        <time>2021-08-06T08:39:18.303Z</time>
      </trkpt>
      <trkpt lat="46.97356" lon="8.77686">
        <ele>638</ele>
        <time>2021-08-06T08:39:19.303Z</time>
      </trkpt>
      <trkpt lat="46.97356" lon="8.77685">
        <ele>638</ele>
        <time>2021-08-06T08:39:20.303Z</time>
      </trkpt>
      <trkpt lat="46.97357" lon="8.77684">
        <ele>637</ele>
        <time>2021-08-06T08:39:21.303Z</time>
      </trkpt>
      <trkpt lat="46.97358" lon="8.77683">
        <ele>637</ele>
        <time>2021-08-06T08:39:22.304Z</time>
      </trkpt>
      <trkpt lat="46.97358" lon="8.77681">
        <ele>637</ele>
        <time>2021-08-06T08:39:23.304Z</time>
      </trkpt>
      <trkpt lat="46.97358" lon="8.7768">
        <ele>637</ele>
        <time>2021-08-06T08:39:24.303Z</time>
      </trkpt>
      <trkpt lat="46.97358" lon="8.77679">
        <ele>637</ele>
        <time>2021-08-06T08:39:25.303Z</time>
      </trkpt>
      <trkpt lat="46.97358" lon="8.77677">
        <ele>636</ele>
        <time>2021-08-06T08:39:26.303Z</time>
      </trkpt>
      <trkpt lat="46.97358" lon="8.77676">
        <ele>636</ele>
        <time>2021-08-06T08:39:27.304Z</time>
      </trkpt>
      <trkpt lat="46.97358" lon="8.77674">
        <ele>635</ele>
        <time>2021-08-06T08:39:28.303Z</time>
      </trkpt>
      <trkpt lat="46.97358" lon="8.77673">
        <ele>635</ele>
        <time>2021-08-06T08:39:29.303Z</time>
      </trkpt>
      <trkpt lat="46.97359" lon="8.77672">
        <ele>635</ele>
        <time>2021-08-06T08:39:30.303Z</time>
      </trkpt>
      <trkpt lat="46.97359" lon="8.7767">
        <ele>634</ele>
        <time>2021-08-06T08:39:31.303Z</time>
      </trkpt>
      <trkpt lat="46.97361" lon="8.77669">
        <ele>634</ele>
        <time>2021-08-06T08:39:32.304Z</time>
      </trkpt>
      <trkpt lat="46.97361" lon="8.77668">
        <ele>634</ele>
        <time>2021-08-06T08:39:33.303Z</time>
      </trkpt>
      <trkpt lat="46.97362" lon="8.77666">
        <ele>633</ele>
        <time>2021-08-06T08:39:34.304Z</time>
      </trkpt>
      <trkpt lat="46.97363" lon="8.77665">
        <ele>633</ele>
        <time>2021-08-06T08:39:35.304Z</time>
      </trkpt>
      <trkpt lat="46.97364" lon="8.77664">
        <ele>632</ele>
        <time>2021-08-06T08:39:36.304Z</time>
      </trkpt>
      <trkpt lat="46.97364" lon="8.77663">
        <ele>632</ele>
        <time>2021-08-06T08:39:37.304Z</time>
      </trkpt>
      <trkpt lat="46.97365" lon="8.77661">
        <ele>632</ele>
        <time>2021-08-06T08:39:38.303Z</time>
      </trkpt>
      <trkpt lat="46.97365" lon="8.77659">
        <ele>632</ele>
        <time>2021-08-06T08:39:39.303Z</time>
      </trkpt>
      <trkpt lat="46.97365" lon="8.77656">
        <ele>632</ele>
        <time>2021-08-06T08:39:40.303Z</time>
      </trkpt>
      <trkpt lat="46.97365" lon="8.77654">
        <ele>632</ele>
        <time>2021-08-06T08:39:41.303Z</time>
      </trkpt>
      <trkpt lat="46.97366" lon="8.77653">
        <ele>632</ele>
        <time>2021-08-06T08:39:42.303Z</time>
      </trkpt>
      <trkpt lat="46.97366" lon="8.77651">
        <ele>632</ele>
        <time>2021-08-06T08:39:43.303Z</time>
      </trkpt>
      <trkpt lat="46.97367" lon="8.77649">
        <ele>633</ele>
        <time>2021-08-06T08:39:44.303Z</time>
      </trkpt>
      <trkpt lat="46.97368" lon="8.77648">
        <ele>633</ele>
        <time>2021-08-06T08:39:45.303Z</time>
      </trkpt>
      <trkpt lat="46.97368" lon="8.77646">
        <ele>633</ele>
        <time>2021-08-06T08:39:46.303Z</time>
      </trkpt>
      <trkpt lat="46.97368" lon="8.77645">
        <ele>633</ele>
        <time>2021-08-06T08:39:47.304Z</time>
      </trkpt>
      <trkpt lat="46.97369" lon="8.77644">
        <ele>633</ele>
        <time>2021-08-06T08:39:48.303Z</time>
      </trkpt>
      <trkpt lat="46.97369" lon="8.77642">
        <ele>633</ele>
        <time>2021-08-06T08:39:49.303Z</time>
      </trkpt>
      <trkpt lat="46.97368" lon="8.7764">
        <ele>634</ele>
        <time>2021-08-06T08:39:50.304Z</time>
      </trkpt>
      <trkpt lat="46.97367" lon="8.77638">
        <ele>634</ele>
        <time>2021-08-06T08:39:51.303Z</time>
      </trkpt>
      <trkpt lat="46.97367" lon="8.77636">
        <ele>634</ele>
        <time>2021-08-06T08:39:52.303Z</time>
      </trkpt>
      <trkpt lat="46.97368" lon="8.77635">
        <ele>634</ele>
        <time>2021-08-06T08:39:53.303Z</time>
      </trkpt>
      <trkpt lat="46.97368" lon="8.77632">
        <ele>634</ele>
        <time>2021-08-06T08:39:54.303Z</time>
      </trkpt>
      <trkpt lat="46.97368" lon="8.7763">
        <ele>634</ele>
        <time>2021-08-06T08:39:55.304Z</time>
      </trkpt>
      <trkpt lat="46.97368" lon="8.77629">
        <ele>634</ele>
        <time>2021-08-06T08:39:56.304Z</time>
      </trkpt>
      <trkpt lat="46.97368" lon="8.77627">
        <ele>634</ele>
        <time>2021-08-06T08:39:57.303Z</time>
      </trkpt>
      <trkpt lat="46.97368" lon="8.77625">
        <ele>633</ele>
        <time>2021-08-06T08:39:58.303Z</time>
      </trkpt>
      <trkpt lat="46.97368" lon="8.77624">
        <ele>633</ele>
        <time>2021-08-06T08:39:59.303Z</time>
      </trkpt>
      <trkpt lat="46.97368" lon="8.77622">
        <ele>633</ele>
        <time>2021-08-06T08:40:00.304Z</time>
      </trkpt>
      <trkpt lat="46.97368" lon="8.77621">
        <ele>633</ele>
        <time>2021-08-06T08:40:01.304Z</time>
      </trkpt>
      <trkpt lat="46.97368" lon="8.7762">
        <ele>633</ele>
        <time>2021-08-06T08:40:02.303Z</time>
      </trkpt>
      <trkpt lat="46.97368" lon="8.77619">
        <ele>633</ele>
        <time>2021-08-06T08:40:03.303Z</time>
      </trkpt>
      <trkpt lat="46.97368" lon="8.77617">
        <ele>633</ele>
        <time>2021-08-06T08:40:04.303Z</time>
      </trkpt>
      <trkpt lat="46.97367" lon="8.77615">
        <ele>633</ele>
        <time>2021-08-06T08:40:05.304Z</time>
      </trkpt>
      <trkpt lat="46.97367" lon="8.77614">
        <ele>634</ele>
        <time>2021-08-06T08:40:06.303Z</time>
      </trkpt>
      <trkpt lat="46.97367" lon="8.77612">
        <ele>634</ele>
        <time>2021-08-06T08:40:07.303Z</time>
      </trkpt>
      <trkpt lat="46.97366" lon="8.77611">
        <ele>634</ele>
        <time>2021-08-06T08:40:08.303Z</time>
      </trkpt>
      <trkpt lat="46.97367" lon="8.77609">
        <ele>635</ele>
        <time>2021-08-06T08:40:09.303Z</time>
      </trkpt>
      <trkpt lat="46.97366" lon="8.77607">
        <ele>635</ele>
        <time>2021-08-06T08:40:10.304Z</time>
      </trkpt>
      <trkpt lat="46.97366" lon="8.77605">
        <ele>634</ele>
        <time>2021-08-06T08:40:11.303Z</time>
      </trkpt>
      <trkpt lat="46.97366" lon="8.77603">
        <ele>634</ele>
        <time>2021-08-06T08:40:12.303Z</time>
      </trkpt>
      <trkpt lat="46.97366" lon="8.77601">
        <ele>634</ele>
        <time>2021-08-06T08:40:13.303Z</time>
      </trkpt>
      <trkpt lat="46.97366" lon="8.776">
        <ele>634</ele>
        <time>2021-08-06T08:40:14.303Z</time>
      </trkpt>
      <trkpt lat="46.97367" lon="8.77598">
        <ele>633</ele>
        <time>2021-08-06T08:40:15.303Z</time>
      </trkpt>
      <trkpt lat="46.97367" lon="8.77597">
        <ele>633</ele>
        <time>2021-08-06T08:40:16.304Z</time>
      </trkpt>
      <trkpt lat="46.97366" lon="8.77596">
        <ele>633</ele>
        <time>2021-08-06T08:40:17.303Z</time>
      </trkpt>
      <trkpt lat="46.97366" lon="8.77594">
        <ele>633</ele>
        <time>2021-08-06T08:40:18.303Z</time>
      </trkpt>
      <trkpt lat="46.97366" lon="8.77592">
        <ele>633</ele>
        <time>2021-08-06T08:40:19.303Z</time>
      </trkpt>
      <trkpt lat="46.97366" lon="8.77591">
        <ele>633</ele>
        <time>2021-08-06T08:40:20.303Z</time>
      </trkpt>
      <trkpt lat="46.97365" lon="8.77589">
        <ele>633</ele>
        <time>2021-08-06T08:40:21.304Z</time>
      </trkpt>
      <trkpt lat="46.97364" lon="8.77587">
        <ele>633</ele>
        <time>2021-08-06T08:40:22.303Z</time>
      </trkpt>
      <trkpt lat="46.97364" lon="8.77586">
        <ele>633</ele>
        <time>2021-08-06T08:40:23.303Z</time>
      </trkpt>
      <trkpt lat="46.97364" lon="8.77584">
        <ele>634</ele>
        <time>2021-08-06T08:40:24.303Z</time>
      </trkpt>
      <trkpt lat="46.97364" lon="8.77583">
        <ele>634</ele>
        <time>2021-08-06T08:40:25.303Z</time>
      </trkpt>
      <trkpt lat="46.97364" lon="8.77582">
        <ele>634</ele>
        <time>2021-08-06T08:40:26.304Z</time>
      </trkpt>
      <trkpt lat="46.97364" lon="8.7758">
        <ele>634</ele>
        <time>2021-08-06T08:40:27.303Z</time>
      </trkpt>
      <trkpt lat="46.97364" lon="8.77579">
        <ele>634</ele>
        <time>2021-08-06T08:40:28.303Z</time>
      </trkpt>
      <trkpt lat="46.97364" lon="8.77578">
        <ele>635</ele>
        <time>2021-08-06T08:40:29.303Z</time>
      </trkpt>
      <trkpt lat="46.97365" lon="8.77576">
        <ele>635</ele>
        <time>2021-08-06T08:40:30.304Z</time>
      </trkpt>
      <trkpt lat="46.97365" lon="8.77575">
        <ele>635</ele>
        <time>2021-08-06T08:40:31.303Z</time>
      </trkpt>
      <trkpt lat="46.97365" lon="8.77574">
        <ele>636</ele>
        <time>2021-08-06T08:40:32.304Z</time>
      </trkpt>
      <trkpt lat="46.97364" lon="8.77573">
        <ele>636</ele>
        <time>2021-08-06T08:40:33.303Z</time>
      </trkpt>
      <trkpt lat="46.97364" lon="8.77572">
        <ele>636</ele>
        <time>2021-08-06T08:40:34.304Z</time>
      </trkpt>
      <trkpt lat="46.97364" lon="8.77571">
        <ele>636</ele>
        <time>2021-08-06T08:40:35.303Z</time>
      </trkpt>
      <trkpt lat="46.97364" lon="8.7757">
        <ele>636</ele>
        <time>2021-08-06T08:40:36.303Z</time>
      </trkpt>
      <trkpt lat="46.97363" lon="8.77569">
        <ele>636</ele>
        <time>2021-08-06T08:40:37.304Z</time>
      </trkpt>
      <trkpt lat="46.97363" lon="8.77569">
        <ele>635</ele>
        <time>2021-08-06T08:40:38.303Z</time>
      </trkpt>
      <trkpt lat="46.97363" lon="8.77568">
        <ele>635</ele>
        <time>2021-08-06T08:40:39.303Z</time>
      </trkpt>
      <trkpt lat="46.97364" lon="8.77567">
        <ele>635</ele>
        <time>2021-08-06T08:40:40.303Z</time>
      </trkpt>
      <trkpt lat="46.97364" lon="8.77567">
        <ele>635</ele>
        <time>2021-08-06T08:40:41.303Z</time>
      </trkpt>
      <trkpt lat="46.97365" lon="8.77566">
        <ele>635</ele>
        <time>2021-08-06T08:40:42.303Z</time>
      </trkpt>
      <trkpt lat="46.97365" lon="8.77564">
        <ele>634</ele>
        <time>2021-08-06T08:40:43.303Z</time>
      </trkpt>
      <trkpt lat="46.97365" lon="8.77563">
        <ele>634</ele>
        <time>2021-08-06T08:40:44.303Z</time>
      </trkpt>
      <trkpt lat="46.97365" lon="8.77561">
        <ele>634</ele>
        <time>2021-08-06T08:40:45.304Z</time>
      </trkpt>
      <trkpt lat="46.97364" lon="8.77559">
        <ele>633</ele>
        <time>2021-08-06T08:40:46.303Z</time>
      </trkpt>
      <trkpt lat="46.97365" lon="8.77557">
        <ele>634</ele>
        <time>2021-08-06T08:40:47.303Z</time>
      </trkpt>
      <trkpt lat="46.97365" lon="8.77556">
        <ele>634</ele>
        <time>2021-08-06T08:40:48.303Z</time>
      </trkpt>
      <trkpt lat="46.97365" lon="8.77555">
        <ele>634</ele>
        <time>2021-08-06T08:40:49.303Z</time>
      </trkpt>
      <trkpt lat="46.97365" lon="8.77553">
        <ele>634</ele>
        <time>2021-08-06T08:40:50.304Z</time>
      </trkpt>
      <trkpt lat="46.97364" lon="8.77551">
        <ele>634</ele>
        <time>2021-08-06T08:40:51.304Z</time>
      </trkpt>
      <trkpt lat="46.97364" lon="8.77549">
        <ele>634</ele>
        <time>2021-08-06T08:40:52.303Z</time>
      </trkpt>
      <trkpt lat="46.97364" lon="8.77547">
        <ele>634</ele>
        <time>2021-08-06T08:40:53.303Z</time>
      </trkpt>
      <trkpt lat="46.97364" lon="8.77546">
        <ele>635</ele>
        <time>2021-08-06T08:40:54.303Z</time>
      </trkpt>
      <trkpt lat="46.97364" lon="8.77544">
        <ele>635</ele>
        <time>2021-08-06T08:40:55.304Z</time>
      </trkpt>
      <trkpt lat="46.97363" lon="8.77541">
        <ele>636</ele>
        <time>2021-08-06T08:40:56.303Z</time>
      </trkpt>
      <trkpt lat="46.97363" lon="8.77539">
        <ele>637</ele>
        <time>2021-08-06T08:40:57.303Z</time>
      </trkpt>
      <trkpt lat="46.97363" lon="8.77537">
        <ele>637</ele>
        <time>2021-08-06T08:40:58.304Z</time>
      </trkpt>
      <trkpt lat="46.97363" lon="8.77535">
        <ele>637</ele>
        <time>2021-08-06T08:40:59.303Z</time>
      </trkpt>
      <trkpt lat="46.97362" lon="8.77533">
        <ele>636</ele>
        <time>2021-08-06T08:41:00.303Z</time>
      </trkpt>
      <trkpt lat="46.97362" lon="8.77531">
        <ele>636</ele>
        <time>2021-08-06T08:41:01.303Z</time>
      </trkpt>
      <trkpt lat="46.97361" lon="8.77529">
        <ele>636</ele>
        <time>2021-08-06T08:41:02.303Z</time>
      </trkpt>
      <trkpt lat="46.97361" lon="8.77528">
        <ele>636</ele>
        <time>2021-08-06T08:41:03.303Z</time>
      </trkpt>
      <trkpt lat="46.97361" lon="8.77527">
        <ele>636</ele>
        <time>2021-08-06T08:41:04.303Z</time>
      </trkpt>
      <trkpt lat="46.97361" lon="8.77525">
        <ele>635</ele>
        <time>2021-08-06T08:41:05.303Z</time>
      </trkpt>
      <trkpt lat="46.97361" lon="8.77524">
        <ele>635</ele>
        <time>2021-08-06T08:41:06.303Z</time>
      </trkpt>
      <trkpt lat="46.97361" lon="8.77522">
        <ele>635</ele>
        <time>2021-08-06T08:41:07.303Z</time>
      </trkpt>
      <trkpt lat="46.9736" lon="8.7752">
        <ele>634</ele>
        <time>2021-08-06T08:41:08.303Z</time>
      </trkpt>
      <trkpt lat="46.9736" lon="8.77519">
        <ele>634</ele>
        <time>2021-08-06T08:41:09.303Z</time>
      </trkpt>
      <trkpt lat="46.9736" lon="8.77517">
        <ele>634</ele>
        <time>2021-08-06T08:41:10.303Z</time>
      </trkpt>
      <trkpt lat="46.97359" lon="8.77516">
        <ele>633</ele>
        <time>2021-08-06T08:41:11.304Z</time>
      </trkpt>
      <trkpt lat="46.97359" lon="8.77515">
        <ele>633</ele>
        <time>2021-08-06T08:41:12.304Z</time>
      </trkpt>
      <trkpt lat="46.97359" lon="8.77513">
        <ele>633</ele>
        <time>2021-08-06T08:41:13.303Z</time>
      </trkpt>
      <trkpt lat="46.97358" lon="8.77511">
        <ele>632</ele>
        <time>2021-08-06T08:41:14.303Z</time>
      </trkpt>
      <trkpt lat="46.97358" lon="8.77509">
        <ele>632</ele>
        <time>2021-08-06T08:41:15.303Z</time>
      </trkpt>
      <trkpt lat="46.97358" lon="8.77507">
        <ele>633</ele>
        <time>2021-08-06T08:41:16.304Z</time>
      </trkpt>
      <trkpt lat="46.97358" lon="8.77506">
        <ele>633</ele>
        <time>2021-08-06T08:41:17.303Z</time>
      </trkpt>
      <trkpt lat="46.97358" lon="8.77504">
        <ele>633</ele>
        <time>2021-08-06T08:41:18.303Z</time>
      </trkpt>
      <trkpt lat="46.97357" lon="8.77503">
        <ele>633</ele>
        <time>2021-08-06T08:41:19.303Z</time>
      </trkpt>
      <trkpt lat="46.97357" lon="8.77501">
        <ele>634</ele>
        <time>2021-08-06T08:41:20.303Z</time>
      </trkpt>
      <trkpt lat="46.97357" lon="8.77499">
        <ele>634</ele>
        <time>2021-08-06T08:41:21.303Z</time>
      </trkpt>
      <trkpt lat="46.97356" lon="8.77497">
        <ele>634</ele>
        <time>2021-08-06T08:41:22.304Z</time>
      </trkpt>
      <trkpt lat="46.97356" lon="8.77495">
        <ele>635</ele>
        <time>2021-08-06T08:41:23.303Z</time>
      </trkpt>
      <trkpt lat="46.97356" lon="8.77494">
        <ele>635</ele>
        <time>2021-08-06T08:41:24.303Z</time>
      </trkpt>
      <trkpt lat="46.97355" lon="8.77492">
        <ele>635</ele>
        <time>2021-08-06T08:41:25.303Z</time>
      </trkpt>
      <trkpt lat="46.97355" lon="8.77491">
        <ele>636</ele>
        <time>2021-08-06T08:41:26.303Z</time>
      </trkpt>
      <trkpt lat="46.97354" lon="8.77489">
        <ele>636</ele>
        <time>2021-08-06T08:41:27.303Z</time>
      </trkpt>
      <trkpt lat="46.97355" lon="8.77488">
        <ele>636</ele>
        <time>2021-08-06T08:41:28.304Z</time>
      </trkpt>
      <trkpt lat="46.97354" lon="8.77487">
        <ele>636</ele>
        <time>2021-08-06T08:41:29.303Z</time>
      </trkpt>
      <trkpt lat="46.97354" lon="8.77486">
        <ele>636</ele>
        <time>2021-08-06T08:41:30.303Z</time>
      </trkpt>
      <trkpt lat="46.97354" lon="8.77484">
        <ele>636</ele>
        <time>2021-08-06T08:41:31.303Z</time>
      </trkpt>
      <trkpt lat="46.97354" lon="8.77483">
        <ele>636</ele>
        <time>2021-08-06T08:41:32.303Z</time>
      </trkpt>
      <trkpt lat="46.97353" lon="8.77481">
        <ele>636</ele>
        <time>2021-08-06T08:41:33.303Z</time>
      </trkpt>
      <trkpt lat="46.97353" lon="8.77479">
        <ele>636</ele>
        <time>2021-08-06T08:41:34.303Z</time>
      </trkpt>
      <trkpt lat="46.97352" lon="8.77478">
        <ele>636</ele>
        <time>2021-08-06T08:41:35.304Z</time>
      </trkpt>
      <trkpt lat="46.97352" lon="8.77476">
        <ele>636</ele>
        <time>2021-08-06T08:41:36.303Z</time>
      </trkpt>
      <trkpt lat="46.97351" lon="8.77474">
        <ele>636</ele>
        <time>2021-08-06T08:41:37.303Z</time>
      </trkpt>
      <trkpt lat="46.97351" lon="8.77473">
        <ele>636</ele>
        <time>2021-08-06T08:41:38.303Z</time>
      </trkpt>
      <trkpt lat="46.97351" lon="8.77472">
        <ele>636</ele>
        <time>2021-08-06T08:41:39.303Z</time>
      </trkpt>
      <trkpt lat="46.97351" lon="8.77471">
        <ele>636</ele>
        <time>2021-08-06T08:41:40.304Z</time>
      </trkpt>
      <trkpt lat="46.97351" lon="8.7747">
        <ele>636</ele>
        <time>2021-08-06T08:41:41.304Z</time>
      </trkpt>
      <trkpt lat="46.97351" lon="8.77468">
        <ele>636</ele>
        <time>2021-08-06T08:41:42.304Z</time>
      </trkpt>
      <trkpt lat="46.97351" lon="8.77466">
        <ele>635</ele>
        <time>2021-08-06T08:41:43.303Z</time>
      </trkpt>
      <trkpt lat="46.97352" lon="8.77465">
        <ele>634</ele>
        <time>2021-08-06T08:41:44.303Z</time>
      </trkpt>
      <trkpt lat="46.97352" lon="8.77463">
        <ele>634</ele>
        <time>2021-08-06T08:41:45.303Z</time>
      </trkpt>
      <trkpt lat="46.97352" lon="8.77461">
        <ele>634</ele>
        <time>2021-08-06T08:41:46.303Z</time>
      </trkpt>
      <trkpt lat="46.97351" lon="8.7746">
        <ele>634</ele>
        <time>2021-08-06T08:41:47.303Z</time>
      </trkpt>
      <trkpt lat="46.97351" lon="8.77458">
        <ele>634</ele>
        <time>2021-08-06T08:41:48.303Z</time>
      </trkpt>
      <trkpt lat="46.9735" lon="8.77456">
        <ele>634</ele>
        <time>2021-08-06T08:41:49.303Z</time>
      </trkpt>
      <trkpt lat="46.9735" lon="8.77454">
        <ele>634</ele>
        <time>2021-08-06T08:41:50.303Z</time>
      </trkpt>
      <trkpt lat="46.97349" lon="8.77453">
        <ele>634</ele>
        <time>2021-08-06T08:41:51.303Z</time>
      </trkpt>
      <trkpt lat="46.97349" lon="8.77451">
        <ele>634</ele>
        <time>2021-08-06T08:41:52.303Z</time>
      </trkpt>
      <trkpt lat="46.97349" lon="8.7745">
        <ele>635</ele>
        <time>2021-08-06T08:41:53.304Z</time>
      </trkpt>
      <trkpt lat="46.97349" lon="8.77449">
        <ele>635</ele>
        <time>2021-08-06T08:41:54.304Z</time>
      </trkpt>
      <trkpt lat="46.97348" lon="8.77447">
        <ele>635</ele>
        <time>2021-08-06T08:41:55.303Z</time>
      </trkpt>
      <trkpt lat="46.97347" lon="8.77444">
        <ele>635</ele>
        <time>2021-08-06T08:41:56.303Z</time>
      </trkpt>
      <trkpt lat="46.97346" lon="8.77442">
        <ele>635</ele>
        <time>2021-08-06T08:41:57.303Z</time>
      </trkpt>
      <trkpt lat="46.97345" lon="8.77441">
        <ele>635</ele>
        <time>2021-08-06T08:41:58.304Z</time>
      </trkpt>
      <trkpt lat="46.97345" lon="8.77439">
        <ele>635</ele>
        <time>2021-08-06T08:41:59.303Z</time>
      </trkpt>
      <trkpt lat="46.97346" lon="8.77438">
        <ele>635</ele>
        <time>2021-08-06T08:42:00.303Z</time>
      </trkpt>
      <trkpt lat="46.97346" lon="8.77436">
        <ele>635</ele>
        <time>2021-08-06T08:42:01.303Z</time>
      </trkpt>
      <trkpt lat="46.97345" lon="8.77435">
        <ele>635</ele>
        <time>2021-08-06T08:42:02.303Z</time>
      </trkpt>
      <trkpt lat="46.97345" lon="8.77433">
        <ele>636</ele>
        <time>2021-08-06T08:42:03.304Z</time>
      </trkpt>
      <trkpt lat="46.97344" lon="8.77433">
        <ele>636</ele>
        <time>2021-08-06T08:42:04.303Z</time>
      </trkpt>
      <trkpt lat="46.97343" lon="8.77431">
        <ele>636</ele>
        <time>2021-08-06T08:42:05.304Z</time>
      </trkpt>
      <trkpt lat="46.97342" lon="8.7743">
        <ele>635</ele>
        <time>2021-08-06T08:42:06.303Z</time>
      </trkpt>
      <trkpt lat="46.9734" lon="8.7743">
        <ele>635</ele>
        <time>2021-08-06T08:42:07.304Z</time>
      </trkpt>
      <trkpt lat="46.97338" lon="8.77431">
        <ele>635</ele>
        <time>2021-08-06T08:42:08.303Z</time>
      </trkpt>
      <trkpt lat="46.97336" lon="8.77431">
        <ele>635</ele>
        <time>2021-08-06T08:42:09.303Z</time>
      </trkpt>
      <trkpt lat="46.97335" lon="8.77432">
        <ele>634</ele>
        <time>2021-08-06T08:42:10.303Z</time>
      </trkpt>
      <trkpt lat="46.97334" lon="8.77432">
        <ele>634</ele>
        <time>2021-08-06T08:42:11.303Z</time>
      </trkpt>
      <trkpt lat="46.97332" lon="8.77432">
        <ele>634</ele>
        <time>2021-08-06T08:42:12.304Z</time>
      </trkpt>
      <trkpt lat="46.9733" lon="8.77431">
        <ele>633</ele>
        <time>2021-08-06T08:42:13.304Z</time>
      </trkpt>
      <trkpt lat="46.97329" lon="8.7743">
        <ele>633</ele>
        <time>2021-08-06T08:42:14.303Z</time>
      </trkpt>
      <trkpt lat="46.97328" lon="8.77429">
        <ele>633</ele>
        <time>2021-08-06T08:42:15.303Z</time>
      </trkpt>
      <trkpt lat="46.97327" lon="8.77428">
        <ele>633</ele>
        <time>2021-08-06T08:42:16.304Z</time>
      </trkpt>
      <trkpt lat="46.97326" lon="8.77426">
        <ele>633</ele>
        <time>2021-08-06T08:42:17.303Z</time>
      </trkpt>
      <trkpt lat="46.97325" lon="8.77425">
        <ele>634</ele>
        <time>2021-08-06T08:42:18.303Z</time>
      </trkpt>
      <trkpt lat="46.97325" lon="8.77424">
        <ele>634</ele>
        <time>2021-08-06T08:42:19.303Z</time>
      </trkpt>
      <trkpt lat="46.97324" lon="8.77424">
        <ele>634</ele>
        <time>2021-08-06T08:42:20.303Z</time>
      </trkpt>
      <trkpt lat="46.97323" lon="8.77423">
        <ele>634</ele>
        <time>2021-08-06T08:42:21.304Z</time>
      </trkpt>
      <trkpt lat="46.97323" lon="8.77423">
        <ele>634</ele>
        <time>2021-08-06T08:42:22.303Z</time>
      </trkpt>
      <trkpt lat="46.97322" lon="8.77421">
        <ele>634</ele>
        <time>2021-08-06T08:42:23.303Z</time>
      </trkpt>
      <trkpt lat="46.97322" lon="8.7742">
        <ele>633</ele>
        <time>2021-08-06T08:42:24.303Z</time>
      </trkpt>
      <trkpt lat="46.97322" lon="8.77419">
        <ele>633</ele>
        <time>2021-08-06T08:42:25.304Z</time>
      </trkpt>
      <trkpt lat="46.97321" lon="8.77417">
        <ele>634</ele>
        <time>2021-08-06T08:42:26.303Z</time>
      </trkpt>
      <trkpt lat="46.97321" lon="8.77416">
        <ele>634</ele>
        <time>2021-08-06T08:42:27.303Z</time>
      </trkpt>
      <trkpt lat="46.9732" lon="8.77415">
        <ele>635</ele>
        <time>2021-08-06T08:42:28.304Z</time>
      </trkpt>
      <trkpt lat="46.97319" lon="8.77413">
        <ele>635</ele>
        <time>2021-08-06T08:42:29.303Z</time>
      </trkpt>
      <trkpt lat="46.97318" lon="8.77412">
        <ele>635</ele>
        <time>2021-08-06T08:42:30.303Z</time>
      </trkpt>
      <trkpt lat="46.97318" lon="8.7741">
        <ele>635</ele>
        <time>2021-08-06T08:42:31.304Z</time>
      </trkpt>
      <trkpt lat="46.97318" lon="8.77408">
        <ele>635</ele>
        <time>2021-08-06T08:42:32.304Z</time>
      </trkpt>
      <trkpt lat="46.97317" lon="8.77407">
        <ele>635</ele>
        <time>2021-08-06T08:42:33.304Z</time>
      </trkpt>
      <trkpt lat="46.97317" lon="8.77406">
        <ele>635</ele>
        <time>2021-08-06T08:42:34.303Z</time>
      </trkpt>
      <trkpt lat="46.97315" lon="8.77405">
        <ele>635</ele>
        <time>2021-08-06T08:42:35.304Z</time>
      </trkpt>
      <trkpt lat="46.97314" lon="8.77404">
        <ele>635</ele>
        <time>2021-08-06T08:42:36.303Z</time>
      </trkpt>
      <trkpt lat="46.97313" lon="8.77401">
        <ele>635</ele>
        <time>2021-08-06T08:42:37.303Z</time>
      </trkpt>
      <trkpt lat="46.97312" lon="8.774">
        <ele>635</ele>
        <time>2021-08-06T08:42:38.303Z</time>
      </trkpt>
      <trkpt lat="46.97312" lon="8.77398">
        <ele>635</ele>
        <time>2021-08-06T08:42:39.304Z</time>
      </trkpt>
      <trkpt lat="46.97311" lon="8.77397">
        <ele>635</ele>
        <time>2021-08-06T08:42:40.304Z</time>
      </trkpt>
      <trkpt lat="46.97311" lon="8.77396">
        <ele>635</ele>
        <time>2021-08-06T08:42:41.303Z</time>
      </trkpt>
      <trkpt lat="46.9731" lon="8.77394">
        <ele>636</ele>
        <time>2021-08-06T08:42:42.303Z</time>
      </trkpt>
      <trkpt lat="46.9731" lon="8.77393">
        <ele>636</ele>
        <time>2021-08-06T08:42:43.304Z</time>
      </trkpt>
      <trkpt lat="46.97309" lon="8.77391">
        <ele>636</ele>
        <time>2021-08-06T08:42:44.304Z</time>
      </trkpt>
      <trkpt lat="46.97309" lon="8.7739">
        <ele>636</ele>
        <time>2021-08-06T08:42:45.303Z</time>
      </trkpt>
      <trkpt lat="46.97309" lon="8.77389">
        <ele>636</ele>
        <time>2021-08-06T08:42:46.303Z</time>
      </trkpt>
      <trkpt lat="46.97309" lon="8.77387">
        <ele>636</ele>
        <time>2021-08-06T08:42:47.304Z</time>
      </trkpt>
      <trkpt lat="46.97308" lon="8.77386">
        <ele>636</ele>
        <time>2021-08-06T08:42:48.304Z</time>
      </trkpt>
      <trkpt lat="46.97308" lon="8.77385">
        <ele>635</ele>
        <time>2021-08-06T08:42:49.303Z</time>
      </trkpt>
      <trkpt lat="46.97308" lon="8.77383">
        <ele>635</ele>
        <time>2021-08-06T08:42:50.303Z</time>
      </trkpt>
      <trkpt lat="46.97309" lon="8.77382">
        <ele>634</ele>
        <time>2021-08-06T08:42:51.303Z</time>
      </trkpt>
      <trkpt lat="46.97309" lon="8.77381">
        <ele>634</ele>
        <time>2021-08-06T08:42:52.304Z</time>
      </trkpt>
      <trkpt lat="46.9731" lon="8.77379">
        <ele>634</ele>
        <time>2021-08-06T08:42:53.303Z</time>
      </trkpt>
      <trkpt lat="46.9731" lon="8.77377">
        <ele>634</ele>
        <time>2021-08-06T08:42:54.303Z</time>
      </trkpt>
      <trkpt lat="46.97311" lon="8.77375">
        <ele>634</ele>
        <time>2021-08-06T08:42:55.303Z</time>
      </trkpt>
      <trkpt lat="46.97311" lon="8.77373">
        <ele>634</ele>
        <time>2021-08-06T08:42:56.303Z</time>
      </trkpt>
      <trkpt lat="46.97311" lon="8.77371">
        <ele>635</ele>
        <time>2021-08-06T08:42:57.303Z</time>
      </trkpt>
      <trkpt lat="46.9731" lon="8.7737">
        <ele>635</ele>
        <time>2021-08-06T08:42:58.303Z</time>
      </trkpt>
      <trkpt lat="46.9731" lon="8.77369">
        <ele>635</ele>
        <time>2021-08-06T08:42:59.303Z</time>
      </trkpt>
      <trkpt lat="46.97309" lon="8.77368">
        <ele>635</ele>
        <time>2021-08-06T08:43:00.303Z</time>
      </trkpt>
      <trkpt lat="46.97309" lon="8.77366">
        <ele>635</ele>
        <time>2021-08-06T08:43:01.303Z</time>
      </trkpt>
      <trkpt lat="46.97309" lon="8.77365">
        <ele>635</ele>
        <time>2021-08-06T08:43:02.303Z</time>
      </trkpt>
      <trkpt lat="46.97308" lon="8.77364">
        <ele>634</ele>
        <time>2021-08-06T08:43:03.303Z</time>
      </trkpt>
      <trkpt lat="46.97308" lon="8.77363">
        <ele>634</ele>
        <time>2021-08-06T08:43:04.303Z</time>
      </trkpt>
      <trkpt lat="46.97307" lon="8.77361">
        <ele>633</ele>
        <time>2021-08-06T08:43:05.303Z</time>
      </trkpt>
      <trkpt lat="46.97307" lon="8.77359">
        <ele>633</ele>
        <time>2021-08-06T08:43:06.304Z</time>
      </trkpt>
      <trkpt lat="46.97306" lon="8.77358">
        <ele>633</ele>
        <time>2021-08-06T08:43:07.304Z</time>
      </trkpt>
      <trkpt lat="46.97306" lon="8.77357">
        <ele>633</ele>
        <time>2021-08-06T08:43:08.303Z</time>
      </trkpt>
      <trkpt lat="46.97306" lon="8.77355">
        <ele>633</ele>
        <time>2021-08-06T08:43:09.304Z</time>
      </trkpt>
      <trkpt lat="46.97305" lon="8.77353">
        <ele>633</ele>
        <time>2021-08-06T08:43:10.303Z</time>
      </trkpt>
      <trkpt lat="46.97305" lon="8.77352">
        <ele>633</ele>
        <time>2021-08-06T08:43:11.304Z</time>
      </trkpt>
      <trkpt lat="46.97304" lon="8.7735">
        <ele>633</ele>
        <time>2021-08-06T08:43:12.303Z</time>
      </trkpt>
      <trkpt lat="46.97304" lon="8.77349">
        <ele>633</ele>
        <time>2021-08-06T08:43:13.304Z</time>
      </trkpt>
      <trkpt lat="46.97303" lon="8.77347">
        <ele>633</ele>
        <time>2021-08-06T08:43:14.303Z</time>
      </trkpt>
      <trkpt lat="46.97302" lon="8.77346">
        <ele>633</ele>
        <time>2021-08-06T08:43:15.303Z</time>
      </trkpt>
      <trkpt lat="46.97301" lon="8.77344">
        <ele>633</ele>
        <time>2021-08-06T08:43:16.304Z</time>
      </trkpt>
      <trkpt lat="46.973" lon="8.77342">
        <ele>633</ele>
        <time>2021-08-06T08:43:17.303Z</time>
      </trkpt>
      <trkpt lat="46.97299" lon="8.7734">
        <ele>633</ele>
        <time>2021-08-06T08:43:18.303Z</time>
      </trkpt>
      <trkpt lat="46.97299" lon="8.77338">
        <ele>632</ele>
        <time>2021-08-06T08:43:19.303Z</time>
      </trkpt>
      <trkpt lat="46.97298" lon="8.77336">
        <ele>632</ele>
        <time>2021-08-06T08:43:20.303Z</time>
      </trkpt>
      <trkpt lat="46.97298" lon="8.77335">
        <ele>631</ele>
        <time>2021-08-06T08:43:21.303Z</time>
      </trkpt>
      <trkpt lat="46.97298" lon="8.77334">
        <ele>631</ele>
        <time>2021-08-06T08:43:22.303Z</time>
      </trkpt>
      <trkpt lat="46.97298" lon="8.77332">
        <ele>631</ele>
        <time>2021-08-06T08:43:23.303Z</time>
      </trkpt>
      <trkpt lat="46.97298" lon="8.7733">
        <ele>631</ele>
        <time>2021-08-06T08:43:24.303Z</time>
      </trkpt>
      <trkpt lat="46.97297" lon="8.77328">
        <ele>632</ele>
        <time>2021-08-06T08:43:25.303Z</time>
      </trkpt>
      <trkpt lat="46.97297" lon="8.77327">
        <ele>632</ele>
        <time>2021-08-06T08:43:26.303Z</time>
      </trkpt>
      <trkpt lat="46.97296" lon="8.77325">
        <ele>632</ele>
        <time>2021-08-06T08:43:27.303Z</time>
      </trkpt>
      <trkpt lat="46.97295" lon="8.77324">
        <ele>632</ele>
        <time>2021-08-06T08:43:28.303Z</time>
      </trkpt>
      <trkpt lat="46.97294" lon="8.77322">
        <ele>631</ele>
        <time>2021-08-06T08:43:29.303Z</time>
      </trkpt>
      <trkpt lat="46.97293" lon="8.77321">
        <ele>631</ele>
        <time>2021-08-06T08:43:30.303Z</time>
      </trkpt>
      <trkpt lat="46.97292" lon="8.7732">
        <ele>630</ele>
        <time>2021-08-06T08:43:31.303Z</time>
      </trkpt>
      <trkpt lat="46.97291" lon="8.77319">
        <ele>630</ele>
        <time>2021-08-06T08:43:32.303Z</time>
      </trkpt>
      <trkpt lat="46.97291" lon="8.77317">
        <ele>630</ele>
        <time>2021-08-06T08:43:33.303Z</time>
      </trkpt>
      <trkpt lat="46.9729" lon="8.77316">
        <ele>629</ele>
        <time>2021-08-06T08:43:34.304Z</time>
      </trkpt>
      <trkpt lat="46.97289" lon="8.77315">
        <ele>629</ele>
        <time>2021-08-06T08:43:35.303Z</time>
      </trkpt>
      <trkpt lat="46.97288" lon="8.77313">
        <ele>628</ele>
        <time>2021-08-06T08:43:36.303Z</time>
      </trkpt>
      <trkpt lat="46.97287" lon="8.77312">
        <ele>628</ele>
        <time>2021-08-06T08:43:37.303Z</time>
      </trkpt>
      <trkpt lat="46.97286" lon="8.7731">
        <ele>628</ele>
        <time>2021-08-06T08:43:38.303Z</time>
      </trkpt>
      <trkpt lat="46.97286" lon="8.77308">
        <ele>628</ele>
        <time>2021-08-06T08:43:39.303Z</time>
      </trkpt>
      <trkpt lat="46.97285" lon="8.77306">
        <ele>628</ele>
        <time>2021-08-06T08:43:40.303Z</time>
      </trkpt>
      <trkpt lat="46.97284" lon="8.77305">
        <ele>629</ele>
        <time>2021-08-06T08:43:41.303Z</time>
      </trkpt>
      <trkpt lat="46.97283" lon="8.77304">
        <ele>629</ele>
        <time>2021-08-06T08:43:42.303Z</time>
      </trkpt>
      <trkpt lat="46.97283" lon="8.77302">
        <ele>629</ele>
        <time>2021-08-06T08:43:43.303Z</time>
      </trkpt>
      <trkpt lat="46.97282" lon="8.77301">
        <ele>630</ele>
        <time>2021-08-06T08:43:44.303Z</time>
      </trkpt>
      <trkpt lat="46.97282" lon="8.773">
        <ele>630</ele>
        <time>2021-08-06T08:43:45.303Z</time>
      </trkpt>
      <trkpt lat="46.97282" lon="8.77299">
        <ele>630</ele>
        <time>2021-08-06T08:43:46.303Z</time>
      </trkpt>
      <trkpt lat="46.97281" lon="8.77297">
        <ele>631</ele>
        <time>2021-08-06T08:43:47.303Z</time>
      </trkpt>
      <trkpt lat="46.97281" lon="8.77296">
        <ele>631</ele>
        <time>2021-08-06T08:43:48.303Z</time>
      </trkpt>
      <trkpt lat="46.9728" lon="8.77295">
        <ele>631</ele>
        <time>2021-08-06T08:43:49.303Z</time>
      </trkpt>
      <trkpt lat="46.9728" lon="8.77295">
        <ele>632</ele>
        <time>2021-08-06T08:43:50.303Z</time>
      </trkpt>
      <trkpt lat="46.9728" lon="8.77291">
        <ele>631</ele>
        <time>2021-08-06T08:43:51.305Z</time>
      </trkpt>
      <trkpt lat="46.9728" lon="8.77289">
        <ele>630</ele>
        <time>2021-08-06T08:43:52.305Z</time>
      </trkpt>
      <trkpt lat="46.97279" lon="8.77288">
        <ele>630</ele>
        <time>2021-08-06T08:43:53.304Z</time>
      </trkpt>
      <trkpt lat="46.97279" lon="8.77287">
        <ele>630</ele>
        <time>2021-08-06T08:43:54.305Z</time>
      </trkpt>
      <trkpt lat="46.97279" lon="8.77287">
        <ele>630</ele>
        <time>2021-08-06T08:43:55.305Z</time>
      </trkpt>
      <trkpt lat="46.97278" lon="8.77286">
        <ele>630</ele>
        <time>2021-08-06T08:43:56.305Z</time>
      </trkpt>
      <trkpt lat="46.97278" lon="8.77285">
        <ele>629</ele>
        <time>2021-08-06T08:43:57.305Z</time>
      </trkpt>
      <trkpt lat="46.97277" lon="8.77283">
        <ele>629</ele>
        <time>2021-08-06T08:43:58.305Z</time>
      </trkpt>
      <trkpt lat="46.97276" lon="8.77282">
        <ele>628</ele>
        <time>2021-08-06T08:43:59.305Z</time>
      </trkpt>
      <trkpt lat="46.97276" lon="8.77281">
        <ele>628</ele>
        <time>2021-08-06T08:44:00.305Z</time>
      </trkpt>
      <trkpt lat="46.97276" lon="8.7728">
        <ele>628</ele>
        <time>2021-08-06T08:44:01.304Z</time>
      </trkpt>
      <trkpt lat="46.97275" lon="8.77279">
        <ele>629</ele>
        <time>2021-08-06T08:44:02.304Z</time>
      </trkpt>
      <trkpt lat="46.97275" lon="8.77278">
        <ele>629</ele>
        <time>2021-08-06T08:44:03.305Z</time>
      </trkpt>
      <trkpt lat="46.97274" lon="8.77276">
        <ele>630</ele>
        <time>2021-08-06T08:44:04.305Z</time>
      </trkpt>
      <trkpt lat="46.97274" lon="8.77275">
        <ele>630</ele>
        <time>2021-08-06T08:44:05.305Z</time>
      </trkpt>
      <trkpt lat="46.97273" lon="8.77273">
        <ele>631</ele>
        <time>2021-08-06T08:44:06.304Z</time>
      </trkpt>
      <trkpt lat="46.97273" lon="8.77271">
        <ele>631</ele>
        <time>2021-08-06T08:44:07.304Z</time>
      </trkpt>
      <trkpt lat="46.97272" lon="8.7727">
        <ele>631</ele>
        <time>2021-08-06T08:44:08.304Z</time>
      </trkpt>
      <trkpt lat="46.97271" lon="8.77268">
        <ele>631</ele>
        <time>2021-08-06T08:44:09.304Z</time>
      </trkpt>
      <trkpt lat="46.97271" lon="8.77266">
        <ele>631</ele>
        <time>2021-08-06T08:44:10.304Z</time>
      </trkpt>
      <trkpt lat="46.9727" lon="8.77265">
        <ele>632</ele>
        <time>2021-08-06T08:44:11.305Z</time>
      </trkpt>
      <trkpt lat="46.9727" lon="8.77264">
        <ele>632</ele>
        <time>2021-08-06T08:44:12.305Z</time>
      </trkpt>
      <trkpt lat="46.9727" lon="8.77262">
        <ele>632</ele>
        <time>2021-08-06T08:44:13.304Z</time>
      </trkpt>
      <trkpt lat="46.9727" lon="8.7726">
        <ele>633</ele>
        <time>2021-08-06T08:44:14.305Z</time>
      </trkpt>
      <trkpt lat="46.9727" lon="8.77259">
        <ele>633</ele>
        <time>2021-08-06T08:44:15.304Z</time>
      </trkpt>
      <trkpt lat="46.97269" lon="8.77259">
        <ele>633</ele>
        <time>2021-08-06T08:44:16.304Z</time>
      </trkpt>
      <trkpt lat="46.97269" lon="8.77258">
        <ele>633</ele>
        <time>2021-08-06T08:44:17.305Z</time>
      </trkpt>
      <trkpt lat="46.97268" lon="8.77257">
        <ele>633</ele>
        <time>2021-08-06T08:44:18.305Z</time>
      </trkpt>
      <trkpt lat="46.97267" lon="8.77256">
        <ele>633</ele>
        <time>2021-08-06T08:44:19.305Z</time>
      </trkpt>
      <trkpt lat="46.97267" lon="8.77254">
        <ele>633</ele>
        <time>2021-08-06T08:44:20.305Z</time>
      </trkpt>
      <trkpt lat="46.97268" lon="8.77253">
        <ele>633</ele>
        <time>2021-08-06T08:44:21.305Z</time>
      </trkpt>
      <trkpt lat="46.97268" lon="8.77252">
        <ele>633</ele>
        <time>2021-08-06T08:44:22.304Z</time>
      </trkpt>
      <trkpt lat="46.97268" lon="8.77249">
        <ele>633</ele>
        <time>2021-08-06T08:44:23.304Z</time>
      </trkpt>
      <trkpt lat="46.97267" lon="8.77247">
        <ele>632</ele>
        <time>2021-08-06T08:44:24.305Z</time>
      </trkpt>
      <trkpt lat="46.97267" lon="8.77246">
        <ele>632</ele>
        <time>2021-08-06T08:44:25.305Z</time>
      </trkpt>
      <trkpt lat="46.97266" lon="8.77244">
        <ele>632</ele>
        <time>2021-08-06T08:44:26.305Z</time>
      </trkpt>
      <trkpt lat="46.97266" lon="8.77242">
        <ele>632</ele>
        <time>2021-08-06T08:44:27.305Z</time>
      </trkpt>
      <trkpt lat="46.97265" lon="8.7724">
        <ele>632</ele>
        <time>2021-08-06T08:44:28.305Z</time>
      </trkpt>
      <trkpt lat="46.97264" lon="8.77239">
        <ele>631</ele>
        <time>2021-08-06T08:44:29.305Z</time>
      </trkpt>
      <trkpt lat="46.97263" lon="8.77239">
        <ele>631</ele>
        <time>2021-08-06T08:44:30.305Z</time>
      </trkpt>
      <trkpt lat="46.97263" lon="8.77238">
        <ele>631</ele>
        <time>2021-08-06T08:44:31.305Z</time>
      </trkpt>
      <trkpt lat="46.97262" lon="8.77236">
        <ele>631</ele>
        <time>2021-08-06T08:44:32.305Z</time>
      </trkpt>
      <trkpt lat="46.97262" lon="8.77235">
        <ele>631</ele>
        <time>2021-08-06T08:44:33.304Z</time>
      </trkpt>
      <trkpt lat="46.97261" lon="8.77234">
        <ele>630</ele>
        <time>2021-08-06T08:44:34.305Z</time>
      </trkpt>
      <trkpt lat="46.97261" lon="8.77232">
        <ele>631</ele>
        <time>2021-08-06T08:44:35.304Z</time>
      </trkpt>
      <trkpt lat="46.9726" lon="8.77231">
        <ele>631</ele>
        <time>2021-08-06T08:44:36.305Z</time>
      </trkpt>
      <trkpt lat="46.97259" lon="8.77229">
        <ele>631</ele>
        <time>2021-08-06T08:44:37.304Z</time>
      </trkpt>
      <trkpt lat="46.97259" lon="8.77228">
        <ele>630</ele>
        <time>2021-08-06T08:44:38.304Z</time>
      </trkpt>
      <trkpt lat="46.97258" lon="8.77226">
        <ele>630</ele>
        <time>2021-08-06T08:44:39.304Z</time>
      </trkpt>
      <trkpt lat="46.97257" lon="8.77225">
        <ele>630</ele>
        <time>2021-08-06T08:44:40.305Z</time>
      </trkpt>
      <trkpt lat="46.97256" lon="8.77222">
        <ele>630</ele>
        <time>2021-08-06T08:44:41.304Z</time>
      </trkpt>
      <trkpt lat="46.97255" lon="8.7722">
        <ele>630</ele>
        <time>2021-08-06T08:44:42.305Z</time>
      </trkpt>
      <trkpt lat="46.97254" lon="8.77218">
        <ele>630</ele>
        <time>2021-08-06T08:44:43.305Z</time>
      </trkpt>
      <trkpt lat="46.97254" lon="8.77216">
        <ele>630</ele>
        <time>2021-08-06T08:44:44.304Z</time>
      </trkpt>
      <trkpt lat="46.97253" lon="8.77215">
        <ele>630</ele>
        <time>2021-08-06T08:44:45.305Z</time>
      </trkpt>
      <trkpt lat="46.97253" lon="8.77214">
        <ele>630</ele>
        <time>2021-08-06T08:44:46.305Z</time>
      </trkpt>
      <trkpt lat="46.97252" lon="8.77213">
        <ele>631</ele>
        <time>2021-08-06T08:44:47.305Z</time>
      </trkpt>
      <trkpt lat="46.97251" lon="8.77211">
        <ele>631</ele>
        <time>2021-08-06T08:44:48.304Z</time>
      </trkpt>
      <trkpt lat="46.97251" lon="8.7721">
        <ele>631</ele>
        <time>2021-08-06T08:44:49.304Z</time>
      </trkpt>
      <trkpt lat="46.9725" lon="8.77208">
        <ele>631</ele>
        <time>2021-08-06T08:44:50.305Z</time>
      </trkpt>
      <trkpt lat="46.9725" lon="8.77207">
        <ele>631</ele>
        <time>2021-08-06T08:44:51.304Z</time>
      </trkpt>
      <trkpt lat="46.97249" lon="8.77206">
        <ele>631</ele>
        <time>2021-08-06T08:44:52.305Z</time>
      </trkpt>
      <trkpt lat="46.97249" lon="8.77205">
        <ele>631</ele>
        <time>2021-08-06T08:44:53.305Z</time>
      </trkpt>
      <trkpt lat="46.97249" lon="8.77203">
        <ele>631</ele>
        <time>2021-08-06T08:44:54.305Z</time>
      </trkpt>
      <trkpt lat="46.97249" lon="8.77202">
        <ele>631</ele>
        <time>2021-08-06T08:44:55.305Z</time>
      </trkpt>
      <trkpt lat="46.97249" lon="8.772">
        <ele>631</ele>
        <time>2021-08-06T08:44:56.304Z</time>
      </trkpt>
      <trkpt lat="46.97249" lon="8.77199">
        <ele>631</ele>
        <time>2021-08-06T08:44:57.305Z</time>
      </trkpt>
      <trkpt lat="46.97247" lon="8.77198">
        <ele>631</ele>
        <time>2021-08-06T08:44:58.305Z</time>
      </trkpt>
      <trkpt lat="46.97247" lon="8.77198">
        <ele>631</ele>
        <time>2021-08-06T08:44:59.305Z</time>
      </trkpt>
      <trkpt lat="46.97246" lon="8.77198">
        <ele>631</ele>
        <time>2021-08-06T08:45:00.305Z</time>
      </trkpt>
      <trkpt lat="46.97246" lon="8.77198">
        <ele>631</ele>
        <time>2021-08-06T08:45:01.305Z</time>
      </trkpt>
      <trkpt lat="46.97246" lon="8.77197">
        <ele>630</ele>
        <time>2021-08-06T08:45:02.305Z</time>
      </trkpt>
      <trkpt lat="46.97246" lon="8.77197">
        <ele>630</ele>
        <time>2021-08-06T08:45:03.305Z</time>
      </trkpt>
      <trkpt lat="46.97245" lon="8.77195">
        <ele>631</ele>
        <time>2021-08-06T08:45:04.304Z</time>
      </trkpt>
      <trkpt lat="46.97245" lon="8.77194">
        <ele>631</ele>
        <time>2021-08-06T08:45:05.305Z</time>
      </trkpt>
      <trkpt lat="46.97244" lon="8.77194">
        <ele>631</ele>
        <time>2021-08-06T08:45:06.304Z</time>
      </trkpt>
      <trkpt lat="46.97244" lon="8.77193">
        <ele>631</ele>
        <time>2021-08-06T08:45:07.305Z</time>
      </trkpt>
      <trkpt lat="46.97243" lon="8.77191">
        <ele>631</ele>
        <time>2021-08-06T08:45:08.305Z</time>
      </trkpt>
      <trkpt lat="46.97243" lon="8.7719">
        <ele>631</ele>
        <time>2021-08-06T08:45:09.305Z</time>
      </trkpt>
      <trkpt lat="46.97243" lon="8.77191">
        <ele>631</ele>
        <time>2021-08-06T08:45:10.305Z</time>
      </trkpt>
      <trkpt lat="46.97243" lon="8.77192">
        <ele>631</ele>
        <time>2021-08-06T08:45:11.304Z</time>
      </trkpt>
      <trkpt lat="46.97243" lon="8.77194">
        <ele>631</ele>
        <time>2021-08-06T08:45:12.305Z</time>
      </trkpt>
      <trkpt lat="46.97244" lon="8.77195">
        <ele>631</ele>
        <time>2021-08-06T08:45:13.304Z</time>
      </trkpt>
      <trkpt lat="46.97244" lon="8.77196">
        <ele>632</ele>
        <time>2021-08-06T08:45:14.305Z</time>
      </trkpt>
      <trkpt lat="46.97245" lon="8.77197">
        <ele>632</ele>
        <time>2021-08-06T08:45:15.305Z</time>
      </trkpt>
      <trkpt lat="46.97245" lon="8.77198">
        <ele>633</ele>
        <time>2021-08-06T08:45:16.305Z</time>
      </trkpt>
      <trkpt lat="46.97245" lon="8.772">
        <ele>633</ele>
        <time>2021-08-06T08:45:17.305Z</time>
      </trkpt>
      <trkpt lat="46.97244" lon="8.77202">
        <ele>633</ele>
        <time>2021-08-06T08:45:18.305Z</time>
      </trkpt>
      <trkpt lat="46.97244" lon="8.77204">
        <ele>633</ele>
        <time>2021-08-06T08:45:19.305Z</time>
      </trkpt>
      <trkpt lat="46.97244" lon="8.77205">
        <ele>633</ele>
        <time>2021-08-06T08:45:20.304Z</time>
      </trkpt>
      <trkpt lat="46.97243" lon="8.77206">
        <ele>633</ele>
        <time>2021-08-06T08:45:21.305Z</time>
      </trkpt>
      <trkpt lat="46.97242" lon="8.77207">
        <ele>633</ele>
        <time>2021-08-06T08:45:22.305Z</time>
      </trkpt>
      <trkpt lat="46.97241" lon="8.77207">
        <ele>632</ele>
        <time>2021-08-06T08:45:23.305Z</time>
      </trkpt>
      <trkpt lat="46.9724" lon="8.77207">
        <ele>632</ele>
        <time>2021-08-06T08:45:24.304Z</time>
      </trkpt>
      <trkpt lat="46.97239" lon="8.77207">
        <ele>632</ele>
        <time>2021-08-06T08:45:25.305Z</time>
      </trkpt>
      <trkpt lat="46.97239" lon="8.77207">
        <ele>632</ele>
        <time>2021-08-06T08:45:26.305Z</time>
      </trkpt>
      <trkpt lat="46.97238" lon="8.77208">
        <ele>632</ele>
        <time>2021-08-06T08:45:27.304Z</time>
      </trkpt>
      <trkpt lat="46.97237" lon="8.77208">
        <ele>631</ele>
        <time>2021-08-06T08:45:28.305Z</time>
      </trkpt>
      <trkpt lat="46.97236" lon="8.77208">
        <ele>631</ele>
        <time>2021-08-06T08:45:29.305Z</time>
      </trkpt>
      <trkpt lat="46.97235" lon="8.77208">
        <ele>630</ele>
        <time>2021-08-06T08:45:30.305Z</time>
      </trkpt>
      <trkpt lat="46.97234" lon="8.77208">
        <ele>630</ele>
        <time>2021-08-06T08:45:31.305Z</time>
      </trkpt>
      <trkpt lat="46.97233" lon="8.77208">
        <ele>630</ele>
        <time>2021-08-06T08:45:32.305Z</time>
      </trkpt>
      <trkpt lat="46.97232" lon="8.77208">
        <ele>630</ele>
        <time>2021-08-06T08:45:33.305Z</time>
      </trkpt>
      <trkpt lat="46.9723" lon="8.77209">
        <ele>630</ele>
        <time>2021-08-06T08:45:34.305Z</time>
      </trkpt>
      <trkpt lat="46.97229" lon="8.77209">
        <ele>630</ele>
        <time>2021-08-06T08:45:35.305Z</time>
      </trkpt>
      <trkpt lat="46.97228" lon="8.7721">
        <ele>630</ele>
        <time>2021-08-06T08:45:36.305Z</time>
      </trkpt>
      <trkpt lat="46.97226" lon="8.7721">
        <ele>630</ele>
        <time>2021-08-06T08:45:37.305Z</time>
      </trkpt>
      <trkpt lat="46.97225" lon="8.77211">
        <ele>630</ele>
        <time>2021-08-06T08:45:38.305Z</time>
      </trkpt>
      <trkpt lat="46.97225" lon="8.77211">
        <ele>630</ele>
        <time>2021-08-06T08:45:39.304Z</time>
      </trkpt>
      <trkpt lat="46.97224" lon="8.7721">
        <ele>630</ele>
        <time>2021-08-06T08:45:40.304Z</time>
      </trkpt>
      <trkpt lat="46.97223" lon="8.77211">
        <ele>629</ele>
        <time>2021-08-06T08:45:41.304Z</time>
      </trkpt>
      <trkpt lat="46.97221" lon="8.77211">
        <ele>629</ele>
        <time>2021-08-06T08:45:42.305Z</time>
      </trkpt>
      <trkpt lat="46.9722" lon="8.7721">
        <ele>629</ele>
        <time>2021-08-06T08:45:43.304Z</time>
      </trkpt>
      <trkpt lat="46.97219" lon="8.77211">
        <ele>629</ele>
        <time>2021-08-06T08:45:44.304Z</time>
      </trkpt>
      <trkpt lat="46.97217" lon="8.77211">
        <ele>630</ele>
        <time>2021-08-06T08:45:45.305Z</time>
      </trkpt>
      <trkpt lat="46.97216" lon="8.77211">
        <ele>630</ele>
        <time>2021-08-06T08:45:46.305Z</time>
      </trkpt>
      <trkpt lat="46.97215" lon="8.77211">
        <ele>630</ele>
        <time>2021-08-06T08:45:47.305Z</time>
      </trkpt>
      <trkpt lat="46.97214" lon="8.77211">
        <ele>630</ele>
        <time>2021-08-06T08:45:48.305Z</time>
      </trkpt>
      <trkpt lat="46.97212" lon="8.77211">
        <ele>631</ele>
        <time>2021-08-06T08:45:49.305Z</time>
      </trkpt>
      <trkpt lat="46.97211" lon="8.77212">
        <ele>631</ele>
        <time>2021-08-06T08:45:50.305Z</time>
      </trkpt>
      <trkpt lat="46.97209" lon="8.77212">
        <ele>631</ele>
        <time>2021-08-06T08:45:51.305Z</time>
      </trkpt>
      <trkpt lat="46.97208" lon="8.77213">
        <ele>631</ele>
        <time>2021-08-06T08:45:52.304Z</time>
      </trkpt>
      <trkpt lat="46.97207" lon="8.77213">
        <ele>631</ele>
        <time>2021-08-06T08:45:53.304Z</time>
      </trkpt>
      <trkpt lat="46.97206" lon="8.77213">
        <ele>631</ele>
        <time>2021-08-06T08:45:54.304Z</time>
      </trkpt>
      <trkpt lat="46.97205" lon="8.77213">
        <ele>631</ele>
        <time>2021-08-06T08:45:55.305Z</time>
      </trkpt>
      <trkpt lat="46.97203" lon="8.77213">
        <ele>631</ele>
        <time>2021-08-06T08:45:56.305Z</time>
      </trkpt>
      <trkpt lat="46.97202" lon="8.77213">
        <ele>632</ele>
        <time>2021-08-06T08:45:57.304Z</time>
      </trkpt>
      <trkpt lat="46.972" lon="8.77212">
        <ele>632</ele>
        <time>2021-08-06T08:45:58.305Z</time>
      </trkpt>
      <trkpt lat="46.97199" lon="8.77212">
        <ele>633</ele>
        <time>2021-08-06T08:45:59.304Z</time>
      </trkpt>
      <trkpt lat="46.97197" lon="8.77212">
        <ele>633</ele>
        <time>2021-08-06T08:46:00.305Z</time>
      </trkpt>
      <trkpt lat="46.97196" lon="8.77212">
        <ele>633</ele>
        <time>2021-08-06T08:46:01.305Z</time>
      </trkpt>
      <trkpt lat="46.97195" lon="8.77211">
        <ele>634</ele>
        <time>2021-08-06T08:46:02.305Z</time>
      </trkpt>
      <trkpt lat="46.97193" lon="8.77211">
        <ele>634</ele>
        <time>2021-08-06T08:46:03.305Z</time>
      </trkpt>
      <trkpt lat="46.97192" lon="8.77211">
        <ele>634</ele>
        <time>2021-08-06T08:46:04.304Z</time>
      </trkpt>
      <trkpt lat="46.97191" lon="8.77211">
        <ele>634</ele>
        <time>2021-08-06T08:46:05.304Z</time>
      </trkpt>
      <trkpt lat="46.97189" lon="8.7721">
        <ele>634</ele>
        <time>2021-08-06T08:46:06.304Z</time>
      </trkpt>
      <trkpt lat="46.97188" lon="8.7721">
        <ele>634</ele>
        <time>2021-08-06T08:46:07.304Z</time>
      </trkpt>
      <trkpt lat="46.97187" lon="8.7721">
        <ele>634</ele>
        <time>2021-08-06T08:46:08.305Z</time>
      </trkpt>
      <trkpt lat="46.97186" lon="8.7721">
        <ele>634</ele>
        <time>2021-08-06T08:46:09.305Z</time>
      </trkpt>
      <trkpt lat="46.97185" lon="8.7721">
        <ele>634</ele>
        <time>2021-08-06T08:46:10.304Z</time>
      </trkpt>
      <trkpt lat="46.97185" lon="8.7721">
        <ele>634</ele>
        <time>2021-08-06T08:46:11.304Z</time>
      </trkpt>
      <trkpt lat="46.97184" lon="8.77209">
        <ele>635</ele>
        <time>2021-08-06T08:46:12.305Z</time>
      </trkpt>
      <trkpt lat="46.97183" lon="8.77209">
        <ele>635</ele>
        <time>2021-08-06T08:46:13.305Z</time>
      </trkpt>
      <trkpt lat="46.97182" lon="8.77208">
        <ele>635</ele>
        <time>2021-08-06T08:46:14.305Z</time>
      </trkpt>
      <trkpt lat="46.9718" lon="8.77208">
        <ele>635</ele>
        <time>2021-08-06T08:46:15.304Z</time>
      </trkpt>
      <trkpt lat="46.97179" lon="8.77209">
        <ele>635</ele>
        <time>2021-08-06T08:46:16.304Z</time>
      </trkpt>
      <trkpt lat="46.97178" lon="8.77209">
        <ele>635</ele>
        <time>2021-08-06T08:46:17.305Z</time>
      </trkpt>
      <trkpt lat="46.97177" lon="8.77209">
        <ele>635</ele>
        <time>2021-08-06T08:46:18.304Z</time>
      </trkpt>
      <trkpt lat="46.97177" lon="8.77209">
        <ele>634</ele>
        <time>2021-08-06T08:46:19.305Z</time>
      </trkpt>
      <trkpt lat="46.97176" lon="8.7721">
        <ele>634</ele>
        <time>2021-08-06T08:46:20.304Z</time>
      </trkpt>
      <trkpt lat="46.97175" lon="8.77211">
        <ele>634</ele>
        <time>2021-08-06T08:46:21.304Z</time>
      </trkpt>
      <trkpt lat="46.97174" lon="8.77211">
        <ele>634</ele>
        <time>2021-08-06T08:46:22.304Z</time>
      </trkpt>
      <trkpt lat="46.97173" lon="8.77212">
        <ele>635</ele>
        <time>2021-08-06T08:46:23.305Z</time>
      </trkpt>
      <trkpt lat="46.97172" lon="8.77211">
        <ele>635</ele>
        <time>2021-08-06T08:46:24.305Z</time>
      </trkpt>
      <trkpt lat="46.97172" lon="8.7721">
        <ele>635</ele>
        <time>2021-08-06T08:46:25.304Z</time>
      </trkpt>
      <trkpt lat="46.97171" lon="8.77209">
        <ele>634</ele>
        <time>2021-08-06T08:46:26.304Z</time>
      </trkpt>
      <trkpt lat="46.97171" lon="8.77208">
        <ele>634</ele>
        <time>2021-08-06T08:46:27.304Z</time>
      </trkpt>
      <trkpt lat="46.97171" lon="8.77206">
        <ele>634</ele>
        <time>2021-08-06T08:46:28.305Z</time>
      </trkpt>
      <trkpt lat="46.97171" lon="8.77206">
        <ele>634</ele>
        <time>2021-08-06T08:46:29.304Z</time>
      </trkpt>
      <trkpt lat="46.97171" lon="8.77206">
        <ele>634</ele>
        <time>2021-08-06T08:46:30.304Z</time>
      </trkpt>
      <trkpt lat="46.97172" lon="8.77206">
        <ele>635</ele>
        <time>2021-08-06T08:46:31.304Z</time>
      </trkpt>
      <trkpt lat="46.97172" lon="8.77205">
        <ele>635</ele>
        <time>2021-08-06T08:46:32.304Z</time>
      </trkpt>
      <trkpt lat="46.97171" lon="8.77205">
        <ele>635</ele>
        <time>2021-08-06T08:46:33.305Z</time>
      </trkpt>
      <trkpt lat="46.97171" lon="8.77205">
        <ele>635</ele>
        <time>2021-08-06T08:46:34.305Z</time>
      </trkpt>
      <trkpt lat="46.97171" lon="8.77204">
        <ele>635</ele>
        <time>2021-08-06T08:46:35.304Z</time>
      </trkpt>
      <trkpt lat="46.97172" lon="8.77205">
        <ele>634</ele>
        <time>2021-08-06T08:46:36.304Z</time>
      </trkpt>
      <trkpt lat="46.97172" lon="8.77204">
        <ele>634</ele>
        <time>2021-08-06T08:46:37.304Z</time>
      </trkpt>
      <trkpt lat="46.97172" lon="8.77204">
        <ele>634</ele>
        <time>2021-08-06T08:46:38.304Z</time>
      </trkpt>
      <trkpt lat="46.97173" lon="8.77203">
        <ele>633</ele>
        <time>2021-08-06T08:46:39.305Z</time>
      </trkpt>
      <trkpt lat="46.97173" lon="8.77203">
        <ele>633</ele>
        <time>2021-08-06T08:46:40.304Z</time>
      </trkpt>
      <trkpt lat="46.97174" lon="8.77203">
        <ele>633</ele>
        <time>2021-08-06T08:46:41.304Z</time>
      </trkpt>
      <trkpt lat="46.97174" lon="8.77202">
        <ele>633</ele>
        <time>2021-08-06T08:46:42.304Z</time>
      </trkpt>
      <trkpt lat="46.97174" lon="8.77202">
        <ele>632</ele>
        <time>2021-08-06T08:46:43.305Z</time>
      </trkpt>
      <trkpt lat="46.97174" lon="8.77201">
        <ele>632</ele>
        <time>2021-08-06T08:46:44.304Z</time>
      </trkpt>
      <trkpt lat="46.97173" lon="8.772">
        <ele>632</ele>
        <time>2021-08-06T08:46:45.304Z</time>
      </trkpt>
      <trkpt lat="46.97173" lon="8.77199">
        <ele>632</ele>
        <time>2021-08-06T08:46:46.305Z</time>
      </trkpt>
      <trkpt lat="46.97173" lon="8.77198">
        <ele>632</ele>
        <time>2021-08-06T08:46:47.305Z</time>
      </trkpt>
      <trkpt lat="46.97173" lon="8.77198">
        <ele>633</ele>
        <time>2021-08-06T08:46:48.304Z</time>
      </trkpt>
      <trkpt lat="46.97173" lon="8.77197">
        <ele>633</ele>
        <time>2021-08-06T08:46:49.304Z</time>
      </trkpt>
      <trkpt lat="46.97173" lon="8.77197">
        <ele>633</ele>
        <time>2021-08-06T08:46:50.304Z</time>
      </trkpt>
      <trkpt lat="46.97173" lon="8.77196">
        <ele>633</ele>
        <time>2021-08-06T08:46:51.304Z</time>
      </trkpt>
      <trkpt lat="46.97173" lon="8.77195">
        <ele>634</ele>
        <time>2021-08-06T08:46:52.304Z</time>
      </trkpt>
      <trkpt lat="46.97173" lon="8.77195">
        <ele>634</ele>
        <time>2021-08-06T08:46:53.305Z</time>
      </trkpt>
      <trkpt lat="46.97173" lon="8.77195">
        <ele>634</ele>
        <time>2021-08-06T08:46:54.305Z</time>
      </trkpt>
      <trkpt lat="46.97174" lon="8.77194">
        <ele>635</ele>
        <time>2021-08-06T08:46:55.304Z</time>
      </trkpt>
      <trkpt lat="46.97174" lon="8.77194">
        <ele>636</ele>
        <time>2021-08-06T08:46:56.305Z</time>
      </trkpt>
      <trkpt lat="46.97175" lon="8.77193">
        <ele>636</ele>
        <time>2021-08-06T08:46:57.305Z</time>
      </trkpt>
      <trkpt lat="46.97175" lon="8.77193">
        <ele>636</ele>
        <time>2021-08-06T08:46:58.304Z</time>
      </trkpt>
      <trkpt lat="46.97175" lon="8.77193">
        <ele>636</ele>
        <time>2021-08-06T08:46:59.305Z</time>
      </trkpt>
      <trkpt lat="46.97175" lon="8.77192">
        <ele>636</ele>
        <time>2021-08-06T08:47:00.305Z</time>
      </trkpt>
      <trkpt lat="46.97175" lon="8.77191">
        <ele>637</ele>
        <time>2021-08-06T08:47:01.305Z</time>
      </trkpt>
      <trkpt lat="46.97175" lon="8.77191">
        <ele>637</ele>
        <time>2021-08-06T08:47:02.305Z</time>
      </trkpt>
      <trkpt lat="46.97175" lon="8.77191">
        <ele>638</ele>
        <time>2021-08-06T08:47:03.305Z</time>
      </trkpt>
      <trkpt lat="46.97175" lon="8.7719">
        <ele>638</ele>
        <time>2021-08-06T08:47:04.304Z</time>
      </trkpt>
      <trkpt lat="46.97175" lon="8.7719">
        <ele>639</ele>
        <time>2021-08-06T08:47:05.304Z</time>
      </trkpt>
      <trkpt lat="46.97176" lon="8.77189">
        <ele>639</ele>
        <time>2021-08-06T08:47:06.305Z</time>
      </trkpt>
      <trkpt lat="46.97176" lon="8.77189">
        <ele>639</ele>
        <time>2021-08-06T08:47:07.305Z</time>
      </trkpt>
      <trkpt lat="46.97177" lon="8.77188">
        <ele>639</ele>
        <time>2021-08-06T08:47:08.304Z</time>
      </trkpt>
      <trkpt lat="46.97177" lon="8.77188">
        <ele>639</ele>
        <time>2021-08-06T08:47:09.304Z</time>
      </trkpt>
      <trkpt lat="46.97177" lon="8.77188">
        <ele>639</ele>
        <time>2021-08-06T08:47:10.305Z</time>
      </trkpt>
      <trkpt lat="46.97178" lon="8.77188">
        <ele>640</ele>
        <time>2021-08-06T08:47:11.305Z</time>
      </trkpt>
      <trkpt lat="46.97178" lon="8.77188">
        <ele>640</ele>
        <time>2021-08-06T08:47:12.305Z</time>
      </trkpt>
      <trkpt lat="46.97178" lon="8.77187">
        <ele>640</ele>
        <time>2021-08-06T08:47:13.304Z</time>
      </trkpt>
      <trkpt lat="46.97178" lon="8.77187">
        <ele>640</ele>
        <time>2021-08-06T08:47:14.305Z</time>
      </trkpt>
      <trkpt lat="46.97178" lon="8.77186">
        <ele>641</ele>
        <time>2021-08-06T08:47:15.305Z</time>
      </trkpt>
      <trkpt lat="46.97178" lon="8.77186">
        <ele>641</ele>
        <time>2021-08-06T08:47:16.305Z</time>
      </trkpt>
      <trkpt lat="46.97178" lon="8.77185">
        <ele>641</ele>
        <time>2021-08-06T08:47:17.304Z</time>
      </trkpt>
      <trkpt lat="46.97179" lon="8.77184">
        <ele>642</ele>
        <time>2021-08-06T08:47:18.304Z</time>
      </trkpt>
      <trkpt lat="46.97179" lon="8.77184">
        <ele>642</ele>
        <time>2021-08-06T08:47:19.305Z</time>
      </trkpt>
      <trkpt lat="46.97179" lon="8.77183">
        <ele>643</ele>
        <time>2021-08-06T08:47:20.305Z</time>
      </trkpt>
      <trkpt lat="46.9718" lon="8.77182">
        <ele>643</ele>
        <time>2021-08-06T08:47:21.304Z</time>
      </trkpt>
      <trkpt lat="46.9718" lon="8.77182">
        <ele>643</ele>
        <time>2021-08-06T08:47:22.304Z</time>
      </trkpt>
      <trkpt lat="46.9718" lon="8.77181">
        <ele>643</ele>
        <time>2021-08-06T08:47:23.305Z</time>
      </trkpt>
      <trkpt lat="46.9718" lon="8.7718">
        <ele>643</ele>
        <time>2021-08-06T08:47:24.304Z</time>
      </trkpt>
      <trkpt lat="46.97179" lon="8.77179">
        <ele>644</ele>
        <time>2021-08-06T08:47:25.304Z</time>
      </trkpt>
      <trkpt lat="46.97178" lon="8.77179">
        <ele>644</ele>
        <time>2021-08-06T08:47:26.304Z</time>
      </trkpt>
      <trkpt lat="46.97177" lon="8.77178">
        <ele>644</ele>
        <time>2021-08-06T08:47:27.304Z</time>
      </trkpt>
      <trkpt lat="46.97176" lon="8.77178">
        <ele>644</ele>
        <time>2021-08-06T08:47:28.304Z</time>
      </trkpt>
      <trkpt lat="46.97174" lon="8.77178">
        <ele>644</ele>
        <time>2021-08-06T08:47:29.304Z</time>
      </trkpt>
      <trkpt lat="46.97172" lon="8.77177">
        <ele>644</ele>
        <time>2021-08-06T08:47:30.304Z</time>
      </trkpt>
      <trkpt lat="46.97171" lon="8.77176">
        <ele>644</ele>
        <time>2021-08-06T08:47:31.304Z</time>
      </trkpt>
      <trkpt lat="46.97171" lon="8.77176">
        <ele>643</ele>
        <time>2021-08-06T08:47:32.304Z</time>
      </trkpt>
      <trkpt lat="46.9717" lon="8.77175">
        <ele>643</ele>
        <time>2021-08-06T08:47:33.305Z</time>
      </trkpt>
      <trkpt lat="46.9717" lon="8.77174">
        <ele>644</ele>
        <time>2021-08-06T08:47:34.305Z</time>
      </trkpt>
      <trkpt lat="46.9717" lon="8.77174">
        <ele>645</ele>
        <time>2021-08-06T08:47:35.304Z</time>
      </trkpt>
      <trkpt lat="46.97171" lon="8.77174">
        <ele>647</ele>
        <time>2021-08-06T08:47:36.305Z</time>
      </trkpt>
      <trkpt lat="46.97171" lon="8.77174">
        <ele>647</ele>
        <time>2021-08-06T08:47:37.304Z</time>
      </trkpt>
      <trkpt lat="46.97172" lon="8.77174">
        <ele>648</ele>
        <time>2021-08-06T08:47:38.306Z</time>
      </trkpt>
      <trkpt lat="46.97172" lon="8.77173">
        <ele>649</ele>
        <time>2021-08-06T08:47:39.306Z</time>
      </trkpt>
      <trkpt lat="46.97171" lon="8.77173">
        <ele>649</ele>
        <time>2021-08-06T08:47:40.305Z</time>
      </trkpt>
      <trkpt lat="46.9717" lon="8.77172">
        <ele>650</ele>
        <time>2021-08-06T08:47:41.305Z</time>
      </trkpt>
      <trkpt lat="46.97169" lon="8.77171">
        <ele>650</ele>
        <time>2021-08-06T08:47:42.306Z</time>
      </trkpt>
      <trkpt lat="46.97169" lon="8.77171">
        <ele>650</ele>
        <time>2021-08-06T08:47:43.306Z</time>
      </trkpt>
      <trkpt lat="46.97168" lon="8.77172">
        <ele>650</ele>
        <time>2021-08-06T08:47:44.306Z</time>
      </trkpt>
      <trkpt lat="46.97168" lon="8.77172">
        <ele>650</ele>
        <time>2021-08-06T08:47:45.306Z</time>
      </trkpt>
      <trkpt lat="46.97167" lon="8.77173">
        <ele>651</ele>
        <time>2021-08-06T08:47:46.305Z</time>
      </trkpt>
      <trkpt lat="46.97167" lon="8.77173">
        <ele>651</ele>
        <time>2021-08-06T08:47:47.306Z</time>
      </trkpt>
      <trkpt lat="46.97166" lon="8.77174">
        <ele>650</ele>
        <time>2021-08-06T08:47:48.306Z</time>
      </trkpt>
      <trkpt lat="46.97165" lon="8.77175">
        <ele>650</ele>
        <time>2021-08-06T08:47:49.306Z</time>
      </trkpt>
      <trkpt lat="46.97165" lon="8.77175">
        <ele>650</ele>
        <time>2021-08-06T08:47:50.306Z</time>
      </trkpt>
      <trkpt lat="46.97164" lon="8.77175">
        <ele>649</ele>
        <time>2021-08-06T08:47:51.306Z</time>
      </trkpt>
      <trkpt lat="46.97163" lon="8.77176">
        <ele>649</ele>
        <time>2021-08-06T08:47:52.306Z</time>
      </trkpt>
      <trkpt lat="46.97163" lon="8.77176">
        <ele>649</ele>
        <time>2021-08-06T08:47:53.306Z</time>
      </trkpt>
      <trkpt lat="46.97162" lon="8.77175">
        <ele>648</ele>
        <time>2021-08-06T08:47:54.306Z</time>
      </trkpt>
      <trkpt lat="46.97161" lon="8.77175">
        <ele>648</ele>
        <time>2021-08-06T08:47:55.305Z</time>
      </trkpt>
      <trkpt lat="46.97161" lon="8.77175">
        <ele>649</ele>
        <time>2021-08-06T08:47:56.306Z</time>
      </trkpt>
      <trkpt lat="46.9716" lon="8.77175">
        <ele>649</ele>
        <time>2021-08-06T08:47:57.306Z</time>
      </trkpt>
      <trkpt lat="46.9716" lon="8.77176">
        <ele>648</ele>
        <time>2021-08-06T08:47:58.306Z</time>
      </trkpt>
      <trkpt lat="46.97159" lon="8.77176">
        <ele>648</ele>
        <time>2021-08-06T08:47:59.306Z</time>
      </trkpt>
      <trkpt lat="46.97158" lon="8.77176">
        <ele>648</ele>
        <time>2021-08-06T08:48:00.306Z</time>
      </trkpt>
      <trkpt lat="46.97158" lon="8.77177">
        <ele>649</ele>
        <time>2021-08-06T08:48:01.305Z</time>
      </trkpt>
      <trkpt lat="46.97157" lon="8.77177">
        <ele>649</ele>
        <time>2021-08-06T08:48:02.305Z</time>
      </trkpt>
      <trkpt lat="46.97156" lon="8.77178">
        <ele>650</ele>
        <time>2021-08-06T08:48:03.306Z</time>
      </trkpt>
      <trkpt lat="46.97156" lon="8.77178">
        <ele>650</ele>
        <time>2021-08-06T08:48:04.306Z</time>
      </trkpt>
      <trkpt lat="46.97156" lon="8.77179">
        <ele>651</ele>
        <time>2021-08-06T08:48:05.306Z</time>
      </trkpt>
      <trkpt lat="46.97155" lon="8.77179">
        <ele>651</ele>
        <time>2021-08-06T08:48:06.306Z</time>
      </trkpt>
      <trkpt lat="46.97155" lon="8.7718">
        <ele>651</ele>
        <time>2021-08-06T08:48:07.306Z</time>
      </trkpt>
      <trkpt lat="46.97154" lon="8.7718">
        <ele>651</ele>
        <time>2021-08-06T08:48:08.306Z</time>
      </trkpt>
      <trkpt lat="46.97154" lon="8.77181">
        <ele>651</ele>
        <time>2021-08-06T08:48:09.305Z</time>
      </trkpt>
      <trkpt lat="46.97153" lon="8.77181">
        <ele>651</ele>
        <time>2021-08-06T08:48:10.305Z</time>
      </trkpt>
      <trkpt lat="46.97153" lon="8.77181">
        <ele>651</ele>
        <time>2021-08-06T08:48:11.306Z</time>
      </trkpt>
      <trkpt lat="46.97152" lon="8.77182">
        <ele>650</ele>
        <time>2021-08-06T08:48:12.305Z</time>
      </trkpt>
      <trkpt lat="46.97152" lon="8.77182">
        <ele>650</ele>
        <time>2021-08-06T08:48:13.306Z</time>
      </trkpt>
      <trkpt lat="46.97152" lon="8.77182">
        <ele>650</ele>
        <time>2021-08-06T08:48:14.305Z</time>
      </trkpt>
      <trkpt lat="46.97151" lon="8.77182">
        <ele>650</ele>
        <time>2021-08-06T08:48:15.306Z</time>
      </trkpt>
      <trkpt lat="46.97151" lon="8.77182">
        <ele>650</ele>
        <time>2021-08-06T08:48:16.305Z</time>
      </trkpt>
      <trkpt lat="46.9715" lon="8.77182">
        <ele>650</ele>
        <time>2021-08-06T08:48:17.306Z</time>
      </trkpt>
      <trkpt lat="46.97151" lon="8.77183">
        <ele>651</ele>
        <time>2021-08-06T08:48:18.307Z</time>
      </trkpt>
      <trkpt lat="46.97151" lon="8.77181">
        <ele>651</ele>
        <time>2021-08-06T08:48:19.307Z</time>
      </trkpt>
      <trkpt lat="46.97151" lon="8.77182">
        <ele>650</ele>
        <time>2021-08-06T08:48:20.307Z</time>
      </trkpt>
      <trkpt lat="46.97151" lon="8.77182">
        <ele>650</ele>
        <time>2021-08-06T08:48:21.306Z</time>
      </trkpt>
      <trkpt lat="46.9715" lon="8.77182">
        <ele>650</ele>
        <time>2021-08-06T08:48:22.307Z</time>
      </trkpt>
      <trkpt lat="46.9715" lon="8.77182">
        <ele>650</ele>
        <time>2021-08-06T08:48:23.307Z</time>
      </trkpt>
      <trkpt lat="46.97148" lon="8.77183">
        <ele>652</ele>
        <time>2021-08-06T08:48:24.307Z</time>
      </trkpt>
      <trkpt lat="46.97148" lon="8.77183">
        <ele>652</ele>
        <time>2021-08-06T08:48:25.307Z</time>
      </trkpt>
      <trkpt lat="46.97147" lon="8.77185">
        <ele>652</ele>
        <time>2021-08-06T08:48:26.306Z</time>
      </trkpt>
      <trkpt lat="46.97148" lon="8.77182">
        <ele>652</ele>
        <time>2021-08-06T08:48:27.308Z</time>
      </trkpt>
      <trkpt lat="46.97147" lon="8.77182">
        <ele>653</ele>
        <time>2021-08-06T08:48:28.307Z</time>
      </trkpt>
      <trkpt lat="46.97146" lon="8.77182">
        <ele>653</ele>
        <time>2021-08-06T08:48:29.307Z</time>
      </trkpt>
      <trkpt lat="46.97146" lon="8.77182">
        <ele>653</ele>
        <time>2021-08-06T08:48:30.307Z</time>
      </trkpt>
      <trkpt lat="46.97147" lon="8.77183">
        <ele>654</ele>
        <time>2021-08-06T08:48:31.308Z</time>
      </trkpt>
      <trkpt lat="46.97146" lon="8.77184">
        <ele>655</ele>
        <time>2021-08-06T08:48:32.308Z</time>
      </trkpt>
      <trkpt lat="46.97145" lon="8.77186">
        <ele>655</ele>
        <time>2021-08-06T08:48:33.307Z</time>
      </trkpt>
      <trkpt lat="46.97145" lon="8.77186">
        <ele>656</ele>
        <time>2021-08-06T08:48:34.307Z</time>
      </trkpt>
      <trkpt lat="46.97144" lon="8.77187">
        <ele>656</ele>
        <time>2021-08-06T08:48:35.307Z</time>
      </trkpt>
      <trkpt lat="46.97143" lon="8.77187">
        <ele>656</ele>
        <time>2021-08-06T08:48:36.308Z</time>
      </trkpt>
      <trkpt lat="46.97143" lon="8.77186">
        <ele>657</ele>
        <time>2021-08-06T08:48:37.307Z</time>
      </trkpt>
      <trkpt lat="46.97142" lon="8.77187">
        <ele>657</ele>
        <time>2021-08-06T08:48:38.307Z</time>
      </trkpt>
      <trkpt lat="46.97142" lon="8.77187">
        <ele>657</ele>
        <time>2021-08-06T08:48:39.307Z</time>
      </trkpt>
      <trkpt lat="46.97141" lon="8.77187">
        <ele>657</ele>
        <time>2021-08-06T08:48:40.308Z</time>
      </trkpt>
      <trkpt lat="46.9714" lon="8.77187">
        <ele>657</ele>
        <time>2021-08-06T08:48:41.307Z</time>
      </trkpt>
      <trkpt lat="46.97139" lon="8.77188">
        <ele>658</ele>
        <time>2021-08-06T08:48:42.307Z</time>
      </trkpt>
      <trkpt lat="46.97139" lon="8.77188">
        <ele>658</ele>
        <time>2021-08-06T08:48:43.307Z</time>
      </trkpt>
      <trkpt lat="46.97138" lon="8.77189">
        <ele>658</ele>
        <time>2021-08-06T08:48:44.308Z</time>
      </trkpt>
      <trkpt lat="46.97137" lon="8.77189">
        <ele>658</ele>
        <time>2021-08-06T08:48:45.308Z</time>
      </trkpt>
      <trkpt lat="46.97137" lon="8.7719">
        <ele>658</ele>
        <time>2021-08-06T08:48:46.307Z</time>
      </trkpt>
      <trkpt lat="46.97136" lon="8.7719">
        <ele>657</ele>
        <time>2021-08-06T08:48:47.307Z</time>
      </trkpt>
      <trkpt lat="46.97136" lon="8.77191">
        <ele>657</ele>
        <time>2021-08-06T08:48:48.308Z</time>
      </trkpt>
      <trkpt lat="46.97135" lon="8.77191">
        <ele>657</ele>
        <time>2021-08-06T08:48:49.308Z</time>
      </trkpt>
      <trkpt lat="46.97134" lon="8.77191">
        <ele>657</ele>
        <time>2021-08-06T08:48:50.308Z</time>
      </trkpt>
      <trkpt lat="46.97133" lon="8.77191">
        <ele>657</ele>
        <time>2021-08-06T08:48:51.308Z</time>
      </trkpt>
      <trkpt lat="46.97133" lon="8.77191">
        <ele>657</ele>
        <time>2021-08-06T08:48:52.308Z</time>
      </trkpt>
      <trkpt lat="46.97133" lon="8.77191">
        <ele>657</ele>
        <time>2021-08-06T08:48:53.307Z</time>
      </trkpt>
      <trkpt lat="46.97132" lon="8.77192">
        <ele>658</ele>
        <time>2021-08-06T08:48:54.307Z</time>
      </trkpt>
      <trkpt lat="46.97132" lon="8.77192">
        <ele>658</ele>
        <time>2021-08-06T08:48:55.307Z</time>
      </trkpt>
      <trkpt lat="46.97131" lon="8.77193">
        <ele>657</ele>
        <time>2021-08-06T08:48:56.307Z</time>
      </trkpt>
      <trkpt lat="46.97131" lon="8.77193">
        <ele>657</ele>
        <time>2021-08-06T08:48:57.307Z</time>
      </trkpt>
      <trkpt lat="46.9713" lon="8.77193">
        <ele>657</ele>
        <time>2021-08-06T08:48:58.307Z</time>
      </trkpt>
      <trkpt lat="46.9713" lon="8.77193">
        <ele>657</ele>
        <time>2021-08-06T08:48:59.307Z</time>
      </trkpt>
      <trkpt lat="46.97129" lon="8.77193">
        <ele>657</ele>
        <time>2021-08-06T08:49:00.307Z</time>
      </trkpt>
      <trkpt lat="46.97128" lon="8.77194">
        <ele>658</ele>
        <time>2021-08-06T08:49:01.307Z</time>
      </trkpt>
      <trkpt lat="46.97128" lon="8.77194">
        <ele>659</ele>
        <time>2021-08-06T08:49:02.307Z</time>
      </trkpt>
      <trkpt lat="46.97127" lon="8.77194">
        <ele>659</ele>
        <time>2021-08-06T08:49:03.307Z</time>
      </trkpt>
      <trkpt lat="46.97127" lon="8.77195">
        <ele>659</ele>
        <time>2021-08-06T08:49:04.307Z</time>
      </trkpt>
      <trkpt lat="46.97127" lon="8.77195">
        <ele>659</ele>
        <time>2021-08-06T08:49:05.307Z</time>
      </trkpt>
      <trkpt lat="46.97126" lon="8.77195">
        <ele>659</ele>
        <time>2021-08-06T08:49:06.307Z</time>
      </trkpt>
      <trkpt lat="46.97126" lon="8.77195">
        <ele>659</ele>
        <time>2021-08-06T08:49:07.307Z</time>
      </trkpt>
      <trkpt lat="46.97126" lon="8.77194">
        <ele>658</ele>
        <time>2021-08-06T08:49:08.307Z</time>
      </trkpt>
      <trkpt lat="46.97125" lon="8.77194">
        <ele>658</ele>
        <time>2021-08-06T08:49:09.307Z</time>
      </trkpt>
      <trkpt lat="46.97125" lon="8.77194">
        <ele>658</ele>
        <time>2021-08-06T08:49:10.307Z</time>
      </trkpt>
      <trkpt lat="46.97124" lon="8.77194">
        <ele>658</ele>
        <time>2021-08-06T08:49:11.307Z</time>
      </trkpt>
      <trkpt lat="46.97124" lon="8.77194">
        <ele>659</ele>
        <time>2021-08-06T08:49:12.307Z</time>
      </trkpt>
      <trkpt lat="46.97123" lon="8.77194">
        <ele>659</ele>
        <time>2021-08-06T08:49:13.307Z</time>
      </trkpt>
      <trkpt lat="46.97122" lon="8.77194">
        <ele>659</ele>
        <time>2021-08-06T08:49:14.307Z</time>
      </trkpt>
      <trkpt lat="46.97122" lon="8.77194">
        <ele>659</ele>
        <time>2021-08-06T08:49:15.308Z</time>
      </trkpt>
      <trkpt lat="46.97122" lon="8.77195">
        <ele>659</ele>
        <time>2021-08-06T08:49:16.307Z</time>
      </trkpt>
      <trkpt lat="46.97121" lon="8.77196">
        <ele>658</ele>
        <time>2021-08-06T08:49:17.308Z</time>
      </trkpt>
      <trkpt lat="46.97121" lon="8.77196">
        <ele>658</ele>
        <time>2021-08-06T08:49:18.307Z</time>
      </trkpt>
      <trkpt lat="46.9712" lon="8.77197">
        <ele>658</ele>
        <time>2021-08-06T08:49:19.307Z</time>
      </trkpt>
      <trkpt lat="46.9712" lon="8.77198">
        <ele>658</ele>
        <time>2021-08-06T08:49:20.307Z</time>
      </trkpt>
      <trkpt lat="46.97119" lon="8.77199">
        <ele>658</ele>
        <time>2021-08-06T08:49:21.307Z</time>
      </trkpt>
      <trkpt lat="46.97119" lon="8.77201">
        <ele>658</ele>
        <time>2021-08-06T08:49:22.307Z</time>
      </trkpt>
      <trkpt lat="46.97118" lon="8.77202">
        <ele>658</ele>
        <time>2021-08-06T08:49:23.307Z</time>
      </trkpt>
      <trkpt lat="46.97118" lon="8.77203">
        <ele>658</ele>
        <time>2021-08-06T08:49:24.307Z</time>
      </trkpt>
      <trkpt lat="46.97117" lon="8.77204">
        <ele>658</ele>
        <time>2021-08-06T08:49:25.307Z</time>
      </trkpt>
      <trkpt lat="46.97116" lon="8.77205">
        <ele>659</ele>
        <time>2021-08-06T08:49:26.307Z</time>
      </trkpt>
      <trkpt lat="46.97116" lon="8.77206">
        <ele>659</ele>
        <time>2021-08-06T08:49:27.308Z</time>
      </trkpt>
      <trkpt lat="46.97115" lon="8.77207">
        <ele>660</ele>
        <time>2021-08-06T08:49:28.307Z</time>
      </trkpt>
      <trkpt lat="46.97115" lon="8.77207">
        <ele>660</ele>
        <time>2021-08-06T08:49:29.307Z</time>
      </trkpt>
      <trkpt lat="46.97115" lon="8.77207">
        <ele>661</ele>
        <time>2021-08-06T08:49:30.307Z</time>
      </trkpt>
      <trkpt lat="46.97114" lon="8.77208">
        <ele>661</ele>
        <time>2021-08-06T08:49:31.307Z</time>
      </trkpt>
      <trkpt lat="46.97114" lon="8.77208">
        <ele>662</ele>
        <time>2021-08-06T08:49:32.307Z</time>
      </trkpt>
      <trkpt lat="46.97113" lon="8.77209">
        <ele>662</ele>
        <time>2021-08-06T08:49:33.308Z</time>
      </trkpt>
      <trkpt lat="46.97113" lon="8.77209">
        <ele>663</ele>
        <time>2021-08-06T08:49:34.307Z</time>
      </trkpt>
      <trkpt lat="46.97113" lon="8.7721">
        <ele>663</ele>
        <time>2021-08-06T08:49:35.307Z</time>
      </trkpt>
      <trkpt lat="46.97113" lon="8.77211">
        <ele>663</ele>
        <time>2021-08-06T08:49:36.307Z</time>
      </trkpt>
      <trkpt lat="46.97112" lon="8.77211">
        <ele>662</ele>
        <time>2021-08-06T08:49:37.307Z</time>
      </trkpt>
      <trkpt lat="46.97112" lon="8.77212">
        <ele>661</ele>
        <time>2021-08-06T08:49:38.308Z</time>
      </trkpt>
      <trkpt lat="46.97111" lon="8.77213">
        <ele>661</ele>
        <time>2021-08-06T08:49:39.307Z</time>
      </trkpt>
      <trkpt lat="46.97111" lon="8.77214">
        <ele>660</ele>
        <time>2021-08-06T08:49:40.308Z</time>
      </trkpt>
      <trkpt lat="46.9711" lon="8.77215">
        <ele>660</ele>
        <time>2021-08-06T08:49:41.308Z</time>
      </trkpt>
      <trkpt lat="46.9711" lon="8.77215">
        <ele>660</ele>
        <time>2021-08-06T08:49:42.307Z</time>
      </trkpt>
      <trkpt lat="46.97109" lon="8.77214">
        <ele>660</ele>
        <time>2021-08-06T08:49:43.307Z</time>
      </trkpt>
      <trkpt lat="46.97108" lon="8.77214">
        <ele>661</ele>
        <time>2021-08-06T08:49:44.308Z</time>
      </trkpt>
      <trkpt lat="46.97107" lon="8.77213">
        <ele>661</ele>
        <time>2021-08-06T08:49:45.307Z</time>
      </trkpt>
      <trkpt lat="46.97107" lon="8.77213">
        <ele>661</ele>
        <time>2021-08-06T08:49:46.308Z</time>
      </trkpt>
      <trkpt lat="46.97106" lon="8.77213">
        <ele>661</ele>
        <time>2021-08-06T08:49:47.308Z</time>
      </trkpt>
      <trkpt lat="46.97105" lon="8.77213">
        <ele>662</ele>
        <time>2021-08-06T08:49:48.307Z</time>
      </trkpt>
      <trkpt lat="46.97105" lon="8.77213">
        <ele>662</ele>
        <time>2021-08-06T08:49:49.307Z</time>
      </trkpt>
      <trkpt lat="46.97104" lon="8.77213">
        <ele>662</ele>
        <time>2021-08-06T08:49:50.307Z</time>
      </trkpt>
      <trkpt lat="46.97103" lon="8.77213">
        <ele>662</ele>
        <time>2021-08-06T08:49:51.308Z</time>
      </trkpt>
      <trkpt lat="46.97102" lon="8.77213">
        <ele>663</ele>
        <time>2021-08-06T08:49:52.308Z</time>
      </trkpt>
      <trkpt lat="46.97102" lon="8.77213">
        <ele>663</ele>
        <time>2021-08-06T08:49:53.308Z</time>
      </trkpt>
      <trkpt lat="46.97101" lon="8.77212">
        <ele>663</ele>
        <time>2021-08-06T08:49:54.308Z</time>
      </trkpt>
      <trkpt lat="46.971" lon="8.77212">
        <ele>663</ele>
        <time>2021-08-06T08:49:55.307Z</time>
      </trkpt>
      <trkpt lat="46.971" lon="8.77212">
        <ele>663</ele>
        <time>2021-08-06T08:49:56.307Z</time>
      </trkpt>
      <trkpt lat="46.971" lon="8.77212">
        <ele>663</ele>
        <time>2021-08-06T08:49:57.308Z</time>
      </trkpt>
      <trkpt lat="46.97099" lon="8.77212">
        <ele>662</ele>
        <time>2021-08-06T08:49:58.307Z</time>
      </trkpt>
      <trkpt lat="46.97099" lon="8.77212">
        <ele>662</ele>
        <time>2021-08-06T08:49:59.307Z</time>
      </trkpt>
      <trkpt lat="46.97098" lon="8.77212">
        <ele>663</ele>
        <time>2021-08-06T08:50:00.308Z</time>
      </trkpt>
      <trkpt lat="46.97098" lon="8.77212">
        <ele>663</ele>
        <time>2021-08-06T08:50:01.308Z</time>
      </trkpt>
      <trkpt lat="46.97098" lon="8.77212">
        <ele>663</ele>
        <time>2021-08-06T08:50:02.308Z</time>
      </trkpt>
      <trkpt lat="46.97098" lon="8.77213">
        <ele>663</ele>
        <time>2021-08-06T08:50:03.307Z</time>
      </trkpt>
      <trkpt lat="46.97097" lon="8.77213">
        <ele>663</ele>
        <time>2021-08-06T08:50:04.308Z</time>
      </trkpt>
      <trkpt lat="46.97096" lon="8.77212">
        <ele>663</ele>
        <time>2021-08-06T08:50:05.308Z</time>
      </trkpt>
      <trkpt lat="46.97096" lon="8.77212">
        <ele>663</ele>
        <time>2021-08-06T08:50:06.307Z</time>
      </trkpt>
      <trkpt lat="46.97095" lon="8.77211">
        <ele>664</ele>
        <time>2021-08-06T08:50:07.307Z</time>
      </trkpt>
      <trkpt lat="46.97095" lon="8.77212">
        <ele>664</ele>
        <time>2021-08-06T08:50:08.307Z</time>
      </trkpt>
      <trkpt lat="46.97094" lon="8.77212">
        <ele>665</ele>
        <time>2021-08-06T08:50:09.308Z</time>
      </trkpt>
      <trkpt lat="46.97094" lon="8.77212">
        <ele>665</ele>
        <time>2021-08-06T08:50:10.307Z</time>
      </trkpt>
      <trkpt lat="46.97093" lon="8.77212">
        <ele>665</ele>
        <time>2021-08-06T08:50:11.308Z</time>
      </trkpt>
      <trkpt lat="46.97093" lon="8.77212">
        <ele>665</ele>
        <time>2021-08-06T08:50:12.307Z</time>
      </trkpt>
      <trkpt lat="46.97093" lon="8.77212">
        <ele>666</ele>
        <time>2021-08-06T08:50:13.307Z</time>
      </trkpt>
      <trkpt lat="46.97093" lon="8.77208">
        <ele>666</ele>
        <time>2021-08-06T08:50:14.309Z</time>
      </trkpt>
      <trkpt lat="46.97093" lon="8.77208">
        <ele>666</ele>
        <time>2021-08-06T08:50:15.309Z</time>
      </trkpt>
      <trkpt lat="46.97093" lon="8.77206">
        <ele>667</ele>
        <time>2021-08-06T08:50:16.309Z</time>
      </trkpt>
      <trkpt lat="46.97094" lon="8.77205">
        <ele>668</ele>
        <time>2021-08-06T08:50:17.309Z</time>
      </trkpt>
      <trkpt lat="46.97094" lon="8.77205">
        <ele>668</ele>
        <time>2021-08-06T08:50:18.308Z</time>
      </trkpt>
      <trkpt lat="46.97094" lon="8.77204">
        <ele>669</ele>
        <time>2021-08-06T08:50:19.309Z</time>
      </trkpt>
      <trkpt lat="46.97093" lon="8.77204">
        <ele>669</ele>
        <time>2021-08-06T08:50:20.309Z</time>
      </trkpt>
      <trkpt lat="46.97093" lon="8.77203">
        <ele>669</ele>
        <time>2021-08-06T08:50:21.309Z</time>
      </trkpt>
      <trkpt lat="46.97092" lon="8.77203">
        <ele>670</ele>
        <time>2021-08-06T08:50:22.309Z</time>
      </trkpt>
      <trkpt lat="46.97092" lon="8.77203">
        <ele>670</ele>
        <time>2021-08-06T08:50:23.309Z</time>
      </trkpt>
      <trkpt lat="46.97091" lon="8.77203">
        <ele>671</ele>
        <time>2021-08-06T08:50:24.309Z</time>
      </trkpt>
      <trkpt lat="46.9709" lon="8.77203">
        <ele>671</ele>
        <time>2021-08-06T08:50:25.308Z</time>
      </trkpt>
      <trkpt lat="46.97089" lon="8.77202">
        <ele>672</ele>
        <time>2021-08-06T08:50:26.309Z</time>
      </trkpt>
      <trkpt lat="46.97089" lon="8.77203">
        <ele>672</ele>
        <time>2021-08-06T08:50:27.309Z</time>
      </trkpt>
      <trkpt lat="46.97088" lon="8.77203">
        <ele>673</ele>
        <time>2021-08-06T08:50:28.309Z</time>
      </trkpt>
      <trkpt lat="46.97087" lon="8.77203">
        <ele>674</ele>
        <time>2021-08-06T08:50:29.309Z</time>
      </trkpt>
      <trkpt lat="46.97086" lon="8.77203">
        <ele>674</ele>
        <time>2021-08-06T08:50:30.309Z</time>
      </trkpt>
      <trkpt lat="46.97085" lon="8.77203">
        <ele>675</ele>
        <time>2021-08-06T08:50:31.309Z</time>
      </trkpt>
      <trkpt lat="46.97085" lon="8.77203">
        <ele>675</ele>
        <time>2021-08-06T08:50:32.309Z</time>
      </trkpt>
      <trkpt lat="46.97085" lon="8.77203">
        <ele>676</ele>
        <time>2021-08-06T08:50:33.308Z</time>
      </trkpt>
      <trkpt lat="46.97084" lon="8.77204">
        <ele>676</ele>
        <time>2021-08-06T08:50:34.308Z</time>
      </trkpt>
      <trkpt lat="46.97084" lon="8.77204">
        <ele>677</ele>
        <time>2021-08-06T08:50:35.308Z</time>
      </trkpt>
      <trkpt lat="46.97084" lon="8.77204">
        <ele>677</ele>
        <time>2021-08-06T08:50:36.309Z</time>
      </trkpt>
      <trkpt lat="46.97084" lon="8.77203">
        <ele>677</ele>
        <time>2021-08-06T08:50:37.309Z</time>
      </trkpt>
      <trkpt lat="46.97083" lon="8.77204">
        <ele>678</ele>
        <time>2021-08-06T08:50:38.309Z</time>
      </trkpt>
      <trkpt lat="46.97083" lon="8.77204">
        <ele>678</ele>
        <time>2021-08-06T08:50:39.309Z</time>
      </trkpt>
      <trkpt lat="46.97082" lon="8.77204">
        <ele>677</ele>
        <time>2021-08-06T08:50:40.308Z</time>
      </trkpt>
      <trkpt lat="46.97082" lon="8.77204">
        <ele>677</ele>
        <time>2021-08-06T08:50:41.308Z</time>
      </trkpt>
      <trkpt lat="46.97081" lon="8.77204">
        <ele>677</ele>
        <time>2021-08-06T08:50:42.308Z</time>
      </trkpt>
      <trkpt lat="46.97081" lon="8.77205">
        <ele>676</ele>
        <time>2021-08-06T08:50:43.309Z</time>
      </trkpt>
      <trkpt lat="46.9708" lon="8.77205">
        <ele>676</ele>
        <time>2021-08-06T08:50:44.309Z</time>
      </trkpt>
      <trkpt lat="46.9708" lon="8.77205">
        <ele>676</ele>
        <time>2021-08-06T08:50:45.309Z</time>
      </trkpt>
      <trkpt lat="46.9708" lon="8.77205">
        <ele>676</ele>
        <time>2021-08-06T08:50:46.309Z</time>
      </trkpt>
      <trkpt lat="46.9708" lon="8.77206">
        <ele>676</ele>
        <time>2021-08-06T08:50:47.308Z</time>
      </trkpt>
      <trkpt lat="46.97078" lon="8.77209">
        <ele>672</ele>
        <time>2021-08-06T08:50:48.309Z</time>
      </trkpt>
      <trkpt lat="46.97078" lon="8.7721">
        <ele>672</ele>
        <time>2021-08-06T08:50:49.308Z</time>
      </trkpt>
      <trkpt lat="46.97078" lon="8.77211">
        <ele>672</ele>
        <time>2021-08-06T08:50:50.308Z</time>
      </trkpt>
      <trkpt lat="46.97077" lon="8.77212">
        <ele>672</ele>
        <time>2021-08-06T08:50:51.309Z</time>
      </trkpt>
      <trkpt lat="46.97077" lon="8.77213">
        <ele>672</ele>
        <time>2021-08-06T08:50:52.309Z</time>
      </trkpt>
      <trkpt lat="46.97077" lon="8.77214">
        <ele>672</ele>
        <time>2021-08-06T08:50:53.308Z</time>
      </trkpt>
      <trkpt lat="46.97076" lon="8.77215">
        <ele>672</ele>
        <time>2021-08-06T08:50:54.309Z</time>
      </trkpt>
      <trkpt lat="46.97076" lon="8.77215">
        <ele>672</ele>
        <time>2021-08-06T08:50:55.309Z</time>
      </trkpt>
      <trkpt lat="46.97075" lon="8.77216">
        <ele>672</ele>
        <time>2021-08-06T08:50:56.308Z</time>
      </trkpt>
      <trkpt lat="46.97075" lon="8.77216">
        <ele>671</ele>
        <time>2021-08-06T08:50:57.309Z</time>
      </trkpt>
      <trkpt lat="46.97075" lon="8.77217">
        <ele>671</ele>
        <time>2021-08-06T08:50:58.309Z</time>
      </trkpt>
      <trkpt lat="46.97075" lon="8.77219">
        <ele>671</ele>
        <time>2021-08-06T08:50:59.309Z</time>
      </trkpt>
      <trkpt lat="46.97075" lon="8.7722">
        <ele>671</ele>
        <time>2021-08-06T08:51:00.308Z</time>
      </trkpt>
      <trkpt lat="46.97074" lon="8.77221">
        <ele>671</ele>
        <time>2021-08-06T08:51:01.308Z</time>
      </trkpt>
      <trkpt lat="46.97074" lon="8.77221">
        <ele>672</ele>
        <time>2021-08-06T08:51:02.308Z</time>
      </trkpt>
      <trkpt lat="46.97074" lon="8.77222">
        <ele>673</ele>
        <time>2021-08-06T08:51:03.308Z</time>
      </trkpt>
      <trkpt lat="46.97073" lon="8.77222">
        <ele>673</ele>
        <time>2021-08-06T08:51:04.309Z</time>
      </trkpt>
      <trkpt lat="46.97073" lon="8.77224">
        <ele>674</ele>
        <time>2021-08-06T08:51:05.308Z</time>
      </trkpt>
      <trkpt lat="46.97072" lon="8.77225">
        <ele>674</ele>
        <time>2021-08-06T08:51:06.309Z</time>
      </trkpt>
      <trkpt lat="46.97072" lon="8.77225">
        <ele>675</ele>
        <time>2021-08-06T08:51:07.309Z</time>
      </trkpt>
      <trkpt lat="46.97071" lon="8.77226">
        <ele>675</ele>
        <time>2021-08-06T08:51:08.308Z</time>
      </trkpt>
      <trkpt lat="46.97071" lon="8.77227">
        <ele>675</ele>
        <time>2021-08-06T08:51:09.309Z</time>
      </trkpt>
      <trkpt lat="46.9707" lon="8.77228">
        <ele>675</ele>
        <time>2021-08-06T08:51:10.309Z</time>
      </trkpt>
      <trkpt lat="46.9707" lon="8.77229">
        <ele>675</ele>
        <time>2021-08-06T08:51:11.309Z</time>
      </trkpt>
      <trkpt lat="46.97069" lon="8.77229">
        <ele>675</ele>
        <time>2021-08-06T08:51:12.308Z</time>
      </trkpt>
      <trkpt lat="46.97069" lon="8.7723">
        <ele>675</ele>
        <time>2021-08-06T08:51:13.308Z</time>
      </trkpt>
      <trkpt lat="46.97068" lon="8.77231">
        <ele>675</ele>
        <time>2021-08-06T08:51:14.309Z</time>
      </trkpt>
      <trkpt lat="46.97067" lon="8.77232">
        <ele>676</ele>
        <time>2021-08-06T08:51:15.309Z</time>
      </trkpt>
      <trkpt lat="46.97067" lon="8.77233">
        <ele>675</ele>
        <time>2021-08-06T08:51:16.308Z</time>
      </trkpt>
      <trkpt lat="46.97066" lon="8.77233">
        <ele>675</ele>
        <time>2021-08-06T08:51:17.308Z</time>
      </trkpt>
      <trkpt lat="46.97066" lon="8.77234">
        <ele>675</ele>
        <time>2021-08-06T08:51:18.309Z</time>
      </trkpt>
      <trkpt lat="46.97065" lon="8.77234">
        <ele>675</ele>
        <time>2021-08-06T08:51:19.309Z</time>
      </trkpt>
      <trkpt lat="46.97064" lon="8.77234">
        <ele>675</ele>
        <time>2021-08-06T08:51:20.309Z</time>
      </trkpt>
      <trkpt lat="46.97064" lon="8.77234">
        <ele>675</ele>
        <time>2021-08-06T08:51:21.308Z</time>
      </trkpt>
      <trkpt lat="46.97063" lon="8.77235">
        <ele>675</ele>
        <time>2021-08-06T08:51:22.308Z</time>
      </trkpt>
      <trkpt lat="46.97063" lon="8.77235">
        <ele>675</ele>
        <time>2021-08-06T08:51:23.308Z</time>
      </trkpt>
      <trkpt lat="46.97062" lon="8.77235">
        <ele>675</ele>
        <time>2021-08-06T08:51:24.309Z</time>
      </trkpt>
      <trkpt lat="46.97061" lon="8.77236">
        <ele>675</ele>
        <time>2021-08-06T08:51:25.308Z</time>
      </trkpt>
      <trkpt lat="46.97061" lon="8.77237">
        <ele>675</ele>
        <time>2021-08-06T08:51:26.309Z</time>
      </trkpt>
      <trkpt lat="46.9706" lon="8.77237">
        <ele>675</ele>
        <time>2021-08-06T08:51:27.309Z</time>
      </trkpt>
      <trkpt lat="46.97059" lon="8.77238">
        <ele>675</ele>
        <time>2021-08-06T08:51:28.309Z</time>
      </trkpt>
      <trkpt lat="46.97059" lon="8.77239">
        <ele>675</ele>
        <time>2021-08-06T08:51:29.308Z</time>
      </trkpt>
      <trkpt lat="46.97058" lon="8.77239">
        <ele>676</ele>
        <time>2021-08-06T08:51:30.309Z</time>
      </trkpt>
      <trkpt lat="46.97058" lon="8.7724">
        <ele>676</ele>
        <time>2021-08-06T08:51:31.309Z</time>
      </trkpt>
      <trkpt lat="46.97057" lon="8.7724">
        <ele>677</ele>
        <time>2021-08-06T08:51:32.308Z</time>
      </trkpt>
      <trkpt lat="46.97057" lon="8.77241">
        <ele>677</ele>
        <time>2021-08-06T08:51:33.308Z</time>
      </trkpt>
      <trkpt lat="46.97056" lon="8.77242">
        <ele>678</ele>
        <time>2021-08-06T08:51:34.308Z</time>
      </trkpt>
      <trkpt lat="46.97055" lon="8.77242">
        <ele>678</ele>
        <time>2021-08-06T08:51:35.308Z</time>
      </trkpt>
      <trkpt lat="46.97055" lon="8.77242">
        <ele>678</ele>
        <time>2021-08-06T08:51:36.309Z</time>
      </trkpt>
      <trkpt lat="46.97054" lon="8.77242">
        <ele>677</ele>
        <time>2021-08-06T08:51:37.309Z</time>
      </trkpt>
      <trkpt lat="46.97054" lon="8.77242">
        <ele>677</ele>
        <time>2021-08-06T08:51:38.308Z</time>
      </trkpt>
      <trkpt lat="46.97053" lon="8.77243">
        <ele>676</ele>
        <time>2021-08-06T08:51:39.308Z</time>
      </trkpt>
      <trkpt lat="46.97053" lon="8.77243">
        <ele>676</ele>
        <time>2021-08-06T08:51:40.308Z</time>
      </trkpt>
      <trkpt lat="46.97052" lon="8.77244">
        <ele>676</ele>
        <time>2021-08-06T08:51:41.308Z</time>
      </trkpt>
      <trkpt lat="46.97051" lon="8.77244">
        <ele>676</ele>
        <time>2021-08-06T08:51:42.308Z</time>
      </trkpt>
      <trkpt lat="46.9705" lon="8.77245">
        <ele>677</ele>
        <time>2021-08-06T08:51:43.309Z</time>
      </trkpt>
      <trkpt lat="46.9705" lon="8.77245">
        <ele>677</ele>
        <time>2021-08-06T08:51:44.309Z</time>
      </trkpt>
      <trkpt lat="46.97049" lon="8.77246">
        <ele>678</ele>
        <time>2021-08-06T08:51:45.309Z</time>
      </trkpt>
      <trkpt lat="46.97049" lon="8.77247">
        <ele>678</ele>
        <time>2021-08-06T08:51:46.308Z</time>
      </trkpt>
      <trkpt lat="46.97049" lon="8.77248">
        <ele>679</ele>
        <time>2021-08-06T08:51:47.309Z</time>
      </trkpt>
      <trkpt lat="46.97048" lon="8.77248">
        <ele>680</ele>
        <time>2021-08-06T08:51:48.309Z</time>
      </trkpt>
      <trkpt lat="46.97047" lon="8.77249">
        <ele>680</ele>
        <time>2021-08-06T08:51:49.308Z</time>
      </trkpt>
      <trkpt lat="46.97047" lon="8.77249">
        <ele>681</ele>
        <time>2021-08-06T08:51:50.309Z</time>
      </trkpt>
      <trkpt lat="46.97046" lon="8.77249">
        <ele>682</ele>
        <time>2021-08-06T08:51:51.308Z</time>
      </trkpt>
      <trkpt lat="46.97046" lon="8.7725">
        <ele>682</ele>
        <time>2021-08-06T08:51:52.308Z</time>
      </trkpt>
      <trkpt lat="46.97045" lon="8.7725">
        <ele>682</ele>
        <time>2021-08-06T08:51:53.309Z</time>
      </trkpt>
      <trkpt lat="46.97045" lon="8.77251">
        <ele>682</ele>
        <time>2021-08-06T08:51:54.308Z</time>
      </trkpt>
      <trkpt lat="46.97044" lon="8.77252">
        <ele>682</ele>
        <time>2021-08-06T08:51:55.309Z</time>
      </trkpt>
      <trkpt lat="46.97044" lon="8.77253">
        <ele>682</ele>
        <time>2021-08-06T08:51:56.309Z</time>
      </trkpt>
      <trkpt lat="46.97044" lon="8.77253">
        <ele>682</ele>
        <time>2021-08-06T08:51:57.309Z</time>
      </trkpt>
      <trkpt lat="46.97043" lon="8.77254">
        <ele>682</ele>
        <time>2021-08-06T08:51:58.309Z</time>
      </trkpt>
      <trkpt lat="46.97043" lon="8.77254">
        <ele>682</ele>
        <time>2021-08-06T08:51:59.308Z</time>
      </trkpt>
      <trkpt lat="46.97042" lon="8.77255">
        <ele>682</ele>
        <time>2021-08-06T08:52:00.309Z</time>
      </trkpt>
      <trkpt lat="46.97042" lon="8.77255">
        <ele>682</ele>
        <time>2021-08-06T08:52:01.309Z</time>
      </trkpt>
      <trkpt lat="46.97042" lon="8.77256">
        <ele>682</ele>
        <time>2021-08-06T08:52:02.308Z</time>
      </trkpt>
      <trkpt lat="46.97042" lon="8.77256">
        <ele>681</ele>
        <time>2021-08-06T08:52:03.309Z</time>
      </trkpt>
      <trkpt lat="46.97041" lon="8.77257">
        <ele>681</ele>
        <time>2021-08-06T08:52:04.309Z</time>
      </trkpt>
      <trkpt lat="46.97041" lon="8.77257">
        <ele>681</ele>
        <time>2021-08-06T08:52:05.309Z</time>
      </trkpt>
      <trkpt lat="46.97041" lon="8.77258">
        <ele>680</ele>
        <time>2021-08-06T08:52:06.308Z</time>
      </trkpt>
      <trkpt lat="46.97041" lon="8.77259">
        <ele>679</ele>
        <time>2021-08-06T08:52:07.309Z</time>
      </trkpt>
      <trkpt lat="46.9704" lon="8.77259">
        <ele>679</ele>
        <time>2021-08-06T08:52:08.309Z</time>
      </trkpt>
      <trkpt lat="46.9704" lon="8.7726">
        <ele>679</ele>
        <time>2021-08-06T08:52:09.309Z</time>
      </trkpt>
      <trkpt lat="46.97039" lon="8.7726">
        <ele>679</ele>
        <time>2021-08-06T08:52:10.309Z</time>
      </trkpt>
      <trkpt lat="46.97039" lon="8.77261">
        <ele>679</ele>
        <time>2021-08-06T08:52:11.308Z</time>
      </trkpt>
      <trkpt lat="46.97039" lon="8.77262">
        <ele>680</ele>
        <time>2021-08-06T08:52:12.309Z</time>
      </trkpt>
      <trkpt lat="46.97038" lon="8.77262">
        <ele>680</ele>
        <time>2021-08-06T08:52:13.309Z</time>
      </trkpt>
      <trkpt lat="46.97038" lon="8.77263">
        <ele>681</ele>
        <time>2021-08-06T08:52:14.308Z</time>
      </trkpt>
      <trkpt lat="46.97037" lon="8.77263">
        <ele>681</ele>
        <time>2021-08-06T08:52:15.309Z</time>
      </trkpt>
      <trkpt lat="46.97037" lon="8.77263">
        <ele>682</ele>
        <time>2021-08-06T08:52:16.308Z</time>
      </trkpt>
      <trkpt lat="46.97037" lon="8.77263">
        <ele>682</ele>
        <time>2021-08-06T08:52:17.308Z</time>
      </trkpt>
      <trkpt lat="46.97036" lon="8.77264">
        <ele>682</ele>
        <time>2021-08-06T08:52:18.309Z</time>
      </trkpt>
      <trkpt lat="46.97036" lon="8.77264">
        <ele>683</ele>
        <time>2021-08-06T08:52:19.309Z</time>
      </trkpt>
      <trkpt lat="46.97036" lon="8.77264">
        <ele>684</ele>
        <time>2021-08-06T08:52:20.309Z</time>
      </trkpt>
      <trkpt lat="46.97035" lon="8.77264">
        <ele>684</ele>
        <time>2021-08-06T08:52:21.308Z</time>
      </trkpt>
      <trkpt lat="46.97035" lon="8.77263">
        <ele>685</ele>
        <time>2021-08-06T08:52:22.309Z</time>
      </trkpt>
      <trkpt lat="46.97034" lon="8.77263">
        <ele>685</ele>
        <time>2021-08-06T08:52:23.309Z</time>
      </trkpt>
      <trkpt lat="46.97034" lon="8.77263">
        <ele>686</ele>
        <time>2021-08-06T08:52:24.309Z</time>
      </trkpt>
      <trkpt lat="46.97034" lon="8.77263">
        <ele>686</ele>
        <time>2021-08-06T08:52:25.308Z</time>
      </trkpt>
      <trkpt lat="46.97033" lon="8.77263">
        <ele>686</ele>
        <time>2021-08-06T08:52:26.308Z</time>
      </trkpt>
      <trkpt lat="46.97033" lon="8.77263">
        <ele>686</ele>
        <time>2021-08-06T08:52:27.308Z</time>
      </trkpt>
      <trkpt lat="46.97032" lon="8.77263">
        <ele>686</ele>
        <time>2021-08-06T08:52:28.308Z</time>
      </trkpt>
      <trkpt lat="46.97032" lon="8.77263">
        <ele>685</ele>
        <time>2021-08-06T08:52:29.308Z</time>
      </trkpt>
      <trkpt lat="46.97032" lon="8.77264">
        <ele>686</ele>
        <time>2021-08-06T08:52:30.308Z</time>
      </trkpt>
      <trkpt lat="46.97032" lon="8.77265">
        <ele>686</ele>
        <time>2021-08-06T08:52:31.308Z</time>
      </trkpt>
      <trkpt lat="46.97031" lon="8.77266">
        <ele>686</ele>
        <time>2021-08-06T08:52:32.308Z</time>
      </trkpt>
      <trkpt lat="46.97031" lon="8.77266">
        <ele>686</ele>
        <time>2021-08-06T08:52:33.308Z</time>
      </trkpt>
      <trkpt lat="46.9703" lon="8.77267">
        <ele>686</ele>
        <time>2021-08-06T08:52:34.308Z</time>
      </trkpt>
      <trkpt lat="46.97029" lon="8.77267">
        <ele>686</ele>
        <time>2021-08-06T08:52:35.308Z</time>
      </trkpt>
      <trkpt lat="46.97029" lon="8.77268">
        <ele>686</ele>
        <time>2021-08-06T08:52:36.308Z</time>
      </trkpt>
      <trkpt lat="46.97029" lon="8.77268">
        <ele>686</ele>
        <time>2021-08-06T08:52:37.308Z</time>
      </trkpt>
      <trkpt lat="46.97029" lon="8.7727">
        <ele>686</ele>
        <time>2021-08-06T08:52:38.308Z</time>
      </trkpt>
      <trkpt lat="46.97028" lon="8.77271">
        <ele>687</ele>
        <time>2021-08-06T08:52:39.308Z</time>
      </trkpt>
      <trkpt lat="46.97029" lon="8.77272">
        <ele>687</ele>
        <time>2021-08-06T08:52:40.308Z</time>
      </trkpt>
      <trkpt lat="46.97029" lon="8.77273">
        <ele>688</ele>
        <time>2021-08-06T08:52:41.308Z</time>
      </trkpt>
      <trkpt lat="46.97028" lon="8.77274">
        <ele>688</ele>
        <time>2021-08-06T08:52:42.308Z</time>
      </trkpt>
      <trkpt lat="46.97028" lon="8.77275">
        <ele>688</ele>
        <time>2021-08-06T08:52:43.308Z</time>
      </trkpt>
      <trkpt lat="46.97028" lon="8.77276">
        <ele>688</ele>
        <time>2021-08-06T08:52:44.308Z</time>
      </trkpt>
      <trkpt lat="46.97027" lon="8.77277">
        <ele>688</ele>
        <time>2021-08-06T08:52:45.308Z</time>
      </trkpt>
      <trkpt lat="46.97027" lon="8.77278">
        <ele>689</ele>
        <time>2021-08-06T08:52:46.308Z</time>
      </trkpt>
      <trkpt lat="46.97027" lon="8.77281">
        <ele>689</ele>
        <time>2021-08-06T08:52:47.308Z</time>
      </trkpt>
      <trkpt lat="46.97028" lon="8.77282">
        <ele>689</ele>
        <time>2021-08-06T08:52:48.308Z</time>
      </trkpt>
      <trkpt lat="46.97027" lon="8.77282">
        <ele>689</ele>
        <time>2021-08-06T08:52:49.308Z</time>
      </trkpt>
      <trkpt lat="46.97026" lon="8.77282">
        <ele>689</ele>
        <time>2021-08-06T08:52:50.308Z</time>
      </trkpt>
      <trkpt lat="46.97026" lon="8.77282">
        <ele>689</ele>
        <time>2021-08-06T08:52:51.308Z</time>
      </trkpt>
      <trkpt lat="46.97025" lon="8.77282">
        <ele>689</ele>
        <time>2021-08-06T08:52:52.308Z</time>
      </trkpt>
      <trkpt lat="46.97025" lon="8.77282">
        <ele>689</ele>
        <time>2021-08-06T08:52:53.308Z</time>
      </trkpt>
      <trkpt lat="46.97025" lon="8.77282">
        <ele>689</ele>
        <time>2021-08-06T08:52:54.308Z</time>
      </trkpt>
      <trkpt lat="46.97024" lon="8.77282">
        <ele>690</ele>
        <time>2021-08-06T08:52:55.308Z</time>
      </trkpt>
      <trkpt lat="46.97024" lon="8.77282">
        <ele>690</ele>
        <time>2021-08-06T08:52:56.308Z</time>
      </trkpt>
      <trkpt lat="46.97023" lon="8.77283">
        <ele>689</ele>
        <time>2021-08-06T08:52:57.308Z</time>
      </trkpt>
      <trkpt lat="46.97024" lon="8.77283">
        <ele>689</ele>
        <time>2021-08-06T08:52:58.308Z</time>
      </trkpt>
      <trkpt lat="46.97024" lon="8.77284">
        <ele>689</ele>
        <time>2021-08-06T08:52:59.308Z</time>
      </trkpt>
      <trkpt lat="46.97023" lon="8.77284">
        <ele>689</ele>
        <time>2021-08-06T08:53:00.308Z</time>
      </trkpt>
      <trkpt lat="46.97023" lon="8.77283">
        <ele>690</ele>
        <time>2021-08-06T08:53:01.308Z</time>
      </trkpt>
      <trkpt lat="46.97022" lon="8.77284">
        <ele>690</ele>
        <time>2021-08-06T08:53:02.308Z</time>
      </trkpt>
      <trkpt lat="46.97022" lon="8.77284">
        <ele>690</ele>
        <time>2021-08-06T08:53:03.308Z</time>
      </trkpt>
      <trkpt lat="46.97022" lon="8.77284">
        <ele>690</ele>
        <time>2021-08-06T08:53:04.308Z</time>
      </trkpt>
      <trkpt lat="46.97021" lon="8.77285">
        <ele>690</ele>
        <time>2021-08-06T08:53:05.308Z</time>
      </trkpt>
      <trkpt lat="46.9702" lon="8.77286">
        <ele>690</ele>
        <time>2021-08-06T08:53:06.308Z</time>
      </trkpt>
      <trkpt lat="46.97019" lon="8.77286">
        <ele>690</ele>
        <time>2021-08-06T08:53:07.308Z</time>
      </trkpt>
      <trkpt lat="46.97019" lon="8.77287">
        <ele>690</ele>
        <time>2021-08-06T08:53:08.308Z</time>
      </trkpt>
      <trkpt lat="46.97018" lon="8.77289">
        <ele>689</ele>
        <time>2021-08-06T08:53:09.308Z</time>
      </trkpt>
      <trkpt lat="46.97018" lon="8.7729">
        <ele>689</ele>
        <time>2021-08-06T08:53:10.308Z</time>
      </trkpt>
      <trkpt lat="46.97017" lon="8.77291">
        <ele>688</ele>
        <time>2021-08-06T08:53:11.308Z</time>
      </trkpt>
      <trkpt lat="46.97017" lon="8.77292">
        <ele>688</ele>
        <time>2021-08-06T08:53:12.308Z</time>
      </trkpt>
      <trkpt lat="46.97016" lon="8.77293">
        <ele>688</ele>
        <time>2021-08-06T08:53:13.308Z</time>
      </trkpt>
      <trkpt lat="46.97016" lon="8.77293">
        <ele>688</ele>
        <time>2021-08-06T08:53:14.308Z</time>
      </trkpt>
      <trkpt lat="46.97016" lon="8.77294">
        <ele>688</ele>
        <time>2021-08-06T08:53:15.308Z</time>
      </trkpt>
      <trkpt lat="46.97015" lon="8.77295">
        <ele>688</ele>
        <time>2021-08-06T08:53:16.308Z</time>
      </trkpt>
      <trkpt lat="46.97018" lon="8.77292">
        <ele>689</ele>
        <time>2021-08-06T08:53:17.308Z</time>
      </trkpt>
      <trkpt lat="46.97018" lon="8.77291">
        <ele>690</ele>
        <time>2021-08-06T08:53:18.308Z</time>
      </trkpt>
      <trkpt lat="46.97018" lon="8.77291">
        <ele>691</ele>
        <time>2021-08-06T08:53:19.309Z</time>
      </trkpt>
      <trkpt lat="46.97018" lon="8.77291">
        <ele>692</ele>
        <time>2021-08-06T08:53:20.309Z</time>
      </trkpt>
      <trkpt lat="46.97018" lon="8.77291">
        <ele>693</ele>
        <time>2021-08-06T08:53:21.308Z</time>
      </trkpt>
      <trkpt lat="46.97017" lon="8.77291">
        <ele>693</ele>
        <time>2021-08-06T08:53:22.308Z</time>
      </trkpt>
      <trkpt lat="46.97016" lon="8.77292">
        <ele>693</ele>
        <time>2021-08-06T08:53:23.308Z</time>
      </trkpt>
      <trkpt lat="46.97016" lon="8.77291">
        <ele>694</ele>
        <time>2021-08-06T08:53:24.308Z</time>
      </trkpt>
      <trkpt lat="46.97016" lon="8.77292">
        <ele>691</ele>
        <time>2021-08-06T08:53:25.309Z</time>
      </trkpt>
      <trkpt lat="46.97016" lon="8.77293">
        <ele>690</ele>
        <time>2021-08-06T08:53:26.308Z</time>
      </trkpt>
      <trkpt lat="46.97016" lon="8.77294">
        <ele>689</ele>
        <time>2021-08-06T08:53:27.309Z</time>
      </trkpt>
      <trkpt lat="46.97015" lon="8.77295">
        <ele>689</ele>
        <time>2021-08-06T08:53:28.309Z</time>
      </trkpt>
      <trkpt lat="46.97015" lon="8.77297">
        <ele>688</ele>
        <time>2021-08-06T08:53:29.308Z</time>
      </trkpt>
      <trkpt lat="46.97014" lon="8.77299">
        <ele>688</ele>
        <time>2021-08-06T08:53:30.308Z</time>
      </trkpt>
      <trkpt lat="46.97014" lon="8.773">
        <ele>688</ele>
        <time>2021-08-06T08:53:31.309Z</time>
      </trkpt>
      <trkpt lat="46.97012" lon="8.77301">
        <ele>688</ele>
        <time>2021-08-06T08:53:32.308Z</time>
      </trkpt>
      <trkpt lat="46.97011" lon="8.77301">
        <ele>688</ele>
        <time>2021-08-06T08:53:33.309Z</time>
      </trkpt>
      <trkpt lat="46.97011" lon="8.77302">
        <ele>688</ele>
        <time>2021-08-06T08:53:34.308Z</time>
      </trkpt>
      <trkpt lat="46.9701" lon="8.77304">
        <ele>687</ele>
        <time>2021-08-06T08:53:35.309Z</time>
      </trkpt>
      <trkpt lat="46.9701" lon="8.77305">
        <ele>687</ele>
        <time>2021-08-06T08:53:36.309Z</time>
      </trkpt>
      <trkpt lat="46.97009" lon="8.77305">
        <ele>687</ele>
        <time>2021-08-06T08:53:37.309Z</time>
      </trkpt>
      <trkpt lat="46.97008" lon="8.77306">
        <ele>687</ele>
        <time>2021-08-06T08:53:38.309Z</time>
      </trkpt>
      <trkpt lat="46.97007" lon="8.77307">
        <ele>688</ele>
        <time>2021-08-06T08:53:39.308Z</time>
      </trkpt>
      <trkpt lat="46.97007" lon="8.77308">
        <ele>688</ele>
        <time>2021-08-06T08:53:40.308Z</time>
      </trkpt>
      <trkpt lat="46.97006" lon="8.77308">
        <ele>688</ele>
        <time>2021-08-06T08:53:41.308Z</time>
      </trkpt>
      <trkpt lat="46.97006" lon="8.77307">
        <ele>688</ele>
        <time>2021-08-06T08:53:42.309Z</time>
      </trkpt>
      <trkpt lat="46.97005" lon="8.77307">
        <ele>688</ele>
        <time>2021-08-06T08:53:43.309Z</time>
      </trkpt>
      <trkpt lat="46.97005" lon="8.77307">
        <ele>688</ele>
        <time>2021-08-06T08:53:44.309Z</time>
      </trkpt>
      <trkpt lat="46.97004" lon="8.77307">
        <ele>688</ele>
        <time>2021-08-06T08:53:45.309Z</time>
      </trkpt>
      <trkpt lat="46.97003" lon="8.77307">
        <ele>688</ele>
        <time>2021-08-06T08:53:46.309Z</time>
      </trkpt>
      <trkpt lat="46.97003" lon="8.77308">
        <ele>688</ele>
        <time>2021-08-06T08:53:47.309Z</time>
      </trkpt>
      <trkpt lat="46.97002" lon="8.77308">
        <ele>688</ele>
        <time>2021-08-06T08:53:48.308Z</time>
      </trkpt>
      <trkpt lat="46.97001" lon="8.77308">
        <ele>688</ele>
        <time>2021-08-06T08:53:49.308Z</time>
      </trkpt>
      <trkpt lat="46.97" lon="8.77308">
        <ele>689</ele>
        <time>2021-08-06T08:53:50.308Z</time>
      </trkpt>
      <trkpt lat="46.97" lon="8.77308">
        <ele>689</ele>
        <time>2021-08-06T08:53:51.309Z</time>
      </trkpt>
      <trkpt lat="46.96999" lon="8.77308">
        <ele>690</ele>
        <time>2021-08-06T08:53:52.309Z</time>
      </trkpt>
      <trkpt lat="46.96999" lon="8.77309">
        <ele>691</ele>
        <time>2021-08-06T08:53:53.309Z</time>
      </trkpt>
      <trkpt lat="46.96998" lon="8.77309">
        <ele>691</ele>
        <time>2021-08-06T08:53:54.309Z</time>
      </trkpt>
      <trkpt lat="46.96997" lon="8.7731">
        <ele>692</ele>
        <time>2021-08-06T08:53:55.309Z</time>
      </trkpt>
      <trkpt lat="46.96997" lon="8.7731">
        <ele>693</ele>
        <time>2021-08-06T08:53:56.309Z</time>
      </trkpt>
      <trkpt lat="46.96996" lon="8.77311">
        <ele>694</ele>
        <time>2021-08-06T08:53:57.308Z</time>
      </trkpt>
      <trkpt lat="46.96996" lon="8.77311">
        <ele>694</ele>
        <time>2021-08-06T08:53:58.309Z</time>
      </trkpt>
      <trkpt lat="46.96995" lon="8.77311">
        <ele>695</ele>
        <time>2021-08-06T08:53:59.308Z</time>
      </trkpt>
      <trkpt lat="46.96994" lon="8.77312">
        <ele>695</ele>
        <time>2021-08-06T08:54:00.308Z</time>
      </trkpt>
      <trkpt lat="46.96994" lon="8.77312">
        <ele>696</ele>
        <time>2021-08-06T08:54:01.309Z</time>
      </trkpt>
      <trkpt lat="46.96993" lon="8.77313">
        <ele>696</ele>
        <time>2021-08-06T08:54:02.309Z</time>
      </trkpt>
      <trkpt lat="46.96993" lon="8.77313">
        <ele>697</ele>
        <time>2021-08-06T08:54:03.309Z</time>
      </trkpt>
      <trkpt lat="46.96992" lon="8.77314">
        <ele>698</ele>
        <time>2021-08-06T08:54:04.309Z</time>
      </trkpt>
      <trkpt lat="46.96991" lon="8.77314">
        <ele>698</ele>
        <time>2021-08-06T08:54:05.308Z</time>
      </trkpt>
      <trkpt lat="46.96991" lon="8.77314">
        <ele>698</ele>
        <time>2021-08-06T08:54:06.309Z</time>
      </trkpt>
      <trkpt lat="46.9699" lon="8.77314">
        <ele>699</ele>
        <time>2021-08-06T08:54:07.309Z</time>
      </trkpt>
      <trkpt lat="46.96989" lon="8.77315">
        <ele>699</ele>
        <time>2021-08-06T08:54:08.309Z</time>
      </trkpt>
      <trkpt lat="46.96989" lon="8.77315">
        <ele>699</ele>
        <time>2021-08-06T08:54:09.309Z</time>
      </trkpt>
      <trkpt lat="46.96988" lon="8.77315">
        <ele>699</ele>
        <time>2021-08-06T08:54:10.308Z</time>
      </trkpt>
      <trkpt lat="46.96988" lon="8.77315">
        <ele>699</ele>
        <time>2021-08-06T08:54:11.309Z</time>
      </trkpt>
      <trkpt lat="46.96988" lon="8.77316">
        <ele>698</ele>
        <time>2021-08-06T08:54:12.309Z</time>
      </trkpt>
      <trkpt lat="46.96988" lon="8.77317">
        <ele>698</ele>
        <time>2021-08-06T08:54:13.309Z</time>
      </trkpt>
      <trkpt lat="46.96987" lon="8.77317">
        <ele>699</ele>
        <time>2021-08-06T08:54:14.308Z</time>
      </trkpt>
      <trkpt lat="46.96986" lon="8.77318">
        <ele>699</ele>
        <time>2021-08-06T08:54:15.309Z</time>
      </trkpt>
      <trkpt lat="46.96985" lon="8.77318">
        <ele>699</ele>
        <time>2021-08-06T08:54:16.309Z</time>
      </trkpt>
      <trkpt lat="46.96984" lon="8.77319">
        <ele>699</ele>
        <time>2021-08-06T08:54:17.309Z</time>
      </trkpt>
      <trkpt lat="46.96983" lon="8.77319">
        <ele>700</ele>
        <time>2021-08-06T08:54:18.308Z</time>
      </trkpt>
      <trkpt lat="46.96983" lon="8.7732">
        <ele>700</ele>
        <time>2021-08-06T08:54:19.309Z</time>
      </trkpt>
      <trkpt lat="46.96982" lon="8.77321">
        <ele>700</ele>
        <time>2021-08-06T08:54:20.308Z</time>
      </trkpt>
      <trkpt lat="46.96982" lon="8.77321">
        <ele>700</ele>
        <time>2021-08-06T08:54:21.309Z</time>
      </trkpt>
      <trkpt lat="46.96982" lon="8.77322">
        <ele>699</ele>
        <time>2021-08-06T08:54:22.309Z</time>
      </trkpt>
      <trkpt lat="46.96981" lon="8.77323">
        <ele>699</ele>
        <time>2021-08-06T08:54:23.308Z</time>
      </trkpt>
      <trkpt lat="46.9698" lon="8.77323">
        <ele>699</ele>
        <time>2021-08-06T08:54:24.308Z</time>
      </trkpt>
      <trkpt lat="46.96979" lon="8.77323">
        <ele>699</ele>
        <time>2021-08-06T08:54:25.309Z</time>
      </trkpt>
      <trkpt lat="46.96979" lon="8.77324">
        <ele>699</ele>
        <time>2021-08-06T08:54:26.308Z</time>
      </trkpt>
      <trkpt lat="46.96979" lon="8.77324">
        <ele>699</ele>
        <time>2021-08-06T08:54:27.309Z</time>
      </trkpt>
      <trkpt lat="46.96979" lon="8.77323">
        <ele>698</ele>
        <time>2021-08-06T08:54:28.308Z</time>
      </trkpt>
      <trkpt lat="46.96979" lon="8.77323">
        <ele>698</ele>
        <time>2021-08-06T08:54:29.308Z</time>
      </trkpt>
      <trkpt lat="46.96978" lon="8.77322">
        <ele>698</ele>
        <time>2021-08-06T08:54:30.308Z</time>
      </trkpt>
      <trkpt lat="46.96977" lon="8.77321">
        <ele>698</ele>
        <time>2021-08-06T08:54:31.309Z</time>
      </trkpt>
      <trkpt lat="46.96976" lon="8.77321">
        <ele>698</ele>
        <time>2021-08-06T08:54:32.309Z</time>
      </trkpt>
      <trkpt lat="46.96976" lon="8.7732">
        <ele>698</ele>
        <time>2021-08-06T08:54:33.309Z</time>
      </trkpt>
      <trkpt lat="46.96975" lon="8.7732">
        <ele>698</ele>
        <time>2021-08-06T08:54:34.309Z</time>
      </trkpt>
      <trkpt lat="46.96974" lon="8.77321">
        <ele>699</ele>
        <time>2021-08-06T08:54:35.309Z</time>
      </trkpt>
      <trkpt lat="46.96973" lon="8.77322">
        <ele>699</ele>
        <time>2021-08-06T08:54:36.308Z</time>
      </trkpt>
      <trkpt lat="46.96973" lon="8.77322">
        <ele>699</ele>
        <time>2021-08-06T08:54:37.308Z</time>
      </trkpt>
      <trkpt lat="46.96972" lon="8.77323">
        <ele>699</ele>
        <time>2021-08-06T08:54:38.309Z</time>
      </trkpt>
      <trkpt lat="46.96972" lon="8.77323">
        <ele>699</ele>
        <time>2021-08-06T08:54:39.309Z</time>
      </trkpt>
      <trkpt lat="46.96971" lon="8.77323">
        <ele>699</ele>
        <time>2021-08-06T08:54:40.309Z</time>
      </trkpt>
      <trkpt lat="46.9697" lon="8.77324">
        <ele>699</ele>
        <time>2021-08-06T08:54:41.309Z</time>
      </trkpt>
      <trkpt lat="46.9697" lon="8.77324">
        <ele>699</ele>
        <time>2021-08-06T08:54:42.308Z</time>
      </trkpt>
      <trkpt lat="46.96969" lon="8.77324">
        <ele>699</ele>
        <time>2021-08-06T08:54:43.309Z</time>
      </trkpt>
      <trkpt lat="46.96968" lon="8.77323">
        <ele>699</ele>
        <time>2021-08-06T08:54:44.309Z</time>
      </trkpt>
      <trkpt lat="46.96967" lon="8.77323">
        <ele>700</ele>
        <time>2021-08-06T08:54:45.308Z</time>
      </trkpt>
      <trkpt lat="46.96967" lon="8.77323">
        <ele>700</ele>
        <time>2021-08-06T08:54:46.308Z</time>
      </trkpt>
      <trkpt lat="46.96966" lon="8.77323">
        <ele>700</ele>
        <time>2021-08-06T08:54:47.308Z</time>
      </trkpt>
      <trkpt lat="46.96966" lon="8.77323">
        <ele>700</ele>
        <time>2021-08-06T08:54:48.309Z</time>
      </trkpt>
      <trkpt lat="46.96966" lon="8.77323">
        <ele>701</ele>
        <time>2021-08-06T08:54:49.308Z</time>
      </trkpt>
      <trkpt lat="46.96966" lon="8.77322">
        <ele>700</ele>
        <time>2021-08-06T08:54:50.308Z</time>
      </trkpt>
      <trkpt lat="46.96965" lon="8.77316">
        <ele>699</ele>
        <time>2021-08-06T08:54:51.310Z</time>
      </trkpt>
      <trkpt lat="46.96965" lon="8.77315">
        <ele>698</ele>
        <time>2021-08-06T08:54:52.310Z</time>
      </trkpt>
      <trkpt lat="46.96962" lon="8.77317">
        <ele>697</ele>
        <time>2021-08-06T08:54:53.310Z</time>
      </trkpt>
      <trkpt lat="46.96961" lon="8.77317">
        <ele>698</ele>
        <time>2021-08-06T08:54:54.310Z</time>
      </trkpt>
      <trkpt lat="46.96961" lon="8.77319">
        <ele>699</ele>
        <time>2021-08-06T08:54:55.310Z</time>
      </trkpt>
      <trkpt lat="46.96961" lon="8.7732">
        <ele>700</ele>
        <time>2021-08-06T08:54:56.310Z</time>
      </trkpt>
      <trkpt lat="46.96962" lon="8.77324">
        <ele>701</ele>
        <time>2021-08-06T08:54:57.311Z</time>
      </trkpt>
      <trkpt lat="46.96962" lon="8.77325">
        <ele>701</ele>
        <time>2021-08-06T08:54:58.312Z</time>
      </trkpt>
      <trkpt lat="46.96962" lon="8.77325">
        <ele>702</ele>
        <time>2021-08-06T08:54:59.312Z</time>
      </trkpt>
      <trkpt lat="46.96962" lon="8.77326">
        <ele>702</ele>
        <time>2021-08-06T08:55:00.311Z</time>
      </trkpt>
      <trkpt lat="46.96962" lon="8.77327">
        <ele>702</ele>
        <time>2021-08-06T08:55:01.312Z</time>
      </trkpt>
      <trkpt lat="46.96961" lon="8.77327">
        <ele>702</ele>
        <time>2021-08-06T08:55:02.312Z</time>
      </trkpt>
      <trkpt lat="46.96961" lon="8.77328">
        <ele>702</ele>
        <time>2021-08-06T08:55:03.312Z</time>
      </trkpt>
      <trkpt lat="46.9696" lon="8.77328">
        <ele>702</ele>
        <time>2021-08-06T08:55:04.311Z</time>
      </trkpt>
      <trkpt lat="46.9696" lon="8.77329">
        <ele>702</ele>
        <time>2021-08-06T08:55:05.312Z</time>
      </trkpt>
      <trkpt lat="46.9696" lon="8.7733">
        <ele>703</ele>
        <time>2021-08-06T08:55:06.311Z</time>
      </trkpt>
      <trkpt lat="46.96959" lon="8.77331">
        <ele>703</ele>
        <time>2021-08-06T08:55:07.311Z</time>
      </trkpt>
      <trkpt lat="46.96959" lon="8.77332">
        <ele>703</ele>
        <time>2021-08-06T08:55:08.311Z</time>
      </trkpt>
      <trkpt lat="46.96959" lon="8.77332">
        <ele>703</ele>
        <time>2021-08-06T08:55:09.312Z</time>
      </trkpt>
      <trkpt lat="46.96958" lon="8.77334">
        <ele>703</ele>
        <time>2021-08-06T08:55:10.311Z</time>
      </trkpt>
      <trkpt lat="46.96958" lon="8.77335">
        <ele>704</ele>
        <time>2021-08-06T08:55:11.312Z</time>
      </trkpt>
      <trkpt lat="46.96957" lon="8.77335">
        <ele>704</ele>
        <time>2021-08-06T08:55:12.312Z</time>
      </trkpt>
      <trkpt lat="46.96957" lon="8.77336">
        <ele>704</ele>
        <time>2021-08-06T08:55:13.311Z</time>
      </trkpt>
      <trkpt lat="46.96957" lon="8.77337">
        <ele>704</ele>
        <time>2021-08-06T08:55:14.312Z</time>
      </trkpt>
      <trkpt lat="46.96957" lon="8.77337">
        <ele>704</ele>
        <time>2021-08-06T08:55:15.312Z</time>
      </trkpt>
      <trkpt lat="46.96956" lon="8.77338">
        <ele>705</ele>
        <time>2021-08-06T08:55:16.311Z</time>
      </trkpt>
      <trkpt lat="46.96956" lon="8.7734">
        <ele>705</ele>
        <time>2021-08-06T08:55:17.311Z</time>
      </trkpt>
      <trkpt lat="46.96956" lon="8.7734">
        <ele>706</ele>
        <time>2021-08-06T08:55:18.312Z</time>
      </trkpt>
      <trkpt lat="46.96956" lon="8.77341">
        <ele>706</ele>
        <time>2021-08-06T08:55:19.311Z</time>
      </trkpt>
      <trkpt lat="46.96955" lon="8.77341">
        <ele>707</ele>
        <time>2021-08-06T08:55:20.312Z</time>
      </trkpt>
      <trkpt lat="46.96955" lon="8.77342">
        <ele>707</ele>
        <time>2021-08-06T08:55:21.312Z</time>
      </trkpt>
      <trkpt lat="46.96955" lon="8.77342">
        <ele>708</ele>
        <time>2021-08-06T08:55:22.312Z</time>
      </trkpt>
      <trkpt lat="46.96954" lon="8.77342">
        <ele>708</ele>
        <time>2021-08-06T08:55:23.312Z</time>
      </trkpt>
      <trkpt lat="46.96954" lon="8.77342">
        <ele>708</ele>
        <time>2021-08-06T08:55:24.312Z</time>
      </trkpt>
      <trkpt lat="46.96953" lon="8.77342">
        <ele>708</ele>
        <time>2021-08-06T08:55:25.311Z</time>
      </trkpt>
      <trkpt lat="46.96953" lon="8.77342">
        <ele>708</ele>
        <time>2021-08-06T08:55:26.312Z</time>
      </trkpt>
      <trkpt lat="46.96952" lon="8.77343">
        <ele>708</ele>
        <time>2021-08-06T08:55:27.312Z</time>
      </trkpt>
      <trkpt lat="46.96952" lon="8.77343">
        <ele>708</ele>
        <time>2021-08-06T08:55:28.311Z</time>
      </trkpt>
      <trkpt lat="46.96952" lon="8.77344">
        <ele>708</ele>
        <time>2021-08-06T08:55:29.311Z</time>
      </trkpt>
      <trkpt lat="46.96951" lon="8.77345">
        <ele>709</ele>
        <time>2021-08-06T08:55:30.312Z</time>
      </trkpt>
      <trkpt lat="46.96951" lon="8.77345">
        <ele>709</ele>
        <time>2021-08-06T08:55:31.311Z</time>
      </trkpt>
      <trkpt lat="46.96951" lon="8.77345">
        <ele>709</ele>
        <time>2021-08-06T08:55:32.311Z</time>
      </trkpt>
      <trkpt lat="46.96951" lon="8.77345">
        <ele>709</ele>
        <time>2021-08-06T08:55:33.312Z</time>
      </trkpt>
      <trkpt lat="46.96951" lon="8.77346">
        <ele>709</ele>
        <time>2021-08-06T08:55:34.312Z</time>
      </trkpt>
      <trkpt lat="46.96951" lon="8.77347">
        <ele>709</ele>
        <time>2021-08-06T08:55:35.312Z</time>
      </trkpt>
      <trkpt lat="46.96951" lon="8.77347">
        <ele>709</ele>
        <time>2021-08-06T08:55:36.312Z</time>
      </trkpt>
      <trkpt lat="46.96951" lon="8.77347">
        <ele>709</ele>
        <time>2021-08-06T08:55:37.312Z</time>
      </trkpt>
      <trkpt lat="46.9695" lon="8.77348">
        <ele>709</ele>
        <time>2021-08-06T08:55:38.311Z</time>
      </trkpt>
      <trkpt lat="46.9695" lon="8.77348">
        <ele>710</ele>
        <time>2021-08-06T08:55:39.312Z</time>
      </trkpt>
      <trkpt lat="46.9695" lon="8.77349">
        <ele>709</ele>
        <time>2021-08-06T08:55:40.312Z</time>
      </trkpt>
      <trkpt lat="46.9695" lon="8.77349">
        <ele>709</ele>
        <time>2021-08-06T08:55:41.312Z</time>
      </trkpt>
      <trkpt lat="46.96949" lon="8.7735">
        <ele>709</ele>
        <time>2021-08-06T08:55:42.312Z</time>
      </trkpt>
      <trkpt lat="46.96949" lon="8.7735">
        <ele>709</ele>
        <time>2021-08-06T08:55:43.311Z</time>
      </trkpt>
      <trkpt lat="46.96949" lon="8.7735">
        <ele>709</ele>
        <time>2021-08-06T08:55:44.312Z</time>
      </trkpt>
      <trkpt lat="46.96948" lon="8.7735">
        <ele>710</ele>
        <time>2021-08-06T08:55:45.312Z</time>
      </trkpt>
      <trkpt lat="46.96947" lon="8.7735">
        <ele>710</ele>
        <time>2021-08-06T08:55:46.312Z</time>
      </trkpt>
      <trkpt lat="46.96947" lon="8.7735">
        <ele>710</ele>
        <time>2021-08-06T08:55:47.312Z</time>
      </trkpt>
      <trkpt lat="46.96946" lon="8.7735">
        <ele>710</ele>
        <time>2021-08-06T08:55:48.312Z</time>
      </trkpt>
      <trkpt lat="46.96946" lon="8.77349">
        <ele>710</ele>
        <time>2021-08-06T08:55:49.312Z</time>
      </trkpt>
      <trkpt lat="46.96946" lon="8.77349">
        <ele>710</ele>
        <time>2021-08-06T08:55:50.312Z</time>
      </trkpt>
      <trkpt lat="46.96945" lon="8.77348">
        <ele>710</ele>
        <time>2021-08-06T08:55:51.312Z</time>
      </trkpt>
      <trkpt lat="46.96944" lon="8.77348">
        <ele>710</ele>
        <time>2021-08-06T08:55:52.312Z</time>
      </trkpt>
      <trkpt lat="46.96943" lon="8.77347">
        <ele>710</ele>
        <time>2021-08-06T08:55:53.311Z</time>
      </trkpt>
      <trkpt lat="46.96943" lon="8.77347">
        <ele>711</ele>
        <time>2021-08-06T08:55:54.311Z</time>
      </trkpt>
      <trkpt lat="46.96942" lon="8.77347">
        <ele>711</ele>
        <time>2021-08-06T08:55:55.312Z</time>
      </trkpt>
      <trkpt lat="46.96942" lon="8.77346">
        <ele>712</ele>
        <time>2021-08-06T08:55:56.312Z</time>
      </trkpt>
      <trkpt lat="46.96941" lon="8.77345">
        <ele>712</ele>
        <time>2021-08-06T08:55:57.312Z</time>
      </trkpt>
      <trkpt lat="46.96941" lon="8.77345">
        <ele>712</ele>
        <time>2021-08-06T08:55:58.312Z</time>
      </trkpt>
      <trkpt lat="46.96941" lon="8.77346">
        <ele>712</ele>
        <time>2021-08-06T08:55:59.312Z</time>
      </trkpt>
      <trkpt lat="46.9694" lon="8.77346">
        <ele>712</ele>
        <time>2021-08-06T08:56:00.312Z</time>
      </trkpt>
      <trkpt lat="46.9694" lon="8.77347">
        <ele>713</ele>
        <time>2021-08-06T08:56:01.311Z</time>
      </trkpt>
      <trkpt lat="46.96939" lon="8.77347">
        <ele>713</ele>
        <time>2021-08-06T08:56:02.312Z</time>
      </trkpt>
      <trkpt lat="46.96939" lon="8.77347">
        <ele>714</ele>
        <time>2021-08-06T08:56:03.312Z</time>
      </trkpt>
      <trkpt lat="46.96939" lon="8.77348">
        <ele>715</ele>
        <time>2021-08-06T08:56:04.312Z</time>
      </trkpt>
      <trkpt lat="46.96938" lon="8.77348">
        <ele>715</ele>
        <time>2021-08-06T08:56:05.311Z</time>
      </trkpt>
      <trkpt lat="46.96938" lon="8.77348">
        <ele>716</ele>
        <time>2021-08-06T08:56:06.312Z</time>
      </trkpt>
      <trkpt lat="46.96937" lon="8.7735">
        <ele>716</ele>
        <time>2021-08-06T08:56:07.312Z</time>
      </trkpt>
      <trkpt lat="46.96937" lon="8.77351">
        <ele>716</ele>
        <time>2021-08-06T08:56:08.311Z</time>
      </trkpt>
      <trkpt lat="46.96936" lon="8.77351">
        <ele>716</ele>
        <time>2021-08-06T08:56:09.311Z</time>
      </trkpt>
      <trkpt lat="46.96936" lon="8.77351">
        <ele>716</ele>
        <time>2021-08-06T08:56:10.312Z</time>
      </trkpt>
      <trkpt lat="46.96935" lon="8.77351">
        <ele>716</ele>
        <time>2021-08-06T08:56:11.311Z</time>
      </trkpt>
      <trkpt lat="46.96935" lon="8.7735">
        <ele>717</ele>
        <time>2021-08-06T08:56:12.312Z</time>
      </trkpt>
      <trkpt lat="46.96934" lon="8.77348">
        <ele>717</ele>
        <time>2021-08-06T08:56:13.312Z</time>
      </trkpt>
      <trkpt lat="46.96933" lon="8.77347">
        <ele>718</ele>
        <time>2021-08-06T08:56:14.311Z</time>
      </trkpt>
      <trkpt lat="46.96932" lon="8.77346">
        <ele>718</ele>
        <time>2021-08-06T08:56:15.311Z</time>
      </trkpt>
      <trkpt lat="46.9693" lon="8.77345">
        <ele>719</ele>
        <time>2021-08-06T08:56:16.312Z</time>
      </trkpt>
      <trkpt lat="46.96929" lon="8.77344">
        <ele>719</ele>
        <time>2021-08-06T08:56:17.312Z</time>
      </trkpt>
      <trkpt lat="46.96929" lon="8.77343">
        <ele>720</ele>
        <time>2021-08-06T08:56:18.312Z</time>
      </trkpt>
      <trkpt lat="46.96928" lon="8.77343">
        <ele>721</ele>
        <time>2021-08-06T08:56:19.312Z</time>
      </trkpt>
      <trkpt lat="46.96927" lon="8.77342">
        <ele>722</ele>
        <time>2021-08-06T08:56:20.311Z</time>
      </trkpt>
      <trkpt lat="46.96927" lon="8.77342">
        <ele>723</ele>
        <time>2021-08-06T08:56:21.312Z</time>
      </trkpt>
      <trkpt lat="46.96927" lon="8.77342">
        <ele>724</ele>
        <time>2021-08-06T08:56:22.312Z</time>
      </trkpt>
      <trkpt lat="46.96927" lon="8.77342">
        <ele>725</ele>
        <time>2021-08-06T08:56:23.313Z</time>
      </trkpt>
      <trkpt lat="46.96926" lon="8.77341">
        <ele>726</ele>
        <time>2021-08-06T08:56:24.312Z</time>
      </trkpt>
      <trkpt lat="46.96926" lon="8.7734">
        <ele>726</ele>
        <time>2021-08-06T08:56:25.312Z</time>
      </trkpt>
      <trkpt lat="46.96925" lon="8.7734">
        <ele>726</ele>
        <time>2021-08-06T08:56:26.313Z</time>
      </trkpt>
      <trkpt lat="46.96925" lon="8.7734">
        <ele>725</ele>
        <time>2021-08-06T08:56:27.313Z</time>
      </trkpt>
      <trkpt lat="46.96925" lon="8.77341">
        <ele>725</ele>
        <time>2021-08-06T08:56:28.312Z</time>
      </trkpt>
      <trkpt lat="46.96924" lon="8.77343">
        <ele>724</ele>
        <time>2021-08-06T08:56:29.313Z</time>
      </trkpt>
      <trkpt lat="46.96924" lon="8.77344">
        <ele>724</ele>
        <time>2021-08-06T08:56:30.313Z</time>
      </trkpt>
      <trkpt lat="46.96923" lon="8.77344">
        <ele>724</ele>
        <time>2021-08-06T08:56:31.312Z</time>
      </trkpt>
      <trkpt lat="46.96923" lon="8.77345">
        <ele>725</ele>
        <time>2021-08-06T08:56:32.313Z</time>
      </trkpt>
      <trkpt lat="46.96923" lon="8.77345">
        <ele>725</ele>
        <time>2021-08-06T08:56:33.313Z</time>
      </trkpt>
      <trkpt lat="46.96922" lon="8.77345">
        <ele>725</ele>
        <time>2021-08-06T08:56:34.313Z</time>
      </trkpt>
      <trkpt lat="46.96922" lon="8.77346">
        <ele>725</ele>
        <time>2021-08-06T08:56:35.313Z</time>
      </trkpt>
      <trkpt lat="46.96922" lon="8.77346">
        <ele>725</ele>
        <time>2021-08-06T08:56:36.313Z</time>
      </trkpt>
      <trkpt lat="46.96921" lon="8.77345">
        <ele>725</ele>
        <time>2021-08-06T08:56:37.313Z</time>
      </trkpt>
      <trkpt lat="46.9692" lon="8.77345">
        <ele>724</ele>
        <time>2021-08-06T08:56:38.313Z</time>
      </trkpt>
      <trkpt lat="46.9692" lon="8.77344">
        <ele>724</ele>
        <time>2021-08-06T08:56:39.312Z</time>
      </trkpt>
      <trkpt lat="46.96919" lon="8.77344">
        <ele>725</ele>
        <time>2021-08-06T08:56:40.313Z</time>
      </trkpt>
      <trkpt lat="46.96918" lon="8.77343">
        <ele>725</ele>
        <time>2021-08-06T08:56:41.312Z</time>
      </trkpt>
      <trkpt lat="46.96918" lon="8.77343">
        <ele>726</ele>
        <time>2021-08-06T08:56:42.312Z</time>
      </trkpt>
      <trkpt lat="46.96918" lon="8.77344">
        <ele>726</ele>
        <time>2021-08-06T08:56:43.312Z</time>
      </trkpt>
      <trkpt lat="46.96917" lon="8.77346">
        <ele>727</ele>
        <time>2021-08-06T08:56:44.312Z</time>
      </trkpt>
      <trkpt lat="46.96918" lon="8.77347">
        <ele>727</ele>
        <time>2021-08-06T08:56:45.313Z</time>
      </trkpt>
      <trkpt lat="46.96917" lon="8.77348">
        <ele>728</ele>
        <time>2021-08-06T08:56:46.313Z</time>
      </trkpt>
      <trkpt lat="46.96917" lon="8.77348">
        <ele>728</ele>
        <time>2021-08-06T08:56:47.312Z</time>
      </trkpt>
      <trkpt lat="46.96916" lon="8.77348">
        <ele>727</ele>
        <time>2021-08-06T08:56:48.313Z</time>
      </trkpt>
      <trkpt lat="46.96916" lon="8.77349">
        <ele>727</ele>
        <time>2021-08-06T08:56:49.313Z</time>
      </trkpt>
      <trkpt lat="46.96915" lon="8.77348">
        <ele>727</ele>
        <time>2021-08-06T08:56:50.312Z</time>
      </trkpt>
      <trkpt lat="46.96915" lon="8.77348">
        <ele>727</ele>
        <time>2021-08-06T08:56:51.312Z</time>
      </trkpt>
      <trkpt lat="46.96915" lon="8.77348">
        <ele>728</ele>
        <time>2021-08-06T08:56:52.312Z</time>
      </trkpt>
      <trkpt lat="46.96914" lon="8.77347">
        <ele>728</ele>
        <time>2021-08-06T08:56:53.313Z</time>
      </trkpt>
      <trkpt lat="46.96914" lon="8.77347">
        <ele>728</ele>
        <time>2021-08-06T08:56:54.313Z</time>
      </trkpt>
      <trkpt lat="46.96914" lon="8.77348">
        <ele>728</ele>
        <time>2021-08-06T08:56:55.313Z</time>
      </trkpt>
      <trkpt lat="46.96914" lon="8.77349">
        <ele>728</ele>
        <time>2021-08-06T08:56:56.313Z</time>
      </trkpt>
      <trkpt lat="46.96914" lon="8.7735">
        <ele>728</ele>
        <time>2021-08-06T08:56:57.312Z</time>
      </trkpt>
      <trkpt lat="46.96914" lon="8.77351">
        <ele>728</ele>
        <time>2021-08-06T08:56:58.313Z</time>
      </trkpt>
      <trkpt lat="46.96914" lon="8.77352">
        <ele>727</ele>
        <time>2021-08-06T08:56:59.312Z</time>
      </trkpt>
      <trkpt lat="46.96914" lon="8.77353">
        <ele>727</ele>
        <time>2021-08-06T08:57:00.313Z</time>
      </trkpt>
      <trkpt lat="46.96914" lon="8.77353">
        <ele>728</ele>
        <time>2021-08-06T08:57:01.313Z</time>
      </trkpt>
      <trkpt lat="46.96914" lon="8.77353">
        <ele>728</ele>
        <time>2021-08-06T08:57:02.313Z</time>
      </trkpt>
      <trkpt lat="46.96913" lon="8.77353">
        <ele>729</ele>
        <time>2021-08-06T08:57:03.313Z</time>
      </trkpt>
      <trkpt lat="46.96912" lon="8.77352">
        <ele>729</ele>
        <time>2021-08-06T08:57:04.313Z</time>
      </trkpt>
      <trkpt lat="46.96911" lon="8.77352">
        <ele>729</ele>
        <time>2021-08-06T08:57:05.313Z</time>
      </trkpt>
      <trkpt lat="46.96911" lon="8.77353">
        <ele>728</ele>
        <time>2021-08-06T08:57:06.312Z</time>
      </trkpt>
      <trkpt lat="46.9691" lon="8.77353">
        <ele>728</ele>
        <time>2021-08-06T08:57:07.312Z</time>
      </trkpt>
      <trkpt lat="46.9691" lon="8.77353">
        <ele>728</ele>
        <time>2021-08-06T08:57:08.313Z</time>
      </trkpt>
      <trkpt lat="46.96909" lon="8.77354">
        <ele>728</ele>
        <time>2021-08-06T08:57:09.313Z</time>
      </trkpt>
      <trkpt lat="46.96909" lon="8.77354">
        <ele>728</ele>
        <time>2021-08-06T08:57:10.312Z</time>
      </trkpt>
      <trkpt lat="46.96908" lon="8.77355">
        <ele>728</ele>
        <time>2021-08-06T08:57:11.313Z</time>
      </trkpt>
      <trkpt lat="46.96908" lon="8.77356">
        <ele>728</ele>
        <time>2021-08-06T08:57:12.313Z</time>
      </trkpt>
      <trkpt lat="46.96907" lon="8.77356">
        <ele>728</ele>
        <time>2021-08-06T08:57:13.312Z</time>
      </trkpt>
      <trkpt lat="46.96906" lon="8.77356">
        <ele>728</ele>
        <time>2021-08-06T08:57:14.313Z</time>
      </trkpt>
      <trkpt lat="46.96906" lon="8.77355">
        <ele>727</ele>
        <time>2021-08-06T08:57:15.312Z</time>
      </trkpt>
      <trkpt lat="46.96906" lon="8.77355">
        <ele>727</ele>
        <time>2021-08-06T08:57:16.313Z</time>
      </trkpt>
      <trkpt lat="46.96906" lon="8.77354">
        <ele>727</ele>
        <time>2021-08-06T08:57:17.313Z</time>
      </trkpt>
      <trkpt lat="46.96906" lon="8.77354">
        <ele>727</ele>
        <time>2021-08-06T08:57:18.312Z</time>
      </trkpt>
      <trkpt lat="46.96905" lon="8.77354">
        <ele>727</ele>
        <time>2021-08-06T08:57:19.312Z</time>
      </trkpt>
      <trkpt lat="46.96905" lon="8.77355">
        <ele>727</ele>
        <time>2021-08-06T08:57:20.312Z</time>
      </trkpt>
      <trkpt lat="46.96905" lon="8.77355">
        <ele>727</ele>
        <time>2021-08-06T08:57:21.312Z</time>
      </trkpt>
      <trkpt lat="46.96904" lon="8.77356">
        <ele>727</ele>
        <time>2021-08-06T08:57:22.313Z</time>
      </trkpt>
      <trkpt lat="46.96903" lon="8.77355">
        <ele>727</ele>
        <time>2021-08-06T08:57:23.312Z</time>
      </trkpt>
      <trkpt lat="46.96902" lon="8.77355">
        <ele>727</ele>
        <time>2021-08-06T08:57:24.313Z</time>
      </trkpt>
      <trkpt lat="46.96902" lon="8.77355">
        <ele>726</ele>
        <time>2021-08-06T08:57:25.312Z</time>
      </trkpt>
      <trkpt lat="46.96901" lon="8.77355">
        <ele>726</ele>
        <time>2021-08-06T08:57:26.312Z</time>
      </trkpt>
      <trkpt lat="46.96901" lon="8.77356">
        <ele>725</ele>
        <time>2021-08-06T08:57:27.312Z</time>
      </trkpt>
      <trkpt lat="46.96901" lon="8.77358">
        <ele>725</ele>
        <time>2021-08-06T08:57:28.312Z</time>
      </trkpt>
      <trkpt lat="46.969" lon="8.7736">
        <ele>725</ele>
        <time>2021-08-06T08:57:29.313Z</time>
      </trkpt>
      <trkpt lat="46.969" lon="8.77361">
        <ele>724</ele>
        <time>2021-08-06T08:57:30.313Z</time>
      </trkpt>
      <trkpt lat="46.969" lon="8.77362">
        <ele>724</ele>
        <time>2021-08-06T08:57:31.313Z</time>
      </trkpt>
      <trkpt lat="46.969" lon="8.77363">
        <ele>724</ele>
        <time>2021-08-06T08:57:32.313Z</time>
      </trkpt>
      <trkpt lat="46.96899" lon="8.77364">
        <ele>724</ele>
        <time>2021-08-06T08:57:33.312Z</time>
      </trkpt>
      <trkpt lat="46.96899" lon="8.77364">
        <ele>723</ele>
        <time>2021-08-06T08:57:34.312Z</time>
      </trkpt>
      <trkpt lat="46.96899" lon="8.77365">
        <ele>723</ele>
        <time>2021-08-06T08:57:35.313Z</time>
      </trkpt>
      <trkpt lat="46.96899" lon="8.77365">
        <ele>723</ele>
        <time>2021-08-06T08:57:36.312Z</time>
      </trkpt>
      <trkpt lat="46.96899" lon="8.77365">
        <ele>723</ele>
        <time>2021-08-06T08:57:37.312Z</time>
      </trkpt>
      <trkpt lat="46.96896" lon="8.77362">
        <ele>725</ele>
        <time>2021-08-06T08:57:38.313Z</time>
      </trkpt>
      <trkpt lat="46.96896" lon="8.77364">
        <ele>726</ele>
        <time>2021-08-06T08:57:39.313Z</time>
      </trkpt>
      <trkpt lat="46.96896" lon="8.77366">
        <ele>726</ele>
        <time>2021-08-06T08:57:40.313Z</time>
      </trkpt>
      <trkpt lat="46.96895" lon="8.77367">
        <ele>726</ele>
        <time>2021-08-06T08:57:41.313Z</time>
      </trkpt>
      <trkpt lat="46.96895" lon="8.77369">
        <ele>727</ele>
        <time>2021-08-06T08:57:42.314Z</time>
      </trkpt>
      <trkpt lat="46.96896" lon="8.77371">
        <ele>727</ele>
        <time>2021-08-06T08:57:43.314Z</time>
      </trkpt>
      <trkpt lat="46.96896" lon="8.77372">
        <ele>727</ele>
        <time>2021-08-06T08:57:44.313Z</time>
      </trkpt>
      <trkpt lat="46.96896" lon="8.77373">
        <ele>727</ele>
        <time>2021-08-06T08:57:45.314Z</time>
      </trkpt>
      <trkpt lat="46.96896" lon="8.77375">
        <ele>728</ele>
        <time>2021-08-06T08:57:46.314Z</time>
      </trkpt>
      <trkpt lat="46.96896" lon="8.77376">
        <ele>729</ele>
        <time>2021-08-06T08:57:47.314Z</time>
      </trkpt>
      <trkpt lat="46.96896" lon="8.77377">
        <ele>730</ele>
        <time>2021-08-06T08:57:48.314Z</time>
      </trkpt>
      <trkpt lat="46.96896" lon="8.77378">
        <ele>731</ele>
        <time>2021-08-06T08:57:49.314Z</time>
      </trkpt>
      <trkpt lat="46.96898" lon="8.77379">
        <ele>733</ele>
        <time>2021-08-06T08:57:50.315Z</time>
      </trkpt>
      <trkpt lat="46.96897" lon="8.77381">
        <ele>733</ele>
        <time>2021-08-06T08:57:51.316Z</time>
      </trkpt>
      <trkpt lat="46.96898" lon="8.77383">
        <ele>733</ele>
        <time>2021-08-06T08:57:52.315Z</time>
      </trkpt>
      <trkpt lat="46.96894" lon="8.77381">
        <ele>720</ele>
        <time>2021-08-06T08:57:53.316Z</time>
      </trkpt>
      <trkpt lat="46.96893" lon="8.77381">
        <ele>720</ele>
        <time>2021-08-06T08:57:54.317Z</time>
      </trkpt>
      <trkpt lat="46.96889" lon="8.77382">
        <ele>710</ele>
        <time>2021-08-06T08:57:55.317Z</time>
      </trkpt>
      <trkpt lat="46.96888" lon="8.77382">
        <ele>709</ele>
        <time>2021-08-06T08:57:56.318Z</time>
      </trkpt>
      <trkpt lat="46.96888" lon="8.77382">
        <ele>708</ele>
        <time>2021-08-06T08:57:57.317Z</time>
      </trkpt>
      <trkpt lat="46.96887" lon="8.77382">
        <ele>708</ele>
        <time>2021-08-06T08:57:58.318Z</time>
      </trkpt>
      <trkpt lat="46.96889" lon="8.77383">
        <ele>708</ele>
        <time>2021-08-06T08:57:59.318Z</time>
      </trkpt>
      <trkpt lat="46.96889" lon="8.77384">
        <ele>708</ele>
        <time>2021-08-06T08:58:00.318Z</time>
      </trkpt>
      <trkpt lat="46.96889" lon="8.77384">
        <ele>708</ele>
        <time>2021-08-06T08:58:01.317Z</time>
      </trkpt>
      <trkpt lat="46.96889" lon="8.77385">
        <ele>709</ele>
        <time>2021-08-06T08:58:02.317Z</time>
      </trkpt>
      <trkpt lat="46.9689" lon="8.77387">
        <ele>710</ele>
        <time>2021-08-06T08:58:03.318Z</time>
      </trkpt>
      <trkpt lat="46.9689" lon="8.77387">
        <ele>710</ele>
        <time>2021-08-06T08:58:04.318Z</time>
      </trkpt>
      <trkpt lat="46.96894" lon="8.77384">
        <ele>709</ele>
        <time>2021-08-06T08:58:05.318Z</time>
      </trkpt>
      <trkpt lat="46.96894" lon="8.77384">
        <ele>709</ele>
        <time>2021-08-06T08:58:06.318Z</time>
      </trkpt>
      <trkpt lat="46.96895" lon="8.77385">
        <ele>709</ele>
        <time>2021-08-06T08:58:07.317Z</time>
      </trkpt>
      <trkpt lat="46.96895" lon="8.77386">
        <ele>708</ele>
        <time>2021-08-06T08:58:08.317Z</time>
      </trkpt>
      <trkpt lat="46.96894" lon="8.77393">
        <ele>708</ele>
        <time>2021-08-06T08:58:09.318Z</time>
      </trkpt>
      <trkpt lat="46.96893" lon="8.77395">
        <ele>709</ele>
        <time>2021-08-06T08:58:10.318Z</time>
      </trkpt>
      <trkpt lat="46.96896" lon="8.77397">
        <ele>719</ele>
        <time>2021-08-06T08:58:11.318Z</time>
      </trkpt>
      <trkpt lat="46.96897" lon="8.77397">
        <ele>719</ele>
        <time>2021-08-06T08:58:12.318Z</time>
      </trkpt>
      <trkpt lat="46.96897" lon="8.77398">
        <ele>720</ele>
        <time>2021-08-06T08:58:13.318Z</time>
      </trkpt>
      <trkpt lat="46.96897" lon="8.77398">
        <ele>720</ele>
        <time>2021-08-06T08:58:14.318Z</time>
      </trkpt>
      <trkpt lat="46.96898" lon="8.77394">
        <ele>721</ele>
        <time>2021-08-06T08:58:15.318Z</time>
      </trkpt>
      <trkpt lat="46.96898" lon="8.77393">
        <ele>722</ele>
        <time>2021-08-06T08:58:16.318Z</time>
      </trkpt>
      <trkpt lat="46.96898" lon="8.77392">
        <ele>722</ele>
        <time>2021-08-06T08:58:17.320Z</time>
      </trkpt>
      <trkpt lat="46.96898" lon="8.77393">
        <ele>722</ele>
        <time>2021-08-06T08:58:18.320Z</time>
      </trkpt>
      <trkpt lat="46.96898" lon="8.77392">
        <ele>722</ele>
        <time>2021-08-06T08:58:19.319Z</time>
      </trkpt>
      <trkpt lat="46.96899" lon="8.77393">
        <ele>721</ele>
        <time>2021-08-06T08:58:20.320Z</time>
      </trkpt>
      <trkpt lat="46.96899" lon="8.77393">
        <ele>721</ele>
        <time>2021-08-06T08:58:21.319Z</time>
      </trkpt>
      <trkpt lat="46.96899" lon="8.77392">
        <ele>724</ele>
        <time>2021-08-06T08:58:22.321Z</time>
      </trkpt>
      <trkpt lat="46.96899" lon="8.77393">
        <ele>725</ele>
        <time>2021-08-06T08:58:23.320Z</time>
      </trkpt>
      <trkpt lat="46.96898" lon="8.77394">
        <ele>725</ele>
        <time>2021-08-06T08:58:24.320Z</time>
      </trkpt>
      <trkpt lat="46.96898" lon="8.77395">
        <ele>725</ele>
        <time>2021-08-06T08:58:25.320Z</time>
      </trkpt>
      <trkpt lat="46.96898" lon="8.77397">
        <ele>725</ele>
        <time>2021-08-06T08:58:26.320Z</time>
      </trkpt>
      <trkpt lat="46.96897" lon="8.77398">
        <ele>726</ele>
        <time>2021-08-06T08:58:27.320Z</time>
      </trkpt>
      <trkpt lat="46.96897" lon="8.77399">
        <ele>726</ele>
        <time>2021-08-06T08:58:28.320Z</time>
      </trkpt>
      <trkpt lat="46.96897" lon="8.77401">
        <ele>726</ele>
        <time>2021-08-06T08:58:29.320Z</time>
      </trkpt>
      <trkpt lat="46.96896" lon="8.77402">
        <ele>726</ele>
        <time>2021-08-06T08:58:30.321Z</time>
      </trkpt>
      <trkpt lat="46.96896" lon="8.77403">
        <ele>726</ele>
        <time>2021-08-06T08:58:31.321Z</time>
      </trkpt>
      <trkpt lat="46.96896" lon="8.77405">
        <ele>726</ele>
        <time>2021-08-06T08:58:32.321Z</time>
      </trkpt>
      <trkpt lat="46.96895" lon="8.77406">
        <ele>726</ele>
        <time>2021-08-06T08:58:33.321Z</time>
      </trkpt>
      <trkpt lat="46.96894" lon="8.77408">
        <ele>726</ele>
        <time>2021-08-06T08:58:34.321Z</time>
      </trkpt>
      <trkpt lat="46.96894" lon="8.77408">
        <ele>726</ele>
        <time>2021-08-06T08:58:35.321Z</time>
      </trkpt>
      <trkpt lat="46.96894" lon="8.77409">
        <ele>726</ele>
        <time>2021-08-06T08:58:36.320Z</time>
      </trkpt>
      <trkpt lat="46.96893" lon="8.77409">
        <ele>726</ele>
        <time>2021-08-06T08:58:37.320Z</time>
      </trkpt>
      <trkpt lat="46.96893" lon="8.7741">
        <ele>726</ele>
        <time>2021-08-06T08:58:38.321Z</time>
      </trkpt>
      <trkpt lat="46.96893" lon="8.7741">
        <ele>727</ele>
        <time>2021-08-06T08:58:39.321Z</time>
      </trkpt>
      <trkpt lat="46.96892" lon="8.7741">
        <ele>727</ele>
        <time>2021-08-06T08:58:40.320Z</time>
      </trkpt>
      <trkpt lat="46.96892" lon="8.7741">
        <ele>727</ele>
        <time>2021-08-06T08:58:41.321Z</time>
      </trkpt>
      <trkpt lat="46.96891" lon="8.7741">
        <ele>727</ele>
        <time>2021-08-06T08:58:42.321Z</time>
      </trkpt>
      <trkpt lat="46.9689" lon="8.77411">
        <ele>728</ele>
        <time>2021-08-06T08:58:43.321Z</time>
      </trkpt>
      <trkpt lat="46.96889" lon="8.77412">
        <ele>728</ele>
        <time>2021-08-06T08:58:44.321Z</time>
      </trkpt>
      <trkpt lat="46.96889" lon="8.77412">
        <ele>728</ele>
        <time>2021-08-06T08:58:45.320Z</time>
      </trkpt>
      <trkpt lat="46.96888" lon="8.77413">
        <ele>728</ele>
        <time>2021-08-06T08:58:46.321Z</time>
      </trkpt>
      <trkpt lat="46.96887" lon="8.77413">
        <ele>728</ele>
        <time>2021-08-06T08:58:47.321Z</time>
      </trkpt>
      <trkpt lat="46.96887" lon="8.77413">
        <ele>728</ele>
        <time>2021-08-06T08:58:48.321Z</time>
      </trkpt>
      <trkpt lat="46.96886" lon="8.77412">
        <ele>728</ele>
        <time>2021-08-06T08:58:49.320Z</time>
      </trkpt>
      <trkpt lat="46.96885" lon="8.77413">
        <ele>728</ele>
        <time>2021-08-06T08:58:50.321Z</time>
      </trkpt>
      <trkpt lat="46.96884" lon="8.77413">
        <ele>729</ele>
        <time>2021-08-06T08:58:51.321Z</time>
      </trkpt>
      <trkpt lat="46.96884" lon="8.77413">
        <ele>729</ele>
        <time>2021-08-06T08:58:52.321Z</time>
      </trkpt>
      <trkpt lat="46.96883" lon="8.77412">
        <ele>729</ele>
        <time>2021-08-06T08:58:53.321Z</time>
      </trkpt>
      <trkpt lat="46.96883" lon="8.77411">
        <ele>729</ele>
        <time>2021-08-06T08:58:54.321Z</time>
      </trkpt>
      <trkpt lat="46.96883" lon="8.77411">
        <ele>730</ele>
        <time>2021-08-06T08:58:55.321Z</time>
      </trkpt>
      <trkpt lat="46.96883" lon="8.77409">
        <ele>731</ele>
        <time>2021-08-06T08:58:56.321Z</time>
      </trkpt>
      <trkpt lat="46.96882" lon="8.77408">
        <ele>732</ele>
        <time>2021-08-06T08:58:57.321Z</time>
      </trkpt>
      <trkpt lat="46.96882" lon="8.77406">
        <ele>732</ele>
        <time>2021-08-06T08:58:58.320Z</time>
      </trkpt>
      <trkpt lat="46.96881" lon="8.77405">
        <ele>733</ele>
        <time>2021-08-06T08:58:59.321Z</time>
      </trkpt>
      <trkpt lat="46.9688" lon="8.77404">
        <ele>734</ele>
        <time>2021-08-06T08:59:00.321Z</time>
      </trkpt>
      <trkpt lat="46.9688" lon="8.77404">
        <ele>734</ele>
        <time>2021-08-06T08:59:01.321Z</time>
      </trkpt>
      <trkpt lat="46.9688" lon="8.77404">
        <ele>734</ele>
        <time>2021-08-06T08:59:02.321Z</time>
      </trkpt>
      <trkpt lat="46.96879" lon="8.77404">
        <ele>734</ele>
        <time>2021-08-06T08:59:03.320Z</time>
      </trkpt>
      <trkpt lat="46.96879" lon="8.77405">
        <ele>735</ele>
        <time>2021-08-06T08:59:04.321Z</time>
      </trkpt>
      <trkpt lat="46.96879" lon="8.77406">
        <ele>735</ele>
        <time>2021-08-06T08:59:05.321Z</time>
      </trkpt>
      <trkpt lat="46.96878" lon="8.77406">
        <ele>735</ele>
        <time>2021-08-06T08:59:06.321Z</time>
      </trkpt>
      <trkpt lat="46.96876" lon="8.77405">
        <ele>735</ele>
        <time>2021-08-06T08:59:07.320Z</time>
      </trkpt>
      <trkpt lat="46.96876" lon="8.77406">
        <ele>736</ele>
        <time>2021-08-06T08:59:08.321Z</time>
      </trkpt>
      <trkpt lat="46.96876" lon="8.77406">
        <ele>736</ele>
        <time>2021-08-06T08:59:09.320Z</time>
      </trkpt>
      <trkpt lat="46.96876" lon="8.77405">
        <ele>736</ele>
        <time>2021-08-06T08:59:10.321Z</time>
      </trkpt>
      <trkpt lat="46.96875" lon="8.77405">
        <ele>736</ele>
        <time>2021-08-06T08:59:11.320Z</time>
      </trkpt>
      <trkpt lat="46.96875" lon="8.77405">
        <ele>736</ele>
        <time>2021-08-06T08:59:12.321Z</time>
      </trkpt>
      <trkpt lat="46.96874" lon="8.77404">
        <ele>736</ele>
        <time>2021-08-06T08:59:13.321Z</time>
      </trkpt>
      <trkpt lat="46.96873" lon="8.77404">
        <ele>735</ele>
        <time>2021-08-06T08:59:14.320Z</time>
      </trkpt>
      <trkpt lat="46.96872" lon="8.77404">
        <ele>735</ele>
        <time>2021-08-06T08:59:15.321Z</time>
      </trkpt>
      <trkpt lat="46.96872" lon="8.77404">
        <ele>734</ele>
        <time>2021-08-06T08:59:16.321Z</time>
      </trkpt>
      <trkpt lat="46.96872" lon="8.77406">
        <ele>734</ele>
        <time>2021-08-06T08:59:17.320Z</time>
      </trkpt>
      <trkpt lat="46.96872" lon="8.77407">
        <ele>734</ele>
        <time>2021-08-06T08:59:18.321Z</time>
      </trkpt>
      <trkpt lat="46.96872" lon="8.77408">
        <ele>734</ele>
        <time>2021-08-06T08:59:19.321Z</time>
      </trkpt>
      <trkpt lat="46.96872" lon="8.77411">
        <ele>734</ele>
        <time>2021-08-06T08:59:20.321Z</time>
      </trkpt>
      <trkpt lat="46.96872" lon="8.77412">
        <ele>735</ele>
        <time>2021-08-06T08:59:21.320Z</time>
      </trkpt>
      <trkpt lat="46.96873" lon="8.77412">
        <ele>735</ele>
        <time>2021-08-06T08:59:22.321Z</time>
      </trkpt>
      <trkpt lat="46.96873" lon="8.77413">
        <ele>735</ele>
        <time>2021-08-06T08:59:23.321Z</time>
      </trkpt>
      <trkpt lat="46.96873" lon="8.77413">
        <ele>734</ele>
        <time>2021-08-06T08:59:24.321Z</time>
      </trkpt>
      <trkpt lat="46.96873" lon="8.77413">
        <ele>734</ele>
        <time>2021-08-06T08:59:25.321Z</time>
      </trkpt>
      <trkpt lat="46.96873" lon="8.77422">
        <ele>733</ele>
        <time>2021-08-06T08:59:26.321Z</time>
      </trkpt>
      <trkpt lat="46.96872" lon="8.77424">
        <ele>733</ele>
        <time>2021-08-06T08:59:27.320Z</time>
      </trkpt>
      <trkpt lat="46.96872" lon="8.77426">
        <ele>733</ele>
        <time>2021-08-06T08:59:28.320Z</time>
      </trkpt>
      <trkpt lat="46.96873" lon="8.77427">
        <ele>733</ele>
        <time>2021-08-06T08:59:29.321Z</time>
      </trkpt>
      <trkpt lat="46.96872" lon="8.77428">
        <ele>733</ele>
        <time>2021-08-06T08:59:30.320Z</time>
      </trkpt>
      <trkpt lat="46.96871" lon="8.77428">
        <ele>733</ele>
        <time>2021-08-06T08:59:31.321Z</time>
      </trkpt>
      <trkpt lat="46.96871" lon="8.77428">
        <ele>733</ele>
        <time>2021-08-06T08:59:32.321Z</time>
      </trkpt>
      <trkpt lat="46.9687" lon="8.77428">
        <ele>733</ele>
        <time>2021-08-06T08:59:33.320Z</time>
      </trkpt>
      <trkpt lat="46.9687" lon="8.77428">
        <ele>734</ele>
        <time>2021-08-06T08:59:34.321Z</time>
      </trkpt>
      <trkpt lat="46.9687" lon="8.77429">
        <ele>734</ele>
        <time>2021-08-06T08:59:35.321Z</time>
      </trkpt>
      <trkpt lat="46.96869" lon="8.77429">
        <ele>734</ele>
        <time>2021-08-06T08:59:36.320Z</time>
      </trkpt>
      <trkpt lat="46.96868" lon="8.77429">
        <ele>734</ele>
        <time>2021-08-06T08:59:37.320Z</time>
      </trkpt>
      <trkpt lat="46.96867" lon="8.77429">
        <ele>734</ele>
        <time>2021-08-06T08:59:38.321Z</time>
      </trkpt>
      <trkpt lat="46.96866" lon="8.77428">
        <ele>734</ele>
        <time>2021-08-06T08:59:39.321Z</time>
      </trkpt>
      <trkpt lat="46.96865" lon="8.77428">
        <ele>734</ele>
        <time>2021-08-06T08:59:40.320Z</time>
      </trkpt>
      <trkpt lat="46.96865" lon="8.77428">
        <ele>734</ele>
        <time>2021-08-06T08:59:41.320Z</time>
      </trkpt>
      <trkpt lat="46.96864" lon="8.77428">
        <ele>734</ele>
        <time>2021-08-06T08:59:42.320Z</time>
      </trkpt>
      <trkpt lat="46.96863" lon="8.77427">
        <ele>734</ele>
        <time>2021-08-06T08:59:43.321Z</time>
      </trkpt>
      <trkpt lat="46.96863" lon="8.77428">
        <ele>734</ele>
        <time>2021-08-06T08:59:44.320Z</time>
      </trkpt>
      <trkpt lat="46.96863" lon="8.77428">
        <ele>734</ele>
        <time>2021-08-06T08:59:45.321Z</time>
      </trkpt>
      <trkpt lat="46.96862" lon="8.77429">
        <ele>734</ele>
        <time>2021-08-06T08:59:46.321Z</time>
      </trkpt>
      <trkpt lat="46.96861" lon="8.77429">
        <ele>734</ele>
        <time>2021-08-06T08:59:47.321Z</time>
      </trkpt>
      <trkpt lat="46.96861" lon="8.77429">
        <ele>735</ele>
        <time>2021-08-06T08:59:48.320Z</time>
      </trkpt>
      <trkpt lat="46.9686" lon="8.77429">
        <ele>735</ele>
        <time>2021-08-06T08:59:49.321Z</time>
      </trkpt>
      <trkpt lat="46.9686" lon="8.77429">
        <ele>735</ele>
        <time>2021-08-06T08:59:50.321Z</time>
      </trkpt>
      <trkpt lat="46.96859" lon="8.77428">
        <ele>735</ele>
        <time>2021-08-06T08:59:51.320Z</time>
      </trkpt>
      <trkpt lat="46.96859" lon="8.77428">
        <ele>735</ele>
        <time>2021-08-06T08:59:52.321Z</time>
      </trkpt>
      <trkpt lat="46.96859" lon="8.77428">
        <ele>736</ele>
        <time>2021-08-06T08:59:53.321Z</time>
      </trkpt>
      <trkpt lat="46.96858" lon="8.77428">
        <ele>736</ele>
        <time>2021-08-06T08:59:54.321Z</time>
      </trkpt>
      <trkpt lat="46.96858" lon="8.77429">
        <ele>737</ele>
        <time>2021-08-06T08:59:55.320Z</time>
      </trkpt>
      <trkpt lat="46.96858" lon="8.77429">
        <ele>737</ele>
        <time>2021-08-06T08:59:56.320Z</time>
      </trkpt>
      <trkpt lat="46.96858" lon="8.77429">
        <ele>737</ele>
        <time>2021-08-06T08:59:57.321Z</time>
      </trkpt>
      <trkpt lat="46.96858" lon="8.7743">
        <ele>737</ele>
        <time>2021-08-06T08:59:58.321Z</time>
      </trkpt>
      <trkpt lat="46.96858" lon="8.77432">
        <ele>737</ele>
        <time>2021-08-06T08:59:59.322Z</time>
      </trkpt>
      <trkpt lat="46.96857" lon="8.77433">
        <ele>737</ele>
        <time>2021-08-06T09:00:00.321Z</time>
      </trkpt>
      <trkpt lat="46.96856" lon="8.77433">
        <ele>737</ele>
        <time>2021-08-06T09:00:01.321Z</time>
      </trkpt>
      <trkpt lat="46.96856" lon="8.77433">
        <ele>737</ele>
        <time>2021-08-06T09:00:02.321Z</time>
      </trkpt>
      <trkpt lat="46.96855" lon="8.77433">
        <ele>738</ele>
        <time>2021-08-06T09:00:03.321Z</time>
      </trkpt>
      <trkpt lat="46.96855" lon="8.77433">
        <ele>738</ele>
        <time>2021-08-06T09:00:04.321Z</time>
      </trkpt>
      <trkpt lat="46.96855" lon="8.77434">
        <ele>738</ele>
        <time>2021-08-06T09:00:05.321Z</time>
      </trkpt>
      <trkpt lat="46.96854" lon="8.77436">
        <ele>738</ele>
        <time>2021-08-06T09:00:06.321Z</time>
      </trkpt>
      <trkpt lat="46.96853" lon="8.77437">
        <ele>738</ele>
        <time>2021-08-06T09:00:07.322Z</time>
      </trkpt>
      <trkpt lat="46.96853" lon="8.77438">
        <ele>737</ele>
        <time>2021-08-06T09:00:08.322Z</time>
      </trkpt>
      <trkpt lat="46.96852" lon="8.77439">
        <ele>737</ele>
        <time>2021-08-06T09:00:09.321Z</time>
      </trkpt>
      <trkpt lat="46.96852" lon="8.77438">
        <ele>737</ele>
        <time>2021-08-06T09:00:10.322Z</time>
      </trkpt>
      <trkpt lat="46.96852" lon="8.77439">
        <ele>737</ele>
        <time>2021-08-06T09:00:11.321Z</time>
      </trkpt>
      <trkpt lat="46.96851" lon="8.77439">
        <ele>737</ele>
        <time>2021-08-06T09:00:12.322Z</time>
      </trkpt>
      <trkpt lat="46.96851" lon="8.77438">
        <ele>737</ele>
        <time>2021-08-06T09:00:13.321Z</time>
      </trkpt>
      <trkpt lat="46.9685" lon="8.77438">
        <ele>737</ele>
        <time>2021-08-06T09:00:14.322Z</time>
      </trkpt>
      <trkpt lat="46.9685" lon="8.77437">
        <ele>737</ele>
        <time>2021-08-06T09:00:15.322Z</time>
      </trkpt>
      <trkpt lat="46.96849" lon="8.77436">
        <ele>736</ele>
        <time>2021-08-06T09:00:16.322Z</time>
      </trkpt>
      <trkpt lat="46.96848" lon="8.77436">
        <ele>736</ele>
        <time>2021-08-06T09:00:17.321Z</time>
      </trkpt>
      <trkpt lat="46.96848" lon="8.77436">
        <ele>735</ele>
        <time>2021-08-06T09:00:18.322Z</time>
      </trkpt>
      <trkpt lat="46.96848" lon="8.77437">
        <ele>735</ele>
        <time>2021-08-06T09:00:19.321Z</time>
      </trkpt>
      <trkpt lat="46.96848" lon="8.77437">
        <ele>735</ele>
        <time>2021-08-06T09:00:20.322Z</time>
      </trkpt>
      <trkpt lat="46.96848" lon="8.77438">
        <ele>735</ele>
        <time>2021-08-06T09:00:21.321Z</time>
      </trkpt>
      <trkpt lat="46.96849" lon="8.77439">
        <ele>735</ele>
        <time>2021-08-06T09:00:22.322Z</time>
      </trkpt>
      <trkpt lat="46.96848" lon="8.77439">
        <ele>736</ele>
        <time>2021-08-06T09:00:23.322Z</time>
      </trkpt>
      <trkpt lat="46.96848" lon="8.77439">
        <ele>736</ele>
        <time>2021-08-06T09:00:24.322Z</time>
      </trkpt>
      <trkpt lat="46.96848" lon="8.7744">
        <ele>736</ele>
        <time>2021-08-06T09:00:25.322Z</time>
      </trkpt>
      <trkpt lat="46.96847" lon="8.7744">
        <ele>737</ele>
        <time>2021-08-06T09:00:26.322Z</time>
      </trkpt>
      <trkpt lat="46.96847" lon="8.7744">
        <ele>737</ele>
        <time>2021-08-06T09:00:27.322Z</time>
      </trkpt>
      <trkpt lat="46.96847" lon="8.7744">
        <ele>736</ele>
        <time>2021-08-06T09:00:28.321Z</time>
      </trkpt>
      <trkpt lat="46.96846" lon="8.7744">
        <ele>737</ele>
        <time>2021-08-06T09:00:29.323Z</time>
      </trkpt>
      <trkpt lat="46.96845" lon="8.77439">
        <ele>737</ele>
        <time>2021-08-06T09:00:30.323Z</time>
      </trkpt>
      <trkpt lat="46.96845" lon="8.7744">
        <ele>738</ele>
        <time>2021-08-06T09:00:31.322Z</time>
      </trkpt>
      <trkpt lat="46.96845" lon="8.7744">
        <ele>738</ele>
        <time>2021-08-06T09:00:32.323Z</time>
      </trkpt>
      <trkpt lat="46.96845" lon="8.7744">
        <ele>739</ele>
        <time>2021-08-06T09:00:33.322Z</time>
      </trkpt>
      <trkpt lat="46.96845" lon="8.7744">
        <ele>739</ele>
        <time>2021-08-06T09:00:34.323Z</time>
      </trkpt>
      <trkpt lat="46.96845" lon="8.77441">
        <ele>740</ele>
        <time>2021-08-06T09:00:35.323Z</time>
      </trkpt>
      <trkpt lat="46.96844" lon="8.77442">
        <ele>740</ele>
        <time>2021-08-06T09:00:36.322Z</time>
      </trkpt>
      <trkpt lat="46.96845" lon="8.77444">
        <ele>740</ele>
        <time>2021-08-06T09:00:37.323Z</time>
      </trkpt>
      <trkpt lat="46.96845" lon="8.77443">
        <ele>740</ele>
        <time>2021-08-06T09:00:38.323Z</time>
      </trkpt>
      <trkpt lat="46.96845" lon="8.77443">
        <ele>741</ele>
        <time>2021-08-06T09:00:39.323Z</time>
      </trkpt>
      <trkpt lat="46.96844" lon="8.77443">
        <ele>742</ele>
        <time>2021-08-06T09:00:40.322Z</time>
      </trkpt>
      <trkpt lat="46.96844" lon="8.77443">
        <ele>742</ele>
        <time>2021-08-06T09:00:41.323Z</time>
      </trkpt>
      <trkpt lat="46.96845" lon="8.77443">
        <ele>743</ele>
        <time>2021-08-06T09:00:42.323Z</time>
      </trkpt>
      <trkpt lat="46.96845" lon="8.77443">
        <ele>743</ele>
        <time>2021-08-06T09:00:43.323Z</time>
      </trkpt>
      <trkpt lat="46.96845" lon="8.77444">
        <ele>744</ele>
        <time>2021-08-06T09:00:44.322Z</time>
      </trkpt>
      <trkpt lat="46.96844" lon="8.77444">
        <ele>745</ele>
        <time>2021-08-06T09:00:45.322Z</time>
      </trkpt>
      <trkpt lat="46.96844" lon="8.77445">
        <ele>745</ele>
        <time>2021-08-06T09:00:46.323Z</time>
      </trkpt>
      <trkpt lat="46.96844" lon="8.77445">
        <ele>746</ele>
        <time>2021-08-06T09:00:47.323Z</time>
      </trkpt>
      <trkpt lat="46.96843" lon="8.77446">
        <ele>747</ele>
        <time>2021-08-06T09:00:48.323Z</time>
      </trkpt>
      <trkpt lat="46.96843" lon="8.77446">
        <ele>747</ele>
        <time>2021-08-06T09:00:49.323Z</time>
      </trkpt>
      <trkpt lat="46.96843" lon="8.77447">
        <ele>748</ele>
        <time>2021-08-06T09:00:50.323Z</time>
      </trkpt>
      <trkpt lat="46.96842" lon="8.77447">
        <ele>748</ele>
        <time>2021-08-06T09:00:51.323Z</time>
      </trkpt>
      <trkpt lat="46.96842" lon="8.77446">
        <ele>749</ele>
        <time>2021-08-06T09:00:52.322Z</time>
      </trkpt>
      <trkpt lat="46.96842" lon="8.77446">
        <ele>749</ele>
        <time>2021-08-06T09:00:53.323Z</time>
      </trkpt>
      <trkpt lat="46.96842" lon="8.77445">
        <ele>749</ele>
        <time>2021-08-06T09:00:54.323Z</time>
      </trkpt>
      <trkpt lat="46.96842" lon="8.77445">
        <ele>749</ele>
        <time>2021-08-06T09:00:55.322Z</time>
      </trkpt>
      <trkpt lat="46.96842" lon="8.77444">
        <ele>749</ele>
        <time>2021-08-06T09:00:56.322Z</time>
      </trkpt>
      <trkpt lat="46.96841" lon="8.77444">
        <ele>748</ele>
        <time>2021-08-06T09:00:57.322Z</time>
      </trkpt>
      <trkpt lat="46.9684" lon="8.77443">
        <ele>748</ele>
        <time>2021-08-06T09:00:58.323Z</time>
      </trkpt>
      <trkpt lat="46.9684" lon="8.77443">
        <ele>748</ele>
        <time>2021-08-06T09:00:59.323Z</time>
      </trkpt>
      <trkpt lat="46.96839" lon="8.77442">
        <ele>748</ele>
        <time>2021-08-06T09:01:00.323Z</time>
      </trkpt>
      <trkpt lat="46.96838" lon="8.77442">
        <ele>747</ele>
        <time>2021-08-06T09:01:01.323Z</time>
      </trkpt>
      <trkpt lat="46.96838" lon="8.77442">
        <ele>747</ele>
        <time>2021-08-06T09:01:02.322Z</time>
      </trkpt>
      <trkpt lat="46.96837" lon="8.77443">
        <ele>747</ele>
        <time>2021-08-06T09:01:03.323Z</time>
      </trkpt>
      <trkpt lat="46.96837" lon="8.77443">
        <ele>747</ele>
        <time>2021-08-06T09:01:04.322Z</time>
      </trkpt>
      <trkpt lat="46.96836" lon="8.77444">
        <ele>747</ele>
        <time>2021-08-06T09:01:05.322Z</time>
      </trkpt>
      <trkpt lat="46.96836" lon="8.77444">
        <ele>746</ele>
        <time>2021-08-06T09:01:06.323Z</time>
      </trkpt>
      <trkpt lat="46.96835" lon="8.77444">
        <ele>746</ele>
        <time>2021-08-06T09:01:07.323Z</time>
      </trkpt>
      <trkpt lat="46.96835" lon="8.77445">
        <ele>746</ele>
        <time>2021-08-06T09:01:08.323Z</time>
      </trkpt>
      <trkpt lat="46.96835" lon="8.77445">
        <ele>745</ele>
        <time>2021-08-06T09:01:09.323Z</time>
      </trkpt>
      <trkpt lat="46.96835" lon="8.77446">
        <ele>745</ele>
        <time>2021-08-06T09:01:10.322Z</time>
      </trkpt>
      <trkpt lat="46.96835" lon="8.77447">
        <ele>745</ele>
        <time>2021-08-06T09:01:11.322Z</time>
      </trkpt>
      <trkpt lat="46.96835" lon="8.77448">
        <ele>744</ele>
        <time>2021-08-06T09:01:12.323Z</time>
      </trkpt>
      <trkpt lat="46.96835" lon="8.77448">
        <ele>743</ele>
        <time>2021-08-06T09:01:13.323Z</time>
      </trkpt>
      <trkpt lat="46.96834" lon="8.77448">
        <ele>743</ele>
        <time>2021-08-06T09:01:14.323Z</time>
      </trkpt>
      <trkpt lat="46.96834" lon="8.77449">
        <ele>743</ele>
        <time>2021-08-06T09:01:15.322Z</time>
      </trkpt>
      <trkpt lat="46.96834" lon="8.77449">
        <ele>743</ele>
        <time>2021-08-06T09:01:16.322Z</time>
      </trkpt>
      <trkpt lat="46.96834" lon="8.7745">
        <ele>743</ele>
        <time>2021-08-06T09:01:17.322Z</time>
      </trkpt>
      <trkpt lat="46.96834" lon="8.7745">
        <ele>743</ele>
        <time>2021-08-06T09:01:18.322Z</time>
      </trkpt>
      <trkpt lat="46.96834" lon="8.7745">
        <ele>744</ele>
        <time>2021-08-06T09:01:19.322Z</time>
      </trkpt>
      <trkpt lat="46.96833" lon="8.77449">
        <ele>744</ele>
        <time>2021-08-06T09:01:20.322Z</time>
      </trkpt>
      <trkpt lat="46.96833" lon="8.77449">
        <ele>745</ele>
        <time>2021-08-06T09:01:21.322Z</time>
      </trkpt>
      <trkpt lat="46.96832" lon="8.77447">
        <ele>747</ele>
        <time>2021-08-06T09:01:22.323Z</time>
      </trkpt>
      <trkpt lat="46.96831" lon="8.77447">
        <ele>747</ele>
        <time>2021-08-06T09:01:23.323Z</time>
      </trkpt>
      <trkpt lat="46.9683" lon="8.77446">
        <ele>748</ele>
        <time>2021-08-06T09:01:24.323Z</time>
      </trkpt>
      <trkpt lat="46.96828" lon="8.77446">
        <ele>748</ele>
        <time>2021-08-06T09:01:25.323Z</time>
      </trkpt>
      <trkpt lat="46.96826" lon="8.77447">
        <ele>751</ele>
        <time>2021-08-06T09:01:26.322Z</time>
      </trkpt>
      <trkpt lat="46.96824" lon="8.77446">
        <ele>751</ele>
        <time>2021-08-06T09:01:27.322Z</time>
      </trkpt>
      <trkpt lat="46.96824" lon="8.77445">
        <ele>751</ele>
        <time>2021-08-06T09:01:28.322Z</time>
      </trkpt>
      <trkpt lat="46.96823" lon="8.77445">
        <ele>751</ele>
        <time>2021-08-06T09:01:29.322Z</time>
      </trkpt>
      <trkpt lat="46.96819" lon="8.77449">
        <ele>756</ele>
        <time>2021-08-06T09:01:30.322Z</time>
      </trkpt>
      <trkpt lat="46.96819" lon="8.7745">
        <ele>757</ele>
        <time>2021-08-06T09:01:31.322Z</time>
      </trkpt>
      <trkpt lat="46.96819" lon="8.7745">
        <ele>757</ele>
        <time>2021-08-06T09:01:32.322Z</time>
      </trkpt>
      <trkpt lat="46.96816" lon="8.77447">
        <ele>758</ele>
        <time>2021-08-06T09:01:33.322Z</time>
      </trkpt>
      <trkpt lat="46.96814" lon="8.77446">
        <ele>758</ele>
        <time>2021-08-06T09:01:34.322Z</time>
      </trkpt>
      <trkpt lat="46.96815" lon="8.77445">
        <ele>758</ele>
        <time>2021-08-06T09:01:35.322Z</time>
      </trkpt>
      <trkpt lat="46.96816" lon="8.77446">
        <ele>758</ele>
        <time>2021-08-06T09:01:36.322Z</time>
      </trkpt>
      <trkpt lat="46.96816" lon="8.77446">
        <ele>758</ele>
        <time>2021-08-06T09:01:37.323Z</time>
      </trkpt>
      <trkpt lat="46.96816" lon="8.77445">
        <ele>758</ele>
        <time>2021-08-06T09:01:38.323Z</time>
      </trkpt>
      <trkpt lat="46.96816" lon="8.77445">
        <ele>758</ele>
        <time>2021-08-06T09:01:39.323Z</time>
      </trkpt>
      <trkpt lat="46.96816" lon="8.77445">
        <ele>758</ele>
        <time>2021-08-06T09:01:40.323Z</time>
      </trkpt>
      <trkpt lat="46.96817" lon="8.77446">
        <ele>758</ele>
        <time>2021-08-06T09:01:41.322Z</time>
      </trkpt>
      <trkpt lat="46.96818" lon="8.77447">
        <ele>758</ele>
        <time>2021-08-06T09:01:42.323Z</time>
      </trkpt>
      <trkpt lat="46.96819" lon="8.77449">
        <ele>758</ele>
        <time>2021-08-06T09:01:43.322Z</time>
      </trkpt>
      <trkpt lat="46.96819" lon="8.7745">
        <ele>758</ele>
        <time>2021-08-06T09:01:44.323Z</time>
      </trkpt>
      <trkpt lat="46.96818" lon="8.77449">
        <ele>758</ele>
        <time>2021-08-06T09:01:45.323Z</time>
      </trkpt>
      <trkpt lat="46.96818" lon="8.77449">
        <ele>758</ele>
        <time>2021-08-06T09:01:46.322Z</time>
      </trkpt>
      <trkpt lat="46.96821" lon="8.7745">
        <ele>751</ele>
        <time>2021-08-06T09:01:47.323Z</time>
      </trkpt>
      <trkpt lat="46.96821" lon="8.7745">
        <ele>751</ele>
        <time>2021-08-06T09:01:48.322Z</time>
      </trkpt>
      <trkpt lat="46.96821" lon="8.77451">
        <ele>752</ele>
        <time>2021-08-06T09:01:49.322Z</time>
      </trkpt>
      <trkpt lat="46.96822" lon="8.77453">
        <ele>751</ele>
        <time>2021-08-06T09:01:50.323Z</time>
      </trkpt>
      <trkpt lat="46.96821" lon="8.77453">
        <ele>750</ele>
        <time>2021-08-06T09:01:51.323Z</time>
      </trkpt>
      <trkpt lat="46.96821" lon="8.77453">
        <ele>749</ele>
        <time>2021-08-06T09:01:52.322Z</time>
      </trkpt>
      <trkpt lat="46.96821" lon="8.77453">
        <ele>749</ele>
        <time>2021-08-06T09:01:53.323Z</time>
      </trkpt>
      <trkpt lat="46.96821" lon="8.77453">
        <ele>748</ele>
        <time>2021-08-06T09:01:54.322Z</time>
      </trkpt>
      <trkpt lat="46.96821" lon="8.77453">
        <ele>747</ele>
        <time>2021-08-06T09:01:55.323Z</time>
      </trkpt>
      <trkpt lat="46.96823" lon="8.7745">
        <ele>750</ele>
        <time>2021-08-06T09:01:56.324Z</time>
      </trkpt>
      <trkpt lat="46.96824" lon="8.77451">
        <ele>750</ele>
        <time>2021-08-06T09:01:57.325Z</time>
      </trkpt>
      <trkpt lat="46.96824" lon="8.77451">
        <ele>750</ele>
        <time>2021-08-06T09:01:58.324Z</time>
      </trkpt>
      <trkpt lat="46.96816" lon="8.77451">
        <ele>753</ele>
        <time>2021-08-06T09:01:59.326Z</time>
      </trkpt>
      <trkpt lat="46.96816" lon="8.7745">
        <ele>753</ele>
        <time>2021-08-06T09:02:00.326Z</time>
      </trkpt>
      <trkpt lat="46.96816" lon="8.77451">
        <ele>752</ele>
        <time>2021-08-06T09:02:01.325Z</time>
      </trkpt>
      <trkpt lat="46.96816" lon="8.77451">
        <ele>752</ele>
        <time>2021-08-06T09:02:02.325Z</time>
      </trkpt>
      <trkpt lat="46.96815" lon="8.77451">
        <ele>753</ele>
        <time>2021-08-06T09:02:03.326Z</time>
      </trkpt>
      <trkpt lat="46.96815" lon="8.77452">
        <ele>753</ele>
        <time>2021-08-06T09:02:04.326Z</time>
      </trkpt>
      <trkpt lat="46.96814" lon="8.77453">
        <ele>753</ele>
        <time>2021-08-06T09:02:05.325Z</time>
      </trkpt>
      <trkpt lat="46.96814" lon="8.77453">
        <ele>753</ele>
        <time>2021-08-06T09:02:06.326Z</time>
      </trkpt>
      <trkpt lat="46.96813" lon="8.77453">
        <ele>753</ele>
        <time>2021-08-06T09:02:07.325Z</time>
      </trkpt>
      <trkpt lat="46.96813" lon="8.77454">
        <ele>754</ele>
        <time>2021-08-06T09:02:08.326Z</time>
      </trkpt>
      <trkpt lat="46.96813" lon="8.77454">
        <ele>754</ele>
        <time>2021-08-06T09:02:09.326Z</time>
      </trkpt>
      <trkpt lat="46.96813" lon="8.77454">
        <ele>755</ele>
        <time>2021-08-06T09:02:10.326Z</time>
      </trkpt>
      <trkpt lat="46.96812" lon="8.77454">
        <ele>755</ele>
        <time>2021-08-06T09:02:11.326Z</time>
      </trkpt>
      <trkpt lat="46.96812" lon="8.77454">
        <ele>756</ele>
        <time>2021-08-06T09:02:12.325Z</time>
      </trkpt>
      <trkpt lat="46.96812" lon="8.77454">
        <ele>756</ele>
        <time>2021-08-06T09:02:13.326Z</time>
      </trkpt>
      <trkpt lat="46.96811" lon="8.77455">
        <ele>756</ele>
        <time>2021-08-06T09:02:14.325Z</time>
      </trkpt>
      <trkpt lat="46.9681" lon="8.77457">
        <ele>761</ele>
        <time>2021-08-06T09:02:15.326Z</time>
      </trkpt>
      <trkpt lat="46.9681" lon="8.77457">
        <ele>761</ele>
        <time>2021-08-06T09:02:16.326Z</time>
      </trkpt>
      <trkpt lat="46.9681" lon="8.77457">
        <ele>762</ele>
        <time>2021-08-06T09:02:17.326Z</time>
      </trkpt>
      <trkpt lat="46.9681" lon="8.77457">
        <ele>762</ele>
        <time>2021-08-06T09:02:18.325Z</time>
      </trkpt>
      <trkpt lat="46.96812" lon="8.77457">
        <ele>759</ele>
        <time>2021-08-06T09:02:19.325Z</time>
      </trkpt>
      <trkpt lat="46.96815" lon="8.77448">
        <ele>754</ele>
        <time>2021-08-06T09:02:20.328Z</time>
      </trkpt>
      <trkpt lat="46.96822" lon="8.77443">
        <ele>745</ele>
        <time>2021-08-06T09:02:21.328Z</time>
      </trkpt>
      <trkpt lat="46.96822" lon="8.77443">
        <ele>744</ele>
        <time>2021-08-06T09:02:22.328Z</time>
      </trkpt>
      <trkpt lat="46.96821" lon="8.77445">
        <ele>741</ele>
        <time>2021-08-06T09:02:23.328Z</time>
      </trkpt>
      <trkpt lat="46.96822" lon="8.77446">
        <ele>741</ele>
        <time>2021-08-06T09:02:24.328Z</time>
      </trkpt>
      <trkpt lat="46.96822" lon="8.77447">
        <ele>741</ele>
        <time>2021-08-06T09:02:25.327Z</time>
      </trkpt>
      <trkpt lat="46.96823" lon="8.77447">
        <ele>742</ele>
        <time>2021-08-06T09:02:26.327Z</time>
      </trkpt>
      <trkpt lat="46.96824" lon="8.77448">
        <ele>742</ele>
        <time>2021-08-06T09:02:27.328Z</time>
      </trkpt>
      <trkpt lat="46.96824" lon="8.77448">
        <ele>743</ele>
        <time>2021-08-06T09:02:28.328Z</time>
      </trkpt>
      <trkpt lat="46.96824" lon="8.77448">
        <ele>743</ele>
        <time>2021-08-06T09:02:29.328Z</time>
      </trkpt>
      <trkpt lat="46.96825" lon="8.77448">
        <ele>744</ele>
        <time>2021-08-06T09:02:30.328Z</time>
      </trkpt>
      <trkpt lat="46.96825" lon="8.77447">
        <ele>744</ele>
        <time>2021-08-06T09:02:31.328Z</time>
      </trkpt>
      <trkpt lat="46.96826" lon="8.77447">
        <ele>744</ele>
        <time>2021-08-06T09:02:32.328Z</time>
      </trkpt>
      <trkpt lat="46.96827" lon="8.77447">
        <ele>744</ele>
        <time>2021-08-06T09:02:33.328Z</time>
      </trkpt>
      <trkpt lat="46.96828" lon="8.77448">
        <ele>745</ele>
        <time>2021-08-06T09:02:34.327Z</time>
      </trkpt>
      <trkpt lat="46.96829" lon="8.77448">
        <ele>745</ele>
        <time>2021-08-06T09:02:35.328Z</time>
      </trkpt>
      <trkpt lat="46.96829" lon="8.77449">
        <ele>746</ele>
        <time>2021-08-06T09:02:36.328Z</time>
      </trkpt>
      <trkpt lat="46.96829" lon="8.77449">
        <ele>746</ele>
        <time>2021-08-06T09:02:37.327Z</time>
      </trkpt>
      <trkpt lat="46.9683" lon="8.7745">
        <ele>746</ele>
        <time>2021-08-06T09:02:38.328Z</time>
      </trkpt>
      <trkpt lat="46.9683" lon="8.7745">
        <ele>746</ele>
        <time>2021-08-06T09:02:39.327Z</time>
      </trkpt>
      <trkpt lat="46.96831" lon="8.77449">
        <ele>747</ele>
        <time>2021-08-06T09:02:40.328Z</time>
      </trkpt>
      <trkpt lat="46.96832" lon="8.77449">
        <ele>747</ele>
        <time>2021-08-06T09:02:41.327Z</time>
      </trkpt>
      <trkpt lat="46.96832" lon="8.7745">
        <ele>747</ele>
        <time>2021-08-06T09:02:42.327Z</time>
      </trkpt>
      <trkpt lat="46.96832" lon="8.77449">
        <ele>747</ele>
        <time>2021-08-06T09:02:43.327Z</time>
      </trkpt>
      <trkpt lat="46.96832" lon="8.77449">
        <ele>748</ele>
        <time>2021-08-06T09:02:44.327Z</time>
      </trkpt>
      <trkpt lat="46.96833" lon="8.77448">
        <ele>748</ele>
        <time>2021-08-06T09:02:45.327Z</time>
      </trkpt>
      <trkpt lat="46.96833" lon="8.77447">
        <ele>748</ele>
        <time>2021-08-06T09:02:46.328Z</time>
      </trkpt>
      <trkpt lat="46.96834" lon="8.77446">
        <ele>748</ele>
        <time>2021-08-06T09:02:47.327Z</time>
      </trkpt>
      <trkpt lat="46.96834" lon="8.77446">
        <ele>748</ele>
        <time>2021-08-06T09:02:48.327Z</time>
      </trkpt>
      <trkpt lat="46.96834" lon="8.77445">
        <ele>748</ele>
        <time>2021-08-06T09:02:49.327Z</time>
      </trkpt>
      <trkpt lat="46.96833" lon="8.77444">
        <ele>748</ele>
        <time>2021-08-06T09:02:50.327Z</time>
      </trkpt>
      <trkpt lat="46.96834" lon="8.77444">
        <ele>748</ele>
        <time>2021-08-06T09:02:51.327Z</time>
      </trkpt>
      <trkpt lat="46.96835" lon="8.77444">
        <ele>747</ele>
        <time>2021-08-06T09:02:52.328Z</time>
      </trkpt>
      <trkpt lat="46.96835" lon="8.77444">
        <ele>747</ele>
        <time>2021-08-06T09:02:53.328Z</time>
      </trkpt>
      <trkpt lat="46.96836" lon="8.77444">
        <ele>746</ele>
        <time>2021-08-06T09:02:54.328Z</time>
      </trkpt>
      <trkpt lat="46.96836" lon="8.77445">
        <ele>746</ele>
        <time>2021-08-06T09:02:55.328Z</time>
      </trkpt>
      <trkpt lat="46.96837" lon="8.77445">
        <ele>746</ele>
        <time>2021-08-06T09:02:56.328Z</time>
      </trkpt>
      <trkpt lat="46.96838" lon="8.77446">
        <ele>746</ele>
        <time>2021-08-06T09:02:57.328Z</time>
      </trkpt>
      <trkpt lat="46.96838" lon="8.77446">
        <ele>746</ele>
        <time>2021-08-06T09:02:58.328Z</time>
      </trkpt>
      <trkpt lat="46.96839" lon="8.77447">
        <ele>746</ele>
        <time>2021-08-06T09:02:59.328Z</time>
      </trkpt>
      <trkpt lat="46.9684" lon="8.77446">
        <ele>746</ele>
        <time>2021-08-06T09:03:00.328Z</time>
      </trkpt>
      <trkpt lat="46.9684" lon="8.77447">
        <ele>746</ele>
        <time>2021-08-06T09:03:01.328Z</time>
      </trkpt>
      <trkpt lat="46.96841" lon="8.77447">
        <ele>746</ele>
        <time>2021-08-06T09:03:02.327Z</time>
      </trkpt>
      <trkpt lat="46.96842" lon="8.77446">
        <ele>746</ele>
        <time>2021-08-06T09:03:03.327Z</time>
      </trkpt>
      <trkpt lat="46.96842" lon="8.77446">
        <ele>745</ele>
        <time>2021-08-06T09:03:04.328Z</time>
      </trkpt>
      <trkpt lat="46.96843" lon="8.77446">
        <ele>746</ele>
        <time>2021-08-06T09:03:05.328Z</time>
      </trkpt>
      <trkpt lat="46.96845" lon="8.77446">
        <ele>746</ele>
        <time>2021-08-06T09:03:06.328Z</time>
      </trkpt>
      <trkpt lat="46.96846" lon="8.77446">
        <ele>747</ele>
        <time>2021-08-06T09:03:07.327Z</time>
      </trkpt>
      <trkpt lat="46.96847" lon="8.77445">
        <ele>748</ele>
        <time>2021-08-06T09:03:08.328Z</time>
      </trkpt>
      <trkpt lat="46.96847" lon="8.77445">
        <ele>748</ele>
        <time>2021-08-06T09:03:09.328Z</time>
      </trkpt>
      <trkpt lat="46.96848" lon="8.77444">
        <ele>748</ele>
        <time>2021-08-06T09:03:10.328Z</time>
      </trkpt>
      <trkpt lat="46.96848" lon="8.77444">
        <ele>749</ele>
        <time>2021-08-06T09:03:11.328Z</time>
      </trkpt>
      <trkpt lat="46.96849" lon="8.77444">
        <ele>749</ele>
        <time>2021-08-06T09:03:12.327Z</time>
      </trkpt>
      <trkpt lat="46.96849" lon="8.77444">
        <ele>750</ele>
        <time>2021-08-06T09:03:13.328Z</time>
      </trkpt>
      <trkpt lat="46.9685" lon="8.77444">
        <ele>750</ele>
        <time>2021-08-06T09:03:14.328Z</time>
      </trkpt>
      <trkpt lat="46.9685" lon="8.77445">
        <ele>750</ele>
        <time>2021-08-06T09:03:15.328Z</time>
      </trkpt>
      <trkpt lat="46.9685" lon="8.77445">
        <ele>750</ele>
        <time>2021-08-06T09:03:16.328Z</time>
      </trkpt>
      <trkpt lat="46.96849" lon="8.77447">
        <ele>751</ele>
        <time>2021-08-06T09:03:17.327Z</time>
      </trkpt>
      <trkpt lat="46.96849" lon="8.77447">
        <ele>751</ele>
        <time>2021-08-06T09:03:18.327Z</time>
      </trkpt>
      <trkpt lat="46.96849" lon="8.77446">
        <ele>751</ele>
        <time>2021-08-06T09:03:19.329Z</time>
      </trkpt>
      <trkpt lat="46.96848" lon="8.77444">
        <ele>751</ele>
        <time>2021-08-06T09:03:20.330Z</time>
      </trkpt>
      <trkpt lat="46.96848" lon="8.77444">
        <ele>750</ele>
        <time>2021-08-06T09:03:21.330Z</time>
      </trkpt>
      <trkpt lat="46.96848" lon="8.77444">
        <ele>750</ele>
        <time>2021-08-06T09:03:22.330Z</time>
      </trkpt>
      <trkpt lat="46.96849" lon="8.77444">
        <ele>749</ele>
        <time>2021-08-06T09:03:23.329Z</time>
      </trkpt>
      <trkpt lat="46.9685" lon="8.77445">
        <ele>749</ele>
        <time>2021-08-06T09:03:24.330Z</time>
      </trkpt>
      <trkpt lat="46.9685" lon="8.77445">
        <ele>749</ele>
        <time>2021-08-06T09:03:25.330Z</time>
      </trkpt>
      <trkpt lat="46.96851" lon="8.77446">
        <ele>748</ele>
        <time>2021-08-06T09:03:26.330Z</time>
      </trkpt>
      <trkpt lat="46.96851" lon="8.77445">
        <ele>748</ele>
        <time>2021-08-06T09:03:27.330Z</time>
      </trkpt>
      <trkpt lat="46.96852" lon="8.77444">
        <ele>747</ele>
        <time>2021-08-06T09:03:28.330Z</time>
      </trkpt>
      <trkpt lat="46.96852" lon="8.7744">
        <ele>743</ele>
        <time>2021-08-06T09:03:29.330Z</time>
      </trkpt>
      <trkpt lat="46.96853" lon="8.7744">
        <ele>742</ele>
        <time>2021-08-06T09:03:30.330Z</time>
      </trkpt>
      <trkpt lat="46.96853" lon="8.77439">
        <ele>742</ele>
        <time>2021-08-06T09:03:31.329Z</time>
      </trkpt>
      <trkpt lat="46.96854" lon="8.77438">
        <ele>742</ele>
        <time>2021-08-06T09:03:32.329Z</time>
      </trkpt>
      <trkpt lat="46.96854" lon="8.77437">
        <ele>741</ele>
        <time>2021-08-06T09:03:33.330Z</time>
      </trkpt>
      <trkpt lat="46.96855" lon="8.77437">
        <ele>741</ele>
        <time>2021-08-06T09:03:34.330Z</time>
      </trkpt>
      <trkpt lat="46.96855" lon="8.77437">
        <ele>741</ele>
        <time>2021-08-06T09:03:35.329Z</time>
      </trkpt>
      <trkpt lat="46.96856" lon="8.77437">
        <ele>741</ele>
        <time>2021-08-06T09:03:36.330Z</time>
      </trkpt>
      <trkpt lat="46.96857" lon="8.77436">
        <ele>741</ele>
        <time>2021-08-06T09:03:37.329Z</time>
      </trkpt>
      <trkpt lat="46.96858" lon="8.77435">
        <ele>741</ele>
        <time>2021-08-06T09:03:38.330Z</time>
      </trkpt>
      <trkpt lat="46.96858" lon="8.77434">
        <ele>740</ele>
        <time>2021-08-06T09:03:39.330Z</time>
      </trkpt>
      <trkpt lat="46.96859" lon="8.77433">
        <ele>740</ele>
        <time>2021-08-06T09:03:40.330Z</time>
      </trkpt>
      <trkpt lat="46.96859" lon="8.77433">
        <ele>740</ele>
        <time>2021-08-06T09:03:41.330Z</time>
      </trkpt>
      <trkpt lat="46.96859" lon="8.77432">
        <ele>740</ele>
        <time>2021-08-06T09:03:42.329Z</time>
      </trkpt>
      <trkpt lat="46.96859" lon="8.77432">
        <ele>740</ele>
        <time>2021-08-06T09:03:43.330Z</time>
      </trkpt>
      <trkpt lat="46.96859" lon="8.77432">
        <ele>740</ele>
        <time>2021-08-06T09:03:44.329Z</time>
      </trkpt>
      <trkpt lat="46.96859" lon="8.77431">
        <ele>739</ele>
        <time>2021-08-06T09:03:45.330Z</time>
      </trkpt>
      <trkpt lat="46.96859" lon="8.7743">
        <ele>739</ele>
        <time>2021-08-06T09:03:46.329Z</time>
      </trkpt>
      <trkpt lat="46.96859" lon="8.7743">
        <ele>739</ele>
        <time>2021-08-06T09:03:47.329Z</time>
      </trkpt>
      <trkpt lat="46.9686" lon="8.7743">
        <ele>739</ele>
        <time>2021-08-06T09:03:48.330Z</time>
      </trkpt>
      <trkpt lat="46.9686" lon="8.7743">
        <ele>739</ele>
        <time>2021-08-06T09:03:49.329Z</time>
      </trkpt>
      <trkpt lat="46.9686" lon="8.7743">
        <ele>739</ele>
        <time>2021-08-06T09:03:50.329Z</time>
      </trkpt>
      <trkpt lat="46.9686" lon="8.7743">
        <ele>739</ele>
        <time>2021-08-06T09:03:51.329Z</time>
      </trkpt>
      <trkpt lat="46.9686" lon="8.77431">
        <ele>739</ele>
        <time>2021-08-06T09:03:52.329Z</time>
      </trkpt>
      <trkpt lat="46.96861" lon="8.77431">
        <ele>739</ele>
        <time>2021-08-06T09:03:53.330Z</time>
      </trkpt>
      <trkpt lat="46.96861" lon="8.77431">
        <ele>738</ele>
        <time>2021-08-06T09:03:54.330Z</time>
      </trkpt>
      <trkpt lat="46.96862" lon="8.77431">
        <ele>738</ele>
        <time>2021-08-06T09:03:55.329Z</time>
      </trkpt>
      <trkpt lat="46.96862" lon="8.77431">
        <ele>738</ele>
        <time>2021-08-06T09:03:56.330Z</time>
      </trkpt>
      <trkpt lat="46.96863" lon="8.77431">
        <ele>737</ele>
        <time>2021-08-06T09:03:57.329Z</time>
      </trkpt>
      <trkpt lat="46.96864" lon="8.77431">
        <ele>737</ele>
        <time>2021-08-06T09:03:58.329Z</time>
      </trkpt>
      <trkpt lat="46.96865" lon="8.77431">
        <ele>736</ele>
        <time>2021-08-06T09:03:59.330Z</time>
      </trkpt>
      <trkpt lat="46.96866" lon="8.77431">
        <ele>736</ele>
        <time>2021-08-06T09:04:00.329Z</time>
      </trkpt>
      <trkpt lat="46.96866" lon="8.7743">
        <ele>736</ele>
        <time>2021-08-06T09:04:01.329Z</time>
      </trkpt>
      <trkpt lat="46.96867" lon="8.77429">
        <ele>736</ele>
        <time>2021-08-06T09:04:02.330Z</time>
      </trkpt>
      <trkpt lat="46.96868" lon="8.77428">
        <ele>736</ele>
        <time>2021-08-06T09:04:03.330Z</time>
      </trkpt>
      <trkpt lat="46.96869" lon="8.77428">
        <ele>735</ele>
        <time>2021-08-06T09:04:04.330Z</time>
      </trkpt>
      <trkpt lat="46.9687" lon="8.77427">
        <ele>735</ele>
        <time>2021-08-06T09:04:05.330Z</time>
      </trkpt>
      <trkpt lat="46.96872" lon="8.77426">
        <ele>735</ele>
        <time>2021-08-06T09:04:06.330Z</time>
      </trkpt>
      <trkpt lat="46.96873" lon="8.77425">
        <ele>735</ele>
        <time>2021-08-06T09:04:07.330Z</time>
      </trkpt>
      <trkpt lat="46.96874" lon="8.77423">
        <ele>735</ele>
        <time>2021-08-06T09:04:08.329Z</time>
      </trkpt>
      <trkpt lat="46.96875" lon="8.77422">
        <ele>734</ele>
        <time>2021-08-06T09:04:09.330Z</time>
      </trkpt>
      <trkpt lat="46.96875" lon="8.77421">
        <ele>734</ele>
        <time>2021-08-06T09:04:10.330Z</time>
      </trkpt>
      <trkpt lat="46.96875" lon="8.77419">
        <ele>734</ele>
        <time>2021-08-06T09:04:11.330Z</time>
      </trkpt>
      <trkpt lat="46.96875" lon="8.77417">
        <ele>734</ele>
        <time>2021-08-06T09:04:12.329Z</time>
      </trkpt>
      <trkpt lat="46.96875" lon="8.77416">
        <ele>734</ele>
        <time>2021-08-06T09:04:13.329Z</time>
      </trkpt>
      <trkpt lat="46.96875" lon="8.77415">
        <ele>734</ele>
        <time>2021-08-06T09:04:14.330Z</time>
      </trkpt>
      <trkpt lat="46.96876" lon="8.77413">
        <ele>734</ele>
        <time>2021-08-06T09:04:15.330Z</time>
      </trkpt>
      <trkpt lat="46.96876" lon="8.77413">
        <ele>733</ele>
        <time>2021-08-06T09:04:16.330Z</time>
      </trkpt>
      <trkpt lat="46.96876" lon="8.77413">
        <ele>733</ele>
        <time>2021-08-06T09:04:17.330Z</time>
      </trkpt>
      <trkpt lat="46.96876" lon="8.77413">
        <ele>733</ele>
        <time>2021-08-06T09:04:18.330Z</time>
      </trkpt>
      <trkpt lat="46.96876" lon="8.77414">
        <ele>733</ele>
        <time>2021-08-06T09:04:19.330Z</time>
      </trkpt>
      <trkpt lat="46.96877" lon="8.77413">
        <ele>733</ele>
        <time>2021-08-06T09:04:20.329Z</time>
      </trkpt>
      <trkpt lat="46.96877" lon="8.77412">
        <ele>733</ele>
        <time>2021-08-06T09:04:21.329Z</time>
      </trkpt>
      <trkpt lat="46.96877" lon="8.77411">
        <ele>732</ele>
        <time>2021-08-06T09:04:22.330Z</time>
      </trkpt>
      <trkpt lat="46.96877" lon="8.7741">
        <ele>732</ele>
        <time>2021-08-06T09:04:23.330Z</time>
      </trkpt>
      <trkpt lat="46.96877" lon="8.77409">
        <ele>732</ele>
        <time>2021-08-06T09:04:24.329Z</time>
      </trkpt>
      <trkpt lat="46.96876" lon="8.77407">
        <ele>732</ele>
        <time>2021-08-06T09:04:25.330Z</time>
      </trkpt>
      <trkpt lat="46.96876" lon="8.77405">
        <ele>731</ele>
        <time>2021-08-06T09:04:26.330Z</time>
      </trkpt>
      <trkpt lat="46.96876" lon="8.77404">
        <ele>731</ele>
        <time>2021-08-06T09:04:27.330Z</time>
      </trkpt>
      <trkpt lat="46.96875" lon="8.77403">
        <ele>732</ele>
        <time>2021-08-06T09:04:28.330Z</time>
      </trkpt>
      <trkpt lat="46.96875" lon="8.77402">
        <ele>732</ele>
        <time>2021-08-06T09:04:29.330Z</time>
      </trkpt>
      <trkpt lat="46.96874" lon="8.77402">
        <ele>731</ele>
        <time>2021-08-06T09:04:30.330Z</time>
      </trkpt>
      <trkpt lat="46.96873" lon="8.77403">
        <ele>731</ele>
        <time>2021-08-06T09:04:31.329Z</time>
      </trkpt>
      <trkpt lat="46.96871" lon="8.77407">
        <ele>729</ele>
        <time>2021-08-06T09:04:32.330Z</time>
      </trkpt>
      <trkpt lat="46.96871" lon="8.77408">
        <ele>728</ele>
        <time>2021-08-06T09:04:33.330Z</time>
      </trkpt>
      <trkpt lat="46.9687" lon="8.77408">
        <ele>728</ele>
        <time>2021-08-06T09:04:34.329Z</time>
      </trkpt>
      <trkpt lat="46.9687" lon="8.77408">
        <ele>728</ele>
        <time>2021-08-06T09:04:35.329Z</time>
      </trkpt>
      <trkpt lat="46.9687" lon="8.77409">
        <ele>727</ele>
        <time>2021-08-06T09:04:36.330Z</time>
      </trkpt>
      <trkpt lat="46.96871" lon="8.77409">
        <ele>727</ele>
        <time>2021-08-06T09:04:37.330Z</time>
      </trkpt>
      <trkpt lat="46.96871" lon="8.77408">
        <ele>726</ele>
        <time>2021-08-06T09:04:38.330Z</time>
      </trkpt>
      <trkpt lat="46.96872" lon="8.77404">
        <ele>722</ele>
        <time>2021-08-06T09:04:39.330Z</time>
      </trkpt>
      <trkpt lat="46.96872" lon="8.77403">
        <ele>722</ele>
        <time>2021-08-06T09:04:40.330Z</time>
      </trkpt>
      <trkpt lat="46.96872" lon="8.77401">
        <ele>722</ele>
        <time>2021-08-06T09:04:41.329Z</time>
      </trkpt>
      <trkpt lat="46.96871" lon="8.77399">
        <ele>722</ele>
        <time>2021-08-06T09:04:42.330Z</time>
      </trkpt>
      <trkpt lat="46.96871" lon="8.77398">
        <ele>722</ele>
        <time>2021-08-06T09:04:43.329Z</time>
      </trkpt>
      <trkpt lat="46.96871" lon="8.77396">
        <ele>722</ele>
        <time>2021-08-06T09:04:44.330Z</time>
      </trkpt>
      <trkpt lat="46.96871" lon="8.77394">
        <ele>722</ele>
        <time>2021-08-06T09:04:45.330Z</time>
      </trkpt>
      <trkpt lat="46.9687" lon="8.77392">
        <ele>721</ele>
        <time>2021-08-06T09:04:46.330Z</time>
      </trkpt>
      <trkpt lat="46.96869" lon="8.7739">
        <ele>721</ele>
        <time>2021-08-06T09:04:47.329Z</time>
      </trkpt>
      <trkpt lat="46.96869" lon="8.77389">
        <ele>721</ele>
        <time>2021-08-06T09:04:48.330Z</time>
      </trkpt>
      <trkpt lat="46.96869" lon="8.77387">
        <ele>722</ele>
        <time>2021-08-06T09:04:49.329Z</time>
      </trkpt>
      <trkpt lat="46.96869" lon="8.77385">
        <ele>722</ele>
        <time>2021-08-06T09:04:50.330Z</time>
      </trkpt>
      <trkpt lat="46.96868" lon="8.77383">
        <ele>722</ele>
        <time>2021-08-06T09:04:51.329Z</time>
      </trkpt>
      <trkpt lat="46.96868" lon="8.77381">
        <ele>722</ele>
        <time>2021-08-06T09:04:52.330Z</time>
      </trkpt>
      <trkpt lat="46.96867" lon="8.77379">
        <ele>722</ele>
        <time>2021-08-06T09:04:53.329Z</time>
      </trkpt>
      <trkpt lat="46.96867" lon="8.77377">
        <ele>723</ele>
        <time>2021-08-06T09:04:54.330Z</time>
      </trkpt>
      <trkpt lat="46.96867" lon="8.77376">
        <ele>723</ele>
        <time>2021-08-06T09:04:55.330Z</time>
      </trkpt>
      <trkpt lat="46.96866" lon="8.77374">
        <ele>723</ele>
        <time>2021-08-06T09:04:56.329Z</time>
      </trkpt>
      <trkpt lat="46.96866" lon="8.77372">
        <ele>723</ele>
        <time>2021-08-06T09:04:57.330Z</time>
      </trkpt>
      <trkpt lat="46.96866" lon="8.77371">
        <ele>723</ele>
        <time>2021-08-06T09:04:58.330Z</time>
      </trkpt>
      <trkpt lat="46.96867" lon="8.77371">
        <ele>723</ele>
        <time>2021-08-06T09:04:59.330Z</time>
      </trkpt>
      <trkpt lat="46.96867" lon="8.77372">
        <ele>724</ele>
        <time>2021-08-06T09:05:00.329Z</time>
      </trkpt>
      <trkpt lat="46.96868" lon="8.7737">
        <ele>724</ele>
        <time>2021-08-06T09:05:01.330Z</time>
      </trkpt>
      <trkpt lat="46.96869" lon="8.77369">
        <ele>724</ele>
        <time>2021-08-06T09:05:02.329Z</time>
      </trkpt>
      <trkpt lat="46.96869" lon="8.77368">
        <ele>725</ele>
        <time>2021-08-06T09:05:03.329Z</time>
      </trkpt>
      <trkpt lat="46.96869" lon="8.77367">
        <ele>725</ele>
        <time>2021-08-06T09:05:04.330Z</time>
      </trkpt>
      <trkpt lat="46.96868" lon="8.77366">
        <ele>725</ele>
        <time>2021-08-06T09:05:05.330Z</time>
      </trkpt>
      <trkpt lat="46.96868" lon="8.77365">
        <ele>726</ele>
        <time>2021-08-06T09:05:06.329Z</time>
      </trkpt>
      <trkpt lat="46.96868" lon="8.77365">
        <ele>726</ele>
        <time>2021-08-06T09:05:07.329Z</time>
      </trkpt>
      <trkpt lat="46.96868" lon="8.77364">
        <ele>727</ele>
        <time>2021-08-06T09:05:08.329Z</time>
      </trkpt>
      <trkpt lat="46.96868" lon="8.77363">
        <ele>727</ele>
        <time>2021-08-06T09:05:09.330Z</time>
      </trkpt>
      <trkpt lat="46.96868" lon="8.77362">
        <ele>727</ele>
        <time>2021-08-06T09:05:10.329Z</time>
      </trkpt>
      <trkpt lat="46.96869" lon="8.7736">
        <ele>727</ele>
        <time>2021-08-06T09:05:11.330Z</time>
      </trkpt>
      <trkpt lat="46.96869" lon="8.77359">
        <ele>728</ele>
        <time>2021-08-06T09:05:12.330Z</time>
      </trkpt>
      <trkpt lat="46.96869" lon="8.77357">
        <ele>727</ele>
        <time>2021-08-06T09:05:13.330Z</time>
      </trkpt>
      <trkpt lat="46.96869" lon="8.77356">
        <ele>727</ele>
        <time>2021-08-06T09:05:14.330Z</time>
      </trkpt>
      <trkpt lat="46.9687" lon="8.77356">
        <ele>726</ele>
        <time>2021-08-06T09:05:15.330Z</time>
      </trkpt>
      <trkpt lat="46.9687" lon="8.77355">
        <ele>726</ele>
        <time>2021-08-06T09:05:16.330Z</time>
      </trkpt>
      <trkpt lat="46.9687" lon="8.77354">
        <ele>725</ele>
        <time>2021-08-06T09:05:17.329Z</time>
      </trkpt>
      <trkpt lat="46.96871" lon="8.77354">
        <ele>725</ele>
        <time>2021-08-06T09:05:18.330Z</time>
      </trkpt>
      <trkpt lat="46.9687" lon="8.77356">
        <ele>725</ele>
        <time>2021-08-06T09:05:19.330Z</time>
      </trkpt>
      <trkpt lat="46.9687" lon="8.77355">
        <ele>726</ele>
        <time>2021-08-06T09:05:20.330Z</time>
      </trkpt>
      <trkpt lat="46.96869" lon="8.77355">
        <ele>726</ele>
        <time>2021-08-06T09:05:21.329Z</time>
      </trkpt>
      <trkpt lat="46.96869" lon="8.77355">
        <ele>727</ele>
        <time>2021-08-06T09:05:22.330Z</time>
      </trkpt>
      <trkpt lat="46.96869" lon="8.77355">
        <ele>727</ele>
        <time>2021-08-06T09:05:23.330Z</time>
      </trkpt>
      <trkpt lat="46.96869" lon="8.77356">
        <ele>727</ele>
        <time>2021-08-06T09:05:24.329Z</time>
      </trkpt>
      <trkpt lat="46.96875" lon="8.77358">
        <ele>725</ele>
        <time>2021-08-06T09:05:25.331Z</time>
      </trkpt>
      <trkpt lat="46.96875" lon="8.77357">
        <ele>725</ele>
        <time>2021-08-06T09:05:26.331Z</time>
      </trkpt>
      <trkpt lat="46.96876" lon="8.77356">
        <ele>725</ele>
        <time>2021-08-06T09:05:27.330Z</time>
      </trkpt>
      <trkpt lat="46.96876" lon="8.77355">
        <ele>725</ele>
        <time>2021-08-06T09:05:28.330Z</time>
      </trkpt>
      <trkpt lat="46.96877" lon="8.77354">
        <ele>725</ele>
        <time>2021-08-06T09:05:29.330Z</time>
      </trkpt>
      <trkpt lat="46.96877" lon="8.77353">
        <ele>724</ele>
        <time>2021-08-06T09:05:30.330Z</time>
      </trkpt>
      <trkpt lat="46.96878" lon="8.77352">
        <ele>724</ele>
        <time>2021-08-06T09:05:31.330Z</time>
      </trkpt>
      <trkpt lat="46.96878" lon="8.7735">
        <ele>724</ele>
        <time>2021-08-06T09:05:32.330Z</time>
      </trkpt>
      <trkpt lat="46.96878" lon="8.7735">
        <ele>724</ele>
        <time>2021-08-06T09:05:33.330Z</time>
      </trkpt>
      <trkpt lat="46.96879" lon="8.77349">
        <ele>724</ele>
        <time>2021-08-06T09:05:34.330Z</time>
      </trkpt>
      <trkpt lat="46.96879" lon="8.77348">
        <ele>725</ele>
        <time>2021-08-06T09:05:35.331Z</time>
      </trkpt>
      <trkpt lat="46.9688" lon="8.77347">
        <ele>725</ele>
        <time>2021-08-06T09:05:36.330Z</time>
      </trkpt>
      <trkpt lat="46.96881" lon="8.77346">
        <ele>725</ele>
        <time>2021-08-06T09:05:37.331Z</time>
      </trkpt>
      <trkpt lat="46.96882" lon="8.77345">
        <ele>725</ele>
        <time>2021-08-06T09:05:38.330Z</time>
      </trkpt>
      <trkpt lat="46.96883" lon="8.77344">
        <ele>725</ele>
        <time>2021-08-06T09:05:39.330Z</time>
      </trkpt>
      <trkpt lat="46.96884" lon="8.77342">
        <ele>726</ele>
        <time>2021-08-06T09:05:40.330Z</time>
      </trkpt>
      <trkpt lat="46.96885" lon="8.77342">
        <ele>726</ele>
        <time>2021-08-06T09:05:41.331Z</time>
      </trkpt>
      <trkpt lat="46.96886" lon="8.77339">
        <ele>726</ele>
        <time>2021-08-06T09:05:42.330Z</time>
      </trkpt>
      <trkpt lat="46.96887" lon="8.77339">
        <ele>727</ele>
        <time>2021-08-06T09:05:43.330Z</time>
      </trkpt>
      <trkpt lat="46.96887" lon="8.77338">
        <ele>727</ele>
        <time>2021-08-06T09:05:44.330Z</time>
      </trkpt>
      <trkpt lat="46.96888" lon="8.77337">
        <ele>727</ele>
        <time>2021-08-06T09:05:45.331Z</time>
      </trkpt>
      <trkpt lat="46.96889" lon="8.77336">
        <ele>727</ele>
        <time>2021-08-06T09:05:46.330Z</time>
      </trkpt>
      <trkpt lat="46.9689" lon="8.77335">
        <ele>728</ele>
        <time>2021-08-06T09:05:47.330Z</time>
      </trkpt>
      <trkpt lat="46.96891" lon="8.77334">
        <ele>728</ele>
        <time>2021-08-06T09:05:48.330Z</time>
      </trkpt>
      <trkpt lat="46.96892" lon="8.77333">
        <ele>728</ele>
        <time>2021-08-06T09:05:49.330Z</time>
      </trkpt>
      <trkpt lat="46.96892" lon="8.77331">
        <ele>728</ele>
        <time>2021-08-06T09:05:50.330Z</time>
      </trkpt>
      <trkpt lat="46.96893" lon="8.7733">
        <ele>728</ele>
        <time>2021-08-06T09:05:51.330Z</time>
      </trkpt>
      <trkpt lat="46.96893" lon="8.77329">
        <ele>728</ele>
        <time>2021-08-06T09:05:52.330Z</time>
      </trkpt>
      <trkpt lat="46.96894" lon="8.77327">
        <ele>728</ele>
        <time>2021-08-06T09:05:53.330Z</time>
      </trkpt>
      <trkpt lat="46.96894" lon="8.77326">
        <ele>728</ele>
        <time>2021-08-06T09:05:54.330Z</time>
      </trkpt>
      <trkpt lat="46.96894" lon="8.77325">
        <ele>728</ele>
        <time>2021-08-06T09:05:55.330Z</time>
      </trkpt>
      <trkpt lat="46.96894" lon="8.77323">
        <ele>728</ele>
        <time>2021-08-06T09:05:56.330Z</time>
      </trkpt>
      <trkpt lat="46.96894" lon="8.77322">
        <ele>728</ele>
        <time>2021-08-06T09:05:57.330Z</time>
      </trkpt>
      <trkpt lat="46.96895" lon="8.77321">
        <ele>728</ele>
        <time>2021-08-06T09:05:58.330Z</time>
      </trkpt>
      <trkpt lat="46.96894" lon="8.7732">
        <ele>728</ele>
        <time>2021-08-06T09:05:59.331Z</time>
      </trkpt>
      <trkpt lat="46.96894" lon="8.77319">
        <ele>729</ele>
        <time>2021-08-06T09:06:00.331Z</time>
      </trkpt>
      <trkpt lat="46.96894" lon="8.77318">
        <ele>729</ele>
        <time>2021-08-06T09:06:01.331Z</time>
      </trkpt>
      <trkpt lat="46.96895" lon="8.77316">
        <ele>729</ele>
        <time>2021-08-06T09:06:02.331Z</time>
      </trkpt>
      <trkpt lat="46.96895" lon="8.77315">
        <ele>730</ele>
        <time>2021-08-06T09:06:03.331Z</time>
      </trkpt>
      <trkpt lat="46.96895" lon="8.77314">
        <ele>730</ele>
        <time>2021-08-06T09:06:04.331Z</time>
      </trkpt>
      <trkpt lat="46.96895" lon="8.77312">
        <ele>731</ele>
        <time>2021-08-06T09:06:05.330Z</time>
      </trkpt>
      <trkpt lat="46.96895" lon="8.77311">
        <ele>731</ele>
        <time>2021-08-06T09:06:06.331Z</time>
      </trkpt>
      <trkpt lat="46.96895" lon="8.7731">
        <ele>732</ele>
        <time>2021-08-06T09:06:07.331Z</time>
      </trkpt>
      <trkpt lat="46.96894" lon="8.77308">
        <ele>732</ele>
        <time>2021-08-06T09:06:08.330Z</time>
      </trkpt>
      <trkpt lat="46.96894" lon="8.77306">
        <ele>733</ele>
        <time>2021-08-06T09:06:09.331Z</time>
      </trkpt>
      <trkpt lat="46.96894" lon="8.77305">
        <ele>733</ele>
        <time>2021-08-06T09:06:10.331Z</time>
      </trkpt>
      <trkpt lat="46.96894" lon="8.77303">
        <ele>733</ele>
        <time>2021-08-06T09:06:11.331Z</time>
      </trkpt>
      <trkpt lat="46.96893" lon="8.77301">
        <ele>733</ele>
        <time>2021-08-06T09:06:12.331Z</time>
      </trkpt>
      <trkpt lat="46.96893" lon="8.773">
        <ele>733</ele>
        <time>2021-08-06T09:06:13.331Z</time>
      </trkpt>
      <trkpt lat="46.96893" lon="8.77299">
        <ele>734</ele>
        <time>2021-08-06T09:06:14.331Z</time>
      </trkpt>
      <trkpt lat="46.96893" lon="8.77298">
        <ele>734</ele>
        <time>2021-08-06T09:06:15.331Z</time>
      </trkpt>
      <trkpt lat="46.96893" lon="8.77297">
        <ele>734</ele>
        <time>2021-08-06T09:06:16.330Z</time>
      </trkpt>
      <trkpt lat="46.96894" lon="8.77295">
        <ele>734</ele>
        <time>2021-08-06T09:06:17.331Z</time>
      </trkpt>
      <trkpt lat="46.96894" lon="8.77294">
        <ele>735</ele>
        <time>2021-08-06T09:06:18.331Z</time>
      </trkpt>
      <trkpt lat="46.96894" lon="8.77292">
        <ele>735</ele>
        <time>2021-08-06T09:06:19.330Z</time>
      </trkpt>
      <trkpt lat="46.96894" lon="8.7729">
        <ele>736</ele>
        <time>2021-08-06T09:06:20.331Z</time>
      </trkpt>
      <trkpt lat="46.96894" lon="8.77289">
        <ele>736</ele>
        <time>2021-08-06T09:06:21.331Z</time>
      </trkpt>
      <trkpt lat="46.96894" lon="8.77288">
        <ele>736</ele>
        <time>2021-08-06T09:06:22.331Z</time>
      </trkpt>
      <trkpt lat="46.96895" lon="8.77287">
        <ele>736</ele>
        <time>2021-08-06T09:06:23.330Z</time>
      </trkpt>
      <trkpt lat="46.96895" lon="8.77286">
        <ele>736</ele>
        <time>2021-08-06T09:06:24.331Z</time>
      </trkpt>
      <trkpt lat="46.96896" lon="8.77285">
        <ele>736</ele>
        <time>2021-08-06T09:06:25.330Z</time>
      </trkpt>
      <trkpt lat="46.96897" lon="8.77283">
        <ele>737</ele>
        <time>2021-08-06T09:06:26.331Z</time>
      </trkpt>
      <trkpt lat="46.96897" lon="8.77283">
        <ele>737</ele>
        <time>2021-08-06T09:06:27.331Z</time>
      </trkpt>
      <trkpt lat="46.96897" lon="8.77282">
        <ele>738</ele>
        <time>2021-08-06T09:06:28.331Z</time>
      </trkpt>
      <trkpt lat="46.96897" lon="8.77281">
        <ele>738</ele>
        <time>2021-08-06T09:06:29.331Z</time>
      </trkpt>
      <trkpt lat="46.96898" lon="8.77281">
        <ele>739</ele>
        <time>2021-08-06T09:06:30.330Z</time>
      </trkpt>
      <trkpt lat="46.96898" lon="8.7728">
        <ele>739</ele>
        <time>2021-08-06T09:06:31.331Z</time>
      </trkpt>
      <trkpt lat="46.96899" lon="8.7728">
        <ele>739</ele>
        <time>2021-08-06T09:06:32.330Z</time>
      </trkpt>
      <trkpt lat="46.96899" lon="8.77279">
        <ele>739</ele>
        <time>2021-08-06T09:06:33.330Z</time>
      </trkpt>
      <trkpt lat="46.969" lon="8.77278">
        <ele>739</ele>
        <time>2021-08-06T09:06:34.331Z</time>
      </trkpt>
      <trkpt lat="46.96901" lon="8.77278">
        <ele>739</ele>
        <time>2021-08-06T09:06:35.331Z</time>
      </trkpt>
      <trkpt lat="46.96901" lon="8.77277">
        <ele>740</ele>
        <time>2021-08-06T09:06:36.331Z</time>
      </trkpt>
      <trkpt lat="46.96902" lon="8.77276">
        <ele>740</ele>
        <time>2021-08-06T09:06:37.331Z</time>
      </trkpt>
      <trkpt lat="46.96903" lon="8.77275">
        <ele>740</ele>
        <time>2021-08-06T09:06:38.331Z</time>
      </trkpt>
      <trkpt lat="46.96904" lon="8.77274">
        <ele>740</ele>
        <time>2021-08-06T09:06:39.331Z</time>
      </trkpt>
      <trkpt lat="46.96904" lon="8.77272">
        <ele>741</ele>
        <time>2021-08-06T09:06:40.331Z</time>
      </trkpt>
      <trkpt lat="46.96905" lon="8.77271">
        <ele>741</ele>
        <time>2021-08-06T09:06:41.331Z</time>
      </trkpt>
      <trkpt lat="46.96905" lon="8.77271">
        <ele>741</ele>
        <time>2021-08-06T09:06:42.331Z</time>
      </trkpt>
      <trkpt lat="46.96906" lon="8.7727">
        <ele>742</ele>
        <time>2021-08-06T09:06:43.330Z</time>
      </trkpt>
      <trkpt lat="46.96907" lon="8.77269">
        <ele>742</ele>
        <time>2021-08-06T09:06:44.331Z</time>
      </trkpt>
      <trkpt lat="46.96908" lon="8.77268">
        <ele>743</ele>
        <time>2021-08-06T09:06:45.331Z</time>
      </trkpt>
      <trkpt lat="46.96908" lon="8.77268">
        <ele>743</ele>
        <time>2021-08-06T09:06:46.331Z</time>
      </trkpt>
      <trkpt lat="46.96909" lon="8.77268">
        <ele>743</ele>
        <time>2021-08-06T09:06:47.330Z</time>
      </trkpt>
      <trkpt lat="46.9691" lon="8.77267">
        <ele>744</ele>
        <time>2021-08-06T09:06:48.330Z</time>
      </trkpt>
      <trkpt lat="46.96911" lon="8.77266">
        <ele>744</ele>
        <time>2021-08-06T09:06:49.330Z</time>
      </trkpt>
      <trkpt lat="46.96912" lon="8.77265">
        <ele>744</ele>
        <time>2021-08-06T09:06:50.331Z</time>
      </trkpt>
      <trkpt lat="46.96913" lon="8.77264">
        <ele>744</ele>
        <time>2021-08-06T09:06:51.331Z</time>
      </trkpt>
      <trkpt lat="46.96913" lon="8.77264">
        <ele>745</ele>
        <time>2021-08-06T09:06:52.331Z</time>
      </trkpt>
      <trkpt lat="46.96914" lon="8.77263">
        <ele>745</ele>
        <time>2021-08-06T09:06:53.330Z</time>
      </trkpt>
      <trkpt lat="46.96915" lon="8.77262">
        <ele>745</ele>
        <time>2021-08-06T09:06:54.331Z</time>
      </trkpt>
      <trkpt lat="46.96915" lon="8.77261">
        <ele>745</ele>
        <time>2021-08-06T09:06:55.330Z</time>
      </trkpt>
      <trkpt lat="46.96916" lon="8.7726">
        <ele>745</ele>
        <time>2021-08-06T09:06:56.330Z</time>
      </trkpt>
      <trkpt lat="46.96916" lon="8.77259">
        <ele>746</ele>
        <time>2021-08-06T09:06:57.331Z</time>
      </trkpt>
      <trkpt lat="46.96917" lon="8.77258">
        <ele>746</ele>
        <time>2021-08-06T09:06:58.331Z</time>
      </trkpt>
      <trkpt lat="46.96918" lon="8.77257">
        <ele>746</ele>
        <time>2021-08-06T09:06:59.331Z</time>
      </trkpt>
      <trkpt lat="46.96918" lon="8.77256">
        <ele>746</ele>
        <time>2021-08-06T09:07:00.331Z</time>
      </trkpt>
      <trkpt lat="46.96919" lon="8.77255">
        <ele>747</ele>
        <time>2021-08-06T09:07:01.330Z</time>
      </trkpt>
      <trkpt lat="46.96919" lon="8.77254">
        <ele>747</ele>
        <time>2021-08-06T09:07:02.331Z</time>
      </trkpt>
      <trkpt lat="46.9692" lon="8.77253">
        <ele>747</ele>
        <time>2021-08-06T09:07:03.330Z</time>
      </trkpt>
      <trkpt lat="46.9692" lon="8.77253">
        <ele>748</ele>
        <time>2021-08-06T09:07:04.331Z</time>
      </trkpt>
      <trkpt lat="46.9692" lon="8.77253">
        <ele>748</ele>
        <time>2021-08-06T09:07:05.331Z</time>
      </trkpt>
      <trkpt lat="46.96921" lon="8.77253">
        <ele>752</ele>
        <time>2021-08-06T09:07:06.331Z</time>
      </trkpt>
      <trkpt lat="46.96921" lon="8.77253">
        <ele>753</ele>
        <time>2021-08-06T09:07:07.331Z</time>
      </trkpt>
      <trkpt lat="46.96921" lon="8.77252">
        <ele>754</ele>
        <time>2021-08-06T09:07:08.330Z</time>
      </trkpt>
      <trkpt lat="46.96921" lon="8.77252">
        <ele>755</ele>
        <time>2021-08-06T09:07:09.331Z</time>
      </trkpt>
      <trkpt lat="46.96921" lon="8.77251">
        <ele>755</ele>
        <time>2021-08-06T09:07:10.331Z</time>
      </trkpt>
      <trkpt lat="46.96922" lon="8.7725">
        <ele>756</ele>
        <time>2021-08-06T09:07:11.331Z</time>
      </trkpt>
      <trkpt lat="46.96922" lon="8.77249">
        <ele>756</ele>
        <time>2021-08-06T09:07:12.331Z</time>
      </trkpt>
      <trkpt lat="46.96923" lon="8.77248">
        <ele>757</ele>
        <time>2021-08-06T09:07:13.330Z</time>
      </trkpt>
      <trkpt lat="46.96924" lon="8.77246">
        <ele>757</ele>
        <time>2021-08-06T09:07:14.331Z</time>
      </trkpt>
      <trkpt lat="46.96924" lon="8.77245">
        <ele>757</ele>
        <time>2021-08-06T09:07:15.330Z</time>
      </trkpt>
      <trkpt lat="46.96924" lon="8.77244">
        <ele>758</ele>
        <time>2021-08-06T09:07:16.330Z</time>
      </trkpt>
      <trkpt lat="46.96925" lon="8.77243">
        <ele>758</ele>
        <time>2021-08-06T09:07:17.330Z</time>
      </trkpt>
      <trkpt lat="46.96926" lon="8.77241">
        <ele>758</ele>
        <time>2021-08-06T09:07:18.330Z</time>
      </trkpt>
      <trkpt lat="46.96926" lon="8.7724">
        <ele>759</ele>
        <time>2021-08-06T09:07:19.330Z</time>
      </trkpt>
      <trkpt lat="46.96926" lon="8.77239">
        <ele>759</ele>
        <time>2021-08-06T09:07:20.331Z</time>
      </trkpt>
      <trkpt lat="46.96926" lon="8.77238">
        <ele>759</ele>
        <time>2021-08-06T09:07:21.330Z</time>
      </trkpt>
      <trkpt lat="46.96927" lon="8.77237">
        <ele>759</ele>
        <time>2021-08-06T09:07:22.330Z</time>
      </trkpt>
      <trkpt lat="46.96927" lon="8.77236">
        <ele>759</ele>
        <time>2021-08-06T09:07:23.330Z</time>
      </trkpt>
      <trkpt lat="46.96927" lon="8.77235">
        <ele>759</ele>
        <time>2021-08-06T09:07:24.330Z</time>
      </trkpt>
      <trkpt lat="46.96927" lon="8.77233">
        <ele>759</ele>
        <time>2021-08-06T09:07:25.330Z</time>
      </trkpt>
      <trkpt lat="46.96927" lon="8.77232">
        <ele>759</ele>
        <time>2021-08-06T09:07:26.330Z</time>
      </trkpt>
      <trkpt lat="46.96927" lon="8.77231">
        <ele>759</ele>
        <time>2021-08-06T09:07:27.330Z</time>
      </trkpt>
      <trkpt lat="46.96928" lon="8.77229">
        <ele>759</ele>
        <time>2021-08-06T09:07:28.330Z</time>
      </trkpt>
      <trkpt lat="46.96929" lon="8.77228">
        <ele>758</ele>
        <time>2021-08-06T09:07:29.330Z</time>
      </trkpt>
      <trkpt lat="46.9693" lon="8.77227">
        <ele>758</ele>
        <time>2021-08-06T09:07:30.330Z</time>
      </trkpt>
      <trkpt lat="46.9693" lon="8.77225">
        <ele>758</ele>
        <time>2021-08-06T09:07:31.331Z</time>
      </trkpt>
      <trkpt lat="46.9693" lon="8.77224">
        <ele>758</ele>
        <time>2021-08-06T09:07:32.330Z</time>
      </trkpt>
      <trkpt lat="46.9693" lon="8.77222">
        <ele>757</ele>
        <time>2021-08-06T09:07:33.330Z</time>
      </trkpt>
      <trkpt lat="46.96929" lon="8.77221">
        <ele>757</ele>
        <time>2021-08-06T09:07:34.330Z</time>
      </trkpt>
      <trkpt lat="46.9693" lon="8.77219">
        <ele>757</ele>
        <time>2021-08-06T09:07:35.330Z</time>
      </trkpt>
      <trkpt lat="46.9693" lon="8.77218">
        <ele>756</ele>
        <time>2021-08-06T09:07:36.330Z</time>
      </trkpt>
      <trkpt lat="46.9693" lon="8.77218">
        <ele>756</ele>
        <time>2021-08-06T09:07:37.330Z</time>
      </trkpt>
      <trkpt lat="46.9693" lon="8.77217">
        <ele>756</ele>
        <time>2021-08-06T09:07:38.331Z</time>
      </trkpt>
      <trkpt lat="46.9693" lon="8.77215">
        <ele>755</ele>
        <time>2021-08-06T09:07:39.330Z</time>
      </trkpt>
      <trkpt lat="46.96931" lon="8.77214">
        <ele>755</ele>
        <time>2021-08-06T09:07:40.330Z</time>
      </trkpt>
      <trkpt lat="46.96931" lon="8.77213">
        <ele>755</ele>
        <time>2021-08-06T09:07:41.330Z</time>
      </trkpt>
      <trkpt lat="46.96932" lon="8.77212">
        <ele>755</ele>
        <time>2021-08-06T09:07:42.330Z</time>
      </trkpt>
      <trkpt lat="46.96932" lon="8.77211">
        <ele>754</ele>
        <time>2021-08-06T09:07:43.330Z</time>
      </trkpt>
      <trkpt lat="46.96932" lon="8.7721">
        <ele>754</ele>
        <time>2021-08-06T09:07:44.330Z</time>
      </trkpt>
      <trkpt lat="46.96932" lon="8.77209">
        <ele>755</ele>
        <time>2021-08-06T09:07:45.330Z</time>
      </trkpt>
      <trkpt lat="46.96933" lon="8.77208">
        <ele>755</ele>
        <time>2021-08-06T09:07:46.331Z</time>
      </trkpt>
      <trkpt lat="46.96934" lon="8.77206">
        <ele>756</ele>
        <time>2021-08-06T09:07:47.331Z</time>
      </trkpt>
      <trkpt lat="46.96935" lon="8.77205">
        <ele>756</ele>
        <time>2021-08-06T09:07:48.330Z</time>
      </trkpt>
      <trkpt lat="46.96935" lon="8.77204">
        <ele>756</ele>
        <time>2021-08-06T09:07:49.330Z</time>
      </trkpt>
      <trkpt lat="46.96936" lon="8.77204">
        <ele>757</ele>
        <time>2021-08-06T09:07:50.330Z</time>
      </trkpt>
      <trkpt lat="46.96937" lon="8.77203">
        <ele>757</ele>
        <time>2021-08-06T09:07:51.330Z</time>
      </trkpt>
      <trkpt lat="46.96938" lon="8.77201">
        <ele>757</ele>
        <time>2021-08-06T09:07:52.331Z</time>
      </trkpt>
      <trkpt lat="46.96938" lon="8.772">
        <ele>757</ele>
        <time>2021-08-06T09:07:53.330Z</time>
      </trkpt>
      <trkpt lat="46.96939" lon="8.77199">
        <ele>758</ele>
        <time>2021-08-06T09:07:54.331Z</time>
      </trkpt>
      <trkpt lat="46.96939" lon="8.77198">
        <ele>758</ele>
        <time>2021-08-06T09:07:55.331Z</time>
      </trkpt>
      <trkpt lat="46.9694" lon="8.77197">
        <ele>759</ele>
        <time>2021-08-06T09:07:56.331Z</time>
      </trkpt>
      <trkpt lat="46.9694" lon="8.77196">
        <ele>759</ele>
        <time>2021-08-06T09:07:57.331Z</time>
      </trkpt>
      <trkpt lat="46.9694" lon="8.77195">
        <ele>758</ele>
        <time>2021-08-06T09:07:58.331Z</time>
      </trkpt>
      <trkpt lat="46.9694" lon="8.77194">
        <ele>758</ele>
        <time>2021-08-06T09:07:59.331Z</time>
      </trkpt>
      <trkpt lat="46.9694" lon="8.77193">
        <ele>757</ele>
        <time>2021-08-06T09:08:00.330Z</time>
      </trkpt>
      <trkpt lat="46.9694" lon="8.77192">
        <ele>757</ele>
        <time>2021-08-06T09:08:01.331Z</time>
      </trkpt>
      <trkpt lat="46.9694" lon="8.77191">
        <ele>756</ele>
        <time>2021-08-06T09:08:02.331Z</time>
      </trkpt>
      <trkpt lat="46.9694" lon="8.77189">
        <ele>755</ele>
        <time>2021-08-06T09:08:03.331Z</time>
      </trkpt>
      <trkpt lat="46.9694" lon="8.77188">
        <ele>755</ele>
        <time>2021-08-06T09:08:04.331Z</time>
      </trkpt>
      <trkpt lat="46.9694" lon="8.77187">
        <ele>755</ele>
        <time>2021-08-06T09:08:05.331Z</time>
      </trkpt>
      <trkpt lat="46.96941" lon="8.77185">
        <ele>755</ele>
        <time>2021-08-06T09:08:06.330Z</time>
      </trkpt>
      <trkpt lat="46.96941" lon="8.77184">
        <ele>755</ele>
        <time>2021-08-06T09:08:07.331Z</time>
      </trkpt>
      <trkpt lat="46.96941" lon="8.77182">
        <ele>755</ele>
        <time>2021-08-06T09:08:08.331Z</time>
      </trkpt>
      <trkpt lat="46.96941" lon="8.77181">
        <ele>754</ele>
        <time>2021-08-06T09:08:09.331Z</time>
      </trkpt>
      <trkpt lat="46.96942" lon="8.7718">
        <ele>754</ele>
        <time>2021-08-06T09:08:10.330Z</time>
      </trkpt>
      <trkpt lat="46.96942" lon="8.77178">
        <ele>753</ele>
        <time>2021-08-06T09:08:11.330Z</time>
      </trkpt>
      <trkpt lat="46.96943" lon="8.77177">
        <ele>753</ele>
        <time>2021-08-06T09:08:12.330Z</time>
      </trkpt>
      <trkpt lat="46.96943" lon="8.77175">
        <ele>752</ele>
        <time>2021-08-06T09:08:13.330Z</time>
      </trkpt>
      <trkpt lat="46.96943" lon="8.77174">
        <ele>752</ele>
        <time>2021-08-06T09:08:14.330Z</time>
      </trkpt>
      <trkpt lat="46.96943" lon="8.77173">
        <ele>751</ele>
        <time>2021-08-06T09:08:15.331Z</time>
      </trkpt>
      <trkpt lat="46.96943" lon="8.77171">
        <ele>751</ele>
        <time>2021-08-06T09:08:16.331Z</time>
      </trkpt>
      <trkpt lat="46.96943" lon="8.7717">
        <ele>751</ele>
        <time>2021-08-06T09:08:17.331Z</time>
      </trkpt>
      <trkpt lat="46.96943" lon="8.77169">
        <ele>751</ele>
        <time>2021-08-06T09:08:18.330Z</time>
      </trkpt>
      <trkpt lat="46.96944" lon="8.77167">
        <ele>751</ele>
        <time>2021-08-06T09:08:19.331Z</time>
      </trkpt>
      <trkpt lat="46.96944" lon="8.77166">
        <ele>752</ele>
        <time>2021-08-06T09:08:20.331Z</time>
      </trkpt>
      <trkpt lat="46.96944" lon="8.77164">
        <ele>752</ele>
        <time>2021-08-06T09:08:21.331Z</time>
      </trkpt>
      <trkpt lat="46.96944" lon="8.77163">
        <ele>752</ele>
        <time>2021-08-06T09:08:22.330Z</time>
      </trkpt>
      <trkpt lat="46.96945" lon="8.77162">
        <ele>752</ele>
        <time>2021-08-06T09:08:23.331Z</time>
      </trkpt>
      <trkpt lat="46.96946" lon="8.77161">
        <ele>751</ele>
        <time>2021-08-06T09:08:24.331Z</time>
      </trkpt>
      <trkpt lat="46.96947" lon="8.7716">
        <ele>751</ele>
        <time>2021-08-06T09:08:25.331Z</time>
      </trkpt>
      <trkpt lat="46.96947" lon="8.77158">
        <ele>751</ele>
        <time>2021-08-06T09:08:26.331Z</time>
      </trkpt>
      <trkpt lat="46.96947" lon="8.77157">
        <ele>751</ele>
        <time>2021-08-06T09:08:27.330Z</time>
      </trkpt>
      <trkpt lat="46.96947" lon="8.77156">
        <ele>751</ele>
        <time>2021-08-06T09:08:28.331Z</time>
      </trkpt>
      <trkpt lat="46.96947" lon="8.77155">
        <ele>751</ele>
        <time>2021-08-06T09:08:29.331Z</time>
      </trkpt>
      <trkpt lat="46.96947" lon="8.77154">
        <ele>751</ele>
        <time>2021-08-06T09:08:30.331Z</time>
      </trkpt>
      <trkpt lat="46.96948" lon="8.77153">
        <ele>751</ele>
        <time>2021-08-06T09:08:31.331Z</time>
      </trkpt>
      <trkpt lat="46.96948" lon="8.77152">
        <ele>751</ele>
        <time>2021-08-06T09:08:32.331Z</time>
      </trkpt>
      <trkpt lat="46.96949" lon="8.7715">
        <ele>751</ele>
        <time>2021-08-06T09:08:33.330Z</time>
      </trkpt>
      <trkpt lat="46.96949" lon="8.77149">
        <ele>751</ele>
        <time>2021-08-06T09:08:34.331Z</time>
      </trkpt>
      <trkpt lat="46.9695" lon="8.77148">
        <ele>751</ele>
        <time>2021-08-06T09:08:35.331Z</time>
      </trkpt>
      <trkpt lat="46.9695" lon="8.77146">
        <ele>751</ele>
        <time>2021-08-06T09:08:36.330Z</time>
      </trkpt>
      <trkpt lat="46.96951" lon="8.77145">
        <ele>751</ele>
        <time>2021-08-06T09:08:37.331Z</time>
      </trkpt>
      <trkpt lat="46.96952" lon="8.77144">
        <ele>751</ele>
        <time>2021-08-06T09:08:38.330Z</time>
      </trkpt>
      <trkpt lat="46.96952" lon="8.77142">
        <ele>751</ele>
        <time>2021-08-06T09:08:39.330Z</time>
      </trkpt>
      <trkpt lat="46.96953" lon="8.77141">
        <ele>750</ele>
        <time>2021-08-06T09:08:40.331Z</time>
      </trkpt>
      <trkpt lat="46.96953" lon="8.7714">
        <ele>750</ele>
        <time>2021-08-06T09:08:41.330Z</time>
      </trkpt>
      <trkpt lat="46.96953" lon="8.77139">
        <ele>751</ele>
        <time>2021-08-06T09:08:42.330Z</time>
      </trkpt>
      <trkpt lat="46.96953" lon="8.77137">
        <ele>751</ele>
        <time>2021-08-06T09:08:43.330Z</time>
      </trkpt>
      <trkpt lat="46.96954" lon="8.77136">
        <ele>751</ele>
        <time>2021-08-06T09:08:44.331Z</time>
      </trkpt>
      <trkpt lat="46.96954" lon="8.77135">
        <ele>752</ele>
        <time>2021-08-06T09:08:45.331Z</time>
      </trkpt>
      <trkpt lat="46.96954" lon="8.77134">
        <ele>752</ele>
        <time>2021-08-06T09:08:46.330Z</time>
      </trkpt>
      <trkpt lat="46.96955" lon="8.77133">
        <ele>752</ele>
        <time>2021-08-06T09:08:47.330Z</time>
      </trkpt>
      <trkpt lat="46.96955" lon="8.77131">
        <ele>752</ele>
        <time>2021-08-06T09:08:48.331Z</time>
      </trkpt>
      <trkpt lat="46.96955" lon="8.7713">
        <ele>752</ele>
        <time>2021-08-06T09:08:49.330Z</time>
      </trkpt>
      <trkpt lat="46.96955" lon="8.77129">
        <ele>753</ele>
        <time>2021-08-06T09:08:50.330Z</time>
      </trkpt>
      <trkpt lat="46.96956" lon="8.77127">
        <ele>753</ele>
        <time>2021-08-06T09:08:51.331Z</time>
      </trkpt>
      <trkpt lat="46.96956" lon="8.77126">
        <ele>754</ele>
        <time>2021-08-06T09:08:52.331Z</time>
      </trkpt>
      <trkpt lat="46.96957" lon="8.77125">
        <ele>754</ele>
        <time>2021-08-06T09:08:53.330Z</time>
      </trkpt>
      <trkpt lat="46.96957" lon="8.77124">
        <ele>755</ele>
        <time>2021-08-06T09:08:54.331Z</time>
      </trkpt>
      <trkpt lat="46.96958" lon="8.77123">
        <ele>755</ele>
        <time>2021-08-06T09:08:55.331Z</time>
      </trkpt>
      <trkpt lat="46.96959" lon="8.77122">
        <ele>756</ele>
        <time>2021-08-06T09:08:56.331Z</time>
      </trkpt>
      <trkpt lat="46.96959" lon="8.77121">
        <ele>757</ele>
        <time>2021-08-06T09:08:57.330Z</time>
      </trkpt>
      <trkpt lat="46.9696" lon="8.7712">
        <ele>758</ele>
        <time>2021-08-06T09:08:58.331Z</time>
      </trkpt>
      <trkpt lat="46.9696" lon="8.77118">
        <ele>758</ele>
        <time>2021-08-06T09:08:59.331Z</time>
      </trkpt>
      <trkpt lat="46.96961" lon="8.77117">
        <ele>758</ele>
        <time>2021-08-06T09:09:00.330Z</time>
      </trkpt>
      <trkpt lat="46.96961" lon="8.77116">
        <ele>758</ele>
        <time>2021-08-06T09:09:01.331Z</time>
      </trkpt>
      <trkpt lat="46.96962" lon="8.77114">
        <ele>758</ele>
        <time>2021-08-06T09:09:02.330Z</time>
      </trkpt>
      <trkpt lat="46.96962" lon="8.77113">
        <ele>758</ele>
        <time>2021-08-06T09:09:03.331Z</time>
      </trkpt>
      <trkpt lat="46.96962" lon="8.77112">
        <ele>758</ele>
        <time>2021-08-06T09:09:04.331Z</time>
      </trkpt>
      <trkpt lat="46.96963" lon="8.77111">
        <ele>758</ele>
        <time>2021-08-06T09:09:05.331Z</time>
      </trkpt>
      <trkpt lat="46.96963" lon="8.77109">
        <ele>758</ele>
        <time>2021-08-06T09:09:06.331Z</time>
      </trkpt>
      <trkpt lat="46.96963" lon="8.77108">
        <ele>758</ele>
        <time>2021-08-06T09:09:07.330Z</time>
      </trkpt>
      <trkpt lat="46.96963" lon="8.77106">
        <ele>758</ele>
        <time>2021-08-06T09:09:08.330Z</time>
      </trkpt>
      <trkpt lat="46.96963" lon="8.77104">
        <ele>758</ele>
        <time>2021-08-06T09:09:09.330Z</time>
      </trkpt>
      <trkpt lat="46.96963" lon="8.77103">
        <ele>758</ele>
        <time>2021-08-06T09:09:10.331Z</time>
      </trkpt>
      <trkpt lat="46.96963" lon="8.77102">
        <ele>758</ele>
        <time>2021-08-06T09:09:11.331Z</time>
      </trkpt>
      <trkpt lat="46.96963" lon="8.771">
        <ele>758</ele>
        <time>2021-08-06T09:09:12.331Z</time>
      </trkpt>
      <trkpt lat="46.96963" lon="8.77099">
        <ele>758</ele>
        <time>2021-08-06T09:09:13.330Z</time>
      </trkpt>
      <trkpt lat="46.96964" lon="8.77097">
        <ele>758</ele>
        <time>2021-08-06T09:09:14.331Z</time>
      </trkpt>
      <trkpt lat="46.96964" lon="8.77096">
        <ele>758</ele>
        <time>2021-08-06T09:09:15.331Z</time>
      </trkpt>
      <trkpt lat="46.96963" lon="8.77095">
        <ele>757</ele>
        <time>2021-08-06T09:09:16.331Z</time>
      </trkpt>
      <trkpt lat="46.96963" lon="8.77094">
        <ele>757</ele>
        <time>2021-08-06T09:09:17.330Z</time>
      </trkpt>
      <trkpt lat="46.96963" lon="8.77092">
        <ele>757</ele>
        <time>2021-08-06T09:09:18.331Z</time>
      </trkpt>
      <trkpt lat="46.96963" lon="8.77091">
        <ele>757</ele>
        <time>2021-08-06T09:09:19.331Z</time>
      </trkpt>
      <trkpt lat="46.96962" lon="8.7709">
        <ele>757</ele>
        <time>2021-08-06T09:09:20.331Z</time>
      </trkpt>
      <trkpt lat="46.96962" lon="8.77088">
        <ele>757</ele>
        <time>2021-08-06T09:09:21.330Z</time>
      </trkpt>
      <trkpt lat="46.96961" lon="8.77087">
        <ele>757</ele>
        <time>2021-08-06T09:09:22.331Z</time>
      </trkpt>
      <trkpt lat="46.9696" lon="8.77085">
        <ele>757</ele>
        <time>2021-08-06T09:09:23.331Z</time>
      </trkpt>
      <trkpt lat="46.96959" lon="8.77084">
        <ele>757</ele>
        <time>2021-08-06T09:09:24.330Z</time>
      </trkpt>
      <trkpt lat="46.96959" lon="8.77082">
        <ele>757</ele>
        <time>2021-08-06T09:09:25.330Z</time>
      </trkpt>
      <trkpt lat="46.96958" lon="8.7708">
        <ele>756</ele>
        <time>2021-08-06T09:09:26.330Z</time>
      </trkpt>
      <trkpt lat="46.96957" lon="8.77079">
        <ele>756</ele>
        <time>2021-08-06T09:09:27.330Z</time>
      </trkpt>
      <trkpt lat="46.96957" lon="8.77078">
        <ele>755</ele>
        <time>2021-08-06T09:09:28.331Z</time>
      </trkpt>
      <trkpt lat="46.96956" lon="8.77077">
        <ele>755</ele>
        <time>2021-08-06T09:09:29.331Z</time>
      </trkpt>
      <trkpt lat="46.96956" lon="8.77075">
        <ele>755</ele>
        <time>2021-08-06T09:09:30.331Z</time>
      </trkpt>
      <trkpt lat="46.96956" lon="8.77074">
        <ele>755</ele>
        <time>2021-08-06T09:09:31.330Z</time>
      </trkpt>
      <trkpt lat="46.96955" lon="8.77073">
        <ele>755</ele>
        <time>2021-08-06T09:09:32.331Z</time>
      </trkpt>
      <trkpt lat="46.96954" lon="8.77072">
        <ele>755</ele>
        <time>2021-08-06T09:09:33.331Z</time>
      </trkpt>
      <trkpt lat="46.96954" lon="8.77071">
        <ele>754</ele>
        <time>2021-08-06T09:09:34.331Z</time>
      </trkpt>
      <trkpt lat="46.96953" lon="8.7707">
        <ele>754</ele>
        <time>2021-08-06T09:09:35.331Z</time>
      </trkpt>
      <trkpt lat="46.96953" lon="8.77069">
        <ele>754</ele>
        <time>2021-08-06T09:09:36.331Z</time>
      </trkpt>
      <trkpt lat="46.96952" lon="8.77068">
        <ele>753</ele>
        <time>2021-08-06T09:09:37.330Z</time>
      </trkpt>
      <trkpt lat="46.96952" lon="8.77067">
        <ele>753</ele>
        <time>2021-08-06T09:09:38.330Z</time>
      </trkpt>
      <trkpt lat="46.96952" lon="8.77065">
        <ele>753</ele>
        <time>2021-08-06T09:09:39.330Z</time>
      </trkpt>
      <trkpt lat="46.96951" lon="8.77064">
        <ele>752</ele>
        <time>2021-08-06T09:09:40.330Z</time>
      </trkpt>
      <trkpt lat="46.96951" lon="8.77063">
        <ele>752</ele>
        <time>2021-08-06T09:09:41.330Z</time>
      </trkpt>
      <trkpt lat="46.9695" lon="8.77062">
        <ele>753</ele>
        <time>2021-08-06T09:09:42.331Z</time>
      </trkpt>
      <trkpt lat="46.9695" lon="8.77061">
        <ele>753</ele>
        <time>2021-08-06T09:09:43.330Z</time>
      </trkpt>
      <trkpt lat="46.96949" lon="8.77059">
        <ele>753</ele>
        <time>2021-08-06T09:09:44.331Z</time>
      </trkpt>
      <trkpt lat="46.96948" lon="8.77058">
        <ele>753</ele>
        <time>2021-08-06T09:09:45.331Z</time>
      </trkpt>
      <trkpt lat="46.96947" lon="8.77056">
        <ele>753</ele>
        <time>2021-08-06T09:09:46.330Z</time>
      </trkpt>
      <trkpt lat="46.96947" lon="8.77055">
        <ele>754</ele>
        <time>2021-08-06T09:09:47.331Z</time>
      </trkpt>
      <trkpt lat="46.96946" lon="8.77054">
        <ele>754</ele>
        <time>2021-08-06T09:09:48.330Z</time>
      </trkpt>
      <trkpt lat="46.96946" lon="8.77053">
        <ele>754</ele>
        <time>2021-08-06T09:09:49.331Z</time>
      </trkpt>
      <trkpt lat="46.96946" lon="8.77052">
        <ele>755</ele>
        <time>2021-08-06T09:09:50.330Z</time>
      </trkpt>
      <trkpt lat="46.96946" lon="8.77051">
        <ele>755</ele>
        <time>2021-08-06T09:09:51.330Z</time>
      </trkpt>
      <trkpt lat="46.96945" lon="8.7705">
        <ele>755</ele>
        <time>2021-08-06T09:09:52.331Z</time>
      </trkpt>
      <trkpt lat="46.96945" lon="8.77048">
        <ele>756</ele>
        <time>2021-08-06T09:09:53.331Z</time>
      </trkpt>
      <trkpt lat="46.96944" lon="8.77047">
        <ele>756</ele>
        <time>2021-08-06T09:09:54.331Z</time>
      </trkpt>
      <trkpt lat="46.96944" lon="8.77045">
        <ele>757</ele>
        <time>2021-08-06T09:09:55.331Z</time>
      </trkpt>
      <trkpt lat="46.96943" lon="8.77044">
        <ele>757</ele>
        <time>2021-08-06T09:09:56.331Z</time>
      </trkpt>
      <trkpt lat="46.96942" lon="8.77043">
        <ele>758</ele>
        <time>2021-08-06T09:09:57.331Z</time>
      </trkpt>
      <trkpt lat="46.96942" lon="8.77042">
        <ele>758</ele>
        <time>2021-08-06T09:09:58.330Z</time>
      </trkpt>
      <trkpt lat="46.96941" lon="8.77041">
        <ele>758</ele>
        <time>2021-08-06T09:09:59.331Z</time>
      </trkpt>
      <trkpt lat="46.96941" lon="8.77041">
        <ele>758</ele>
        <time>2021-08-06T09:10:00.330Z</time>
      </trkpt>
      <trkpt lat="46.96941" lon="8.7704">
        <ele>758</ele>
        <time>2021-08-06T09:10:01.331Z</time>
      </trkpt>
      <trkpt lat="46.96941" lon="8.77039">
        <ele>758</ele>
        <time>2021-08-06T09:10:02.331Z</time>
      </trkpt>
      <trkpt lat="46.96941" lon="8.77038">
        <ele>758</ele>
        <time>2021-08-06T09:10:03.330Z</time>
      </trkpt>
      <trkpt lat="46.9694" lon="8.77036">
        <ele>759</ele>
        <time>2021-08-06T09:10:04.331Z</time>
      </trkpt>
      <trkpt lat="46.9694" lon="8.77035">
        <ele>759</ele>
        <time>2021-08-06T09:10:05.331Z</time>
      </trkpt>
      <trkpt lat="46.9694" lon="8.77034">
        <ele>759</ele>
        <time>2021-08-06T09:10:06.330Z</time>
      </trkpt>
      <trkpt lat="46.96939" lon="8.77033">
        <ele>760</ele>
        <time>2021-08-06T09:10:07.330Z</time>
      </trkpt>
      <trkpt lat="46.96939" lon="8.77032">
        <ele>760</ele>
        <time>2021-08-06T09:10:08.331Z</time>
      </trkpt>
      <trkpt lat="46.96939" lon="8.77031">
        <ele>759</ele>
        <time>2021-08-06T09:10:09.331Z</time>
      </trkpt>
      <trkpt lat="46.96938" lon="8.77029">
        <ele>759</ele>
        <time>2021-08-06T09:10:10.330Z</time>
      </trkpt>
      <trkpt lat="46.96938" lon="8.77028">
        <ele>759</ele>
        <time>2021-08-06T09:10:11.330Z</time>
      </trkpt>
      <trkpt lat="46.96938" lon="8.77027">
        <ele>759</ele>
        <time>2021-08-06T09:10:12.331Z</time>
      </trkpt>
      <trkpt lat="46.96938" lon="8.77026">
        <ele>759</ele>
        <time>2021-08-06T09:10:13.330Z</time>
      </trkpt>
      <trkpt lat="46.96938" lon="8.77025">
        <ele>759</ele>
        <time>2021-08-06T09:10:14.330Z</time>
      </trkpt>
      <trkpt lat="46.96937" lon="8.77024">
        <ele>760</ele>
        <time>2021-08-06T09:10:15.330Z</time>
      </trkpt>
      <trkpt lat="46.96936" lon="8.77023">
        <ele>760</ele>
        <time>2021-08-06T09:10:16.330Z</time>
      </trkpt>
      <trkpt lat="46.96936" lon="8.77022">
        <ele>761</ele>
        <time>2021-08-06T09:10:17.331Z</time>
      </trkpt>
      <trkpt lat="46.96935" lon="8.77021">
        <ele>761</ele>
        <time>2021-08-06T09:10:18.331Z</time>
      </trkpt>
      <trkpt lat="46.96935" lon="8.7702">
        <ele>762</ele>
        <time>2021-08-06T09:10:19.330Z</time>
      </trkpt>
      <trkpt lat="46.96934" lon="8.77018">
        <ele>762</ele>
        <time>2021-08-06T09:10:20.331Z</time>
      </trkpt>
      <trkpt lat="46.96934" lon="8.77017">
        <ele>763</ele>
        <time>2021-08-06T09:10:21.331Z</time>
      </trkpt>
      <trkpt lat="46.96934" lon="8.77016">
        <ele>763</ele>
        <time>2021-08-06T09:10:22.331Z</time>
      </trkpt>
      <trkpt lat="46.96933" lon="8.77014">
        <ele>763</ele>
        <time>2021-08-06T09:10:23.330Z</time>
      </trkpt>
      <trkpt lat="46.96933" lon="8.77013">
        <ele>763</ele>
        <time>2021-08-06T09:10:24.330Z</time>
      </trkpt>
      <trkpt lat="46.96932" lon="8.77012">
        <ele>764</ele>
        <time>2021-08-06T09:10:25.330Z</time>
      </trkpt>
      <trkpt lat="46.96932" lon="8.77011">
        <ele>764</ele>
        <time>2021-08-06T09:10:26.330Z</time>
      </trkpt>
      <trkpt lat="46.96932" lon="8.7701">
        <ele>763</ele>
        <time>2021-08-06T09:10:27.330Z</time>
      </trkpt>
      <trkpt lat="46.96931" lon="8.77009">
        <ele>763</ele>
        <time>2021-08-06T09:10:28.330Z</time>
      </trkpt>
      <trkpt lat="46.96931" lon="8.77008">
        <ele>762</ele>
        <time>2021-08-06T09:10:29.331Z</time>
      </trkpt>
      <trkpt lat="46.96931" lon="8.77007">
        <ele>763</ele>
        <time>2021-08-06T09:10:30.331Z</time>
      </trkpt>
      <trkpt lat="46.9693" lon="8.77006">
        <ele>763</ele>
        <time>2021-08-06T09:10:31.330Z</time>
      </trkpt>
      <trkpt lat="46.96929" lon="8.77005">
        <ele>764</ele>
        <time>2021-08-06T09:10:32.331Z</time>
      </trkpt>
      <trkpt lat="46.96928" lon="8.77003">
        <ele>764</ele>
        <time>2021-08-06T09:10:33.331Z</time>
      </trkpt>
      <trkpt lat="46.96928" lon="8.77002">
        <ele>765</ele>
        <time>2021-08-06T09:10:34.330Z</time>
      </trkpt>
      <trkpt lat="46.96927" lon="8.77001">
        <ele>765</ele>
        <time>2021-08-06T09:10:35.330Z</time>
      </trkpt>
      <trkpt lat="46.96927" lon="8.77">
        <ele>765</ele>
        <time>2021-08-06T09:10:36.331Z</time>
      </trkpt>
      <trkpt lat="46.96927" lon="8.76999">
        <ele>765</ele>
        <time>2021-08-06T09:10:37.331Z</time>
      </trkpt>
      <trkpt lat="46.96926" lon="8.76998">
        <ele>765</ele>
        <time>2021-08-06T09:10:38.330Z</time>
      </trkpt>
      <trkpt lat="46.96926" lon="8.76997">
        <ele>766</ele>
        <time>2021-08-06T09:10:39.330Z</time>
      </trkpt>
      <trkpt lat="46.96925" lon="8.76996">
        <ele>766</ele>
        <time>2021-08-06T09:10:40.330Z</time>
      </trkpt>
      <trkpt lat="46.96925" lon="8.76994">
        <ele>766</ele>
        <time>2021-08-06T09:10:41.330Z</time>
      </trkpt>
      <trkpt lat="46.96924" lon="8.76993">
        <ele>767</ele>
        <time>2021-08-06T09:10:42.330Z</time>
      </trkpt>
      <trkpt lat="46.96924" lon="8.76992">
        <ele>767</ele>
        <time>2021-08-06T09:10:43.330Z</time>
      </trkpt>
      <trkpt lat="46.96923" lon="8.76991">
        <ele>767</ele>
        <time>2021-08-06T09:10:44.330Z</time>
      </trkpt>
      <trkpt lat="46.96923" lon="8.76989">
        <ele>767</ele>
        <time>2021-08-06T09:10:45.330Z</time>
      </trkpt>
      <trkpt lat="46.96922" lon="8.76988">
        <ele>768</ele>
        <time>2021-08-06T09:10:46.331Z</time>
      </trkpt>
      <trkpt lat="46.96922" lon="8.76987">
        <ele>768</ele>
        <time>2021-08-06T09:10:47.330Z</time>
      </trkpt>
      <trkpt lat="46.96921" lon="8.76986">
        <ele>768</ele>
        <time>2021-08-06T09:10:48.331Z</time>
      </trkpt>
      <trkpt lat="46.96921" lon="8.76984">
        <ele>768</ele>
        <time>2021-08-06T09:10:49.330Z</time>
      </trkpt>
      <trkpt lat="46.9692" lon="8.76983">
        <ele>768</ele>
        <time>2021-08-06T09:10:50.331Z</time>
      </trkpt>
      <trkpt lat="46.9692" lon="8.76982">
        <ele>768</ele>
        <time>2021-08-06T09:10:51.330Z</time>
      </trkpt>
      <trkpt lat="46.96919" lon="8.76981">
        <ele>768</ele>
        <time>2021-08-06T09:10:52.331Z</time>
      </trkpt>
      <trkpt lat="46.96918" lon="8.7698">
        <ele>768</ele>
        <time>2021-08-06T09:10:53.331Z</time>
      </trkpt>
      <trkpt lat="46.96918" lon="8.76978">
        <ele>768</ele>
        <time>2021-08-06T09:10:54.331Z</time>
      </trkpt>
      <trkpt lat="46.96917" lon="8.76977">
        <ele>768</ele>
        <time>2021-08-06T09:10:55.330Z</time>
      </trkpt>
      <trkpt lat="46.96916" lon="8.76976">
        <ele>769</ele>
        <time>2021-08-06T09:10:56.331Z</time>
      </trkpt>
      <trkpt lat="46.96916" lon="8.76975">
        <ele>769</ele>
        <time>2021-08-06T09:10:57.330Z</time>
      </trkpt>
      <trkpt lat="46.96915" lon="8.76973">
        <ele>769</ele>
        <time>2021-08-06T09:10:58.330Z</time>
      </trkpt>
      <trkpt lat="46.96915" lon="8.76972">
        <ele>769</ele>
        <time>2021-08-06T09:10:59.330Z</time>
      </trkpt>
      <trkpt lat="46.96914" lon="8.76971">
        <ele>769</ele>
        <time>2021-08-06T09:11:00.331Z</time>
      </trkpt>
      <trkpt lat="46.96913" lon="8.7697">
        <ele>769</ele>
        <time>2021-08-06T09:11:01.331Z</time>
      </trkpt>
      <trkpt lat="46.96913" lon="8.76969">
        <ele>769</ele>
        <time>2021-08-06T09:11:02.330Z</time>
      </trkpt>
      <trkpt lat="46.96912" lon="8.76968">
        <ele>769</ele>
        <time>2021-08-06T09:11:03.330Z</time>
      </trkpt>
      <trkpt lat="46.96912" lon="8.76966">
        <ele>769</ele>
        <time>2021-08-06T09:11:04.330Z</time>
      </trkpt>
      <trkpt lat="46.96911" lon="8.76965">
        <ele>769</ele>
        <time>2021-08-06T09:11:05.331Z</time>
      </trkpt>
      <trkpt lat="46.9691" lon="8.76964">
        <ele>769</ele>
        <time>2021-08-06T09:11:06.331Z</time>
      </trkpt>
      <trkpt lat="46.9691" lon="8.76963">
        <ele>769</ele>
        <time>2021-08-06T09:11:07.331Z</time>
      </trkpt>
      <trkpt lat="46.96909" lon="8.76962">
        <ele>770</ele>
        <time>2021-08-06T09:11:08.331Z</time>
      </trkpt>
      <trkpt lat="46.96908" lon="8.76962">
        <ele>770</ele>
        <time>2021-08-06T09:11:09.331Z</time>
      </trkpt>
      <trkpt lat="46.96907" lon="8.76961">
        <ele>770</ele>
        <time>2021-08-06T09:11:10.330Z</time>
      </trkpt>
      <trkpt lat="46.96907" lon="8.7696">
        <ele>770</ele>
        <time>2021-08-06T09:11:11.331Z</time>
      </trkpt>
      <trkpt lat="46.96907" lon="8.76958">
        <ele>770</ele>
        <time>2021-08-06T09:11:12.330Z</time>
      </trkpt>
      <trkpt lat="46.96906" lon="8.76958">
        <ele>770</ele>
        <time>2021-08-06T09:11:13.331Z</time>
      </trkpt>
      <trkpt lat="46.96905" lon="8.76957">
        <ele>770</ele>
        <time>2021-08-06T09:11:14.330Z</time>
      </trkpt>
      <trkpt lat="46.96905" lon="8.76956">
        <ele>770</ele>
        <time>2021-08-06T09:11:15.331Z</time>
      </trkpt>
      <trkpt lat="46.96904" lon="8.76955">
        <ele>771</ele>
        <time>2021-08-06T09:11:16.330Z</time>
      </trkpt>
      <trkpt lat="46.96903" lon="8.76954">
        <ele>772</ele>
        <time>2021-08-06T09:11:17.330Z</time>
      </trkpt>
      <trkpt lat="46.96902" lon="8.76953">
        <ele>773</ele>
        <time>2021-08-06T09:11:18.331Z</time>
      </trkpt>
      <trkpt lat="46.96902" lon="8.76952">
        <ele>773</ele>
        <time>2021-08-06T09:11:19.331Z</time>
      </trkpt>
      <trkpt lat="46.96901" lon="8.76951">
        <ele>774</ele>
        <time>2021-08-06T09:11:20.331Z</time>
      </trkpt>
      <trkpt lat="46.969" lon="8.7695">
        <ele>774</ele>
        <time>2021-08-06T09:11:21.330Z</time>
      </trkpt>
      <trkpt lat="46.969" lon="8.7695">
        <ele>773</ele>
        <time>2021-08-06T09:11:22.330Z</time>
      </trkpt>
      <trkpt lat="46.96899" lon="8.76949">
        <ele>773</ele>
        <time>2021-08-06T09:11:23.331Z</time>
      </trkpt>
      <trkpt lat="46.96899" lon="8.76948">
        <ele>773</ele>
        <time>2021-08-06T09:11:24.330Z</time>
      </trkpt>
      <trkpt lat="46.96898" lon="8.76947">
        <ele>773</ele>
        <time>2021-08-06T09:11:25.331Z</time>
      </trkpt>
      <trkpt lat="46.96898" lon="8.76946">
        <ele>773</ele>
        <time>2021-08-06T09:11:26.331Z</time>
      </trkpt>
      <trkpt lat="46.96897" lon="8.76944">
        <ele>773</ele>
        <time>2021-08-06T09:11:27.330Z</time>
      </trkpt>
      <trkpt lat="46.96896" lon="8.76943">
        <ele>773</ele>
        <time>2021-08-06T09:11:28.330Z</time>
      </trkpt>
      <trkpt lat="46.96896" lon="8.76943">
        <ele>773</ele>
        <time>2021-08-06T09:11:29.331Z</time>
      </trkpt>
      <trkpt lat="46.96895" lon="8.76942">
        <ele>773</ele>
        <time>2021-08-06T09:11:30.330Z</time>
      </trkpt>
      <trkpt lat="46.96894" lon="8.76941">
        <ele>772</ele>
        <time>2021-08-06T09:11:31.331Z</time>
      </trkpt>
      <trkpt lat="46.96893" lon="8.7694">
        <ele>772</ele>
        <time>2021-08-06T09:11:32.331Z</time>
      </trkpt>
      <trkpt lat="46.96892" lon="8.76939">
        <ele>772</ele>
        <time>2021-08-06T09:11:33.331Z</time>
      </trkpt>
      <trkpt lat="46.96892" lon="8.76938">
        <ele>772</ele>
        <time>2021-08-06T09:11:34.331Z</time>
      </trkpt>
      <trkpt lat="46.96891" lon="8.76937">
        <ele>773</ele>
        <time>2021-08-06T09:11:35.331Z</time>
      </trkpt>
      <trkpt lat="46.96891" lon="8.76936">
        <ele>773</ele>
        <time>2021-08-06T09:11:36.330Z</time>
      </trkpt>
      <trkpt lat="46.9689" lon="8.76935">
        <ele>773</ele>
        <time>2021-08-06T09:11:37.331Z</time>
      </trkpt>
      <trkpt lat="46.96889" lon="8.76934">
        <ele>773</ele>
        <time>2021-08-06T09:11:38.330Z</time>
      </trkpt>
      <trkpt lat="46.96888" lon="8.76932">
        <ele>774</ele>
        <time>2021-08-06T09:11:39.330Z</time>
      </trkpt>
      <trkpt lat="46.96887" lon="8.76931">
        <ele>774</ele>
        <time>2021-08-06T09:11:40.330Z</time>
      </trkpt>
      <trkpt lat="46.96887" lon="8.7693">
        <ele>774</ele>
        <time>2021-08-06T09:11:41.331Z</time>
      </trkpt>
      <trkpt lat="46.96886" lon="8.76928">
        <ele>775</ele>
        <time>2021-08-06T09:11:42.331Z</time>
      </trkpt>
      <trkpt lat="46.96885" lon="8.76927">
        <ele>775</ele>
        <time>2021-08-06T09:11:43.330Z</time>
      </trkpt>
      <trkpt lat="46.96885" lon="8.76926">
        <ele>776</ele>
        <time>2021-08-06T09:11:44.330Z</time>
      </trkpt>
      <trkpt lat="46.96884" lon="8.76926">
        <ele>776</ele>
        <time>2021-08-06T09:11:45.331Z</time>
      </trkpt>
      <trkpt lat="46.96883" lon="8.76925">
        <ele>776</ele>
        <time>2021-08-06T09:11:46.330Z</time>
      </trkpt>
      <trkpt lat="46.96883" lon="8.76924">
        <ele>776</ele>
        <time>2021-08-06T09:11:47.331Z</time>
      </trkpt>
      <trkpt lat="46.96882" lon="8.76923">
        <ele>776</ele>
        <time>2021-08-06T09:11:48.330Z</time>
      </trkpt>
      <trkpt lat="46.96881" lon="8.76922">
        <ele>776</ele>
        <time>2021-08-06T09:11:49.330Z</time>
      </trkpt>
      <trkpt lat="46.9688" lon="8.76921">
        <ele>776</ele>
        <time>2021-08-06T09:11:50.330Z</time>
      </trkpt>
      <trkpt lat="46.9688" lon="8.7692">
        <ele>777</ele>
        <time>2021-08-06T09:11:51.331Z</time>
      </trkpt>
      <trkpt lat="46.96879" lon="8.76919">
        <ele>777</ele>
        <time>2021-08-06T09:11:52.330Z</time>
      </trkpt>
      <trkpt lat="46.96878" lon="8.76918">
        <ele>777</ele>
        <time>2021-08-06T09:11:53.330Z</time>
      </trkpt>
      <trkpt lat="46.96877" lon="8.76917">
        <ele>778</ele>
        <time>2021-08-06T09:11:54.330Z</time>
      </trkpt>
      <trkpt lat="46.96876" lon="8.76916">
        <ele>778</ele>
        <time>2021-08-06T09:11:55.330Z</time>
      </trkpt>
      <trkpt lat="46.96876" lon="8.76915">
        <ele>778</ele>
        <time>2021-08-06T09:11:56.330Z</time>
      </trkpt>
      <trkpt lat="46.96875" lon="8.76914">
        <ele>778</ele>
        <time>2021-08-06T09:11:57.330Z</time>
      </trkpt>
      <trkpt lat="46.96875" lon="8.76913">
        <ele>778</ele>
        <time>2021-08-06T09:11:58.330Z</time>
      </trkpt>
      <trkpt lat="46.96874" lon="8.76912">
        <ele>778</ele>
        <time>2021-08-06T09:11:59.330Z</time>
      </trkpt>
      <trkpt lat="46.96873" lon="8.76911">
        <ele>778</ele>
        <time>2021-08-06T09:12:00.330Z</time>
      </trkpt>
      <trkpt lat="46.96872" lon="8.7691">
        <ele>778</ele>
        <time>2021-08-06T09:12:01.330Z</time>
      </trkpt>
      <trkpt lat="46.96872" lon="8.76909">
        <ele>778</ele>
        <time>2021-08-06T09:12:02.330Z</time>
      </trkpt>
      <trkpt lat="46.96871" lon="8.76908">
        <ele>778</ele>
        <time>2021-08-06T09:12:03.330Z</time>
      </trkpt>
      <trkpt lat="46.9687" lon="8.76907">
        <ele>779</ele>
        <time>2021-08-06T09:12:04.330Z</time>
      </trkpt>
      <trkpt lat="46.96869" lon="8.76905">
        <ele>779</ele>
        <time>2021-08-06T09:12:05.330Z</time>
      </trkpt>
      <trkpt lat="46.96869" lon="8.76904">
        <ele>780</ele>
        <time>2021-08-06T09:12:06.330Z</time>
      </trkpt>
      <trkpt lat="46.96869" lon="8.76903">
        <ele>780</ele>
        <time>2021-08-06T09:12:07.330Z</time>
      </trkpt>
      <trkpt lat="46.96868" lon="8.76902">
        <ele>781</ele>
        <time>2021-08-06T09:12:08.331Z</time>
      </trkpt>
      <trkpt lat="46.96868" lon="8.76902">
        <ele>781</ele>
        <time>2021-08-06T09:12:09.330Z</time>
      </trkpt>
      <trkpt lat="46.96868" lon="8.76902">
        <ele>781</ele>
        <time>2021-08-06T09:12:10.330Z</time>
      </trkpt>
      <trkpt lat="46.96868" lon="8.76903">
        <ele>780</ele>
        <time>2021-08-06T09:12:11.330Z</time>
      </trkpt>
      <trkpt lat="46.96867" lon="8.76907">
        <ele>778</ele>
        <time>2021-08-06T09:12:12.330Z</time>
      </trkpt>
      <trkpt lat="46.96867" lon="8.76907">
        <ele>778</ele>
        <time>2021-08-06T09:12:13.331Z</time>
      </trkpt>
      <trkpt lat="46.96867" lon="8.76907">
        <ele>777</ele>
        <time>2021-08-06T09:12:14.330Z</time>
      </trkpt>
      <trkpt lat="46.96866" lon="8.76906">
        <ele>777</ele>
        <time>2021-08-06T09:12:15.330Z</time>
      </trkpt>
      <trkpt lat="46.96866" lon="8.76904">
        <ele>777</ele>
        <time>2021-08-06T09:12:16.331Z</time>
      </trkpt>
      <trkpt lat="46.96866" lon="8.76903">
        <ele>777</ele>
        <time>2021-08-06T09:12:17.330Z</time>
      </trkpt>
      <trkpt lat="46.96865" lon="8.76902">
        <ele>777</ele>
        <time>2021-08-06T09:12:18.330Z</time>
      </trkpt>
      <trkpt lat="46.96864" lon="8.76901">
        <ele>777</ele>
        <time>2021-08-06T09:12:19.330Z</time>
      </trkpt>
      <trkpt lat="46.96864" lon="8.769">
        <ele>777</ele>
        <time>2021-08-06T09:12:20.331Z</time>
      </trkpt>
      <trkpt lat="46.96863" lon="8.76899">
        <ele>776</ele>
        <time>2021-08-06T09:12:21.330Z</time>
      </trkpt>
      <trkpt lat="46.96863" lon="8.76898">
        <ele>776</ele>
        <time>2021-08-06T09:12:22.331Z</time>
      </trkpt>
      <trkpt lat="46.96862" lon="8.76896">
        <ele>776</ele>
        <time>2021-08-06T09:12:23.331Z</time>
      </trkpt>
      <trkpt lat="46.96861" lon="8.76896">
        <ele>776</ele>
        <time>2021-08-06T09:12:24.331Z</time>
      </trkpt>
      <trkpt lat="46.9686" lon="8.76895">
        <ele>776</ele>
        <time>2021-08-06T09:12:25.331Z</time>
      </trkpt>
      <trkpt lat="46.96859" lon="8.76894">
        <ele>776</ele>
        <time>2021-08-06T09:12:26.331Z</time>
      </trkpt>
      <trkpt lat="46.96858" lon="8.76893">
        <ele>776</ele>
        <time>2021-08-06T09:12:27.331Z</time>
      </trkpt>
      <trkpt lat="46.96858" lon="8.76892">
        <ele>777</ele>
        <time>2021-08-06T09:12:28.331Z</time>
      </trkpt>
      <trkpt lat="46.96858" lon="8.76892">
        <ele>778</ele>
        <time>2021-08-06T09:12:29.330Z</time>
      </trkpt>
      <trkpt lat="46.96857" lon="8.76891">
        <ele>778</ele>
        <time>2021-08-06T09:12:30.331Z</time>
      </trkpt>
      <trkpt lat="46.96857" lon="8.7689">
        <ele>777</ele>
        <time>2021-08-06T09:12:31.331Z</time>
      </trkpt>
      <trkpt lat="46.96856" lon="8.76888">
        <ele>777</ele>
        <time>2021-08-06T09:12:32.330Z</time>
      </trkpt>
      <trkpt lat="46.96856" lon="8.76887">
        <ele>777</ele>
        <time>2021-08-06T09:12:33.331Z</time>
      </trkpt>
      <trkpt lat="46.96855" lon="8.76886">
        <ele>777</ele>
        <time>2021-08-06T09:12:34.331Z</time>
      </trkpt>
      <trkpt lat="46.96855" lon="8.76885">
        <ele>778</ele>
        <time>2021-08-06T09:12:35.331Z</time>
      </trkpt>
      <trkpt lat="46.96855" lon="8.76884">
        <ele>778</ele>
        <time>2021-08-06T09:12:36.331Z</time>
      </trkpt>
      <trkpt lat="46.96854" lon="8.76883">
        <ele>777</ele>
        <time>2021-08-06T09:12:37.330Z</time>
      </trkpt>
      <trkpt lat="46.96854" lon="8.76882">
        <ele>777</ele>
        <time>2021-08-06T09:12:38.331Z</time>
      </trkpt>
      <trkpt lat="46.96854" lon="8.7688">
        <ele>777</ele>
        <time>2021-08-06T09:12:39.331Z</time>
      </trkpt>
      <trkpt lat="46.96854" lon="8.76879">
        <ele>777</ele>
        <time>2021-08-06T09:12:40.331Z</time>
      </trkpt>
      <trkpt lat="46.96854" lon="8.76878">
        <ele>777</ele>
        <time>2021-08-06T09:12:41.330Z</time>
      </trkpt>
      <trkpt lat="46.96854" lon="8.76877">
        <ele>777</ele>
        <time>2021-08-06T09:12:42.331Z</time>
      </trkpt>
      <trkpt lat="46.96854" lon="8.76877">
        <ele>777</ele>
        <time>2021-08-06T09:12:43.330Z</time>
      </trkpt>
      <trkpt lat="46.96853" lon="8.76877">
        <ele>777</ele>
        <time>2021-08-06T09:12:44.330Z</time>
      </trkpt>
      <trkpt lat="46.96853" lon="8.76877">
        <ele>777</ele>
        <time>2021-08-06T09:12:45.331Z</time>
      </trkpt>
      <trkpt lat="46.96853" lon="8.76877">
        <ele>778</ele>
        <time>2021-08-06T09:12:46.331Z</time>
      </trkpt>
      <trkpt lat="46.96854" lon="8.76876">
        <ele>778</ele>
        <time>2021-08-06T09:12:47.331Z</time>
      </trkpt>
      <trkpt lat="46.96854" lon="8.76875">
        <ele>778</ele>
        <time>2021-08-06T09:12:48.331Z</time>
      </trkpt>
      <trkpt lat="46.96855" lon="8.76874">
        <ele>779</ele>
        <time>2021-08-06T09:12:49.331Z</time>
      </trkpt>
      <trkpt lat="46.96855" lon="8.76873">
        <ele>780</ele>
        <time>2021-08-06T09:12:50.330Z</time>
      </trkpt>
      <trkpt lat="46.96855" lon="8.76872">
        <ele>781</ele>
        <time>2021-08-06T09:12:51.330Z</time>
      </trkpt>
      <trkpt lat="46.96855" lon="8.7687">
        <ele>781</ele>
        <time>2021-08-06T09:12:52.330Z</time>
      </trkpt>
      <trkpt lat="46.96855" lon="8.76869">
        <ele>781</ele>
        <time>2021-08-06T09:12:53.331Z</time>
      </trkpt>
      <trkpt lat="46.96855" lon="8.76868">
        <ele>781</ele>
        <time>2021-08-06T09:12:54.331Z</time>
      </trkpt>
      <trkpt lat="46.96855" lon="8.76866">
        <ele>781</ele>
        <time>2021-08-06T09:12:55.331Z</time>
      </trkpt>
      <trkpt lat="46.96855" lon="8.76865">
        <ele>780</ele>
        <time>2021-08-06T09:12:56.330Z</time>
      </trkpt>
      <trkpt lat="46.96855" lon="8.76863">
        <ele>780</ele>
        <time>2021-08-06T09:12:57.330Z</time>
      </trkpt>
      <trkpt lat="46.96855" lon="8.76862">
        <ele>780</ele>
        <time>2021-08-06T09:12:58.330Z</time>
      </trkpt>
      <trkpt lat="46.96855" lon="8.76861">
        <ele>780</ele>
        <time>2021-08-06T09:12:59.331Z</time>
      </trkpt>
      <trkpt lat="46.96855" lon="8.7686">
        <ele>779</ele>
        <time>2021-08-06T09:13:00.330Z</time>
      </trkpt>
      <trkpt lat="46.96855" lon="8.76858">
        <ele>779</ele>
        <time>2021-08-06T09:13:01.331Z</time>
      </trkpt>
      <trkpt lat="46.96855" lon="8.76857">
        <ele>779</ele>
        <time>2021-08-06T09:13:02.331Z</time>
      </trkpt>
      <trkpt lat="46.96855" lon="8.76856">
        <ele>779</ele>
        <time>2021-08-06T09:13:03.330Z</time>
      </trkpt>
      <trkpt lat="46.96855" lon="8.76855">
        <ele>778</ele>
        <time>2021-08-06T09:13:04.330Z</time>
      </trkpt>
      <trkpt lat="46.96855" lon="8.76853">
        <ele>778</ele>
        <time>2021-08-06T09:13:05.331Z</time>
      </trkpt>
      <trkpt lat="46.96856" lon="8.76852">
        <ele>778</ele>
        <time>2021-08-06T09:13:06.331Z</time>
      </trkpt>
      <trkpt lat="46.96856" lon="8.76851">
        <ele>778</ele>
        <time>2021-08-06T09:13:07.330Z</time>
      </trkpt>
      <trkpt lat="46.96856" lon="8.7685">
        <ele>779</ele>
        <time>2021-08-06T09:13:08.331Z</time>
      </trkpt>
      <trkpt lat="46.96855" lon="8.76848">
        <ele>779</ele>
        <time>2021-08-06T09:13:09.331Z</time>
      </trkpt>
      <trkpt lat="46.96855" lon="8.76847">
        <ele>780</ele>
        <time>2021-08-06T09:13:10.331Z</time>
      </trkpt>
      <trkpt lat="46.96856" lon="8.76846">
        <ele>780</ele>
        <time>2021-08-06T09:13:11.330Z</time>
      </trkpt>
      <trkpt lat="46.96856" lon="8.76845">
        <ele>781</ele>
        <time>2021-08-06T09:13:12.330Z</time>
      </trkpt>
      <trkpt lat="46.96856" lon="8.76844">
        <ele>781</ele>
        <time>2021-08-06T09:13:13.330Z</time>
      </trkpt>
      <trkpt lat="46.96856" lon="8.76843">
        <ele>781</ele>
        <time>2021-08-06T09:13:14.331Z</time>
      </trkpt>
      <trkpt lat="46.96857" lon="8.76842">
        <ele>781</ele>
        <time>2021-08-06T09:13:15.330Z</time>
      </trkpt>
      <trkpt lat="46.96856" lon="8.76841">
        <ele>781</ele>
        <time>2021-08-06T09:13:16.330Z</time>
      </trkpt>
      <trkpt lat="46.96856" lon="8.76839">
        <ele>781</ele>
        <time>2021-08-06T09:13:17.331Z</time>
      </trkpt>
      <trkpt lat="46.96856" lon="8.76838">
        <ele>781</ele>
        <time>2021-08-06T09:13:18.331Z</time>
      </trkpt>
      <trkpt lat="46.96856" lon="8.76836">
        <ele>781</ele>
        <time>2021-08-06T09:13:19.331Z</time>
      </trkpt>
      <trkpt lat="46.96856" lon="8.76835">
        <ele>782</ele>
        <time>2021-08-06T09:13:20.330Z</time>
      </trkpt>
      <trkpt lat="46.96855" lon="8.76833">
        <ele>782</ele>
        <time>2021-08-06T09:13:21.330Z</time>
      </trkpt>
      <trkpt lat="46.96855" lon="8.76832">
        <ele>782</ele>
        <time>2021-08-06T09:13:22.331Z</time>
      </trkpt>
      <trkpt lat="46.96854" lon="8.76831">
        <ele>782</ele>
        <time>2021-08-06T09:13:23.331Z</time>
      </trkpt>
      <trkpt lat="46.96853" lon="8.7683">
        <ele>782</ele>
        <time>2021-08-06T09:13:24.331Z</time>
      </trkpt>
      <trkpt lat="46.96853" lon="8.76829">
        <ele>782</ele>
        <time>2021-08-06T09:13:25.331Z</time>
      </trkpt>
      <trkpt lat="46.96852" lon="8.76828">
        <ele>782</ele>
        <time>2021-08-06T09:13:26.331Z</time>
      </trkpt>
      <trkpt lat="46.96852" lon="8.76827">
        <ele>781</ele>
        <time>2021-08-06T09:13:27.331Z</time>
      </trkpt>
      <trkpt lat="46.96851" lon="8.76826">
        <ele>782</ele>
        <time>2021-08-06T09:13:28.331Z</time>
      </trkpt>
      <trkpt lat="46.96851" lon="8.76825">
        <ele>782</ele>
        <time>2021-08-06T09:13:29.331Z</time>
      </trkpt>
      <trkpt lat="46.9685" lon="8.76825">
        <ele>783</ele>
        <time>2021-08-06T09:13:30.330Z</time>
      </trkpt>
      <trkpt lat="46.9685" lon="8.76825">
        <ele>783</ele>
        <time>2021-08-06T09:13:31.330Z</time>
      </trkpt>
      <trkpt lat="46.9685" lon="8.76825">
        <ele>785</ele>
        <time>2021-08-06T09:13:32.331Z</time>
      </trkpt>
      <trkpt lat="46.96848" lon="8.76824">
        <ele>786</ele>
        <time>2021-08-06T09:13:33.331Z</time>
      </trkpt>
      <trkpt lat="46.96847" lon="8.76822">
        <ele>786</ele>
        <time>2021-08-06T09:13:34.331Z</time>
      </trkpt>
      <trkpt lat="46.96846" lon="8.76821">
        <ele>787</ele>
        <time>2021-08-06T09:13:35.331Z</time>
      </trkpt>
      <trkpt lat="46.96846" lon="8.7682">
        <ele>787</ele>
        <time>2021-08-06T09:13:36.331Z</time>
      </trkpt>
      <trkpt lat="46.96845" lon="8.76818">
        <ele>787</ele>
        <time>2021-08-06T09:13:37.331Z</time>
      </trkpt>
      <trkpt lat="46.96844" lon="8.76817">
        <ele>787</ele>
        <time>2021-08-06T09:13:38.331Z</time>
      </trkpt>
      <trkpt lat="46.96844" lon="8.76816">
        <ele>787</ele>
        <time>2021-08-06T09:13:39.331Z</time>
      </trkpt>
      <trkpt lat="46.96843" lon="8.76814">
        <ele>787</ele>
        <time>2021-08-06T09:13:40.331Z</time>
      </trkpt>
      <trkpt lat="46.96843" lon="8.76813">
        <ele>787</ele>
        <time>2021-08-06T09:13:41.331Z</time>
      </trkpt>
      <trkpt lat="46.96842" lon="8.76812">
        <ele>788</ele>
        <time>2021-08-06T09:13:42.332Z</time>
      </trkpt>
      <trkpt lat="46.96841" lon="8.7681">
        <ele>788</ele>
        <time>2021-08-06T09:13:43.332Z</time>
      </trkpt>
      <trkpt lat="46.96841" lon="8.76809">
        <ele>788</ele>
        <time>2021-08-06T09:13:44.331Z</time>
      </trkpt>
      <trkpt lat="46.9684" lon="8.76807">
        <ele>789</ele>
        <time>2021-08-06T09:13:45.331Z</time>
      </trkpt>
      <trkpt lat="46.96839" lon="8.76806">
        <ele>789</ele>
        <time>2021-08-06T09:13:46.331Z</time>
      </trkpt>
      <trkpt lat="46.96839" lon="8.76804">
        <ele>789</ele>
        <time>2021-08-06T09:13:47.331Z</time>
      </trkpt>
      <trkpt lat="46.96838" lon="8.76803">
        <ele>789</ele>
        <time>2021-08-06T09:13:48.331Z</time>
      </trkpt>
      <trkpt lat="46.96837" lon="8.76802">
        <ele>788</ele>
        <time>2021-08-06T09:13:49.331Z</time>
      </trkpt>
      <trkpt lat="46.96837" lon="8.76801">
        <ele>788</ele>
        <time>2021-08-06T09:13:50.332Z</time>
      </trkpt>
      <trkpt lat="46.96836" lon="8.76799">
        <ele>788</ele>
        <time>2021-08-06T09:13:51.331Z</time>
      </trkpt>
      <trkpt lat="46.96836" lon="8.76798">
        <ele>788</ele>
        <time>2021-08-06T09:13:52.331Z</time>
      </trkpt>
      <trkpt lat="46.96835" lon="8.76797">
        <ele>788</ele>
        <time>2021-08-06T09:13:53.331Z</time>
      </trkpt>
      <trkpt lat="46.96834" lon="8.76796">
        <ele>788</ele>
        <time>2021-08-06T09:13:54.331Z</time>
      </trkpt>
      <trkpt lat="46.96834" lon="8.76795">
        <ele>787</ele>
        <time>2021-08-06T09:13:55.332Z</time>
      </trkpt>
      <trkpt lat="46.96833" lon="8.76794">
        <ele>786</ele>
        <time>2021-08-06T09:13:56.331Z</time>
      </trkpt>
      <trkpt lat="46.96833" lon="8.76793">
        <ele>786</ele>
        <time>2021-08-06T09:13:57.331Z</time>
      </trkpt>
      <trkpt lat="46.96832" lon="8.76792">
        <ele>785</ele>
        <time>2021-08-06T09:13:58.332Z</time>
      </trkpt>
      <trkpt lat="46.96832" lon="8.7679">
        <ele>785</ele>
        <time>2021-08-06T09:13:59.331Z</time>
      </trkpt>
      <trkpt lat="46.96831" lon="8.76789">
        <ele>786</ele>
        <time>2021-08-06T09:14:00.332Z</time>
      </trkpt>
      <trkpt lat="46.96831" lon="8.76788">
        <ele>786</ele>
        <time>2021-08-06T09:14:01.332Z</time>
      </trkpt>
      <trkpt lat="46.9683" lon="8.76787">
        <ele>786</ele>
        <time>2021-08-06T09:14:02.331Z</time>
      </trkpt>
      <trkpt lat="46.96829" lon="8.76785">
        <ele>787</ele>
        <time>2021-08-06T09:14:03.331Z</time>
      </trkpt>
      <trkpt lat="46.96829" lon="8.76785">
        <ele>787</ele>
        <time>2021-08-06T09:14:04.331Z</time>
      </trkpt>
      <trkpt lat="46.96828" lon="8.76783">
        <ele>787</ele>
        <time>2021-08-06T09:14:05.331Z</time>
      </trkpt>
      <trkpt lat="46.96828" lon="8.76781">
        <ele>788</ele>
        <time>2021-08-06T09:14:06.331Z</time>
      </trkpt>
      <trkpt lat="46.96828" lon="8.7678">
        <ele>788</ele>
        <time>2021-08-06T09:14:07.331Z</time>
      </trkpt>
      <trkpt lat="46.96827" lon="8.76779">
        <ele>788</ele>
        <time>2021-08-06T09:14:08.331Z</time>
      </trkpt>
      <trkpt lat="46.96827" lon="8.76778">
        <ele>788</ele>
        <time>2021-08-06T09:14:09.332Z</time>
      </trkpt>
      <trkpt lat="46.96827" lon="8.76776">
        <ele>788</ele>
        <time>2021-08-06T09:14:10.332Z</time>
      </trkpt>
      <trkpt lat="46.96826" lon="8.76775">
        <ele>788</ele>
        <time>2021-08-06T09:14:11.331Z</time>
      </trkpt>
      <trkpt lat="46.96826" lon="8.76774">
        <ele>788</ele>
        <time>2021-08-06T09:14:12.331Z</time>
      </trkpt>
      <trkpt lat="46.96826" lon="8.76773">
        <ele>787</ele>
        <time>2021-08-06T09:14:13.332Z</time>
      </trkpt>
      <trkpt lat="46.96826" lon="8.76771">
        <ele>788</ele>
        <time>2021-08-06T09:14:14.332Z</time>
      </trkpt>
      <trkpt lat="46.96826" lon="8.7677">
        <ele>787</ele>
        <time>2021-08-06T09:14:15.332Z</time>
      </trkpt>
      <trkpt lat="46.96826" lon="8.76769">
        <ele>787</ele>
        <time>2021-08-06T09:14:16.332Z</time>
      </trkpt>
      <trkpt lat="46.96826" lon="8.76767">
        <ele>787</ele>
        <time>2021-08-06T09:14:17.331Z</time>
      </trkpt>
      <trkpt lat="46.96826" lon="8.76766">
        <ele>786</ele>
        <time>2021-08-06T09:14:18.332Z</time>
      </trkpt>
      <trkpt lat="46.96826" lon="8.76765">
        <ele>786</ele>
        <time>2021-08-06T09:14:19.331Z</time>
      </trkpt>
      <trkpt lat="46.96826" lon="8.76763">
        <ele>785</ele>
        <time>2021-08-06T09:14:20.331Z</time>
      </trkpt>
      <trkpt lat="46.96826" lon="8.76762">
        <ele>785</ele>
        <time>2021-08-06T09:14:21.331Z</time>
      </trkpt>
      <trkpt lat="46.96826" lon="8.7676">
        <ele>784</ele>
        <time>2021-08-06T09:14:22.331Z</time>
      </trkpt>
      <trkpt lat="46.96826" lon="8.76759">
        <ele>784</ele>
        <time>2021-08-06T09:14:23.331Z</time>
      </trkpt>
      <trkpt lat="46.96826" lon="8.76758">
        <ele>784</ele>
        <time>2021-08-06T09:14:24.331Z</time>
      </trkpt>
      <trkpt lat="46.96826" lon="8.76757">
        <ele>783</ele>
        <time>2021-08-06T09:14:25.331Z</time>
      </trkpt>
      <trkpt lat="46.96826" lon="8.76756">
        <ele>783</ele>
        <time>2021-08-06T09:14:26.331Z</time>
      </trkpt>
      <trkpt lat="46.96826" lon="8.76754">
        <ele>783</ele>
        <time>2021-08-06T09:14:27.332Z</time>
      </trkpt>
      <trkpt lat="46.96826" lon="8.76753">
        <ele>783</ele>
        <time>2021-08-06T09:14:28.331Z</time>
      </trkpt>
      <trkpt lat="46.96826" lon="8.76752">
        <ele>783</ele>
        <time>2021-08-06T09:14:29.332Z</time>
      </trkpt>
      <trkpt lat="46.96826" lon="8.76751">
        <ele>783</ele>
        <time>2021-08-06T09:14:30.331Z</time>
      </trkpt>
      <trkpt lat="46.96826" lon="8.76749">
        <ele>784</ele>
        <time>2021-08-06T09:14:31.332Z</time>
      </trkpt>
      <trkpt lat="46.96826" lon="8.76748">
        <ele>784</ele>
        <time>2021-08-06T09:14:32.331Z</time>
      </trkpt>
      <trkpt lat="46.96826" lon="8.76747">
        <ele>785</ele>
        <time>2021-08-06T09:14:33.331Z</time>
      </trkpt>
      <trkpt lat="46.96826" lon="8.76746">
        <ele>785</ele>
        <time>2021-08-06T09:14:34.331Z</time>
      </trkpt>
      <trkpt lat="46.96826" lon="8.76744">
        <ele>786</ele>
        <time>2021-08-06T09:14:35.331Z</time>
      </trkpt>
      <trkpt lat="46.96825" lon="8.76743">
        <ele>786</ele>
        <time>2021-08-06T09:14:36.331Z</time>
      </trkpt>
      <trkpt lat="46.96825" lon="8.76742">
        <ele>786</ele>
        <time>2021-08-06T09:14:37.331Z</time>
      </trkpt>
      <trkpt lat="46.96825" lon="8.76741">
        <ele>787</ele>
        <time>2021-08-06T09:14:38.331Z</time>
      </trkpt>
      <trkpt lat="46.96825" lon="8.7674">
        <ele>787</ele>
        <time>2021-08-06T09:14:39.331Z</time>
      </trkpt>
      <trkpt lat="46.96825" lon="8.76738">
        <ele>786</ele>
        <time>2021-08-06T09:14:40.331Z</time>
      </trkpt>
      <trkpt lat="46.96825" lon="8.76737">
        <ele>786</ele>
        <time>2021-08-06T09:14:41.331Z</time>
      </trkpt>
      <trkpt lat="46.96825" lon="8.76735">
        <ele>786</ele>
        <time>2021-08-06T09:14:42.331Z</time>
      </trkpt>
      <trkpt lat="46.96825" lon="8.76734">
        <ele>787</ele>
        <time>2021-08-06T09:14:43.331Z</time>
      </trkpt>
      <trkpt lat="46.96825" lon="8.76733">
        <ele>786</ele>
        <time>2021-08-06T09:14:44.331Z</time>
      </trkpt>
      <trkpt lat="46.96825" lon="8.76731">
        <ele>786</ele>
        <time>2021-08-06T09:14:45.331Z</time>
      </trkpt>
      <trkpt lat="46.96825" lon="8.76729">
        <ele>787</ele>
        <time>2021-08-06T09:14:46.331Z</time>
      </trkpt>
      <trkpt lat="46.96825" lon="8.76728">
        <ele>787</ele>
        <time>2021-08-06T09:14:47.332Z</time>
      </trkpt>
      <trkpt lat="46.96825" lon="8.76727">
        <ele>787</ele>
        <time>2021-08-06T09:14:48.331Z</time>
      </trkpt>
      <trkpt lat="46.96825" lon="8.76725">
        <ele>787</ele>
        <time>2021-08-06T09:14:49.331Z</time>
      </trkpt>
      <trkpt lat="46.96825" lon="8.76724">
        <ele>787</ele>
        <time>2021-08-06T09:14:50.331Z</time>
      </trkpt>
      <trkpt lat="46.96825" lon="8.76723">
        <ele>787</ele>
        <time>2021-08-06T09:14:51.331Z</time>
      </trkpt>
      <trkpt lat="46.96824" lon="8.76721">
        <ele>787</ele>
        <time>2021-08-06T09:14:52.331Z</time>
      </trkpt>
      <trkpt lat="46.96824" lon="8.7672">
        <ele>787</ele>
        <time>2021-08-06T09:14:53.331Z</time>
      </trkpt>
      <trkpt lat="46.96823" lon="8.76718">
        <ele>787</ele>
        <time>2021-08-06T09:14:54.331Z</time>
      </trkpt>
      <trkpt lat="46.96823" lon="8.76717">
        <ele>787</ele>
        <time>2021-08-06T09:14:55.331Z</time>
      </trkpt>
      <trkpt lat="46.96823" lon="8.76716">
        <ele>787</ele>
        <time>2021-08-06T09:14:56.331Z</time>
      </trkpt>
      <trkpt lat="46.96823" lon="8.76714">
        <ele>787</ele>
        <time>2021-08-06T09:14:57.331Z</time>
      </trkpt>
      <trkpt lat="46.96822" lon="8.76712">
        <ele>787</ele>
        <time>2021-08-06T09:14:58.331Z</time>
      </trkpt>
      <trkpt lat="46.96822" lon="8.76711">
        <ele>787</ele>
        <time>2021-08-06T09:14:59.331Z</time>
      </trkpt>
      <trkpt lat="46.96822" lon="8.76709">
        <ele>787</ele>
        <time>2021-08-06T09:15:00.331Z</time>
      </trkpt>
      <trkpt lat="46.96822" lon="8.76708">
        <ele>787</ele>
        <time>2021-08-06T09:15:01.331Z</time>
      </trkpt>
      <trkpt lat="46.96822" lon="8.76707">
        <ele>787</ele>
        <time>2021-08-06T09:15:02.331Z</time>
      </trkpt>
      <trkpt lat="46.96821" lon="8.76705">
        <ele>787</ele>
        <time>2021-08-06T09:15:03.331Z</time>
      </trkpt>
      <trkpt lat="46.96821" lon="8.76704">
        <ele>787</ele>
        <time>2021-08-06T09:15:04.332Z</time>
      </trkpt>
      <trkpt lat="46.96821" lon="8.76703">
        <ele>787</ele>
        <time>2021-08-06T09:15:05.331Z</time>
      </trkpt>
      <trkpt lat="46.96821" lon="8.76702">
        <ele>787</ele>
        <time>2021-08-06T09:15:06.331Z</time>
      </trkpt>
      <trkpt lat="46.96821" lon="8.767">
        <ele>787</ele>
        <time>2021-08-06T09:15:07.331Z</time>
      </trkpt>
      <trkpt lat="46.96821" lon="8.76698">
        <ele>788</ele>
        <time>2021-08-06T09:15:08.331Z</time>
      </trkpt>
      <trkpt lat="46.9682" lon="8.76697">
        <ele>788</ele>
        <time>2021-08-06T09:15:09.331Z</time>
      </trkpt>
      <trkpt lat="46.9682" lon="8.76696">
        <ele>788</ele>
        <time>2021-08-06T09:15:10.331Z</time>
      </trkpt>
      <trkpt lat="46.9682" lon="8.76695">
        <ele>788</ele>
        <time>2021-08-06T09:15:11.331Z</time>
      </trkpt>
      <trkpt lat="46.96819" lon="8.76693">
        <ele>788</ele>
        <time>2021-08-06T09:15:12.332Z</time>
      </trkpt>
      <trkpt lat="46.96819" lon="8.76692">
        <ele>788</ele>
        <time>2021-08-06T09:15:13.332Z</time>
      </trkpt>
      <trkpt lat="46.96819" lon="8.7669">
        <ele>789</ele>
        <time>2021-08-06T09:15:14.331Z</time>
      </trkpt>
      <trkpt lat="46.96818" lon="8.76689">
        <ele>790</ele>
        <time>2021-08-06T09:15:15.332Z</time>
      </trkpt>
      <trkpt lat="46.96818" lon="8.76688">
        <ele>790</ele>
        <time>2021-08-06T09:15:16.331Z</time>
      </trkpt>
      <trkpt lat="46.96819" lon="8.76686">
        <ele>790</ele>
        <time>2021-08-06T09:15:17.331Z</time>
      </trkpt>
      <trkpt lat="46.96818" lon="8.76685">
        <ele>789</ele>
        <time>2021-08-06T09:15:18.331Z</time>
      </trkpt>
      <trkpt lat="46.96818" lon="8.76684">
        <ele>789</ele>
        <time>2021-08-06T09:15:19.331Z</time>
      </trkpt>
      <trkpt lat="46.96818" lon="8.76683">
        <ele>788</ele>
        <time>2021-08-06T09:15:20.331Z</time>
      </trkpt>
      <trkpt lat="46.96818" lon="8.76681">
        <ele>788</ele>
        <time>2021-08-06T09:15:21.331Z</time>
      </trkpt>
      <trkpt lat="46.96818" lon="8.7668">
        <ele>788</ele>
        <time>2021-08-06T09:15:22.331Z</time>
      </trkpt>
      <trkpt lat="46.96817" lon="8.76678">
        <ele>787</ele>
        <time>2021-08-06T09:15:23.331Z</time>
      </trkpt>
      <trkpt lat="46.96817" lon="8.76677">
        <ele>787</ele>
        <time>2021-08-06T09:15:24.331Z</time>
      </trkpt>
      <trkpt lat="46.96817" lon="8.76676">
        <ele>788</ele>
        <time>2021-08-06T09:15:25.331Z</time>
      </trkpt>
      <trkpt lat="46.96817" lon="8.76674">
        <ele>788</ele>
        <time>2021-08-06T09:15:26.331Z</time>
      </trkpt>
      <trkpt lat="46.96817" lon="8.76673">
        <ele>788</ele>
        <time>2021-08-06T09:15:27.331Z</time>
      </trkpt>
      <trkpt lat="46.96817" lon="8.76671">
        <ele>789</ele>
        <time>2021-08-06T09:15:28.331Z</time>
      </trkpt>
      <trkpt lat="46.96816" lon="8.7667">
        <ele>789</ele>
        <time>2021-08-06T09:15:29.332Z</time>
      </trkpt>
      <trkpt lat="46.96816" lon="8.76668">
        <ele>789</ele>
        <time>2021-08-06T09:15:30.331Z</time>
      </trkpt>
      <trkpt lat="46.96816" lon="8.76667">
        <ele>789</ele>
        <time>2021-08-06T09:15:31.332Z</time>
      </trkpt>
      <trkpt lat="46.96816" lon="8.76666">
        <ele>789</ele>
        <time>2021-08-06T09:15:32.332Z</time>
      </trkpt>
      <trkpt lat="46.96816" lon="8.76665">
        <ele>788</ele>
        <time>2021-08-06T09:15:33.331Z</time>
      </trkpt>
      <trkpt lat="46.96815" lon="8.76663">
        <ele>788</ele>
        <time>2021-08-06T09:15:34.331Z</time>
      </trkpt>
      <trkpt lat="46.96815" lon="8.76662">
        <ele>789</ele>
        <time>2021-08-06T09:15:35.331Z</time>
      </trkpt>
      <trkpt lat="46.96815" lon="8.7666">
        <ele>789</ele>
        <time>2021-08-06T09:15:36.331Z</time>
      </trkpt>
      <trkpt lat="46.96815" lon="8.76659">
        <ele>789</ele>
        <time>2021-08-06T09:15:37.332Z</time>
      </trkpt>
      <trkpt lat="46.96815" lon="8.76658">
        <ele>790</ele>
        <time>2021-08-06T09:15:38.331Z</time>
      </trkpt>
      <trkpt lat="46.96814" lon="8.76656">
        <ele>791</ele>
        <time>2021-08-06T09:15:39.332Z</time>
      </trkpt>
      <trkpt lat="46.96814" lon="8.76655">
        <ele>791</ele>
        <time>2021-08-06T09:15:40.332Z</time>
      </trkpt>
      <trkpt lat="46.96813" lon="8.76654">
        <ele>792</ele>
        <time>2021-08-06T09:15:41.331Z</time>
      </trkpt>
      <trkpt lat="46.96813" lon="8.76652">
        <ele>792</ele>
        <time>2021-08-06T09:15:42.331Z</time>
      </trkpt>
      <trkpt lat="46.96813" lon="8.76651">
        <ele>792</ele>
        <time>2021-08-06T09:15:43.331Z</time>
      </trkpt>
      <trkpt lat="46.96813" lon="8.76649">
        <ele>792</ele>
        <time>2021-08-06T09:15:44.331Z</time>
      </trkpt>
      <trkpt lat="46.96812" lon="8.76648">
        <ele>793</ele>
        <time>2021-08-06T09:15:45.331Z</time>
      </trkpt>
      <trkpt lat="46.96812" lon="8.76646">
        <ele>793</ele>
        <time>2021-08-06T09:15:46.332Z</time>
      </trkpt>
      <trkpt lat="46.96811" lon="8.76645">
        <ele>793</ele>
        <time>2021-08-06T09:15:47.331Z</time>
      </trkpt>
      <trkpt lat="46.96811" lon="8.76644">
        <ele>794</ele>
        <time>2021-08-06T09:15:48.332Z</time>
      </trkpt>
      <trkpt lat="46.9681" lon="8.76643">
        <ele>794</ele>
        <time>2021-08-06T09:15:49.331Z</time>
      </trkpt>
      <trkpt lat="46.9681" lon="8.76642">
        <ele>793</ele>
        <time>2021-08-06T09:15:50.331Z</time>
      </trkpt>
      <trkpt lat="46.9681" lon="8.7664">
        <ele>793</ele>
        <time>2021-08-06T09:15:51.331Z</time>
      </trkpt>
      <trkpt lat="46.9681" lon="8.76639">
        <ele>793</ele>
        <time>2021-08-06T09:15:52.332Z</time>
      </trkpt>
      <trkpt lat="46.96809" lon="8.76637">
        <ele>794</ele>
        <time>2021-08-06T09:15:53.332Z</time>
      </trkpt>
      <trkpt lat="46.96809" lon="8.76636">
        <ele>794</ele>
        <time>2021-08-06T09:15:54.331Z</time>
      </trkpt>
      <trkpt lat="46.96809" lon="8.76634">
        <ele>794</ele>
        <time>2021-08-06T09:15:55.331Z</time>
      </trkpt>
      <trkpt lat="46.96808" lon="8.76633">
        <ele>794</ele>
        <time>2021-08-06T09:15:56.331Z</time>
      </trkpt>
      <trkpt lat="46.96808" lon="8.76631">
        <ele>793</ele>
        <time>2021-08-06T09:15:57.331Z</time>
      </trkpt>
      <trkpt lat="46.96808" lon="8.7663">
        <ele>793</ele>
        <time>2021-08-06T09:15:58.331Z</time>
      </trkpt>
      <trkpt lat="46.96808" lon="8.76629">
        <ele>793</ele>
        <time>2021-08-06T09:15:59.331Z</time>
      </trkpt>
      <trkpt lat="46.96808" lon="8.76628">
        <ele>792</ele>
        <time>2021-08-06T09:16:00.331Z</time>
      </trkpt>
      <trkpt lat="46.96807" lon="8.76626">
        <ele>792</ele>
        <time>2021-08-06T09:16:01.331Z</time>
      </trkpt>
      <trkpt lat="46.96807" lon="8.76625">
        <ele>791</ele>
        <time>2021-08-06T09:16:02.331Z</time>
      </trkpt>
      <trkpt lat="46.96807" lon="8.76623">
        <ele>791</ele>
        <time>2021-08-06T09:16:03.331Z</time>
      </trkpt>
      <trkpt lat="46.96807" lon="8.76622">
        <ele>791</ele>
        <time>2021-08-06T09:16:04.331Z</time>
      </trkpt>
      <trkpt lat="46.96807" lon="8.76621">
        <ele>791</ele>
        <time>2021-08-06T09:16:05.331Z</time>
      </trkpt>
      <trkpt lat="46.96807" lon="8.76619">
        <ele>791</ele>
        <time>2021-08-06T09:16:06.331Z</time>
      </trkpt>
      <trkpt lat="46.96807" lon="8.76617">
        <ele>792</ele>
        <time>2021-08-06T09:16:07.331Z</time>
      </trkpt>
      <trkpt lat="46.96807" lon="8.76616">
        <ele>792</ele>
        <time>2021-08-06T09:16:08.331Z</time>
      </trkpt>
      <trkpt lat="46.96808" lon="8.76614">
        <ele>792</ele>
        <time>2021-08-06T09:16:09.331Z</time>
      </trkpt>
      <trkpt lat="46.96807" lon="8.76613">
        <ele>793</ele>
        <time>2021-08-06T09:16:10.332Z</time>
      </trkpt>
      <trkpt lat="46.96807" lon="8.76612">
        <ele>793</ele>
        <time>2021-08-06T09:16:11.331Z</time>
      </trkpt>
      <trkpt lat="46.96807" lon="8.76611">
        <ele>794</ele>
        <time>2021-08-06T09:16:12.332Z</time>
      </trkpt>
      <trkpt lat="46.96807" lon="8.7661">
        <ele>794</ele>
        <time>2021-08-06T09:16:13.331Z</time>
      </trkpt>
      <trkpt lat="46.96807" lon="8.76608">
        <ele>794</ele>
        <time>2021-08-06T09:16:14.331Z</time>
      </trkpt>
      <trkpt lat="46.96807" lon="8.76607">
        <ele>795</ele>
        <time>2021-08-06T09:16:15.331Z</time>
      </trkpt>
      <trkpt lat="46.96807" lon="8.76606">
        <ele>795</ele>
        <time>2021-08-06T09:16:16.331Z</time>
      </trkpt>
      <trkpt lat="46.96806" lon="8.76604">
        <ele>795</ele>
        <time>2021-08-06T09:16:17.331Z</time>
      </trkpt>
      <trkpt lat="46.96806" lon="8.76603">
        <ele>795</ele>
        <time>2021-08-06T09:16:18.332Z</time>
      </trkpt>
      <trkpt lat="46.96806" lon="8.766">
        <ele>796</ele>
        <time>2021-08-06T09:16:19.331Z</time>
      </trkpt>
      <trkpt lat="46.96806" lon="8.76598">
        <ele>797</ele>
        <time>2021-08-06T09:16:20.332Z</time>
      </trkpt>
      <trkpt lat="46.96806" lon="8.76597">
        <ele>798</ele>
        <time>2021-08-06T09:16:21.332Z</time>
      </trkpt>
      <trkpt lat="46.96805" lon="8.76596">
        <ele>798</ele>
        <time>2021-08-06T09:16:22.332Z</time>
      </trkpt>
      <trkpt lat="46.96805" lon="8.76594">
        <ele>799</ele>
        <time>2021-08-06T09:16:23.331Z</time>
      </trkpt>
      <trkpt lat="46.96805" lon="8.76593">
        <ele>800</ele>
        <time>2021-08-06T09:16:24.331Z</time>
      </trkpt>
      <trkpt lat="46.96805" lon="8.76592">
        <ele>800</ele>
        <time>2021-08-06T09:16:25.332Z</time>
      </trkpt>
      <trkpt lat="46.96805" lon="8.76591">
        <ele>800</ele>
        <time>2021-08-06T09:16:26.332Z</time>
      </trkpt>
      <trkpt lat="46.96805" lon="8.76589">
        <ele>800</ele>
        <time>2021-08-06T09:16:27.332Z</time>
      </trkpt>
      <trkpt lat="46.96806" lon="8.76588">
        <ele>800</ele>
        <time>2021-08-06T09:16:28.332Z</time>
      </trkpt>
      <trkpt lat="46.96806" lon="8.76587">
        <ele>799</ele>
        <time>2021-08-06T09:16:29.332Z</time>
      </trkpt>
      <trkpt lat="46.96807" lon="8.76586">
        <ele>799</ele>
        <time>2021-08-06T09:16:30.331Z</time>
      </trkpt>
      <trkpt lat="46.96806" lon="8.76585">
        <ele>799</ele>
        <time>2021-08-06T09:16:31.331Z</time>
      </trkpt>
      <trkpt lat="46.96805" lon="8.76583">
        <ele>799</ele>
        <time>2021-08-06T09:16:32.331Z</time>
      </trkpt>
      <trkpt lat="46.96805" lon="8.76582">
        <ele>799</ele>
        <time>2021-08-06T09:16:33.331Z</time>
      </trkpt>
      <trkpt lat="46.96805" lon="8.7658">
        <ele>799</ele>
        <time>2021-08-06T09:16:34.332Z</time>
      </trkpt>
      <trkpt lat="46.96805" lon="8.76579">
        <ele>799</ele>
        <time>2021-08-06T09:16:35.331Z</time>
      </trkpt>
      <trkpt lat="46.96805" lon="8.76578">
        <ele>799</ele>
        <time>2021-08-06T09:16:36.332Z</time>
      </trkpt>
      <trkpt lat="46.96805" lon="8.76577">
        <ele>799</ele>
        <time>2021-08-06T09:16:37.331Z</time>
      </trkpt>
      <trkpt lat="46.96805" lon="8.76575">
        <ele>798</ele>
        <time>2021-08-06T09:16:38.332Z</time>
      </trkpt>
      <trkpt lat="46.96806" lon="8.76574">
        <ele>798</ele>
        <time>2021-08-06T09:16:39.331Z</time>
      </trkpt>
      <trkpt lat="46.96805" lon="8.76573">
        <ele>798</ele>
        <time>2021-08-06T09:16:40.331Z</time>
      </trkpt>
      <trkpt lat="46.96805" lon="8.76572">
        <ele>799</ele>
        <time>2021-08-06T09:16:41.332Z</time>
      </trkpt>
      <trkpt lat="46.96805" lon="8.76571">
        <ele>798</ele>
        <time>2021-08-06T09:16:42.331Z</time>
      </trkpt>
      <trkpt lat="46.96805" lon="8.7657">
        <ele>798</ele>
        <time>2021-08-06T09:16:43.331Z</time>
      </trkpt>
      <trkpt lat="46.96806" lon="8.76568">
        <ele>798</ele>
        <time>2021-08-06T09:16:44.332Z</time>
      </trkpt>
      <trkpt lat="46.96805" lon="8.76567">
        <ele>798</ele>
        <time>2021-08-06T09:16:45.331Z</time>
      </trkpt>
      <trkpt lat="46.96805" lon="8.76566">
        <ele>798</ele>
        <time>2021-08-06T09:16:46.331Z</time>
      </trkpt>
      <trkpt lat="46.96805" lon="8.76564">
        <ele>798</ele>
        <time>2021-08-06T09:16:47.331Z</time>
      </trkpt>
      <trkpt lat="46.96805" lon="8.76563">
        <ele>797</ele>
        <time>2021-08-06T09:16:48.332Z</time>
      </trkpt>
      <trkpt lat="46.96805" lon="8.76561">
        <ele>797</ele>
        <time>2021-08-06T09:16:49.331Z</time>
      </trkpt>
      <trkpt lat="46.96805" lon="8.7656">
        <ele>797</ele>
        <time>2021-08-06T09:16:50.332Z</time>
      </trkpt>
      <trkpt lat="46.96805" lon="8.76558">
        <ele>797</ele>
        <time>2021-08-06T09:16:51.331Z</time>
      </trkpt>
      <trkpt lat="46.96806" lon="8.76557">
        <ele>796</ele>
        <time>2021-08-06T09:16:52.332Z</time>
      </trkpt>
      <trkpt lat="46.96805" lon="8.76556">
        <ele>796</ele>
        <time>2021-08-06T09:16:53.331Z</time>
      </trkpt>
      <trkpt lat="46.96805" lon="8.76555">
        <ele>796</ele>
        <time>2021-08-06T09:16:54.331Z</time>
      </trkpt>
      <trkpt lat="46.96805" lon="8.76553">
        <ele>796</ele>
        <time>2021-08-06T09:16:55.331Z</time>
      </trkpt>
      <trkpt lat="46.96804" lon="8.76552">
        <ele>796</ele>
        <time>2021-08-06T09:16:56.331Z</time>
      </trkpt>
      <trkpt lat="46.96804" lon="8.76551">
        <ele>797</ele>
        <time>2021-08-06T09:16:57.331Z</time>
      </trkpt>
      <trkpt lat="46.96803" lon="8.76549">
        <ele>797</ele>
        <time>2021-08-06T09:16:58.331Z</time>
      </trkpt>
      <trkpt lat="46.96803" lon="8.76548">
        <ele>797</ele>
        <time>2021-08-06T09:16:59.332Z</time>
      </trkpt>
      <trkpt lat="46.96802" lon="8.76547">
        <ele>797</ele>
        <time>2021-08-06T09:17:00.331Z</time>
      </trkpt>
      <trkpt lat="46.96802" lon="8.76545">
        <ele>798</ele>
        <time>2021-08-06T09:17:01.331Z</time>
      </trkpt>
      <trkpt lat="46.96802" lon="8.76543">
        <ele>798</ele>
        <time>2021-08-06T09:17:02.331Z</time>
      </trkpt>
      <trkpt lat="46.96802" lon="8.76542">
        <ele>798</ele>
        <time>2021-08-06T09:17:03.331Z</time>
      </trkpt>
      <trkpt lat="46.96802" lon="8.76541">
        <ele>799</ele>
        <time>2021-08-06T09:17:04.331Z</time>
      </trkpt>
      <trkpt lat="46.96801" lon="8.7654">
        <ele>799</ele>
        <time>2021-08-06T09:17:05.332Z</time>
      </trkpt>
      <trkpt lat="46.96801" lon="8.76539">
        <ele>799</ele>
        <time>2021-08-06T09:17:06.331Z</time>
      </trkpt>
      <trkpt lat="46.96801" lon="8.76538">
        <ele>799</ele>
        <time>2021-08-06T09:17:07.332Z</time>
      </trkpt>
      <trkpt lat="46.96801" lon="8.76537">
        <ele>799</ele>
        <time>2021-08-06T09:17:08.332Z</time>
      </trkpt>
      <trkpt lat="46.96801" lon="8.76535">
        <ele>799</ele>
        <time>2021-08-06T09:17:09.331Z</time>
      </trkpt>
      <trkpt lat="46.96801" lon="8.76534">
        <ele>799</ele>
        <time>2021-08-06T09:17:10.331Z</time>
      </trkpt>
      <trkpt lat="46.968" lon="8.76532">
        <ele>800</ele>
        <time>2021-08-06T09:17:11.331Z</time>
      </trkpt>
      <trkpt lat="46.968" lon="8.76531">
        <ele>800</ele>
        <time>2021-08-06T09:17:12.331Z</time>
      </trkpt>
      <trkpt lat="46.968" lon="8.7653">
        <ele>800</ele>
        <time>2021-08-06T09:17:13.331Z</time>
      </trkpt>
      <trkpt lat="46.968" lon="8.76529">
        <ele>800</ele>
        <time>2021-08-06T09:17:14.331Z</time>
      </trkpt>
      <trkpt lat="46.96799" lon="8.76527">
        <ele>800</ele>
        <time>2021-08-06T09:17:15.331Z</time>
      </trkpt>
      <trkpt lat="46.96799" lon="8.76527">
        <ele>800</ele>
        <time>2021-08-06T09:17:16.331Z</time>
      </trkpt>
      <trkpt lat="46.96799" lon="8.76525">
        <ele>801</ele>
        <time>2021-08-06T09:17:17.331Z</time>
      </trkpt>
      <trkpt lat="46.96798" lon="8.76524">
        <ele>802</ele>
        <time>2021-08-06T09:17:18.331Z</time>
      </trkpt>
      <trkpt lat="46.96798" lon="8.76523">
        <ele>802</ele>
        <time>2021-08-06T09:17:19.331Z</time>
      </trkpt>
      <trkpt lat="46.96798" lon="8.76522">
        <ele>803</ele>
        <time>2021-08-06T09:17:20.332Z</time>
      </trkpt>
      <trkpt lat="46.96798" lon="8.76521">
        <ele>804</ele>
        <time>2021-08-06T09:17:21.332Z</time>
      </trkpt>
      <trkpt lat="46.96798" lon="8.76519">
        <ele>805</ele>
        <time>2021-08-06T09:17:22.332Z</time>
      </trkpt>
      <trkpt lat="46.96798" lon="8.76517">
        <ele>805</ele>
        <time>2021-08-06T09:17:23.331Z</time>
      </trkpt>
      <trkpt lat="46.96798" lon="8.76516">
        <ele>806</ele>
        <time>2021-08-06T09:17:24.331Z</time>
      </trkpt>
      <trkpt lat="46.96798" lon="8.76515">
        <ele>806</ele>
        <time>2021-08-06T09:17:25.331Z</time>
      </trkpt>
      <trkpt lat="46.96798" lon="8.76514">
        <ele>806</ele>
        <time>2021-08-06T09:17:26.331Z</time>
      </trkpt>
      <trkpt lat="46.96798" lon="8.76513">
        <ele>807</ele>
        <time>2021-08-06T09:17:27.331Z</time>
      </trkpt>
      <trkpt lat="46.96798" lon="8.76511">
        <ele>806</ele>
        <time>2021-08-06T09:17:28.332Z</time>
      </trkpt>
      <trkpt lat="46.96799" lon="8.76509">
        <ele>806</ele>
        <time>2021-08-06T09:17:29.331Z</time>
      </trkpt>
      <trkpt lat="46.96799" lon="8.76508">
        <ele>806</ele>
        <time>2021-08-06T09:17:30.331Z</time>
      </trkpt>
      <trkpt lat="46.96799" lon="8.76507">
        <ele>806</ele>
        <time>2021-08-06T09:17:31.331Z</time>
      </trkpt>
      <trkpt lat="46.96798" lon="8.76506">
        <ele>806</ele>
        <time>2021-08-06T09:17:32.331Z</time>
      </trkpt>
      <trkpt lat="46.96798" lon="8.76505">
        <ele>806</ele>
        <time>2021-08-06T09:17:33.331Z</time>
      </trkpt>
      <trkpt lat="46.96798" lon="8.76503">
        <ele>806</ele>
        <time>2021-08-06T09:17:34.331Z</time>
      </trkpt>
      <trkpt lat="46.96798" lon="8.76502">
        <ele>806</ele>
        <time>2021-08-06T09:17:35.332Z</time>
      </trkpt>
      <trkpt lat="46.96798" lon="8.765">
        <ele>806</ele>
        <time>2021-08-06T09:17:36.331Z</time>
      </trkpt>
      <trkpt lat="46.96799" lon="8.76498">
        <ele>806</ele>
        <time>2021-08-06T09:17:37.332Z</time>
      </trkpt>
      <trkpt lat="46.96799" lon="8.76497">
        <ele>806</ele>
        <time>2021-08-06T09:17:38.331Z</time>
      </trkpt>
      <trkpt lat="46.96799" lon="8.76495">
        <ele>806</ele>
        <time>2021-08-06T09:17:39.331Z</time>
      </trkpt>
      <trkpt lat="46.96799" lon="8.76494">
        <ele>805</ele>
        <time>2021-08-06T09:17:40.331Z</time>
      </trkpt>
      <trkpt lat="46.96799" lon="8.76492">
        <ele>805</ele>
        <time>2021-08-06T09:17:41.331Z</time>
      </trkpt>
      <trkpt lat="46.96798" lon="8.76491">
        <ele>806</ele>
        <time>2021-08-06T09:17:42.331Z</time>
      </trkpt>
      <trkpt lat="46.96799" lon="8.7649">
        <ele>806</ele>
        <time>2021-08-06T09:17:43.331Z</time>
      </trkpt>
      <trkpt lat="46.96799" lon="8.76488">
        <ele>807</ele>
        <time>2021-08-06T09:17:44.331Z</time>
      </trkpt>
      <trkpt lat="46.96799" lon="8.76486">
        <ele>807</ele>
        <time>2021-08-06T09:17:45.331Z</time>
      </trkpt>
      <trkpt lat="46.96798" lon="8.76484">
        <ele>808</ele>
        <time>2021-08-06T09:17:46.332Z</time>
      </trkpt>
      <trkpt lat="46.96799" lon="8.76482">
        <ele>808</ele>
        <time>2021-08-06T09:17:47.331Z</time>
      </trkpt>
      <trkpt lat="46.968" lon="8.7648">
        <ele>807</ele>
        <time>2021-08-06T09:17:48.332Z</time>
      </trkpt>
      <trkpt lat="46.968" lon="8.76479">
        <ele>807</ele>
        <time>2021-08-06T09:17:49.331Z</time>
      </trkpt>
      <trkpt lat="46.96799" lon="8.76478">
        <ele>807</ele>
        <time>2021-08-06T09:17:50.332Z</time>
      </trkpt>
      <trkpt lat="46.96799" lon="8.76476">
        <ele>806</ele>
        <time>2021-08-06T09:17:51.331Z</time>
      </trkpt>
      <trkpt lat="46.968" lon="8.76474">
        <ele>805</ele>
        <time>2021-08-06T09:17:52.331Z</time>
      </trkpt>
      <trkpt lat="46.968" lon="8.76472">
        <ele>804</ele>
        <time>2021-08-06T09:17:53.331Z</time>
      </trkpt>
      <trkpt lat="46.968" lon="8.76471">
        <ele>804</ele>
        <time>2021-08-06T09:17:54.332Z</time>
      </trkpt>
      <trkpt lat="46.968" lon="8.76469">
        <ele>803</ele>
        <time>2021-08-06T09:17:55.331Z</time>
      </trkpt>
      <trkpt lat="46.968" lon="8.76467">
        <ele>803</ele>
        <time>2021-08-06T09:17:56.332Z</time>
      </trkpt>
      <trkpt lat="46.968" lon="8.76465">
        <ele>803</ele>
        <time>2021-08-06T09:17:57.332Z</time>
      </trkpt>
      <trkpt lat="46.96801" lon="8.76464">
        <ele>803</ele>
        <time>2021-08-06T09:17:58.331Z</time>
      </trkpt>
      <trkpt lat="46.96801" lon="8.76462">
        <ele>803</ele>
        <time>2021-08-06T09:17:59.331Z</time>
      </trkpt>
      <trkpt lat="46.96802" lon="8.76461">
        <ele>803</ele>
        <time>2021-08-06T09:18:00.332Z</time>
      </trkpt>
      <trkpt lat="46.96802" lon="8.7646">
        <ele>803</ele>
        <time>2021-08-06T09:18:01.331Z</time>
      </trkpt>
      <trkpt lat="46.96802" lon="8.76458">
        <ele>803</ele>
        <time>2021-08-06T09:18:02.332Z</time>
      </trkpt>
      <trkpt lat="46.96802" lon="8.76456">
        <ele>804</ele>
        <time>2021-08-06T09:18:03.331Z</time>
      </trkpt>
      <trkpt lat="46.96802" lon="8.76455">
        <ele>804</ele>
        <time>2021-08-06T09:18:04.331Z</time>
      </trkpt>
      <trkpt lat="46.96803" lon="8.76453">
        <ele>804</ele>
        <time>2021-08-06T09:18:05.332Z</time>
      </trkpt>
      <trkpt lat="46.96803" lon="8.76451">
        <ele>805</ele>
        <time>2021-08-06T09:18:06.331Z</time>
      </trkpt>
      <trkpt lat="46.96804" lon="8.7645">
        <ele>805</ele>
        <time>2021-08-06T09:18:07.331Z</time>
      </trkpt>
      <trkpt lat="46.96804" lon="8.76449">
        <ele>806</ele>
        <time>2021-08-06T09:18:08.331Z</time>
      </trkpt>
      <trkpt lat="46.96804" lon="8.76448">
        <ele>807</ele>
        <time>2021-08-06T09:18:09.332Z</time>
      </trkpt>
      <trkpt lat="46.96804" lon="8.76446">
        <ele>808</ele>
        <time>2021-08-06T09:18:10.331Z</time>
      </trkpt>
      <trkpt lat="46.96804" lon="8.76446">
        <ele>809</ele>
        <time>2021-08-06T09:18:11.331Z</time>
      </trkpt>
      <trkpt lat="46.96804" lon="8.76444">
        <ele>810</ele>
        <time>2021-08-06T09:18:12.331Z</time>
      </trkpt>
      <trkpt lat="46.96804" lon="8.76443">
        <ele>811</ele>
        <time>2021-08-06T09:18:13.331Z</time>
      </trkpt>
      <trkpt lat="46.96804" lon="8.76442">
        <ele>811</ele>
        <time>2021-08-06T09:18:14.331Z</time>
      </trkpt>
      <trkpt lat="46.96804" lon="8.76441">
        <ele>812</ele>
        <time>2021-08-06T09:18:15.331Z</time>
      </trkpt>
      <trkpt lat="46.96804" lon="8.76439">
        <ele>813</ele>
        <time>2021-08-06T09:18:16.332Z</time>
      </trkpt>
      <trkpt lat="46.96805" lon="8.76438">
        <ele>814</ele>
        <time>2021-08-06T09:18:17.332Z</time>
      </trkpt>
      <trkpt lat="46.96805" lon="8.76437">
        <ele>814</ele>
        <time>2021-08-06T09:18:18.331Z</time>
      </trkpt>
      <trkpt lat="46.96805" lon="8.76435">
        <ele>814</ele>
        <time>2021-08-06T09:18:19.331Z</time>
      </trkpt>
      <trkpt lat="46.96804" lon="8.76434">
        <ele>815</ele>
        <time>2021-08-06T09:18:20.332Z</time>
      </trkpt>
      <trkpt lat="46.96804" lon="8.76433">
        <ele>815</ele>
        <time>2021-08-06T09:18:21.331Z</time>
      </trkpt>
      <trkpt lat="46.96803" lon="8.76432">
        <ele>815</ele>
        <time>2021-08-06T09:18:22.332Z</time>
      </trkpt>
      <trkpt lat="46.96802" lon="8.7643">
        <ele>816</ele>
        <time>2021-08-06T09:18:23.331Z</time>
      </trkpt>
      <trkpt lat="46.96802" lon="8.76428">
        <ele>817</ele>
        <time>2021-08-06T09:18:24.331Z</time>
      </trkpt>
      <trkpt lat="46.96802" lon="8.76427">
        <ele>818</ele>
        <time>2021-08-06T09:18:25.332Z</time>
      </trkpt>
      <trkpt lat="46.96801" lon="8.76426">
        <ele>818</ele>
        <time>2021-08-06T09:18:26.331Z</time>
      </trkpt>
      <trkpt lat="46.96801" lon="8.76425">
        <ele>819</ele>
        <time>2021-08-06T09:18:27.332Z</time>
      </trkpt>
      <trkpt lat="46.96801" lon="8.76423">
        <ele>820</ele>
        <time>2021-08-06T09:18:28.332Z</time>
      </trkpt>
      <trkpt lat="46.96801" lon="8.76422">
        <ele>821</ele>
        <time>2021-08-06T09:18:29.332Z</time>
      </trkpt>
      <trkpt lat="46.968" lon="8.76421">
        <ele>822</ele>
        <time>2021-08-06T09:18:30.331Z</time>
      </trkpt>
      <trkpt lat="46.96799" lon="8.7642">
        <ele>822</ele>
        <time>2021-08-06T09:18:31.331Z</time>
      </trkpt>
      <trkpt lat="46.96798" lon="8.76419">
        <ele>823</ele>
        <time>2021-08-06T09:18:32.331Z</time>
      </trkpt>
      <trkpt lat="46.96798" lon="8.76418">
        <ele>823</ele>
        <time>2021-08-06T09:18:33.332Z</time>
      </trkpt>
      <trkpt lat="46.96796" lon="8.76419">
        <ele>823</ele>
        <time>2021-08-06T09:18:34.331Z</time>
      </trkpt>
      <trkpt lat="46.96795" lon="8.76419">
        <ele>824</ele>
        <time>2021-08-06T09:18:35.332Z</time>
      </trkpt>
      <trkpt lat="46.96794" lon="8.76418">
        <ele>824</ele>
        <time>2021-08-06T09:18:36.331Z</time>
      </trkpt>
      <trkpt lat="46.96793" lon="8.76418">
        <ele>824</ele>
        <time>2021-08-06T09:18:37.331Z</time>
      </trkpt>
      <trkpt lat="46.96792" lon="8.76418">
        <ele>824</ele>
        <time>2021-08-06T09:18:38.332Z</time>
      </trkpt>
      <trkpt lat="46.96792" lon="8.76417">
        <ele>824</ele>
        <time>2021-08-06T09:18:39.331Z</time>
      </trkpt>
      <trkpt lat="46.96791" lon="8.76417">
        <ele>824</ele>
        <time>2021-08-06T09:18:40.331Z</time>
      </trkpt>
      <trkpt lat="46.96791" lon="8.76417">
        <ele>825</ele>
        <time>2021-08-06T09:18:41.331Z</time>
      </trkpt>
      <trkpt lat="46.9679" lon="8.76417">
        <ele>826</ele>
        <time>2021-08-06T09:18:42.331Z</time>
      </trkpt>
      <trkpt lat="46.9679" lon="8.76418">
        <ele>826</ele>
        <time>2021-08-06T09:18:43.332Z</time>
      </trkpt>
      <trkpt lat="46.9679" lon="8.76419">
        <ele>826</ele>
        <time>2021-08-06T09:18:44.331Z</time>
      </trkpt>
      <trkpt lat="46.96789" lon="8.7642">
        <ele>826</ele>
        <time>2021-08-06T09:18:45.332Z</time>
      </trkpt>
      <trkpt lat="46.96788" lon="8.76421">
        <ele>826</ele>
        <time>2021-08-06T09:18:46.331Z</time>
      </trkpt>
      <trkpt lat="46.96788" lon="8.76422">
        <ele>825</ele>
        <time>2021-08-06T09:18:47.331Z</time>
      </trkpt>
      <trkpt lat="46.96787" lon="8.76423">
        <ele>825</ele>
        <time>2021-08-06T09:18:48.331Z</time>
      </trkpt>
      <trkpt lat="46.96787" lon="8.76424">
        <ele>825</ele>
        <time>2021-08-06T09:18:49.331Z</time>
      </trkpt>
      <trkpt lat="46.96786" lon="8.76425">
        <ele>825</ele>
        <time>2021-08-06T09:18:50.332Z</time>
      </trkpt>
      <trkpt lat="46.96786" lon="8.76426">
        <ele>825</ele>
        <time>2021-08-06T09:18:51.331Z</time>
      </trkpt>
      <trkpt lat="46.96786" lon="8.76428">
        <ele>825</ele>
        <time>2021-08-06T09:18:52.331Z</time>
      </trkpt>
      <trkpt lat="46.96786" lon="8.7643">
        <ele>825</ele>
        <time>2021-08-06T09:18:53.331Z</time>
      </trkpt>
      <trkpt lat="46.96787" lon="8.76431">
        <ele>825</ele>
        <time>2021-08-06T09:18:54.331Z</time>
      </trkpt>
      <trkpt lat="46.96787" lon="8.76432">
        <ele>825</ele>
        <time>2021-08-06T09:18:55.331Z</time>
      </trkpt>
      <trkpt lat="46.96788" lon="8.76433">
        <ele>825</ele>
        <time>2021-08-06T09:18:56.331Z</time>
      </trkpt>
      <trkpt lat="46.96789" lon="8.76435">
        <ele>825</ele>
        <time>2021-08-06T09:18:57.331Z</time>
      </trkpt>
      <trkpt lat="46.9679" lon="8.76437">
        <ele>825</ele>
        <time>2021-08-06T09:18:58.331Z</time>
      </trkpt>
      <trkpt lat="46.9679" lon="8.76439">
        <ele>825</ele>
        <time>2021-08-06T09:18:59.332Z</time>
      </trkpt>
      <trkpt lat="46.9679" lon="8.76441">
        <ele>825</ele>
        <time>2021-08-06T09:19:00.331Z</time>
      </trkpt>
      <trkpt lat="46.9679" lon="8.76443">
        <ele>825</ele>
        <time>2021-08-06T09:19:01.331Z</time>
      </trkpt>
      <trkpt lat="46.9679" lon="8.76444">
        <ele>826</ele>
        <time>2021-08-06T09:19:02.331Z</time>
      </trkpt>
      <trkpt lat="46.96791" lon="8.76446">
        <ele>826</ele>
        <time>2021-08-06T09:19:03.332Z</time>
      </trkpt>
      <trkpt lat="46.96792" lon="8.76448">
        <ele>826</ele>
        <time>2021-08-06T09:19:04.332Z</time>
      </trkpt>
      <trkpt lat="46.96792" lon="8.7645">
        <ele>826</ele>
        <time>2021-08-06T09:19:05.331Z</time>
      </trkpt>
      <trkpt lat="46.96792" lon="8.76452">
        <ele>826</ele>
        <time>2021-08-06T09:19:06.331Z</time>
      </trkpt>
      <trkpt lat="46.96792" lon="8.76453">
        <ele>826</ele>
        <time>2021-08-06T09:19:07.331Z</time>
      </trkpt>
      <trkpt lat="46.96791" lon="8.76455">
        <ele>826</ele>
        <time>2021-08-06T09:19:08.331Z</time>
      </trkpt>
      <trkpt lat="46.96791" lon="8.76457">
        <ele>827</ele>
        <time>2021-08-06T09:19:09.331Z</time>
      </trkpt>
      <trkpt lat="46.96791" lon="8.76459">
        <ele>827</ele>
        <time>2021-08-06T09:19:10.331Z</time>
      </trkpt>
      <trkpt lat="46.96791" lon="8.7646">
        <ele>827</ele>
        <time>2021-08-06T09:19:11.331Z</time>
      </trkpt>
      <trkpt lat="46.96791" lon="8.7646">
        <ele>827</ele>
        <time>2021-08-06T09:19:12.331Z</time>
      </trkpt>
      <trkpt lat="46.9679" lon="8.76461">
        <ele>827</ele>
        <time>2021-08-06T09:19:13.331Z</time>
      </trkpt>
      <trkpt lat="46.9679" lon="8.76463">
        <ele>827</ele>
        <time>2021-08-06T09:19:14.331Z</time>
      </trkpt>
      <trkpt lat="46.9679" lon="8.76464">
        <ele>827</ele>
        <time>2021-08-06T09:19:15.331Z</time>
      </trkpt>
      <trkpt lat="46.96791" lon="8.76466">
        <ele>826</ele>
        <time>2021-08-06T09:19:16.331Z</time>
      </trkpt>
      <trkpt lat="46.96792" lon="8.76467">
        <ele>826</ele>
        <time>2021-08-06T09:19:17.331Z</time>
      </trkpt>
      <trkpt lat="46.96792" lon="8.76468">
        <ele>826</ele>
        <time>2021-08-06T09:19:18.331Z</time>
      </trkpt>
      <trkpt lat="46.96792" lon="8.76469">
        <ele>826</ele>
        <time>2021-08-06T09:19:19.331Z</time>
      </trkpt>
      <trkpt lat="46.96792" lon="8.76472">
        <ele>826</ele>
        <time>2021-08-06T09:19:20.331Z</time>
      </trkpt>
      <trkpt lat="46.96791" lon="8.76473">
        <ele>826</ele>
        <time>2021-08-06T09:19:21.331Z</time>
      </trkpt>
      <trkpt lat="46.96791" lon="8.76474">
        <ele>826</ele>
        <time>2021-08-06T09:19:22.331Z</time>
      </trkpt>
      <trkpt lat="46.96791" lon="8.76475">
        <ele>826</ele>
        <time>2021-08-06T09:19:23.331Z</time>
      </trkpt>
      <trkpt lat="46.96792" lon="8.76476">
        <ele>826</ele>
        <time>2021-08-06T09:19:24.331Z</time>
      </trkpt>
      <trkpt lat="46.96792" lon="8.76478">
        <ele>826</ele>
        <time>2021-08-06T09:19:25.331Z</time>
      </trkpt>
      <trkpt lat="46.96791" lon="8.76479">
        <ele>826</ele>
        <time>2021-08-06T09:19:26.332Z</time>
      </trkpt>
      <trkpt lat="46.9679" lon="8.76481">
        <ele>826</ele>
        <time>2021-08-06T09:19:27.332Z</time>
      </trkpt>
      <trkpt lat="46.9679" lon="8.76482">
        <ele>825</ele>
        <time>2021-08-06T09:19:28.332Z</time>
      </trkpt>
      <trkpt lat="46.96789" lon="8.76483">
        <ele>825</ele>
        <time>2021-08-06T09:19:29.332Z</time>
      </trkpt>
      <trkpt lat="46.96789" lon="8.76484">
        <ele>825</ele>
        <time>2021-08-06T09:19:30.331Z</time>
      </trkpt>
      <trkpt lat="46.96788" lon="8.76485">
        <ele>824</ele>
        <time>2021-08-06T09:19:31.331Z</time>
      </trkpt>
      <trkpt lat="46.96787" lon="8.76486">
        <ele>824</ele>
        <time>2021-08-06T09:19:32.331Z</time>
      </trkpt>
      <trkpt lat="46.96787" lon="8.76487">
        <ele>824</ele>
        <time>2021-08-06T09:19:33.331Z</time>
      </trkpt>
      <trkpt lat="46.96787" lon="8.76489">
        <ele>823</ele>
        <time>2021-08-06T09:19:34.332Z</time>
      </trkpt>
      <trkpt lat="46.96786" lon="8.7649">
        <ele>823</ele>
        <time>2021-08-06T09:19:35.331Z</time>
      </trkpt>
      <trkpt lat="46.96785" lon="8.76492">
        <ele>822</ele>
        <time>2021-08-06T09:19:36.331Z</time>
      </trkpt>
      <trkpt lat="46.96784" lon="8.76493">
        <ele>822</ele>
        <time>2021-08-06T09:19:37.331Z</time>
      </trkpt>
      <trkpt lat="46.96784" lon="8.76494">
        <ele>821</ele>
        <time>2021-08-06T09:19:38.331Z</time>
      </trkpt>
      <trkpt lat="46.96783" lon="8.76495">
        <ele>821</ele>
        <time>2021-08-06T09:19:39.332Z</time>
      </trkpt>
      <trkpt lat="46.96782" lon="8.76497">
        <ele>821</ele>
        <time>2021-08-06T09:19:40.332Z</time>
      </trkpt>
      <trkpt lat="46.96781" lon="8.76498">
        <ele>821</ele>
        <time>2021-08-06T09:19:41.332Z</time>
      </trkpt>
      <trkpt lat="46.96781" lon="8.765">
        <ele>822</ele>
        <time>2021-08-06T09:19:42.331Z</time>
      </trkpt>
      <trkpt lat="46.96781" lon="8.76503">
        <ele>822</ele>
        <time>2021-08-06T09:19:43.331Z</time>
      </trkpt>
      <trkpt lat="46.9678" lon="8.76504">
        <ele>823</ele>
        <time>2021-08-06T09:19:44.331Z</time>
      </trkpt>
      <trkpt lat="46.9678" lon="8.76505">
        <ele>823</ele>
        <time>2021-08-06T09:19:45.331Z</time>
      </trkpt>
      <trkpt lat="46.96779" lon="8.76505">
        <ele>824</ele>
        <time>2021-08-06T09:19:46.331Z</time>
      </trkpt>
      <trkpt lat="46.96779" lon="8.76506">
        <ele>824</ele>
        <time>2021-08-06T09:19:47.332Z</time>
      </trkpt>
      <trkpt lat="46.96779" lon="8.76508">
        <ele>825</ele>
        <time>2021-08-06T09:19:48.331Z</time>
      </trkpt>
      <trkpt lat="46.96779" lon="8.76509">
        <ele>826</ele>
        <time>2021-08-06T09:19:49.332Z</time>
      </trkpt>
      <trkpt lat="46.96779" lon="8.7651">
        <ele>826</ele>
        <time>2021-08-06T09:19:50.331Z</time>
      </trkpt>
      <trkpt lat="46.96779" lon="8.76511">
        <ele>826</ele>
        <time>2021-08-06T09:19:51.332Z</time>
      </trkpt>
      <trkpt lat="46.9678" lon="8.76511">
        <ele>827</ele>
        <time>2021-08-06T09:19:52.331Z</time>
      </trkpt>
      <trkpt lat="46.9678" lon="8.76511">
        <ele>827</ele>
        <time>2021-08-06T09:19:53.331Z</time>
      </trkpt>
      <trkpt lat="46.96779" lon="8.76513">
        <ele>827</ele>
        <time>2021-08-06T09:19:54.331Z</time>
      </trkpt>
      <trkpt lat="46.96779" lon="8.76516">
        <ele>827</ele>
        <time>2021-08-06T09:19:55.331Z</time>
      </trkpt>
      <trkpt lat="46.9678" lon="8.76517">
        <ele>827</ele>
        <time>2021-08-06T09:19:56.331Z</time>
      </trkpt>
      <trkpt lat="46.9678" lon="8.76517">
        <ele>827</ele>
        <time>2021-08-06T09:19:57.331Z</time>
      </trkpt>
      <trkpt lat="46.96781" lon="8.76518">
        <ele>827</ele>
        <time>2021-08-06T09:19:58.331Z</time>
      </trkpt>
      <trkpt lat="46.96781" lon="8.76519">
        <ele>827</ele>
        <time>2021-08-06T09:19:59.332Z</time>
      </trkpt>
      <trkpt lat="46.96781" lon="8.76521">
        <ele>827</ele>
        <time>2021-08-06T09:20:00.331Z</time>
      </trkpt>
      <trkpt lat="46.96781" lon="8.76523">
        <ele>827</ele>
        <time>2021-08-06T09:20:01.332Z</time>
      </trkpt>
      <trkpt lat="46.96781" lon="8.76525">
        <ele>827</ele>
        <time>2021-08-06T09:20:02.331Z</time>
      </trkpt>
      <trkpt lat="46.96781" lon="8.76526">
        <ele>827</ele>
        <time>2021-08-06T09:20:03.332Z</time>
      </trkpt>
      <trkpt lat="46.96781" lon="8.76528">
        <ele>827</ele>
        <time>2021-08-06T09:20:04.331Z</time>
      </trkpt>
      <trkpt lat="46.96781" lon="8.76529">
        <ele>827</ele>
        <time>2021-08-06T09:20:05.331Z</time>
      </trkpt>
      <trkpt lat="46.96781" lon="8.76531">
        <ele>827</ele>
        <time>2021-08-06T09:20:06.331Z</time>
      </trkpt>
      <trkpt lat="46.96781" lon="8.76533">
        <ele>827</ele>
        <time>2021-08-06T09:20:07.331Z</time>
      </trkpt>
      <trkpt lat="46.96781" lon="8.76535">
        <ele>827</ele>
        <time>2021-08-06T09:20:08.331Z</time>
      </trkpt>
      <trkpt lat="46.96781" lon="8.76537">
        <ele>828</ele>
        <time>2021-08-06T09:20:09.331Z</time>
      </trkpt>
      <trkpt lat="46.9678" lon="8.76538">
        <ele>828</ele>
        <time>2021-08-06T09:20:10.331Z</time>
      </trkpt>
      <trkpt lat="46.9678" lon="8.76539">
        <ele>828</ele>
        <time>2021-08-06T09:20:11.332Z</time>
      </trkpt>
      <trkpt lat="46.9678" lon="8.76541">
        <ele>829</ele>
        <time>2021-08-06T09:20:12.332Z</time>
      </trkpt>
      <trkpt lat="46.96779" lon="8.76543">
        <ele>829</ele>
        <time>2021-08-06T09:20:13.331Z</time>
      </trkpt>
      <trkpt lat="46.96779" lon="8.76546">
        <ele>830</ele>
        <time>2021-08-06T09:20:14.331Z</time>
      </trkpt>
      <trkpt lat="46.96778" lon="8.76548">
        <ele>830</ele>
        <time>2021-08-06T09:20:15.331Z</time>
      </trkpt>
      <trkpt lat="46.96778" lon="8.7655">
        <ele>830</ele>
        <time>2021-08-06T09:20:16.331Z</time>
      </trkpt>
      <trkpt lat="46.96778" lon="8.76552">
        <ele>831</ele>
        <time>2021-08-06T09:20:17.331Z</time>
      </trkpt>
      <trkpt lat="46.9678" lon="8.76554">
        <ele>831</ele>
        <time>2021-08-06T09:20:18.331Z</time>
      </trkpt>
      <trkpt lat="46.96781" lon="8.76557">
        <ele>832</ele>
        <time>2021-08-06T09:20:19.332Z</time>
      </trkpt>
      <trkpt lat="46.96781" lon="8.76559">
        <ele>832</ele>
        <time>2021-08-06T09:20:20.331Z</time>
      </trkpt>
      <trkpt lat="46.9678" lon="8.76561">
        <ele>832</ele>
        <time>2021-08-06T09:20:21.331Z</time>
      </trkpt>
      <trkpt lat="46.9678" lon="8.76562">
        <ele>833</ele>
        <time>2021-08-06T09:20:22.331Z</time>
      </trkpt>
      <trkpt lat="46.9678" lon="8.76564">
        <ele>833</ele>
        <time>2021-08-06T09:20:23.331Z</time>
      </trkpt>
      <trkpt lat="46.96779" lon="8.76565">
        <ele>834</ele>
        <time>2021-08-06T09:20:24.332Z</time>
      </trkpt>
      <trkpt lat="46.96779" lon="8.76566">
        <ele>834</ele>
        <time>2021-08-06T09:20:25.331Z</time>
      </trkpt>
      <trkpt lat="46.96779" lon="8.76567">
        <ele>834</ele>
        <time>2021-08-06T09:20:26.331Z</time>
      </trkpt>
      <trkpt lat="46.96778" lon="8.76569">
        <ele>835</ele>
        <time>2021-08-06T09:20:27.332Z</time>
      </trkpt>
      <trkpt lat="46.96778" lon="8.7657">
        <ele>835</ele>
        <time>2021-08-06T09:20:28.331Z</time>
      </trkpt>
      <trkpt lat="46.96778" lon="8.76571">
        <ele>835</ele>
        <time>2021-08-06T09:20:29.332Z</time>
      </trkpt>
      <trkpt lat="46.96777" lon="8.76572">
        <ele>836</ele>
        <time>2021-08-06T09:20:30.332Z</time>
      </trkpt>
      <trkpt lat="46.96777" lon="8.76574">
        <ele>836</ele>
        <time>2021-08-06T09:20:31.331Z</time>
      </trkpt>
      <trkpt lat="46.96777" lon="8.76576">
        <ele>836</ele>
        <time>2021-08-06T09:20:32.332Z</time>
      </trkpt>
      <trkpt lat="46.96777" lon="8.76578">
        <ele>836</ele>
        <time>2021-08-06T09:20:33.331Z</time>
      </trkpt>
      <trkpt lat="46.96776" lon="8.76579">
        <ele>836</ele>
        <time>2021-08-06T09:20:34.331Z</time>
      </trkpt>
      <trkpt lat="46.96776" lon="8.7658">
        <ele>836</ele>
        <time>2021-08-06T09:20:35.331Z</time>
      </trkpt>
      <trkpt lat="46.96777" lon="8.76582">
        <ele>836</ele>
        <time>2021-08-06T09:20:36.331Z</time>
      </trkpt>
      <trkpt lat="46.96778" lon="8.76583">
        <ele>836</ele>
        <time>2021-08-06T09:20:37.331Z</time>
      </trkpt>
      <trkpt lat="46.96778" lon="8.76583">
        <ele>837</ele>
        <time>2021-08-06T09:20:38.331Z</time>
      </trkpt>
      <trkpt lat="46.96778" lon="8.76585">
        <ele>837</ele>
        <time>2021-08-06T09:20:39.331Z</time>
      </trkpt>
      <trkpt lat="46.96779" lon="8.76586">
        <ele>837</ele>
        <time>2021-08-06T09:20:40.332Z</time>
      </trkpt>
      <trkpt lat="46.96779" lon="8.76588">
        <ele>837</ele>
        <time>2021-08-06T09:20:41.331Z</time>
      </trkpt>
      <trkpt lat="46.96779" lon="8.76589">
        <ele>838</ele>
        <time>2021-08-06T09:20:42.331Z</time>
      </trkpt>
      <trkpt lat="46.96779" lon="8.7659">
        <ele>838</ele>
        <time>2021-08-06T09:20:43.331Z</time>
      </trkpt>
      <trkpt lat="46.96779" lon="8.76592">
        <ele>838</ele>
        <time>2021-08-06T09:20:44.331Z</time>
      </trkpt>
      <trkpt lat="46.96779" lon="8.76593">
        <ele>838</ele>
        <time>2021-08-06T09:20:45.331Z</time>
      </trkpt>
      <trkpt lat="46.96779" lon="8.76594">
        <ele>838</ele>
        <time>2021-08-06T09:20:46.331Z</time>
      </trkpt>
      <trkpt lat="46.96778" lon="8.76595">
        <ele>838</ele>
        <time>2021-08-06T09:20:47.332Z</time>
      </trkpt>
      <trkpt lat="46.96778" lon="8.76597">
        <ele>838</ele>
        <time>2021-08-06T09:20:48.331Z</time>
      </trkpt>
      <trkpt lat="46.96778" lon="8.76598">
        <ele>838</ele>
        <time>2021-08-06T09:20:49.331Z</time>
      </trkpt>
      <trkpt lat="46.96779" lon="8.766">
        <ele>839</ele>
        <time>2021-08-06T09:20:50.331Z</time>
      </trkpt>
      <trkpt lat="46.96779" lon="8.76601">
        <ele>839</ele>
        <time>2021-08-06T09:20:51.332Z</time>
      </trkpt>
      <trkpt lat="46.96779" lon="8.76603">
        <ele>839</ele>
        <time>2021-08-06T09:20:52.331Z</time>
      </trkpt>
      <trkpt lat="46.96779" lon="8.76605">
        <ele>839</ele>
        <time>2021-08-06T09:20:53.331Z</time>
      </trkpt>
      <trkpt lat="46.96779" lon="8.76606">
        <ele>839</ele>
        <time>2021-08-06T09:20:54.332Z</time>
      </trkpt>
      <trkpt lat="46.96779" lon="8.76607">
        <ele>839</ele>
        <time>2021-08-06T09:20:55.331Z</time>
      </trkpt>
      <trkpt lat="46.96779" lon="8.76607">
        <ele>839</ele>
        <time>2021-08-06T09:20:56.332Z</time>
      </trkpt>
      <trkpt lat="46.96778" lon="8.76608">
        <ele>839</ele>
        <time>2021-08-06T09:20:57.332Z</time>
      </trkpt>
      <trkpt lat="46.96778" lon="8.76609">
        <ele>839</ele>
        <time>2021-08-06T09:20:58.331Z</time>
      </trkpt>
      <trkpt lat="46.96777" lon="8.76611">
        <ele>839</ele>
        <time>2021-08-06T09:20:59.331Z</time>
      </trkpt>
      <trkpt lat="46.96777" lon="8.76612">
        <ele>839</ele>
        <time>2021-08-06T09:21:00.331Z</time>
      </trkpt>
      <trkpt lat="46.96776" lon="8.76614">
        <ele>839</ele>
        <time>2021-08-06T09:21:01.331Z</time>
      </trkpt>
      <trkpt lat="46.96776" lon="8.76616">
        <ele>839</ele>
        <time>2021-08-06T09:21:02.331Z</time>
      </trkpt>
      <trkpt lat="46.96776" lon="8.76618">
        <ele>839</ele>
        <time>2021-08-06T09:21:03.331Z</time>
      </trkpt>
      <trkpt lat="46.96776" lon="8.7662">
        <ele>839</ele>
        <time>2021-08-06T09:21:04.331Z</time>
      </trkpt>
      <trkpt lat="46.96776" lon="8.76621">
        <ele>839</ele>
        <time>2021-08-06T09:21:05.331Z</time>
      </trkpt>
      <trkpt lat="46.96775" lon="8.76623">
        <ele>838</ele>
        <time>2021-08-06T09:21:06.331Z</time>
      </trkpt>
      <trkpt lat="46.96775" lon="8.76624">
        <ele>838</ele>
        <time>2021-08-06T09:21:07.332Z</time>
      </trkpt>
      <trkpt lat="46.96775" lon="8.76625">
        <ele>838</ele>
        <time>2021-08-06T09:21:08.332Z</time>
      </trkpt>
      <trkpt lat="46.96775" lon="8.76626">
        <ele>838</ele>
        <time>2021-08-06T09:21:09.331Z</time>
      </trkpt>
      <trkpt lat="46.96775" lon="8.76627">
        <ele>838</ele>
        <time>2021-08-06T09:21:10.332Z</time>
      </trkpt>
      <trkpt lat="46.96775" lon="8.76628">
        <ele>838</ele>
        <time>2021-08-06T09:21:11.332Z</time>
      </trkpt>
      <trkpt lat="46.96774" lon="8.76629">
        <ele>839</ele>
        <time>2021-08-06T09:21:12.331Z</time>
      </trkpt>
      <trkpt lat="46.96774" lon="8.7663">
        <ele>839</ele>
        <time>2021-08-06T09:21:13.331Z</time>
      </trkpt>
      <trkpt lat="46.96773" lon="8.76631">
        <ele>839</ele>
        <time>2021-08-06T09:21:14.331Z</time>
      </trkpt>
      <trkpt lat="46.96772" lon="8.76632">
        <ele>839</ele>
        <time>2021-08-06T09:21:15.331Z</time>
      </trkpt>
      <trkpt lat="46.96772" lon="8.76634">
        <ele>840</ele>
        <time>2021-08-06T09:21:16.331Z</time>
      </trkpt>
      <trkpt lat="46.96771" lon="8.76634">
        <ele>840</ele>
        <time>2021-08-06T09:21:17.331Z</time>
      </trkpt>
      <trkpt lat="46.9677" lon="8.76636">
        <ele>840</ele>
        <time>2021-08-06T09:21:18.331Z</time>
      </trkpt>
      <trkpt lat="46.96768" lon="8.76638">
        <ele>840</ele>
        <time>2021-08-06T09:21:19.332Z</time>
      </trkpt>
      <trkpt lat="46.96768" lon="8.7664">
        <ele>840</ele>
        <time>2021-08-06T09:21:20.331Z</time>
      </trkpt>
      <trkpt lat="46.96768" lon="8.76641">
        <ele>840</ele>
        <time>2021-08-06T09:21:21.331Z</time>
      </trkpt>
      <trkpt lat="46.96768" lon="8.76642">
        <ele>840</ele>
        <time>2021-08-06T09:21:22.331Z</time>
      </trkpt>
      <trkpt lat="46.96768" lon="8.76642">
        <ele>840</ele>
        <time>2021-08-06T09:21:23.332Z</time>
      </trkpt>
      <trkpt lat="46.96767" lon="8.76644">
        <ele>840</ele>
        <time>2021-08-06T09:21:24.331Z</time>
      </trkpt>
      <trkpt lat="46.96766" lon="8.76645">
        <ele>841</ele>
        <time>2021-08-06T09:21:25.331Z</time>
      </trkpt>
      <trkpt lat="46.96765" lon="8.76646">
        <ele>841</ele>
        <time>2021-08-06T09:21:26.331Z</time>
      </trkpt>
      <trkpt lat="46.96765" lon="8.76648">
        <ele>841</ele>
        <time>2021-08-06T09:21:27.331Z</time>
      </trkpt>
      <trkpt lat="46.96764" lon="8.76649">
        <ele>841</ele>
        <time>2021-08-06T09:21:28.332Z</time>
      </trkpt>
      <trkpt lat="46.96763" lon="8.7665">
        <ele>842</ele>
        <time>2021-08-06T09:21:29.331Z</time>
      </trkpt>
      <trkpt lat="46.96763" lon="8.76652">
        <ele>842</ele>
        <time>2021-08-06T09:21:30.331Z</time>
      </trkpt>
      <trkpt lat="46.96763" lon="8.76653">
        <ele>842</ele>
        <time>2021-08-06T09:21:31.331Z</time>
      </trkpt>
      <trkpt lat="46.96763" lon="8.76654">
        <ele>843</ele>
        <time>2021-08-06T09:21:32.331Z</time>
      </trkpt>
      <trkpt lat="46.96764" lon="8.76655">
        <ele>843</ele>
        <time>2021-08-06T09:21:33.331Z</time>
      </trkpt>
      <trkpt lat="46.96764" lon="8.76656">
        <ele>844</ele>
        <time>2021-08-06T09:21:34.331Z</time>
      </trkpt>
      <trkpt lat="46.96764" lon="8.76657">
        <ele>844</ele>
        <time>2021-08-06T09:21:35.332Z</time>
      </trkpt>
      <trkpt lat="46.96764" lon="8.76658">
        <ele>844</ele>
        <time>2021-08-06T09:21:36.332Z</time>
      </trkpt>
      <trkpt lat="46.96765" lon="8.76659">
        <ele>845</ele>
        <time>2021-08-06T09:21:37.331Z</time>
      </trkpt>
      <trkpt lat="46.96766" lon="8.76661">
        <ele>845</ele>
        <time>2021-08-06T09:21:38.331Z</time>
      </trkpt>
      <trkpt lat="46.96767" lon="8.76662">
        <ele>845</ele>
        <time>2021-08-06T09:21:39.331Z</time>
      </trkpt>
      <trkpt lat="46.96767" lon="8.76663">
        <ele>846</ele>
        <time>2021-08-06T09:21:40.331Z</time>
      </trkpt>
      <trkpt lat="46.96768" lon="8.76664">
        <ele>846</ele>
        <time>2021-08-06T09:21:41.331Z</time>
      </trkpt>
      <trkpt lat="46.96768" lon="8.76665">
        <ele>846</ele>
        <time>2021-08-06T09:21:42.331Z</time>
      </trkpt>
      <trkpt lat="46.96769" lon="8.76666">
        <ele>846</ele>
        <time>2021-08-06T09:21:43.331Z</time>
      </trkpt>
      <trkpt lat="46.96769" lon="8.76667">
        <ele>845</ele>
        <time>2021-08-06T09:21:44.331Z</time>
      </trkpt>
      <trkpt lat="46.96769" lon="8.76669">
        <ele>845</ele>
        <time>2021-08-06T09:21:45.331Z</time>
      </trkpt>
      <trkpt lat="46.96769" lon="8.7667">
        <ele>845</ele>
        <time>2021-08-06T09:21:46.331Z</time>
      </trkpt>
      <trkpt lat="46.9677" lon="8.76672">
        <ele>844</ele>
        <time>2021-08-06T09:21:47.332Z</time>
      </trkpt>
      <trkpt lat="46.9677" lon="8.76673">
        <ele>844</ele>
        <time>2021-08-06T09:21:48.332Z</time>
      </trkpt>
      <trkpt lat="46.9677" lon="8.76674">
        <ele>844</ele>
        <time>2021-08-06T09:21:49.331Z</time>
      </trkpt>
      <trkpt lat="46.9677" lon="8.76675">
        <ele>843</ele>
        <time>2021-08-06T09:21:50.331Z</time>
      </trkpt>
      <trkpt lat="46.9677" lon="8.76676">
        <ele>843</ele>
        <time>2021-08-06T09:21:51.331Z</time>
      </trkpt>
      <trkpt lat="46.96769" lon="8.76677">
        <ele>843</ele>
        <time>2021-08-06T09:21:52.332Z</time>
      </trkpt>
      <trkpt lat="46.96769" lon="8.76678">
        <ele>842</ele>
        <time>2021-08-06T09:21:53.331Z</time>
      </trkpt>
      <trkpt lat="46.96769" lon="8.76678">
        <ele>842</ele>
        <time>2021-08-06T09:21:54.332Z</time>
      </trkpt>
      <trkpt lat="46.96769" lon="8.76679">
        <ele>842</ele>
        <time>2021-08-06T09:21:55.331Z</time>
      </trkpt>
      <trkpt lat="46.9677" lon="8.7668">
        <ele>841</ele>
        <time>2021-08-06T09:21:56.331Z</time>
      </trkpt>
      <trkpt lat="46.9677" lon="8.76681">
        <ele>841</ele>
        <time>2021-08-06T09:21:57.331Z</time>
      </trkpt>
      <trkpt lat="46.9677" lon="8.76683">
        <ele>841</ele>
        <time>2021-08-06T09:21:58.331Z</time>
      </trkpt>
      <trkpt lat="46.9677" lon="8.76685">
        <ele>841</ele>
        <time>2021-08-06T09:21:59.332Z</time>
      </trkpt>
      <trkpt lat="46.96771" lon="8.76686">
        <ele>841</ele>
        <time>2021-08-06T09:22:00.332Z</time>
      </trkpt>
      <trkpt lat="46.96772" lon="8.76688">
        <ele>840</ele>
        <time>2021-08-06T09:22:01.331Z</time>
      </trkpt>
      <trkpt lat="46.96773" lon="8.7669">
        <ele>840</ele>
        <time>2021-08-06T09:22:02.331Z</time>
      </trkpt>
      <trkpt lat="46.96773" lon="8.76691">
        <ele>840</ele>
        <time>2021-08-06T09:22:03.332Z</time>
      </trkpt>
      <trkpt lat="46.96773" lon="8.76692">
        <ele>840</ele>
        <time>2021-08-06T09:22:04.331Z</time>
      </trkpt>
      <trkpt lat="46.96771" lon="8.76693">
        <ele>840</ele>
        <time>2021-08-06T09:22:05.332Z</time>
      </trkpt>
      <trkpt lat="46.96772" lon="8.76695">
        <ele>840</ele>
        <time>2021-08-06T09:22:06.331Z</time>
      </trkpt>
      <trkpt lat="46.96772" lon="8.76696">
        <ele>840</ele>
        <time>2021-08-06T09:22:07.331Z</time>
      </trkpt>
      <trkpt lat="46.96772" lon="8.76698">
        <ele>840</ele>
        <time>2021-08-06T09:22:08.331Z</time>
      </trkpt>
      <trkpt lat="46.96772" lon="8.76699">
        <ele>840</ele>
        <time>2021-08-06T09:22:09.332Z</time>
      </trkpt>
      <trkpt lat="46.96773" lon="8.76699">
        <ele>840</ele>
        <time>2021-08-06T09:22:10.332Z</time>
      </trkpt>
      <trkpt lat="46.96773" lon="8.767">
        <ele>840</ele>
        <time>2021-08-06T09:22:11.331Z</time>
      </trkpt>
      <trkpt lat="46.96773" lon="8.76701">
        <ele>840</ele>
        <time>2021-08-06T09:22:12.332Z</time>
      </trkpt>
      <trkpt lat="46.96773" lon="8.76702">
        <ele>840</ele>
        <time>2021-08-06T09:22:13.331Z</time>
      </trkpt>
      <trkpt lat="46.96772" lon="8.76703">
        <ele>840</ele>
        <time>2021-08-06T09:22:14.332Z</time>
      </trkpt>
      <trkpt lat="46.96772" lon="8.76705">
        <ele>840</ele>
        <time>2021-08-06T09:22:15.332Z</time>
      </trkpt>
      <trkpt lat="46.96772" lon="8.76706">
        <ele>839</ele>
        <time>2021-08-06T09:22:16.332Z</time>
      </trkpt>
      <trkpt lat="46.96773" lon="8.76707">
        <ele>839</ele>
        <time>2021-08-06T09:22:17.331Z</time>
      </trkpt>
      <trkpt lat="46.96773" lon="8.76708">
        <ele>839</ele>
        <time>2021-08-06T09:22:18.331Z</time>
      </trkpt>
      <trkpt lat="46.96774" lon="8.76709">
        <ele>838</ele>
        <time>2021-08-06T09:22:19.331Z</time>
      </trkpt>
      <trkpt lat="46.96774" lon="8.76709">
        <ele>838</ele>
        <time>2021-08-06T09:22:20.332Z</time>
      </trkpt>
      <trkpt lat="46.96773" lon="8.76711">
        <ele>838</ele>
        <time>2021-08-06T09:22:21.331Z</time>
      </trkpt>
      <trkpt lat="46.96772" lon="8.76712">
        <ele>838</ele>
        <time>2021-08-06T09:22:22.331Z</time>
      </trkpt>
      <trkpt lat="46.96772" lon="8.76713">
        <ele>837</ele>
        <time>2021-08-06T09:22:23.331Z</time>
      </trkpt>
      <trkpt lat="46.96772" lon="8.76716">
        <ele>837</ele>
        <time>2021-08-06T09:22:24.331Z</time>
      </trkpt>
      <trkpt lat="46.96773" lon="8.76717">
        <ele>837</ele>
        <time>2021-08-06T09:22:25.332Z</time>
      </trkpt>
      <trkpt lat="46.96773" lon="8.76719">
        <ele>837</ele>
        <time>2021-08-06T09:22:26.331Z</time>
      </trkpt>
      <trkpt lat="46.96774" lon="8.7672">
        <ele>837</ele>
        <time>2021-08-06T09:22:27.331Z</time>
      </trkpt>
      <trkpt lat="46.96774" lon="8.76721">
        <ele>836</ele>
        <time>2021-08-06T09:22:28.332Z</time>
      </trkpt>
      <trkpt lat="46.96774" lon="8.76722">
        <ele>836</ele>
        <time>2021-08-06T09:22:29.331Z</time>
      </trkpt>
      <trkpt lat="46.96773" lon="8.76723">
        <ele>836</ele>
        <time>2021-08-06T09:22:30.331Z</time>
      </trkpt>
      <trkpt lat="46.96773" lon="8.76725">
        <ele>836</ele>
        <time>2021-08-06T09:22:31.332Z</time>
      </trkpt>
      <trkpt lat="46.96773" lon="8.76726">
        <ele>836</ele>
        <time>2021-08-06T09:22:32.331Z</time>
      </trkpt>
      <trkpt lat="46.96773" lon="8.76727">
        <ele>836</ele>
        <time>2021-08-06T09:22:33.331Z</time>
      </trkpt>
      <trkpt lat="46.96773" lon="8.76727">
        <ele>836</ele>
        <time>2021-08-06T09:22:34.332Z</time>
      </trkpt>
      <trkpt lat="46.96773" lon="8.76728">
        <ele>836</ele>
        <time>2021-08-06T09:22:35.332Z</time>
      </trkpt>
      <trkpt lat="46.96773" lon="8.76729">
        <ele>836</ele>
        <time>2021-08-06T09:22:36.331Z</time>
      </trkpt>
      <trkpt lat="46.96773" lon="8.7673">
        <ele>835</ele>
        <time>2021-08-06T09:22:37.331Z</time>
      </trkpt>
      <trkpt lat="46.96772" lon="8.76731">
        <ele>835</ele>
        <time>2021-08-06T09:22:38.331Z</time>
      </trkpt>
      <trkpt lat="46.96772" lon="8.76733">
        <ele>835</ele>
        <time>2021-08-06T09:22:39.332Z</time>
      </trkpt>
      <trkpt lat="46.96772" lon="8.76733">
        <ele>835</ele>
        <time>2021-08-06T09:22:40.331Z</time>
      </trkpt>
      <trkpt lat="46.96773" lon="8.76735">
        <ele>835</ele>
        <time>2021-08-06T09:22:41.332Z</time>
      </trkpt>
      <trkpt lat="46.96772" lon="8.76736">
        <ele>835</ele>
        <time>2021-08-06T09:22:42.331Z</time>
      </trkpt>
      <trkpt lat="46.9677" lon="8.76737">
        <ele>835</ele>
        <time>2021-08-06T09:22:43.331Z</time>
      </trkpt>
      <trkpt lat="46.9677" lon="8.76739">
        <ele>835</ele>
        <time>2021-08-06T09:22:44.331Z</time>
      </trkpt>
      <trkpt lat="46.96769" lon="8.76741">
        <ele>835</ele>
        <time>2021-08-06T09:22:45.331Z</time>
      </trkpt>
      <trkpt lat="46.96768" lon="8.76742">
        <ele>836</ele>
        <time>2021-08-06T09:22:46.331Z</time>
      </trkpt>
      <trkpt lat="46.96768" lon="8.76742">
        <ele>836</ele>
        <time>2021-08-06T09:22:47.331Z</time>
      </trkpt>
      <trkpt lat="46.96768" lon="8.76743">
        <ele>836</ele>
        <time>2021-08-06T09:22:48.331Z</time>
      </trkpt>
      <trkpt lat="46.96768" lon="8.76744">
        <ele>836</ele>
        <time>2021-08-06T09:22:49.332Z</time>
      </trkpt>
      <trkpt lat="46.96768" lon="8.76746">
        <ele>836</ele>
        <time>2021-08-06T09:22:50.332Z</time>
      </trkpt>
      <trkpt lat="46.96767" lon="8.76747">
        <ele>836</ele>
        <time>2021-08-06T09:22:51.331Z</time>
      </trkpt>
      <trkpt lat="46.96767" lon="8.76748">
        <ele>836</ele>
        <time>2021-08-06T09:22:52.331Z</time>
      </trkpt>
      <trkpt lat="46.96766" lon="8.76749">
        <ele>836</ele>
        <time>2021-08-06T09:22:53.331Z</time>
      </trkpt>
      <trkpt lat="46.96766" lon="8.76751">
        <ele>836</ele>
        <time>2021-08-06T09:22:54.331Z</time>
      </trkpt>
      <trkpt lat="46.96765" lon="8.76752">
        <ele>836</ele>
        <time>2021-08-06T09:22:55.332Z</time>
      </trkpt>
      <trkpt lat="46.96764" lon="8.76753">
        <ele>837</ele>
        <time>2021-08-06T09:22:56.331Z</time>
      </trkpt>
      <trkpt lat="46.96764" lon="8.76755">
        <ele>837</ele>
        <time>2021-08-06T09:22:57.331Z</time>
      </trkpt>
      <trkpt lat="46.96763" lon="8.76756">
        <ele>837</ele>
        <time>2021-08-06T09:22:58.332Z</time>
      </trkpt>
      <trkpt lat="46.96763" lon="8.76757">
        <ele>837</ele>
        <time>2021-08-06T09:22:59.331Z</time>
      </trkpt>
      <trkpt lat="46.96763" lon="8.76758">
        <ele>838</ele>
        <time>2021-08-06T09:23:00.332Z</time>
      </trkpt>
      <trkpt lat="46.96762" lon="8.7676">
        <ele>838</ele>
        <time>2021-08-06T09:23:01.331Z</time>
      </trkpt>
      <trkpt lat="46.96761" lon="8.76762">
        <ele>838</ele>
        <time>2021-08-06T09:23:02.332Z</time>
      </trkpt>
      <trkpt lat="46.9676" lon="8.76763">
        <ele>839</ele>
        <time>2021-08-06T09:23:03.332Z</time>
      </trkpt>
      <trkpt lat="46.96761" lon="8.76765">
        <ele>839</ele>
        <time>2021-08-06T09:23:04.331Z</time>
      </trkpt>
      <trkpt lat="46.96761" lon="8.76767">
        <ele>839</ele>
        <time>2021-08-06T09:23:05.332Z</time>
      </trkpt>
      <trkpt lat="46.96761" lon="8.76768">
        <ele>839</ele>
        <time>2021-08-06T09:23:06.331Z</time>
      </trkpt>
      <trkpt lat="46.96761" lon="8.76769">
        <ele>840</ele>
        <time>2021-08-06T09:23:07.331Z</time>
      </trkpt>
      <trkpt lat="46.96761" lon="8.7677">
        <ele>840</ele>
        <time>2021-08-06T09:23:08.331Z</time>
      </trkpt>
      <trkpt lat="46.96761" lon="8.76772">
        <ele>840</ele>
        <time>2021-08-06T09:23:09.331Z</time>
      </trkpt>
      <trkpt lat="46.96761" lon="8.76773">
        <ele>841</ele>
        <time>2021-08-06T09:23:10.331Z</time>
      </trkpt>
      <trkpt lat="46.9676" lon="8.76774">
        <ele>841</ele>
        <time>2021-08-06T09:23:11.332Z</time>
      </trkpt>
      <trkpt lat="46.96761" lon="8.76774">
        <ele>841</ele>
        <time>2021-08-06T09:23:12.331Z</time>
      </trkpt>
      <trkpt lat="46.96761" lon="8.76775">
        <ele>842</ele>
        <time>2021-08-06T09:23:13.332Z</time>
      </trkpt>
      <trkpt lat="46.96762" lon="8.76777">
        <ele>842</ele>
        <time>2021-08-06T09:23:14.331Z</time>
      </trkpt>
      <trkpt lat="46.96763" lon="8.76778">
        <ele>842</ele>
        <time>2021-08-06T09:23:15.331Z</time>
      </trkpt>
      <trkpt lat="46.96763" lon="8.7678">
        <ele>843</ele>
        <time>2021-08-06T09:23:16.331Z</time>
      </trkpt>
      <trkpt lat="46.96764" lon="8.76781">
        <ele>843</ele>
        <time>2021-08-06T09:23:17.332Z</time>
      </trkpt>
      <trkpt lat="46.96764" lon="8.76783">
        <ele>843</ele>
        <time>2021-08-06T09:23:18.331Z</time>
      </trkpt>
      <trkpt lat="46.96763" lon="8.76785">
        <ele>843</ele>
        <time>2021-08-06T09:23:19.332Z</time>
      </trkpt>
      <trkpt lat="46.96763" lon="8.76786">
        <ele>843</ele>
        <time>2021-08-06T09:23:20.331Z</time>
      </trkpt>
      <trkpt lat="46.96763" lon="8.76787">
        <ele>843</ele>
        <time>2021-08-06T09:23:21.331Z</time>
      </trkpt>
      <trkpt lat="46.96763" lon="8.76788">
        <ele>843</ele>
        <time>2021-08-06T09:23:22.331Z</time>
      </trkpt>
      <trkpt lat="46.96762" lon="8.76788">
        <ele>843</ele>
        <time>2021-08-06T09:23:23.331Z</time>
      </trkpt>
      <trkpt lat="46.96761" lon="8.76789">
        <ele>843</ele>
        <time>2021-08-06T09:23:24.332Z</time>
      </trkpt>
      <trkpt lat="46.96761" lon="8.7679">
        <ele>843</ele>
        <time>2021-08-06T09:23:25.332Z</time>
      </trkpt>
      <trkpt lat="46.96761" lon="8.76792">
        <ele>843</ele>
        <time>2021-08-06T09:23:26.332Z</time>
      </trkpt>
      <trkpt lat="46.96761" lon="8.76793">
        <ele>843</ele>
        <time>2021-08-06T09:23:27.331Z</time>
      </trkpt>
      <trkpt lat="46.96761" lon="8.76795">
        <ele>844</ele>
        <time>2021-08-06T09:23:28.332Z</time>
      </trkpt>
      <trkpt lat="46.96761" lon="8.76797">
        <ele>844</ele>
        <time>2021-08-06T09:23:29.332Z</time>
      </trkpt>
      <trkpt lat="46.96761" lon="8.768">
        <ele>844</ele>
        <time>2021-08-06T09:23:30.331Z</time>
      </trkpt>
      <trkpt lat="46.9676" lon="8.76801">
        <ele>844</ele>
        <time>2021-08-06T09:23:31.331Z</time>
      </trkpt>
      <trkpt lat="46.9676" lon="8.76802">
        <ele>844</ele>
        <time>2021-08-06T09:23:32.331Z</time>
      </trkpt>
      <trkpt lat="46.9676" lon="8.76804">
        <ele>845</ele>
        <time>2021-08-06T09:23:33.332Z</time>
      </trkpt>
      <trkpt lat="46.9676" lon="8.76805">
        <ele>845</ele>
        <time>2021-08-06T09:23:34.332Z</time>
      </trkpt>
      <trkpt lat="46.96759" lon="8.76806">
        <ele>846</ele>
        <time>2021-08-06T09:23:35.331Z</time>
      </trkpt>
      <trkpt lat="46.96758" lon="8.76808">
        <ele>847</ele>
        <time>2021-08-06T09:23:36.331Z</time>
      </trkpt>
      <trkpt lat="46.96758" lon="8.76809">
        <ele>847</ele>
        <time>2021-08-06T09:23:37.331Z</time>
      </trkpt>
      <trkpt lat="46.96757" lon="8.76811">
        <ele>848</ele>
        <time>2021-08-06T09:23:38.331Z</time>
      </trkpt>
      <trkpt lat="46.96757" lon="8.76813">
        <ele>849</ele>
        <time>2021-08-06T09:23:39.331Z</time>
      </trkpt>
      <trkpt lat="46.96757" lon="8.76813">
        <ele>849</ele>
        <time>2021-08-06T09:23:40.331Z</time>
      </trkpt>
      <trkpt lat="46.96756" lon="8.76813">
        <ele>850</ele>
        <time>2021-08-06T09:23:41.331Z</time>
      </trkpt>
      <trkpt lat="46.96756" lon="8.76812">
        <ele>850</ele>
        <time>2021-08-06T09:23:42.332Z</time>
      </trkpt>
      <trkpt lat="46.96756" lon="8.76812">
        <ele>850</ele>
        <time>2021-08-06T09:23:43.331Z</time>
      </trkpt>
      <trkpt lat="46.96757" lon="8.76811">
        <ele>850</ele>
        <time>2021-08-06T09:23:44.332Z</time>
      </trkpt>
      <trkpt lat="46.96757" lon="8.7681">
        <ele>850</ele>
        <time>2021-08-06T09:23:45.331Z</time>
      </trkpt>
      <trkpt lat="46.96757" lon="8.7681">
        <ele>850</ele>
        <time>2021-08-06T09:23:46.332Z</time>
      </trkpt>
      <trkpt lat="46.96756" lon="8.76809">
        <ele>849</ele>
        <time>2021-08-06T09:23:47.332Z</time>
      </trkpt>
      <trkpt lat="46.96756" lon="8.76809">
        <ele>849</ele>
        <time>2021-08-06T09:23:48.332Z</time>
      </trkpt>
      <trkpt lat="46.96757" lon="8.76809">
        <ele>849</ele>
        <time>2021-08-06T09:23:49.331Z</time>
      </trkpt>
      <trkpt lat="46.96758" lon="8.76808">
        <ele>848</ele>
        <time>2021-08-06T09:23:50.331Z</time>
      </trkpt>
      <trkpt lat="46.96758" lon="8.76808">
        <ele>848</ele>
        <time>2021-08-06T09:23:51.331Z</time>
      </trkpt>
      <trkpt lat="46.96758" lon="8.76808">
        <ele>848</ele>
        <time>2021-08-06T09:23:52.331Z</time>
      </trkpt>
      <trkpt lat="46.96759" lon="8.76807">
        <ele>848</ele>
        <time>2021-08-06T09:23:53.331Z</time>
      </trkpt>
      <trkpt lat="46.96759" lon="8.76807">
        <ele>848</ele>
        <time>2021-08-06T09:23:54.331Z</time>
      </trkpt>
      <trkpt lat="46.96759" lon="8.76807">
        <ele>847</ele>
        <time>2021-08-06T09:23:55.331Z</time>
      </trkpt>
      <trkpt lat="46.96759" lon="8.76806">
        <ele>847</ele>
        <time>2021-08-06T09:23:56.331Z</time>
      </trkpt>
      <trkpt lat="46.9676" lon="8.76806">
        <ele>847</ele>
        <time>2021-08-06T09:23:57.331Z</time>
      </trkpt>
      <trkpt lat="46.9676" lon="8.76806">
        <ele>847</ele>
        <time>2021-08-06T09:23:58.331Z</time>
      </trkpt>
      <trkpt lat="46.9676" lon="8.76805">
        <ele>847</ele>
        <time>2021-08-06T09:23:59.331Z</time>
      </trkpt>
      <trkpt lat="46.96761" lon="8.76805">
        <ele>847</ele>
        <time>2021-08-06T09:24:00.331Z</time>
      </trkpt>
      <trkpt lat="46.96761" lon="8.76804">
        <ele>847</ele>
        <time>2021-08-06T09:24:01.331Z</time>
      </trkpt>
      <trkpt lat="46.96762" lon="8.76803">
        <ele>847</ele>
        <time>2021-08-06T09:24:02.331Z</time>
      </trkpt>
      <trkpt lat="46.96762" lon="8.76802">
        <ele>848</ele>
        <time>2021-08-06T09:24:03.331Z</time>
      </trkpt>
      <trkpt lat="46.96761" lon="8.76802">
        <ele>847</ele>
        <time>2021-08-06T09:24:04.331Z</time>
      </trkpt>
      <trkpt lat="46.9676" lon="8.76801">
        <ele>847</ele>
        <time>2021-08-06T09:24:05.331Z</time>
      </trkpt>
      <trkpt lat="46.96759" lon="8.76801">
        <ele>847</ele>
        <time>2021-08-06T09:24:06.332Z</time>
      </trkpt>
      <trkpt lat="46.96759" lon="8.768">
        <ele>847</ele>
        <time>2021-08-06T09:24:07.332Z</time>
      </trkpt>
      <trkpt lat="46.96759" lon="8.768">
        <ele>847</ele>
        <time>2021-08-06T09:24:08.331Z</time>
      </trkpt>
      <trkpt lat="46.9676" lon="8.768">
        <ele>847</ele>
        <time>2021-08-06T09:24:09.332Z</time>
      </trkpt>
      <trkpt lat="46.9676" lon="8.76799">
        <ele>846</ele>
        <time>2021-08-06T09:24:10.332Z</time>
      </trkpt>
      <trkpt lat="46.96759" lon="8.76798">
        <ele>846</ele>
        <time>2021-08-06T09:24:11.331Z</time>
      </trkpt>
      <trkpt lat="46.96759" lon="8.76798">
        <ele>846</ele>
        <time>2021-08-06T09:24:12.331Z</time>
      </trkpt>
      <trkpt lat="46.96759" lon="8.76797">
        <ele>846</ele>
        <time>2021-08-06T09:24:13.331Z</time>
      </trkpt>
      <trkpt lat="46.96758" lon="8.76797">
        <ele>845</ele>
        <time>2021-08-06T09:24:14.332Z</time>
      </trkpt>
      <trkpt lat="46.96757" lon="8.76797">
        <ele>845</ele>
        <time>2021-08-06T09:24:15.331Z</time>
      </trkpt>
      <trkpt lat="46.96757" lon="8.76798">
        <ele>846</ele>
        <time>2021-08-06T09:24:16.331Z</time>
      </trkpt>
      <trkpt lat="46.96757" lon="8.76798">
        <ele>846</ele>
        <time>2021-08-06T09:24:17.331Z</time>
      </trkpt>
      <trkpt lat="46.96757" lon="8.76799">
        <ele>846</ele>
        <time>2021-08-06T09:24:18.332Z</time>
      </trkpt>
      <trkpt lat="46.96757" lon="8.76799">
        <ele>846</ele>
        <time>2021-08-06T09:24:19.332Z</time>
      </trkpt>
      <trkpt lat="46.96756" lon="8.76798">
        <ele>846</ele>
        <time>2021-08-06T09:24:20.331Z</time>
      </trkpt>
      <trkpt lat="46.96756" lon="8.76797">
        <ele>846</ele>
        <time>2021-08-06T09:24:21.331Z</time>
      </trkpt>
      <trkpt lat="46.96756" lon="8.76796">
        <ele>847</ele>
        <time>2021-08-06T09:24:22.331Z</time>
      </trkpt>
      <trkpt lat="46.96756" lon="8.76796">
        <ele>847</ele>
        <time>2021-08-06T09:24:23.332Z</time>
      </trkpt>
      <trkpt lat="46.96756" lon="8.76795">
        <ele>848</ele>
        <time>2021-08-06T09:24:24.331Z</time>
      </trkpt>
      <trkpt lat="46.96756" lon="8.76792">
        <ele>849</ele>
        <time>2021-08-06T09:24:25.332Z</time>
      </trkpt>
      <trkpt lat="46.96755" lon="8.76792">
        <ele>850</ele>
        <time>2021-08-06T09:24:26.332Z</time>
      </trkpt>
      <trkpt lat="46.96755" lon="8.76791">
        <ele>850</ele>
        <time>2021-08-06T09:24:27.332Z</time>
      </trkpt>
      <trkpt lat="46.96755" lon="8.76789">
        <ele>850</ele>
        <time>2021-08-06T09:24:28.332Z</time>
      </trkpt>
      <trkpt lat="46.96755" lon="8.76788">
        <ele>850</ele>
        <time>2021-08-06T09:24:29.332Z</time>
      </trkpt>
      <trkpt lat="46.96755" lon="8.76787">
        <ele>850</ele>
        <time>2021-08-06T09:24:30.332Z</time>
      </trkpt>
      <trkpt lat="46.96755" lon="8.76787">
        <ele>850</ele>
        <time>2021-08-06T09:24:31.332Z</time>
      </trkpt>
      <trkpt lat="46.96754" lon="8.76786">
        <ele>850</ele>
        <time>2021-08-06T09:24:32.332Z</time>
      </trkpt>
      <trkpt lat="46.96754" lon="8.76785">
        <ele>850</ele>
        <time>2021-08-06T09:24:33.332Z</time>
      </trkpt>
      <trkpt lat="46.96755" lon="8.76785">
        <ele>851</ele>
        <time>2021-08-06T09:24:34.332Z</time>
      </trkpt>
      <trkpt lat="46.96756" lon="8.76784">
        <ele>852</ele>
        <time>2021-08-06T09:24:35.332Z</time>
      </trkpt>
      <trkpt lat="46.96756" lon="8.76783">
        <ele>852</ele>
        <time>2021-08-06T09:24:36.332Z</time>
      </trkpt>
      <trkpt lat="46.96757" lon="8.76782">
        <ele>853</ele>
        <time>2021-08-06T09:24:37.332Z</time>
      </trkpt>
      <trkpt lat="46.96756" lon="8.76781">
        <ele>854</ele>
        <time>2021-08-06T09:24:38.332Z</time>
      </trkpt>
      <trkpt lat="46.96756" lon="8.76781">
        <ele>855</ele>
        <time>2021-08-06T09:24:39.332Z</time>
      </trkpt>
      <trkpt lat="46.96756" lon="8.7678">
        <ele>855</ele>
        <time>2021-08-06T09:24:40.332Z</time>
      </trkpt>
      <trkpt lat="46.96757" lon="8.76779">
        <ele>856</ele>
        <time>2021-08-06T09:24:41.332Z</time>
      </trkpt>
      <trkpt lat="46.96757" lon="8.76779">
        <ele>857</ele>
        <time>2021-08-06T09:24:42.332Z</time>
      </trkpt>
      <trkpt lat="46.96758" lon="8.76778">
        <ele>857</ele>
        <time>2021-08-06T09:24:43.332Z</time>
      </trkpt>
      <trkpt lat="46.96758" lon="8.76777">
        <ele>858</ele>
        <time>2021-08-06T09:24:44.332Z</time>
      </trkpt>
      <trkpt lat="46.96759" lon="8.76776">
        <ele>859</ele>
        <time>2021-08-06T09:24:45.332Z</time>
      </trkpt>
      <trkpt lat="46.96759" lon="8.76775">
        <ele>860</ele>
        <time>2021-08-06T09:24:46.332Z</time>
      </trkpt>
      <trkpt lat="46.96759" lon="8.76774">
        <ele>861</ele>
        <time>2021-08-06T09:24:47.332Z</time>
      </trkpt>
      <trkpt lat="46.96759" lon="8.76774">
        <ele>862</ele>
        <time>2021-08-06T09:24:48.332Z</time>
      </trkpt>
      <trkpt lat="46.96758" lon="8.76774">
        <ele>863</ele>
        <time>2021-08-06T09:24:49.332Z</time>
      </trkpt>
      <trkpt lat="46.96758" lon="8.76774">
        <ele>863</ele>
        <time>2021-08-06T09:24:50.332Z</time>
      </trkpt>
      <trkpt lat="46.96758" lon="8.76773">
        <ele>863</ele>
        <time>2021-08-06T09:24:51.332Z</time>
      </trkpt>
      <trkpt lat="46.96758" lon="8.76773">
        <ele>863</ele>
        <time>2021-08-06T09:24:52.332Z</time>
      </trkpt>
      <trkpt lat="46.96757" lon="8.76772">
        <ele>864</ele>
        <time>2021-08-06T09:24:53.332Z</time>
      </trkpt>
      <trkpt lat="46.96756" lon="8.76765">
        <ele>865</ele>
        <time>2021-08-06T09:24:54.333Z</time>
      </trkpt>
      <trkpt lat="46.96756" lon="8.76765">
        <ele>865</ele>
        <time>2021-08-06T09:24:55.333Z</time>
      </trkpt>
      <trkpt lat="46.96756" lon="8.76765">
        <ele>865</ele>
        <time>2021-08-06T09:24:56.332Z</time>
      </trkpt>
      <trkpt lat="46.96755" lon="8.76764">
        <ele>865</ele>
        <time>2021-08-06T09:24:57.333Z</time>
      </trkpt>
      <trkpt lat="46.96753" lon="8.76764">
        <ele>864</ele>
        <time>2021-08-06T09:24:58.333Z</time>
      </trkpt>
      <trkpt lat="46.96753" lon="8.76765">
        <ele>864</ele>
        <time>2021-08-06T09:24:59.333Z</time>
      </trkpt>
      <trkpt lat="46.96754" lon="8.76769">
        <ele>865</ele>
        <time>2021-08-06T09:25:00.334Z</time>
      </trkpt>
      <trkpt lat="46.96754" lon="8.7677">
        <ele>865</ele>
        <time>2021-08-06T09:25:01.333Z</time>
      </trkpt>
      <trkpt lat="46.96754" lon="8.7677">
        <ele>865</ele>
        <time>2021-08-06T09:25:02.333Z</time>
      </trkpt>
      <trkpt lat="46.96753" lon="8.76777">
        <ele>860</ele>
        <time>2021-08-06T09:25:03.333Z</time>
      </trkpt>
      <trkpt lat="46.96753" lon="8.76778">
        <ele>860</ele>
        <time>2021-08-06T09:25:04.333Z</time>
      </trkpt>
      <trkpt lat="46.96753" lon="8.76778">
        <ele>860</ele>
        <time>2021-08-06T09:25:05.333Z</time>
      </trkpt>
      <trkpt lat="46.96753" lon="8.76779">
        <ele>860</ele>
        <time>2021-08-06T09:25:06.333Z</time>
      </trkpt>
      <trkpt lat="46.96753" lon="8.7678">
        <ele>860</ele>
        <time>2021-08-06T09:25:07.334Z</time>
      </trkpt>
      <trkpt lat="46.96753" lon="8.7678">
        <ele>860</ele>
        <time>2021-08-06T09:25:08.333Z</time>
      </trkpt>
      <trkpt lat="46.96754" lon="8.76779">
        <ele>860</ele>
        <time>2021-08-06T09:25:09.333Z</time>
      </trkpt>
      <trkpt lat="46.96755" lon="8.76779">
        <ele>860</ele>
        <time>2021-08-06T09:25:10.333Z</time>
      </trkpt>
      <trkpt lat="46.96754" lon="8.7678">
        <ele>860</ele>
        <time>2021-08-06T09:25:11.334Z</time>
      </trkpt>
      <trkpt lat="46.96754" lon="8.7678">
        <ele>860</ele>
        <time>2021-08-06T09:25:12.334Z</time>
      </trkpt>
      <trkpt lat="46.96755" lon="8.7678">
        <ele>857</ele>
        <time>2021-08-06T09:25:13.333Z</time>
      </trkpt>
      <trkpt lat="46.96755" lon="8.7678">
        <ele>857</ele>
        <time>2021-08-06T09:25:14.333Z</time>
      </trkpt>
      <trkpt lat="46.96755" lon="8.7678">
        <ele>857</ele>
        <time>2021-08-06T09:25:15.333Z</time>
      </trkpt>
      <trkpt lat="46.96755" lon="8.7678">
        <ele>857</ele>
        <time>2021-08-06T09:25:16.333Z</time>
      </trkpt>
      <trkpt lat="46.96754" lon="8.7678">
        <ele>856</ele>
        <time>2021-08-06T09:25:17.333Z</time>
      </trkpt>
      <trkpt lat="46.96754" lon="8.7678">
        <ele>856</ele>
        <time>2021-08-06T09:25:18.333Z</time>
      </trkpt>
      <trkpt lat="46.96754" lon="8.7678">
        <ele>856</ele>
        <time>2021-08-06T09:25:19.334Z</time>
      </trkpt>
      <trkpt lat="46.96753" lon="8.76779">
        <ele>856</ele>
        <time>2021-08-06T09:25:20.333Z</time>
      </trkpt>
      <trkpt lat="46.96755" lon="8.76783">
        <ele>833</ele>
        <time>2021-08-06T09:25:21.334Z</time>
      </trkpt>
      <trkpt lat="46.96755" lon="8.76784">
        <ele>833</ele>
        <time>2021-08-06T09:25:22.333Z</time>
      </trkpt>
      <trkpt lat="46.96755" lon="8.76785">
        <ele>832</ele>
        <time>2021-08-06T09:25:23.333Z</time>
      </trkpt>
      <trkpt lat="46.96756" lon="8.76779">
        <ele>842</ele>
        <time>2021-08-06T09:25:24.333Z</time>
      </trkpt>
      <trkpt lat="46.96756" lon="8.76779">
        <ele>843</ele>
        <time>2021-08-06T09:25:25.333Z</time>
      </trkpt>
      <trkpt lat="46.96757" lon="8.76776">
        <ele>846</ele>
        <time>2021-08-06T09:25:26.334Z</time>
      </trkpt>
      <trkpt lat="46.96757" lon="8.76775">
        <ele>847</ele>
        <time>2021-08-06T09:25:27.334Z</time>
      </trkpt>
      <trkpt lat="46.96757" lon="8.76772">
        <ele>849</ele>
        <time>2021-08-06T09:25:28.337Z</time>
      </trkpt>
      <trkpt lat="46.96757" lon="8.76771">
        <ele>849</ele>
        <time>2021-08-06T09:25:29.336Z</time>
      </trkpt>
      <trkpt lat="46.96756" lon="8.7677">
        <ele>850</ele>
        <time>2021-08-06T09:25:30.336Z</time>
      </trkpt>
      <trkpt lat="46.96756" lon="8.76769">
        <ele>851</ele>
        <time>2021-08-06T09:25:31.336Z</time>
      </trkpt>
      <trkpt lat="46.96756" lon="8.76768">
        <ele>852</ele>
        <time>2021-08-06T09:25:32.337Z</time>
      </trkpt>
      <trkpt lat="46.96755" lon="8.76766">
        <ele>852</ele>
        <time>2021-08-06T09:25:33.336Z</time>
      </trkpt>
      <trkpt lat="46.96756" lon="8.76765">
        <ele>853</ele>
        <time>2021-08-06T09:25:34.336Z</time>
      </trkpt>
      <trkpt lat="46.96757" lon="8.76764">
        <ele>853</ele>
        <time>2021-08-06T09:25:35.337Z</time>
      </trkpt>
      <trkpt lat="46.96756" lon="8.76762">
        <ele>853</ele>
        <time>2021-08-06T09:25:36.337Z</time>
      </trkpt>
      <trkpt lat="46.96755" lon="8.76761">
        <ele>853</ele>
        <time>2021-08-06T09:25:37.336Z</time>
      </trkpt>
      <trkpt lat="46.96754" lon="8.7676">
        <ele>853</ele>
        <time>2021-08-06T09:25:38.336Z</time>
      </trkpt>
      <trkpt lat="46.96754" lon="8.7676">
        <ele>852</ele>
        <time>2021-08-06T09:25:39.337Z</time>
      </trkpt>
      <trkpt lat="46.96754" lon="8.76759">
        <ele>851</ele>
        <time>2021-08-06T09:25:40.336Z</time>
      </trkpt>
      <trkpt lat="46.96753" lon="8.76759">
        <ele>851</ele>
        <time>2021-08-06T09:25:41.336Z</time>
      </trkpt>
      <trkpt lat="46.96752" lon="8.76758">
        <ele>851</ele>
        <time>2021-08-06T09:25:42.336Z</time>
      </trkpt>
      <trkpt lat="46.96753" lon="8.76758">
        <ele>851</ele>
        <time>2021-08-06T09:25:43.336Z</time>
      </trkpt>
      <trkpt lat="46.96754" lon="8.76757">
        <ele>850</ele>
        <time>2021-08-06T09:25:44.336Z</time>
      </trkpt>
      <trkpt lat="46.96754" lon="8.76755">
        <ele>850</ele>
        <time>2021-08-06T09:25:45.336Z</time>
      </trkpt>
      <trkpt lat="46.96754" lon="8.76754">
        <ele>850</ele>
        <time>2021-08-06T09:25:46.337Z</time>
      </trkpt>
      <trkpt lat="46.96754" lon="8.76753">
        <ele>849</ele>
        <time>2021-08-06T09:25:47.336Z</time>
      </trkpt>
      <trkpt lat="46.96754" lon="8.76753">
        <ele>849</ele>
        <time>2021-08-06T09:25:48.337Z</time>
      </trkpt>
      <trkpt lat="46.96755" lon="8.76752">
        <ele>849</ele>
        <time>2021-08-06T09:25:49.337Z</time>
      </trkpt>
      <trkpt lat="46.96754" lon="8.76751">
        <ele>849</ele>
        <time>2021-08-06T09:25:50.337Z</time>
      </trkpt>
      <trkpt lat="46.96753" lon="8.7675">
        <ele>848</ele>
        <time>2021-08-06T09:25:51.337Z</time>
      </trkpt>
      <trkpt lat="46.96752" lon="8.7675">
        <ele>848</ele>
        <time>2021-08-06T09:25:52.336Z</time>
      </trkpt>
      <trkpt lat="46.96752" lon="8.76749">
        <ele>847</ele>
        <time>2021-08-06T09:25:53.336Z</time>
      </trkpt>
      <trkpt lat="46.96752" lon="8.76749">
        <ele>846</ele>
        <time>2021-08-06T09:25:54.336Z</time>
      </trkpt>
      <trkpt lat="46.96752" lon="8.76748">
        <ele>846</ele>
        <time>2021-08-06T09:25:55.336Z</time>
      </trkpt>
      <trkpt lat="46.96751" lon="8.76747">
        <ele>846</ele>
        <time>2021-08-06T09:25:56.337Z</time>
      </trkpt>
      <trkpt lat="46.96751" lon="8.76747">
        <ele>845</ele>
        <time>2021-08-06T09:25:57.336Z</time>
      </trkpt>
      <trkpt lat="46.96751" lon="8.76747">
        <ele>845</ele>
        <time>2021-08-06T09:25:58.336Z</time>
      </trkpt>
      <trkpt lat="46.9675" lon="8.76746">
        <ele>845</ele>
        <time>2021-08-06T09:25:59.336Z</time>
      </trkpt>
      <trkpt lat="46.96749" lon="8.76745">
        <ele>845</ele>
        <time>2021-08-06T09:26:00.336Z</time>
      </trkpt>
      <trkpt lat="46.96749" lon="8.76745">
        <ele>845</ele>
        <time>2021-08-06T09:26:01.336Z</time>
      </trkpt>
      <trkpt lat="46.96748" lon="8.76744">
        <ele>845</ele>
        <time>2021-08-06T09:26:02.336Z</time>
      </trkpt>
      <trkpt lat="46.96748" lon="8.76744">
        <ele>845</ele>
        <time>2021-08-06T09:26:03.336Z</time>
      </trkpt>
      <trkpt lat="46.96748" lon="8.76743">
        <ele>846</ele>
        <time>2021-08-06T09:26:04.336Z</time>
      </trkpt>
      <trkpt lat="46.96747" lon="8.76743">
        <ele>846</ele>
        <time>2021-08-06T09:26:05.336Z</time>
      </trkpt>
      <trkpt lat="46.96747" lon="8.76743">
        <ele>847</ele>
        <time>2021-08-06T09:26:06.336Z</time>
      </trkpt>
      <trkpt lat="46.96747" lon="8.76742">
        <ele>848</ele>
        <time>2021-08-06T09:26:07.336Z</time>
      </trkpt>
      <trkpt lat="46.96748" lon="8.76741">
        <ele>848</ele>
        <time>2021-08-06T09:26:08.336Z</time>
      </trkpt>
      <trkpt lat="46.96748" lon="8.7674">
        <ele>849</ele>
        <time>2021-08-06T09:26:09.337Z</time>
      </trkpt>
      <trkpt lat="46.96748" lon="8.76739">
        <ele>850</ele>
        <time>2021-08-06T09:26:10.336Z</time>
      </trkpt>
      <trkpt lat="46.96747" lon="8.76739">
        <ele>850</ele>
        <time>2021-08-06T09:26:11.336Z</time>
      </trkpt>
      <trkpt lat="46.96747" lon="8.76738">
        <ele>851</ele>
        <time>2021-08-06T09:26:12.336Z</time>
      </trkpt>
      <trkpt lat="46.96746" lon="8.76738">
        <ele>852</ele>
        <time>2021-08-06T09:26:13.336Z</time>
      </trkpt>
      <trkpt lat="46.96745" lon="8.76737">
        <ele>852</ele>
        <time>2021-08-06T09:26:14.336Z</time>
      </trkpt>
      <trkpt lat="46.96744" lon="8.76737">
        <ele>853</ele>
        <time>2021-08-06T09:26:15.336Z</time>
      </trkpt>
      <trkpt lat="46.96744" lon="8.76737">
        <ele>854</ele>
        <time>2021-08-06T09:26:16.336Z</time>
      </trkpt>
      <trkpt lat="46.96743" lon="8.76736">
        <ele>855</ele>
        <time>2021-08-06T09:26:17.336Z</time>
      </trkpt>
      <trkpt lat="46.96742" lon="8.76736">
        <ele>856</ele>
        <time>2021-08-06T09:26:18.336Z</time>
      </trkpt>
      <trkpt lat="46.96742" lon="8.76736">
        <ele>857</ele>
        <time>2021-08-06T09:26:19.337Z</time>
      </trkpt>
      <trkpt lat="46.96741" lon="8.76735">
        <ele>858</ele>
        <time>2021-08-06T09:26:20.336Z</time>
      </trkpt>
      <trkpt lat="46.9674" lon="8.76734">
        <ele>858</ele>
        <time>2021-08-06T09:26:21.336Z</time>
      </trkpt>
      <trkpt lat="46.9674" lon="8.76734">
        <ele>859</ele>
        <time>2021-08-06T09:26:22.336Z</time>
      </trkpt>
      <trkpt lat="46.96739" lon="8.76734">
        <ele>859</ele>
        <time>2021-08-06T09:26:23.336Z</time>
      </trkpt>
      <trkpt lat="46.96739" lon="8.76733">
        <ele>859</ele>
        <time>2021-08-06T09:26:24.336Z</time>
      </trkpt>
      <trkpt lat="46.96739" lon="8.76733">
        <ele>859</ele>
        <time>2021-08-06T09:26:25.336Z</time>
      </trkpt>
      <trkpt lat="46.96738" lon="8.76732">
        <ele>859</ele>
        <time>2021-08-06T09:26:26.336Z</time>
      </trkpt>
      <trkpt lat="46.96737" lon="8.76732">
        <ele>859</ele>
        <time>2021-08-06T09:26:27.336Z</time>
      </trkpt>
      <trkpt lat="46.96737" lon="8.76731">
        <ele>860</ele>
        <time>2021-08-06T09:26:28.336Z</time>
      </trkpt>
      <trkpt lat="46.96736" lon="8.76731">
        <ele>860</ele>
        <time>2021-08-06T09:26:29.336Z</time>
      </trkpt>
      <trkpt lat="46.96736" lon="8.7673">
        <ele>860</ele>
        <time>2021-08-06T09:26:30.336Z</time>
      </trkpt>
      <trkpt lat="46.96735" lon="8.76729">
        <ele>860</ele>
        <time>2021-08-06T09:26:31.336Z</time>
      </trkpt>
      <trkpt lat="46.96734" lon="8.76728">
        <ele>860</ele>
        <time>2021-08-06T09:26:32.336Z</time>
      </trkpt>
      <trkpt lat="46.96734" lon="8.76728">
        <ele>861</ele>
        <time>2021-08-06T09:26:33.337Z</time>
      </trkpt>
      <trkpt lat="46.96734" lon="8.76728">
        <ele>861</ele>
        <time>2021-08-06T09:26:34.336Z</time>
      </trkpt>
      <trkpt lat="46.96734" lon="8.76728">
        <ele>862</ele>
        <time>2021-08-06T09:26:35.336Z</time>
      </trkpt>
      <trkpt lat="46.96734" lon="8.76727">
        <ele>863</ele>
        <time>2021-08-06T09:26:36.336Z</time>
      </trkpt>
      <trkpt lat="46.96733" lon="8.76726">
        <ele>864</ele>
        <time>2021-08-06T09:26:37.336Z</time>
      </trkpt>
      <trkpt lat="46.96731" lon="8.76724">
        <ele>864</ele>
        <time>2021-08-06T09:26:38.336Z</time>
      </trkpt>
      <trkpt lat="46.9673" lon="8.76722">
        <ele>865</ele>
        <time>2021-08-06T09:26:39.336Z</time>
      </trkpt>
      <trkpt lat="46.9673" lon="8.7672">
        <ele>866</ele>
        <time>2021-08-06T09:26:40.337Z</time>
      </trkpt>
      <trkpt lat="46.96729" lon="8.76719">
        <ele>866</ele>
        <time>2021-08-06T09:26:41.336Z</time>
      </trkpt>
      <trkpt lat="46.96728" lon="8.76718">
        <ele>866</ele>
        <time>2021-08-06T09:26:42.337Z</time>
      </trkpt>
      <trkpt lat="46.96728" lon="8.76717">
        <ele>866</ele>
        <time>2021-08-06T09:26:43.337Z</time>
      </trkpt>
      <trkpt lat="46.96728" lon="8.76715">
        <ele>866</ele>
        <time>2021-08-06T09:26:44.336Z</time>
      </trkpt>
      <trkpt lat="46.96729" lon="8.76714">
        <ele>866</ele>
        <time>2021-08-06T09:26:45.336Z</time>
      </trkpt>
      <trkpt lat="46.96728" lon="8.76713">
        <ele>865</ele>
        <time>2021-08-06T09:26:46.336Z</time>
      </trkpt>
      <trkpt lat="46.96729" lon="8.76712">
        <ele>865</ele>
        <time>2021-08-06T09:26:47.337Z</time>
      </trkpt>
      <trkpt lat="46.96729" lon="8.76711">
        <ele>864</ele>
        <time>2021-08-06T09:26:48.336Z</time>
      </trkpt>
      <trkpt lat="46.96728" lon="8.76711">
        <ele>864</ele>
        <time>2021-08-06T09:26:49.336Z</time>
      </trkpt>
      <trkpt lat="46.96727" lon="8.76711">
        <ele>864</ele>
        <time>2021-08-06T09:26:50.336Z</time>
      </trkpt>
      <trkpt lat="46.96727" lon="8.76711">
        <ele>864</ele>
        <time>2021-08-06T09:26:51.336Z</time>
      </trkpt>
      <trkpt lat="46.96726" lon="8.76711">
        <ele>865</ele>
        <time>2021-08-06T09:26:52.336Z</time>
      </trkpt>
      <trkpt lat="46.96725" lon="8.76711">
        <ele>865</ele>
        <time>2021-08-06T09:26:53.336Z</time>
      </trkpt>
      <trkpt lat="46.96724" lon="8.7671">
        <ele>866</ele>
        <time>2021-08-06T09:26:54.337Z</time>
      </trkpt>
      <trkpt lat="46.96723" lon="8.7671">
        <ele>866</ele>
        <time>2021-08-06T09:26:55.336Z</time>
      </trkpt>
      <trkpt lat="46.96723" lon="8.7671">
        <ele>866</ele>
        <time>2021-08-06T09:26:56.337Z</time>
      </trkpt>
      <trkpt lat="46.96723" lon="8.76709">
        <ele>866</ele>
        <time>2021-08-06T09:26:57.336Z</time>
      </trkpt>
      <trkpt lat="46.96722" lon="8.76709">
        <ele>866</ele>
        <time>2021-08-06T09:26:58.336Z</time>
      </trkpt>
      <trkpt lat="46.96721" lon="8.76709">
        <ele>866</ele>
        <time>2021-08-06T09:26:59.337Z</time>
      </trkpt>
      <trkpt lat="46.9672" lon="8.76708">
        <ele>866</ele>
        <time>2021-08-06T09:27:00.336Z</time>
      </trkpt>
      <trkpt lat="46.96719" lon="8.76708">
        <ele>866</ele>
        <time>2021-08-06T09:27:01.337Z</time>
      </trkpt>
      <trkpt lat="46.96718" lon="8.76708">
        <ele>867</ele>
        <time>2021-08-06T09:27:02.337Z</time>
      </trkpt>
      <trkpt lat="46.96717" lon="8.76708">
        <ele>867</ele>
        <time>2021-08-06T09:27:03.337Z</time>
      </trkpt>
      <trkpt lat="46.96716" lon="8.76707">
        <ele>868</ele>
        <time>2021-08-06T09:27:04.336Z</time>
      </trkpt>
      <trkpt lat="46.96715" lon="8.76707">
        <ele>868</ele>
        <time>2021-08-06T09:27:05.336Z</time>
      </trkpt>
      <trkpt lat="46.96714" lon="8.76707">
        <ele>868</ele>
        <time>2021-08-06T09:27:06.336Z</time>
      </trkpt>
      <trkpt lat="46.96714" lon="8.76706">
        <ele>869</ele>
        <time>2021-08-06T09:27:07.337Z</time>
      </trkpt>
      <trkpt lat="46.96713" lon="8.76706">
        <ele>869</ele>
        <time>2021-08-06T09:27:08.336Z</time>
      </trkpt>
      <trkpt lat="46.96713" lon="8.76705">
        <ele>869</ele>
        <time>2021-08-06T09:27:09.336Z</time>
      </trkpt>
      <trkpt lat="46.96713" lon="8.76704">
        <ele>870</ele>
        <time>2021-08-06T09:27:10.336Z</time>
      </trkpt>
      <trkpt lat="46.96713" lon="8.76703">
        <ele>871</ele>
        <time>2021-08-06T09:27:11.336Z</time>
      </trkpt>
      <trkpt lat="46.96713" lon="8.76702">
        <ele>873</ele>
        <time>2021-08-06T09:27:12.337Z</time>
      </trkpt>
      <trkpt lat="46.96715" lon="8.76699">
        <ele>876</ele>
        <time>2021-08-06T09:27:13.337Z</time>
      </trkpt>
      <trkpt lat="46.96715" lon="8.76699">
        <ele>876</ele>
        <time>2021-08-06T09:27:14.337Z</time>
      </trkpt>
      <trkpt lat="46.96715" lon="8.76698">
        <ele>877</ele>
        <time>2021-08-06T09:27:15.337Z</time>
      </trkpt>
      <trkpt lat="46.96715" lon="8.76697">
        <ele>877</ele>
        <time>2021-08-06T09:27:16.338Z</time>
      </trkpt>
      <trkpt lat="46.96714" lon="8.76697">
        <ele>878</ele>
        <time>2021-08-06T09:27:17.338Z</time>
      </trkpt>
      <trkpt lat="46.96714" lon="8.76696">
        <ele>879</ele>
        <time>2021-08-06T09:27:18.338Z</time>
      </trkpt>
      <trkpt lat="46.96713" lon="8.76696">
        <ele>879</ele>
        <time>2021-08-06T09:27:19.338Z</time>
      </trkpt>
      <trkpt lat="46.96712" lon="8.76698">
        <ele>880</ele>
        <time>2021-08-06T09:27:20.338Z</time>
      </trkpt>
      <trkpt lat="46.96712" lon="8.76699">
        <ele>881</ele>
        <time>2021-08-06T09:27:21.337Z</time>
      </trkpt>
      <trkpt lat="46.96712" lon="8.76699">
        <ele>881</ele>
        <time>2021-08-06T09:27:22.338Z</time>
      </trkpt>
      <trkpt lat="46.96711" lon="8.767">
        <ele>881</ele>
        <time>2021-08-06T09:27:23.338Z</time>
      </trkpt>
      <trkpt lat="46.96711" lon="8.767">
        <ele>881</ele>
        <time>2021-08-06T09:27:24.338Z</time>
      </trkpt>
      <trkpt lat="46.96709" lon="8.76701">
        <ele>881</ele>
        <time>2021-08-06T09:27:25.338Z</time>
      </trkpt>
      <trkpt lat="46.96708" lon="8.76701">
        <ele>882</ele>
        <time>2021-08-06T09:27:26.338Z</time>
      </trkpt>
      <trkpt lat="46.96708" lon="8.767">
        <ele>882</ele>
        <time>2021-08-06T09:27:27.337Z</time>
      </trkpt>
      <trkpt lat="46.96709" lon="8.767">
        <ele>882</ele>
        <time>2021-08-06T09:27:28.337Z</time>
      </trkpt>
      <trkpt lat="46.9671" lon="8.76699">
        <ele>881</ele>
        <time>2021-08-06T09:27:29.338Z</time>
      </trkpt>
      <trkpt lat="46.9671" lon="8.76699">
        <ele>881</ele>
        <time>2021-08-06T09:27:30.338Z</time>
      </trkpt>
      <trkpt lat="46.96711" lon="8.76698">
        <ele>880</ele>
        <time>2021-08-06T09:27:31.338Z</time>
      </trkpt>
      <trkpt lat="46.96711" lon="8.76697">
        <ele>880</ele>
        <time>2021-08-06T09:27:32.337Z</time>
      </trkpt>
      <trkpt lat="46.9671" lon="8.76696">
        <ele>880</ele>
        <time>2021-08-06T09:27:33.337Z</time>
      </trkpt>
      <trkpt lat="46.9671" lon="8.76696">
        <ele>880</ele>
        <time>2021-08-06T09:27:34.337Z</time>
      </trkpt>
      <trkpt lat="46.96709" lon="8.76695">
        <ele>881</ele>
        <time>2021-08-06T09:27:35.338Z</time>
      </trkpt>
      <trkpt lat="46.96709" lon="8.76694">
        <ele>881</ele>
        <time>2021-08-06T09:27:36.337Z</time>
      </trkpt>
      <trkpt lat="46.96709" lon="8.76693">
        <ele>882</ele>
        <time>2021-08-06T09:27:37.337Z</time>
      </trkpt>
      <trkpt lat="46.96708" lon="8.76693">
        <ele>882</ele>
        <time>2021-08-06T09:27:38.337Z</time>
      </trkpt>
      <trkpt lat="46.96708" lon="8.76693">
        <ele>883</ele>
        <time>2021-08-06T09:27:39.337Z</time>
      </trkpt>
      <trkpt lat="46.96707" lon="8.76693">
        <ele>883</ele>
        <time>2021-08-06T09:27:40.337Z</time>
      </trkpt>
      <trkpt lat="46.96707" lon="8.76693">
        <ele>884</ele>
        <time>2021-08-06T09:27:41.337Z</time>
      </trkpt>
      <trkpt lat="46.96706" lon="8.76693">
        <ele>884</ele>
        <time>2021-08-06T09:27:42.338Z</time>
      </trkpt>
      <trkpt lat="46.96705" lon="8.76694">
        <ele>884</ele>
        <time>2021-08-06T09:27:43.338Z</time>
      </trkpt>
      <trkpt lat="46.96705" lon="8.76694">
        <ele>885</ele>
        <time>2021-08-06T09:27:44.337Z</time>
      </trkpt>
      <trkpt lat="46.96705" lon="8.76693">
        <ele>886</ele>
        <time>2021-08-06T09:27:45.337Z</time>
      </trkpt>
      <trkpt lat="46.96704" lon="8.76693">
        <ele>887</ele>
        <time>2021-08-06T09:27:46.338Z</time>
      </trkpt>
      <trkpt lat="46.96704" lon="8.76692">
        <ele>888</ele>
        <time>2021-08-06T09:27:47.338Z</time>
      </trkpt>
      <trkpt lat="46.96703" lon="8.76692">
        <ele>889</ele>
        <time>2021-08-06T09:27:48.338Z</time>
      </trkpt>
      <trkpt lat="46.96702" lon="8.76692">
        <ele>889</ele>
        <time>2021-08-06T09:27:49.337Z</time>
      </trkpt>
      <trkpt lat="46.96701" lon="8.76692">
        <ele>890</ele>
        <time>2021-08-06T09:27:50.337Z</time>
      </trkpt>
      <trkpt lat="46.967" lon="8.76692">
        <ele>890</ele>
        <time>2021-08-06T09:27:51.337Z</time>
      </trkpt>
      <trkpt lat="46.967" lon="8.76692">
        <ele>890</ele>
        <time>2021-08-06T09:27:52.337Z</time>
      </trkpt>
      <trkpt lat="46.96701" lon="8.76691">
        <ele>890</ele>
        <time>2021-08-06T09:27:53.338Z</time>
      </trkpt>
      <trkpt lat="46.96703" lon="8.76691">
        <ele>889</ele>
        <time>2021-08-06T09:27:54.337Z</time>
      </trkpt>
      <trkpt lat="46.96704" lon="8.7669">
        <ele>888</ele>
        <time>2021-08-06T09:27:55.337Z</time>
      </trkpt>
      <trkpt lat="46.96705" lon="8.76689">
        <ele>888</ele>
        <time>2021-08-06T09:27:56.338Z</time>
      </trkpt>
      <trkpt lat="46.96707" lon="8.76688">
        <ele>888</ele>
        <time>2021-08-06T09:27:57.338Z</time>
      </trkpt>
      <trkpt lat="46.96707" lon="8.76688">
        <ele>888</ele>
        <time>2021-08-06T09:27:58.338Z</time>
      </trkpt>
      <trkpt lat="46.96705" lon="8.76688">
        <ele>888</ele>
        <time>2021-08-06T09:27:59.338Z</time>
      </trkpt>
      <trkpt lat="46.96705" lon="8.76688">
        <ele>888</ele>
        <time>2021-08-06T09:28:00.338Z</time>
      </trkpt>
      <trkpt lat="46.96704" lon="8.76689">
        <ele>888</ele>
        <time>2021-08-06T09:28:01.338Z</time>
      </trkpt>
      <trkpt lat="46.96704" lon="8.76688">
        <ele>888</ele>
        <time>2021-08-06T09:28:02.338Z</time>
      </trkpt>
      <trkpt lat="46.96704" lon="8.76688">
        <ele>887</ele>
        <time>2021-08-06T09:28:03.338Z</time>
      </trkpt>
      <trkpt lat="46.96705" lon="8.76686">
        <ele>887</ele>
        <time>2021-08-06T09:28:04.339Z</time>
      </trkpt>
      <trkpt lat="46.96705" lon="8.76685">
        <ele>886</ele>
        <time>2021-08-06T09:28:05.339Z</time>
      </trkpt>
      <trkpt lat="46.96705" lon="8.76684">
        <ele>886</ele>
        <time>2021-08-06T09:28:06.338Z</time>
      </trkpt>
      <trkpt lat="46.96704" lon="8.76684">
        <ele>886</ele>
        <time>2021-08-06T09:28:07.339Z</time>
      </trkpt>
      <trkpt lat="46.96703" lon="8.76683">
        <ele>887</ele>
        <time>2021-08-06T09:28:08.339Z</time>
      </trkpt>
      <trkpt lat="46.96702" lon="8.76683">
        <ele>887</ele>
        <time>2021-08-06T09:28:09.339Z</time>
      </trkpt>
      <trkpt lat="46.96701" lon="8.76684">
        <ele>886</ele>
        <time>2021-08-06T09:28:10.339Z</time>
      </trkpt>
      <trkpt lat="46.96701" lon="8.76685">
        <ele>886</ele>
        <time>2021-08-06T09:28:11.339Z</time>
      </trkpt>
      <trkpt lat="46.96701" lon="8.76686">
        <ele>886</ele>
        <time>2021-08-06T09:28:12.339Z</time>
      </trkpt>
      <trkpt lat="46.967" lon="8.76687">
        <ele>887</ele>
        <time>2021-08-06T09:28:13.339Z</time>
      </trkpt>
      <trkpt lat="46.96701" lon="8.76687">
        <ele>887</ele>
        <time>2021-08-06T09:28:14.339Z</time>
      </trkpt>
      <trkpt lat="46.967" lon="8.76687">
        <ele>887</ele>
        <time>2021-08-06T09:28:15.338Z</time>
      </trkpt>
      <trkpt lat="46.967" lon="8.76686">
        <ele>886</ele>
        <time>2021-08-06T09:28:16.339Z</time>
      </trkpt>
      <trkpt lat="46.967" lon="8.76686">
        <ele>886</ele>
        <time>2021-08-06T09:28:17.339Z</time>
      </trkpt>
      <trkpt lat="46.967" lon="8.76685">
        <ele>886</ele>
        <time>2021-08-06T09:28:18.338Z</time>
      </trkpt>
      <trkpt lat="46.967" lon="8.76684">
        <ele>886</ele>
        <time>2021-08-06T09:28:19.338Z</time>
      </trkpt>
      <trkpt lat="46.967" lon="8.76683">
        <ele>886</ele>
        <time>2021-08-06T09:28:20.339Z</time>
      </trkpt>
      <trkpt lat="46.967" lon="8.76683">
        <ele>886</ele>
        <time>2021-08-06T09:28:21.339Z</time>
      </trkpt>
      <trkpt lat="46.967" lon="8.76682">
        <ele>885</ele>
        <time>2021-08-06T09:28:22.339Z</time>
      </trkpt>
      <trkpt lat="46.967" lon="8.76681">
        <ele>885</ele>
        <time>2021-08-06T09:28:23.339Z</time>
      </trkpt>
      <trkpt lat="46.96699" lon="8.76681">
        <ele>885</ele>
        <time>2021-08-06T09:28:24.339Z</time>
      </trkpt>
      <trkpt lat="46.96699" lon="8.76681">
        <ele>885</ele>
        <time>2021-08-06T09:28:25.338Z</time>
      </trkpt>
      <trkpt lat="46.96698" lon="8.76679">
        <ele>885</ele>
        <time>2021-08-06T09:28:26.339Z</time>
      </trkpt>
      <trkpt lat="46.96697" lon="8.76677">
        <ele>885</ele>
        <time>2021-08-06T09:28:27.338Z</time>
      </trkpt>
      <trkpt lat="46.96696" lon="8.76676">
        <ele>885</ele>
        <time>2021-08-06T09:28:28.339Z</time>
      </trkpt>
      <trkpt lat="46.96695" lon="8.76675">
        <ele>885</ele>
        <time>2021-08-06T09:28:29.339Z</time>
      </trkpt>
      <trkpt lat="46.96695" lon="8.76675">
        <ele>886</ele>
        <time>2021-08-06T09:28:30.339Z</time>
      </trkpt>
      <trkpt lat="46.96694" lon="8.76674">
        <ele>886</ele>
        <time>2021-08-06T09:28:31.339Z</time>
      </trkpt>
      <trkpt lat="46.96694" lon="8.76673">
        <ele>886</ele>
        <time>2021-08-06T09:28:32.338Z</time>
      </trkpt>
      <trkpt lat="46.96694" lon="8.76672">
        <ele>887</ele>
        <time>2021-08-06T09:28:33.339Z</time>
      </trkpt>
      <trkpt lat="46.96694" lon="8.76671">
        <ele>887</ele>
        <time>2021-08-06T09:28:34.339Z</time>
      </trkpt>
      <trkpt lat="46.96695" lon="8.76671">
        <ele>888</ele>
        <time>2021-08-06T09:28:35.339Z</time>
      </trkpt>
      <trkpt lat="46.96696" lon="8.7667">
        <ele>888</ele>
        <time>2021-08-06T09:28:36.339Z</time>
      </trkpt>
      <trkpt lat="46.96697" lon="8.76669">
        <ele>888</ele>
        <time>2021-08-06T09:28:37.338Z</time>
      </trkpt>
      <trkpt lat="46.96697" lon="8.76669">
        <ele>888</ele>
        <time>2021-08-06T09:28:38.338Z</time>
      </trkpt>
      <trkpt lat="46.96697" lon="8.76668">
        <ele>889</ele>
        <time>2021-08-06T09:28:39.339Z</time>
      </trkpt>
      <trkpt lat="46.96697" lon="8.76667">
        <ele>889</ele>
        <time>2021-08-06T09:28:40.339Z</time>
      </trkpt>
      <trkpt lat="46.96696" lon="8.76667">
        <ele>889</ele>
        <time>2021-08-06T09:28:41.339Z</time>
      </trkpt>
      <trkpt lat="46.96696" lon="8.76667">
        <ele>890</ele>
        <time>2021-08-06T09:28:42.339Z</time>
      </trkpt>
      <trkpt lat="46.96696" lon="8.76667">
        <ele>890</ele>
        <time>2021-08-06T09:28:43.339Z</time>
      </trkpt>
      <trkpt lat="46.96695" lon="8.76666">
        <ele>891</ele>
        <time>2021-08-06T09:28:44.340Z</time>
      </trkpt>
      <trkpt lat="46.96695" lon="8.76665">
        <ele>891</ele>
        <time>2021-08-06T09:28:45.339Z</time>
      </trkpt>
      <trkpt lat="46.96694" lon="8.76665">
        <ele>891</ele>
        <time>2021-08-06T09:28:46.340Z</time>
      </trkpt>
      <trkpt lat="46.96693" lon="8.76665">
        <ele>891</ele>
        <time>2021-08-06T09:28:47.339Z</time>
      </trkpt>
      <trkpt lat="46.96692" lon="8.76665">
        <ele>890</ele>
        <time>2021-08-06T09:28:48.340Z</time>
      </trkpt>
      <trkpt lat="46.96692" lon="8.76664">
        <ele>890</ele>
        <time>2021-08-06T09:28:49.340Z</time>
      </trkpt>
      <trkpt lat="46.96692" lon="8.76664">
        <ele>889</ele>
        <time>2021-08-06T09:28:50.340Z</time>
      </trkpt>
      <trkpt lat="46.96691" lon="8.76663">
        <ele>889</ele>
        <time>2021-08-06T09:28:51.340Z</time>
      </trkpt>
      <trkpt lat="46.9669" lon="8.76662">
        <ele>888</ele>
        <time>2021-08-06T09:28:52.340Z</time>
      </trkpt>
      <trkpt lat="46.9669" lon="8.76662">
        <ele>887</ele>
        <time>2021-08-06T09:28:53.340Z</time>
      </trkpt>
      <trkpt lat="46.9669" lon="8.76661">
        <ele>886</ele>
        <time>2021-08-06T09:28:54.340Z</time>
      </trkpt>
      <trkpt lat="46.96689" lon="8.76661">
        <ele>885</ele>
        <time>2021-08-06T09:28:55.340Z</time>
      </trkpt>
      <trkpt lat="46.96689" lon="8.76661">
        <ele>884</ele>
        <time>2021-08-06T09:28:56.340Z</time>
      </trkpt>
      <trkpt lat="46.96688" lon="8.76661">
        <ele>884</ele>
        <time>2021-08-06T09:28:57.340Z</time>
      </trkpt>
      <trkpt lat="46.96688" lon="8.7666">
        <ele>883</ele>
        <time>2021-08-06T09:28:58.339Z</time>
      </trkpt>
      <trkpt lat="46.96689" lon="8.7666">
        <ele>882</ele>
        <time>2021-08-06T09:28:59.340Z</time>
      </trkpt>
      <trkpt lat="46.96688" lon="8.76659">
        <ele>882</ele>
        <time>2021-08-06T09:29:00.340Z</time>
      </trkpt>
      <trkpt lat="46.96687" lon="8.76659">
        <ele>882</ele>
        <time>2021-08-06T09:29:01.340Z</time>
      </trkpt>
      <trkpt lat="46.96686" lon="8.7666">
        <ele>882</ele>
        <time>2021-08-06T09:29:02.340Z</time>
      </trkpt>
      <trkpt lat="46.96685" lon="8.76661">
        <ele>881</ele>
        <time>2021-08-06T09:29:03.340Z</time>
      </trkpt>
      <trkpt lat="46.96684" lon="8.76662">
        <ele>881</ele>
        <time>2021-08-06T09:29:04.340Z</time>
      </trkpt>
      <trkpt lat="46.96684" lon="8.76664">
        <ele>881</ele>
        <time>2021-08-06T09:29:05.340Z</time>
      </trkpt>
      <trkpt lat="46.96684" lon="8.76665">
        <ele>881</ele>
        <time>2021-08-06T09:29:06.340Z</time>
      </trkpt>
      <trkpt lat="46.96684" lon="8.76666">
        <ele>882</ele>
        <time>2021-08-06T09:29:07.339Z</time>
      </trkpt>
      <trkpt lat="46.96684" lon="8.76669">
        <ele>883</ele>
        <time>2021-08-06T09:29:08.340Z</time>
      </trkpt>
      <trkpt lat="46.96683" lon="8.76671">
        <ele>884</ele>
        <time>2021-08-06T09:29:09.339Z</time>
      </trkpt>
      <trkpt lat="46.96682" lon="8.76672">
        <ele>885</ele>
        <time>2021-08-06T09:29:10.339Z</time>
      </trkpt>
      <trkpt lat="46.96681" lon="8.76673">
        <ele>885</ele>
        <time>2021-08-06T09:29:11.340Z</time>
      </trkpt>
      <trkpt lat="46.96681" lon="8.76674">
        <ele>886</ele>
        <time>2021-08-06T09:29:12.339Z</time>
      </trkpt>
      <trkpt lat="46.9668" lon="8.76675">
        <ele>886</ele>
        <time>2021-08-06T09:29:13.339Z</time>
      </trkpt>
      <trkpt lat="46.9668" lon="8.76676">
        <ele>887</ele>
        <time>2021-08-06T09:29:14.339Z</time>
      </trkpt>
      <trkpt lat="46.9668" lon="8.76677">
        <ele>887</ele>
        <time>2021-08-06T09:29:15.339Z</time>
      </trkpt>
      <trkpt lat="46.9668" lon="8.76678">
        <ele>887</ele>
        <time>2021-08-06T09:29:16.340Z</time>
      </trkpt>
      <trkpt lat="46.96679" lon="8.76679">
        <ele>888</ele>
        <time>2021-08-06T09:29:17.339Z</time>
      </trkpt>
      <trkpt lat="46.96678" lon="8.7668">
        <ele>888</ele>
        <time>2021-08-06T09:29:18.339Z</time>
      </trkpt>
      <trkpt lat="46.96676" lon="8.7668">
        <ele>888</ele>
        <time>2021-08-06T09:29:19.340Z</time>
      </trkpt>
      <trkpt lat="46.96675" lon="8.7668">
        <ele>889</ele>
        <time>2021-08-06T09:29:20.339Z</time>
      </trkpt>
      <trkpt lat="46.96675" lon="8.7668">
        <ele>889</ele>
        <time>2021-08-06T09:29:21.339Z</time>
      </trkpt>
      <trkpt lat="46.96675" lon="8.76679">
        <ele>890</ele>
        <time>2021-08-06T09:29:22.340Z</time>
      </trkpt>
      <trkpt lat="46.96675" lon="8.76679">
        <ele>890</ele>
        <time>2021-08-06T09:29:23.340Z</time>
      </trkpt>
      <trkpt lat="46.96675" lon="8.76679">
        <ele>891</ele>
        <time>2021-08-06T09:29:24.339Z</time>
      </trkpt>
      <trkpt lat="46.96675" lon="8.76677">
        <ele>892</ele>
        <time>2021-08-06T09:29:25.340Z</time>
      </trkpt>
      <trkpt lat="46.96675" lon="8.76675">
        <ele>893</ele>
        <time>2021-08-06T09:29:26.340Z</time>
      </trkpt>
      <trkpt lat="46.96675" lon="8.76674">
        <ele>893</ele>
        <time>2021-08-06T09:29:27.339Z</time>
      </trkpt>
      <trkpt lat="46.96675" lon="8.76673">
        <ele>892</ele>
        <time>2021-08-06T09:29:28.340Z</time>
      </trkpt>
      <trkpt lat="46.96675" lon="8.76671">
        <ele>892</ele>
        <time>2021-08-06T09:29:29.339Z</time>
      </trkpt>
      <trkpt lat="46.96675" lon="8.7667">
        <ele>892</ele>
        <time>2021-08-06T09:29:30.339Z</time>
      </trkpt>
      <trkpt lat="46.96675" lon="8.76669">
        <ele>892</ele>
        <time>2021-08-06T09:29:31.339Z</time>
      </trkpt>
      <trkpt lat="46.96676" lon="8.76667">
        <ele>892</ele>
        <time>2021-08-06T09:29:32.339Z</time>
      </trkpt>
      <trkpt lat="46.96675" lon="8.76666">
        <ele>891</ele>
        <time>2021-08-06T09:29:33.340Z</time>
      </trkpt>
      <trkpt lat="46.96676" lon="8.76665">
        <ele>891</ele>
        <time>2021-08-06T09:29:34.340Z</time>
      </trkpt>
      <trkpt lat="46.96676" lon="8.76664">
        <ele>891</ele>
        <time>2021-08-06T09:29:35.340Z</time>
      </trkpt>
      <trkpt lat="46.96677" lon="8.76662">
        <ele>891</ele>
        <time>2021-08-06T09:29:36.339Z</time>
      </trkpt>
      <trkpt lat="46.96677" lon="8.7666">
        <ele>891</ele>
        <time>2021-08-06T09:29:37.340Z</time>
      </trkpt>
      <trkpt lat="46.96676" lon="8.76658">
        <ele>892</ele>
        <time>2021-08-06T09:29:38.340Z</time>
      </trkpt>
      <trkpt lat="46.96676" lon="8.76656">
        <ele>892</ele>
        <time>2021-08-06T09:29:39.339Z</time>
      </trkpt>
      <trkpt lat="46.96677" lon="8.76654">
        <ele>892</ele>
        <time>2021-08-06T09:29:40.339Z</time>
      </trkpt>
      <trkpt lat="46.96677" lon="8.76651">
        <ele>892</ele>
        <time>2021-08-06T09:29:41.339Z</time>
      </trkpt>
      <trkpt lat="46.96677" lon="8.76649">
        <ele>893</ele>
        <time>2021-08-06T09:29:42.340Z</time>
      </trkpt>
      <trkpt lat="46.96674" lon="8.76647">
        <ele>893</ele>
        <time>2021-08-06T09:29:43.340Z</time>
      </trkpt>
      <trkpt lat="46.96673" lon="8.76645">
        <ele>894</ele>
        <time>2021-08-06T09:29:44.339Z</time>
      </trkpt>
      <trkpt lat="46.96672" lon="8.76644">
        <ele>894</ele>
        <time>2021-08-06T09:29:45.339Z</time>
      </trkpt>
      <trkpt lat="46.96672" lon="8.76642">
        <ele>895</ele>
        <time>2021-08-06T09:29:46.340Z</time>
      </trkpt>
      <trkpt lat="46.96672" lon="8.7664">
        <ele>896</ele>
        <time>2021-08-06T09:29:47.340Z</time>
      </trkpt>
      <trkpt lat="46.96671" lon="8.76637">
        <ele>896</ele>
        <time>2021-08-06T09:29:48.339Z</time>
      </trkpt>
      <trkpt lat="46.9667" lon="8.76635">
        <ele>897</ele>
        <time>2021-08-06T09:29:49.340Z</time>
      </trkpt>
      <trkpt lat="46.96671" lon="8.76633">
        <ele>898</ele>
        <time>2021-08-06T09:29:50.339Z</time>
      </trkpt>
      <trkpt lat="46.96671" lon="8.76631">
        <ele>899</ele>
        <time>2021-08-06T09:29:51.340Z</time>
      </trkpt>
      <trkpt lat="46.96671" lon="8.7663">
        <ele>900</ele>
        <time>2021-08-06T09:29:52.339Z</time>
      </trkpt>
      <trkpt lat="46.96671" lon="8.76629">
        <ele>900</ele>
        <time>2021-08-06T09:29:53.339Z</time>
      </trkpt>
      <trkpt lat="46.96671" lon="8.76628">
        <ele>901</ele>
        <time>2021-08-06T09:29:54.339Z</time>
      </trkpt>
      <trkpt lat="46.96671" lon="8.76627">
        <ele>902</ele>
        <time>2021-08-06T09:29:55.340Z</time>
      </trkpt>
      <trkpt lat="46.96671" lon="8.76625">
        <ele>902</ele>
        <time>2021-08-06T09:29:56.339Z</time>
      </trkpt>
      <trkpt lat="46.9667" lon="8.76624">
        <ele>903</ele>
        <time>2021-08-06T09:29:57.339Z</time>
      </trkpt>
      <trkpt lat="46.96669" lon="8.76623">
        <ele>903</ele>
        <time>2021-08-06T09:29:58.340Z</time>
      </trkpt>
      <trkpt lat="46.96668" lon="8.76622">
        <ele>904</ele>
        <time>2021-08-06T09:29:59.339Z</time>
      </trkpt>
      <trkpt lat="46.96668" lon="8.76621">
        <ele>904</ele>
        <time>2021-08-06T09:30:00.340Z</time>
      </trkpt>
      <trkpt lat="46.96668" lon="8.76621">
        <ele>905</ele>
        <time>2021-08-06T09:30:01.340Z</time>
      </trkpt>
      <trkpt lat="46.96668" lon="8.76621">
        <ele>905</ele>
        <time>2021-08-06T09:30:02.340Z</time>
      </trkpt>
      <trkpt lat="46.96667" lon="8.76622">
        <ele>905</ele>
        <time>2021-08-06T09:30:03.340Z</time>
      </trkpt>
      <trkpt lat="46.96667" lon="8.76621">
        <ele>905</ele>
        <time>2021-08-06T09:30:04.340Z</time>
      </trkpt>
      <trkpt lat="46.96667" lon="8.7662">
        <ele>905</ele>
        <time>2021-08-06T09:30:05.339Z</time>
      </trkpt>
      <trkpt lat="46.96667" lon="8.76621">
        <ele>905</ele>
        <time>2021-08-06T09:30:06.339Z</time>
      </trkpt>
      <trkpt lat="46.96667" lon="8.7662">
        <ele>905</ele>
        <time>2021-08-06T09:30:07.339Z</time>
      </trkpt>
      <trkpt lat="46.96667" lon="8.7662">
        <ele>906</ele>
        <time>2021-08-06T09:30:08.339Z</time>
      </trkpt>
      <trkpt lat="46.96666" lon="8.7662">
        <ele>906</ele>
        <time>2021-08-06T09:30:09.339Z</time>
      </trkpt>
      <trkpt lat="46.96667" lon="8.7662">
        <ele>905</ele>
        <time>2021-08-06T09:30:10.340Z</time>
      </trkpt>
      <trkpt lat="46.96667" lon="8.76619">
        <ele>905</ele>
        <time>2021-08-06T09:30:11.339Z</time>
      </trkpt>
      <trkpt lat="46.96668" lon="8.76619">
        <ele>905</ele>
        <time>2021-08-06T09:30:12.340Z</time>
      </trkpt>
      <trkpt lat="46.96669" lon="8.76619">
        <ele>905</ele>
        <time>2021-08-06T09:30:13.340Z</time>
      </trkpt>
      <trkpt lat="46.9667" lon="8.76618">
        <ele>905</ele>
        <time>2021-08-06T09:30:14.340Z</time>
      </trkpt>
      <trkpt lat="46.9667" lon="8.76617">
        <ele>905</ele>
        <time>2021-08-06T09:30:15.340Z</time>
      </trkpt>
      <trkpt lat="46.9667" lon="8.76616">
        <ele>905</ele>
        <time>2021-08-06T09:30:16.340Z</time>
      </trkpt>
      <trkpt lat="46.9667" lon="8.76616">
        <ele>905</ele>
        <time>2021-08-06T09:30:17.340Z</time>
      </trkpt>
      <trkpt lat="46.9667" lon="8.76615">
        <ele>906</ele>
        <time>2021-08-06T09:30:18.340Z</time>
      </trkpt>
      <trkpt lat="46.9667" lon="8.76614">
        <ele>906</ele>
        <time>2021-08-06T09:30:19.340Z</time>
      </trkpt>
      <trkpt lat="46.9667" lon="8.76614">
        <ele>906</ele>
        <time>2021-08-06T09:30:20.339Z</time>
      </trkpt>
      <trkpt lat="46.9667" lon="8.76613">
        <ele>906</ele>
        <time>2021-08-06T09:30:21.340Z</time>
      </trkpt>
      <trkpt lat="46.9667" lon="8.76613">
        <ele>907</ele>
        <time>2021-08-06T09:30:22.340Z</time>
      </trkpt>
      <trkpt lat="46.9667" lon="8.76613">
        <ele>907</ele>
        <time>2021-08-06T09:30:23.340Z</time>
      </trkpt>
      <trkpt lat="46.96669" lon="8.76614">
        <ele>907</ele>
        <time>2021-08-06T09:30:24.340Z</time>
      </trkpt>
      <trkpt lat="46.96669" lon="8.76614">
        <ele>906</ele>
        <time>2021-08-06T09:30:25.339Z</time>
      </trkpt>
      <trkpt lat="46.96668" lon="8.76613">
        <ele>906</ele>
        <time>2021-08-06T09:30:26.339Z</time>
      </trkpt>
      <trkpt lat="46.96668" lon="8.76612">
        <ele>906</ele>
        <time>2021-08-06T09:30:27.340Z</time>
      </trkpt>
      <trkpt lat="46.96668" lon="8.76611">
        <ele>906</ele>
        <time>2021-08-06T09:30:28.339Z</time>
      </trkpt>
      <trkpt lat="46.9667" lon="8.76612">
        <ele>901</ele>
        <time>2021-08-06T09:30:29.341Z</time>
      </trkpt>
      <trkpt lat="46.9667" lon="8.76611">
        <ele>901</ele>
        <time>2021-08-06T09:30:30.341Z</time>
      </trkpt>
      <trkpt lat="46.9667" lon="8.76611">
        <ele>901</ele>
        <time>2021-08-06T09:30:31.340Z</time>
      </trkpt>
      <trkpt lat="46.96669" lon="8.76611">
        <ele>901</ele>
        <time>2021-08-06T09:30:32.341Z</time>
      </trkpt>
      <trkpt lat="46.96668" lon="8.7661">
        <ele>901</ele>
        <time>2021-08-06T09:30:33.340Z</time>
      </trkpt>
      <trkpt lat="46.96668" lon="8.76609">
        <ele>901</ele>
        <time>2021-08-06T09:30:34.341Z</time>
      </trkpt>
      <trkpt lat="46.96668" lon="8.76609">
        <ele>900</ele>
        <time>2021-08-06T09:30:35.340Z</time>
      </trkpt>
      <trkpt lat="46.96668" lon="8.76608">
        <ele>900</ele>
        <time>2021-08-06T09:30:36.341Z</time>
      </trkpt>
      <trkpt lat="46.96668" lon="8.76607">
        <ele>900</ele>
        <time>2021-08-06T09:30:37.341Z</time>
      </trkpt>
      <trkpt lat="46.96669" lon="8.76607">
        <ele>901</ele>
        <time>2021-08-06T09:30:38.341Z</time>
      </trkpt>
      <trkpt lat="46.9667" lon="8.76606">
        <ele>901</ele>
        <time>2021-08-06T09:30:39.341Z</time>
      </trkpt>
      <trkpt lat="46.9667" lon="8.76604">
        <ele>902</ele>
        <time>2021-08-06T09:30:40.341Z</time>
      </trkpt>
      <trkpt lat="46.96671" lon="8.76603">
        <ele>903</ele>
        <time>2021-08-06T09:30:41.340Z</time>
      </trkpt>
      <trkpt lat="46.96671" lon="8.76602">
        <ele>904</ele>
        <time>2021-08-06T09:30:42.341Z</time>
      </trkpt>
      <trkpt lat="46.96671" lon="8.76601">
        <ele>904</ele>
        <time>2021-08-06T09:30:43.341Z</time>
      </trkpt>
      <trkpt lat="46.96671" lon="8.766">
        <ele>905</ele>
        <time>2021-08-06T09:30:44.341Z</time>
      </trkpt>
      <trkpt lat="46.96671" lon="8.76599">
        <ele>905</ele>
        <time>2021-08-06T09:30:45.340Z</time>
      </trkpt>
      <trkpt lat="46.96671" lon="8.76599">
        <ele>906</ele>
        <time>2021-08-06T09:30:46.341Z</time>
      </trkpt>
      <trkpt lat="46.96671" lon="8.76598">
        <ele>906</ele>
        <time>2021-08-06T09:30:47.341Z</time>
      </trkpt>
      <trkpt lat="46.96671" lon="8.76597">
        <ele>907</ele>
        <time>2021-08-06T09:30:48.340Z</time>
      </trkpt>
      <trkpt lat="46.96672" lon="8.76595">
        <ele>907</ele>
        <time>2021-08-06T09:30:49.341Z</time>
      </trkpt>
      <trkpt lat="46.96671" lon="8.76594">
        <ele>908</ele>
        <time>2021-08-06T09:30:50.341Z</time>
      </trkpt>
      <trkpt lat="46.96672" lon="8.76593">
        <ele>908</ele>
        <time>2021-08-06T09:30:51.341Z</time>
      </trkpt>
      <trkpt lat="46.96672" lon="8.76593">
        <ele>909</ele>
        <time>2021-08-06T09:30:52.341Z</time>
      </trkpt>
      <trkpt lat="46.96673" lon="8.76593">
        <ele>910</ele>
        <time>2021-08-06T09:30:53.341Z</time>
      </trkpt>
      <trkpt lat="46.96674" lon="8.76593">
        <ele>910</ele>
        <time>2021-08-06T09:30:54.341Z</time>
      </trkpt>
      <trkpt lat="46.96674" lon="8.76592">
        <ele>911</ele>
        <time>2021-08-06T09:30:55.341Z</time>
      </trkpt>
      <trkpt lat="46.96675" lon="8.76591">
        <ele>912</ele>
        <time>2021-08-06T09:30:56.340Z</time>
      </trkpt>
      <trkpt lat="46.96675" lon="8.76589">
        <ele>912</ele>
        <time>2021-08-06T09:30:57.341Z</time>
      </trkpt>
      <trkpt lat="46.96675" lon="8.76588">
        <ele>913</ele>
        <time>2021-08-06T09:30:58.340Z</time>
      </trkpt>
      <trkpt lat="46.96676" lon="8.76587">
        <ele>913</ele>
        <time>2021-08-06T09:30:59.341Z</time>
      </trkpt>
      <trkpt lat="46.96677" lon="8.76587">
        <ele>914</ele>
        <time>2021-08-06T09:31:00.340Z</time>
      </trkpt>
      <trkpt lat="46.96677" lon="8.76585">
        <ele>914</ele>
        <time>2021-08-06T09:31:01.341Z</time>
      </trkpt>
      <trkpt lat="46.96678" lon="8.76584">
        <ele>915</ele>
        <time>2021-08-06T09:31:02.341Z</time>
      </trkpt>
      <trkpt lat="46.96678" lon="8.76583">
        <ele>915</ele>
        <time>2021-08-06T09:31:03.340Z</time>
      </trkpt>
      <trkpt lat="46.96679" lon="8.76582">
        <ele>916</ele>
        <time>2021-08-06T09:31:04.340Z</time>
      </trkpt>
      <trkpt lat="46.9668" lon="8.76581">
        <ele>916</ele>
        <time>2021-08-06T09:31:05.340Z</time>
      </trkpt>
      <trkpt lat="46.9668" lon="8.7658">
        <ele>916</ele>
        <time>2021-08-06T09:31:06.340Z</time>
      </trkpt>
      <trkpt lat="46.96679" lon="8.76579">
        <ele>916</ele>
        <time>2021-08-06T09:31:07.341Z</time>
      </trkpt>
      <trkpt lat="46.9668" lon="8.76578">
        <ele>916</ele>
        <time>2021-08-06T09:31:08.340Z</time>
      </trkpt>
      <trkpt lat="46.9668" lon="8.76577">
        <ele>915</ele>
        <time>2021-08-06T09:31:09.341Z</time>
      </trkpt>
      <trkpt lat="46.9668" lon="8.76576">
        <ele>915</ele>
        <time>2021-08-06T09:31:10.341Z</time>
      </trkpt>
      <trkpt lat="46.96682" lon="8.76574">
        <ele>915</ele>
        <time>2021-08-06T09:31:11.341Z</time>
      </trkpt>
      <trkpt lat="46.96682" lon="8.76572">
        <ele>915</ele>
        <time>2021-08-06T09:31:12.341Z</time>
      </trkpt>
      <trkpt lat="46.96682" lon="8.7657">
        <ele>915</ele>
        <time>2021-08-06T09:31:13.341Z</time>
      </trkpt>
      <trkpt lat="46.96681" lon="8.76569">
        <ele>915</ele>
        <time>2021-08-06T09:31:14.341Z</time>
      </trkpt>
      <trkpt lat="46.9668" lon="8.76568">
        <ele>914</ele>
        <time>2021-08-06T09:31:15.341Z</time>
      </trkpt>
      <trkpt lat="46.9668" lon="8.76568">
        <ele>915</ele>
        <time>2021-08-06T09:31:16.341Z</time>
      </trkpt>
      <trkpt lat="46.96681" lon="8.76567">
        <ele>915</ele>
        <time>2021-08-06T09:31:17.341Z</time>
      </trkpt>
      <trkpt lat="46.96682" lon="8.76567">
        <ele>915</ele>
        <time>2021-08-06T09:31:18.341Z</time>
      </trkpt>
      <trkpt lat="46.96682" lon="8.76566">
        <ele>915</ele>
        <time>2021-08-06T09:31:19.341Z</time>
      </trkpt>
      <trkpt lat="46.96682" lon="8.76565">
        <ele>915</ele>
        <time>2021-08-06T09:31:20.341Z</time>
      </trkpt>
      <trkpt lat="46.96682" lon="8.76564">
        <ele>915</ele>
        <time>2021-08-06T09:31:21.341Z</time>
      </trkpt>
      <trkpt lat="46.96682" lon="8.76562">
        <ele>915</ele>
        <time>2021-08-06T09:31:22.340Z</time>
      </trkpt>
      <trkpt lat="46.96682" lon="8.76561">
        <ele>914</ele>
        <time>2021-08-06T09:31:23.341Z</time>
      </trkpt>
      <trkpt lat="46.96683" lon="8.7656">
        <ele>914</ele>
        <time>2021-08-06T09:31:24.340Z</time>
      </trkpt>
      <trkpt lat="46.96683" lon="8.76559">
        <ele>914</ele>
        <time>2021-08-06T09:31:25.341Z</time>
      </trkpt>
      <trkpt lat="46.96684" lon="8.76558">
        <ele>913</ele>
        <time>2021-08-06T09:31:26.340Z</time>
      </trkpt>
      <trkpt lat="46.96684" lon="8.76557">
        <ele>913</ele>
        <time>2021-08-06T09:31:27.341Z</time>
      </trkpt>
      <trkpt lat="46.96684" lon="8.76556">
        <ele>912</ele>
        <time>2021-08-06T09:31:28.340Z</time>
      </trkpt>
      <trkpt lat="46.96684" lon="8.76555">
        <ele>911</ele>
        <time>2021-08-06T09:31:29.340Z</time>
      </trkpt>
      <trkpt lat="46.96684" lon="8.76554">
        <ele>910</ele>
        <time>2021-08-06T09:31:30.341Z</time>
      </trkpt>
      <trkpt lat="46.96684" lon="8.76553">
        <ele>909</ele>
        <time>2021-08-06T09:31:31.341Z</time>
      </trkpt>
      <trkpt lat="46.96685" lon="8.76551">
        <ele>908</ele>
        <time>2021-08-06T09:31:32.341Z</time>
      </trkpt>
      <trkpt lat="46.96686" lon="8.7655">
        <ele>908</ele>
        <time>2021-08-06T09:31:33.340Z</time>
      </trkpt>
      <trkpt lat="46.96686" lon="8.76548">
        <ele>907</ele>
        <time>2021-08-06T09:31:34.340Z</time>
      </trkpt>
      <trkpt lat="46.96686" lon="8.76547">
        <ele>906</ele>
        <time>2021-08-06T09:31:35.340Z</time>
      </trkpt>
      <trkpt lat="46.96686" lon="8.76546">
        <ele>905</ele>
        <time>2021-08-06T09:31:36.341Z</time>
      </trkpt>
      <trkpt lat="46.96686" lon="8.76545">
        <ele>904</ele>
        <time>2021-08-06T09:31:37.340Z</time>
      </trkpt>
      <trkpt lat="46.96686" lon="8.76543">
        <ele>904</ele>
        <time>2021-08-06T09:31:38.341Z</time>
      </trkpt>
      <trkpt lat="46.96686" lon="8.76541">
        <ele>903</ele>
        <time>2021-08-06T09:31:39.340Z</time>
      </trkpt>
      <trkpt lat="46.96687" lon="8.7654">
        <ele>903</ele>
        <time>2021-08-06T09:31:40.341Z</time>
      </trkpt>
      <trkpt lat="46.96687" lon="8.76538">
        <ele>903</ele>
        <time>2021-08-06T09:31:41.341Z</time>
      </trkpt>
      <trkpt lat="46.96686" lon="8.76537">
        <ele>903</ele>
        <time>2021-08-06T09:31:42.340Z</time>
      </trkpt>
      <trkpt lat="46.96686" lon="8.76535">
        <ele>903</ele>
        <time>2021-08-06T09:31:43.341Z</time>
      </trkpt>
      <trkpt lat="46.96684" lon="8.76535">
        <ele>903</ele>
        <time>2021-08-06T09:31:44.341Z</time>
      </trkpt>
      <trkpt lat="46.96683" lon="8.76535">
        <ele>903</ele>
        <time>2021-08-06T09:31:45.341Z</time>
      </trkpt>
      <trkpt lat="46.96682" lon="8.76535">
        <ele>903</ele>
        <time>2021-08-06T09:31:46.341Z</time>
      </trkpt>
      <trkpt lat="46.96682" lon="8.76534">
        <ele>902</ele>
        <time>2021-08-06T09:31:47.341Z</time>
      </trkpt>
      <trkpt lat="46.96682" lon="8.76533">
        <ele>902</ele>
        <time>2021-08-06T09:31:48.341Z</time>
      </trkpt>
      <trkpt lat="46.96682" lon="8.76532">
        <ele>903</ele>
        <time>2021-08-06T09:31:49.341Z</time>
      </trkpt>
      <trkpt lat="46.96682" lon="8.76531">
        <ele>903</ele>
        <time>2021-08-06T09:31:50.341Z</time>
      </trkpt>
      <trkpt lat="46.96682" lon="8.76529">
        <ele>904</ele>
        <time>2021-08-06T09:31:51.340Z</time>
      </trkpt>
      <trkpt lat="46.96682" lon="8.76528">
        <ele>904</ele>
        <time>2021-08-06T09:31:52.341Z</time>
      </trkpt>
      <trkpt lat="46.96681" lon="8.76527">
        <ele>904</ele>
        <time>2021-08-06T09:31:53.341Z</time>
      </trkpt>
      <trkpt lat="46.96681" lon="8.76526">
        <ele>904</ele>
        <time>2021-08-06T09:31:54.340Z</time>
      </trkpt>
      <trkpt lat="46.96681" lon="8.76525">
        <ele>905</ele>
        <time>2021-08-06T09:31:55.341Z</time>
      </trkpt>
      <trkpt lat="46.96681" lon="8.76523">
        <ele>905</ele>
        <time>2021-08-06T09:31:56.340Z</time>
      </trkpt>
      <trkpt lat="46.96681" lon="8.76522">
        <ele>906</ele>
        <time>2021-08-06T09:31:57.341Z</time>
      </trkpt>
      <trkpt lat="46.96681" lon="8.76521">
        <ele>906</ele>
        <time>2021-08-06T09:31:58.341Z</time>
      </trkpt>
      <trkpt lat="46.96681" lon="8.76519">
        <ele>906</ele>
        <time>2021-08-06T09:31:59.341Z</time>
      </trkpt>
      <trkpt lat="46.96681" lon="8.76518">
        <ele>906</ele>
        <time>2021-08-06T09:32:00.340Z</time>
      </trkpt>
      <trkpt lat="46.96681" lon="8.76517">
        <ele>906</ele>
        <time>2021-08-06T09:32:01.341Z</time>
      </trkpt>
      <trkpt lat="46.9668" lon="8.76515">
        <ele>905</ele>
        <time>2021-08-06T09:32:02.341Z</time>
      </trkpt>
      <trkpt lat="46.9668" lon="8.76514">
        <ele>905</ele>
        <time>2021-08-06T09:32:03.340Z</time>
      </trkpt>
      <trkpt lat="46.9668" lon="8.76513">
        <ele>905</ele>
        <time>2021-08-06T09:32:04.341Z</time>
      </trkpt>
      <trkpt lat="46.9668" lon="8.76512">
        <ele>905</ele>
        <time>2021-08-06T09:32:05.341Z</time>
      </trkpt>
      <trkpt lat="46.96679" lon="8.76511">
        <ele>905</ele>
        <time>2021-08-06T09:32:06.341Z</time>
      </trkpt>
      <trkpt lat="46.96679" lon="8.7651">
        <ele>905</ele>
        <time>2021-08-06T09:32:07.340Z</time>
      </trkpt>
      <trkpt lat="46.96679" lon="8.76509">
        <ele>904</ele>
        <time>2021-08-06T09:32:08.341Z</time>
      </trkpt>
      <trkpt lat="46.96679" lon="8.76508">
        <ele>904</ele>
        <time>2021-08-06T09:32:09.340Z</time>
      </trkpt>
      <trkpt lat="46.96678" lon="8.76507">
        <ele>904</ele>
        <time>2021-08-06T09:32:10.341Z</time>
      </trkpt>
      <trkpt lat="46.96678" lon="8.76505">
        <ele>904</ele>
        <time>2021-08-06T09:32:11.341Z</time>
      </trkpt>
      <trkpt lat="46.96677" lon="8.76503">
        <ele>904</ele>
        <time>2021-08-06T09:32:12.340Z</time>
      </trkpt>
      <trkpt lat="46.96677" lon="8.76501">
        <ele>904</ele>
        <time>2021-08-06T09:32:13.341Z</time>
      </trkpt>
      <trkpt lat="46.96677" lon="8.76499">
        <ele>904</ele>
        <time>2021-08-06T09:32:14.340Z</time>
      </trkpt>
      <trkpt lat="46.96676" lon="8.76498">
        <ele>904</ele>
        <time>2021-08-06T09:32:15.341Z</time>
      </trkpt>
      <trkpt lat="46.96675" lon="8.76497">
        <ele>904</ele>
        <time>2021-08-06T09:32:16.341Z</time>
      </trkpt>
      <trkpt lat="46.96674" lon="8.76496">
        <ele>904</ele>
        <time>2021-08-06T09:32:17.341Z</time>
      </trkpt>
      <trkpt lat="46.96673" lon="8.76495">
        <ele>904</ele>
        <time>2021-08-06T09:32:18.340Z</time>
      </trkpt>
      <trkpt lat="46.96673" lon="8.76494">
        <ele>905</ele>
        <time>2021-08-06T09:32:19.341Z</time>
      </trkpt>
      <trkpt lat="46.96672" lon="8.76493">
        <ele>905</ele>
        <time>2021-08-06T09:32:20.341Z</time>
      </trkpt>
      <trkpt lat="46.96672" lon="8.76492">
        <ele>905</ele>
        <time>2021-08-06T09:32:21.341Z</time>
      </trkpt>
      <trkpt lat="46.96672" lon="8.76491">
        <ele>905</ele>
        <time>2021-08-06T09:32:22.341Z</time>
      </trkpt>
      <trkpt lat="46.96671" lon="8.7649">
        <ele>905</ele>
        <time>2021-08-06T09:32:23.340Z</time>
      </trkpt>
      <trkpt lat="46.96671" lon="8.76488">
        <ele>904</ele>
        <time>2021-08-06T09:32:24.340Z</time>
      </trkpt>
      <trkpt lat="46.96669" lon="8.76487">
        <ele>904</ele>
        <time>2021-08-06T09:32:25.340Z</time>
      </trkpt>
      <trkpt lat="46.96668" lon="8.76486">
        <ele>904</ele>
        <time>2021-08-06T09:32:26.341Z</time>
      </trkpt>
      <trkpt lat="46.96668" lon="8.76485">
        <ele>904</ele>
        <time>2021-08-06T09:32:27.341Z</time>
      </trkpt>
      <trkpt lat="46.96667" lon="8.76484">
        <ele>904</ele>
        <time>2021-08-06T09:32:28.341Z</time>
      </trkpt>
      <trkpt lat="46.96666" lon="8.76483">
        <ele>905</ele>
        <time>2021-08-06T09:32:29.340Z</time>
      </trkpt>
      <trkpt lat="46.96665" lon="8.76482">
        <ele>905</ele>
        <time>2021-08-06T09:32:30.341Z</time>
      </trkpt>
      <trkpt lat="46.96665" lon="8.76481">
        <ele>904</ele>
        <time>2021-08-06T09:32:31.340Z</time>
      </trkpt>
      <trkpt lat="46.96665" lon="8.7648">
        <ele>904</ele>
        <time>2021-08-06T09:32:32.340Z</time>
      </trkpt>
      <trkpt lat="46.96665" lon="8.76479">
        <ele>905</ele>
        <time>2021-08-06T09:32:33.341Z</time>
      </trkpt>
      <trkpt lat="46.96665" lon="8.76478">
        <ele>905</ele>
        <time>2021-08-06T09:32:34.341Z</time>
      </trkpt>
      <trkpt lat="46.96665" lon="8.76477">
        <ele>905</ele>
        <time>2021-08-06T09:32:35.341Z</time>
      </trkpt>
      <trkpt lat="46.96665" lon="8.76476">
        <ele>906</ele>
        <time>2021-08-06T09:32:36.341Z</time>
      </trkpt>
      <trkpt lat="46.96664" lon="8.76476">
        <ele>906</ele>
        <time>2021-08-06T09:32:37.340Z</time>
      </trkpt>
      <trkpt lat="46.96663" lon="8.76475">
        <ele>906</ele>
        <time>2021-08-06T09:32:38.340Z</time>
      </trkpt>
      <trkpt lat="46.96662" lon="8.76474">
        <ele>906</ele>
        <time>2021-08-06T09:32:39.341Z</time>
      </trkpt>
      <trkpt lat="46.96662" lon="8.76473">
        <ele>907</ele>
        <time>2021-08-06T09:32:40.340Z</time>
      </trkpt>
      <trkpt lat="46.96662" lon="8.76472">
        <ele>907</ele>
        <time>2021-08-06T09:32:41.340Z</time>
      </trkpt>
      <trkpt lat="46.96662" lon="8.76471">
        <ele>907</ele>
        <time>2021-08-06T09:32:42.341Z</time>
      </trkpt>
      <trkpt lat="46.96661" lon="8.7647">
        <ele>907</ele>
        <time>2021-08-06T09:32:43.340Z</time>
      </trkpt>
      <trkpt lat="46.96661" lon="8.76469">
        <ele>908</ele>
        <time>2021-08-06T09:32:44.341Z</time>
      </trkpt>
      <trkpt lat="46.96661" lon="8.76468">
        <ele>908</ele>
        <time>2021-08-06T09:32:45.341Z</time>
      </trkpt>
      <trkpt lat="46.96661" lon="8.76467">
        <ele>909</ele>
        <time>2021-08-06T09:32:46.341Z</time>
      </trkpt>
      <trkpt lat="46.9666" lon="8.76467">
        <ele>910</ele>
        <time>2021-08-06T09:32:47.341Z</time>
      </trkpt>
      <trkpt lat="46.9666" lon="8.76466">
        <ele>911</ele>
        <time>2021-08-06T09:32:48.341Z</time>
      </trkpt>
      <trkpt lat="46.96659" lon="8.76465">
        <ele>912</ele>
        <time>2021-08-06T09:32:49.341Z</time>
      </trkpt>
      <trkpt lat="46.96659" lon="8.76464">
        <ele>912</ele>
        <time>2021-08-06T09:32:50.340Z</time>
      </trkpt>
      <trkpt lat="46.96658" lon="8.76463">
        <ele>913</ele>
        <time>2021-08-06T09:32:51.341Z</time>
      </trkpt>
      <trkpt lat="46.96657" lon="8.76462">
        <ele>914</ele>
        <time>2021-08-06T09:32:52.341Z</time>
      </trkpt>
      <trkpt lat="46.96656" lon="8.7646">
        <ele>915</ele>
        <time>2021-08-06T09:32:53.341Z</time>
      </trkpt>
      <trkpt lat="46.96655" lon="8.76459">
        <ele>916</ele>
        <time>2021-08-06T09:32:54.340Z</time>
      </trkpt>
      <trkpt lat="46.96654" lon="8.76458">
        <ele>916</ele>
        <time>2021-08-06T09:32:55.340Z</time>
      </trkpt>
      <trkpt lat="46.96653" lon="8.76457">
        <ele>917</ele>
        <time>2021-08-06T09:32:56.341Z</time>
      </trkpt>
      <trkpt lat="46.96652" lon="8.76456">
        <ele>917</ele>
        <time>2021-08-06T09:32:57.341Z</time>
      </trkpt>
      <trkpt lat="46.96651" lon="8.76455">
        <ele>918</ele>
        <time>2021-08-06T09:32:58.341Z</time>
      </trkpt>
      <trkpt lat="46.9665" lon="8.76454">
        <ele>918</ele>
        <time>2021-08-06T09:32:59.341Z</time>
      </trkpt>
      <trkpt lat="46.9665" lon="8.76453">
        <ele>918</ele>
        <time>2021-08-06T09:33:00.341Z</time>
      </trkpt>
      <trkpt lat="46.96649" lon="8.76453">
        <ele>919</ele>
        <time>2021-08-06T09:33:01.341Z</time>
      </trkpt>
      <trkpt lat="46.96649" lon="8.76452">
        <ele>918</ele>
        <time>2021-08-06T09:33:02.341Z</time>
      </trkpt>
      <trkpt lat="46.96649" lon="8.7645">
        <ele>918</ele>
        <time>2021-08-06T09:33:03.341Z</time>
      </trkpt>
      <trkpt lat="46.96649" lon="8.76449">
        <ele>918</ele>
        <time>2021-08-06T09:33:04.341Z</time>
      </trkpt>
      <trkpt lat="46.96649" lon="8.76448">
        <ele>918</ele>
        <time>2021-08-06T09:33:05.341Z</time>
      </trkpt>
      <trkpt lat="46.96649" lon="8.76447">
        <ele>917</ele>
        <time>2021-08-06T09:33:06.340Z</time>
      </trkpt>
      <trkpt lat="46.96649" lon="8.76446">
        <ele>917</ele>
        <time>2021-08-06T09:33:07.341Z</time>
      </trkpt>
      <trkpt lat="46.96649" lon="8.76444">
        <ele>918</ele>
        <time>2021-08-06T09:33:08.340Z</time>
      </trkpt>
      <trkpt lat="46.96649" lon="8.76443">
        <ele>918</ele>
        <time>2021-08-06T09:33:09.341Z</time>
      </trkpt>
      <trkpt lat="46.96649" lon="8.76442">
        <ele>918</ele>
        <time>2021-08-06T09:33:10.340Z</time>
      </trkpt>
      <trkpt lat="46.96649" lon="8.76441">
        <ele>918</ele>
        <time>2021-08-06T09:33:11.341Z</time>
      </trkpt>
      <trkpt lat="46.96649" lon="8.7644">
        <ele>919</ele>
        <time>2021-08-06T09:33:12.341Z</time>
      </trkpt>
      <trkpt lat="46.96648" lon="8.76439">
        <ele>919</ele>
        <time>2021-08-06T09:33:13.340Z</time>
      </trkpt>
      <trkpt lat="46.96648" lon="8.76437">
        <ele>920</ele>
        <time>2021-08-06T09:33:14.341Z</time>
      </trkpt>
      <trkpt lat="46.96648" lon="8.76435">
        <ele>920</ele>
        <time>2021-08-06T09:33:15.340Z</time>
      </trkpt>
      <trkpt lat="46.96648" lon="8.76434">
        <ele>920</ele>
        <time>2021-08-06T09:33:16.341Z</time>
      </trkpt>
      <trkpt lat="46.96649" lon="8.76432">
        <ele>921</ele>
        <time>2021-08-06T09:33:17.341Z</time>
      </trkpt>
      <trkpt lat="46.96649" lon="8.76429">
        <ele>921</ele>
        <time>2021-08-06T09:33:18.341Z</time>
      </trkpt>
      <trkpt lat="46.96648" lon="8.76426">
        <ele>922</ele>
        <time>2021-08-06T09:33:19.340Z</time>
      </trkpt>
      <trkpt lat="46.96647" lon="8.76425">
        <ele>924</ele>
        <time>2021-08-06T09:33:20.340Z</time>
      </trkpt>
      <trkpt lat="46.96647" lon="8.76425">
        <ele>925</ele>
        <time>2021-08-06T09:33:21.340Z</time>
      </trkpt>
      <trkpt lat="46.96646" lon="8.76423">
        <ele>926</ele>
        <time>2021-08-06T09:33:22.341Z</time>
      </trkpt>
      <trkpt lat="46.96646" lon="8.76422">
        <ele>926</ele>
        <time>2021-08-06T09:33:23.340Z</time>
      </trkpt>
      <trkpt lat="46.96645" lon="8.76421">
        <ele>927</ele>
        <time>2021-08-06T09:33:24.340Z</time>
      </trkpt>
      <trkpt lat="46.96645" lon="8.76419">
        <ele>928</ele>
        <time>2021-08-06T09:33:25.341Z</time>
      </trkpt>
      <trkpt lat="46.96644" lon="8.76418">
        <ele>928</ele>
        <time>2021-08-06T09:33:26.341Z</time>
      </trkpt>
      <trkpt lat="46.96644" lon="8.76417">
        <ele>929</ele>
        <time>2021-08-06T09:33:27.340Z</time>
      </trkpt>
      <trkpt lat="46.96644" lon="8.76415">
        <ele>929</ele>
        <time>2021-08-06T09:33:28.340Z</time>
      </trkpt>
      <trkpt lat="46.96644" lon="8.76414">
        <ele>930</ele>
        <time>2021-08-06T09:33:29.341Z</time>
      </trkpt>
      <trkpt lat="46.96644" lon="8.76413">
        <ele>930</ele>
        <time>2021-08-06T09:33:30.341Z</time>
      </trkpt>
      <trkpt lat="46.96644" lon="8.76412">
        <ele>930</ele>
        <time>2021-08-06T09:33:31.341Z</time>
      </trkpt>
      <trkpt lat="46.96646" lon="8.7641">
        <ele>929</ele>
        <time>2021-08-06T09:33:32.340Z</time>
      </trkpt>
      <trkpt lat="46.96646" lon="8.76408">
        <ele>929</ele>
        <time>2021-08-06T09:33:33.340Z</time>
      </trkpt>
      <trkpt lat="46.96647" lon="8.76407">
        <ele>929</ele>
        <time>2021-08-06T09:33:34.340Z</time>
      </trkpt>
      <trkpt lat="46.96647" lon="8.76406">
        <ele>928</ele>
        <time>2021-08-06T09:33:35.340Z</time>
      </trkpt>
      <trkpt lat="46.96647" lon="8.76405">
        <ele>928</ele>
        <time>2021-08-06T09:33:36.340Z</time>
      </trkpt>
      <trkpt lat="46.96647" lon="8.76404">
        <ele>927</ele>
        <time>2021-08-06T09:33:37.340Z</time>
      </trkpt>
      <trkpt lat="46.96646" lon="8.76403">
        <ele>927</ele>
        <time>2021-08-06T09:33:38.341Z</time>
      </trkpt>
      <trkpt lat="46.96646" lon="8.76403">
        <ele>926</ele>
        <time>2021-08-06T09:33:39.340Z</time>
      </trkpt>
      <trkpt lat="46.96645" lon="8.76402">
        <ele>926</ele>
        <time>2021-08-06T09:33:40.340Z</time>
      </trkpt>
      <trkpt lat="46.96644" lon="8.76401">
        <ele>926</ele>
        <time>2021-08-06T09:33:41.340Z</time>
      </trkpt>
      <trkpt lat="46.96644" lon="8.76401">
        <ele>925</ele>
        <time>2021-08-06T09:33:42.341Z</time>
      </trkpt>
      <trkpt lat="46.96644" lon="8.764">
        <ele>925</ele>
        <time>2021-08-06T09:33:43.341Z</time>
      </trkpt>
      <trkpt lat="46.96645" lon="8.76399">
        <ele>925</ele>
        <time>2021-08-06T09:33:44.341Z</time>
      </trkpt>
      <trkpt lat="46.96645" lon="8.76397">
        <ele>924</ele>
        <time>2021-08-06T09:33:45.341Z</time>
      </trkpt>
      <trkpt lat="46.96644" lon="8.76396">
        <ele>924</ele>
        <time>2021-08-06T09:33:46.340Z</time>
      </trkpt>
      <trkpt lat="46.96643" lon="8.76395">
        <ele>924</ele>
        <time>2021-08-06T09:33:47.341Z</time>
      </trkpt>
      <trkpt lat="46.96643" lon="8.76393">
        <ele>924</ele>
        <time>2021-08-06T09:33:48.340Z</time>
      </trkpt>
      <trkpt lat="46.96642" lon="8.76392">
        <ele>924</ele>
        <time>2021-08-06T09:33:49.340Z</time>
      </trkpt>
      <trkpt lat="46.96641" lon="8.76391">
        <ele>924</ele>
        <time>2021-08-06T09:33:50.341Z</time>
      </trkpt>
      <trkpt lat="46.9664" lon="8.7639">
        <ele>924</ele>
        <time>2021-08-06T09:33:51.341Z</time>
      </trkpt>
      <trkpt lat="46.96639" lon="8.76389">
        <ele>924</ele>
        <time>2021-08-06T09:33:52.341Z</time>
      </trkpt>
      <trkpt lat="46.96639" lon="8.76388">
        <ele>925</ele>
        <time>2021-08-06T09:33:53.341Z</time>
      </trkpt>
      <trkpt lat="46.96638" lon="8.76387">
        <ele>925</ele>
        <time>2021-08-06T09:33:54.340Z</time>
      </trkpt>
      <trkpt lat="46.96638" lon="8.76386">
        <ele>926</ele>
        <time>2021-08-06T09:33:55.341Z</time>
      </trkpt>
      <trkpt lat="46.96638" lon="8.76385">
        <ele>926</ele>
        <time>2021-08-06T09:33:56.341Z</time>
      </trkpt>
      <trkpt lat="46.96638" lon="8.76384">
        <ele>927</ele>
        <time>2021-08-06T09:33:57.341Z</time>
      </trkpt>
      <trkpt lat="46.96638" lon="8.76383">
        <ele>928</ele>
        <time>2021-08-06T09:33:58.341Z</time>
      </trkpt>
      <trkpt lat="46.96637" lon="8.76382">
        <ele>928</ele>
        <time>2021-08-06T09:33:59.341Z</time>
      </trkpt>
      <trkpt lat="46.96637" lon="8.7638">
        <ele>929</ele>
        <time>2021-08-06T09:34:00.341Z</time>
      </trkpt>
      <trkpt lat="46.96638" lon="8.7638">
        <ele>930</ele>
        <time>2021-08-06T09:34:01.341Z</time>
      </trkpt>
      <trkpt lat="46.96638" lon="8.76379">
        <ele>930</ele>
        <time>2021-08-06T09:34:02.341Z</time>
      </trkpt>
      <trkpt lat="46.96639" lon="8.76378">
        <ele>931</ele>
        <time>2021-08-06T09:34:03.341Z</time>
      </trkpt>
      <trkpt lat="46.96639" lon="8.76377">
        <ele>932</ele>
        <time>2021-08-06T09:34:04.341Z</time>
      </trkpt>
      <trkpt lat="46.9664" lon="8.76376">
        <ele>932</ele>
        <time>2021-08-06T09:34:05.341Z</time>
      </trkpt>
      <trkpt lat="46.9664" lon="8.76375">
        <ele>933</ele>
        <time>2021-08-06T09:34:06.341Z</time>
      </trkpt>
      <trkpt lat="46.96641" lon="8.76373">
        <ele>934</ele>
        <time>2021-08-06T09:34:07.341Z</time>
      </trkpt>
      <trkpt lat="46.96641" lon="8.76372">
        <ele>936</ele>
        <time>2021-08-06T09:34:08.341Z</time>
      </trkpt>
      <trkpt lat="46.96641" lon="8.76371">
        <ele>937</ele>
        <time>2021-08-06T09:34:09.341Z</time>
      </trkpt>
      <trkpt lat="46.96642" lon="8.76371">
        <ele>938</ele>
        <time>2021-08-06T09:34:10.341Z</time>
      </trkpt>
      <trkpt lat="46.96642" lon="8.7637">
        <ele>939</ele>
        <time>2021-08-06T09:34:11.341Z</time>
      </trkpt>
      <trkpt lat="46.96642" lon="8.76371">
        <ele>940</ele>
        <time>2021-08-06T09:34:12.340Z</time>
      </trkpt>
      <trkpt lat="46.96642" lon="8.7637">
        <ele>941</ele>
        <time>2021-08-06T09:34:13.341Z</time>
      </trkpt>
      <trkpt lat="46.96642" lon="8.76369">
        <ele>941</ele>
        <time>2021-08-06T09:34:14.341Z</time>
      </trkpt>
      <trkpt lat="46.96642" lon="8.76369">
        <ele>942</ele>
        <time>2021-08-06T09:34:15.341Z</time>
      </trkpt>
      <trkpt lat="46.96642" lon="8.76369">
        <ele>944</ele>
        <time>2021-08-06T09:34:16.341Z</time>
      </trkpt>
      <trkpt lat="46.96642" lon="8.76369">
        <ele>945</ele>
        <time>2021-08-06T09:34:17.340Z</time>
      </trkpt>
      <trkpt lat="46.96643" lon="8.76367">
        <ele>946</ele>
        <time>2021-08-06T09:34:18.340Z</time>
      </trkpt>
      <trkpt lat="46.96643" lon="8.76366">
        <ele>948</ele>
        <time>2021-08-06T09:34:19.341Z</time>
      </trkpt>
      <trkpt lat="46.96644" lon="8.76365">
        <ele>949</ele>
        <time>2021-08-06T09:34:20.341Z</time>
      </trkpt>
      <trkpt lat="46.96644" lon="8.76364">
        <ele>950</ele>
        <time>2021-08-06T09:34:21.340Z</time>
      </trkpt>
      <trkpt lat="46.96645" lon="8.76363">
        <ele>952</ele>
        <time>2021-08-06T09:34:22.341Z</time>
      </trkpt>
      <trkpt lat="46.96645" lon="8.76363">
        <ele>953</ele>
        <time>2021-08-06T09:34:23.341Z</time>
      </trkpt>
      <trkpt lat="46.96645" lon="8.76362">
        <ele>954</ele>
        <time>2021-08-06T09:34:24.341Z</time>
      </trkpt>
      <trkpt lat="46.96645" lon="8.76361">
        <ele>955</ele>
        <time>2021-08-06T09:34:25.340Z</time>
      </trkpt>
      <trkpt lat="46.96646" lon="8.7636">
        <ele>956</ele>
        <time>2021-08-06T09:34:26.341Z</time>
      </trkpt>
      <trkpt lat="46.96647" lon="8.76359">
        <ele>957</ele>
        <time>2021-08-06T09:34:27.340Z</time>
      </trkpt>
      <trkpt lat="46.96647" lon="8.76358">
        <ele>958</ele>
        <time>2021-08-06T09:34:28.340Z</time>
      </trkpt>
      <trkpt lat="46.96648" lon="8.76357">
        <ele>959</ele>
        <time>2021-08-06T09:34:29.341Z</time>
      </trkpt>
      <trkpt lat="46.96649" lon="8.76355">
        <ele>960</ele>
        <time>2021-08-06T09:34:30.341Z</time>
      </trkpt>
      <trkpt lat="46.96651" lon="8.76354">
        <ele>960</ele>
        <time>2021-08-06T09:34:31.340Z</time>
      </trkpt>
      <trkpt lat="46.96652" lon="8.76353">
        <ele>961</ele>
        <time>2021-08-06T09:34:32.341Z</time>
      </trkpt>
      <trkpt lat="46.96653" lon="8.76352">
        <ele>961</ele>
        <time>2021-08-06T09:34:33.341Z</time>
      </trkpt>
      <trkpt lat="46.96653" lon="8.76351">
        <ele>962</ele>
        <time>2021-08-06T09:34:34.340Z</time>
      </trkpt>
      <trkpt lat="46.96654" lon="8.7635">
        <ele>962</ele>
        <time>2021-08-06T09:34:35.340Z</time>
      </trkpt>
      <trkpt lat="46.96655" lon="8.76349">
        <ele>962</ele>
        <time>2021-08-06T09:34:36.340Z</time>
      </trkpt>
      <trkpt lat="46.96655" lon="8.76348">
        <ele>963</ele>
        <time>2021-08-06T09:34:37.341Z</time>
      </trkpt>
      <trkpt lat="46.96656" lon="8.76347">
        <ele>964</ele>
        <time>2021-08-06T09:34:38.340Z</time>
      </trkpt>
      <trkpt lat="46.96656" lon="8.76347">
        <ele>964</ele>
        <time>2021-08-06T09:34:39.341Z</time>
      </trkpt>
      <trkpt lat="46.96657" lon="8.76346">
        <ele>964</ele>
        <time>2021-08-06T09:34:40.340Z</time>
      </trkpt>
      <trkpt lat="46.96658" lon="8.76345">
        <ele>965</ele>
        <time>2021-08-06T09:34:41.341Z</time>
      </trkpt>
      <trkpt lat="46.96659" lon="8.76344">
        <ele>965</ele>
        <time>2021-08-06T09:34:42.340Z</time>
      </trkpt>
      <trkpt lat="46.96659" lon="8.76343">
        <ele>966</ele>
        <time>2021-08-06T09:34:43.340Z</time>
      </trkpt>
      <trkpt lat="46.9666" lon="8.76343">
        <ele>966</ele>
        <time>2021-08-06T09:34:44.341Z</time>
      </trkpt>
      <trkpt lat="46.9666" lon="8.76341">
        <ele>965</ele>
        <time>2021-08-06T09:34:45.340Z</time>
      </trkpt>
      <trkpt lat="46.9666" lon="8.7634">
        <ele>965</ele>
        <time>2021-08-06T09:34:46.341Z</time>
      </trkpt>
      <trkpt lat="46.9666" lon="8.76338">
        <ele>964</ele>
        <time>2021-08-06T09:34:47.341Z</time>
      </trkpt>
      <trkpt lat="46.96659" lon="8.76337">
        <ele>964</ele>
        <time>2021-08-06T09:34:48.340Z</time>
      </trkpt>
      <trkpt lat="46.96659" lon="8.76336">
        <ele>963</ele>
        <time>2021-08-06T09:34:49.341Z</time>
      </trkpt>
      <trkpt lat="46.96658" lon="8.76335">
        <ele>962</ele>
        <time>2021-08-06T09:34:50.341Z</time>
      </trkpt>
      <trkpt lat="46.96658" lon="8.76334">
        <ele>961</ele>
        <time>2021-08-06T09:34:51.341Z</time>
      </trkpt>
      <trkpt lat="46.96658" lon="8.76332">
        <ele>960</ele>
        <time>2021-08-06T09:34:52.341Z</time>
      </trkpt>
      <trkpt lat="46.96658" lon="8.76331">
        <ele>958</ele>
        <time>2021-08-06T09:34:53.341Z</time>
      </trkpt>
      <trkpt lat="46.96658" lon="8.76329">
        <ele>957</ele>
        <time>2021-08-06T09:34:54.340Z</time>
      </trkpt>
      <trkpt lat="46.96657" lon="8.76328">
        <ele>956</ele>
        <time>2021-08-06T09:34:55.341Z</time>
      </trkpt>
      <trkpt lat="46.96656" lon="8.76327">
        <ele>954</ele>
        <time>2021-08-06T09:34:56.341Z</time>
      </trkpt>
      <trkpt lat="46.96656" lon="8.76325">
        <ele>953</ele>
        <time>2021-08-06T09:34:57.341Z</time>
      </trkpt>
      <trkpt lat="46.96655" lon="8.76323">
        <ele>952</ele>
        <time>2021-08-06T09:34:58.340Z</time>
      </trkpt>
      <trkpt lat="46.96654" lon="8.76322">
        <ele>951</ele>
        <time>2021-08-06T09:34:59.340Z</time>
      </trkpt>
      <trkpt lat="46.96655" lon="8.7632">
        <ele>949</ele>
        <time>2021-08-06T09:35:00.341Z</time>
      </trkpt>
      <trkpt lat="46.96655" lon="8.76319">
        <ele>948</ele>
        <time>2021-08-06T09:35:01.341Z</time>
      </trkpt>
      <trkpt lat="46.96654" lon="8.76317">
        <ele>948</ele>
        <time>2021-08-06T09:35:02.341Z</time>
      </trkpt>
      <trkpt lat="46.96653" lon="8.76315">
        <ele>947</ele>
        <time>2021-08-06T09:35:03.341Z</time>
      </trkpt>
      <trkpt lat="46.96653" lon="8.76314">
        <ele>946</ele>
        <time>2021-08-06T09:35:04.340Z</time>
      </trkpt>
      <trkpt lat="46.96652" lon="8.76312">
        <ele>946</ele>
        <time>2021-08-06T09:35:05.341Z</time>
      </trkpt>
      <trkpt lat="46.96651" lon="8.76311">
        <ele>946</ele>
        <time>2021-08-06T09:35:06.341Z</time>
      </trkpt>
      <trkpt lat="46.9665" lon="8.76309">
        <ele>945</ele>
        <time>2021-08-06T09:35:07.340Z</time>
      </trkpt>
      <trkpt lat="46.9665" lon="8.76308">
        <ele>945</ele>
        <time>2021-08-06T09:35:08.340Z</time>
      </trkpt>
      <trkpt lat="46.96649" lon="8.76306">
        <ele>944</ele>
        <time>2021-08-06T09:35:09.341Z</time>
      </trkpt>
      <trkpt lat="46.96647" lon="8.76306">
        <ele>943</ele>
        <time>2021-08-06T09:35:10.341Z</time>
      </trkpt>
      <trkpt lat="46.96647" lon="8.76305">
        <ele>942</ele>
        <time>2021-08-06T09:35:11.341Z</time>
      </trkpt>
      <trkpt lat="46.96646" lon="8.76304">
        <ele>941</ele>
        <time>2021-08-06T09:35:12.341Z</time>
      </trkpt>
      <trkpt lat="46.96645" lon="8.76302">
        <ele>940</ele>
        <time>2021-08-06T09:35:13.340Z</time>
      </trkpt>
      <trkpt lat="46.96646" lon="8.763">
        <ele>939</ele>
        <time>2021-08-06T09:35:14.340Z</time>
      </trkpt>
      <trkpt lat="46.96646" lon="8.76299">
        <ele>939</ele>
        <time>2021-08-06T09:35:15.341Z</time>
      </trkpt>
      <trkpt lat="46.96647" lon="8.76297">
        <ele>939</ele>
        <time>2021-08-06T09:35:16.341Z</time>
      </trkpt>
      <trkpt lat="46.96646" lon="8.76296">
        <ele>938</ele>
        <time>2021-08-06T09:35:17.340Z</time>
      </trkpt>
      <trkpt lat="46.96646" lon="8.76296">
        <ele>938</ele>
        <time>2021-08-06T09:35:18.341Z</time>
      </trkpt>
      <trkpt lat="46.96645" lon="8.76294">
        <ele>938</ele>
        <time>2021-08-06T09:35:19.341Z</time>
      </trkpt>
      <trkpt lat="46.96645" lon="8.76294">
        <ele>938</ele>
        <time>2021-08-06T09:35:20.341Z</time>
      </trkpt>
      <trkpt lat="46.96644" lon="8.76293">
        <ele>939</ele>
        <time>2021-08-06T09:35:21.340Z</time>
      </trkpt>
      <trkpt lat="46.96643" lon="8.76292">
        <ele>939</ele>
        <time>2021-08-06T09:35:22.341Z</time>
      </trkpt>
      <trkpt lat="46.96643" lon="8.76292">
        <ele>938</ele>
        <time>2021-08-06T09:35:23.341Z</time>
      </trkpt>
      <trkpt lat="46.96642" lon="8.76291">
        <ele>938</ele>
        <time>2021-08-06T09:35:24.341Z</time>
      </trkpt>
      <trkpt lat="46.96642" lon="8.7629">
        <ele>938</ele>
        <time>2021-08-06T09:35:25.340Z</time>
      </trkpt>
      <trkpt lat="46.96641" lon="8.7629">
        <ele>938</ele>
        <time>2021-08-06T09:35:26.341Z</time>
      </trkpt>
      <trkpt lat="46.96641" lon="8.76289">
        <ele>938</ele>
        <time>2021-08-06T09:35:27.340Z</time>
      </trkpt>
      <trkpt lat="46.96641" lon="8.76287">
        <ele>937</ele>
        <time>2021-08-06T09:35:28.341Z</time>
      </trkpt>
      <trkpt lat="46.96641" lon="8.76286">
        <ele>937</ele>
        <time>2021-08-06T09:35:29.341Z</time>
      </trkpt>
      <trkpt lat="46.96641" lon="8.76285">
        <ele>937</ele>
        <time>2021-08-06T09:35:30.340Z</time>
      </trkpt>
      <trkpt lat="46.96641" lon="8.76283">
        <ele>937</ele>
        <time>2021-08-06T09:35:31.341Z</time>
      </trkpt>
      <trkpt lat="46.96641" lon="8.76282">
        <ele>937</ele>
        <time>2021-08-06T09:35:32.341Z</time>
      </trkpt>
      <trkpt lat="46.96641" lon="8.7628">
        <ele>937</ele>
        <time>2021-08-06T09:35:33.340Z</time>
      </trkpt>
      <trkpt lat="46.96641" lon="8.76279">
        <ele>936</ele>
        <time>2021-08-06T09:35:34.340Z</time>
      </trkpt>
      <trkpt lat="46.96642" lon="8.76277">
        <ele>936</ele>
        <time>2021-08-06T09:35:35.341Z</time>
      </trkpt>
      <trkpt lat="46.96642" lon="8.76275">
        <ele>936</ele>
        <time>2021-08-06T09:35:36.341Z</time>
      </trkpt>
      <trkpt lat="46.96643" lon="8.76274">
        <ele>936</ele>
        <time>2021-08-06T09:35:37.341Z</time>
      </trkpt>
      <trkpt lat="46.96643" lon="8.76272">
        <ele>936</ele>
        <time>2021-08-06T09:35:38.341Z</time>
      </trkpt>
      <trkpt lat="46.96643" lon="8.76271">
        <ele>936</ele>
        <time>2021-08-06T09:35:39.340Z</time>
      </trkpt>
      <trkpt lat="46.96643" lon="8.7627">
        <ele>937</ele>
        <time>2021-08-06T09:35:40.341Z</time>
      </trkpt>
      <trkpt lat="46.96644" lon="8.76268">
        <ele>937</ele>
        <time>2021-08-06T09:35:41.340Z</time>
      </trkpt>
      <trkpt lat="46.96645" lon="8.76267">
        <ele>937</ele>
        <time>2021-08-06T09:35:42.341Z</time>
      </trkpt>
      <trkpt lat="46.96646" lon="8.76265">
        <ele>938</ele>
        <time>2021-08-06T09:35:43.340Z</time>
      </trkpt>
      <trkpt lat="46.96646" lon="8.76265">
        <ele>938</ele>
        <time>2021-08-06T09:35:44.341Z</time>
      </trkpt>
      <trkpt lat="46.96647" lon="8.76264">
        <ele>939</ele>
        <time>2021-08-06T09:35:45.340Z</time>
      </trkpt>
      <trkpt lat="46.96647" lon="8.76262">
        <ele>939</ele>
        <time>2021-08-06T09:35:46.341Z</time>
      </trkpt>
      <trkpt lat="46.96646" lon="8.76261">
        <ele>938</ele>
        <time>2021-08-06T09:35:47.341Z</time>
      </trkpt>
      <trkpt lat="46.96646" lon="8.7626">
        <ele>938</ele>
        <time>2021-08-06T09:35:48.340Z</time>
      </trkpt>
      <trkpt lat="46.96646" lon="8.76258">
        <ele>938</ele>
        <time>2021-08-06T09:35:49.341Z</time>
      </trkpt>
      <trkpt lat="46.96646" lon="8.76256">
        <ele>938</ele>
        <time>2021-08-06T09:35:50.341Z</time>
      </trkpt>
      <trkpt lat="46.96646" lon="8.76255">
        <ele>938</ele>
        <time>2021-08-06T09:35:51.340Z</time>
      </trkpt>
      <trkpt lat="46.96647" lon="8.76253">
        <ele>937</ele>
        <time>2021-08-06T09:35:52.341Z</time>
      </trkpt>
      <trkpt lat="46.96648" lon="8.76252">
        <ele>937</ele>
        <time>2021-08-06T09:35:53.340Z</time>
      </trkpt>
      <trkpt lat="46.96648" lon="8.7625">
        <ele>937</ele>
        <time>2021-08-06T09:35:54.341Z</time>
      </trkpt>
      <trkpt lat="46.96648" lon="8.76249">
        <ele>937</ele>
        <time>2021-08-06T09:35:55.340Z</time>
      </trkpt>
      <trkpt lat="46.96649" lon="8.76247">
        <ele>937</ele>
        <time>2021-08-06T09:35:56.341Z</time>
      </trkpt>
      <trkpt lat="46.96648" lon="8.76246">
        <ele>936</ele>
        <time>2021-08-06T09:35:57.341Z</time>
      </trkpt>
      <trkpt lat="46.96648" lon="8.76245">
        <ele>936</ele>
        <time>2021-08-06T09:35:58.341Z</time>
      </trkpt>
      <trkpt lat="46.96648" lon="8.76243">
        <ele>936</ele>
        <time>2021-08-06T09:35:59.340Z</time>
      </trkpt>
      <trkpt lat="46.96648" lon="8.76242">
        <ele>935</ele>
        <time>2021-08-06T09:36:00.341Z</time>
      </trkpt>
      <trkpt lat="46.96648" lon="8.76241">
        <ele>935</ele>
        <time>2021-08-06T09:36:01.340Z</time>
      </trkpt>
      <trkpt lat="46.96647" lon="8.7624">
        <ele>935</ele>
        <time>2021-08-06T09:36:02.340Z</time>
      </trkpt>
      <trkpt lat="46.96647" lon="8.76239">
        <ele>935</ele>
        <time>2021-08-06T09:36:03.341Z</time>
      </trkpt>
      <trkpt lat="46.96647" lon="8.76238">
        <ele>935</ele>
        <time>2021-08-06T09:36:04.340Z</time>
      </trkpt>
      <trkpt lat="46.96647" lon="8.76236">
        <ele>935</ele>
        <time>2021-08-06T09:36:05.340Z</time>
      </trkpt>
      <trkpt lat="46.96647" lon="8.76235">
        <ele>935</ele>
        <time>2021-08-06T09:36:06.341Z</time>
      </trkpt>
      <trkpt lat="46.96646" lon="8.76234">
        <ele>935</ele>
        <time>2021-08-06T09:36:07.340Z</time>
      </trkpt>
      <trkpt lat="46.96645" lon="8.76233">
        <ele>935</ele>
        <time>2021-08-06T09:36:08.341Z</time>
      </trkpt>
      <trkpt lat="46.96645" lon="8.76231">
        <ele>935</ele>
        <time>2021-08-06T09:36:09.341Z</time>
      </trkpt>
      <trkpt lat="46.96644" lon="8.7623">
        <ele>935</ele>
        <time>2021-08-06T09:36:10.340Z</time>
      </trkpt>
      <trkpt lat="46.96644" lon="8.76229">
        <ele>936</ele>
        <time>2021-08-06T09:36:11.341Z</time>
      </trkpt>
      <trkpt lat="46.96644" lon="8.76227">
        <ele>936</ele>
        <time>2021-08-06T09:36:12.341Z</time>
      </trkpt>
      <trkpt lat="46.96644" lon="8.76226">
        <ele>936</ele>
        <time>2021-08-06T09:36:13.341Z</time>
      </trkpt>
      <trkpt lat="46.96644" lon="8.76223">
        <ele>936</ele>
        <time>2021-08-06T09:36:14.341Z</time>
      </trkpt>
      <trkpt lat="46.96644" lon="8.76222">
        <ele>936</ele>
        <time>2021-08-06T09:36:15.341Z</time>
      </trkpt>
      <trkpt lat="46.96643" lon="8.76221">
        <ele>936</ele>
        <time>2021-08-06T09:36:16.341Z</time>
      </trkpt>
      <trkpt lat="46.96643" lon="8.76219">
        <ele>937</ele>
        <time>2021-08-06T09:36:17.341Z</time>
      </trkpt>
      <trkpt lat="46.96642" lon="8.76218">
        <ele>937</ele>
        <time>2021-08-06T09:36:18.341Z</time>
      </trkpt>
      <trkpt lat="46.96642" lon="8.76216">
        <ele>937</ele>
        <time>2021-08-06T09:36:19.341Z</time>
      </trkpt>
      <trkpt lat="46.96641" lon="8.76215">
        <ele>937</ele>
        <time>2021-08-06T09:36:20.340Z</time>
      </trkpt>
      <trkpt lat="46.96641" lon="8.76214">
        <ele>938</ele>
        <time>2021-08-06T09:36:21.340Z</time>
      </trkpt>
      <trkpt lat="46.9664" lon="8.76213">
        <ele>938</ele>
        <time>2021-08-06T09:36:22.341Z</time>
      </trkpt>
      <trkpt lat="46.9664" lon="8.76211">
        <ele>938</ele>
        <time>2021-08-06T09:36:23.341Z</time>
      </trkpt>
      <trkpt lat="46.9664" lon="8.76209">
        <ele>939</ele>
        <time>2021-08-06T09:36:24.341Z</time>
      </trkpt>
      <trkpt lat="46.9664" lon="8.76207">
        <ele>940</ele>
        <time>2021-08-06T09:36:25.340Z</time>
      </trkpt>
      <trkpt lat="46.9664" lon="8.76207">
        <ele>941</ele>
        <time>2021-08-06T09:36:26.341Z</time>
      </trkpt>
      <trkpt lat="46.9664" lon="8.76205">
        <ele>942</ele>
        <time>2021-08-06T09:36:27.341Z</time>
      </trkpt>
      <trkpt lat="46.9664" lon="8.76204">
        <ele>943</ele>
        <time>2021-08-06T09:36:28.341Z</time>
      </trkpt>
      <trkpt lat="46.9664" lon="8.76202">
        <ele>943</ele>
        <time>2021-08-06T09:36:29.341Z</time>
      </trkpt>
      <trkpt lat="46.9664" lon="8.76201">
        <ele>944</ele>
        <time>2021-08-06T09:36:30.341Z</time>
      </trkpt>
      <trkpt lat="46.9664" lon="8.76199">
        <ele>944</ele>
        <time>2021-08-06T09:36:31.341Z</time>
      </trkpt>
      <trkpt lat="46.9664" lon="8.76198">
        <ele>945</ele>
        <time>2021-08-06T09:36:32.341Z</time>
      </trkpt>
      <trkpt lat="46.96639" lon="8.76196">
        <ele>945</ele>
        <time>2021-08-06T09:36:33.341Z</time>
      </trkpt>
      <trkpt lat="46.96639" lon="8.76195">
        <ele>946</ele>
        <time>2021-08-06T09:36:34.341Z</time>
      </trkpt>
      <trkpt lat="46.96639" lon="8.76193">
        <ele>946</ele>
        <time>2021-08-06T09:36:35.341Z</time>
      </trkpt>
      <trkpt lat="46.96639" lon="8.76192">
        <ele>946</ele>
        <time>2021-08-06T09:36:36.341Z</time>
      </trkpt>
      <trkpt lat="46.96639" lon="8.76191">
        <ele>946</ele>
        <time>2021-08-06T09:36:37.341Z</time>
      </trkpt>
      <trkpt lat="46.96638" lon="8.76189">
        <ele>947</ele>
        <time>2021-08-06T09:36:38.341Z</time>
      </trkpt>
      <trkpt lat="46.96637" lon="8.76187">
        <ele>947</ele>
        <time>2021-08-06T09:36:39.341Z</time>
      </trkpt>
      <trkpt lat="46.96637" lon="8.76186">
        <ele>947</ele>
        <time>2021-08-06T09:36:40.341Z</time>
      </trkpt>
      <trkpt lat="46.96636" lon="8.76185">
        <ele>947</ele>
        <time>2021-08-06T09:36:41.341Z</time>
      </trkpt>
      <trkpt lat="46.96636" lon="8.76184">
        <ele>946</ele>
        <time>2021-08-06T09:36:42.340Z</time>
      </trkpt>
      <trkpt lat="46.96636" lon="8.76182">
        <ele>946</ele>
        <time>2021-08-06T09:36:43.340Z</time>
      </trkpt>
      <trkpt lat="46.96636" lon="8.76181">
        <ele>946</ele>
        <time>2021-08-06T09:36:44.341Z</time>
      </trkpt>
      <trkpt lat="46.96635" lon="8.76179">
        <ele>946</ele>
        <time>2021-08-06T09:36:45.341Z</time>
      </trkpt>
      <trkpt lat="46.96635" lon="8.76178">
        <ele>946</ele>
        <time>2021-08-06T09:36:46.341Z</time>
      </trkpt>
      <trkpt lat="46.96635" lon="8.76177">
        <ele>946</ele>
        <time>2021-08-06T09:36:47.341Z</time>
      </trkpt>
      <trkpt lat="46.96635" lon="8.76175">
        <ele>946</ele>
        <time>2021-08-06T09:36:48.340Z</time>
      </trkpt>
      <trkpt lat="46.96634" lon="8.76174">
        <ele>946</ele>
        <time>2021-08-06T09:36:49.341Z</time>
      </trkpt>
      <trkpt lat="46.96634" lon="8.76172">
        <ele>945</ele>
        <time>2021-08-06T09:36:50.341Z</time>
      </trkpt>
      <trkpt lat="46.96633" lon="8.76171">
        <ele>945</ele>
        <time>2021-08-06T09:36:51.341Z</time>
      </trkpt>
      <trkpt lat="46.96633" lon="8.7617">
        <ele>945</ele>
        <time>2021-08-06T09:36:52.341Z</time>
      </trkpt>
      <trkpt lat="46.96633" lon="8.7617">
        <ele>944</ele>
        <time>2021-08-06T09:36:53.341Z</time>
      </trkpt>
      <trkpt lat="46.96632" lon="8.76169">
        <ele>944</ele>
        <time>2021-08-06T09:36:54.341Z</time>
      </trkpt>
      <trkpt lat="46.96632" lon="8.76168">
        <ele>944</ele>
        <time>2021-08-06T09:36:55.341Z</time>
      </trkpt>
      <trkpt lat="46.96632" lon="8.76166">
        <ele>944</ele>
        <time>2021-08-06T09:36:56.341Z</time>
      </trkpt>
      <trkpt lat="46.96632" lon="8.76165">
        <ele>943</ele>
        <time>2021-08-06T09:36:57.340Z</time>
      </trkpt>
      <trkpt lat="46.96631" lon="8.76163">
        <ele>943</ele>
        <time>2021-08-06T09:36:58.341Z</time>
      </trkpt>
      <trkpt lat="46.9663" lon="8.76162">
        <ele>943</ele>
        <time>2021-08-06T09:36:59.341Z</time>
      </trkpt>
      <trkpt lat="46.9663" lon="8.76161">
        <ele>943</ele>
        <time>2021-08-06T09:37:00.340Z</time>
      </trkpt>
      <trkpt lat="46.9663" lon="8.76159">
        <ele>943</ele>
        <time>2021-08-06T09:37:01.340Z</time>
      </trkpt>
      <trkpt lat="46.9663" lon="8.76159">
        <ele>943</ele>
        <time>2021-08-06T09:37:02.341Z</time>
      </trkpt>
      <trkpt lat="46.96631" lon="8.76157">
        <ele>942</ele>
        <time>2021-08-06T09:37:03.341Z</time>
      </trkpt>
      <trkpt lat="46.96631" lon="8.76155">
        <ele>942</ele>
        <time>2021-08-06T09:37:04.341Z</time>
      </trkpt>
      <trkpt lat="46.96631" lon="8.76154">
        <ele>942</ele>
        <time>2021-08-06T09:37:05.341Z</time>
      </trkpt>
      <trkpt lat="46.9663" lon="8.76152">
        <ele>943</ele>
        <time>2021-08-06T09:37:06.340Z</time>
      </trkpt>
      <trkpt lat="46.9663" lon="8.76151">
        <ele>943</ele>
        <time>2021-08-06T09:37:07.340Z</time>
      </trkpt>
      <trkpt lat="46.9663" lon="8.76149">
        <ele>943</ele>
        <time>2021-08-06T09:37:08.341Z</time>
      </trkpt>
      <trkpt lat="46.96629" lon="8.76148">
        <ele>944</ele>
        <time>2021-08-06T09:37:09.341Z</time>
      </trkpt>
      <trkpt lat="46.9663" lon="8.76147">
        <ele>944</ele>
        <time>2021-08-06T09:37:10.341Z</time>
      </trkpt>
      <trkpt lat="46.9663" lon="8.76145">
        <ele>945</ele>
        <time>2021-08-06T09:37:11.341Z</time>
      </trkpt>
      <trkpt lat="46.96629" lon="8.76144">
        <ele>946</ele>
        <time>2021-08-06T09:37:12.341Z</time>
      </trkpt>
      <trkpt lat="46.96629" lon="8.76143">
        <ele>946</ele>
        <time>2021-08-06T09:37:13.340Z</time>
      </trkpt>
      <trkpt lat="46.9663" lon="8.76142">
        <ele>947</ele>
        <time>2021-08-06T09:37:14.341Z</time>
      </trkpt>
      <trkpt lat="46.96629" lon="8.76141">
        <ele>947</ele>
        <time>2021-08-06T09:37:15.341Z</time>
      </trkpt>
      <trkpt lat="46.96629" lon="8.7614">
        <ele>948</ele>
        <time>2021-08-06T09:37:16.340Z</time>
      </trkpt>
      <trkpt lat="46.9663" lon="8.76139">
        <ele>949</ele>
        <time>2021-08-06T09:37:17.341Z</time>
      </trkpt>
      <trkpt lat="46.96629" lon="8.76138">
        <ele>949</ele>
        <time>2021-08-06T09:37:18.341Z</time>
      </trkpt>
      <trkpt lat="46.96629" lon="8.76136">
        <ele>949</ele>
        <time>2021-08-06T09:37:19.341Z</time>
      </trkpt>
      <trkpt lat="46.96629" lon="8.76135">
        <ele>949</ele>
        <time>2021-08-06T09:37:20.340Z</time>
      </trkpt>
      <trkpt lat="46.96629" lon="8.76134">
        <ele>948</ele>
        <time>2021-08-06T09:37:21.340Z</time>
      </trkpt>
      <trkpt lat="46.96628" lon="8.76133">
        <ele>948</ele>
        <time>2021-08-06T09:37:22.340Z</time>
      </trkpt>
      <trkpt lat="46.96628" lon="8.76133">
        <ele>948</ele>
        <time>2021-08-06T09:37:23.341Z</time>
      </trkpt>
      <trkpt lat="46.96629" lon="8.76131">
        <ele>948</ele>
        <time>2021-08-06T09:37:24.340Z</time>
      </trkpt>
      <trkpt lat="46.9663" lon="8.7613">
        <ele>948</ele>
        <time>2021-08-06T09:37:25.341Z</time>
      </trkpt>
      <trkpt lat="46.96629" lon="8.76129">
        <ele>949</ele>
        <time>2021-08-06T09:37:26.340Z</time>
      </trkpt>
      <trkpt lat="46.96628" lon="8.76128">
        <ele>949</ele>
        <time>2021-08-06T09:37:27.340Z</time>
      </trkpt>
      <trkpt lat="46.96628" lon="8.76127">
        <ele>949</ele>
        <time>2021-08-06T09:37:28.340Z</time>
      </trkpt>
      <trkpt lat="46.96627" lon="8.76126">
        <ele>949</ele>
        <time>2021-08-06T09:37:29.340Z</time>
      </trkpt>
      <trkpt lat="46.96627" lon="8.76124">
        <ele>949</ele>
        <time>2021-08-06T09:37:30.340Z</time>
      </trkpt>
      <trkpt lat="46.96627" lon="8.76123">
        <ele>950</ele>
        <time>2021-08-06T09:37:31.340Z</time>
      </trkpt>
      <trkpt lat="46.96627" lon="8.76122">
        <ele>950</ele>
        <time>2021-08-06T09:37:32.340Z</time>
      </trkpt>
      <trkpt lat="46.96627" lon="8.76121">
        <ele>951</ele>
        <time>2021-08-06T09:37:33.340Z</time>
      </trkpt>
      <trkpt lat="46.96626" lon="8.7612">
        <ele>951</ele>
        <time>2021-08-06T09:37:34.340Z</time>
      </trkpt>
      <trkpt lat="46.96626" lon="8.76119">
        <ele>951</ele>
        <time>2021-08-06T09:37:35.340Z</time>
      </trkpt>
      <trkpt lat="46.96625" lon="8.76118">
        <ele>951</ele>
        <time>2021-08-06T09:37:36.340Z</time>
      </trkpt>
      <trkpt lat="46.96624" lon="8.76117">
        <ele>952</ele>
        <time>2021-08-06T09:37:37.341Z</time>
      </trkpt>
      <trkpt lat="46.96623" lon="8.76116">
        <ele>952</ele>
        <time>2021-08-06T09:37:38.340Z</time>
      </trkpt>
      <trkpt lat="46.96622" lon="8.76115">
        <ele>952</ele>
        <time>2021-08-06T09:37:39.341Z</time>
      </trkpt>
      <trkpt lat="46.96622" lon="8.76113">
        <ele>953</ele>
        <time>2021-08-06T09:37:40.341Z</time>
      </trkpt>
      <trkpt lat="46.96621" lon="8.76112">
        <ele>954</ele>
        <time>2021-08-06T09:37:41.340Z</time>
      </trkpt>
      <trkpt lat="46.9662" lon="8.76112">
        <ele>954</ele>
        <time>2021-08-06T09:37:42.341Z</time>
      </trkpt>
      <trkpt lat="46.96619" lon="8.76111">
        <ele>955</ele>
        <time>2021-08-06T09:37:43.341Z</time>
      </trkpt>
      <trkpt lat="46.96619" lon="8.7611">
        <ele>956</ele>
        <time>2021-08-06T09:37:44.341Z</time>
      </trkpt>
      <trkpt lat="46.96619" lon="8.76108">
        <ele>956</ele>
        <time>2021-08-06T09:37:45.341Z</time>
      </trkpt>
      <trkpt lat="46.96618" lon="8.76107">
        <ele>957</ele>
        <time>2021-08-06T09:37:46.341Z</time>
      </trkpt>
      <trkpt lat="46.96617" lon="8.76106">
        <ele>957</ele>
        <time>2021-08-06T09:37:47.341Z</time>
      </trkpt>
      <trkpt lat="46.96616" lon="8.76104">
        <ele>957</ele>
        <time>2021-08-06T09:37:48.341Z</time>
      </trkpt>
      <trkpt lat="46.96615" lon="8.76103">
        <ele>957</ele>
        <time>2021-08-06T09:37:49.341Z</time>
      </trkpt>
      <trkpt lat="46.96614" lon="8.76102">
        <ele>957</ele>
        <time>2021-08-06T09:37:50.341Z</time>
      </trkpt>
      <trkpt lat="46.96614" lon="8.761">
        <ele>957</ele>
        <time>2021-08-06T09:37:51.341Z</time>
      </trkpt>
      <trkpt lat="46.96614" lon="8.76099">
        <ele>957</ele>
        <time>2021-08-06T09:37:52.340Z</time>
      </trkpt>
      <trkpt lat="46.96614" lon="8.76097">
        <ele>956</ele>
        <time>2021-08-06T09:37:53.341Z</time>
      </trkpt>
      <trkpt lat="46.96614" lon="8.76096">
        <ele>956</ele>
        <time>2021-08-06T09:37:54.341Z</time>
      </trkpt>
      <trkpt lat="46.96614" lon="8.76094">
        <ele>955</ele>
        <time>2021-08-06T09:37:55.341Z</time>
      </trkpt>
      <trkpt lat="46.96613" lon="8.76094">
        <ele>955</ele>
        <time>2021-08-06T09:37:56.341Z</time>
      </trkpt>
      <trkpt lat="46.96613" lon="8.76093">
        <ele>955</ele>
        <time>2021-08-06T09:37:57.341Z</time>
      </trkpt>
      <trkpt lat="46.96613" lon="8.76091">
        <ele>955</ele>
        <time>2021-08-06T09:37:58.341Z</time>
      </trkpt>
      <trkpt lat="46.96613" lon="8.76089">
        <ele>955</ele>
        <time>2021-08-06T09:37:59.341Z</time>
      </trkpt>
      <trkpt lat="46.96613" lon="8.76086">
        <ele>955</ele>
        <time>2021-08-06T09:38:00.341Z</time>
      </trkpt>
      <trkpt lat="46.96614" lon="8.76084">
        <ele>955</ele>
        <time>2021-08-06T09:38:01.341Z</time>
      </trkpt>
      <trkpt lat="46.96614" lon="8.76083">
        <ele>956</ele>
        <time>2021-08-06T09:38:02.340Z</time>
      </trkpt>
      <trkpt lat="46.96614" lon="8.76082">
        <ele>956</ele>
        <time>2021-08-06T09:38:03.340Z</time>
      </trkpt>
      <trkpt lat="46.96612" lon="8.76081">
        <ele>956</ele>
        <time>2021-08-06T09:38:04.341Z</time>
      </trkpt>
      <trkpt lat="46.96612" lon="8.76079">
        <ele>956</ele>
        <time>2021-08-06T09:38:05.341Z</time>
      </trkpt>
      <trkpt lat="46.96612" lon="8.76077">
        <ele>957</ele>
        <time>2021-08-06T09:38:06.341Z</time>
      </trkpt>
      <trkpt lat="46.96612" lon="8.76074">
        <ele>957</ele>
        <time>2021-08-06T09:38:07.341Z</time>
      </trkpt>
      <trkpt lat="46.96611" lon="8.76073">
        <ele>956</ele>
        <time>2021-08-06T09:38:08.340Z</time>
      </trkpt>
      <trkpt lat="46.96611" lon="8.76072">
        <ele>957</ele>
        <time>2021-08-06T09:38:09.340Z</time>
      </trkpt>
      <trkpt lat="46.96612" lon="8.76071">
        <ele>957</ele>
        <time>2021-08-06T09:38:10.340Z</time>
      </trkpt>
      <trkpt lat="46.96611" lon="8.7607">
        <ele>958</ele>
        <time>2021-08-06T09:38:11.340Z</time>
      </trkpt>
      <trkpt lat="46.96609" lon="8.76068">
        <ele>958</ele>
        <time>2021-08-06T09:38:12.340Z</time>
      </trkpt>
      <trkpt lat="46.96608" lon="8.76067">
        <ele>959</ele>
        <time>2021-08-06T09:38:13.340Z</time>
      </trkpt>
      <trkpt lat="46.96606" lon="8.76066">
        <ele>959</ele>
        <time>2021-08-06T09:38:14.340Z</time>
      </trkpt>
      <trkpt lat="46.96604" lon="8.76065">
        <ele>959</ele>
        <time>2021-08-06T09:38:15.340Z</time>
      </trkpt>
      <trkpt lat="46.96603" lon="8.76064">
        <ele>959</ele>
        <time>2021-08-06T09:38:16.340Z</time>
      </trkpt>
      <trkpt lat="46.96602" lon="8.76063">
        <ele>959</ele>
        <time>2021-08-06T09:38:17.341Z</time>
      </trkpt>
      <trkpt lat="46.96602" lon="8.76062">
        <ele>959</ele>
        <time>2021-08-06T09:38:18.340Z</time>
      </trkpt>
      <trkpt lat="46.96601" lon="8.76061">
        <ele>958</ele>
        <time>2021-08-06T09:38:19.341Z</time>
      </trkpt>
      <trkpt lat="46.966" lon="8.76059">
        <ele>958</ele>
        <time>2021-08-06T09:38:20.341Z</time>
      </trkpt>
      <trkpt lat="46.966" lon="8.76058">
        <ele>957</ele>
        <time>2021-08-06T09:38:21.341Z</time>
      </trkpt>
      <trkpt lat="46.96599" lon="8.76057">
        <ele>957</ele>
        <time>2021-08-06T09:38:22.341Z</time>
      </trkpt>
      <trkpt lat="46.96598" lon="8.76056">
        <ele>957</ele>
        <time>2021-08-06T09:38:23.340Z</time>
      </trkpt>
      <trkpt lat="46.96597" lon="8.76054">
        <ele>956</ele>
        <time>2021-08-06T09:38:24.341Z</time>
      </trkpt>
      <trkpt lat="46.96597" lon="8.76053">
        <ele>956</ele>
        <time>2021-08-06T09:38:25.341Z</time>
      </trkpt>
      <trkpt lat="46.96597" lon="8.76052">
        <ele>956</ele>
        <time>2021-08-06T09:38:26.341Z</time>
      </trkpt>
      <trkpt lat="46.96596" lon="8.7605">
        <ele>956</ele>
        <time>2021-08-06T09:38:27.341Z</time>
      </trkpt>
      <trkpt lat="46.96596" lon="8.7605">
        <ele>956</ele>
        <time>2021-08-06T09:38:28.340Z</time>
      </trkpt>
      <trkpt lat="46.96596" lon="8.76049">
        <ele>955</ele>
        <time>2021-08-06T09:38:29.341Z</time>
      </trkpt>
      <trkpt lat="46.96596" lon="8.76047">
        <ele>956</ele>
        <time>2021-08-06T09:38:30.341Z</time>
      </trkpt>
      <trkpt lat="46.96596" lon="8.76046">
        <ele>956</ele>
        <time>2021-08-06T09:38:31.341Z</time>
      </trkpt>
      <trkpt lat="46.96596" lon="8.76045">
        <ele>956</ele>
        <time>2021-08-06T09:38:32.341Z</time>
      </trkpt>
      <trkpt lat="46.96596" lon="8.76044">
        <ele>957</ele>
        <time>2021-08-06T09:38:33.340Z</time>
      </trkpt>
      <trkpt lat="46.96597" lon="8.76041">
        <ele>957</ele>
        <time>2021-08-06T09:38:34.341Z</time>
      </trkpt>
      <trkpt lat="46.96596" lon="8.7604">
        <ele>958</ele>
        <time>2021-08-06T09:38:35.340Z</time>
      </trkpt>
      <trkpt lat="46.96596" lon="8.76039">
        <ele>958</ele>
        <time>2021-08-06T09:38:36.341Z</time>
      </trkpt>
      <trkpt lat="46.96597" lon="8.76036">
        <ele>959</ele>
        <time>2021-08-06T09:38:37.340Z</time>
      </trkpt>
      <trkpt lat="46.96596" lon="8.76035">
        <ele>959</ele>
        <time>2021-08-06T09:38:38.340Z</time>
      </trkpt>
      <trkpt lat="46.96596" lon="8.76033">
        <ele>960</ele>
        <time>2021-08-06T09:38:39.340Z</time>
      </trkpt>
      <trkpt lat="46.96596" lon="8.76031">
        <ele>960</ele>
        <time>2021-08-06T09:38:40.341Z</time>
      </trkpt>
      <trkpt lat="46.96596" lon="8.7603">
        <ele>961</ele>
        <time>2021-08-06T09:38:41.340Z</time>
      </trkpt>
      <trkpt lat="46.96596" lon="8.76029">
        <ele>962</ele>
        <time>2021-08-06T09:38:42.341Z</time>
      </trkpt>
      <trkpt lat="46.96596" lon="8.76027">
        <ele>963</ele>
        <time>2021-08-06T09:38:43.341Z</time>
      </trkpt>
      <trkpt lat="46.96596" lon="8.76026">
        <ele>963</ele>
        <time>2021-08-06T09:38:44.341Z</time>
      </trkpt>
      <trkpt lat="46.96597" lon="8.76024">
        <ele>964</ele>
        <time>2021-08-06T09:38:45.341Z</time>
      </trkpt>
      <trkpt lat="46.96597" lon="8.76022">
        <ele>964</ele>
        <time>2021-08-06T09:38:46.341Z</time>
      </trkpt>
      <trkpt lat="46.96596" lon="8.76021">
        <ele>964</ele>
        <time>2021-08-06T09:38:47.340Z</time>
      </trkpt>
      <trkpt lat="46.96596" lon="8.7602">
        <ele>965</ele>
        <time>2021-08-06T09:38:48.340Z</time>
      </trkpt>
      <trkpt lat="46.96597" lon="8.76018">
        <ele>965</ele>
        <time>2021-08-06T09:38:49.340Z</time>
      </trkpt>
      <trkpt lat="46.96597" lon="8.76017">
        <ele>965</ele>
        <time>2021-08-06T09:38:50.341Z</time>
      </trkpt>
      <trkpt lat="46.96597" lon="8.76016">
        <ele>966</ele>
        <time>2021-08-06T09:38:51.341Z</time>
      </trkpt>
      <trkpt lat="46.96597" lon="8.76014">
        <ele>966</ele>
        <time>2021-08-06T09:38:52.341Z</time>
      </trkpt>
      <trkpt lat="46.96597" lon="8.76013">
        <ele>966</ele>
        <time>2021-08-06T09:38:53.340Z</time>
      </trkpt>
      <trkpt lat="46.96597" lon="8.76012">
        <ele>966</ele>
        <time>2021-08-06T09:38:54.341Z</time>
      </trkpt>
      <trkpt lat="46.96597" lon="8.76011">
        <ele>967</ele>
        <time>2021-08-06T09:38:55.341Z</time>
      </trkpt>
      <trkpt lat="46.96596" lon="8.7601">
        <ele>967</ele>
        <time>2021-08-06T09:38:56.341Z</time>
      </trkpt>
      <trkpt lat="46.96596" lon="8.76009">
        <ele>967</ele>
        <time>2021-08-06T09:38:57.340Z</time>
      </trkpt>
      <trkpt lat="46.96595" lon="8.76008">
        <ele>967</ele>
        <time>2021-08-06T09:38:58.341Z</time>
      </trkpt>
      <trkpt lat="46.96595" lon="8.76006">
        <ele>968</ele>
        <time>2021-08-06T09:38:59.340Z</time>
      </trkpt>
      <trkpt lat="46.96595" lon="8.76005">
        <ele>968</ele>
        <time>2021-08-06T09:39:00.340Z</time>
      </trkpt>
      <trkpt lat="46.96595" lon="8.76004">
        <ele>968</ele>
        <time>2021-08-06T09:39:01.341Z</time>
      </trkpt>
      <trkpt lat="46.96596" lon="8.76002">
        <ele>968</ele>
        <time>2021-08-06T09:39:02.341Z</time>
      </trkpt>
      <trkpt lat="46.96596" lon="8.76">
        <ele>967</ele>
        <time>2021-08-06T09:39:03.341Z</time>
      </trkpt>
      <trkpt lat="46.96596" lon="8.75999">
        <ele>967</ele>
        <time>2021-08-06T09:39:04.341Z</time>
      </trkpt>
      <trkpt lat="46.96595" lon="8.75997">
        <ele>967</ele>
        <time>2021-08-06T09:39:05.340Z</time>
      </trkpt>
      <trkpt lat="46.96595" lon="8.75996">
        <ele>968</ele>
        <time>2021-08-06T09:39:06.341Z</time>
      </trkpt>
      <trkpt lat="46.96594" lon="8.75995">
        <ele>968</ele>
        <time>2021-08-06T09:39:07.341Z</time>
      </trkpt>
      <trkpt lat="46.96592" lon="8.75994">
        <ele>969</ele>
        <time>2021-08-06T09:39:08.341Z</time>
      </trkpt>
      <trkpt lat="46.96592" lon="8.75993">
        <ele>969</ele>
        <time>2021-08-06T09:39:09.341Z</time>
      </trkpt>
      <trkpt lat="46.96592" lon="8.75991">
        <ele>969</ele>
        <time>2021-08-06T09:39:10.340Z</time>
      </trkpt>
      <trkpt lat="46.96591" lon="8.7599">
        <ele>969</ele>
        <time>2021-08-06T09:39:11.341Z</time>
      </trkpt>
      <trkpt lat="46.96591" lon="8.75989">
        <ele>969</ele>
        <time>2021-08-06T09:39:12.341Z</time>
      </trkpt>
      <trkpt lat="46.9659" lon="8.75988">
        <ele>969</ele>
        <time>2021-08-06T09:39:13.341Z</time>
      </trkpt>
      <trkpt lat="46.96588" lon="8.75987">
        <ele>970</ele>
        <time>2021-08-06T09:39:14.340Z</time>
      </trkpt>
      <trkpt lat="46.96587" lon="8.75986">
        <ele>970</ele>
        <time>2021-08-06T09:39:15.341Z</time>
      </trkpt>
      <trkpt lat="46.96587" lon="8.75984">
        <ele>970</ele>
        <time>2021-08-06T09:39:16.341Z</time>
      </trkpt>
      <trkpt lat="46.96587" lon="8.75983">
        <ele>970</ele>
        <time>2021-08-06T09:39:17.341Z</time>
      </trkpt>
      <trkpt lat="46.96587" lon="8.75981">
        <ele>970</ele>
        <time>2021-08-06T09:39:18.341Z</time>
      </trkpt>
      <trkpt lat="46.96586" lon="8.7598">
        <ele>970</ele>
        <time>2021-08-06T09:39:19.341Z</time>
      </trkpt>
      <trkpt lat="46.96584" lon="8.75979">
        <ele>970</ele>
        <time>2021-08-06T09:39:20.341Z</time>
      </trkpt>
      <trkpt lat="46.96583" lon="8.75978">
        <ele>970</ele>
        <time>2021-08-06T09:39:21.341Z</time>
      </trkpt>
      <trkpt lat="46.96581" lon="8.75977">
        <ele>970</ele>
        <time>2021-08-06T09:39:22.341Z</time>
      </trkpt>
      <trkpt lat="46.96581" lon="8.75977">
        <ele>969</ele>
        <time>2021-08-06T09:39:23.340Z</time>
      </trkpt>
      <trkpt lat="46.96581" lon="8.75976">
        <ele>970</ele>
        <time>2021-08-06T09:39:24.340Z</time>
      </trkpt>
      <trkpt lat="46.96581" lon="8.75975">
        <ele>970</ele>
        <time>2021-08-06T09:39:25.340Z</time>
      </trkpt>
      <trkpt lat="46.9658" lon="8.75975">
        <ele>970</ele>
        <time>2021-08-06T09:39:26.341Z</time>
      </trkpt>
      <trkpt lat="46.96579" lon="8.75974">
        <ele>970</ele>
        <time>2021-08-06T09:39:27.341Z</time>
      </trkpt>
      <trkpt lat="46.96578" lon="8.75973">
        <ele>970</ele>
        <time>2021-08-06T09:39:28.341Z</time>
      </trkpt>
      <trkpt lat="46.96577" lon="8.75973">
        <ele>970</ele>
        <time>2021-08-06T09:39:29.341Z</time>
      </trkpt>
      <trkpt lat="46.96577" lon="8.75972">
        <ele>969</ele>
        <time>2021-08-06T09:39:30.341Z</time>
      </trkpt>
      <trkpt lat="46.96576" lon="8.75971">
        <ele>968</ele>
        <time>2021-08-06T09:39:31.341Z</time>
      </trkpt>
      <trkpt lat="46.96576" lon="8.75969">
        <ele>967</ele>
        <time>2021-08-06T09:39:32.341Z</time>
      </trkpt>
      <trkpt lat="46.96576" lon="8.75968">
        <ele>966</ele>
        <time>2021-08-06T09:39:33.341Z</time>
      </trkpt>
      <trkpt lat="46.96576" lon="8.75966">
        <ele>965</ele>
        <time>2021-08-06T09:39:34.340Z</time>
      </trkpt>
      <trkpt lat="46.96575" lon="8.75964">
        <ele>964</ele>
        <time>2021-08-06T09:39:35.341Z</time>
      </trkpt>
      <trkpt lat="46.96575" lon="8.75962">
        <ele>964</ele>
        <time>2021-08-06T09:39:36.341Z</time>
      </trkpt>
      <trkpt lat="46.96574" lon="8.7596">
        <ele>963</ele>
        <time>2021-08-06T09:39:37.341Z</time>
      </trkpt>
      <trkpt lat="46.96574" lon="8.75959">
        <ele>963</ele>
        <time>2021-08-06T09:39:38.341Z</time>
      </trkpt>
      <trkpt lat="46.96573" lon="8.75957">
        <ele>963</ele>
        <time>2021-08-06T09:39:39.340Z</time>
      </trkpt>
      <trkpt lat="46.96572" lon="8.75955">
        <ele>963</ele>
        <time>2021-08-06T09:39:40.340Z</time>
      </trkpt>
      <trkpt lat="46.96572" lon="8.75954">
        <ele>963</ele>
        <time>2021-08-06T09:39:41.341Z</time>
      </trkpt>
      <trkpt lat="46.96571" lon="8.75952">
        <ele>963</ele>
        <time>2021-08-06T09:39:42.340Z</time>
      </trkpt>
      <trkpt lat="46.96571" lon="8.75951">
        <ele>963</ele>
        <time>2021-08-06T09:39:43.341Z</time>
      </trkpt>
      <trkpt lat="46.9657" lon="8.75949">
        <ele>963</ele>
        <time>2021-08-06T09:39:44.341Z</time>
      </trkpt>
      <trkpt lat="46.9657" lon="8.75947">
        <ele>963</ele>
        <time>2021-08-06T09:39:45.340Z</time>
      </trkpt>
      <trkpt lat="46.9657" lon="8.75946">
        <ele>963</ele>
        <time>2021-08-06T09:39:46.341Z</time>
      </trkpt>
      <trkpt lat="46.9657" lon="8.75944">
        <ele>963</ele>
        <time>2021-08-06T09:39:47.341Z</time>
      </trkpt>
      <trkpt lat="46.96569" lon="8.75942">
        <ele>963</ele>
        <time>2021-08-06T09:39:48.340Z</time>
      </trkpt>
      <trkpt lat="46.96569" lon="8.7594">
        <ele>962</ele>
        <time>2021-08-06T09:39:49.341Z</time>
      </trkpt>
      <trkpt lat="46.96569" lon="8.75939">
        <ele>962</ele>
        <time>2021-08-06T09:39:50.341Z</time>
      </trkpt>
      <trkpt lat="46.96569" lon="8.75936">
        <ele>962</ele>
        <time>2021-08-06T09:39:51.341Z</time>
      </trkpt>
      <trkpt lat="46.9657" lon="8.75934">
        <ele>962</ele>
        <time>2021-08-06T09:39:52.340Z</time>
      </trkpt>
      <trkpt lat="46.9657" lon="8.75932">
        <ele>962</ele>
        <time>2021-08-06T09:39:53.341Z</time>
      </trkpt>
      <trkpt lat="46.9657" lon="8.7593">
        <ele>962</ele>
        <time>2021-08-06T09:39:54.340Z</time>
      </trkpt>
      <trkpt lat="46.9657" lon="8.75928">
        <ele>963</ele>
        <time>2021-08-06T09:39:55.340Z</time>
      </trkpt>
      <trkpt lat="46.9657" lon="8.75925">
        <ele>963</ele>
        <time>2021-08-06T09:39:56.341Z</time>
      </trkpt>
      <trkpt lat="46.9657" lon="8.75924">
        <ele>963</ele>
        <time>2021-08-06T09:39:57.341Z</time>
      </trkpt>
      <trkpt lat="46.96569" lon="8.75922">
        <ele>964</ele>
        <time>2021-08-06T09:39:58.341Z</time>
      </trkpt>
      <trkpt lat="46.96569" lon="8.75921">
        <ele>964</ele>
        <time>2021-08-06T09:39:59.341Z</time>
      </trkpt>
      <trkpt lat="46.96569" lon="8.75919">
        <ele>964</ele>
        <time>2021-08-06T09:40:00.341Z</time>
      </trkpt>
      <trkpt lat="46.96568" lon="8.75918">
        <ele>965</ele>
        <time>2021-08-06T09:40:01.340Z</time>
      </trkpt>
      <trkpt lat="46.96567" lon="8.75917">
        <ele>965</ele>
        <time>2021-08-06T09:40:02.340Z</time>
      </trkpt>
      <trkpt lat="46.96566" lon="8.75915">
        <ele>965</ele>
        <time>2021-08-06T09:40:03.341Z</time>
      </trkpt>
      <trkpt lat="46.96565" lon="8.75914">
        <ele>965</ele>
        <time>2021-08-06T09:40:04.341Z</time>
      </trkpt>
      <trkpt lat="46.96564" lon="8.75912">
        <ele>965</ele>
        <time>2021-08-06T09:40:05.341Z</time>
      </trkpt>
      <trkpt lat="46.96564" lon="8.7591">
        <ele>965</ele>
        <time>2021-08-06T09:40:06.340Z</time>
      </trkpt>
      <trkpt lat="46.96564" lon="8.75908">
        <ele>965</ele>
        <time>2021-08-06T09:40:07.340Z</time>
      </trkpt>
      <trkpt lat="46.96564" lon="8.75906">
        <ele>965</ele>
        <time>2021-08-06T09:40:08.341Z</time>
      </trkpt>
      <trkpt lat="46.96562" lon="8.75905">
        <ele>966</ele>
        <time>2021-08-06T09:40:09.341Z</time>
      </trkpt>
      <trkpt lat="46.96561" lon="8.75904">
        <ele>966</ele>
        <time>2021-08-06T09:40:10.340Z</time>
      </trkpt>
      <trkpt lat="46.9656" lon="8.75902">
        <ele>966</ele>
        <time>2021-08-06T09:40:11.341Z</time>
      </trkpt>
      <trkpt lat="46.9656" lon="8.75901">
        <ele>967</ele>
        <time>2021-08-06T09:40:12.340Z</time>
      </trkpt>
      <trkpt lat="46.9656" lon="8.75899">
        <ele>967</ele>
        <time>2021-08-06T09:40:13.341Z</time>
      </trkpt>
      <trkpt lat="46.9656" lon="8.75897">
        <ele>967</ele>
        <time>2021-08-06T09:40:14.340Z</time>
      </trkpt>
      <trkpt lat="46.96559" lon="8.75896">
        <ele>967</ele>
        <time>2021-08-06T09:40:15.341Z</time>
      </trkpt>
      <trkpt lat="46.96559" lon="8.75895">
        <ele>968</ele>
        <time>2021-08-06T09:40:16.341Z</time>
      </trkpt>
      <trkpt lat="46.96559" lon="8.75893">
        <ele>969</ele>
        <time>2021-08-06T09:40:17.340Z</time>
      </trkpt>
      <trkpt lat="46.96558" lon="8.75892">
        <ele>969</ele>
        <time>2021-08-06T09:40:18.341Z</time>
      </trkpt>
      <trkpt lat="46.96557" lon="8.75891">
        <ele>970</ele>
        <time>2021-08-06T09:40:19.341Z</time>
      </trkpt>
      <trkpt lat="46.96556" lon="8.7589">
        <ele>970</ele>
        <time>2021-08-06T09:40:20.341Z</time>
      </trkpt>
      <trkpt lat="46.96556" lon="8.75889">
        <ele>971</ele>
        <time>2021-08-06T09:40:21.341Z</time>
      </trkpt>
      <trkpt lat="46.96555" lon="8.75888">
        <ele>971</ele>
        <time>2021-08-06T09:40:22.340Z</time>
      </trkpt>
      <trkpt lat="46.96555" lon="8.75886">
        <ele>971</ele>
        <time>2021-08-06T09:40:23.341Z</time>
      </trkpt>
      <trkpt lat="46.96553" lon="8.75885">
        <ele>971</ele>
        <time>2021-08-06T09:40:24.341Z</time>
      </trkpt>
      <trkpt lat="46.96553" lon="8.75884">
        <ele>972</ele>
        <time>2021-08-06T09:40:25.341Z</time>
      </trkpt>
      <trkpt lat="46.96551" lon="8.75884">
        <ele>972</ele>
        <time>2021-08-06T09:40:26.341Z</time>
      </trkpt>
      <trkpt lat="46.96551" lon="8.75882">
        <ele>972</ele>
        <time>2021-08-06T09:40:27.340Z</time>
      </trkpt>
      <trkpt lat="46.96551" lon="8.7588">
        <ele>972</ele>
        <time>2021-08-06T09:40:28.341Z</time>
      </trkpt>
      <trkpt lat="46.96549" lon="8.7588">
        <ele>972</ele>
        <time>2021-08-06T09:40:29.341Z</time>
      </trkpt>
      <trkpt lat="46.96548" lon="8.75879">
        <ele>973</ele>
        <time>2021-08-06T09:40:30.340Z</time>
      </trkpt>
      <trkpt lat="46.96548" lon="8.75877">
        <ele>973</ele>
        <time>2021-08-06T09:40:31.341Z</time>
      </trkpt>
      <trkpt lat="46.96547" lon="8.75876">
        <ele>973</ele>
        <time>2021-08-06T09:40:32.341Z</time>
      </trkpt>
      <trkpt lat="46.96547" lon="8.75875">
        <ele>973</ele>
        <time>2021-08-06T09:40:33.341Z</time>
      </trkpt>
      <trkpt lat="46.96545" lon="8.75874">
        <ele>973</ele>
        <time>2021-08-06T09:40:34.340Z</time>
      </trkpt>
      <trkpt lat="46.96545" lon="8.75873">
        <ele>973</ele>
        <time>2021-08-06T09:40:35.341Z</time>
      </trkpt>
      <trkpt lat="46.96544" lon="8.75871">
        <ele>974</ele>
        <time>2021-08-06T09:40:36.341Z</time>
      </trkpt>
      <trkpt lat="46.96544" lon="8.7587">
        <ele>974</ele>
        <time>2021-08-06T09:40:37.341Z</time>
      </trkpt>
      <trkpt lat="46.96543" lon="8.75868">
        <ele>974</ele>
        <time>2021-08-06T09:40:38.340Z</time>
      </trkpt>
      <trkpt lat="46.96542" lon="8.75867">
        <ele>974</ele>
        <time>2021-08-06T09:40:39.341Z</time>
      </trkpt>
      <trkpt lat="46.96543" lon="8.75865">
        <ele>974</ele>
        <time>2021-08-06T09:40:40.341Z</time>
      </trkpt>
      <trkpt lat="46.96542" lon="8.75863">
        <ele>975</ele>
        <time>2021-08-06T09:40:41.341Z</time>
      </trkpt>
      <trkpt lat="46.96542" lon="8.75862">
        <ele>975</ele>
        <time>2021-08-06T09:40:42.340Z</time>
      </trkpt>
      <trkpt lat="46.96541" lon="8.7586">
        <ele>976</ele>
        <time>2021-08-06T09:40:43.341Z</time>
      </trkpt>
      <trkpt lat="46.96541" lon="8.75859">
        <ele>976</ele>
        <time>2021-08-06T09:40:44.341Z</time>
      </trkpt>
      <trkpt lat="46.96541" lon="8.75857">
        <ele>977</ele>
        <time>2021-08-06T09:40:45.341Z</time>
      </trkpt>
      <trkpt lat="46.96541" lon="8.75855">
        <ele>977</ele>
        <time>2021-08-06T09:40:46.341Z</time>
      </trkpt>
      <trkpt lat="46.96541" lon="8.75854">
        <ele>977</ele>
        <time>2021-08-06T09:40:47.340Z</time>
      </trkpt>
      <trkpt lat="46.9654" lon="8.75853">
        <ele>978</ele>
        <time>2021-08-06T09:40:48.341Z</time>
      </trkpt>
      <trkpt lat="46.9654" lon="8.75851">
        <ele>978</ele>
        <time>2021-08-06T09:40:49.341Z</time>
      </trkpt>
      <trkpt lat="46.9654" lon="8.75849">
        <ele>978</ele>
        <time>2021-08-06T09:40:50.341Z</time>
      </trkpt>
      <trkpt lat="46.9654" lon="8.75847">
        <ele>978</ele>
        <time>2021-08-06T09:40:51.340Z</time>
      </trkpt>
      <trkpt lat="46.9654" lon="8.75846">
        <ele>978</ele>
        <time>2021-08-06T09:40:52.341Z</time>
      </trkpt>
      <trkpt lat="46.96539" lon="8.75844">
        <ele>978</ele>
        <time>2021-08-06T09:40:53.341Z</time>
      </trkpt>
      <trkpt lat="46.96539" lon="8.75843">
        <ele>978</ele>
        <time>2021-08-06T09:40:54.341Z</time>
      </trkpt>
      <trkpt lat="46.96538" lon="8.75842">
        <ele>978</ele>
        <time>2021-08-06T09:40:55.341Z</time>
      </trkpt>
      <trkpt lat="46.96538" lon="8.7584">
        <ele>977</ele>
        <time>2021-08-06T09:40:56.341Z</time>
      </trkpt>
      <trkpt lat="46.96538" lon="8.75839">
        <ele>977</ele>
        <time>2021-08-06T09:40:57.341Z</time>
      </trkpt>
      <trkpt lat="46.96537" lon="8.75837">
        <ele>977</ele>
        <time>2021-08-06T09:40:58.341Z</time>
      </trkpt>
      <trkpt lat="46.96537" lon="8.75836">
        <ele>976</ele>
        <time>2021-08-06T09:40:59.341Z</time>
      </trkpt>
      <trkpt lat="46.96538" lon="8.75835">
        <ele>976</ele>
        <time>2021-08-06T09:41:00.341Z</time>
      </trkpt>
      <trkpt lat="46.96538" lon="8.75834">
        <ele>976</ele>
        <time>2021-08-06T09:41:01.341Z</time>
      </trkpt>
      <trkpt lat="46.96539" lon="8.75833">
        <ele>975</ele>
        <time>2021-08-06T09:41:02.341Z</time>
      </trkpt>
      <trkpt lat="46.96539" lon="8.75832">
        <ele>975</ele>
        <time>2021-08-06T09:41:03.340Z</time>
      </trkpt>
      <trkpt lat="46.9654" lon="8.75828">
        <ele>973</ele>
        <time>2021-08-06T09:41:04.341Z</time>
      </trkpt>
      <trkpt lat="46.9654" lon="8.75826">
        <ele>973</ele>
        <time>2021-08-06T09:41:05.341Z</time>
      </trkpt>
      <trkpt lat="46.9654" lon="8.75825">
        <ele>973</ele>
        <time>2021-08-06T09:41:06.341Z</time>
      </trkpt>
      <trkpt lat="46.96539" lon="8.75824">
        <ele>973</ele>
        <time>2021-08-06T09:41:07.341Z</time>
      </trkpt>
      <trkpt lat="46.96539" lon="8.75823">
        <ele>973</ele>
        <time>2021-08-06T09:41:08.341Z</time>
      </trkpt>
      <trkpt lat="46.96538" lon="8.75821">
        <ele>974</ele>
        <time>2021-08-06T09:41:09.341Z</time>
      </trkpt>
      <trkpt lat="46.96538" lon="8.7582">
        <ele>974</ele>
        <time>2021-08-06T09:41:10.341Z</time>
      </trkpt>
      <trkpt lat="46.96538" lon="8.75819">
        <ele>975</ele>
        <time>2021-08-06T09:41:11.341Z</time>
      </trkpt>
      <trkpt lat="46.96537" lon="8.75818">
        <ele>975</ele>
        <time>2021-08-06T09:41:12.340Z</time>
      </trkpt>
      <trkpt lat="46.96537" lon="8.75816">
        <ele>976</ele>
        <time>2021-08-06T09:41:13.341Z</time>
      </trkpt>
      <trkpt lat="46.96536" lon="8.75815">
        <ele>976</ele>
        <time>2021-08-06T09:41:14.340Z</time>
      </trkpt>
      <trkpt lat="46.96536" lon="8.75814">
        <ele>977</ele>
        <time>2021-08-06T09:41:15.340Z</time>
      </trkpt>
      <trkpt lat="46.96536" lon="8.75813">
        <ele>977</ele>
        <time>2021-08-06T09:41:16.341Z</time>
      </trkpt>
      <trkpt lat="46.96536" lon="8.75812">
        <ele>977</ele>
        <time>2021-08-06T09:41:17.340Z</time>
      </trkpt>
      <trkpt lat="46.96536" lon="8.7581">
        <ele>977</ele>
        <time>2021-08-06T09:41:18.340Z</time>
      </trkpt>
      <trkpt lat="46.96535" lon="8.75809">
        <ele>977</ele>
        <time>2021-08-06T09:41:19.340Z</time>
      </trkpt>
      <trkpt lat="46.96534" lon="8.75809">
        <ele>977</ele>
        <time>2021-08-06T09:41:20.340Z</time>
      </trkpt>
      <trkpt lat="46.96533" lon="8.75808">
        <ele>978</ele>
        <time>2021-08-06T09:41:21.341Z</time>
      </trkpt>
      <trkpt lat="46.96532" lon="8.75806">
        <ele>978</ele>
        <time>2021-08-06T09:41:22.340Z</time>
      </trkpt>
      <trkpt lat="46.96532" lon="8.75805">
        <ele>978</ele>
        <time>2021-08-06T09:41:23.340Z</time>
      </trkpt>
      <trkpt lat="46.96531" lon="8.75804">
        <ele>978</ele>
        <time>2021-08-06T09:41:24.340Z</time>
      </trkpt>
      <trkpt lat="46.96532" lon="8.75802">
        <ele>978</ele>
        <time>2021-08-06T09:41:25.340Z</time>
      </trkpt>
      <trkpt lat="46.96533" lon="8.758">
        <ele>978</ele>
        <time>2021-08-06T09:41:26.341Z</time>
      </trkpt>
      <trkpt lat="46.96532" lon="8.75799">
        <ele>978</ele>
        <time>2021-08-06T09:41:27.341Z</time>
      </trkpt>
      <trkpt lat="46.96532" lon="8.75797">
        <ele>978</ele>
        <time>2021-08-06T09:41:28.340Z</time>
      </trkpt>
      <trkpt lat="46.96531" lon="8.75796">
        <ele>978</ele>
        <time>2021-08-06T09:41:29.340Z</time>
      </trkpt>
      <trkpt lat="46.96531" lon="8.75795">
        <ele>978</ele>
        <time>2021-08-06T09:41:30.340Z</time>
      </trkpt>
      <trkpt lat="46.9653" lon="8.75795">
        <ele>978</ele>
        <time>2021-08-06T09:41:31.340Z</time>
      </trkpt>
      <trkpt lat="46.9653" lon="8.75794">
        <ele>978</ele>
        <time>2021-08-06T09:41:32.340Z</time>
      </trkpt>
      <trkpt lat="46.9653" lon="8.75793">
        <ele>977</ele>
        <time>2021-08-06T09:41:33.340Z</time>
      </trkpt>
      <trkpt lat="46.9653" lon="8.75792">
        <ele>977</ele>
        <time>2021-08-06T09:41:34.340Z</time>
      </trkpt>
      <trkpt lat="46.9653" lon="8.75791">
        <ele>978</ele>
        <time>2021-08-06T09:41:35.340Z</time>
      </trkpt>
      <trkpt lat="46.9653" lon="8.7579">
        <ele>978</ele>
        <time>2021-08-06T09:41:36.340Z</time>
      </trkpt>
      <trkpt lat="46.96529" lon="8.75789">
        <ele>978</ele>
        <time>2021-08-06T09:41:37.340Z</time>
      </trkpt>
      <trkpt lat="46.96529" lon="8.75788">
        <ele>979</ele>
        <time>2021-08-06T09:41:38.340Z</time>
      </trkpt>
      <trkpt lat="46.96529" lon="8.75787">
        <ele>980</ele>
        <time>2021-08-06T09:41:39.340Z</time>
      </trkpt>
      <trkpt lat="46.96528" lon="8.75785">
        <ele>981</ele>
        <time>2021-08-06T09:41:40.340Z</time>
      </trkpt>
      <trkpt lat="46.96528" lon="8.75783">
        <ele>982</ele>
        <time>2021-08-06T09:41:41.340Z</time>
      </trkpt>
      <trkpt lat="46.96528" lon="8.75782">
        <ele>983</ele>
        <time>2021-08-06T09:41:42.340Z</time>
      </trkpt>
      <trkpt lat="46.96527" lon="8.75781">
        <ele>983</ele>
        <time>2021-08-06T09:41:43.341Z</time>
      </trkpt>
      <trkpt lat="46.96527" lon="8.7578">
        <ele>984</ele>
        <time>2021-08-06T09:41:44.341Z</time>
      </trkpt>
      <trkpt lat="46.96526" lon="8.75778">
        <ele>985</ele>
        <time>2021-08-06T09:41:45.340Z</time>
      </trkpt>
      <trkpt lat="46.96526" lon="8.75777">
        <ele>985</ele>
        <time>2021-08-06T09:41:46.340Z</time>
      </trkpt>
      <trkpt lat="46.96525" lon="8.75776">
        <ele>986</ele>
        <time>2021-08-06T09:41:47.341Z</time>
      </trkpt>
      <trkpt lat="46.96526" lon="8.75774">
        <ele>986</ele>
        <time>2021-08-06T09:41:48.341Z</time>
      </trkpt>
      <trkpt lat="46.96526" lon="8.75772">
        <ele>986</ele>
        <time>2021-08-06T09:41:49.341Z</time>
      </trkpt>
      <trkpt lat="46.96526" lon="8.75771">
        <ele>987</ele>
        <time>2021-08-06T09:41:50.341Z</time>
      </trkpt>
      <trkpt lat="46.96526" lon="8.75769">
        <ele>987</ele>
        <time>2021-08-06T09:41:51.341Z</time>
      </trkpt>
      <trkpt lat="46.96526" lon="8.75768">
        <ele>987</ele>
        <time>2021-08-06T09:41:52.341Z</time>
      </trkpt>
      <trkpt lat="46.96526" lon="8.75766">
        <ele>987</ele>
        <time>2021-08-06T09:41:53.341Z</time>
      </trkpt>
      <trkpt lat="46.96525" lon="8.75765">
        <ele>987</ele>
        <time>2021-08-06T09:41:54.341Z</time>
      </trkpt>
      <trkpt lat="46.96525" lon="8.75763">
        <ele>987</ele>
        <time>2021-08-06T09:41:55.341Z</time>
      </trkpt>
      <trkpt lat="46.96524" lon="8.75761">
        <ele>987</ele>
        <time>2021-08-06T09:41:56.341Z</time>
      </trkpt>
      <trkpt lat="46.96526" lon="8.75758">
        <ele>987</ele>
        <time>2021-08-06T09:41:57.340Z</time>
      </trkpt>
      <trkpt lat="46.96526" lon="8.75757">
        <ele>987</ele>
        <time>2021-08-06T09:41:58.341Z</time>
      </trkpt>
      <trkpt lat="46.96526" lon="8.75755">
        <ele>987</ele>
        <time>2021-08-06T09:41:59.341Z</time>
      </trkpt>
      <trkpt lat="46.96526" lon="8.75754">
        <ele>988</ele>
        <time>2021-08-06T09:42:00.341Z</time>
      </trkpt>
      <trkpt lat="46.96526" lon="8.75753">
        <ele>988</ele>
        <time>2021-08-06T09:42:01.341Z</time>
      </trkpt>
      <trkpt lat="46.96526" lon="8.75752">
        <ele>987</ele>
        <time>2021-08-06T09:42:02.340Z</time>
      </trkpt>
      <trkpt lat="46.96526" lon="8.75751">
        <ele>987</ele>
        <time>2021-08-06T09:42:03.341Z</time>
      </trkpt>
      <trkpt lat="46.96526" lon="8.75749">
        <ele>987</ele>
        <time>2021-08-06T09:42:04.341Z</time>
      </trkpt>
      <trkpt lat="46.96526" lon="8.75747">
        <ele>986</ele>
        <time>2021-08-06T09:42:05.341Z</time>
      </trkpt>
      <trkpt lat="46.96527" lon="8.75745">
        <ele>986</ele>
        <time>2021-08-06T09:42:06.341Z</time>
      </trkpt>
      <trkpt lat="46.96526" lon="8.75744">
        <ele>986</ele>
        <time>2021-08-06T09:42:07.341Z</time>
      </trkpt>
      <trkpt lat="46.96526" lon="8.75743">
        <ele>985</ele>
        <time>2021-08-06T09:42:08.341Z</time>
      </trkpt>
      <trkpt lat="46.96526" lon="8.75742">
        <ele>984</ele>
        <time>2021-08-06T09:42:09.340Z</time>
      </trkpt>
      <trkpt lat="46.96526" lon="8.7574">
        <ele>984</ele>
        <time>2021-08-06T09:42:10.341Z</time>
      </trkpt>
      <trkpt lat="46.96526" lon="8.75739">
        <ele>983</ele>
        <time>2021-08-06T09:42:11.340Z</time>
      </trkpt>
      <trkpt lat="46.96525" lon="8.75738">
        <ele>983</ele>
        <time>2021-08-06T09:42:12.340Z</time>
      </trkpt>
      <trkpt lat="46.96525" lon="8.75736">
        <ele>982</ele>
        <time>2021-08-06T09:42:13.341Z</time>
      </trkpt>
      <trkpt lat="46.96525" lon="8.75734">
        <ele>982</ele>
        <time>2021-08-06T09:42:14.341Z</time>
      </trkpt>
      <trkpt lat="46.96525" lon="8.75733">
        <ele>982</ele>
        <time>2021-08-06T09:42:15.341Z</time>
      </trkpt>
      <trkpt lat="46.96525" lon="8.75732">
        <ele>983</ele>
        <time>2021-08-06T09:42:16.341Z</time>
      </trkpt>
      <trkpt lat="46.96524" lon="8.7573">
        <ele>983</ele>
        <time>2021-08-06T09:42:17.341Z</time>
      </trkpt>
      <trkpt lat="46.96524" lon="8.75729">
        <ele>984</ele>
        <time>2021-08-06T09:42:18.341Z</time>
      </trkpt>
      <trkpt lat="46.96524" lon="8.75728">
        <ele>984</ele>
        <time>2021-08-06T09:42:19.341Z</time>
      </trkpt>
      <trkpt lat="46.96525" lon="8.75726">
        <ele>984</ele>
        <time>2021-08-06T09:42:20.340Z</time>
      </trkpt>
      <trkpt lat="46.96525" lon="8.75725">
        <ele>985</ele>
        <time>2021-08-06T09:42:21.341Z</time>
      </trkpt>
      <trkpt lat="46.96524" lon="8.75723">
        <ele>985</ele>
        <time>2021-08-06T09:42:22.341Z</time>
      </trkpt>
      <trkpt lat="46.96524" lon="8.75722">
        <ele>985</ele>
        <time>2021-08-06T09:42:23.341Z</time>
      </trkpt>
      <trkpt lat="46.96523" lon="8.75721">
        <ele>985</ele>
        <time>2021-08-06T09:42:24.340Z</time>
      </trkpt>
      <trkpt lat="46.96522" lon="8.7572">
        <ele>985</ele>
        <time>2021-08-06T09:42:25.341Z</time>
      </trkpt>
      <trkpt lat="46.96522" lon="8.75718">
        <ele>985</ele>
        <time>2021-08-06T09:42:26.340Z</time>
      </trkpt>
      <trkpt lat="46.96522" lon="8.75717">
        <ele>986</ele>
        <time>2021-08-06T09:42:27.340Z</time>
      </trkpt>
      <trkpt lat="46.96522" lon="8.75715">
        <ele>986</ele>
        <time>2021-08-06T09:42:28.341Z</time>
      </trkpt>
      <trkpt lat="46.96522" lon="8.75714">
        <ele>986</ele>
        <time>2021-08-06T09:42:29.340Z</time>
      </trkpt>
      <trkpt lat="46.96522" lon="8.75712">
        <ele>987</ele>
        <time>2021-08-06T09:42:30.340Z</time>
      </trkpt>
      <trkpt lat="46.96522" lon="8.75711">
        <ele>987</ele>
        <time>2021-08-06T09:42:31.340Z</time>
      </trkpt>
      <trkpt lat="46.96522" lon="8.7571">
        <ele>987</ele>
        <time>2021-08-06T09:42:32.341Z</time>
      </trkpt>
      <trkpt lat="46.96521" lon="8.75708">
        <ele>988</ele>
        <time>2021-08-06T09:42:33.341Z</time>
      </trkpt>
      <trkpt lat="46.96521" lon="8.75707">
        <ele>988</ele>
        <time>2021-08-06T09:42:34.340Z</time>
      </trkpt>
      <trkpt lat="46.9652" lon="8.75705">
        <ele>988</ele>
        <time>2021-08-06T09:42:35.340Z</time>
      </trkpt>
      <trkpt lat="46.9652" lon="8.75704">
        <ele>988</ele>
        <time>2021-08-06T09:42:36.340Z</time>
      </trkpt>
      <trkpt lat="46.96521" lon="8.75702">
        <ele>988</ele>
        <time>2021-08-06T09:42:37.340Z</time>
      </trkpt>
      <trkpt lat="46.96521" lon="8.75701">
        <ele>988</ele>
        <time>2021-08-06T09:42:38.341Z</time>
      </trkpt>
      <trkpt lat="46.96521" lon="8.75699">
        <ele>987</ele>
        <time>2021-08-06T09:42:39.340Z</time>
      </trkpt>
      <trkpt lat="46.96521" lon="8.75698">
        <ele>987</ele>
        <time>2021-08-06T09:42:40.341Z</time>
      </trkpt>
      <trkpt lat="46.9652" lon="8.75696">
        <ele>987</ele>
        <time>2021-08-06T09:42:41.341Z</time>
      </trkpt>
      <trkpt lat="46.96519" lon="8.75695">
        <ele>988</ele>
        <time>2021-08-06T09:42:42.340Z</time>
      </trkpt>
      <trkpt lat="46.96519" lon="8.75693">
        <ele>988</ele>
        <time>2021-08-06T09:42:43.341Z</time>
      </trkpt>
      <trkpt lat="46.96519" lon="8.75692">
        <ele>989</ele>
        <time>2021-08-06T09:42:44.340Z</time>
      </trkpt>
      <trkpt lat="46.96518" lon="8.75691">
        <ele>990</ele>
        <time>2021-08-06T09:42:45.340Z</time>
      </trkpt>
      <trkpt lat="46.96518" lon="8.75689">
        <ele>991</ele>
        <time>2021-08-06T09:42:46.341Z</time>
      </trkpt>
      <trkpt lat="46.96518" lon="8.75688">
        <ele>991</ele>
        <time>2021-08-06T09:42:47.341Z</time>
      </trkpt>
      <trkpt lat="46.96517" lon="8.75686">
        <ele>991</ele>
        <time>2021-08-06T09:42:48.341Z</time>
      </trkpt>
      <trkpt lat="46.96517" lon="8.75685">
        <ele>992</ele>
        <time>2021-08-06T09:42:49.341Z</time>
      </trkpt>
      <trkpt lat="46.96516" lon="8.75684">
        <ele>992</ele>
        <time>2021-08-06T09:42:50.341Z</time>
      </trkpt>
      <trkpt lat="46.96516" lon="8.75683">
        <ele>992</ele>
        <time>2021-08-06T09:42:51.341Z</time>
      </trkpt>
      <trkpt lat="46.96515" lon="8.75682">
        <ele>992</ele>
        <time>2021-08-06T09:42:52.341Z</time>
      </trkpt>
      <trkpt lat="46.96515" lon="8.7568">
        <ele>993</ele>
        <time>2021-08-06T09:42:53.341Z</time>
      </trkpt>
      <trkpt lat="46.96514" lon="8.75679">
        <ele>993</ele>
        <time>2021-08-06T09:42:54.341Z</time>
      </trkpt>
      <trkpt lat="46.96514" lon="8.75678">
        <ele>993</ele>
        <time>2021-08-06T09:42:55.341Z</time>
      </trkpt>
      <trkpt lat="46.96513" lon="8.75678">
        <ele>993</ele>
        <time>2021-08-06T09:42:56.341Z</time>
      </trkpt>
      <trkpt lat="46.96513" lon="8.75676">
        <ele>993</ele>
        <time>2021-08-06T09:42:57.341Z</time>
      </trkpt>
      <trkpt lat="46.96513" lon="8.75675">
        <ele>993</ele>
        <time>2021-08-06T09:42:58.341Z</time>
      </trkpt>
      <trkpt lat="46.96513" lon="8.75674">
        <ele>993</ele>
        <time>2021-08-06T09:42:59.341Z</time>
      </trkpt>
      <trkpt lat="46.96512" lon="8.75673">
        <ele>993</ele>
        <time>2021-08-06T09:43:00.341Z</time>
      </trkpt>
      <trkpt lat="46.96511" lon="8.75672">
        <ele>993</ele>
        <time>2021-08-06T09:43:01.340Z</time>
      </trkpt>
      <trkpt lat="46.96511" lon="8.75671">
        <ele>994</ele>
        <time>2021-08-06T09:43:02.341Z</time>
      </trkpt>
      <trkpt lat="46.96511" lon="8.75669">
        <ele>994</ele>
        <time>2021-08-06T09:43:03.340Z</time>
      </trkpt>
      <trkpt lat="46.96511" lon="8.75668">
        <ele>994</ele>
        <time>2021-08-06T09:43:04.341Z</time>
      </trkpt>
      <trkpt lat="46.9651" lon="8.75667">
        <ele>995</ele>
        <time>2021-08-06T09:43:05.341Z</time>
      </trkpt>
      <trkpt lat="46.9651" lon="8.75666">
        <ele>995</ele>
        <time>2021-08-06T09:43:06.341Z</time>
      </trkpt>
      <trkpt lat="46.9651" lon="8.75664">
        <ele>995</ele>
        <time>2021-08-06T09:43:07.341Z</time>
      </trkpt>
      <trkpt lat="46.9651" lon="8.75663">
        <ele>996</ele>
        <time>2021-08-06T09:43:08.341Z</time>
      </trkpt>
      <trkpt lat="46.9651" lon="8.75661">
        <ele>996</ele>
        <time>2021-08-06T09:43:09.340Z</time>
      </trkpt>
      <trkpt lat="46.9651" lon="8.7566">
        <ele>996</ele>
        <time>2021-08-06T09:43:10.340Z</time>
      </trkpt>
      <trkpt lat="46.96511" lon="8.75659">
        <ele>996</ele>
        <time>2021-08-06T09:43:11.340Z</time>
      </trkpt>
      <trkpt lat="46.9651" lon="8.75657">
        <ele>996</ele>
        <time>2021-08-06T09:43:12.341Z</time>
      </trkpt>
      <trkpt lat="46.9651" lon="8.75655">
        <ele>997</ele>
        <time>2021-08-06T09:43:13.341Z</time>
      </trkpt>
      <trkpt lat="46.9651" lon="8.75654">
        <ele>997</ele>
        <time>2021-08-06T09:43:14.340Z</time>
      </trkpt>
      <trkpt lat="46.9651" lon="8.75652">
        <ele>996</ele>
        <time>2021-08-06T09:43:15.341Z</time>
      </trkpt>
      <trkpt lat="46.96509" lon="8.7565">
        <ele>996</ele>
        <time>2021-08-06T09:43:16.341Z</time>
      </trkpt>
      <trkpt lat="46.9651" lon="8.75649">
        <ele>996</ele>
        <time>2021-08-06T09:43:17.340Z</time>
      </trkpt>
      <trkpt lat="46.9651" lon="8.75648">
        <ele>995</ele>
        <time>2021-08-06T09:43:18.340Z</time>
      </trkpt>
      <trkpt lat="46.9651" lon="8.75647">
        <ele>995</ele>
        <time>2021-08-06T09:43:19.340Z</time>
      </trkpt>
      <trkpt lat="46.9651" lon="8.75645">
        <ele>995</ele>
        <time>2021-08-06T09:43:20.340Z</time>
      </trkpt>
      <trkpt lat="46.9651" lon="8.75643">
        <ele>994</ele>
        <time>2021-08-06T09:43:21.341Z</time>
      </trkpt>
      <trkpt lat="46.9651" lon="8.75642">
        <ele>995</ele>
        <time>2021-08-06T09:43:22.340Z</time>
      </trkpt>
      <trkpt lat="46.96508" lon="8.75641">
        <ele>994</ele>
        <time>2021-08-06T09:43:23.340Z</time>
      </trkpt>
      <trkpt lat="46.96508" lon="8.75639">
        <ele>994</ele>
        <time>2021-08-06T09:43:24.341Z</time>
      </trkpt>
      <trkpt lat="46.96508" lon="8.75637">
        <ele>994</ele>
        <time>2021-08-06T09:43:25.341Z</time>
      </trkpt>
      <trkpt lat="46.96508" lon="8.75635">
        <ele>994</ele>
        <time>2021-08-06T09:43:26.341Z</time>
      </trkpt>
      <trkpt lat="46.96508" lon="8.75634">
        <ele>994</ele>
        <time>2021-08-06T09:43:27.341Z</time>
      </trkpt>
      <trkpt lat="46.96507" lon="8.75633">
        <ele>994</ele>
        <time>2021-08-06T09:43:28.341Z</time>
      </trkpt>
      <trkpt lat="46.96507" lon="8.75632">
        <ele>994</ele>
        <time>2021-08-06T09:43:29.341Z</time>
      </trkpt>
      <trkpt lat="46.96507" lon="8.75631">
        <ele>995</ele>
        <time>2021-08-06T09:43:30.341Z</time>
      </trkpt>
      <trkpt lat="46.96506" lon="8.75629">
        <ele>995</ele>
        <time>2021-08-06T09:43:31.341Z</time>
      </trkpt>
      <trkpt lat="46.96507" lon="8.75627">
        <ele>995</ele>
        <time>2021-08-06T09:43:32.341Z</time>
      </trkpt>
      <trkpt lat="46.96507" lon="8.75626">
        <ele>996</ele>
        <time>2021-08-06T09:43:33.340Z</time>
      </trkpt>
      <trkpt lat="46.96507" lon="8.75625">
        <ele>996</ele>
        <time>2021-08-06T09:43:34.341Z</time>
      </trkpt>
      <trkpt lat="46.96507" lon="8.75624">
        <ele>996</ele>
        <time>2021-08-06T09:43:35.341Z</time>
      </trkpt>
      <trkpt lat="46.96506" lon="8.75623">
        <ele>996</ele>
        <time>2021-08-06T09:43:36.340Z</time>
      </trkpt>
      <trkpt lat="46.96506" lon="8.75621">
        <ele>997</ele>
        <time>2021-08-06T09:43:37.341Z</time>
      </trkpt>
      <trkpt lat="46.96505" lon="8.7562">
        <ele>997</ele>
        <time>2021-08-06T09:43:38.341Z</time>
      </trkpt>
      <trkpt lat="46.96506" lon="8.75618">
        <ele>998</ele>
        <time>2021-08-06T09:43:39.341Z</time>
      </trkpt>
      <trkpt lat="46.96506" lon="8.75616">
        <ele>998</ele>
        <time>2021-08-06T09:43:40.341Z</time>
      </trkpt>
      <trkpt lat="46.96506" lon="8.75615">
        <ele>999</ele>
        <time>2021-08-06T09:43:41.340Z</time>
      </trkpt>
      <trkpt lat="46.96506" lon="8.75614">
        <ele>999</ele>
        <time>2021-08-06T09:43:42.341Z</time>
      </trkpt>
      <trkpt lat="46.96506" lon="8.75613">
        <ele>1000</ele>
        <time>2021-08-06T09:43:43.341Z</time>
      </trkpt>
      <trkpt lat="46.96506" lon="8.75611">
        <ele>1000</ele>
        <time>2021-08-06T09:43:44.341Z</time>
      </trkpt>
      <trkpt lat="46.96505" lon="8.7561">
        <ele>1000</ele>
        <time>2021-08-06T09:43:45.341Z</time>
      </trkpt>
      <trkpt lat="46.96506" lon="8.75609">
        <ele>1000</ele>
        <time>2021-08-06T09:43:46.340Z</time>
      </trkpt>
      <trkpt lat="46.96505" lon="8.75607">
        <ele>1000</ele>
        <time>2021-08-06T09:43:47.340Z</time>
      </trkpt>
      <trkpt lat="46.96505" lon="8.75606">
        <ele>1000</ele>
        <time>2021-08-06T09:43:48.340Z</time>
      </trkpt>
      <trkpt lat="46.96505" lon="8.75605">
        <ele>1000</ele>
        <time>2021-08-06T09:43:49.341Z</time>
      </trkpt>
      <trkpt lat="46.96504" lon="8.75603">
        <ele>1000</ele>
        <time>2021-08-06T09:43:50.340Z</time>
      </trkpt>
      <trkpt lat="46.96504" lon="8.75602">
        <ele>1000</ele>
        <time>2021-08-06T09:43:51.341Z</time>
      </trkpt>
      <trkpt lat="46.96503" lon="8.75601">
        <ele>1001</ele>
        <time>2021-08-06T09:43:52.340Z</time>
      </trkpt>
      <trkpt lat="46.96503" lon="8.75599">
        <ele>1001</ele>
        <time>2021-08-06T09:43:53.341Z</time>
      </trkpt>
      <trkpt lat="46.96503" lon="8.75597">
        <ele>1002</ele>
        <time>2021-08-06T09:43:54.340Z</time>
      </trkpt>
      <trkpt lat="46.96503" lon="8.75596">
        <ele>1002</ele>
        <time>2021-08-06T09:43:55.340Z</time>
      </trkpt>
      <trkpt lat="46.96502" lon="8.75594">
        <ele>1002</ele>
        <time>2021-08-06T09:43:56.341Z</time>
      </trkpt>
      <trkpt lat="46.96502" lon="8.75593">
        <ele>1003</ele>
        <time>2021-08-06T09:43:57.341Z</time>
      </trkpt>
      <trkpt lat="46.96502" lon="8.75591">
        <ele>1003</ele>
        <time>2021-08-06T09:43:58.341Z</time>
      </trkpt>
      <trkpt lat="46.96501" lon="8.75589">
        <ele>1004</ele>
        <time>2021-08-06T09:43:59.340Z</time>
      </trkpt>
      <trkpt lat="46.96501" lon="8.75589">
        <ele>1004</ele>
        <time>2021-08-06T09:44:00.341Z</time>
      </trkpt>
      <trkpt lat="46.965" lon="8.75588">
        <ele>1005</ele>
        <time>2021-08-06T09:44:01.340Z</time>
      </trkpt>
      <trkpt lat="46.965" lon="8.75587">
        <ele>1005</ele>
        <time>2021-08-06T09:44:02.340Z</time>
      </trkpt>
      <trkpt lat="46.96499" lon="8.75585">
        <ele>1005</ele>
        <time>2021-08-06T09:44:03.341Z</time>
      </trkpt>
      <trkpt lat="46.96499" lon="8.75583">
        <ele>1005</ele>
        <time>2021-08-06T09:44:04.341Z</time>
      </trkpt>
      <trkpt lat="46.96499" lon="8.75582">
        <ele>1005</ele>
        <time>2021-08-06T09:44:05.340Z</time>
      </trkpt>
      <trkpt lat="46.96499" lon="8.75581">
        <ele>1005</ele>
        <time>2021-08-06T09:44:06.340Z</time>
      </trkpt>
      <trkpt lat="46.96498" lon="8.7558">
        <ele>1005</ele>
        <time>2021-08-06T09:44:07.341Z</time>
      </trkpt>
      <trkpt lat="46.96498" lon="8.75579">
        <ele>1005</ele>
        <time>2021-08-06T09:44:08.340Z</time>
      </trkpt>
      <trkpt lat="46.96497" lon="8.75578">
        <ele>1005</ele>
        <time>2021-08-06T09:44:09.341Z</time>
      </trkpt>
      <trkpt lat="46.96497" lon="8.75577">
        <ele>1005</ele>
        <time>2021-08-06T09:44:10.340Z</time>
      </trkpt>
      <trkpt lat="46.96498" lon="8.75576">
        <ele>1004</ele>
        <time>2021-08-06T09:44:11.341Z</time>
      </trkpt>
      <trkpt lat="46.96497" lon="8.75575">
        <ele>1004</ele>
        <time>2021-08-06T09:44:12.341Z</time>
      </trkpt>
      <trkpt lat="46.96497" lon="8.75574">
        <ele>1004</ele>
        <time>2021-08-06T09:44:13.341Z</time>
      </trkpt>
      <trkpt lat="46.96497" lon="8.75573">
        <ele>1003</ele>
        <time>2021-08-06T09:44:14.341Z</time>
      </trkpt>
      <trkpt lat="46.96497" lon="8.75571">
        <ele>1003</ele>
        <time>2021-08-06T09:44:15.340Z</time>
      </trkpt>
      <trkpt lat="46.96497" lon="8.7557">
        <ele>1003</ele>
        <time>2021-08-06T09:44:16.341Z</time>
      </trkpt>
      <trkpt lat="46.96497" lon="8.75568">
        <ele>1003</ele>
        <time>2021-08-06T09:44:17.341Z</time>
      </trkpt>
      <trkpt lat="46.96497" lon="8.75566">
        <ele>1003</ele>
        <time>2021-08-06T09:44:18.341Z</time>
      </trkpt>
      <trkpt lat="46.96497" lon="8.75565">
        <ele>1003</ele>
        <time>2021-08-06T09:44:19.341Z</time>
      </trkpt>
      <trkpt lat="46.96497" lon="8.75563">
        <ele>1003</ele>
        <time>2021-08-06T09:44:20.341Z</time>
      </trkpt>
      <trkpt lat="46.96496" lon="8.75562">
        <ele>1002</ele>
        <time>2021-08-06T09:44:21.341Z</time>
      </trkpt>
      <trkpt lat="46.96496" lon="8.7556">
        <ele>1002</ele>
        <time>2021-08-06T09:44:22.341Z</time>
      </trkpt>
      <trkpt lat="46.96496" lon="8.75559">
        <ele>1002</ele>
        <time>2021-08-06T09:44:23.340Z</time>
      </trkpt>
      <trkpt lat="46.96496" lon="8.75558">
        <ele>1002</ele>
        <time>2021-08-06T09:44:24.341Z</time>
      </trkpt>
      <trkpt lat="46.96495" lon="8.75558">
        <ele>1002</ele>
        <time>2021-08-06T09:44:25.341Z</time>
      </trkpt>
      <trkpt lat="46.96495" lon="8.75556">
        <ele>1003</ele>
        <time>2021-08-06T09:44:26.341Z</time>
      </trkpt>
      <trkpt lat="46.96495" lon="8.75555">
        <ele>1003</ele>
        <time>2021-08-06T09:44:27.341Z</time>
      </trkpt>
      <trkpt lat="46.96495" lon="8.75553">
        <ele>1003</ele>
        <time>2021-08-06T09:44:28.340Z</time>
      </trkpt>
      <trkpt lat="46.96496" lon="8.75551">
        <ele>1004</ele>
        <time>2021-08-06T09:44:29.341Z</time>
      </trkpt>
      <trkpt lat="46.96496" lon="8.7555">
        <ele>1004</ele>
        <time>2021-08-06T09:44:30.341Z</time>
      </trkpt>
      <trkpt lat="46.96496" lon="8.75549">
        <ele>1004</ele>
        <time>2021-08-06T09:44:31.341Z</time>
      </trkpt>
      <trkpt lat="46.96496" lon="8.75547">
        <ele>1005</ele>
        <time>2021-08-06T09:44:32.341Z</time>
      </trkpt>
      <trkpt lat="46.96496" lon="8.75546">
        <ele>1005</ele>
        <time>2021-08-06T09:44:33.341Z</time>
      </trkpt>
      <trkpt lat="46.96495" lon="8.75546">
        <ele>1006</ele>
        <time>2021-08-06T09:44:34.340Z</time>
      </trkpt>
      <trkpt lat="46.96494" lon="8.75545">
        <ele>1006</ele>
        <time>2021-08-06T09:44:35.341Z</time>
      </trkpt>
      <trkpt lat="46.96494" lon="8.75544">
        <ele>1007</ele>
        <time>2021-08-06T09:44:36.341Z</time>
      </trkpt>
      <trkpt lat="46.96494" lon="8.75543">
        <ele>1008</ele>
        <time>2021-08-06T09:44:37.341Z</time>
      </trkpt>
      <trkpt lat="46.96493" lon="8.75542">
        <ele>1009</ele>
        <time>2021-08-06T09:44:38.341Z</time>
      </trkpt>
      <trkpt lat="46.96492" lon="8.75541">
        <ele>1010</ele>
        <time>2021-08-06T09:44:39.340Z</time>
      </trkpt>
      <trkpt lat="46.96491" lon="8.7554">
        <ele>1011</ele>
        <time>2021-08-06T09:44:40.341Z</time>
      </trkpt>
      <trkpt lat="46.96491" lon="8.75539">
        <ele>1012</ele>
        <time>2021-08-06T09:44:41.341Z</time>
      </trkpt>
      <trkpt lat="46.9649" lon="8.75538">
        <ele>1012</ele>
        <time>2021-08-06T09:44:42.341Z</time>
      </trkpt>
      <trkpt lat="46.9649" lon="8.75536">
        <ele>1013</ele>
        <time>2021-08-06T09:44:43.341Z</time>
      </trkpt>
      <trkpt lat="46.9649" lon="8.75535">
        <ele>1013</ele>
        <time>2021-08-06T09:44:44.341Z</time>
      </trkpt>
      <trkpt lat="46.9649" lon="8.75534">
        <ele>1014</ele>
        <time>2021-08-06T09:44:45.341Z</time>
      </trkpt>
      <trkpt lat="46.9649" lon="8.75532">
        <ele>1014</ele>
        <time>2021-08-06T09:44:46.341Z</time>
      </trkpt>
      <trkpt lat="46.9649" lon="8.7553">
        <ele>1014</ele>
        <time>2021-08-06T09:44:47.340Z</time>
      </trkpt>
      <trkpt lat="46.9649" lon="8.75529">
        <ele>1015</ele>
        <time>2021-08-06T09:44:48.341Z</time>
      </trkpt>
      <trkpt lat="46.96489" lon="8.75528">
        <ele>1015</ele>
        <time>2021-08-06T09:44:49.341Z</time>
      </trkpt>
      <trkpt lat="46.96488" lon="8.75527">
        <ele>1015</ele>
        <time>2021-08-06T09:44:50.340Z</time>
      </trkpt>
      <trkpt lat="46.96487" lon="8.75526">
        <ele>1015</ele>
        <time>2021-08-06T09:44:51.340Z</time>
      </trkpt>
      <trkpt lat="46.96486" lon="8.75525">
        <ele>1016</ele>
        <time>2021-08-06T09:44:52.340Z</time>
      </trkpt>
      <trkpt lat="46.96485" lon="8.75525">
        <ele>1016</ele>
        <time>2021-08-06T09:44:53.341Z</time>
      </trkpt>
      <trkpt lat="46.96484" lon="8.75524">
        <ele>1016</ele>
        <time>2021-08-06T09:44:54.340Z</time>
      </trkpt>
      <trkpt lat="46.96483" lon="8.75523">
        <ele>1016</ele>
        <time>2021-08-06T09:44:55.341Z</time>
      </trkpt>
      <trkpt lat="46.96483" lon="8.75522">
        <ele>1016</ele>
        <time>2021-08-06T09:44:56.341Z</time>
      </trkpt>
      <trkpt lat="46.96483" lon="8.7552">
        <ele>1017</ele>
        <time>2021-08-06T09:44:57.341Z</time>
      </trkpt>
      <trkpt lat="46.96483" lon="8.75518">
        <ele>1017</ele>
        <time>2021-08-06T09:44:58.340Z</time>
      </trkpt>
      <trkpt lat="46.96483" lon="8.75517">
        <ele>1017</ele>
        <time>2021-08-06T09:44:59.340Z</time>
      </trkpt>
      <trkpt lat="46.96482" lon="8.75516">
        <ele>1017</ele>
        <time>2021-08-06T09:45:00.340Z</time>
      </trkpt>
      <trkpt lat="46.96481" lon="8.75515">
        <ele>1018</ele>
        <time>2021-08-06T09:45:01.341Z</time>
      </trkpt>
      <trkpt lat="46.9648" lon="8.75514">
        <ele>1018</ele>
        <time>2021-08-06T09:45:02.341Z</time>
      </trkpt>
      <trkpt lat="46.96479" lon="8.75512">
        <ele>1019</ele>
        <time>2021-08-06T09:45:03.341Z</time>
      </trkpt>
      <trkpt lat="46.96478" lon="8.75511">
        <ele>1019</ele>
        <time>2021-08-06T09:45:04.341Z</time>
      </trkpt>
      <trkpt lat="46.96478" lon="8.75509">
        <ele>1020</ele>
        <time>2021-08-06T09:45:05.341Z</time>
      </trkpt>
      <trkpt lat="46.96477" lon="8.75508">
        <ele>1021</ele>
        <time>2021-08-06T09:45:06.341Z</time>
      </trkpt>
      <trkpt lat="46.96476" lon="8.75506">
        <ele>1022</ele>
        <time>2021-08-06T09:45:07.341Z</time>
      </trkpt>
      <trkpt lat="46.96476" lon="8.75505">
        <ele>1023</ele>
        <time>2021-08-06T09:45:08.340Z</time>
      </trkpt>
      <trkpt lat="46.96475" lon="8.75504">
        <ele>1024</ele>
        <time>2021-08-06T09:45:09.341Z</time>
      </trkpt>
      <trkpt lat="46.96475" lon="8.75503">
        <ele>1024</ele>
        <time>2021-08-06T09:45:10.340Z</time>
      </trkpt>
      <trkpt lat="46.96475" lon="8.75502">
        <ele>1024</ele>
        <time>2021-08-06T09:45:11.341Z</time>
      </trkpt>
      <trkpt lat="46.96475" lon="8.755">
        <ele>1024</ele>
        <time>2021-08-06T09:45:12.341Z</time>
      </trkpt>
      <trkpt lat="46.96474" lon="8.75499">
        <ele>1024</ele>
        <time>2021-08-06T09:45:13.341Z</time>
      </trkpt>
      <trkpt lat="46.96473" lon="8.75498">
        <ele>1023</ele>
        <time>2021-08-06T09:45:14.341Z</time>
      </trkpt>
      <trkpt lat="46.96472" lon="8.75497">
        <ele>1022</ele>
        <time>2021-08-06T09:45:15.340Z</time>
      </trkpt>
      <trkpt lat="46.96472" lon="8.75495">
        <ele>1022</ele>
        <time>2021-08-06T09:45:16.340Z</time>
      </trkpt>
      <trkpt lat="46.96471" lon="8.75494">
        <ele>1021</ele>
        <time>2021-08-06T09:45:17.341Z</time>
      </trkpt>
      <trkpt lat="46.96471" lon="8.75493">
        <ele>1020</ele>
        <time>2021-08-06T09:45:18.341Z</time>
      </trkpt>
      <trkpt lat="46.9647" lon="8.75491">
        <ele>1020</ele>
        <time>2021-08-06T09:45:19.341Z</time>
      </trkpt>
      <trkpt lat="46.96469" lon="8.7549">
        <ele>1019</ele>
        <time>2021-08-06T09:45:20.341Z</time>
      </trkpt>
      <trkpt lat="46.96469" lon="8.75489">
        <ele>1018</ele>
        <time>2021-08-06T09:45:21.341Z</time>
      </trkpt>
      <trkpt lat="46.96469" lon="8.75487">
        <ele>1018</ele>
        <time>2021-08-06T09:45:22.341Z</time>
      </trkpt>
      <trkpt lat="46.96468" lon="8.75485">
        <ele>1018</ele>
        <time>2021-08-06T09:45:23.340Z</time>
      </trkpt>
      <trkpt lat="46.96468" lon="8.75483">
        <ele>1017</ele>
        <time>2021-08-06T09:45:24.341Z</time>
      </trkpt>
      <trkpt lat="46.96467" lon="8.75481">
        <ele>1017</ele>
        <time>2021-08-06T09:45:25.341Z</time>
      </trkpt>
      <trkpt lat="46.96467" lon="8.7548">
        <ele>1017</ele>
        <time>2021-08-06T09:45:26.340Z</time>
      </trkpt>
      <trkpt lat="46.96466" lon="8.75479">
        <ele>1017</ele>
        <time>2021-08-06T09:45:27.340Z</time>
      </trkpt>
      <trkpt lat="46.96466" lon="8.75477">
        <ele>1017</ele>
        <time>2021-08-06T09:45:28.341Z</time>
      </trkpt>
      <trkpt lat="46.96466" lon="8.75475">
        <ele>1017</ele>
        <time>2021-08-06T09:45:29.340Z</time>
      </trkpt>
      <trkpt lat="46.96467" lon="8.75473">
        <ele>1017</ele>
        <time>2021-08-06T09:45:30.341Z</time>
      </trkpt>
      <trkpt lat="46.96467" lon="8.75471">
        <ele>1017</ele>
        <time>2021-08-06T09:45:31.340Z</time>
      </trkpt>
      <trkpt lat="46.96468" lon="8.7547">
        <ele>1017</ele>
        <time>2021-08-06T09:45:32.341Z</time>
      </trkpt>
      <trkpt lat="46.96468" lon="8.75468">
        <ele>1018</ele>
        <time>2021-08-06T09:45:33.340Z</time>
      </trkpt>
      <trkpt lat="46.96469" lon="8.75466">
        <ele>1018</ele>
        <time>2021-08-06T09:45:34.341Z</time>
      </trkpt>
      <trkpt lat="46.96468" lon="8.75465">
        <ele>1018</ele>
        <time>2021-08-06T09:45:35.341Z</time>
      </trkpt>
      <trkpt lat="46.96467" lon="8.75464">
        <ele>1017</ele>
        <time>2021-08-06T09:45:36.341Z</time>
      </trkpt>
      <trkpt lat="46.96466" lon="8.75462">
        <ele>1017</ele>
        <time>2021-08-06T09:45:37.341Z</time>
      </trkpt>
      <trkpt lat="46.96466" lon="8.75461">
        <ele>1017</ele>
        <time>2021-08-06T09:45:38.341Z</time>
      </trkpt>
      <trkpt lat="46.96466" lon="8.7546">
        <ele>1017</ele>
        <time>2021-08-06T09:45:39.340Z</time>
      </trkpt>
      <trkpt lat="46.96467" lon="8.75458">
        <ele>1017</ele>
        <time>2021-08-06T09:45:40.341Z</time>
      </trkpt>
      <trkpt lat="46.96468" lon="8.75457">
        <ele>1017</ele>
        <time>2021-08-06T09:45:41.341Z</time>
      </trkpt>
      <trkpt lat="46.96468" lon="8.75455">
        <ele>1017</ele>
        <time>2021-08-06T09:45:42.341Z</time>
      </trkpt>
      <trkpt lat="46.96468" lon="8.75454">
        <ele>1017</ele>
        <time>2021-08-06T09:45:43.341Z</time>
      </trkpt>
      <trkpt lat="46.96468" lon="8.75453">
        <ele>1018</ele>
        <time>2021-08-06T09:45:44.341Z</time>
      </trkpt>
      <trkpt lat="46.96466" lon="8.75451">
        <ele>1018</ele>
        <time>2021-08-06T09:45:45.341Z</time>
      </trkpt>
      <trkpt lat="46.96465" lon="8.75449">
        <ele>1018</ele>
        <time>2021-08-06T09:45:46.340Z</time>
      </trkpt>
      <trkpt lat="46.96464" lon="8.75448">
        <ele>1018</ele>
        <time>2021-08-06T09:45:47.341Z</time>
      </trkpt>
      <trkpt lat="46.96463" lon="8.75447">
        <ele>1018</ele>
        <time>2021-08-06T09:45:48.340Z</time>
      </trkpt>
      <trkpt lat="46.96463" lon="8.75445">
        <ele>1018</ele>
        <time>2021-08-06T09:45:49.341Z</time>
      </trkpt>
      <trkpt lat="46.96463" lon="8.75444">
        <ele>1018</ele>
        <time>2021-08-06T09:45:50.341Z</time>
      </trkpt>
      <trkpt lat="46.96463" lon="8.75443">
        <ele>1018</ele>
        <time>2021-08-06T09:45:51.341Z</time>
      </trkpt>
      <trkpt lat="46.96463" lon="8.75442">
        <ele>1018</ele>
        <time>2021-08-06T09:45:52.341Z</time>
      </trkpt>
      <trkpt lat="46.96464" lon="8.75441">
        <ele>1017</ele>
        <time>2021-08-06T09:45:53.340Z</time>
      </trkpt>
      <trkpt lat="46.96464" lon="8.7544">
        <ele>1017</ele>
        <time>2021-08-06T09:45:54.340Z</time>
      </trkpt>
      <trkpt lat="46.96463" lon="8.75439">
        <ele>1017</ele>
        <time>2021-08-06T09:45:55.340Z</time>
      </trkpt>
      <trkpt lat="46.96463" lon="8.75438">
        <ele>1017</ele>
        <time>2021-08-06T09:45:56.341Z</time>
      </trkpt>
      <trkpt lat="46.96462" lon="8.75437">
        <ele>1017</ele>
        <time>2021-08-06T09:45:57.341Z</time>
      </trkpt>
      <trkpt lat="46.96462" lon="8.75436">
        <ele>1018</ele>
        <time>2021-08-06T09:45:58.341Z</time>
      </trkpt>
      <trkpt lat="46.96461" lon="8.75436">
        <ele>1018</ele>
        <time>2021-08-06T09:45:59.341Z</time>
      </trkpt>
      <trkpt lat="46.96461" lon="8.75435">
        <ele>1018</ele>
        <time>2021-08-06T09:46:00.341Z</time>
      </trkpt>
      <trkpt lat="46.96461" lon="8.75434">
        <ele>1019</ele>
        <time>2021-08-06T09:46:01.340Z</time>
      </trkpt>
      <trkpt lat="46.9646" lon="8.75433">
        <ele>1019</ele>
        <time>2021-08-06T09:46:02.341Z</time>
      </trkpt>
      <trkpt lat="46.96459" lon="8.75432">
        <ele>1019</ele>
        <time>2021-08-06T09:46:03.341Z</time>
      </trkpt>
      <trkpt lat="46.96458" lon="8.75431">
        <ele>1020</ele>
        <time>2021-08-06T09:46:04.341Z</time>
      </trkpt>
      <trkpt lat="46.96457" lon="8.7543">
        <ele>1020</ele>
        <time>2021-08-06T09:46:05.340Z</time>
      </trkpt>
      <trkpt lat="46.96455" lon="8.75429">
        <ele>1020</ele>
        <time>2021-08-06T09:46:06.340Z</time>
      </trkpt>
      <trkpt lat="46.96454" lon="8.75428">
        <ele>1020</ele>
        <time>2021-08-06T09:46:07.341Z</time>
      </trkpt>
      <trkpt lat="46.96454" lon="8.75427">
        <ele>1020</ele>
        <time>2021-08-06T09:46:08.341Z</time>
      </trkpt>
      <trkpt lat="46.96452" lon="8.75425">
        <ele>1020</ele>
        <time>2021-08-06T09:46:09.340Z</time>
      </trkpt>
      <trkpt lat="46.9645" lon="8.75424">
        <ele>1020</ele>
        <time>2021-08-06T09:46:10.341Z</time>
      </trkpt>
      <trkpt lat="46.96449" lon="8.75422">
        <ele>1019</ele>
        <time>2021-08-06T09:46:11.341Z</time>
      </trkpt>
      <trkpt lat="46.96449" lon="8.75421">
        <ele>1019</ele>
        <time>2021-08-06T09:46:12.340Z</time>
      </trkpt>
      <trkpt lat="46.96449" lon="8.75419">
        <ele>1018</ele>
        <time>2021-08-06T09:46:13.340Z</time>
      </trkpt>
      <trkpt lat="46.96449" lon="8.75418">
        <ele>1017</ele>
        <time>2021-08-06T09:46:14.341Z</time>
      </trkpt>
      <trkpt lat="46.96448" lon="8.75417">
        <ele>1017</ele>
        <time>2021-08-06T09:46:15.341Z</time>
      </trkpt>
      <trkpt lat="46.96447" lon="8.75416">
        <ele>1017</ele>
        <time>2021-08-06T09:46:16.340Z</time>
      </trkpt>
      <trkpt lat="46.96447" lon="8.75416">
        <ele>1016</ele>
        <time>2021-08-06T09:46:17.340Z</time>
      </trkpt>
      <trkpt lat="46.96446" lon="8.75415">
        <ele>1016</ele>
        <time>2021-08-06T09:46:18.340Z</time>
      </trkpt>
      <trkpt lat="46.96446" lon="8.75413">
        <ele>1015</ele>
        <time>2021-08-06T09:46:19.341Z</time>
      </trkpt>
      <trkpt lat="46.96446" lon="8.75411">
        <ele>1015</ele>
        <time>2021-08-06T09:46:20.340Z</time>
      </trkpt>
      <trkpt lat="46.96446" lon="8.75408">
        <ele>1014</ele>
        <time>2021-08-06T09:46:21.340Z</time>
      </trkpt>
      <trkpt lat="46.96446" lon="8.75406">
        <ele>1014</ele>
        <time>2021-08-06T09:46:22.340Z</time>
      </trkpt>
      <trkpt lat="46.96447" lon="8.75403">
        <ele>1013</ele>
        <time>2021-08-06T09:46:23.340Z</time>
      </trkpt>
      <trkpt lat="46.96447" lon="8.75401">
        <ele>1013</ele>
        <time>2021-08-06T09:46:24.340Z</time>
      </trkpt>
      <trkpt lat="46.96447" lon="8.75399">
        <ele>1013</ele>
        <time>2021-08-06T09:46:25.340Z</time>
      </trkpt>
      <trkpt lat="46.96446" lon="8.75398">
        <ele>1013</ele>
        <time>2021-08-06T09:46:26.340Z</time>
      </trkpt>
      <trkpt lat="46.96445" lon="8.75397">
        <ele>1013</ele>
        <time>2021-08-06T09:46:27.340Z</time>
      </trkpt>
      <trkpt lat="46.96444" lon="8.75396">
        <ele>1013</ele>
        <time>2021-08-06T09:46:28.340Z</time>
      </trkpt>
      <trkpt lat="46.96443" lon="8.75395">
        <ele>1013</ele>
        <time>2021-08-06T09:46:29.341Z</time>
      </trkpt>
      <trkpt lat="46.96442" lon="8.75394">
        <ele>1013</ele>
        <time>2021-08-06T09:46:30.340Z</time>
      </trkpt>
      <trkpt lat="46.96441" lon="8.75393">
        <ele>1014</ele>
        <time>2021-08-06T09:46:31.341Z</time>
      </trkpt>
      <trkpt lat="46.9644" lon="8.75392">
        <ele>1014</ele>
        <time>2021-08-06T09:46:32.340Z</time>
      </trkpt>
      <trkpt lat="46.96439" lon="8.7539">
        <ele>1014</ele>
        <time>2021-08-06T09:46:33.341Z</time>
      </trkpt>
      <trkpt lat="46.96438" lon="8.75389">
        <ele>1014</ele>
        <time>2021-08-06T09:46:34.341Z</time>
      </trkpt>
      <trkpt lat="46.96438" lon="8.75388">
        <ele>1014</ele>
        <time>2021-08-06T09:46:35.341Z</time>
      </trkpt>
      <trkpt lat="46.96437" lon="8.75387">
        <ele>1014</ele>
        <time>2021-08-06T09:46:36.340Z</time>
      </trkpt>
      <trkpt lat="46.96436" lon="8.75386">
        <ele>1014</ele>
        <time>2021-08-06T09:46:37.340Z</time>
      </trkpt>
      <trkpt lat="46.96435" lon="8.75386">
        <ele>1014</ele>
        <time>2021-08-06T09:46:38.340Z</time>
      </trkpt>
      <trkpt lat="46.96434" lon="8.75385">
        <ele>1014</ele>
        <time>2021-08-06T09:46:39.341Z</time>
      </trkpt>
      <trkpt lat="46.96433" lon="8.75384">
        <ele>1014</ele>
        <time>2021-08-06T09:46:40.341Z</time>
      </trkpt>
      <trkpt lat="46.96432" lon="8.75383">
        <ele>1014</ele>
        <time>2021-08-06T09:46:41.340Z</time>
      </trkpt>
      <trkpt lat="46.96431" lon="8.75382">
        <ele>1015</ele>
        <time>2021-08-06T09:46:42.341Z</time>
      </trkpt>
      <trkpt lat="46.9643" lon="8.75381">
        <ele>1016</ele>
        <time>2021-08-06T09:46:43.341Z</time>
      </trkpt>
      <trkpt lat="46.9643" lon="8.7538">
        <ele>1016</ele>
        <time>2021-08-06T09:46:44.340Z</time>
      </trkpt>
      <trkpt lat="46.9643" lon="8.75378">
        <ele>1017</ele>
        <time>2021-08-06T09:46:45.341Z</time>
      </trkpt>
      <trkpt lat="46.96429" lon="8.75377">
        <ele>1018</ele>
        <time>2021-08-06T09:46:46.341Z</time>
      </trkpt>
      <trkpt lat="46.96429" lon="8.75376">
        <ele>1018</ele>
        <time>2021-08-06T09:46:47.341Z</time>
      </trkpt>
      <trkpt lat="46.96428" lon="8.75375">
        <ele>1018</ele>
        <time>2021-08-06T09:46:48.340Z</time>
      </trkpt>
      <trkpt lat="46.96428" lon="8.75374">
        <ele>1019</ele>
        <time>2021-08-06T09:46:49.340Z</time>
      </trkpt>
      <trkpt lat="46.96427" lon="8.75373">
        <ele>1019</ele>
        <time>2021-08-06T09:46:50.340Z</time>
      </trkpt>
      <trkpt lat="46.96426" lon="8.75372">
        <ele>1019</ele>
        <time>2021-08-06T09:46:51.340Z</time>
      </trkpt>
      <trkpt lat="46.96425" lon="8.75371">
        <ele>1020</ele>
        <time>2021-08-06T09:46:52.341Z</time>
      </trkpt>
      <trkpt lat="46.96425" lon="8.75371">
        <ele>1020</ele>
        <time>2021-08-06T09:46:53.340Z</time>
      </trkpt>
      <trkpt lat="46.96425" lon="8.7537">
        <ele>1021</ele>
        <time>2021-08-06T09:46:54.341Z</time>
      </trkpt>
      <trkpt lat="46.96425" lon="8.7537">
        <ele>1021</ele>
        <time>2021-08-06T09:46:55.341Z</time>
      </trkpt>
      <trkpt lat="46.96425" lon="8.7537">
        <ele>1022</ele>
        <time>2021-08-06T09:46:56.340Z</time>
      </trkpt>
      <trkpt lat="46.96422" lon="8.75368">
        <ele>1026</ele>
        <time>2021-08-06T09:46:57.342Z</time>
      </trkpt>
      <trkpt lat="46.96421" lon="8.75368">
        <ele>1026</ele>
        <time>2021-08-06T09:46:58.342Z</time>
      </trkpt>
      <trkpt lat="46.9642" lon="8.75367">
        <ele>1027</ele>
        <time>2021-08-06T09:46:59.341Z</time>
      </trkpt>
      <trkpt lat="46.96419" lon="8.75367">
        <ele>1028</ele>
        <time>2021-08-06T09:47:00.341Z</time>
      </trkpt>
      <trkpt lat="46.9642" lon="8.75365">
        <ele>1029</ele>
        <time>2021-08-06T09:47:01.342Z</time>
      </trkpt>
      <trkpt lat="46.96419" lon="8.75364">
        <ele>1029</ele>
        <time>2021-08-06T09:47:02.342Z</time>
      </trkpt>
      <trkpt lat="46.96418" lon="8.75362">
        <ele>1030</ele>
        <time>2021-08-06T09:47:03.341Z</time>
      </trkpt>
      <trkpt lat="46.96417" lon="8.75361">
        <ele>1030</ele>
        <time>2021-08-06T09:47:04.341Z</time>
      </trkpt>
      <trkpt lat="46.96417" lon="8.75359">
        <ele>1030</ele>
        <time>2021-08-06T09:47:05.342Z</time>
      </trkpt>
      <trkpt lat="46.96416" lon="8.75358">
        <ele>1031</ele>
        <time>2021-08-06T09:47:06.342Z</time>
      </trkpt>
      <trkpt lat="46.96416" lon="8.75357">
        <ele>1031</ele>
        <time>2021-08-06T09:47:07.341Z</time>
      </trkpt>
      <trkpt lat="46.96416" lon="8.75356">
        <ele>1031</ele>
        <time>2021-08-06T09:47:08.342Z</time>
      </trkpt>
      <trkpt lat="46.96416" lon="8.75356">
        <ele>1030</ele>
        <time>2021-08-06T09:47:09.341Z</time>
      </trkpt>
      <trkpt lat="46.96415" lon="8.75355">
        <ele>1030</ele>
        <time>2021-08-06T09:47:10.342Z</time>
      </trkpt>
      <trkpt lat="46.96414" lon="8.75354">
        <ele>1029</ele>
        <time>2021-08-06T09:47:11.341Z</time>
      </trkpt>
      <trkpt lat="46.96414" lon="8.75353">
        <ele>1029</ele>
        <time>2021-08-06T09:47:12.342Z</time>
      </trkpt>
      <trkpt lat="46.96414" lon="8.75351">
        <ele>1028</ele>
        <time>2021-08-06T09:47:13.342Z</time>
      </trkpt>
      <trkpt lat="46.96414" lon="8.75349">
        <ele>1028</ele>
        <time>2021-08-06T09:47:14.342Z</time>
      </trkpt>
      <trkpt lat="46.96413" lon="8.75349">
        <ele>1028</ele>
        <time>2021-08-06T09:47:15.342Z</time>
      </trkpt>
      <trkpt lat="46.96412" lon="8.75348">
        <ele>1027</ele>
        <time>2021-08-06T09:47:16.342Z</time>
      </trkpt>
      <trkpt lat="46.96412" lon="8.75347">
        <ele>1027</ele>
        <time>2021-08-06T09:47:17.341Z</time>
      </trkpt>
      <trkpt lat="46.96412" lon="8.75345">
        <ele>1027</ele>
        <time>2021-08-06T09:47:18.342Z</time>
      </trkpt>
      <trkpt lat="46.96411" lon="8.75344">
        <ele>1027</ele>
        <time>2021-08-06T09:47:19.342Z</time>
      </trkpt>
      <trkpt lat="46.9641" lon="8.75343">
        <ele>1026</ele>
        <time>2021-08-06T09:47:20.341Z</time>
      </trkpt>
      <trkpt lat="46.96409" lon="8.75343">
        <ele>1027</ele>
        <time>2021-08-06T09:47:21.342Z</time>
      </trkpt>
      <trkpt lat="46.96409" lon="8.75342">
        <ele>1027</ele>
        <time>2021-08-06T09:47:22.342Z</time>
      </trkpt>
      <trkpt lat="46.96408" lon="8.75341">
        <ele>1027</ele>
        <time>2021-08-06T09:47:23.341Z</time>
      </trkpt>
      <trkpt lat="46.96408" lon="8.75341">
        <ele>1027</ele>
        <time>2021-08-06T09:47:24.342Z</time>
      </trkpt>
      <trkpt lat="46.96408" lon="8.7534">
        <ele>1027</ele>
        <time>2021-08-06T09:47:25.341Z</time>
      </trkpt>
      <trkpt lat="46.96408" lon="8.75339">
        <ele>1027</ele>
        <time>2021-08-06T09:47:26.342Z</time>
      </trkpt>
      <trkpt lat="46.96408" lon="8.75338">
        <ele>1027</ele>
        <time>2021-08-06T09:47:27.342Z</time>
      </trkpt>
      <trkpt lat="46.96408" lon="8.75338">
        <ele>1028</ele>
        <time>2021-08-06T09:47:28.342Z</time>
      </trkpt>
      <trkpt lat="46.96408" lon="8.75337">
        <ele>1029</ele>
        <time>2021-08-06T09:47:29.342Z</time>
      </trkpt>
      <trkpt lat="46.96408" lon="8.75337">
        <ele>1030</ele>
        <time>2021-08-06T09:47:30.342Z</time>
      </trkpt>
      <trkpt lat="46.96408" lon="8.75337">
        <ele>1030</ele>
        <time>2021-08-06T09:47:31.342Z</time>
      </trkpt>
      <trkpt lat="46.96408" lon="8.75336">
        <ele>1031</ele>
        <time>2021-08-06T09:47:32.342Z</time>
      </trkpt>
      <trkpt lat="46.96407" lon="8.75335">
        <ele>1032</ele>
        <time>2021-08-06T09:47:33.341Z</time>
      </trkpt>
      <trkpt lat="46.96407" lon="8.75334">
        <ele>1033</ele>
        <time>2021-08-06T09:47:34.341Z</time>
      </trkpt>
      <trkpt lat="46.96406" lon="8.75332">
        <ele>1034</ele>
        <time>2021-08-06T09:47:35.341Z</time>
      </trkpt>
      <trkpt lat="46.96406" lon="8.75331">
        <ele>1035</ele>
        <time>2021-08-06T09:47:36.341Z</time>
      </trkpt>
      <trkpt lat="46.96405" lon="8.7533">
        <ele>1036</ele>
        <time>2021-08-06T09:47:37.341Z</time>
      </trkpt>
      <trkpt lat="46.96404" lon="8.75329">
        <ele>1037</ele>
        <time>2021-08-06T09:47:38.341Z</time>
      </trkpt>
      <trkpt lat="46.96403" lon="8.75328">
        <ele>1038</ele>
        <time>2021-08-06T09:47:39.341Z</time>
      </trkpt>
      <trkpt lat="46.96402" lon="8.75327">
        <ele>1038</ele>
        <time>2021-08-06T09:47:40.341Z</time>
      </trkpt>
      <trkpt lat="46.96401" lon="8.75326">
        <ele>1039</ele>
        <time>2021-08-06T09:47:41.342Z</time>
      </trkpt>
      <trkpt lat="46.964" lon="8.75325">
        <ele>1039</ele>
        <time>2021-08-06T09:47:42.341Z</time>
      </trkpt>
      <trkpt lat="46.964" lon="8.75325">
        <ele>1039</ele>
        <time>2021-08-06T09:47:43.342Z</time>
      </trkpt>
      <trkpt lat="46.96399" lon="8.75324">
        <ele>1039</ele>
        <time>2021-08-06T09:47:44.342Z</time>
      </trkpt>
      <trkpt lat="46.96399" lon="8.75323">
        <ele>1039</ele>
        <time>2021-08-06T09:47:45.342Z</time>
      </trkpt>
      <trkpt lat="46.96399" lon="8.75322">
        <ele>1039</ele>
        <time>2021-08-06T09:47:46.341Z</time>
      </trkpt>
      <trkpt lat="46.96399" lon="8.75321">
        <ele>1039</ele>
        <time>2021-08-06T09:47:47.341Z</time>
      </trkpt>
      <trkpt lat="46.96397" lon="8.75319">
        <ele>1039</ele>
        <time>2021-08-06T09:47:48.342Z</time>
      </trkpt>
      <trkpt lat="46.96396" lon="8.75319">
        <ele>1039</ele>
        <time>2021-08-06T09:47:49.341Z</time>
      </trkpt>
      <trkpt lat="46.96395" lon="8.75319">
        <ele>1039</ele>
        <time>2021-08-06T09:47:50.342Z</time>
      </trkpt>
      <trkpt lat="46.96394" lon="8.75317">
        <ele>1039</ele>
        <time>2021-08-06T09:47:51.341Z</time>
      </trkpt>
      <trkpt lat="46.96392" lon="8.75316">
        <ele>1039</ele>
        <time>2021-08-06T09:47:52.341Z</time>
      </trkpt>
      <trkpt lat="46.9639" lon="8.75314">
        <ele>1039</ele>
        <time>2021-08-06T09:47:53.341Z</time>
      </trkpt>
      <trkpt lat="46.96389" lon="8.75312">
        <ele>1038</ele>
        <time>2021-08-06T09:47:54.342Z</time>
      </trkpt>
      <trkpt lat="46.96387" lon="8.7531">
        <ele>1038</ele>
        <time>2021-08-06T09:47:55.341Z</time>
      </trkpt>
      <trkpt lat="46.96385" lon="8.7531">
        <ele>1038</ele>
        <time>2021-08-06T09:47:56.341Z</time>
      </trkpt>
      <trkpt lat="46.96384" lon="8.75309">
        <ele>1037</ele>
        <time>2021-08-06T09:47:57.341Z</time>
      </trkpt>
      <trkpt lat="46.96383" lon="8.75307">
        <ele>1037</ele>
        <time>2021-08-06T09:47:58.342Z</time>
      </trkpt>
      <trkpt lat="46.96382" lon="8.75306">
        <ele>1037</ele>
        <time>2021-08-06T09:47:59.341Z</time>
      </trkpt>
      <trkpt lat="46.96381" lon="8.75305">
        <ele>1037</ele>
        <time>2021-08-06T09:48:00.341Z</time>
      </trkpt>
      <trkpt lat="46.9638" lon="8.75304">
        <ele>1036</ele>
        <time>2021-08-06T09:48:01.342Z</time>
      </trkpt>
      <trkpt lat="46.9638" lon="8.75303">
        <ele>1036</ele>
        <time>2021-08-06T09:48:02.341Z</time>
      </trkpt>
      <trkpt lat="46.96379" lon="8.75302">
        <ele>1035</ele>
        <time>2021-08-06T09:48:03.342Z</time>
      </trkpt>
      <trkpt lat="46.96378" lon="8.75301">
        <ele>1034</ele>
        <time>2021-08-06T09:48:04.341Z</time>
      </trkpt>
      <trkpt lat="46.96377" lon="8.75299">
        <ele>1034</ele>
        <time>2021-08-06T09:48:05.342Z</time>
      </trkpt>
      <trkpt lat="46.96377" lon="8.75298">
        <ele>1033</ele>
        <time>2021-08-06T09:48:06.341Z</time>
      </trkpt>
      <trkpt lat="46.96377" lon="8.75296">
        <ele>1032</ele>
        <time>2021-08-06T09:48:07.341Z</time>
      </trkpt>
      <trkpt lat="46.96376" lon="8.75295">
        <ele>1032</ele>
        <time>2021-08-06T09:48:08.341Z</time>
      </trkpt>
      <trkpt lat="46.96375" lon="8.75294">
        <ele>1031</ele>
        <time>2021-08-06T09:48:09.342Z</time>
      </trkpt>
      <trkpt lat="46.96374" lon="8.75293">
        <ele>1030</ele>
        <time>2021-08-06T09:48:10.341Z</time>
      </trkpt>
      <trkpt lat="46.96373" lon="8.75292">
        <ele>1029</ele>
        <time>2021-08-06T09:48:11.341Z</time>
      </trkpt>
      <trkpt lat="46.96372" lon="8.75291">
        <ele>1029</ele>
        <time>2021-08-06T09:48:12.341Z</time>
      </trkpt>
      <trkpt lat="46.9637" lon="8.7529">
        <ele>1029</ele>
        <time>2021-08-06T09:48:13.341Z</time>
      </trkpt>
      <trkpt lat="46.96369" lon="8.75289">
        <ele>1029</ele>
        <time>2021-08-06T09:48:14.341Z</time>
      </trkpt>
      <trkpt lat="46.96369" lon="8.75288">
        <ele>1029</ele>
        <time>2021-08-06T09:48:15.342Z</time>
      </trkpt>
      <trkpt lat="46.96368" lon="8.75286">
        <ele>1029</ele>
        <time>2021-08-06T09:48:16.341Z</time>
      </trkpt>
      <trkpt lat="46.96366" lon="8.75284">
        <ele>1030</ele>
        <time>2021-08-06T09:48:17.341Z</time>
      </trkpt>
      <trkpt lat="46.96366" lon="8.75282">
        <ele>1030</ele>
        <time>2021-08-06T09:48:18.341Z</time>
      </trkpt>
      <trkpt lat="46.96365" lon="8.7528">
        <ele>1029</ele>
        <time>2021-08-06T09:48:19.341Z</time>
      </trkpt>
      <trkpt lat="46.96364" lon="8.75279">
        <ele>1029</ele>
        <time>2021-08-06T09:48:20.341Z</time>
      </trkpt>
      <trkpt lat="46.96363" lon="8.75277">
        <ele>1029</ele>
        <time>2021-08-06T09:48:21.341Z</time>
      </trkpt>
      <trkpt lat="46.96363" lon="8.75275">
        <ele>1029</ele>
        <time>2021-08-06T09:48:22.341Z</time>
      </trkpt>
      <trkpt lat="46.96363" lon="8.75273">
        <ele>1028</ele>
        <time>2021-08-06T09:48:23.342Z</time>
      </trkpt>
      <trkpt lat="46.96363" lon="8.75271">
        <ele>1028</ele>
        <time>2021-08-06T09:48:24.341Z</time>
      </trkpt>
      <trkpt lat="46.96362" lon="8.75269">
        <ele>1029</ele>
        <time>2021-08-06T09:48:25.341Z</time>
      </trkpt>
      <trkpt lat="46.96362" lon="8.75267">
        <ele>1029</ele>
        <time>2021-08-06T09:48:26.341Z</time>
      </trkpt>
      <trkpt lat="46.96362" lon="8.75266">
        <ele>1029</ele>
        <time>2021-08-06T09:48:27.341Z</time>
      </trkpt>
      <trkpt lat="46.96361" lon="8.75264">
        <ele>1029</ele>
        <time>2021-08-06T09:48:28.342Z</time>
      </trkpt>
      <trkpt lat="46.96361" lon="8.75263">
        <ele>1030</ele>
        <time>2021-08-06T09:48:29.342Z</time>
      </trkpt>
      <trkpt lat="46.96359" lon="8.75261">
        <ele>1030</ele>
        <time>2021-08-06T09:48:30.341Z</time>
      </trkpt>
      <trkpt lat="46.96357" lon="8.7526">
        <ele>1030</ele>
        <time>2021-08-06T09:48:31.341Z</time>
      </trkpt>
      <trkpt lat="46.96354" lon="8.75258">
        <ele>1031</ele>
        <time>2021-08-06T09:48:32.342Z</time>
      </trkpt>
      <trkpt lat="46.96354" lon="8.75256">
        <ele>1031</ele>
        <time>2021-08-06T09:48:33.341Z</time>
      </trkpt>
      <trkpt lat="46.96353" lon="8.75255">
        <ele>1032</ele>
        <time>2021-08-06T09:48:34.341Z</time>
      </trkpt>
      <trkpt lat="46.96353" lon="8.75253">
        <ele>1032</ele>
        <time>2021-08-06T09:48:35.341Z</time>
      </trkpt>
      <trkpt lat="46.96353" lon="8.75252">
        <ele>1033</ele>
        <time>2021-08-06T09:48:36.341Z</time>
      </trkpt>
      <trkpt lat="46.96352" lon="8.7525">
        <ele>1033</ele>
        <time>2021-08-06T09:48:37.341Z</time>
      </trkpt>
      <trkpt lat="46.96352" lon="8.75249">
        <ele>1033</ele>
        <time>2021-08-06T09:48:38.342Z</time>
      </trkpt>
      <trkpt lat="46.96351" lon="8.75248">
        <ele>1033</ele>
        <time>2021-08-06T09:48:39.341Z</time>
      </trkpt>
      <trkpt lat="46.9635" lon="8.75247">
        <ele>1032</ele>
        <time>2021-08-06T09:48:40.341Z</time>
      </trkpt>
      <trkpt lat="46.9635" lon="8.75245">
        <ele>1032</ele>
        <time>2021-08-06T09:48:41.342Z</time>
      </trkpt>
      <trkpt lat="46.9635" lon="8.75243">
        <ele>1032</ele>
        <time>2021-08-06T09:48:42.341Z</time>
      </trkpt>
      <trkpt lat="46.96349" lon="8.75242">
        <ele>1032</ele>
        <time>2021-08-06T09:48:43.341Z</time>
      </trkpt>
      <trkpt lat="46.96349" lon="8.7524">
        <ele>1032</ele>
        <time>2021-08-06T09:48:44.341Z</time>
      </trkpt>
      <trkpt lat="46.96349" lon="8.75238">
        <ele>1032</ele>
        <time>2021-08-06T09:48:45.341Z</time>
      </trkpt>
      <trkpt lat="46.96348" lon="8.75237">
        <ele>1032</ele>
        <time>2021-08-06T09:48:46.341Z</time>
      </trkpt>
      <trkpt lat="46.96348" lon="8.75236">
        <ele>1032</ele>
        <time>2021-08-06T09:48:47.341Z</time>
      </trkpt>
      <trkpt lat="46.96348" lon="8.75234">
        <ele>1032</ele>
        <time>2021-08-06T09:48:48.341Z</time>
      </trkpt>
      <trkpt lat="46.96347" lon="8.75232">
        <ele>1032</ele>
        <time>2021-08-06T09:48:49.341Z</time>
      </trkpt>
      <trkpt lat="46.96347" lon="8.75231">
        <ele>1032</ele>
        <time>2021-08-06T09:48:50.341Z</time>
      </trkpt>
      <trkpt lat="46.96346" lon="8.75229">
        <ele>1032</ele>
        <time>2021-08-06T09:48:51.341Z</time>
      </trkpt>
      <trkpt lat="46.96346" lon="8.75227">
        <ele>1032</ele>
        <time>2021-08-06T09:48:52.341Z</time>
      </trkpt>
      <trkpt lat="46.96346" lon="8.75226">
        <ele>1033</ele>
        <time>2021-08-06T09:48:53.342Z</time>
      </trkpt>
      <trkpt lat="46.96346" lon="8.75223">
        <ele>1033</ele>
        <time>2021-08-06T09:48:54.341Z</time>
      </trkpt>
      <trkpt lat="46.96346" lon="8.75221">
        <ele>1033</ele>
        <time>2021-08-06T09:48:55.341Z</time>
      </trkpt>
      <trkpt lat="46.96345" lon="8.75218">
        <ele>1033</ele>
        <time>2021-08-06T09:48:56.341Z</time>
      </trkpt>
      <trkpt lat="46.96343" lon="8.75217">
        <ele>1034</ele>
        <time>2021-08-06T09:48:57.341Z</time>
      </trkpt>
      <trkpt lat="46.96341" lon="8.75215">
        <ele>1034</ele>
        <time>2021-08-06T09:48:58.341Z</time>
      </trkpt>
      <trkpt lat="46.9634" lon="8.75213">
        <ele>1034</ele>
        <time>2021-08-06T09:48:59.341Z</time>
      </trkpt>
      <trkpt lat="46.9634" lon="8.75212">
        <ele>1035</ele>
        <time>2021-08-06T09:49:00.341Z</time>
      </trkpt>
      <trkpt lat="46.96339" lon="8.75211">
        <ele>1035</ele>
        <time>2021-08-06T09:49:01.342Z</time>
      </trkpt>
      <trkpt lat="46.96338" lon="8.7521">
        <ele>1035</ele>
        <time>2021-08-06T09:49:02.341Z</time>
      </trkpt>
      <trkpt lat="46.96338" lon="8.75208">
        <ele>1036</ele>
        <time>2021-08-06T09:49:03.341Z</time>
      </trkpt>
      <trkpt lat="46.96337" lon="8.75207">
        <ele>1036</ele>
        <time>2021-08-06T09:49:04.341Z</time>
      </trkpt>
      <trkpt lat="46.96336" lon="8.75205">
        <ele>1036</ele>
        <time>2021-08-06T09:49:05.341Z</time>
      </trkpt>
      <trkpt lat="46.96335" lon="8.75204">
        <ele>1036</ele>
        <time>2021-08-06T09:49:06.341Z</time>
      </trkpt>
      <trkpt lat="46.96334" lon="8.75203">
        <ele>1036</ele>
        <time>2021-08-06T09:49:07.341Z</time>
      </trkpt>
      <trkpt lat="46.96334" lon="8.75201">
        <ele>1036</ele>
        <time>2021-08-06T09:49:08.341Z</time>
      </trkpt>
      <trkpt lat="46.96333" lon="8.752">
        <ele>1036</ele>
        <time>2021-08-06T09:49:09.342Z</time>
      </trkpt>
      <trkpt lat="46.96332" lon="8.75198">
        <ele>1036</ele>
        <time>2021-08-06T09:49:10.341Z</time>
      </trkpt>
      <trkpt lat="46.96331" lon="8.75197">
        <ele>1036</ele>
        <time>2021-08-06T09:49:11.341Z</time>
      </trkpt>
      <trkpt lat="46.96331" lon="8.75196">
        <ele>1036</ele>
        <time>2021-08-06T09:49:12.341Z</time>
      </trkpt>
      <trkpt lat="46.96331" lon="8.75194">
        <ele>1036</ele>
        <time>2021-08-06T09:49:13.342Z</time>
      </trkpt>
      <trkpt lat="46.96332" lon="8.75193">
        <ele>1036</ele>
        <time>2021-08-06T09:49:14.342Z</time>
      </trkpt>
      <trkpt lat="46.96332" lon="8.75191">
        <ele>1036</ele>
        <time>2021-08-06T09:49:15.342Z</time>
      </trkpt>
      <trkpt lat="46.96332" lon="8.7519">
        <ele>1036</ele>
        <time>2021-08-06T09:49:16.341Z</time>
      </trkpt>
      <trkpt lat="46.96331" lon="8.75188">
        <ele>1035</ele>
        <time>2021-08-06T09:49:17.341Z</time>
      </trkpt>
      <trkpt lat="46.96331" lon="8.75187">
        <ele>1035</ele>
        <time>2021-08-06T09:49:18.341Z</time>
      </trkpt>
      <trkpt lat="46.9633" lon="8.75185">
        <ele>1036</ele>
        <time>2021-08-06T09:49:19.341Z</time>
      </trkpt>
      <trkpt lat="46.96329" lon="8.75184">
        <ele>1036</ele>
        <time>2021-08-06T09:49:20.342Z</time>
      </trkpt>
      <trkpt lat="46.96329" lon="8.75182">
        <ele>1036</ele>
        <time>2021-08-06T09:49:21.341Z</time>
      </trkpt>
      <trkpt lat="46.96328" lon="8.7518">
        <ele>1035</ele>
        <time>2021-08-06T09:49:22.342Z</time>
      </trkpt>
      <trkpt lat="46.96328" lon="8.75179">
        <ele>1035</ele>
        <time>2021-08-06T09:49:23.341Z</time>
      </trkpt>
      <trkpt lat="46.96327" lon="8.75178">
        <ele>1035</ele>
        <time>2021-08-06T09:49:24.341Z</time>
      </trkpt>
      <trkpt lat="46.96327" lon="8.75176">
        <ele>1035</ele>
        <time>2021-08-06T09:49:25.341Z</time>
      </trkpt>
      <trkpt lat="46.96325" lon="8.75175">
        <ele>1035</ele>
        <time>2021-08-06T09:49:26.342Z</time>
      </trkpt>
      <trkpt lat="46.96326" lon="8.75173">
        <ele>1035</ele>
        <time>2021-08-06T09:49:27.342Z</time>
      </trkpt>
      <trkpt lat="46.96324" lon="8.75172">
        <ele>1035</ele>
        <time>2021-08-06T09:49:28.342Z</time>
      </trkpt>
      <trkpt lat="46.96324" lon="8.7517">
        <ele>1035</ele>
        <time>2021-08-06T09:49:29.341Z</time>
      </trkpt>
      <trkpt lat="46.96323" lon="8.75169">
        <ele>1035</ele>
        <time>2021-08-06T09:49:30.342Z</time>
      </trkpt>
      <trkpt lat="46.96323" lon="8.75167">
        <ele>1036</ele>
        <time>2021-08-06T09:49:31.341Z</time>
      </trkpt>
      <trkpt lat="46.96322" lon="8.75165">
        <ele>1036</ele>
        <time>2021-08-06T09:49:32.341Z</time>
      </trkpt>
      <trkpt lat="46.96322" lon="8.75163">
        <ele>1036</ele>
        <time>2021-08-06T09:49:33.341Z</time>
      </trkpt>
      <trkpt lat="46.96322" lon="8.75162">
        <ele>1036</ele>
        <time>2021-08-06T09:49:34.341Z</time>
      </trkpt>
      <trkpt lat="46.96321" lon="8.7516">
        <ele>1036</ele>
        <time>2021-08-06T09:49:35.341Z</time>
      </trkpt>
      <trkpt lat="46.96321" lon="8.75159">
        <ele>1036</ele>
        <time>2021-08-06T09:49:36.341Z</time>
      </trkpt>
      <trkpt lat="46.9632" lon="8.75157">
        <ele>1036</ele>
        <time>2021-08-06T09:49:37.341Z</time>
      </trkpt>
      <trkpt lat="46.9632" lon="8.75156">
        <ele>1037</ele>
        <time>2021-08-06T09:49:38.341Z</time>
      </trkpt>
      <trkpt lat="46.9632" lon="8.75154">
        <ele>1037</ele>
        <time>2021-08-06T09:49:39.341Z</time>
      </trkpt>
      <trkpt lat="46.96319" lon="8.75152">
        <ele>1037</ele>
        <time>2021-08-06T09:49:40.341Z</time>
      </trkpt>
      <trkpt lat="46.96318" lon="8.75151">
        <ele>1037</ele>
        <time>2021-08-06T09:49:41.341Z</time>
      </trkpt>
      <trkpt lat="46.96318" lon="8.7515">
        <ele>1037</ele>
        <time>2021-08-06T09:49:42.342Z</time>
      </trkpt>
      <trkpt lat="46.96317" lon="8.75149">
        <ele>1037</ele>
        <time>2021-08-06T09:49:43.341Z</time>
      </trkpt>
      <trkpt lat="46.96317" lon="8.75147">
        <ele>1037</ele>
        <time>2021-08-06T09:49:44.341Z</time>
      </trkpt>
      <trkpt lat="46.96316" lon="8.75146">
        <ele>1037</ele>
        <time>2021-08-06T09:49:45.341Z</time>
      </trkpt>
      <trkpt lat="46.96316" lon="8.75145">
        <ele>1037</ele>
        <time>2021-08-06T09:49:46.341Z</time>
      </trkpt>
      <trkpt lat="46.96315" lon="8.75143">
        <ele>1037</ele>
        <time>2021-08-06T09:49:47.341Z</time>
      </trkpt>
      <trkpt lat="46.96314" lon="8.75142">
        <ele>1037</ele>
        <time>2021-08-06T09:49:48.341Z</time>
      </trkpt>
      <trkpt lat="46.96312" lon="8.75141">
        <ele>1037</ele>
        <time>2021-08-06T09:49:49.341Z</time>
      </trkpt>
      <trkpt lat="46.96311" lon="8.75141">
        <ele>1037</ele>
        <time>2021-08-06T09:49:50.342Z</time>
      </trkpt>
      <trkpt lat="46.9631" lon="8.7514">
        <ele>1037</ele>
        <time>2021-08-06T09:49:51.341Z</time>
      </trkpt>
      <trkpt lat="46.96309" lon="8.75139">
        <ele>1037</ele>
        <time>2021-08-06T09:49:52.341Z</time>
      </trkpt>
      <trkpt lat="46.96307" lon="8.75138">
        <ele>1036</ele>
        <time>2021-08-06T09:49:53.341Z</time>
      </trkpt>
      <trkpt lat="46.96306" lon="8.75138">
        <ele>1036</ele>
        <time>2021-08-06T09:49:54.341Z</time>
      </trkpt>
      <trkpt lat="46.96306" lon="8.75137">
        <ele>1037</ele>
        <time>2021-08-06T09:49:55.341Z</time>
      </trkpt>
      <trkpt lat="46.96306" lon="8.75136">
        <ele>1037</ele>
        <time>2021-08-06T09:49:56.341Z</time>
      </trkpt>
      <trkpt lat="46.96306" lon="8.75134">
        <ele>1038</ele>
        <time>2021-08-06T09:49:57.341Z</time>
      </trkpt>
      <trkpt lat="46.96306" lon="8.75134">
        <ele>1038</ele>
        <time>2021-08-06T09:49:58.342Z</time>
      </trkpt>
      <trkpt lat="46.96306" lon="8.75134">
        <ele>1038</ele>
        <time>2021-08-06T09:49:59.342Z</time>
      </trkpt>
      <trkpt lat="46.96306" lon="8.75135">
        <ele>1040</ele>
        <time>2021-08-06T09:50:00.343Z</time>
      </trkpt>
      <trkpt lat="46.96306" lon="8.75134">
        <ele>1041</ele>
        <time>2021-08-06T09:50:01.342Z</time>
      </trkpt>
      <trkpt lat="46.96306" lon="8.75134">
        <ele>1041</ele>
        <time>2021-08-06T09:50:02.343Z</time>
      </trkpt>
      <trkpt lat="46.96306" lon="8.75134">
        <ele>1042</ele>
        <time>2021-08-06T09:50:03.342Z</time>
      </trkpt>
      <trkpt lat="46.96306" lon="8.75134">
        <ele>1043</ele>
        <time>2021-08-06T09:50:04.343Z</time>
      </trkpt>
      <trkpt lat="46.96306" lon="8.75134">
        <ele>1044</ele>
        <time>2021-08-06T09:50:05.343Z</time>
      </trkpt>
      <trkpt lat="46.96307" lon="8.75134">
        <ele>1045</ele>
        <time>2021-08-06T09:50:06.343Z</time>
      </trkpt>
      <trkpt lat="46.96308" lon="8.75133">
        <ele>1046</ele>
        <time>2021-08-06T09:50:07.343Z</time>
      </trkpt>
      <trkpt lat="46.96308" lon="8.75132">
        <ele>1051</ele>
        <time>2021-08-06T09:50:08.345Z</time>
      </trkpt>
      <trkpt lat="46.96309" lon="8.75132">
        <ele>1052</ele>
        <time>2021-08-06T09:50:09.344Z</time>
      </trkpt>
      <trkpt lat="46.96309" lon="8.75132">
        <ele>1052</ele>
        <time>2021-08-06T09:50:10.344Z</time>
      </trkpt>
      <trkpt lat="46.96309" lon="8.75132">
        <ele>1053</ele>
        <time>2021-08-06T09:50:11.345Z</time>
      </trkpt>
      <trkpt lat="46.96309" lon="8.75132">
        <ele>1053</ele>
        <time>2021-08-06T09:50:12.345Z</time>
      </trkpt>
      <trkpt lat="46.96309" lon="8.75132">
        <ele>1053</ele>
        <time>2021-08-06T09:50:13.345Z</time>
      </trkpt>
      <trkpt lat="46.96309" lon="8.75131">
        <ele>1053</ele>
        <time>2021-08-06T09:50:14.345Z</time>
      </trkpt>
      <trkpt lat="46.96306" lon="8.75133">
        <ele>1052</ele>
        <time>2021-08-06T09:50:15.346Z</time>
      </trkpt>
      <trkpt lat="46.96306" lon="8.75133">
        <ele>1051</ele>
        <time>2021-08-06T09:50:16.346Z</time>
      </trkpt>
      <trkpt lat="46.96305" lon="8.75132">
        <ele>1051</ele>
        <time>2021-08-06T09:50:17.345Z</time>
      </trkpt>
      <trkpt lat="46.96305" lon="8.75132">
        <ele>1051</ele>
        <time>2021-08-06T09:50:18.346Z</time>
      </trkpt>
      <trkpt lat="46.96304" lon="8.75132">
        <ele>1051</ele>
        <time>2021-08-06T09:50:19.346Z</time>
      </trkpt>
      <trkpt lat="46.96304" lon="8.75131">
        <ele>1052</ele>
        <time>2021-08-06T09:50:20.346Z</time>
      </trkpt>
      <trkpt lat="46.96306" lon="8.7513">
        <ele>1055</ele>
        <time>2021-08-06T09:50:21.348Z</time>
      </trkpt>
      <trkpt lat="46.96306" lon="8.7513">
        <ele>1056</ele>
        <time>2021-08-06T09:50:22.348Z</time>
      </trkpt>
      <trkpt lat="46.96306" lon="8.7513">
        <ele>1056</ele>
        <time>2021-08-06T09:50:23.347Z</time>
      </trkpt>
      <trkpt lat="46.96306" lon="8.7513">
        <ele>1056</ele>
        <time>2021-08-06T09:50:24.349Z</time>
      </trkpt>
      <trkpt lat="46.96305" lon="8.7513">
        <ele>1056</ele>
        <time>2021-08-06T09:50:25.348Z</time>
      </trkpt>
      <trkpt lat="46.96304" lon="8.7513">
        <ele>1056</ele>
        <time>2021-08-06T09:50:26.348Z</time>
      </trkpt>
      <trkpt lat="46.96304" lon="8.7513">
        <ele>1056</ele>
        <time>2021-08-06T09:50:27.349Z</time>
      </trkpt>
      <trkpt lat="46.96304" lon="8.7513">
        <ele>1055</ele>
        <time>2021-08-06T09:50:28.348Z</time>
      </trkpt>
      <trkpt lat="46.96306" lon="8.75131">
        <ele>1053</ele>
        <time>2021-08-06T09:50:29.350Z</time>
      </trkpt>
      <trkpt lat="46.96306" lon="8.75131">
        <ele>1052</ele>
        <time>2021-08-06T09:50:30.350Z</time>
      </trkpt>
      <trkpt lat="46.96306" lon="8.75131">
        <ele>1052</ele>
        <time>2021-08-06T09:50:31.350Z</time>
      </trkpt>
      <trkpt lat="46.96307" lon="8.75132">
        <ele>1051</ele>
        <time>2021-08-06T09:50:32.350Z</time>
      </trkpt>
      <trkpt lat="46.96307" lon="8.75132">
        <ele>1051</ele>
        <time>2021-08-06T09:50:33.349Z</time>
      </trkpt>
      <trkpt lat="46.96308" lon="8.75132">
        <ele>1050</ele>
        <time>2021-08-06T09:50:34.349Z</time>
      </trkpt>
      <trkpt lat="46.96308" lon="8.75132">
        <ele>1050</ele>
        <time>2021-08-06T09:50:35.349Z</time>
      </trkpt>
      <trkpt lat="46.96308" lon="8.75133">
        <ele>1050</ele>
        <time>2021-08-06T09:50:36.349Z</time>
      </trkpt>
      <trkpt lat="46.96308" lon="8.75133">
        <ele>1049</ele>
        <time>2021-08-06T09:50:37.349Z</time>
      </trkpt>
      <trkpt lat="46.96303" lon="8.75134">
        <ele>1045</ele>
        <time>2021-08-06T09:50:38.349Z</time>
      </trkpt>
      <trkpt lat="46.96304" lon="8.75134">
        <ele>1045</ele>
        <time>2021-08-06T09:50:39.350Z</time>
      </trkpt>
      <trkpt lat="46.96305" lon="8.75133">
        <ele>1045</ele>
        <time>2021-08-06T09:50:40.350Z</time>
      </trkpt>
      <trkpt lat="46.96308" lon="8.75134">
        <ele>1044</ele>
        <time>2021-08-06T09:50:41.350Z</time>
      </trkpt>
      <trkpt lat="46.96308" lon="8.75137">
        <ele>1045</ele>
        <time>2021-08-06T09:50:42.351Z</time>
      </trkpt>
      <trkpt lat="46.96307" lon="8.75137">
        <ele>1045</ele>
        <time>2021-08-06T09:50:43.351Z</time>
      </trkpt>
      <trkpt lat="46.96308" lon="8.75137">
        <ele>1044</ele>
        <time>2021-08-06T09:50:44.352Z</time>
      </trkpt>
      <trkpt lat="46.96308" lon="8.75137">
        <ele>1044</ele>
        <time>2021-08-06T09:50:45.352Z</time>
      </trkpt>
      <trkpt lat="46.96309" lon="8.75137">
        <ele>1044</ele>
        <time>2021-08-06T09:50:46.351Z</time>
      </trkpt>
      <trkpt lat="46.96308" lon="8.75134">
        <ele>1045</ele>
        <time>2021-08-06T09:50:47.353Z</time>
      </trkpt>
      <trkpt lat="46.96308" lon="8.75135">
        <ele>1045</ele>
        <time>2021-08-06T09:50:48.353Z</time>
      </trkpt>
      <trkpt lat="46.96308" lon="8.75135">
        <ele>1045</ele>
        <time>2021-08-06T09:50:49.353Z</time>
      </trkpt>
      <trkpt lat="46.96308" lon="8.75135">
        <ele>1045</ele>
        <time>2021-08-06T09:50:50.352Z</time>
      </trkpt>
      <trkpt lat="46.96307" lon="8.75135">
        <ele>1044</ele>
        <time>2021-08-06T09:50:51.353Z</time>
      </trkpt>
      <trkpt lat="46.96306" lon="8.75135">
        <ele>1043</ele>
        <time>2021-08-06T09:50:52.352Z</time>
      </trkpt>
      <trkpt lat="46.96305" lon="8.75135">
        <ele>1042</ele>
        <time>2021-08-06T09:50:53.352Z</time>
      </trkpt>
      <trkpt lat="46.96305" lon="8.75135">
        <ele>1041</ele>
        <time>2021-08-06T09:50:54.352Z</time>
      </trkpt>
      <trkpt lat="46.96304" lon="8.75135">
        <ele>1041</ele>
        <time>2021-08-06T09:50:55.353Z</time>
      </trkpt>
      <trkpt lat="46.96305" lon="8.75135">
        <ele>1040</ele>
        <time>2021-08-06T09:50:56.353Z</time>
      </trkpt>
      <trkpt lat="46.96305" lon="8.75136">
        <ele>1039</ele>
        <time>2021-08-06T09:50:57.353Z</time>
      </trkpt>
      <trkpt lat="46.96306" lon="8.75135">
        <ele>1039</ele>
        <time>2021-08-06T09:50:58.352Z</time>
      </trkpt>
      <trkpt lat="46.96304" lon="8.75138">
        <ele>1026</ele>
        <time>2021-08-06T09:50:59.352Z</time>
      </trkpt>
      <trkpt lat="46.96304" lon="8.75138">
        <ele>1026</ele>
        <time>2021-08-06T09:51:00.352Z</time>
      </trkpt>
      <trkpt lat="46.96306" lon="8.75135">
        <ele>1027</ele>
        <time>2021-08-06T09:51:01.353Z</time>
      </trkpt>
      <trkpt lat="46.96305" lon="8.75135">
        <ele>1028</ele>
        <time>2021-08-06T09:51:02.353Z</time>
      </trkpt>
      <trkpt lat="46.96305" lon="8.75136">
        <ele>1032</ele>
        <time>2021-08-06T09:51:03.353Z</time>
      </trkpt>
      <trkpt lat="46.96305" lon="8.75136">
        <ele>1032</ele>
        <time>2021-08-06T09:51:04.353Z</time>
      </trkpt>
      <trkpt lat="46.96304" lon="8.75135">
        <ele>1033</ele>
        <time>2021-08-06T09:51:05.353Z</time>
      </trkpt>
      <trkpt lat="46.96303" lon="8.75135">
        <ele>1034</ele>
        <time>2021-08-06T09:51:06.352Z</time>
      </trkpt>
      <trkpt lat="46.96302" lon="8.75135">
        <ele>1034</ele>
        <time>2021-08-06T09:51:07.352Z</time>
      </trkpt>
      <trkpt lat="46.96301" lon="8.75135">
        <ele>1035</ele>
        <time>2021-08-06T09:51:08.353Z</time>
      </trkpt>
      <trkpt lat="46.96301" lon="8.75135">
        <ele>1035</ele>
        <time>2021-08-06T09:51:09.353Z</time>
      </trkpt>
      <trkpt lat="46.96301" lon="8.75135">
        <ele>1035</ele>
        <time>2021-08-06T09:51:10.352Z</time>
      </trkpt>
      <trkpt lat="46.96301" lon="8.75135">
        <ele>1036</ele>
        <time>2021-08-06T09:51:11.352Z</time>
      </trkpt>
      <trkpt lat="46.963" lon="8.75135">
        <ele>1036</ele>
        <time>2021-08-06T09:51:12.353Z</time>
      </trkpt>
      <trkpt lat="46.963" lon="8.75134">
        <ele>1037</ele>
        <time>2021-08-06T09:51:13.353Z</time>
      </trkpt>
      <trkpt lat="46.96299" lon="8.75134">
        <ele>1038</ele>
        <time>2021-08-06T09:51:14.353Z</time>
      </trkpt>
      <trkpt lat="46.96299" lon="8.75133">
        <ele>1038</ele>
        <time>2021-08-06T09:51:15.353Z</time>
      </trkpt>
      <trkpt lat="46.96298" lon="8.75133">
        <ele>1039</ele>
        <time>2021-08-06T09:51:16.352Z</time>
      </trkpt>
      <trkpt lat="46.96297" lon="8.75132">
        <ele>1040</ele>
        <time>2021-08-06T09:51:17.353Z</time>
      </trkpt>
      <trkpt lat="46.96296" lon="8.75131">
        <ele>1040</ele>
        <time>2021-08-06T09:51:18.353Z</time>
      </trkpt>
      <trkpt lat="46.96295" lon="8.75131">
        <ele>1041</ele>
        <time>2021-08-06T09:51:19.353Z</time>
      </trkpt>
      <trkpt lat="46.96295" lon="8.75131">
        <ele>1042</ele>
        <time>2021-08-06T09:51:20.353Z</time>
      </trkpt>
      <trkpt lat="46.96294" lon="8.7513">
        <ele>1042</ele>
        <time>2021-08-06T09:51:21.353Z</time>
      </trkpt>
      <trkpt lat="46.96294" lon="8.7513">
        <ele>1043</ele>
        <time>2021-08-06T09:51:22.352Z</time>
      </trkpt>
      <trkpt lat="46.96295" lon="8.75129">
        <ele>1044</ele>
        <time>2021-08-06T09:51:23.352Z</time>
      </trkpt>
      <trkpt lat="46.96294" lon="8.75129">
        <ele>1044</ele>
        <time>2021-08-06T09:51:24.352Z</time>
      </trkpt>
      <trkpt lat="46.96294" lon="8.75128">
        <ele>1045</ele>
        <time>2021-08-06T09:51:25.353Z</time>
      </trkpt>
      <trkpt lat="46.96293" lon="8.75128">
        <ele>1045</ele>
        <time>2021-08-06T09:51:26.353Z</time>
      </trkpt>
      <trkpt lat="46.96293" lon="8.75127">
        <ele>1045</ele>
        <time>2021-08-06T09:51:27.352Z</time>
      </trkpt>
      <trkpt lat="46.96292" lon="8.75125">
        <ele>1045</ele>
        <time>2021-08-06T09:51:28.353Z</time>
      </trkpt>
      <trkpt lat="46.96292" lon="8.75124">
        <ele>1045</ele>
        <time>2021-08-06T09:51:29.353Z</time>
      </trkpt>
      <trkpt lat="46.96291" lon="8.75123">
        <ele>1045</ele>
        <time>2021-08-06T09:51:30.352Z</time>
      </trkpt>
      <trkpt lat="46.9629" lon="8.75123">
        <ele>1045</ele>
        <time>2021-08-06T09:51:31.353Z</time>
      </trkpt>
      <trkpt lat="46.9629" lon="8.75122">
        <ele>1045</ele>
        <time>2021-08-06T09:51:32.353Z</time>
      </trkpt>
      <trkpt lat="46.9629" lon="8.75121">
        <ele>1044</ele>
        <time>2021-08-06T09:51:33.353Z</time>
      </trkpt>
      <trkpt lat="46.9629" lon="8.7512">
        <ele>1044</ele>
        <time>2021-08-06T09:51:34.352Z</time>
      </trkpt>
      <trkpt lat="46.9629" lon="8.75119">
        <ele>1044</ele>
        <time>2021-08-06T09:51:35.353Z</time>
      </trkpt>
      <trkpt lat="46.9629" lon="8.75118">
        <ele>1043</ele>
        <time>2021-08-06T09:51:36.352Z</time>
      </trkpt>
      <trkpt lat="46.96289" lon="8.75117">
        <ele>1043</ele>
        <time>2021-08-06T09:51:37.352Z</time>
      </trkpt>
      <trkpt lat="46.96288" lon="8.75117">
        <ele>1043</ele>
        <time>2021-08-06T09:51:38.353Z</time>
      </trkpt>
      <trkpt lat="46.96287" lon="8.75116">
        <ele>1044</ele>
        <time>2021-08-06T09:51:39.352Z</time>
      </trkpt>
      <trkpt lat="46.96286" lon="8.75115">
        <ele>1044</ele>
        <time>2021-08-06T09:51:40.353Z</time>
      </trkpt>
      <trkpt lat="46.96284" lon="8.75114">
        <ele>1044</ele>
        <time>2021-08-06T09:51:41.352Z</time>
      </trkpt>
      <trkpt lat="46.96283" lon="8.75114">
        <ele>1045</ele>
        <time>2021-08-06T09:51:42.353Z</time>
      </trkpt>
      <trkpt lat="46.96282" lon="8.75113">
        <ele>1046</ele>
        <time>2021-08-06T09:51:43.352Z</time>
      </trkpt>
      <trkpt lat="46.96282" lon="8.75112">
        <ele>1046</ele>
        <time>2021-08-06T09:51:44.352Z</time>
      </trkpt>
      <trkpt lat="46.96281" lon="8.75112">
        <ele>1047</ele>
        <time>2021-08-06T09:51:45.353Z</time>
      </trkpt>
      <trkpt lat="46.96281" lon="8.75112">
        <ele>1048</ele>
        <time>2021-08-06T09:51:46.353Z</time>
      </trkpt>
      <trkpt lat="46.96281" lon="8.75112">
        <ele>1048</ele>
        <time>2021-08-06T09:51:47.353Z</time>
      </trkpt>
      <trkpt lat="46.9628" lon="8.75111">
        <ele>1049</ele>
        <time>2021-08-06T09:51:48.353Z</time>
      </trkpt>
      <trkpt lat="46.9628" lon="8.7511">
        <ele>1050</ele>
        <time>2021-08-06T09:51:49.352Z</time>
      </trkpt>
      <trkpt lat="46.96279" lon="8.75109">
        <ele>1050</ele>
        <time>2021-08-06T09:51:50.352Z</time>
      </trkpt>
      <trkpt lat="46.96278" lon="8.75108">
        <ele>1051</ele>
        <time>2021-08-06T09:51:51.352Z</time>
      </trkpt>
      <trkpt lat="46.96278" lon="8.75107">
        <ele>1050</ele>
        <time>2021-08-06T09:51:52.353Z</time>
      </trkpt>
      <trkpt lat="46.96278" lon="8.75106">
        <ele>1050</ele>
        <time>2021-08-06T09:51:53.353Z</time>
      </trkpt>
      <trkpt lat="46.96278" lon="8.75105">
        <ele>1050</ele>
        <time>2021-08-06T09:51:54.353Z</time>
      </trkpt>
      <trkpt lat="46.96278" lon="8.75105">
        <ele>1050</ele>
        <time>2021-08-06T09:51:55.353Z</time>
      </trkpt>
      <trkpt lat="46.96277" lon="8.75104">
        <ele>1050</ele>
        <time>2021-08-06T09:51:56.353Z</time>
      </trkpt>
      <trkpt lat="46.96277" lon="8.75103">
        <ele>1050</ele>
        <time>2021-08-06T09:51:57.353Z</time>
      </trkpt>
      <trkpt lat="46.96277" lon="8.75103">
        <ele>1050</ele>
        <time>2021-08-06T09:51:58.353Z</time>
      </trkpt>
      <trkpt lat="46.96278" lon="8.75101">
        <ele>1050</ele>
        <time>2021-08-06T09:51:59.352Z</time>
      </trkpt>
      <trkpt lat="46.96279" lon="8.75099">
        <ele>1050</ele>
        <time>2021-08-06T09:52:00.353Z</time>
      </trkpt>
      <trkpt lat="46.96279" lon="8.75098">
        <ele>1050</ele>
        <time>2021-08-06T09:52:01.353Z</time>
      </trkpt>
      <trkpt lat="46.9628" lon="8.75097">
        <ele>1050</ele>
        <time>2021-08-06T09:52:02.352Z</time>
      </trkpt>
      <trkpt lat="46.9628" lon="8.75096">
        <ele>1049</ele>
        <time>2021-08-06T09:52:03.352Z</time>
      </trkpt>
      <trkpt lat="46.9628" lon="8.75095">
        <ele>1049</ele>
        <time>2021-08-06T09:52:04.352Z</time>
      </trkpt>
      <trkpt lat="46.96281" lon="8.75094">
        <ele>1049</ele>
        <time>2021-08-06T09:52:05.353Z</time>
      </trkpt>
      <trkpt lat="46.96281" lon="8.75093">
        <ele>1049</ele>
        <time>2021-08-06T09:52:06.352Z</time>
      </trkpt>
      <trkpt lat="46.96281" lon="8.75092">
        <ele>1048</ele>
        <time>2021-08-06T09:52:07.352Z</time>
      </trkpt>
      <trkpt lat="46.9628" lon="8.75091">
        <ele>1048</ele>
        <time>2021-08-06T09:52:08.353Z</time>
      </trkpt>
      <trkpt lat="46.96279" lon="8.7509">
        <ele>1047</ele>
        <time>2021-08-06T09:52:09.352Z</time>
      </trkpt>
      <trkpt lat="46.96278" lon="8.7509">
        <ele>1046</ele>
        <time>2021-08-06T09:52:10.352Z</time>
      </trkpt>
      <trkpt lat="46.96278" lon="8.75089">
        <ele>1045</ele>
        <time>2021-08-06T09:52:11.352Z</time>
      </trkpt>
      <trkpt lat="46.96277" lon="8.75089">
        <ele>1044</ele>
        <time>2021-08-06T09:52:12.352Z</time>
      </trkpt>
      <trkpt lat="46.96276" lon="8.75088">
        <ele>1044</ele>
        <time>2021-08-06T09:52:13.352Z</time>
      </trkpt>
      <trkpt lat="46.96275" lon="8.75088">
        <ele>1043</ele>
        <time>2021-08-06T09:52:14.352Z</time>
      </trkpt>
      <trkpt lat="46.96275" lon="8.75087">
        <ele>1043</ele>
        <time>2021-08-06T09:52:15.352Z</time>
      </trkpt>
      <trkpt lat="46.96274" lon="8.75086">
        <ele>1043</ele>
        <time>2021-08-06T09:52:16.352Z</time>
      </trkpt>
      <trkpt lat="46.96273" lon="8.75086">
        <ele>1042</ele>
        <time>2021-08-06T09:52:17.353Z</time>
      </trkpt>
      <trkpt lat="46.96271" lon="8.75086">
        <ele>1042</ele>
        <time>2021-08-06T09:52:18.352Z</time>
      </trkpt>
      <trkpt lat="46.9627" lon="8.75085">
        <ele>1041</ele>
        <time>2021-08-06T09:52:19.352Z</time>
      </trkpt>
      <trkpt lat="46.96269" lon="8.75085">
        <ele>1041</ele>
        <time>2021-08-06T09:52:20.352Z</time>
      </trkpt>
      <trkpt lat="46.96269" lon="8.75083">
        <ele>1041</ele>
        <time>2021-08-06T09:52:21.352Z</time>
      </trkpt>
      <trkpt lat="46.9627" lon="8.75082">
        <ele>1041</ele>
        <time>2021-08-06T09:52:22.352Z</time>
      </trkpt>
      <trkpt lat="46.9627" lon="8.75081">
        <ele>1041</ele>
        <time>2021-08-06T09:52:23.352Z</time>
      </trkpt>
      <trkpt lat="46.9627" lon="8.75079">
        <ele>1042</ele>
        <time>2021-08-06T09:52:24.352Z</time>
      </trkpt>
      <trkpt lat="46.9627" lon="8.75079">
        <ele>1043</ele>
        <time>2021-08-06T09:52:25.352Z</time>
      </trkpt>
      <trkpt lat="46.9627" lon="8.75078">
        <ele>1043</ele>
        <time>2021-08-06T09:52:26.352Z</time>
      </trkpt>
      <trkpt lat="46.96269" lon="8.75077">
        <ele>1044</ele>
        <time>2021-08-06T09:52:27.352Z</time>
      </trkpt>
      <trkpt lat="46.96269" lon="8.75077">
        <ele>1045</ele>
        <time>2021-08-06T09:52:28.352Z</time>
      </trkpt>
      <trkpt lat="46.96269" lon="8.75076">
        <ele>1046</ele>
        <time>2021-08-06T09:52:29.352Z</time>
      </trkpt>
      <trkpt lat="46.96269" lon="8.75075">
        <ele>1046</ele>
        <time>2021-08-06T09:52:30.352Z</time>
      </trkpt>
      <trkpt lat="46.96268" lon="8.75074">
        <ele>1047</ele>
        <time>2021-08-06T09:52:31.352Z</time>
      </trkpt>
      <trkpt lat="46.96269" lon="8.75073">
        <ele>1048</ele>
        <time>2021-08-06T09:52:32.353Z</time>
      </trkpt>
      <trkpt lat="46.96268" lon="8.75073">
        <ele>1048</ele>
        <time>2021-08-06T09:52:33.352Z</time>
      </trkpt>
      <trkpt lat="46.96268" lon="8.75072">
        <ele>1049</ele>
        <time>2021-08-06T09:52:34.353Z</time>
      </trkpt>
      <trkpt lat="46.96268" lon="8.75071">
        <ele>1050</ele>
        <time>2021-08-06T09:52:35.353Z</time>
      </trkpt>
      <trkpt lat="46.96268" lon="8.75071">
        <ele>1051</ele>
        <time>2021-08-06T09:52:36.353Z</time>
      </trkpt>
      <trkpt lat="46.96268" lon="8.7507">
        <ele>1052</ele>
        <time>2021-08-06T09:52:37.353Z</time>
      </trkpt>
      <trkpt lat="46.96267" lon="8.75069">
        <ele>1052</ele>
        <time>2021-08-06T09:52:38.352Z</time>
      </trkpt>
      <trkpt lat="46.96266" lon="8.75068">
        <ele>1053</ele>
        <time>2021-08-06T09:52:39.353Z</time>
      </trkpt>
      <trkpt lat="46.96266" lon="8.75068">
        <ele>1053</ele>
        <time>2021-08-06T09:52:40.352Z</time>
      </trkpt>
      <trkpt lat="46.96265" lon="8.75067">
        <ele>1053</ele>
        <time>2021-08-06T09:52:41.353Z</time>
      </trkpt>
      <trkpt lat="46.96265" lon="8.75066">
        <ele>1053</ele>
        <time>2021-08-06T09:52:42.353Z</time>
      </trkpt>
      <trkpt lat="46.96264" lon="8.75066">
        <ele>1053</ele>
        <time>2021-08-06T09:52:43.353Z</time>
      </trkpt>
      <trkpt lat="46.96263" lon="8.75065">
        <ele>1054</ele>
        <time>2021-08-06T09:52:44.353Z</time>
      </trkpt>
      <trkpt lat="46.96262" lon="8.75064">
        <ele>1054</ele>
        <time>2021-08-06T09:52:45.353Z</time>
      </trkpt>
      <trkpt lat="46.96261" lon="8.75063">
        <ele>1054</ele>
        <time>2021-08-06T09:52:46.353Z</time>
      </trkpt>
      <trkpt lat="46.9626" lon="8.75062">
        <ele>1054</ele>
        <time>2021-08-06T09:52:47.352Z</time>
      </trkpt>
      <trkpt lat="46.96259" lon="8.75061">
        <ele>1054</ele>
        <time>2021-08-06T09:52:48.353Z</time>
      </trkpt>
      <trkpt lat="46.96258" lon="8.7506">
        <ele>1054</ele>
        <time>2021-08-06T09:52:49.353Z</time>
      </trkpt>
      <trkpt lat="46.96257" lon="8.75059">
        <ele>1054</ele>
        <time>2021-08-06T09:52:50.352Z</time>
      </trkpt>
      <trkpt lat="46.96256" lon="8.75058">
        <ele>1054</ele>
        <time>2021-08-06T09:52:51.352Z</time>
      </trkpt>
      <trkpt lat="46.96255" lon="8.75056">
        <ele>1054</ele>
        <time>2021-08-06T09:52:52.352Z</time>
      </trkpt>
      <trkpt lat="46.96253" lon="8.75055">
        <ele>1053</ele>
        <time>2021-08-06T09:52:53.352Z</time>
      </trkpt>
      <trkpt lat="46.96253" lon="8.75053">
        <ele>1053</ele>
        <time>2021-08-06T09:52:54.352Z</time>
      </trkpt>
      <trkpt lat="46.96253" lon="8.75052">
        <ele>1054</ele>
        <time>2021-08-06T09:52:55.352Z</time>
      </trkpt>
      <trkpt lat="46.96254" lon="8.7505">
        <ele>1054</ele>
        <time>2021-08-06T09:52:56.352Z</time>
      </trkpt>
      <trkpt lat="46.96254" lon="8.75048">
        <ele>1054</ele>
        <time>2021-08-06T09:52:57.352Z</time>
      </trkpt>
      <trkpt lat="46.96253" lon="8.75047">
        <ele>1054</ele>
        <time>2021-08-06T09:52:58.352Z</time>
      </trkpt>
      <trkpt lat="46.96251" lon="8.75046">
        <ele>1054</ele>
        <time>2021-08-06T09:52:59.352Z</time>
      </trkpt>
      <trkpt lat="46.96251" lon="8.75045">
        <ele>1054</ele>
        <time>2021-08-06T09:53:00.352Z</time>
      </trkpt>
      <trkpt lat="46.9625" lon="8.75044">
        <ele>1054</ele>
        <time>2021-08-06T09:53:01.352Z</time>
      </trkpt>
      <trkpt lat="46.9625" lon="8.75043">
        <ele>1054</ele>
        <time>2021-08-06T09:53:02.352Z</time>
      </trkpt>
      <trkpt lat="46.9625" lon="8.75041">
        <ele>1054</ele>
        <time>2021-08-06T09:53:03.352Z</time>
      </trkpt>
      <trkpt lat="46.9625" lon="8.75039">
        <ele>1054</ele>
        <time>2021-08-06T09:53:04.353Z</time>
      </trkpt>
      <trkpt lat="46.96249" lon="8.75038">
        <ele>1054</ele>
        <time>2021-08-06T09:53:05.353Z</time>
      </trkpt>
      <trkpt lat="46.96248" lon="8.75037">
        <ele>1055</ele>
        <time>2021-08-06T09:53:06.353Z</time>
      </trkpt>
      <trkpt lat="46.96247" lon="8.75036">
        <ele>1055</ele>
        <time>2021-08-06T09:53:07.353Z</time>
      </trkpt>
      <trkpt lat="46.96246" lon="8.75035">
        <ele>1055</ele>
        <time>2021-08-06T09:53:08.353Z</time>
      </trkpt>
      <trkpt lat="46.96243" lon="8.75035">
        <ele>1055</ele>
        <time>2021-08-06T09:53:09.353Z</time>
      </trkpt>
      <trkpt lat="46.96242" lon="8.75035">
        <ele>1055</ele>
        <time>2021-08-06T09:53:10.353Z</time>
      </trkpt>
      <trkpt lat="46.96241" lon="8.75035">
        <ele>1055</ele>
        <time>2021-08-06T09:53:11.352Z</time>
      </trkpt>
      <trkpt lat="46.96239" lon="8.75037">
        <ele>1053</ele>
        <time>2021-08-06T09:53:12.353Z</time>
      </trkpt>
      <trkpt lat="46.96239" lon="8.75037">
        <ele>1052</ele>
        <time>2021-08-06T09:53:13.353Z</time>
      </trkpt>
      <trkpt lat="46.9624" lon="8.75036">
        <ele>1051</ele>
        <time>2021-08-06T09:53:14.353Z</time>
      </trkpt>
      <trkpt lat="46.9624" lon="8.75032">
        <ele>1051</ele>
        <time>2021-08-06T09:53:15.355Z</time>
      </trkpt>
      <trkpt lat="46.96239" lon="8.75032">
        <ele>1050</ele>
        <time>2021-08-06T09:53:16.355Z</time>
      </trkpt>
      <trkpt lat="46.96239" lon="8.75031">
        <ele>1050</ele>
        <time>2021-08-06T09:53:17.355Z</time>
      </trkpt>
      <trkpt lat="46.96238" lon="8.75031">
        <ele>1050</ele>
        <time>2021-08-06T09:53:18.354Z</time>
      </trkpt>
      <trkpt lat="46.96237" lon="8.7503">
        <ele>1050</ele>
        <time>2021-08-06T09:53:19.354Z</time>
      </trkpt>
      <trkpt lat="46.96237" lon="8.75029">
        <ele>1050</ele>
        <time>2021-08-06T09:53:20.355Z</time>
      </trkpt>
      <trkpt lat="46.96236" lon="8.75029">
        <ele>1050</ele>
        <time>2021-08-06T09:53:21.354Z</time>
      </trkpt>
      <trkpt lat="46.96235" lon="8.75028">
        <ele>1050</ele>
        <time>2021-08-06T09:53:22.355Z</time>
      </trkpt>
      <trkpt lat="46.96235" lon="8.75027">
        <ele>1050</ele>
        <time>2021-08-06T09:53:23.355Z</time>
      </trkpt>
      <trkpt lat="46.96234" lon="8.75026">
        <ele>1050</ele>
        <time>2021-08-06T09:53:24.354Z</time>
      </trkpt>
      <trkpt lat="46.96234" lon="8.75025">
        <ele>1050</ele>
        <time>2021-08-06T09:53:25.354Z</time>
      </trkpt>
      <trkpt lat="46.96233" lon="8.75024">
        <ele>1050</ele>
        <time>2021-08-06T09:53:26.355Z</time>
      </trkpt>
      <trkpt lat="46.96233" lon="8.75023">
        <ele>1051</ele>
        <time>2021-08-06T09:53:27.355Z</time>
      </trkpt>
      <trkpt lat="46.96233" lon="8.75022">
        <ele>1051</ele>
        <time>2021-08-06T09:53:28.355Z</time>
      </trkpt>
      <trkpt lat="46.96233" lon="8.75021">
        <ele>1051</ele>
        <time>2021-08-06T09:53:29.355Z</time>
      </trkpt>
      <trkpt lat="46.96232" lon="8.7502">
        <ele>1051</ele>
        <time>2021-08-06T09:53:30.355Z</time>
      </trkpt>
      <trkpt lat="46.96231" lon="8.7502">
        <ele>1051</ele>
        <time>2021-08-06T09:53:31.355Z</time>
      </trkpt>
      <trkpt lat="46.96229" lon="8.7502">
        <ele>1051</ele>
        <time>2021-08-06T09:53:32.355Z</time>
      </trkpt>
      <trkpt lat="46.96229" lon="8.75019">
        <ele>1051</ele>
        <time>2021-08-06T09:53:33.355Z</time>
      </trkpt>
      <trkpt lat="46.96227" lon="8.75018">
        <ele>1052</ele>
        <time>2021-08-06T09:53:34.355Z</time>
      </trkpt>
      <trkpt lat="46.96226" lon="8.75017">
        <ele>1053</ele>
        <time>2021-08-06T09:53:35.354Z</time>
      </trkpt>
      <trkpt lat="46.96225" lon="8.75017">
        <ele>1053</ele>
        <time>2021-08-06T09:53:36.355Z</time>
      </trkpt>
      <trkpt lat="46.96224" lon="8.75016">
        <ele>1053</ele>
        <time>2021-08-06T09:53:37.354Z</time>
      </trkpt>
      <trkpt lat="46.96224" lon="8.75015">
        <ele>1054</ele>
        <time>2021-08-06T09:53:38.355Z</time>
      </trkpt>
      <trkpt lat="46.96224" lon="8.75013">
        <ele>1054</ele>
        <time>2021-08-06T09:53:39.355Z</time>
      </trkpt>
      <trkpt lat="46.96224" lon="8.75012">
        <ele>1055</ele>
        <time>2021-08-06T09:53:40.355Z</time>
      </trkpt>
      <trkpt lat="46.96224" lon="8.7501">
        <ele>1055</ele>
        <time>2021-08-06T09:53:41.355Z</time>
      </trkpt>
      <trkpt lat="46.96223" lon="8.75009">
        <ele>1056</ele>
        <time>2021-08-06T09:53:42.355Z</time>
      </trkpt>
      <trkpt lat="46.96223" lon="8.75008">
        <ele>1056</ele>
        <time>2021-08-06T09:53:43.355Z</time>
      </trkpt>
      <trkpt lat="46.96222" lon="8.75008">
        <ele>1057</ele>
        <time>2021-08-06T09:53:44.355Z</time>
      </trkpt>
      <trkpt lat="46.96222" lon="8.75007">
        <ele>1057</ele>
        <time>2021-08-06T09:53:45.354Z</time>
      </trkpt>
      <trkpt lat="46.96221" lon="8.75006">
        <ele>1058</ele>
        <time>2021-08-06T09:53:46.355Z</time>
      </trkpt>
      <trkpt lat="46.96221" lon="8.75005">
        <ele>1058</ele>
        <time>2021-08-06T09:53:47.355Z</time>
      </trkpt>
      <trkpt lat="46.96221" lon="8.75004">
        <ele>1059</ele>
        <time>2021-08-06T09:53:48.355Z</time>
      </trkpt>
      <trkpt lat="46.9622" lon="8.75003">
        <ele>1059</ele>
        <time>2021-08-06T09:53:49.355Z</time>
      </trkpt>
      <trkpt lat="46.9622" lon="8.75002">
        <ele>1059</ele>
        <time>2021-08-06T09:53:50.355Z</time>
      </trkpt>
      <trkpt lat="46.9622" lon="8.75">
        <ele>1059</ele>
        <time>2021-08-06T09:53:51.355Z</time>
      </trkpt>
      <trkpt lat="46.96219" lon="8.74999">
        <ele>1060</ele>
        <time>2021-08-06T09:53:52.355Z</time>
      </trkpt>
      <trkpt lat="46.96219" lon="8.74998">
        <ele>1060</ele>
        <time>2021-08-06T09:53:53.354Z</time>
      </trkpt>
      <trkpt lat="46.96219" lon="8.74997">
        <ele>1060</ele>
        <time>2021-08-06T09:53:54.354Z</time>
      </trkpt>
      <trkpt lat="46.96218" lon="8.74996">
        <ele>1061</ele>
        <time>2021-08-06T09:53:55.355Z</time>
      </trkpt>
      <trkpt lat="46.96218" lon="8.74995">
        <ele>1061</ele>
        <time>2021-08-06T09:53:56.355Z</time>
      </trkpt>
      <trkpt lat="46.96218" lon="8.74994">
        <ele>1061</ele>
        <time>2021-08-06T09:53:57.355Z</time>
      </trkpt>
      <trkpt lat="46.96217" lon="8.74994">
        <ele>1061</ele>
        <time>2021-08-06T09:53:58.354Z</time>
      </trkpt>
      <trkpt lat="46.96218" lon="8.74992">
        <ele>1061</ele>
        <time>2021-08-06T09:53:59.354Z</time>
      </trkpt>
      <trkpt lat="46.96218" lon="8.74991">
        <ele>1061</ele>
        <time>2021-08-06T09:54:00.355Z</time>
      </trkpt>
      <trkpt lat="46.96218" lon="8.7499">
        <ele>1061</ele>
        <time>2021-08-06T09:54:01.354Z</time>
      </trkpt>
      <trkpt lat="46.96218" lon="8.74988">
        <ele>1061</ele>
        <time>2021-08-06T09:54:02.355Z</time>
      </trkpt>
      <trkpt lat="46.96219" lon="8.74987">
        <ele>1062</ele>
        <time>2021-08-06T09:54:03.355Z</time>
      </trkpt>
      <trkpt lat="46.96218" lon="8.74986">
        <ele>1062</ele>
        <time>2021-08-06T09:54:04.354Z</time>
      </trkpt>
      <trkpt lat="46.96218" lon="8.74985">
        <ele>1062</ele>
        <time>2021-08-06T09:54:05.355Z</time>
      </trkpt>
      <trkpt lat="46.96218" lon="8.74983">
        <ele>1062</ele>
        <time>2021-08-06T09:54:06.354Z</time>
      </trkpt>
      <trkpt lat="46.96217" lon="8.74982">
        <ele>1062</ele>
        <time>2021-08-06T09:54:07.354Z</time>
      </trkpt>
      <trkpt lat="46.96217" lon="8.74981">
        <ele>1063</ele>
        <time>2021-08-06T09:54:08.355Z</time>
      </trkpt>
      <trkpt lat="46.96217" lon="8.7498">
        <ele>1063</ele>
        <time>2021-08-06T09:54:09.355Z</time>
      </trkpt>
      <trkpt lat="46.96216" lon="8.74979">
        <ele>1063</ele>
        <time>2021-08-06T09:54:10.354Z</time>
      </trkpt>
      <trkpt lat="46.96216" lon="8.74978">
        <ele>1064</ele>
        <time>2021-08-06T09:54:11.354Z</time>
      </trkpt>
      <trkpt lat="46.96215" lon="8.74977">
        <ele>1064</ele>
        <time>2021-08-06T09:54:12.354Z</time>
      </trkpt>
      <trkpt lat="46.96215" lon="8.74976">
        <ele>1065</ele>
        <time>2021-08-06T09:54:13.354Z</time>
      </trkpt>
      <trkpt lat="46.96214" lon="8.74975">
        <ele>1065</ele>
        <time>2021-08-06T09:54:14.354Z</time>
      </trkpt>
      <trkpt lat="46.96213" lon="8.74975">
        <ele>1065</ele>
        <time>2021-08-06T09:54:15.354Z</time>
      </trkpt>
      <trkpt lat="46.96212" lon="8.74974">
        <ele>1065</ele>
        <time>2021-08-06T09:54:16.354Z</time>
      </trkpt>
      <trkpt lat="46.96212" lon="8.74972">
        <ele>1065</ele>
        <time>2021-08-06T09:54:17.354Z</time>
      </trkpt>
      <trkpt lat="46.96211" lon="8.74971">
        <ele>1064</ele>
        <time>2021-08-06T09:54:18.354Z</time>
      </trkpt>
      <trkpt lat="46.96211" lon="8.7497">
        <ele>1064</ele>
        <time>2021-08-06T09:54:19.354Z</time>
      </trkpt>
      <trkpt lat="46.96212" lon="8.74968">
        <ele>1064</ele>
        <time>2021-08-06T09:54:20.354Z</time>
      </trkpt>
      <trkpt lat="46.96213" lon="8.74966">
        <ele>1064</ele>
        <time>2021-08-06T09:54:21.354Z</time>
      </trkpt>
      <trkpt lat="46.96213" lon="8.74964">
        <ele>1064</ele>
        <time>2021-08-06T09:54:22.354Z</time>
      </trkpt>
      <trkpt lat="46.96213" lon="8.74963">
        <ele>1064</ele>
        <time>2021-08-06T09:54:23.354Z</time>
      </trkpt>
      <trkpt lat="46.96212" lon="8.74962">
        <ele>1065</ele>
        <time>2021-08-06T09:54:24.354Z</time>
      </trkpt>
      <trkpt lat="46.96211" lon="8.74961">
        <ele>1065</ele>
        <time>2021-08-06T09:54:25.354Z</time>
      </trkpt>
      <trkpt lat="46.9621" lon="8.7496">
        <ele>1066</ele>
        <time>2021-08-06T09:54:26.354Z</time>
      </trkpt>
      <trkpt lat="46.96209" lon="8.7496">
        <ele>1066</ele>
        <time>2021-08-06T09:54:27.354Z</time>
      </trkpt>
      <trkpt lat="46.96209" lon="8.74959">
        <ele>1067</ele>
        <time>2021-08-06T09:54:28.354Z</time>
      </trkpt>
      <trkpt lat="46.96208" lon="8.74957">
        <ele>1067</ele>
        <time>2021-08-06T09:54:29.354Z</time>
      </trkpt>
      <trkpt lat="46.96207" lon="8.74956">
        <ele>1067</ele>
        <time>2021-08-06T09:54:30.354Z</time>
      </trkpt>
      <trkpt lat="46.96207" lon="8.74956">
        <ele>1067</ele>
        <time>2021-08-06T09:54:31.354Z</time>
      </trkpt>
      <trkpt lat="46.96206" lon="8.74954">
        <ele>1067</ele>
        <time>2021-08-06T09:54:32.354Z</time>
      </trkpt>
      <trkpt lat="46.96206" lon="8.74953">
        <ele>1067</ele>
        <time>2021-08-06T09:54:33.354Z</time>
      </trkpt>
      <trkpt lat="46.96206" lon="8.74952">
        <ele>1067</ele>
        <time>2021-08-06T09:54:34.354Z</time>
      </trkpt>
      <trkpt lat="46.96206" lon="8.7495">
        <ele>1068</ele>
        <time>2021-08-06T09:54:35.354Z</time>
      </trkpt>
      <trkpt lat="46.96205" lon="8.74949">
        <ele>1068</ele>
        <time>2021-08-06T09:54:36.354Z</time>
      </trkpt>
      <trkpt lat="46.96204" lon="8.74948">
        <ele>1068</ele>
        <time>2021-08-06T09:54:37.355Z</time>
      </trkpt>
      <trkpt lat="46.96204" lon="8.74947">
        <ele>1068</ele>
        <time>2021-08-06T09:54:38.354Z</time>
      </trkpt>
      <trkpt lat="46.96204" lon="8.74945">
        <ele>1069</ele>
        <time>2021-08-06T09:54:39.355Z</time>
      </trkpt>
      <trkpt lat="46.96203" lon="8.74944">
        <ele>1070</ele>
        <time>2021-08-06T09:54:40.355Z</time>
      </trkpt>
      <trkpt lat="46.96203" lon="8.74942">
        <ele>1070</ele>
        <time>2021-08-06T09:54:41.354Z</time>
      </trkpt>
      <trkpt lat="46.96202" lon="8.74941">
        <ele>1070</ele>
        <time>2021-08-06T09:54:42.355Z</time>
      </trkpt>
      <trkpt lat="46.96202" lon="8.7494">
        <ele>1070</ele>
        <time>2021-08-06T09:54:43.355Z</time>
      </trkpt>
      <trkpt lat="46.96201" lon="8.74938">
        <ele>1070</ele>
        <time>2021-08-06T09:54:44.354Z</time>
      </trkpt>
      <trkpt lat="46.96201" lon="8.74937">
        <ele>1069</ele>
        <time>2021-08-06T09:54:45.355Z</time>
      </trkpt>
      <trkpt lat="46.96201" lon="8.74935">
        <ele>1069</ele>
        <time>2021-08-06T09:54:46.355Z</time>
      </trkpt>
      <trkpt lat="46.96201" lon="8.74934">
        <ele>1069</ele>
        <time>2021-08-06T09:54:47.354Z</time>
      </trkpt>
      <trkpt lat="46.96201" lon="8.74933">
        <ele>1070</ele>
        <time>2021-08-06T09:54:48.354Z</time>
      </trkpt>
      <trkpt lat="46.96202" lon="8.74931">
        <ele>1070</ele>
        <time>2021-08-06T09:54:49.354Z</time>
      </trkpt>
      <trkpt lat="46.96202" lon="8.7493">
        <ele>1071</ele>
        <time>2021-08-06T09:54:50.354Z</time>
      </trkpt>
      <trkpt lat="46.96202" lon="8.74929">
        <ele>1072</ele>
        <time>2021-08-06T09:54:51.355Z</time>
      </trkpt>
      <trkpt lat="46.96202" lon="8.74927">
        <ele>1072</ele>
        <time>2021-08-06T09:54:52.354Z</time>
      </trkpt>
      <trkpt lat="46.96202" lon="8.74926">
        <ele>1072</ele>
        <time>2021-08-06T09:54:53.355Z</time>
      </trkpt>
      <trkpt lat="46.96202" lon="8.74924">
        <ele>1072</ele>
        <time>2021-08-06T09:54:54.354Z</time>
      </trkpt>
      <trkpt lat="46.96202" lon="8.74923">
        <ele>1073</ele>
        <time>2021-08-06T09:54:55.354Z</time>
      </trkpt>
      <trkpt lat="46.96202" lon="8.74922">
        <ele>1073</ele>
        <time>2021-08-06T09:54:56.354Z</time>
      </trkpt>
      <trkpt lat="46.96202" lon="8.74921">
        <ele>1073</ele>
        <time>2021-08-06T09:54:57.355Z</time>
      </trkpt>
      <trkpt lat="46.96201" lon="8.74919">
        <ele>1074</ele>
        <time>2021-08-06T09:54:58.354Z</time>
      </trkpt>
      <trkpt lat="46.96201" lon="8.74918">
        <ele>1074</ele>
        <time>2021-08-06T09:54:59.355Z</time>
      </trkpt>
      <trkpt lat="46.96201" lon="8.74917">
        <ele>1074</ele>
        <time>2021-08-06T09:55:00.355Z</time>
      </trkpt>
      <trkpt lat="46.96201" lon="8.74916">
        <ele>1074</ele>
        <time>2021-08-06T09:55:01.354Z</time>
      </trkpt>
      <trkpt lat="46.962" lon="8.74915">
        <ele>1074</ele>
        <time>2021-08-06T09:55:02.354Z</time>
      </trkpt>
      <trkpt lat="46.962" lon="8.74914">
        <ele>1074</ele>
        <time>2021-08-06T09:55:03.355Z</time>
      </trkpt>
      <trkpt lat="46.962" lon="8.74913">
        <ele>1074</ele>
        <time>2021-08-06T09:55:04.355Z</time>
      </trkpt>
      <trkpt lat="46.96199" lon="8.74911">
        <ele>1074</ele>
        <time>2021-08-06T09:55:05.355Z</time>
      </trkpt>
      <trkpt lat="46.96199" lon="8.7491">
        <ele>1074</ele>
        <time>2021-08-06T09:55:06.354Z</time>
      </trkpt>
      <trkpt lat="46.96199" lon="8.74909">
        <ele>1075</ele>
        <time>2021-08-06T09:55:07.354Z</time>
      </trkpt>
      <trkpt lat="46.96198" lon="8.74908">
        <ele>1075</ele>
        <time>2021-08-06T09:55:08.355Z</time>
      </trkpt>
      <trkpt lat="46.96198" lon="8.74906">
        <ele>1074</ele>
        <time>2021-08-06T09:55:09.355Z</time>
      </trkpt>
      <trkpt lat="46.96197" lon="8.74905">
        <ele>1074</ele>
        <time>2021-08-06T09:55:10.354Z</time>
      </trkpt>
      <trkpt lat="46.96196" lon="8.74904">
        <ele>1074</ele>
        <time>2021-08-06T09:55:11.355Z</time>
      </trkpt>
      <trkpt lat="46.96195" lon="8.74903">
        <ele>1074</ele>
        <time>2021-08-06T09:55:12.355Z</time>
      </trkpt>
      <trkpt lat="46.96195" lon="8.74902">
        <ele>1075</ele>
        <time>2021-08-06T09:55:13.354Z</time>
      </trkpt>
      <trkpt lat="46.96194" lon="8.74901">
        <ele>1075</ele>
        <time>2021-08-06T09:55:14.354Z</time>
      </trkpt>
      <trkpt lat="46.96194" lon="8.749">
        <ele>1075</ele>
        <time>2021-08-06T09:55:15.354Z</time>
      </trkpt>
      <trkpt lat="46.96194" lon="8.74898">
        <ele>1074</ele>
        <time>2021-08-06T09:55:16.354Z</time>
      </trkpt>
      <trkpt lat="46.96193" lon="8.74897">
        <ele>1074</ele>
        <time>2021-08-06T09:55:17.355Z</time>
      </trkpt>
      <trkpt lat="46.96192" lon="8.74895">
        <ele>1074</ele>
        <time>2021-08-06T09:55:18.354Z</time>
      </trkpt>
      <trkpt lat="46.9619" lon="8.74894">
        <ele>1073</ele>
        <time>2021-08-06T09:55:19.355Z</time>
      </trkpt>
      <trkpt lat="46.9619" lon="8.74892">
        <ele>1073</ele>
        <time>2021-08-06T09:55:20.354Z</time>
      </trkpt>
      <trkpt lat="46.9619" lon="8.74891">
        <ele>1072</ele>
        <time>2021-08-06T09:55:21.355Z</time>
      </trkpt>
      <trkpt lat="46.96189" lon="8.74889">
        <ele>1072</ele>
        <time>2021-08-06T09:55:22.355Z</time>
      </trkpt>
      <trkpt lat="46.96189" lon="8.74887">
        <ele>1072</ele>
        <time>2021-08-06T09:55:23.355Z</time>
      </trkpt>
      <trkpt lat="46.96188" lon="8.74887">
        <ele>1072</ele>
        <time>2021-08-06T09:55:24.355Z</time>
      </trkpt>
      <trkpt lat="46.96187" lon="8.74885">
        <ele>1072</ele>
        <time>2021-08-06T09:55:25.355Z</time>
      </trkpt>
      <trkpt lat="46.96186" lon="8.74884">
        <ele>1072</ele>
        <time>2021-08-06T09:55:26.355Z</time>
      </trkpt>
      <trkpt lat="46.96185" lon="8.74883">
        <ele>1071</ele>
        <time>2021-08-06T09:55:27.355Z</time>
      </trkpt>
      <trkpt lat="46.96185" lon="8.74882">
        <ele>1071</ele>
        <time>2021-08-06T09:55:28.355Z</time>
      </trkpt>
      <trkpt lat="46.96184" lon="8.74881">
        <ele>1071</ele>
        <time>2021-08-06T09:55:29.354Z</time>
      </trkpt>
      <trkpt lat="46.96184" lon="8.7488">
        <ele>1071</ele>
        <time>2021-08-06T09:55:30.354Z</time>
      </trkpt>
      <trkpt lat="46.96184" lon="8.74878">
        <ele>1072</ele>
        <time>2021-08-06T09:55:31.355Z</time>
      </trkpt>
      <trkpt lat="46.96184" lon="8.74877">
        <ele>1072</ele>
        <time>2021-08-06T09:55:32.355Z</time>
      </trkpt>
      <trkpt lat="46.96183" lon="8.74875">
        <ele>1073</ele>
        <time>2021-08-06T09:55:33.355Z</time>
      </trkpt>
      <trkpt lat="46.96183" lon="8.74874">
        <ele>1073</ele>
        <time>2021-08-06T09:55:34.354Z</time>
      </trkpt>
      <trkpt lat="46.96183" lon="8.74872">
        <ele>1074</ele>
        <time>2021-08-06T09:55:35.354Z</time>
      </trkpt>
      <trkpt lat="46.96183" lon="8.74871">
        <ele>1074</ele>
        <time>2021-08-06T09:55:36.355Z</time>
      </trkpt>
      <trkpt lat="46.96181" lon="8.7487">
        <ele>1074</ele>
        <time>2021-08-06T09:55:37.354Z</time>
      </trkpt>
      <trkpt lat="46.9618" lon="8.74869">
        <ele>1074</ele>
        <time>2021-08-06T09:55:38.355Z</time>
      </trkpt>
      <trkpt lat="46.9618" lon="8.74868">
        <ele>1074</ele>
        <time>2021-08-06T09:55:39.355Z</time>
      </trkpt>
      <trkpt lat="46.9618" lon="8.74866">
        <ele>1074</ele>
        <time>2021-08-06T09:55:40.354Z</time>
      </trkpt>
      <trkpt lat="46.9618" lon="8.74865">
        <ele>1074</ele>
        <time>2021-08-06T09:55:41.355Z</time>
      </trkpt>
      <trkpt lat="46.96179" lon="8.74863">
        <ele>1074</ele>
        <time>2021-08-06T09:55:42.355Z</time>
      </trkpt>
      <trkpt lat="46.96179" lon="8.74862">
        <ele>1074</ele>
        <time>2021-08-06T09:55:43.354Z</time>
      </trkpt>
      <trkpt lat="46.96179" lon="8.74861">
        <ele>1074</ele>
        <time>2021-08-06T09:55:44.355Z</time>
      </trkpt>
      <trkpt lat="46.96177" lon="8.74859">
        <ele>1074</ele>
        <time>2021-08-06T09:55:45.354Z</time>
      </trkpt>
      <trkpt lat="46.96176" lon="8.74858">
        <ele>1074</ele>
        <time>2021-08-06T09:55:46.354Z</time>
      </trkpt>
      <trkpt lat="46.96177" lon="8.74856">
        <ele>1074</ele>
        <time>2021-08-06T09:55:47.355Z</time>
      </trkpt>
      <trkpt lat="46.96176" lon="8.74855">
        <ele>1075</ele>
        <time>2021-08-06T09:55:48.355Z</time>
      </trkpt>
      <trkpt lat="46.96175" lon="8.74854">
        <ele>1075</ele>
        <time>2021-08-06T09:55:49.355Z</time>
      </trkpt>
      <trkpt lat="46.96174" lon="8.74853">
        <ele>1076</ele>
        <time>2021-08-06T09:55:50.355Z</time>
      </trkpt>
      <trkpt lat="46.96174" lon="8.74851">
        <ele>1076</ele>
        <time>2021-08-06T09:55:51.355Z</time>
      </trkpt>
      <trkpt lat="46.96173" lon="8.7485">
        <ele>1077</ele>
        <time>2021-08-06T09:55:52.355Z</time>
      </trkpt>
      <trkpt lat="46.96172" lon="8.74849">
        <ele>1077</ele>
        <time>2021-08-06T09:55:53.355Z</time>
      </trkpt>
      <trkpt lat="46.96172" lon="8.74847">
        <ele>1077</ele>
        <time>2021-08-06T09:55:54.355Z</time>
      </trkpt>
      <trkpt lat="46.96171" lon="8.74846">
        <ele>1078</ele>
        <time>2021-08-06T09:55:55.354Z</time>
      </trkpt>
      <trkpt lat="46.9617" lon="8.74845">
        <ele>1078</ele>
        <time>2021-08-06T09:55:56.354Z</time>
      </trkpt>
      <trkpt lat="46.9617" lon="8.74844">
        <ele>1078</ele>
        <time>2021-08-06T09:55:57.355Z</time>
      </trkpt>
      <trkpt lat="46.9617" lon="8.74842">
        <ele>1078</ele>
        <time>2021-08-06T09:55:58.354Z</time>
      </trkpt>
      <trkpt lat="46.96169" lon="8.7484">
        <ele>1078</ele>
        <time>2021-08-06T09:55:59.354Z</time>
      </trkpt>
      <trkpt lat="46.96168" lon="8.74839">
        <ele>1078</ele>
        <time>2021-08-06T09:56:00.354Z</time>
      </trkpt>
      <trkpt lat="46.96167" lon="8.74838">
        <ele>1078</ele>
        <time>2021-08-06T09:56:01.355Z</time>
      </trkpt>
      <trkpt lat="46.96166" lon="8.74837">
        <ele>1078</ele>
        <time>2021-08-06T09:56:02.354Z</time>
      </trkpt>
      <trkpt lat="46.96166" lon="8.74835">
        <ele>1078</ele>
        <time>2021-08-06T09:56:03.355Z</time>
      </trkpt>
      <trkpt lat="46.96165" lon="8.74834">
        <ele>1077</ele>
        <time>2021-08-06T09:56:04.355Z</time>
      </trkpt>
      <trkpt lat="46.96165" lon="8.74832">
        <ele>1077</ele>
        <time>2021-08-06T09:56:05.355Z</time>
      </trkpt>
      <trkpt lat="46.96164" lon="8.74831">
        <ele>1077</ele>
        <time>2021-08-06T09:56:06.355Z</time>
      </trkpt>
      <trkpt lat="46.96163" lon="8.74829">
        <ele>1078</ele>
        <time>2021-08-06T09:56:07.354Z</time>
      </trkpt>
      <trkpt lat="46.96161" lon="8.74829">
        <ele>1078</ele>
        <time>2021-08-06T09:56:08.355Z</time>
      </trkpt>
      <trkpt lat="46.96158" lon="8.74829">
        <ele>1078</ele>
        <time>2021-08-06T09:56:09.354Z</time>
      </trkpt>
      <trkpt lat="46.96157" lon="8.74828">
        <ele>1078</ele>
        <time>2021-08-06T09:56:10.355Z</time>
      </trkpt>
      <trkpt lat="46.96156" lon="8.74827">
        <ele>1078</ele>
        <time>2021-08-06T09:56:11.354Z</time>
      </trkpt>
      <trkpt lat="46.96155" lon="8.74827">
        <ele>1079</ele>
        <time>2021-08-06T09:56:12.355Z</time>
      </trkpt>
      <trkpt lat="46.96155" lon="8.74827">
        <ele>1079</ele>
        <time>2021-08-06T09:56:13.355Z</time>
      </trkpt>
      <trkpt lat="46.96154" lon="8.74825">
        <ele>1079</ele>
        <time>2021-08-06T09:56:14.355Z</time>
      </trkpt>
      <trkpt lat="46.96153" lon="8.74824">
        <ele>1079</ele>
        <time>2021-08-06T09:56:15.355Z</time>
      </trkpt>
      <trkpt lat="46.96153" lon="8.74823">
        <ele>1080</ele>
        <time>2021-08-06T09:56:16.355Z</time>
      </trkpt>
      <trkpt lat="46.96153" lon="8.74822">
        <ele>1080</ele>
        <time>2021-08-06T09:56:17.354Z</time>
      </trkpt>
      <trkpt lat="46.96152" lon="8.74821">
        <ele>1081</ele>
        <time>2021-08-06T09:56:18.354Z</time>
      </trkpt>
      <trkpt lat="46.96151" lon="8.74821">
        <ele>1082</ele>
        <time>2021-08-06T09:56:19.354Z</time>
      </trkpt>
      <trkpt lat="46.96149" lon="8.7482">
        <ele>1082</ele>
        <time>2021-08-06T09:56:20.355Z</time>
      </trkpt>
      <trkpt lat="46.96148" lon="8.74819">
        <ele>1082</ele>
        <time>2021-08-06T09:56:21.355Z</time>
      </trkpt>
      <trkpt lat="46.96148" lon="8.74818">
        <ele>1082</ele>
        <time>2021-08-06T09:56:22.355Z</time>
      </trkpt>
      <trkpt lat="46.96147" lon="8.74817">
        <ele>1082</ele>
        <time>2021-08-06T09:56:23.355Z</time>
      </trkpt>
      <trkpt lat="46.96147" lon="8.74816">
        <ele>1083</ele>
        <time>2021-08-06T09:56:24.354Z</time>
      </trkpt>
      <trkpt lat="46.96147" lon="8.74815">
        <ele>1083</ele>
        <time>2021-08-06T09:56:25.355Z</time>
      </trkpt>
      <trkpt lat="46.96146" lon="8.74814">
        <ele>1083</ele>
        <time>2021-08-06T09:56:26.354Z</time>
      </trkpt>
      <trkpt lat="46.96146" lon="8.74812">
        <ele>1083</ele>
        <time>2021-08-06T09:56:27.354Z</time>
      </trkpt>
      <trkpt lat="46.96145" lon="8.74811">
        <ele>1084</ele>
        <time>2021-08-06T09:56:28.355Z</time>
      </trkpt>
      <trkpt lat="46.96144" lon="8.7481">
        <ele>1084</ele>
        <time>2021-08-06T09:56:29.355Z</time>
      </trkpt>
      <trkpt lat="46.96143" lon="8.74809">
        <ele>1084</ele>
        <time>2021-08-06T09:56:30.355Z</time>
      </trkpt>
      <trkpt lat="46.96142" lon="8.74807">
        <ele>1084</ele>
        <time>2021-08-06T09:56:31.355Z</time>
      </trkpt>
      <trkpt lat="46.96142" lon="8.74806">
        <ele>1084</ele>
        <time>2021-08-06T09:56:32.355Z</time>
      </trkpt>
      <trkpt lat="46.96141" lon="8.74805">
        <ele>1084</ele>
        <time>2021-08-06T09:56:33.354Z</time>
      </trkpt>
      <trkpt lat="46.96141" lon="8.74803">
        <ele>1083</ele>
        <time>2021-08-06T09:56:34.354Z</time>
      </trkpt>
      <trkpt lat="46.9614" lon="8.74802">
        <ele>1083</ele>
        <time>2021-08-06T09:56:35.354Z</time>
      </trkpt>
      <trkpt lat="46.9614" lon="8.748">
        <ele>1083</ele>
        <time>2021-08-06T09:56:36.354Z</time>
      </trkpt>
      <trkpt lat="46.96139" lon="8.74799">
        <ele>1083</ele>
        <time>2021-08-06T09:56:37.355Z</time>
      </trkpt>
      <trkpt lat="46.96139" lon="8.74798">
        <ele>1083</ele>
        <time>2021-08-06T09:56:38.355Z</time>
      </trkpt>
      <trkpt lat="46.96139" lon="8.74797">
        <ele>1083</ele>
        <time>2021-08-06T09:56:39.355Z</time>
      </trkpt>
      <trkpt lat="46.96138" lon="8.74796">
        <ele>1083</ele>
        <time>2021-08-06T09:56:40.355Z</time>
      </trkpt>
      <trkpt lat="46.96137" lon="8.74795">
        <ele>1083</ele>
        <time>2021-08-06T09:56:41.355Z</time>
      </trkpt>
      <trkpt lat="46.96137" lon="8.74793">
        <ele>1083</ele>
        <time>2021-08-06T09:56:42.355Z</time>
      </trkpt>
      <trkpt lat="46.96136" lon="8.74792">
        <ele>1082</ele>
        <time>2021-08-06T09:56:43.355Z</time>
      </trkpt>
      <trkpt lat="46.96135" lon="8.74791">
        <ele>1082</ele>
        <time>2021-08-06T09:56:44.355Z</time>
      </trkpt>
      <trkpt lat="46.96135" lon="8.7479">
        <ele>1082</ele>
        <time>2021-08-06T09:56:45.355Z</time>
      </trkpt>
      <trkpt lat="46.96135" lon="8.74788">
        <ele>1082</ele>
        <time>2021-08-06T09:56:46.355Z</time>
      </trkpt>
      <trkpt lat="46.96135" lon="8.74786">
        <ele>1082</ele>
        <time>2021-08-06T09:56:47.355Z</time>
      </trkpt>
      <trkpt lat="46.96135" lon="8.74784">
        <ele>1082</ele>
        <time>2021-08-06T09:56:48.355Z</time>
      </trkpt>
      <trkpt lat="46.96134" lon="8.74783">
        <ele>1082</ele>
        <time>2021-08-06T09:56:49.355Z</time>
      </trkpt>
      <trkpt lat="46.96134" lon="8.74782">
        <ele>1082</ele>
        <time>2021-08-06T09:56:50.354Z</time>
      </trkpt>
      <trkpt lat="46.96134" lon="8.7478">
        <ele>1082</ele>
        <time>2021-08-06T09:56:51.355Z</time>
      </trkpt>
      <trkpt lat="46.96133" lon="8.74779">
        <ele>1082</ele>
        <time>2021-08-06T09:56:52.355Z</time>
      </trkpt>
      <trkpt lat="46.96131" lon="8.74778">
        <ele>1082</ele>
        <time>2021-08-06T09:56:53.354Z</time>
      </trkpt>
      <trkpt lat="46.9613" lon="8.74777">
        <ele>1082</ele>
        <time>2021-08-06T09:56:54.355Z</time>
      </trkpt>
      <trkpt lat="46.9613" lon="8.74775">
        <ele>1082</ele>
        <time>2021-08-06T09:56:55.355Z</time>
      </trkpt>
      <trkpt lat="46.9613" lon="8.74774">
        <ele>1082</ele>
        <time>2021-08-06T09:56:56.355Z</time>
      </trkpt>
      <trkpt lat="46.96129" lon="8.74773">
        <ele>1082</ele>
        <time>2021-08-06T09:56:57.354Z</time>
      </trkpt>
      <trkpt lat="46.96128" lon="8.74772">
        <ele>1082</ele>
        <time>2021-08-06T09:56:58.355Z</time>
      </trkpt>
      <trkpt lat="46.96128" lon="8.74771">
        <ele>1082</ele>
        <time>2021-08-06T09:56:59.354Z</time>
      </trkpt>
      <trkpt lat="46.96128" lon="8.7477">
        <ele>1081</ele>
        <time>2021-08-06T09:57:00.355Z</time>
      </trkpt>
      <trkpt lat="46.96127" lon="8.74769">
        <ele>1081</ele>
        <time>2021-08-06T09:57:01.355Z</time>
      </trkpt>
      <trkpt lat="46.96127" lon="8.74768">
        <ele>1082</ele>
        <time>2021-08-06T09:57:02.354Z</time>
      </trkpt>
      <trkpt lat="46.96127" lon="8.74766">
        <ele>1082</ele>
        <time>2021-08-06T09:57:03.354Z</time>
      </trkpt>
      <trkpt lat="46.96126" lon="8.74765">
        <ele>1082</ele>
        <time>2021-08-06T09:57:04.355Z</time>
      </trkpt>
      <trkpt lat="46.96126" lon="8.74763">
        <ele>1082</ele>
        <time>2021-08-06T09:57:05.355Z</time>
      </trkpt>
      <trkpt lat="46.96125" lon="8.74762">
        <ele>1082</ele>
        <time>2021-08-06T09:57:06.354Z</time>
      </trkpt>
      <trkpt lat="46.96125" lon="8.74761">
        <ele>1082</ele>
        <time>2021-08-06T09:57:07.354Z</time>
      </trkpt>
      <trkpt lat="46.96124" lon="8.7476">
        <ele>1082</ele>
        <time>2021-08-06T09:57:08.354Z</time>
      </trkpt>
      <trkpt lat="46.96124" lon="8.74758">
        <ele>1082</ele>
        <time>2021-08-06T09:57:09.354Z</time>
      </trkpt>
      <trkpt lat="46.96124" lon="8.74757">
        <ele>1082</ele>
        <time>2021-08-06T09:57:10.354Z</time>
      </trkpt>
      <trkpt lat="46.96124" lon="8.74755">
        <ele>1082</ele>
        <time>2021-08-06T09:57:11.354Z</time>
      </trkpt>
      <trkpt lat="46.96124" lon="8.74754">
        <ele>1082</ele>
        <time>2021-08-06T09:57:12.354Z</time>
      </trkpt>
      <trkpt lat="46.96123" lon="8.74753">
        <ele>1082</ele>
        <time>2021-08-06T09:57:13.355Z</time>
      </trkpt>
      <trkpt lat="46.96124" lon="8.74751">
        <ele>1082</ele>
        <time>2021-08-06T09:57:14.354Z</time>
      </trkpt>
      <trkpt lat="46.96124" lon="8.74749">
        <ele>1083</ele>
        <time>2021-08-06T09:57:15.355Z</time>
      </trkpt>
      <trkpt lat="46.96124" lon="8.74748">
        <ele>1083</ele>
        <time>2021-08-06T09:57:16.355Z</time>
      </trkpt>
      <trkpt lat="46.96124" lon="8.74747">
        <ele>1083</ele>
        <time>2021-08-06T09:57:17.355Z</time>
      </trkpt>
      <trkpt lat="46.96124" lon="8.74746">
        <ele>1084</ele>
        <time>2021-08-06T09:57:18.354Z</time>
      </trkpt>
      <trkpt lat="46.96124" lon="8.74744">
        <ele>1084</ele>
        <time>2021-08-06T09:57:19.355Z</time>
      </trkpt>
      <trkpt lat="46.96124" lon="8.74743">
        <ele>1084</ele>
        <time>2021-08-06T09:57:20.355Z</time>
      </trkpt>
      <trkpt lat="46.96125" lon="8.74741">
        <ele>1084</ele>
        <time>2021-08-06T09:57:21.354Z</time>
      </trkpt>
      <trkpt lat="46.96125" lon="8.7474">
        <ele>1084</ele>
        <time>2021-08-06T09:57:22.354Z</time>
      </trkpt>
      <trkpt lat="46.96125" lon="8.7474">
        <ele>1084</ele>
        <time>2021-08-06T09:57:23.354Z</time>
      </trkpt>
      <trkpt lat="46.96126" lon="8.74739">
        <ele>1085</ele>
        <time>2021-08-06T09:57:24.354Z</time>
      </trkpt>
      <trkpt lat="46.96126" lon="8.74738">
        <ele>1086</ele>
        <time>2021-08-06T09:57:25.355Z</time>
      </trkpt>
      <trkpt lat="46.96126" lon="8.74737">
        <ele>1086</ele>
        <time>2021-08-06T09:57:26.355Z</time>
      </trkpt>
      <trkpt lat="46.96126" lon="8.74736">
        <ele>1087</ele>
        <time>2021-08-06T09:57:27.355Z</time>
      </trkpt>
      <trkpt lat="46.96126" lon="8.74734">
        <ele>1087</ele>
        <time>2021-08-06T09:57:28.354Z</time>
      </trkpt>
      <trkpt lat="46.96127" lon="8.74733">
        <ele>1088</ele>
        <time>2021-08-06T09:57:29.355Z</time>
      </trkpt>
      <trkpt lat="46.96127" lon="8.74732">
        <ele>1088</ele>
        <time>2021-08-06T09:57:30.354Z</time>
      </trkpt>
      <trkpt lat="46.96127" lon="8.74731">
        <ele>1088</ele>
        <time>2021-08-06T09:57:31.355Z</time>
      </trkpt>
      <trkpt lat="46.96126" lon="8.7473">
        <ele>1088</ele>
        <time>2021-08-06T09:57:32.355Z</time>
      </trkpt>
      <trkpt lat="46.96126" lon="8.74729">
        <ele>1088</ele>
        <time>2021-08-06T09:57:33.355Z</time>
      </trkpt>
      <trkpt lat="46.96125" lon="8.74728">
        <ele>1088</ele>
        <time>2021-08-06T09:57:34.355Z</time>
      </trkpt>
      <trkpt lat="46.96125" lon="8.74727">
        <ele>1088</ele>
        <time>2021-08-06T09:57:35.355Z</time>
      </trkpt>
      <trkpt lat="46.96125" lon="8.74726">
        <ele>1088</ele>
        <time>2021-08-06T09:57:36.354Z</time>
      </trkpt>
      <trkpt lat="46.96126" lon="8.74723">
        <ele>1088</ele>
        <time>2021-08-06T09:57:37.355Z</time>
      </trkpt>
      <trkpt lat="46.96125" lon="8.74722">
        <ele>1088</ele>
        <time>2021-08-06T09:57:38.354Z</time>
      </trkpt>
      <trkpt lat="46.96126" lon="8.74721">
        <ele>1089</ele>
        <time>2021-08-06T09:57:39.354Z</time>
      </trkpt>
      <trkpt lat="46.96127" lon="8.74719">
        <ele>1089</ele>
        <time>2021-08-06T09:57:40.355Z</time>
      </trkpt>
      <trkpt lat="46.96127" lon="8.74717">
        <ele>1090</ele>
        <time>2021-08-06T09:57:41.355Z</time>
      </trkpt>
      <trkpt lat="46.96127" lon="8.74715">
        <ele>1091</ele>
        <time>2021-08-06T09:57:42.355Z</time>
      </trkpt>
      <trkpt lat="46.96128" lon="8.74714">
        <ele>1092</ele>
        <time>2021-08-06T09:57:43.354Z</time>
      </trkpt>
      <trkpt lat="46.96128" lon="8.74712">
        <ele>1092</ele>
        <time>2021-08-06T09:57:44.354Z</time>
      </trkpt>
      <trkpt lat="46.96127" lon="8.74711">
        <ele>1093</ele>
        <time>2021-08-06T09:57:45.354Z</time>
      </trkpt>
      <trkpt lat="46.96126" lon="8.7471">
        <ele>1094</ele>
        <time>2021-08-06T09:57:46.355Z</time>
      </trkpt>
      <trkpt lat="46.96126" lon="8.74708">
        <ele>1095</ele>
        <time>2021-08-06T09:57:47.355Z</time>
      </trkpt>
      <trkpt lat="46.96125" lon="8.74707">
        <ele>1095</ele>
        <time>2021-08-06T09:57:48.355Z</time>
      </trkpt>
      <trkpt lat="46.96125" lon="8.74705">
        <ele>1095</ele>
        <time>2021-08-06T09:57:49.355Z</time>
      </trkpt>
      <trkpt lat="46.96125" lon="8.74704">
        <ele>1096</ele>
        <time>2021-08-06T09:57:50.355Z</time>
      </trkpt>
      <trkpt lat="46.96124" lon="8.74703">
        <ele>1096</ele>
        <time>2021-08-06T09:57:51.355Z</time>
      </trkpt>
      <trkpt lat="46.96123" lon="8.74702">
        <ele>1096</ele>
        <time>2021-08-06T09:57:52.354Z</time>
      </trkpt>
      <trkpt lat="46.96122" lon="8.74702">
        <ele>1096</ele>
        <time>2021-08-06T09:57:53.354Z</time>
      </trkpt>
      <trkpt lat="46.96121" lon="8.74701">
        <ele>1096</ele>
        <time>2021-08-06T09:57:54.355Z</time>
      </trkpt>
      <trkpt lat="46.96121" lon="8.74699">
        <ele>1096</ele>
        <time>2021-08-06T09:57:55.355Z</time>
      </trkpt>
      <trkpt lat="46.9612" lon="8.74698">
        <ele>1096</ele>
        <time>2021-08-06T09:57:56.354Z</time>
      </trkpt>
      <trkpt lat="46.96119" lon="8.74696">
        <ele>1096</ele>
        <time>2021-08-06T09:57:57.355Z</time>
      </trkpt>
      <trkpt lat="46.96118" lon="8.74695">
        <ele>1096</ele>
        <time>2021-08-06T09:57:58.355Z</time>
      </trkpt>
      <trkpt lat="46.96116" lon="8.74694">
        <ele>1095</ele>
        <time>2021-08-06T09:57:59.355Z</time>
      </trkpt>
      <trkpt lat="46.96114" lon="8.74693">
        <ele>1095</ele>
        <time>2021-08-06T09:58:00.354Z</time>
      </trkpt>
      <trkpt lat="46.96112" lon="8.74692">
        <ele>1095</ele>
        <time>2021-08-06T09:58:01.354Z</time>
      </trkpt>
      <trkpt lat="46.96112" lon="8.74691">
        <ele>1095</ele>
        <time>2021-08-06T09:58:02.355Z</time>
      </trkpt>
      <trkpt lat="46.96112" lon="8.74691">
        <ele>1095</ele>
        <time>2021-08-06T09:58:03.355Z</time>
      </trkpt>
      <trkpt lat="46.96111" lon="8.7469">
        <ele>1095</ele>
        <time>2021-08-06T09:58:04.355Z</time>
      </trkpt>
      <trkpt lat="46.9611" lon="8.74689">
        <ele>1096</ele>
        <time>2021-08-06T09:58:05.355Z</time>
      </trkpt>
      <trkpt lat="46.9611" lon="8.74688">
        <ele>1096</ele>
        <time>2021-08-06T09:58:06.355Z</time>
      </trkpt>
      <trkpt lat="46.96109" lon="8.74687">
        <ele>1096</ele>
        <time>2021-08-06T09:58:07.355Z</time>
      </trkpt>
      <trkpt lat="46.96108" lon="8.74686">
        <ele>1096</ele>
        <time>2021-08-06T09:58:08.355Z</time>
      </trkpt>
      <trkpt lat="46.96107" lon="8.74686">
        <ele>1096</ele>
        <time>2021-08-06T09:58:09.355Z</time>
      </trkpt>
      <trkpt lat="46.96106" lon="8.74686">
        <ele>1097</ele>
        <time>2021-08-06T09:58:10.354Z</time>
      </trkpt>
      <trkpt lat="46.96105" lon="8.74686">
        <ele>1097</ele>
        <time>2021-08-06T09:58:11.355Z</time>
      </trkpt>
      <trkpt lat="46.96103" lon="8.74685">
        <ele>1098</ele>
        <time>2021-08-06T09:58:12.354Z</time>
      </trkpt>
      <trkpt lat="46.96102" lon="8.74685">
        <ele>1098</ele>
        <time>2021-08-06T09:58:13.354Z</time>
      </trkpt>
      <trkpt lat="46.96101" lon="8.74684">
        <ele>1099</ele>
        <time>2021-08-06T09:58:14.355Z</time>
      </trkpt>
      <trkpt lat="46.96101" lon="8.74682">
        <ele>1099</ele>
        <time>2021-08-06T09:58:15.354Z</time>
      </trkpt>
      <trkpt lat="46.96101" lon="8.74681">
        <ele>1100</ele>
        <time>2021-08-06T09:58:16.354Z</time>
      </trkpt>
      <trkpt lat="46.961" lon="8.7468">
        <ele>1100</ele>
        <time>2021-08-06T09:58:17.355Z</time>
      </trkpt>
      <trkpt lat="46.96099" lon="8.74679">
        <ele>1100</ele>
        <time>2021-08-06T09:58:18.355Z</time>
      </trkpt>
      <trkpt lat="46.96098" lon="8.74678">
        <ele>1100</ele>
        <time>2021-08-06T09:58:19.355Z</time>
      </trkpt>
      <trkpt lat="46.96097" lon="8.74678">
        <ele>1099</ele>
        <time>2021-08-06T09:58:20.354Z</time>
      </trkpt>
      <trkpt lat="46.96096" lon="8.74677">
        <ele>1099</ele>
        <time>2021-08-06T09:58:21.354Z</time>
      </trkpt>
      <trkpt lat="46.96095" lon="8.74677">
        <ele>1099</ele>
        <time>2021-08-06T09:58:22.355Z</time>
      </trkpt>
      <trkpt lat="46.96095" lon="8.74676">
        <ele>1098</ele>
        <time>2021-08-06T09:58:23.354Z</time>
      </trkpt>
      <trkpt lat="46.96094" lon="8.74675">
        <ele>1098</ele>
        <time>2021-08-06T09:58:24.355Z</time>
      </trkpt>
      <trkpt lat="46.96094" lon="8.74674">
        <ele>1098</ele>
        <time>2021-08-06T09:58:25.355Z</time>
      </trkpt>
      <trkpt lat="46.96093" lon="8.74673">
        <ele>1098</ele>
        <time>2021-08-06T09:58:26.354Z</time>
      </trkpt>
      <trkpt lat="46.96092" lon="8.74673">
        <ele>1098</ele>
        <time>2021-08-06T09:58:27.355Z</time>
      </trkpt>
      <trkpt lat="46.96091" lon="8.74672">
        <ele>1098</ele>
        <time>2021-08-06T09:58:28.354Z</time>
      </trkpt>
      <trkpt lat="46.9609" lon="8.74671">
        <ele>1098</ele>
        <time>2021-08-06T09:58:29.355Z</time>
      </trkpt>
      <trkpt lat="46.96089" lon="8.7467">
        <ele>1098</ele>
        <time>2021-08-06T09:58:30.355Z</time>
      </trkpt>
      <trkpt lat="46.96088" lon="8.7467">
        <ele>1097</ele>
        <time>2021-08-06T09:58:31.355Z</time>
      </trkpt>
      <trkpt lat="46.96087" lon="8.74668">
        <ele>1097</ele>
        <time>2021-08-06T09:58:32.355Z</time>
      </trkpt>
      <trkpt lat="46.96086" lon="8.74668">
        <ele>1096</ele>
        <time>2021-08-06T09:58:33.354Z</time>
      </trkpt>
      <trkpt lat="46.96085" lon="8.74666">
        <ele>1096</ele>
        <time>2021-08-06T09:58:34.354Z</time>
      </trkpt>
      <trkpt lat="46.96085" lon="8.74665">
        <ele>1095</ele>
        <time>2021-08-06T09:58:35.354Z</time>
      </trkpt>
      <trkpt lat="46.96084" lon="8.74664">
        <ele>1095</ele>
        <time>2021-08-06T09:58:36.355Z</time>
      </trkpt>
      <trkpt lat="46.96084" lon="8.74662">
        <ele>1095</ele>
        <time>2021-08-06T09:58:37.355Z</time>
      </trkpt>
      <trkpt lat="46.96083" lon="8.74661">
        <ele>1095</ele>
        <time>2021-08-06T09:58:38.355Z</time>
      </trkpt>
      <trkpt lat="46.96083" lon="8.7466">
        <ele>1096</ele>
        <time>2021-08-06T09:58:39.354Z</time>
      </trkpt>
      <trkpt lat="46.96082" lon="8.7466">
        <ele>1096</ele>
        <time>2021-08-06T09:58:40.355Z</time>
      </trkpt>
      <trkpt lat="46.96081" lon="8.74659">
        <ele>1095</ele>
        <time>2021-08-06T09:58:41.354Z</time>
      </trkpt>
      <trkpt lat="46.9608" lon="8.74658">
        <ele>1095</ele>
        <time>2021-08-06T09:58:42.354Z</time>
      </trkpt>
      <trkpt lat="46.9608" lon="8.74657">
        <ele>1094</ele>
        <time>2021-08-06T09:58:43.355Z</time>
      </trkpt>
      <trkpt lat="46.96079" lon="8.74657">
        <ele>1093</ele>
        <time>2021-08-06T09:58:44.355Z</time>
      </trkpt>
      <trkpt lat="46.96078" lon="8.74656">
        <ele>1093</ele>
        <time>2021-08-06T09:58:45.354Z</time>
      </trkpt>
      <trkpt lat="46.96078" lon="8.74656">
        <ele>1093</ele>
        <time>2021-08-06T09:58:46.355Z</time>
      </trkpt>
      <trkpt lat="46.96077" lon="8.74655">
        <ele>1092</ele>
        <time>2021-08-06T09:58:47.355Z</time>
      </trkpt>
      <trkpt lat="46.96076" lon="8.74654">
        <ele>1092</ele>
        <time>2021-08-06T09:58:48.355Z</time>
      </trkpt>
      <trkpt lat="46.96075" lon="8.74653">
        <ele>1092</ele>
        <time>2021-08-06T09:58:49.355Z</time>
      </trkpt>
      <trkpt lat="46.96074" lon="8.74652">
        <ele>1092</ele>
        <time>2021-08-06T09:58:50.355Z</time>
      </trkpt>
      <trkpt lat="46.96073" lon="8.74651">
        <ele>1091</ele>
        <time>2021-08-06T09:58:51.355Z</time>
      </trkpt>
      <trkpt lat="46.96072" lon="8.7465">
        <ele>1091</ele>
        <time>2021-08-06T09:58:52.354Z</time>
      </trkpt>
      <trkpt lat="46.96071" lon="8.74649">
        <ele>1091</ele>
        <time>2021-08-06T09:58:53.354Z</time>
      </trkpt>
      <trkpt lat="46.96069" lon="8.74648">
        <ele>1091</ele>
        <time>2021-08-06T09:58:54.355Z</time>
      </trkpt>
      <trkpt lat="46.96068" lon="8.74646">
        <ele>1091</ele>
        <time>2021-08-06T09:58:55.355Z</time>
      </trkpt>
      <trkpt lat="46.96067" lon="8.74646">
        <ele>1091</ele>
        <time>2021-08-06T09:58:56.354Z</time>
      </trkpt>
      <trkpt lat="46.96065" lon="8.74645">
        <ele>1091</ele>
        <time>2021-08-06T09:58:57.354Z</time>
      </trkpt>
      <trkpt lat="46.96064" lon="8.74644">
        <ele>1091</ele>
        <time>2021-08-06T09:58:58.355Z</time>
      </trkpt>
      <trkpt lat="46.96062" lon="8.74643">
        <ele>1091</ele>
        <time>2021-08-06T09:58:59.354Z</time>
      </trkpt>
      <trkpt lat="46.96061" lon="8.74643">
        <ele>1091</ele>
        <time>2021-08-06T09:59:00.355Z</time>
      </trkpt>
      <trkpt lat="46.9606" lon="8.74642">
        <ele>1091</ele>
        <time>2021-08-06T09:59:01.355Z</time>
      </trkpt>
      <trkpt lat="46.96059" lon="8.74641">
        <ele>1091</ele>
        <time>2021-08-06T09:59:02.354Z</time>
      </trkpt>
      <trkpt lat="46.96058" lon="8.74641">
        <ele>1092</ele>
        <time>2021-08-06T09:59:03.354Z</time>
      </trkpt>
      <trkpt lat="46.96058" lon="8.74641">
        <ele>1092</ele>
        <time>2021-08-06T09:59:04.355Z</time>
      </trkpt>
      <trkpt lat="46.96057" lon="8.7464">
        <ele>1092</ele>
        <time>2021-08-06T09:59:05.354Z</time>
      </trkpt>
      <trkpt lat="46.96056" lon="8.74639">
        <ele>1092</ele>
        <time>2021-08-06T09:59:06.354Z</time>
      </trkpt>
      <trkpt lat="46.96054" lon="8.74638">
        <ele>1092</ele>
        <time>2021-08-06T09:59:07.354Z</time>
      </trkpt>
      <trkpt lat="46.96052" lon="8.74637">
        <ele>1092</ele>
        <time>2021-08-06T09:59:08.355Z</time>
      </trkpt>
      <trkpt lat="46.9605" lon="8.74637">
        <ele>1093</ele>
        <time>2021-08-06T09:59:09.354Z</time>
      </trkpt>
      <trkpt lat="46.96049" lon="8.74636">
        <ele>1093</ele>
        <time>2021-08-06T09:59:10.354Z</time>
      </trkpt>
      <trkpt lat="46.96048" lon="8.74635">
        <ele>1093</ele>
        <time>2021-08-06T09:59:11.355Z</time>
      </trkpt>
      <trkpt lat="46.96046" lon="8.74635">
        <ele>1092</ele>
        <time>2021-08-06T09:59:12.354Z</time>
      </trkpt>
      <trkpt lat="46.96045" lon="8.74634">
        <ele>1093</ele>
        <time>2021-08-06T09:59:13.354Z</time>
      </trkpt>
      <trkpt lat="46.96044" lon="8.74634">
        <ele>1093</ele>
        <time>2021-08-06T09:59:14.355Z</time>
      </trkpt>
      <trkpt lat="46.96043" lon="8.74634">
        <ele>1094</ele>
        <time>2021-08-06T09:59:15.355Z</time>
      </trkpt>
      <trkpt lat="46.96042" lon="8.74633">
        <ele>1094</ele>
        <time>2021-08-06T09:59:16.355Z</time>
      </trkpt>
      <trkpt lat="46.96042" lon="8.74633">
        <ele>1094</ele>
        <time>2021-08-06T09:59:17.354Z</time>
      </trkpt>
      <trkpt lat="46.96042" lon="8.74632">
        <ele>1095</ele>
        <time>2021-08-06T09:59:18.355Z</time>
      </trkpt>
      <trkpt lat="46.96041" lon="8.74632">
        <ele>1095</ele>
        <time>2021-08-06T09:59:19.354Z</time>
      </trkpt>
      <trkpt lat="46.9604" lon="8.74632">
        <ele>1095</ele>
        <time>2021-08-06T09:59:20.354Z</time>
      </trkpt>
      <trkpt lat="46.96039" lon="8.74632">
        <ele>1095</ele>
        <time>2021-08-06T09:59:21.354Z</time>
      </trkpt>
      <trkpt lat="46.96038" lon="8.74631">
        <ele>1096</ele>
        <time>2021-08-06T09:59:22.355Z</time>
      </trkpt>
      <trkpt lat="46.96036" lon="8.74631">
        <ele>1096</ele>
        <time>2021-08-06T09:59:23.355Z</time>
      </trkpt>
      <trkpt lat="46.96035" lon="8.7463">
        <ele>1096</ele>
        <time>2021-08-06T09:59:24.354Z</time>
      </trkpt>
      <trkpt lat="46.96034" lon="8.7463">
        <ele>1096</ele>
        <time>2021-08-06T09:59:25.354Z</time>
      </trkpt>
      <trkpt lat="46.96034" lon="8.74629">
        <ele>1096</ele>
        <time>2021-08-06T09:59:26.355Z</time>
      </trkpt>
      <trkpt lat="46.96034" lon="8.74628">
        <ele>1097</ele>
        <time>2021-08-06T09:59:27.355Z</time>
      </trkpt>
      <trkpt lat="46.96034" lon="8.74627">
        <ele>1097</ele>
        <time>2021-08-06T09:59:28.354Z</time>
      </trkpt>
      <trkpt lat="46.96034" lon="8.74625">
        <ele>1097</ele>
        <time>2021-08-06T09:59:29.354Z</time>
      </trkpt>
      <trkpt lat="46.96035" lon="8.74624">
        <ele>1097</ele>
        <time>2021-08-06T09:59:30.354Z</time>
      </trkpt>
      <trkpt lat="46.96036" lon="8.74622">
        <ele>1097</ele>
        <time>2021-08-06T09:59:31.355Z</time>
      </trkpt>
      <trkpt lat="46.96036" lon="8.74621">
        <ele>1097</ele>
        <time>2021-08-06T09:59:32.355Z</time>
      </trkpt>
      <trkpt lat="46.96035" lon="8.7462">
        <ele>1097</ele>
        <time>2021-08-06T09:59:33.355Z</time>
      </trkpt>
      <trkpt lat="46.96034" lon="8.74619">
        <ele>1097</ele>
        <time>2021-08-06T09:59:34.355Z</time>
      </trkpt>
      <trkpt lat="46.96033" lon="8.74619">
        <ele>1097</ele>
        <time>2021-08-06T09:59:35.354Z</time>
      </trkpt>
      <trkpt lat="46.96032" lon="8.74618">
        <ele>1097</ele>
        <time>2021-08-06T09:59:36.355Z</time>
      </trkpt>
      <trkpt lat="46.96029" lon="8.74619">
        <ele>1097</ele>
        <time>2021-08-06T09:59:37.355Z</time>
      </trkpt>
      <trkpt lat="46.96026" lon="8.74619">
        <ele>1097</ele>
        <time>2021-08-06T09:59:38.355Z</time>
      </trkpt>
      <trkpt lat="46.96024" lon="8.74619">
        <ele>1096</ele>
        <time>2021-08-06T09:59:39.354Z</time>
      </trkpt>
      <trkpt lat="46.96023" lon="8.74617">
        <ele>1096</ele>
        <time>2021-08-06T09:59:40.354Z</time>
      </trkpt>
      <trkpt lat="46.96023" lon="8.74616">
        <ele>1096</ele>
        <time>2021-08-06T09:59:41.355Z</time>
      </trkpt>
      <trkpt lat="46.96023" lon="8.74614">
        <ele>1096</ele>
        <time>2021-08-06T09:59:42.355Z</time>
      </trkpt>
      <trkpt lat="46.96023" lon="8.74613">
        <ele>1097</ele>
        <time>2021-08-06T09:59:43.354Z</time>
      </trkpt>
      <trkpt lat="46.96023" lon="8.74612">
        <ele>1097</ele>
        <time>2021-08-06T09:59:44.354Z</time>
      </trkpt>
      <trkpt lat="46.96023" lon="8.74611">
        <ele>1097</ele>
        <time>2021-08-06T09:59:45.354Z</time>
      </trkpt>
      <trkpt lat="46.96024" lon="8.74609">
        <ele>1098</ele>
        <time>2021-08-06T09:59:46.354Z</time>
      </trkpt>
      <trkpt lat="46.96025" lon="8.74608">
        <ele>1099</ele>
        <time>2021-08-06T09:59:47.355Z</time>
      </trkpt>
      <trkpt lat="46.96024" lon="8.74608">
        <ele>1099</ele>
        <time>2021-08-06T09:59:48.354Z</time>
      </trkpt>
      <trkpt lat="46.96023" lon="8.74608">
        <ele>1100</ele>
        <time>2021-08-06T09:59:49.355Z</time>
      </trkpt>
      <trkpt lat="46.96022" lon="8.74607">
        <ele>1100</ele>
        <time>2021-08-06T09:59:50.355Z</time>
      </trkpt>
      <trkpt lat="46.9602" lon="8.74607">
        <ele>1100</ele>
        <time>2021-08-06T09:59:51.355Z</time>
      </trkpt>
      <trkpt lat="46.96019" lon="8.74606">
        <ele>1100</ele>
        <time>2021-08-06T09:59:52.355Z</time>
      </trkpt>
      <trkpt lat="46.96017" lon="8.74605">
        <ele>1100</ele>
        <time>2021-08-06T09:59:53.354Z</time>
      </trkpt>
      <trkpt lat="46.96015" lon="8.74604">
        <ele>1100</ele>
        <time>2021-08-06T09:59:54.354Z</time>
      </trkpt>
      <trkpt lat="46.96014" lon="8.74604">
        <ele>1100</ele>
        <time>2021-08-06T09:59:55.355Z</time>
      </trkpt>
      <trkpt lat="46.96012" lon="8.74603">
        <ele>1100</ele>
        <time>2021-08-06T09:59:56.354Z</time>
      </trkpt>
      <trkpt lat="46.96011" lon="8.74602">
        <ele>1100</ele>
        <time>2021-08-06T09:59:57.354Z</time>
      </trkpt>
      <trkpt lat="46.96011" lon="8.74601">
        <ele>1100</ele>
        <time>2021-08-06T09:59:58.354Z</time>
      </trkpt>
      <trkpt lat="46.96011" lon="8.746">
        <ele>1099</ele>
        <time>2021-08-06T09:59:59.355Z</time>
      </trkpt>
      <trkpt lat="46.96009" lon="8.74599">
        <ele>1099</ele>
        <time>2021-08-06T10:00:00.355Z</time>
      </trkpt>
      <trkpt lat="46.96008" lon="8.74598">
        <ele>1100</ele>
        <time>2021-08-06T10:00:01.355Z</time>
      </trkpt>
      <trkpt lat="46.96007" lon="8.74597">
        <ele>1100</ele>
        <time>2021-08-06T10:00:02.354Z</time>
      </trkpt>
      <trkpt lat="46.96006" lon="8.74596">
        <ele>1100</ele>
        <time>2021-08-06T10:00:03.354Z</time>
      </trkpt>
      <trkpt lat="46.96005" lon="8.74595">
        <ele>1100</ele>
        <time>2021-08-06T10:00:04.355Z</time>
      </trkpt>
      <trkpt lat="46.96004" lon="8.74594">
        <ele>1100</ele>
        <time>2021-08-06T10:00:05.355Z</time>
      </trkpt>
      <trkpt lat="46.96002" lon="8.74593">
        <ele>1100</ele>
        <time>2021-08-06T10:00:06.354Z</time>
      </trkpt>
      <trkpt lat="46.96001" lon="8.74593">
        <ele>1100</ele>
        <time>2021-08-06T10:00:07.354Z</time>
      </trkpt>
      <trkpt lat="46.96" lon="8.74592">
        <ele>1101</ele>
        <time>2021-08-06T10:00:08.354Z</time>
      </trkpt>
      <trkpt lat="46.96" lon="8.74591">
        <ele>1102</ele>
        <time>2021-08-06T10:00:09.355Z</time>
      </trkpt>
      <trkpt lat="46.96" lon="8.74589">
        <ele>1102</ele>
        <time>2021-08-06T10:00:10.355Z</time>
      </trkpt>
      <trkpt lat="46.95999" lon="8.74588">
        <ele>1103</ele>
        <time>2021-08-06T10:00:11.355Z</time>
      </trkpt>
      <trkpt lat="46.95997" lon="8.74587">
        <ele>1104</ele>
        <time>2021-08-06T10:00:12.354Z</time>
      </trkpt>
      <trkpt lat="46.95996" lon="8.74586">
        <ele>1104</ele>
        <time>2021-08-06T10:00:13.354Z</time>
      </trkpt>
      <trkpt lat="46.95994" lon="8.74585">
        <ele>1105</ele>
        <time>2021-08-06T10:00:14.355Z</time>
      </trkpt>
      <trkpt lat="46.95992" lon="8.74584">
        <ele>1105</ele>
        <time>2021-08-06T10:00:15.355Z</time>
      </trkpt>
      <trkpt lat="46.95991" lon="8.74583">
        <ele>1106</ele>
        <time>2021-08-06T10:00:16.355Z</time>
      </trkpt>
      <trkpt lat="46.95991" lon="8.74582">
        <ele>1106</ele>
        <time>2021-08-06T10:00:17.355Z</time>
      </trkpt>
      <trkpt lat="46.95989" lon="8.74581">
        <ele>1106</ele>
        <time>2021-08-06T10:00:18.354Z</time>
      </trkpt>
      <trkpt lat="46.95988" lon="8.74581">
        <ele>1107</ele>
        <time>2021-08-06T10:00:19.355Z</time>
      </trkpt>
      <trkpt lat="46.95987" lon="8.7458">
        <ele>1107</ele>
        <time>2021-08-06T10:00:20.354Z</time>
      </trkpt>
      <trkpt lat="46.95987" lon="8.74579">
        <ele>1108</ele>
        <time>2021-08-06T10:00:21.355Z</time>
      </trkpt>
      <trkpt lat="46.95987" lon="8.74578">
        <ele>1109</ele>
        <time>2021-08-06T10:00:22.354Z</time>
      </trkpt>
      <trkpt lat="46.95986" lon="8.74577">
        <ele>1109</ele>
        <time>2021-08-06T10:00:23.354Z</time>
      </trkpt>
      <trkpt lat="46.95986" lon="8.74576">
        <ele>1109</ele>
        <time>2021-08-06T10:00:24.355Z</time>
      </trkpt>
      <trkpt lat="46.95985" lon="8.74574">
        <ele>1109</ele>
        <time>2021-08-06T10:00:25.355Z</time>
      </trkpt>
      <trkpt lat="46.95985" lon="8.74573">
        <ele>1109</ele>
        <time>2021-08-06T10:00:26.354Z</time>
      </trkpt>
      <trkpt lat="46.95986" lon="8.74571">
        <ele>1109</ele>
        <time>2021-08-06T10:00:27.354Z</time>
      </trkpt>
      <trkpt lat="46.95986" lon="8.7457">
        <ele>1109</ele>
        <time>2021-08-06T10:00:28.355Z</time>
      </trkpt>
      <trkpt lat="46.95987" lon="8.74568">
        <ele>1109</ele>
        <time>2021-08-06T10:00:29.355Z</time>
      </trkpt>
      <trkpt lat="46.95989" lon="8.74566">
        <ele>1110</ele>
        <time>2021-08-06T10:00:30.355Z</time>
      </trkpt>
      <trkpt lat="46.95991" lon="8.74564">
        <ele>1110</ele>
        <time>2021-08-06T10:00:31.355Z</time>
      </trkpt>
      <trkpt lat="46.95992" lon="8.74562">
        <ele>1110</ele>
        <time>2021-08-06T10:00:32.355Z</time>
      </trkpt>
      <trkpt lat="46.95994" lon="8.74559">
        <ele>1111</ele>
        <time>2021-08-06T10:00:33.355Z</time>
      </trkpt>
      <trkpt lat="46.95995" lon="8.74559">
        <ele>1112</ele>
        <time>2021-08-06T10:00:34.354Z</time>
      </trkpt>
      <trkpt lat="46.95997" lon="8.74557">
        <ele>1112</ele>
        <time>2021-08-06T10:00:35.354Z</time>
      </trkpt>
      <trkpt lat="46.95997" lon="8.74556">
        <ele>1113</ele>
        <time>2021-08-06T10:00:36.355Z</time>
      </trkpt>
      <trkpt lat="46.95996" lon="8.74555">
        <ele>1113</ele>
        <time>2021-08-06T10:00:37.355Z</time>
      </trkpt>
      <trkpt lat="46.95997" lon="8.74554">
        <ele>1113</ele>
        <time>2021-08-06T10:00:38.355Z</time>
      </trkpt>
      <trkpt lat="46.95996" lon="8.74553">
        <ele>1114</ele>
        <time>2021-08-06T10:00:39.354Z</time>
      </trkpt>
      <trkpt lat="46.95996" lon="8.74551">
        <ele>1114</ele>
        <time>2021-08-06T10:00:40.355Z</time>
      </trkpt>
      <trkpt lat="46.95996" lon="8.7455">
        <ele>1114</ele>
        <time>2021-08-06T10:00:41.355Z</time>
      </trkpt>
      <trkpt lat="46.95996" lon="8.74549">
        <ele>1115</ele>
        <time>2021-08-06T10:00:42.354Z</time>
      </trkpt>
      <trkpt lat="46.95996" lon="8.74547">
        <ele>1115</ele>
        <time>2021-08-06T10:00:43.354Z</time>
      </trkpt>
      <trkpt lat="46.95996" lon="8.74546">
        <ele>1116</ele>
        <time>2021-08-06T10:00:44.354Z</time>
      </trkpt>
      <trkpt lat="46.95996" lon="8.74545">
        <ele>1116</ele>
        <time>2021-08-06T10:00:45.355Z</time>
      </trkpt>
      <trkpt lat="46.95997" lon="8.74543">
        <ele>1116</ele>
        <time>2021-08-06T10:00:46.354Z</time>
      </trkpt>
      <trkpt lat="46.95997" lon="8.74542">
        <ele>1117</ele>
        <time>2021-08-06T10:00:47.355Z</time>
      </trkpt>
      <trkpt lat="46.95998" lon="8.74541">
        <ele>1117</ele>
        <time>2021-08-06T10:00:48.354Z</time>
      </trkpt>
      <trkpt lat="46.95998" lon="8.74539">
        <ele>1117</ele>
        <time>2021-08-06T10:00:49.355Z</time>
      </trkpt>
      <trkpt lat="46.95998" lon="8.74538">
        <ele>1117</ele>
        <time>2021-08-06T10:00:50.354Z</time>
      </trkpt>
      <trkpt lat="46.95998" lon="8.74537">
        <ele>1117</ele>
        <time>2021-08-06T10:00:51.354Z</time>
      </trkpt>
      <trkpt lat="46.95998" lon="8.74536">
        <ele>1117</ele>
        <time>2021-08-06T10:00:52.354Z</time>
      </trkpt>
      <trkpt lat="46.95999" lon="8.74534">
        <ele>1117</ele>
        <time>2021-08-06T10:00:53.354Z</time>
      </trkpt>
      <trkpt lat="46.96" lon="8.74532">
        <ele>1117</ele>
        <time>2021-08-06T10:00:54.355Z</time>
      </trkpt>
      <trkpt lat="46.95999" lon="8.7453">
        <ele>1118</ele>
        <time>2021-08-06T10:00:55.355Z</time>
      </trkpt>
      <trkpt lat="46.95997" lon="8.7453">
        <ele>1119</ele>
        <time>2021-08-06T10:00:56.354Z</time>
      </trkpt>
      <trkpt lat="46.95996" lon="8.7453">
        <ele>1119</ele>
        <time>2021-08-06T10:00:57.354Z</time>
      </trkpt>
      <trkpt lat="46.95997" lon="8.74529">
        <ele>1119</ele>
        <time>2021-08-06T10:00:58.354Z</time>
      </trkpt>
      <trkpt lat="46.95997" lon="8.74527">
        <ele>1120</ele>
        <time>2021-08-06T10:00:59.355Z</time>
      </trkpt>
      <trkpt lat="46.95997" lon="8.74526">
        <ele>1120</ele>
        <time>2021-08-06T10:01:00.355Z</time>
      </trkpt>
      <trkpt lat="46.95997" lon="8.74524">
        <ele>1121</ele>
        <time>2021-08-06T10:01:01.355Z</time>
      </trkpt>
      <trkpt lat="46.95997" lon="8.74523">
        <ele>1121</ele>
        <time>2021-08-06T10:01:02.354Z</time>
      </trkpt>
      <trkpt lat="46.95998" lon="8.74521">
        <ele>1121</ele>
        <time>2021-08-06T10:01:03.354Z</time>
      </trkpt>
      <trkpt lat="46.95999" lon="8.7452">
        <ele>1122</ele>
        <time>2021-08-06T10:01:04.355Z</time>
      </trkpt>
      <trkpt lat="46.95999" lon="8.74518">
        <ele>1122</ele>
        <time>2021-08-06T10:01:05.354Z</time>
      </trkpt>
      <trkpt lat="46.95999" lon="8.74517">
        <ele>1123</ele>
        <time>2021-08-06T10:01:06.355Z</time>
      </trkpt>
      <trkpt lat="46.95999" lon="8.74515">
        <ele>1123</ele>
        <time>2021-08-06T10:01:07.354Z</time>
      </trkpt>
      <trkpt lat="46.95999" lon="8.74514">
        <ele>1123</ele>
        <time>2021-08-06T10:01:08.355Z</time>
      </trkpt>
      <trkpt lat="46.95999" lon="8.74513">
        <ele>1123</ele>
        <time>2021-08-06T10:01:09.355Z</time>
      </trkpt>
      <trkpt lat="46.95999" lon="8.74512">
        <ele>1123</ele>
        <time>2021-08-06T10:01:10.355Z</time>
      </trkpt>
      <trkpt lat="46.95999" lon="8.7451">
        <ele>1123</ele>
        <time>2021-08-06T10:01:11.354Z</time>
      </trkpt>
      <trkpt lat="46.96" lon="8.74508">
        <ele>1123</ele>
        <time>2021-08-06T10:01:12.355Z</time>
      </trkpt>
      <trkpt lat="46.96001" lon="8.74506">
        <ele>1123</ele>
        <time>2021-08-06T10:01:13.354Z</time>
      </trkpt>
      <trkpt lat="46.96002" lon="8.74503">
        <ele>1123</ele>
        <time>2021-08-06T10:01:14.354Z</time>
      </trkpt>
      <trkpt lat="46.96003" lon="8.74501">
        <ele>1123</ele>
        <time>2021-08-06T10:01:15.355Z</time>
      </trkpt>
      <trkpt lat="46.96003" lon="8.745">
        <ele>1123</ele>
        <time>2021-08-06T10:01:16.355Z</time>
      </trkpt>
      <trkpt lat="46.96004" lon="8.74499">
        <ele>1123</ele>
        <time>2021-08-06T10:01:17.354Z</time>
      </trkpt>
      <trkpt lat="46.96005" lon="8.74497">
        <ele>1124</ele>
        <time>2021-08-06T10:01:18.354Z</time>
      </trkpt>
      <trkpt lat="46.96005" lon="8.74495">
        <ele>1125</ele>
        <time>2021-08-06T10:01:19.354Z</time>
      </trkpt>
      <trkpt lat="46.96006" lon="8.74494">
        <ele>1126</ele>
        <time>2021-08-06T10:01:20.355Z</time>
      </trkpt>
      <trkpt lat="46.96006" lon="8.74492">
        <ele>1126</ele>
        <time>2021-08-06T10:01:21.354Z</time>
      </trkpt>
      <trkpt lat="46.96007" lon="8.74491">
        <ele>1127</ele>
        <time>2021-08-06T10:01:22.355Z</time>
      </trkpt>
      <trkpt lat="46.96007" lon="8.7449">
        <ele>1127</ele>
        <time>2021-08-06T10:01:23.354Z</time>
      </trkpt>
      <trkpt lat="46.96006" lon="8.74489">
        <ele>1128</ele>
        <time>2021-08-06T10:01:24.354Z</time>
      </trkpt>
      <trkpt lat="46.96003" lon="8.74489">
        <ele>1128</ele>
        <time>2021-08-06T10:01:25.354Z</time>
      </trkpt>
      <trkpt lat="46.96001" lon="8.74487">
        <ele>1128</ele>
        <time>2021-08-06T10:01:26.354Z</time>
      </trkpt>
      <trkpt lat="46.96" lon="8.74486">
        <ele>1128</ele>
        <time>2021-08-06T10:01:27.354Z</time>
      </trkpt>
      <trkpt lat="46.95999" lon="8.74485">
        <ele>1128</ele>
        <time>2021-08-06T10:01:28.354Z</time>
      </trkpt>
      <trkpt lat="46.95998" lon="8.74484">
        <ele>1128</ele>
        <time>2021-08-06T10:01:29.354Z</time>
      </trkpt>
      <trkpt lat="46.95998" lon="8.74483">
        <ele>1128</ele>
        <time>2021-08-06T10:01:30.354Z</time>
      </trkpt>
      <trkpt lat="46.95998" lon="8.74482">
        <ele>1128</ele>
        <time>2021-08-06T10:01:31.355Z</time>
      </trkpt>
      <trkpt lat="46.95998" lon="8.7448">
        <ele>1128</ele>
        <time>2021-08-06T10:01:32.354Z</time>
      </trkpt>
      <trkpt lat="46.95998" lon="8.74479">
        <ele>1128</ele>
        <time>2021-08-06T10:01:33.354Z</time>
      </trkpt>
      <trkpt lat="46.95998" lon="8.74478">
        <ele>1128</ele>
        <time>2021-08-06T10:01:34.354Z</time>
      </trkpt>
      <trkpt lat="46.95998" lon="8.74477">
        <ele>1129</ele>
        <time>2021-08-06T10:01:35.354Z</time>
      </trkpt>
      <trkpt lat="46.95998" lon="8.74476">
        <ele>1128</ele>
        <time>2021-08-06T10:01:36.354Z</time>
      </trkpt>
      <trkpt lat="46.95997" lon="8.74475">
        <ele>1128</ele>
        <time>2021-08-06T10:01:37.354Z</time>
      </trkpt>
      <trkpt lat="46.95997" lon="8.74474">
        <ele>1128</ele>
        <time>2021-08-06T10:01:38.354Z</time>
      </trkpt>
      <trkpt lat="46.95996" lon="8.74474">
        <ele>1128</ele>
        <time>2021-08-06T10:01:39.354Z</time>
      </trkpt>
      <trkpt lat="46.95996" lon="8.74473">
        <ele>1128</ele>
        <time>2021-08-06T10:01:40.354Z</time>
      </trkpt>
      <trkpt lat="46.95995" lon="8.74472">
        <ele>1128</ele>
        <time>2021-08-06T10:01:41.354Z</time>
      </trkpt>
      <trkpt lat="46.95994" lon="8.74471">
        <ele>1127</ele>
        <time>2021-08-06T10:01:42.354Z</time>
      </trkpt>
      <trkpt lat="46.95993" lon="8.7447">
        <ele>1127</ele>
        <time>2021-08-06T10:01:43.354Z</time>
      </trkpt>
      <trkpt lat="46.95993" lon="8.74469">
        <ele>1127</ele>
        <time>2021-08-06T10:01:44.354Z</time>
      </trkpt>
      <trkpt lat="46.95993" lon="8.74468">
        <ele>1127</ele>
        <time>2021-08-06T10:01:45.354Z</time>
      </trkpt>
      <trkpt lat="46.95992" lon="8.74467">
        <ele>1127</ele>
        <time>2021-08-06T10:01:46.354Z</time>
      </trkpt>
      <trkpt lat="46.95992" lon="8.74466">
        <ele>1127</ele>
        <time>2021-08-06T10:01:47.354Z</time>
      </trkpt>
      <trkpt lat="46.95991" lon="8.74466">
        <ele>1127</ele>
        <time>2021-08-06T10:01:48.355Z</time>
      </trkpt>
      <trkpt lat="46.9599" lon="8.74465">
        <ele>1127</ele>
        <time>2021-08-06T10:01:49.354Z</time>
      </trkpt>
      <trkpt lat="46.9599" lon="8.74465">
        <ele>1127</ele>
        <time>2021-08-06T10:01:50.355Z</time>
      </trkpt>
      <trkpt lat="46.95989" lon="8.74465">
        <ele>1126</ele>
        <time>2021-08-06T10:01:51.355Z</time>
      </trkpt>
      <trkpt lat="46.95988" lon="8.74465">
        <ele>1126</ele>
        <time>2021-08-06T10:01:52.355Z</time>
      </trkpt>
      <trkpt lat="46.95988" lon="8.74464">
        <ele>1126</ele>
        <time>2021-08-06T10:01:53.355Z</time>
      </trkpt>
      <trkpt lat="46.95988" lon="8.74463">
        <ele>1126</ele>
        <time>2021-08-06T10:01:54.355Z</time>
      </trkpt>
      <trkpt lat="46.95988" lon="8.74462">
        <ele>1125</ele>
        <time>2021-08-06T10:01:55.354Z</time>
      </trkpt>
      <trkpt lat="46.95988" lon="8.74461">
        <ele>1125</ele>
        <time>2021-08-06T10:01:56.355Z</time>
      </trkpt>
      <trkpt lat="46.95988" lon="8.7446">
        <ele>1125</ele>
        <time>2021-08-06T10:01:57.354Z</time>
      </trkpt>
      <trkpt lat="46.95988" lon="8.74459">
        <ele>1125</ele>
        <time>2021-08-06T10:01:58.355Z</time>
      </trkpt>
      <trkpt lat="46.95988" lon="8.74459">
        <ele>1125</ele>
        <time>2021-08-06T10:01:59.355Z</time>
      </trkpt>
      <trkpt lat="46.95988" lon="8.74458">
        <ele>1125</ele>
        <time>2021-08-06T10:02:00.355Z</time>
      </trkpt>
      <trkpt lat="46.95987" lon="8.74458">
        <ele>1125</ele>
        <time>2021-08-06T10:02:01.354Z</time>
      </trkpt>
      <trkpt lat="46.95986" lon="8.74457">
        <ele>1125</ele>
        <time>2021-08-06T10:02:02.354Z</time>
      </trkpt>
      <trkpt lat="46.95986" lon="8.74456">
        <ele>1125</ele>
        <time>2021-08-06T10:02:03.355Z</time>
      </trkpt>
      <trkpt lat="46.95987" lon="8.74455">
        <ele>1125</ele>
        <time>2021-08-06T10:02:04.355Z</time>
      </trkpt>
      <trkpt lat="46.95988" lon="8.74453">
        <ele>1125</ele>
        <time>2021-08-06T10:02:05.355Z</time>
      </trkpt>
      <trkpt lat="46.95989" lon="8.74452">
        <ele>1125</ele>
        <time>2021-08-06T10:02:06.354Z</time>
      </trkpt>
      <trkpt lat="46.9599" lon="8.74451">
        <ele>1125</ele>
        <time>2021-08-06T10:02:07.355Z</time>
      </trkpt>
      <trkpt lat="46.9599" lon="8.7445">
        <ele>1126</ele>
        <time>2021-08-06T10:02:08.355Z</time>
      </trkpt>
      <trkpt lat="46.9599" lon="8.74449">
        <ele>1126</ele>
        <time>2021-08-06T10:02:09.355Z</time>
      </trkpt>
      <trkpt lat="46.95991" lon="8.74448">
        <ele>1126</ele>
        <time>2021-08-06T10:02:10.355Z</time>
      </trkpt>
      <trkpt lat="46.95993" lon="8.74446">
        <ele>1127</ele>
        <time>2021-08-06T10:02:11.355Z</time>
      </trkpt>
      <trkpt lat="46.95995" lon="8.74443">
        <ele>1128</ele>
        <time>2021-08-06T10:02:12.355Z</time>
      </trkpt>
      <trkpt lat="46.95997" lon="8.74441">
        <ele>1128</ele>
        <time>2021-08-06T10:02:13.355Z</time>
      </trkpt>
      <trkpt lat="46.95998" lon="8.74438">
        <ele>1128</ele>
        <time>2021-08-06T10:02:14.355Z</time>
      </trkpt>
      <trkpt lat="46.95999" lon="8.74437">
        <ele>1129</ele>
        <time>2021-08-06T10:02:15.354Z</time>
      </trkpt>
      <trkpt lat="46.96" lon="8.74436">
        <ele>1130</ele>
        <time>2021-08-06T10:02:16.355Z</time>
      </trkpt>
      <trkpt lat="46.96" lon="8.74435">
        <ele>1130</ele>
        <time>2021-08-06T10:02:17.355Z</time>
      </trkpt>
      <trkpt lat="46.96" lon="8.74433">
        <ele>1131</ele>
        <time>2021-08-06T10:02:18.355Z</time>
      </trkpt>
      <trkpt lat="46.95999" lon="8.74433">
        <ele>1132</ele>
        <time>2021-08-06T10:02:19.355Z</time>
      </trkpt>
      <trkpt lat="46.95998" lon="8.74433">
        <ele>1132</ele>
        <time>2021-08-06T10:02:20.355Z</time>
      </trkpt>
      <trkpt lat="46.95998" lon="8.74433">
        <ele>1133</ele>
        <time>2021-08-06T10:02:21.355Z</time>
      </trkpt>
      <trkpt lat="46.95997" lon="8.74432">
        <ele>1134</ele>
        <time>2021-08-06T10:02:22.355Z</time>
      </trkpt>
      <trkpt lat="46.95997" lon="8.74432">
        <ele>1134</ele>
        <time>2021-08-06T10:02:23.355Z</time>
      </trkpt>
      <trkpt lat="46.95996" lon="8.74432">
        <ele>1135</ele>
        <time>2021-08-06T10:02:24.354Z</time>
      </trkpt>
      <trkpt lat="46.95995" lon="8.74431">
        <ele>1135</ele>
        <time>2021-08-06T10:02:25.355Z</time>
      </trkpt>
      <trkpt lat="46.95994" lon="8.74431">
        <ele>1136</ele>
        <time>2021-08-06T10:02:26.355Z</time>
      </trkpt>
      <trkpt lat="46.95994" lon="8.7443">
        <ele>1136</ele>
        <time>2021-08-06T10:02:27.355Z</time>
      </trkpt>
      <trkpt lat="46.95994" lon="8.74429">
        <ele>1136</ele>
        <time>2021-08-06T10:02:28.354Z</time>
      </trkpt>
      <trkpt lat="46.95993" lon="8.74428">
        <ele>1136</ele>
        <time>2021-08-06T10:02:29.354Z</time>
      </trkpt>
      <trkpt lat="46.95992" lon="8.74427">
        <ele>1136</ele>
        <time>2021-08-06T10:02:30.355Z</time>
      </trkpt>
      <trkpt lat="46.95991" lon="8.74426">
        <ele>1135</ele>
        <time>2021-08-06T10:02:31.355Z</time>
      </trkpt>
      <trkpt lat="46.95991" lon="8.74425">
        <ele>1135</ele>
        <time>2021-08-06T10:02:32.355Z</time>
      </trkpt>
      <trkpt lat="46.95991" lon="8.74424">
        <ele>1134</ele>
        <time>2021-08-06T10:02:33.354Z</time>
      </trkpt>
      <trkpt lat="46.95991" lon="8.74423">
        <ele>1134</ele>
        <time>2021-08-06T10:02:34.355Z</time>
      </trkpt>
      <trkpt lat="46.95991" lon="8.74422">
        <ele>1134</ele>
        <time>2021-08-06T10:02:35.355Z</time>
      </trkpt>
      <trkpt lat="46.95991" lon="8.74421">
        <ele>1134</ele>
        <time>2021-08-06T10:02:36.354Z</time>
      </trkpt>
      <trkpt lat="46.9599" lon="8.74421">
        <ele>1134</ele>
        <time>2021-08-06T10:02:37.355Z</time>
      </trkpt>
      <trkpt lat="46.95989" lon="8.7442">
        <ele>1134</ele>
        <time>2021-08-06T10:02:38.355Z</time>
      </trkpt>
      <trkpt lat="46.95988" lon="8.74419">
        <ele>1134</ele>
        <time>2021-08-06T10:02:39.354Z</time>
      </trkpt>
      <trkpt lat="46.95988" lon="8.74418">
        <ele>1134</ele>
        <time>2021-08-06T10:02:40.355Z</time>
      </trkpt>
      <trkpt lat="46.95987" lon="8.74416">
        <ele>1134</ele>
        <time>2021-08-06T10:02:41.354Z</time>
      </trkpt>
      <trkpt lat="46.95987" lon="8.74416">
        <ele>1134</ele>
        <time>2021-08-06T10:02:42.355Z</time>
      </trkpt>
      <trkpt lat="46.95987" lon="8.74415">
        <ele>1134</ele>
        <time>2021-08-06T10:02:43.355Z</time>
      </trkpt>
      <trkpt lat="46.95986" lon="8.74414">
        <ele>1134</ele>
        <time>2021-08-06T10:02:44.354Z</time>
      </trkpt>
      <trkpt lat="46.95986" lon="8.74413">
        <ele>1134</ele>
        <time>2021-08-06T10:02:45.355Z</time>
      </trkpt>
      <trkpt lat="46.95985" lon="8.74413">
        <ele>1134</ele>
        <time>2021-08-06T10:02:46.354Z</time>
      </trkpt>
      <trkpt lat="46.95985" lon="8.74412">
        <ele>1134</ele>
        <time>2021-08-06T10:02:47.354Z</time>
      </trkpt>
      <trkpt lat="46.95984" lon="8.74412">
        <ele>1133</ele>
        <time>2021-08-06T10:02:48.355Z</time>
      </trkpt>
      <trkpt lat="46.95984" lon="8.74411">
        <ele>1133</ele>
        <time>2021-08-06T10:02:49.355Z</time>
      </trkpt>
      <trkpt lat="46.95983" lon="8.7441">
        <ele>1133</ele>
        <time>2021-08-06T10:02:50.355Z</time>
      </trkpt>
      <trkpt lat="46.95983" lon="8.74409">
        <ele>1133</ele>
        <time>2021-08-06T10:02:51.355Z</time>
      </trkpt>
      <trkpt lat="46.95983" lon="8.74408">
        <ele>1133</ele>
        <time>2021-08-06T10:02:52.354Z</time>
      </trkpt>
      <trkpt lat="46.95983" lon="8.74407">
        <ele>1133</ele>
        <time>2021-08-06T10:02:53.355Z</time>
      </trkpt>
      <trkpt lat="46.95982" lon="8.74406">
        <ele>1134</ele>
        <time>2021-08-06T10:02:54.354Z</time>
      </trkpt>
      <trkpt lat="46.95982" lon="8.74405">
        <ele>1134</ele>
        <time>2021-08-06T10:02:55.354Z</time>
      </trkpt>
      <trkpt lat="46.95982" lon="8.74404">
        <ele>1134</ele>
        <time>2021-08-06T10:02:56.355Z</time>
      </trkpt>
      <trkpt lat="46.95982" lon="8.74404">
        <ele>1134</ele>
        <time>2021-08-06T10:02:57.354Z</time>
      </trkpt>
      <trkpt lat="46.95982" lon="8.74403">
        <ele>1134</ele>
        <time>2021-08-06T10:02:58.355Z</time>
      </trkpt>
      <trkpt lat="46.95982" lon="8.74401">
        <ele>1134</ele>
        <time>2021-08-06T10:02:59.355Z</time>
      </trkpt>
      <trkpt lat="46.95982" lon="8.74401">
        <ele>1134</ele>
        <time>2021-08-06T10:03:00.355Z</time>
      </trkpt>
      <trkpt lat="46.95981" lon="8.744">
        <ele>1135</ele>
        <time>2021-08-06T10:03:01.354Z</time>
      </trkpt>
      <trkpt lat="46.95979" lon="8.74399">
        <ele>1135</ele>
        <time>2021-08-06T10:03:02.354Z</time>
      </trkpt>
      <trkpt lat="46.95977" lon="8.74398">
        <ele>1135</ele>
        <time>2021-08-06T10:03:03.354Z</time>
      </trkpt>
      <trkpt lat="46.95975" lon="8.74396">
        <ele>1136</ele>
        <time>2021-08-06T10:03:04.355Z</time>
      </trkpt>
      <trkpt lat="46.95973" lon="8.74393">
        <ele>1136</ele>
        <time>2021-08-06T10:03:05.355Z</time>
      </trkpt>
      <trkpt lat="46.95973" lon="8.7439">
        <ele>1137</ele>
        <time>2021-08-06T10:03:06.355Z</time>
      </trkpt>
      <trkpt lat="46.95972" lon="8.74387">
        <ele>1137</ele>
        <time>2021-08-06T10:03:07.354Z</time>
      </trkpt>
      <trkpt lat="46.95972" lon="8.74386">
        <ele>1137</ele>
        <time>2021-08-06T10:03:08.355Z</time>
      </trkpt>
      <trkpt lat="46.9597" lon="8.74385">
        <ele>1137</ele>
        <time>2021-08-06T10:03:09.354Z</time>
      </trkpt>
      <trkpt lat="46.95969" lon="8.74383">
        <ele>1137</ele>
        <time>2021-08-06T10:03:10.355Z</time>
      </trkpt>
      <trkpt lat="46.95969" lon="8.74381">
        <ele>1137</ele>
        <time>2021-08-06T10:03:11.354Z</time>
      </trkpt>
      <trkpt lat="46.95968" lon="8.74381">
        <ele>1137</ele>
        <time>2021-08-06T10:03:12.354Z</time>
      </trkpt>
      <trkpt lat="46.95967" lon="8.7438">
        <ele>1138</ele>
        <time>2021-08-06T10:03:13.354Z</time>
      </trkpt>
      <trkpt lat="46.95967" lon="8.7438">
        <ele>1138</ele>
        <time>2021-08-06T10:03:14.355Z</time>
      </trkpt>
      <trkpt lat="46.95968" lon="8.74379">
        <ele>1138</ele>
        <time>2021-08-06T10:03:15.355Z</time>
      </trkpt>
      <trkpt lat="46.95968" lon="8.74377">
        <ele>1139</ele>
        <time>2021-08-06T10:03:16.354Z</time>
      </trkpt>
      <trkpt lat="46.95968" lon="8.74377">
        <ele>1140</ele>
        <time>2021-08-06T10:03:17.354Z</time>
      </trkpt>
      <trkpt lat="46.95968" lon="8.74376">
        <ele>1140</ele>
        <time>2021-08-06T10:03:18.355Z</time>
      </trkpt>
      <trkpt lat="46.95967" lon="8.74376">
        <ele>1141</ele>
        <time>2021-08-06T10:03:19.355Z</time>
      </trkpt>
      <trkpt lat="46.95965" lon="8.74376">
        <ele>1141</ele>
        <time>2021-08-06T10:03:20.355Z</time>
      </trkpt>
      <trkpt lat="46.95964" lon="8.74376">
        <ele>1141</ele>
        <time>2021-08-06T10:03:21.355Z</time>
      </trkpt>
      <trkpt lat="46.95963" lon="8.74377">
        <ele>1141</ele>
        <time>2021-08-06T10:03:22.355Z</time>
      </trkpt>
      <trkpt lat="46.95962" lon="8.74376">
        <ele>1141</ele>
        <time>2021-08-06T10:03:23.355Z</time>
      </trkpt>
      <trkpt lat="46.95961" lon="8.74375">
        <ele>1141</ele>
        <time>2021-08-06T10:03:24.355Z</time>
      </trkpt>
      <trkpt lat="46.95961" lon="8.74374">
        <ele>1141</ele>
        <time>2021-08-06T10:03:25.355Z</time>
      </trkpt>
      <trkpt lat="46.95961" lon="8.74373">
        <ele>1140</ele>
        <time>2021-08-06T10:03:26.355Z</time>
      </trkpt>
      <trkpt lat="46.95961" lon="8.74372">
        <ele>1140</ele>
        <time>2021-08-06T10:03:27.355Z</time>
      </trkpt>
      <trkpt lat="46.95961" lon="8.74371">
        <ele>1140</ele>
        <time>2021-08-06T10:03:28.355Z</time>
      </trkpt>
      <trkpt lat="46.95962" lon="8.7437">
        <ele>1140</ele>
        <time>2021-08-06T10:03:29.355Z</time>
      </trkpt>
      <trkpt lat="46.95961" lon="8.7437">
        <ele>1140</ele>
        <time>2021-08-06T10:03:30.355Z</time>
      </trkpt>
      <trkpt lat="46.95961" lon="8.7437">
        <ele>1140</ele>
        <time>2021-08-06T10:03:31.355Z</time>
      </trkpt>
      <trkpt lat="46.9596" lon="8.7437">
        <ele>1139</ele>
        <time>2021-08-06T10:03:32.355Z</time>
      </trkpt>
      <trkpt lat="46.9596" lon="8.7437">
        <ele>1139</ele>
        <time>2021-08-06T10:03:33.355Z</time>
      </trkpt>
      <trkpt lat="46.9596" lon="8.74369">
        <ele>1139</ele>
        <time>2021-08-06T10:03:34.355Z</time>
      </trkpt>
      <trkpt lat="46.9596" lon="8.74368">
        <ele>1139</ele>
        <time>2021-08-06T10:03:35.354Z</time>
      </trkpt>
      <trkpt lat="46.95962" lon="8.74366">
        <ele>1139</ele>
        <time>2021-08-06T10:03:36.355Z</time>
      </trkpt>
      <trkpt lat="46.95962" lon="8.74365">
        <ele>1140</ele>
        <time>2021-08-06T10:03:37.354Z</time>
      </trkpt>
      <trkpt lat="46.95962" lon="8.74363">
        <ele>1140</ele>
        <time>2021-08-06T10:03:38.355Z</time>
      </trkpt>
      <trkpt lat="46.95963" lon="8.74362">
        <ele>1141</ele>
        <time>2021-08-06T10:03:39.355Z</time>
      </trkpt>
      <trkpt lat="46.95963" lon="8.74361">
        <ele>1141</ele>
        <time>2021-08-06T10:03:40.354Z</time>
      </trkpt>
      <trkpt lat="46.95963" lon="8.74361">
        <ele>1141</ele>
        <time>2021-08-06T10:03:41.354Z</time>
      </trkpt>
      <trkpt lat="46.95963" lon="8.74361">
        <ele>1142</ele>
        <time>2021-08-06T10:03:42.354Z</time>
      </trkpt>
      <trkpt lat="46.95962" lon="8.7436">
        <ele>1142</ele>
        <time>2021-08-06T10:03:43.354Z</time>
      </trkpt>
      <trkpt lat="46.95961" lon="8.7436">
        <ele>1142</ele>
        <time>2021-08-06T10:03:44.354Z</time>
      </trkpt>
      <trkpt lat="46.95961" lon="8.7436">
        <ele>1142</ele>
        <time>2021-08-06T10:03:45.355Z</time>
      </trkpt>
      <trkpt lat="46.95961" lon="8.7436">
        <ele>1141</ele>
        <time>2021-08-06T10:03:46.355Z</time>
      </trkpt>
      <trkpt lat="46.95961" lon="8.74359">
        <ele>1141</ele>
        <time>2021-08-06T10:03:47.354Z</time>
      </trkpt>
      <trkpt lat="46.9596" lon="8.74358">
        <ele>1141</ele>
        <time>2021-08-06T10:03:48.355Z</time>
      </trkpt>
      <trkpt lat="46.9596" lon="8.74357">
        <ele>1141</ele>
        <time>2021-08-06T10:03:49.355Z</time>
      </trkpt>
      <trkpt lat="46.95959" lon="8.74357">
        <ele>1141</ele>
        <time>2021-08-06T10:03:50.354Z</time>
      </trkpt>
      <trkpt lat="46.95959" lon="8.74356">
        <ele>1141</ele>
        <time>2021-08-06T10:03:51.355Z</time>
      </trkpt>
      <trkpt lat="46.95958" lon="8.74356">
        <ele>1141</ele>
        <time>2021-08-06T10:03:52.355Z</time>
      </trkpt>
      <trkpt lat="46.95958" lon="8.74355">
        <ele>1141</ele>
        <time>2021-08-06T10:03:53.355Z</time>
      </trkpt>
      <trkpt lat="46.95958" lon="8.74354">
        <ele>1141</ele>
        <time>2021-08-06T10:03:54.355Z</time>
      </trkpt>
      <trkpt lat="46.95958" lon="8.74353">
        <ele>1141</ele>
        <time>2021-08-06T10:03:55.355Z</time>
      </trkpt>
      <trkpt lat="46.95957" lon="8.74352">
        <ele>1141</ele>
        <time>2021-08-06T10:03:56.355Z</time>
      </trkpt>
      <trkpt lat="46.95957" lon="8.74351">
        <ele>1141</ele>
        <time>2021-08-06T10:03:57.355Z</time>
      </trkpt>
      <trkpt lat="46.95958" lon="8.7435">
        <ele>1141</ele>
        <time>2021-08-06T10:03:58.354Z</time>
      </trkpt>
      <trkpt lat="46.95958" lon="8.74349">
        <ele>1141</ele>
        <time>2021-08-06T10:03:59.355Z</time>
      </trkpt>
      <trkpt lat="46.95959" lon="8.74348">
        <ele>1141</ele>
        <time>2021-08-06T10:04:00.355Z</time>
      </trkpt>
      <trkpt lat="46.9596" lon="8.74345">
        <ele>1141</ele>
        <time>2021-08-06T10:04:01.354Z</time>
      </trkpt>
      <trkpt lat="46.95962" lon="8.74342">
        <ele>1141</ele>
        <time>2021-08-06T10:04:02.355Z</time>
      </trkpt>
      <trkpt lat="46.95962" lon="8.74338">
        <ele>1141</ele>
        <time>2021-08-06T10:04:03.355Z</time>
      </trkpt>
      <trkpt lat="46.95963" lon="8.74334">
        <ele>1141</ele>
        <time>2021-08-06T10:04:04.355Z</time>
      </trkpt>
      <trkpt lat="46.95964" lon="8.7433">
        <ele>1141</ele>
        <time>2021-08-06T10:04:05.355Z</time>
      </trkpt>
      <trkpt lat="46.95964" lon="8.74328">
        <ele>1141</ele>
        <time>2021-08-06T10:04:06.354Z</time>
      </trkpt>
      <trkpt lat="46.95963" lon="8.74327">
        <ele>1142</ele>
        <time>2021-08-06T10:04:07.355Z</time>
      </trkpt>
      <trkpt lat="46.95963" lon="8.74326">
        <ele>1142</ele>
        <time>2021-08-06T10:04:08.354Z</time>
      </trkpt>
      <trkpt lat="46.95964" lon="8.74325">
        <ele>1142</ele>
        <time>2021-08-06T10:04:09.355Z</time>
      </trkpt>
      <trkpt lat="46.95965" lon="8.74322">
        <ele>1142</ele>
        <time>2021-08-06T10:04:10.355Z</time>
      </trkpt>
      <trkpt lat="46.95966" lon="8.7432">
        <ele>1142</ele>
        <time>2021-08-06T10:04:11.354Z</time>
      </trkpt>
      <trkpt lat="46.95965" lon="8.74319">
        <ele>1142</ele>
        <time>2021-08-06T10:04:12.355Z</time>
      </trkpt>
      <trkpt lat="46.95965" lon="8.74317">
        <ele>1143</ele>
        <time>2021-08-06T10:04:13.355Z</time>
      </trkpt>
      <trkpt lat="46.95964" lon="8.74316">
        <ele>1143</ele>
        <time>2021-08-06T10:04:14.354Z</time>
      </trkpt>
      <trkpt lat="46.95964" lon="8.74315">
        <ele>1143</ele>
        <time>2021-08-06T10:04:15.355Z</time>
      </trkpt>
      <trkpt lat="46.95964" lon="8.74314">
        <ele>1144</ele>
        <time>2021-08-06T10:04:16.354Z</time>
      </trkpt>
      <trkpt lat="46.95964" lon="8.74313">
        <ele>1144</ele>
        <time>2021-08-06T10:04:17.354Z</time>
      </trkpt>
      <trkpt lat="46.95965" lon="8.74312">
        <ele>1144</ele>
        <time>2021-08-06T10:04:18.355Z</time>
      </trkpt>
      <trkpt lat="46.95965" lon="8.74311">
        <ele>1145</ele>
        <time>2021-08-06T10:04:19.355Z</time>
      </trkpt>
      <trkpt lat="46.95965" lon="8.74311">
        <ele>1145</ele>
        <time>2021-08-06T10:04:20.355Z</time>
      </trkpt>
      <trkpt lat="46.95965" lon="8.74309">
        <ele>1145</ele>
        <time>2021-08-06T10:04:21.355Z</time>
      </trkpt>
      <trkpt lat="46.95964" lon="8.74308">
        <ele>1145</ele>
        <time>2021-08-06T10:04:22.355Z</time>
      </trkpt>
      <trkpt lat="46.95963" lon="8.74307">
        <ele>1145</ele>
        <time>2021-08-06T10:04:23.355Z</time>
      </trkpt>
      <trkpt lat="46.95963" lon="8.74306">
        <ele>1144</ele>
        <time>2021-08-06T10:04:24.355Z</time>
      </trkpt>
      <trkpt lat="46.95963" lon="8.74305">
        <ele>1144</ele>
        <time>2021-08-06T10:04:25.355Z</time>
      </trkpt>
      <trkpt lat="46.95963" lon="8.74303">
        <ele>1144</ele>
        <time>2021-08-06T10:04:26.354Z</time>
      </trkpt>
      <trkpt lat="46.95963" lon="8.74302">
        <ele>1144</ele>
        <time>2021-08-06T10:04:27.354Z</time>
      </trkpt>
      <trkpt lat="46.95963" lon="8.74301">
        <ele>1144</ele>
        <time>2021-08-06T10:04:28.355Z</time>
      </trkpt>
      <trkpt lat="46.95963" lon="8.74299">
        <ele>1144</ele>
        <time>2021-08-06T10:04:29.355Z</time>
      </trkpt>
      <trkpt lat="46.95964" lon="8.74298">
        <ele>1145</ele>
        <time>2021-08-06T10:04:30.355Z</time>
      </trkpt>
      <trkpt lat="46.95964" lon="8.74296">
        <ele>1145</ele>
        <time>2021-08-06T10:04:31.354Z</time>
      </trkpt>
      <trkpt lat="46.95964" lon="8.74295">
        <ele>1145</ele>
        <time>2021-08-06T10:04:32.355Z</time>
      </trkpt>
      <trkpt lat="46.95964" lon="8.74294">
        <ele>1146</ele>
        <time>2021-08-06T10:04:33.354Z</time>
      </trkpt>
      <trkpt lat="46.95964" lon="8.74292">
        <ele>1146</ele>
        <time>2021-08-06T10:04:34.355Z</time>
      </trkpt>
      <trkpt lat="46.95964" lon="8.74291">
        <ele>1146</ele>
        <time>2021-08-06T10:04:35.355Z</time>
      </trkpt>
      <trkpt lat="46.95964" lon="8.74289">
        <ele>1147</ele>
        <time>2021-08-06T10:04:36.355Z</time>
      </trkpt>
      <trkpt lat="46.95964" lon="8.74288">
        <ele>1147</ele>
        <time>2021-08-06T10:04:37.355Z</time>
      </trkpt>
      <trkpt lat="46.95964" lon="8.74287">
        <ele>1147</ele>
        <time>2021-08-06T10:04:38.354Z</time>
      </trkpt>
      <trkpt lat="46.95965" lon="8.74286">
        <ele>1147</ele>
        <time>2021-08-06T10:04:39.355Z</time>
      </trkpt>
      <trkpt lat="46.95966" lon="8.74284">
        <ele>1147</ele>
        <time>2021-08-06T10:04:40.355Z</time>
      </trkpt>
      <trkpt lat="46.95965" lon="8.74283">
        <ele>1148</ele>
        <time>2021-08-06T10:04:41.355Z</time>
      </trkpt>
      <trkpt lat="46.95966" lon="8.74281">
        <ele>1149</ele>
        <time>2021-08-06T10:04:42.355Z</time>
      </trkpt>
      <trkpt lat="46.95966" lon="8.7428">
        <ele>1149</ele>
        <time>2021-08-06T10:04:43.355Z</time>
      </trkpt>
      <trkpt lat="46.95967" lon="8.74279">
        <ele>1149</ele>
        <time>2021-08-06T10:04:44.354Z</time>
      </trkpt>
      <trkpt lat="46.95967" lon="8.74277">
        <ele>1150</ele>
        <time>2021-08-06T10:04:45.354Z</time>
      </trkpt>
      <trkpt lat="46.95968" lon="8.74275">
        <ele>1150</ele>
        <time>2021-08-06T10:04:46.355Z</time>
      </trkpt>
      <trkpt lat="46.95967" lon="8.74273">
        <ele>1151</ele>
        <time>2021-08-06T10:04:47.355Z</time>
      </trkpt>
      <trkpt lat="46.95967" lon="8.74271">
        <ele>1151</ele>
        <time>2021-08-06T10:04:48.354Z</time>
      </trkpt>
      <trkpt lat="46.95967" lon="8.7427">
        <ele>1151</ele>
        <time>2021-08-06T10:04:49.355Z</time>
      </trkpt>
      <trkpt lat="46.95966" lon="8.74268">
        <ele>1152</ele>
        <time>2021-08-06T10:04:50.354Z</time>
      </trkpt>
      <trkpt lat="46.95965" lon="8.74267">
        <ele>1152</ele>
        <time>2021-08-06T10:04:51.354Z</time>
      </trkpt>
      <trkpt lat="46.95965" lon="8.74266">
        <ele>1152</ele>
        <time>2021-08-06T10:04:52.354Z</time>
      </trkpt>
      <trkpt lat="46.95964" lon="8.74265">
        <ele>1152</ele>
        <time>2021-08-06T10:04:53.355Z</time>
      </trkpt>
      <trkpt lat="46.95963" lon="8.74263">
        <ele>1153</ele>
        <time>2021-08-06T10:04:54.355Z</time>
      </trkpt>
      <trkpt lat="46.95963" lon="8.74262">
        <ele>1153</ele>
        <time>2021-08-06T10:04:55.354Z</time>
      </trkpt>
      <trkpt lat="46.95963" lon="8.74261">
        <ele>1153</ele>
        <time>2021-08-06T10:04:56.354Z</time>
      </trkpt>
      <trkpt lat="46.95963" lon="8.7426">
        <ele>1153</ele>
        <time>2021-08-06T10:04:57.355Z</time>
      </trkpt>
      <trkpt lat="46.95962" lon="8.74258">
        <ele>1153</ele>
        <time>2021-08-06T10:04:58.355Z</time>
      </trkpt>
      <trkpt lat="46.95962" lon="8.74257">
        <ele>1154</ele>
        <time>2021-08-06T10:04:59.355Z</time>
      </trkpt>
      <trkpt lat="46.95962" lon="8.74255">
        <ele>1154</ele>
        <time>2021-08-06T10:05:00.354Z</time>
      </trkpt>
      <trkpt lat="46.95961" lon="8.74254">
        <ele>1155</ele>
        <time>2021-08-06T10:05:01.354Z</time>
      </trkpt>
      <trkpt lat="46.95961" lon="8.74253">
        <ele>1155</ele>
        <time>2021-08-06T10:05:02.355Z</time>
      </trkpt>
      <trkpt lat="46.9596" lon="8.74252">
        <ele>1155</ele>
        <time>2021-08-06T10:05:03.355Z</time>
      </trkpt>
      <trkpt lat="46.95959" lon="8.7425">
        <ele>1155</ele>
        <time>2021-08-06T10:05:04.354Z</time>
      </trkpt>
      <trkpt lat="46.95958" lon="8.74248">
        <ele>1156</ele>
        <time>2021-08-06T10:05:05.355Z</time>
      </trkpt>
      <trkpt lat="46.95958" lon="8.74247">
        <ele>1156</ele>
        <time>2021-08-06T10:05:06.355Z</time>
      </trkpt>
      <trkpt lat="46.95958" lon="8.74245">
        <ele>1156</ele>
        <time>2021-08-06T10:05:07.354Z</time>
      </trkpt>
      <trkpt lat="46.95958" lon="8.74244">
        <ele>1156</ele>
        <time>2021-08-06T10:05:08.355Z</time>
      </trkpt>
      <trkpt lat="46.95958" lon="8.74243">
        <ele>1156</ele>
        <time>2021-08-06T10:05:09.355Z</time>
      </trkpt>
      <trkpt lat="46.95958" lon="8.74242">
        <ele>1156</ele>
        <time>2021-08-06T10:05:10.355Z</time>
      </trkpt>
      <trkpt lat="46.95959" lon="8.7424">
        <ele>1156</ele>
        <time>2021-08-06T10:05:11.354Z</time>
      </trkpt>
      <trkpt lat="46.95959" lon="8.74239">
        <ele>1156</ele>
        <time>2021-08-06T10:05:12.355Z</time>
      </trkpt>
      <trkpt lat="46.95959" lon="8.74237">
        <ele>1155</ele>
        <time>2021-08-06T10:05:13.355Z</time>
      </trkpt>
      <trkpt lat="46.95959" lon="8.74236">
        <ele>1155</ele>
        <time>2021-08-06T10:05:14.355Z</time>
      </trkpt>
      <trkpt lat="46.95959" lon="8.74234">
        <ele>1155</ele>
        <time>2021-08-06T10:05:15.355Z</time>
      </trkpt>
      <trkpt lat="46.9596" lon="8.74232">
        <ele>1155</ele>
        <time>2021-08-06T10:05:16.355Z</time>
      </trkpt>
      <trkpt lat="46.95959" lon="8.7423">
        <ele>1155</ele>
        <time>2021-08-06T10:05:17.355Z</time>
      </trkpt>
      <trkpt lat="46.95959" lon="8.74229">
        <ele>1155</ele>
        <time>2021-08-06T10:05:18.355Z</time>
      </trkpt>
      <trkpt lat="46.9596" lon="8.74227">
        <ele>1155</ele>
        <time>2021-08-06T10:05:19.355Z</time>
      </trkpt>
      <trkpt lat="46.95961" lon="8.74225">
        <ele>1155</ele>
        <time>2021-08-06T10:05:20.354Z</time>
      </trkpt>
      <trkpt lat="46.95961" lon="8.74223">
        <ele>1155</ele>
        <time>2021-08-06T10:05:21.354Z</time>
      </trkpt>
      <trkpt lat="46.95961" lon="8.74221">
        <ele>1155</ele>
        <time>2021-08-06T10:05:22.354Z</time>
      </trkpt>
      <trkpt lat="46.95961" lon="8.74219">
        <ele>1155</ele>
        <time>2021-08-06T10:05:23.354Z</time>
      </trkpt>
      <trkpt lat="46.9596" lon="8.74218">
        <ele>1155</ele>
        <time>2021-08-06T10:05:24.355Z</time>
      </trkpt>
      <trkpt lat="46.9596" lon="8.74217">
        <ele>1155</ele>
        <time>2021-08-06T10:05:25.355Z</time>
      </trkpt>
      <trkpt lat="46.9596" lon="8.74215">
        <ele>1155</ele>
        <time>2021-08-06T10:05:26.355Z</time>
      </trkpt>
      <trkpt lat="46.9596" lon="8.74214">
        <ele>1155</ele>
        <time>2021-08-06T10:05:27.354Z</time>
      </trkpt>
      <trkpt lat="46.95959" lon="8.74212">
        <ele>1156</ele>
        <time>2021-08-06T10:05:28.354Z</time>
      </trkpt>
      <trkpt lat="46.95959" lon="8.74212">
        <ele>1156</ele>
        <time>2021-08-06T10:05:29.354Z</time>
      </trkpt>
      <trkpt lat="46.95958" lon="8.74211">
        <ele>1157</ele>
        <time>2021-08-06T10:05:30.355Z</time>
      </trkpt>
      <trkpt lat="46.95959" lon="8.74209">
        <ele>1158</ele>
        <time>2021-08-06T10:05:31.354Z</time>
      </trkpt>
      <trkpt lat="46.9596" lon="8.74207">
        <ele>1158</ele>
        <time>2021-08-06T10:05:32.354Z</time>
      </trkpt>
      <trkpt lat="46.9596" lon="8.74206">
        <ele>1159</ele>
        <time>2021-08-06T10:05:33.355Z</time>
      </trkpt>
      <trkpt lat="46.9596" lon="8.74204">
        <ele>1159</ele>
        <time>2021-08-06T10:05:34.355Z</time>
      </trkpt>
      <trkpt lat="46.95959" lon="8.74203">
        <ele>1160</ele>
        <time>2021-08-06T10:05:35.354Z</time>
      </trkpt>
      <trkpt lat="46.95958" lon="8.74202">
        <ele>1160</ele>
        <time>2021-08-06T10:05:36.354Z</time>
      </trkpt>
      <trkpt lat="46.95957" lon="8.74201">
        <ele>1160</ele>
        <time>2021-08-06T10:05:37.354Z</time>
      </trkpt>
      <trkpt lat="46.95956" lon="8.742">
        <ele>1160</ele>
        <time>2021-08-06T10:05:38.355Z</time>
      </trkpt>
      <trkpt lat="46.95956" lon="8.74198">
        <ele>1160</ele>
        <time>2021-08-06T10:05:39.354Z</time>
      </trkpt>
      <trkpt lat="46.95955" lon="8.74197">
        <ele>1160</ele>
        <time>2021-08-06T10:05:40.355Z</time>
      </trkpt>
      <trkpt lat="46.95955" lon="8.74196">
        <ele>1160</ele>
        <time>2021-08-06T10:05:41.354Z</time>
      </trkpt>
      <trkpt lat="46.95955" lon="8.74194">
        <ele>1161</ele>
        <time>2021-08-06T10:05:42.355Z</time>
      </trkpt>
      <trkpt lat="46.95955" lon="8.74193">
        <ele>1160</ele>
        <time>2021-08-06T10:05:43.355Z</time>
      </trkpt>
      <trkpt lat="46.95955" lon="8.74191">
        <ele>1160</ele>
        <time>2021-08-06T10:05:44.354Z</time>
      </trkpt>
      <trkpt lat="46.95954" lon="8.7419">
        <ele>1160</ele>
        <time>2021-08-06T10:05:45.354Z</time>
      </trkpt>
      <trkpt lat="46.95954" lon="8.74189">
        <ele>1160</ele>
        <time>2021-08-06T10:05:46.355Z</time>
      </trkpt>
      <trkpt lat="46.95954" lon="8.74188">
        <ele>1160</ele>
        <time>2021-08-06T10:05:47.355Z</time>
      </trkpt>
      <trkpt lat="46.95953" lon="8.74187">
        <ele>1160</ele>
        <time>2021-08-06T10:05:48.354Z</time>
      </trkpt>
      <trkpt lat="46.95952" lon="8.74186">
        <ele>1160</ele>
        <time>2021-08-06T10:05:49.354Z</time>
      </trkpt>
      <trkpt lat="46.95952" lon="8.74184">
        <ele>1159</ele>
        <time>2021-08-06T10:05:50.354Z</time>
      </trkpt>
      <trkpt lat="46.95952" lon="8.74183">
        <ele>1159</ele>
        <time>2021-08-06T10:05:51.355Z</time>
      </trkpt>
      <trkpt lat="46.95953" lon="8.74181">
        <ele>1159</ele>
        <time>2021-08-06T10:05:52.354Z</time>
      </trkpt>
      <trkpt lat="46.95953" lon="8.7418">
        <ele>1159</ele>
        <time>2021-08-06T10:05:53.354Z</time>
      </trkpt>
      <trkpt lat="46.95953" lon="8.74178">
        <ele>1159</ele>
        <time>2021-08-06T10:05:54.355Z</time>
      </trkpt>
      <trkpt lat="46.95954" lon="8.74177">
        <ele>1159</ele>
        <time>2021-08-06T10:05:55.355Z</time>
      </trkpt>
      <trkpt lat="46.95954" lon="8.74175">
        <ele>1159</ele>
        <time>2021-08-06T10:05:56.354Z</time>
      </trkpt>
      <trkpt lat="46.95954" lon="8.74174">
        <ele>1160</ele>
        <time>2021-08-06T10:05:57.354Z</time>
      </trkpt>
      <trkpt lat="46.95953" lon="8.74174">
        <ele>1160</ele>
        <time>2021-08-06T10:05:58.354Z</time>
      </trkpt>
      <trkpt lat="46.95952" lon="8.74173">
        <ele>1160</ele>
        <time>2021-08-06T10:05:59.355Z</time>
      </trkpt>
      <trkpt lat="46.95952" lon="8.74171">
        <ele>1161</ele>
        <time>2021-08-06T10:06:00.355Z</time>
      </trkpt>
      <trkpt lat="46.95953" lon="8.7417">
        <ele>1161</ele>
        <time>2021-08-06T10:06:01.354Z</time>
      </trkpt>
      <trkpt lat="46.95953" lon="8.74169">
        <ele>1162</ele>
        <time>2021-08-06T10:06:02.354Z</time>
      </trkpt>
      <trkpt lat="46.95954" lon="8.74168">
        <ele>1163</ele>
        <time>2021-08-06T10:06:03.354Z</time>
      </trkpt>
      <trkpt lat="46.95954" lon="8.74168">
        <ele>1163</ele>
        <time>2021-08-06T10:06:04.354Z</time>
      </trkpt>
      <trkpt lat="46.95953" lon="8.74168">
        <ele>1164</ele>
        <time>2021-08-06T10:06:05.355Z</time>
      </trkpt>
      <trkpt lat="46.95951" lon="8.74167">
        <ele>1165</ele>
        <time>2021-08-06T10:06:06.355Z</time>
      </trkpt>
      <trkpt lat="46.9595" lon="8.74166">
        <ele>1165</ele>
        <time>2021-08-06T10:06:07.354Z</time>
      </trkpt>
      <trkpt lat="46.95949" lon="8.74165">
        <ele>1166</ele>
        <time>2021-08-06T10:06:08.354Z</time>
      </trkpt>
      <trkpt lat="46.95949" lon="8.74165">
        <ele>1166</ele>
        <time>2021-08-06T10:06:09.354Z</time>
      </trkpt>
      <trkpt lat="46.95948" lon="8.74164">
        <ele>1166</ele>
        <time>2021-08-06T10:06:10.355Z</time>
      </trkpt>
      <trkpt lat="46.95948" lon="8.74163">
        <ele>1166</ele>
        <time>2021-08-06T10:06:11.354Z</time>
      </trkpt>
      <trkpt lat="46.95947" lon="8.74162">
        <ele>1166</ele>
        <time>2021-08-06T10:06:12.354Z</time>
      </trkpt>
      <trkpt lat="46.95947" lon="8.7416">
        <ele>1166</ele>
        <time>2021-08-06T10:06:13.354Z</time>
      </trkpt>
      <trkpt lat="46.95946" lon="8.74159">
        <ele>1166</ele>
        <time>2021-08-06T10:06:14.354Z</time>
      </trkpt>
      <trkpt lat="46.95946" lon="8.74158">
        <ele>1166</ele>
        <time>2021-08-06T10:06:15.354Z</time>
      </trkpt>
      <trkpt lat="46.95945" lon="8.74156">
        <ele>1166</ele>
        <time>2021-08-06T10:06:16.354Z</time>
      </trkpt>
      <trkpt lat="46.95945" lon="8.74154">
        <ele>1166</ele>
        <time>2021-08-06T10:06:17.354Z</time>
      </trkpt>
      <trkpt lat="46.95945" lon="8.74153">
        <ele>1166</ele>
        <time>2021-08-06T10:06:18.355Z</time>
      </trkpt>
      <trkpt lat="46.95945" lon="8.74152">
        <ele>1166</ele>
        <time>2021-08-06T10:06:19.354Z</time>
      </trkpt>
      <trkpt lat="46.95945" lon="8.7415">
        <ele>1166</ele>
        <time>2021-08-06T10:06:20.354Z</time>
      </trkpt>
      <trkpt lat="46.95945" lon="8.74148">
        <ele>1166</ele>
        <time>2021-08-06T10:06:21.354Z</time>
      </trkpt>
      <trkpt lat="46.95945" lon="8.74146">
        <ele>1166</ele>
        <time>2021-08-06T10:06:22.354Z</time>
      </trkpt>
      <trkpt lat="46.95943" lon="8.74144">
        <ele>1166</ele>
        <time>2021-08-06T10:06:23.354Z</time>
      </trkpt>
      <trkpt lat="46.95942" lon="8.74142">
        <ele>1166</ele>
        <time>2021-08-06T10:06:24.354Z</time>
      </trkpt>
      <trkpt lat="46.95941" lon="8.7414">
        <ele>1166</ele>
        <time>2021-08-06T10:06:25.354Z</time>
      </trkpt>
      <trkpt lat="46.9594" lon="8.74138">
        <ele>1166</ele>
        <time>2021-08-06T10:06:26.354Z</time>
      </trkpt>
      <trkpt lat="46.95939" lon="8.74135">
        <ele>1166</ele>
        <time>2021-08-06T10:06:27.354Z</time>
      </trkpt>
      <trkpt lat="46.9594" lon="8.74134">
        <ele>1165</ele>
        <time>2021-08-06T10:06:28.354Z</time>
      </trkpt>
      <trkpt lat="46.95939" lon="8.74132">
        <ele>1165</ele>
        <time>2021-08-06T10:06:29.354Z</time>
      </trkpt>
      <trkpt lat="46.95939" lon="8.74131">
        <ele>1165</ele>
        <time>2021-08-06T10:06:30.354Z</time>
      </trkpt>
      <trkpt lat="46.95938" lon="8.74129">
        <ele>1165</ele>
        <time>2021-08-06T10:06:31.354Z</time>
      </trkpt>
      <trkpt lat="46.95938" lon="8.74128">
        <ele>1164</ele>
        <time>2021-08-06T10:06:32.355Z</time>
      </trkpt>
      <trkpt lat="46.95937" lon="8.74126">
        <ele>1164</ele>
        <time>2021-08-06T10:06:33.354Z</time>
      </trkpt>
      <trkpt lat="46.95937" lon="8.74125">
        <ele>1164</ele>
        <time>2021-08-06T10:06:34.354Z</time>
      </trkpt>
      <trkpt lat="46.95937" lon="8.74123">
        <ele>1165</ele>
        <time>2021-08-06T10:06:35.354Z</time>
      </trkpt>
      <trkpt lat="46.95937" lon="8.74122">
        <ele>1165</ele>
        <time>2021-08-06T10:06:36.355Z</time>
      </trkpt>
      <trkpt lat="46.95937" lon="8.74121">
        <ele>1165</ele>
        <time>2021-08-06T10:06:37.354Z</time>
      </trkpt>
      <trkpt lat="46.95936" lon="8.7412">
        <ele>1165</ele>
        <time>2021-08-06T10:06:38.355Z</time>
      </trkpt>
      <trkpt lat="46.95936" lon="8.74119">
        <ele>1165</ele>
        <time>2021-08-06T10:06:39.354Z</time>
      </trkpt>
      <trkpt lat="46.95936" lon="8.74118">
        <ele>1165</ele>
        <time>2021-08-06T10:06:40.354Z</time>
      </trkpt>
      <trkpt lat="46.95936" lon="8.74116">
        <ele>1165</ele>
        <time>2021-08-06T10:06:41.354Z</time>
      </trkpt>
      <trkpt lat="46.95935" lon="8.74114">
        <ele>1165</ele>
        <time>2021-08-06T10:06:42.354Z</time>
      </trkpt>
      <trkpt lat="46.95935" lon="8.74112">
        <ele>1165</ele>
        <time>2021-08-06T10:06:43.354Z</time>
      </trkpt>
      <trkpt lat="46.95935" lon="8.74109">
        <ele>1165</ele>
        <time>2021-08-06T10:06:44.355Z</time>
      </trkpt>
      <trkpt lat="46.95935" lon="8.74107">
        <ele>1165</ele>
        <time>2021-08-06T10:06:45.354Z</time>
      </trkpt>
      <trkpt lat="46.95936" lon="8.74106">
        <ele>1165</ele>
        <time>2021-08-06T10:06:46.354Z</time>
      </trkpt>
      <trkpt lat="46.95936" lon="8.74104">
        <ele>1166</ele>
        <time>2021-08-06T10:06:47.354Z</time>
      </trkpt>
      <trkpt lat="46.95935" lon="8.74102">
        <ele>1166</ele>
        <time>2021-08-06T10:06:48.354Z</time>
      </trkpt>
      <trkpt lat="46.95935" lon="8.74101">
        <ele>1167</ele>
        <time>2021-08-06T10:06:49.355Z</time>
      </trkpt>
      <trkpt lat="46.95936" lon="8.74099">
        <ele>1167</ele>
        <time>2021-08-06T10:06:50.355Z</time>
      </trkpt>
      <trkpt lat="46.95935" lon="8.74098">
        <ele>1168</ele>
        <time>2021-08-06T10:06:51.354Z</time>
      </trkpt>
      <trkpt lat="46.95935" lon="8.74097">
        <ele>1168</ele>
        <time>2021-08-06T10:06:52.355Z</time>
      </trkpt>
      <trkpt lat="46.95935" lon="8.74095">
        <ele>1169</ele>
        <time>2021-08-06T10:06:53.355Z</time>
      </trkpt>
      <trkpt lat="46.95936" lon="8.74093">
        <ele>1169</ele>
        <time>2021-08-06T10:06:54.355Z</time>
      </trkpt>
      <trkpt lat="46.95936" lon="8.74092">
        <ele>1170</ele>
        <time>2021-08-06T10:06:55.355Z</time>
      </trkpt>
      <trkpt lat="46.95935" lon="8.7409">
        <ele>1171</ele>
        <time>2021-08-06T10:06:56.355Z</time>
      </trkpt>
      <trkpt lat="46.95934" lon="8.74088">
        <ele>1172</ele>
        <time>2021-08-06T10:06:57.355Z</time>
      </trkpt>
      <trkpt lat="46.95932" lon="8.74086">
        <ele>1172</ele>
        <time>2021-08-06T10:06:58.355Z</time>
      </trkpt>
      <trkpt lat="46.9593" lon="8.74084">
        <ele>1173</ele>
        <time>2021-08-06T10:06:59.355Z</time>
      </trkpt>
      <trkpt lat="46.9593" lon="8.74082">
        <ele>1174</ele>
        <time>2021-08-06T10:07:00.355Z</time>
      </trkpt>
      <trkpt lat="46.95929" lon="8.7408">
        <ele>1175</ele>
        <time>2021-08-06T10:07:01.355Z</time>
      </trkpt>
      <trkpt lat="46.95928" lon="8.74079">
        <ele>1175</ele>
        <time>2021-08-06T10:07:02.355Z</time>
      </trkpt>
      <trkpt lat="46.95928" lon="8.74078">
        <ele>1176</ele>
        <time>2021-08-06T10:07:03.354Z</time>
      </trkpt>
      <trkpt lat="46.95928" lon="8.74076">
        <ele>1176</ele>
        <time>2021-08-06T10:07:04.354Z</time>
      </trkpt>
      <trkpt lat="46.95928" lon="8.74075">
        <ele>1177</ele>
        <time>2021-08-06T10:07:05.355Z</time>
      </trkpt>
      <trkpt lat="46.95927" lon="8.74073">
        <ele>1177</ele>
        <time>2021-08-06T10:07:06.354Z</time>
      </trkpt>
      <trkpt lat="46.95927" lon="8.74073">
        <ele>1177</ele>
        <time>2021-08-06T10:07:07.355Z</time>
      </trkpt>
      <trkpt lat="46.95926" lon="8.74072">
        <ele>1177</ele>
        <time>2021-08-06T10:07:08.354Z</time>
      </trkpt>
      <trkpt lat="46.95926" lon="8.74072">
        <ele>1177</ele>
        <time>2021-08-06T10:07:09.354Z</time>
      </trkpt>
      <trkpt lat="46.95926" lon="8.74071">
        <ele>1177</ele>
        <time>2021-08-06T10:07:10.355Z</time>
      </trkpt>
      <trkpt lat="46.95926" lon="8.7407">
        <ele>1177</ele>
        <time>2021-08-06T10:07:11.354Z</time>
      </trkpt>
      <trkpt lat="46.95925" lon="8.7407">
        <ele>1177</ele>
        <time>2021-08-06T10:07:12.354Z</time>
      </trkpt>
      <trkpt lat="46.95924" lon="8.74069">
        <ele>1177</ele>
        <time>2021-08-06T10:07:13.354Z</time>
      </trkpt>
      <trkpt lat="46.95922" lon="8.74069">
        <ele>1176</ele>
        <time>2021-08-06T10:07:14.355Z</time>
      </trkpt>
      <trkpt lat="46.95922" lon="8.74068">
        <ele>1176</ele>
        <time>2021-08-06T10:07:15.355Z</time>
      </trkpt>
      <trkpt lat="46.95922" lon="8.74066">
        <ele>1176</ele>
        <time>2021-08-06T10:07:16.355Z</time>
      </trkpt>
      <trkpt lat="46.95922" lon="8.74065">
        <ele>1176</ele>
        <time>2021-08-06T10:07:17.355Z</time>
      </trkpt>
      <trkpt lat="46.95922" lon="8.74064">
        <ele>1175</ele>
        <time>2021-08-06T10:07:18.354Z</time>
      </trkpt>
      <trkpt lat="46.95923" lon="8.74062">
        <ele>1175</ele>
        <time>2021-08-06T10:07:19.355Z</time>
      </trkpt>
      <trkpt lat="46.95924" lon="8.7406">
        <ele>1175</ele>
        <time>2021-08-06T10:07:20.355Z</time>
      </trkpt>
      <trkpt lat="46.95924" lon="8.74059">
        <ele>1175</ele>
        <time>2021-08-06T10:07:21.355Z</time>
      </trkpt>
      <trkpt lat="46.95924" lon="8.74058">
        <ele>1175</ele>
        <time>2021-08-06T10:07:22.355Z</time>
      </trkpt>
      <trkpt lat="46.95925" lon="8.74056">
        <ele>1175</ele>
        <time>2021-08-06T10:07:23.355Z</time>
      </trkpt>
      <trkpt lat="46.95925" lon="8.74054">
        <ele>1175</ele>
        <time>2021-08-06T10:07:24.354Z</time>
      </trkpt>
      <trkpt lat="46.95925" lon="8.74053">
        <ele>1175</ele>
        <time>2021-08-06T10:07:25.355Z</time>
      </trkpt>
      <trkpt lat="46.95924" lon="8.74052">
        <ele>1174</ele>
        <time>2021-08-06T10:07:26.354Z</time>
      </trkpt>
      <trkpt lat="46.95924" lon="8.74051">
        <ele>1174</ele>
        <time>2021-08-06T10:07:27.354Z</time>
      </trkpt>
      <trkpt lat="46.95922" lon="8.74051">
        <ele>1173</ele>
        <time>2021-08-06T10:07:28.354Z</time>
      </trkpt>
      <trkpt lat="46.9592" lon="8.74051">
        <ele>1173</ele>
        <time>2021-08-06T10:07:29.354Z</time>
      </trkpt>
      <trkpt lat="46.95919" lon="8.74051">
        <ele>1172</ele>
        <time>2021-08-06T10:07:30.355Z</time>
      </trkpt>
      <trkpt lat="46.95918" lon="8.7405">
        <ele>1171</ele>
        <time>2021-08-06T10:07:31.354Z</time>
      </trkpt>
      <trkpt lat="46.95917" lon="8.7405">
        <ele>1171</ele>
        <time>2021-08-06T10:07:32.355Z</time>
      </trkpt>
      <trkpt lat="46.95917" lon="8.74048">
        <ele>1170</ele>
        <time>2021-08-06T10:07:33.354Z</time>
      </trkpt>
      <trkpt lat="46.95917" lon="8.74047">
        <ele>1169</ele>
        <time>2021-08-06T10:07:34.354Z</time>
      </trkpt>
      <trkpt lat="46.95916" lon="8.74045">
        <ele>1168</ele>
        <time>2021-08-06T10:07:35.355Z</time>
      </trkpt>
      <trkpt lat="46.95915" lon="8.74044">
        <ele>1167</ele>
        <time>2021-08-06T10:07:36.355Z</time>
      </trkpt>
      <trkpt lat="46.95915" lon="8.74043">
        <ele>1167</ele>
        <time>2021-08-06T10:07:37.355Z</time>
      </trkpt>
      <trkpt lat="46.95916" lon="8.74042">
        <ele>1167</ele>
        <time>2021-08-06T10:07:38.354Z</time>
      </trkpt>
      <trkpt lat="46.95916" lon="8.7404">
        <ele>1166</ele>
        <time>2021-08-06T10:07:39.355Z</time>
      </trkpt>
      <trkpt lat="46.95916" lon="8.74038">
        <ele>1167</ele>
        <time>2021-08-06T10:07:40.354Z</time>
      </trkpt>
      <trkpt lat="46.95916" lon="8.74037">
        <ele>1167</ele>
        <time>2021-08-06T10:07:41.354Z</time>
      </trkpt>
      <trkpt lat="46.95916" lon="8.74035">
        <ele>1167</ele>
        <time>2021-08-06T10:07:42.354Z</time>
      </trkpt>
      <trkpt lat="46.95915" lon="8.74034">
        <ele>1167</ele>
        <time>2021-08-06T10:07:43.354Z</time>
      </trkpt>
      <trkpt lat="46.95914" lon="8.74033">
        <ele>1167</ele>
        <time>2021-08-06T10:07:44.355Z</time>
      </trkpt>
      <trkpt lat="46.95913" lon="8.74032">
        <ele>1168</ele>
        <time>2021-08-06T10:07:45.355Z</time>
      </trkpt>
      <trkpt lat="46.95913" lon="8.7403">
        <ele>1168</ele>
        <time>2021-08-06T10:07:46.355Z</time>
      </trkpt>
      <trkpt lat="46.95912" lon="8.74029">
        <ele>1169</ele>
        <time>2021-08-06T10:07:47.355Z</time>
      </trkpt>
      <trkpt lat="46.95911" lon="8.74028">
        <ele>1169</ele>
        <time>2021-08-06T10:07:48.355Z</time>
      </trkpt>
      <trkpt lat="46.9591" lon="8.74027">
        <ele>1169</ele>
        <time>2021-08-06T10:07:49.355Z</time>
      </trkpt>
      <trkpt lat="46.95909" lon="8.74026">
        <ele>1170</ele>
        <time>2021-08-06T10:07:50.355Z</time>
      </trkpt>
      <trkpt lat="46.95908" lon="8.74025">
        <ele>1170</ele>
        <time>2021-08-06T10:07:51.355Z</time>
      </trkpt>
      <trkpt lat="46.95908" lon="8.74024">
        <ele>1171</ele>
        <time>2021-08-06T10:07:52.355Z</time>
      </trkpt>
      <trkpt lat="46.95907" lon="8.74022">
        <ele>1172</ele>
        <time>2021-08-06T10:07:53.355Z</time>
      </trkpt>
      <trkpt lat="46.95906" lon="8.74022">
        <ele>1172</ele>
        <time>2021-08-06T10:07:54.354Z</time>
      </trkpt>
      <trkpt lat="46.95905" lon="8.74021">
        <ele>1172</ele>
        <time>2021-08-06T10:07:55.355Z</time>
      </trkpt>
      <trkpt lat="46.95904" lon="8.7402">
        <ele>1173</ele>
        <time>2021-08-06T10:07:56.355Z</time>
      </trkpt>
      <trkpt lat="46.95903" lon="8.74019">
        <ele>1173</ele>
        <time>2021-08-06T10:07:57.355Z</time>
      </trkpt>
      <trkpt lat="46.95902" lon="8.74019">
        <ele>1173</ele>
        <time>2021-08-06T10:07:58.355Z</time>
      </trkpt>
      <trkpt lat="46.95902" lon="8.74017">
        <ele>1174</ele>
        <time>2021-08-06T10:07:59.354Z</time>
      </trkpt>
      <trkpt lat="46.95901" lon="8.74016">
        <ele>1174</ele>
        <time>2021-08-06T10:08:00.355Z</time>
      </trkpt>
      <trkpt lat="46.959" lon="8.74016">
        <ele>1174</ele>
        <time>2021-08-06T10:08:01.354Z</time>
      </trkpt>
      <trkpt lat="46.95897" lon="8.74015">
        <ele>1174</ele>
        <time>2021-08-06T10:08:02.355Z</time>
      </trkpt>
      <trkpt lat="46.95895" lon="8.74015">
        <ele>1174</ele>
        <time>2021-08-06T10:08:03.355Z</time>
      </trkpt>
      <trkpt lat="46.95894" lon="8.74014">
        <ele>1174</ele>
        <time>2021-08-06T10:08:04.355Z</time>
      </trkpt>
      <trkpt lat="46.95893" lon="8.74013">
        <ele>1173</ele>
        <time>2021-08-06T10:08:05.355Z</time>
      </trkpt>
      <trkpt lat="46.95893" lon="8.74012">
        <ele>1173</ele>
        <time>2021-08-06T10:08:06.354Z</time>
      </trkpt>
      <trkpt lat="46.95894" lon="8.7401">
        <ele>1173</ele>
        <time>2021-08-06T10:08:07.355Z</time>
      </trkpt>
      <trkpt lat="46.95893" lon="8.74009">
        <ele>1174</ele>
        <time>2021-08-06T10:08:08.355Z</time>
      </trkpt>
      <trkpt lat="46.95892" lon="8.74008">
        <ele>1174</ele>
        <time>2021-08-06T10:08:09.354Z</time>
      </trkpt>
      <trkpt lat="46.95891" lon="8.74008">
        <ele>1174</ele>
        <time>2021-08-06T10:08:10.355Z</time>
      </trkpt>
      <trkpt lat="46.95891" lon="8.74008">
        <ele>1174</ele>
        <time>2021-08-06T10:08:11.354Z</time>
      </trkpt>
      <trkpt lat="46.9589" lon="8.74007">
        <ele>1174</ele>
        <time>2021-08-06T10:08:12.355Z</time>
      </trkpt>
      <trkpt lat="46.9589" lon="8.74007">
        <ele>1174</ele>
        <time>2021-08-06T10:08:13.355Z</time>
      </trkpt>
      <trkpt lat="46.95888" lon="8.74007">
        <ele>1174</ele>
        <time>2021-08-06T10:08:14.355Z</time>
      </trkpt>
      <trkpt lat="46.95887" lon="8.74006">
        <ele>1174</ele>
        <time>2021-08-06T10:08:15.355Z</time>
      </trkpt>
      <trkpt lat="46.95886" lon="8.74006">
        <ele>1174</ele>
        <time>2021-08-06T10:08:16.355Z</time>
      </trkpt>
      <trkpt lat="46.95886" lon="8.74005">
        <ele>1175</ele>
        <time>2021-08-06T10:08:17.354Z</time>
      </trkpt>
      <trkpt lat="46.95886" lon="8.74004">
        <ele>1175</ele>
        <time>2021-08-06T10:08:18.354Z</time>
      </trkpt>
      <trkpt lat="46.95884" lon="8.74003">
        <ele>1176</ele>
        <time>2021-08-06T10:08:19.355Z</time>
      </trkpt>
      <trkpt lat="46.95883" lon="8.74002">
        <ele>1176</ele>
        <time>2021-08-06T10:08:20.355Z</time>
      </trkpt>
      <trkpt lat="46.95882" lon="8.74001">
        <ele>1177</ele>
        <time>2021-08-06T10:08:21.354Z</time>
      </trkpt>
      <trkpt lat="46.95881" lon="8.74001">
        <ele>1177</ele>
        <time>2021-08-06T10:08:22.354Z</time>
      </trkpt>
      <trkpt lat="46.9588" lon="8.74001">
        <ele>1177</ele>
        <time>2021-08-06T10:08:23.355Z</time>
      </trkpt>
      <trkpt lat="46.95878" lon="8.74001">
        <ele>1176</ele>
        <time>2021-08-06T10:08:24.354Z</time>
      </trkpt>
      <trkpt lat="46.95877" lon="8.74">
        <ele>1176</ele>
        <time>2021-08-06T10:08:25.355Z</time>
      </trkpt>
      <trkpt lat="46.95877" lon="8.73999">
        <ele>1175</ele>
        <time>2021-08-06T10:08:26.354Z</time>
      </trkpt>
      <trkpt lat="46.95876" lon="8.73998">
        <ele>1175</ele>
        <time>2021-08-06T10:08:27.355Z</time>
      </trkpt>
      <trkpt lat="46.95876" lon="8.73997">
        <ele>1175</ele>
        <time>2021-08-06T10:08:28.355Z</time>
      </trkpt>
      <trkpt lat="46.95875" lon="8.73996">
        <ele>1175</ele>
        <time>2021-08-06T10:08:29.355Z</time>
      </trkpt>
      <trkpt lat="46.95874" lon="8.73996">
        <ele>1175</ele>
        <time>2021-08-06T10:08:30.355Z</time>
      </trkpt>
      <trkpt lat="46.95874" lon="8.73995">
        <ele>1175</ele>
        <time>2021-08-06T10:08:31.355Z</time>
      </trkpt>
      <trkpt lat="46.95873" lon="8.73994">
        <ele>1175</ele>
        <time>2021-08-06T10:08:32.355Z</time>
      </trkpt>
      <trkpt lat="46.95871" lon="8.73994">
        <ele>1175</ele>
        <time>2021-08-06T10:08:33.355Z</time>
      </trkpt>
      <trkpt lat="46.9587" lon="8.73994">
        <ele>1175</ele>
        <time>2021-08-06T10:08:34.354Z</time>
      </trkpt>
      <trkpt lat="46.95869" lon="8.73993">
        <ele>1175</ele>
        <time>2021-08-06T10:08:35.354Z</time>
      </trkpt>
      <trkpt lat="46.95868" lon="8.73992">
        <ele>1175</ele>
        <time>2021-08-06T10:08:36.354Z</time>
      </trkpt>
      <trkpt lat="46.95868" lon="8.73992">
        <ele>1175</ele>
        <time>2021-08-06T10:08:37.354Z</time>
      </trkpt>
      <trkpt lat="46.95867" lon="8.73991">
        <ele>1175</ele>
        <time>2021-08-06T10:08:38.355Z</time>
      </trkpt>
      <trkpt lat="46.95867" lon="8.73991">
        <ele>1175</ele>
        <time>2021-08-06T10:08:39.355Z</time>
      </trkpt>
      <trkpt lat="46.95865" lon="8.7399">
        <ele>1175</ele>
        <time>2021-08-06T10:08:40.355Z</time>
      </trkpt>
      <trkpt lat="46.95864" lon="8.7399">
        <ele>1175</ele>
        <time>2021-08-06T10:08:41.355Z</time>
      </trkpt>
      <trkpt lat="46.95863" lon="8.73989">
        <ele>1175</ele>
        <time>2021-08-06T10:08:42.354Z</time>
      </trkpt>
      <trkpt lat="46.95862" lon="8.73989">
        <ele>1175</ele>
        <time>2021-08-06T10:08:43.355Z</time>
      </trkpt>
      <trkpt lat="46.95861" lon="8.73988">
        <ele>1175</ele>
        <time>2021-08-06T10:08:44.355Z</time>
      </trkpt>
      <trkpt lat="46.95861" lon="8.73988">
        <ele>1175</ele>
        <time>2021-08-06T10:08:45.354Z</time>
      </trkpt>
      <trkpt lat="46.95862" lon="8.73987">
        <ele>1175</ele>
        <time>2021-08-06T10:08:46.354Z</time>
      </trkpt>
      <trkpt lat="46.95862" lon="8.73985">
        <ele>1175</ele>
        <time>2021-08-06T10:08:47.354Z</time>
      </trkpt>
      <trkpt lat="46.95861" lon="8.73984">
        <ele>1175</ele>
        <time>2021-08-06T10:08:48.354Z</time>
      </trkpt>
      <trkpt lat="46.95861" lon="8.73983">
        <ele>1175</ele>
        <time>2021-08-06T10:08:49.354Z</time>
      </trkpt>
      <trkpt lat="46.95861" lon="8.73982">
        <ele>1174</ele>
        <time>2021-08-06T10:08:50.354Z</time>
      </trkpt>
      <trkpt lat="46.95861" lon="8.7398">
        <ele>1174</ele>
        <time>2021-08-06T10:08:51.354Z</time>
      </trkpt>
      <trkpt lat="46.95861" lon="8.73979">
        <ele>1174</ele>
        <time>2021-08-06T10:08:52.354Z</time>
      </trkpt>
      <trkpt lat="46.95861" lon="8.73978">
        <ele>1174</ele>
        <time>2021-08-06T10:08:53.354Z</time>
      </trkpt>
      <trkpt lat="46.95861" lon="8.73977">
        <ele>1174</ele>
        <time>2021-08-06T10:08:54.354Z</time>
      </trkpt>
      <trkpt lat="46.9586" lon="8.73976">
        <ele>1174</ele>
        <time>2021-08-06T10:08:55.355Z</time>
      </trkpt>
      <trkpt lat="46.95859" lon="8.73976">
        <ele>1174</ele>
        <time>2021-08-06T10:08:56.355Z</time>
      </trkpt>
      <trkpt lat="46.95859" lon="8.73975">
        <ele>1175</ele>
        <time>2021-08-06T10:08:57.354Z</time>
      </trkpt>
      <trkpt lat="46.95858" lon="8.73974">
        <ele>1175</ele>
        <time>2021-08-06T10:08:58.355Z</time>
      </trkpt>
      <trkpt lat="46.95858" lon="8.73973">
        <ele>1176</ele>
        <time>2021-08-06T10:08:59.354Z</time>
      </trkpt>
      <trkpt lat="46.95858" lon="8.73972">
        <ele>1176</ele>
        <time>2021-08-06T10:09:00.355Z</time>
      </trkpt>
      <trkpt lat="46.95858" lon="8.73971">
        <ele>1177</ele>
        <time>2021-08-06T10:09:01.355Z</time>
      </trkpt>
      <trkpt lat="46.95858" lon="8.73971">
        <ele>1177</ele>
        <time>2021-08-06T10:09:02.354Z</time>
      </trkpt>
      <trkpt lat="46.95858" lon="8.7397">
        <ele>1178</ele>
        <time>2021-08-06T10:09:03.355Z</time>
      </trkpt>
      <trkpt lat="46.95858" lon="8.73969">
        <ele>1178</ele>
        <time>2021-08-06T10:09:04.355Z</time>
      </trkpt>
      <trkpt lat="46.95858" lon="8.73968">
        <ele>1179</ele>
        <time>2021-08-06T10:09:05.354Z</time>
      </trkpt>
      <trkpt lat="46.95857" lon="8.73967">
        <ele>1180</ele>
        <time>2021-08-06T10:09:06.354Z</time>
      </trkpt>
      <trkpt lat="46.95857" lon="8.73966">
        <ele>1180</ele>
        <time>2021-08-06T10:09:07.355Z</time>
      </trkpt>
      <trkpt lat="46.95857" lon="8.73965">
        <ele>1181</ele>
        <time>2021-08-06T10:09:08.354Z</time>
      </trkpt>
      <trkpt lat="46.95856" lon="8.73964">
        <ele>1181</ele>
        <time>2021-08-06T10:09:09.354Z</time>
      </trkpt>
      <trkpt lat="46.95854" lon="8.73964">
        <ele>1182</ele>
        <time>2021-08-06T10:09:10.354Z</time>
      </trkpt>
      <trkpt lat="46.95853" lon="8.73963">
        <ele>1182</ele>
        <time>2021-08-06T10:09:11.354Z</time>
      </trkpt>
      <trkpt lat="46.95854" lon="8.73962">
        <ele>1182</ele>
        <time>2021-08-06T10:09:12.354Z</time>
      </trkpt>
      <trkpt lat="46.95854" lon="8.73961">
        <ele>1183</ele>
        <time>2021-08-06T10:09:13.354Z</time>
      </trkpt>
      <trkpt lat="46.95854" lon="8.7396">
        <ele>1183</ele>
        <time>2021-08-06T10:09:14.354Z</time>
      </trkpt>
      <trkpt lat="46.95855" lon="8.73959">
        <ele>1184</ele>
        <time>2021-08-06T10:09:15.354Z</time>
      </trkpt>
      <trkpt lat="46.95854" lon="8.73958">
        <ele>1185</ele>
        <time>2021-08-06T10:09:16.354Z</time>
      </trkpt>
      <trkpt lat="46.95854" lon="8.73958">
        <ele>1185</ele>
        <time>2021-08-06T10:09:17.355Z</time>
      </trkpt>
      <trkpt lat="46.95853" lon="8.73957">
        <ele>1185</ele>
        <time>2021-08-06T10:09:18.355Z</time>
      </trkpt>
      <trkpt lat="46.95852" lon="8.73956">
        <ele>1185</ele>
        <time>2021-08-06T10:09:19.354Z</time>
      </trkpt>
      <trkpt lat="46.95852" lon="8.73955">
        <ele>1186</ele>
        <time>2021-08-06T10:09:20.355Z</time>
      </trkpt>
      <trkpt lat="46.95852" lon="8.73954">
        <ele>1186</ele>
        <time>2021-08-06T10:09:21.355Z</time>
      </trkpt>
      <trkpt lat="46.95851" lon="8.73953">
        <ele>1186</ele>
        <time>2021-08-06T10:09:22.355Z</time>
      </trkpt>
      <trkpt lat="46.9585" lon="8.73952">
        <ele>1186</ele>
        <time>2021-08-06T10:09:23.354Z</time>
      </trkpt>
      <trkpt lat="46.95849" lon="8.73952">
        <ele>1186</ele>
        <time>2021-08-06T10:09:24.355Z</time>
      </trkpt>
      <trkpt lat="46.95848" lon="8.73951">
        <ele>1185</ele>
        <time>2021-08-06T10:09:25.354Z</time>
      </trkpt>
      <trkpt lat="46.95848" lon="8.7395">
        <ele>1185</ele>
        <time>2021-08-06T10:09:26.355Z</time>
      </trkpt>
      <trkpt lat="46.95848" lon="8.73949">
        <ele>1185</ele>
        <time>2021-08-06T10:09:27.354Z</time>
      </trkpt>
      <trkpt lat="46.95848" lon="8.73948">
        <ele>1185</ele>
        <time>2021-08-06T10:09:28.354Z</time>
      </trkpt>
      <trkpt lat="46.95848" lon="8.73947">
        <ele>1185</ele>
        <time>2021-08-06T10:09:29.355Z</time>
      </trkpt>
      <trkpt lat="46.95848" lon="8.73946">
        <ele>1185</ele>
        <time>2021-08-06T10:09:30.355Z</time>
      </trkpt>
      <trkpt lat="46.95847" lon="8.73945">
        <ele>1185</ele>
        <time>2021-08-06T10:09:31.354Z</time>
      </trkpt>
      <trkpt lat="46.95847" lon="8.73944">
        <ele>1186</ele>
        <time>2021-08-06T10:09:32.355Z</time>
      </trkpt>
      <trkpt lat="46.95846" lon="8.73944">
        <ele>1186</ele>
        <time>2021-08-06T10:09:33.354Z</time>
      </trkpt>
      <trkpt lat="46.95846" lon="8.73943">
        <ele>1186</ele>
        <time>2021-08-06T10:09:34.355Z</time>
      </trkpt>
      <trkpt lat="46.95846" lon="8.73941">
        <ele>1187</ele>
        <time>2021-08-06T10:09:35.354Z</time>
      </trkpt>
      <trkpt lat="46.95846" lon="8.7394">
        <ele>1187</ele>
        <time>2021-08-06T10:09:36.355Z</time>
      </trkpt>
      <trkpt lat="46.95846" lon="8.73939">
        <ele>1188</ele>
        <time>2021-08-06T10:09:37.354Z</time>
      </trkpt>
      <trkpt lat="46.95846" lon="8.73939">
        <ele>1189</ele>
        <time>2021-08-06T10:09:38.355Z</time>
      </trkpt>
      <trkpt lat="46.95846" lon="8.73937">
        <ele>1190</ele>
        <time>2021-08-06T10:09:39.354Z</time>
      </trkpt>
      <trkpt lat="46.95845" lon="8.73937">
        <ele>1191</ele>
        <time>2021-08-06T10:09:40.355Z</time>
      </trkpt>
      <trkpt lat="46.95844" lon="8.73936">
        <ele>1192</ele>
        <time>2021-08-06T10:09:41.355Z</time>
      </trkpt>
      <trkpt lat="46.95844" lon="8.73935">
        <ele>1192</ele>
        <time>2021-08-06T10:09:42.354Z</time>
      </trkpt>
      <trkpt lat="46.95843" lon="8.73933">
        <ele>1192</ele>
        <time>2021-08-06T10:09:43.355Z</time>
      </trkpt>
      <trkpt lat="46.95843" lon="8.73932">
        <ele>1192</ele>
        <time>2021-08-06T10:09:44.355Z</time>
      </trkpt>
      <trkpt lat="46.95842" lon="8.73931">
        <ele>1192</ele>
        <time>2021-08-06T10:09:45.355Z</time>
      </trkpt>
      <trkpt lat="46.95841" lon="8.7393">
        <ele>1193</ele>
        <time>2021-08-06T10:09:46.354Z</time>
      </trkpt>
      <trkpt lat="46.95841" lon="8.73929">
        <ele>1193</ele>
        <time>2021-08-06T10:09:47.355Z</time>
      </trkpt>
      <trkpt lat="46.9584" lon="8.73928">
        <ele>1193</ele>
        <time>2021-08-06T10:09:48.355Z</time>
      </trkpt>
      <trkpt lat="46.9584" lon="8.73927">
        <ele>1193</ele>
        <time>2021-08-06T10:09:49.354Z</time>
      </trkpt>
      <trkpt lat="46.9584" lon="8.73926">
        <ele>1193</ele>
        <time>2021-08-06T10:09:50.355Z</time>
      </trkpt>
      <trkpt lat="46.9584" lon="8.73925">
        <ele>1193</ele>
        <time>2021-08-06T10:09:51.354Z</time>
      </trkpt>
      <trkpt lat="46.9584" lon="8.73924">
        <ele>1193</ele>
        <time>2021-08-06T10:09:52.355Z</time>
      </trkpt>
      <trkpt lat="46.95839" lon="8.73923">
        <ele>1192</ele>
        <time>2021-08-06T10:09:53.355Z</time>
      </trkpt>
      <trkpt lat="46.95839" lon="8.73922">
        <ele>1192</ele>
        <time>2021-08-06T10:09:54.355Z</time>
      </trkpt>
      <trkpt lat="46.95838" lon="8.73922">
        <ele>1192</ele>
        <time>2021-08-06T10:09:55.355Z</time>
      </trkpt>
      <trkpt lat="46.95837" lon="8.73922">
        <ele>1192</ele>
        <time>2021-08-06T10:09:56.354Z</time>
      </trkpt>
      <trkpt lat="46.95836" lon="8.73921">
        <ele>1192</ele>
        <time>2021-08-06T10:09:57.355Z</time>
      </trkpt>
      <trkpt lat="46.95834" lon="8.73921">
        <ele>1192</ele>
        <time>2021-08-06T10:09:58.355Z</time>
      </trkpt>
      <trkpt lat="46.95834" lon="8.7392">
        <ele>1191</ele>
        <time>2021-08-06T10:09:59.355Z</time>
      </trkpt>
      <trkpt lat="46.95834" lon="8.73919">
        <ele>1191</ele>
        <time>2021-08-06T10:10:00.354Z</time>
      </trkpt>
      <trkpt lat="46.95834" lon="8.73918">
        <ele>1191</ele>
        <time>2021-08-06T10:10:01.355Z</time>
      </trkpt>
      <trkpt lat="46.95833" lon="8.73917">
        <ele>1191</ele>
        <time>2021-08-06T10:10:02.354Z</time>
      </trkpt>
      <trkpt lat="46.95833" lon="8.73915">
        <ele>1191</ele>
        <time>2021-08-06T10:10:03.355Z</time>
      </trkpt>
      <trkpt lat="46.95832" lon="8.73914">
        <ele>1191</ele>
        <time>2021-08-06T10:10:04.354Z</time>
      </trkpt>
      <trkpt lat="46.95833" lon="8.73913">
        <ele>1191</ele>
        <time>2021-08-06T10:10:05.355Z</time>
      </trkpt>
      <trkpt lat="46.95833" lon="8.73912">
        <ele>1191</ele>
        <time>2021-08-06T10:10:06.355Z</time>
      </trkpt>
      <trkpt lat="46.95833" lon="8.73911">
        <ele>1191</ele>
        <time>2021-08-06T10:10:07.354Z</time>
      </trkpt>
      <trkpt lat="46.95833" lon="8.73909">
        <ele>1191</ele>
        <time>2021-08-06T10:10:08.355Z</time>
      </trkpt>
      <trkpt lat="46.95833" lon="8.73908">
        <ele>1191</ele>
        <time>2021-08-06T10:10:09.354Z</time>
      </trkpt>
      <trkpt lat="46.95832" lon="8.73907">
        <ele>1191</ele>
        <time>2021-08-06T10:10:10.355Z</time>
      </trkpt>
      <trkpt lat="46.95831" lon="8.73907">
        <ele>1191</ele>
        <time>2021-08-06T10:10:11.355Z</time>
      </trkpt>
      <trkpt lat="46.9583" lon="8.73907">
        <ele>1191</ele>
        <time>2021-08-06T10:10:12.354Z</time>
      </trkpt>
      <trkpt lat="46.95829" lon="8.73907">
        <ele>1190</ele>
        <time>2021-08-06T10:10:13.354Z</time>
      </trkpt>
      <trkpt lat="46.95828" lon="8.73907">
        <ele>1190</ele>
        <time>2021-08-06T10:10:14.355Z</time>
      </trkpt>
      <trkpt lat="46.95828" lon="8.73907">
        <ele>1190</ele>
        <time>2021-08-06T10:10:15.355Z</time>
      </trkpt>
      <trkpt lat="46.95828" lon="8.73906">
        <ele>1189</ele>
        <time>2021-08-06T10:10:16.355Z</time>
      </trkpt>
      <trkpt lat="46.95828" lon="8.73905">
        <ele>1189</ele>
        <time>2021-08-06T10:10:17.355Z</time>
      </trkpt>
      <trkpt lat="46.95829" lon="8.73904">
        <ele>1189</ele>
        <time>2021-08-06T10:10:18.354Z</time>
      </trkpt>
      <trkpt lat="46.9583" lon="8.73902">
        <ele>1189</ele>
        <time>2021-08-06T10:10:19.354Z</time>
      </trkpt>
      <trkpt lat="46.9583" lon="8.739">
        <ele>1189</ele>
        <time>2021-08-06T10:10:20.354Z</time>
      </trkpt>
      <trkpt lat="46.95829" lon="8.73898">
        <ele>1189</ele>
        <time>2021-08-06T10:10:21.354Z</time>
      </trkpt>
      <trkpt lat="46.95828" lon="8.73897">
        <ele>1189</ele>
        <time>2021-08-06T10:10:22.354Z</time>
      </trkpt>
      <trkpt lat="46.95827" lon="8.73895">
        <ele>1189</ele>
        <time>2021-08-06T10:10:23.354Z</time>
      </trkpt>
      <trkpt lat="46.95826" lon="8.73893">
        <ele>1189</ele>
        <time>2021-08-06T10:10:24.355Z</time>
      </trkpt>
      <trkpt lat="46.95824" lon="8.73892">
        <ele>1189</ele>
        <time>2021-08-06T10:10:25.354Z</time>
      </trkpt>
      <trkpt lat="46.95823" lon="8.7389">
        <ele>1189</ele>
        <time>2021-08-06T10:10:26.355Z</time>
      </trkpt>
      <trkpt lat="46.95822" lon="8.73889">
        <ele>1189</ele>
        <time>2021-08-06T10:10:27.355Z</time>
      </trkpt>
      <trkpt lat="46.95821" lon="8.73887">
        <ele>1189</ele>
        <time>2021-08-06T10:10:28.355Z</time>
      </trkpt>
      <trkpt lat="46.95821" lon="8.73886">
        <ele>1189</ele>
        <time>2021-08-06T10:10:29.355Z</time>
      </trkpt>
      <trkpt lat="46.9582" lon="8.73884">
        <ele>1189</ele>
        <time>2021-08-06T10:10:30.355Z</time>
      </trkpt>
      <trkpt lat="46.9582" lon="8.73883">
        <ele>1190</ele>
        <time>2021-08-06T10:10:31.355Z</time>
      </trkpt>
      <trkpt lat="46.9582" lon="8.73881">
        <ele>1190</ele>
        <time>2021-08-06T10:10:32.355Z</time>
      </trkpt>
      <trkpt lat="46.9582" lon="8.73879">
        <ele>1190</ele>
        <time>2021-08-06T10:10:33.355Z</time>
      </trkpt>
      <trkpt lat="46.9582" lon="8.73877">
        <ele>1191</ele>
        <time>2021-08-06T10:10:34.355Z</time>
      </trkpt>
      <trkpt lat="46.95819" lon="8.73876">
        <ele>1191</ele>
        <time>2021-08-06T10:10:35.354Z</time>
      </trkpt>
      <trkpt lat="46.95818" lon="8.73874">
        <ele>1192</ele>
        <time>2021-08-06T10:10:36.355Z</time>
      </trkpt>
      <trkpt lat="46.95818" lon="8.73872">
        <ele>1192</ele>
        <time>2021-08-06T10:10:37.355Z</time>
      </trkpt>
      <trkpt lat="46.95817" lon="8.73871">
        <ele>1193</ele>
        <time>2021-08-06T10:10:38.355Z</time>
      </trkpt>
      <trkpt lat="46.95816" lon="8.73869">
        <ele>1193</ele>
        <time>2021-08-06T10:10:39.354Z</time>
      </trkpt>
      <trkpt lat="46.95815" lon="8.73867">
        <ele>1194</ele>
        <time>2021-08-06T10:10:40.354Z</time>
      </trkpt>
      <trkpt lat="46.95814" lon="8.73866">
        <ele>1194</ele>
        <time>2021-08-06T10:10:41.355Z</time>
      </trkpt>
      <trkpt lat="46.95814" lon="8.73865">
        <ele>1194</ele>
        <time>2021-08-06T10:10:42.354Z</time>
      </trkpt>
      <trkpt lat="46.95814" lon="8.73864">
        <ele>1195</ele>
        <time>2021-08-06T10:10:43.355Z</time>
      </trkpt>
      <trkpt lat="46.95813" lon="8.73863">
        <ele>1195</ele>
        <time>2021-08-06T10:10:44.354Z</time>
      </trkpt>
      <trkpt lat="46.95814" lon="8.73862">
        <ele>1195</ele>
        <time>2021-08-06T10:10:45.355Z</time>
      </trkpt>
      <trkpt lat="46.95814" lon="8.7386">
        <ele>1195</ele>
        <time>2021-08-06T10:10:46.354Z</time>
      </trkpt>
      <trkpt lat="46.95814" lon="8.73858">
        <ele>1195</ele>
        <time>2021-08-06T10:10:47.355Z</time>
      </trkpt>
      <trkpt lat="46.95813" lon="8.73857">
        <ele>1195</ele>
        <time>2021-08-06T10:10:48.355Z</time>
      </trkpt>
      <trkpt lat="46.95813" lon="8.73856">
        <ele>1195</ele>
        <time>2021-08-06T10:10:49.354Z</time>
      </trkpt>
      <trkpt lat="46.95811" lon="8.73855">
        <ele>1196</ele>
        <time>2021-08-06T10:10:50.355Z</time>
      </trkpt>
      <trkpt lat="46.9581" lon="8.73855">
        <ele>1196</ele>
        <time>2021-08-06T10:10:51.354Z</time>
      </trkpt>
      <trkpt lat="46.95808" lon="8.73853">
        <ele>1197</ele>
        <time>2021-08-06T10:10:52.354Z</time>
      </trkpt>
      <trkpt lat="46.95807" lon="8.73852">
        <ele>1197</ele>
        <time>2021-08-06T10:10:53.355Z</time>
      </trkpt>
      <trkpt lat="46.95807" lon="8.7385">
        <ele>1198</ele>
        <time>2021-08-06T10:10:54.354Z</time>
      </trkpt>
      <trkpt lat="46.95806" lon="8.73849">
        <ele>1198</ele>
        <time>2021-08-06T10:10:55.355Z</time>
      </trkpt>
      <trkpt lat="46.95805" lon="8.73847">
        <ele>1199</ele>
        <time>2021-08-06T10:10:56.354Z</time>
      </trkpt>
      <trkpt lat="46.95805" lon="8.73846">
        <ele>1199</ele>
        <time>2021-08-06T10:10:57.355Z</time>
      </trkpt>
      <trkpt lat="46.95804" lon="8.73844">
        <ele>1200</ele>
        <time>2021-08-06T10:10:58.355Z</time>
      </trkpt>
      <trkpt lat="46.95803" lon="8.73843">
        <ele>1200</ele>
        <time>2021-08-06T10:10:59.355Z</time>
      </trkpt>
      <trkpt lat="46.95802" lon="8.73843">
        <ele>1201</ele>
        <time>2021-08-06T10:11:00.355Z</time>
      </trkpt>
      <trkpt lat="46.958" lon="8.73842">
        <ele>1201</ele>
        <time>2021-08-06T10:11:01.355Z</time>
      </trkpt>
      <trkpt lat="46.95799" lon="8.73841">
        <ele>1201</ele>
        <time>2021-08-06T10:11:02.354Z</time>
      </trkpt>
      <trkpt lat="46.95798" lon="8.7384">
        <ele>1202</ele>
        <time>2021-08-06T10:11:03.355Z</time>
      </trkpt>
      <trkpt lat="46.95797" lon="8.73839">
        <ele>1202</ele>
        <time>2021-08-06T10:11:04.354Z</time>
      </trkpt>
      <trkpt lat="46.95797" lon="8.73838">
        <ele>1203</ele>
        <time>2021-08-06T10:11:05.355Z</time>
      </trkpt>
      <trkpt lat="46.95796" lon="8.73837">
        <ele>1203</ele>
        <time>2021-08-06T10:11:06.355Z</time>
      </trkpt>
      <trkpt lat="46.95795" lon="8.73836">
        <ele>1203</ele>
        <time>2021-08-06T10:11:07.355Z</time>
      </trkpt>
      <trkpt lat="46.95795" lon="8.73835">
        <ele>1202</ele>
        <time>2021-08-06T10:11:08.354Z</time>
      </trkpt>
      <trkpt lat="46.95794" lon="8.73835">
        <ele>1202</ele>
        <time>2021-08-06T10:11:09.355Z</time>
      </trkpt>
      <trkpt lat="46.95793" lon="8.73834">
        <ele>1202</ele>
        <time>2021-08-06T10:11:10.355Z</time>
      </trkpt>
      <trkpt lat="46.95792" lon="8.73833">
        <ele>1201</ele>
        <time>2021-08-06T10:11:11.355Z</time>
      </trkpt>
      <trkpt lat="46.95791" lon="8.73832">
        <ele>1201</ele>
        <time>2021-08-06T10:11:12.354Z</time>
      </trkpt>
      <trkpt lat="46.95791" lon="8.73831">
        <ele>1200</ele>
        <time>2021-08-06T10:11:13.355Z</time>
      </trkpt>
      <trkpt lat="46.9579" lon="8.7383">
        <ele>1200</ele>
        <time>2021-08-06T10:11:14.355Z</time>
      </trkpt>
      <trkpt lat="46.95789" lon="8.7383">
        <ele>1199</ele>
        <time>2021-08-06T10:11:15.354Z</time>
      </trkpt>
      <trkpt lat="46.95788" lon="8.73829">
        <ele>1199</ele>
        <time>2021-08-06T10:11:16.355Z</time>
      </trkpt>
      <trkpt lat="46.95788" lon="8.73828">
        <ele>1199</ele>
        <time>2021-08-06T10:11:17.354Z</time>
      </trkpt>
      <trkpt lat="46.95787" lon="8.73828">
        <ele>1199</ele>
        <time>2021-08-06T10:11:18.355Z</time>
      </trkpt>
      <trkpt lat="46.95786" lon="8.73826">
        <ele>1199</ele>
        <time>2021-08-06T10:11:19.354Z</time>
      </trkpt>
      <trkpt lat="46.95785" lon="8.73825">
        <ele>1199</ele>
        <time>2021-08-06T10:11:20.354Z</time>
      </trkpt>
      <trkpt lat="46.95783" lon="8.73824">
        <ele>1198</ele>
        <time>2021-08-06T10:11:21.355Z</time>
      </trkpt>
      <trkpt lat="46.95782" lon="8.73823">
        <ele>1198</ele>
        <time>2021-08-06T10:11:22.355Z</time>
      </trkpt>
      <trkpt lat="46.9578" lon="8.73823">
        <ele>1198</ele>
        <time>2021-08-06T10:11:23.354Z</time>
      </trkpt>
      <trkpt lat="46.9578" lon="8.73822">
        <ele>1197</ele>
        <time>2021-08-06T10:11:24.355Z</time>
      </trkpt>
      <trkpt lat="46.95779" lon="8.73822">
        <ele>1197</ele>
        <time>2021-08-06T10:11:25.355Z</time>
      </trkpt>
      <trkpt lat="46.95778" lon="8.73821">
        <ele>1197</ele>
        <time>2021-08-06T10:11:26.355Z</time>
      </trkpt>
      <trkpt lat="46.95777" lon="8.7382">
        <ele>1197</ele>
        <time>2021-08-06T10:11:27.354Z</time>
      </trkpt>
      <trkpt lat="46.95777" lon="8.73819">
        <ele>1197</ele>
        <time>2021-08-06T10:11:28.355Z</time>
      </trkpt>
      <trkpt lat="46.95776" lon="8.73818">
        <ele>1197</ele>
        <time>2021-08-06T10:11:29.355Z</time>
      </trkpt>
      <trkpt lat="46.95775" lon="8.73818">
        <ele>1198</ele>
        <time>2021-08-06T10:11:30.355Z</time>
      </trkpt>
      <trkpt lat="46.95774" lon="8.73817">
        <ele>1198</ele>
        <time>2021-08-06T10:11:31.355Z</time>
      </trkpt>
      <trkpt lat="46.95773" lon="8.73816">
        <ele>1198</ele>
        <time>2021-08-06T10:11:32.355Z</time>
      </trkpt>
      <trkpt lat="46.95773" lon="8.73815">
        <ele>1198</ele>
        <time>2021-08-06T10:11:33.355Z</time>
      </trkpt>
      <trkpt lat="46.95772" lon="8.73814">
        <ele>1198</ele>
        <time>2021-08-06T10:11:34.355Z</time>
      </trkpt>
      <trkpt lat="46.95772" lon="8.73813">
        <ele>1199</ele>
        <time>2021-08-06T10:11:35.354Z</time>
      </trkpt>
      <trkpt lat="46.95771" lon="8.73812">
        <ele>1199</ele>
        <time>2021-08-06T10:11:36.355Z</time>
      </trkpt>
      <trkpt lat="46.9577" lon="8.73811">
        <ele>1200</ele>
        <time>2021-08-06T10:11:37.355Z</time>
      </trkpt>
      <trkpt lat="46.95768" lon="8.73809">
        <ele>1200</ele>
        <time>2021-08-06T10:11:38.355Z</time>
      </trkpt>
      <trkpt lat="46.95768" lon="8.73809">
        <ele>1200</ele>
        <time>2021-08-06T10:11:39.355Z</time>
      </trkpt>
      <trkpt lat="46.95766" lon="8.73808">
        <ele>1200</ele>
        <time>2021-08-06T10:11:40.355Z</time>
      </trkpt>
      <trkpt lat="46.95765" lon="8.73808">
        <ele>1200</ele>
        <time>2021-08-06T10:11:41.354Z</time>
      </trkpt>
      <trkpt lat="46.95765" lon="8.73808">
        <ele>1201</ele>
        <time>2021-08-06T10:11:42.354Z</time>
      </trkpt>
      <trkpt lat="46.95764" lon="8.73808">
        <ele>1201</ele>
        <time>2021-08-06T10:11:43.355Z</time>
      </trkpt>
      <trkpt lat="46.95763" lon="8.73806">
        <ele>1201</ele>
        <time>2021-08-06T10:11:44.355Z</time>
      </trkpt>
      <trkpt lat="46.95763" lon="8.73804">
        <ele>1201</ele>
        <time>2021-08-06T10:11:45.355Z</time>
      </trkpt>
      <trkpt lat="46.95763" lon="8.73802">
        <ele>1201</ele>
        <time>2021-08-06T10:11:46.355Z</time>
      </trkpt>
      <trkpt lat="46.95762" lon="8.73801">
        <ele>1201</ele>
        <time>2021-08-06T10:11:47.355Z</time>
      </trkpt>
      <trkpt lat="46.95761" lon="8.73801">
        <ele>1201</ele>
        <time>2021-08-06T10:11:48.355Z</time>
      </trkpt>
      <trkpt lat="46.9576" lon="8.73801">
        <ele>1201</ele>
        <time>2021-08-06T10:11:49.354Z</time>
      </trkpt>
      <trkpt lat="46.95759" lon="8.738">
        <ele>1202</ele>
        <time>2021-08-06T10:11:50.355Z</time>
      </trkpt>
      <trkpt lat="46.95759" lon="8.73798">
        <ele>1202</ele>
        <time>2021-08-06T10:11:51.355Z</time>
      </trkpt>
      <trkpt lat="46.95759" lon="8.73797">
        <ele>1202</ele>
        <time>2021-08-06T10:11:52.354Z</time>
      </trkpt>
      <trkpt lat="46.95759" lon="8.73796">
        <ele>1203</ele>
        <time>2021-08-06T10:11:53.355Z</time>
      </trkpt>
      <trkpt lat="46.95759" lon="8.73795">
        <ele>1203</ele>
        <time>2021-08-06T10:11:54.355Z</time>
      </trkpt>
      <trkpt lat="46.95759" lon="8.73794">
        <ele>1204</ele>
        <time>2021-08-06T10:11:55.355Z</time>
      </trkpt>
      <trkpt lat="46.95758" lon="8.73793">
        <ele>1204</ele>
        <time>2021-08-06T10:11:56.354Z</time>
      </trkpt>
      <trkpt lat="46.95757" lon="8.73792">
        <ele>1204</ele>
        <time>2021-08-06T10:11:57.354Z</time>
      </trkpt>
      <trkpt lat="46.95756" lon="8.73792">
        <ele>1204</ele>
        <time>2021-08-06T10:11:58.355Z</time>
      </trkpt>
      <trkpt lat="46.95755" lon="8.73791">
        <ele>1205</ele>
        <time>2021-08-06T10:11:59.354Z</time>
      </trkpt>
      <trkpt lat="46.95754" lon="8.7379">
        <ele>1205</ele>
        <time>2021-08-06T10:12:00.355Z</time>
      </trkpt>
      <trkpt lat="46.95753" lon="8.73789">
        <ele>1205</ele>
        <time>2021-08-06T10:12:01.355Z</time>
      </trkpt>
      <trkpt lat="46.95752" lon="8.73788">
        <ele>1206</ele>
        <time>2021-08-06T10:12:02.355Z</time>
      </trkpt>
      <trkpt lat="46.95751" lon="8.73787">
        <ele>1206</ele>
        <time>2021-08-06T10:12:03.354Z</time>
      </trkpt>
      <trkpt lat="46.95751" lon="8.73786">
        <ele>1206</ele>
        <time>2021-08-06T10:12:04.355Z</time>
      </trkpt>
      <trkpt lat="46.9575" lon="8.73785">
        <ele>1206</ele>
        <time>2021-08-06T10:12:05.354Z</time>
      </trkpt>
      <trkpt lat="46.95749" lon="8.73784">
        <ele>1207</ele>
        <time>2021-08-06T10:12:06.355Z</time>
      </trkpt>
      <trkpt lat="46.95749" lon="8.73783">
        <ele>1208</ele>
        <time>2021-08-06T10:12:07.355Z</time>
      </trkpt>
      <trkpt lat="46.95748" lon="8.73782">
        <ele>1208</ele>
        <time>2021-08-06T10:12:08.354Z</time>
      </trkpt>
      <trkpt lat="46.95748" lon="8.73781">
        <ele>1209</ele>
        <time>2021-08-06T10:12:09.355Z</time>
      </trkpt>
      <trkpt lat="46.95748" lon="8.7378">
        <ele>1209</ele>
        <time>2021-08-06T10:12:10.354Z</time>
      </trkpt>
      <trkpt lat="46.95748" lon="8.73779">
        <ele>1210</ele>
        <time>2021-08-06T10:12:11.354Z</time>
      </trkpt>
      <trkpt lat="46.95748" lon="8.73777">
        <ele>1210</ele>
        <time>2021-08-06T10:12:12.354Z</time>
      </trkpt>
      <trkpt lat="46.95748" lon="8.73776">
        <ele>1210</ele>
        <time>2021-08-06T10:12:13.355Z</time>
      </trkpt>
      <trkpt lat="46.95748" lon="8.73775">
        <ele>1211</ele>
        <time>2021-08-06T10:12:14.355Z</time>
      </trkpt>
      <trkpt lat="46.95748" lon="8.73774">
        <ele>1212</ele>
        <time>2021-08-06T10:12:15.355Z</time>
      </trkpt>
      <trkpt lat="46.95748" lon="8.73773">
        <ele>1212</ele>
        <time>2021-08-06T10:12:16.355Z</time>
      </trkpt>
      <trkpt lat="46.95748" lon="8.73772">
        <ele>1213</ele>
        <time>2021-08-06T10:12:17.355Z</time>
      </trkpt>
      <trkpt lat="46.95747" lon="8.73771">
        <ele>1214</ele>
        <time>2021-08-06T10:12:18.355Z</time>
      </trkpt>
      <trkpt lat="46.95746" lon="8.7377">
        <ele>1214</ele>
        <time>2021-08-06T10:12:19.355Z</time>
      </trkpt>
      <trkpt lat="46.95745" lon="8.73769">
        <ele>1214</ele>
        <time>2021-08-06T10:12:20.355Z</time>
      </trkpt>
      <trkpt lat="46.95744" lon="8.73768">
        <ele>1214</ele>
        <time>2021-08-06T10:12:21.354Z</time>
      </trkpt>
      <trkpt lat="46.95744" lon="8.73767">
        <ele>1215</ele>
        <time>2021-08-06T10:12:22.354Z</time>
      </trkpt>
      <trkpt lat="46.95743" lon="8.73766">
        <ele>1215</ele>
        <time>2021-08-06T10:12:23.354Z</time>
      </trkpt>
      <trkpt lat="46.95743" lon="8.73765">
        <ele>1216</ele>
        <time>2021-08-06T10:12:24.355Z</time>
      </trkpt>
      <trkpt lat="46.95742" lon="8.73763">
        <ele>1216</ele>
        <time>2021-08-06T10:12:25.354Z</time>
      </trkpt>
      <trkpt lat="46.95742" lon="8.73762">
        <ele>1217</ele>
        <time>2021-08-06T10:12:26.354Z</time>
      </trkpt>
      <trkpt lat="46.95741" lon="8.7376">
        <ele>1217</ele>
        <time>2021-08-06T10:12:27.354Z</time>
      </trkpt>
      <trkpt lat="46.95741" lon="8.73759">
        <ele>1217</ele>
        <time>2021-08-06T10:12:28.354Z</time>
      </trkpt>
      <trkpt lat="46.9574" lon="8.73757">
        <ele>1218</ele>
        <time>2021-08-06T10:12:29.354Z</time>
      </trkpt>
      <trkpt lat="46.9574" lon="8.73756">
        <ele>1218</ele>
        <time>2021-08-06T10:12:30.355Z</time>
      </trkpt>
      <trkpt lat="46.95739" lon="8.73755">
        <ele>1219</ele>
        <time>2021-08-06T10:12:31.354Z</time>
      </trkpt>
      <trkpt lat="46.95738" lon="8.73754">
        <ele>1219</ele>
        <time>2021-08-06T10:12:32.355Z</time>
      </trkpt>
      <trkpt lat="46.95736" lon="8.73753">
        <ele>1219</ele>
        <time>2021-08-06T10:12:33.354Z</time>
      </trkpt>
      <trkpt lat="46.95734" lon="8.73752">
        <ele>1220</ele>
        <time>2021-08-06T10:12:34.355Z</time>
      </trkpt>
      <trkpt lat="46.95733" lon="8.7375">
        <ele>1220</ele>
        <time>2021-08-06T10:12:35.355Z</time>
      </trkpt>
      <trkpt lat="46.95731" lon="8.73748">
        <ele>1220</ele>
        <time>2021-08-06T10:12:36.355Z</time>
      </trkpt>
      <trkpt lat="46.95731" lon="8.73746">
        <ele>1220</ele>
        <time>2021-08-06T10:12:37.355Z</time>
      </trkpt>
      <trkpt lat="46.9573" lon="8.73744">
        <ele>1220</ele>
        <time>2021-08-06T10:12:38.354Z</time>
      </trkpt>
      <trkpt lat="46.95729" lon="8.73742">
        <ele>1219</ele>
        <time>2021-08-06T10:12:39.354Z</time>
      </trkpt>
      <trkpt lat="46.95727" lon="8.7374">
        <ele>1219</ele>
        <time>2021-08-06T10:12:40.355Z</time>
      </trkpt>
      <trkpt lat="46.95726" lon="8.73739">
        <ele>1219</ele>
        <time>2021-08-06T10:12:41.355Z</time>
      </trkpt>
      <trkpt lat="46.95726" lon="8.73737">
        <ele>1218</ele>
        <time>2021-08-06T10:12:42.355Z</time>
      </trkpt>
      <trkpt lat="46.95725" lon="8.73736">
        <ele>1218</ele>
        <time>2021-08-06T10:12:43.355Z</time>
      </trkpt>
      <trkpt lat="46.95723" lon="8.73734">
        <ele>1218</ele>
        <time>2021-08-06T10:12:44.355Z</time>
      </trkpt>
      <trkpt lat="46.95722" lon="8.73733">
        <ele>1218</ele>
        <time>2021-08-06T10:12:45.354Z</time>
      </trkpt>
      <trkpt lat="46.95721" lon="8.73732">
        <ele>1217</ele>
        <time>2021-08-06T10:12:46.355Z</time>
      </trkpt>
      <trkpt lat="46.95719" lon="8.73732">
        <ele>1217</ele>
        <time>2021-08-06T10:12:47.355Z</time>
      </trkpt>
      <trkpt lat="46.95718" lon="8.73732">
        <ele>1216</ele>
        <time>2021-08-06T10:12:48.355Z</time>
      </trkpt>
      <trkpt lat="46.95717" lon="8.73731">
        <ele>1216</ele>
        <time>2021-08-06T10:12:49.355Z</time>
      </trkpt>
      <trkpt lat="46.95717" lon="8.7373">
        <ele>1215</ele>
        <time>2021-08-06T10:12:50.355Z</time>
      </trkpt>
      <trkpt lat="46.95716" lon="8.73728">
        <ele>1215</ele>
        <time>2021-08-06T10:12:51.355Z</time>
      </trkpt>
      <trkpt lat="46.95715" lon="8.73726">
        <ele>1214</ele>
        <time>2021-08-06T10:12:52.355Z</time>
      </trkpt>
      <trkpt lat="46.95714" lon="8.73724">
        <ele>1214</ele>
        <time>2021-08-06T10:12:53.355Z</time>
      </trkpt>
      <trkpt lat="46.95713" lon="8.73722">
        <ele>1214</ele>
        <time>2021-08-06T10:12:54.355Z</time>
      </trkpt>
      <trkpt lat="46.95712" lon="8.7372">
        <ele>1214</ele>
        <time>2021-08-06T10:12:55.355Z</time>
      </trkpt>
      <trkpt lat="46.95711" lon="8.73719">
        <ele>1213</ele>
        <time>2021-08-06T10:12:56.355Z</time>
      </trkpt>
      <trkpt lat="46.95711" lon="8.73717">
        <ele>1213</ele>
        <time>2021-08-06T10:12:57.355Z</time>
      </trkpt>
      <trkpt lat="46.95711" lon="8.73715">
        <ele>1213</ele>
        <time>2021-08-06T10:12:58.355Z</time>
      </trkpt>
      <trkpt lat="46.9571" lon="8.73714">
        <ele>1213</ele>
        <time>2021-08-06T10:12:59.354Z</time>
      </trkpt>
      <trkpt lat="46.9571" lon="8.73713">
        <ele>1213</ele>
        <time>2021-08-06T10:13:00.355Z</time>
      </trkpt>
      <trkpt lat="46.9571" lon="8.73711">
        <ele>1212</ele>
        <time>2021-08-06T10:13:01.355Z</time>
      </trkpt>
      <trkpt lat="46.95709" lon="8.73709">
        <ele>1213</ele>
        <time>2021-08-06T10:13:02.354Z</time>
      </trkpt>
      <trkpt lat="46.95709" lon="8.73707">
        <ele>1213</ele>
        <time>2021-08-06T10:13:03.355Z</time>
      </trkpt>
      <trkpt lat="46.95708" lon="8.73706">
        <ele>1212</ele>
        <time>2021-08-06T10:13:04.355Z</time>
      </trkpt>
      <trkpt lat="46.95708" lon="8.73705">
        <ele>1212</ele>
        <time>2021-08-06T10:13:05.355Z</time>
      </trkpt>
      <trkpt lat="46.95708" lon="8.73703">
        <ele>1212</ele>
        <time>2021-08-06T10:13:06.355Z</time>
      </trkpt>
      <trkpt lat="46.95709" lon="8.73701">
        <ele>1212</ele>
        <time>2021-08-06T10:13:07.354Z</time>
      </trkpt>
      <trkpt lat="46.9571" lon="8.737">
        <ele>1212</ele>
        <time>2021-08-06T10:13:08.355Z</time>
      </trkpt>
      <trkpt lat="46.95711" lon="8.73698">
        <ele>1212</ele>
        <time>2021-08-06T10:13:09.354Z</time>
      </trkpt>
      <trkpt lat="46.95711" lon="8.73696">
        <ele>1212</ele>
        <time>2021-08-06T10:13:10.355Z</time>
      </trkpt>
      <trkpt lat="46.95711" lon="8.73694">
        <ele>1212</ele>
        <time>2021-08-06T10:13:11.355Z</time>
      </trkpt>
      <trkpt lat="46.95711" lon="8.73692">
        <ele>1212</ele>
        <time>2021-08-06T10:13:12.354Z</time>
      </trkpt>
      <trkpt lat="46.95711" lon="8.7369">
        <ele>1212</ele>
        <time>2021-08-06T10:13:13.355Z</time>
      </trkpt>
      <trkpt lat="46.95712" lon="8.73689">
        <ele>1212</ele>
        <time>2021-08-06T10:13:14.355Z</time>
      </trkpt>
      <trkpt lat="46.95712" lon="8.73687">
        <ele>1212</ele>
        <time>2021-08-06T10:13:15.355Z</time>
      </trkpt>
      <trkpt lat="46.95713" lon="8.73686">
        <ele>1211</ele>
        <time>2021-08-06T10:13:16.355Z</time>
      </trkpt>
      <trkpt lat="46.95713" lon="8.73685">
        <ele>1211</ele>
        <time>2021-08-06T10:13:17.355Z</time>
      </trkpt>
      <trkpt lat="46.95714" lon="8.73684">
        <ele>1211</ele>
        <time>2021-08-06T10:13:18.354Z</time>
      </trkpt>
      <trkpt lat="46.95715" lon="8.73682">
        <ele>1211</ele>
        <time>2021-08-06T10:13:19.354Z</time>
      </trkpt>
      <trkpt lat="46.95716" lon="8.73681">
        <ele>1211</ele>
        <time>2021-08-06T10:13:20.354Z</time>
      </trkpt>
      <trkpt lat="46.95716" lon="8.73681">
        <ele>1211</ele>
        <time>2021-08-06T10:13:21.354Z</time>
      </trkpt>
      <trkpt lat="46.95717" lon="8.73681">
        <ele>1210</ele>
        <time>2021-08-06T10:13:22.355Z</time>
      </trkpt>
      <trkpt lat="46.95718" lon="8.7368">
        <ele>1210</ele>
        <time>2021-08-06T10:13:23.354Z</time>
      </trkpt>
      <trkpt lat="46.95719" lon="8.73679">
        <ele>1210</ele>
        <time>2021-08-06T10:13:24.355Z</time>
      </trkpt>
      <trkpt lat="46.9572" lon="8.73679">
        <ele>1210</ele>
        <time>2021-08-06T10:13:25.354Z</time>
      </trkpt>
      <trkpt lat="46.95721" lon="8.73678">
        <ele>1210</ele>
        <time>2021-08-06T10:13:26.355Z</time>
      </trkpt>
      <trkpt lat="46.95722" lon="8.73677">
        <ele>1210</ele>
        <time>2021-08-06T10:13:27.354Z</time>
      </trkpt>
      <trkpt lat="46.95723" lon="8.73676">
        <ele>1210</ele>
        <time>2021-08-06T10:13:28.354Z</time>
      </trkpt>
      <trkpt lat="46.95724" lon="8.73674">
        <ele>1210</ele>
        <time>2021-08-06T10:13:29.354Z</time>
      </trkpt>
      <trkpt lat="46.95726" lon="8.73673">
        <ele>1210</ele>
        <time>2021-08-06T10:13:30.355Z</time>
      </trkpt>
      <trkpt lat="46.95727" lon="8.73671">
        <ele>1210</ele>
        <time>2021-08-06T10:13:31.355Z</time>
      </trkpt>
      <trkpt lat="46.95728" lon="8.7367">
        <ele>1210</ele>
        <time>2021-08-06T10:13:32.354Z</time>
      </trkpt>
      <trkpt lat="46.95728" lon="8.73667">
        <ele>1210</ele>
        <time>2021-08-06T10:13:33.355Z</time>
      </trkpt>
      <trkpt lat="46.95729" lon="8.73665">
        <ele>1210</ele>
        <time>2021-08-06T10:13:34.355Z</time>
      </trkpt>
      <trkpt lat="46.9573" lon="8.73663">
        <ele>1210</ele>
        <time>2021-08-06T10:13:35.354Z</time>
      </trkpt>
      <trkpt lat="46.9573" lon="8.73661">
        <ele>1210</ele>
        <time>2021-08-06T10:13:36.355Z</time>
      </trkpt>
      <trkpt lat="46.9573" lon="8.73659">
        <ele>1210</ele>
        <time>2021-08-06T10:13:37.355Z</time>
      </trkpt>
      <trkpt lat="46.9573" lon="8.73657">
        <ele>1211</ele>
        <time>2021-08-06T10:13:38.355Z</time>
      </trkpt>
      <trkpt lat="46.95729" lon="8.73655">
        <ele>1211</ele>
        <time>2021-08-06T10:13:39.354Z</time>
      </trkpt>
      <trkpt lat="46.95728" lon="8.73653">
        <ele>1211</ele>
        <time>2021-08-06T10:13:40.355Z</time>
      </trkpt>
      <trkpt lat="46.95727" lon="8.73651">
        <ele>1211</ele>
        <time>2021-08-06T10:13:41.354Z</time>
      </trkpt>
      <trkpt lat="46.95726" lon="8.7365">
        <ele>1211</ele>
        <time>2021-08-06T10:13:42.355Z</time>
      </trkpt>
      <trkpt lat="46.95725" lon="8.73648">
        <ele>1212</ele>
        <time>2021-08-06T10:13:43.354Z</time>
      </trkpt>
      <trkpt lat="46.95724" lon="8.73647">
        <ele>1212</ele>
        <time>2021-08-06T10:13:44.355Z</time>
      </trkpt>
      <trkpt lat="46.95723" lon="8.73646">
        <ele>1212</ele>
        <time>2021-08-06T10:13:45.355Z</time>
      </trkpt>
      <trkpt lat="46.95722" lon="8.73644">
        <ele>1212</ele>
        <time>2021-08-06T10:13:46.355Z</time>
      </trkpt>
      <trkpt lat="46.95722" lon="8.73643">
        <ele>1212</ele>
        <time>2021-08-06T10:13:47.354Z</time>
      </trkpt>
      <trkpt lat="46.9572" lon="8.73642">
        <ele>1212</ele>
        <time>2021-08-06T10:13:48.354Z</time>
      </trkpt>
      <trkpt lat="46.95719" lon="8.73641">
        <ele>1212</ele>
        <time>2021-08-06T10:13:49.355Z</time>
      </trkpt>
      <trkpt lat="46.95717" lon="8.7364">
        <ele>1213</ele>
        <time>2021-08-06T10:13:50.355Z</time>
      </trkpt>
      <trkpt lat="46.95716" lon="8.73639">
        <ele>1213</ele>
        <time>2021-08-06T10:13:51.355Z</time>
      </trkpt>
      <trkpt lat="46.95715" lon="8.73638">
        <ele>1213</ele>
        <time>2021-08-06T10:13:52.355Z</time>
      </trkpt>
      <trkpt lat="46.95714" lon="8.73638">
        <ele>1214</ele>
        <time>2021-08-06T10:13:53.354Z</time>
      </trkpt>
      <trkpt lat="46.95713" lon="8.73637">
        <ele>1214</ele>
        <time>2021-08-06T10:13:54.355Z</time>
      </trkpt>
      <trkpt lat="46.95712" lon="8.73636">
        <ele>1215</ele>
        <time>2021-08-06T10:13:55.355Z</time>
      </trkpt>
      <trkpt lat="46.95711" lon="8.73635">
        <ele>1215</ele>
        <time>2021-08-06T10:13:56.354Z</time>
      </trkpt>
      <trkpt lat="46.9571" lon="8.73635">
        <ele>1215</ele>
        <time>2021-08-06T10:13:57.355Z</time>
      </trkpt>
      <trkpt lat="46.95709" lon="8.73634">
        <ele>1215</ele>
        <time>2021-08-06T10:13:58.354Z</time>
      </trkpt>
      <trkpt lat="46.95708" lon="8.73634">
        <ele>1215</ele>
        <time>2021-08-06T10:13:59.355Z</time>
      </trkpt>
      <trkpt lat="46.95707" lon="8.73634">
        <ele>1215</ele>
        <time>2021-08-06T10:14:00.354Z</time>
      </trkpt>
      <trkpt lat="46.95707" lon="8.73633">
        <ele>1215</ele>
        <time>2021-08-06T10:14:01.355Z</time>
      </trkpt>
      <trkpt lat="46.95707" lon="8.73632">
        <ele>1215</ele>
        <time>2021-08-06T10:14:02.355Z</time>
      </trkpt>
      <trkpt lat="46.95706" lon="8.73631">
        <ele>1215</ele>
        <time>2021-08-06T10:14:03.355Z</time>
      </trkpt>
      <trkpt lat="46.95706" lon="8.7363">
        <ele>1215</ele>
        <time>2021-08-06T10:14:04.355Z</time>
      </trkpt>
      <trkpt lat="46.95704" lon="8.7363">
        <ele>1215</ele>
        <time>2021-08-06T10:14:05.354Z</time>
      </trkpt>
      <trkpt lat="46.95703" lon="8.73629">
        <ele>1215</ele>
        <time>2021-08-06T10:14:06.354Z</time>
      </trkpt>
      <trkpt lat="46.95702" lon="8.73628">
        <ele>1215</ele>
        <time>2021-08-06T10:14:07.354Z</time>
      </trkpt>
      <trkpt lat="46.95701" lon="8.73627">
        <ele>1215</ele>
        <time>2021-08-06T10:14:08.354Z</time>
      </trkpt>
      <trkpt lat="46.957" lon="8.73626">
        <ele>1215</ele>
        <time>2021-08-06T10:14:09.355Z</time>
      </trkpt>
      <trkpt lat="46.95699" lon="8.73625">
        <ele>1216</ele>
        <time>2021-08-06T10:14:10.355Z</time>
      </trkpt>
      <trkpt lat="46.95699" lon="8.73623">
        <ele>1216</ele>
        <time>2021-08-06T10:14:11.354Z</time>
      </trkpt>
      <trkpt lat="46.95699" lon="8.73622">
        <ele>1216</ele>
        <time>2021-08-06T10:14:12.355Z</time>
      </trkpt>
      <trkpt lat="46.95699" lon="8.73621">
        <ele>1217</ele>
        <time>2021-08-06T10:14:13.354Z</time>
      </trkpt>
      <trkpt lat="46.95699" lon="8.73619">
        <ele>1217</ele>
        <time>2021-08-06T10:14:14.354Z</time>
      </trkpt>
      <trkpt lat="46.95698" lon="8.73618">
        <ele>1217</ele>
        <time>2021-08-06T10:14:15.355Z</time>
      </trkpt>
      <trkpt lat="46.95697" lon="8.73617">
        <ele>1218</ele>
        <time>2021-08-06T10:14:16.354Z</time>
      </trkpt>
      <trkpt lat="46.95697" lon="8.73616">
        <ele>1218</ele>
        <time>2021-08-06T10:14:17.354Z</time>
      </trkpt>
      <trkpt lat="46.95696" lon="8.73615">
        <ele>1218</ele>
        <time>2021-08-06T10:14:18.354Z</time>
      </trkpt>
      <trkpt lat="46.95696" lon="8.73613">
        <ele>1218</ele>
        <time>2021-08-06T10:14:19.355Z</time>
      </trkpt>
      <trkpt lat="46.95695" lon="8.73612">
        <ele>1218</ele>
        <time>2021-08-06T10:14:20.354Z</time>
      </trkpt>
      <trkpt lat="46.95694" lon="8.73611">
        <ele>1219</ele>
        <time>2021-08-06T10:14:21.355Z</time>
      </trkpt>
      <trkpt lat="46.95693" lon="8.73609">
        <ele>1219</ele>
        <time>2021-08-06T10:14:22.354Z</time>
      </trkpt>
      <trkpt lat="46.95693" lon="8.73608">
        <ele>1220</ele>
        <time>2021-08-06T10:14:23.354Z</time>
      </trkpt>
      <trkpt lat="46.95692" lon="8.73607">
        <ele>1220</ele>
        <time>2021-08-06T10:14:24.354Z</time>
      </trkpt>
      <trkpt lat="46.95692" lon="8.73606">
        <ele>1221</ele>
        <time>2021-08-06T10:14:25.355Z</time>
      </trkpt>
      <trkpt lat="46.95692" lon="8.73604">
        <ele>1221</ele>
        <time>2021-08-06T10:14:26.354Z</time>
      </trkpt>
      <trkpt lat="46.95692" lon="8.73603">
        <ele>1222</ele>
        <time>2021-08-06T10:14:27.355Z</time>
      </trkpt>
      <trkpt lat="46.95692" lon="8.73602">
        <ele>1223</ele>
        <time>2021-08-06T10:14:28.354Z</time>
      </trkpt>
      <trkpt lat="46.95692" lon="8.736">
        <ele>1223</ele>
        <time>2021-08-06T10:14:29.355Z</time>
      </trkpt>
      <trkpt lat="46.95692" lon="8.73598">
        <ele>1224</ele>
        <time>2021-08-06T10:14:30.355Z</time>
      </trkpt>
      <trkpt lat="46.95692" lon="8.73596">
        <ele>1224</ele>
        <time>2021-08-06T10:14:31.355Z</time>
      </trkpt>
      <trkpt lat="46.95692" lon="8.73594">
        <ele>1225</ele>
        <time>2021-08-06T10:14:32.354Z</time>
      </trkpt>
      <trkpt lat="46.95692" lon="8.73592">
        <ele>1225</ele>
        <time>2021-08-06T10:14:33.354Z</time>
      </trkpt>
      <trkpt lat="46.95693" lon="8.7359">
        <ele>1225</ele>
        <time>2021-08-06T10:14:34.355Z</time>
      </trkpt>
      <trkpt lat="46.95693" lon="8.73588">
        <ele>1226</ele>
        <time>2021-08-06T10:14:35.355Z</time>
      </trkpt>
      <trkpt lat="46.95694" lon="8.73586">
        <ele>1227</ele>
        <time>2021-08-06T10:14:36.355Z</time>
      </trkpt>
      <trkpt lat="46.95695" lon="8.73584">
        <ele>1228</ele>
        <time>2021-08-06T10:14:37.355Z</time>
      </trkpt>
      <trkpt lat="46.95695" lon="8.73583">
        <ele>1229</ele>
        <time>2021-08-06T10:14:38.355Z</time>
      </trkpt>
      <trkpt lat="46.95695" lon="8.73581">
        <ele>1230</ele>
        <time>2021-08-06T10:14:39.355Z</time>
      </trkpt>
      <trkpt lat="46.95696" lon="8.7358">
        <ele>1230</ele>
        <time>2021-08-06T10:14:40.355Z</time>
      </trkpt>
      <trkpt lat="46.95696" lon="8.73579">
        <ele>1231</ele>
        <time>2021-08-06T10:14:41.355Z</time>
      </trkpt>
      <trkpt lat="46.95698" lon="8.73578">
        <ele>1231</ele>
        <time>2021-08-06T10:14:42.355Z</time>
      </trkpt>
      <trkpt lat="46.95699" lon="8.73577">
        <ele>1231</ele>
        <time>2021-08-06T10:14:43.354Z</time>
      </trkpt>
      <trkpt lat="46.95699" lon="8.73576">
        <ele>1231</ele>
        <time>2021-08-06T10:14:44.355Z</time>
      </trkpt>
      <trkpt lat="46.957" lon="8.73575">
        <ele>1231</ele>
        <time>2021-08-06T10:14:45.354Z</time>
      </trkpt>
      <trkpt lat="46.95701" lon="8.73574">
        <ele>1232</ele>
        <time>2021-08-06T10:14:46.354Z</time>
      </trkpt>
      <trkpt lat="46.95701" lon="8.73573">
        <ele>1232</ele>
        <time>2021-08-06T10:14:47.354Z</time>
      </trkpt>
      <trkpt lat="46.957" lon="8.73572">
        <ele>1232</ele>
        <time>2021-08-06T10:14:48.354Z</time>
      </trkpt>
      <trkpt lat="46.957" lon="8.7357">
        <ele>1233</ele>
        <time>2021-08-06T10:14:49.355Z</time>
      </trkpt>
      <trkpt lat="46.95701" lon="8.73569">
        <ele>1233</ele>
        <time>2021-08-06T10:14:50.355Z</time>
      </trkpt>
      <trkpt lat="46.95701" lon="8.73567">
        <ele>1233</ele>
        <time>2021-08-06T10:14:51.354Z</time>
      </trkpt>
      <trkpt lat="46.95702" lon="8.73566">
        <ele>1233</ele>
        <time>2021-08-06T10:14:52.355Z</time>
      </trkpt>
      <trkpt lat="46.95701" lon="8.73564">
        <ele>1234</ele>
        <time>2021-08-06T10:14:53.355Z</time>
      </trkpt>
      <trkpt lat="46.95701" lon="8.73563">
        <ele>1234</ele>
        <time>2021-08-06T10:14:54.355Z</time>
      </trkpt>
      <trkpt lat="46.957" lon="8.73561">
        <ele>1234</ele>
        <time>2021-08-06T10:14:55.354Z</time>
      </trkpt>
      <trkpt lat="46.957" lon="8.7356">
        <ele>1235</ele>
        <time>2021-08-06T10:14:56.355Z</time>
      </trkpt>
      <trkpt lat="46.957" lon="8.73558">
        <ele>1235</ele>
        <time>2021-08-06T10:14:57.355Z</time>
      </trkpt>
      <trkpt lat="46.957" lon="8.73557">
        <ele>1235</ele>
        <time>2021-08-06T10:14:58.355Z</time>
      </trkpt>
      <trkpt lat="46.957" lon="8.73556">
        <ele>1235</ele>
        <time>2021-08-06T10:14:59.355Z</time>
      </trkpt>
      <trkpt lat="46.95699" lon="8.73555">
        <ele>1235</ele>
        <time>2021-08-06T10:15:00.355Z</time>
      </trkpt>
      <trkpt lat="46.957" lon="8.73554">
        <ele>1235</ele>
        <time>2021-08-06T10:15:01.354Z</time>
      </trkpt>
      <trkpt lat="46.957" lon="8.73553">
        <ele>1235</ele>
        <time>2021-08-06T10:15:02.355Z</time>
      </trkpt>
      <trkpt lat="46.95701" lon="8.73552">
        <ele>1235</ele>
        <time>2021-08-06T10:15:03.355Z</time>
      </trkpt>
      <trkpt lat="46.95701" lon="8.7355">
        <ele>1234</ele>
        <time>2021-08-06T10:15:04.355Z</time>
      </trkpt>
      <trkpt lat="46.95701" lon="8.7355">
        <ele>1234</ele>
        <time>2021-08-06T10:15:05.355Z</time>
      </trkpt>
      <trkpt lat="46.957" lon="8.73549">
        <ele>1234</ele>
        <time>2021-08-06T10:15:06.355Z</time>
      </trkpt>
      <trkpt lat="46.95699" lon="8.73549">
        <ele>1233</ele>
        <time>2021-08-06T10:15:07.354Z</time>
      </trkpt>
      <trkpt lat="46.95697" lon="8.73548">
        <ele>1233</ele>
        <time>2021-08-06T10:15:08.355Z</time>
      </trkpt>
      <trkpt lat="46.95698" lon="8.73548">
        <ele>1232</ele>
        <time>2021-08-06T10:15:09.354Z</time>
      </trkpt>
      <trkpt lat="46.95697" lon="8.73547">
        <ele>1232</ele>
        <time>2021-08-06T10:15:10.355Z</time>
      </trkpt>
      <trkpt lat="46.95697" lon="8.73546">
        <ele>1232</ele>
        <time>2021-08-06T10:15:11.355Z</time>
      </trkpt>
      <trkpt lat="46.95697" lon="8.73545">
        <ele>1232</ele>
        <time>2021-08-06T10:15:12.355Z</time>
      </trkpt>
      <trkpt lat="46.95697" lon="8.73544">
        <ele>1232</ele>
        <time>2021-08-06T10:15:13.355Z</time>
      </trkpt>
      <trkpt lat="46.95697" lon="8.73543">
        <ele>1232</ele>
        <time>2021-08-06T10:15:14.355Z</time>
      </trkpt>
      <trkpt lat="46.95696" lon="8.73542">
        <ele>1232</ele>
        <time>2021-08-06T10:15:15.355Z</time>
      </trkpt>
      <trkpt lat="46.95696" lon="8.73541">
        <ele>1232</ele>
        <time>2021-08-06T10:15:16.354Z</time>
      </trkpt>
      <trkpt lat="46.95696" lon="8.7354">
        <ele>1232</ele>
        <time>2021-08-06T10:15:17.355Z</time>
      </trkpt>
      <trkpt lat="46.95696" lon="8.73539">
        <ele>1232</ele>
        <time>2021-08-06T10:15:18.354Z</time>
      </trkpt>
      <trkpt lat="46.95695" lon="8.73538">
        <ele>1232</ele>
        <time>2021-08-06T10:15:19.355Z</time>
      </trkpt>
      <trkpt lat="46.95696" lon="8.73537">
        <ele>1232</ele>
        <time>2021-08-06T10:15:20.355Z</time>
      </trkpt>
      <trkpt lat="46.95696" lon="8.73536">
        <ele>1232</ele>
        <time>2021-08-06T10:15:21.355Z</time>
      </trkpt>
      <trkpt lat="46.95696" lon="8.73534">
        <ele>1231</ele>
        <time>2021-08-06T10:15:22.355Z</time>
      </trkpt>
      <trkpt lat="46.95696" lon="8.73533">
        <ele>1231</ele>
        <time>2021-08-06T10:15:23.355Z</time>
      </trkpt>
      <trkpt lat="46.95696" lon="8.73532">
        <ele>1231</ele>
        <time>2021-08-06T10:15:24.355Z</time>
      </trkpt>
      <trkpt lat="46.95696" lon="8.7353">
        <ele>1231</ele>
        <time>2021-08-06T10:15:25.354Z</time>
      </trkpt>
      <trkpt lat="46.95697" lon="8.73529">
        <ele>1231</ele>
        <time>2021-08-06T10:15:26.355Z</time>
      </trkpt>
      <trkpt lat="46.95698" lon="8.73528">
        <ele>1231</ele>
        <time>2021-08-06T10:15:27.355Z</time>
      </trkpt>
      <trkpt lat="46.95698" lon="8.73527">
        <ele>1231</ele>
        <time>2021-08-06T10:15:28.355Z</time>
      </trkpt>
      <trkpt lat="46.95697" lon="8.73526">
        <ele>1231</ele>
        <time>2021-08-06T10:15:29.355Z</time>
      </trkpt>
      <trkpt lat="46.95696" lon="8.73525">
        <ele>1231</ele>
        <time>2021-08-06T10:15:30.354Z</time>
      </trkpt>
      <trkpt lat="46.95696" lon="8.73523">
        <ele>1231</ele>
        <time>2021-08-06T10:15:31.354Z</time>
      </trkpt>
      <trkpt lat="46.95696" lon="8.73521">
        <ele>1231</ele>
        <time>2021-08-06T10:15:32.354Z</time>
      </trkpt>
      <trkpt lat="46.95696" lon="8.73519">
        <ele>1231</ele>
        <time>2021-08-06T10:15:33.354Z</time>
      </trkpt>
      <trkpt lat="46.95696" lon="8.73518">
        <ele>1231</ele>
        <time>2021-08-06T10:15:34.355Z</time>
      </trkpt>
      <trkpt lat="46.95696" lon="8.73517">
        <ele>1231</ele>
        <time>2021-08-06T10:15:35.354Z</time>
      </trkpt>
      <trkpt lat="46.95696" lon="8.73515">
        <ele>1232</ele>
        <time>2021-08-06T10:15:36.354Z</time>
      </trkpt>
      <trkpt lat="46.95695" lon="8.73515">
        <ele>1232</ele>
        <time>2021-08-06T10:15:37.355Z</time>
      </trkpt>
      <trkpt lat="46.95692" lon="8.73514">
        <ele>1233</ele>
        <time>2021-08-06T10:15:38.355Z</time>
      </trkpt>
      <trkpt lat="46.9569" lon="8.73513">
        <ele>1233</ele>
        <time>2021-08-06T10:15:39.354Z</time>
      </trkpt>
      <trkpt lat="46.9569" lon="8.73514">
        <ele>1233</ele>
        <time>2021-08-06T10:15:40.355Z</time>
      </trkpt>
      <trkpt lat="46.95689" lon="8.73514">
        <ele>1233</ele>
        <time>2021-08-06T10:15:41.354Z</time>
      </trkpt>
      <trkpt lat="46.95688" lon="8.73514">
        <ele>1233</ele>
        <time>2021-08-06T10:15:42.354Z</time>
      </trkpt>
      <trkpt lat="46.95687" lon="8.73514">
        <ele>1233</ele>
        <time>2021-08-06T10:15:43.354Z</time>
      </trkpt>
      <trkpt lat="46.95685" lon="8.73513">
        <ele>1233</ele>
        <time>2021-08-06T10:15:44.355Z</time>
      </trkpt>
      <trkpt lat="46.95684" lon="8.73513">
        <ele>1233</ele>
        <time>2021-08-06T10:15:45.354Z</time>
      </trkpt>
      <trkpt lat="46.95683" lon="8.73512">
        <ele>1233</ele>
        <time>2021-08-06T10:15:46.355Z</time>
      </trkpt>
      <trkpt lat="46.95683" lon="8.73513">
        <ele>1233</ele>
        <time>2021-08-06T10:15:47.355Z</time>
      </trkpt>
      <trkpt lat="46.95683" lon="8.73513">
        <ele>1233</ele>
        <time>2021-08-06T10:15:48.355Z</time>
      </trkpt>
      <trkpt lat="46.95682" lon="8.73513">
        <ele>1233</ele>
        <time>2021-08-06T10:15:49.355Z</time>
      </trkpt>
      <trkpt lat="46.95682" lon="8.73513">
        <ele>1233</ele>
        <time>2021-08-06T10:15:50.355Z</time>
      </trkpt>
      <trkpt lat="46.9568" lon="8.73512">
        <ele>1233</ele>
        <time>2021-08-06T10:15:51.355Z</time>
      </trkpt>
      <trkpt lat="46.9568" lon="8.73512">
        <ele>1233</ele>
        <time>2021-08-06T10:15:52.354Z</time>
      </trkpt>
      <trkpt lat="46.9568" lon="8.73512">
        <ele>1232</ele>
        <time>2021-08-06T10:15:53.355Z</time>
      </trkpt>
      <trkpt lat="46.95678" lon="8.73511">
        <ele>1232</ele>
        <time>2021-08-06T10:15:54.354Z</time>
      </trkpt>
      <trkpt lat="46.95678" lon="8.7351">
        <ele>1232</ele>
        <time>2021-08-06T10:15:55.355Z</time>
      </trkpt>
      <trkpt lat="46.95677" lon="8.7351">
        <ele>1232</ele>
        <time>2021-08-06T10:15:56.354Z</time>
      </trkpt>
      <trkpt lat="46.95676" lon="8.73509">
        <ele>1232</ele>
        <time>2021-08-06T10:15:57.354Z</time>
      </trkpt>
      <trkpt lat="46.95675" lon="8.73508">
        <ele>1232</ele>
        <time>2021-08-06T10:15:58.354Z</time>
      </trkpt>
      <trkpt lat="46.95674" lon="8.73508">
        <ele>1232</ele>
        <time>2021-08-06T10:15:59.355Z</time>
      </trkpt>
      <trkpt lat="46.95673" lon="8.73507">
        <ele>1232</ele>
        <time>2021-08-06T10:16:00.355Z</time>
      </trkpt>
      <trkpt lat="46.95672" lon="8.73507">
        <ele>1233</ele>
        <time>2021-08-06T10:16:01.354Z</time>
      </trkpt>
      <trkpt lat="46.95672" lon="8.73506">
        <ele>1233</ele>
        <time>2021-08-06T10:16:02.354Z</time>
      </trkpt>
      <trkpt lat="46.95672" lon="8.73505">
        <ele>1234</ele>
        <time>2021-08-06T10:16:03.355Z</time>
      </trkpt>
      <trkpt lat="46.95673" lon="8.73504">
        <ele>1234</ele>
        <time>2021-08-06T10:16:04.355Z</time>
      </trkpt>
      <trkpt lat="46.95673" lon="8.73504">
        <ele>1234</ele>
        <time>2021-08-06T10:16:05.355Z</time>
      </trkpt>
      <trkpt lat="46.95674" lon="8.73504">
        <ele>1235</ele>
        <time>2021-08-06T10:16:06.354Z</time>
      </trkpt>
      <trkpt lat="46.95676" lon="8.73503">
        <ele>1235</ele>
        <time>2021-08-06T10:16:07.355Z</time>
      </trkpt>
      <trkpt lat="46.95677" lon="8.73503">
        <ele>1236</ele>
        <time>2021-08-06T10:16:08.354Z</time>
      </trkpt>
      <trkpt lat="46.95678" lon="8.73502">
        <ele>1236</ele>
        <time>2021-08-06T10:16:09.355Z</time>
      </trkpt>
      <trkpt lat="46.95678" lon="8.73502">
        <ele>1237</ele>
        <time>2021-08-06T10:16:10.355Z</time>
      </trkpt>
      <trkpt lat="46.95679" lon="8.73501">
        <ele>1237</ele>
        <time>2021-08-06T10:16:11.354Z</time>
      </trkpt>
      <trkpt lat="46.9568" lon="8.73501">
        <ele>1238</ele>
        <time>2021-08-06T10:16:12.354Z</time>
      </trkpt>
      <trkpt lat="46.95682" lon="8.73502">
        <ele>1238</ele>
        <time>2021-08-06T10:16:13.354Z</time>
      </trkpt>
      <trkpt lat="46.95683" lon="8.73501">
        <ele>1239</ele>
        <time>2021-08-06T10:16:14.355Z</time>
      </trkpt>
      <trkpt lat="46.95684" lon="8.73501">
        <ele>1240</ele>
        <time>2021-08-06T10:16:15.354Z</time>
      </trkpt>
      <trkpt lat="46.95684" lon="8.735">
        <ele>1241</ele>
        <time>2021-08-06T10:16:16.355Z</time>
      </trkpt>
      <trkpt lat="46.95685" lon="8.73499">
        <ele>1241</ele>
        <time>2021-08-06T10:16:17.354Z</time>
      </trkpt>
      <trkpt lat="46.95686" lon="8.73498">
        <ele>1242</ele>
        <time>2021-08-06T10:16:18.354Z</time>
      </trkpt>
      <trkpt lat="46.95688" lon="8.73497">
        <ele>1242</ele>
        <time>2021-08-06T10:16:19.354Z</time>
      </trkpt>
      <trkpt lat="46.95689" lon="8.73496">
        <ele>1243</ele>
        <time>2021-08-06T10:16:20.354Z</time>
      </trkpt>
      <trkpt lat="46.9569" lon="8.73496">
        <ele>1244</ele>
        <time>2021-08-06T10:16:21.354Z</time>
      </trkpt>
      <trkpt lat="46.95691" lon="8.73495">
        <ele>1244</ele>
        <time>2021-08-06T10:16:22.354Z</time>
      </trkpt>
      <trkpt lat="46.95692" lon="8.73494">
        <ele>1245</ele>
        <time>2021-08-06T10:16:23.354Z</time>
      </trkpt>
      <trkpt lat="46.95693" lon="8.73493">
        <ele>1245</ele>
        <time>2021-08-06T10:16:24.355Z</time>
      </trkpt>
      <trkpt lat="46.95694" lon="8.73492">
        <ele>1245</ele>
        <time>2021-08-06T10:16:25.355Z</time>
      </trkpt>
      <trkpt lat="46.95695" lon="8.73492">
        <ele>1246</ele>
        <time>2021-08-06T10:16:26.354Z</time>
      </trkpt>
      <trkpt lat="46.95696" lon="8.73491">
        <ele>1246</ele>
        <time>2021-08-06T10:16:27.355Z</time>
      </trkpt>
      <trkpt lat="46.95696" lon="8.73491">
        <ele>1246</ele>
        <time>2021-08-06T10:16:28.354Z</time>
      </trkpt>
      <trkpt lat="46.95696" lon="8.7349">
        <ele>1245</ele>
        <time>2021-08-06T10:16:29.355Z</time>
      </trkpt>
      <trkpt lat="46.95697" lon="8.7349">
        <ele>1245</ele>
        <time>2021-08-06T10:16:30.355Z</time>
      </trkpt>
      <trkpt lat="46.95697" lon="8.73489">
        <ele>1245</ele>
        <time>2021-08-06T10:16:31.354Z</time>
      </trkpt>
      <trkpt lat="46.95698" lon="8.73488">
        <ele>1244</ele>
        <time>2021-08-06T10:16:32.355Z</time>
      </trkpt>
      <trkpt lat="46.957" lon="8.73488">
        <ele>1244</ele>
        <time>2021-08-06T10:16:33.355Z</time>
      </trkpt>
      <trkpt lat="46.95701" lon="8.73487">
        <ele>1243</ele>
        <time>2021-08-06T10:16:34.355Z</time>
      </trkpt>
      <trkpt lat="46.95702" lon="8.73486">
        <ele>1243</ele>
        <time>2021-08-06T10:16:35.355Z</time>
      </trkpt>
      <trkpt lat="46.95702" lon="8.73486">
        <ele>1242</ele>
        <time>2021-08-06T10:16:36.355Z</time>
      </trkpt>
      <trkpt lat="46.95703" lon="8.73485">
        <ele>1241</ele>
        <time>2021-08-06T10:16:37.355Z</time>
      </trkpt>
      <trkpt lat="46.95704" lon="8.73484">
        <ele>1240</ele>
        <time>2021-08-06T10:16:38.354Z</time>
      </trkpt>
      <trkpt lat="46.95705" lon="8.73484">
        <ele>1240</ele>
        <time>2021-08-06T10:16:39.354Z</time>
      </trkpt>
      <trkpt lat="46.95706" lon="8.73484">
        <ele>1239</ele>
        <time>2021-08-06T10:16:40.355Z</time>
      </trkpt>
      <trkpt lat="46.95706" lon="8.73483">
        <ele>1239</ele>
        <time>2021-08-06T10:16:41.355Z</time>
      </trkpt>
      <trkpt lat="46.95707" lon="8.73483">
        <ele>1238</ele>
        <time>2021-08-06T10:16:42.355Z</time>
      </trkpt>
      <trkpt lat="46.95707" lon="8.73483">
        <ele>1237</ele>
        <time>2021-08-06T10:16:43.355Z</time>
      </trkpt>
      <trkpt lat="46.95708" lon="8.73483">
        <ele>1237</ele>
        <time>2021-08-06T10:16:44.355Z</time>
      </trkpt>
      <trkpt lat="46.95708" lon="8.73483">
        <ele>1236</ele>
        <time>2021-08-06T10:16:45.354Z</time>
      </trkpt>
      <trkpt lat="46.95709" lon="8.73482">
        <ele>1236</ele>
        <time>2021-08-06T10:16:46.355Z</time>
      </trkpt>
      <trkpt lat="46.9571" lon="8.73482">
        <ele>1236</ele>
        <time>2021-08-06T10:16:47.354Z</time>
      </trkpt>
      <trkpt lat="46.95711" lon="8.73482">
        <ele>1236</ele>
        <time>2021-08-06T10:16:48.354Z</time>
      </trkpt>
      <trkpt lat="46.95712" lon="8.73482">
        <ele>1236</ele>
        <time>2021-08-06T10:16:49.355Z</time>
      </trkpt>
      <trkpt lat="46.95712" lon="8.73482">
        <ele>1236</ele>
        <time>2021-08-06T10:16:50.355Z</time>
      </trkpt>
      <trkpt lat="46.95713" lon="8.73482">
        <ele>1236</ele>
        <time>2021-08-06T10:16:51.355Z</time>
      </trkpt>
      <trkpt lat="46.95714" lon="8.73481">
        <ele>1236</ele>
        <time>2021-08-06T10:16:52.355Z</time>
      </trkpt>
      <trkpt lat="46.95715" lon="8.73479">
        <ele>1236</ele>
        <time>2021-08-06T10:16:53.355Z</time>
      </trkpt>
      <trkpt lat="46.95716" lon="8.73477">
        <ele>1236</ele>
        <time>2021-08-06T10:16:54.354Z</time>
      </trkpt>
      <trkpt lat="46.95717" lon="8.73476">
        <ele>1236</ele>
        <time>2021-08-06T10:16:55.355Z</time>
      </trkpt>
      <trkpt lat="46.95718" lon="8.73474">
        <ele>1236</ele>
        <time>2021-08-06T10:16:56.355Z</time>
      </trkpt>
      <trkpt lat="46.95718" lon="8.73472">
        <ele>1237</ele>
        <time>2021-08-06T10:16:57.355Z</time>
      </trkpt>
      <trkpt lat="46.95717" lon="8.73471">
        <ele>1237</ele>
        <time>2021-08-06T10:16:58.355Z</time>
      </trkpt>
      <trkpt lat="46.95715" lon="8.7347">
        <ele>1238</ele>
        <time>2021-08-06T10:16:59.355Z</time>
      </trkpt>
      <trkpt lat="46.95714" lon="8.73469">
        <ele>1238</ele>
        <time>2021-08-06T10:17:00.355Z</time>
      </trkpt>
      <trkpt lat="46.95714" lon="8.73467">
        <ele>1239</ele>
        <time>2021-08-06T10:17:01.354Z</time>
      </trkpt>
      <trkpt lat="46.95712" lon="8.73467">
        <ele>1239</ele>
        <time>2021-08-06T10:17:02.355Z</time>
      </trkpt>
      <trkpt lat="46.95711" lon="8.73466">
        <ele>1240</ele>
        <time>2021-08-06T10:17:03.355Z</time>
      </trkpt>
      <trkpt lat="46.95709" lon="8.73466">
        <ele>1241</ele>
        <time>2021-08-06T10:17:04.355Z</time>
      </trkpt>
      <trkpt lat="46.95707" lon="8.73465">
        <ele>1241</ele>
        <time>2021-08-06T10:17:05.355Z</time>
      </trkpt>
      <trkpt lat="46.95706" lon="8.73464">
        <ele>1242</ele>
        <time>2021-08-06T10:17:06.355Z</time>
      </trkpt>
      <trkpt lat="46.95704" lon="8.73463">
        <ele>1243</ele>
        <time>2021-08-06T10:17:07.354Z</time>
      </trkpt>
      <trkpt lat="46.95703" lon="8.73462">
        <ele>1243</ele>
        <time>2021-08-06T10:17:08.354Z</time>
      </trkpt>
      <trkpt lat="46.95702" lon="8.73462">
        <ele>1244</ele>
        <time>2021-08-06T10:17:09.354Z</time>
      </trkpt>
      <trkpt lat="46.95701" lon="8.73461">
        <ele>1246</ele>
        <time>2021-08-06T10:17:10.354Z</time>
      </trkpt>
      <trkpt lat="46.95701" lon="8.7346">
        <ele>1246</ele>
        <time>2021-08-06T10:17:11.354Z</time>
      </trkpt>
      <trkpt lat="46.957" lon="8.73459">
        <ele>1247</ele>
        <time>2021-08-06T10:17:12.355Z</time>
      </trkpt>
      <trkpt lat="46.95699" lon="8.73458">
        <ele>1248</ele>
        <time>2021-08-06T10:17:13.355Z</time>
      </trkpt>
      <trkpt lat="46.95699" lon="8.73457">
        <ele>1248</ele>
        <time>2021-08-06T10:17:14.355Z</time>
      </trkpt>
      <trkpt lat="46.95699" lon="8.73457">
        <ele>1249</ele>
        <time>2021-08-06T10:17:15.354Z</time>
      </trkpt>
      <trkpt lat="46.95698" lon="8.73456">
        <ele>1249</ele>
        <time>2021-08-06T10:17:16.355Z</time>
      </trkpt>
      <trkpt lat="46.95697" lon="8.73456">
        <ele>1250</ele>
        <time>2021-08-06T10:17:17.355Z</time>
      </trkpt>
      <trkpt lat="46.95695" lon="8.73455">
        <ele>1250</ele>
        <time>2021-08-06T10:17:18.355Z</time>
      </trkpt>
      <trkpt lat="46.95694" lon="8.73454">
        <ele>1251</ele>
        <time>2021-08-06T10:17:19.355Z</time>
      </trkpt>
      <trkpt lat="46.95694" lon="8.73454">
        <ele>1251</ele>
        <time>2021-08-06T10:17:20.354Z</time>
      </trkpt>
      <trkpt lat="46.95694" lon="8.73454">
        <ele>1252</ele>
        <time>2021-08-06T10:17:21.355Z</time>
      </trkpt>
      <trkpt lat="46.95693" lon="8.73453">
        <ele>1252</ele>
        <time>2021-08-06T10:17:22.355Z</time>
      </trkpt>
      <trkpt lat="46.95692" lon="8.73453">
        <ele>1252</ele>
        <time>2021-08-06T10:17:23.354Z</time>
      </trkpt>
      <trkpt lat="46.95691" lon="8.73453">
        <ele>1252</ele>
        <time>2021-08-06T10:17:24.355Z</time>
      </trkpt>
      <trkpt lat="46.9569" lon="8.73452">
        <ele>1252</ele>
        <time>2021-08-06T10:17:25.355Z</time>
      </trkpt>
      <trkpt lat="46.9569" lon="8.73452">
        <ele>1252</ele>
        <time>2021-08-06T10:17:26.355Z</time>
      </trkpt>
      <trkpt lat="46.95689" lon="8.73451">
        <ele>1253</ele>
        <time>2021-08-06T10:17:27.354Z</time>
      </trkpt>
      <trkpt lat="46.95689" lon="8.7345">
        <ele>1253</ele>
        <time>2021-08-06T10:17:28.354Z</time>
      </trkpt>
      <trkpt lat="46.95688" lon="8.7345">
        <ele>1253</ele>
        <time>2021-08-06T10:17:29.355Z</time>
      </trkpt>
      <trkpt lat="46.95687" lon="8.73449">
        <ele>1254</ele>
        <time>2021-08-06T10:17:30.354Z</time>
      </trkpt>
      <trkpt lat="46.95686" lon="8.73449">
        <ele>1254</ele>
        <time>2021-08-06T10:17:31.354Z</time>
      </trkpt>
      <trkpt lat="46.95685" lon="8.73449">
        <ele>1254</ele>
        <time>2021-08-06T10:17:32.354Z</time>
      </trkpt>
      <trkpt lat="46.95685" lon="8.73449">
        <ele>1254</ele>
        <time>2021-08-06T10:17:33.354Z</time>
      </trkpt>
      <trkpt lat="46.95684" lon="8.73447">
        <ele>1254</ele>
        <time>2021-08-06T10:17:34.355Z</time>
      </trkpt>
      <trkpt lat="46.95684" lon="8.73446">
        <ele>1254</ele>
        <time>2021-08-06T10:17:35.354Z</time>
      </trkpt>
      <trkpt lat="46.95683" lon="8.73445">
        <ele>1255</ele>
        <time>2021-08-06T10:17:36.354Z</time>
      </trkpt>
      <trkpt lat="46.95682" lon="8.73445">
        <ele>1255</ele>
        <time>2021-08-06T10:17:37.355Z</time>
      </trkpt>
      <trkpt lat="46.95681" lon="8.73445">
        <ele>1255</ele>
        <time>2021-08-06T10:17:38.354Z</time>
      </trkpt>
      <trkpt lat="46.95681" lon="8.73444">
        <ele>1255</ele>
        <time>2021-08-06T10:17:39.354Z</time>
      </trkpt>
      <trkpt lat="46.9568" lon="8.73444">
        <ele>1256</ele>
        <time>2021-08-06T10:17:40.354Z</time>
      </trkpt>
      <trkpt lat="46.95679" lon="8.73443">
        <ele>1256</ele>
        <time>2021-08-06T10:17:41.355Z</time>
      </trkpt>
      <trkpt lat="46.95678" lon="8.73443">
        <ele>1256</ele>
        <time>2021-08-06T10:17:42.355Z</time>
      </trkpt>
      <trkpt lat="46.95678" lon="8.73442">
        <ele>1256</ele>
        <time>2021-08-06T10:17:43.355Z</time>
      </trkpt>
      <trkpt lat="46.95677" lon="8.73441">
        <ele>1256</ele>
        <time>2021-08-06T10:17:44.355Z</time>
      </trkpt>
      <trkpt lat="46.95677" lon="8.7344">
        <ele>1256</ele>
        <time>2021-08-06T10:17:45.355Z</time>
      </trkpt>
      <trkpt lat="46.95677" lon="8.73439">
        <ele>1257</ele>
        <time>2021-08-06T10:17:46.355Z</time>
      </trkpt>
      <trkpt lat="46.95677" lon="8.73438">
        <ele>1257</ele>
        <time>2021-08-06T10:17:47.355Z</time>
      </trkpt>
      <trkpt lat="46.95677" lon="8.73437">
        <ele>1257</ele>
        <time>2021-08-06T10:17:48.355Z</time>
      </trkpt>
      <trkpt lat="46.95677" lon="8.73436">
        <ele>1257</ele>
        <time>2021-08-06T10:17:49.355Z</time>
      </trkpt>
      <trkpt lat="46.95677" lon="8.73436">
        <ele>1258</ele>
        <time>2021-08-06T10:17:50.355Z</time>
      </trkpt>
      <trkpt lat="46.95676" lon="8.73435">
        <ele>1258</ele>
        <time>2021-08-06T10:17:51.354Z</time>
      </trkpt>
      <trkpt lat="46.95676" lon="8.73434">
        <ele>1258</ele>
        <time>2021-08-06T10:17:52.355Z</time>
      </trkpt>
      <trkpt lat="46.95677" lon="8.73433">
        <ele>1257</ele>
        <time>2021-08-06T10:17:53.355Z</time>
      </trkpt>
      <trkpt lat="46.95676" lon="8.73431">
        <ele>1257</ele>
        <time>2021-08-06T10:17:54.355Z</time>
      </trkpt>
      <trkpt lat="46.95676" lon="8.73431">
        <ele>1257</ele>
        <time>2021-08-06T10:17:55.354Z</time>
      </trkpt>
      <trkpt lat="46.95675" lon="8.73429">
        <ele>1258</ele>
        <time>2021-08-06T10:17:56.355Z</time>
      </trkpt>
      <trkpt lat="46.95674" lon="8.73428">
        <ele>1258</ele>
        <time>2021-08-06T10:17:57.355Z</time>
      </trkpt>
      <trkpt lat="46.95674" lon="8.73427">
        <ele>1258</ele>
        <time>2021-08-06T10:17:58.355Z</time>
      </trkpt>
      <trkpt lat="46.95673" lon="8.73426">
        <ele>1258</ele>
        <time>2021-08-06T10:17:59.354Z</time>
      </trkpt>
      <trkpt lat="46.95673" lon="8.73425">
        <ele>1258</ele>
        <time>2021-08-06T10:18:00.355Z</time>
      </trkpt>
      <trkpt lat="46.95673" lon="8.73425">
        <ele>1258</ele>
        <time>2021-08-06T10:18:01.355Z</time>
      </trkpt>
      <trkpt lat="46.95673" lon="8.73423">
        <ele>1257</ele>
        <time>2021-08-06T10:18:02.355Z</time>
      </trkpt>
      <trkpt lat="46.95673" lon="8.73422">
        <ele>1257</ele>
        <time>2021-08-06T10:18:03.355Z</time>
      </trkpt>
      <trkpt lat="46.95673" lon="8.73421">
        <ele>1257</ele>
        <time>2021-08-06T10:18:04.354Z</time>
      </trkpt>
      <trkpt lat="46.95673" lon="8.7342">
        <ele>1257</ele>
        <time>2021-08-06T10:18:05.354Z</time>
      </trkpt>
      <trkpt lat="46.95673" lon="8.73419">
        <ele>1257</ele>
        <time>2021-08-06T10:18:06.355Z</time>
      </trkpt>
      <trkpt lat="46.95673" lon="8.73418">
        <ele>1256</ele>
        <time>2021-08-06T10:18:07.355Z</time>
      </trkpt>
      <trkpt lat="46.95674" lon="8.73416">
        <ele>1256</ele>
        <time>2021-08-06T10:18:08.354Z</time>
      </trkpt>
      <trkpt lat="46.95673" lon="8.73415">
        <ele>1256</ele>
        <time>2021-08-06T10:18:09.355Z</time>
      </trkpt>
      <trkpt lat="46.95672" lon="8.73414">
        <ele>1255</ele>
        <time>2021-08-06T10:18:10.354Z</time>
      </trkpt>
      <trkpt lat="46.95671" lon="8.73413">
        <ele>1255</ele>
        <time>2021-08-06T10:18:11.354Z</time>
      </trkpt>
      <trkpt lat="46.9567" lon="8.73412">
        <ele>1255</ele>
        <time>2021-08-06T10:18:12.355Z</time>
      </trkpt>
      <trkpt lat="46.9567" lon="8.73412">
        <ele>1255</ele>
        <time>2021-08-06T10:18:13.355Z</time>
      </trkpt>
      <trkpt lat="46.95669" lon="8.73411">
        <ele>1255</ele>
        <time>2021-08-06T10:18:14.354Z</time>
      </trkpt>
      <trkpt lat="46.95668" lon="8.7341">
        <ele>1256</ele>
        <time>2021-08-06T10:18:15.355Z</time>
      </trkpt>
      <trkpt lat="46.95668" lon="8.73409">
        <ele>1256</ele>
        <time>2021-08-06T10:18:16.355Z</time>
      </trkpt>
      <trkpt lat="46.95667" lon="8.73407">
        <ele>1256</ele>
        <time>2021-08-06T10:18:17.355Z</time>
      </trkpt>
      <trkpt lat="46.95666" lon="8.73406">
        <ele>1256</ele>
        <time>2021-08-06T10:18:18.355Z</time>
      </trkpt>
      <trkpt lat="46.95664" lon="8.73405">
        <ele>1256</ele>
        <time>2021-08-06T10:18:19.355Z</time>
      </trkpt>
      <trkpt lat="46.95664" lon="8.73404">
        <ele>1256</ele>
        <time>2021-08-06T10:18:20.355Z</time>
      </trkpt>
      <trkpt lat="46.95663" lon="8.73403">
        <ele>1257</ele>
        <time>2021-08-06T10:18:21.355Z</time>
      </trkpt>
      <trkpt lat="46.95663" lon="8.73402">
        <ele>1257</ele>
        <time>2021-08-06T10:18:22.355Z</time>
      </trkpt>
      <trkpt lat="46.95663" lon="8.73401">
        <ele>1258</ele>
        <time>2021-08-06T10:18:23.355Z</time>
      </trkpt>
      <trkpt lat="46.95662" lon="8.734">
        <ele>1258</ele>
        <time>2021-08-06T10:18:24.355Z</time>
      </trkpt>
      <trkpt lat="46.95662" lon="8.734">
        <ele>1259</ele>
        <time>2021-08-06T10:18:25.355Z</time>
      </trkpt>
      <trkpt lat="46.95661" lon="8.73399">
        <ele>1259</ele>
        <time>2021-08-06T10:18:26.355Z</time>
      </trkpt>
      <trkpt lat="46.9566" lon="8.73398">
        <ele>1259</ele>
        <time>2021-08-06T10:18:27.355Z</time>
      </trkpt>
      <trkpt lat="46.95659" lon="8.73396">
        <ele>1260</ele>
        <time>2021-08-06T10:18:28.355Z</time>
      </trkpt>
      <trkpt lat="46.95658" lon="8.73395">
        <ele>1260</ele>
        <time>2021-08-06T10:18:29.354Z</time>
      </trkpt>
      <trkpt lat="46.95657" lon="8.73394">
        <ele>1260</ele>
        <time>2021-08-06T10:18:30.354Z</time>
      </trkpt>
      <trkpt lat="46.95656" lon="8.73394">
        <ele>1260</ele>
        <time>2021-08-06T10:18:31.355Z</time>
      </trkpt>
      <trkpt lat="46.95655" lon="8.73394">
        <ele>1260</ele>
        <time>2021-08-06T10:18:32.355Z</time>
      </trkpt>
      <trkpt lat="46.95654" lon="8.73393">
        <ele>1260</ele>
        <time>2021-08-06T10:18:33.355Z</time>
      </trkpt>
      <trkpt lat="46.95652" lon="8.73391">
        <ele>1260</ele>
        <time>2021-08-06T10:18:34.355Z</time>
      </trkpt>
      <trkpt lat="46.95652" lon="8.73391">
        <ele>1260</ele>
        <time>2021-08-06T10:18:35.356Z</time>
      </trkpt>
      <trkpt lat="46.95653" lon="8.73391">
        <ele>1259</ele>
        <time>2021-08-06T10:18:36.355Z</time>
      </trkpt>
      <trkpt lat="46.95653" lon="8.7339">
        <ele>1259</ele>
        <time>2021-08-06T10:18:37.356Z</time>
      </trkpt>
      <trkpt lat="46.95654" lon="8.73389">
        <ele>1259</ele>
        <time>2021-08-06T10:18:38.355Z</time>
      </trkpt>
      <trkpt lat="46.95654" lon="8.73389">
        <ele>1259</ele>
        <time>2021-08-06T10:18:39.355Z</time>
      </trkpt>
      <trkpt lat="46.95654" lon="8.73388">
        <ele>1258</ele>
        <time>2021-08-06T10:18:40.356Z</time>
      </trkpt>
      <trkpt lat="46.95654" lon="8.73387">
        <ele>1258</ele>
        <time>2021-08-06T10:18:41.356Z</time>
      </trkpt>
      <trkpt lat="46.95654" lon="8.73386">
        <ele>1258</ele>
        <time>2021-08-06T10:18:42.356Z</time>
      </trkpt>
      <trkpt lat="46.95653" lon="8.73385">
        <ele>1258</ele>
        <time>2021-08-06T10:18:43.356Z</time>
      </trkpt>
      <trkpt lat="46.95653" lon="8.73384">
        <ele>1258</ele>
        <time>2021-08-06T10:18:44.355Z</time>
      </trkpt>
      <trkpt lat="46.95652" lon="8.73383">
        <ele>1258</ele>
        <time>2021-08-06T10:18:45.356Z</time>
      </trkpt>
      <trkpt lat="46.95651" lon="8.73382">
        <ele>1258</ele>
        <time>2021-08-06T10:18:46.356Z</time>
      </trkpt>
      <trkpt lat="46.95651" lon="8.73382">
        <ele>1259</ele>
        <time>2021-08-06T10:18:47.355Z</time>
      </trkpt>
      <trkpt lat="46.9565" lon="8.73381">
        <ele>1259</ele>
        <time>2021-08-06T10:18:48.356Z</time>
      </trkpt>
      <trkpt lat="46.9565" lon="8.7338">
        <ele>1259</ele>
        <time>2021-08-06T10:18:49.356Z</time>
      </trkpt>
      <trkpt lat="46.9565" lon="8.73379">
        <ele>1259</ele>
        <time>2021-08-06T10:18:50.356Z</time>
      </trkpt>
      <trkpt lat="46.95651" lon="8.73379">
        <ele>1260</ele>
        <time>2021-08-06T10:18:51.356Z</time>
      </trkpt>
      <trkpt lat="46.95651" lon="8.73378">
        <ele>1260</ele>
        <time>2021-08-06T10:18:52.355Z</time>
      </trkpt>
      <trkpt lat="46.95651" lon="8.73377">
        <ele>1260</ele>
        <time>2021-08-06T10:18:53.355Z</time>
      </trkpt>
      <trkpt lat="46.9565" lon="8.73376">
        <ele>1260</ele>
        <time>2021-08-06T10:18:54.356Z</time>
      </trkpt>
      <trkpt lat="46.95649" lon="8.73376">
        <ele>1260</ele>
        <time>2021-08-06T10:18:55.356Z</time>
      </trkpt>
      <trkpt lat="46.95648" lon="8.73375">
        <ele>1261</ele>
        <time>2021-08-06T10:18:56.355Z</time>
      </trkpt>
      <trkpt lat="46.95647" lon="8.73374">
        <ele>1261</ele>
        <time>2021-08-06T10:18:57.355Z</time>
      </trkpt>
      <trkpt lat="46.95647" lon="8.73373">
        <ele>1261</ele>
        <time>2021-08-06T10:18:58.356Z</time>
      </trkpt>
      <trkpt lat="46.95646" lon="8.73373">
        <ele>1261</ele>
        <time>2021-08-06T10:18:59.356Z</time>
      </trkpt>
      <trkpt lat="46.95646" lon="8.73372">
        <ele>1261</ele>
        <time>2021-08-06T10:19:00.355Z</time>
      </trkpt>
      <trkpt lat="46.95646" lon="8.73371">
        <ele>1261</ele>
        <time>2021-08-06T10:19:01.355Z</time>
      </trkpt>
      <trkpt lat="46.95645" lon="8.73371">
        <ele>1261</ele>
        <time>2021-08-06T10:19:02.355Z</time>
      </trkpt>
      <trkpt lat="46.95645" lon="8.7337">
        <ele>1262</ele>
        <time>2021-08-06T10:19:03.356Z</time>
      </trkpt>
      <trkpt lat="46.95645" lon="8.7337">
        <ele>1262</ele>
        <time>2021-08-06T10:19:04.356Z</time>
      </trkpt>
      <trkpt lat="46.95645" lon="8.73369">
        <ele>1262</ele>
        <time>2021-08-06T10:19:05.356Z</time>
      </trkpt>
      <trkpt lat="46.95645" lon="8.73369">
        <ele>1262</ele>
        <time>2021-08-06T10:19:06.356Z</time>
      </trkpt>
      <trkpt lat="46.95645" lon="8.73368">
        <ele>1262</ele>
        <time>2021-08-06T10:19:07.355Z</time>
      </trkpt>
      <trkpt lat="46.95645" lon="8.73367">
        <ele>1262</ele>
        <time>2021-08-06T10:19:08.355Z</time>
      </trkpt>
      <trkpt lat="46.95645" lon="8.73367">
        <ele>1262</ele>
        <time>2021-08-06T10:19:09.355Z</time>
      </trkpt>
      <trkpt lat="46.95644" lon="8.73366">
        <ele>1262</ele>
        <time>2021-08-06T10:19:10.356Z</time>
      </trkpt>
      <trkpt lat="46.95643" lon="8.73366">
        <ele>1262</ele>
        <time>2021-08-06T10:19:11.355Z</time>
      </trkpt>
      <trkpt lat="46.95643" lon="8.73365">
        <ele>1263</ele>
        <time>2021-08-06T10:19:12.355Z</time>
      </trkpt>
      <trkpt lat="46.95643" lon="8.73365">
        <ele>1264</ele>
        <time>2021-08-06T10:19:13.356Z</time>
      </trkpt>
      <trkpt lat="46.95643" lon="8.73363">
        <ele>1264</ele>
        <time>2021-08-06T10:19:14.356Z</time>
      </trkpt>
      <trkpt lat="46.95644" lon="8.73363">
        <ele>1264</ele>
        <time>2021-08-06T10:19:15.356Z</time>
      </trkpt>
      <trkpt lat="46.95643" lon="8.73362">
        <ele>1264</ele>
        <time>2021-08-06T10:19:16.356Z</time>
      </trkpt>
      <trkpt lat="46.95643" lon="8.7336">
        <ele>1264</ele>
        <time>2021-08-06T10:19:17.356Z</time>
      </trkpt>
      <trkpt lat="46.95643" lon="8.7336">
        <ele>1264</ele>
        <time>2021-08-06T10:19:18.356Z</time>
      </trkpt>
      <trkpt lat="46.95643" lon="8.73359">
        <ele>1264</ele>
        <time>2021-08-06T10:19:19.356Z</time>
      </trkpt>
      <trkpt lat="46.95643" lon="8.73359">
        <ele>1264</ele>
        <time>2021-08-06T10:19:20.356Z</time>
      </trkpt>
      <trkpt lat="46.95642" lon="8.73359">
        <ele>1263</ele>
        <time>2021-08-06T10:19:21.356Z</time>
      </trkpt>
      <trkpt lat="46.95642" lon="8.73358">
        <ele>1263</ele>
        <time>2021-08-06T10:19:22.355Z</time>
      </trkpt>
      <trkpt lat="46.95642" lon="8.73357">
        <ele>1263</ele>
        <time>2021-08-06T10:19:23.355Z</time>
      </trkpt>
      <trkpt lat="46.95642" lon="8.73357">
        <ele>1263</ele>
        <time>2021-08-06T10:19:24.355Z</time>
      </trkpt>
      <trkpt lat="46.95642" lon="8.73356">
        <ele>1263</ele>
        <time>2021-08-06T10:19:25.355Z</time>
      </trkpt>
      <trkpt lat="46.95641" lon="8.73356">
        <ele>1263</ele>
        <time>2021-08-06T10:19:26.356Z</time>
      </trkpt>
      <trkpt lat="46.95641" lon="8.73355">
        <ele>1263</ele>
        <time>2021-08-06T10:19:27.355Z</time>
      </trkpt>
      <trkpt lat="46.9564" lon="8.73354">
        <ele>1263</ele>
        <time>2021-08-06T10:19:28.356Z</time>
      </trkpt>
      <trkpt lat="46.95639" lon="8.73354">
        <ele>1263</ele>
        <time>2021-08-06T10:19:29.355Z</time>
      </trkpt>
      <trkpt lat="46.95639" lon="8.73353">
        <ele>1263</ele>
        <time>2021-08-06T10:19:30.356Z</time>
      </trkpt>
      <trkpt lat="46.95639" lon="8.73352">
        <ele>1263</ele>
        <time>2021-08-06T10:19:31.356Z</time>
      </trkpt>
      <trkpt lat="46.95639" lon="8.73351">
        <ele>1263</ele>
        <time>2021-08-06T10:19:32.356Z</time>
      </trkpt>
      <trkpt lat="46.95638" lon="8.7335">
        <ele>1263</ele>
        <time>2021-08-06T10:19:33.355Z</time>
      </trkpt>
      <trkpt lat="46.95636" lon="8.73349">
        <ele>1264</ele>
        <time>2021-08-06T10:19:34.356Z</time>
      </trkpt>
      <trkpt lat="46.95636" lon="8.73349">
        <ele>1264</ele>
        <time>2021-08-06T10:19:35.355Z</time>
      </trkpt>
      <trkpt lat="46.95635" lon="8.73348">
        <ele>1264</ele>
        <time>2021-08-06T10:19:36.355Z</time>
      </trkpt>
      <trkpt lat="46.95635" lon="8.73347">
        <ele>1264</ele>
        <time>2021-08-06T10:19:37.355Z</time>
      </trkpt>
      <trkpt lat="46.95636" lon="8.73346">
        <ele>1264</ele>
        <time>2021-08-06T10:19:38.355Z</time>
      </trkpt>
      <trkpt lat="46.95636" lon="8.73345">
        <ele>1264</ele>
        <time>2021-08-06T10:19:39.356Z</time>
      </trkpt>
      <trkpt lat="46.95636" lon="8.73344">
        <ele>1264</ele>
        <time>2021-08-06T10:19:40.355Z</time>
      </trkpt>
      <trkpt lat="46.95636" lon="8.73343">
        <ele>1264</ele>
        <time>2021-08-06T10:19:41.356Z</time>
      </trkpt>
      <trkpt lat="46.95635" lon="8.73342">
        <ele>1265</ele>
        <time>2021-08-06T10:19:42.355Z</time>
      </trkpt>
      <trkpt lat="46.95635" lon="8.73341">
        <ele>1265</ele>
        <time>2021-08-06T10:19:43.355Z</time>
      </trkpt>
      <trkpt lat="46.95634" lon="8.7334">
        <ele>1265</ele>
        <time>2021-08-06T10:19:44.356Z</time>
      </trkpt>
      <trkpt lat="46.95633" lon="8.73339">
        <ele>1265</ele>
        <time>2021-08-06T10:19:45.355Z</time>
      </trkpt>
      <trkpt lat="46.95632" lon="8.73338">
        <ele>1265</ele>
        <time>2021-08-06T10:19:46.355Z</time>
      </trkpt>
      <trkpt lat="46.95631" lon="8.73336">
        <ele>1265</ele>
        <time>2021-08-06T10:19:47.356Z</time>
      </trkpt>
      <trkpt lat="46.95631" lon="8.73335">
        <ele>1265</ele>
        <time>2021-08-06T10:19:48.355Z</time>
      </trkpt>
      <trkpt lat="46.9563" lon="8.73333">
        <ele>1266</ele>
        <time>2021-08-06T10:19:49.356Z</time>
      </trkpt>
      <trkpt lat="46.95629" lon="8.73331">
        <ele>1266</ele>
        <time>2021-08-06T10:19:50.355Z</time>
      </trkpt>
      <trkpt lat="46.95628" lon="8.73329">
        <ele>1266</ele>
        <time>2021-08-06T10:19:51.355Z</time>
      </trkpt>
      <trkpt lat="46.95628" lon="8.73328">
        <ele>1266</ele>
        <time>2021-08-06T10:19:52.355Z</time>
      </trkpt>
      <trkpt lat="46.95627" lon="8.73326">
        <ele>1266</ele>
        <time>2021-08-06T10:19:53.356Z</time>
      </trkpt>
      <trkpt lat="46.95627" lon="8.73325">
        <ele>1267</ele>
        <time>2021-08-06T10:19:54.356Z</time>
      </trkpt>
      <trkpt lat="46.95627" lon="8.73325">
        <ele>1267</ele>
        <time>2021-08-06T10:19:55.356Z</time>
      </trkpt>
      <trkpt lat="46.95628" lon="8.73324">
        <ele>1267</ele>
        <time>2021-08-06T10:19:56.356Z</time>
      </trkpt>
      <trkpt lat="46.95628" lon="8.73324">
        <ele>1267</ele>
        <time>2021-08-06T10:19:57.356Z</time>
      </trkpt>
      <trkpt lat="46.95628" lon="8.73324">
        <ele>1267</ele>
        <time>2021-08-06T10:19:58.355Z</time>
      </trkpt>
      <trkpt lat="46.95628" lon="8.73323">
        <ele>1267</ele>
        <time>2021-08-06T10:19:59.355Z</time>
      </trkpt>
      <trkpt lat="46.95628" lon="8.73322">
        <ele>1267</ele>
        <time>2021-08-06T10:20:00.356Z</time>
      </trkpt>
      <trkpt lat="46.95628" lon="8.73321">
        <ele>1267</ele>
        <time>2021-08-06T10:20:01.355Z</time>
      </trkpt>
      <trkpt lat="46.95628" lon="8.7332">
        <ele>1267</ele>
        <time>2021-08-06T10:20:02.356Z</time>
      </trkpt>
      <trkpt lat="46.95628" lon="8.73319">
        <ele>1266</ele>
        <time>2021-08-06T10:20:03.356Z</time>
      </trkpt>
      <trkpt lat="46.95627" lon="8.73318">
        <ele>1266</ele>
        <time>2021-08-06T10:20:04.355Z</time>
      </trkpt>
      <trkpt lat="46.95627" lon="8.73317">
        <ele>1266</ele>
        <time>2021-08-06T10:20:05.356Z</time>
      </trkpt>
      <trkpt lat="46.95626" lon="8.73317">
        <ele>1266</ele>
        <time>2021-08-06T10:20:06.355Z</time>
      </trkpt>
      <trkpt lat="46.95626" lon="8.73316">
        <ele>1266</ele>
        <time>2021-08-06T10:20:07.356Z</time>
      </trkpt>
      <trkpt lat="46.95626" lon="8.73316">
        <ele>1266</ele>
        <time>2021-08-06T10:20:08.355Z</time>
      </trkpt>
      <trkpt lat="46.95625" lon="8.73315">
        <ele>1266</ele>
        <time>2021-08-06T10:20:09.355Z</time>
      </trkpt>
      <trkpt lat="46.95625" lon="8.73314">
        <ele>1266</ele>
        <time>2021-08-06T10:20:10.355Z</time>
      </trkpt>
      <trkpt lat="46.95625" lon="8.73313">
        <ele>1266</ele>
        <time>2021-08-06T10:20:11.355Z</time>
      </trkpt>
      <trkpt lat="46.95624" lon="8.73312">
        <ele>1266</ele>
        <time>2021-08-06T10:20:12.355Z</time>
      </trkpt>
      <trkpt lat="46.95623" lon="8.73312">
        <ele>1266</ele>
        <time>2021-08-06T10:20:13.356Z</time>
      </trkpt>
      <trkpt lat="46.95623" lon="8.7331">
        <ele>1267</ele>
        <time>2021-08-06T10:20:14.355Z</time>
      </trkpt>
      <trkpt lat="46.95623" lon="8.7331">
        <ele>1267</ele>
        <time>2021-08-06T10:20:15.356Z</time>
      </trkpt>
      <trkpt lat="46.95623" lon="8.73308">
        <ele>1267</ele>
        <time>2021-08-06T10:20:16.355Z</time>
      </trkpt>
      <trkpt lat="46.95622" lon="8.73307">
        <ele>1267</ele>
        <time>2021-08-06T10:20:17.356Z</time>
      </trkpt>
      <trkpt lat="46.95622" lon="8.73305">
        <ele>1267</ele>
        <time>2021-08-06T10:20:18.356Z</time>
      </trkpt>
      <trkpt lat="46.95621" lon="8.73304">
        <ele>1267</ele>
        <time>2021-08-06T10:20:19.355Z</time>
      </trkpt>
      <trkpt lat="46.95621" lon="8.73304">
        <ele>1267</ele>
        <time>2021-08-06T10:20:20.355Z</time>
      </trkpt>
      <trkpt lat="46.9562" lon="8.73303">
        <ele>1268</ele>
        <time>2021-08-06T10:20:21.355Z</time>
      </trkpt>
      <trkpt lat="46.9562" lon="8.73302">
        <ele>1268</ele>
        <time>2021-08-06T10:20:22.356Z</time>
      </trkpt>
      <trkpt lat="46.95619" lon="8.73301">
        <ele>1269</ele>
        <time>2021-08-06T10:20:23.356Z</time>
      </trkpt>
      <trkpt lat="46.95619" lon="8.733">
        <ele>1269</ele>
        <time>2021-08-06T10:20:24.355Z</time>
      </trkpt>
      <trkpt lat="46.95618" lon="8.733">
        <ele>1270</ele>
        <time>2021-08-06T10:20:25.356Z</time>
      </trkpt>
      <trkpt lat="46.95618" lon="8.73299">
        <ele>1271</ele>
        <time>2021-08-06T10:20:26.355Z</time>
      </trkpt>
      <trkpt lat="46.95618" lon="8.73298">
        <ele>1272</ele>
        <time>2021-08-06T10:20:27.356Z</time>
      </trkpt>
      <trkpt lat="46.95618" lon="8.73297">
        <ele>1272</ele>
        <time>2021-08-06T10:20:28.355Z</time>
      </trkpt>
      <trkpt lat="46.95618" lon="8.73296">
        <ele>1273</ele>
        <time>2021-08-06T10:20:29.355Z</time>
      </trkpt>
      <trkpt lat="46.95618" lon="8.73294">
        <ele>1274</ele>
        <time>2021-08-06T10:20:30.356Z</time>
      </trkpt>
      <trkpt lat="46.95618" lon="8.73293">
        <ele>1274</ele>
        <time>2021-08-06T10:20:31.355Z</time>
      </trkpt>
      <trkpt lat="46.95617" lon="8.73292">
        <ele>1274</ele>
        <time>2021-08-06T10:20:32.356Z</time>
      </trkpt>
      <trkpt lat="46.95617" lon="8.73291">
        <ele>1274</ele>
        <time>2021-08-06T10:20:33.355Z</time>
      </trkpt>
      <trkpt lat="46.95617" lon="8.73291">
        <ele>1275</ele>
        <time>2021-08-06T10:20:34.355Z</time>
      </trkpt>
      <trkpt lat="46.95617" lon="8.7329">
        <ele>1275</ele>
        <time>2021-08-06T10:20:35.356Z</time>
      </trkpt>
      <trkpt lat="46.95616" lon="8.7329">
        <ele>1275</ele>
        <time>2021-08-06T10:20:36.355Z</time>
      </trkpt>
      <trkpt lat="46.95616" lon="8.73289">
        <ele>1275</ele>
        <time>2021-08-06T10:20:37.355Z</time>
      </trkpt>
      <trkpt lat="46.95616" lon="8.73288">
        <ele>1275</ele>
        <time>2021-08-06T10:20:38.355Z</time>
      </trkpt>
      <trkpt lat="46.95615" lon="8.73287">
        <ele>1276</ele>
        <time>2021-08-06T10:20:39.355Z</time>
      </trkpt>
      <trkpt lat="46.95614" lon="8.73286">
        <ele>1276</ele>
        <time>2021-08-06T10:20:40.355Z</time>
      </trkpt>
      <trkpt lat="46.95614" lon="8.73285">
        <ele>1277</ele>
        <time>2021-08-06T10:20:41.355Z</time>
      </trkpt>
      <trkpt lat="46.95613" lon="8.73285">
        <ele>1277</ele>
        <time>2021-08-06T10:20:42.356Z</time>
      </trkpt>
      <trkpt lat="46.95613" lon="8.73284">
        <ele>1277</ele>
        <time>2021-08-06T10:20:43.355Z</time>
      </trkpt>
      <trkpt lat="46.95613" lon="8.73284">
        <ele>1277</ele>
        <time>2021-08-06T10:20:44.356Z</time>
      </trkpt>
      <trkpt lat="46.95613" lon="8.73283">
        <ele>1277</ele>
        <time>2021-08-06T10:20:45.355Z</time>
      </trkpt>
      <trkpt lat="46.95613" lon="8.73282">
        <ele>1277</ele>
        <time>2021-08-06T10:20:46.355Z</time>
      </trkpt>
      <trkpt lat="46.95614" lon="8.73281">
        <ele>1277</ele>
        <time>2021-08-06T10:20:47.355Z</time>
      </trkpt>
      <trkpt lat="46.95614" lon="8.73281">
        <ele>1276</ele>
        <time>2021-08-06T10:20:48.355Z</time>
      </trkpt>
      <trkpt lat="46.95613" lon="8.73279">
        <ele>1276</ele>
        <time>2021-08-06T10:20:49.355Z</time>
      </trkpt>
      <trkpt lat="46.95613" lon="8.73278">
        <ele>1275</ele>
        <time>2021-08-06T10:20:50.355Z</time>
      </trkpt>
      <trkpt lat="46.95612" lon="8.73277">
        <ele>1275</ele>
        <time>2021-08-06T10:20:51.355Z</time>
      </trkpt>
      <trkpt lat="46.95611" lon="8.73276">
        <ele>1275</ele>
        <time>2021-08-06T10:20:52.355Z</time>
      </trkpt>
      <trkpt lat="46.95611" lon="8.73276">
        <ele>1275</ele>
        <time>2021-08-06T10:20:53.356Z</time>
      </trkpt>
      <trkpt lat="46.9561" lon="8.73275">
        <ele>1275</ele>
        <time>2021-08-06T10:20:54.355Z</time>
      </trkpt>
      <trkpt lat="46.95609" lon="8.73274">
        <ele>1276</ele>
        <time>2021-08-06T10:20:55.355Z</time>
      </trkpt>
      <trkpt lat="46.95607" lon="8.73273">
        <ele>1277</ele>
        <time>2021-08-06T10:20:56.355Z</time>
      </trkpt>
      <trkpt lat="46.95607" lon="8.73272">
        <ele>1277</ele>
        <time>2021-08-06T10:20:57.356Z</time>
      </trkpt>
      <trkpt lat="46.95606" lon="8.73272">
        <ele>1278</ele>
        <time>2021-08-06T10:20:58.356Z</time>
      </trkpt>
      <trkpt lat="46.95606" lon="8.73271">
        <ele>1278</ele>
        <time>2021-08-06T10:20:59.356Z</time>
      </trkpt>
      <trkpt lat="46.95606" lon="8.7327">
        <ele>1278</ele>
        <time>2021-08-06T10:21:00.355Z</time>
      </trkpt>
      <trkpt lat="46.95606" lon="8.73269">
        <ele>1278</ele>
        <time>2021-08-06T10:21:01.355Z</time>
      </trkpt>
      <trkpt lat="46.95606" lon="8.73268">
        <ele>1277</ele>
        <time>2021-08-06T10:21:02.356Z</time>
      </trkpt>
      <trkpt lat="46.95605" lon="8.73267">
        <ele>1277</ele>
        <time>2021-08-06T10:21:03.355Z</time>
      </trkpt>
      <trkpt lat="46.95605" lon="8.73265">
        <ele>1277</ele>
        <time>2021-08-06T10:21:04.356Z</time>
      </trkpt>
      <trkpt lat="46.95605" lon="8.73264">
        <ele>1276</ele>
        <time>2021-08-06T10:21:05.356Z</time>
      </trkpt>
      <trkpt lat="46.95606" lon="8.73263">
        <ele>1276</ele>
        <time>2021-08-06T10:21:06.355Z</time>
      </trkpt>
      <trkpt lat="46.95606" lon="8.73262">
        <ele>1275</ele>
        <time>2021-08-06T10:21:07.356Z</time>
      </trkpt>
      <trkpt lat="46.95606" lon="8.73261">
        <ele>1275</ele>
        <time>2021-08-06T10:21:08.356Z</time>
      </trkpt>
      <trkpt lat="46.95607" lon="8.73261">
        <ele>1275</ele>
        <time>2021-08-06T10:21:09.355Z</time>
      </trkpt>
      <trkpt lat="46.95607" lon="8.7326">
        <ele>1275</ele>
        <time>2021-08-06T10:21:10.355Z</time>
      </trkpt>
      <trkpt lat="46.95606" lon="8.73261">
        <ele>1276</ele>
        <time>2021-08-06T10:21:11.356Z</time>
      </trkpt>
      <trkpt lat="46.95605" lon="8.73262">
        <ele>1277</ele>
        <time>2021-08-06T10:21:12.356Z</time>
      </trkpt>
      <trkpt lat="46.95605" lon="8.73263">
        <ele>1278</ele>
        <time>2021-08-06T10:21:13.356Z</time>
      </trkpt>
      <trkpt lat="46.95605" lon="8.73263">
        <ele>1279</ele>
        <time>2021-08-06T10:21:14.355Z</time>
      </trkpt>
      <trkpt lat="46.95606" lon="8.73264">
        <ele>1281</ele>
        <time>2021-08-06T10:21:15.355Z</time>
      </trkpt>
      <trkpt lat="46.95607" lon="8.73264">
        <ele>1282</ele>
        <time>2021-08-06T10:21:16.355Z</time>
      </trkpt>
      <trkpt lat="46.95607" lon="8.73264">
        <ele>1283</ele>
        <time>2021-08-06T10:21:17.356Z</time>
      </trkpt>
      <trkpt lat="46.95608" lon="8.73263">
        <ele>1285</ele>
        <time>2021-08-06T10:21:18.355Z</time>
      </trkpt>
      <trkpt lat="46.95608" lon="8.73263">
        <ele>1286</ele>
        <time>2021-08-06T10:21:19.356Z</time>
      </trkpt>
      <trkpt lat="46.95608" lon="8.73264">
        <ele>1287</ele>
        <time>2021-08-06T10:21:20.356Z</time>
      </trkpt>
      <trkpt lat="46.95607" lon="8.73263">
        <ele>1287</ele>
        <time>2021-08-06T10:21:21.355Z</time>
      </trkpt>
      <trkpt lat="46.95606" lon="8.73262">
        <ele>1288</ele>
        <time>2021-08-06T10:21:22.356Z</time>
      </trkpt>
      <trkpt lat="46.95606" lon="8.73261">
        <ele>1288</ele>
        <time>2021-08-06T10:21:23.356Z</time>
      </trkpt>
      <trkpt lat="46.95607" lon="8.7326">
        <ele>1285</ele>
        <time>2021-08-06T10:21:24.355Z</time>
      </trkpt>
      <trkpt lat="46.95607" lon="8.7326">
        <ele>1285</ele>
        <time>2021-08-06T10:21:25.356Z</time>
      </trkpt>
      <trkpt lat="46.95606" lon="8.73259">
        <ele>1285</ele>
        <time>2021-08-06T10:21:26.355Z</time>
      </trkpt>
      <trkpt lat="46.95605" lon="8.73259">
        <ele>1285</ele>
        <time>2021-08-06T10:21:27.355Z</time>
      </trkpt>
      <trkpt lat="46.95605" lon="8.73259">
        <ele>1285</ele>
        <time>2021-08-06T10:21:28.356Z</time>
      </trkpt>
      <trkpt lat="46.95604" lon="8.73259">
        <ele>1285</ele>
        <time>2021-08-06T10:21:29.355Z</time>
      </trkpt>
      <trkpt lat="46.95604" lon="8.73259">
        <ele>1285</ele>
        <time>2021-08-06T10:21:30.355Z</time>
      </trkpt>
      <trkpt lat="46.95604" lon="8.7326">
        <ele>1288</ele>
        <time>2021-08-06T10:21:31.355Z</time>
      </trkpt>
      <trkpt lat="46.95604" lon="8.7326">
        <ele>1288</ele>
        <time>2021-08-06T10:21:32.356Z</time>
      </trkpt>
      <trkpt lat="46.95604" lon="8.7326">
        <ele>1288</ele>
        <time>2021-08-06T10:21:33.355Z</time>
      </trkpt>
      <trkpt lat="46.95604" lon="8.7326">
        <ele>1288</ele>
        <time>2021-08-06T10:21:34.356Z</time>
      </trkpt>
      <trkpt lat="46.95604" lon="8.7326">
        <ele>1288</ele>
        <time>2021-08-06T10:21:35.355Z</time>
      </trkpt>
      <trkpt lat="46.95605" lon="8.73261">
        <ele>1285</ele>
        <time>2021-08-06T10:21:36.356Z</time>
      </trkpt>
      <trkpt lat="46.95605" lon="8.73261">
        <ele>1285</ele>
        <time>2021-08-06T10:21:37.355Z</time>
      </trkpt>
      <trkpt lat="46.95605" lon="8.73261">
        <ele>1285</ele>
        <time>2021-08-06T10:21:38.356Z</time>
      </trkpt>
      <trkpt lat="46.95605" lon="8.73261">
        <ele>1285</ele>
        <time>2021-08-06T10:21:39.356Z</time>
      </trkpt>
      <trkpt lat="46.95605" lon="8.73261">
        <ele>1285</ele>
        <time>2021-08-06T10:21:40.356Z</time>
      </trkpt>
      <trkpt lat="46.95603" lon="8.73258">
        <ele>1284</ele>
        <time>2021-08-06T10:21:41.356Z</time>
      </trkpt>
      <trkpt lat="46.95604" lon="8.73258">
        <ele>1283</ele>
        <time>2021-08-06T10:21:42.356Z</time>
      </trkpt>
      <trkpt lat="46.95604" lon="8.73259">
        <ele>1283</ele>
        <time>2021-08-06T10:21:43.356Z</time>
      </trkpt>
      <trkpt lat="46.95602" lon="8.73262">
        <ele>1284</ele>
        <time>2021-08-06T10:21:44.357Z</time>
      </trkpt>
      <trkpt lat="46.95601" lon="8.73262">
        <ele>1284</ele>
        <time>2021-08-06T10:21:45.356Z</time>
      </trkpt>
      <trkpt lat="46.95601" lon="8.73262">
        <ele>1283</ele>
        <time>2021-08-06T10:21:46.356Z</time>
      </trkpt>
      <trkpt lat="46.95601" lon="8.73262">
        <ele>1283</ele>
        <time>2021-08-06T10:21:47.356Z</time>
      </trkpt>
      <trkpt lat="46.956" lon="8.73258">
        <ele>1282</ele>
        <time>2021-08-06T10:21:48.356Z</time>
      </trkpt>
      <trkpt lat="46.95599" lon="8.73257">
        <ele>1282</ele>
        <time>2021-08-06T10:21:49.356Z</time>
      </trkpt>
      <trkpt lat="46.95599" lon="8.73256">
        <ele>1282</ele>
        <time>2021-08-06T10:21:50.357Z</time>
      </trkpt>
      <trkpt lat="46.95599" lon="8.73255">
        <ele>1282</ele>
        <time>2021-08-06T10:21:51.356Z</time>
      </trkpt>
      <trkpt lat="46.95599" lon="8.73254">
        <ele>1282</ele>
        <time>2021-08-06T10:21:52.356Z</time>
      </trkpt>
      <trkpt lat="46.95599" lon="8.73253">
        <ele>1282</ele>
        <time>2021-08-06T10:21:53.356Z</time>
      </trkpt>
      <trkpt lat="46.95598" lon="8.73251">
        <ele>1282</ele>
        <time>2021-08-06T10:21:54.356Z</time>
      </trkpt>
      <trkpt lat="46.95598" lon="8.7325">
        <ele>1282</ele>
        <time>2021-08-06T10:21:55.356Z</time>
      </trkpt>
      <trkpt lat="46.95597" lon="8.73249">
        <ele>1282</ele>
        <time>2021-08-06T10:21:56.356Z</time>
      </trkpt>
      <trkpt lat="46.95597" lon="8.73249">
        <ele>1282</ele>
        <time>2021-08-06T10:21:57.356Z</time>
      </trkpt>
      <trkpt lat="46.95597" lon="8.73248">
        <ele>1282</ele>
        <time>2021-08-06T10:21:58.356Z</time>
      </trkpt>
      <trkpt lat="46.95597" lon="8.73247">
        <ele>1282</ele>
        <time>2021-08-06T10:21:59.357Z</time>
      </trkpt>
      <trkpt lat="46.95597" lon="8.73247">
        <ele>1282</ele>
        <time>2021-08-06T10:22:00.356Z</time>
      </trkpt>
      <trkpt lat="46.95598" lon="8.73247">
        <ele>1282</ele>
        <time>2021-08-06T10:22:01.356Z</time>
      </trkpt>
      <trkpt lat="46.95598" lon="8.73247">
        <ele>1282</ele>
        <time>2021-08-06T10:22:02.356Z</time>
      </trkpt>
      <trkpt lat="46.95598" lon="8.73246">
        <ele>1282</ele>
        <time>2021-08-06T10:22:03.356Z</time>
      </trkpt>
      <trkpt lat="46.95598" lon="8.73244">
        <ele>1282</ele>
        <time>2021-08-06T10:22:04.357Z</time>
      </trkpt>
      <trkpt lat="46.95597" lon="8.73243">
        <ele>1281</ele>
        <time>2021-08-06T10:22:05.357Z</time>
      </trkpt>
      <trkpt lat="46.95596" lon="8.73242">
        <ele>1282</ele>
        <time>2021-08-06T10:22:06.356Z</time>
      </trkpt>
      <trkpt lat="46.95596" lon="8.73241">
        <ele>1282</ele>
        <time>2021-08-06T10:22:07.356Z</time>
      </trkpt>
      <trkpt lat="46.95595" lon="8.7324">
        <ele>1282</ele>
        <time>2021-08-06T10:22:08.356Z</time>
      </trkpt>
      <trkpt lat="46.95595" lon="8.7324">
        <ele>1283</ele>
        <time>2021-08-06T10:22:09.356Z</time>
      </trkpt>
      <trkpt lat="46.95594" lon="8.73239">
        <ele>1283</ele>
        <time>2021-08-06T10:22:10.356Z</time>
      </trkpt>
      <trkpt lat="46.95594" lon="8.73239">
        <ele>1283</ele>
        <time>2021-08-06T10:22:11.356Z</time>
      </trkpt>
      <trkpt lat="46.95594" lon="8.73238">
        <ele>1283</ele>
        <time>2021-08-06T10:22:12.356Z</time>
      </trkpt>
      <trkpt lat="46.95594" lon="8.73237">
        <ele>1282</ele>
        <time>2021-08-06T10:22:13.356Z</time>
      </trkpt>
      <trkpt lat="46.95594" lon="8.73237">
        <ele>1282</ele>
        <time>2021-08-06T10:22:14.356Z</time>
      </trkpt>
      <trkpt lat="46.95594" lon="8.73237">
        <ele>1282</ele>
        <time>2021-08-06T10:22:15.357Z</time>
      </trkpt>
      <trkpt lat="46.95593" lon="8.73236">
        <ele>1282</ele>
        <time>2021-08-06T10:22:16.356Z</time>
      </trkpt>
      <trkpt lat="46.95593" lon="8.73235">
        <ele>1283</ele>
        <time>2021-08-06T10:22:17.356Z</time>
      </trkpt>
      <trkpt lat="46.95593" lon="8.73235">
        <ele>1283</ele>
        <time>2021-08-06T10:22:18.356Z</time>
      </trkpt>
      <trkpt lat="46.95592" lon="8.73234">
        <ele>1283</ele>
        <time>2021-08-06T10:22:19.356Z</time>
      </trkpt>
      <trkpt lat="46.95592" lon="8.73234">
        <ele>1283</ele>
        <time>2021-08-06T10:22:20.357Z</time>
      </trkpt>
      <trkpt lat="46.95592" lon="8.73233">
        <ele>1283</ele>
        <time>2021-08-06T10:22:21.356Z</time>
      </trkpt>
      <trkpt lat="46.95592" lon="8.73232">
        <ele>1282</ele>
        <time>2021-08-06T10:22:22.356Z</time>
      </trkpt>
      <trkpt lat="46.95591" lon="8.73231">
        <ele>1281</ele>
        <time>2021-08-06T10:22:23.356Z</time>
      </trkpt>
      <trkpt lat="46.95591" lon="8.73231">
        <ele>1281</ele>
        <time>2021-08-06T10:22:24.357Z</time>
      </trkpt>
      <trkpt lat="46.95591" lon="8.7323">
        <ele>1281</ele>
        <time>2021-08-06T10:22:25.356Z</time>
      </trkpt>
      <trkpt lat="46.9559" lon="8.7323">
        <ele>1281</ele>
        <time>2021-08-06T10:22:26.356Z</time>
      </trkpt>
      <trkpt lat="46.9559" lon="8.73229">
        <ele>1281</ele>
        <time>2021-08-06T10:22:27.356Z</time>
      </trkpt>
      <trkpt lat="46.9559" lon="8.73229">
        <ele>1281</ele>
        <time>2021-08-06T10:22:28.356Z</time>
      </trkpt>
      <trkpt lat="46.9559" lon="8.73228">
        <ele>1281</ele>
        <time>2021-08-06T10:22:29.356Z</time>
      </trkpt>
      <trkpt lat="46.9559" lon="8.73227">
        <ele>1282</ele>
        <time>2021-08-06T10:22:30.356Z</time>
      </trkpt>
      <trkpt lat="46.9559" lon="8.73226">
        <ele>1282</ele>
        <time>2021-08-06T10:22:31.356Z</time>
      </trkpt>
      <trkpt lat="46.95589" lon="8.73226">
        <ele>1282</ele>
        <time>2021-08-06T10:22:32.357Z</time>
      </trkpt>
      <trkpt lat="46.95589" lon="8.73225">
        <ele>1282</ele>
        <time>2021-08-06T10:22:33.356Z</time>
      </trkpt>
      <trkpt lat="46.95589" lon="8.73225">
        <ele>1281</ele>
        <time>2021-08-06T10:22:34.356Z</time>
      </trkpt>
      <trkpt lat="46.95588" lon="8.73224">
        <ele>1281</ele>
        <time>2021-08-06T10:22:35.356Z</time>
      </trkpt>
      <trkpt lat="46.95588" lon="8.73224">
        <ele>1280</ele>
        <time>2021-08-06T10:22:36.356Z</time>
      </trkpt>
      <trkpt lat="46.95588" lon="8.73224">
        <ele>1279</ele>
        <time>2021-08-06T10:22:37.356Z</time>
      </trkpt>
      <trkpt lat="46.95588" lon="8.73224">
        <ele>1279</ele>
        <time>2021-08-06T10:22:38.356Z</time>
      </trkpt>
      <trkpt lat="46.95588" lon="8.73223">
        <ele>1279</ele>
        <time>2021-08-06T10:22:39.357Z</time>
      </trkpt>
      <trkpt lat="46.95587" lon="8.73223">
        <ele>1278</ele>
        <time>2021-08-06T10:22:40.356Z</time>
      </trkpt>
      <trkpt lat="46.95587" lon="8.73222">
        <ele>1278</ele>
        <time>2021-08-06T10:22:41.356Z</time>
      </trkpt>
      <trkpt lat="46.95587" lon="8.73222">
        <ele>1278</ele>
        <time>2021-08-06T10:22:42.357Z</time>
      </trkpt>
      <trkpt lat="46.95587" lon="8.73221">
        <ele>1278</ele>
        <time>2021-08-06T10:22:43.356Z</time>
      </trkpt>
      <trkpt lat="46.95586" lon="8.7322">
        <ele>1278</ele>
        <time>2021-08-06T10:22:44.357Z</time>
      </trkpt>
      <trkpt lat="46.95586" lon="8.7322">
        <ele>1279</ele>
        <time>2021-08-06T10:22:45.356Z</time>
      </trkpt>
      <trkpt lat="46.95586" lon="8.73219">
        <ele>1279</ele>
        <time>2021-08-06T10:22:46.356Z</time>
      </trkpt>
      <trkpt lat="46.95586" lon="8.73218">
        <ele>1280</ele>
        <time>2021-08-06T10:22:47.356Z</time>
      </trkpt>
      <trkpt lat="46.95585" lon="8.73217">
        <ele>1281</ele>
        <time>2021-08-06T10:22:48.356Z</time>
      </trkpt>
      <trkpt lat="46.95585" lon="8.73217">
        <ele>1282</ele>
        <time>2021-08-06T10:22:49.356Z</time>
      </trkpt>
      <trkpt lat="46.95585" lon="8.73216">
        <ele>1282</ele>
        <time>2021-08-06T10:22:50.356Z</time>
      </trkpt>
      <trkpt lat="46.95585" lon="8.73216">
        <ele>1283</ele>
        <time>2021-08-06T10:22:51.356Z</time>
      </trkpt>
      <trkpt lat="46.95585" lon="8.73215">
        <ele>1283</ele>
        <time>2021-08-06T10:22:52.357Z</time>
      </trkpt>
      <trkpt lat="46.95585" lon="8.73214">
        <ele>1283</ele>
        <time>2021-08-06T10:22:53.356Z</time>
      </trkpt>
      <trkpt lat="46.95585" lon="8.73213">
        <ele>1283</ele>
        <time>2021-08-06T10:22:54.356Z</time>
      </trkpt>
      <trkpt lat="46.95584" lon="8.73213">
        <ele>1284</ele>
        <time>2021-08-06T10:22:55.357Z</time>
      </trkpt>
      <trkpt lat="46.95584" lon="8.73212">
        <ele>1284</ele>
        <time>2021-08-06T10:22:56.356Z</time>
      </trkpt>
      <trkpt lat="46.95584" lon="8.73212">
        <ele>1285</ele>
        <time>2021-08-06T10:22:57.357Z</time>
      </trkpt>
      <trkpt lat="46.95584" lon="8.73211">
        <ele>1285</ele>
        <time>2021-08-06T10:22:58.356Z</time>
      </trkpt>
      <trkpt lat="46.95584" lon="8.7321">
        <ele>1285</ele>
        <time>2021-08-06T10:22:59.357Z</time>
      </trkpt>
      <trkpt lat="46.95583" lon="8.7321">
        <ele>1284</ele>
        <time>2021-08-06T10:23:00.356Z</time>
      </trkpt>
      <trkpt lat="46.95583" lon="8.73209">
        <ele>1284</ele>
        <time>2021-08-06T10:23:01.356Z</time>
      </trkpt>
      <trkpt lat="46.95583" lon="8.73209">
        <ele>1284</ele>
        <time>2021-08-06T10:23:02.356Z</time>
      </trkpt>
      <trkpt lat="46.95583" lon="8.73208">
        <ele>1283</ele>
        <time>2021-08-06T10:23:03.356Z</time>
      </trkpt>
      <trkpt lat="46.95583" lon="8.73207">
        <ele>1283</ele>
        <time>2021-08-06T10:23:04.356Z</time>
      </trkpt>
      <trkpt lat="46.95583" lon="8.73206">
        <ele>1283</ele>
        <time>2021-08-06T10:23:05.356Z</time>
      </trkpt>
      <trkpt lat="46.95582" lon="8.73206">
        <ele>1283</ele>
        <time>2021-08-06T10:23:06.356Z</time>
      </trkpt>
      <trkpt lat="46.95582" lon="8.73205">
        <ele>1283</ele>
        <time>2021-08-06T10:23:07.356Z</time>
      </trkpt>
      <trkpt lat="46.95581" lon="8.73205">
        <ele>1283</ele>
        <time>2021-08-06T10:23:08.356Z</time>
      </trkpt>
      <trkpt lat="46.9558" lon="8.73205">
        <ele>1282</ele>
        <time>2021-08-06T10:23:09.356Z</time>
      </trkpt>
      <trkpt lat="46.9558" lon="8.73204">
        <ele>1282</ele>
        <time>2021-08-06T10:23:10.356Z</time>
      </trkpt>
      <trkpt lat="46.9558" lon="8.73203">
        <ele>1281</ele>
        <time>2021-08-06T10:23:11.356Z</time>
      </trkpt>
      <trkpt lat="46.9558" lon="8.73203">
        <ele>1281</ele>
        <time>2021-08-06T10:23:12.356Z</time>
      </trkpt>
      <trkpt lat="46.9558" lon="8.73202">
        <ele>1280</ele>
        <time>2021-08-06T10:23:13.357Z</time>
      </trkpt>
      <trkpt lat="46.95579" lon="8.73202">
        <ele>1280</ele>
        <time>2021-08-06T10:23:14.357Z</time>
      </trkpt>
      <trkpt lat="46.95579" lon="8.73201">
        <ele>1280</ele>
        <time>2021-08-06T10:23:15.356Z</time>
      </trkpt>
      <trkpt lat="46.9558" lon="8.73201">
        <ele>1280</ele>
        <time>2021-08-06T10:23:16.356Z</time>
      </trkpt>
      <trkpt lat="46.95579" lon="8.732">
        <ele>1283</ele>
        <time>2021-08-06T10:23:17.356Z</time>
      </trkpt>
      <trkpt lat="46.95578" lon="8.732">
        <ele>1284</ele>
        <time>2021-08-06T10:23:18.357Z</time>
      </trkpt>
      <trkpt lat="46.95578" lon="8.73199">
        <ele>1284</ele>
        <time>2021-08-06T10:23:19.357Z</time>
      </trkpt>
      <trkpt lat="46.95577" lon="8.73198">
        <ele>1285</ele>
        <time>2021-08-06T10:23:20.357Z</time>
      </trkpt>
      <trkpt lat="46.95577" lon="8.73197">
        <ele>1285</ele>
        <time>2021-08-06T10:23:21.356Z</time>
      </trkpt>
      <trkpt lat="46.95576" lon="8.73197">
        <ele>1285</ele>
        <time>2021-08-06T10:23:22.356Z</time>
      </trkpt>
      <trkpt lat="46.95576" lon="8.73196">
        <ele>1285</ele>
        <time>2021-08-06T10:23:23.357Z</time>
      </trkpt>
      <trkpt lat="46.95576" lon="8.73196">
        <ele>1285</ele>
        <time>2021-08-06T10:23:24.356Z</time>
      </trkpt>
      <trkpt lat="46.95575" lon="8.73195">
        <ele>1284</ele>
        <time>2021-08-06T10:23:25.356Z</time>
      </trkpt>
      <trkpt lat="46.95575" lon="8.73194">
        <ele>1284</ele>
        <time>2021-08-06T10:23:26.356Z</time>
      </trkpt>
      <trkpt lat="46.95575" lon="8.73194">
        <ele>1284</ele>
        <time>2021-08-06T10:23:27.356Z</time>
      </trkpt>
      <trkpt lat="46.95575" lon="8.73193">
        <ele>1284</ele>
        <time>2021-08-06T10:23:28.357Z</time>
      </trkpt>
      <trkpt lat="46.95575" lon="8.73192">
        <ele>1284</ele>
        <time>2021-08-06T10:23:29.356Z</time>
      </trkpt>
      <trkpt lat="46.95575" lon="8.73191">
        <ele>1285</ele>
        <time>2021-08-06T10:23:30.357Z</time>
      </trkpt>
      <trkpt lat="46.95574" lon="8.73191">
        <ele>1285</ele>
        <time>2021-08-06T10:23:31.356Z</time>
      </trkpt>
      <trkpt lat="46.95574" lon="8.7319">
        <ele>1286</ele>
        <time>2021-08-06T10:23:32.356Z</time>
      </trkpt>
      <trkpt lat="46.95574" lon="8.73189">
        <ele>1286</ele>
        <time>2021-08-06T10:23:33.357Z</time>
      </trkpt>
      <trkpt lat="46.95574" lon="8.73188">
        <ele>1286</ele>
        <time>2021-08-06T10:23:34.356Z</time>
      </trkpt>
      <trkpt lat="46.95574" lon="8.73187">
        <ele>1286</ele>
        <time>2021-08-06T10:23:35.357Z</time>
      </trkpt>
      <trkpt lat="46.95574" lon="8.73186">
        <ele>1286</ele>
        <time>2021-08-06T10:23:36.356Z</time>
      </trkpt>
      <trkpt lat="46.95574" lon="8.73185">
        <ele>1286</ele>
        <time>2021-08-06T10:23:37.357Z</time>
      </trkpt>
      <trkpt lat="46.95574" lon="8.73184">
        <ele>1286</ele>
        <time>2021-08-06T10:23:38.356Z</time>
      </trkpt>
      <trkpt lat="46.95574" lon="8.73183">
        <ele>1286</ele>
        <time>2021-08-06T10:23:39.356Z</time>
      </trkpt>
      <trkpt lat="46.95574" lon="8.73182">
        <ele>1287</ele>
        <time>2021-08-06T10:23:40.356Z</time>
      </trkpt>
      <trkpt lat="46.95573" lon="8.73182">
        <ele>1287</ele>
        <time>2021-08-06T10:23:41.356Z</time>
      </trkpt>
      <trkpt lat="46.95573" lon="8.73181">
        <ele>1287</ele>
        <time>2021-08-06T10:23:42.356Z</time>
      </trkpt>
      <trkpt lat="46.95573" lon="8.73181">
        <ele>1288</ele>
        <time>2021-08-06T10:23:43.356Z</time>
      </trkpt>
      <trkpt lat="46.95573" lon="8.7318">
        <ele>1288</ele>
        <time>2021-08-06T10:23:44.356Z</time>
      </trkpt>
      <trkpt lat="46.95573" lon="8.73179">
        <ele>1289</ele>
        <time>2021-08-06T10:23:45.357Z</time>
      </trkpt>
      <trkpt lat="46.95573" lon="8.73178">
        <ele>1290</ele>
        <time>2021-08-06T10:23:46.356Z</time>
      </trkpt>
      <trkpt lat="46.95573" lon="8.73177">
        <ele>1290</ele>
        <time>2021-08-06T10:23:47.356Z</time>
      </trkpt>
      <trkpt lat="46.95573" lon="8.73176">
        <ele>1289</ele>
        <time>2021-08-06T10:23:48.356Z</time>
      </trkpt>
      <trkpt lat="46.95573" lon="8.73175">
        <ele>1289</ele>
        <time>2021-08-06T10:23:49.357Z</time>
      </trkpt>
      <trkpt lat="46.95572" lon="8.73174">
        <ele>1289</ele>
        <time>2021-08-06T10:23:50.357Z</time>
      </trkpt>
      <trkpt lat="46.95572" lon="8.73173">
        <ele>1288</ele>
        <time>2021-08-06T10:23:51.357Z</time>
      </trkpt>
      <trkpt lat="46.95572" lon="8.73171">
        <ele>1287</ele>
        <time>2021-08-06T10:23:52.356Z</time>
      </trkpt>
      <trkpt lat="46.95572" lon="8.73171">
        <ele>1286</ele>
        <time>2021-08-06T10:23:53.357Z</time>
      </trkpt>
      <trkpt lat="46.95571" lon="8.7317">
        <ele>1287</ele>
        <time>2021-08-06T10:23:54.356Z</time>
      </trkpt>
      <trkpt lat="46.95571" lon="8.73169">
        <ele>1287</ele>
        <time>2021-08-06T10:23:55.356Z</time>
      </trkpt>
      <trkpt lat="46.95571" lon="8.73168">
        <ele>1288</ele>
        <time>2021-08-06T10:23:56.357Z</time>
      </trkpt>
      <trkpt lat="46.95571" lon="8.73167">
        <ele>1288</ele>
        <time>2021-08-06T10:23:57.357Z</time>
      </trkpt>
      <trkpt lat="46.95571" lon="8.73166">
        <ele>1288</ele>
        <time>2021-08-06T10:23:58.356Z</time>
      </trkpt>
      <trkpt lat="46.95571" lon="8.73165">
        <ele>1289</ele>
        <time>2021-08-06T10:23:59.357Z</time>
      </trkpt>
      <trkpt lat="46.95571" lon="8.73163">
        <ele>1289</ele>
        <time>2021-08-06T10:24:00.356Z</time>
      </trkpt>
      <trkpt lat="46.95571" lon="8.73162">
        <ele>1289</ele>
        <time>2021-08-06T10:24:01.356Z</time>
      </trkpt>
      <trkpt lat="46.95571" lon="8.73161">
        <ele>1289</ele>
        <time>2021-08-06T10:24:02.356Z</time>
      </trkpt>
      <trkpt lat="46.95571" lon="8.7316">
        <ele>1289</ele>
        <time>2021-08-06T10:24:03.356Z</time>
      </trkpt>
      <trkpt lat="46.9557" lon="8.73159">
        <ele>1289</ele>
        <time>2021-08-06T10:24:04.357Z</time>
      </trkpt>
      <trkpt lat="46.9557" lon="8.73158">
        <ele>1289</ele>
        <time>2021-08-06T10:24:05.357Z</time>
      </trkpt>
      <trkpt lat="46.95568" lon="8.73157">
        <ele>1290</ele>
        <time>2021-08-06T10:24:06.356Z</time>
      </trkpt>
      <trkpt lat="46.95568" lon="8.73156">
        <ele>1290</ele>
        <time>2021-08-06T10:24:07.356Z</time>
      </trkpt>
      <trkpt lat="46.95568" lon="8.73155">
        <ele>1291</ele>
        <time>2021-08-06T10:24:08.357Z</time>
      </trkpt>
      <trkpt lat="46.95568" lon="8.73154">
        <ele>1292</ele>
        <time>2021-08-06T10:24:09.357Z</time>
      </trkpt>
      <trkpt lat="46.95568" lon="8.73153">
        <ele>1292</ele>
        <time>2021-08-06T10:24:10.356Z</time>
      </trkpt>
      <trkpt lat="46.95568" lon="8.73152">
        <ele>1293</ele>
        <time>2021-08-06T10:24:11.357Z</time>
      </trkpt>
      <trkpt lat="46.95568" lon="8.7315">
        <ele>1293</ele>
        <time>2021-08-06T10:24:12.357Z</time>
      </trkpt>
      <trkpt lat="46.95568" lon="8.73149">
        <ele>1294</ele>
        <time>2021-08-06T10:24:13.356Z</time>
      </trkpt>
      <trkpt lat="46.95568" lon="8.73147">
        <ele>1294</ele>
        <time>2021-08-06T10:24:14.357Z</time>
      </trkpt>
      <trkpt lat="46.95567" lon="8.73146">
        <ele>1294</ele>
        <time>2021-08-06T10:24:15.356Z</time>
      </trkpt>
      <trkpt lat="46.95567" lon="8.73146">
        <ele>1295</ele>
        <time>2021-08-06T10:24:16.356Z</time>
      </trkpt>
      <trkpt lat="46.95567" lon="8.73145">
        <ele>1295</ele>
        <time>2021-08-06T10:24:17.357Z</time>
      </trkpt>
      <trkpt lat="46.95567" lon="8.73144">
        <ele>1295</ele>
        <time>2021-08-06T10:24:18.357Z</time>
      </trkpt>
      <trkpt lat="46.95567" lon="8.73144">
        <ele>1295</ele>
        <time>2021-08-06T10:24:19.357Z</time>
      </trkpt>
      <trkpt lat="46.95567" lon="8.73143">
        <ele>1295</ele>
        <time>2021-08-06T10:24:20.356Z</time>
      </trkpt>
      <trkpt lat="46.95567" lon="8.73142">
        <ele>1294</ele>
        <time>2021-08-06T10:24:21.356Z</time>
      </trkpt>
      <trkpt lat="46.95567" lon="8.73142">
        <ele>1294</ele>
        <time>2021-08-06T10:24:22.357Z</time>
      </trkpt>
      <trkpt lat="46.95567" lon="8.73141">
        <ele>1293</ele>
        <time>2021-08-06T10:24:23.356Z</time>
      </trkpt>
      <trkpt lat="46.95566" lon="8.7314">
        <ele>1292</ele>
        <time>2021-08-06T10:24:24.357Z</time>
      </trkpt>
      <trkpt lat="46.95566" lon="8.73139">
        <ele>1292</ele>
        <time>2021-08-06T10:24:25.357Z</time>
      </trkpt>
      <trkpt lat="46.95566" lon="8.73139">
        <ele>1291</ele>
        <time>2021-08-06T10:24:26.356Z</time>
      </trkpt>
      <trkpt lat="46.95566" lon="8.73138">
        <ele>1291</ele>
        <time>2021-08-06T10:24:27.356Z</time>
      </trkpt>
      <trkpt lat="46.95566" lon="8.73137">
        <ele>1291</ele>
        <time>2021-08-06T10:24:28.357Z</time>
      </trkpt>
      <trkpt lat="46.95566" lon="8.73135">
        <ele>1292</ele>
        <time>2021-08-06T10:24:29.357Z</time>
      </trkpt>
      <trkpt lat="46.95566" lon="8.73135">
        <ele>1292</ele>
        <time>2021-08-06T10:24:30.357Z</time>
      </trkpt>
      <trkpt lat="46.95565" lon="8.73134">
        <ele>1293</ele>
        <time>2021-08-06T10:24:31.356Z</time>
      </trkpt>
      <trkpt lat="46.95565" lon="8.73133">
        <ele>1293</ele>
        <time>2021-08-06T10:24:32.356Z</time>
      </trkpt>
      <trkpt lat="46.95565" lon="8.73133">
        <ele>1294</ele>
        <time>2021-08-06T10:24:33.357Z</time>
      </trkpt>
      <trkpt lat="46.95565" lon="8.73132">
        <ele>1295</ele>
        <time>2021-08-06T10:24:34.357Z</time>
      </trkpt>
      <trkpt lat="46.95564" lon="8.73131">
        <ele>1295</ele>
        <time>2021-08-06T10:24:35.356Z</time>
      </trkpt>
      <trkpt lat="46.95564" lon="8.7313">
        <ele>1296</ele>
        <time>2021-08-06T10:24:36.357Z</time>
      </trkpt>
      <trkpt lat="46.95564" lon="8.73128">
        <ele>1296</ele>
        <time>2021-08-06T10:24:37.356Z</time>
      </trkpt>
      <trkpt lat="46.95564" lon="8.73127">
        <ele>1296</ele>
        <time>2021-08-06T10:24:38.356Z</time>
      </trkpt>
      <trkpt lat="46.95563" lon="8.73127">
        <ele>1297</ele>
        <time>2021-08-06T10:24:39.356Z</time>
      </trkpt>
      <trkpt lat="46.95562" lon="8.73127">
        <ele>1297</ele>
        <time>2021-08-06T10:24:40.357Z</time>
      </trkpt>
      <trkpt lat="46.95562" lon="8.73127">
        <ele>1297</ele>
        <time>2021-08-06T10:24:41.357Z</time>
      </trkpt>
      <trkpt lat="46.95562" lon="8.73126">
        <ele>1297</ele>
        <time>2021-08-06T10:24:42.357Z</time>
      </trkpt>
      <trkpt lat="46.95562" lon="8.73125">
        <ele>1297</ele>
        <time>2021-08-06T10:24:43.357Z</time>
      </trkpt>
      <trkpt lat="46.95561" lon="8.73124">
        <ele>1297</ele>
        <time>2021-08-06T10:24:44.356Z</time>
      </trkpt>
      <trkpt lat="46.95561" lon="8.73123">
        <ele>1298</ele>
        <time>2021-08-06T10:24:45.356Z</time>
      </trkpt>
      <trkpt lat="46.95561" lon="8.73122">
        <ele>1299</ele>
        <time>2021-08-06T10:24:46.356Z</time>
      </trkpt>
      <trkpt lat="46.9556" lon="8.7312">
        <ele>1300</ele>
        <time>2021-08-06T10:24:47.356Z</time>
      </trkpt>
      <trkpt lat="46.9556" lon="8.73119">
        <ele>1300</ele>
        <time>2021-08-06T10:24:48.357Z</time>
      </trkpt>
      <trkpt lat="46.9556" lon="8.73118">
        <ele>1301</ele>
        <time>2021-08-06T10:24:49.357Z</time>
      </trkpt>
      <trkpt lat="46.95559" lon="8.73117">
        <ele>1301</ele>
        <time>2021-08-06T10:24:50.357Z</time>
      </trkpt>
      <trkpt lat="46.95559" lon="8.73117">
        <ele>1301</ele>
        <time>2021-08-06T10:24:51.356Z</time>
      </trkpt>
      <trkpt lat="46.95559" lon="8.73115">
        <ele>1301</ele>
        <time>2021-08-06T10:24:52.356Z</time>
      </trkpt>
      <trkpt lat="46.95559" lon="8.73114">
        <ele>1301</ele>
        <time>2021-08-06T10:24:53.356Z</time>
      </trkpt>
      <trkpt lat="46.95559" lon="8.73113">
        <ele>1301</ele>
        <time>2021-08-06T10:24:54.356Z</time>
      </trkpt>
      <trkpt lat="46.95559" lon="8.73111">
        <ele>1301</ele>
        <time>2021-08-06T10:24:55.357Z</time>
      </trkpt>
      <trkpt lat="46.95559" lon="8.7311">
        <ele>1301</ele>
        <time>2021-08-06T10:24:56.356Z</time>
      </trkpt>
      <trkpt lat="46.95559" lon="8.73109">
        <ele>1302</ele>
        <time>2021-08-06T10:24:57.357Z</time>
      </trkpt>
      <trkpt lat="46.95558" lon="8.73109">
        <ele>1302</ele>
        <time>2021-08-06T10:24:58.357Z</time>
      </trkpt>
      <trkpt lat="46.95558" lon="8.73108">
        <ele>1302</ele>
        <time>2021-08-06T10:24:59.356Z</time>
      </trkpt>
      <trkpt lat="46.95557" lon="8.73107">
        <ele>1302</ele>
        <time>2021-08-06T10:25:00.357Z</time>
      </trkpt>
      <trkpt lat="46.95556" lon="8.73106">
        <ele>1302</ele>
        <time>2021-08-06T10:25:01.357Z</time>
      </trkpt>
      <trkpt lat="46.95556" lon="8.73105">
        <ele>1301</ele>
        <time>2021-08-06T10:25:02.356Z</time>
      </trkpt>
      <trkpt lat="46.95555" lon="8.73104">
        <ele>1301</ele>
        <time>2021-08-06T10:25:03.356Z</time>
      </trkpt>
      <trkpt lat="46.95554" lon="8.73104">
        <ele>1300</ele>
        <time>2021-08-06T10:25:04.357Z</time>
      </trkpt>
      <trkpt lat="46.95553" lon="8.73103">
        <ele>1300</ele>
        <time>2021-08-06T10:25:05.356Z</time>
      </trkpt>
      <trkpt lat="46.95553" lon="8.73102">
        <ele>1300</ele>
        <time>2021-08-06T10:25:06.356Z</time>
      </trkpt>
      <trkpt lat="46.95552" lon="8.731">
        <ele>1300</ele>
        <time>2021-08-06T10:25:07.356Z</time>
      </trkpt>
      <trkpt lat="46.95552" lon="8.73099">
        <ele>1299</ele>
        <time>2021-08-06T10:25:08.356Z</time>
      </trkpt>
      <trkpt lat="46.95552" lon="8.73098">
        <ele>1299</ele>
        <time>2021-08-06T10:25:09.356Z</time>
      </trkpt>
      <trkpt lat="46.95552" lon="8.73096">
        <ele>1299</ele>
        <time>2021-08-06T10:25:10.356Z</time>
      </trkpt>
      <trkpt lat="46.95551" lon="8.73095">
        <ele>1298</ele>
        <time>2021-08-06T10:25:11.356Z</time>
      </trkpt>
      <trkpt lat="46.95551" lon="8.73094">
        <ele>1298</ele>
        <time>2021-08-06T10:25:12.356Z</time>
      </trkpt>
      <trkpt lat="46.9555" lon="8.73093">
        <ele>1299</ele>
        <time>2021-08-06T10:25:13.357Z</time>
      </trkpt>
      <trkpt lat="46.9555" lon="8.73093">
        <ele>1299</ele>
        <time>2021-08-06T10:25:14.357Z</time>
      </trkpt>
      <trkpt lat="46.95549" lon="8.73092">
        <ele>1300</ele>
        <time>2021-08-06T10:25:15.356Z</time>
      </trkpt>
      <trkpt lat="46.95549" lon="8.73091">
        <ele>1300</ele>
        <time>2021-08-06T10:25:16.357Z</time>
      </trkpt>
      <trkpt lat="46.95549" lon="8.7309">
        <ele>1301</ele>
        <time>2021-08-06T10:25:17.356Z</time>
      </trkpt>
      <trkpt lat="46.95548" lon="8.73089">
        <ele>1302</ele>
        <time>2021-08-06T10:25:18.357Z</time>
      </trkpt>
      <trkpt lat="46.95548" lon="8.73088">
        <ele>1303</ele>
        <time>2021-08-06T10:25:19.357Z</time>
      </trkpt>
      <trkpt lat="46.95548" lon="8.73087">
        <ele>1303</ele>
        <time>2021-08-06T10:25:20.356Z</time>
      </trkpt>
      <trkpt lat="46.95547" lon="8.73085">
        <ele>1303</ele>
        <time>2021-08-06T10:25:21.356Z</time>
      </trkpt>
      <trkpt lat="46.95547" lon="8.73084">
        <ele>1303</ele>
        <time>2021-08-06T10:25:22.357Z</time>
      </trkpt>
      <trkpt lat="46.95547" lon="8.73083">
        <ele>1303</ele>
        <time>2021-08-06T10:25:23.357Z</time>
      </trkpt>
      <trkpt lat="46.95546" lon="8.73082">
        <ele>1303</ele>
        <time>2021-08-06T10:25:24.356Z</time>
      </trkpt>
      <trkpt lat="46.95545" lon="8.73081">
        <ele>1303</ele>
        <time>2021-08-06T10:25:25.356Z</time>
      </trkpt>
      <trkpt lat="46.95544" lon="8.73081">
        <ele>1303</ele>
        <time>2021-08-06T10:25:26.356Z</time>
      </trkpt>
      <trkpt lat="46.95544" lon="8.7308">
        <ele>1304</ele>
        <time>2021-08-06T10:25:27.357Z</time>
      </trkpt>
      <trkpt lat="46.95543" lon="8.73079">
        <ele>1304</ele>
        <time>2021-08-06T10:25:28.357Z</time>
      </trkpt>
      <trkpt lat="46.95542" lon="8.73078">
        <ele>1304</ele>
        <time>2021-08-06T10:25:29.356Z</time>
      </trkpt>
      <trkpt lat="46.95541" lon="8.73077">
        <ele>1304</ele>
        <time>2021-08-06T10:25:30.356Z</time>
      </trkpt>
      <trkpt lat="46.9554" lon="8.73076">
        <ele>1304</ele>
        <time>2021-08-06T10:25:31.356Z</time>
      </trkpt>
      <trkpt lat="46.95539" lon="8.73075">
        <ele>1304</ele>
        <time>2021-08-06T10:25:32.356Z</time>
      </trkpt>
      <trkpt lat="46.95538" lon="8.73075">
        <ele>1304</ele>
        <time>2021-08-06T10:25:33.356Z</time>
      </trkpt>
      <trkpt lat="46.95537" lon="8.73074">
        <ele>1304</ele>
        <time>2021-08-06T10:25:34.356Z</time>
      </trkpt>
      <trkpt lat="46.95536" lon="8.73073">
        <ele>1304</ele>
        <time>2021-08-06T10:25:35.357Z</time>
      </trkpt>
      <trkpt lat="46.95535" lon="8.73072">
        <ele>1305</ele>
        <time>2021-08-06T10:25:36.356Z</time>
      </trkpt>
      <trkpt lat="46.95534" lon="8.73071">
        <ele>1306</ele>
        <time>2021-08-06T10:25:37.357Z</time>
      </trkpt>
      <trkpt lat="46.95533" lon="8.7307">
        <ele>1306</ele>
        <time>2021-08-06T10:25:38.356Z</time>
      </trkpt>
      <trkpt lat="46.95531" lon="8.7307">
        <ele>1306</ele>
        <time>2021-08-06T10:25:39.356Z</time>
      </trkpt>
      <trkpt lat="46.9553" lon="8.7307">
        <ele>1306</ele>
        <time>2021-08-06T10:25:40.356Z</time>
      </trkpt>
      <trkpt lat="46.95529" lon="8.73069">
        <ele>1305</ele>
        <time>2021-08-06T10:25:41.356Z</time>
      </trkpt>
      <trkpt lat="46.95528" lon="8.73069">
        <ele>1305</ele>
        <time>2021-08-06T10:25:42.356Z</time>
      </trkpt>
      <trkpt lat="46.95527" lon="8.73069">
        <ele>1306</ele>
        <time>2021-08-06T10:25:43.357Z</time>
      </trkpt>
      <trkpt lat="46.95526" lon="8.73069">
        <ele>1306</ele>
        <time>2021-08-06T10:25:44.356Z</time>
      </trkpt>
      <trkpt lat="46.95525" lon="8.73068">
        <ele>1306</ele>
        <time>2021-08-06T10:25:45.357Z</time>
      </trkpt>
      <trkpt lat="46.95525" lon="8.73068">
        <ele>1306</ele>
        <time>2021-08-06T10:26:11.474Z</time>
      </trkpt>
      <trkpt lat="46.95524" lon="8.73068">
        <ele>1306</ele>
        <time>2021-08-06T10:26:12.474Z</time>
      </trkpt>
      <trkpt lat="46.95522" lon="8.73068">
        <ele>1306</ele>
        <time>2021-08-06T10:26:27.355Z</time>
      </trkpt>
      <trkpt lat="46.95521" lon="8.73068">
        <ele>1306</ele>
        <time>2021-08-06T10:26:38.216Z</time>
      </trkpt>
      <trkpt lat="46.9552" lon="8.73067">
        <ele>1305</ele>
        <time>2021-08-06T10:26:39.217Z</time>
      </trkpt>
      <trkpt lat="46.9552" lon="8.73067">
        <ele>1305</ele>
        <time>2021-08-06T10:26:40.217Z</time>
      </trkpt>
      <trkpt lat="46.95519" lon="8.73067">
        <ele>1304</ele>
        <time>2021-08-06T10:26:41.216Z</time>
      </trkpt>
      <trkpt lat="46.95518" lon="8.73067">
        <ele>1303</ele>
        <time>2021-08-06T10:26:42.216Z</time>
      </trkpt>
      <trkpt lat="46.95517" lon="8.73067">
        <ele>1303</ele>
        <time>2021-08-06T10:26:56.342Z</time>
      </trkpt>
      <trkpt lat="46.95516" lon="8.73066">
        <ele>1302</ele>
        <time>2021-08-06T10:26:57.342Z</time>
      </trkpt>
      <trkpt lat="46.95516" lon="8.73066">
        <ele>1302</ele>
        <time>2021-08-06T10:26:58.343Z</time>
      </trkpt>
      <trkpt lat="46.95515" lon="8.73066">
        <ele>1302</ele>
        <time>2021-08-06T10:27:23.461Z</time>
      </trkpt>
      <trkpt lat="46.95514" lon="8.73065">
        <ele>1302</ele>
        <time>2021-08-06T10:27:24.462Z</time>
      </trkpt>
      <trkpt lat="46.95513" lon="8.73065">
        <ele>1302</ele>
        <time>2021-08-06T10:27:25.462Z</time>
      </trkpt>
      <trkpt lat="46.95513" lon="8.73064">
        <ele>1302</ele>
        <time>2021-08-06T10:27:26.461Z</time>
      </trkpt>
      <trkpt lat="46.95512" lon="8.73063">
        <ele>1303</ele>
        <time>2021-08-06T10:27:27.462Z</time>
      </trkpt>
      <trkpt lat="46.95511" lon="8.73062">
        <ele>1304</ele>
        <time>2021-08-06T10:27:30.578Z</time>
      </trkpt>
      <trkpt lat="46.95511" lon="8.73062">
        <ele>1304</ele>
        <time>2021-08-06T10:27:31.579Z</time>
      </trkpt>
      <trkpt lat="46.9551" lon="8.73061">
        <ele>1305</ele>
        <time>2021-08-06T10:27:38.487Z</time>
      </trkpt>
      <trkpt lat="46.95509" lon="8.7306">
        <ele>1306</ele>
        <time>2021-08-06T10:27:39.488Z</time>
      </trkpt>
      <trkpt lat="46.95509" lon="8.73059">
        <ele>1306</ele>
        <time>2021-08-06T10:27:40.487Z</time>
      </trkpt>
      <trkpt lat="46.95508" lon="8.73059">
        <ele>1307</ele>
        <time>2021-08-06T10:27:41.488Z</time>
      </trkpt>
      <trkpt lat="46.95508" lon="8.73058">
        <ele>1307</ele>
        <time>2021-08-06T10:27:42.487Z</time>
      </trkpt>
      <trkpt lat="46.95507" lon="8.73057">
        <ele>1307</ele>
        <time>2021-08-06T10:27:43.487Z</time>
      </trkpt>
      <trkpt lat="46.95507" lon="8.73057">
        <ele>1307</ele>
        <time>2021-08-06T10:27:44.487Z</time>
      </trkpt>
      <trkpt lat="46.95506" lon="8.73056">
        <ele>1308</ele>
        <time>2021-08-06T10:27:49.592Z</time>
      </trkpt>
      <trkpt lat="46.95506" lon="8.73055">
        <ele>1307</ele>
        <time>2021-08-06T10:27:50.593Z</time>
      </trkpt>
      <trkpt lat="46.95506" lon="8.73054">
        <ele>1307</ele>
        <time>2021-08-06T10:28:00.471Z</time>
      </trkpt>
      <trkpt lat="46.95505" lon="8.73053">
        <ele>1307</ele>
        <time>2021-08-06T10:28:01.471Z</time>
      </trkpt>
      <trkpt lat="46.95505" lon="8.73053">
        <ele>1306</ele>
        <time>2021-08-06T10:28:02.471Z</time>
      </trkpt>
      <trkpt lat="46.95504" lon="8.73052">
        <ele>1305</ele>
        <time>2021-08-06T10:28:03.472Z</time>
      </trkpt>
      <trkpt lat="46.95504" lon="8.73052">
        <ele>1305</ele>
        <time>2021-08-06T10:28:04.471Z</time>
      </trkpt>
      <trkpt lat="46.95503" lon="8.73051">
        <ele>1305</ele>
        <time>2021-08-06T10:28:05.472Z</time>
      </trkpt>
      <trkpt lat="46.95503" lon="8.73051">
        <ele>1305</ele>
        <time>2021-08-06T10:28:06.471Z</time>
      </trkpt>
      <trkpt lat="46.95503" lon="8.7305">
        <ele>1305</ele>
        <time>2021-08-06T10:28:07.472Z</time>
      </trkpt>
      <trkpt lat="46.95502" lon="8.73049">
        <ele>1305</ele>
        <time>2021-08-06T10:28:08.472Z</time>
      </trkpt>
      <trkpt lat="46.95502" lon="8.73048">
        <ele>1305</ele>
        <time>2021-08-06T10:28:09.471Z</time>
      </trkpt>
      <trkpt lat="46.95502" lon="8.73048">
        <ele>1305</ele>
        <time>2021-08-06T10:28:10.472Z</time>
      </trkpt>
      <trkpt lat="46.95501" lon="8.73047">
        <ele>1306</ele>
        <time>2021-08-06T10:28:11.471Z</time>
      </trkpt>
      <trkpt lat="46.95501" lon="8.73047">
        <ele>1306</ele>
        <time>2021-08-06T10:28:12.471Z</time>
      </trkpt>
      <trkpt lat="46.95501" lon="8.73046">
        <ele>1307</ele>
        <time>2021-08-06T10:28:13.472Z</time>
      </trkpt>
      <trkpt lat="46.955" lon="8.73046">
        <ele>1307</ele>
        <time>2021-08-06T10:28:14.471Z</time>
      </trkpt>
      <trkpt lat="46.955" lon="8.73045">
        <ele>1307</ele>
        <time>2021-08-06T10:28:15.472Z</time>
      </trkpt>
      <trkpt lat="46.955" lon="8.73045">
        <ele>1307</ele>
        <time>2021-08-06T10:28:16.472Z</time>
      </trkpt>
      <trkpt lat="46.95499" lon="8.73044">
        <ele>1307</ele>
        <time>2021-08-06T10:28:17.472Z</time>
      </trkpt>
      <trkpt lat="46.95499" lon="8.73043">
        <ele>1307</ele>
        <time>2021-08-06T10:28:18.471Z</time>
      </trkpt>
      <trkpt lat="46.95499" lon="8.73043">
        <ele>1306</ele>
        <time>2021-08-06T10:28:19.471Z</time>
      </trkpt>
      <trkpt lat="46.95499" lon="8.73042">
        <ele>1306</ele>
        <time>2021-08-06T10:28:20.472Z</time>
      </trkpt>
      <trkpt lat="46.95498" lon="8.73041">
        <ele>1306</ele>
        <time>2021-08-06T10:28:21.471Z</time>
      </trkpt>
      <trkpt lat="46.95498" lon="8.7304">
        <ele>1305</ele>
        <time>2021-08-06T10:28:22.471Z</time>
      </trkpt>
      <trkpt lat="46.95497" lon="8.73039">
        <ele>1305</ele>
        <time>2021-08-06T10:28:23.472Z</time>
      </trkpt>
      <trkpt lat="46.95497" lon="8.73038">
        <ele>1305</ele>
        <time>2021-08-06T10:28:24.471Z</time>
      </trkpt>
      <trkpt lat="46.95496" lon="8.73037">
        <ele>1305</ele>
        <time>2021-08-06T10:28:25.471Z</time>
      </trkpt>
      <trkpt lat="46.95496" lon="8.73036">
        <ele>1305</ele>
        <time>2021-08-06T10:28:26.471Z</time>
      </trkpt>
      <trkpt lat="46.95496" lon="8.73034">
        <ele>1306</ele>
        <time>2021-08-06T10:28:27.471Z</time>
      </trkpt>
      <trkpt lat="46.95496" lon="8.73033">
        <ele>1306</ele>
        <time>2021-08-06T10:28:28.471Z</time>
      </trkpt>
      <trkpt lat="46.95496" lon="8.73032">
        <ele>1306</ele>
        <time>2021-08-06T10:28:29.471Z</time>
      </trkpt>
      <trkpt lat="46.95496" lon="8.73032">
        <ele>1306</ele>
        <time>2021-08-06T10:28:30.472Z</time>
      </trkpt>
      <trkpt lat="46.95495" lon="8.73031">
        <ele>1306</ele>
        <time>2021-08-06T10:28:31.471Z</time>
      </trkpt>
      <trkpt lat="46.95495" lon="8.73031">
        <ele>1306</ele>
        <time>2021-08-06T10:28:40.590Z</time>
      </trkpt>
      <trkpt lat="46.95495" lon="8.7303">
        <ele>1305</ele>
        <time>2021-08-06T10:28:41.590Z</time>
      </trkpt>
      <trkpt lat="46.95495" lon="8.73029">
        <ele>1306</ele>
        <time>2021-08-06T10:28:42.590Z</time>
      </trkpt>
      <trkpt lat="46.95495" lon="8.73028">
        <ele>1307</ele>
        <time>2021-08-06T10:28:43.590Z</time>
      </trkpt>
      <trkpt lat="46.95495" lon="8.73026">
        <ele>1307</ele>
        <time>2021-08-06T10:28:53.690Z</time>
      </trkpt>
      <trkpt lat="46.95494" lon="8.73026">
        <ele>1308</ele>
        <time>2021-08-06T10:28:54.690Z</time>
      </trkpt>
      <trkpt lat="46.95494" lon="8.73025">
        <ele>1309</ele>
        <time>2021-08-06T10:28:55.691Z</time>
      </trkpt>
      <trkpt lat="46.95494" lon="8.73024">
        <ele>1309</ele>
        <time>2021-08-06T10:28:56.691Z</time>
      </trkpt>
      <trkpt lat="46.95494" lon="8.73024">
        <ele>1310</ele>
        <time>2021-08-06T10:28:57.690Z</time>
      </trkpt>
      <trkpt lat="46.95494" lon="8.73024">
        <ele>1310</ele>
        <time>2021-08-06T10:28:58.691Z</time>
      </trkpt>
      <trkpt lat="46.95494" lon="8.73023">
        <ele>1310</ele>
        <time>2021-08-06T10:28:59.691Z</time>
      </trkpt>
      <trkpt lat="46.95494" lon="8.73022">
        <ele>1309</ele>
        <time>2021-08-06T10:29:00.690Z</time>
      </trkpt>
      <trkpt lat="46.95493" lon="8.73022">
        <ele>1310</ele>
        <time>2021-08-06T10:29:01.691Z</time>
      </trkpt>
      <trkpt lat="46.95493" lon="8.73021">
        <ele>1310</ele>
        <time>2021-08-06T10:29:02.690Z</time>
      </trkpt>
      <trkpt lat="46.95493" lon="8.73021">
        <ele>1310</ele>
        <time>2021-08-06T10:29:11.715Z</time>
      </trkpt>
      <trkpt lat="46.95493" lon="8.7302">
        <ele>1309</ele>
        <time>2021-08-06T10:29:12.715Z</time>
      </trkpt>
      <trkpt lat="46.95492" lon="8.73019">
        <ele>1309</ele>
        <time>2021-08-06T10:29:13.715Z</time>
      </trkpt>
      <trkpt lat="46.95492" lon="8.73018">
        <ele>1309</ele>
        <time>2021-08-06T10:29:14.715Z</time>
      </trkpt>
      <trkpt lat="46.95492" lon="8.73017">
        <ele>1309</ele>
        <time>2021-08-06T10:29:15.715Z</time>
      </trkpt>
      <trkpt lat="46.95492" lon="8.73016">
        <ele>1308</ele>
        <time>2021-08-06T10:29:16.715Z</time>
      </trkpt>
      <trkpt lat="46.95491" lon="8.73015">
        <ele>1308</ele>
        <time>2021-08-06T10:29:17.715Z</time>
      </trkpt>
      <trkpt lat="46.95491" lon="8.73014">
        <ele>1309</ele>
        <time>2021-08-06T10:29:18.715Z</time>
      </trkpt>
      <trkpt lat="46.9549" lon="8.73013">
        <ele>1310</ele>
        <time>2021-08-06T10:29:19.715Z</time>
      </trkpt>
      <trkpt lat="46.9549" lon="8.73012">
        <ele>1310</ele>
        <time>2021-08-06T10:29:20.715Z</time>
      </trkpt>
      <trkpt lat="46.95489" lon="8.73012">
        <ele>1311</ele>
        <time>2021-08-06T10:29:21.716Z</time>
      </trkpt>
      <trkpt lat="46.95489" lon="8.73011">
        <ele>1311</ele>
        <time>2021-08-06T10:29:22.715Z</time>
      </trkpt>
      <trkpt lat="46.95488" lon="8.7301">
        <ele>1311</ele>
        <time>2021-08-06T10:29:23.715Z</time>
      </trkpt>
      <trkpt lat="46.95488" lon="8.73009">
        <ele>1312</ele>
        <time>2021-08-06T10:29:24.715Z</time>
      </trkpt>
      <trkpt lat="46.95488" lon="8.73008">
        <ele>1312</ele>
        <time>2021-08-06T10:29:25.715Z</time>
      </trkpt>
      <trkpt lat="46.95487" lon="8.73007">
        <ele>1313</ele>
        <time>2021-08-06T10:29:26.716Z</time>
      </trkpt>
      <trkpt lat="46.95487" lon="8.73006">
        <ele>1313</ele>
        <time>2021-08-06T10:29:27.715Z</time>
      </trkpt>
      <trkpt lat="46.95487" lon="8.73005">
        <ele>1313</ele>
        <time>2021-08-06T10:29:28.715Z</time>
      </trkpt>
      <trkpt lat="46.95486" lon="8.73004">
        <ele>1313</ele>
        <time>2021-08-06T10:29:29.715Z</time>
      </trkpt>
      <trkpt lat="46.95485" lon="8.73003">
        <ele>1313</ele>
        <time>2021-08-06T10:29:30.716Z</time>
      </trkpt>
      <trkpt lat="46.95485" lon="8.73003">
        <ele>1313</ele>
        <time>2021-08-06T10:29:31.715Z</time>
      </trkpt>
      <trkpt lat="46.95485" lon="8.73002">
        <ele>1313</ele>
        <time>2021-08-06T10:29:32.715Z</time>
      </trkpt>
      <trkpt lat="46.95484" lon="8.73001">
        <ele>1313</ele>
        <time>2021-08-06T10:29:33.715Z</time>
      </trkpt>
      <trkpt lat="46.95484" lon="8.73">
        <ele>1313</ele>
        <time>2021-08-06T10:29:34.715Z</time>
      </trkpt>
      <trkpt lat="46.95483" lon="8.73">
        <ele>1313</ele>
        <time>2021-08-06T10:29:35.715Z</time>
      </trkpt>
      <trkpt lat="46.95483" lon="8.72999">
        <ele>1313</ele>
        <time>2021-08-06T10:29:36.715Z</time>
      </trkpt>
      <trkpt lat="46.95483" lon="8.72999">
        <ele>1313</ele>
        <time>2021-08-06T10:29:37.716Z</time>
      </trkpt>
      <trkpt lat="46.95482" lon="8.72998">
        <ele>1314</ele>
        <time>2021-08-06T10:29:38.716Z</time>
      </trkpt>
      <trkpt lat="46.95482" lon="8.72998">
        <ele>1314</ele>
        <time>2021-08-06T10:29:39.715Z</time>
      </trkpt>
      <trkpt lat="46.95481" lon="8.72997">
        <ele>1315</ele>
        <time>2021-08-06T10:29:40.716Z</time>
      </trkpt>
      <trkpt lat="46.95481" lon="8.72996">
        <ele>1315</ele>
        <time>2021-08-06T10:29:41.716Z</time>
      </trkpt>
      <trkpt lat="46.95481" lon="8.72995">
        <ele>1315</ele>
        <time>2021-08-06T10:29:42.715Z</time>
      </trkpt>
      <trkpt lat="46.9548" lon="8.72994">
        <ele>1315</ele>
        <time>2021-08-06T10:29:43.715Z</time>
      </trkpt>
      <trkpt lat="46.9548" lon="8.72993">
        <ele>1315</ele>
        <time>2021-08-06T10:29:44.715Z</time>
      </trkpt>
      <trkpt lat="46.95479" lon="8.72993">
        <ele>1315</ele>
        <time>2021-08-06T10:29:45.716Z</time>
      </trkpt>
      <trkpt lat="46.95479" lon="8.72992">
        <ele>1316</ele>
        <time>2021-08-06T10:29:46.716Z</time>
      </trkpt>
      <trkpt lat="46.95479" lon="8.72991">
        <ele>1316</ele>
        <time>2021-08-06T10:29:47.716Z</time>
      </trkpt>
      <trkpt lat="46.95478" lon="8.7299">
        <ele>1316</ele>
        <time>2021-08-06T10:29:48.716Z</time>
      </trkpt>
      <trkpt lat="46.95478" lon="8.72989">
        <ele>1316</ele>
        <time>2021-08-06T10:29:49.715Z</time>
      </trkpt>
      <trkpt lat="46.95477" lon="8.72989">
        <ele>1316</ele>
        <time>2021-08-06T10:29:50.715Z</time>
      </trkpt>
      <trkpt lat="46.95477" lon="8.72988">
        <ele>1315</ele>
        <time>2021-08-06T10:29:51.715Z</time>
      </trkpt>
      <trkpt lat="46.95477" lon="8.72987">
        <ele>1315</ele>
        <time>2021-08-06T10:29:52.716Z</time>
      </trkpt>
      <trkpt lat="46.95476" lon="8.72986">
        <ele>1316</ele>
        <time>2021-08-06T10:29:53.715Z</time>
      </trkpt>
      <trkpt lat="46.95476" lon="8.72985">
        <ele>1316</ele>
        <time>2021-08-06T10:29:54.716Z</time>
      </trkpt>
      <trkpt lat="46.95476" lon="8.72985">
        <ele>1317</ele>
        <time>2021-08-06T10:29:55.715Z</time>
      </trkpt>
      <trkpt lat="46.95476" lon="8.72984">
        <ele>1317</ele>
        <time>2021-08-06T10:29:56.715Z</time>
      </trkpt>
      <trkpt lat="46.95475" lon="8.72983">
        <ele>1318</ele>
        <time>2021-08-06T10:29:57.715Z</time>
      </trkpt>
      <trkpt lat="46.95475" lon="8.72983">
        <ele>1318</ele>
        <time>2021-08-06T10:29:58.716Z</time>
      </trkpt>
      <trkpt lat="46.95474" lon="8.72982">
        <ele>1317</ele>
        <time>2021-08-06T10:29:59.715Z</time>
      </trkpt>
      <trkpt lat="46.95474" lon="8.72981">
        <ele>1317</ele>
        <time>2021-08-06T10:30:00.716Z</time>
      </trkpt>
      <trkpt lat="46.95474" lon="8.72981">
        <ele>1317</ele>
        <time>2021-08-06T10:30:01.716Z</time>
      </trkpt>
      <trkpt lat="46.95474" lon="8.7298">
        <ele>1317</ele>
        <time>2021-08-06T10:30:02.715Z</time>
      </trkpt>
      <trkpt lat="46.95473" lon="8.72979">
        <ele>1317</ele>
        <time>2021-08-06T10:30:03.715Z</time>
      </trkpt>
      <trkpt lat="46.95473" lon="8.72978">
        <ele>1317</ele>
        <time>2021-08-06T10:30:04.715Z</time>
      </trkpt>
      <trkpt lat="46.95473" lon="8.72977">
        <ele>1316</ele>
        <time>2021-08-06T10:30:05.715Z</time>
      </trkpt>
      <trkpt lat="46.95472" lon="8.72977">
        <ele>1316</ele>
        <time>2021-08-06T10:30:06.716Z</time>
      </trkpt>
      <trkpt lat="46.95472" lon="8.72976">
        <ele>1315</ele>
        <time>2021-08-06T10:30:07.715Z</time>
      </trkpt>
      <trkpt lat="46.95472" lon="8.72975">
        <ele>1315</ele>
        <time>2021-08-06T10:30:08.715Z</time>
      </trkpt>
      <trkpt lat="46.95472" lon="8.72974">
        <ele>1314</ele>
        <time>2021-08-06T10:30:09.716Z</time>
      </trkpt>
      <trkpt lat="46.95472" lon="8.72973">
        <ele>1314</ele>
        <time>2021-08-06T10:30:10.715Z</time>
      </trkpt>
      <trkpt lat="46.95472" lon="8.72972">
        <ele>1314</ele>
        <time>2021-08-06T10:30:11.715Z</time>
      </trkpt>
      <trkpt lat="46.95471" lon="8.72972">
        <ele>1315</ele>
        <time>2021-08-06T10:30:12.716Z</time>
      </trkpt>
      <trkpt lat="46.95471" lon="8.72971">
        <ele>1315</ele>
        <time>2021-08-06T10:30:13.715Z</time>
      </trkpt>
      <trkpt lat="46.95471" lon="8.7297">
        <ele>1315</ele>
        <time>2021-08-06T10:30:14.716Z</time>
      </trkpt>
      <trkpt lat="46.95471" lon="8.72969">
        <ele>1315</ele>
        <time>2021-08-06T10:30:15.715Z</time>
      </trkpt>
      <trkpt lat="46.9547" lon="8.72968">
        <ele>1315</ele>
        <time>2021-08-06T10:30:16.715Z</time>
      </trkpt>
      <trkpt lat="46.9547" lon="8.72967">
        <ele>1315</ele>
        <time>2021-08-06T10:30:17.716Z</time>
      </trkpt>
      <trkpt lat="46.9547" lon="8.72966">
        <ele>1315</ele>
        <time>2021-08-06T10:30:18.716Z</time>
      </trkpt>
      <trkpt lat="46.9547" lon="8.72966">
        <ele>1316</ele>
        <time>2021-08-06T10:30:19.716Z</time>
      </trkpt>
      <trkpt lat="46.9547" lon="8.72964">
        <ele>1316</ele>
        <time>2021-08-06T10:30:20.716Z</time>
      </trkpt>
      <trkpt lat="46.9547" lon="8.72963">
        <ele>1316</ele>
        <time>2021-08-06T10:30:21.715Z</time>
      </trkpt>
      <trkpt lat="46.9547" lon="8.72962">
        <ele>1317</ele>
        <time>2021-08-06T10:30:22.716Z</time>
      </trkpt>
      <trkpt lat="46.9547" lon="8.72961">
        <ele>1318</ele>
        <time>2021-08-06T10:30:23.715Z</time>
      </trkpt>
      <trkpt lat="46.9547" lon="8.7296">
        <ele>1319</ele>
        <time>2021-08-06T10:30:24.715Z</time>
      </trkpt>
      <trkpt lat="46.9547" lon="8.7296">
        <ele>1319</ele>
        <time>2021-08-06T10:30:25.715Z</time>
      </trkpt>
      <trkpt lat="46.9547" lon="8.72959">
        <ele>1320</ele>
        <time>2021-08-06T10:30:26.716Z</time>
      </trkpt>
      <trkpt lat="46.9547" lon="8.72958">
        <ele>1321</ele>
        <time>2021-08-06T10:30:27.715Z</time>
      </trkpt>
      <trkpt lat="46.9547" lon="8.72958">
        <ele>1322</ele>
        <time>2021-08-06T10:30:28.716Z</time>
      </trkpt>
      <trkpt lat="46.9547" lon="8.72957">
        <ele>1323</ele>
        <time>2021-08-06T10:30:29.715Z</time>
      </trkpt>
      <trkpt lat="46.9547" lon="8.72956">
        <ele>1323</ele>
        <time>2021-08-06T10:30:30.715Z</time>
      </trkpt>
      <trkpt lat="46.95469" lon="8.72955">
        <ele>1324</ele>
        <time>2021-08-06T10:30:31.715Z</time>
      </trkpt>
      <trkpt lat="46.95469" lon="8.72954">
        <ele>1324</ele>
        <time>2021-08-06T10:30:32.715Z</time>
      </trkpt>
      <trkpt lat="46.95469" lon="8.72953">
        <ele>1325</ele>
        <time>2021-08-06T10:30:33.715Z</time>
      </trkpt>
      <trkpt lat="46.95469" lon="8.72952">
        <ele>1325</ele>
        <time>2021-08-06T10:30:34.715Z</time>
      </trkpt>
      <trkpt lat="46.95469" lon="8.72951">
        <ele>1325</ele>
        <time>2021-08-06T10:30:35.715Z</time>
      </trkpt>
      <trkpt lat="46.9547" lon="8.7295">
        <ele>1324</ele>
        <time>2021-08-06T10:30:36.715Z</time>
      </trkpt>
      <trkpt lat="46.9547" lon="8.72949">
        <ele>1324</ele>
        <time>2021-08-06T10:30:37.715Z</time>
      </trkpt>
      <trkpt lat="46.95469" lon="8.72948">
        <ele>1323</ele>
        <time>2021-08-06T10:30:38.716Z</time>
      </trkpt>
      <trkpt lat="46.95469" lon="8.72947">
        <ele>1322</ele>
        <time>2021-08-06T10:30:39.715Z</time>
      </trkpt>
      <trkpt lat="46.95469" lon="8.72946">
        <ele>1321</ele>
        <time>2021-08-06T10:30:40.716Z</time>
      </trkpt>
      <trkpt lat="46.95469" lon="8.72945">
        <ele>1321</ele>
        <time>2021-08-06T10:30:41.715Z</time>
      </trkpt>
      <trkpt lat="46.95469" lon="8.72944">
        <ele>1320</ele>
        <time>2021-08-06T10:30:42.715Z</time>
      </trkpt>
      <trkpt lat="46.95469" lon="8.72943">
        <ele>1319</ele>
        <time>2021-08-06T10:30:43.715Z</time>
      </trkpt>
      <trkpt lat="46.95469" lon="8.72942">
        <ele>1318</ele>
        <time>2021-08-06T10:30:44.715Z</time>
      </trkpt>
      <trkpt lat="46.95469" lon="8.72941">
        <ele>1318</ele>
        <time>2021-08-06T10:30:45.715Z</time>
      </trkpt>
      <trkpt lat="46.95469" lon="8.7294">
        <ele>1317</ele>
        <time>2021-08-06T10:30:46.715Z</time>
      </trkpt>
      <trkpt lat="46.95469" lon="8.72938">
        <ele>1316</ele>
        <time>2021-08-06T10:30:47.715Z</time>
      </trkpt>
      <trkpt lat="46.95469" lon="8.72937">
        <ele>1316</ele>
        <time>2021-08-06T10:30:48.715Z</time>
      </trkpt>
      <trkpt lat="46.95469" lon="8.72936">
        <ele>1315</ele>
        <time>2021-08-06T10:30:49.715Z</time>
      </trkpt>
      <trkpt lat="46.95469" lon="8.72935">
        <ele>1314</ele>
        <time>2021-08-06T10:30:50.716Z</time>
      </trkpt>
      <trkpt lat="46.95469" lon="8.72935">
        <ele>1314</ele>
        <time>2021-08-06T10:30:51.715Z</time>
      </trkpt>
      <trkpt lat="46.95469" lon="8.72934">
        <ele>1314</ele>
        <time>2021-08-06T10:30:52.715Z</time>
      </trkpt>
      <trkpt lat="46.95469" lon="8.72933">
        <ele>1314</ele>
        <time>2021-08-06T10:30:53.715Z</time>
      </trkpt>
      <trkpt lat="46.95469" lon="8.72932">
        <ele>1315</ele>
        <time>2021-08-06T10:30:54.715Z</time>
      </trkpt>
      <trkpt lat="46.95469" lon="8.72931">
        <ele>1316</ele>
        <time>2021-08-06T10:30:55.715Z</time>
      </trkpt>
      <trkpt lat="46.95469" lon="8.7293">
        <ele>1317</ele>
        <time>2021-08-06T10:30:56.715Z</time>
      </trkpt>
      <trkpt lat="46.95468" lon="8.72929">
        <ele>1318</ele>
        <time>2021-08-06T10:30:57.716Z</time>
      </trkpt>
      <trkpt lat="46.95468" lon="8.72929">
        <ele>1319</ele>
        <time>2021-08-06T10:30:58.716Z</time>
      </trkpt>
      <trkpt lat="46.95468" lon="8.72928">
        <ele>1320</ele>
        <time>2021-08-06T10:30:59.715Z</time>
      </trkpt>
      <trkpt lat="46.95468" lon="8.72927">
        <ele>1321</ele>
        <time>2021-08-06T10:31:00.715Z</time>
      </trkpt>
      <trkpt lat="46.95468" lon="8.72926">
        <ele>1322</ele>
        <time>2021-08-06T10:31:01.715Z</time>
      </trkpt>
      <trkpt lat="46.95467" lon="8.72925">
        <ele>1323</ele>
        <time>2021-08-06T10:31:02.716Z</time>
      </trkpt>
      <trkpt lat="46.95467" lon="8.72924">
        <ele>1324</ele>
        <time>2021-08-06T10:31:03.715Z</time>
      </trkpt>
      <trkpt lat="46.95467" lon="8.72923">
        <ele>1324</ele>
        <time>2021-08-06T10:31:04.715Z</time>
      </trkpt>
      <trkpt lat="46.95466" lon="8.72921">
        <ele>1324</ele>
        <time>2021-08-06T10:31:05.716Z</time>
      </trkpt>
      <trkpt lat="46.95466" lon="8.7292">
        <ele>1324</ele>
        <time>2021-08-06T10:31:06.715Z</time>
      </trkpt>
      <trkpt lat="46.95466" lon="8.7292">
        <ele>1325</ele>
        <time>2021-08-06T10:31:07.715Z</time>
      </trkpt>
      <trkpt lat="46.95465" lon="8.72919">
        <ele>1325</ele>
        <time>2021-08-06T10:31:08.715Z</time>
      </trkpt>
      <trkpt lat="46.95465" lon="8.72918">
        <ele>1325</ele>
        <time>2021-08-06T10:31:09.716Z</time>
      </trkpt>
      <trkpt lat="46.95464" lon="8.72917">
        <ele>1326</ele>
        <time>2021-08-06T10:31:10.715Z</time>
      </trkpt>
      <trkpt lat="46.95464" lon="8.72916">
        <ele>1326</ele>
        <time>2021-08-06T10:31:11.715Z</time>
      </trkpt>
      <trkpt lat="46.95463" lon="8.72916">
        <ele>1326</ele>
        <time>2021-08-06T10:31:12.715Z</time>
      </trkpt>
      <trkpt lat="46.95463" lon="8.72915">
        <ele>1327</ele>
        <time>2021-08-06T10:31:13.715Z</time>
      </trkpt>
      <trkpt lat="46.95462" lon="8.72914">
        <ele>1327</ele>
        <time>2021-08-06T10:31:14.716Z</time>
      </trkpt>
      <trkpt lat="46.95462" lon="8.72914">
        <ele>1327</ele>
        <time>2021-08-06T10:31:15.715Z</time>
      </trkpt>
      <trkpt lat="46.95462" lon="8.72912">
        <ele>1327</ele>
        <time>2021-08-06T10:31:16.716Z</time>
      </trkpt>
      <trkpt lat="46.95462" lon="8.72911">
        <ele>1327</ele>
        <time>2021-08-06T10:31:17.716Z</time>
      </trkpt>
      <trkpt lat="46.95461" lon="8.72911">
        <ele>1327</ele>
        <time>2021-08-06T10:31:18.715Z</time>
      </trkpt>
      <trkpt lat="46.9546" lon="8.7291">
        <ele>1327</ele>
        <time>2021-08-06T10:31:19.715Z</time>
      </trkpt>
      <trkpt lat="46.9546" lon="8.72909">
        <ele>1327</ele>
        <time>2021-08-06T10:31:20.715Z</time>
      </trkpt>
      <trkpt lat="46.95459" lon="8.72908">
        <ele>1327</ele>
        <time>2021-08-06T10:31:21.715Z</time>
      </trkpt>
      <trkpt lat="46.95458" lon="8.72907">
        <ele>1327</ele>
        <time>2021-08-06T10:31:22.716Z</time>
      </trkpt>
      <trkpt lat="46.95458" lon="8.72906">
        <ele>1327</ele>
        <time>2021-08-06T10:31:23.715Z</time>
      </trkpt>
      <trkpt lat="46.95457" lon="8.72905">
        <ele>1327</ele>
        <time>2021-08-06T10:31:24.715Z</time>
      </trkpt>
      <trkpt lat="46.95456" lon="8.72904">
        <ele>1326</ele>
        <time>2021-08-06T10:31:25.715Z</time>
      </trkpt>
      <trkpt lat="46.95456" lon="8.72903">
        <ele>1326</ele>
        <time>2021-08-06T10:31:26.715Z</time>
      </trkpt>
      <trkpt lat="46.95455" lon="8.72902">
        <ele>1326</ele>
        <time>2021-08-06T10:31:27.715Z</time>
      </trkpt>
      <trkpt lat="46.95455" lon="8.72901">
        <ele>1326</ele>
        <time>2021-08-06T10:31:28.716Z</time>
      </trkpt>
      <trkpt lat="46.95454" lon="8.729">
        <ele>1326</ele>
        <time>2021-08-06T10:31:29.715Z</time>
      </trkpt>
      <trkpt lat="46.95454" lon="8.72899">
        <ele>1327</ele>
        <time>2021-08-06T10:31:30.715Z</time>
      </trkpt>
      <trkpt lat="46.95453" lon="8.72898">
        <ele>1327</ele>
        <time>2021-08-06T10:31:31.716Z</time>
      </trkpt>
      <trkpt lat="46.95453" lon="8.72897">
        <ele>1326</ele>
        <time>2021-08-06T10:31:32.715Z</time>
      </trkpt>
      <trkpt lat="46.95452" lon="8.72896">
        <ele>1326</ele>
        <time>2021-08-06T10:31:33.715Z</time>
      </trkpt>
      <trkpt lat="46.95452" lon="8.72895">
        <ele>1326</ele>
        <time>2021-08-06T10:31:34.715Z</time>
      </trkpt>
      <trkpt lat="46.95451" lon="8.72893">
        <ele>1326</ele>
        <time>2021-08-06T10:31:35.715Z</time>
      </trkpt>
      <trkpt lat="46.95451" lon="8.72892">
        <ele>1326</ele>
        <time>2021-08-06T10:31:36.716Z</time>
      </trkpt>
      <trkpt lat="46.95451" lon="8.72891">
        <ele>1326</ele>
        <time>2021-08-06T10:31:37.716Z</time>
      </trkpt>
      <trkpt lat="46.9545" lon="8.7289">
        <ele>1325</ele>
        <time>2021-08-06T10:31:38.716Z</time>
      </trkpt>
      <trkpt lat="46.95449" lon="8.72888">
        <ele>1325</ele>
        <time>2021-08-06T10:31:39.715Z</time>
      </trkpt>
      <trkpt lat="46.95449" lon="8.72887">
        <ele>1325</ele>
        <time>2021-08-06T10:31:40.715Z</time>
      </trkpt>
      <trkpt lat="46.95448" lon="8.72886">
        <ele>1325</ele>
        <time>2021-08-06T10:31:41.715Z</time>
      </trkpt>
      <trkpt lat="46.95448" lon="8.72884">
        <ele>1325</ele>
        <time>2021-08-06T10:31:42.716Z</time>
      </trkpt>
      <trkpt lat="46.95447" lon="8.72883">
        <ele>1325</ele>
        <time>2021-08-06T10:31:43.715Z</time>
      </trkpt>
      <trkpt lat="46.95447" lon="8.72882">
        <ele>1325</ele>
        <time>2021-08-06T10:31:44.715Z</time>
      </trkpt>
      <trkpt lat="46.95446" lon="8.72881">
        <ele>1325</ele>
        <time>2021-08-06T10:31:45.716Z</time>
      </trkpt>
      <trkpt lat="46.95446" lon="8.7288">
        <ele>1325</ele>
        <time>2021-08-06T10:31:46.716Z</time>
      </trkpt>
      <trkpt lat="46.95445" lon="8.7288">
        <ele>1325</ele>
        <time>2021-08-06T10:31:47.715Z</time>
      </trkpt>
      <trkpt lat="46.95445" lon="8.72879">
        <ele>1325</ele>
        <time>2021-08-06T10:31:48.715Z</time>
      </trkpt>
      <trkpt lat="46.95444" lon="8.72878">
        <ele>1325</ele>
        <time>2021-08-06T10:31:49.715Z</time>
      </trkpt>
      <trkpt lat="46.95444" lon="8.72877">
        <ele>1325</ele>
        <time>2021-08-06T10:31:50.715Z</time>
      </trkpt>
      <trkpt lat="46.95443" lon="8.72876">
        <ele>1325</ele>
        <time>2021-08-06T10:31:51.715Z</time>
      </trkpt>
      <trkpt lat="46.95443" lon="8.72875">
        <ele>1325</ele>
        <time>2021-08-06T10:31:52.715Z</time>
      </trkpt>
      <trkpt lat="46.95443" lon="8.72874">
        <ele>1326</ele>
        <time>2021-08-06T10:31:53.716Z</time>
      </trkpt>
      <trkpt lat="46.95442" lon="8.72874">
        <ele>1327</ele>
        <time>2021-08-06T10:31:54.716Z</time>
      </trkpt>
      <trkpt lat="46.95442" lon="8.72873">
        <ele>1327</ele>
        <time>2021-08-06T10:31:55.716Z</time>
      </trkpt>
      <trkpt lat="46.95441" lon="8.72872">
        <ele>1328</ele>
        <time>2021-08-06T10:31:56.715Z</time>
      </trkpt>
      <trkpt lat="46.95441" lon="8.72872">
        <ele>1328</ele>
        <time>2021-08-06T10:31:57.716Z</time>
      </trkpt>
      <trkpt lat="46.9544" lon="8.72871">
        <ele>1328</ele>
        <time>2021-08-06T10:31:58.715Z</time>
      </trkpt>
      <trkpt lat="46.95439" lon="8.7287">
        <ele>1329</ele>
        <time>2021-08-06T10:31:59.715Z</time>
      </trkpt>
      <trkpt lat="46.95439" lon="8.72869">
        <ele>1329</ele>
        <time>2021-08-06T10:32:00.715Z</time>
      </trkpt>
      <trkpt lat="46.95438" lon="8.72868">
        <ele>1329</ele>
        <time>2021-08-06T10:32:01.715Z</time>
      </trkpt>
      <trkpt lat="46.95438" lon="8.72867">
        <ele>1328</ele>
        <time>2021-08-06T10:32:02.716Z</time>
      </trkpt>
      <trkpt lat="46.95437" lon="8.72866">
        <ele>1329</ele>
        <time>2021-08-06T10:32:03.715Z</time>
      </trkpt>
      <trkpt lat="46.95436" lon="8.72865">
        <ele>1329</ele>
        <time>2021-08-06T10:32:24.814Z</time>
      </trkpt>
      <trkpt lat="46.95436" lon="8.72865">
        <ele>1329</ele>
        <time>2021-08-06T10:32:25.814Z</time>
      </trkpt>
      <trkpt lat="46.95436" lon="8.72864">
        <ele>1328</ele>
        <time>2021-08-06T10:32:32.744Z</time>
      </trkpt>
      <trkpt lat="46.95435" lon="8.72863">
        <ele>1328</ele>
        <time>2021-08-06T10:32:36.569Z</time>
      </trkpt>
      <trkpt lat="46.95434" lon="8.72862">
        <ele>1327</ele>
        <time>2021-08-06T10:32:37.569Z</time>
      </trkpt>
      <trkpt lat="46.95434" lon="8.72861">
        <ele>1328</ele>
        <time>2021-08-06T10:32:38.568Z</time>
      </trkpt>
      <trkpt lat="46.95434" lon="8.7286">
        <ele>1328</ele>
        <time>2021-08-06T10:32:39.568Z</time>
      </trkpt>
      <trkpt lat="46.95433" lon="8.7286">
        <ele>1328</ele>
        <time>2021-08-06T10:32:40.568Z</time>
      </trkpt>
      <trkpt lat="46.95433" lon="8.72859">
        <ele>1328</ele>
        <time>2021-08-06T10:32:41.568Z</time>
      </trkpt>
      <trkpt lat="46.95432" lon="8.72858">
        <ele>1328</ele>
        <time>2021-08-06T10:32:42.569Z</time>
      </trkpt>
      <trkpt lat="46.95432" lon="8.72858">
        <ele>1327</ele>
        <time>2021-08-06T10:32:43.568Z</time>
      </trkpt>
      <trkpt lat="46.95432" lon="8.72858">
        <ele>1327</ele>
        <time>2021-08-06T10:32:44.569Z</time>
      </trkpt>
      <trkpt lat="46.95433" lon="8.72857">
        <ele>1326</ele>
        <time>2021-08-06T10:32:45.570Z</time>
      </trkpt>
      <trkpt lat="46.95433" lon="8.72856">
        <ele>1326</ele>
        <time>2021-08-06T10:32:46.570Z</time>
      </trkpt>
      <trkpt lat="46.95432" lon="8.72855">
        <ele>1326</ele>
        <time>2021-08-06T10:32:47.569Z</time>
      </trkpt>
      <trkpt lat="46.95431" lon="8.72854">
        <ele>1326</ele>
        <time>2021-08-06T10:32:48.570Z</time>
      </trkpt>
      <trkpt lat="46.95431" lon="8.72854">
        <ele>1327</ele>
        <time>2021-08-06T10:32:49.569Z</time>
      </trkpt>
      <trkpt lat="46.9543" lon="8.72854">
        <ele>1327</ele>
        <time>2021-08-06T10:32:50.569Z</time>
      </trkpt>
      <trkpt lat="46.9543" lon="8.72854">
        <ele>1327</ele>
        <time>2021-08-06T10:32:51.570Z</time>
      </trkpt>
      <trkpt lat="46.95431" lon="8.72852">
        <ele>1329</ele>
        <time>2021-08-06T10:32:52.569Z</time>
      </trkpt>
      <trkpt lat="46.95431" lon="8.72851">
        <ele>1329</ele>
        <time>2021-08-06T10:32:53.569Z</time>
      </trkpt>
      <trkpt lat="46.95431" lon="8.7285">
        <ele>1329</ele>
        <time>2021-08-06T10:32:54.569Z</time>
      </trkpt>
      <trkpt lat="46.95431" lon="8.72849">
        <ele>1329</ele>
        <time>2021-08-06T10:32:55.570Z</time>
      </trkpt>
      <trkpt lat="46.95431" lon="8.72848">
        <ele>1330</ele>
        <time>2021-08-06T10:32:56.570Z</time>
      </trkpt>
      <trkpt lat="46.95431" lon="8.72847">
        <ele>1330</ele>
        <time>2021-08-06T10:32:57.569Z</time>
      </trkpt>
      <trkpt lat="46.95431" lon="8.72846">
        <ele>1330</ele>
        <time>2021-08-06T10:32:58.570Z</time>
      </trkpt>
      <trkpt lat="46.9543" lon="8.72845">
        <ele>1331</ele>
        <time>2021-08-06T10:32:59.570Z</time>
      </trkpt>
      <trkpt lat="46.9543" lon="8.72844">
        <ele>1331</ele>
        <time>2021-08-06T10:33:00.570Z</time>
      </trkpt>
      <trkpt lat="46.95429" lon="8.72844">
        <ele>1331</ele>
        <time>2021-08-06T10:33:01.570Z</time>
      </trkpt>
      <trkpt lat="46.95429" lon="8.72843">
        <ele>1331</ele>
        <time>2021-08-06T10:33:02.570Z</time>
      </trkpt>
      <trkpt lat="46.95429" lon="8.72842">
        <ele>1331</ele>
        <time>2021-08-06T10:33:03.570Z</time>
      </trkpt>
      <trkpt lat="46.95429" lon="8.72841">
        <ele>1332</ele>
        <time>2021-08-06T10:33:04.569Z</time>
      </trkpt>
      <trkpt lat="46.95429" lon="8.7284">
        <ele>1332</ele>
        <time>2021-08-06T10:33:05.569Z</time>
      </trkpt>
      <trkpt lat="46.95429" lon="8.72839">
        <ele>1332</ele>
        <time>2021-08-06T10:33:06.570Z</time>
      </trkpt>
      <trkpt lat="46.95429" lon="8.72838">
        <ele>1333</ele>
        <time>2021-08-06T10:33:07.570Z</time>
      </trkpt>
      <trkpt lat="46.95428" lon="8.72837">
        <ele>1333</ele>
        <time>2021-08-06T10:33:08.569Z</time>
      </trkpt>
      <trkpt lat="46.95428" lon="8.72836">
        <ele>1334</ele>
        <time>2021-08-06T10:33:09.570Z</time>
      </trkpt>
      <trkpt lat="46.95428" lon="8.72835">
        <ele>1334</ele>
        <time>2021-08-06T10:33:10.569Z</time>
      </trkpt>
      <trkpt lat="46.95427" lon="8.72834">
        <ele>1334</ele>
        <time>2021-08-06T10:33:11.569Z</time>
      </trkpt>
      <trkpt lat="46.95427" lon="8.72833">
        <ele>1334</ele>
        <time>2021-08-06T10:33:12.569Z</time>
      </trkpt>
      <trkpt lat="46.95427" lon="8.72832">
        <ele>1335</ele>
        <time>2021-08-06T10:33:13.570Z</time>
      </trkpt>
      <trkpt lat="46.95427" lon="8.72831">
        <ele>1335</ele>
        <time>2021-08-06T10:33:14.569Z</time>
      </trkpt>
      <trkpt lat="46.95427" lon="8.7283">
        <ele>1335</ele>
        <time>2021-08-06T10:33:15.569Z</time>
      </trkpt>
      <trkpt lat="46.95426" lon="8.72829">
        <ele>1336</ele>
        <time>2021-08-06T10:33:16.570Z</time>
      </trkpt>
      <trkpt lat="46.95425" lon="8.72828">
        <ele>1336</ele>
        <time>2021-08-06T10:33:17.569Z</time>
      </trkpt>
      <trkpt lat="46.95425" lon="8.72827">
        <ele>1335</ele>
        <time>2021-08-06T10:33:18.569Z</time>
      </trkpt>
      <trkpt lat="46.95425" lon="8.72826">
        <ele>1335</ele>
        <time>2021-08-06T10:33:19.570Z</time>
      </trkpt>
      <trkpt lat="46.95424" lon="8.72825">
        <ele>1335</ele>
        <time>2021-08-06T10:33:20.570Z</time>
      </trkpt>
      <trkpt lat="46.95424" lon="8.72824">
        <ele>1335</ele>
        <time>2021-08-06T10:33:21.569Z</time>
      </trkpt>
      <trkpt lat="46.95424" lon="8.72823">
        <ele>1334</ele>
        <time>2021-08-06T10:33:22.570Z</time>
      </trkpt>
      <trkpt lat="46.95423" lon="8.72822">
        <ele>1334</ele>
        <time>2021-08-06T10:33:23.570Z</time>
      </trkpt>
      <trkpt lat="46.95422" lon="8.72821">
        <ele>1334</ele>
        <time>2021-08-06T10:33:24.570Z</time>
      </trkpt>
      <trkpt lat="46.95422" lon="8.7282">
        <ele>1334</ele>
        <time>2021-08-06T10:33:25.570Z</time>
      </trkpt>
      <trkpt lat="46.95421" lon="8.72819">
        <ele>1334</ele>
        <time>2021-08-06T10:33:26.569Z</time>
      </trkpt>
      <trkpt lat="46.9542" lon="8.72818">
        <ele>1335</ele>
        <time>2021-08-06T10:33:27.570Z</time>
      </trkpt>
      <trkpt lat="46.9542" lon="8.72817">
        <ele>1334</ele>
        <time>2021-08-06T10:33:28.570Z</time>
      </trkpt>
      <trkpt lat="46.95419" lon="8.72816">
        <ele>1334</ele>
        <time>2021-08-06T10:33:29.570Z</time>
      </trkpt>
      <trkpt lat="46.95419" lon="8.72815">
        <ele>1334</ele>
        <time>2021-08-06T10:33:30.570Z</time>
      </trkpt>
      <trkpt lat="46.95419" lon="8.72814">
        <ele>1334</ele>
        <time>2021-08-06T10:33:31.570Z</time>
      </trkpt>
      <trkpt lat="46.95418" lon="8.72813">
        <ele>1334</ele>
        <time>2021-08-06T10:33:32.570Z</time>
      </trkpt>
      <trkpt lat="46.95417" lon="8.72812">
        <ele>1334</ele>
        <time>2021-08-06T10:33:33.570Z</time>
      </trkpt>
      <trkpt lat="46.95417" lon="8.72811">
        <ele>1333</ele>
        <time>2021-08-06T10:33:34.569Z</time>
      </trkpt>
      <trkpt lat="46.95416" lon="8.7281">
        <ele>1333</ele>
        <time>2021-08-06T10:33:35.570Z</time>
      </trkpt>
      <trkpt lat="46.95416" lon="8.72808">
        <ele>1332</ele>
        <time>2021-08-06T10:33:36.570Z</time>
      </trkpt>
      <trkpt lat="46.95415" lon="8.72807">
        <ele>1332</ele>
        <time>2021-08-06T10:33:37.570Z</time>
      </trkpt>
      <trkpt lat="46.95415" lon="8.72806">
        <ele>1332</ele>
        <time>2021-08-06T10:33:38.570Z</time>
      </trkpt>
      <trkpt lat="46.95414" lon="8.72804">
        <ele>1332</ele>
        <time>2021-08-06T10:33:39.569Z</time>
      </trkpt>
      <trkpt lat="46.95413" lon="8.72803">
        <ele>1332</ele>
        <time>2021-08-06T10:33:40.569Z</time>
      </trkpt>
      <trkpt lat="46.95413" lon="8.72802">
        <ele>1332</ele>
        <time>2021-08-06T10:33:41.570Z</time>
      </trkpt>
      <trkpt lat="46.95412" lon="8.72801">
        <ele>1332</ele>
        <time>2021-08-06T10:33:42.570Z</time>
      </trkpt>
      <trkpt lat="46.95412" lon="8.728">
        <ele>1333</ele>
        <time>2021-08-06T10:33:43.570Z</time>
      </trkpt>
      <trkpt lat="46.95411" lon="8.72798">
        <ele>1333</ele>
        <time>2021-08-06T10:33:44.569Z</time>
      </trkpt>
      <trkpt lat="46.9541" lon="8.72797">
        <ele>1333</ele>
        <time>2021-08-06T10:33:45.570Z</time>
      </trkpt>
      <trkpt lat="46.9541" lon="8.72797">
        <ele>1333</ele>
        <time>2021-08-06T10:33:46.569Z</time>
      </trkpt>
      <trkpt lat="46.9541" lon="8.72796">
        <ele>1333</ele>
        <time>2021-08-06T10:33:47.570Z</time>
      </trkpt>
      <trkpt lat="46.9541" lon="8.72795">
        <ele>1332</ele>
        <time>2021-08-06T10:33:48.570Z</time>
      </trkpt>
      <trkpt lat="46.95409" lon="8.72794">
        <ele>1332</ele>
        <time>2021-08-06T10:33:49.570Z</time>
      </trkpt>
      <trkpt lat="46.95409" lon="8.72793">
        <ele>1331</ele>
        <time>2021-08-06T10:33:50.570Z</time>
      </trkpt>
      <trkpt lat="46.95409" lon="8.72792">
        <ele>1331</ele>
        <time>2021-08-06T10:33:51.570Z</time>
      </trkpt>
      <trkpt lat="46.95408" lon="8.72791">
        <ele>1330</ele>
        <time>2021-08-06T10:33:52.569Z</time>
      </trkpt>
      <trkpt lat="46.95408" lon="8.7279">
        <ele>1330</ele>
        <time>2021-08-06T10:33:53.569Z</time>
      </trkpt>
      <trkpt lat="46.95408" lon="8.7279">
        <ele>1330</ele>
        <time>2021-08-06T10:33:54.570Z</time>
      </trkpt>
      <trkpt lat="46.95407" lon="8.72789">
        <ele>1329</ele>
        <time>2021-08-06T10:33:55.570Z</time>
      </trkpt>
      <trkpt lat="46.95407" lon="8.72788">
        <ele>1329</ele>
        <time>2021-08-06T10:33:56.569Z</time>
      </trkpt>
      <trkpt lat="46.95407" lon="8.72787">
        <ele>1329</ele>
        <time>2021-08-06T10:33:57.570Z</time>
      </trkpt>
      <trkpt lat="46.95406" lon="8.72786">
        <ele>1329</ele>
        <time>2021-08-06T10:33:58.569Z</time>
      </trkpt>
      <trkpt lat="46.95406" lon="8.72785">
        <ele>1329</ele>
        <time>2021-08-06T10:33:59.570Z</time>
      </trkpt>
      <trkpt lat="46.95405" lon="8.72785">
        <ele>1329</ele>
        <time>2021-08-06T10:34:00.569Z</time>
      </trkpt>
      <trkpt lat="46.95405" lon="8.72784">
        <ele>1329</ele>
        <time>2021-08-06T10:34:01.570Z</time>
      </trkpt>
      <trkpt lat="46.95404" lon="8.72783">
        <ele>1330</ele>
        <time>2021-08-06T10:34:02.569Z</time>
      </trkpt>
      <trkpt lat="46.95404" lon="8.72783">
        <ele>1330</ele>
        <time>2021-08-06T10:34:03.570Z</time>
      </trkpt>
      <trkpt lat="46.95404" lon="8.72782">
        <ele>1331</ele>
        <time>2021-08-06T10:34:04.570Z</time>
      </trkpt>
      <trkpt lat="46.95403" lon="8.72781">
        <ele>1331</ele>
        <time>2021-08-06T10:34:05.569Z</time>
      </trkpt>
      <trkpt lat="46.95403" lon="8.7278">
        <ele>1332</ele>
        <time>2021-08-06T10:34:06.569Z</time>
      </trkpt>
      <trkpt lat="46.95402" lon="8.72779">
        <ele>1332</ele>
        <time>2021-08-06T10:34:07.570Z</time>
      </trkpt>
      <trkpt lat="46.95402" lon="8.72778">
        <ele>1332</ele>
        <time>2021-08-06T10:34:08.569Z</time>
      </trkpt>
      <trkpt lat="46.95402" lon="8.72777">
        <ele>1333</ele>
        <time>2021-08-06T10:34:09.569Z</time>
      </trkpt>
      <trkpt lat="46.95401" lon="8.72776">
        <ele>1333</ele>
        <time>2021-08-06T10:34:10.570Z</time>
      </trkpt>
      <trkpt lat="46.954" lon="8.72775">
        <ele>1333</ele>
        <time>2021-08-06T10:34:11.570Z</time>
      </trkpt>
      <trkpt lat="46.954" lon="8.72774">
        <ele>1333</ele>
        <time>2021-08-06T10:34:12.569Z</time>
      </trkpt>
      <trkpt lat="46.954" lon="8.72773">
        <ele>1333</ele>
        <time>2021-08-06T10:34:13.570Z</time>
      </trkpt>
      <trkpt lat="46.95399" lon="8.72773">
        <ele>1333</ele>
        <time>2021-08-06T10:34:14.569Z</time>
      </trkpt>
      <trkpt lat="46.95398" lon="8.72772">
        <ele>1334</ele>
        <time>2021-08-06T10:34:15.570Z</time>
      </trkpt>
      <trkpt lat="46.95398" lon="8.72771">
        <ele>1335</ele>
        <time>2021-08-06T10:34:16.569Z</time>
      </trkpt>
      <trkpt lat="46.95397" lon="8.7277">
        <ele>1336</ele>
        <time>2021-08-06T10:34:17.570Z</time>
      </trkpt>
      <trkpt lat="46.95396" lon="8.72769">
        <ele>1336</ele>
        <time>2021-08-06T10:34:18.569Z</time>
      </trkpt>
      <trkpt lat="46.95396" lon="8.72769">
        <ele>1336</ele>
        <time>2021-08-06T10:34:19.570Z</time>
      </trkpt>
      <trkpt lat="46.95396" lon="8.72767">
        <ele>1336</ele>
        <time>2021-08-06T10:34:20.569Z</time>
      </trkpt>
      <trkpt lat="46.95395" lon="8.72766">
        <ele>1336</ele>
        <time>2021-08-06T10:34:21.570Z</time>
      </trkpt>
      <trkpt lat="46.95394" lon="8.72765">
        <ele>1336</ele>
        <time>2021-08-06T10:34:22.570Z</time>
      </trkpt>
      <trkpt lat="46.95394" lon="8.72763">
        <ele>1335</ele>
        <time>2021-08-06T10:34:23.569Z</time>
      </trkpt>
      <trkpt lat="46.95393" lon="8.72762">
        <ele>1335</ele>
        <time>2021-08-06T10:34:24.569Z</time>
      </trkpt>
      <trkpt lat="46.95393" lon="8.72762">
        <ele>1335</ele>
        <time>2021-08-06T10:34:25.570Z</time>
      </trkpt>
      <trkpt lat="46.95393" lon="8.72761">
        <ele>1335</ele>
        <time>2021-08-06T10:34:26.569Z</time>
      </trkpt>
      <trkpt lat="46.95394" lon="8.72762">
        <ele>1341</ele>
        <time>2021-08-06T10:34:27.570Z</time>
      </trkpt>
      <trkpt lat="46.95393" lon="8.72762">
        <ele>1343</ele>
        <time>2021-08-06T10:34:28.570Z</time>
      </trkpt>
      <trkpt lat="46.95392" lon="8.72761">
        <ele>1339</ele>
        <time>2021-08-06T10:34:29.571Z</time>
      </trkpt>
      <trkpt lat="46.95391" lon="8.7276">
        <ele>1338</ele>
        <time>2021-08-06T10:34:30.571Z</time>
      </trkpt>
      <trkpt lat="46.95391" lon="8.72758">
        <ele>1336</ele>
        <time>2021-08-06T10:34:31.571Z</time>
      </trkpt>
      <trkpt lat="46.95391" lon="8.72756">
        <ele>1336</ele>
        <time>2021-08-06T10:34:32.571Z</time>
      </trkpt>
      <trkpt lat="46.9539" lon="8.72755">
        <ele>1335</ele>
        <time>2021-08-06T10:34:33.571Z</time>
      </trkpt>
      <trkpt lat="46.95389" lon="8.72754">
        <ele>1335</ele>
        <time>2021-08-06T10:34:34.570Z</time>
      </trkpt>
      <trkpt lat="46.95388" lon="8.72753">
        <ele>1335</ele>
        <time>2021-08-06T10:34:35.571Z</time>
      </trkpt>
      <trkpt lat="46.95388" lon="8.72752">
        <ele>1334</ele>
        <time>2021-08-06T10:34:36.570Z</time>
      </trkpt>
      <trkpt lat="46.95387" lon="8.72751">
        <ele>1334</ele>
        <time>2021-08-06T10:34:37.571Z</time>
      </trkpt>
      <trkpt lat="46.95386" lon="8.72751">
        <ele>1334</ele>
        <time>2021-08-06T10:34:38.571Z</time>
      </trkpt>
      <trkpt lat="46.95386" lon="8.7275">
        <ele>1333</ele>
        <time>2021-08-06T10:34:39.571Z</time>
      </trkpt>
      <trkpt lat="46.95386" lon="8.7275">
        <ele>1332</ele>
        <time>2021-08-06T10:34:40.570Z</time>
      </trkpt>
      <trkpt lat="46.95385" lon="8.72749">
        <ele>1331</ele>
        <time>2021-08-06T10:34:41.570Z</time>
      </trkpt>
      <trkpt lat="46.95385" lon="8.72748">
        <ele>1331</ele>
        <time>2021-08-06T10:34:42.570Z</time>
      </trkpt>
      <trkpt lat="46.95384" lon="8.72747">
        <ele>1330</ele>
        <time>2021-08-06T10:34:43.571Z</time>
      </trkpt>
      <trkpt lat="46.95383" lon="8.72746">
        <ele>1330</ele>
        <time>2021-08-06T10:34:44.570Z</time>
      </trkpt>
      <trkpt lat="46.95382" lon="8.72746">
        <ele>1330</ele>
        <time>2021-08-06T10:34:45.571Z</time>
      </trkpt>
      <trkpt lat="46.95381" lon="8.72745">
        <ele>1331</ele>
        <time>2021-08-06T10:34:46.570Z</time>
      </trkpt>
      <trkpt lat="46.9538" lon="8.72744">
        <ele>1332</ele>
        <time>2021-08-06T10:34:47.571Z</time>
      </trkpt>
      <trkpt lat="46.9538" lon="8.72743">
        <ele>1333</ele>
        <time>2021-08-06T10:34:48.570Z</time>
      </trkpt>
      <trkpt lat="46.95379" lon="8.72742">
        <ele>1334</ele>
        <time>2021-08-06T10:34:49.571Z</time>
      </trkpt>
      <trkpt lat="46.95378" lon="8.72741">
        <ele>1335</ele>
        <time>2021-08-06T10:34:50.571Z</time>
      </trkpt>
      <trkpt lat="46.95377" lon="8.7274">
        <ele>1336</ele>
        <time>2021-08-06T10:34:51.571Z</time>
      </trkpt>
      <trkpt lat="46.95376" lon="8.72739">
        <ele>1337</ele>
        <time>2021-08-06T10:34:52.571Z</time>
      </trkpt>
      <trkpt lat="46.95375" lon="8.72738">
        <ele>1338</ele>
        <time>2021-08-06T10:34:53.570Z</time>
      </trkpt>
      <trkpt lat="46.95374" lon="8.72738">
        <ele>1339</ele>
        <time>2021-08-06T10:34:54.571Z</time>
      </trkpt>
      <trkpt lat="46.95373" lon="8.72737">
        <ele>1339</ele>
        <time>2021-08-06T10:34:55.571Z</time>
      </trkpt>
      <trkpt lat="46.95372" lon="8.72737">
        <ele>1340</ele>
        <time>2021-08-06T10:34:56.571Z</time>
      </trkpt>
      <trkpt lat="46.95371" lon="8.72736">
        <ele>1340</ele>
        <time>2021-08-06T10:34:57.571Z</time>
      </trkpt>
      <trkpt lat="46.9537" lon="8.72735">
        <ele>1341</ele>
        <time>2021-08-06T10:34:58.571Z</time>
      </trkpt>
      <trkpt lat="46.9537" lon="8.72735">
        <ele>1341</ele>
        <time>2021-08-06T10:34:59.570Z</time>
      </trkpt>
      <trkpt lat="46.95369" lon="8.72734">
        <ele>1341</ele>
        <time>2021-08-06T10:35:00.570Z</time>
      </trkpt>
      <trkpt lat="46.95368" lon="8.72734">
        <ele>1340</ele>
        <time>2021-08-06T10:35:01.570Z</time>
      </trkpt>
      <trkpt lat="46.95367" lon="8.72733">
        <ele>1339</ele>
        <time>2021-08-06T10:35:02.571Z</time>
      </trkpt>
      <trkpt lat="46.95366" lon="8.72732">
        <ele>1339</ele>
        <time>2021-08-06T10:35:03.570Z</time>
      </trkpt>
      <trkpt lat="46.95366" lon="8.72731">
        <ele>1339</ele>
        <time>2021-08-06T10:35:04.570Z</time>
      </trkpt>
      <trkpt lat="46.95365" lon="8.72731">
        <ele>1339</ele>
        <time>2021-08-06T10:35:05.570Z</time>
      </trkpt>
      <trkpt lat="46.95364" lon="8.7273">
        <ele>1339</ele>
        <time>2021-08-06T10:35:06.571Z</time>
      </trkpt>
      <trkpt lat="46.95363" lon="8.72729">
        <ele>1340</ele>
        <time>2021-08-06T10:35:07.570Z</time>
      </trkpt>
      <trkpt lat="46.95362" lon="8.72729">
        <ele>1340</ele>
        <time>2021-08-06T10:35:08.571Z</time>
      </trkpt>
      <trkpt lat="46.95361" lon="8.72728">
        <ele>1341</ele>
        <time>2021-08-06T10:35:09.571Z</time>
      </trkpt>
      <trkpt lat="46.9536" lon="8.72728">
        <ele>1341</ele>
        <time>2021-08-06T10:35:10.571Z</time>
      </trkpt>
      <trkpt lat="46.95359" lon="8.72727">
        <ele>1340</ele>
        <time>2021-08-06T10:35:11.571Z</time>
      </trkpt>
      <trkpt lat="46.95358" lon="8.72726">
        <ele>1340</ele>
        <time>2021-08-06T10:35:12.570Z</time>
      </trkpt>
      <trkpt lat="46.95357" lon="8.72725">
        <ele>1340</ele>
        <time>2021-08-06T10:35:13.570Z</time>
      </trkpt>
      <trkpt lat="46.95357" lon="8.72724">
        <ele>1341</ele>
        <time>2021-08-06T10:35:14.571Z</time>
      </trkpt>
      <trkpt lat="46.95356" lon="8.72724">
        <ele>1341</ele>
        <time>2021-08-06T10:35:15.571Z</time>
      </trkpt>
      <trkpt lat="46.95355" lon="8.72723">
        <ele>1341</ele>
        <time>2021-08-06T10:35:16.571Z</time>
      </trkpt>
      <trkpt lat="46.95354" lon="8.72722">
        <ele>1341</ele>
        <time>2021-08-06T10:35:17.571Z</time>
      </trkpt>
      <trkpt lat="46.95353" lon="8.72722">
        <ele>1342</ele>
        <time>2021-08-06T10:35:18.571Z</time>
      </trkpt>
      <trkpt lat="46.95352" lon="8.72721">
        <ele>1342</ele>
        <time>2021-08-06T10:35:19.571Z</time>
      </trkpt>
      <trkpt lat="46.95351" lon="8.72721">
        <ele>1343</ele>
        <time>2021-08-06T10:35:20.571Z</time>
      </trkpt>
      <trkpt lat="46.9535" lon="8.72721">
        <ele>1343</ele>
        <time>2021-08-06T10:35:21.570Z</time>
      </trkpt>
      <trkpt lat="46.95349" lon="8.7272">
        <ele>1344</ele>
        <time>2021-08-06T10:35:22.571Z</time>
      </trkpt>
      <trkpt lat="46.95348" lon="8.7272">
        <ele>1344</ele>
        <time>2021-08-06T10:35:23.571Z</time>
      </trkpt>
      <trkpt lat="46.95347" lon="8.7272">
        <ele>1344</ele>
        <time>2021-08-06T10:35:24.571Z</time>
      </trkpt>
      <trkpt lat="46.95346" lon="8.72719">
        <ele>1345</ele>
        <time>2021-08-06T10:35:25.571Z</time>
      </trkpt>
      <trkpt lat="46.95345" lon="8.72719">
        <ele>1345</ele>
        <time>2021-08-06T10:35:26.571Z</time>
      </trkpt>
      <trkpt lat="46.95344" lon="8.72719">
        <ele>1345</ele>
        <time>2021-08-06T10:35:27.570Z</time>
      </trkpt>
      <trkpt lat="46.95343" lon="8.72719">
        <ele>1345</ele>
        <time>2021-08-06T10:35:28.571Z</time>
      </trkpt>
      <trkpt lat="46.95342" lon="8.72718">
        <ele>1346</ele>
        <time>2021-08-06T10:35:29.570Z</time>
      </trkpt>
      <trkpt lat="46.95341" lon="8.72717">
        <ele>1345</ele>
        <time>2021-08-06T10:35:30.571Z</time>
      </trkpt>
      <trkpt lat="46.95341" lon="8.72717">
        <ele>1346</ele>
        <time>2021-08-06T10:35:31.571Z</time>
      </trkpt>
      <trkpt lat="46.9534" lon="8.72716">
        <ele>1346</ele>
        <time>2021-08-06T10:35:32.571Z</time>
      </trkpt>
      <trkpt lat="46.95339" lon="8.72716">
        <ele>1346</ele>
        <time>2021-08-06T10:35:33.571Z</time>
      </trkpt>
      <trkpt lat="46.95338" lon="8.72716">
        <ele>1345</ele>
        <time>2021-08-06T10:35:34.571Z</time>
      </trkpt>
      <trkpt lat="46.95337" lon="8.72716">
        <ele>1345</ele>
        <time>2021-08-06T10:35:35.571Z</time>
      </trkpt>
      <trkpt lat="46.95337" lon="8.72715">
        <ele>1345</ele>
        <time>2021-08-06T10:35:36.571Z</time>
      </trkpt>
      <trkpt lat="46.95336" lon="8.72715">
        <ele>1345</ele>
        <time>2021-08-06T10:35:37.571Z</time>
      </trkpt>
      <trkpt lat="46.95335" lon="8.72715">
        <ele>1345</ele>
        <time>2021-08-06T10:35:38.571Z</time>
      </trkpt>
      <trkpt lat="46.95334" lon="8.72715">
        <ele>1346</ele>
        <time>2021-08-06T10:35:39.571Z</time>
      </trkpt>
      <trkpt lat="46.95333" lon="8.72714">
        <ele>1346</ele>
        <time>2021-08-06T10:35:40.571Z</time>
      </trkpt>
      <trkpt lat="46.95333" lon="8.72714">
        <ele>1345</ele>
        <time>2021-08-06T10:35:41.571Z</time>
      </trkpt>
      <trkpt lat="46.95332" lon="8.72713">
        <ele>1345</ele>
        <time>2021-08-06T10:35:42.571Z</time>
      </trkpt>
      <trkpt lat="46.95331" lon="8.72713">
        <ele>1346</ele>
        <time>2021-08-06T10:35:43.571Z</time>
      </trkpt>
      <trkpt lat="46.9533" lon="8.72713">
        <ele>1346</ele>
        <time>2021-08-06T10:35:44.570Z</time>
      </trkpt>
      <trkpt lat="46.9533" lon="8.72712">
        <ele>1346</ele>
        <time>2021-08-06T10:35:45.570Z</time>
      </trkpt>
      <trkpt lat="46.95329" lon="8.72712">
        <ele>1346</ele>
        <time>2021-08-06T10:35:46.571Z</time>
      </trkpt>
      <trkpt lat="46.95328" lon="8.72711">
        <ele>1346</ele>
        <time>2021-08-06T10:35:47.571Z</time>
      </trkpt>
      <trkpt lat="46.95328" lon="8.72711">
        <ele>1347</ele>
        <time>2021-08-06T10:35:48.571Z</time>
      </trkpt>
      <trkpt lat="46.95327" lon="8.7271">
        <ele>1347</ele>
        <time>2021-08-06T10:35:49.571Z</time>
      </trkpt>
      <trkpt lat="46.95327" lon="8.7271">
        <ele>1348</ele>
        <time>2021-08-06T10:35:50.570Z</time>
      </trkpt>
      <trkpt lat="46.95326" lon="8.72709">
        <ele>1348</ele>
        <time>2021-08-06T10:35:51.571Z</time>
      </trkpt>
      <trkpt lat="46.95326" lon="8.72708">
        <ele>1349</ele>
        <time>2021-08-06T10:35:52.571Z</time>
      </trkpt>
      <trkpt lat="46.95325" lon="8.72708">
        <ele>1349</ele>
        <time>2021-08-06T10:35:53.571Z</time>
      </trkpt>
      <trkpt lat="46.95324" lon="8.72708">
        <ele>1348</ele>
        <time>2021-08-06T10:35:54.570Z</time>
      </trkpt>
      <trkpt lat="46.95324" lon="8.72708">
        <ele>1349</ele>
        <time>2021-08-06T10:35:55.571Z</time>
      </trkpt>
      <trkpt lat="46.95323" lon="8.72708">
        <ele>1349</ele>
        <time>2021-08-06T10:35:56.570Z</time>
      </trkpt>
      <trkpt lat="46.95322" lon="8.72707">
        <ele>1348</ele>
        <time>2021-08-06T10:35:57.571Z</time>
      </trkpt>
      <trkpt lat="46.95322" lon="8.72706">
        <ele>1348</ele>
        <time>2021-08-06T10:35:58.570Z</time>
      </trkpt>
      <trkpt lat="46.95321" lon="8.72706">
        <ele>1347</ele>
        <time>2021-08-06T10:35:59.570Z</time>
      </trkpt>
      <trkpt lat="46.9532" lon="8.72705">
        <ele>1347</ele>
        <time>2021-08-06T10:36:00.571Z</time>
      </trkpt>
      <trkpt lat="46.9532" lon="8.72704">
        <ele>1347</ele>
        <time>2021-08-06T10:36:01.570Z</time>
      </trkpt>
      <trkpt lat="46.95319" lon="8.72704">
        <ele>1346</ele>
        <time>2021-08-06T10:36:02.570Z</time>
      </trkpt>
      <trkpt lat="46.95319" lon="8.72703">
        <ele>1346</ele>
        <time>2021-08-06T10:36:03.570Z</time>
      </trkpt>
      <trkpt lat="46.95318" lon="8.72702">
        <ele>1347</ele>
        <time>2021-08-06T10:36:04.571Z</time>
      </trkpt>
      <trkpt lat="46.95318" lon="8.72701">
        <ele>1347</ele>
        <time>2021-08-06T10:36:05.571Z</time>
      </trkpt>
      <trkpt lat="46.95317" lon="8.727">
        <ele>1346</ele>
        <time>2021-08-06T10:36:06.570Z</time>
      </trkpt>
      <trkpt lat="46.95316" lon="8.72698">
        <ele>1346</ele>
        <time>2021-08-06T10:36:07.570Z</time>
      </trkpt>
      <trkpt lat="46.95315" lon="8.72697">
        <ele>1345</ele>
        <time>2021-08-06T10:36:08.571Z</time>
      </trkpt>
      <trkpt lat="46.95315" lon="8.72696">
        <ele>1345</ele>
        <time>2021-08-06T10:36:09.570Z</time>
      </trkpt>
      <trkpt lat="46.95314" lon="8.72696">
        <ele>1345</ele>
        <time>2021-08-06T10:36:10.571Z</time>
      </trkpt>
      <trkpt lat="46.95313" lon="8.72695">
        <ele>1345</ele>
        <time>2021-08-06T10:36:11.571Z</time>
      </trkpt>
      <trkpt lat="46.95313" lon="8.72694">
        <ele>1344</ele>
        <time>2021-08-06T10:36:12.571Z</time>
      </trkpt>
      <trkpt lat="46.95311" lon="8.72693">
        <ele>1345</ele>
        <time>2021-08-06T10:36:13.570Z</time>
      </trkpt>
      <trkpt lat="46.9531" lon="8.72692">
        <ele>1345</ele>
        <time>2021-08-06T10:36:14.571Z</time>
      </trkpt>
      <trkpt lat="46.95309" lon="8.72691">
        <ele>1345</ele>
        <time>2021-08-06T10:36:15.571Z</time>
      </trkpt>
      <trkpt lat="46.95309" lon="8.7269">
        <ele>1346</ele>
        <time>2021-08-06T10:36:18.721Z</time>
      </trkpt>
      <trkpt lat="46.95308" lon="8.72689">
        <ele>1347</ele>
        <time>2021-08-06T10:36:19.722Z</time>
      </trkpt>
      <trkpt lat="46.95307" lon="8.72688">
        <ele>1347</ele>
        <time>2021-08-06T10:36:20.721Z</time>
      </trkpt>
      <trkpt lat="46.95307" lon="8.72687">
        <ele>1347</ele>
        <time>2021-08-06T10:36:28.891Z</time>
      </trkpt>
      <trkpt lat="46.95306" lon="8.72686">
        <ele>1347</ele>
        <time>2021-08-06T10:36:29.891Z</time>
      </trkpt>
      <trkpt lat="46.95306" lon="8.72685">
        <ele>1347</ele>
        <time>2021-08-06T10:36:30.892Z</time>
      </trkpt>
      <trkpt lat="46.95305" lon="8.72684">
        <ele>1347</ele>
        <time>2021-08-06T10:36:42.972Z</time>
      </trkpt>
      <trkpt lat="46.95305" lon="8.72683">
        <ele>1347</ele>
        <time>2021-08-06T10:36:43.972Z</time>
      </trkpt>
      <trkpt lat="46.95305" lon="8.72682">
        <ele>1347</ele>
        <time>2021-08-06T10:37:05.856Z</time>
      </trkpt>
      <trkpt lat="46.95304" lon="8.72681">
        <ele>1346</ele>
        <time>2021-08-06T10:37:06.856Z</time>
      </trkpt>
      <trkpt lat="46.95304" lon="8.7268">
        <ele>1346</ele>
        <time>2021-08-06T10:37:07.857Z</time>
      </trkpt>
      <trkpt lat="46.95303" lon="8.72679">
        <ele>1346</ele>
        <time>2021-08-06T10:37:08.857Z</time>
      </trkpt>
      <trkpt lat="46.95303" lon="8.72678">
        <ele>1346</ele>
        <time>2021-08-06T10:37:09.857Z</time>
      </trkpt>
      <trkpt lat="46.95302" lon="8.72677">
        <ele>1346</ele>
        <time>2021-08-06T10:37:10.857Z</time>
      </trkpt>
      <trkpt lat="46.95302" lon="8.72676">
        <ele>1347</ele>
        <time>2021-08-06T10:37:11.857Z</time>
      </trkpt>
      <trkpt lat="46.95302" lon="8.72675">
        <ele>1346</ele>
        <time>2021-08-06T10:37:12.857Z</time>
      </trkpt>
      <trkpt lat="46.95302" lon="8.72674">
        <ele>1346</ele>
        <time>2021-08-06T10:37:13.857Z</time>
      </trkpt>
      <trkpt lat="46.95301" lon="8.72674">
        <ele>1346</ele>
        <time>2021-08-06T10:37:14.857Z</time>
      </trkpt>
      <trkpt lat="46.95302" lon="8.72673">
        <ele>1346</ele>
        <time>2021-08-06T10:37:15.857Z</time>
      </trkpt>
      <trkpt lat="46.95302" lon="8.72673">
        <ele>1346</ele>
        <time>2021-08-06T10:37:16.856Z</time>
      </trkpt>
      <trkpt lat="46.95302" lon="8.72672">
        <ele>1346</ele>
        <time>2021-08-06T10:37:17.857Z</time>
      </trkpt>
      <trkpt lat="46.95303" lon="8.72672">
        <ele>1345</ele>
        <time>2021-08-06T10:37:18.857Z</time>
      </trkpt>
      <trkpt lat="46.95303" lon="8.72671">
        <ele>1345</ele>
        <time>2021-08-06T10:37:19.856Z</time>
      </trkpt>
      <trkpt lat="46.95302" lon="8.72671">
        <ele>1345</ele>
        <time>2021-08-06T10:37:20.857Z</time>
      </trkpt>
      <trkpt lat="46.95302" lon="8.72672">
        <ele>1345</ele>
        <time>2021-08-06T10:37:21.856Z</time>
      </trkpt>
      <trkpt lat="46.95301" lon="8.72672">
        <ele>1345</ele>
        <time>2021-08-06T10:37:22.856Z</time>
      </trkpt>
      <trkpt lat="46.95301" lon="8.72672">
        <ele>1345</ele>
        <time>2021-08-06T10:37:23.857Z</time>
      </trkpt>
      <trkpt lat="46.953" lon="8.72672">
        <ele>1344</ele>
        <time>2021-08-06T10:37:24.856Z</time>
      </trkpt>
      <trkpt lat="46.95299" lon="8.72671">
        <ele>1344</ele>
        <time>2021-08-06T10:37:25.856Z</time>
      </trkpt>
      <trkpt lat="46.95298" lon="8.72671">
        <ele>1344</ele>
        <time>2021-08-06T10:37:26.856Z</time>
      </trkpt>
      <trkpt lat="46.95296" lon="8.72671">
        <ele>1344</ele>
        <time>2021-08-06T10:37:27.856Z</time>
      </trkpt>
      <trkpt lat="46.95295" lon="8.72671">
        <ele>1344</ele>
        <time>2021-08-06T10:37:28.856Z</time>
      </trkpt>
      <trkpt lat="46.95295" lon="8.7267">
        <ele>1344</ele>
        <time>2021-08-06T10:37:29.856Z</time>
      </trkpt>
      <trkpt lat="46.95294" lon="8.72669">
        <ele>1344</ele>
        <time>2021-08-06T10:37:30.857Z</time>
      </trkpt>
      <trkpt lat="46.95293" lon="8.72667">
        <ele>1345</ele>
        <time>2021-08-06T10:37:31.856Z</time>
      </trkpt>
      <trkpt lat="46.95292" lon="8.72667">
        <ele>1346</ele>
        <time>2021-08-06T10:37:32.856Z</time>
      </trkpt>
      <trkpt lat="46.9529" lon="8.72666">
        <ele>1346</ele>
        <time>2021-08-06T10:37:33.856Z</time>
      </trkpt>
      <trkpt lat="46.95289" lon="8.72665">
        <ele>1347</ele>
        <time>2021-08-06T10:37:34.857Z</time>
      </trkpt>
      <trkpt lat="46.95288" lon="8.72664">
        <ele>1347</ele>
        <time>2021-08-06T10:37:35.856Z</time>
      </trkpt>
      <trkpt lat="46.95288" lon="8.72663">
        <ele>1348</ele>
        <time>2021-08-06T10:37:36.856Z</time>
      </trkpt>
      <trkpt lat="46.95287" lon="8.72663">
        <ele>1349</ele>
        <time>2021-08-06T10:37:37.856Z</time>
      </trkpt>
      <trkpt lat="46.95286" lon="8.72662">
        <ele>1349</ele>
        <time>2021-08-06T10:37:38.856Z</time>
      </trkpt>
      <trkpt lat="46.95285" lon="8.72662">
        <ele>1350</ele>
        <time>2021-08-06T10:37:39.857Z</time>
      </trkpt>
      <trkpt lat="46.95284" lon="8.72662">
        <ele>1350</ele>
        <time>2021-08-06T10:37:40.856Z</time>
      </trkpt>
      <trkpt lat="46.95283" lon="8.72662">
        <ele>1350</ele>
        <time>2021-08-06T10:37:41.856Z</time>
      </trkpt>
      <trkpt lat="46.95282" lon="8.72662">
        <ele>1349</ele>
        <time>2021-08-06T10:37:42.856Z</time>
      </trkpt>
      <trkpt lat="46.95281" lon="8.72661">
        <ele>1349</ele>
        <time>2021-08-06T10:37:43.856Z</time>
      </trkpt>
      <trkpt lat="46.9528" lon="8.72661">
        <ele>1349</ele>
        <time>2021-08-06T10:37:44.856Z</time>
      </trkpt>
      <trkpt lat="46.95279" lon="8.72661">
        <ele>1350</ele>
        <time>2021-08-06T10:37:45.856Z</time>
      </trkpt>
      <trkpt lat="46.95278" lon="8.7266">
        <ele>1350</ele>
        <time>2021-08-06T10:37:46.856Z</time>
      </trkpt>
      <trkpt lat="46.95277" lon="8.7266">
        <ele>1350</ele>
        <time>2021-08-06T10:37:47.856Z</time>
      </trkpt>
      <trkpt lat="46.95277" lon="8.7266">
        <ele>1351</ele>
        <time>2021-08-06T10:37:48.856Z</time>
      </trkpt>
      <trkpt lat="46.95277" lon="8.7266">
        <ele>1351</ele>
        <time>2021-08-06T10:37:49.856Z</time>
      </trkpt>
      <trkpt lat="46.95276" lon="8.7266">
        <ele>1351</ele>
        <time>2021-08-06T10:37:50.856Z</time>
      </trkpt>
      <trkpt lat="46.95276" lon="8.7266">
        <ele>1351</ele>
        <time>2021-08-06T10:37:51.856Z</time>
      </trkpt>
      <trkpt lat="46.95275" lon="8.7266">
        <ele>1356</ele>
        <time>2021-08-06T10:37:52.857Z</time>
      </trkpt>
      <trkpt lat="46.95275" lon="8.72661">
        <ele>1356</ele>
        <time>2021-08-06T10:37:53.857Z</time>
      </trkpt>
      <trkpt lat="46.95274" lon="8.72661">
        <ele>1356</ele>
        <time>2021-08-06T10:37:54.857Z</time>
      </trkpt>
      <trkpt lat="46.95273" lon="8.72661">
        <ele>1355</ele>
        <time>2021-08-06T10:37:55.857Z</time>
      </trkpt>
      <trkpt lat="46.95272" lon="8.7266">
        <ele>1355</ele>
        <time>2021-08-06T10:37:56.857Z</time>
      </trkpt>
      <trkpt lat="46.9527" lon="8.7266">
        <ele>1355</ele>
        <time>2021-08-06T10:37:57.857Z</time>
      </trkpt>
      <trkpt lat="46.9527" lon="8.7266">
        <ele>1354</ele>
        <time>2021-08-06T10:37:58.856Z</time>
      </trkpt>
      <trkpt lat="46.95269" lon="8.72659">
        <ele>1354</ele>
        <time>2021-08-06T10:37:59.857Z</time>
      </trkpt>
      <trkpt lat="46.95268" lon="8.72659">
        <ele>1353</ele>
        <time>2021-08-06T10:38:00.857Z</time>
      </trkpt>
      <trkpt lat="46.95267" lon="8.72659">
        <ele>1352</ele>
        <time>2021-08-06T10:38:01.857Z</time>
      </trkpt>
      <trkpt lat="46.95266" lon="8.72658">
        <ele>1352</ele>
        <time>2021-08-06T10:38:02.857Z</time>
      </trkpt>
      <trkpt lat="46.95265" lon="8.72658">
        <ele>1351</ele>
        <time>2021-08-06T10:38:03.857Z</time>
      </trkpt>
      <trkpt lat="46.95264" lon="8.72657">
        <ele>1351</ele>
        <time>2021-08-06T10:38:04.857Z</time>
      </trkpt>
      <trkpt lat="46.95263" lon="8.72657">
        <ele>1350</ele>
        <time>2021-08-06T10:38:05.857Z</time>
      </trkpt>
      <trkpt lat="46.95263" lon="8.72656">
        <ele>1350</ele>
        <time>2021-08-06T10:38:06.857Z</time>
      </trkpt>
      <trkpt lat="46.95262" lon="8.72656">
        <ele>1350</ele>
        <time>2021-08-06T10:38:07.856Z</time>
      </trkpt>
      <trkpt lat="46.95262" lon="8.72655">
        <ele>1351</ele>
        <time>2021-08-06T10:38:08.857Z</time>
      </trkpt>
      <trkpt lat="46.95261" lon="8.72654">
        <ele>1351</ele>
        <time>2021-08-06T10:38:09.857Z</time>
      </trkpt>
      <trkpt lat="46.9526" lon="8.72653">
        <ele>1351</ele>
        <time>2021-08-06T10:38:10.857Z</time>
      </trkpt>
      <trkpt lat="46.95259" lon="8.72652">
        <ele>1351</ele>
        <time>2021-08-06T10:38:11.857Z</time>
      </trkpt>
      <trkpt lat="46.95258" lon="8.72652">
        <ele>1351</ele>
        <time>2021-08-06T10:38:12.857Z</time>
      </trkpt>
      <trkpt lat="46.95257" lon="8.72651">
        <ele>1351</ele>
        <time>2021-08-06T10:38:13.857Z</time>
      </trkpt>
      <trkpt lat="46.95256" lon="8.7265">
        <ele>1351</ele>
        <time>2021-08-06T10:38:14.856Z</time>
      </trkpt>
      <trkpt lat="46.95255" lon="8.72649">
        <ele>1352</ele>
        <time>2021-08-06T10:38:15.856Z</time>
      </trkpt>
      <trkpt lat="46.95254" lon="8.72649">
        <ele>1352</ele>
        <time>2021-08-06T10:38:16.857Z</time>
      </trkpt>
      <trkpt lat="46.95253" lon="8.72648">
        <ele>1353</ele>
        <time>2021-08-06T10:38:17.857Z</time>
      </trkpt>
      <trkpt lat="46.95252" lon="8.72646">
        <ele>1353</ele>
        <time>2021-08-06T10:38:18.857Z</time>
      </trkpt>
      <trkpt lat="46.95251" lon="8.72646">
        <ele>1353</ele>
        <time>2021-08-06T10:38:19.856Z</time>
      </trkpt>
      <trkpt lat="46.9525" lon="8.72645">
        <ele>1353</ele>
        <time>2021-08-06T10:38:20.856Z</time>
      </trkpt>
      <trkpt lat="46.9525" lon="8.72644">
        <ele>1353</ele>
        <time>2021-08-06T10:38:21.857Z</time>
      </trkpt>
      <trkpt lat="46.95249" lon="8.72643">
        <ele>1353</ele>
        <time>2021-08-06T10:38:22.857Z</time>
      </trkpt>
      <trkpt lat="46.95248" lon="8.72642">
        <ele>1352</ele>
        <time>2021-08-06T10:38:23.856Z</time>
      </trkpt>
      <trkpt lat="46.95247" lon="8.72642">
        <ele>1352</ele>
        <time>2021-08-06T10:38:24.857Z</time>
      </trkpt>
      <trkpt lat="46.95246" lon="8.72641">
        <ele>1352</ele>
        <time>2021-08-06T10:38:25.857Z</time>
      </trkpt>
      <trkpt lat="46.95245" lon="8.7264">
        <ele>1352</ele>
        <time>2021-08-06T10:38:26.857Z</time>
      </trkpt>
      <trkpt lat="46.95244" lon="8.72639">
        <ele>1352</ele>
        <time>2021-08-06T10:38:27.856Z</time>
      </trkpt>
      <trkpt lat="46.95244" lon="8.72638">
        <ele>1352</ele>
        <time>2021-08-06T10:38:28.857Z</time>
      </trkpt>
      <trkpt lat="46.95243" lon="8.72638">
        <ele>1351</ele>
        <time>2021-08-06T10:38:29.856Z</time>
      </trkpt>
      <trkpt lat="46.95242" lon="8.72637">
        <ele>1351</ele>
        <time>2021-08-06T10:38:30.857Z</time>
      </trkpt>
      <trkpt lat="46.95241" lon="8.72636">
        <ele>1351</ele>
        <time>2021-08-06T10:38:31.856Z</time>
      </trkpt>
      <trkpt lat="46.9524" lon="8.72635">
        <ele>1352</ele>
        <time>2021-08-06T10:38:32.857Z</time>
      </trkpt>
      <trkpt lat="46.95239" lon="8.72634">
        <ele>1353</ele>
        <time>2021-08-06T10:38:33.857Z</time>
      </trkpt>
      <trkpt lat="46.95238" lon="8.72633">
        <ele>1353</ele>
        <time>2021-08-06T10:38:34.856Z</time>
      </trkpt>
      <trkpt lat="46.95238" lon="8.72633">
        <ele>1353</ele>
        <time>2021-08-06T10:38:35.856Z</time>
      </trkpt>
      <trkpt lat="46.95237" lon="8.72632">
        <ele>1353</ele>
        <time>2021-08-06T10:38:36.857Z</time>
      </trkpt>
      <trkpt lat="46.95237" lon="8.72631">
        <ele>1352</ele>
        <time>2021-08-06T10:38:37.856Z</time>
      </trkpt>
      <trkpt lat="46.95236" lon="8.7263">
        <ele>1352</ele>
        <time>2021-08-06T10:38:38.857Z</time>
      </trkpt>
      <trkpt lat="46.95235" lon="8.72629">
        <ele>1352</ele>
        <time>2021-08-06T10:38:39.857Z</time>
      </trkpt>
      <trkpt lat="46.95234" lon="8.72628">
        <ele>1352</ele>
        <time>2021-08-06T10:38:40.857Z</time>
      </trkpt>
      <trkpt lat="46.95233" lon="8.72627">
        <ele>1352</ele>
        <time>2021-08-06T10:38:41.857Z</time>
      </trkpt>
      <trkpt lat="46.95232" lon="8.72627">
        <ele>1353</ele>
        <time>2021-08-06T10:38:42.857Z</time>
      </trkpt>
      <trkpt lat="46.95231" lon="8.72626">
        <ele>1353</ele>
        <time>2021-08-06T10:38:43.857Z</time>
      </trkpt>
      <trkpt lat="46.95231" lon="8.72625">
        <ele>1353</ele>
        <time>2021-08-06T10:38:44.856Z</time>
      </trkpt>
      <trkpt lat="46.9523" lon="8.72624">
        <ele>1353</ele>
        <time>2021-08-06T10:38:45.857Z</time>
      </trkpt>
      <trkpt lat="46.95229" lon="8.72624">
        <ele>1352</ele>
        <time>2021-08-06T10:38:46.857Z</time>
      </trkpt>
      <trkpt lat="46.95229" lon="8.72623">
        <ele>1352</ele>
        <time>2021-08-06T10:38:47.857Z</time>
      </trkpt>
      <trkpt lat="46.95228" lon="8.72623">
        <ele>1352</ele>
        <time>2021-08-06T10:38:48.857Z</time>
      </trkpt>
      <trkpt lat="46.95227" lon="8.72622">
        <ele>1352</ele>
        <time>2021-08-06T10:38:49.857Z</time>
      </trkpt>
      <trkpt lat="46.95226" lon="8.72621">
        <ele>1352</ele>
        <time>2021-08-06T10:38:50.857Z</time>
      </trkpt>
      <trkpt lat="46.95225" lon="8.72621">
        <ele>1353</ele>
        <time>2021-08-06T10:38:51.856Z</time>
      </trkpt>
      <trkpt lat="46.95224" lon="8.7262">
        <ele>1353</ele>
        <time>2021-08-06T10:38:52.857Z</time>
      </trkpt>
      <trkpt lat="46.95223" lon="8.7262">
        <ele>1353</ele>
        <time>2021-08-06T10:38:53.857Z</time>
      </trkpt>
      <trkpt lat="46.95222" lon="8.72619">
        <ele>1353</ele>
        <time>2021-08-06T10:38:54.857Z</time>
      </trkpt>
      <trkpt lat="46.95222" lon="8.72619">
        <ele>1353</ele>
        <time>2021-08-06T10:38:55.857Z</time>
      </trkpt>
      <trkpt lat="46.95221" lon="8.72618">
        <ele>1353</ele>
        <time>2021-08-06T10:38:56.857Z</time>
      </trkpt>
      <trkpt lat="46.9522" lon="8.72617">
        <ele>1353</ele>
        <time>2021-08-06T10:38:57.857Z</time>
      </trkpt>
      <trkpt lat="46.9522" lon="8.72617">
        <ele>1353</ele>
        <time>2021-08-06T10:38:58.857Z</time>
      </trkpt>
      <trkpt lat="46.95219" lon="8.72616">
        <ele>1353</ele>
        <time>2021-08-06T10:38:59.857Z</time>
      </trkpt>
      <trkpt lat="46.95218" lon="8.72616">
        <ele>1354</ele>
        <time>2021-08-06T10:39:00.857Z</time>
      </trkpt>
      <trkpt lat="46.95217" lon="8.72615">
        <ele>1354</ele>
        <time>2021-08-06T10:39:01.857Z</time>
      </trkpt>
      <trkpt lat="46.95216" lon="8.72615">
        <ele>1355</ele>
        <time>2021-08-06T10:39:02.857Z</time>
      </trkpt>
      <trkpt lat="46.95216" lon="8.72615">
        <ele>1355</ele>
        <time>2021-08-06T10:39:03.857Z</time>
      </trkpt>
      <trkpt lat="46.95215" lon="8.72615">
        <ele>1355</ele>
        <time>2021-08-06T10:39:04.857Z</time>
      </trkpt>
      <trkpt lat="46.95214" lon="8.72614">
        <ele>1355</ele>
        <time>2021-08-06T10:39:05.856Z</time>
      </trkpt>
      <trkpt lat="46.95213" lon="8.72614">
        <ele>1355</ele>
        <time>2021-08-06T10:39:06.856Z</time>
      </trkpt>
      <trkpt lat="46.95212" lon="8.72613">
        <ele>1355</ele>
        <time>2021-08-06T10:39:07.856Z</time>
      </trkpt>
      <trkpt lat="46.95211" lon="8.72613">
        <ele>1355</ele>
        <time>2021-08-06T10:39:08.856Z</time>
      </trkpt>
      <trkpt lat="46.9521" lon="8.72612">
        <ele>1355</ele>
        <time>2021-08-06T10:39:09.856Z</time>
      </trkpt>
      <trkpt lat="46.95209" lon="8.72612">
        <ele>1355</ele>
        <time>2021-08-06T10:39:10.856Z</time>
      </trkpt>
      <trkpt lat="46.95208" lon="8.72612">
        <ele>1355</ele>
        <time>2021-08-06T10:39:11.857Z</time>
      </trkpt>
      <trkpt lat="46.95206" lon="8.72612">
        <ele>1355</ele>
        <time>2021-08-06T10:39:12.857Z</time>
      </trkpt>
      <trkpt lat="46.95206" lon="8.72612">
        <ele>1355</ele>
        <time>2021-08-06T10:39:13.857Z</time>
      </trkpt>
      <trkpt lat="46.95204" lon="8.72612">
        <ele>1355</ele>
        <time>2021-08-06T10:39:14.856Z</time>
      </trkpt>
      <trkpt lat="46.95203" lon="8.72613">
        <ele>1356</ele>
        <time>2021-08-06T10:39:15.856Z</time>
      </trkpt>
      <trkpt lat="46.95202" lon="8.72614">
        <ele>1356</ele>
        <time>2021-08-06T10:39:16.856Z</time>
      </trkpt>
      <trkpt lat="46.95202" lon="8.72615">
        <ele>1356</ele>
        <time>2021-08-06T10:39:17.857Z</time>
      </trkpt>
      <trkpt lat="46.95201" lon="8.72616">
        <ele>1356</ele>
        <time>2021-08-06T10:39:18.856Z</time>
      </trkpt>
      <trkpt lat="46.952" lon="8.72618">
        <ele>1356</ele>
        <time>2021-08-06T10:39:19.857Z</time>
      </trkpt>
      <trkpt lat="46.95199" lon="8.72619">
        <ele>1356</ele>
        <time>2021-08-06T10:39:20.857Z</time>
      </trkpt>
      <trkpt lat="46.95199" lon="8.7262">
        <ele>1356</ele>
        <time>2021-08-06T10:39:21.857Z</time>
      </trkpt>
      <trkpt lat="46.95198" lon="8.72622">
        <ele>1356</ele>
        <time>2021-08-06T10:39:22.857Z</time>
      </trkpt>
      <trkpt lat="46.95198" lon="8.72624">
        <ele>1356</ele>
        <time>2021-08-06T10:39:23.857Z</time>
      </trkpt>
      <trkpt lat="46.95198" lon="8.72625">
        <ele>1357</ele>
        <time>2021-08-06T10:39:24.856Z</time>
      </trkpt>
      <trkpt lat="46.95198" lon="8.72627">
        <ele>1357</ele>
        <time>2021-08-06T10:39:25.857Z</time>
      </trkpt>
      <trkpt lat="46.95198" lon="8.72628">
        <ele>1356</ele>
        <time>2021-08-06T10:39:26.856Z</time>
      </trkpt>
      <trkpt lat="46.95198" lon="8.7263">
        <ele>1356</ele>
        <time>2021-08-06T10:39:27.857Z</time>
      </trkpt>
      <trkpt lat="46.95198" lon="8.72631">
        <ele>1355</ele>
        <time>2021-08-06T10:39:28.856Z</time>
      </trkpt>
      <trkpt lat="46.95198" lon="8.72633">
        <ele>1355</ele>
        <time>2021-08-06T10:39:29.856Z</time>
      </trkpt>
      <trkpt lat="46.95198" lon="8.72634">
        <ele>1355</ele>
        <time>2021-08-06T10:39:30.857Z</time>
      </trkpt>
      <trkpt lat="46.95199" lon="8.72636">
        <ele>1356</ele>
        <time>2021-08-06T10:39:31.857Z</time>
      </trkpt>
      <trkpt lat="46.95199" lon="8.72637">
        <ele>1357</ele>
        <time>2021-08-06T10:39:32.856Z</time>
      </trkpt>
      <trkpt lat="46.95199" lon="8.72638">
        <ele>1357</ele>
        <time>2021-08-06T10:39:33.856Z</time>
      </trkpt>
      <trkpt lat="46.952" lon="8.7264">
        <ele>1358</ele>
        <time>2021-08-06T10:39:34.856Z</time>
      </trkpt>
      <trkpt lat="46.952" lon="8.72641">
        <ele>1358</ele>
        <time>2021-08-06T10:39:35.856Z</time>
      </trkpt>
      <trkpt lat="46.95201" lon="8.72642">
        <ele>1358</ele>
        <time>2021-08-06T10:39:36.857Z</time>
      </trkpt>
      <trkpt lat="46.95201" lon="8.72644">
        <ele>1359</ele>
        <time>2021-08-06T10:39:37.857Z</time>
      </trkpt>
      <trkpt lat="46.95201" lon="8.72645">
        <ele>1359</ele>
        <time>2021-08-06T10:39:38.857Z</time>
      </trkpt>
      <trkpt lat="46.95202" lon="8.72646">
        <ele>1359</ele>
        <time>2021-08-06T10:39:39.857Z</time>
      </trkpt>
      <trkpt lat="46.95202" lon="8.72647">
        <ele>1359</ele>
        <time>2021-08-06T10:39:40.857Z</time>
      </trkpt>
      <trkpt lat="46.95203" lon="8.72648">
        <ele>1359</ele>
        <time>2021-08-06T10:39:41.856Z</time>
      </trkpt>
      <trkpt lat="46.95203" lon="8.72649">
        <ele>1358</ele>
        <time>2021-08-06T10:39:42.857Z</time>
      </trkpt>
      <trkpt lat="46.95204" lon="8.72651">
        <ele>1358</ele>
        <time>2021-08-06T10:39:43.856Z</time>
      </trkpt>
      <trkpt lat="46.95204" lon="8.72652">
        <ele>1358</ele>
        <time>2021-08-06T10:39:44.856Z</time>
      </trkpt>
      <trkpt lat="46.95204" lon="8.72653">
        <ele>1358</ele>
        <time>2021-08-06T10:39:45.857Z</time>
      </trkpt>
      <trkpt lat="46.95204" lon="8.72654">
        <ele>1358</ele>
        <time>2021-08-06T10:39:46.857Z</time>
      </trkpt>
      <trkpt lat="46.95205" lon="8.72655">
        <ele>1358</ele>
        <time>2021-08-06T10:39:47.857Z</time>
      </trkpt>
      <trkpt lat="46.95205" lon="8.72656">
        <ele>1358</ele>
        <time>2021-08-06T10:39:48.856Z</time>
      </trkpt>
      <trkpt lat="46.95205" lon="8.72657">
        <ele>1357</ele>
        <time>2021-08-06T10:39:49.857Z</time>
      </trkpt>
      <trkpt lat="46.95205" lon="8.72658">
        <ele>1357</ele>
        <time>2021-08-06T10:39:50.857Z</time>
      </trkpt>
      <trkpt lat="46.95205" lon="8.72659">
        <ele>1358</ele>
        <time>2021-08-06T10:39:51.857Z</time>
      </trkpt>
      <trkpt lat="46.95205" lon="8.7266">
        <ele>1358</ele>
        <time>2021-08-06T10:39:52.856Z</time>
      </trkpt>
      <trkpt lat="46.95205" lon="8.7266">
        <ele>1358</ele>
        <time>2021-08-06T10:39:53.857Z</time>
      </trkpt>
      <trkpt lat="46.95205" lon="8.72661">
        <ele>1358</ele>
        <time>2021-08-06T10:39:54.856Z</time>
      </trkpt>
      <trkpt lat="46.95205" lon="8.72662">
        <ele>1358</ele>
        <time>2021-08-06T10:39:55.857Z</time>
      </trkpt>
      <trkpt lat="46.95205" lon="8.72663">
        <ele>1359</ele>
        <time>2021-08-06T10:39:56.857Z</time>
      </trkpt>
      <trkpt lat="46.95205" lon="8.72664">
        <ele>1359</ele>
        <time>2021-08-06T10:39:57.857Z</time>
      </trkpt>
      <trkpt lat="46.95205" lon="8.72665">
        <ele>1360</ele>
        <time>2021-08-06T10:39:58.857Z</time>
      </trkpt>
      <trkpt lat="46.95206" lon="8.72666">
        <ele>1360</ele>
        <time>2021-08-06T10:39:59.857Z</time>
      </trkpt>
      <trkpt lat="46.95206" lon="8.72667">
        <ele>1361</ele>
        <time>2021-08-06T10:40:00.857Z</time>
      </trkpt>
      <trkpt lat="46.95206" lon="8.72667">
        <ele>1361</ele>
        <time>2021-08-06T10:40:01.857Z</time>
      </trkpt>
      <trkpt lat="46.95205" lon="8.72668">
        <ele>1362</ele>
        <time>2021-08-06T10:40:02.857Z</time>
      </trkpt>
      <trkpt lat="46.95205" lon="8.72669">
        <ele>1362</ele>
        <time>2021-08-06T10:40:03.856Z</time>
      </trkpt>
      <trkpt lat="46.95205" lon="8.7267">
        <ele>1362</ele>
        <time>2021-08-06T10:40:04.856Z</time>
      </trkpt>
      <trkpt lat="46.95205" lon="8.7267">
        <ele>1362</ele>
        <time>2021-08-06T10:40:05.857Z</time>
      </trkpt>
      <trkpt lat="46.95205" lon="8.72671">
        <ele>1362</ele>
        <time>2021-08-06T10:40:06.857Z</time>
      </trkpt>
      <trkpt lat="46.95205" lon="8.72672">
        <ele>1361</ele>
        <time>2021-08-06T10:40:07.856Z</time>
      </trkpt>
      <trkpt lat="46.95204" lon="8.72672">
        <ele>1362</ele>
        <time>2021-08-06T10:40:08.856Z</time>
      </trkpt>
      <trkpt lat="46.95204" lon="8.72673">
        <ele>1362</ele>
        <time>2021-08-06T10:40:09.857Z</time>
      </trkpt>
      <trkpt lat="46.95204" lon="8.72674">
        <ele>1362</ele>
        <time>2021-08-06T10:40:10.856Z</time>
      </trkpt>
      <trkpt lat="46.95204" lon="8.72675">
        <ele>1362</ele>
        <time>2021-08-06T10:40:11.857Z</time>
      </trkpt>
      <trkpt lat="46.95204" lon="8.72676">
        <ele>1362</ele>
        <time>2021-08-06T10:40:12.856Z</time>
      </trkpt>
      <trkpt lat="46.95204" lon="8.72677">
        <ele>1362</ele>
        <time>2021-08-06T10:40:13.857Z</time>
      </trkpt>
      <trkpt lat="46.95203" lon="8.72678">
        <ele>1362</ele>
        <time>2021-08-06T10:40:14.856Z</time>
      </trkpt>
      <trkpt lat="46.95203" lon="8.72679">
        <ele>1362</ele>
        <time>2021-08-06T10:40:15.857Z</time>
      </trkpt>
      <trkpt lat="46.95203" lon="8.7268">
        <ele>1362</ele>
        <time>2021-08-06T10:40:16.856Z</time>
      </trkpt>
      <trkpt lat="46.95202" lon="8.7268">
        <ele>1362</ele>
        <time>2021-08-06T10:40:17.857Z</time>
      </trkpt>
      <trkpt lat="46.95202" lon="8.72681">
        <ele>1362</ele>
        <time>2021-08-06T10:40:18.856Z</time>
      </trkpt>
      <trkpt lat="46.95202" lon="8.72682">
        <ele>1363</ele>
        <time>2021-08-06T10:40:19.857Z</time>
      </trkpt>
      <trkpt lat="46.95202" lon="8.72683">
        <ele>1362</ele>
        <time>2021-08-06T10:40:20.856Z</time>
      </trkpt>
      <trkpt lat="46.95202" lon="8.72684">
        <ele>1363</ele>
        <time>2021-08-06T10:40:21.856Z</time>
      </trkpt>
      <trkpt lat="46.95202" lon="8.72685">
        <ele>1363</ele>
        <time>2021-08-06T10:40:22.857Z</time>
      </trkpt>
      <trkpt lat="46.95202" lon="8.72685">
        <ele>1363</ele>
        <time>2021-08-06T10:40:23.857Z</time>
      </trkpt>
      <trkpt lat="46.95202" lon="8.72686">
        <ele>1363</ele>
        <time>2021-08-06T10:40:24.856Z</time>
      </trkpt>
      <trkpt lat="46.95202" lon="8.72687">
        <ele>1363</ele>
        <time>2021-08-06T10:40:25.857Z</time>
      </trkpt>
      <trkpt lat="46.95201" lon="8.72688">
        <ele>1362</ele>
        <time>2021-08-06T10:40:26.856Z</time>
      </trkpt>
      <trkpt lat="46.95201" lon="8.72689">
        <ele>1361</ele>
        <time>2021-08-06T10:40:27.857Z</time>
      </trkpt>
      <trkpt lat="46.95201" lon="8.7269">
        <ele>1361</ele>
        <time>2021-08-06T10:40:28.856Z</time>
      </trkpt>
      <trkpt lat="46.95201" lon="8.72691">
        <ele>1360</ele>
        <time>2021-08-06T10:40:29.857Z</time>
      </trkpt>
      <trkpt lat="46.952" lon="8.72692">
        <ele>1360</ele>
        <time>2021-08-06T10:40:30.856Z</time>
      </trkpt>
      <trkpt lat="46.952" lon="8.72693">
        <ele>1360</ele>
        <time>2021-08-06T10:40:31.856Z</time>
      </trkpt>
      <trkpt lat="46.952" lon="8.72694">
        <ele>1361</ele>
        <time>2021-08-06T10:40:32.856Z</time>
      </trkpt>
      <trkpt lat="46.952" lon="8.72694">
        <ele>1361</ele>
        <time>2021-08-06T10:40:33.856Z</time>
      </trkpt>
      <trkpt lat="46.952" lon="8.72695">
        <ele>1362</ele>
        <time>2021-08-06T10:40:34.857Z</time>
      </trkpt>
      <trkpt lat="46.952" lon="8.72696">
        <ele>1362</ele>
        <time>2021-08-06T10:40:35.856Z</time>
      </trkpt>
      <trkpt lat="46.952" lon="8.72696">
        <ele>1362</ele>
        <time>2021-08-06T10:40:36.857Z</time>
      </trkpt>
      <trkpt lat="46.952" lon="8.72698">
        <ele>1362</ele>
        <time>2021-08-06T10:40:37.856Z</time>
      </trkpt>
      <trkpt lat="46.952" lon="8.72698">
        <ele>1363</ele>
        <time>2021-08-06T10:40:38.857Z</time>
      </trkpt>
      <trkpt lat="46.952" lon="8.72699">
        <ele>1363</ele>
        <time>2021-08-06T10:40:39.856Z</time>
      </trkpt>
      <trkpt lat="46.952" lon="8.727">
        <ele>1363</ele>
        <time>2021-08-06T10:40:40.856Z</time>
      </trkpt>
      <trkpt lat="46.952" lon="8.72701">
        <ele>1364</ele>
        <time>2021-08-06T10:40:41.856Z</time>
      </trkpt>
      <trkpt lat="46.952" lon="8.72702">
        <ele>1364</ele>
        <time>2021-08-06T10:40:42.856Z</time>
      </trkpt>
      <trkpt lat="46.952" lon="8.72704">
        <ele>1364</ele>
        <time>2021-08-06T10:40:43.857Z</time>
      </trkpt>
      <trkpt lat="46.95199" lon="8.72704">
        <ele>1364</ele>
        <time>2021-08-06T10:40:44.856Z</time>
      </trkpt>
      <trkpt lat="46.95199" lon="8.72705">
        <ele>1365</ele>
        <time>2021-08-06T10:40:45.857Z</time>
      </trkpt>
      <trkpt lat="46.95199" lon="8.72707">
        <ele>1365</ele>
        <time>2021-08-06T10:40:46.856Z</time>
      </trkpt>
      <trkpt lat="46.95199" lon="8.72708">
        <ele>1365</ele>
        <time>2021-08-06T10:40:47.856Z</time>
      </trkpt>
      <trkpt lat="46.95199" lon="8.72709">
        <ele>1366</ele>
        <time>2021-08-06T10:40:48.857Z</time>
      </trkpt>
      <trkpt lat="46.95199" lon="8.7271">
        <ele>1366</ele>
        <time>2021-08-06T10:40:49.857Z</time>
      </trkpt>
      <trkpt lat="46.95199" lon="8.72711">
        <ele>1366</ele>
        <time>2021-08-06T10:40:50.856Z</time>
      </trkpt>
      <trkpt lat="46.95199" lon="8.72711">
        <ele>1366</ele>
        <time>2021-08-06T10:40:51.857Z</time>
      </trkpt>
      <trkpt lat="46.95199" lon="8.72712">
        <ele>1366</ele>
        <time>2021-08-06T10:40:52.856Z</time>
      </trkpt>
      <trkpt lat="46.95199" lon="8.72713">
        <ele>1366</ele>
        <time>2021-08-06T10:40:53.856Z</time>
      </trkpt>
      <trkpt lat="46.95199" lon="8.72714">
        <ele>1366</ele>
        <time>2021-08-06T10:40:54.856Z</time>
      </trkpt>
      <trkpt lat="46.95199" lon="8.72714">
        <ele>1367</ele>
        <time>2021-08-06T10:40:55.856Z</time>
      </trkpt>
      <trkpt lat="46.95199" lon="8.72715">
        <ele>1367</ele>
        <time>2021-08-06T10:40:56.857Z</time>
      </trkpt>
      <trkpt lat="46.95199" lon="8.72716">
        <ele>1367</ele>
        <time>2021-08-06T10:40:57.856Z</time>
      </trkpt>
      <trkpt lat="46.95199" lon="8.72717">
        <ele>1367</ele>
        <time>2021-08-06T10:40:58.856Z</time>
      </trkpt>
      <trkpt lat="46.95199" lon="8.72718">
        <ele>1367</ele>
        <time>2021-08-06T10:40:59.856Z</time>
      </trkpt>
      <trkpt lat="46.95199" lon="8.72719">
        <ele>1368</ele>
        <time>2021-08-06T10:41:00.856Z</time>
      </trkpt>
      <trkpt lat="46.95199" lon="8.72719">
        <ele>1369</ele>
        <time>2021-08-06T10:41:01.856Z</time>
      </trkpt>
      <trkpt lat="46.95198" lon="8.72721">
        <ele>1369</ele>
        <time>2021-08-06T10:41:02.856Z</time>
      </trkpt>
      <trkpt lat="46.95198" lon="8.72722">
        <ele>1370</ele>
        <time>2021-08-06T10:41:03.857Z</time>
      </trkpt>
      <trkpt lat="46.95198" lon="8.72723">
        <ele>1370</ele>
        <time>2021-08-06T10:41:04.856Z</time>
      </trkpt>
      <trkpt lat="46.95198" lon="8.72724">
        <ele>1370</ele>
        <time>2021-08-06T10:41:05.856Z</time>
      </trkpt>
      <trkpt lat="46.95198" lon="8.72725">
        <ele>1370</ele>
        <time>2021-08-06T10:41:06.856Z</time>
      </trkpt>
      <trkpt lat="46.95198" lon="8.72725">
        <ele>1370</ele>
        <time>2021-08-06T10:41:07.856Z</time>
      </trkpt>
      <trkpt lat="46.95198" lon="8.72726">
        <ele>1370</ele>
        <time>2021-08-06T10:41:08.856Z</time>
      </trkpt>
      <trkpt lat="46.95197" lon="8.72728">
        <ele>1370</ele>
        <time>2021-08-06T10:41:09.856Z</time>
      </trkpt>
      <trkpt lat="46.95197" lon="8.72728">
        <ele>1370</ele>
        <time>2021-08-06T10:41:10.856Z</time>
      </trkpt>
      <trkpt lat="46.95197" lon="8.7273">
        <ele>1371</ele>
        <time>2021-08-06T10:41:11.857Z</time>
      </trkpt>
      <trkpt lat="46.95196" lon="8.72731">
        <ele>1371</ele>
        <time>2021-08-06T10:41:12.857Z</time>
      </trkpt>
      <trkpt lat="46.95196" lon="8.72732">
        <ele>1371</ele>
        <time>2021-08-06T10:41:13.857Z</time>
      </trkpt>
      <trkpt lat="46.95195" lon="8.72733">
        <ele>1371</ele>
        <time>2021-08-06T10:41:14.857Z</time>
      </trkpt>
      <trkpt lat="46.95195" lon="8.72734">
        <ele>1371</ele>
        <time>2021-08-06T10:41:15.856Z</time>
      </trkpt>
      <trkpt lat="46.95195" lon="8.72735">
        <ele>1371</ele>
        <time>2021-08-06T10:41:16.857Z</time>
      </trkpt>
      <trkpt lat="46.95195" lon="8.72735">
        <ele>1372</ele>
        <time>2021-08-06T10:41:17.857Z</time>
      </trkpt>
      <trkpt lat="46.95195" lon="8.72736">
        <ele>1372</ele>
        <time>2021-08-06T10:41:18.857Z</time>
      </trkpt>
      <trkpt lat="46.95195" lon="8.72737">
        <ele>1372</ele>
        <time>2021-08-06T10:41:19.856Z</time>
      </trkpt>
      <trkpt lat="46.95196" lon="8.72738">
        <ele>1372</ele>
        <time>2021-08-06T10:41:20.857Z</time>
      </trkpt>
      <trkpt lat="46.95196" lon="8.72739">
        <ele>1372</ele>
        <time>2021-08-06T10:41:21.857Z</time>
      </trkpt>
      <trkpt lat="46.95195" lon="8.7274">
        <ele>1372</ele>
        <time>2021-08-06T10:41:22.857Z</time>
      </trkpt>
      <trkpt lat="46.95195" lon="8.72741">
        <ele>1372</ele>
        <time>2021-08-06T10:41:23.857Z</time>
      </trkpt>
      <trkpt lat="46.95195" lon="8.72742">
        <ele>1373</ele>
        <time>2021-08-06T10:41:24.856Z</time>
      </trkpt>
      <trkpt lat="46.95195" lon="8.72743">
        <ele>1373</ele>
        <time>2021-08-06T10:41:25.857Z</time>
      </trkpt>
      <trkpt lat="46.95195" lon="8.72744">
        <ele>1373</ele>
        <time>2021-08-06T10:41:26.857Z</time>
      </trkpt>
      <trkpt lat="46.95194" lon="8.72745">
        <ele>1373</ele>
        <time>2021-08-06T10:41:27.857Z</time>
      </trkpt>
      <trkpt lat="46.95194" lon="8.72746">
        <ele>1373</ele>
        <time>2021-08-06T10:41:28.857Z</time>
      </trkpt>
      <trkpt lat="46.95194" lon="8.72747">
        <ele>1373</ele>
        <time>2021-08-06T10:41:29.856Z</time>
      </trkpt>
      <trkpt lat="46.95194" lon="8.72749">
        <ele>1373</ele>
        <time>2021-08-06T10:41:30.857Z</time>
      </trkpt>
      <trkpt lat="46.95194" lon="8.72749">
        <ele>1373</ele>
        <time>2021-08-06T10:41:31.857Z</time>
      </trkpt>
      <trkpt lat="46.95194" lon="8.7275">
        <ele>1373</ele>
        <time>2021-08-06T10:41:32.857Z</time>
      </trkpt>
      <trkpt lat="46.95193" lon="8.72751">
        <ele>1373</ele>
        <time>2021-08-06T10:41:33.857Z</time>
      </trkpt>
      <trkpt lat="46.95194" lon="8.72752">
        <ele>1373</ele>
        <time>2021-08-06T10:41:34.857Z</time>
      </trkpt>
      <trkpt lat="46.95194" lon="8.72753">
        <ele>1373</ele>
        <time>2021-08-06T10:41:35.856Z</time>
      </trkpt>
      <trkpt lat="46.95194" lon="8.72754">
        <ele>1373</ele>
        <time>2021-08-06T10:41:36.857Z</time>
      </trkpt>
      <trkpt lat="46.95194" lon="8.72755">
        <ele>1373</ele>
        <time>2021-08-06T10:41:37.857Z</time>
      </trkpt>
      <trkpt lat="46.95194" lon="8.72757">
        <ele>1373</ele>
        <time>2021-08-06T10:41:38.856Z</time>
      </trkpt>
      <trkpt lat="46.95194" lon="8.72758">
        <ele>1373</ele>
        <time>2021-08-06T10:41:39.856Z</time>
      </trkpt>
      <trkpt lat="46.95194" lon="8.72759">
        <ele>1373</ele>
        <time>2021-08-06T10:41:40.857Z</time>
      </trkpt>
      <trkpt lat="46.95193" lon="8.72761">
        <ele>1374</ele>
        <time>2021-08-06T10:41:41.856Z</time>
      </trkpt>
      <trkpt lat="46.95193" lon="8.72762">
        <ele>1374</ele>
        <time>2021-08-06T10:41:42.856Z</time>
      </trkpt>
      <trkpt lat="46.95193" lon="8.72763">
        <ele>1375</ele>
        <time>2021-08-06T10:41:43.857Z</time>
      </trkpt>
      <trkpt lat="46.95193" lon="8.72764">
        <ele>1375</ele>
        <time>2021-08-06T10:41:44.857Z</time>
      </trkpt>
      <trkpt lat="46.95193" lon="8.72765">
        <ele>1375</ele>
        <time>2021-08-06T10:41:45.856Z</time>
      </trkpt>
      <trkpt lat="46.95193" lon="8.72766">
        <ele>1375</ele>
        <time>2021-08-06T10:41:46.856Z</time>
      </trkpt>
      <trkpt lat="46.95193" lon="8.72767">
        <ele>1375</ele>
        <time>2021-08-06T10:41:47.857Z</time>
      </trkpt>
      <trkpt lat="46.95193" lon="8.72768">
        <ele>1375</ele>
        <time>2021-08-06T10:41:48.857Z</time>
      </trkpt>
      <trkpt lat="46.95193" lon="8.72769">
        <ele>1374</ele>
        <time>2021-08-06T10:41:49.857Z</time>
      </trkpt>
      <trkpt lat="46.95194" lon="8.72769">
        <ele>1373</ele>
        <time>2021-08-06T10:41:50.857Z</time>
      </trkpt>
      <trkpt lat="46.95194" lon="8.7277">
        <ele>1373</ele>
        <time>2021-08-06T10:41:51.857Z</time>
      </trkpt>
      <trkpt lat="46.95194" lon="8.72771">
        <ele>1374</ele>
        <time>2021-08-06T10:41:52.856Z</time>
      </trkpt>
      <trkpt lat="46.95194" lon="8.72772">
        <ele>1374</ele>
        <time>2021-08-06T10:41:53.857Z</time>
      </trkpt>
      <trkpt lat="46.95194" lon="8.72773">
        <ele>1375</ele>
        <time>2021-08-06T10:41:54.857Z</time>
      </trkpt>
      <trkpt lat="46.95194" lon="8.72774">
        <ele>1375</ele>
        <time>2021-08-06T10:41:55.856Z</time>
      </trkpt>
      <trkpt lat="46.95195" lon="8.72775">
        <ele>1375</ele>
        <time>2021-08-06T10:41:56.857Z</time>
      </trkpt>
      <trkpt lat="46.95195" lon="8.72777">
        <ele>1375</ele>
        <time>2021-08-06T10:41:57.857Z</time>
      </trkpt>
      <trkpt lat="46.95195" lon="8.72778">
        <ele>1375</ele>
        <time>2021-08-06T10:41:58.857Z</time>
      </trkpt>
      <trkpt lat="46.95195" lon="8.72779">
        <ele>1375</ele>
        <time>2021-08-06T10:41:59.857Z</time>
      </trkpt>
      <trkpt lat="46.95196" lon="8.7278">
        <ele>1376</ele>
        <time>2021-08-06T10:42:00.857Z</time>
      </trkpt>
      <trkpt lat="46.95196" lon="8.72781">
        <ele>1376</ele>
        <time>2021-08-06T10:42:01.857Z</time>
      </trkpt>
      <trkpt lat="46.95196" lon="8.72782">
        <ele>1376</ele>
        <time>2021-08-06T10:42:02.857Z</time>
      </trkpt>
      <trkpt lat="46.95196" lon="8.72783">
        <ele>1376</ele>
        <time>2021-08-06T10:42:03.857Z</time>
      </trkpt>
      <trkpt lat="46.95197" lon="8.72784">
        <ele>1376</ele>
        <time>2021-08-06T10:42:04.856Z</time>
      </trkpt>
      <trkpt lat="46.95197" lon="8.72785">
        <ele>1376</ele>
        <time>2021-08-06T10:42:05.857Z</time>
      </trkpt>
      <trkpt lat="46.95197" lon="8.72786">
        <ele>1375</ele>
        <time>2021-08-06T10:42:06.857Z</time>
      </trkpt>
      <trkpt lat="46.95197" lon="8.72787">
        <ele>1375</ele>
        <time>2021-08-06T10:42:07.857Z</time>
      </trkpt>
      <trkpt lat="46.95197" lon="8.72788">
        <ele>1375</ele>
        <time>2021-08-06T10:42:08.856Z</time>
      </trkpt>
      <trkpt lat="46.95197" lon="8.72787">
        <ele>1375</ele>
        <time>2021-08-06T10:42:09.857Z</time>
      </trkpt>
      <trkpt lat="46.95197" lon="8.72787">
        <ele>1375</ele>
        <time>2021-08-06T10:42:10.856Z</time>
      </trkpt>
      <trkpt lat="46.95197" lon="8.72785">
        <ele>1375</ele>
        <time>2021-08-06T10:42:11.857Z</time>
      </trkpt>
      <trkpt lat="46.95197" lon="8.72786">
        <ele>1375</ele>
        <time>2021-08-06T10:42:12.858Z</time>
      </trkpt>
      <trkpt lat="46.95197" lon="8.72787">
        <ele>1375</ele>
        <time>2021-08-06T10:42:13.857Z</time>
      </trkpt>
      <trkpt lat="46.95196" lon="8.72791">
        <ele>1377</ele>
        <time>2021-08-06T10:42:14.858Z</time>
      </trkpt>
      <trkpt lat="46.95195" lon="8.72791">
        <ele>1377</ele>
        <time>2021-08-06T10:42:15.858Z</time>
      </trkpt>
      <trkpt lat="46.95195" lon="8.72791">
        <ele>1377</ele>
        <time>2021-08-06T10:42:16.857Z</time>
      </trkpt>
      <trkpt lat="46.95194" lon="8.72791">
        <ele>1378</ele>
        <time>2021-08-06T10:42:17.857Z</time>
      </trkpt>
      <trkpt lat="46.95193" lon="8.72791">
        <ele>1378</ele>
        <time>2021-08-06T10:42:18.858Z</time>
      </trkpt>
      <trkpt lat="46.95192" lon="8.72791">
        <ele>1378</ele>
        <time>2021-08-06T10:42:19.858Z</time>
      </trkpt>
      <trkpt lat="46.95192" lon="8.72791">
        <ele>1377</ele>
        <time>2021-08-06T10:42:20.857Z</time>
      </trkpt>
      <trkpt lat="46.95191" lon="8.72791">
        <ele>1377</ele>
        <time>2021-08-06T10:42:21.857Z</time>
      </trkpt>
      <trkpt lat="46.9519" lon="8.72791">
        <ele>1377</ele>
        <time>2021-08-06T10:42:22.858Z</time>
      </trkpt>
      <trkpt lat="46.9519" lon="8.72791">
        <ele>1377</ele>
        <time>2021-08-06T10:42:23.858Z</time>
      </trkpt>
      <trkpt lat="46.95189" lon="8.72789">
        <ele>1377</ele>
        <time>2021-08-06T10:42:24.858Z</time>
      </trkpt>
      <trkpt lat="46.95188" lon="8.72789">
        <ele>1377</ele>
        <time>2021-08-06T10:42:25.858Z</time>
      </trkpt>
      <trkpt lat="46.95188" lon="8.72788">
        <ele>1377</ele>
        <time>2021-08-06T10:42:26.857Z</time>
      </trkpt>
      <trkpt lat="46.95187" lon="8.72787">
        <ele>1377</ele>
        <time>2021-08-06T10:42:27.857Z</time>
      </trkpt>
      <trkpt lat="46.95186" lon="8.72787">
        <ele>1377</ele>
        <time>2021-08-06T10:42:28.858Z</time>
      </trkpt>
      <trkpt lat="46.95186" lon="8.72786">
        <ele>1378</ele>
        <time>2021-08-06T10:42:29.858Z</time>
      </trkpt>
      <trkpt lat="46.95186" lon="8.72785">
        <ele>1378</ele>
        <time>2021-08-06T10:42:30.858Z</time>
      </trkpt>
      <trkpt lat="46.95185" lon="8.72785">
        <ele>1378</ele>
        <time>2021-08-06T10:42:31.858Z</time>
      </trkpt>
      <trkpt lat="46.95185" lon="8.72784">
        <ele>1378</ele>
        <time>2021-08-06T10:42:32.857Z</time>
      </trkpt>
      <trkpt lat="46.95185" lon="8.72783">
        <ele>1378</ele>
        <time>2021-08-06T10:42:33.858Z</time>
      </trkpt>
      <trkpt lat="46.95184" lon="8.72782">
        <ele>1378</ele>
        <time>2021-08-06T10:42:34.858Z</time>
      </trkpt>
      <trkpt lat="46.95183" lon="8.72782">
        <ele>1378</ele>
        <time>2021-08-06T10:42:35.858Z</time>
      </trkpt>
      <trkpt lat="46.95183" lon="8.72781">
        <ele>1378</ele>
        <time>2021-08-06T10:42:36.858Z</time>
      </trkpt>
      <trkpt lat="46.95182" lon="8.72781">
        <ele>1378</ele>
        <time>2021-08-06T10:42:37.857Z</time>
      </trkpt>
      <trkpt lat="46.95182" lon="8.7278">
        <ele>1379</ele>
        <time>2021-08-06T10:42:38.857Z</time>
      </trkpt>
      <trkpt lat="46.95182" lon="8.72779">
        <ele>1379</ele>
        <time>2021-08-06T10:42:39.858Z</time>
      </trkpt>
      <trkpt lat="46.95181" lon="8.72778">
        <ele>1379</ele>
        <time>2021-08-06T10:42:40.858Z</time>
      </trkpt>
      <trkpt lat="46.95181" lon="8.72778">
        <ele>1379</ele>
        <time>2021-08-06T10:42:41.858Z</time>
      </trkpt>
      <trkpt lat="46.9518" lon="8.72777">
        <ele>1379</ele>
        <time>2021-08-06T10:42:42.858Z</time>
      </trkpt>
      <trkpt lat="46.9518" lon="8.72776">
        <ele>1380</ele>
        <time>2021-08-06T10:42:43.858Z</time>
      </trkpt>
      <trkpt lat="46.95179" lon="8.72776">
        <ele>1380</ele>
        <time>2021-08-06T10:42:44.858Z</time>
      </trkpt>
      <trkpt lat="46.95179" lon="8.72774">
        <ele>1381</ele>
        <time>2021-08-06T10:42:45.858Z</time>
      </trkpt>
      <trkpt lat="46.95179" lon="8.72774">
        <ele>1381</ele>
        <time>2021-08-06T10:42:46.858Z</time>
      </trkpt>
      <trkpt lat="46.95178" lon="8.72773">
        <ele>1381</ele>
        <time>2021-08-06T10:42:47.858Z</time>
      </trkpt>
      <trkpt lat="46.95177" lon="8.72772">
        <ele>1382</ele>
        <time>2021-08-06T10:42:48.858Z</time>
      </trkpt>
      <trkpt lat="46.95177" lon="8.7277">
        <ele>1382</ele>
        <time>2021-08-06T10:42:49.858Z</time>
      </trkpt>
      <trkpt lat="46.95176" lon="8.72769">
        <ele>1382</ele>
        <time>2021-08-06T10:42:50.858Z</time>
      </trkpt>
      <trkpt lat="46.95176" lon="8.72766">
        <ele>1383</ele>
        <time>2021-08-06T10:42:51.857Z</time>
      </trkpt>
      <trkpt lat="46.95177" lon="8.72765">
        <ele>1383</ele>
        <time>2021-08-06T10:42:52.857Z</time>
      </trkpt>
      <trkpt lat="46.95177" lon="8.72765">
        <ele>1384</ele>
        <time>2021-08-06T10:42:53.858Z</time>
      </trkpt>
      <trkpt lat="46.95177" lon="8.72764">
        <ele>1384</ele>
        <time>2021-08-06T10:42:54.857Z</time>
      </trkpt>
      <trkpt lat="46.95177" lon="8.72763">
        <ele>1385</ele>
        <time>2021-08-06T10:42:55.858Z</time>
      </trkpt>
      <trkpt lat="46.95177" lon="8.72761">
        <ele>1386</ele>
        <time>2021-08-06T10:42:56.857Z</time>
      </trkpt>
      <trkpt lat="46.95177" lon="8.7276">
        <ele>1386</ele>
        <time>2021-08-06T10:42:57.858Z</time>
      </trkpt>
      <trkpt lat="46.95177" lon="8.72759">
        <ele>1386</ele>
        <time>2021-08-06T10:42:58.857Z</time>
      </trkpt>
      <trkpt lat="46.95176" lon="8.72758">
        <ele>1387</ele>
        <time>2021-08-06T10:42:59.857Z</time>
      </trkpt>
      <trkpt lat="46.95176" lon="8.72757">
        <ele>1387</ele>
        <time>2021-08-06T10:43:00.857Z</time>
      </trkpt>
      <trkpt lat="46.95175" lon="8.72756">
        <ele>1387</ele>
        <time>2021-08-06T10:43:01.858Z</time>
      </trkpt>
      <trkpt lat="46.95175" lon="8.72755">
        <ele>1388</ele>
        <time>2021-08-06T10:43:02.857Z</time>
      </trkpt>
      <trkpt lat="46.95175" lon="8.72753">
        <ele>1388</ele>
        <time>2021-08-06T10:43:03.858Z</time>
      </trkpt>
      <trkpt lat="46.95174" lon="8.72752">
        <ele>1388</ele>
        <time>2021-08-06T10:43:04.858Z</time>
      </trkpt>
      <trkpt lat="46.95173" lon="8.72751">
        <ele>1388</ele>
        <time>2021-08-06T10:43:05.858Z</time>
      </trkpt>
      <trkpt lat="46.95173" lon="8.7275">
        <ele>1388</ele>
        <time>2021-08-06T10:43:06.858Z</time>
      </trkpt>
      <trkpt lat="46.95173" lon="8.72749">
        <ele>1387</ele>
        <time>2021-08-06T10:43:07.857Z</time>
      </trkpt>
      <trkpt lat="46.95172" lon="8.72748">
        <ele>1387</ele>
        <time>2021-08-06T10:43:08.858Z</time>
      </trkpt>
      <trkpt lat="46.95172" lon="8.72747">
        <ele>1386</ele>
        <time>2021-08-06T10:43:09.858Z</time>
      </trkpt>
      <trkpt lat="46.95172" lon="8.72746">
        <ele>1386</ele>
        <time>2021-08-06T10:43:10.857Z</time>
      </trkpt>
      <trkpt lat="46.95173" lon="8.72745">
        <ele>1386</ele>
        <time>2021-08-06T10:43:11.858Z</time>
      </trkpt>
      <trkpt lat="46.95173" lon="8.72745">
        <ele>1386</ele>
        <time>2021-08-06T10:43:12.858Z</time>
      </trkpt>
      <trkpt lat="46.95173" lon="8.72744">
        <ele>1386</ele>
        <time>2021-08-06T10:43:13.858Z</time>
      </trkpt>
      <trkpt lat="46.95172" lon="8.72742">
        <ele>1386</ele>
        <time>2021-08-06T10:43:14.858Z</time>
      </trkpt>
      <trkpt lat="46.95172" lon="8.72741">
        <ele>1385</ele>
        <time>2021-08-06T10:43:15.858Z</time>
      </trkpt>
      <trkpt lat="46.95172" lon="8.7274">
        <ele>1385</ele>
        <time>2021-08-06T10:43:16.858Z</time>
      </trkpt>
      <trkpt lat="46.95171" lon="8.72739">
        <ele>1385</ele>
        <time>2021-08-06T10:43:17.858Z</time>
      </trkpt>
      <trkpt lat="46.95171" lon="8.72738">
        <ele>1386</ele>
        <time>2021-08-06T10:43:18.857Z</time>
      </trkpt>
      <trkpt lat="46.9517" lon="8.72737">
        <ele>1386</ele>
        <time>2021-08-06T10:43:19.858Z</time>
      </trkpt>
      <trkpt lat="46.9517" lon="8.72736">
        <ele>1386</ele>
        <time>2021-08-06T10:43:20.857Z</time>
      </trkpt>
      <trkpt lat="46.95169" lon="8.72735">
        <ele>1386</ele>
        <time>2021-08-06T10:43:21.857Z</time>
      </trkpt>
      <trkpt lat="46.95169" lon="8.72734">
        <ele>1387</ele>
        <time>2021-08-06T10:43:22.858Z</time>
      </trkpt>
      <trkpt lat="46.95169" lon="8.72733">
        <ele>1387</ele>
        <time>2021-08-06T10:43:23.858Z</time>
      </trkpt>
      <trkpt lat="46.95168" lon="8.72732">
        <ele>1387</ele>
        <time>2021-08-06T10:43:24.858Z</time>
      </trkpt>
      <trkpt lat="46.95167" lon="8.72732">
        <ele>1388</ele>
        <time>2021-08-06T10:43:25.858Z</time>
      </trkpt>
      <trkpt lat="46.95167" lon="8.72731">
        <ele>1388</ele>
        <time>2021-08-06T10:43:26.858Z</time>
      </trkpt>
      <trkpt lat="46.95166" lon="8.7273">
        <ele>1389</ele>
        <time>2021-08-06T10:43:27.857Z</time>
      </trkpt>
      <trkpt lat="46.95166" lon="8.72729">
        <ele>1389</ele>
        <time>2021-08-06T10:43:28.858Z</time>
      </trkpt>
      <trkpt lat="46.95165" lon="8.72728">
        <ele>1389</ele>
        <time>2021-08-06T10:43:29.857Z</time>
      </trkpt>
      <trkpt lat="46.95164" lon="8.72727">
        <ele>1389</ele>
        <time>2021-08-06T10:43:30.858Z</time>
      </trkpt>
      <trkpt lat="46.95164" lon="8.72725">
        <ele>1389</ele>
        <time>2021-08-06T10:43:31.857Z</time>
      </trkpt>
      <trkpt lat="46.95164" lon="8.72724">
        <ele>1389</ele>
        <time>2021-08-06T10:43:32.857Z</time>
      </trkpt>
      <trkpt lat="46.95163" lon="8.72722">
        <ele>1389</ele>
        <time>2021-08-06T10:43:33.858Z</time>
      </trkpt>
      <trkpt lat="46.95163" lon="8.72721">
        <ele>1389</ele>
        <time>2021-08-06T10:43:34.858Z</time>
      </trkpt>
      <trkpt lat="46.95163" lon="8.72719">
        <ele>1389</ele>
        <time>2021-08-06T10:43:35.858Z</time>
      </trkpt>
      <trkpt lat="46.95163" lon="8.72719">
        <ele>1388</ele>
        <time>2021-08-06T10:43:36.857Z</time>
      </trkpt>
      <trkpt lat="46.95162" lon="8.72718">
        <ele>1388</ele>
        <time>2021-08-06T10:43:37.858Z</time>
      </trkpt>
      <trkpt lat="46.95162" lon="8.72716">
        <ele>1387</ele>
        <time>2021-08-06T10:43:38.858Z</time>
      </trkpt>
      <trkpt lat="46.95162" lon="8.72716">
        <ele>1387</ele>
        <time>2021-08-06T10:43:39.857Z</time>
      </trkpt>
      <trkpt lat="46.95161" lon="8.72715">
        <ele>1387</ele>
        <time>2021-08-06T10:43:40.858Z</time>
      </trkpt>
      <trkpt lat="46.95161" lon="8.72715">
        <ele>1387</ele>
        <time>2021-08-06T10:43:41.858Z</time>
      </trkpt>
      <trkpt lat="46.9516" lon="8.72714">
        <ele>1388</ele>
        <time>2021-08-06T10:43:42.858Z</time>
      </trkpt>
      <trkpt lat="46.9516" lon="8.72713">
        <ele>1388</ele>
        <time>2021-08-06T10:43:43.857Z</time>
      </trkpt>
      <trkpt lat="46.95159" lon="8.72712">
        <ele>1389</ele>
        <time>2021-08-06T10:43:44.858Z</time>
      </trkpt>
      <trkpt lat="46.95159" lon="8.72712">
        <ele>1389</ele>
        <time>2021-08-06T10:43:45.858Z</time>
      </trkpt>
      <trkpt lat="46.95158" lon="8.72711">
        <ele>1389</ele>
        <time>2021-08-06T10:43:46.858Z</time>
      </trkpt>
      <trkpt lat="46.95158" lon="8.7271">
        <ele>1389</ele>
        <time>2021-08-06T10:43:47.858Z</time>
      </trkpt>
      <trkpt lat="46.95158" lon="8.7271">
        <ele>1389</ele>
        <time>2021-08-06T10:43:48.858Z</time>
      </trkpt>
      <trkpt lat="46.95157" lon="8.72709">
        <ele>1389</ele>
        <time>2021-08-06T10:43:49.858Z</time>
      </trkpt>
      <trkpt lat="46.95157" lon="8.72708">
        <ele>1390</ele>
        <time>2021-08-06T10:43:50.858Z</time>
      </trkpt>
      <trkpt lat="46.95157" lon="8.72707">
        <ele>1390</ele>
        <time>2021-08-06T10:43:51.858Z</time>
      </trkpt>
      <trkpt lat="46.95156" lon="8.72707">
        <ele>1391</ele>
        <time>2021-08-06T10:43:52.858Z</time>
      </trkpt>
      <trkpt lat="46.95156" lon="8.72706">
        <ele>1391</ele>
        <time>2021-08-06T10:43:53.858Z</time>
      </trkpt>
      <trkpt lat="46.95155" lon="8.72705">
        <ele>1392</ele>
        <time>2021-08-06T10:43:54.857Z</time>
      </trkpt>
      <trkpt lat="46.95155" lon="8.72704">
        <ele>1392</ele>
        <time>2021-08-06T10:43:55.857Z</time>
      </trkpt>
      <trkpt lat="46.95155" lon="8.72703">
        <ele>1392</ele>
        <time>2021-08-06T10:43:56.857Z</time>
      </trkpt>
      <trkpt lat="46.95154" lon="8.72702">
        <ele>1391</ele>
        <time>2021-08-06T10:43:57.858Z</time>
      </trkpt>
      <trkpt lat="46.95154" lon="8.72702">
        <ele>1390</ele>
        <time>2021-08-06T10:43:58.857Z</time>
      </trkpt>
      <trkpt lat="46.95153" lon="8.72701">
        <ele>1390</ele>
        <time>2021-08-06T10:43:59.858Z</time>
      </trkpt>
      <trkpt lat="46.95153" lon="8.727">
        <ele>1389</ele>
        <time>2021-08-06T10:44:00.858Z</time>
      </trkpt>
      <trkpt lat="46.95152" lon="8.72699">
        <ele>1389</ele>
        <time>2021-08-06T10:44:01.858Z</time>
      </trkpt>
      <trkpt lat="46.95151" lon="8.72698">
        <ele>1389</ele>
        <time>2021-08-06T10:44:02.858Z</time>
      </trkpt>
      <trkpt lat="46.95151" lon="8.72697">
        <ele>1389</ele>
        <time>2021-08-06T10:44:03.857Z</time>
      </trkpt>
      <trkpt lat="46.9515" lon="8.72696">
        <ele>1389</ele>
        <time>2021-08-06T10:44:04.857Z</time>
      </trkpt>
      <trkpt lat="46.9515" lon="8.72695">
        <ele>1389</ele>
        <time>2021-08-06T10:44:05.858Z</time>
      </trkpt>
      <trkpt lat="46.95149" lon="8.72694">
        <ele>1389</ele>
        <time>2021-08-06T10:44:06.858Z</time>
      </trkpt>
      <trkpt lat="46.95149" lon="8.72694">
        <ele>1390</ele>
        <time>2021-08-06T10:44:07.858Z</time>
      </trkpt>
      <trkpt lat="46.95149" lon="8.72693">
        <ele>1390</ele>
        <time>2021-08-06T10:44:08.858Z</time>
      </trkpt>
      <trkpt lat="46.95149" lon="8.72693">
        <ele>1390</ele>
        <time>2021-08-06T10:44:09.858Z</time>
      </trkpt>
      <trkpt lat="46.95148" lon="8.72692">
        <ele>1390</ele>
        <time>2021-08-06T10:44:10.858Z</time>
      </trkpt>
      <trkpt lat="46.95148" lon="8.72691">
        <ele>1390</ele>
        <time>2021-08-06T10:44:11.858Z</time>
      </trkpt>
      <trkpt lat="46.95147" lon="8.72691">
        <ele>1390</ele>
        <time>2021-08-06T10:44:12.857Z</time>
      </trkpt>
      <trkpt lat="46.95147" lon="8.7269">
        <ele>1390</ele>
        <time>2021-08-06T10:44:13.858Z</time>
      </trkpt>
      <trkpt lat="46.95146" lon="8.7269">
        <ele>1390</ele>
        <time>2021-08-06T10:44:14.858Z</time>
      </trkpt>
      <trkpt lat="46.95145" lon="8.72689">
        <ele>1390</ele>
        <time>2021-08-06T10:44:15.858Z</time>
      </trkpt>
      <trkpt lat="46.95145" lon="8.72688">
        <ele>1391</ele>
        <time>2021-08-06T10:44:16.858Z</time>
      </trkpt>
      <trkpt lat="46.95144" lon="8.72687">
        <ele>1392</ele>
        <time>2021-08-06T10:44:17.858Z</time>
      </trkpt>
      <trkpt lat="46.95144" lon="8.72686">
        <ele>1393</ele>
        <time>2021-08-06T10:44:18.857Z</time>
      </trkpt>
      <trkpt lat="46.95143" lon="8.72685">
        <ele>1394</ele>
        <time>2021-08-06T10:44:19.857Z</time>
      </trkpt>
      <trkpt lat="46.95143" lon="8.72685">
        <ele>1394</ele>
        <time>2021-08-06T10:44:20.857Z</time>
      </trkpt>
      <trkpt lat="46.95142" lon="8.72684">
        <ele>1394</ele>
        <time>2021-08-06T10:44:21.858Z</time>
      </trkpt>
      <trkpt lat="46.95142" lon="8.72684">
        <ele>1395</ele>
        <time>2021-08-06T10:44:22.858Z</time>
      </trkpt>
      <trkpt lat="46.95141" lon="8.72684">
        <ele>1395</ele>
        <time>2021-08-06T10:44:23.858Z</time>
      </trkpt>
      <trkpt lat="46.95141" lon="8.72683">
        <ele>1396</ele>
        <time>2021-08-06T10:44:24.857Z</time>
      </trkpt>
      <trkpt lat="46.9514" lon="8.72682">
        <ele>1396</ele>
        <time>2021-08-06T10:44:25.858Z</time>
      </trkpt>
      <trkpt lat="46.95139" lon="8.72681">
        <ele>1397</ele>
        <time>2021-08-06T10:44:26.858Z</time>
      </trkpt>
      <trkpt lat="46.95139" lon="8.72681">
        <ele>1398</ele>
        <time>2021-08-06T10:44:27.857Z</time>
      </trkpt>
      <trkpt lat="46.95138" lon="8.7268">
        <ele>1398</ele>
        <time>2021-08-06T10:44:28.858Z</time>
      </trkpt>
      <trkpt lat="46.95138" lon="8.7268">
        <ele>1399</ele>
        <time>2021-08-06T10:44:29.857Z</time>
      </trkpt>
      <trkpt lat="46.95138" lon="8.72679">
        <ele>1399</ele>
        <time>2021-08-06T10:44:30.858Z</time>
      </trkpt>
      <trkpt lat="46.95137" lon="8.72679">
        <ele>1400</ele>
        <time>2021-08-06T10:44:31.857Z</time>
      </trkpt>
      <trkpt lat="46.95137" lon="8.72678">
        <ele>1401</ele>
        <time>2021-08-06T10:44:32.857Z</time>
      </trkpt>
      <trkpt lat="46.95137" lon="8.72677">
        <ele>1402</ele>
        <time>2021-08-06T10:44:33.858Z</time>
      </trkpt>
      <trkpt lat="46.95136" lon="8.72676">
        <ele>1402</ele>
        <time>2021-08-06T10:44:34.858Z</time>
      </trkpt>
      <trkpt lat="46.95136" lon="8.72676">
        <ele>1403</ele>
        <time>2021-08-06T10:44:35.857Z</time>
      </trkpt>
      <trkpt lat="46.95135" lon="8.72676">
        <ele>1403</ele>
        <time>2021-08-06T10:44:36.858Z</time>
      </trkpt>
      <trkpt lat="46.95135" lon="8.72675">
        <ele>1403</ele>
        <time>2021-08-06T10:44:37.858Z</time>
      </trkpt>
      <trkpt lat="46.95134" lon="8.72675">
        <ele>1403</ele>
        <time>2021-08-06T10:44:38.858Z</time>
      </trkpt>
      <trkpt lat="46.95134" lon="8.72674">
        <ele>1402</ele>
        <time>2021-08-06T10:44:39.858Z</time>
      </trkpt>
      <trkpt lat="46.95133" lon="8.72674">
        <ele>1402</ele>
        <time>2021-08-06T10:44:40.857Z</time>
      </trkpt>
      <trkpt lat="46.95133" lon="8.72673">
        <ele>1402</ele>
        <time>2021-08-06T10:44:41.858Z</time>
      </trkpt>
      <trkpt lat="46.95133" lon="8.72672">
        <ele>1402</ele>
        <time>2021-08-06T10:44:42.857Z</time>
      </trkpt>
      <trkpt lat="46.95132" lon="8.72671">
        <ele>1402</ele>
        <time>2021-08-06T10:44:43.858Z</time>
      </trkpt>
      <trkpt lat="46.95132" lon="8.72671">
        <ele>1402</ele>
        <time>2021-08-06T10:44:44.857Z</time>
      </trkpt>
      <trkpt lat="46.95132" lon="8.7267">
        <ele>1403</ele>
        <time>2021-08-06T10:44:45.858Z</time>
      </trkpt>
      <trkpt lat="46.95131" lon="8.72669">
        <ele>1403</ele>
        <time>2021-08-06T10:44:46.858Z</time>
      </trkpt>
      <trkpt lat="46.9513" lon="8.72668">
        <ele>1402</ele>
        <time>2021-08-06T10:44:47.858Z</time>
      </trkpt>
      <trkpt lat="46.9513" lon="8.72668">
        <ele>1402</ele>
        <time>2021-08-06T10:44:48.858Z</time>
      </trkpt>
      <trkpt lat="46.9513" lon="8.72667">
        <ele>1402</ele>
        <time>2021-08-06T10:44:49.858Z</time>
      </trkpt>
      <trkpt lat="46.95129" lon="8.72667">
        <ele>1402</ele>
        <time>2021-08-06T10:44:50.857Z</time>
      </trkpt>
      <trkpt lat="46.95128" lon="8.72666">
        <ele>1402</ele>
        <time>2021-08-06T10:44:51.858Z</time>
      </trkpt>
      <trkpt lat="46.95127" lon="8.72666">
        <ele>1401</ele>
        <time>2021-08-06T10:44:52.858Z</time>
      </trkpt>
      <trkpt lat="46.95127" lon="8.72665">
        <ele>1401</ele>
        <time>2021-08-06T10:44:53.857Z</time>
      </trkpt>
      <trkpt lat="46.95126" lon="8.72665">
        <ele>1401</ele>
        <time>2021-08-06T10:44:54.857Z</time>
      </trkpt>
      <trkpt lat="46.95126" lon="8.72664">
        <ele>1401</ele>
        <time>2021-08-06T10:44:55.858Z</time>
      </trkpt>
      <trkpt lat="46.95125" lon="8.72664">
        <ele>1401</ele>
        <time>2021-08-06T10:44:56.857Z</time>
      </trkpt>
      <trkpt lat="46.95125" lon="8.72663">
        <ele>1401</ele>
        <time>2021-08-06T10:44:57.858Z</time>
      </trkpt>
      <trkpt lat="46.95123" lon="8.72662">
        <ele>1402</ele>
        <time>2021-08-06T10:44:58.857Z</time>
      </trkpt>
      <trkpt lat="46.95123" lon="8.72661">
        <ele>1402</ele>
        <time>2021-08-06T10:44:59.858Z</time>
      </trkpt>
      <trkpt lat="46.95123" lon="8.72659">
        <ele>1403</ele>
        <time>2021-08-06T10:45:00.858Z</time>
      </trkpt>
      <trkpt lat="46.95123" lon="8.72658">
        <ele>1403</ele>
        <time>2021-08-06T10:45:01.858Z</time>
      </trkpt>
      <trkpt lat="46.95122" lon="8.72658">
        <ele>1404</ele>
        <time>2021-08-06T10:45:02.858Z</time>
      </trkpt>
      <trkpt lat="46.95122" lon="8.72657">
        <ele>1405</ele>
        <time>2021-08-06T10:45:03.858Z</time>
      </trkpt>
      <trkpt lat="46.95121" lon="8.72656">
        <ele>1405</ele>
        <time>2021-08-06T10:45:04.858Z</time>
      </trkpt>
      <trkpt lat="46.9512" lon="8.72655">
        <ele>1406</ele>
        <time>2021-08-06T10:45:05.857Z</time>
      </trkpt>
      <trkpt lat="46.95119" lon="8.72655">
        <ele>1406</ele>
        <time>2021-08-06T10:45:06.858Z</time>
      </trkpt>
      <trkpt lat="46.95118" lon="8.72655">
        <ele>1406</ele>
        <time>2021-08-06T10:45:07.858Z</time>
      </trkpt>
      <trkpt lat="46.95117" lon="8.72655">
        <ele>1406</ele>
        <time>2021-08-06T10:45:08.858Z</time>
      </trkpt>
      <trkpt lat="46.95117" lon="8.72654">
        <ele>1406</ele>
        <time>2021-08-06T10:45:09.857Z</time>
      </trkpt>
      <trkpt lat="46.95116" lon="8.72654">
        <ele>1406</ele>
        <time>2021-08-06T10:45:10.857Z</time>
      </trkpt>
      <trkpt lat="46.95115" lon="8.72653">
        <ele>1406</ele>
        <time>2021-08-06T10:45:11.858Z</time>
      </trkpt>
      <trkpt lat="46.95115" lon="8.72653">
        <ele>1407</ele>
        <time>2021-08-06T10:45:12.857Z</time>
      </trkpt>
      <trkpt lat="46.95114" lon="8.72652">
        <ele>1407</ele>
        <time>2021-08-06T10:45:13.858Z</time>
      </trkpt>
      <trkpt lat="46.95114" lon="8.72652">
        <ele>1408</ele>
        <time>2021-08-06T10:45:14.858Z</time>
      </trkpt>
      <trkpt lat="46.95114" lon="8.72652">
        <ele>1408</ele>
        <time>2021-08-06T10:45:15.858Z</time>
      </trkpt>
      <trkpt lat="46.95113" lon="8.72651">
        <ele>1409</ele>
        <time>2021-08-06T10:45:16.858Z</time>
      </trkpt>
      <trkpt lat="46.95113" lon="8.72651">
        <ele>1409</ele>
        <time>2021-08-06T10:45:17.858Z</time>
      </trkpt>
      <trkpt lat="46.95112" lon="8.72652">
        <ele>1409</ele>
        <time>2021-08-06T10:45:18.858Z</time>
      </trkpt>
      <trkpt lat="46.95112" lon="8.72652">
        <ele>1409</ele>
        <time>2021-08-06T10:45:19.858Z</time>
      </trkpt>
      <trkpt lat="46.95111" lon="8.72652">
        <ele>1409</ele>
        <time>2021-08-06T10:45:20.858Z</time>
      </trkpt>
      <trkpt lat="46.9511" lon="8.72652">
        <ele>1409</ele>
        <time>2021-08-06T10:45:21.858Z</time>
      </trkpt>
      <trkpt lat="46.9511" lon="8.72651">
        <ele>1409</ele>
        <time>2021-08-06T10:45:22.857Z</time>
      </trkpt>
      <trkpt lat="46.95109" lon="8.72651">
        <ele>1409</ele>
        <time>2021-08-06T10:45:23.858Z</time>
      </trkpt>
      <trkpt lat="46.95108" lon="8.7265">
        <ele>1409</ele>
        <time>2021-08-06T10:45:24.858Z</time>
      </trkpt>
      <trkpt lat="46.95108" lon="8.7265">
        <ele>1410</ele>
        <time>2021-08-06T10:45:25.858Z</time>
      </trkpt>
      <trkpt lat="46.95107" lon="8.72649">
        <ele>1410</ele>
        <time>2021-08-06T10:45:26.857Z</time>
      </trkpt>
      <trkpt lat="46.95107" lon="8.72648">
        <ele>1411</ele>
        <time>2021-08-06T10:45:27.858Z</time>
      </trkpt>
      <trkpt lat="46.95106" lon="8.72647">
        <ele>1411</ele>
        <time>2021-08-06T10:45:28.857Z</time>
      </trkpt>
      <trkpt lat="46.95106" lon="8.72646">
        <ele>1411</ele>
        <time>2021-08-06T10:45:29.858Z</time>
      </trkpt>
      <trkpt lat="46.95106" lon="8.72645">
        <ele>1412</ele>
        <time>2021-08-06T10:45:30.857Z</time>
      </trkpt>
      <trkpt lat="46.95105" lon="8.72644">
        <ele>1412</ele>
        <time>2021-08-06T10:45:31.858Z</time>
      </trkpt>
      <trkpt lat="46.95105" lon="8.72644">
        <ele>1413</ele>
        <time>2021-08-06T10:45:32.858Z</time>
      </trkpt>
      <trkpt lat="46.95105" lon="8.72643">
        <ele>1413</ele>
        <time>2021-08-06T10:45:33.857Z</time>
      </trkpt>
      <trkpt lat="46.95104" lon="8.72643">
        <ele>1414</ele>
        <time>2021-08-06T10:45:34.858Z</time>
      </trkpt>
      <trkpt lat="46.95104" lon="8.72642">
        <ele>1414</ele>
        <time>2021-08-06T10:45:35.858Z</time>
      </trkpt>
      <trkpt lat="46.95103" lon="8.7264">
        <ele>1414</ele>
        <time>2021-08-06T10:45:36.857Z</time>
      </trkpt>
      <trkpt lat="46.95103" lon="8.72638">
        <ele>1414</ele>
        <time>2021-08-06T10:45:37.857Z</time>
      </trkpt>
      <trkpt lat="46.95103" lon="8.72635">
        <ele>1414</ele>
        <time>2021-08-06T10:45:38.858Z</time>
      </trkpt>
      <trkpt lat="46.95102" lon="8.72633">
        <ele>1414</ele>
        <time>2021-08-06T10:45:39.858Z</time>
      </trkpt>
      <trkpt lat="46.95101" lon="8.72633">
        <ele>1414</ele>
        <time>2021-08-06T10:45:40.858Z</time>
      </trkpt>
      <trkpt lat="46.95101" lon="8.72633">
        <ele>1414</ele>
        <time>2021-08-06T10:45:41.857Z</time>
      </trkpt>
      <trkpt lat="46.95101" lon="8.72632">
        <ele>1414</ele>
        <time>2021-08-06T10:45:42.858Z</time>
      </trkpt>
      <trkpt lat="46.95101" lon="8.72631">
        <ele>1414</ele>
        <time>2021-08-06T10:45:43.858Z</time>
      </trkpt>
      <trkpt lat="46.95101" lon="8.7263">
        <ele>1413</ele>
        <time>2021-08-06T10:45:44.858Z</time>
      </trkpt>
      <trkpt lat="46.951" lon="8.7263">
        <ele>1413</ele>
        <time>2021-08-06T10:45:45.858Z</time>
      </trkpt>
      <trkpt lat="46.951" lon="8.72629">
        <ele>1412</ele>
        <time>2021-08-06T10:45:46.858Z</time>
      </trkpt>
      <trkpt lat="46.951" lon="8.72629">
        <ele>1411</ele>
        <time>2021-08-06T10:45:47.857Z</time>
      </trkpt>
      <trkpt lat="46.95099" lon="8.72629">
        <ele>1411</ele>
        <time>2021-08-06T10:45:48.858Z</time>
      </trkpt>
      <trkpt lat="46.95099" lon="8.72629">
        <ele>1410</ele>
        <time>2021-08-06T10:45:49.857Z</time>
      </trkpt>
      <trkpt lat="46.95098" lon="8.72628">
        <ele>1410</ele>
        <time>2021-08-06T10:45:50.857Z</time>
      </trkpt>
      <trkpt lat="46.95098" lon="8.72628">
        <ele>1410</ele>
        <time>2021-08-06T10:45:51.858Z</time>
      </trkpt>
      <trkpt lat="46.95097" lon="8.72627">
        <ele>1409</ele>
        <time>2021-08-06T10:45:52.858Z</time>
      </trkpt>
      <trkpt lat="46.95097" lon="8.72627">
        <ele>1409</ele>
        <time>2021-08-06T10:45:53.858Z</time>
      </trkpt>
      <trkpt lat="46.95097" lon="8.72627">
        <ele>1408</ele>
        <time>2021-08-06T10:45:54.858Z</time>
      </trkpt>
      <trkpt lat="46.95097" lon="8.72626">
        <ele>1408</ele>
        <time>2021-08-06T10:45:55.858Z</time>
      </trkpt>
      <trkpt lat="46.95096" lon="8.72625">
        <ele>1407</ele>
        <time>2021-08-06T10:45:56.858Z</time>
      </trkpt>
      <trkpt lat="46.95095" lon="8.72625">
        <ele>1407</ele>
        <time>2021-08-06T10:45:57.858Z</time>
      </trkpt>
      <trkpt lat="46.95095" lon="8.72625">
        <ele>1407</ele>
        <time>2021-08-06T10:45:58.858Z</time>
      </trkpt>
      <trkpt lat="46.95095" lon="8.72624">
        <ele>1407</ele>
        <time>2021-08-06T10:45:59.858Z</time>
      </trkpt>
      <trkpt lat="46.95094" lon="8.72624">
        <ele>1408</ele>
        <time>2021-08-06T10:46:00.857Z</time>
      </trkpt>
      <trkpt lat="46.95094" lon="8.72623">
        <ele>1408</ele>
        <time>2021-08-06T10:46:01.857Z</time>
      </trkpt>
      <trkpt lat="46.95094" lon="8.72622">
        <ele>1409</ele>
        <time>2021-08-06T10:46:02.858Z</time>
      </trkpt>
      <trkpt lat="46.95093" lon="8.7262">
        <ele>1409</ele>
        <time>2021-08-06T10:46:03.858Z</time>
      </trkpt>
      <trkpt lat="46.95091" lon="8.72619">
        <ele>1409</ele>
        <time>2021-08-06T10:46:04.857Z</time>
      </trkpt>
      <trkpt lat="46.95091" lon="8.72619">
        <ele>1409</ele>
        <time>2021-08-06T10:46:05.857Z</time>
      </trkpt>
      <trkpt lat="46.95091" lon="8.72617">
        <ele>1409</ele>
        <time>2021-08-06T10:46:06.858Z</time>
      </trkpt>
      <trkpt lat="46.9509" lon="8.72617">
        <ele>1410</ele>
        <time>2021-08-06T10:46:07.858Z</time>
      </trkpt>
      <trkpt lat="46.95089" lon="8.72615">
        <ele>1410</ele>
        <time>2021-08-06T10:46:08.858Z</time>
      </trkpt>
      <trkpt lat="46.95089" lon="8.72614">
        <ele>1411</ele>
        <time>2021-08-06T10:46:09.857Z</time>
      </trkpt>
      <trkpt lat="46.95088" lon="8.72613">
        <ele>1411</ele>
        <time>2021-08-06T10:46:10.858Z</time>
      </trkpt>
      <trkpt lat="46.95088" lon="8.72612">
        <ele>1412</ele>
        <time>2021-08-06T10:46:11.858Z</time>
      </trkpt>
      <trkpt lat="46.95088" lon="8.72611">
        <ele>1412</ele>
        <time>2021-08-06T10:46:12.858Z</time>
      </trkpt>
      <trkpt lat="46.95088" lon="8.72611">
        <ele>1412</ele>
        <time>2021-08-06T10:46:13.858Z</time>
      </trkpt>
      <trkpt lat="46.95088" lon="8.7261">
        <ele>1413</ele>
        <time>2021-08-06T10:46:14.857Z</time>
      </trkpt>
      <trkpt lat="46.95087" lon="8.7261">
        <ele>1413</ele>
        <time>2021-08-06T10:46:15.857Z</time>
      </trkpt>
      <trkpt lat="46.95086" lon="8.72609">
        <ele>1413</ele>
        <time>2021-08-06T10:46:16.858Z</time>
      </trkpt>
      <trkpt lat="46.95085" lon="8.72609">
        <ele>1413</ele>
        <time>2021-08-06T10:46:17.857Z</time>
      </trkpt>
      <trkpt lat="46.95085" lon="8.72608">
        <ele>1414</ele>
        <time>2021-08-06T10:46:18.858Z</time>
      </trkpt>
      <trkpt lat="46.95084" lon="8.72607">
        <ele>1414</ele>
        <time>2021-08-06T10:46:19.858Z</time>
      </trkpt>
      <trkpt lat="46.95084" lon="8.72606">
        <ele>1414</ele>
        <time>2021-08-06T10:46:20.857Z</time>
      </trkpt>
      <trkpt lat="46.95084" lon="8.72606">
        <ele>1415</ele>
        <time>2021-08-06T10:46:21.858Z</time>
      </trkpt>
      <trkpt lat="46.95084" lon="8.72605">
        <ele>1416</ele>
        <time>2021-08-06T10:46:22.858Z</time>
      </trkpt>
      <trkpt lat="46.95083" lon="8.72604">
        <ele>1416</ele>
        <time>2021-08-06T10:46:23.858Z</time>
      </trkpt>
      <trkpt lat="46.95083" lon="8.72603">
        <ele>1416</ele>
        <time>2021-08-06T10:46:24.857Z</time>
      </trkpt>
      <trkpt lat="46.95083" lon="8.72602">
        <ele>1417</ele>
        <time>2021-08-06T10:46:25.858Z</time>
      </trkpt>
      <trkpt lat="46.95082" lon="8.72602">
        <ele>1417</ele>
        <time>2021-08-06T10:46:26.857Z</time>
      </trkpt>
      <trkpt lat="46.95082" lon="8.72601">
        <ele>1416</ele>
        <time>2021-08-06T10:46:27.858Z</time>
      </trkpt>
      <trkpt lat="46.95082" lon="8.72601">
        <ele>1416</ele>
        <time>2021-08-06T10:46:28.857Z</time>
      </trkpt>
      <trkpt lat="46.95082" lon="8.726">
        <ele>1416</ele>
        <time>2021-08-06T10:46:29.858Z</time>
      </trkpt>
      <trkpt lat="46.95081" lon="8.72599">
        <ele>1416</ele>
        <time>2021-08-06T10:46:30.857Z</time>
      </trkpt>
      <trkpt lat="46.95081" lon="8.72598">
        <ele>1416</ele>
        <time>2021-08-06T10:46:31.858Z</time>
      </trkpt>
      <trkpt lat="46.9508" lon="8.72597">
        <ele>1417</ele>
        <time>2021-08-06T10:46:32.858Z</time>
      </trkpt>
      <trkpt lat="46.9508" lon="8.72596">
        <ele>1417</ele>
        <time>2021-08-06T10:46:33.858Z</time>
      </trkpt>
      <trkpt lat="46.9508" lon="8.72595">
        <ele>1417</ele>
        <time>2021-08-06T10:46:34.857Z</time>
      </trkpt>
      <trkpt lat="46.9508" lon="8.72595">
        <ele>1418</ele>
        <time>2021-08-06T10:46:35.857Z</time>
      </trkpt>
      <trkpt lat="46.95079" lon="8.72594">
        <ele>1417</ele>
        <time>2021-08-06T10:46:36.858Z</time>
      </trkpt>
      <trkpt lat="46.95078" lon="8.72593">
        <ele>1417</ele>
        <time>2021-08-06T10:46:37.858Z</time>
      </trkpt>
      <trkpt lat="46.95078" lon="8.72593">
        <ele>1417</ele>
        <time>2021-08-06T10:46:38.857Z</time>
      </trkpt>
      <trkpt lat="46.95078" lon="8.72591">
        <ele>1417</ele>
        <time>2021-08-06T10:46:39.858Z</time>
      </trkpt>
      <trkpt lat="46.95078" lon="8.7259">
        <ele>1417</ele>
        <time>2021-08-06T10:46:40.857Z</time>
      </trkpt>
      <trkpt lat="46.95078" lon="8.72588">
        <ele>1417</ele>
        <time>2021-08-06T10:46:41.858Z</time>
      </trkpt>
      <trkpt lat="46.95078" lon="8.72586">
        <ele>1416</ele>
        <time>2021-08-06T10:46:42.857Z</time>
      </trkpt>
      <trkpt lat="46.95078" lon="8.72585">
        <ele>1416</ele>
        <time>2021-08-06T10:46:43.858Z</time>
      </trkpt>
      <trkpt lat="46.95078" lon="8.72584">
        <ele>1416</ele>
        <time>2021-08-06T10:46:44.858Z</time>
      </trkpt>
      <trkpt lat="46.95078" lon="8.72583">
        <ele>1415</ele>
        <time>2021-08-06T10:46:45.858Z</time>
      </trkpt>
      <trkpt lat="46.95077" lon="8.72583">
        <ele>1415</ele>
        <time>2021-08-06T10:46:46.857Z</time>
      </trkpt>
      <trkpt lat="46.95077" lon="8.72582">
        <ele>1416</ele>
        <time>2021-08-06T10:46:47.858Z</time>
      </trkpt>
      <trkpt lat="46.95076" lon="8.72582">
        <ele>1416</ele>
        <time>2021-08-06T10:46:48.858Z</time>
      </trkpt>
      <trkpt lat="46.95076" lon="8.72581">
        <ele>1416</ele>
        <time>2021-08-06T10:46:49.858Z</time>
      </trkpt>
      <trkpt lat="46.95075" lon="8.7258">
        <ele>1416</ele>
        <time>2021-08-06T10:46:50.858Z</time>
      </trkpt>
      <trkpt lat="46.95074" lon="8.7258">
        <ele>1417</ele>
        <time>2021-08-06T10:46:51.858Z</time>
      </trkpt>
      <trkpt lat="46.95074" lon="8.7258">
        <ele>1417</ele>
        <time>2021-08-06T10:46:52.858Z</time>
      </trkpt>
      <trkpt lat="46.95073" lon="8.72579">
        <ele>1416</ele>
        <time>2021-08-06T10:46:53.858Z</time>
      </trkpt>
      <trkpt lat="46.95073" lon="8.72579">
        <ele>1416</ele>
        <time>2021-08-06T10:46:54.857Z</time>
      </trkpt>
      <trkpt lat="46.95073" lon="8.72578">
        <ele>1416</ele>
        <time>2021-08-06T10:46:55.857Z</time>
      </trkpt>
      <trkpt lat="46.95073" lon="8.72585">
        <ele>1414</ele>
        <time>2021-08-06T10:46:56.857Z</time>
      </trkpt>
      <trkpt lat="46.95073" lon="8.72585">
        <ele>1414</ele>
        <time>2021-08-06T10:46:57.858Z</time>
      </trkpt>
      <trkpt lat="46.95073" lon="8.72584">
        <ele>1414</ele>
        <time>2021-08-06T10:46:58.857Z</time>
      </trkpt>
      <trkpt lat="46.95072" lon="8.72582">
        <ele>1414</ele>
        <time>2021-08-06T10:46:59.858Z</time>
      </trkpt>
      <trkpt lat="46.95072" lon="8.72581">
        <ele>1414</ele>
        <time>2021-08-06T10:47:00.858Z</time>
      </trkpt>
      <trkpt lat="46.95072" lon="8.72581">
        <ele>1413</ele>
        <time>2021-08-06T10:47:01.858Z</time>
      </trkpt>
      <trkpt lat="46.95072" lon="8.7258">
        <ele>1413</ele>
        <time>2021-08-06T10:47:02.859Z</time>
      </trkpt>
      <trkpt lat="46.95071" lon="8.72579">
        <ele>1413</ele>
        <time>2021-08-06T10:47:03.859Z</time>
      </trkpt>
      <trkpt lat="46.9507" lon="8.72579">
        <ele>1414</ele>
        <time>2021-08-06T10:47:04.859Z</time>
      </trkpt>
      <trkpt lat="46.95069" lon="8.72577">
        <ele>1414</ele>
        <time>2021-08-06T10:47:05.858Z</time>
      </trkpt>
      <trkpt lat="46.95069" lon="8.72576">
        <ele>1415</ele>
        <time>2021-08-06T10:47:06.858Z</time>
      </trkpt>
      <trkpt lat="46.95068" lon="8.72575">
        <ele>1415</ele>
        <time>2021-08-06T10:47:07.859Z</time>
      </trkpt>
      <trkpt lat="46.95067" lon="8.72574">
        <ele>1416</ele>
        <time>2021-08-06T10:47:08.858Z</time>
      </trkpt>
      <trkpt lat="46.95066" lon="8.72574">
        <ele>1417</ele>
        <time>2021-08-06T10:47:09.859Z</time>
      </trkpt>
      <trkpt lat="46.95066" lon="8.72573">
        <ele>1418</ele>
        <time>2021-08-06T10:47:10.858Z</time>
      </trkpt>
      <trkpt lat="46.95066" lon="8.72572">
        <ele>1418</ele>
        <time>2021-08-06T10:47:11.858Z</time>
      </trkpt>
      <trkpt lat="46.95065" lon="8.72572">
        <ele>1418</ele>
        <time>2021-08-06T10:47:12.858Z</time>
      </trkpt>
      <trkpt lat="46.95064" lon="8.72572">
        <ele>1418</ele>
        <time>2021-08-06T10:47:20.008Z</time>
      </trkpt>
      <trkpt lat="46.95063" lon="8.72572">
        <ele>1418</ele>
        <time>2021-08-06T10:47:21.009Z</time>
      </trkpt>
      <trkpt lat="46.95063" lon="8.72572">
        <ele>1417</ele>
        <time>2021-08-06T10:47:22.008Z</time>
      </trkpt>
      <trkpt lat="46.95062" lon="8.72572">
        <ele>1417</ele>
        <time>2021-08-06T10:47:23.008Z</time>
      </trkpt>
      <trkpt lat="46.95062" lon="8.72572">
        <ele>1417</ele>
        <time>2021-08-06T10:47:24.008Z</time>
      </trkpt>
      <trkpt lat="46.95061" lon="8.72571">
        <ele>1417</ele>
        <time>2021-08-06T10:47:25.009Z</time>
      </trkpt>
      <trkpt lat="46.95061" lon="8.7257">
        <ele>1417</ele>
        <time>2021-08-06T10:47:26.009Z</time>
      </trkpt>
      <trkpt lat="46.9506" lon="8.72569">
        <ele>1417</ele>
        <time>2021-08-06T10:47:27.009Z</time>
      </trkpt>
      <trkpt lat="46.9506" lon="8.72568">
        <ele>1416</ele>
        <time>2021-08-06T10:47:28.008Z</time>
      </trkpt>
      <trkpt lat="46.95059" lon="8.72568">
        <ele>1416</ele>
        <time>2021-08-06T10:47:29.009Z</time>
      </trkpt>
      <trkpt lat="46.95059" lon="8.72567">
        <ele>1416</ele>
        <time>2021-08-06T10:47:30.009Z</time>
      </trkpt>
      <trkpt lat="46.95058" lon="8.72566">
        <ele>1416</ele>
        <time>2021-08-06T10:47:31.009Z</time>
      </trkpt>
      <trkpt lat="46.95058" lon="8.72565">
        <ele>1416</ele>
        <time>2021-08-06T10:47:32.008Z</time>
      </trkpt>
      <trkpt lat="46.95057" lon="8.72565">
        <ele>1416</ele>
        <time>2021-08-06T10:47:33.009Z</time>
      </trkpt>
      <trkpt lat="46.95057" lon="8.72564">
        <ele>1415</ele>
        <time>2021-08-06T10:47:34.009Z</time>
      </trkpt>
      <trkpt lat="46.95057" lon="8.72563">
        <ele>1415</ele>
        <time>2021-08-06T10:47:35.008Z</time>
      </trkpt>
      <trkpt lat="46.95056" lon="8.72563">
        <ele>1415</ele>
        <time>2021-08-06T10:47:36.009Z</time>
      </trkpt>
      <trkpt lat="46.95056" lon="8.72562">
        <ele>1415</ele>
        <time>2021-08-06T10:47:37.009Z</time>
      </trkpt>
      <trkpt lat="46.95055" lon="8.72561">
        <ele>1415</ele>
        <time>2021-08-06T10:47:38.009Z</time>
      </trkpt>
      <trkpt lat="46.95055" lon="8.7256">
        <ele>1415</ele>
        <time>2021-08-06T10:47:39.009Z</time>
      </trkpt>
      <trkpt lat="46.95054" lon="8.72559">
        <ele>1415</ele>
        <time>2021-08-06T10:47:40.009Z</time>
      </trkpt>
      <trkpt lat="46.95054" lon="8.72558">
        <ele>1416</ele>
        <time>2021-08-06T10:47:41.008Z</time>
      </trkpt>
      <trkpt lat="46.95053" lon="8.72557">
        <ele>1417</ele>
        <time>2021-08-06T10:47:42.008Z</time>
      </trkpt>
      <trkpt lat="46.95053" lon="8.72557">
        <ele>1417</ele>
        <time>2021-08-06T10:47:43.008Z</time>
      </trkpt>
      <trkpt lat="46.95053" lon="8.72556">
        <ele>1417</ele>
        <time>2021-08-06T10:47:44.008Z</time>
      </trkpt>
      <trkpt lat="46.95053" lon="8.72555">
        <ele>1417</ele>
        <time>2021-08-06T10:47:45.008Z</time>
      </trkpt>
      <trkpt lat="46.95052" lon="8.72554">
        <ele>1417</ele>
        <time>2021-08-06T10:47:46.008Z</time>
      </trkpt>
      <trkpt lat="46.95052" lon="8.72553">
        <ele>1418</ele>
        <time>2021-08-06T10:47:47.008Z</time>
      </trkpt>
      <trkpt lat="46.95051" lon="8.72552">
        <ele>1417</ele>
        <time>2021-08-06T10:47:48.008Z</time>
      </trkpt>
      <trkpt lat="46.95051" lon="8.72551">
        <ele>1417</ele>
        <time>2021-08-06T10:47:49.008Z</time>
      </trkpt>
      <trkpt lat="46.95051" lon="8.72551">
        <ele>1416</ele>
        <time>2021-08-06T10:47:50.009Z</time>
      </trkpt>
      <trkpt lat="46.95051" lon="8.7255">
        <ele>1416</ele>
        <time>2021-08-06T10:47:51.008Z</time>
      </trkpt>
      <trkpt lat="46.95051" lon="8.72549">
        <ele>1416</ele>
        <time>2021-08-06T10:47:52.009Z</time>
      </trkpt>
      <trkpt lat="46.95051" lon="8.72548">
        <ele>1416</ele>
        <time>2021-08-06T10:47:53.009Z</time>
      </trkpt>
      <trkpt lat="46.9505" lon="8.72547">
        <ele>1417</ele>
        <time>2021-08-06T10:47:54.009Z</time>
      </trkpt>
      <trkpt lat="46.95051" lon="8.72544">
        <ele>1417</ele>
        <time>2021-08-06T10:47:55.008Z</time>
      </trkpt>
      <trkpt lat="46.9505" lon="8.72543">
        <ele>1417</ele>
        <time>2021-08-06T10:47:56.008Z</time>
      </trkpt>
      <trkpt lat="46.9505" lon="8.72542">
        <ele>1417</ele>
        <time>2021-08-06T10:47:57.008Z</time>
      </trkpt>
      <trkpt lat="46.9505" lon="8.7254">
        <ele>1417</ele>
        <time>2021-08-06T10:47:58.008Z</time>
      </trkpt>
      <trkpt lat="46.95049" lon="8.7254">
        <ele>1417</ele>
        <time>2021-08-06T10:47:59.009Z</time>
      </trkpt>
      <trkpt lat="46.95049" lon="8.72539">
        <ele>1417</ele>
        <time>2021-08-06T10:48:00.009Z</time>
      </trkpt>
      <trkpt lat="46.95048" lon="8.72538">
        <ele>1418</ele>
        <time>2021-08-06T10:48:01.009Z</time>
      </trkpt>
      <trkpt lat="46.95049" lon="8.72536">
        <ele>1418</ele>
        <time>2021-08-06T10:48:02.008Z</time>
      </trkpt>
      <trkpt lat="46.95048" lon="8.72535">
        <ele>1418</ele>
        <time>2021-08-06T10:48:03.009Z</time>
      </trkpt>
      <trkpt lat="46.95047" lon="8.72535">
        <ele>1418</ele>
        <time>2021-08-06T10:48:04.009Z</time>
      </trkpt>
      <trkpt lat="46.95047" lon="8.72534">
        <ele>1418</ele>
        <time>2021-08-06T10:48:05.009Z</time>
      </trkpt>
      <trkpt lat="46.95046" lon="8.72533">
        <ele>1418</ele>
        <time>2021-08-06T10:48:06.008Z</time>
      </trkpt>
      <trkpt lat="46.95046" lon="8.72531">
        <ele>1418</ele>
        <time>2021-08-06T10:48:07.008Z</time>
      </trkpt>
      <trkpt lat="46.95046" lon="8.7253">
        <ele>1418</ele>
        <time>2021-08-06T10:48:08.009Z</time>
      </trkpt>
      <trkpt lat="46.95045" lon="8.72529">
        <ele>1418</ele>
        <time>2021-08-06T10:48:09.008Z</time>
      </trkpt>
      <trkpt lat="46.95044" lon="8.72528">
        <ele>1419</ele>
        <time>2021-08-06T10:48:10.008Z</time>
      </trkpt>
      <trkpt lat="46.95043" lon="8.72528">
        <ele>1419</ele>
        <time>2021-08-06T10:48:11.008Z</time>
      </trkpt>
      <trkpt lat="46.95042" lon="8.72528">
        <ele>1420</ele>
        <time>2021-08-06T10:48:12.009Z</time>
      </trkpt>
      <trkpt lat="46.95042" lon="8.72528">
        <ele>1421</ele>
        <time>2021-08-06T10:48:13.008Z</time>
      </trkpt>
      <trkpt lat="46.95041" lon="8.72527">
        <ele>1421</ele>
        <time>2021-08-06T10:48:14.009Z</time>
      </trkpt>
      <trkpt lat="46.95041" lon="8.72526">
        <ele>1422</ele>
        <time>2021-08-06T10:48:15.009Z</time>
      </trkpt>
      <trkpt lat="46.9504" lon="8.72525">
        <ele>1422</ele>
        <time>2021-08-06T10:48:16.008Z</time>
      </trkpt>
      <trkpt lat="46.9504" lon="8.72524">
        <ele>1422</ele>
        <time>2021-08-06T10:48:17.009Z</time>
      </trkpt>
      <trkpt lat="46.95039" lon="8.72524">
        <ele>1423</ele>
        <time>2021-08-06T10:48:18.008Z</time>
      </trkpt>
      <trkpt lat="46.95039" lon="8.72523">
        <ele>1422</ele>
        <time>2021-08-06T10:48:19.009Z</time>
      </trkpt>
      <trkpt lat="46.95038" lon="8.72522">
        <ele>1422</ele>
        <time>2021-08-06T10:48:20.008Z</time>
      </trkpt>
      <trkpt lat="46.95038" lon="8.72522">
        <ele>1422</ele>
        <time>2021-08-06T10:48:21.008Z</time>
      </trkpt>
      <trkpt lat="46.95037" lon="8.72522">
        <ele>1421</ele>
        <time>2021-08-06T10:48:22.009Z</time>
      </trkpt>
      <trkpt lat="46.95036" lon="8.72521">
        <ele>1421</ele>
        <time>2021-08-06T10:48:23.008Z</time>
      </trkpt>
      <trkpt lat="46.95035" lon="8.7252">
        <ele>1420</ele>
        <time>2021-08-06T10:48:24.008Z</time>
      </trkpt>
      <trkpt lat="46.95035" lon="8.7252">
        <ele>1420</ele>
        <time>2021-08-06T10:48:25.008Z</time>
      </trkpt>
      <trkpt lat="46.95034" lon="8.72519">
        <ele>1420</ele>
        <time>2021-08-06T10:48:26.009Z</time>
      </trkpt>
      <trkpt lat="46.95033" lon="8.72518">
        <ele>1421</ele>
        <time>2021-08-06T10:48:27.008Z</time>
      </trkpt>
      <trkpt lat="46.95032" lon="8.72518">
        <ele>1421</ele>
        <time>2021-08-06T10:48:28.009Z</time>
      </trkpt>
      <trkpt lat="46.95031" lon="8.72518">
        <ele>1422</ele>
        <time>2021-08-06T10:48:29.008Z</time>
      </trkpt>
      <trkpt lat="46.9503" lon="8.72518">
        <ele>1423</ele>
        <time>2021-08-06T10:48:30.009Z</time>
      </trkpt>
      <trkpt lat="46.9503" lon="8.72518">
        <ele>1424</ele>
        <time>2021-08-06T10:48:45.129Z</time>
      </trkpt>
      <trkpt lat="46.95029" lon="8.72517">
        <ele>1424</ele>
        <time>2021-08-06T10:48:46.129Z</time>
      </trkpt>
      <trkpt lat="46.95028" lon="8.72517">
        <ele>1425</ele>
        <time>2021-08-06T10:48:48.972Z</time>
      </trkpt>
      <trkpt lat="46.95027" lon="8.72516">
        <ele>1426</ele>
        <time>2021-08-06T10:48:49.971Z</time>
      </trkpt>
      <trkpt lat="46.95026" lon="8.72517">
        <ele>1427</ele>
        <time>2021-08-06T10:48:50.972Z</time>
      </trkpt>
      <trkpt lat="46.95025" lon="8.72517">
        <ele>1428</ele>
        <time>2021-08-06T10:48:51.972Z</time>
      </trkpt>
      <trkpt lat="46.95025" lon="8.72516">
        <ele>1429</ele>
        <time>2021-08-06T10:48:52.972Z</time>
      </trkpt>
      <trkpt lat="46.95024" lon="8.72516">
        <ele>1429</ele>
        <time>2021-08-06T10:48:53.971Z</time>
      </trkpt>
      <trkpt lat="46.95023" lon="8.72515">
        <ele>1429</ele>
        <time>2021-08-06T10:48:54.971Z</time>
      </trkpt>
      <trkpt lat="46.95022" lon="8.72513">
        <ele>1430</ele>
        <time>2021-08-06T10:48:55.972Z</time>
      </trkpt>
      <trkpt lat="46.95022" lon="8.72513">
        <ele>1430</ele>
        <time>2021-08-06T10:48:56.972Z</time>
      </trkpt>
      <trkpt lat="46.95021" lon="8.72513">
        <ele>1431</ele>
        <time>2021-08-06T10:48:57.971Z</time>
      </trkpt>
      <trkpt lat="46.95019" lon="8.72513">
        <ele>1432</ele>
        <time>2021-08-06T10:48:58.971Z</time>
      </trkpt>
      <trkpt lat="46.95019" lon="8.72513">
        <ele>1433</ele>
        <time>2021-08-06T10:48:59.972Z</time>
      </trkpt>
      <trkpt lat="46.95018" lon="8.72513">
        <ele>1433</ele>
        <time>2021-08-06T10:49:00.972Z</time>
      </trkpt>
      <trkpt lat="46.95018" lon="8.72514">
        <ele>1433</ele>
        <time>2021-08-06T10:49:01.972Z</time>
      </trkpt>
      <trkpt lat="46.95018" lon="8.72514">
        <ele>1434</ele>
        <time>2021-08-06T10:49:02.971Z</time>
      </trkpt>
      <trkpt lat="46.95017" lon="8.72513">
        <ele>1433</ele>
        <time>2021-08-06T10:49:03.972Z</time>
      </trkpt>
      <trkpt lat="46.95017" lon="8.72512">
        <ele>1433</ele>
        <time>2021-08-06T10:49:04.972Z</time>
      </trkpt>
      <trkpt lat="46.95016" lon="8.72512">
        <ele>1433</ele>
        <time>2021-08-06T10:49:05.971Z</time>
      </trkpt>
      <trkpt lat="46.95015" lon="8.72511">
        <ele>1433</ele>
        <time>2021-08-06T10:49:06.971Z</time>
      </trkpt>
      <trkpt lat="46.95014" lon="8.72511">
        <ele>1432</ele>
        <time>2021-08-06T10:49:07.971Z</time>
      </trkpt>
      <trkpt lat="46.95014" lon="8.7251">
        <ele>1432</ele>
        <time>2021-08-06T10:49:08.972Z</time>
      </trkpt>
      <trkpt lat="46.95013" lon="8.72509">
        <ele>1431</ele>
        <time>2021-08-06T10:49:09.972Z</time>
      </trkpt>
      <trkpt lat="46.95013" lon="8.72509">
        <ele>1431</ele>
        <time>2021-08-06T10:49:10.972Z</time>
      </trkpt>
      <trkpt lat="46.95012" lon="8.7251">
        <ele>1432</ele>
        <time>2021-08-06T10:49:11.971Z</time>
      </trkpt>
      <trkpt lat="46.95009" lon="8.72515">
        <ele>1430</ele>
        <time>2021-08-06T10:49:12.971Z</time>
      </trkpt>
      <trkpt lat="46.95005" lon="8.72513">
        <ele>1430</ele>
        <time>2021-08-06T10:49:13.972Z</time>
      </trkpt>
      <trkpt lat="46.95005" lon="8.72512">
        <ele>1430</ele>
        <time>2021-08-06T10:49:14.972Z</time>
      </trkpt>
      <trkpt lat="46.95006" lon="8.72512">
        <ele>1430</ele>
        <time>2021-08-06T10:49:15.973Z</time>
      </trkpt>
      <trkpt lat="46.95007" lon="8.72512">
        <ele>1430</ele>
        <time>2021-08-06T10:49:16.973Z</time>
      </trkpt>
      <trkpt lat="46.95008" lon="8.72512">
        <ele>1431</ele>
        <time>2021-08-06T10:49:17.972Z</time>
      </trkpt>
      <trkpt lat="46.95011" lon="8.72511">
        <ele>1440</ele>
        <time>2021-08-06T10:49:18.973Z</time>
      </trkpt>
      <trkpt lat="46.95011" lon="8.72511">
        <ele>1440</ele>
        <time>2021-08-06T10:49:19.973Z</time>
      </trkpt>
      <trkpt lat="46.9501" lon="8.72508">
        <ele>1445</ele>
        <time>2021-08-06T10:49:20.972Z</time>
      </trkpt>
      <trkpt lat="46.95011" lon="8.72509">
        <ele>1445</ele>
        <time>2021-08-06T10:49:21.972Z</time>
      </trkpt>
      <trkpt lat="46.95011" lon="8.72509">
        <ele>1446</ele>
        <time>2021-08-06T10:49:22.973Z</time>
      </trkpt>
      <trkpt lat="46.95011" lon="8.72509">
        <ele>1446</ele>
        <time>2021-08-06T10:49:23.972Z</time>
      </trkpt>
      <trkpt lat="46.9501" lon="8.72508">
        <ele>1446</ele>
        <time>2021-08-06T10:49:24.973Z</time>
      </trkpt>
      <trkpt lat="46.95009" lon="8.72507">
        <ele>1446</ele>
        <time>2021-08-06T10:49:25.972Z</time>
      </trkpt>
      <trkpt lat="46.95009" lon="8.72507">
        <ele>1447</ele>
        <time>2021-08-06T10:49:26.972Z</time>
      </trkpt>
      <trkpt lat="46.95009" lon="8.72507">
        <ele>1450</ele>
        <time>2021-08-06T10:49:27.974Z</time>
      </trkpt>
      <trkpt lat="46.95009" lon="8.72507">
        <ele>1449</ele>
        <time>2021-08-06T10:49:28.973Z</time>
      </trkpt>
      <trkpt lat="46.9501" lon="8.72506">
        <ele>1448</ele>
        <time>2021-08-06T10:49:29.974Z</time>
      </trkpt>
      <trkpt lat="46.9501" lon="8.72506">
        <ele>1447</ele>
        <time>2021-08-06T10:49:30.974Z</time>
      </trkpt>
      <trkpt lat="46.9501" lon="8.72505">
        <ele>1445</ele>
        <time>2021-08-06T10:49:31.974Z</time>
      </trkpt>
      <trkpt lat="46.9501" lon="8.72505">
        <ele>1444</ele>
        <time>2021-08-06T10:49:32.973Z</time>
      </trkpt>
      <trkpt lat="46.95009" lon="8.72504">
        <ele>1444</ele>
        <time>2021-08-06T10:49:33.973Z</time>
      </trkpt>
      <trkpt lat="46.95008" lon="8.72504">
        <ele>1443</ele>
        <time>2021-08-06T10:49:34.974Z</time>
      </trkpt>
      <trkpt lat="46.95007" lon="8.72504">
        <ele>1443</ele>
        <time>2021-08-06T10:49:35.974Z</time>
      </trkpt>
      <trkpt lat="46.95006" lon="8.72503">
        <ele>1443</ele>
        <time>2021-08-06T10:49:36.974Z</time>
      </trkpt>
      <trkpt lat="46.95005" lon="8.72503">
        <ele>1442</ele>
        <time>2021-08-06T10:49:37.974Z</time>
      </trkpt>
      <trkpt lat="46.95005" lon="8.72503">
        <ele>1442</ele>
        <time>2021-08-06T10:49:38.974Z</time>
      </trkpt>
      <trkpt lat="46.95004" lon="8.72503">
        <ele>1441</ele>
        <time>2021-08-06T10:49:39.974Z</time>
      </trkpt>
      <trkpt lat="46.95002" lon="8.72502">
        <ele>1440</ele>
        <time>2021-08-06T10:49:40.974Z</time>
      </trkpt>
      <trkpt lat="46.95001" lon="8.725">
        <ele>1440</ele>
        <time>2021-08-06T10:49:41.974Z</time>
      </trkpt>
      <trkpt lat="46.95" lon="8.72498">
        <ele>1439</ele>
        <time>2021-08-06T10:49:42.974Z</time>
      </trkpt>
      <trkpt lat="46.95" lon="8.72498">
        <ele>1438</ele>
        <time>2021-08-06T10:49:43.974Z</time>
      </trkpt>
      <trkpt lat="46.94999" lon="8.72498">
        <ele>1437</ele>
        <time>2021-08-06T10:49:44.974Z</time>
      </trkpt>
      <trkpt lat="46.94998" lon="8.72497">
        <ele>1437</ele>
        <time>2021-08-06T10:49:45.974Z</time>
      </trkpt>
      <trkpt lat="46.94997" lon="8.72496">
        <ele>1436</ele>
        <time>2021-08-06T10:49:46.974Z</time>
      </trkpt>
      <trkpt lat="46.94997" lon="8.72495">
        <ele>1436</ele>
        <time>2021-08-06T10:49:47.973Z</time>
      </trkpt>
      <trkpt lat="46.94996" lon="8.72494">
        <ele>1436</ele>
        <time>2021-08-06T10:49:48.974Z</time>
      </trkpt>
      <trkpt lat="46.94995" lon="8.72493">
        <ele>1436</ele>
        <time>2021-08-06T10:49:49.974Z</time>
      </trkpt>
      <trkpt lat="46.94994" lon="8.72492">
        <ele>1436</ele>
        <time>2021-08-06T10:49:50.973Z</time>
      </trkpt>
      <trkpt lat="46.94994" lon="8.72491">
        <ele>1435</ele>
        <time>2021-08-06T10:49:51.973Z</time>
      </trkpt>
      <trkpt lat="46.94993" lon="8.7249">
        <ele>1435</ele>
        <time>2021-08-06T10:49:52.973Z</time>
      </trkpt>
      <trkpt lat="46.94993" lon="8.72488">
        <ele>1435</ele>
        <time>2021-08-06T10:49:53.974Z</time>
      </trkpt>
      <trkpt lat="46.94992" lon="8.72488">
        <ele>1435</ele>
        <time>2021-08-06T10:49:54.973Z</time>
      </trkpt>
      <trkpt lat="46.94991" lon="8.72487">
        <ele>1435</ele>
        <time>2021-08-06T10:49:55.973Z</time>
      </trkpt>
      <trkpt lat="46.9499" lon="8.72487">
        <ele>1435</ele>
        <time>2021-08-06T10:49:56.973Z</time>
      </trkpt>
      <trkpt lat="46.94989" lon="8.72486">
        <ele>1435</ele>
        <time>2021-08-06T10:49:57.973Z</time>
      </trkpt>
      <trkpt lat="46.94988" lon="8.72484">
        <ele>1434</ele>
        <time>2021-08-06T10:49:58.974Z</time>
      </trkpt>
      <trkpt lat="46.94987" lon="8.72482">
        <ele>1434</ele>
        <time>2021-08-06T10:49:59.974Z</time>
      </trkpt>
      <trkpt lat="46.94986" lon="8.72481">
        <ele>1434</ele>
        <time>2021-08-06T10:50:00.974Z</time>
      </trkpt>
      <trkpt lat="46.94986" lon="8.7248">
        <ele>1433</ele>
        <time>2021-08-06T10:50:01.974Z</time>
      </trkpt>
      <trkpt lat="46.94986" lon="8.72478">
        <ele>1433</ele>
        <time>2021-08-06T10:50:02.974Z</time>
      </trkpt>
      <trkpt lat="46.94986" lon="8.72477">
        <ele>1433</ele>
        <time>2021-08-06T10:50:03.973Z</time>
      </trkpt>
      <trkpt lat="46.94985" lon="8.72476">
        <ele>1433</ele>
        <time>2021-08-06T10:50:04.973Z</time>
      </trkpt>
      <trkpt lat="46.94985" lon="8.72475">
        <ele>1433</ele>
        <time>2021-08-06T10:50:05.973Z</time>
      </trkpt>
      <trkpt lat="46.94984" lon="8.72474">
        <ele>1433</ele>
        <time>2021-08-06T10:50:06.973Z</time>
      </trkpt>
      <trkpt lat="46.94983" lon="8.72473">
        <ele>1433</ele>
        <time>2021-08-06T10:50:07.974Z</time>
      </trkpt>
      <trkpt lat="46.94983" lon="8.72472">
        <ele>1432</ele>
        <time>2021-08-06T10:50:08.973Z</time>
      </trkpt>
      <trkpt lat="46.94982" lon="8.7247">
        <ele>1432</ele>
        <time>2021-08-06T10:50:09.973Z</time>
      </trkpt>
      <trkpt lat="46.94982" lon="8.72469">
        <ele>1432</ele>
        <time>2021-08-06T10:50:10.973Z</time>
      </trkpt>
      <trkpt lat="46.94982" lon="8.72467">
        <ele>1431</ele>
        <time>2021-08-06T10:50:11.973Z</time>
      </trkpt>
      <trkpt lat="46.94981" lon="8.72465">
        <ele>1430</ele>
        <time>2021-08-06T10:50:12.973Z</time>
      </trkpt>
      <trkpt lat="46.94981" lon="8.72463">
        <ele>1428</ele>
        <time>2021-08-06T10:50:13.974Z</time>
      </trkpt>
      <trkpt lat="46.9498" lon="8.72461">
        <ele>1427</ele>
        <time>2021-08-06T10:50:14.973Z</time>
      </trkpt>
      <trkpt lat="46.94979" lon="8.7246">
        <ele>1426</ele>
        <time>2021-08-06T10:50:15.973Z</time>
      </trkpt>
      <trkpt lat="46.94978" lon="8.72459">
        <ele>1425</ele>
        <time>2021-08-06T10:50:16.974Z</time>
      </trkpt>
      <trkpt lat="46.94977" lon="8.72458">
        <ele>1425</ele>
        <time>2021-08-06T10:50:17.973Z</time>
      </trkpt>
      <trkpt lat="46.94977" lon="8.72457">
        <ele>1424</ele>
        <time>2021-08-06T10:50:18.973Z</time>
      </trkpt>
      <trkpt lat="46.94976" lon="8.72455">
        <ele>1424</ele>
        <time>2021-08-06T10:50:19.973Z</time>
      </trkpt>
      <trkpt lat="46.94976" lon="8.72454">
        <ele>1423</ele>
        <time>2021-08-06T10:50:20.974Z</time>
      </trkpt>
      <trkpt lat="46.94976" lon="8.72452">
        <ele>1423</ele>
        <time>2021-08-06T10:50:21.974Z</time>
      </trkpt>
      <trkpt lat="46.94975" lon="8.72451">
        <ele>1422</ele>
        <time>2021-08-06T10:50:22.974Z</time>
      </trkpt>
      <trkpt lat="46.94974" lon="8.7245">
        <ele>1421</ele>
        <time>2021-08-06T10:50:23.973Z</time>
      </trkpt>
      <trkpt lat="46.94973" lon="8.72448">
        <ele>1420</ele>
        <time>2021-08-06T10:50:24.974Z</time>
      </trkpt>
      <trkpt lat="46.94972" lon="8.72447">
        <ele>1419</ele>
        <time>2021-08-06T10:50:25.974Z</time>
      </trkpt>
      <trkpt lat="46.94972" lon="8.72445">
        <ele>1419</ele>
        <time>2021-08-06T10:50:26.974Z</time>
      </trkpt>
      <trkpt lat="46.94972" lon="8.72444">
        <ele>1418</ele>
        <time>2021-08-06T10:50:27.973Z</time>
      </trkpt>
      <trkpt lat="46.94972" lon="8.72443">
        <ele>1418</ele>
        <time>2021-08-06T10:50:28.974Z</time>
      </trkpt>
      <trkpt lat="46.94971" lon="8.72441">
        <ele>1419</ele>
        <time>2021-08-06T10:50:29.974Z</time>
      </trkpt>
      <trkpt lat="46.94971" lon="8.7244">
        <ele>1419</ele>
        <time>2021-08-06T10:50:30.974Z</time>
      </trkpt>
      <trkpt lat="46.94971" lon="8.72438">
        <ele>1419</ele>
        <time>2021-08-06T10:50:31.974Z</time>
      </trkpt>
      <trkpt lat="46.94972" lon="8.72436">
        <ele>1419</ele>
        <time>2021-08-06T10:50:32.973Z</time>
      </trkpt>
      <trkpt lat="46.94971" lon="8.72434">
        <ele>1419</ele>
        <time>2021-08-06T10:50:33.974Z</time>
      </trkpt>
      <trkpt lat="46.94971" lon="8.72432">
        <ele>1419</ele>
        <time>2021-08-06T10:50:34.974Z</time>
      </trkpt>
      <trkpt lat="46.9497" lon="8.7243">
        <ele>1419</ele>
        <time>2021-08-06T10:50:35.974Z</time>
      </trkpt>
      <trkpt lat="46.9497" lon="8.72429">
        <ele>1418</ele>
        <time>2021-08-06T10:50:36.973Z</time>
      </trkpt>
      <trkpt lat="46.94969" lon="8.72428">
        <ele>1418</ele>
        <time>2021-08-06T10:50:37.974Z</time>
      </trkpt>
      <trkpt lat="46.94968" lon="8.72427">
        <ele>1417</ele>
        <time>2021-08-06T10:50:38.974Z</time>
      </trkpt>
      <trkpt lat="46.94967" lon="8.72425">
        <ele>1417</ele>
        <time>2021-08-06T10:50:39.974Z</time>
      </trkpt>
      <trkpt lat="46.94967" lon="8.72423">
        <ele>1416</ele>
        <time>2021-08-06T10:50:40.974Z</time>
      </trkpt>
      <trkpt lat="46.94967" lon="8.72422">
        <ele>1416</ele>
        <time>2021-08-06T10:50:41.974Z</time>
      </trkpt>
      <trkpt lat="46.94966" lon="8.72421">
        <ele>1416</ele>
        <time>2021-08-06T10:50:42.973Z</time>
      </trkpt>
      <trkpt lat="46.94966" lon="8.72419">
        <ele>1416</ele>
        <time>2021-08-06T10:50:43.973Z</time>
      </trkpt>
      <trkpt lat="46.94965" lon="8.72417">
        <ele>1415</ele>
        <time>2021-08-06T10:50:44.974Z</time>
      </trkpt>
      <trkpt lat="46.94965" lon="8.72415">
        <ele>1415</ele>
        <time>2021-08-06T10:50:45.974Z</time>
      </trkpt>
      <trkpt lat="46.94964" lon="8.72414">
        <ele>1415</ele>
        <time>2021-08-06T10:50:46.974Z</time>
      </trkpt>
      <trkpt lat="46.94964" lon="8.72412">
        <ele>1415</ele>
        <time>2021-08-06T10:50:47.973Z</time>
      </trkpt>
      <trkpt lat="46.94963" lon="8.7241">
        <ele>1416</ele>
        <time>2021-08-06T10:50:48.974Z</time>
      </trkpt>
      <trkpt lat="46.94963" lon="8.72408">
        <ele>1416</ele>
        <time>2021-08-06T10:50:49.974Z</time>
      </trkpt>
      <trkpt lat="46.94963" lon="8.72406">
        <ele>1417</ele>
        <time>2021-08-06T10:50:50.974Z</time>
      </trkpt>
      <trkpt lat="46.94963" lon="8.72405">
        <ele>1417</ele>
        <time>2021-08-06T10:50:51.974Z</time>
      </trkpt>
      <trkpt lat="46.94963" lon="8.72403">
        <ele>1418</ele>
        <time>2021-08-06T10:50:52.974Z</time>
      </trkpt>
      <trkpt lat="46.94963" lon="8.72402">
        <ele>1418</ele>
        <time>2021-08-06T10:50:53.973Z</time>
      </trkpt>
      <trkpt lat="46.94963" lon="8.724">
        <ele>1419</ele>
        <time>2021-08-06T10:50:54.973Z</time>
      </trkpt>
      <trkpt lat="46.94962" lon="8.72398">
        <ele>1419</ele>
        <time>2021-08-06T10:50:55.973Z</time>
      </trkpt>
      <trkpt lat="46.94962" lon="8.72397">
        <ele>1419</ele>
        <time>2021-08-06T10:50:56.974Z</time>
      </trkpt>
      <trkpt lat="46.94962" lon="8.72395">
        <ele>1419</ele>
        <time>2021-08-06T10:50:57.974Z</time>
      </trkpt>
      <trkpt lat="46.94962" lon="8.72394">
        <ele>1419</ele>
        <time>2021-08-06T10:50:58.973Z</time>
      </trkpt>
      <trkpt lat="46.94962" lon="8.72392">
        <ele>1419</ele>
        <time>2021-08-06T10:50:59.974Z</time>
      </trkpt>
      <trkpt lat="46.94962" lon="8.72391">
        <ele>1418</ele>
        <time>2021-08-06T10:51:00.974Z</time>
      </trkpt>
      <trkpt lat="46.94961" lon="8.72389">
        <ele>1418</ele>
        <time>2021-08-06T10:51:01.973Z</time>
      </trkpt>
      <trkpt lat="46.94961" lon="8.72388">
        <ele>1418</ele>
        <time>2021-08-06T10:51:02.974Z</time>
      </trkpt>
      <trkpt lat="46.94961" lon="8.72387">
        <ele>1418</ele>
        <time>2021-08-06T10:51:03.974Z</time>
      </trkpt>
      <trkpt lat="46.94961" lon="8.72385">
        <ele>1418</ele>
        <time>2021-08-06T10:51:04.973Z</time>
      </trkpt>
      <trkpt lat="46.94961" lon="8.72383">
        <ele>1417</ele>
        <time>2021-08-06T10:51:05.974Z</time>
      </trkpt>
      <trkpt lat="46.94961" lon="8.72381">
        <ele>1417</ele>
        <time>2021-08-06T10:51:06.974Z</time>
      </trkpt>
      <trkpt lat="46.94961" lon="8.72379">
        <ele>1416</ele>
        <time>2021-08-06T10:51:07.974Z</time>
      </trkpt>
      <trkpt lat="46.94961" lon="8.72377">
        <ele>1415</ele>
        <time>2021-08-06T10:51:08.974Z</time>
      </trkpt>
      <trkpt lat="46.94961" lon="8.72376">
        <ele>1416</ele>
        <time>2021-08-06T10:51:09.973Z</time>
      </trkpt>
      <trkpt lat="46.9496" lon="8.72375">
        <ele>1416</ele>
        <time>2021-08-06T10:51:10.974Z</time>
      </trkpt>
      <trkpt lat="46.9496" lon="8.72374">
        <ele>1417</ele>
        <time>2021-08-06T10:51:11.974Z</time>
      </trkpt>
      <trkpt lat="46.9496" lon="8.72372">
        <ele>1417</ele>
        <time>2021-08-06T10:51:12.974Z</time>
      </trkpt>
      <trkpt lat="46.9496" lon="8.72371">
        <ele>1417</ele>
        <time>2021-08-06T10:51:13.974Z</time>
      </trkpt>
      <trkpt lat="46.9496" lon="8.72369">
        <ele>1418</ele>
        <time>2021-08-06T10:51:14.974Z</time>
      </trkpt>
      <trkpt lat="46.9496" lon="8.72367">
        <ele>1418</ele>
        <time>2021-08-06T10:51:15.974Z</time>
      </trkpt>
      <trkpt lat="46.94959" lon="8.72366">
        <ele>1418</ele>
        <time>2021-08-06T10:51:16.974Z</time>
      </trkpt>
      <trkpt lat="46.94959" lon="8.72364">
        <ele>1418</ele>
        <time>2021-08-06T10:51:17.974Z</time>
      </trkpt>
      <trkpt lat="46.94959" lon="8.72362">
        <ele>1418</ele>
        <time>2021-08-06T10:51:22.082Z</time>
      </trkpt>
      <trkpt lat="46.94959" lon="8.72361">
        <ele>1418</ele>
        <time>2021-08-06T10:51:24.830Z</time>
      </trkpt>
      <trkpt lat="46.94959" lon="8.72359">
        <ele>1418</ele>
        <time>2021-08-06T10:51:25.830Z</time>
      </trkpt>
      <trkpt lat="46.94959" lon="8.72357">
        <ele>1418</ele>
        <time>2021-08-06T10:51:26.830Z</time>
      </trkpt>
      <trkpt lat="46.94959" lon="8.72356">
        <ele>1418</ele>
        <time>2021-08-06T10:51:28.561Z</time>
      </trkpt>
      <trkpt lat="46.94959" lon="8.72354">
        <ele>1418</ele>
        <time>2021-08-06T10:51:29.561Z</time>
      </trkpt>
      <trkpt lat="46.94959" lon="8.72352">
        <ele>1418</ele>
        <time>2021-08-06T10:51:30.561Z</time>
      </trkpt>
      <trkpt lat="46.94959" lon="8.72351">
        <ele>1418</ele>
        <time>2021-08-06T10:51:31.561Z</time>
      </trkpt>
      <trkpt lat="46.9496" lon="8.72349">
        <ele>1418</ele>
        <time>2021-08-06T10:51:32.560Z</time>
      </trkpt>
      <trkpt lat="46.9496" lon="8.72348">
        <ele>1419</ele>
        <time>2021-08-06T10:51:33.560Z</time>
      </trkpt>
      <trkpt lat="46.9496" lon="8.72347">
        <ele>1419</ele>
        <time>2021-08-06T10:51:34.561Z</time>
      </trkpt>
      <trkpt lat="46.9496" lon="8.72345">
        <ele>1419</ele>
        <time>2021-08-06T10:51:35.561Z</time>
      </trkpt>
      <trkpt lat="46.94961" lon="8.72343">
        <ele>1418</ele>
        <time>2021-08-06T10:51:36.561Z</time>
      </trkpt>
      <trkpt lat="46.94961" lon="8.72341">
        <ele>1417</ele>
        <time>2021-08-06T10:51:37.560Z</time>
      </trkpt>
      <trkpt lat="46.94961" lon="8.72339">
        <ele>1417</ele>
        <time>2021-08-06T10:51:38.560Z</time>
      </trkpt>
      <trkpt lat="46.94962" lon="8.72337">
        <ele>1416</ele>
        <time>2021-08-06T10:51:39.560Z</time>
      </trkpt>
      <trkpt lat="46.94962" lon="8.72335">
        <ele>1416</ele>
        <time>2021-08-06T10:51:40.561Z</time>
      </trkpt>
      <trkpt lat="46.94962" lon="8.72333">
        <ele>1415</ele>
        <time>2021-08-06T10:51:41.561Z</time>
      </trkpt>
      <trkpt lat="46.94963" lon="8.72331">
        <ele>1414</ele>
        <time>2021-08-06T10:51:42.561Z</time>
      </trkpt>
      <trkpt lat="46.94963" lon="8.72329">
        <ele>1414</ele>
        <time>2021-08-06T10:51:43.560Z</time>
      </trkpt>
      <trkpt lat="46.94963" lon="8.72327">
        <ele>1414</ele>
        <time>2021-08-06T10:51:44.561Z</time>
      </trkpt>
      <trkpt lat="46.94963" lon="8.72325">
        <ele>1413</ele>
        <time>2021-08-06T10:51:45.561Z</time>
      </trkpt>
      <trkpt lat="46.94963" lon="8.72324">
        <ele>1414</ele>
        <time>2021-08-06T10:51:46.561Z</time>
      </trkpt>
      <trkpt lat="46.94964" lon="8.72322">
        <ele>1414</ele>
        <time>2021-08-06T10:51:47.561Z</time>
      </trkpt>
      <trkpt lat="46.94964" lon="8.72321">
        <ele>1414</ele>
        <time>2021-08-06T10:51:48.560Z</time>
      </trkpt>
      <trkpt lat="46.94965" lon="8.72319">
        <ele>1414</ele>
        <time>2021-08-06T10:51:49.561Z</time>
      </trkpt>
      <trkpt lat="46.94966" lon="8.72318">
        <ele>1414</ele>
        <time>2021-08-06T10:51:50.561Z</time>
      </trkpt>
      <trkpt lat="46.94967" lon="8.72317">
        <ele>1415</ele>
        <time>2021-08-06T10:51:51.560Z</time>
      </trkpt>
      <trkpt lat="46.94969" lon="8.72316">
        <ele>1416</ele>
        <time>2021-08-06T10:51:52.560Z</time>
      </trkpt>
      <trkpt lat="46.9497" lon="8.72315">
        <ele>1416</ele>
        <time>2021-08-06T10:51:53.561Z</time>
      </trkpt>
      <trkpt lat="46.94971" lon="8.72314">
        <ele>1417</ele>
        <time>2021-08-06T10:51:54.561Z</time>
      </trkpt>
      <trkpt lat="46.94972" lon="8.72313">
        <ele>1417</ele>
        <time>2021-08-06T10:51:55.561Z</time>
      </trkpt>
      <trkpt lat="46.94973" lon="8.72313">
        <ele>1418</ele>
        <time>2021-08-06T10:51:56.561Z</time>
      </trkpt>
      <trkpt lat="46.94973" lon="8.72312">
        <ele>1418</ele>
        <time>2021-08-06T10:51:57.561Z</time>
      </trkpt>
      <trkpt lat="46.94974" lon="8.72312">
        <ele>1418</ele>
        <time>2021-08-06T10:51:58.561Z</time>
      </trkpt>
      <trkpt lat="46.94975" lon="8.72311">
        <ele>1417</ele>
        <time>2021-08-06T10:51:59.561Z</time>
      </trkpt>
      <trkpt lat="46.94975" lon="8.7231">
        <ele>1417</ele>
        <time>2021-08-06T10:52:00.561Z</time>
      </trkpt>
      <trkpt lat="46.94976" lon="8.72309">
        <ele>1416</ele>
        <time>2021-08-06T10:52:01.561Z</time>
      </trkpt>
      <trkpt lat="46.94977" lon="8.72309">
        <ele>1415</ele>
        <time>2021-08-06T10:52:02.560Z</time>
      </trkpt>
      <trkpt lat="46.94977" lon="8.72309">
        <ele>1415</ele>
        <time>2021-08-06T10:52:03.561Z</time>
      </trkpt>
      <trkpt lat="46.94977" lon="8.7231">
        <ele>1414</ele>
        <time>2021-08-06T10:52:04.560Z</time>
      </trkpt>
      <trkpt lat="46.94978" lon="8.7231">
        <ele>1414</ele>
        <time>2021-08-06T10:52:05.561Z</time>
      </trkpt>
      <trkpt lat="46.94978" lon="8.72311">
        <ele>1414</ele>
        <time>2021-08-06T10:52:06.561Z</time>
      </trkpt>
      <trkpt lat="46.94978" lon="8.72312">
        <ele>1413</ele>
        <time>2021-08-06T10:52:07.560Z</time>
      </trkpt>
      <trkpt lat="46.94979" lon="8.72313">
        <ele>1412</ele>
        <time>2021-08-06T10:52:10.559Z</time>
      </trkpt>
      <trkpt lat="46.94979" lon="8.72313">
        <ele>1412</ele>
        <time>2021-08-06T10:52:14.356Z</time>
      </trkpt>
      <trkpt lat="46.9498" lon="8.72314">
        <ele>1411</ele>
        <time>2021-08-06T10:52:15.356Z</time>
      </trkpt>
      <trkpt lat="46.94981" lon="8.72314">
        <ele>1411</ele>
        <time>2021-08-06T10:52:16.356Z</time>
      </trkpt>
      <trkpt lat="46.94981" lon="8.72315">
        <ele>1410</ele>
        <time>2021-08-06T10:52:17.355Z</time>
      </trkpt>
      <trkpt lat="46.94982" lon="8.72315">
        <ele>1410</ele>
        <time>2021-08-06T10:52:18.356Z</time>
      </trkpt>
      <trkpt lat="46.94983" lon="8.72316">
        <ele>1410</ele>
        <time>2021-08-06T10:52:24.492Z</time>
      </trkpt>
      <trkpt lat="46.94983" lon="8.72317">
        <ele>1409</ele>
        <time>2021-08-06T10:52:25.492Z</time>
      </trkpt>
      <trkpt lat="46.94984" lon="8.72317">
        <ele>1409</ele>
        <time>2021-08-06T10:52:26.493Z</time>
      </trkpt>
      <trkpt lat="46.94985" lon="8.72318">
        <ele>1408</ele>
        <time>2021-08-06T10:52:48.597Z</time>
      </trkpt>
      <trkpt lat="46.94985" lon="8.72318">
        <ele>1408</ele>
        <time>2021-08-06T10:52:50.435Z</time>
      </trkpt>
      <trkpt lat="46.94986" lon="8.72319">
        <ele>1407</ele>
        <time>2021-08-06T10:52:51.435Z</time>
      </trkpt>
      <trkpt lat="46.94987" lon="8.72319">
        <ele>1407</ele>
        <time>2021-08-06T10:52:52.435Z</time>
      </trkpt>
      <trkpt lat="46.94987" lon="8.72318">
        <ele>1406</ele>
        <time>2021-08-06T10:52:53.436Z</time>
      </trkpt>
      <trkpt lat="46.94988" lon="8.72318">
        <ele>1406</ele>
        <time>2021-08-06T10:53:01.467Z</time>
      </trkpt>
      <trkpt lat="46.94989" lon="8.72318">
        <ele>1406</ele>
        <time>2021-08-06T10:53:02.467Z</time>
      </trkpt>
      <trkpt lat="46.9499" lon="8.72318">
        <ele>1406</ele>
        <time>2021-08-06T10:53:03.467Z</time>
      </trkpt>
      <trkpt lat="46.9499" lon="8.72317">
        <ele>1406</ele>
        <time>2021-08-06T10:53:04.467Z</time>
      </trkpt>
      <trkpt lat="46.94991" lon="8.72316">
        <ele>1406</ele>
        <time>2021-08-06T10:53:05.467Z</time>
      </trkpt>
      <trkpt lat="46.94992" lon="8.72315">
        <ele>1406</ele>
        <time>2021-08-06T10:53:06.467Z</time>
      </trkpt>
      <trkpt lat="46.94992" lon="8.72315">
        <ele>1406</ele>
        <time>2021-08-06T10:53:07.467Z</time>
      </trkpt>
      <trkpt lat="46.94993" lon="8.72315">
        <ele>1406</ele>
        <time>2021-08-06T10:53:08.467Z</time>
      </trkpt>
      <trkpt lat="46.94994" lon="8.72314">
        <ele>1407</ele>
        <time>2021-08-06T10:53:09.467Z</time>
      </trkpt>
      <trkpt lat="46.94994" lon="8.72312">
        <ele>1407</ele>
        <time>2021-08-06T10:53:10.467Z</time>
      </trkpt>
      <trkpt lat="46.94995" lon="8.72312">
        <ele>1408</ele>
        <time>2021-08-06T10:53:11.467Z</time>
      </trkpt>
      <trkpt lat="46.94995" lon="8.72311">
        <ele>1409</ele>
        <time>2021-08-06T10:53:12.467Z</time>
      </trkpt>
      <trkpt lat="46.94996" lon="8.7231">
        <ele>1409</ele>
        <time>2021-08-06T10:53:13.466Z</time>
      </trkpt>
      <trkpt lat="46.94996" lon="8.7231">
        <ele>1410</ele>
        <time>2021-08-06T10:53:14.467Z</time>
      </trkpt>
      <trkpt lat="46.94997" lon="8.72309">
        <ele>1411</ele>
        <time>2021-08-06T10:53:15.466Z</time>
      </trkpt>
      <trkpt lat="46.94998" lon="8.72309">
        <ele>1411</ele>
        <time>2021-08-06T10:53:16.467Z</time>
      </trkpt>
      <trkpt lat="46.94999" lon="8.72309">
        <ele>1412</ele>
        <time>2021-08-06T10:53:17.467Z</time>
      </trkpt>
      <trkpt lat="46.94999" lon="8.72308">
        <ele>1412</ele>
        <time>2021-08-06T10:53:18.467Z</time>
      </trkpt>
      <trkpt lat="46.95" lon="8.72307">
        <ele>1413</ele>
        <time>2021-08-06T10:53:19.466Z</time>
      </trkpt>
      <trkpt lat="46.95001" lon="8.72306">
        <ele>1413</ele>
        <time>2021-08-06T10:53:20.467Z</time>
      </trkpt>
      <trkpt lat="46.95002" lon="8.72305">
        <ele>1413</ele>
        <time>2021-08-06T10:53:21.466Z</time>
      </trkpt>
      <trkpt lat="46.95003" lon="8.72304">
        <ele>1414</ele>
        <time>2021-08-06T10:53:22.467Z</time>
      </trkpt>
      <trkpt lat="46.95004" lon="8.72304">
        <ele>1415</ele>
        <time>2021-08-06T10:53:23.466Z</time>
      </trkpt>
      <trkpt lat="46.95005" lon="8.72303">
        <ele>1415</ele>
        <time>2021-08-06T10:53:24.466Z</time>
      </trkpt>
      <trkpt lat="46.95006" lon="8.72302">
        <ele>1416</ele>
        <time>2021-08-06T10:53:25.467Z</time>
      </trkpt>
      <trkpt lat="46.95007" lon="8.72301">
        <ele>1416</ele>
        <time>2021-08-06T10:53:26.467Z</time>
      </trkpt>
      <trkpt lat="46.95007" lon="8.723">
        <ele>1417</ele>
        <time>2021-08-06T10:53:27.467Z</time>
      </trkpt>
      <trkpt lat="46.95008" lon="8.72299">
        <ele>1418</ele>
        <time>2021-08-06T10:53:28.467Z</time>
      </trkpt>
      <trkpt lat="46.95008" lon="8.72298">
        <ele>1418</ele>
        <time>2021-08-06T10:53:29.466Z</time>
      </trkpt>
      <trkpt lat="46.95008" lon="8.72297">
        <ele>1418</ele>
        <time>2021-08-06T10:53:30.467Z</time>
      </trkpt>
      <trkpt lat="46.95009" lon="8.72296">
        <ele>1418</ele>
        <time>2021-08-06T10:53:31.467Z</time>
      </trkpt>
      <trkpt lat="46.9501" lon="8.72296">
        <ele>1419</ele>
        <time>2021-08-06T10:53:32.467Z</time>
      </trkpt>
      <trkpt lat="46.9501" lon="8.72295">
        <ele>1419</ele>
        <time>2021-08-06T10:53:33.467Z</time>
      </trkpt>
      <trkpt lat="46.95011" lon="8.72295">
        <ele>1420</ele>
        <time>2021-08-06T10:53:34.467Z</time>
      </trkpt>
      <trkpt lat="46.95011" lon="8.72294">
        <ele>1421</ele>
        <time>2021-08-06T10:53:35.467Z</time>
      </trkpt>
      <trkpt lat="46.95012" lon="8.72293">
        <ele>1422</ele>
        <time>2021-08-06T10:53:36.467Z</time>
      </trkpt>
      <trkpt lat="46.95012" lon="8.72293">
        <ele>1423</ele>
        <time>2021-08-06T10:53:37.466Z</time>
      </trkpt>
      <trkpt lat="46.95013" lon="8.72292">
        <ele>1423</ele>
        <time>2021-08-06T10:53:38.467Z</time>
      </trkpt>
      <trkpt lat="46.95013" lon="8.72291">
        <ele>1423</ele>
        <time>2021-08-06T10:53:39.467Z</time>
      </trkpt>
      <trkpt lat="46.95013" lon="8.72291">
        <ele>1423</ele>
        <time>2021-08-06T10:53:40.467Z</time>
      </trkpt>
      <trkpt lat="46.95014" lon="8.7229">
        <ele>1423</ele>
        <time>2021-08-06T10:53:41.466Z</time>
      </trkpt>
      <trkpt lat="46.95014" lon="8.72289">
        <ele>1423</ele>
        <time>2021-08-06T10:53:42.466Z</time>
      </trkpt>
      <trkpt lat="46.95015" lon="8.72288">
        <ele>1422</ele>
        <time>2021-08-06T10:53:43.467Z</time>
      </trkpt>
      <trkpt lat="46.95015" lon="8.72287">
        <ele>1422</ele>
        <time>2021-08-06T10:53:44.466Z</time>
      </trkpt>
      <trkpt lat="46.95015" lon="8.72286">
        <ele>1422</ele>
        <time>2021-08-06T10:53:45.466Z</time>
      </trkpt>
      <trkpt lat="46.95016" lon="8.72285">
        <ele>1422</ele>
        <time>2021-08-06T10:53:46.467Z</time>
      </trkpt>
      <trkpt lat="46.95016" lon="8.72284">
        <ele>1422</ele>
        <time>2021-08-06T10:53:47.466Z</time>
      </trkpt>
      <trkpt lat="46.95017" lon="8.72284">
        <ele>1423</ele>
        <time>2021-08-06T10:53:48.466Z</time>
      </trkpt>
      <trkpt lat="46.95017" lon="8.72282">
        <ele>1423</ele>
        <time>2021-08-06T10:53:49.467Z</time>
      </trkpt>
      <trkpt lat="46.95018" lon="8.72282">
        <ele>1423</ele>
        <time>2021-08-06T10:53:50.467Z</time>
      </trkpt>
      <trkpt lat="46.95018" lon="8.72281">
        <ele>1423</ele>
        <time>2021-08-06T10:53:51.467Z</time>
      </trkpt>
      <trkpt lat="46.95019" lon="8.72279">
        <ele>1422</ele>
        <time>2021-08-06T10:53:52.467Z</time>
      </trkpt>
      <trkpt lat="46.95019" lon="8.72279">
        <ele>1422</ele>
        <time>2021-08-06T10:53:53.467Z</time>
      </trkpt>
      <trkpt lat="46.9502" lon="8.72278">
        <ele>1422</ele>
        <time>2021-08-06T10:53:54.466Z</time>
      </trkpt>
      <trkpt lat="46.9502" lon="8.72277">
        <ele>1422</ele>
        <time>2021-08-06T10:53:55.467Z</time>
      </trkpt>
      <trkpt lat="46.9502" lon="8.72276">
        <ele>1422</ele>
        <time>2021-08-06T10:53:56.466Z</time>
      </trkpt>
      <trkpt lat="46.9502" lon="8.72275">
        <ele>1422</ele>
        <time>2021-08-06T10:53:57.467Z</time>
      </trkpt>
      <trkpt lat="46.95021" lon="8.72274">
        <ele>1422</ele>
        <time>2021-08-06T10:53:58.467Z</time>
      </trkpt>
      <trkpt lat="46.95021" lon="8.72273">
        <ele>1422</ele>
        <time>2021-08-06T10:53:59.467Z</time>
      </trkpt>
      <trkpt lat="46.95021" lon="8.72272">
        <ele>1422</ele>
        <time>2021-08-06T10:54:00.467Z</time>
      </trkpt>
      <trkpt lat="46.95021" lon="8.72272">
        <ele>1422</ele>
        <time>2021-08-06T10:54:01.467Z</time>
      </trkpt>
      <trkpt lat="46.95022" lon="8.72271">
        <ele>1422</ele>
        <time>2021-08-06T10:54:02.467Z</time>
      </trkpt>
      <trkpt lat="46.95022" lon="8.7227">
        <ele>1422</ele>
        <time>2021-08-06T10:54:03.467Z</time>
      </trkpt>
      <trkpt lat="46.95023" lon="8.72269">
        <ele>1422</ele>
        <time>2021-08-06T10:54:04.467Z</time>
      </trkpt>
      <trkpt lat="46.95024" lon="8.72269">
        <ele>1422</ele>
        <time>2021-08-06T10:54:05.466Z</time>
      </trkpt>
      <trkpt lat="46.95024" lon="8.72268">
        <ele>1422</ele>
        <time>2021-08-06T10:54:06.467Z</time>
      </trkpt>
      <trkpt lat="46.95025" lon="8.72269">
        <ele>1422</ele>
        <time>2021-08-06T10:54:07.467Z</time>
      </trkpt>
      <trkpt lat="46.95026" lon="8.72268">
        <ele>1422</ele>
        <time>2021-08-06T10:54:08.467Z</time>
      </trkpt>
      <trkpt lat="46.95026" lon="8.72268">
        <ele>1422</ele>
        <time>2021-08-06T10:54:09.466Z</time>
      </trkpt>
      <trkpt lat="46.95027" lon="8.72268">
        <ele>1423</ele>
        <time>2021-08-06T10:54:10.467Z</time>
      </trkpt>
      <trkpt lat="46.95028" lon="8.72269">
        <ele>1423</ele>
        <time>2021-08-06T10:54:11.466Z</time>
      </trkpt>
      <trkpt lat="46.95028" lon="8.72269">
        <ele>1424</ele>
        <time>2021-08-06T10:54:12.466Z</time>
      </trkpt>
      <trkpt lat="46.95029" lon="8.72268">
        <ele>1424</ele>
        <time>2021-08-06T10:54:13.466Z</time>
      </trkpt>
      <trkpt lat="46.9503" lon="8.72268">
        <ele>1424</ele>
        <time>2021-08-06T10:54:14.467Z</time>
      </trkpt>
      <trkpt lat="46.95031" lon="8.72268">
        <ele>1424</ele>
        <time>2021-08-06T10:54:15.467Z</time>
      </trkpt>
      <trkpt lat="46.95031" lon="8.72268">
        <ele>1423</ele>
        <time>2021-08-06T10:54:16.467Z</time>
      </trkpt>
      <trkpt lat="46.95032" lon="8.72268">
        <ele>1423</ele>
        <time>2021-08-06T10:54:17.466Z</time>
      </trkpt>
      <trkpt lat="46.95032" lon="8.72268">
        <ele>1423</ele>
        <time>2021-08-06T10:54:18.466Z</time>
      </trkpt>
      <trkpt lat="46.95033" lon="8.72268">
        <ele>1423</ele>
        <time>2021-08-06T10:54:19.466Z</time>
      </trkpt>
      <trkpt lat="46.95034" lon="8.72268">
        <ele>1423</ele>
        <time>2021-08-06T10:54:20.467Z</time>
      </trkpt>
      <trkpt lat="46.95034" lon="8.72269">
        <ele>1423</ele>
        <time>2021-08-06T10:54:21.467Z</time>
      </trkpt>
      <trkpt lat="46.95035" lon="8.7227">
        <ele>1423</ele>
        <time>2021-08-06T10:54:22.466Z</time>
      </trkpt>
      <trkpt lat="46.95036" lon="8.72271">
        <ele>1423</ele>
        <time>2021-08-06T10:54:23.466Z</time>
      </trkpt>
      <trkpt lat="46.95036" lon="8.72272">
        <ele>1424</ele>
        <time>2021-08-06T10:54:24.467Z</time>
      </trkpt>
      <trkpt lat="46.95037" lon="8.72273">
        <ele>1425</ele>
        <time>2021-08-06T10:54:25.467Z</time>
      </trkpt>
      <trkpt lat="46.95037" lon="8.72274">
        <ele>1425</ele>
        <time>2021-08-06T10:54:26.467Z</time>
      </trkpt>
      <trkpt lat="46.95038" lon="8.72275">
        <ele>1426</ele>
        <time>2021-08-06T10:54:27.467Z</time>
      </trkpt>
      <trkpt lat="46.95038" lon="8.72275">
        <ele>1426</ele>
        <time>2021-08-06T10:54:28.467Z</time>
      </trkpt>
      <trkpt lat="46.95039" lon="8.72275">
        <ele>1427</ele>
        <time>2021-08-06T10:54:29.466Z</time>
      </trkpt>
      <trkpt lat="46.9504" lon="8.72275">
        <ele>1427</ele>
        <time>2021-08-06T10:54:30.467Z</time>
      </trkpt>
      <trkpt lat="46.9504" lon="8.72275">
        <ele>1427</ele>
        <time>2021-08-06T10:54:31.466Z</time>
      </trkpt>
      <trkpt lat="46.95041" lon="8.72275">
        <ele>1427</ele>
        <time>2021-08-06T10:54:32.467Z</time>
      </trkpt>
      <trkpt lat="46.95041" lon="8.72274">
        <ele>1427</ele>
        <time>2021-08-06T10:54:33.466Z</time>
      </trkpt>
      <trkpt lat="46.95042" lon="8.72274">
        <ele>1427</ele>
        <time>2021-08-06T10:54:34.466Z</time>
      </trkpt>
      <trkpt lat="46.95042" lon="8.72275">
        <ele>1427</ele>
        <time>2021-08-06T10:54:35.467Z</time>
      </trkpt>
      <trkpt lat="46.95043" lon="8.72275">
        <ele>1427</ele>
        <time>2021-08-06T10:54:36.467Z</time>
      </trkpt>
      <trkpt lat="46.95044" lon="8.72275">
        <ele>1427</ele>
        <time>2021-08-06T10:54:37.466Z</time>
      </trkpt>
      <trkpt lat="46.95045" lon="8.72275">
        <ele>1427</ele>
        <time>2021-08-06T10:54:38.466Z</time>
      </trkpt>
      <trkpt lat="46.95045" lon="8.72276">
        <ele>1428</ele>
        <time>2021-08-06T10:54:39.467Z</time>
      </trkpt>
      <trkpt lat="46.95046" lon="8.72276">
        <ele>1428</ele>
        <time>2021-08-06T10:54:40.467Z</time>
      </trkpt>
      <trkpt lat="46.95047" lon="8.72276">
        <ele>1429</ele>
        <time>2021-08-06T10:54:41.467Z</time>
      </trkpt>
      <trkpt lat="46.95047" lon="8.72276">
        <ele>1429</ele>
        <time>2021-08-06T10:54:42.467Z</time>
      </trkpt>
      <trkpt lat="46.95048" lon="8.72276">
        <ele>1429</ele>
        <time>2021-08-06T10:54:49.489Z</time>
      </trkpt>
      <trkpt lat="46.95049" lon="8.72275">
        <ele>1429</ele>
        <time>2021-08-06T10:54:50.488Z</time>
      </trkpt>
      <trkpt lat="46.9505" lon="8.72275">
        <ele>1429</ele>
        <time>2021-08-06T10:54:53.335Z</time>
      </trkpt>
      <trkpt lat="46.9505" lon="8.72275">
        <ele>1429</ele>
        <time>2021-08-06T10:54:54.335Z</time>
      </trkpt>
      <trkpt lat="46.95051" lon="8.72275">
        <ele>1429</ele>
        <time>2021-08-06T10:54:55.334Z</time>
      </trkpt>
      <trkpt lat="46.95052" lon="8.72274">
        <ele>1429</ele>
        <time>2021-08-06T10:54:56.335Z</time>
      </trkpt>
      <trkpt lat="46.95053" lon="8.72274">
        <ele>1430</ele>
        <time>2021-08-06T10:54:57.335Z</time>
      </trkpt>
      <trkpt lat="46.95053" lon="8.72274">
        <ele>1430</ele>
        <time>2021-08-06T10:54:58.335Z</time>
      </trkpt>
      <trkpt lat="46.95054" lon="8.72275">
        <ele>1430</ele>
        <time>2021-08-06T10:54:59.335Z</time>
      </trkpt>
      <trkpt lat="46.95055" lon="8.72274">
        <ele>1430</ele>
        <time>2021-08-06T10:55:00.334Z</time>
      </trkpt>
      <trkpt lat="46.95056" lon="8.72274">
        <ele>1430</ele>
        <time>2021-08-06T10:55:01.334Z</time>
      </trkpt>
      <trkpt lat="46.95056" lon="8.72274">
        <ele>1430</ele>
        <time>2021-08-06T10:55:02.334Z</time>
      </trkpt>
      <trkpt lat="46.95057" lon="8.72274">
        <ele>1430</ele>
        <time>2021-08-06T10:55:03.335Z</time>
      </trkpt>
      <trkpt lat="46.95058" lon="8.72274">
        <ele>1430</ele>
        <time>2021-08-06T10:55:04.334Z</time>
      </trkpt>
      <trkpt lat="46.95059" lon="8.72275">
        <ele>1430</ele>
        <time>2021-08-06T10:55:05.335Z</time>
      </trkpt>
      <trkpt lat="46.95059" lon="8.72275">
        <ele>1430</ele>
        <time>2021-08-06T10:55:06.335Z</time>
      </trkpt>
      <trkpt lat="46.9506" lon="8.72274">
        <ele>1430</ele>
        <time>2021-08-06T10:55:07.335Z</time>
      </trkpt>
      <trkpt lat="46.95061" lon="8.72274">
        <ele>1430</ele>
        <time>2021-08-06T10:55:08.334Z</time>
      </trkpt>
      <trkpt lat="46.95062" lon="8.72273">
        <ele>1431</ele>
        <time>2021-08-06T10:55:09.335Z</time>
      </trkpt>
      <trkpt lat="46.95063" lon="8.72273">
        <ele>1431</ele>
        <time>2021-08-06T10:55:10.334Z</time>
      </trkpt>
      <trkpt lat="46.95063" lon="8.72272">
        <ele>1431</ele>
        <time>2021-08-06T10:55:11.334Z</time>
      </trkpt>
      <trkpt lat="46.95064" lon="8.72272">
        <ele>1431</ele>
        <time>2021-08-06T10:55:12.335Z</time>
      </trkpt>
      <trkpt lat="46.95065" lon="8.72272">
        <ele>1431</ele>
        <time>2021-08-06T10:55:13.334Z</time>
      </trkpt>
      <trkpt lat="46.95066" lon="8.72272">
        <ele>1431</ele>
        <time>2021-08-06T10:55:14.335Z</time>
      </trkpt>
      <trkpt lat="46.95066" lon="8.72272">
        <ele>1431</ele>
        <time>2021-08-06T10:55:20.479Z</time>
      </trkpt>
      <trkpt lat="46.95067" lon="8.72272">
        <ele>1431</ele>
        <time>2021-08-06T10:55:21.479Z</time>
      </trkpt>
      <trkpt lat="46.95068" lon="8.72272">
        <ele>1431</ele>
        <time>2021-08-06T10:55:22.479Z</time>
      </trkpt>
      <trkpt lat="46.95069" lon="8.72273">
        <ele>1431</ele>
        <time>2021-08-06T10:55:23.480Z</time>
      </trkpt>
      <trkpt lat="46.9507" lon="8.72273">
        <ele>1431</ele>
        <time>2021-08-06T10:55:24.479Z</time>
      </trkpt>
      <trkpt lat="46.95071" lon="8.72273">
        <ele>1431</ele>
        <time>2021-08-06T10:55:25.479Z</time>
      </trkpt>
      <trkpt lat="46.95072" lon="8.72273">
        <ele>1432</ele>
        <time>2021-08-06T10:55:26.479Z</time>
      </trkpt>
      <trkpt lat="46.95073" lon="8.72273">
        <ele>1432</ele>
        <time>2021-08-06T10:55:27.479Z</time>
      </trkpt>
      <trkpt lat="46.95074" lon="8.72273">
        <ele>1432</ele>
        <time>2021-08-06T10:55:28.480Z</time>
      </trkpt>
      <trkpt lat="46.95074" lon="8.72273">
        <ele>1433</ele>
        <time>2021-08-06T10:55:32.589Z</time>
      </trkpt>
      <trkpt lat="46.95075" lon="8.72274">
        <ele>1433</ele>
        <time>2021-08-06T10:55:39.338Z</time>
      </trkpt>
      <trkpt lat="46.95076" lon="8.72274">
        <ele>1433</ele>
        <time>2021-08-06T10:55:40.339Z</time>
      </trkpt>
      <trkpt lat="46.95077" lon="8.72275">
        <ele>1434</ele>
        <time>2021-08-06T10:55:41.339Z</time>
      </trkpt>
      <trkpt lat="46.95078" lon="8.72275">
        <ele>1434</ele>
        <time>2021-08-06T10:55:42.338Z</time>
      </trkpt>
      <trkpt lat="46.95079" lon="8.72276">
        <ele>1434</ele>
        <time>2021-08-06T10:55:43.338Z</time>
      </trkpt>
      <trkpt lat="46.9508" lon="8.72276">
        <ele>1434</ele>
        <time>2021-08-06T10:55:44.338Z</time>
      </trkpt>
      <trkpt lat="46.95081" lon="8.72277">
        <ele>1434</ele>
        <time>2021-08-06T10:55:45.338Z</time>
      </trkpt>
      <trkpt lat="46.95082" lon="8.72278">
        <ele>1435</ele>
        <time>2021-08-06T10:55:46.338Z</time>
      </trkpt>
      <trkpt lat="46.95083" lon="8.72279">
        <ele>1435</ele>
        <time>2021-08-06T10:55:47.338Z</time>
      </trkpt>
      <trkpt lat="46.95084" lon="8.72279">
        <ele>1435</ele>
        <time>2021-08-06T10:55:48.339Z</time>
      </trkpt>
      <trkpt lat="46.95085" lon="8.7228">
        <ele>1435</ele>
        <time>2021-08-06T10:55:49.338Z</time>
      </trkpt>
      <trkpt lat="46.95086" lon="8.7228">
        <ele>1435</ele>
        <time>2021-08-06T10:56:01.453Z</time>
      </trkpt>
      <trkpt lat="46.95087" lon="8.7228">
        <ele>1435</ele>
        <time>2021-08-06T10:56:02.454Z</time>
      </trkpt>
      <trkpt lat="46.95088" lon="8.72281">
        <ele>1435</ele>
        <time>2021-08-06T10:56:03.453Z</time>
      </trkpt>
      <trkpt lat="46.95089" lon="8.72281">
        <ele>1434</ele>
        <time>2021-08-06T10:56:04.453Z</time>
      </trkpt>
      <trkpt lat="46.9509" lon="8.72282">
        <ele>1434</ele>
        <time>2021-08-06T10:56:05.453Z</time>
      </trkpt>
      <trkpt lat="46.95092" lon="8.72282">
        <ele>1434</ele>
        <time>2021-08-06T10:56:06.454Z</time>
      </trkpt>
      <trkpt lat="46.95093" lon="8.72282">
        <ele>1434</ele>
        <time>2021-08-06T10:56:07.454Z</time>
      </trkpt>
      <trkpt lat="46.95094" lon="8.72283">
        <ele>1434</ele>
        <time>2021-08-06T10:56:08.454Z</time>
      </trkpt>
      <trkpt lat="46.95095" lon="8.72283">
        <ele>1434</ele>
        <time>2021-08-06T10:56:09.453Z</time>
      </trkpt>
      <trkpt lat="46.95096" lon="8.72283">
        <ele>1433</ele>
        <time>2021-08-06T10:56:10.454Z</time>
      </trkpt>
      <trkpt lat="46.95097" lon="8.72284">
        <ele>1433</ele>
        <time>2021-08-06T10:56:11.453Z</time>
      </trkpt>
      <trkpt lat="46.95099" lon="8.72284">
        <ele>1433</ele>
        <time>2021-08-06T10:56:12.454Z</time>
      </trkpt>
      <trkpt lat="46.951" lon="8.72285">
        <ele>1432</ele>
        <time>2021-08-06T10:56:13.454Z</time>
      </trkpt>
      <trkpt lat="46.951" lon="8.72285">
        <ele>1432</ele>
        <time>2021-08-06T10:56:14.454Z</time>
      </trkpt>
      <trkpt lat="46.95101" lon="8.72285">
        <ele>1431</ele>
        <time>2021-08-06T10:56:15.453Z</time>
      </trkpt>
      <trkpt lat="46.95103" lon="8.72286">
        <ele>1431</ele>
        <time>2021-08-06T10:56:16.453Z</time>
      </trkpt>
      <trkpt lat="46.95104" lon="8.72286">
        <ele>1430</ele>
        <time>2021-08-06T10:56:17.453Z</time>
      </trkpt>
      <trkpt lat="46.95104" lon="8.72286">
        <ele>1430</ele>
        <time>2021-08-06T10:56:18.453Z</time>
      </trkpt>
      <trkpt lat="46.95105" lon="8.72286">
        <ele>1430</ele>
        <time>2021-08-06T10:56:19.453Z</time>
      </trkpt>
      <trkpt lat="46.95106" lon="8.72286">
        <ele>1431</ele>
        <time>2021-08-06T10:56:20.453Z</time>
      </trkpt>
      <trkpt lat="46.95106" lon="8.72286">
        <ele>1431</ele>
        <time>2021-08-06T10:56:21.453Z</time>
      </trkpt>
      <trkpt lat="46.95107" lon="8.72286">
        <ele>1431</ele>
        <time>2021-08-06T10:56:22.454Z</time>
      </trkpt>
      <trkpt lat="46.95108" lon="8.72286">
        <ele>1432</ele>
        <time>2021-08-06T10:56:23.453Z</time>
      </trkpt>
      <trkpt lat="46.95109" lon="8.72286">
        <ele>1432</ele>
        <time>2021-08-06T10:56:24.453Z</time>
      </trkpt>
      <trkpt lat="46.9511" lon="8.72286">
        <ele>1432</ele>
        <time>2021-08-06T10:56:25.453Z</time>
      </trkpt>
      <trkpt lat="46.95111" lon="8.72287">
        <ele>1433</ele>
        <time>2021-08-06T10:56:26.454Z</time>
      </trkpt>
      <trkpt lat="46.95112" lon="8.72287">
        <ele>1433</ele>
        <time>2021-08-06T10:56:27.453Z</time>
      </trkpt>
      <trkpt lat="46.95113" lon="8.72288">
        <ele>1433</ele>
        <time>2021-08-06T10:56:28.453Z</time>
      </trkpt>
      <trkpt lat="46.95114" lon="8.72288">
        <ele>1433</ele>
        <time>2021-08-06T10:56:29.453Z</time>
      </trkpt>
      <trkpt lat="46.95115" lon="8.72287">
        <ele>1433</ele>
        <time>2021-08-06T10:56:30.454Z</time>
      </trkpt>
      <trkpt lat="46.95116" lon="8.72287">
        <ele>1433</ele>
        <time>2021-08-06T10:56:31.453Z</time>
      </trkpt>
      <trkpt lat="46.95117" lon="8.72287">
        <ele>1433</ele>
        <time>2021-08-06T10:56:32.454Z</time>
      </trkpt>
      <trkpt lat="46.95118" lon="8.72287">
        <ele>1433</ele>
        <time>2021-08-06T10:56:33.453Z</time>
      </trkpt>
      <trkpt lat="46.95118" lon="8.72288">
        <ele>1433</ele>
        <time>2021-08-06T10:56:34.453Z</time>
      </trkpt>
      <trkpt lat="46.95119" lon="8.72288">
        <ele>1433</ele>
        <time>2021-08-06T10:56:35.453Z</time>
      </trkpt>
      <trkpt lat="46.9512" lon="8.72289">
        <ele>1433</ele>
        <time>2021-08-06T10:56:36.453Z</time>
      </trkpt>
      <trkpt lat="46.95122" lon="8.72288">
        <ele>1433</ele>
        <time>2021-08-06T10:56:37.454Z</time>
      </trkpt>
      <trkpt lat="46.95123" lon="8.72288">
        <ele>1434</ele>
        <time>2021-08-06T10:56:38.454Z</time>
      </trkpt>
      <trkpt lat="46.95124" lon="8.72288">
        <ele>1434</ele>
        <time>2021-08-06T10:56:39.454Z</time>
      </trkpt>
      <trkpt lat="46.95125" lon="8.72288">
        <ele>1434</ele>
        <time>2021-08-06T10:56:40.453Z</time>
      </trkpt>
      <trkpt lat="46.95125" lon="8.72288">
        <ele>1434</ele>
        <time>2021-08-06T10:56:41.454Z</time>
      </trkpt>
      <trkpt lat="46.95126" lon="8.72289">
        <ele>1433</ele>
        <time>2021-08-06T10:56:42.454Z</time>
      </trkpt>
      <trkpt lat="46.95127" lon="8.72289">
        <ele>1433</ele>
        <time>2021-08-06T10:56:43.454Z</time>
      </trkpt>
      <trkpt lat="46.95128" lon="8.72289">
        <ele>1433</ele>
        <time>2021-08-06T10:56:44.453Z</time>
      </trkpt>
      <trkpt lat="46.95129" lon="8.7229">
        <ele>1433</ele>
        <time>2021-08-06T10:56:45.454Z</time>
      </trkpt>
      <trkpt lat="46.9513" lon="8.7229">
        <ele>1433</ele>
        <time>2021-08-06T10:56:46.454Z</time>
      </trkpt>
      <trkpt lat="46.95131" lon="8.72291">
        <ele>1433</ele>
        <time>2021-08-06T10:56:47.454Z</time>
      </trkpt>
      <trkpt lat="46.95133" lon="8.72291">
        <ele>1434</ele>
        <time>2021-08-06T10:56:48.454Z</time>
      </trkpt>
      <trkpt lat="46.95134" lon="8.72291">
        <ele>1434</ele>
        <time>2021-08-06T10:56:49.454Z</time>
      </trkpt>
      <trkpt lat="46.95135" lon="8.72292">
        <ele>1434</ele>
        <time>2021-08-06T10:56:50.453Z</time>
      </trkpt>
      <trkpt lat="46.95136" lon="8.72292">
        <ele>1433</ele>
        <time>2021-08-06T10:56:51.453Z</time>
      </trkpt>
      <trkpt lat="46.95137" lon="8.72293">
        <ele>1433</ele>
        <time>2021-08-06T10:56:52.454Z</time>
      </trkpt>
      <trkpt lat="46.95138" lon="8.72292">
        <ele>1433</ele>
        <time>2021-08-06T10:56:53.454Z</time>
      </trkpt>
      <trkpt lat="46.95138" lon="8.72292">
        <ele>1433</ele>
        <time>2021-08-06T10:56:54.454Z</time>
      </trkpt>
      <trkpt lat="46.95139" lon="8.72292">
        <ele>1433</ele>
        <time>2021-08-06T10:56:55.454Z</time>
      </trkpt>
      <trkpt lat="46.9514" lon="8.72293">
        <ele>1433</ele>
        <time>2021-08-06T10:56:56.453Z</time>
      </trkpt>
      <trkpt lat="46.95141" lon="8.72293">
        <ele>1433</ele>
        <time>2021-08-06T10:56:57.454Z</time>
      </trkpt>
      <trkpt lat="46.95142" lon="8.72294">
        <ele>1433</ele>
        <time>2021-08-06T10:56:58.454Z</time>
      </trkpt>
      <trkpt lat="46.95143" lon="8.72294">
        <ele>1433</ele>
        <time>2021-08-06T10:56:59.454Z</time>
      </trkpt>
      <trkpt lat="46.95144" lon="8.72295">
        <ele>1434</ele>
        <time>2021-08-06T10:57:00.454Z</time>
      </trkpt>
      <trkpt lat="46.95145" lon="8.72295">
        <ele>1434</ele>
        <time>2021-08-06T10:57:01.453Z</time>
      </trkpt>
      <trkpt lat="46.95146" lon="8.72296">
        <ele>1434</ele>
        <time>2021-08-06T10:57:02.453Z</time>
      </trkpt>
      <trkpt lat="46.95147" lon="8.72297">
        <ele>1434</ele>
        <time>2021-08-06T10:57:03.453Z</time>
      </trkpt>
      <trkpt lat="46.95148" lon="8.72298">
        <ele>1434</ele>
        <time>2021-08-06T10:57:04.454Z</time>
      </trkpt>
      <trkpt lat="46.9515" lon="8.72298">
        <ele>1434</ele>
        <time>2021-08-06T10:57:05.454Z</time>
      </trkpt>
      <trkpt lat="46.95151" lon="8.72298">
        <ele>1433</ele>
        <time>2021-08-06T10:57:06.453Z</time>
      </trkpt>
      <trkpt lat="46.95152" lon="8.72299">
        <ele>1433</ele>
        <time>2021-08-06T10:57:07.454Z</time>
      </trkpt>
      <trkpt lat="46.95153" lon="8.72299">
        <ele>1432</ele>
        <time>2021-08-06T10:57:08.454Z</time>
      </trkpt>
      <trkpt lat="46.95154" lon="8.72299">
        <ele>1432</ele>
        <time>2021-08-06T10:57:09.454Z</time>
      </trkpt>
      <trkpt lat="46.95155" lon="8.723">
        <ele>1432</ele>
        <time>2021-08-06T10:57:10.454Z</time>
      </trkpt>
      <trkpt lat="46.95156" lon="8.723">
        <ele>1433</ele>
        <time>2021-08-06T10:57:11.454Z</time>
      </trkpt>
      <trkpt lat="46.95157" lon="8.72301">
        <ele>1433</ele>
        <time>2021-08-06T10:57:12.453Z</time>
      </trkpt>
      <trkpt lat="46.95158" lon="8.72301">
        <ele>1433</ele>
        <time>2021-08-06T10:57:13.454Z</time>
      </trkpt>
      <trkpt lat="46.95159" lon="8.72301">
        <ele>1433</ele>
        <time>2021-08-06T10:57:14.453Z</time>
      </trkpt>
      <trkpt lat="46.9516" lon="8.72302">
        <ele>1433</ele>
        <time>2021-08-06T10:57:15.454Z</time>
      </trkpt>
      <trkpt lat="46.95161" lon="8.72302">
        <ele>1433</ele>
        <time>2021-08-06T10:57:16.454Z</time>
      </trkpt>
      <trkpt lat="46.95162" lon="8.72302">
        <ele>1433</ele>
        <time>2021-08-06T10:57:17.454Z</time>
      </trkpt>
      <trkpt lat="46.95163" lon="8.72302">
        <ele>1433</ele>
        <time>2021-08-06T10:57:18.454Z</time>
      </trkpt>
      <trkpt lat="46.95163" lon="8.72302">
        <ele>1433</ele>
        <time>2021-08-06T10:57:19.453Z</time>
      </trkpt>
      <trkpt lat="46.95164" lon="8.72302">
        <ele>1433</ele>
        <time>2021-08-06T10:57:20.454Z</time>
      </trkpt>
      <trkpt lat="46.95165" lon="8.72302">
        <ele>1433</ele>
        <time>2021-08-06T10:57:21.453Z</time>
      </trkpt>
      <trkpt lat="46.95165" lon="8.72302">
        <ele>1434</ele>
        <time>2021-08-06T10:57:22.454Z</time>
      </trkpt>
      <trkpt lat="46.95166" lon="8.72302">
        <ele>1434</ele>
        <time>2021-08-06T10:57:23.454Z</time>
      </trkpt>
      <trkpt lat="46.95166" lon="8.72302">
        <ele>1435</ele>
        <time>2021-08-06T10:57:24.453Z</time>
      </trkpt>
      <trkpt lat="46.95167" lon="8.72302">
        <ele>1435</ele>
        <time>2021-08-06T10:57:25.454Z</time>
      </trkpt>
      <trkpt lat="46.95168" lon="8.72301">
        <ele>1435</ele>
        <time>2021-08-06T10:57:26.454Z</time>
      </trkpt>
      <trkpt lat="46.95168" lon="8.72301">
        <ele>1435</ele>
        <time>2021-08-06T10:57:27.453Z</time>
      </trkpt>
      <trkpt lat="46.95169" lon="8.72301">
        <ele>1435</ele>
        <time>2021-08-06T10:57:28.454Z</time>
      </trkpt>
      <trkpt lat="46.95169" lon="8.723">
        <ele>1435</ele>
        <time>2021-08-06T10:57:30.592Z</time>
      </trkpt>
      <trkpt lat="46.9517" lon="8.723">
        <ele>1435</ele>
        <time>2021-08-06T10:57:31.592Z</time>
      </trkpt>
      <trkpt lat="46.95171" lon="8.723">
        <ele>1436</ele>
        <time>2021-08-06T10:57:32.591Z</time>
      </trkpt>
      <trkpt lat="46.95172" lon="8.72299">
        <ele>1436</ele>
        <time>2021-08-06T10:57:33.591Z</time>
      </trkpt>
      <trkpt lat="46.95172" lon="8.72299">
        <ele>1437</ele>
        <time>2021-08-06T10:57:34.591Z</time>
      </trkpt>
      <trkpt lat="46.95173" lon="8.72298">
        <ele>1437</ele>
        <time>2021-08-06T10:57:35.592Z</time>
      </trkpt>
      <trkpt lat="46.95174" lon="8.72298">
        <ele>1437</ele>
        <time>2021-08-06T10:57:36.592Z</time>
      </trkpt>
      <trkpt lat="46.95174" lon="8.72297">
        <ele>1437</ele>
        <time>2021-08-06T10:57:37.592Z</time>
      </trkpt>
      <trkpt lat="46.95175" lon="8.72296">
        <ele>1437</ele>
        <time>2021-08-06T10:57:38.592Z</time>
      </trkpt>
      <trkpt lat="46.95176" lon="8.72296">
        <ele>1437</ele>
        <time>2021-08-06T10:57:39.591Z</time>
      </trkpt>
      <trkpt lat="46.95177" lon="8.72295">
        <ele>1437</ele>
        <time>2021-08-06T10:57:40.592Z</time>
      </trkpt>
      <trkpt lat="46.95177" lon="8.72294">
        <ele>1437</ele>
        <time>2021-08-06T10:57:41.591Z</time>
      </trkpt>
      <trkpt lat="46.95178" lon="8.72293">
        <ele>1437</ele>
        <time>2021-08-06T10:57:42.592Z</time>
      </trkpt>
      <trkpt lat="46.95179" lon="8.72292">
        <ele>1438</ele>
        <time>2021-08-06T10:57:43.591Z</time>
      </trkpt>
      <trkpt lat="46.95179" lon="8.72291">
        <ele>1438</ele>
        <time>2021-08-06T10:57:44.592Z</time>
      </trkpt>
      <trkpt lat="46.9518" lon="8.7229">
        <ele>1439</ele>
        <time>2021-08-06T10:57:45.592Z</time>
      </trkpt>
      <trkpt lat="46.95181" lon="8.72289">
        <ele>1439</ele>
        <time>2021-08-06T10:57:46.591Z</time>
      </trkpt>
      <trkpt lat="46.95181" lon="8.72288">
        <ele>1440</ele>
        <time>2021-08-06T10:57:47.592Z</time>
      </trkpt>
      <trkpt lat="46.95182" lon="8.72286">
        <ele>1440</ele>
        <time>2021-08-06T10:57:48.592Z</time>
      </trkpt>
      <trkpt lat="46.95182" lon="8.72285">
        <ele>1441</ele>
        <time>2021-08-06T10:57:49.592Z</time>
      </trkpt>
      <trkpt lat="46.95183" lon="8.72284">
        <ele>1441</ele>
        <time>2021-08-06T10:57:50.592Z</time>
      </trkpt>
      <trkpt lat="46.95183" lon="8.72282">
        <ele>1441</ele>
        <time>2021-08-06T10:57:51.591Z</time>
      </trkpt>
      <trkpt lat="46.95183" lon="8.7228">
        <ele>1441</ele>
        <time>2021-08-06T10:57:52.592Z</time>
      </trkpt>
      <trkpt lat="46.95183" lon="8.72279">
        <ele>1441</ele>
        <time>2021-08-06T10:57:53.591Z</time>
      </trkpt>
      <trkpt lat="46.95183" lon="8.72277">
        <ele>1441</ele>
        <time>2021-08-06T10:57:54.592Z</time>
      </trkpt>
      <trkpt lat="46.95183" lon="8.72276">
        <ele>1440</ele>
        <time>2021-08-06T10:57:55.592Z</time>
      </trkpt>
      <trkpt lat="46.95183" lon="8.72274">
        <ele>1440</ele>
        <time>2021-08-06T10:57:56.591Z</time>
      </trkpt>
      <trkpt lat="46.95182" lon="8.72273">
        <ele>1440</ele>
        <time>2021-08-06T10:57:57.591Z</time>
      </trkpt>
      <trkpt lat="46.95181" lon="8.72271">
        <ele>1440</ele>
        <time>2021-08-06T10:57:58.592Z</time>
      </trkpt>
      <trkpt lat="46.9518" lon="8.7227">
        <ele>1440</ele>
        <time>2021-08-06T10:57:59.592Z</time>
      </trkpt>
      <trkpt lat="46.95179" lon="8.72268">
        <ele>1439</ele>
        <time>2021-08-06T10:58:00.592Z</time>
      </trkpt>
      <trkpt lat="46.95179" lon="8.72268">
        <ele>1439</ele>
        <time>2021-08-06T10:58:01.592Z</time>
      </trkpt>
      <trkpt lat="46.95178" lon="8.72266">
        <ele>1439</ele>
        <time>2021-08-06T10:58:02.591Z</time>
      </trkpt>
      <trkpt lat="46.95177" lon="8.72265">
        <ele>1439</ele>
        <time>2021-08-06T10:58:03.591Z</time>
      </trkpt>
      <trkpt lat="46.95176" lon="8.72264">
        <ele>1440</ele>
        <time>2021-08-06T10:58:04.592Z</time>
      </trkpt>
      <trkpt lat="46.95175" lon="8.72263">
        <ele>1440</ele>
        <time>2021-08-06T10:58:05.592Z</time>
      </trkpt>
      <trkpt lat="46.95173" lon="8.72262">
        <ele>1439</ele>
        <time>2021-08-06T10:58:06.591Z</time>
      </trkpt>
      <trkpt lat="46.95172" lon="8.72261">
        <ele>1439</ele>
        <time>2021-08-06T10:58:07.592Z</time>
      </trkpt>
      <trkpt lat="46.95171" lon="8.7226">
        <ele>1439</ele>
        <time>2021-08-06T10:58:08.592Z</time>
      </trkpt>
      <trkpt lat="46.9517" lon="8.72259">
        <ele>1438</ele>
        <time>2021-08-06T10:58:09.591Z</time>
      </trkpt>
      <trkpt lat="46.95169" lon="8.72259">
        <ele>1437</ele>
        <time>2021-08-06T10:58:10.592Z</time>
      </trkpt>
      <trkpt lat="46.95168" lon="8.72258">
        <ele>1437</ele>
        <time>2021-08-06T10:58:11.592Z</time>
      </trkpt>
      <trkpt lat="46.95167" lon="8.72258">
        <ele>1436</ele>
        <time>2021-08-06T10:58:12.592Z</time>
      </trkpt>
      <trkpt lat="46.95166" lon="8.72257">
        <ele>1436</ele>
        <time>2021-08-06T10:58:13.592Z</time>
      </trkpt>
      <trkpt lat="46.95165" lon="8.72256">
        <ele>1435</ele>
        <time>2021-08-06T10:58:14.592Z</time>
      </trkpt>
      <trkpt lat="46.95165" lon="8.72255">
        <ele>1434</ele>
        <time>2021-08-06T10:58:15.591Z</time>
      </trkpt>
      <trkpt lat="46.95164" lon="8.72255">
        <ele>1434</ele>
        <time>2021-08-06T10:58:16.591Z</time>
      </trkpt>
      <trkpt lat="46.95163" lon="8.72254">
        <ele>1433</ele>
        <time>2021-08-06T10:58:17.592Z</time>
      </trkpt>
      <trkpt lat="46.95163" lon="8.72253">
        <ele>1433</ele>
        <time>2021-08-06T10:58:18.592Z</time>
      </trkpt>
      <trkpt lat="46.95162" lon="8.72252">
        <ele>1433</ele>
        <time>2021-08-06T10:58:19.592Z</time>
      </trkpt>
      <trkpt lat="46.95161" lon="8.72252">
        <ele>1433</ele>
        <time>2021-08-06T10:58:23.740Z</time>
      </trkpt>
      <trkpt lat="46.95161" lon="8.72252">
        <ele>1433</ele>
        <time>2021-08-06T10:58:24.739Z</time>
      </trkpt>
      <trkpt lat="46.9516" lon="8.72252">
        <ele>1433</ele>
        <time>2021-08-06T10:58:25.740Z</time>
      </trkpt>
      <trkpt lat="46.9516" lon="8.72251">
        <ele>1433</ele>
        <time>2021-08-06T10:58:26.739Z</time>
      </trkpt>
      <trkpt lat="46.95159" lon="8.72252">
        <ele>1433</ele>
        <time>2021-08-06T10:58:27.740Z</time>
      </trkpt>
      <trkpt lat="46.95159" lon="8.72253">
        <ele>1434</ele>
        <time>2021-08-06T10:58:28.739Z</time>
      </trkpt>
      <trkpt lat="46.95159" lon="8.72253">
        <ele>1435</ele>
        <time>2021-08-06T10:58:29.740Z</time>
      </trkpt>
      <trkpt lat="46.95158" lon="8.72252">
        <ele>1435</ele>
        <time>2021-08-06T10:58:52.885Z</time>
      </trkpt>
      <trkpt lat="46.95157" lon="8.72252">
        <ele>1435</ele>
        <time>2021-08-06T10:58:53.884Z</time>
      </trkpt>
      <trkpt lat="46.95157" lon="8.72251">
        <ele>1435</ele>
        <time>2021-08-06T10:58:54.884Z</time>
      </trkpt>
      <trkpt lat="46.95156" lon="8.7225">
        <ele>1435</ele>
        <time>2021-08-06T10:58:55.885Z</time>
      </trkpt>
      <trkpt lat="46.95156" lon="8.7225">
        <ele>1435</ele>
        <time>2021-08-06T10:58:56.885Z</time>
      </trkpt>
      <trkpt lat="46.95155" lon="8.7225">
        <ele>1435</ele>
        <time>2021-08-06T10:58:57.884Z</time>
      </trkpt>
      <trkpt lat="46.95154" lon="8.72249">
        <ele>1436</ele>
        <time>2021-08-06T10:58:58.885Z</time>
      </trkpt>
      <trkpt lat="46.95153" lon="8.72248">
        <ele>1436</ele>
        <time>2021-08-06T10:58:59.885Z</time>
      </trkpt>
      <trkpt lat="46.95152" lon="8.72248">
        <ele>1436</ele>
        <time>2021-08-06T10:59:00.885Z</time>
      </trkpt>
      <trkpt lat="46.9515" lon="8.72247">
        <ele>1436</ele>
        <time>2021-08-06T10:59:01.885Z</time>
      </trkpt>
      <trkpt lat="46.95149" lon="8.72245">
        <ele>1436</ele>
        <time>2021-08-06T10:59:02.885Z</time>
      </trkpt>
      <trkpt lat="46.95148" lon="8.72244">
        <ele>1436</ele>
        <time>2021-08-06T10:59:03.884Z</time>
      </trkpt>
      <trkpt lat="46.95147" lon="8.72243">
        <ele>1437</ele>
        <time>2021-08-06T10:59:04.884Z</time>
      </trkpt>
      <trkpt lat="46.95146" lon="8.72243">
        <ele>1437</ele>
        <time>2021-08-06T10:59:05.884Z</time>
      </trkpt>
      <trkpt lat="46.95145" lon="8.72243">
        <ele>1438</ele>
        <time>2021-08-06T10:59:06.885Z</time>
      </trkpt>
      <trkpt lat="46.95144" lon="8.72243">
        <ele>1438</ele>
        <time>2021-08-06T10:59:07.885Z</time>
      </trkpt>
      <trkpt lat="46.95142" lon="8.72243">
        <ele>1439</ele>
        <time>2021-08-06T10:59:08.885Z</time>
      </trkpt>
      <trkpt lat="46.95142" lon="8.72242">
        <ele>1440</ele>
        <time>2021-08-06T10:59:09.885Z</time>
      </trkpt>
      <trkpt lat="46.9514" lon="8.72242">
        <ele>1440</ele>
        <time>2021-08-06T10:59:10.885Z</time>
      </trkpt>
      <trkpt lat="46.9514" lon="8.72242">
        <ele>1441</ele>
        <time>2021-08-06T10:59:11.884Z</time>
      </trkpt>
      <trkpt lat="46.95139" lon="8.72241">
        <ele>1441</ele>
        <time>2021-08-06T10:59:12.885Z</time>
      </trkpt>
      <trkpt lat="46.95138" lon="8.72239">
        <ele>1441</ele>
        <time>2021-08-06T10:59:13.884Z</time>
      </trkpt>
      <trkpt lat="46.95137" lon="8.72239">
        <ele>1441</ele>
        <time>2021-08-06T10:59:14.885Z</time>
      </trkpt>
      <trkpt lat="46.95136" lon="8.72238">
        <ele>1441</ele>
        <time>2021-08-06T10:59:15.885Z</time>
      </trkpt>
      <trkpt lat="46.95135" lon="8.72238">
        <ele>1440</ele>
        <time>2021-08-06T10:59:16.884Z</time>
      </trkpt>
      <trkpt lat="46.95134" lon="8.72238">
        <ele>1441</ele>
        <time>2021-08-06T10:59:17.884Z</time>
      </trkpt>
      <trkpt lat="46.95134" lon="8.72238">
        <ele>1441</ele>
        <time>2021-08-06T10:59:18.884Z</time>
      </trkpt>
      <trkpt lat="46.95133" lon="8.72238">
        <ele>1440</ele>
        <time>2021-08-06T10:59:19.884Z</time>
      </trkpt>
      <trkpt lat="46.95133" lon="8.72239">
        <ele>1440</ele>
        <time>2021-08-06T10:59:20.884Z</time>
      </trkpt>
      <trkpt lat="46.95132" lon="8.72239">
        <ele>1440</ele>
        <time>2021-08-06T10:59:21.884Z</time>
      </trkpt>
      <trkpt lat="46.95132" lon="8.72238">
        <ele>1440</ele>
        <time>2021-08-06T10:59:22.884Z</time>
      </trkpt>
      <trkpt lat="46.95131" lon="8.72238">
        <ele>1439</ele>
        <time>2021-08-06T10:59:23.884Z</time>
      </trkpt>
      <trkpt lat="46.9513" lon="8.72237">
        <ele>1439</ele>
        <time>2021-08-06T10:59:24.885Z</time>
      </trkpt>
      <trkpt lat="46.95129" lon="8.72237">
        <ele>1439</ele>
        <time>2021-08-06T10:59:25.884Z</time>
      </trkpt>
      <trkpt lat="46.95128" lon="8.72237">
        <ele>1438</ele>
        <time>2021-08-06T10:59:26.884Z</time>
      </trkpt>
      <trkpt lat="46.95127" lon="8.72237">
        <ele>1439</ele>
        <time>2021-08-06T10:59:27.884Z</time>
      </trkpt>
      <trkpt lat="46.95126" lon="8.72236">
        <ele>1438</ele>
        <time>2021-08-06T10:59:28.884Z</time>
      </trkpt>
      <trkpt lat="46.95125" lon="8.72235">
        <ele>1439</ele>
        <time>2021-08-06T10:59:29.884Z</time>
      </trkpt>
      <trkpt lat="46.95124" lon="8.72235">
        <ele>1439</ele>
        <time>2021-08-06T10:59:30.884Z</time>
      </trkpt>
      <trkpt lat="46.95123" lon="8.72235">
        <ele>1439</ele>
        <time>2021-08-06T10:59:31.884Z</time>
      </trkpt>
      <trkpt lat="46.95122" lon="8.72233">
        <ele>1439</ele>
        <time>2021-08-06T10:59:32.884Z</time>
      </trkpt>
      <trkpt lat="46.95121" lon="8.72232">
        <ele>1439</ele>
        <time>2021-08-06T10:59:33.884Z</time>
      </trkpt>
      <trkpt lat="46.9512" lon="8.72231">
        <ele>1439</ele>
        <time>2021-08-06T10:59:34.884Z</time>
      </trkpt>
      <trkpt lat="46.95119" lon="8.7223">
        <ele>1440</ele>
        <time>2021-08-06T10:59:35.884Z</time>
      </trkpt>
      <trkpt lat="46.95118" lon="8.72229">
        <ele>1440</ele>
        <time>2021-08-06T10:59:36.884Z</time>
      </trkpt>
      <trkpt lat="46.95117" lon="8.72229">
        <ele>1440</ele>
        <time>2021-08-06T10:59:37.885Z</time>
      </trkpt>
      <trkpt lat="46.95116" lon="8.72228">
        <ele>1441</ele>
        <time>2021-08-06T10:59:38.884Z</time>
      </trkpt>
      <trkpt lat="46.95115" lon="8.72228">
        <ele>1441</ele>
        <time>2021-08-06T10:59:39.884Z</time>
      </trkpt>
      <trkpt lat="46.95115" lon="8.72227">
        <ele>1442</ele>
        <time>2021-08-06T10:59:40.884Z</time>
      </trkpt>
      <trkpt lat="46.95114" lon="8.72227">
        <ele>1442</ele>
        <time>2021-08-06T10:59:41.885Z</time>
      </trkpt>
      <trkpt lat="46.95113" lon="8.72226">
        <ele>1442</ele>
        <time>2021-08-06T10:59:42.885Z</time>
      </trkpt>
      <trkpt lat="46.95113" lon="8.72226">
        <ele>1442</ele>
        <time>2021-08-06T10:59:43.885Z</time>
      </trkpt>
      <trkpt lat="46.95111" lon="8.72225">
        <ele>1442</ele>
        <time>2021-08-06T10:59:44.884Z</time>
      </trkpt>
      <trkpt lat="46.9511" lon="8.72224">
        <ele>1442</ele>
        <time>2021-08-06T10:59:45.884Z</time>
      </trkpt>
      <trkpt lat="46.95109" lon="8.72223">
        <ele>1442</ele>
        <time>2021-08-06T10:59:46.884Z</time>
      </trkpt>
      <trkpt lat="46.95108" lon="8.72222">
        <ele>1443</ele>
        <time>2021-08-06T10:59:47.885Z</time>
      </trkpt>
      <trkpt lat="46.95107" lon="8.72221">
        <ele>1443</ele>
        <time>2021-08-06T10:59:48.884Z</time>
      </trkpt>
      <trkpt lat="46.95106" lon="8.72221">
        <ele>1443</ele>
        <time>2021-08-06T10:59:49.885Z</time>
      </trkpt>
      <trkpt lat="46.95105" lon="8.7222">
        <ele>1443</ele>
        <time>2021-08-06T10:59:50.885Z</time>
      </trkpt>
      <trkpt lat="46.95104" lon="8.7222">
        <ele>1443</ele>
        <time>2021-08-06T10:59:51.885Z</time>
      </trkpt>
      <trkpt lat="46.95103" lon="8.7222">
        <ele>1444</ele>
        <time>2021-08-06T10:59:52.885Z</time>
      </trkpt>
      <trkpt lat="46.95103" lon="8.72219">
        <ele>1444</ele>
        <time>2021-08-06T10:59:53.884Z</time>
      </trkpt>
      <trkpt lat="46.95102" lon="8.72218">
        <ele>1443</ele>
        <time>2021-08-06T10:59:54.885Z</time>
      </trkpt>
      <trkpt lat="46.95101" lon="8.72217">
        <ele>1443</ele>
        <time>2021-08-06T10:59:55.885Z</time>
      </trkpt>
      <trkpt lat="46.95101" lon="8.72217">
        <ele>1443</ele>
        <time>2021-08-06T10:59:56.884Z</time>
      </trkpt>
      <trkpt lat="46.951" lon="8.72217">
        <ele>1442</ele>
        <time>2021-08-06T10:59:57.884Z</time>
      </trkpt>
      <trkpt lat="46.95099" lon="8.72216">
        <ele>1442</ele>
        <time>2021-08-06T10:59:58.885Z</time>
      </trkpt>
      <trkpt lat="46.95098" lon="8.72216">
        <ele>1441</ele>
        <time>2021-08-06T10:59:59.885Z</time>
      </trkpt>
      <trkpt lat="46.95098" lon="8.72216">
        <ele>1441</ele>
        <time>2021-08-06T11:00:00.884Z</time>
      </trkpt>
      <trkpt lat="46.95097" lon="8.72217">
        <ele>1441</ele>
        <time>2021-08-06T11:00:01.884Z</time>
      </trkpt>
      <trkpt lat="46.95097" lon="8.72217">
        <ele>1441</ele>
        <time>2021-08-06T11:00:02.885Z</time>
      </trkpt>
      <trkpt lat="46.95096" lon="8.72217">
        <ele>1441</ele>
        <time>2021-08-06T11:00:03.885Z</time>
      </trkpt>
      <trkpt lat="46.95095" lon="8.72217">
        <ele>1441</ele>
        <time>2021-08-06T11:00:04.885Z</time>
      </trkpt>
      <trkpt lat="46.95095" lon="8.72218">
        <ele>1441</ele>
        <time>2021-08-06T11:00:05.884Z</time>
      </trkpt>
      <trkpt lat="46.95094" lon="8.72218">
        <ele>1442</ele>
        <time>2021-08-06T11:00:06.884Z</time>
      </trkpt>
      <trkpt lat="46.95093" lon="8.72218">
        <ele>1442</ele>
        <time>2021-08-06T11:00:07.885Z</time>
      </trkpt>
      <trkpt lat="46.95093" lon="8.72218">
        <ele>1442</ele>
        <time>2021-08-06T11:00:08.885Z</time>
      </trkpt>
      <trkpt lat="46.95092" lon="8.72218">
        <ele>1443</ele>
        <time>2021-08-06T11:00:09.885Z</time>
      </trkpt>
      <trkpt lat="46.95091" lon="8.72218">
        <ele>1443</ele>
        <time>2021-08-06T11:00:10.885Z</time>
      </trkpt>
      <trkpt lat="46.95091" lon="8.72218">
        <ele>1443</ele>
        <time>2021-08-06T11:00:11.885Z</time>
      </trkpt>
      <trkpt lat="46.95091" lon="8.72217">
        <ele>1443</ele>
        <time>2021-08-06T11:00:12.884Z</time>
      </trkpt>
      <trkpt lat="46.9509" lon="8.72217">
        <ele>1443</ele>
        <time>2021-08-06T11:00:13.885Z</time>
      </trkpt>
      <trkpt lat="46.9509" lon="8.72216">
        <ele>1443</ele>
        <time>2021-08-06T11:00:14.884Z</time>
      </trkpt>
      <trkpt lat="46.9509" lon="8.72216">
        <ele>1444</ele>
        <time>2021-08-06T11:00:15.885Z</time>
      </trkpt>
      <trkpt lat="46.95089" lon="8.72215">
        <ele>1444</ele>
        <time>2021-08-06T11:00:16.885Z</time>
      </trkpt>
      <trkpt lat="46.95088" lon="8.72214">
        <ele>1444</ele>
        <time>2021-08-06T11:00:17.885Z</time>
      </trkpt>
      <trkpt lat="46.95088" lon="8.72212">
        <ele>1444</ele>
        <time>2021-08-06T11:00:18.885Z</time>
      </trkpt>
      <trkpt lat="46.95088" lon="8.72211">
        <ele>1444</ele>
        <time>2021-08-06T11:00:23.980Z</time>
      </trkpt>
      <trkpt lat="46.95088" lon="8.72209">
        <ele>1444</ele>
        <time>2021-08-06T11:00:39.851Z</time>
      </trkpt>
      <trkpt lat="46.95088" lon="8.72209">
        <ele>1444</ele>
        <time>2021-08-06T11:00:40.851Z</time>
      </trkpt>
      <trkpt lat="46.95088" lon="8.72208">
        <ele>1444</ele>
        <time>2021-08-06T11:00:41.851Z</time>
      </trkpt>
      <trkpt lat="46.95088" lon="8.72207">
        <ele>1445</ele>
        <time>2021-08-06T11:00:42.851Z</time>
      </trkpt>
      <trkpt lat="46.95088" lon="8.72207">
        <ele>1445</ele>
        <time>2021-08-06T11:00:43.851Z</time>
      </trkpt>
      <trkpt lat="46.95088" lon="8.72206">
        <ele>1445</ele>
        <time>2021-08-06T11:00:48.010Z</time>
      </trkpt>
      <trkpt lat="46.95088" lon="8.72205">
        <ele>1445</ele>
        <time>2021-08-06T11:00:49.009Z</time>
      </trkpt>
      <trkpt lat="46.95088" lon="8.72203">
        <ele>1445</ele>
        <time>2021-08-06T11:00:50.010Z</time>
      </trkpt>
      <trkpt lat="46.95089" lon="8.72202">
        <ele>1445</ele>
        <time>2021-08-06T11:00:51.010Z</time>
      </trkpt>
      <trkpt lat="46.95089" lon="8.72201">
        <ele>1445</ele>
        <time>2021-08-06T11:00:52.010Z</time>
      </trkpt>
      <trkpt lat="46.95089" lon="8.72199">
        <ele>1444</ele>
        <time>2021-08-06T11:00:53.010Z</time>
      </trkpt>
      <trkpt lat="46.95089" lon="8.722">
        <ele>1444</ele>
        <time>2021-08-06T11:00:54.010Z</time>
      </trkpt>
      <trkpt lat="46.95089" lon="8.722">
        <ele>1444</ele>
        <time>2021-08-06T11:00:55.010Z</time>
      </trkpt>
      <trkpt lat="46.95089" lon="8.722">
        <ele>1444</ele>
        <time>2021-08-06T11:00:56.009Z</time>
      </trkpt>
      <trkpt lat="46.95088" lon="8.72199">
        <ele>1444</ele>
        <time>2021-08-06T11:00:57.010Z</time>
      </trkpt>
      <trkpt lat="46.95087" lon="8.72199">
        <ele>1444</ele>
        <time>2021-08-06T11:00:58.009Z</time>
      </trkpt>
      <trkpt lat="46.95086" lon="8.72199">
        <ele>1443</ele>
        <time>2021-08-06T11:00:59.010Z</time>
      </trkpt>
      <trkpt lat="46.95085" lon="8.722">
        <ele>1443</ele>
        <time>2021-08-06T11:01:00.009Z</time>
      </trkpt>
      <trkpt lat="46.95084" lon="8.722">
        <ele>1443</ele>
        <time>2021-08-06T11:01:01.009Z</time>
      </trkpt>
      <trkpt lat="46.95084" lon="8.72201">
        <ele>1443</ele>
        <time>2021-08-06T11:01:02.009Z</time>
      </trkpt>
      <trkpt lat="46.95083" lon="8.72201">
        <ele>1443</ele>
        <time>2021-08-06T11:01:03.010Z</time>
      </trkpt>
      <trkpt lat="46.95082" lon="8.72201">
        <ele>1443</ele>
        <time>2021-08-06T11:01:04.009Z</time>
      </trkpt>
      <trkpt lat="46.95082" lon="8.72202">
        <ele>1443</ele>
        <time>2021-08-06T11:01:05.009Z</time>
      </trkpt>
      <trkpt lat="46.95082" lon="8.72202">
        <ele>1443</ele>
        <time>2021-08-06T11:01:06.010Z</time>
      </trkpt>
      <trkpt lat="46.95084" lon="8.72201">
        <ele>1440</ele>
        <time>2021-08-06T11:01:07.011Z</time>
      </trkpt>
      <trkpt lat="46.95083" lon="8.72201">
        <ele>1440</ele>
        <time>2021-08-06T11:01:08.011Z</time>
      </trkpt>
      <trkpt lat="46.95083" lon="8.72202">
        <ele>1440</ele>
        <time>2021-08-06T11:01:09.011Z</time>
      </trkpt>
      <trkpt lat="46.95083" lon="8.72201">
        <ele>1441</ele>
        <time>2021-08-06T11:01:10.010Z</time>
      </trkpt>
      <trkpt lat="46.95083" lon="8.72201">
        <ele>1441</ele>
        <time>2021-08-06T11:01:11.011Z</time>
      </trkpt>
      <trkpt lat="46.95083" lon="8.72199">
        <ele>1441</ele>
        <time>2021-08-06T11:01:12.010Z</time>
      </trkpt>
      <trkpt lat="46.95084" lon="8.72198">
        <ele>1440</ele>
        <time>2021-08-06T11:01:13.011Z</time>
      </trkpt>
      <trkpt lat="46.95084" lon="8.72201">
        <ele>1434</ele>
        <time>2021-08-06T11:01:14.011Z</time>
      </trkpt>
      <trkpt lat="46.95083" lon="8.72201">
        <ele>1435</ele>
        <time>2021-08-06T11:01:15.011Z</time>
      </trkpt>
      <trkpt lat="46.95083" lon="8.72199">
        <ele>1437</ele>
        <time>2021-08-06T11:01:16.011Z</time>
      </trkpt>
      <trkpt lat="46.95083" lon="8.72199">
        <ele>1437</ele>
        <time>2021-08-06T11:01:17.012Z</time>
      </trkpt>
      <trkpt lat="46.95083" lon="8.72201">
        <ele>1442</ele>
        <time>2021-08-06T11:01:18.011Z</time>
      </trkpt>
      <trkpt lat="46.95083" lon="8.72201">
        <ele>1443</ele>
        <time>2021-08-06T11:01:19.011Z</time>
      </trkpt>
      <trkpt lat="46.95084" lon="8.722">
        <ele>1444</ele>
        <time>2021-08-06T11:01:20.011Z</time>
      </trkpt>
      <trkpt lat="46.95084" lon="8.72199">
        <ele>1445</ele>
        <time>2021-08-06T11:01:21.012Z</time>
      </trkpt>
      <trkpt lat="46.95084" lon="8.72199">
        <ele>1445</ele>
        <time>2021-08-06T11:01:22.011Z</time>
      </trkpt>
      <trkpt lat="46.95084" lon="8.72199">
        <ele>1446</ele>
        <time>2021-08-06T11:01:23.012Z</time>
      </trkpt>
      <trkpt lat="46.95085" lon="8.72199">
        <ele>1447</ele>
        <time>2021-08-06T11:01:26.079Z</time>
      </trkpt>
      <trkpt lat="46.95085" lon="8.72198">
        <ele>1448</ele>
        <time>2021-08-06T11:01:27.079Z</time>
      </trkpt>
      <trkpt lat="46.95085" lon="8.72197">
        <ele>1449</ele>
        <time>2021-08-06T11:01:28.080Z</time>
      </trkpt>
      <trkpt lat="46.95085" lon="8.72196">
        <ele>1449</ele>
        <time>2021-08-06T11:01:29.080Z</time>
      </trkpt>
      <trkpt lat="46.95085" lon="8.72195">
        <ele>1449</ele>
        <time>2021-08-06T11:01:30.079Z</time>
      </trkpt>
      <trkpt lat="46.95084" lon="8.72193">
        <ele>1450</ele>
        <time>2021-08-06T11:01:31.080Z</time>
      </trkpt>
      <trkpt lat="46.95083" lon="8.72192">
        <ele>1450</ele>
        <time>2021-08-06T11:01:32.080Z</time>
      </trkpt>
      <trkpt lat="46.95082" lon="8.72191">
        <ele>1450</ele>
        <time>2021-08-06T11:01:33.080Z</time>
      </trkpt>
      <trkpt lat="46.95082" lon="8.7219">
        <ele>1451</ele>
        <time>2021-08-06T11:01:34.079Z</time>
      </trkpt>
      <trkpt lat="46.95081" lon="8.72189">
        <ele>1451</ele>
        <time>2021-08-06T11:01:35.079Z</time>
      </trkpt>
      <trkpt lat="46.9508" lon="8.72187">
        <ele>1451</ele>
        <time>2021-08-06T11:01:36.080Z</time>
      </trkpt>
      <trkpt lat="46.95079" lon="8.72186">
        <ele>1452</ele>
        <time>2021-08-06T11:01:37.079Z</time>
      </trkpt>
      <trkpt lat="46.95078" lon="8.72185">
        <ele>1453</ele>
        <time>2021-08-06T11:01:38.080Z</time>
      </trkpt>
      <trkpt lat="46.95076" lon="8.72185">
        <ele>1453</ele>
        <time>2021-08-06T11:01:39.080Z</time>
      </trkpt>
      <trkpt lat="46.95075" lon="8.72184">
        <ele>1453</ele>
        <time>2021-08-06T11:01:40.079Z</time>
      </trkpt>
      <trkpt lat="46.95075" lon="8.72183">
        <ele>1452</ele>
        <time>2021-08-06T11:01:41.080Z</time>
      </trkpt>
      <trkpt lat="46.95074" lon="8.72183">
        <ele>1452</ele>
        <time>2021-08-06T11:01:42.080Z</time>
      </trkpt>
      <trkpt lat="46.95073" lon="8.72183">
        <ele>1452</ele>
        <time>2021-08-06T11:01:43.080Z</time>
      </trkpt>
      <trkpt lat="46.95073" lon="8.72182">
        <ele>1452</ele>
        <time>2021-08-06T11:01:44.080Z</time>
      </trkpt>
      <trkpt lat="46.95072" lon="8.72182">
        <ele>1452</ele>
        <time>2021-08-06T11:01:45.080Z</time>
      </trkpt>
      <trkpt lat="46.95071" lon="8.72182">
        <ele>1452</ele>
        <time>2021-08-06T11:01:46.080Z</time>
      </trkpt>
      <trkpt lat="46.95071" lon="8.72181">
        <ele>1452</ele>
        <time>2021-08-06T11:01:47.080Z</time>
      </trkpt>
      <trkpt lat="46.9507" lon="8.72181">
        <ele>1452</ele>
        <time>2021-08-06T11:01:48.079Z</time>
      </trkpt>
      <trkpt lat="46.95069" lon="8.72181">
        <ele>1453</ele>
        <time>2021-08-06T11:01:49.080Z</time>
      </trkpt>
      <trkpt lat="46.95068" lon="8.7218">
        <ele>1453</ele>
        <time>2021-08-06T11:01:50.080Z</time>
      </trkpt>
      <trkpt lat="46.95068" lon="8.72179">
        <ele>1453</ele>
        <time>2021-08-06T11:01:51.080Z</time>
      </trkpt>
      <trkpt lat="46.95067" lon="8.72178">
        <ele>1453</ele>
        <time>2021-08-06T11:01:52.079Z</time>
      </trkpt>
      <trkpt lat="46.95066" lon="8.72177">
        <ele>1453</ele>
        <time>2021-08-06T11:01:53.080Z</time>
      </trkpt>
      <trkpt lat="46.95065" lon="8.72177">
        <ele>1453</ele>
        <time>2021-08-06T11:01:54.079Z</time>
      </trkpt>
      <trkpt lat="46.95064" lon="8.72176">
        <ele>1453</ele>
        <time>2021-08-06T11:01:55.080Z</time>
      </trkpt>
      <trkpt lat="46.95063" lon="8.72175">
        <ele>1452</ele>
        <time>2021-08-06T11:01:56.080Z</time>
      </trkpt>
      <trkpt lat="46.95062" lon="8.72174">
        <ele>1452</ele>
        <time>2021-08-06T11:01:57.080Z</time>
      </trkpt>
      <trkpt lat="46.95061" lon="8.72173">
        <ele>1451</ele>
        <time>2021-08-06T11:01:58.080Z</time>
      </trkpt>
      <trkpt lat="46.9506" lon="8.72172">
        <ele>1451</ele>
        <time>2021-08-06T11:01:59.080Z</time>
      </trkpt>
      <trkpt lat="46.9506" lon="8.72171">
        <ele>1450</ele>
        <time>2021-08-06T11:02:00.080Z</time>
      </trkpt>
      <trkpt lat="46.95059" lon="8.72171">
        <ele>1450</ele>
        <time>2021-08-06T11:02:01.080Z</time>
      </trkpt>
      <trkpt lat="46.95058" lon="8.7217">
        <ele>1449</ele>
        <time>2021-08-06T11:02:02.079Z</time>
      </trkpt>
      <trkpt lat="46.95058" lon="8.72169">
        <ele>1449</ele>
        <time>2021-08-06T11:02:03.080Z</time>
      </trkpt>
      <trkpt lat="46.95057" lon="8.72168">
        <ele>1448</ele>
        <time>2021-08-06T11:02:04.079Z</time>
      </trkpt>
      <trkpt lat="46.95057" lon="8.72167">
        <ele>1448</ele>
        <time>2021-08-06T11:02:05.080Z</time>
      </trkpt>
      <trkpt lat="46.95056" lon="8.72166">
        <ele>1448</ele>
        <time>2021-08-06T11:02:06.080Z</time>
      </trkpt>
      <trkpt lat="46.95056" lon="8.72166">
        <ele>1448</ele>
        <time>2021-08-06T11:02:07.080Z</time>
      </trkpt>
      <trkpt lat="46.95055" lon="8.72164">
        <ele>1449</ele>
        <time>2021-08-06T11:02:08.080Z</time>
      </trkpt>
      <trkpt lat="46.95054" lon="8.72163">
        <ele>1449</ele>
        <time>2021-08-06T11:02:09.079Z</time>
      </trkpt>
      <trkpt lat="46.95054" lon="8.72162">
        <ele>1450</ele>
        <time>2021-08-06T11:02:10.080Z</time>
      </trkpt>
      <trkpt lat="46.95053" lon="8.7216">
        <ele>1451</ele>
        <time>2021-08-06T11:02:11.080Z</time>
      </trkpt>
      <trkpt lat="46.95052" lon="8.72159">
        <ele>1452</ele>
        <time>2021-08-06T11:02:12.080Z</time>
      </trkpt>
      <trkpt lat="46.95051" lon="8.72158">
        <ele>1452</ele>
        <time>2021-08-06T11:02:13.080Z</time>
      </trkpt>
      <trkpt lat="46.95051" lon="8.72157">
        <ele>1453</ele>
        <time>2021-08-06T11:02:14.079Z</time>
      </trkpt>
      <trkpt lat="46.9505" lon="8.72156">
        <ele>1453</ele>
        <time>2021-08-06T11:02:15.080Z</time>
      </trkpt>
      <trkpt lat="46.9505" lon="8.72155">
        <ele>1453</ele>
        <time>2021-08-06T11:02:17.206Z</time>
      </trkpt>
      <trkpt lat="46.9505" lon="8.72155">
        <ele>1452</ele>
        <time>2021-08-06T11:02:18.206Z</time>
      </trkpt>
      <trkpt lat="46.95049" lon="8.72154">
        <ele>1452</ele>
        <time>2021-08-06T11:02:19.206Z</time>
      </trkpt>
      <trkpt lat="46.95048" lon="8.72154">
        <ele>1452</ele>
        <time>2021-08-06T11:02:21.182Z</time>
      </trkpt>
      <trkpt lat="46.95048" lon="8.72153">
        <ele>1452</ele>
        <time>2021-08-06T11:02:22.183Z</time>
      </trkpt>
      <trkpt lat="46.95048" lon="8.72152">
        <ele>1452</ele>
        <time>2021-08-06T11:02:23.183Z</time>
      </trkpt>
      <trkpt lat="46.95047" lon="8.72152">
        <ele>1452</ele>
        <time>2021-08-06T11:02:24.182Z</time>
      </trkpt>
      <trkpt lat="46.95047" lon="8.7215">
        <ele>1452</ele>
        <time>2021-08-06T11:02:25.183Z</time>
      </trkpt>
      <trkpt lat="46.95045" lon="8.72148">
        <ele>1452</ele>
        <time>2021-08-06T11:02:26.183Z</time>
      </trkpt>
      <trkpt lat="46.95044" lon="8.72146">
        <ele>1452</ele>
        <time>2021-08-06T11:02:27.183Z</time>
      </trkpt>
      <trkpt lat="46.95043" lon="8.72144">
        <ele>1452</ele>
        <time>2021-08-06T11:02:28.183Z</time>
      </trkpt>
      <trkpt lat="46.95043" lon="8.72143">
        <ele>1451</ele>
        <time>2021-08-06T11:02:29.182Z</time>
      </trkpt>
      <trkpt lat="46.95042" lon="8.72141">
        <ele>1451</ele>
        <time>2021-08-06T11:02:30.182Z</time>
      </trkpt>
      <trkpt lat="46.95041" lon="8.72141">
        <ele>1450</ele>
        <time>2021-08-06T11:02:31.183Z</time>
      </trkpt>
      <trkpt lat="46.95041" lon="8.72141">
        <ele>1450</ele>
        <time>2021-08-06T11:02:32.183Z</time>
      </trkpt>
      <trkpt lat="46.9504" lon="8.72141">
        <ele>1451</ele>
        <time>2021-08-06T11:02:33.183Z</time>
      </trkpt>
      <trkpt lat="46.95041" lon="8.7214">
        <ele>1451</ele>
        <time>2021-08-06T11:02:34.183Z</time>
      </trkpt>
      <trkpt lat="46.95041" lon="8.72139">
        <ele>1451</ele>
        <time>2021-08-06T11:02:35.182Z</time>
      </trkpt>
      <trkpt lat="46.9504" lon="8.72138">
        <ele>1451</ele>
        <time>2021-08-06T11:02:36.182Z</time>
      </trkpt>
      <trkpt lat="46.9504" lon="8.72136">
        <ele>1451</ele>
        <time>2021-08-06T11:02:37.183Z</time>
      </trkpt>
      <trkpt lat="46.95039" lon="8.72135">
        <ele>1450</ele>
        <time>2021-08-06T11:02:38.182Z</time>
      </trkpt>
      <trkpt lat="46.95038" lon="8.72134">
        <ele>1451</ele>
        <time>2021-08-06T11:02:39.183Z</time>
      </trkpt>
      <trkpt lat="46.95037" lon="8.72134">
        <ele>1451</ele>
        <time>2021-08-06T11:02:40.182Z</time>
      </trkpt>
      <trkpt lat="46.95036" lon="8.72133">
        <ele>1452</ele>
        <time>2021-08-06T11:02:41.182Z</time>
      </trkpt>
      <trkpt lat="46.95035" lon="8.72133">
        <ele>1451</ele>
        <time>2021-08-06T11:02:42.182Z</time>
      </trkpt>
      <trkpt lat="46.95034" lon="8.72132">
        <ele>1451</ele>
        <time>2021-08-06T11:02:43.183Z</time>
      </trkpt>
      <trkpt lat="46.95033" lon="8.72131">
        <ele>1451</ele>
        <time>2021-08-06T11:02:44.182Z</time>
      </trkpt>
      <trkpt lat="46.95032" lon="8.7213">
        <ele>1451</ele>
        <time>2021-08-06T11:02:45.182Z</time>
      </trkpt>
      <trkpt lat="46.95031" lon="8.72129">
        <ele>1452</ele>
        <time>2021-08-06T11:02:46.183Z</time>
      </trkpt>
      <trkpt lat="46.95031" lon="8.72128">
        <ele>1452</ele>
        <time>2021-08-06T11:02:47.183Z</time>
      </trkpt>
      <trkpt lat="46.9503" lon="8.72127">
        <ele>1453</ele>
        <time>2021-08-06T11:02:48.183Z</time>
      </trkpt>
      <trkpt lat="46.95029" lon="8.72126">
        <ele>1453</ele>
        <time>2021-08-06T11:02:49.183Z</time>
      </trkpt>
      <trkpt lat="46.95029" lon="8.72125">
        <ele>1454</ele>
        <time>2021-08-06T11:02:50.183Z</time>
      </trkpt>
      <trkpt lat="46.95028" lon="8.72124">
        <ele>1454</ele>
        <time>2021-08-06T11:02:51.183Z</time>
      </trkpt>
      <trkpt lat="46.95027" lon="8.72123">
        <ele>1455</ele>
        <time>2021-08-06T11:02:52.183Z</time>
      </trkpt>
      <trkpt lat="46.95027" lon="8.72122">
        <ele>1455</ele>
        <time>2021-08-06T11:02:53.183Z</time>
      </trkpt>
      <trkpt lat="46.95027" lon="8.7212">
        <ele>1455</ele>
        <time>2021-08-06T11:02:54.183Z</time>
      </trkpt>
      <trkpt lat="46.95026" lon="8.72119">
        <ele>1456</ele>
        <time>2021-08-06T11:02:55.183Z</time>
      </trkpt>
      <trkpt lat="46.95026" lon="8.72117">
        <ele>1456</ele>
        <time>2021-08-06T11:02:56.183Z</time>
      </trkpt>
      <trkpt lat="46.95025" lon="8.72116">
        <ele>1456</ele>
        <time>2021-08-06T11:02:57.182Z</time>
      </trkpt>
      <trkpt lat="46.95024" lon="8.72115">
        <ele>1456</ele>
        <time>2021-08-06T11:02:58.183Z</time>
      </trkpt>
      <trkpt lat="46.95023" lon="8.72114">
        <ele>1455</ele>
        <time>2021-08-06T11:02:59.182Z</time>
      </trkpt>
      <trkpt lat="46.95023" lon="8.72114">
        <ele>1455</ele>
        <time>2021-08-06T11:03:00.183Z</time>
      </trkpt>
      <trkpt lat="46.95022" lon="8.72113">
        <ele>1455</ele>
        <time>2021-08-06T11:03:01.182Z</time>
      </trkpt>
      <trkpt lat="46.95021" lon="8.72113">
        <ele>1455</ele>
        <time>2021-08-06T11:03:02.183Z</time>
      </trkpt>
      <trkpt lat="46.95022" lon="8.72112">
        <ele>1454</ele>
        <time>2021-08-06T11:03:03.183Z</time>
      </trkpt>
      <trkpt lat="46.95022" lon="8.72112">
        <ele>1454</ele>
        <time>2021-08-06T11:03:04.183Z</time>
      </trkpt>
      <trkpt lat="46.95023" lon="8.7211">
        <ele>1453</ele>
        <time>2021-08-06T11:03:05.183Z</time>
      </trkpt>
      <trkpt lat="46.95023" lon="8.7211">
        <ele>1453</ele>
        <time>2021-08-06T11:03:06.184Z</time>
      </trkpt>
      <trkpt lat="46.95023" lon="8.72109">
        <ele>1453</ele>
        <time>2021-08-06T11:03:07.183Z</time>
      </trkpt>
      <trkpt lat="46.95021" lon="8.72108">
        <ele>1453</ele>
        <time>2021-08-06T11:03:08.184Z</time>
      </trkpt>
      <trkpt lat="46.9502" lon="8.72109">
        <ele>1453</ele>
        <time>2021-08-06T11:03:09.184Z</time>
      </trkpt>
      <trkpt lat="46.9502" lon="8.72111">
        <ele>1453</ele>
        <time>2021-08-06T11:03:10.183Z</time>
      </trkpt>
      <trkpt lat="46.9502" lon="8.72111">
        <ele>1452</ele>
        <time>2021-08-06T11:03:11.184Z</time>
      </trkpt>
      <trkpt lat="46.95021" lon="8.72111">
        <ele>1452</ele>
        <time>2021-08-06T11:03:12.184Z</time>
      </trkpt>
      <trkpt lat="46.9502" lon="8.72112">
        <ele>1451</ele>
        <time>2021-08-06T11:03:13.184Z</time>
      </trkpt>
      <trkpt lat="46.9502" lon="8.72112">
        <ele>1454</ele>
        <time>2021-08-06T11:03:14.186Z</time>
      </trkpt>
      <trkpt lat="46.95019" lon="8.72111">
        <ele>1455</ele>
        <time>2021-08-06T11:03:15.185Z</time>
      </trkpt>
      <trkpt lat="46.95019" lon="8.7211">
        <ele>1455</ele>
        <time>2021-08-06T11:03:16.186Z</time>
      </trkpt>
      <trkpt lat="46.95019" lon="8.72109">
        <ele>1456</ele>
        <time>2021-08-06T11:03:17.185Z</time>
      </trkpt>
      <trkpt lat="46.95019" lon="8.72109">
        <ele>1456</ele>
        <time>2021-08-06T11:03:18.186Z</time>
      </trkpt>
      <trkpt lat="46.95018" lon="8.72108">
        <ele>1456</ele>
        <time>2021-08-06T11:03:19.186Z</time>
      </trkpt>
      <trkpt lat="46.95017" lon="8.72108">
        <ele>1456</ele>
        <time>2021-08-06T11:03:20.186Z</time>
      </trkpt>
      <trkpt lat="46.95017" lon="8.72107">
        <ele>1456</ele>
        <time>2021-08-06T11:03:21.186Z</time>
      </trkpt>
      <trkpt lat="46.95017" lon="8.72106">
        <ele>1456</ele>
        <time>2021-08-06T11:03:22.186Z</time>
      </trkpt>
      <trkpt lat="46.95016" lon="8.72106">
        <ele>1456</ele>
        <time>2021-08-06T11:03:23.185Z</time>
      </trkpt>
      <trkpt lat="46.95015" lon="8.72105">
        <ele>1457</ele>
        <time>2021-08-06T11:03:24.185Z</time>
      </trkpt>
      <trkpt lat="46.95014" lon="8.72105">
        <ele>1457</ele>
        <time>2021-08-06T11:03:25.185Z</time>
      </trkpt>
      <trkpt lat="46.95014" lon="8.72104">
        <ele>1458</ele>
        <time>2021-08-06T11:03:26.186Z</time>
      </trkpt>
      <trkpt lat="46.95014" lon="8.72103">
        <ele>1458</ele>
        <time>2021-08-06T11:03:27.186Z</time>
      </trkpt>
      <trkpt lat="46.95014" lon="8.72102">
        <ele>1458</ele>
        <time>2021-08-06T11:03:28.186Z</time>
      </trkpt>
      <trkpt lat="46.95013" lon="8.72102">
        <ele>1458</ele>
        <time>2021-08-06T11:03:29.186Z</time>
      </trkpt>
      <trkpt lat="46.95013" lon="8.721">
        <ele>1458</ele>
        <time>2021-08-06T11:03:30.186Z</time>
      </trkpt>
      <trkpt lat="46.95013" lon="8.72099">
        <ele>1458</ele>
        <time>2021-08-06T11:03:31.185Z</time>
      </trkpt>
      <trkpt lat="46.95012" lon="8.72098">
        <ele>1458</ele>
        <time>2021-08-06T11:03:32.186Z</time>
      </trkpt>
      <trkpt lat="46.95012" lon="8.72097">
        <ele>1458</ele>
        <time>2021-08-06T11:03:43.242Z</time>
      </trkpt>
      <trkpt lat="46.95012" lon="8.72096">
        <ele>1458</ele>
        <time>2021-08-06T11:03:44.243Z</time>
      </trkpt>
      <trkpt lat="46.95011" lon="8.72095">
        <ele>1458</ele>
        <time>2021-08-06T11:03:45.243Z</time>
      </trkpt>
      <trkpt lat="46.9501" lon="8.72094">
        <ele>1458</ele>
        <time>2021-08-06T11:03:46.243Z</time>
      </trkpt>
      <trkpt lat="46.9501" lon="8.72093">
        <ele>1457</ele>
        <time>2021-08-06T11:03:47.242Z</time>
      </trkpt>
      <trkpt lat="46.9501" lon="8.72091">
        <ele>1457</ele>
        <time>2021-08-06T11:03:48.242Z</time>
      </trkpt>
      <trkpt lat="46.9501" lon="8.7209">
        <ele>1457</ele>
        <time>2021-08-06T11:03:49.243Z</time>
      </trkpt>
      <trkpt lat="46.9501" lon="8.72089">
        <ele>1458</ele>
        <time>2021-08-06T11:03:50.243Z</time>
      </trkpt>
      <trkpt lat="46.95009" lon="8.72088">
        <ele>1458</ele>
        <time>2021-08-06T11:03:51.243Z</time>
      </trkpt>
      <trkpt lat="46.95008" lon="8.72087">
        <ele>1458</ele>
        <time>2021-08-06T11:03:52.243Z</time>
      </trkpt>
      <trkpt lat="46.95008" lon="8.72087">
        <ele>1459</ele>
        <time>2021-08-06T11:03:53.242Z</time>
      </trkpt>
      <trkpt lat="46.95008" lon="8.72086">
        <ele>1459</ele>
        <time>2021-08-06T11:03:54.243Z</time>
      </trkpt>
      <trkpt lat="46.95007" lon="8.72086">
        <ele>1460</ele>
        <time>2021-08-06T11:03:58.380Z</time>
      </trkpt>
      <trkpt lat="46.95006" lon="8.72086">
        <ele>1460</ele>
        <time>2021-08-06T11:03:59.379Z</time>
      </trkpt>
      <trkpt lat="46.95006" lon="8.72086">
        <ele>1460</ele>
        <time>2021-08-06T11:04:00.380Z</time>
      </trkpt>
      <trkpt lat="46.95005" lon="8.72086">
        <ele>1460</ele>
        <time>2021-08-06T11:04:40.487Z</time>
      </trkpt>
      <trkpt lat="46.95004" lon="8.72086">
        <ele>1460</ele>
        <time>2021-08-06T11:04:41.487Z</time>
      </trkpt>
      <trkpt lat="46.95003" lon="8.72085">
        <ele>1461</ele>
        <time>2021-08-06T11:04:54.358Z</time>
      </trkpt>
      <trkpt lat="46.95003" lon="8.72085">
        <ele>1461</ele>
        <time>2021-08-06T11:04:55.358Z</time>
      </trkpt>
      <trkpt lat="46.95002" lon="8.72084">
        <ele>1461</ele>
        <time>2021-08-06T11:04:56.358Z</time>
      </trkpt>
      <trkpt lat="46.95001" lon="8.72084">
        <ele>1460</ele>
        <time>2021-08-06T11:04:57.357Z</time>
      </trkpt>
      <trkpt lat="46.95001" lon="8.72084">
        <ele>1459</ele>
        <time>2021-08-06T11:05:01.324Z</time>
      </trkpt>
      <trkpt lat="46.95" lon="8.72084">
        <ele>1459</ele>
        <time>2021-08-06T11:05:02.324Z</time>
      </trkpt>
      <trkpt lat="46.94999" lon="8.72083">
        <ele>1458</ele>
        <time>2021-08-06T11:05:03.325Z</time>
      </trkpt>
      <trkpt lat="46.94999" lon="8.72083">
        <ele>1457</ele>
        <time>2021-08-06T11:05:04.324Z</time>
      </trkpt>
      <trkpt lat="46.94998" lon="8.72083">
        <ele>1457</ele>
        <time>2021-08-06T11:05:10.330Z</time>
      </trkpt>
      <trkpt lat="46.94997" lon="8.72083">
        <ele>1457</ele>
        <time>2021-08-06T11:05:11.331Z</time>
      </trkpt>
      <trkpt lat="46.94996" lon="8.72083">
        <ele>1458</ele>
        <time>2021-08-06T11:05:18.222Z</time>
      </trkpt>
      <trkpt lat="46.94995" lon="8.72084">
        <ele>1458</ele>
        <time>2021-08-06T11:05:19.221Z</time>
      </trkpt>
      <trkpt lat="46.94995" lon="8.72084">
        <ele>1459</ele>
        <time>2021-08-06T11:05:20.221Z</time>
      </trkpt>
      <trkpt lat="46.94994" lon="8.72083">
        <ele>1459</ele>
        <time>2021-08-06T11:05:21.222Z</time>
      </trkpt>
      <trkpt lat="46.94993" lon="8.72083">
        <ele>1459</ele>
        <time>2021-08-06T11:05:26.377Z</time>
      </trkpt>
      <trkpt lat="46.94992" lon="8.72083">
        <ele>1460</ele>
        <time>2021-08-06T11:05:30.227Z</time>
      </trkpt>
      <trkpt lat="46.94991" lon="8.72082">
        <ele>1460</ele>
        <time>2021-08-06T11:05:44.103Z</time>
      </trkpt>
      <trkpt lat="46.9499" lon="8.72082">
        <ele>1460</ele>
        <time>2021-08-06T11:05:45.103Z</time>
      </trkpt>
      <trkpt lat="46.94989" lon="8.72082">
        <ele>1461</ele>
        <time>2021-08-06T11:05:46.104Z</time>
      </trkpt>
      <trkpt lat="46.94988" lon="8.72083">
        <ele>1461</ele>
        <time>2021-08-06T11:05:47.104Z</time>
      </trkpt>
      <trkpt lat="46.94987" lon="8.72083">
        <ele>1461</ele>
        <time>2021-08-06T11:05:57.086Z</time>
      </trkpt>
      <trkpt lat="46.94986" lon="8.72083">
        <ele>1462</ele>
        <time>2021-08-06T11:05:58.085Z</time>
      </trkpt>
      <trkpt lat="46.94985" lon="8.72083">
        <ele>1462</ele>
        <time>2021-08-06T11:06:15.000Z</time>
      </trkpt>
      <trkpt lat="46.94984" lon="8.72083">
        <ele>1462</ele>
        <time>2021-08-06T11:06:16.000Z</time>
      </trkpt>
      <trkpt lat="46.94983" lon="8.72082">
        <ele>1462</ele>
        <time>2021-08-06T11:06:21.899Z</time>
      </trkpt>
      <trkpt lat="46.94983" lon="8.72082">
        <ele>1462</ele>
        <time>2021-08-06T11:06:22.899Z</time>
      </trkpt>
      <trkpt lat="46.94982" lon="8.72081">
        <ele>1462</ele>
        <time>2021-08-06T11:06:23.898Z</time>
      </trkpt>
      <trkpt lat="46.94981" lon="8.7208">
        <ele>1462</ele>
        <time>2021-08-06T11:06:31.945Z</time>
      </trkpt>
      <trkpt lat="46.9498" lon="8.72079">
        <ele>1461</ele>
        <time>2021-08-06T11:06:32.946Z</time>
      </trkpt>
      <trkpt lat="46.9498" lon="8.72078">
        <ele>1461</ele>
        <time>2021-08-06T11:06:33.946Z</time>
      </trkpt>
      <trkpt lat="46.94979" lon="8.72078">
        <ele>1461</ele>
        <time>2021-08-06T11:06:34.945Z</time>
      </trkpt>
      <trkpt lat="46.94978" lon="8.72077">
        <ele>1461</ele>
        <time>2021-08-06T11:06:35.945Z</time>
      </trkpt>
      <trkpt lat="46.94978" lon="8.72077">
        <ele>1461</ele>
        <time>2021-08-06T11:06:36.945Z</time>
      </trkpt>
      <trkpt lat="46.94977" lon="8.72077">
        <ele>1461</ele>
        <time>2021-08-06T11:06:37.946Z</time>
      </trkpt>
      <trkpt lat="46.94976" lon="8.72076">
        <ele>1460</ele>
        <time>2021-08-06T11:06:38.946Z</time>
      </trkpt>
      <trkpt lat="46.94975" lon="8.72075">
        <ele>1460</ele>
        <time>2021-08-06T11:06:39.946Z</time>
      </trkpt>
      <trkpt lat="46.94974" lon="8.72073">
        <ele>1460</ele>
        <time>2021-08-06T11:06:40.946Z</time>
      </trkpt>
      <trkpt lat="46.94974" lon="8.72072">
        <ele>1461</ele>
        <time>2021-08-06T11:06:41.945Z</time>
      </trkpt>
      <trkpt lat="46.94974" lon="8.72071">
        <ele>1461</ele>
        <time>2021-08-06T11:06:42.945Z</time>
      </trkpt>
      <trkpt lat="46.94974" lon="8.7207">
        <ele>1460</ele>
        <time>2021-08-06T11:06:43.946Z</time>
      </trkpt>
      <trkpt lat="46.94973" lon="8.72069">
        <ele>1460</ele>
        <time>2021-08-06T11:06:44.946Z</time>
      </trkpt>
      <trkpt lat="46.94973" lon="8.72068">
        <ele>1460</ele>
        <time>2021-08-06T11:06:45.945Z</time>
      </trkpt>
      <trkpt lat="46.94972" lon="8.72066">
        <ele>1460</ele>
        <time>2021-08-06T11:06:46.945Z</time>
      </trkpt>
      <trkpt lat="46.94972" lon="8.72065">
        <ele>1459</ele>
        <time>2021-08-06T11:06:47.946Z</time>
      </trkpt>
      <trkpt lat="46.94971" lon="8.72064">
        <ele>1459</ele>
        <time>2021-08-06T11:06:48.946Z</time>
      </trkpt>
      <trkpt lat="46.9497" lon="8.72062">
        <ele>1458</ele>
        <time>2021-08-06T11:06:49.945Z</time>
      </trkpt>
      <trkpt lat="46.9497" lon="8.72061">
        <ele>1458</ele>
        <time>2021-08-06T11:06:50.945Z</time>
      </trkpt>
      <trkpt lat="46.94969" lon="8.7206">
        <ele>1459</ele>
        <time>2021-08-06T11:06:51.945Z</time>
      </trkpt>
      <trkpt lat="46.94968" lon="8.72059">
        <ele>1459</ele>
        <time>2021-08-06T11:06:52.946Z</time>
      </trkpt>
      <trkpt lat="46.94968" lon="8.72058">
        <ele>1459</ele>
        <time>2021-08-06T11:06:53.945Z</time>
      </trkpt>
      <trkpt lat="46.94967" lon="8.72057">
        <ele>1459</ele>
        <time>2021-08-06T11:06:54.945Z</time>
      </trkpt>
      <trkpt lat="46.94967" lon="8.72056">
        <ele>1459</ele>
        <time>2021-08-06T11:06:55.945Z</time>
      </trkpt>
      <trkpt lat="46.94966" lon="8.72055">
        <ele>1460</ele>
        <time>2021-08-06T11:06:56.945Z</time>
      </trkpt>
      <trkpt lat="46.94965" lon="8.72054">
        <ele>1460</ele>
        <time>2021-08-06T11:06:57.945Z</time>
      </trkpt>
      <trkpt lat="46.94964" lon="8.72053">
        <ele>1460</ele>
        <time>2021-08-06T11:06:58.946Z</time>
      </trkpt>
      <trkpt lat="46.94963" lon="8.72052">
        <ele>1461</ele>
        <time>2021-08-06T11:06:59.945Z</time>
      </trkpt>
      <trkpt lat="46.94962" lon="8.72052">
        <ele>1461</ele>
        <time>2021-08-06T11:07:00.945Z</time>
      </trkpt>
      <trkpt lat="46.94961" lon="8.72052">
        <ele>1461</ele>
        <time>2021-08-06T11:07:01.945Z</time>
      </trkpt>
      <trkpt lat="46.9496" lon="8.72052">
        <ele>1462</ele>
        <time>2021-08-06T11:07:02.946Z</time>
      </trkpt>
      <trkpt lat="46.94959" lon="8.72052">
        <ele>1462</ele>
        <time>2021-08-06T11:07:03.946Z</time>
      </trkpt>
      <trkpt lat="46.94958" lon="8.72051">
        <ele>1462</ele>
        <time>2021-08-06T11:07:04.946Z</time>
      </trkpt>
      <trkpt lat="46.94957" lon="8.72051">
        <ele>1462</ele>
        <time>2021-08-06T11:07:05.946Z</time>
      </trkpt>
      <trkpt lat="46.94956" lon="8.72051">
        <ele>1462</ele>
        <time>2021-08-06T11:07:06.946Z</time>
      </trkpt>
      <trkpt lat="46.94954" lon="8.7205">
        <ele>1462</ele>
        <time>2021-08-06T11:07:07.946Z</time>
      </trkpt>
      <trkpt lat="46.94953" lon="8.7205">
        <ele>1463</ele>
        <time>2021-08-06T11:07:08.945Z</time>
      </trkpt>
      <trkpt lat="46.94953" lon="8.7205">
        <ele>1463</ele>
        <time>2021-08-06T11:07:09.946Z</time>
      </trkpt>
      <trkpt lat="46.94952" lon="8.7205">
        <ele>1464</ele>
        <time>2021-08-06T11:07:10.945Z</time>
      </trkpt>
      <trkpt lat="46.94951" lon="8.7205">
        <ele>1464</ele>
        <time>2021-08-06T11:07:11.945Z</time>
      </trkpt>
      <trkpt lat="46.9495" lon="8.72049">
        <ele>1465</ele>
        <time>2021-08-06T11:07:12.946Z</time>
      </trkpt>
      <trkpt lat="46.94949" lon="8.72049">
        <ele>1465</ele>
        <time>2021-08-06T11:07:13.946Z</time>
      </trkpt>
      <trkpt lat="46.94948" lon="8.72048">
        <ele>1465</ele>
        <time>2021-08-06T11:07:14.945Z</time>
      </trkpt>
      <trkpt lat="46.94947" lon="8.72048">
        <ele>1465</ele>
        <time>2021-08-06T11:07:15.945Z</time>
      </trkpt>
      <trkpt lat="46.94946" lon="8.72047">
        <ele>1465</ele>
        <time>2021-08-06T11:07:16.946Z</time>
      </trkpt>
      <trkpt lat="46.94945" lon="8.72046">
        <ele>1465</ele>
        <time>2021-08-06T11:07:17.946Z</time>
      </trkpt>
      <trkpt lat="46.94945" lon="8.72046">
        <ele>1465</ele>
        <time>2021-08-06T11:07:18.946Z</time>
      </trkpt>
      <trkpt lat="46.94944" lon="8.72046">
        <ele>1466</ele>
        <time>2021-08-06T11:07:19.945Z</time>
      </trkpt>
      <trkpt lat="46.94943" lon="8.72046">
        <ele>1466</ele>
        <time>2021-08-06T11:07:20.945Z</time>
      </trkpt>
      <trkpt lat="46.94942" lon="8.72046">
        <ele>1467</ele>
        <time>2021-08-06T11:07:21.945Z</time>
      </trkpt>
      <trkpt lat="46.94942" lon="8.72046">
        <ele>1467</ele>
        <time>2021-08-06T11:07:22.946Z</time>
      </trkpt>
      <trkpt lat="46.94941" lon="8.72045">
        <ele>1468</ele>
        <time>2021-08-06T11:07:23.946Z</time>
      </trkpt>
      <trkpt lat="46.9494" lon="8.72045">
        <ele>1469</ele>
        <time>2021-08-06T11:07:24.945Z</time>
      </trkpt>
      <trkpt lat="46.9494" lon="8.72045">
        <ele>1470</ele>
        <time>2021-08-06T11:07:25.946Z</time>
      </trkpt>
      <trkpt lat="46.9494" lon="8.72043">
        <ele>1470</ele>
        <time>2021-08-06T11:07:26.945Z</time>
      </trkpt>
      <trkpt lat="46.9494" lon="8.72042">
        <ele>1470</ele>
        <time>2021-08-06T11:07:27.946Z</time>
      </trkpt>
      <trkpt lat="46.94941" lon="8.72041">
        <ele>1471</ele>
        <time>2021-08-06T11:07:28.945Z</time>
      </trkpt>
      <trkpt lat="46.94941" lon="8.7204">
        <ele>1471</ele>
        <time>2021-08-06T11:07:29.945Z</time>
      </trkpt>
      <trkpt lat="46.94941" lon="8.72039">
        <ele>1470</ele>
        <time>2021-08-06T11:07:30.945Z</time>
      </trkpt>
      <trkpt lat="46.9494" lon="8.72038">
        <ele>1470</ele>
        <time>2021-08-06T11:07:31.946Z</time>
      </trkpt>
      <trkpt lat="46.9494" lon="8.72037">
        <ele>1470</ele>
        <time>2021-08-06T11:07:32.945Z</time>
      </trkpt>
      <trkpt lat="46.94939" lon="8.72036">
        <ele>1470</ele>
        <time>2021-08-06T11:07:33.946Z</time>
      </trkpt>
      <trkpt lat="46.94939" lon="8.72035">
        <ele>1470</ele>
        <time>2021-08-06T11:07:34.945Z</time>
      </trkpt>
      <trkpt lat="46.94939" lon="8.72034">
        <ele>1470</ele>
        <time>2021-08-06T11:08:05.022Z</time>
      </trkpt>
      <trkpt lat="46.94938" lon="8.72033">
        <ele>1470</ele>
        <time>2021-08-06T11:08:06.022Z</time>
      </trkpt>
      <trkpt lat="46.94938" lon="8.72032">
        <ele>1470</ele>
        <time>2021-08-06T11:08:07.022Z</time>
      </trkpt>
      <trkpt lat="46.94937" lon="8.72031">
        <ele>1471</ele>
        <time>2021-08-06T11:08:08.021Z</time>
      </trkpt>
      <trkpt lat="46.94937" lon="8.7203">
        <ele>1471</ele>
        <time>2021-08-06T11:08:09.021Z</time>
      </trkpt>
      <trkpt lat="46.94937" lon="8.72029">
        <ele>1471</ele>
        <time>2021-08-06T11:08:10.021Z</time>
      </trkpt>
      <trkpt lat="46.94936" lon="8.72028">
        <ele>1471</ele>
        <time>2021-08-06T11:08:11.022Z</time>
      </trkpt>
      <trkpt lat="46.94936" lon="8.72026">
        <ele>1471</ele>
        <time>2021-08-06T11:08:12.021Z</time>
      </trkpt>
      <trkpt lat="46.94936" lon="8.72025">
        <ele>1471</ele>
        <time>2021-08-06T11:08:13.022Z</time>
      </trkpt>
      <trkpt lat="46.94935" lon="8.72023">
        <ele>1471</ele>
        <time>2021-08-06T11:08:14.022Z</time>
      </trkpt>
      <trkpt lat="46.94935" lon="8.72022">
        <ele>1471</ele>
        <time>2021-08-06T11:08:15.022Z</time>
      </trkpt>
      <trkpt lat="46.94935" lon="8.7202">
        <ele>1471</ele>
        <time>2021-08-06T11:08:16.022Z</time>
      </trkpt>
      <trkpt lat="46.94935" lon="8.72019">
        <ele>1471</ele>
        <time>2021-08-06T11:08:17.022Z</time>
      </trkpt>
      <trkpt lat="46.94935" lon="8.72017">
        <ele>1472</ele>
        <time>2021-08-06T11:08:18.021Z</time>
      </trkpt>
      <trkpt lat="46.94934" lon="8.72016">
        <ele>1472</ele>
        <time>2021-08-06T11:08:19.022Z</time>
      </trkpt>
      <trkpt lat="46.94934" lon="8.72015">
        <ele>1472</ele>
        <time>2021-08-06T11:08:20.021Z</time>
      </trkpt>
      <trkpt lat="46.94934" lon="8.72014">
        <ele>1472</ele>
        <time>2021-08-06T11:08:21.021Z</time>
      </trkpt>
      <trkpt lat="46.94934" lon="8.72013">
        <ele>1473</ele>
        <time>2021-08-06T11:08:22.022Z</time>
      </trkpt>
      <trkpt lat="46.94933" lon="8.72011">
        <ele>1473</ele>
        <time>2021-08-06T11:08:23.022Z</time>
      </trkpt>
      <trkpt lat="46.94933" lon="8.7201">
        <ele>1473</ele>
        <time>2021-08-06T11:08:24.022Z</time>
      </trkpt>
      <trkpt lat="46.94933" lon="8.72009">
        <ele>1473</ele>
        <time>2021-08-06T11:08:25.022Z</time>
      </trkpt>
      <trkpt lat="46.94932" lon="8.72007">
        <ele>1473</ele>
        <time>2021-08-06T11:08:26.022Z</time>
      </trkpt>
      <trkpt lat="46.94931" lon="8.72006">
        <ele>1473</ele>
        <time>2021-08-06T11:08:27.022Z</time>
      </trkpt>
      <trkpt lat="46.94931" lon="8.72005">
        <ele>1473</ele>
        <time>2021-08-06T11:08:28.022Z</time>
      </trkpt>
      <trkpt lat="46.9493" lon="8.72005">
        <ele>1473</ele>
        <time>2021-08-06T11:08:29.022Z</time>
      </trkpt>
      <trkpt lat="46.94929" lon="8.72005">
        <ele>1473</ele>
        <time>2021-08-06T11:08:30.022Z</time>
      </trkpt>
      <trkpt lat="46.94928" lon="8.72005">
        <ele>1473</ele>
        <time>2021-08-06T11:08:31.022Z</time>
      </trkpt>
      <trkpt lat="46.94928" lon="8.72004">
        <ele>1473</ele>
        <time>2021-08-06T11:08:32.022Z</time>
      </trkpt>
      <trkpt lat="46.94927" lon="8.72005">
        <ele>1474</ele>
        <time>2021-08-06T11:08:33.022Z</time>
      </trkpt>
      <trkpt lat="46.94926" lon="8.72006">
        <ele>1474</ele>
        <time>2021-08-06T11:08:34.021Z</time>
      </trkpt>
      <trkpt lat="46.94925" lon="8.72006">
        <ele>1474</ele>
        <time>2021-08-06T11:08:35.022Z</time>
      </trkpt>
      <trkpt lat="46.94924" lon="8.72007">
        <ele>1474</ele>
        <time>2021-08-06T11:08:36.022Z</time>
      </trkpt>
      <trkpt lat="46.94923" lon="8.72007">
        <ele>1475</ele>
        <time>2021-08-06T11:08:37.021Z</time>
      </trkpt>
      <trkpt lat="46.94922" lon="8.72007">
        <ele>1474</ele>
        <time>2021-08-06T11:08:41.118Z</time>
      </trkpt>
      <trkpt lat="46.94921" lon="8.72008">
        <ele>1474</ele>
        <time>2021-08-06T11:08:42.118Z</time>
      </trkpt>
      <trkpt lat="46.9492" lon="8.72008">
        <ele>1473</ele>
        <time>2021-08-06T11:08:43.119Z</time>
      </trkpt>
      <trkpt lat="46.9492" lon="8.72009">
        <ele>1473</ele>
        <time>2021-08-06T11:08:44.119Z</time>
      </trkpt>
      <trkpt lat="46.94919" lon="8.72009">
        <ele>1473</ele>
        <time>2021-08-06T11:08:48.206Z</time>
      </trkpt>
      <trkpt lat="46.94918" lon="8.7201">
        <ele>1472</ele>
        <time>2021-08-06T11:08:49.206Z</time>
      </trkpt>
      <trkpt lat="46.94916" lon="8.7201">
        <ele>1472</ele>
        <time>2021-08-06T11:08:50.206Z</time>
      </trkpt>
      <trkpt lat="46.94916" lon="8.72011">
        <ele>1472</ele>
        <time>2021-08-06T11:08:51.206Z</time>
      </trkpt>
      <trkpt lat="46.94915" lon="8.72011">
        <ele>1472</ele>
        <time>2021-08-06T11:08:52.205Z</time>
      </trkpt>
      <trkpt lat="46.94914" lon="8.72012">
        <ele>1471</ele>
        <time>2021-08-06T11:08:53.206Z</time>
      </trkpt>
      <trkpt lat="46.94913" lon="8.72013">
        <ele>1471</ele>
        <time>2021-08-06T11:08:54.206Z</time>
      </trkpt>
      <trkpt lat="46.94913" lon="8.72013">
        <ele>1471</ele>
        <time>2021-08-06T11:08:55.206Z</time>
      </trkpt>
      <trkpt lat="46.94912" lon="8.72014">
        <ele>1471</ele>
        <time>2021-08-06T11:08:56.205Z</time>
      </trkpt>
      <trkpt lat="46.94911" lon="8.72015">
        <ele>1471</ele>
        <time>2021-08-06T11:08:57.205Z</time>
      </trkpt>
      <trkpt lat="46.9491" lon="8.72015">
        <ele>1471</ele>
        <time>2021-08-06T11:08:58.205Z</time>
      </trkpt>
      <trkpt lat="46.9491" lon="8.72016">
        <ele>1471</ele>
        <time>2021-08-06T11:08:59.206Z</time>
      </trkpt>
      <trkpt lat="46.94909" lon="8.72016">
        <ele>1471</ele>
        <time>2021-08-06T11:09:00.206Z</time>
      </trkpt>
      <trkpt lat="46.94908" lon="8.72016">
        <ele>1472</ele>
        <time>2021-08-06T11:09:01.206Z</time>
      </trkpt>
      <trkpt lat="46.94907" lon="8.72016">
        <ele>1472</ele>
        <time>2021-08-06T11:09:02.205Z</time>
      </trkpt>
      <trkpt lat="46.94907" lon="8.72016">
        <ele>1472</ele>
        <time>2021-08-06T11:09:03.206Z</time>
      </trkpt>
      <trkpt lat="46.94906" lon="8.72015">
        <ele>1473</ele>
        <time>2021-08-06T11:09:04.206Z</time>
      </trkpt>
      <trkpt lat="46.94905" lon="8.72015">
        <ele>1473</ele>
        <time>2021-08-06T11:09:05.206Z</time>
      </trkpt>
      <trkpt lat="46.94905" lon="8.72015">
        <ele>1474</ele>
        <time>2021-08-06T11:09:06.205Z</time>
      </trkpt>
      <trkpt lat="46.94905" lon="8.72015">
        <ele>1474</ele>
        <time>2021-08-06T11:09:07.206Z</time>
      </trkpt>
      <trkpt lat="46.94904" lon="8.72014">
        <ele>1475</ele>
        <time>2021-08-06T11:09:08.206Z</time>
      </trkpt>
      <trkpt lat="46.94903" lon="8.72012">
        <ele>1475</ele>
        <time>2021-08-06T11:09:09.206Z</time>
      </trkpt>
      <trkpt lat="46.94902" lon="8.72011">
        <ele>1475</ele>
        <time>2021-08-06T11:09:10.206Z</time>
      </trkpt>
      <trkpt lat="46.94901" lon="8.7201">
        <ele>1476</ele>
        <time>2021-08-06T11:09:11.205Z</time>
      </trkpt>
      <trkpt lat="46.949" lon="8.72009">
        <ele>1476</ele>
        <time>2021-08-06T11:09:12.205Z</time>
      </trkpt>
      <trkpt lat="46.94899" lon="8.72008">
        <ele>1476</ele>
        <time>2021-08-06T11:09:13.205Z</time>
      </trkpt>
      <trkpt lat="46.94898" lon="8.72008">
        <ele>1477</ele>
        <time>2021-08-06T11:09:19.357Z</time>
      </trkpt>
      <trkpt lat="46.94897" lon="8.72007">
        <ele>1477</ele>
        <time>2021-08-06T11:09:20.358Z</time>
      </trkpt>
      <trkpt lat="46.94897" lon="8.72007">
        <ele>1477</ele>
        <time>2021-08-06T11:09:21.358Z</time>
      </trkpt>
      <trkpt lat="46.94896" lon="8.72006">
        <ele>1477</ele>
        <time>2021-08-06T11:09:22.358Z</time>
      </trkpt>
      <trkpt lat="46.94896" lon="8.72006">
        <ele>1477</ele>
        <time>2021-08-06T11:09:23.358Z</time>
      </trkpt>
      <trkpt lat="46.94896" lon="8.72005">
        <ele>1477</ele>
        <time>2021-08-06T11:09:24.357Z</time>
      </trkpt>
      <trkpt lat="46.94895" lon="8.72003">
        <ele>1477</ele>
        <time>2021-08-06T11:09:25.357Z</time>
      </trkpt>
      <trkpt lat="46.94895" lon="8.72002">
        <ele>1477</ele>
        <time>2021-08-06T11:09:26.357Z</time>
      </trkpt>
      <trkpt lat="46.94894" lon="8.72001">
        <ele>1477</ele>
        <time>2021-08-06T11:09:27.358Z</time>
      </trkpt>
      <trkpt lat="46.94894" lon="8.72">
        <ele>1477</ele>
        <time>2021-08-06T11:09:28.357Z</time>
      </trkpt>
      <trkpt lat="46.94893" lon="8.71999">
        <ele>1476</ele>
        <time>2021-08-06T11:09:29.358Z</time>
      </trkpt>
      <trkpt lat="46.94892" lon="8.71997">
        <ele>1476</ele>
        <time>2021-08-06T11:09:30.358Z</time>
      </trkpt>
      <trkpt lat="46.94892" lon="8.71996">
        <ele>1476</ele>
        <time>2021-08-06T11:09:31.357Z</time>
      </trkpt>
      <trkpt lat="46.94891" lon="8.71995">
        <ele>1476</ele>
        <time>2021-08-06T11:09:32.358Z</time>
      </trkpt>
      <trkpt lat="46.9489" lon="8.71995">
        <ele>1476</ele>
        <time>2021-08-06T11:09:33.357Z</time>
      </trkpt>
      <trkpt lat="46.9489" lon="8.71994">
        <ele>1477</ele>
        <time>2021-08-06T11:09:36.456Z</time>
      </trkpt>
      <trkpt lat="46.94889" lon="8.71993">
        <ele>1477</ele>
        <time>2021-08-06T11:09:37.455Z</time>
      </trkpt>
      <trkpt lat="46.94888" lon="8.71994">
        <ele>1478</ele>
        <time>2021-08-06T11:09:38.456Z</time>
      </trkpt>
      <trkpt lat="46.94887" lon="8.71993">
        <ele>1478</ele>
        <time>2021-08-06T11:09:39.456Z</time>
      </trkpt>
      <trkpt lat="46.94887" lon="8.71993">
        <ele>1478</ele>
        <time>2021-08-06T11:09:41.443Z</time>
      </trkpt>
      <trkpt lat="46.94886" lon="8.71992">
        <ele>1478</ele>
        <time>2021-08-06T11:09:42.443Z</time>
      </trkpt>
      <trkpt lat="46.94886" lon="8.71992">
        <ele>1478</ele>
        <time>2021-08-06T11:09:43.442Z</time>
      </trkpt>
      <trkpt lat="46.94885" lon="8.71991">
        <ele>1478</ele>
        <time>2021-08-06T11:09:44.443Z</time>
      </trkpt>
      <trkpt lat="46.94885" lon="8.7199">
        <ele>1478</ele>
        <time>2021-08-06T11:09:45.443Z</time>
      </trkpt>
      <trkpt lat="46.94885" lon="8.71988">
        <ele>1479</ele>
        <time>2021-08-06T11:09:46.443Z</time>
      </trkpt>
      <trkpt lat="46.94885" lon="8.71987">
        <ele>1478</ele>
        <time>2021-08-06T11:09:47.443Z</time>
      </trkpt>
      <trkpt lat="46.94885" lon="8.71986">
        <ele>1478</ele>
        <time>2021-08-06T11:09:48.442Z</time>
      </trkpt>
      <trkpt lat="46.94885" lon="8.71985">
        <ele>1478</ele>
        <time>2021-08-06T11:09:49.443Z</time>
      </trkpt>
      <trkpt lat="46.94884" lon="8.71983">
        <ele>1478</ele>
        <time>2021-08-06T11:09:50.443Z</time>
      </trkpt>
      <trkpt lat="46.94884" lon="8.71983">
        <ele>1478</ele>
        <time>2021-08-06T11:09:51.442Z</time>
      </trkpt>
      <trkpt lat="46.94883" lon="8.71982">
        <ele>1478</ele>
        <time>2021-08-06T11:09:52.442Z</time>
      </trkpt>
      <trkpt lat="46.94882" lon="8.71982">
        <ele>1478</ele>
        <time>2021-08-06T11:09:53.443Z</time>
      </trkpt>
      <trkpt lat="46.94882" lon="8.71982">
        <ele>1478</ele>
        <time>2021-08-06T11:09:54.442Z</time>
      </trkpt>
      <trkpt lat="46.94881" lon="8.71982">
        <ele>1478</ele>
        <time>2021-08-06T11:09:55.443Z</time>
      </trkpt>
      <trkpt lat="46.9488" lon="8.71982">
        <ele>1479</ele>
        <time>2021-08-06T11:09:56.443Z</time>
      </trkpt>
      <trkpt lat="46.9488" lon="8.71981">
        <ele>1479</ele>
        <time>2021-08-06T11:09:57.443Z</time>
      </trkpt>
      <trkpt lat="46.94878" lon="8.71981">
        <ele>1480</ele>
        <time>2021-08-06T11:09:58.443Z</time>
      </trkpt>
      <trkpt lat="46.94877" lon="8.71981">
        <ele>1480</ele>
        <time>2021-08-06T11:09:59.442Z</time>
      </trkpt>
      <trkpt lat="46.94877" lon="8.7198">
        <ele>1480</ele>
        <time>2021-08-06T11:10:00.442Z</time>
      </trkpt>
      <trkpt lat="46.94876" lon="8.7198">
        <ele>1480</ele>
        <time>2021-08-06T11:10:01.443Z</time>
      </trkpt>
      <trkpt lat="46.94876" lon="8.71979">
        <ele>1480</ele>
        <time>2021-08-06T11:10:02.443Z</time>
      </trkpt>
      <trkpt lat="46.94876" lon="8.71978">
        <ele>1480</ele>
        <time>2021-08-06T11:10:03.443Z</time>
      </trkpt>
      <trkpt lat="46.94876" lon="8.71978">
        <ele>1480</ele>
        <time>2021-08-06T11:10:04.442Z</time>
      </trkpt>
      <trkpt lat="46.94876" lon="8.71977">
        <ele>1480</ele>
        <time>2021-08-06T11:10:05.443Z</time>
      </trkpt>
      <trkpt lat="46.94876" lon="8.71977">
        <ele>1480</ele>
        <time>2021-08-06T11:10:06.442Z</time>
      </trkpt>
      <trkpt lat="46.94876" lon="8.71977">
        <ele>1479</ele>
        <time>2021-08-06T11:10:07.442Z</time>
      </trkpt>
      <trkpt lat="46.94874" lon="8.71977">
        <ele>1479</ele>
        <time>2021-08-06T11:10:08.442Z</time>
      </trkpt>
      <trkpt lat="46.94874" lon="8.71976">
        <ele>1479</ele>
        <time>2021-08-06T11:10:09.443Z</time>
      </trkpt>
      <trkpt lat="46.94873" lon="8.71975">
        <ele>1479</ele>
        <time>2021-08-06T11:10:10.442Z</time>
      </trkpt>
      <trkpt lat="46.94872" lon="8.71974">
        <ele>1479</ele>
        <time>2021-08-06T11:10:11.443Z</time>
      </trkpt>
      <trkpt lat="46.94871" lon="8.71974">
        <ele>1479</ele>
        <time>2021-08-06T11:10:12.443Z</time>
      </trkpt>
      <trkpt lat="46.9487" lon="8.71973">
        <ele>1479</ele>
        <time>2021-08-06T11:10:13.443Z</time>
      </trkpt>
      <trkpt lat="46.9487" lon="8.71973">
        <ele>1478</ele>
        <time>2021-08-06T11:10:14.443Z</time>
      </trkpt>
      <trkpt lat="46.94869" lon="8.71973">
        <ele>1478</ele>
        <time>2021-08-06T11:10:18.627Z</time>
      </trkpt>
      <trkpt lat="46.94868" lon="8.71973">
        <ele>1479</ele>
        <time>2021-08-06T11:10:19.626Z</time>
      </trkpt>
      <trkpt lat="46.94867" lon="8.71973">
        <ele>1479</ele>
        <time>2021-08-06T11:10:20.627Z</time>
      </trkpt>
      <trkpt lat="46.94868" lon="8.71973">
        <ele>1480</ele>
        <time>2021-08-06T11:10:21.627Z</time>
      </trkpt>
      <trkpt lat="46.94868" lon="8.71973">
        <ele>1481</ele>
        <time>2021-08-06T11:10:27.754Z</time>
      </trkpt>
      <trkpt lat="46.94869" lon="8.71973">
        <ele>1481</ele>
        <time>2021-08-06T11:10:28.753Z</time>
      </trkpt>
      <trkpt lat="46.9487" lon="8.71972">
        <ele>1481</ele>
        <time>2021-08-06T11:10:29.753Z</time>
      </trkpt>
      <trkpt lat="46.9487" lon="8.71972">
        <ele>1480</ele>
        <time>2021-08-06T11:10:39.833Z</time>
      </trkpt>
      <trkpt lat="46.9487" lon="8.71972">
        <ele>1480</ele>
        <time>2021-08-06T11:10:40.833Z</time>
      </trkpt>
      <trkpt lat="46.94868" lon="8.71971">
        <ele>1481</ele>
        <time>2021-08-06T11:10:41.834Z</time>
      </trkpt>
      <trkpt lat="46.94868" lon="8.71971">
        <ele>1481</ele>
        <time>2021-08-06T11:10:47.877Z</time>
      </trkpt>
      <trkpt lat="46.94868" lon="8.71972">
        <ele>1481</ele>
        <time>2021-08-06T11:10:48.876Z</time>
      </trkpt>
      <trkpt lat="46.94868" lon="8.71973">
        <ele>1481</ele>
        <time>2021-08-06T11:10:49.877Z</time>
      </trkpt>
      <trkpt lat="46.94868" lon="8.71973">
        <ele>1481</ele>
        <time>2021-08-06T11:10:50.876Z</time>
      </trkpt>
      <trkpt lat="46.94868" lon="8.71974">
        <ele>1480</ele>
        <time>2021-08-06T11:10:51.877Z</time>
      </trkpt>
      <trkpt lat="46.94869" lon="8.71975">
        <ele>1480</ele>
        <time>2021-08-06T11:10:52.876Z</time>
      </trkpt>
      <trkpt lat="46.94867" lon="8.71971">
        <ele>1477</ele>
        <time>2021-08-06T11:10:53.878Z</time>
      </trkpt>
      <trkpt lat="46.94867" lon="8.71971">
        <ele>1478</ele>
        <time>2021-08-06T11:10:55.978Z</time>
      </trkpt>
      <trkpt lat="46.94866" lon="8.71972">
        <ele>1478</ele>
        <time>2021-08-06T11:10:56.977Z</time>
      </trkpt>
      <trkpt lat="46.94865" lon="8.71974">
        <ele>1478</ele>
        <time>2021-08-06T11:10:57.978Z</time>
      </trkpt>
      <trkpt lat="46.94865" lon="8.71975">
        <ele>1478</ele>
        <time>2021-08-06T11:10:58.979Z</time>
      </trkpt>
      <trkpt lat="46.94865" lon="8.71975">
        <ele>1478</ele>
        <time>2021-08-06T11:10:59.978Z</time>
      </trkpt>
      <trkpt lat="46.94865" lon="8.71974">
        <ele>1478</ele>
        <time>2021-08-06T11:11:00.979Z</time>
      </trkpt>
      <trkpt lat="46.94865" lon="8.71973">
        <ele>1477</ele>
        <time>2021-08-06T11:11:01.979Z</time>
      </trkpt>
      <trkpt lat="46.94865" lon="8.71973">
        <ele>1477</ele>
        <time>2021-08-06T11:11:02.979Z</time>
      </trkpt>
      <trkpt lat="46.94865" lon="8.71972">
        <ele>1476</ele>
        <time>2021-08-06T11:11:26.091Z</time>
      </trkpt>
      <trkpt lat="46.94864" lon="8.71971">
        <ele>1475</ele>
        <time>2021-08-06T11:11:27.090Z</time>
      </trkpt>
      <trkpt lat="46.94864" lon="8.71971">
        <ele>1475</ele>
        <time>2021-08-06T11:11:28.091Z</time>
      </trkpt>
      <trkpt lat="46.94863" lon="8.7197">
        <ele>1475</ele>
        <time>2021-08-06T11:11:37.215Z</time>
      </trkpt>
      <trkpt lat="46.94863" lon="8.71969">
        <ele>1475</ele>
        <time>2021-08-06T11:11:38.215Z</time>
      </trkpt>
      <trkpt lat="46.94862" lon="8.71969">
        <ele>1475</ele>
        <time>2021-08-06T11:11:39.216Z</time>
      </trkpt>
      <trkpt lat="46.94862" lon="8.71968">
        <ele>1475</ele>
        <time>2021-08-06T11:11:40.216Z</time>
      </trkpt>
      <trkpt lat="46.94863" lon="8.71968">
        <ele>1475</ele>
        <time>2021-08-06T11:11:41.216Z</time>
      </trkpt>
      <trkpt lat="46.94862" lon="8.71967">
        <ele>1475</ele>
        <time>2021-08-06T11:11:42.216Z</time>
      </trkpt>
      <trkpt lat="46.94862" lon="8.71966">
        <ele>1475</ele>
        <time>2021-08-06T11:12:06.371Z</time>
      </trkpt>
      <trkpt lat="46.94861" lon="8.71965">
        <ele>1475</ele>
        <time>2021-08-06T11:12:07.371Z</time>
      </trkpt>
      <trkpt lat="46.94861" lon="8.71964">
        <ele>1475</ele>
        <time>2021-08-06T11:12:08.372Z</time>
      </trkpt>
      <trkpt lat="46.94861" lon="8.71963">
        <ele>1476</ele>
        <time>2021-08-06T11:12:26.466Z</time>
      </trkpt>
      <trkpt lat="46.9486" lon="8.71963">
        <ele>1476</ele>
        <time>2021-08-06T11:12:27.467Z</time>
      </trkpt>
      <trkpt lat="46.9486" lon="8.71964">
        <ele>1476</ele>
        <time>2021-08-06T11:12:28.466Z</time>
      </trkpt>
      <trkpt lat="46.94861" lon="8.71962">
        <ele>1479</ele>
        <time>2021-08-06T11:12:29.467Z</time>
      </trkpt>
      <trkpt lat="46.94861" lon="8.71961">
        <ele>1479</ele>
        <time>2021-08-06T11:12:30.467Z</time>
      </trkpt>
      <trkpt lat="46.9486" lon="8.7196">
        <ele>1479</ele>
        <time>2021-08-06T11:12:31.466Z</time>
      </trkpt>
      <trkpt lat="46.9486" lon="8.7196">
        <ele>1480</ele>
        <time>2021-08-06T11:12:32.466Z</time>
      </trkpt>
      <trkpt lat="46.94859" lon="8.71959">
        <ele>1480</ele>
        <time>2021-08-06T11:12:33.466Z</time>
      </trkpt>
      <trkpt lat="46.94858" lon="8.71958">
        <ele>1480</ele>
        <time>2021-08-06T11:12:34.466Z</time>
      </trkpt>
      <trkpt lat="46.94857" lon="8.71957">
        <ele>1480</ele>
        <time>2021-08-06T11:12:35.466Z</time>
      </trkpt>
      <trkpt lat="46.94857" lon="8.71956">
        <ele>1480</ele>
        <time>2021-08-06T11:12:36.467Z</time>
      </trkpt>
      <trkpt lat="46.94856" lon="8.71955">
        <ele>1480</ele>
        <time>2021-08-06T11:12:37.467Z</time>
      </trkpt>
      <trkpt lat="46.94856" lon="8.71954">
        <ele>1480</ele>
        <time>2021-08-06T11:12:38.467Z</time>
      </trkpt>
      <trkpt lat="46.94855" lon="8.71954">
        <ele>1480</ele>
        <time>2021-08-06T11:12:39.467Z</time>
      </trkpt>
      <trkpt lat="46.94854" lon="8.71953">
        <ele>1480</ele>
        <time>2021-08-06T11:12:40.467Z</time>
      </trkpt>
      <trkpt lat="46.94854" lon="8.71953">
        <ele>1480</ele>
        <time>2021-08-06T11:12:41.466Z</time>
      </trkpt>
      <trkpt lat="46.94853" lon="8.71952">
        <ele>1480</ele>
        <time>2021-08-06T11:12:51.611Z</time>
      </trkpt>
      <trkpt lat="46.94853" lon="8.71952">
        <ele>1479</ele>
        <time>2021-08-06T11:12:52.612Z</time>
      </trkpt>
      <trkpt lat="46.94851" lon="8.71951">
        <ele>1479</ele>
        <time>2021-08-06T11:12:53.612Z</time>
      </trkpt>
      <trkpt lat="46.94851" lon="8.7195">
        <ele>1479</ele>
        <time>2021-08-06T11:12:54.612Z</time>
      </trkpt>
      <trkpt lat="46.9485" lon="8.71949">
        <ele>1479</ele>
        <time>2021-08-06T11:13:03.760Z</time>
      </trkpt>
      <trkpt lat="46.94849" lon="8.71948">
        <ele>1478</ele>
        <time>2021-08-06T11:13:19.616Z</time>
      </trkpt>
      <trkpt lat="46.94848" lon="8.71948">
        <ele>1478</ele>
        <time>2021-08-06T11:13:55.452Z</time>
      </trkpt>
      <trkpt lat="46.94847" lon="8.71948">
        <ele>1477</ele>
        <time>2021-08-06T11:13:56.453Z</time>
      </trkpt>
      <trkpt lat="46.94846" lon="8.71947">
        <ele>1477</ele>
        <time>2021-08-06T11:14:09.269Z</time>
      </trkpt>
      <trkpt lat="46.94845" lon="8.71946">
        <ele>1477</ele>
        <time>2021-08-06T11:14:10.270Z</time>
      </trkpt>
      <trkpt lat="46.94844" lon="8.71946">
        <ele>1476</ele>
        <time>2021-08-06T11:14:11.270Z</time>
      </trkpt>
      <trkpt lat="46.94842" lon="8.71945">
        <ele>1476</ele>
        <time>2021-08-06T11:14:12.270Z</time>
      </trkpt>
      <trkpt lat="46.94841" lon="8.71945">
        <ele>1475</ele>
        <time>2021-08-06T11:14:13.269Z</time>
      </trkpt>
      <trkpt lat="46.9484" lon="8.71944">
        <ele>1475</ele>
        <time>2021-08-06T11:14:14.270Z</time>
      </trkpt>
      <trkpt lat="46.94839" lon="8.71944">
        <ele>1475</ele>
        <time>2021-08-06T11:14:15.270Z</time>
      </trkpt>
      <trkpt lat="46.94838" lon="8.71944">
        <ele>1475</ele>
        <time>2021-08-06T11:14:16.269Z</time>
      </trkpt>
      <trkpt lat="46.94837" lon="8.71943">
        <ele>1475</ele>
        <time>2021-08-06T11:14:17.270Z</time>
      </trkpt>
      <trkpt lat="46.94837" lon="8.71943">
        <ele>1475</ele>
        <time>2021-08-06T11:14:18.269Z</time>
      </trkpt>
      <trkpt lat="46.94836" lon="8.71942">
        <ele>1475</ele>
        <time>2021-08-06T11:14:19.270Z</time>
      </trkpt>
      <trkpt lat="46.94835" lon="8.71942">
        <ele>1475</ele>
        <time>2021-08-06T11:14:20.270Z</time>
      </trkpt>
      <trkpt lat="46.94835" lon="8.71942">
        <ele>1475</ele>
        <time>2021-08-06T11:14:21.270Z</time>
      </trkpt>
      <trkpt lat="46.94834" lon="8.71941">
        <ele>1475</ele>
        <time>2021-08-06T11:14:22.270Z</time>
      </trkpt>
      <trkpt lat="46.94833" lon="8.71941">
        <ele>1475</ele>
        <time>2021-08-06T11:14:23.269Z</time>
      </trkpt>
      <trkpt lat="46.94832" lon="8.7194">
        <ele>1476</ele>
        <time>2021-08-06T11:14:24.270Z</time>
      </trkpt>
      <trkpt lat="46.94831" lon="8.71939">
        <ele>1476</ele>
        <time>2021-08-06T11:14:25.269Z</time>
      </trkpt>
      <trkpt lat="46.94831" lon="8.71938">
        <ele>1476</ele>
        <time>2021-08-06T11:14:26.270Z</time>
      </trkpt>
      <trkpt lat="46.9483" lon="8.71937">
        <ele>1477</ele>
        <time>2021-08-06T11:14:27.269Z</time>
      </trkpt>
      <trkpt lat="46.94829" lon="8.71936">
        <ele>1477</ele>
        <time>2021-08-06T11:14:28.269Z</time>
      </trkpt>
      <trkpt lat="46.94828" lon="8.71935">
        <ele>1477</ele>
        <time>2021-08-06T11:14:29.270Z</time>
      </trkpt>
      <trkpt lat="46.94828" lon="8.71934">
        <ele>1478</ele>
        <time>2021-08-06T11:14:30.270Z</time>
      </trkpt>
      <trkpt lat="46.94827" lon="8.71934">
        <ele>1478</ele>
        <time>2021-08-06T11:14:31.269Z</time>
      </trkpt>
      <trkpt lat="46.94827" lon="8.71933">
        <ele>1478</ele>
        <time>2021-08-06T11:14:32.269Z</time>
      </trkpt>
      <trkpt lat="46.94826" lon="8.71932">
        <ele>1479</ele>
        <time>2021-08-06T11:14:33.269Z</time>
      </trkpt>
      <trkpt lat="46.94825" lon="8.71931">
        <ele>1479</ele>
        <time>2021-08-06T11:14:34.270Z</time>
      </trkpt>
      <trkpt lat="46.94823" lon="8.7193">
        <ele>1479</ele>
        <time>2021-08-06T11:14:35.269Z</time>
      </trkpt>
      <trkpt lat="46.94823" lon="8.71929">
        <ele>1479</ele>
        <time>2021-08-06T11:14:36.270Z</time>
      </trkpt>
      <trkpt lat="46.94822" lon="8.71928">
        <ele>1479</ele>
        <time>2021-08-06T11:14:37.269Z</time>
      </trkpt>
      <trkpt lat="46.94821" lon="8.71927">
        <ele>1479</ele>
        <time>2021-08-06T11:14:38.269Z</time>
      </trkpt>
      <trkpt lat="46.94821" lon="8.71926">
        <ele>1480</ele>
        <time>2021-08-06T11:14:39.270Z</time>
      </trkpt>
      <trkpt lat="46.94821" lon="8.71925">
        <ele>1480</ele>
        <time>2021-08-06T11:14:40.269Z</time>
      </trkpt>
      <trkpt lat="46.9482" lon="8.71924">
        <ele>1480</ele>
        <time>2021-08-06T11:14:41.270Z</time>
      </trkpt>
      <trkpt lat="46.9482" lon="8.71923">
        <ele>1480</ele>
        <time>2021-08-06T11:14:42.269Z</time>
      </trkpt>
      <trkpt lat="46.9482" lon="8.71922">
        <ele>1480</ele>
        <time>2021-08-06T11:14:43.269Z</time>
      </trkpt>
      <trkpt lat="46.94819" lon="8.71921">
        <ele>1481</ele>
        <time>2021-08-06T11:14:44.269Z</time>
      </trkpt>
      <trkpt lat="46.94819" lon="8.7192">
        <ele>1481</ele>
        <time>2021-08-06T11:14:45.270Z</time>
      </trkpt>
      <trkpt lat="46.94819" lon="8.71919">
        <ele>1481</ele>
        <time>2021-08-06T11:14:46.269Z</time>
      </trkpt>
      <trkpt lat="46.94819" lon="8.71917">
        <ele>1482</ele>
        <time>2021-08-06T11:14:47.269Z</time>
      </trkpt>
      <trkpt lat="46.94818" lon="8.71916">
        <ele>1482</ele>
        <time>2021-08-06T11:14:48.269Z</time>
      </trkpt>
      <trkpt lat="46.94817" lon="8.71916">
        <ele>1482</ele>
        <time>2021-08-06T11:14:49.270Z</time>
      </trkpt>
      <trkpt lat="46.94817" lon="8.71915">
        <ele>1482</ele>
        <time>2021-08-06T11:14:50.269Z</time>
      </trkpt>
      <trkpt lat="46.94816" lon="8.71914">
        <ele>1482</ele>
        <time>2021-08-06T11:14:51.269Z</time>
      </trkpt>
      <trkpt lat="46.94815" lon="8.71913">
        <ele>1482</ele>
        <time>2021-08-06T11:14:52.269Z</time>
      </trkpt>
      <trkpt lat="46.94815" lon="8.71912">
        <ele>1481</ele>
        <time>2021-08-06T11:14:53.270Z</time>
      </trkpt>
      <trkpt lat="46.94815" lon="8.71911">
        <ele>1481</ele>
        <time>2021-08-06T11:14:54.269Z</time>
      </trkpt>
      <trkpt lat="46.94815" lon="8.7191">
        <ele>1481</ele>
        <time>2021-08-06T11:14:55.269Z</time>
      </trkpt>
      <trkpt lat="46.94814" lon="8.71909">
        <ele>1481</ele>
        <time>2021-08-06T11:14:56.270Z</time>
      </trkpt>
      <trkpt lat="46.94813" lon="8.71908">
        <ele>1481</ele>
        <time>2021-08-06T11:14:57.270Z</time>
      </trkpt>
      <trkpt lat="46.94813" lon="8.71907">
        <ele>1481</ele>
        <time>2021-08-06T11:14:58.270Z</time>
      </trkpt>
      <trkpt lat="46.94812" lon="8.71906">
        <ele>1480</ele>
        <time>2021-08-06T11:14:59.270Z</time>
      </trkpt>
      <trkpt lat="46.94812" lon="8.71905">
        <ele>1480</ele>
        <time>2021-08-06T11:15:00.269Z</time>
      </trkpt>
      <trkpt lat="46.94811" lon="8.71904">
        <ele>1480</ele>
        <time>2021-08-06T11:15:01.270Z</time>
      </trkpt>
      <trkpt lat="46.94811" lon="8.71902">
        <ele>1480</ele>
        <time>2021-08-06T11:15:02.270Z</time>
      </trkpt>
      <trkpt lat="46.9481" lon="8.71901">
        <ele>1480</ele>
        <time>2021-08-06T11:15:03.270Z</time>
      </trkpt>
      <trkpt lat="46.94809" lon="8.71901">
        <ele>1480</ele>
        <time>2021-08-06T11:15:04.270Z</time>
      </trkpt>
      <trkpt lat="46.94808" lon="8.719">
        <ele>1480</ele>
        <time>2021-08-06T11:15:06.350Z</time>
      </trkpt>
      <trkpt lat="46.94808" lon="8.71899">
        <ele>1481</ele>
        <time>2021-08-06T11:15:13.186Z</time>
      </trkpt>
      <trkpt lat="46.94807" lon="8.71899">
        <ele>1480</ele>
        <time>2021-08-06T11:15:14.186Z</time>
      </trkpt>
      <trkpt lat="46.94807" lon="8.71898">
        <ele>1480</ele>
        <time>2021-08-06T11:15:15.186Z</time>
      </trkpt>
      <trkpt lat="46.94806" lon="8.71896">
        <ele>1480</ele>
        <time>2021-08-06T11:15:16.187Z</time>
      </trkpt>
      <trkpt lat="46.94805" lon="8.71894">
        <ele>1480</ele>
        <time>2021-08-06T11:15:17.187Z</time>
      </trkpt>
      <trkpt lat="46.94804" lon="8.71893">
        <ele>1480</ele>
        <time>2021-08-06T11:15:18.186Z</time>
      </trkpt>
      <trkpt lat="46.94803" lon="8.71892">
        <ele>1480</ele>
        <time>2021-08-06T11:15:19.187Z</time>
      </trkpt>
      <trkpt lat="46.94802" lon="8.71891">
        <ele>1480</ele>
        <time>2021-08-06T11:15:20.187Z</time>
      </trkpt>
      <trkpt lat="46.94801" lon="8.7189">
        <ele>1480</ele>
        <time>2021-08-06T11:15:21.186Z</time>
      </trkpt>
      <trkpt lat="46.94801" lon="8.71888">
        <ele>1481</ele>
        <time>2021-08-06T11:15:25.225Z</time>
      </trkpt>
      <trkpt lat="46.948" lon="8.71887">
        <ele>1481</ele>
        <time>2021-08-06T11:15:26.225Z</time>
      </trkpt>
      <trkpt lat="46.94799" lon="8.71885">
        <ele>1481</ele>
        <time>2021-08-06T11:15:27.226Z</time>
      </trkpt>
      <trkpt lat="46.94799" lon="8.71884">
        <ele>1482</ele>
        <time>2021-08-06T11:15:28.226Z</time>
      </trkpt>
      <trkpt lat="46.94798" lon="8.71883">
        <ele>1482</ele>
        <time>2021-08-06T11:15:29.226Z</time>
      </trkpt>
      <trkpt lat="46.94798" lon="8.71882">
        <ele>1482</ele>
        <time>2021-08-06T11:15:30.225Z</time>
      </trkpt>
      <trkpt lat="46.94797" lon="8.71881">
        <ele>1482</ele>
        <time>2021-08-06T11:15:31.226Z</time>
      </trkpt>
      <trkpt lat="46.94796" lon="8.7188">
        <ele>1482</ele>
        <time>2021-08-06T11:15:32.226Z</time>
      </trkpt>
      <trkpt lat="46.94795" lon="8.71878">
        <ele>1482</ele>
        <time>2021-08-06T11:15:33.225Z</time>
      </trkpt>
      <trkpt lat="46.94794" lon="8.71877">
        <ele>1481</ele>
        <time>2021-08-06T11:15:34.226Z</time>
      </trkpt>
      <trkpt lat="46.94793" lon="8.71876">
        <ele>1481</ele>
        <time>2021-08-06T11:15:35.225Z</time>
      </trkpt>
      <trkpt lat="46.94792" lon="8.71875">
        <ele>1481</ele>
        <time>2021-08-06T11:15:36.226Z</time>
      </trkpt>
      <trkpt lat="46.94791" lon="8.71874">
        <ele>1480</ele>
        <time>2021-08-06T11:15:37.225Z</time>
      </trkpt>
      <trkpt lat="46.9479" lon="8.71873">
        <ele>1480</ele>
        <time>2021-08-06T11:15:38.226Z</time>
      </trkpt>
      <trkpt lat="46.9479" lon="8.71872">
        <ele>1480</ele>
        <time>2021-08-06T11:15:39.225Z</time>
      </trkpt>
      <trkpt lat="46.94789" lon="8.71871">
        <ele>1480</ele>
        <time>2021-08-06T11:15:40.226Z</time>
      </trkpt>
      <trkpt lat="46.94789" lon="8.71871">
        <ele>1480</ele>
        <time>2021-08-06T11:15:41.226Z</time>
      </trkpt>
      <trkpt lat="46.94788" lon="8.7187">
        <ele>1480</ele>
        <time>2021-08-06T11:15:42.225Z</time>
      </trkpt>
      <trkpt lat="46.94788" lon="8.7187">
        <ele>1479</ele>
        <time>2021-08-06T11:15:43.225Z</time>
      </trkpt>
      <trkpt lat="46.94787" lon="8.71869">
        <ele>1479</ele>
        <time>2021-08-06T11:15:44.226Z</time>
      </trkpt>
      <trkpt lat="46.94787" lon="8.71868">
        <ele>1479</ele>
        <time>2021-08-06T11:15:45.226Z</time>
      </trkpt>
      <trkpt lat="46.94786" lon="8.71867">
        <ele>1478</ele>
        <time>2021-08-06T11:15:46.226Z</time>
      </trkpt>
      <trkpt lat="46.94785" lon="8.71866">
        <ele>1478</ele>
        <time>2021-08-06T11:15:47.226Z</time>
      </trkpt>
      <trkpt lat="46.94784" lon="8.71865">
        <ele>1478</ele>
        <time>2021-08-06T11:15:48.225Z</time>
      </trkpt>
      <trkpt lat="46.94784" lon="8.71864">
        <ele>1479</ele>
        <time>2021-08-06T11:15:49.225Z</time>
      </trkpt>
      <trkpt lat="46.94784" lon="8.71863">
        <ele>1479</ele>
        <time>2021-08-06T11:15:50.225Z</time>
      </trkpt>
      <trkpt lat="46.94783" lon="8.71862">
        <ele>1480</ele>
        <time>2021-08-06T11:15:51.225Z</time>
      </trkpt>
      <trkpt lat="46.94782" lon="8.71861">
        <ele>1480</ele>
        <time>2021-08-06T11:15:52.226Z</time>
      </trkpt>
      <trkpt lat="46.94782" lon="8.7186">
        <ele>1480</ele>
        <time>2021-08-06T11:15:53.226Z</time>
      </trkpt>
      <trkpt lat="46.94781" lon="8.71859">
        <ele>1481</ele>
        <time>2021-08-06T11:15:54.226Z</time>
      </trkpt>
      <trkpt lat="46.9478" lon="8.71858">
        <ele>1481</ele>
        <time>2021-08-06T11:15:55.225Z</time>
      </trkpt>
      <trkpt lat="46.94779" lon="8.71858">
        <ele>1481</ele>
        <time>2021-08-06T11:15:56.226Z</time>
      </trkpt>
      <trkpt lat="46.94778" lon="8.71858">
        <ele>1481</ele>
        <time>2021-08-06T11:15:57.225Z</time>
      </trkpt>
      <trkpt lat="46.94777" lon="8.71858">
        <ele>1481</ele>
        <time>2021-08-06T11:15:58.225Z</time>
      </trkpt>
      <trkpt lat="46.94776" lon="8.71858">
        <ele>1480</ele>
        <time>2021-08-06T11:15:59.225Z</time>
      </trkpt>
      <trkpt lat="46.94775" lon="8.71858">
        <ele>1479</ele>
        <time>2021-08-06T11:16:00.226Z</time>
      </trkpt>
      <trkpt lat="46.94774" lon="8.71857">
        <ele>1479</ele>
        <time>2021-08-06T11:16:01.225Z</time>
      </trkpt>
      <trkpt lat="46.94773" lon="8.71856">
        <ele>1479</ele>
        <time>2021-08-06T11:16:02.226Z</time>
      </trkpt>
      <trkpt lat="46.94772" lon="8.71855">
        <ele>1479</ele>
        <time>2021-08-06T11:16:03.226Z</time>
      </trkpt>
      <trkpt lat="46.94771" lon="8.71854">
        <ele>1479</ele>
        <time>2021-08-06T11:16:04.226Z</time>
      </trkpt>
      <trkpt lat="46.94771" lon="8.71853">
        <ele>1479</ele>
        <time>2021-08-06T11:16:05.225Z</time>
      </trkpt>
      <trkpt lat="46.9477" lon="8.71852">
        <ele>1479</ele>
        <time>2021-08-06T11:16:06.225Z</time>
      </trkpt>
      <trkpt lat="46.9477" lon="8.71851">
        <ele>1479</ele>
        <time>2021-08-06T11:16:07.226Z</time>
      </trkpt>
      <trkpt lat="46.9477" lon="8.71849">
        <ele>1479</ele>
        <time>2021-08-06T11:16:08.225Z</time>
      </trkpt>
      <trkpt lat="46.94769" lon="8.71848">
        <ele>1479</ele>
        <time>2021-08-06T11:16:09.225Z</time>
      </trkpt>
      <trkpt lat="46.94768" lon="8.71847">
        <ele>1480</ele>
        <time>2021-08-06T11:16:10.225Z</time>
      </trkpt>
      <trkpt lat="46.94767" lon="8.71846">
        <ele>1479</ele>
        <time>2021-08-06T11:16:11.226Z</time>
      </trkpt>
      <trkpt lat="46.94766" lon="8.71845">
        <ele>1479</ele>
        <time>2021-08-06T11:16:12.226Z</time>
      </trkpt>
      <trkpt lat="46.94764" lon="8.71844">
        <ele>1478</ele>
        <time>2021-08-06T11:16:13.225Z</time>
      </trkpt>
      <trkpt lat="46.94763" lon="8.71844">
        <ele>1478</ele>
        <time>2021-08-06T11:16:14.226Z</time>
      </trkpt>
      <trkpt lat="46.94762" lon="8.71844">
        <ele>1477</ele>
        <time>2021-08-06T11:16:17.324Z</time>
      </trkpt>
      <trkpt lat="46.94762" lon="8.71844">
        <ele>1477</ele>
        <time>2021-08-06T11:16:18.325Z</time>
      </trkpt>
      <trkpt lat="46.94761" lon="8.71843">
        <ele>1477</ele>
        <time>2021-08-06T11:16:19.324Z</time>
      </trkpt>
      <trkpt lat="46.9476" lon="8.71842">
        <ele>1476</ele>
        <time>2021-08-06T11:16:20.325Z</time>
      </trkpt>
      <trkpt lat="46.9476" lon="8.71842">
        <ele>1477</ele>
        <time>2021-08-06T11:16:21.324Z</time>
      </trkpt>
      <trkpt lat="46.9476" lon="8.71841">
        <ele>1477</ele>
        <time>2021-08-06T11:16:22.325Z</time>
      </trkpt>
      <trkpt lat="46.94759" lon="8.71841">
        <ele>1477</ele>
        <time>2021-08-06T11:16:23.325Z</time>
      </trkpt>
      <trkpt lat="46.94758" lon="8.7184">
        <ele>1476</ele>
        <time>2021-08-06T11:16:24.325Z</time>
      </trkpt>
      <trkpt lat="46.94758" lon="8.7184">
        <ele>1476</ele>
        <time>2021-08-06T11:16:25.325Z</time>
      </trkpt>
      <trkpt lat="46.94758" lon="8.7184">
        <ele>1476</ele>
        <time>2021-08-06T11:16:26.324Z</time>
      </trkpt>
      <trkpt lat="46.94757" lon="8.71838">
        <ele>1476</ele>
        <time>2021-08-06T11:16:27.325Z</time>
      </trkpt>
      <trkpt lat="46.94757" lon="8.71837">
        <ele>1476</ele>
        <time>2021-08-06T11:16:28.324Z</time>
      </trkpt>
      <trkpt lat="46.94756" lon="8.71836">
        <ele>1475</ele>
        <time>2021-08-06T11:16:29.324Z</time>
      </trkpt>
      <trkpt lat="46.94755" lon="8.71835">
        <ele>1475</ele>
        <time>2021-08-06T11:16:43.313Z</time>
      </trkpt>
      <trkpt lat="46.94755" lon="8.71833">
        <ele>1475</ele>
        <time>2021-08-06T11:16:44.312Z</time>
      </trkpt>
      <trkpt lat="46.94754" lon="8.71832">
        <ele>1475</ele>
        <time>2021-08-06T11:16:45.313Z</time>
      </trkpt>
      <trkpt lat="46.94753" lon="8.71831">
        <ele>1475</ele>
        <time>2021-08-06T11:16:46.313Z</time>
      </trkpt>
      <trkpt lat="46.94751" lon="8.7183">
        <ele>1475</ele>
        <time>2021-08-06T11:16:47.313Z</time>
      </trkpt>
      <trkpt lat="46.94751" lon="8.71829">
        <ele>1475</ele>
        <time>2021-08-06T11:16:48.313Z</time>
      </trkpt>
      <trkpt lat="46.9475" lon="8.71827">
        <ele>1475</ele>
        <time>2021-08-06T11:16:49.313Z</time>
      </trkpt>
      <trkpt lat="46.94749" lon="8.71825">
        <ele>1475</ele>
        <time>2021-08-06T11:16:54.311Z</time>
      </trkpt>
      <trkpt lat="46.94748" lon="8.71824">
        <ele>1476</ele>
        <time>2021-08-06T11:16:55.312Z</time>
      </trkpt>
      <trkpt lat="46.94747" lon="8.71823">
        <ele>1476</ele>
        <time>2021-08-06T11:16:56.312Z</time>
      </trkpt>
      <trkpt lat="46.94746" lon="8.71822">
        <ele>1476</ele>
        <time>2021-08-06T11:16:57.312Z</time>
      </trkpt>
      <trkpt lat="46.94745" lon="8.71822">
        <ele>1476</ele>
        <time>2021-08-06T11:16:58.311Z</time>
      </trkpt>
      <trkpt lat="46.94744" lon="8.71821">
        <ele>1476</ele>
        <time>2021-08-06T11:16:59.312Z</time>
      </trkpt>
      <trkpt lat="46.94743" lon="8.71818">
        <ele>1476</ele>
        <time>2021-08-06T11:17:00.312Z</time>
      </trkpt>
      <trkpt lat="46.94742" lon="8.71816">
        <ele>1476</ele>
        <time>2021-08-06T11:17:01.311Z</time>
      </trkpt>
      <trkpt lat="46.94741" lon="8.71813">
        <ele>1476</ele>
        <time>2021-08-06T11:17:02.312Z</time>
      </trkpt>
      <trkpt lat="46.9474" lon="8.71811">
        <ele>1476</ele>
        <time>2021-08-06T11:17:03.311Z</time>
      </trkpt>
      <trkpt lat="46.9474" lon="8.7181">
        <ele>1475</ele>
        <time>2021-08-06T11:17:04.311Z</time>
      </trkpt>
      <trkpt lat="46.94739" lon="8.7181">
        <ele>1474</ele>
        <time>2021-08-06T11:17:05.312Z</time>
      </trkpt>
      <trkpt lat="46.94739" lon="8.7181">
        <ele>1474</ele>
        <time>2021-08-06T11:17:06.312Z</time>
      </trkpt>
      <trkpt lat="46.94741" lon="8.71811">
        <ele>1471</ele>
        <time>2021-08-06T11:17:07.313Z</time>
      </trkpt>
      <trkpt lat="46.9474" lon="8.71812">
        <ele>1471</ele>
        <time>2021-08-06T11:17:08.313Z</time>
      </trkpt>
      <trkpt lat="46.94739" lon="8.71813">
        <ele>1471</ele>
        <time>2021-08-06T11:17:09.313Z</time>
      </trkpt>
      <trkpt lat="46.94738" lon="8.71814">
        <ele>1470</ele>
        <time>2021-08-06T11:17:10.312Z</time>
      </trkpt>
      <trkpt lat="46.94737" lon="8.71815">
        <ele>1470</ele>
        <time>2021-08-06T11:17:11.313Z</time>
      </trkpt>
      <trkpt lat="46.94736" lon="8.71815">
        <ele>1470</ele>
        <time>2021-08-06T11:17:12.313Z</time>
      </trkpt>
      <trkpt lat="46.94735" lon="8.71816">
        <ele>1469</ele>
        <time>2021-08-06T11:17:13.312Z</time>
      </trkpt>
      <trkpt lat="46.94734" lon="8.71815">
        <ele>1466</ele>
        <time>2021-08-06T11:17:14.313Z</time>
      </trkpt>
      <trkpt lat="46.94734" lon="8.71814">
        <ele>1467</ele>
        <time>2021-08-06T11:17:15.313Z</time>
      </trkpt>
      <trkpt lat="46.94733" lon="8.71814">
        <ele>1467</ele>
        <time>2021-08-06T11:17:16.313Z</time>
      </trkpt>
      <trkpt lat="46.94733" lon="8.71814">
        <ele>1467</ele>
        <time>2021-08-06T11:17:17.312Z</time>
      </trkpt>
      <trkpt lat="46.94734" lon="8.71811">
        <ele>1466</ele>
        <time>2021-08-06T11:17:18.313Z</time>
      </trkpt>
      <trkpt lat="46.94735" lon="8.7181">
        <ele>1466</ele>
        <time>2021-08-06T11:17:19.313Z</time>
      </trkpt>
      <trkpt lat="46.94735" lon="8.71809">
        <ele>1466</ele>
        <time>2021-08-06T11:17:20.312Z</time>
      </trkpt>
      <trkpt lat="46.94736" lon="8.71808">
        <ele>1466</ele>
        <time>2021-08-06T11:17:21.313Z</time>
      </trkpt>
      <trkpt lat="46.94735" lon="8.71806">
        <ele>1467</ele>
        <time>2021-08-06T11:17:22.313Z</time>
      </trkpt>
      <trkpt lat="46.94735" lon="8.71804">
        <ele>1468</ele>
        <time>2021-08-06T11:17:23.313Z</time>
      </trkpt>
      <trkpt lat="46.94734" lon="8.71803">
        <ele>1468</ele>
        <time>2021-08-06T11:17:24.312Z</time>
      </trkpt>
      <trkpt lat="46.94734" lon="8.71802">
        <ele>1469</ele>
        <time>2021-08-06T11:17:25.313Z</time>
      </trkpt>
      <trkpt lat="46.94734" lon="8.718">
        <ele>1470</ele>
        <time>2021-08-06T11:17:26.313Z</time>
      </trkpt>
      <trkpt lat="46.94734" lon="8.71799">
        <ele>1470</ele>
        <time>2021-08-06T11:17:27.312Z</time>
      </trkpt>
      <trkpt lat="46.94734" lon="8.71798">
        <ele>1470</ele>
        <time>2021-08-06T11:17:28.313Z</time>
      </trkpt>
      <trkpt lat="46.94735" lon="8.71797">
        <ele>1471</ele>
        <time>2021-08-06T11:17:29.312Z</time>
      </trkpt>
      <trkpt lat="46.94735" lon="8.71795">
        <ele>1471</ele>
        <time>2021-08-06T11:17:30.313Z</time>
      </trkpt>
      <trkpt lat="46.94735" lon="8.71794">
        <ele>1472</ele>
        <time>2021-08-06T11:17:31.313Z</time>
      </trkpt>
      <trkpt lat="46.94735" lon="8.71792">
        <ele>1473</ele>
        <time>2021-08-06T11:17:32.313Z</time>
      </trkpt>
      <trkpt lat="46.94735" lon="8.71791">
        <ele>1473</ele>
        <time>2021-08-06T11:17:33.312Z</time>
      </trkpt>
      <trkpt lat="46.94735" lon="8.71789">
        <ele>1474</ele>
        <time>2021-08-06T11:17:37.333Z</time>
      </trkpt>
      <trkpt lat="46.94735" lon="8.71788">
        <ele>1474</ele>
        <time>2021-08-06T11:17:38.334Z</time>
      </trkpt>
      <trkpt lat="46.94735" lon="8.71786">
        <ele>1475</ele>
        <time>2021-08-06T11:17:39.334Z</time>
      </trkpt>
      <trkpt lat="46.94736" lon="8.71784">
        <ele>1475</ele>
        <time>2021-08-06T11:17:40.334Z</time>
      </trkpt>
      <trkpt lat="46.94737" lon="8.71783">
        <ele>1476</ele>
        <time>2021-08-06T11:17:41.334Z</time>
      </trkpt>
      <trkpt lat="46.94737" lon="8.71782">
        <ele>1476</ele>
        <time>2021-08-06T11:17:42.334Z</time>
      </trkpt>
      <trkpt lat="46.94737" lon="8.7178">
        <ele>1477</ele>
        <time>2021-08-06T11:17:59.460Z</time>
      </trkpt>
      <trkpt lat="46.94738" lon="8.71779">
        <ele>1477</ele>
        <time>2021-08-06T11:18:00.459Z</time>
      </trkpt>
      <trkpt lat="46.94738" lon="8.71778">
        <ele>1478</ele>
        <time>2021-08-06T11:18:01.460Z</time>
      </trkpt>
      <trkpt lat="46.94738" lon="8.71777">
        <ele>1478</ele>
        <time>2021-08-06T11:18:02.460Z</time>
      </trkpt>
      <trkpt lat="46.94738" lon="8.71775">
        <ele>1478</ele>
        <time>2021-08-06T11:18:03.459Z</time>
      </trkpt>
      <trkpt lat="46.94739" lon="8.71773">
        <ele>1478</ele>
        <time>2021-08-06T11:18:04.459Z</time>
      </trkpt>
      <trkpt lat="46.94738" lon="8.71771">
        <ele>1478</ele>
        <time>2021-08-06T11:18:05.459Z</time>
      </trkpt>
      <trkpt lat="46.94738" lon="8.7177">
        <ele>1478</ele>
        <time>2021-08-06T11:18:06.459Z</time>
      </trkpt>
      <trkpt lat="46.94738" lon="8.71769">
        <ele>1478</ele>
        <time>2021-08-06T11:18:07.460Z</time>
      </trkpt>
      <trkpt lat="46.94738" lon="8.71768">
        <ele>1478</ele>
        <time>2021-08-06T11:18:08.460Z</time>
      </trkpt>
      <trkpt lat="46.94738" lon="8.71766">
        <ele>1478</ele>
        <time>2021-08-06T11:18:09.460Z</time>
      </trkpt>
      <trkpt lat="46.94739" lon="8.71765">
        <ele>1479</ele>
        <time>2021-08-06T11:18:10.460Z</time>
      </trkpt>
      <trkpt lat="46.94739" lon="8.71764">
        <ele>1479</ele>
        <time>2021-08-06T11:18:11.460Z</time>
      </trkpt>
      <trkpt lat="46.94739" lon="8.71763">
        <ele>1479</ele>
        <time>2021-08-06T11:18:12.460Z</time>
      </trkpt>
      <trkpt lat="46.94739" lon="8.71761">
        <ele>1480</ele>
        <time>2021-08-06T11:18:13.460Z</time>
      </trkpt>
      <trkpt lat="46.94738" lon="8.7176">
        <ele>1480</ele>
        <time>2021-08-06T11:18:14.460Z</time>
      </trkpt>
      <trkpt lat="46.94738" lon="8.71758">
        <ele>1480</ele>
        <time>2021-08-06T11:18:15.460Z</time>
      </trkpt>
      <trkpt lat="46.94737" lon="8.71757">
        <ele>1480</ele>
        <time>2021-08-06T11:18:16.459Z</time>
      </trkpt>
      <trkpt lat="46.94737" lon="8.71755">
        <ele>1481</ele>
        <time>2021-08-06T11:18:17.460Z</time>
      </trkpt>
      <trkpt lat="46.94736" lon="8.71754">
        <ele>1481</ele>
        <time>2021-08-06T11:18:18.460Z</time>
      </trkpt>
      <trkpt lat="46.94735" lon="8.71752">
        <ele>1481</ele>
        <time>2021-08-06T11:18:19.460Z</time>
      </trkpt>
      <trkpt lat="46.94735" lon="8.71751">
        <ele>1480</ele>
        <time>2021-08-06T11:18:20.459Z</time>
      </trkpt>
      <trkpt lat="46.94735" lon="8.71748">
        <ele>1480</ele>
        <time>2021-08-06T11:18:21.460Z</time>
      </trkpt>
      <trkpt lat="46.94735" lon="8.71746">
        <ele>1480</ele>
        <time>2021-08-06T11:18:22.460Z</time>
      </trkpt>
      <trkpt lat="46.94734" lon="8.71744">
        <ele>1480</ele>
        <time>2021-08-06T11:18:23.460Z</time>
      </trkpt>
      <trkpt lat="46.94734" lon="8.71743">
        <ele>1481</ele>
        <time>2021-08-06T11:18:24.459Z</time>
      </trkpt>
      <trkpt lat="46.94734" lon="8.71742">
        <ele>1481</ele>
        <time>2021-08-06T11:18:25.459Z</time>
      </trkpt>
      <trkpt lat="46.94733" lon="8.7174">
        <ele>1481</ele>
        <time>2021-08-06T11:18:26.460Z</time>
      </trkpt>
      <trkpt lat="46.94733" lon="8.71738">
        <ele>1481</ele>
        <time>2021-08-06T11:18:27.460Z</time>
      </trkpt>
      <trkpt lat="46.94732" lon="8.71737">
        <ele>1481</ele>
        <time>2021-08-06T11:18:28.460Z</time>
      </trkpt>
      <trkpt lat="46.94733" lon="8.71736">
        <ele>1481</ele>
        <time>2021-08-06T11:18:29.460Z</time>
      </trkpt>
      <trkpt lat="46.94733" lon="8.71734">
        <ele>1481</ele>
        <time>2021-08-06T11:18:30.459Z</time>
      </trkpt>
      <trkpt lat="46.94733" lon="8.71733">
        <ele>1481</ele>
        <time>2021-08-06T11:18:31.460Z</time>
      </trkpt>
      <trkpt lat="46.94733" lon="8.71732">
        <ele>1481</ele>
        <time>2021-08-06T11:18:32.459Z</time>
      </trkpt>
      <trkpt lat="46.94733" lon="8.71731">
        <ele>1481</ele>
        <time>2021-08-06T11:18:33.460Z</time>
      </trkpt>
      <trkpt lat="46.94733" lon="8.7173">
        <ele>1481</ele>
        <time>2021-08-06T11:18:34.460Z</time>
      </trkpt>
      <trkpt lat="46.94734" lon="8.71729">
        <ele>1481</ele>
        <time>2021-08-06T11:18:35.460Z</time>
      </trkpt>
      <trkpt lat="46.94733" lon="8.71727">
        <ele>1482</ele>
        <time>2021-08-06T11:18:36.460Z</time>
      </trkpt>
      <trkpt lat="46.94733" lon="8.71725">
        <ele>1483</ele>
        <time>2021-08-06T11:18:37.459Z</time>
      </trkpt>
      <trkpt lat="46.94733" lon="8.71724">
        <ele>1484</ele>
        <time>2021-08-06T11:18:38.459Z</time>
      </trkpt>
      <trkpt lat="46.94733" lon="8.71723">
        <ele>1485</ele>
        <time>2021-08-06T11:18:39.460Z</time>
      </trkpt>
      <trkpt lat="46.94734" lon="8.71722">
        <ele>1486</ele>
        <time>2021-08-06T11:18:40.460Z</time>
      </trkpt>
      <trkpt lat="46.94734" lon="8.71721">
        <ele>1487</ele>
        <time>2021-08-06T11:18:41.459Z</time>
      </trkpt>
      <trkpt lat="46.94734" lon="8.7172">
        <ele>1488</ele>
        <time>2021-08-06T11:18:42.460Z</time>
      </trkpt>
      <trkpt lat="46.94733" lon="8.71718">
        <ele>1489</ele>
        <time>2021-08-06T11:18:43.459Z</time>
      </trkpt>
      <trkpt lat="46.94733" lon="8.71717">
        <ele>1489</ele>
        <time>2021-08-06T11:18:44.460Z</time>
      </trkpt>
      <trkpt lat="46.94732" lon="8.71715">
        <ele>1490</ele>
        <time>2021-08-06T11:18:45.460Z</time>
      </trkpt>
      <trkpt lat="46.94732" lon="8.71714">
        <ele>1491</ele>
        <time>2021-08-06T11:18:46.459Z</time>
      </trkpt>
      <trkpt lat="46.94731" lon="8.71712">
        <ele>1492</ele>
        <time>2021-08-06T11:18:47.460Z</time>
      </trkpt>
      <trkpt lat="46.94731" lon="8.7171">
        <ele>1492</ele>
        <time>2021-08-06T11:18:48.459Z</time>
      </trkpt>
      <trkpt lat="46.9473" lon="8.71709">
        <ele>1493</ele>
        <time>2021-08-06T11:18:49.459Z</time>
      </trkpt>
      <trkpt lat="46.9473" lon="8.71707">
        <ele>1493</ele>
        <time>2021-08-06T11:18:50.459Z</time>
      </trkpt>
      <trkpt lat="46.94729" lon="8.71705">
        <ele>1493</ele>
        <time>2021-08-06T11:18:51.460Z</time>
      </trkpt>
      <trkpt lat="46.94729" lon="8.71704">
        <ele>1493</ele>
        <time>2021-08-06T11:18:52.460Z</time>
      </trkpt>
      <trkpt lat="46.9473" lon="8.71702">
        <ele>1493</ele>
        <time>2021-08-06T11:18:53.459Z</time>
      </trkpt>
      <trkpt lat="46.9473" lon="8.71701">
        <ele>1492</ele>
        <time>2021-08-06T11:18:54.460Z</time>
      </trkpt>
      <trkpt lat="46.9473" lon="8.71699">
        <ele>1492</ele>
        <time>2021-08-06T11:18:55.460Z</time>
      </trkpt>
      <trkpt lat="46.9473" lon="8.71698">
        <ele>1492</ele>
        <time>2021-08-06T11:18:56.460Z</time>
      </trkpt>
      <trkpt lat="46.94729" lon="8.71696">
        <ele>1492</ele>
        <time>2021-08-06T11:18:57.460Z</time>
      </trkpt>
      <trkpt lat="46.94729" lon="8.71694">
        <ele>1492</ele>
        <time>2021-08-06T11:18:58.460Z</time>
      </trkpt>
      <trkpt lat="46.94729" lon="8.71693">
        <ele>1491</ele>
        <time>2021-08-06T11:18:59.460Z</time>
      </trkpt>
      <trkpt lat="46.94729" lon="8.71691">
        <ele>1491</ele>
        <time>2021-08-06T11:19:00.459Z</time>
      </trkpt>
      <trkpt lat="46.94729" lon="8.71689">
        <ele>1491</ele>
        <time>2021-08-06T11:19:01.460Z</time>
      </trkpt>
      <trkpt lat="46.94729" lon="8.71687">
        <ele>1491</ele>
        <time>2021-08-06T11:19:02.459Z</time>
      </trkpt>
      <trkpt lat="46.9473" lon="8.71685">
        <ele>1491</ele>
        <time>2021-08-06T11:19:03.460Z</time>
      </trkpt>
      <trkpt lat="46.9473" lon="8.71684">
        <ele>1492</ele>
        <time>2021-08-06T11:19:04.459Z</time>
      </trkpt>
      <trkpt lat="46.9473" lon="8.71682">
        <ele>1492</ele>
        <time>2021-08-06T11:19:05.460Z</time>
      </trkpt>
      <trkpt lat="46.9473" lon="8.7168">
        <ele>1492</ele>
        <time>2021-08-06T11:19:06.459Z</time>
      </trkpt>
      <trkpt lat="46.9473" lon="8.71678">
        <ele>1492</ele>
        <time>2021-08-06T11:19:07.460Z</time>
      </trkpt>
      <trkpt lat="46.94729" lon="8.71676">
        <ele>1491</ele>
        <time>2021-08-06T11:19:08.460Z</time>
      </trkpt>
      <trkpt lat="46.94729" lon="8.71674">
        <ele>1491</ele>
        <time>2021-08-06T11:19:09.460Z</time>
      </trkpt>
      <trkpt lat="46.94729" lon="8.71673">
        <ele>1491</ele>
        <time>2021-08-06T11:19:10.460Z</time>
      </trkpt>
      <trkpt lat="46.94728" lon="8.71672">
        <ele>1491</ele>
        <time>2021-08-06T11:19:11.460Z</time>
      </trkpt>
      <trkpt lat="46.94728" lon="8.7167">
        <ele>1491</ele>
        <time>2021-08-06T11:19:12.459Z</time>
      </trkpt>
      <trkpt lat="46.94728" lon="8.71668">
        <ele>1492</ele>
        <time>2021-08-06T11:19:13.460Z</time>
      </trkpt>
      <trkpt lat="46.94728" lon="8.71667">
        <ele>1492</ele>
        <time>2021-08-06T11:19:14.460Z</time>
      </trkpt>
      <trkpt lat="46.94729" lon="8.71665">
        <ele>1492</ele>
        <time>2021-08-06T11:19:15.459Z</time>
      </trkpt>
      <trkpt lat="46.94729" lon="8.71664">
        <ele>1492</ele>
        <time>2021-08-06T11:19:16.460Z</time>
      </trkpt>
      <trkpt lat="46.94729" lon="8.71662">
        <ele>1491</ele>
        <time>2021-08-06T11:19:17.460Z</time>
      </trkpt>
      <trkpt lat="46.94729" lon="8.71661">
        <ele>1491</ele>
        <time>2021-08-06T11:19:18.459Z</time>
      </trkpt>
      <trkpt lat="46.94729" lon="8.71659">
        <ele>1491</ele>
        <time>2021-08-06T11:19:19.460Z</time>
      </trkpt>
      <trkpt lat="46.94729" lon="8.71658">
        <ele>1490</ele>
        <time>2021-08-06T11:19:20.460Z</time>
      </trkpt>
      <trkpt lat="46.94729" lon="8.71656">
        <ele>1490</ele>
        <time>2021-08-06T11:19:21.459Z</time>
      </trkpt>
      <trkpt lat="46.94729" lon="8.71655">
        <ele>1489</ele>
        <time>2021-08-06T11:19:22.460Z</time>
      </trkpt>
      <trkpt lat="46.94729" lon="8.71654">
        <ele>1488</ele>
        <time>2021-08-06T11:19:23.460Z</time>
      </trkpt>
      <trkpt lat="46.94729" lon="8.71652">
        <ele>1488</ele>
        <time>2021-08-06T11:19:24.459Z</time>
      </trkpt>
      <trkpt lat="46.94729" lon="8.71651">
        <ele>1487</ele>
        <time>2021-08-06T11:19:25.460Z</time>
      </trkpt>
      <trkpt lat="46.94729" lon="8.71649">
        <ele>1487</ele>
        <time>2021-08-06T11:19:26.460Z</time>
      </trkpt>
      <trkpt lat="46.94728" lon="8.71647">
        <ele>1487</ele>
        <time>2021-08-06T11:19:27.460Z</time>
      </trkpt>
      <trkpt lat="46.94728" lon="8.71646">
        <ele>1487</ele>
        <time>2021-08-06T11:19:28.460Z</time>
      </trkpt>
      <trkpt lat="46.94728" lon="8.71645">
        <ele>1486</ele>
        <time>2021-08-06T11:19:29.460Z</time>
      </trkpt>
      <trkpt lat="46.94727" lon="8.71643">
        <ele>1486</ele>
        <time>2021-08-06T11:19:30.460Z</time>
      </trkpt>
      <trkpt lat="46.94727" lon="8.71642">
        <ele>1486</ele>
        <time>2021-08-06T11:19:31.460Z</time>
      </trkpt>
      <trkpt lat="46.94727" lon="8.7164">
        <ele>1485</ele>
        <time>2021-08-06T11:19:32.460Z</time>
      </trkpt>
      <trkpt lat="46.94727" lon="8.71639">
        <ele>1485</ele>
        <time>2021-08-06T11:19:33.460Z</time>
      </trkpt>
      <trkpt lat="46.94727" lon="8.71637">
        <ele>1485</ele>
        <time>2021-08-06T11:19:34.460Z</time>
      </trkpt>
      <trkpt lat="46.94727" lon="8.71636">
        <ele>1485</ele>
        <time>2021-08-06T11:19:35.460Z</time>
      </trkpt>
      <trkpt lat="46.94728" lon="8.71634">
        <ele>1485</ele>
        <time>2021-08-06T11:19:36.460Z</time>
      </trkpt>
      <trkpt lat="46.94728" lon="8.71632">
        <ele>1485</ele>
        <time>2021-08-06T11:19:37.460Z</time>
      </trkpt>
      <trkpt lat="46.94727" lon="8.7163">
        <ele>1484</ele>
        <time>2021-08-06T11:19:38.460Z</time>
      </trkpt>
      <trkpt lat="46.94727" lon="8.71628">
        <ele>1483</ele>
        <time>2021-08-06T11:19:39.460Z</time>
      </trkpt>
      <trkpt lat="46.94727" lon="8.71627">
        <ele>1483</ele>
        <time>2021-08-06T11:19:44.476Z</time>
      </trkpt>
      <trkpt lat="46.94727" lon="8.71625">
        <ele>1482</ele>
        <time>2021-08-06T11:19:45.475Z</time>
      </trkpt>
      <trkpt lat="46.94726" lon="8.71623">
        <ele>1482</ele>
        <time>2021-08-06T11:19:46.476Z</time>
      </trkpt>
      <trkpt lat="46.94726" lon="8.71621">
        <ele>1482</ele>
        <time>2021-08-06T11:19:47.476Z</time>
      </trkpt>
      <trkpt lat="46.94725" lon="8.7162">
        <ele>1481</ele>
        <time>2021-08-06T11:19:48.476Z</time>
      </trkpt>
      <trkpt lat="46.94725" lon="8.71618">
        <ele>1481</ele>
        <time>2021-08-06T11:19:49.476Z</time>
      </trkpt>
      <trkpt lat="46.94724" lon="8.71616">
        <ele>1481</ele>
        <time>2021-08-06T11:19:50.475Z</time>
      </trkpt>
      <trkpt lat="46.94724" lon="8.71614">
        <ele>1481</ele>
        <time>2021-08-06T11:19:51.476Z</time>
      </trkpt>
      <trkpt lat="46.94724" lon="8.71613">
        <ele>1481</ele>
        <time>2021-08-06T11:19:52.475Z</time>
      </trkpt>
      <trkpt lat="46.94724" lon="8.71612">
        <ele>1481</ele>
        <time>2021-08-06T11:19:53.475Z</time>
      </trkpt>
      <trkpt lat="46.94724" lon="8.7161">
        <ele>1481</ele>
        <time>2021-08-06T11:19:54.475Z</time>
      </trkpt>
      <trkpt lat="46.94724" lon="8.71609">
        <ele>1481</ele>
        <time>2021-08-06T11:19:55.476Z</time>
      </trkpt>
      <trkpt lat="46.94724" lon="8.71607">
        <ele>1481</ele>
        <time>2021-08-06T11:19:56.475Z</time>
      </trkpt>
      <trkpt lat="46.94724" lon="8.71606">
        <ele>1482</ele>
        <time>2021-08-06T11:19:57.475Z</time>
      </trkpt>
      <trkpt lat="46.94723" lon="8.71604">
        <ele>1482</ele>
        <time>2021-08-06T11:19:58.476Z</time>
      </trkpt>
      <trkpt lat="46.94723" lon="8.71603">
        <ele>1483</ele>
        <time>2021-08-06T11:19:59.476Z</time>
      </trkpt>
      <trkpt lat="46.94722" lon="8.71602">
        <ele>1483</ele>
        <time>2021-08-06T11:20:00.476Z</time>
      </trkpt>
      <trkpt lat="46.94721" lon="8.716">
        <ele>1484</ele>
        <time>2021-08-06T11:20:01.476Z</time>
      </trkpt>
      <trkpt lat="46.9472" lon="8.71599">
        <ele>1484</ele>
        <time>2021-08-06T11:20:02.476Z</time>
      </trkpt>
      <trkpt lat="46.9472" lon="8.71597">
        <ele>1484</ele>
        <time>2021-08-06T11:20:03.475Z</time>
      </trkpt>
      <trkpt lat="46.94719" lon="8.71596">
        <ele>1483</ele>
        <time>2021-08-06T11:20:04.476Z</time>
      </trkpt>
      <trkpt lat="46.94719" lon="8.71594">
        <ele>1483</ele>
        <time>2021-08-06T11:20:05.476Z</time>
      </trkpt>
      <trkpt lat="46.94719" lon="8.71593">
        <ele>1483</ele>
        <time>2021-08-06T11:20:06.475Z</time>
      </trkpt>
      <trkpt lat="46.94719" lon="8.71591">
        <ele>1483</ele>
        <time>2021-08-06T11:20:07.476Z</time>
      </trkpt>
      <trkpt lat="46.94719" lon="8.7159">
        <ele>1483</ele>
        <time>2021-08-06T11:20:08.476Z</time>
      </trkpt>
      <trkpt lat="46.94719" lon="8.71588">
        <ele>1483</ele>
        <time>2021-08-06T11:20:09.476Z</time>
      </trkpt>
      <trkpt lat="46.94718" lon="8.71587">
        <ele>1484</ele>
        <time>2021-08-06T11:20:10.475Z</time>
      </trkpt>
      <trkpt lat="46.94718" lon="8.71585">
        <ele>1484</ele>
        <time>2021-08-06T11:20:11.475Z</time>
      </trkpt>
      <trkpt lat="46.94718" lon="8.71584">
        <ele>1484</ele>
        <time>2021-08-06T11:20:12.476Z</time>
      </trkpt>
      <trkpt lat="46.94717" lon="8.71582">
        <ele>1484</ele>
        <time>2021-08-06T11:20:13.476Z</time>
      </trkpt>
      <trkpt lat="46.94716" lon="8.7158">
        <ele>1484</ele>
        <time>2021-08-06T11:20:14.475Z</time>
      </trkpt>
      <trkpt lat="46.94716" lon="8.71578">
        <ele>1483</ele>
        <time>2021-08-06T11:20:15.476Z</time>
      </trkpt>
      <trkpt lat="46.94716" lon="8.71576">
        <ele>1483</ele>
        <time>2021-08-06T11:20:16.475Z</time>
      </trkpt>
      <trkpt lat="46.94716" lon="8.71574">
        <ele>1483</ele>
        <time>2021-08-06T11:20:17.475Z</time>
      </trkpt>
      <trkpt lat="46.94716" lon="8.71572">
        <ele>1484</ele>
        <time>2021-08-06T11:20:18.476Z</time>
      </trkpt>
      <trkpt lat="46.94717" lon="8.71571">
        <ele>1484</ele>
        <time>2021-08-06T11:20:19.476Z</time>
      </trkpt>
      <trkpt lat="46.94716" lon="8.71569">
        <ele>1484</ele>
        <time>2021-08-06T11:20:20.475Z</time>
      </trkpt>
      <trkpt lat="46.94716" lon="8.71568">
        <ele>1484</ele>
        <time>2021-08-06T11:20:21.475Z</time>
      </trkpt>
      <trkpt lat="46.94715" lon="8.71566">
        <ele>1484</ele>
        <time>2021-08-06T11:20:22.476Z</time>
      </trkpt>
      <trkpt lat="46.94714" lon="8.71565">
        <ele>1483</ele>
        <time>2021-08-06T11:20:23.476Z</time>
      </trkpt>
      <trkpt lat="46.94714" lon="8.71564">
        <ele>1483</ele>
        <time>2021-08-06T11:20:24.476Z</time>
      </trkpt>
      <trkpt lat="46.94713" lon="8.71563">
        <ele>1483</ele>
        <time>2021-08-06T11:20:25.475Z</time>
      </trkpt>
      <trkpt lat="46.94712" lon="8.71562">
        <ele>1482</ele>
        <time>2021-08-06T11:20:26.476Z</time>
      </trkpt>
      <trkpt lat="46.94711" lon="8.71561">
        <ele>1482</ele>
        <time>2021-08-06T11:20:27.476Z</time>
      </trkpt>
      <trkpt lat="46.9471" lon="8.7156">
        <ele>1482</ele>
        <time>2021-08-06T11:20:28.476Z</time>
      </trkpt>
      <trkpt lat="46.94709" lon="8.71559">
        <ele>1482</ele>
        <time>2021-08-06T11:20:29.476Z</time>
      </trkpt>
      <trkpt lat="46.94708" lon="8.71558">
        <ele>1482</ele>
        <time>2021-08-06T11:20:30.476Z</time>
      </trkpt>
      <trkpt lat="46.94707" lon="8.71557">
        <ele>1482</ele>
        <time>2021-08-06T11:20:31.476Z</time>
      </trkpt>
      <trkpt lat="46.94706" lon="8.71556">
        <ele>1483</ele>
        <time>2021-08-06T11:20:32.476Z</time>
      </trkpt>
      <trkpt lat="46.94706" lon="8.71555">
        <ele>1483</ele>
        <time>2021-08-06T11:20:33.476Z</time>
      </trkpt>
      <trkpt lat="46.94705" lon="8.71554">
        <ele>1483</ele>
        <time>2021-08-06T11:20:34.475Z</time>
      </trkpt>
      <trkpt lat="46.94704" lon="8.71553">
        <ele>1483</ele>
        <time>2021-08-06T11:20:35.476Z</time>
      </trkpt>
      <trkpt lat="46.94704" lon="8.71553">
        <ele>1483</ele>
        <time>2021-08-06T11:20:36.475Z</time>
      </trkpt>
      <trkpt lat="46.94703" lon="8.71552">
        <ele>1483</ele>
        <time>2021-08-06T11:20:37.476Z</time>
      </trkpt>
      <trkpt lat="46.94702" lon="8.71552">
        <ele>1483</ele>
        <time>2021-08-06T11:20:38.476Z</time>
      </trkpt>
      <trkpt lat="46.94701" lon="8.71552">
        <ele>1483</ele>
        <time>2021-08-06T11:20:39.475Z</time>
      </trkpt>
      <trkpt lat="46.947" lon="8.71551">
        <ele>1483</ele>
        <time>2021-08-06T11:20:40.476Z</time>
      </trkpt>
      <trkpt lat="46.94699" lon="8.71551">
        <ele>1483</ele>
        <time>2021-08-06T11:20:41.476Z</time>
      </trkpt>
      <trkpt lat="46.94698" lon="8.7155">
        <ele>1482</ele>
        <time>2021-08-06T11:20:42.476Z</time>
      </trkpt>
      <trkpt lat="46.94698" lon="8.71549">
        <ele>1482</ele>
        <time>2021-08-06T11:20:43.476Z</time>
      </trkpt>
      <trkpt lat="46.94697" lon="8.71548">
        <ele>1482</ele>
        <time>2021-08-06T11:20:44.476Z</time>
      </trkpt>
      <trkpt lat="46.94696" lon="8.71548">
        <ele>1482</ele>
        <time>2021-08-06T11:20:45.476Z</time>
      </trkpt>
      <trkpt lat="46.94695" lon="8.71547">
        <ele>1482</ele>
        <time>2021-08-06T11:20:46.476Z</time>
      </trkpt>
      <trkpt lat="46.94694" lon="8.71546">
        <ele>1482</ele>
        <time>2021-08-06T11:20:47.475Z</time>
      </trkpt>
      <trkpt lat="46.94694" lon="8.71544">
        <ele>1482</ele>
        <time>2021-08-06T11:20:48.476Z</time>
      </trkpt>
      <trkpt lat="46.94693" lon="8.71542">
        <ele>1481</ele>
        <time>2021-08-06T11:20:49.476Z</time>
      </trkpt>
      <trkpt lat="46.94692" lon="8.71541">
        <ele>1481</ele>
        <time>2021-08-06T11:20:50.475Z</time>
      </trkpt>
      <trkpt lat="46.94691" lon="8.71541">
        <ele>1481</ele>
        <time>2021-08-06T11:20:51.476Z</time>
      </trkpt>
      <trkpt lat="46.9469" lon="8.71539">
        <ele>1481</ele>
        <time>2021-08-06T11:20:52.475Z</time>
      </trkpt>
      <trkpt lat="46.94688" lon="8.71538">
        <ele>1481</ele>
        <time>2021-08-06T11:20:53.476Z</time>
      </trkpt>
      <trkpt lat="46.94686" lon="8.71537">
        <ele>1481</ele>
        <time>2021-08-06T11:20:54.475Z</time>
      </trkpt>
      <trkpt lat="46.94685" lon="8.71536">
        <ele>1481</ele>
        <time>2021-08-06T11:20:55.476Z</time>
      </trkpt>
      <trkpt lat="46.94683" lon="8.71535">
        <ele>1482</ele>
        <time>2021-08-06T11:20:56.476Z</time>
      </trkpt>
      <trkpt lat="46.94682" lon="8.71533">
        <ele>1482</ele>
        <time>2021-08-06T11:20:57.476Z</time>
      </trkpt>
      <trkpt lat="46.9468" lon="8.7153">
        <ele>1482</ele>
        <time>2021-08-06T11:20:58.476Z</time>
      </trkpt>
      <trkpt lat="46.94679" lon="8.7153">
        <ele>1482</ele>
        <time>2021-08-06T11:20:59.475Z</time>
      </trkpt>
      <trkpt lat="46.94678" lon="8.71528">
        <ele>1482</ele>
        <time>2021-08-06T11:21:00.476Z</time>
      </trkpt>
      <trkpt lat="46.94677" lon="8.71527">
        <ele>1482</ele>
        <time>2021-08-06T11:21:01.475Z</time>
      </trkpt>
      <trkpt lat="46.94677" lon="8.71526">
        <ele>1482</ele>
        <time>2021-08-06T11:21:02.475Z</time>
      </trkpt>
      <trkpt lat="46.94677" lon="8.71524">
        <ele>1482</ele>
        <time>2021-08-06T11:21:03.476Z</time>
      </trkpt>
      <trkpt lat="46.94677" lon="8.71523">
        <ele>1482</ele>
        <time>2021-08-06T11:21:04.476Z</time>
      </trkpt>
      <trkpt lat="46.94678" lon="8.71522">
        <ele>1482</ele>
        <time>2021-08-06T11:21:05.476Z</time>
      </trkpt>
      <trkpt lat="46.94678" lon="8.7152">
        <ele>1482</ele>
        <time>2021-08-06T11:21:06.476Z</time>
      </trkpt>
      <trkpt lat="46.94678" lon="8.71519">
        <ele>1482</ele>
        <time>2021-08-06T11:21:07.476Z</time>
      </trkpt>
      <trkpt lat="46.94678" lon="8.71518">
        <ele>1482</ele>
        <time>2021-08-06T11:21:08.476Z</time>
      </trkpt>
      <trkpt lat="46.94678" lon="8.71516">
        <ele>1482</ele>
        <time>2021-08-06T11:21:09.476Z</time>
      </trkpt>
      <trkpt lat="46.94677" lon="8.71515">
        <ele>1482</ele>
        <time>2021-08-06T11:21:10.475Z</time>
      </trkpt>
      <trkpt lat="46.94677" lon="8.71513">
        <ele>1483</ele>
        <time>2021-08-06T11:21:11.476Z</time>
      </trkpt>
      <trkpt lat="46.94677" lon="8.71512">
        <ele>1483</ele>
        <time>2021-08-06T11:21:12.475Z</time>
      </trkpt>
      <trkpt lat="46.94677" lon="8.7151">
        <ele>1483</ele>
        <time>2021-08-06T11:21:13.476Z</time>
      </trkpt>
      <trkpt lat="46.94677" lon="8.71508">
        <ele>1483</ele>
        <time>2021-08-06T11:21:14.476Z</time>
      </trkpt>
      <trkpt lat="46.94677" lon="8.71507">
        <ele>1483</ele>
        <time>2021-08-06T11:21:15.475Z</time>
      </trkpt>
      <trkpt lat="46.94677" lon="8.71505">
        <ele>1483</ele>
        <time>2021-08-06T11:21:16.476Z</time>
      </trkpt>
      <trkpt lat="46.94677" lon="8.71504">
        <ele>1484</ele>
        <time>2021-08-06T11:21:17.476Z</time>
      </trkpt>
      <trkpt lat="46.94678" lon="8.71502">
        <ele>1484</ele>
        <time>2021-08-06T11:21:18.476Z</time>
      </trkpt>
      <trkpt lat="46.94679" lon="8.71501">
        <ele>1484</ele>
        <time>2021-08-06T11:21:19.476Z</time>
      </trkpt>
      <trkpt lat="46.94679" lon="8.715">
        <ele>1484</ele>
        <time>2021-08-06T11:21:20.475Z</time>
      </trkpt>
      <trkpt lat="46.94679" lon="8.71499">
        <ele>1483</ele>
        <time>2021-08-06T11:21:21.475Z</time>
      </trkpt>
      <trkpt lat="46.94679" lon="8.71497">
        <ele>1483</ele>
        <time>2021-08-06T11:21:22.476Z</time>
      </trkpt>
      <trkpt lat="46.94679" lon="8.71496">
        <ele>1483</ele>
        <time>2021-08-06T11:21:23.476Z</time>
      </trkpt>
      <trkpt lat="46.9468" lon="8.71494">
        <ele>1483</ele>
        <time>2021-08-06T11:21:24.476Z</time>
      </trkpt>
      <trkpt lat="46.9468" lon="8.71492">
        <ele>1483</ele>
        <time>2021-08-06T11:21:25.475Z</time>
      </trkpt>
      <trkpt lat="46.94679" lon="8.71491">
        <ele>1484</ele>
        <time>2021-08-06T11:21:26.475Z</time>
      </trkpt>
      <trkpt lat="46.94679" lon="8.7149">
        <ele>1484</ele>
        <time>2021-08-06T11:21:27.476Z</time>
      </trkpt>
      <trkpt lat="46.94679" lon="8.71489">
        <ele>1484</ele>
        <time>2021-08-06T11:21:28.476Z</time>
      </trkpt>
      <trkpt lat="46.94678" lon="8.71487">
        <ele>1484</ele>
        <time>2021-08-06T11:21:29.476Z</time>
      </trkpt>
      <trkpt lat="46.94678" lon="8.71486">
        <ele>1483</ele>
        <time>2021-08-06T11:21:30.475Z</time>
      </trkpt>
      <trkpt lat="46.94677" lon="8.71484">
        <ele>1483</ele>
        <time>2021-08-06T11:21:31.475Z</time>
      </trkpt>
      <trkpt lat="46.94677" lon="8.71481">
        <ele>1483</ele>
        <time>2021-08-06T11:21:32.475Z</time>
      </trkpt>
      <trkpt lat="46.94677" lon="8.7148">
        <ele>1483</ele>
        <time>2021-08-06T11:21:33.476Z</time>
      </trkpt>
      <trkpt lat="46.94677" lon="8.71479">
        <ele>1483</ele>
        <time>2021-08-06T11:21:34.476Z</time>
      </trkpt>
      <trkpt lat="46.94677" lon="8.71477">
        <ele>1483</ele>
        <time>2021-08-06T11:21:35.476Z</time>
      </trkpt>
      <trkpt lat="46.94677" lon="8.71476">
        <ele>1483</ele>
        <time>2021-08-06T11:21:36.475Z</time>
      </trkpt>
      <trkpt lat="46.94676" lon="8.71475">
        <ele>1482</ele>
        <time>2021-08-06T11:21:37.476Z</time>
      </trkpt>
      <trkpt lat="46.94676" lon="8.71474">
        <ele>1482</ele>
        <time>2021-08-06T11:21:38.476Z</time>
      </trkpt>
      <trkpt lat="46.94676" lon="8.71474">
        <ele>1482</ele>
        <time>2021-08-06T11:21:39.476Z</time>
      </trkpt>
      <trkpt lat="46.94675" lon="8.71474">
        <ele>1482</ele>
        <time>2021-08-06T11:21:40.476Z</time>
      </trkpt>
      <trkpt lat="46.94672" lon="8.71476">
        <ele>1479</ele>
        <time>2021-08-06T11:21:41.476Z</time>
      </trkpt>
      <trkpt lat="46.94671" lon="8.71476">
        <ele>1478</ele>
        <time>2021-08-06T11:21:42.475Z</time>
      </trkpt>
      <trkpt lat="46.9467" lon="8.71476">
        <ele>1478</ele>
        <time>2021-08-06T11:21:43.475Z</time>
      </trkpt>
      <trkpt lat="46.9467" lon="8.71476">
        <ele>1478</ele>
        <time>2021-08-06T11:21:44.476Z</time>
      </trkpt>
      <trkpt lat="46.94669" lon="8.71476">
        <ele>1478</ele>
        <time>2021-08-06T11:21:45.475Z</time>
      </trkpt>
      <trkpt lat="46.94668" lon="8.71477">
        <ele>1478</ele>
        <time>2021-08-06T11:21:46.475Z</time>
      </trkpt>
      <trkpt lat="46.94667" lon="8.71478">
        <ele>1478</ele>
        <time>2021-08-06T11:21:47.475Z</time>
      </trkpt>
      <trkpt lat="46.94666" lon="8.71479">
        <ele>1478</ele>
        <time>2021-08-06T11:21:48.475Z</time>
      </trkpt>
      <trkpt lat="46.94665" lon="8.7148">
        <ele>1478</ele>
        <time>2021-08-06T11:21:49.475Z</time>
      </trkpt>
      <trkpt lat="46.94664" lon="8.71481">
        <ele>1478</ele>
        <time>2021-08-06T11:21:50.475Z</time>
      </trkpt>
      <trkpt lat="46.94664" lon="8.71482">
        <ele>1477</ele>
        <time>2021-08-06T11:21:51.476Z</time>
      </trkpt>
      <trkpt lat="46.94663" lon="8.71483">
        <ele>1477</ele>
        <time>2021-08-06T11:21:52.475Z</time>
      </trkpt>
      <trkpt lat="46.94662" lon="8.71483">
        <ele>1477</ele>
        <time>2021-08-06T11:21:53.475Z</time>
      </trkpt>
      <trkpt lat="46.94662" lon="8.71484">
        <ele>1476</ele>
        <time>2021-08-06T11:21:54.476Z</time>
      </trkpt>
      <trkpt lat="46.94661" lon="8.71484">
        <ele>1476</ele>
        <time>2021-08-06T11:21:55.476Z</time>
      </trkpt>
      <trkpt lat="46.9466" lon="8.71484">
        <ele>1476</ele>
        <time>2021-08-06T11:21:56.475Z</time>
      </trkpt>
      <trkpt lat="46.94658" lon="8.71485">
        <ele>1476</ele>
        <time>2021-08-06T11:21:57.476Z</time>
      </trkpt>
      <trkpt lat="46.94658" lon="8.71485">
        <ele>1476</ele>
        <time>2021-08-06T11:21:58.476Z</time>
      </trkpt>
      <trkpt lat="46.94657" lon="8.71486">
        <ele>1476</ele>
        <time>2021-08-06T11:21:59.476Z</time>
      </trkpt>
      <trkpt lat="46.94656" lon="8.71488">
        <ele>1476</ele>
        <time>2021-08-06T11:22:00.475Z</time>
      </trkpt>
      <trkpt lat="46.94655" lon="8.7149">
        <ele>1476</ele>
        <time>2021-08-06T11:22:01.475Z</time>
      </trkpt>
      <trkpt lat="46.94655" lon="8.71491">
        <ele>1476</ele>
        <time>2021-08-06T11:22:02.475Z</time>
      </trkpt>
      <trkpt lat="46.94655" lon="8.71493">
        <ele>1476</ele>
        <time>2021-08-06T11:22:03.475Z</time>
      </trkpt>
      <trkpt lat="46.94655" lon="8.71494">
        <ele>1476</ele>
        <time>2021-08-06T11:22:04.475Z</time>
      </trkpt>
      <trkpt lat="46.94654" lon="8.71494">
        <ele>1475</ele>
        <time>2021-08-06T11:22:05.476Z</time>
      </trkpt>
      <trkpt lat="46.94653" lon="8.71494">
        <ele>1475</ele>
        <time>2021-08-06T11:22:06.476Z</time>
      </trkpt>
      <trkpt lat="46.94653" lon="8.71494">
        <ele>1475</ele>
        <time>2021-08-06T11:22:07.476Z</time>
      </trkpt>
      <trkpt lat="46.94652" lon="8.71493">
        <ele>1475</ele>
        <time>2021-08-06T11:22:08.475Z</time>
      </trkpt>
      <trkpt lat="46.94651" lon="8.71493">
        <ele>1476</ele>
        <time>2021-08-06T11:22:09.476Z</time>
      </trkpt>
      <trkpt lat="46.9465" lon="8.71494">
        <ele>1476</ele>
        <time>2021-08-06T11:22:10.476Z</time>
      </trkpt>
      <trkpt lat="46.94649" lon="8.71495">
        <ele>1476</ele>
        <time>2021-08-06T11:22:11.475Z</time>
      </trkpt>
      <trkpt lat="46.94649" lon="8.71495">
        <ele>1476</ele>
        <time>2021-08-06T11:22:12.475Z</time>
      </trkpt>
      <trkpt lat="46.94649" lon="8.71496">
        <ele>1476</ele>
        <time>2021-08-06T11:22:13.476Z</time>
      </trkpt>
      <trkpt lat="46.94649" lon="8.71496">
        <ele>1476</ele>
        <time>2021-08-06T11:22:14.476Z</time>
      </trkpt>
      <trkpt lat="46.94648" lon="8.71497">
        <ele>1476</ele>
        <time>2021-08-06T11:22:15.475Z</time>
      </trkpt>
      <trkpt lat="46.94648" lon="8.71498">
        <ele>1476</ele>
        <time>2021-08-06T11:22:16.475Z</time>
      </trkpt>
      <trkpt lat="46.94648" lon="8.71499">
        <ele>1476</ele>
        <time>2021-08-06T11:22:17.475Z</time>
      </trkpt>
      <trkpt lat="46.94647" lon="8.715">
        <ele>1476</ele>
        <time>2021-08-06T11:22:18.475Z</time>
      </trkpt>
      <trkpt lat="46.94646" lon="8.715">
        <ele>1477</ele>
        <time>2021-08-06T11:22:19.476Z</time>
      </trkpt>
      <trkpt lat="46.94646" lon="8.71501">
        <ele>1477</ele>
        <time>2021-08-06T11:22:20.476Z</time>
      </trkpt>
      <trkpt lat="46.94645" lon="8.71502">
        <ele>1476</ele>
        <time>2021-08-06T11:22:21.475Z</time>
      </trkpt>
      <trkpt lat="46.94644" lon="8.71502">
        <ele>1476</ele>
        <time>2021-08-06T11:22:22.476Z</time>
      </trkpt>
      <trkpt lat="46.94643" lon="8.71503">
        <ele>1476</ele>
        <time>2021-08-06T11:22:23.476Z</time>
      </trkpt>
      <trkpt lat="46.94642" lon="8.71504">
        <ele>1475</ele>
        <time>2021-08-06T11:22:24.475Z</time>
      </trkpt>
      <trkpt lat="46.94642" lon="8.71505">
        <ele>1475</ele>
        <time>2021-08-06T11:22:25.476Z</time>
      </trkpt>
      <trkpt lat="46.94641" lon="8.71506">
        <ele>1475</ele>
        <time>2021-08-06T11:22:26.475Z</time>
      </trkpt>
      <trkpt lat="46.94641" lon="8.71506">
        <ele>1475</ele>
        <time>2021-08-06T11:22:27.476Z</time>
      </trkpt>
      <trkpt lat="46.9464" lon="8.71507">
        <ele>1475</ele>
        <time>2021-08-06T11:22:28.475Z</time>
      </trkpt>
      <trkpt lat="46.94639" lon="8.71507">
        <ele>1476</ele>
        <time>2021-08-06T11:22:29.475Z</time>
      </trkpt>
      <trkpt lat="46.94639" lon="8.71507">
        <ele>1476</ele>
        <time>2021-08-06T11:22:30.475Z</time>
      </trkpt>
      <trkpt lat="46.94638" lon="8.71505">
        <ele>1476</ele>
        <time>2021-08-06T11:22:31.475Z</time>
      </trkpt>
      <trkpt lat="46.94636" lon="8.71504">
        <ele>1476</ele>
        <time>2021-08-06T11:22:32.475Z</time>
      </trkpt>
      <trkpt lat="46.94635" lon="8.71502">
        <ele>1475</ele>
        <time>2021-08-06T11:22:33.475Z</time>
      </trkpt>
      <trkpt lat="46.94634" lon="8.71501">
        <ele>1475</ele>
        <time>2021-08-06T11:22:34.475Z</time>
      </trkpt>
      <trkpt lat="46.94634" lon="8.71499">
        <ele>1475</ele>
        <time>2021-08-06T11:22:35.475Z</time>
      </trkpt>
      <trkpt lat="46.94634" lon="8.71499">
        <ele>1475</ele>
        <time>2021-08-06T11:22:36.475Z</time>
      </trkpt>
      <trkpt lat="46.94634" lon="8.71499">
        <ele>1475</ele>
        <time>2021-08-06T11:22:37.475Z</time>
      </trkpt>
      <trkpt lat="46.94634" lon="8.71498">
        <ele>1475</ele>
        <time>2021-08-06T11:22:38.475Z</time>
      </trkpt>
      <trkpt lat="46.94633" lon="8.71498">
        <ele>1475</ele>
        <time>2021-08-06T11:22:39.476Z</time>
      </trkpt>
      <trkpt lat="46.94634" lon="8.71498">
        <ele>1475</ele>
        <time>2021-08-06T11:22:40.475Z</time>
      </trkpt>
      <trkpt lat="46.94634" lon="8.71498">
        <ele>1475</ele>
        <time>2021-08-06T11:22:41.475Z</time>
      </trkpt>
      <trkpt lat="46.94633" lon="8.71499">
        <ele>1475</ele>
        <time>2021-08-06T11:22:42.475Z</time>
      </trkpt>
      <trkpt lat="46.94631" lon="8.71498">
        <ele>1475</ele>
        <time>2021-08-06T11:22:43.475Z</time>
      </trkpt>
      <trkpt lat="46.9463" lon="8.71498">
        <ele>1475</ele>
        <time>2021-08-06T11:22:44.475Z</time>
      </trkpt>
      <trkpt lat="46.94628" lon="8.71498">
        <ele>1475</ele>
        <time>2021-08-06T11:22:45.475Z</time>
      </trkpt>
      <trkpt lat="46.94628" lon="8.71498">
        <ele>1475</ele>
        <time>2021-08-06T11:22:46.475Z</time>
      </trkpt>
      <trkpt lat="46.94627" lon="8.71497">
        <ele>1474</ele>
        <time>2021-08-06T11:22:47.475Z</time>
      </trkpt>
      <trkpt lat="46.94626" lon="8.71496">
        <ele>1474</ele>
        <time>2021-08-06T11:22:48.476Z</time>
      </trkpt>
      <trkpt lat="46.94624" lon="8.71494">
        <ele>1474</ele>
        <time>2021-08-06T11:22:49.476Z</time>
      </trkpt>
      <trkpt lat="46.94623" lon="8.71492">
        <ele>1474</ele>
        <time>2021-08-06T11:22:50.476Z</time>
      </trkpt>
      <trkpt lat="46.94623" lon="8.71494">
        <ele>1474</ele>
        <time>2021-08-06T11:22:51.476Z</time>
      </trkpt>
      <trkpt lat="46.94622" lon="8.71495">
        <ele>1474</ele>
        <time>2021-08-06T11:22:52.476Z</time>
      </trkpt>
      <trkpt lat="46.94621" lon="8.71495">
        <ele>1474</ele>
        <time>2021-08-06T11:22:53.476Z</time>
      </trkpt>
      <trkpt lat="46.9462" lon="8.71496">
        <ele>1474</ele>
        <time>2021-08-06T11:22:54.476Z</time>
      </trkpt>
      <trkpt lat="46.94619" lon="8.71496">
        <ele>1475</ele>
        <time>2021-08-06T11:22:55.476Z</time>
      </trkpt>
      <trkpt lat="46.94618" lon="8.71497">
        <ele>1475</ele>
        <time>2021-08-06T11:22:56.475Z</time>
      </trkpt>
      <trkpt lat="46.94617" lon="8.71497">
        <ele>1475</ele>
        <time>2021-08-06T11:22:57.476Z</time>
      </trkpt>
      <trkpt lat="46.94617" lon="8.71496">
        <ele>1475</ele>
        <time>2021-08-06T11:22:58.476Z</time>
      </trkpt>
      <trkpt lat="46.94617" lon="8.71495">
        <ele>1475</ele>
        <time>2021-08-06T11:22:59.476Z</time>
      </trkpt>
      <trkpt lat="46.94616" lon="8.71495">
        <ele>1475</ele>
        <time>2021-08-06T11:23:00.476Z</time>
      </trkpt>
      <trkpt lat="46.94616" lon="8.71495">
        <ele>1475</ele>
        <time>2021-08-06T11:23:01.476Z</time>
      </trkpt>
      <trkpt lat="46.94615" lon="8.71495">
        <ele>1475</ele>
        <time>2021-08-06T11:23:02.475Z</time>
      </trkpt>
      <trkpt lat="46.94615" lon="8.71495">
        <ele>1475</ele>
        <time>2021-08-06T11:23:03.476Z</time>
      </trkpt>
      <trkpt lat="46.94614" lon="8.71495">
        <ele>1475</ele>
        <time>2021-08-06T11:23:04.476Z</time>
      </trkpt>
      <trkpt lat="46.94613" lon="8.71495">
        <ele>1474</ele>
        <time>2021-08-06T11:23:05.476Z</time>
      </trkpt>
      <trkpt lat="46.94612" lon="8.71494">
        <ele>1474</ele>
        <time>2021-08-06T11:23:06.476Z</time>
      </trkpt>
      <trkpt lat="46.94612" lon="8.71494">
        <ele>1473</ele>
        <time>2021-08-06T11:23:07.476Z</time>
      </trkpt>
      <trkpt lat="46.94611" lon="8.71493">
        <ele>1473</ele>
        <time>2021-08-06T11:23:08.475Z</time>
      </trkpt>
      <trkpt lat="46.94611" lon="8.71493">
        <ele>1473</ele>
        <time>2021-08-06T11:23:09.476Z</time>
      </trkpt>
      <trkpt lat="46.9461" lon="8.71494">
        <ele>1472</ele>
        <time>2021-08-06T11:23:10.475Z</time>
      </trkpt>
      <trkpt lat="46.9461" lon="8.71494">
        <ele>1472</ele>
        <time>2021-08-06T11:23:11.476Z</time>
      </trkpt>
      <trkpt lat="46.94609" lon="8.71494">
        <ele>1472</ele>
        <time>2021-08-06T11:23:12.476Z</time>
      </trkpt>
      <trkpt lat="46.94608" lon="8.71494">
        <ele>1473</ele>
        <time>2021-08-06T11:23:13.476Z</time>
      </trkpt>
      <trkpt lat="46.94608" lon="8.71493">
        <ele>1473</ele>
        <time>2021-08-06T11:23:14.476Z</time>
      </trkpt>
      <trkpt lat="46.94607" lon="8.71493">
        <ele>1473</ele>
        <time>2021-08-06T11:23:15.476Z</time>
      </trkpt>
      <trkpt lat="46.94607" lon="8.71493">
        <ele>1474</ele>
        <time>2021-08-06T11:23:16.476Z</time>
      </trkpt>
      <trkpt lat="46.94607" lon="8.71493">
        <ele>1475</ele>
        <time>2021-08-06T11:23:17.476Z</time>
      </trkpt>
      <trkpt lat="46.94606" lon="8.71493">
        <ele>1475</ele>
        <time>2021-08-06T11:23:18.475Z</time>
      </trkpt>
      <trkpt lat="46.94606" lon="8.71493">
        <ele>1476</ele>
        <time>2021-08-06T11:23:19.476Z</time>
      </trkpt>
      <trkpt lat="46.94606" lon="8.71493">
        <ele>1476</ele>
        <time>2021-08-06T11:23:20.476Z</time>
      </trkpt>
      <trkpt lat="46.94605" lon="8.71492">
        <ele>1477</ele>
        <time>2021-08-06T11:23:21.476Z</time>
      </trkpt>
      <trkpt lat="46.94605" lon="8.71492">
        <ele>1478</ele>
        <time>2021-08-06T11:23:22.476Z</time>
      </trkpt>
      <trkpt lat="46.94605" lon="8.71492">
        <ele>1479</ele>
        <time>2021-08-06T11:23:23.476Z</time>
      </trkpt>
      <trkpt lat="46.94605" lon="8.71492">
        <ele>1480</ele>
        <time>2021-08-06T11:23:24.475Z</time>
      </trkpt>
      <trkpt lat="46.94604" lon="8.71492">
        <ele>1481</ele>
        <time>2021-08-06T11:23:25.475Z</time>
      </trkpt>
      <trkpt lat="46.94603" lon="8.71492">
        <ele>1481</ele>
        <time>2021-08-06T11:23:26.476Z</time>
      </trkpt>
      <trkpt lat="46.94602" lon="8.71493">
        <ele>1481</ele>
        <time>2021-08-06T11:23:27.476Z</time>
      </trkpt>
      <trkpt lat="46.94602" lon="8.71493">
        <ele>1481</ele>
        <time>2021-08-06T11:23:28.475Z</time>
      </trkpt>
      <trkpt lat="46.94601" lon="8.71493">
        <ele>1481</ele>
        <time>2021-08-06T11:23:29.476Z</time>
      </trkpt>
      <trkpt lat="46.946" lon="8.71493">
        <ele>1481</ele>
        <time>2021-08-06T11:23:30.476Z</time>
      </trkpt>
      <trkpt lat="46.946" lon="8.71493">
        <ele>1481</ele>
        <time>2021-08-06T11:23:31.475Z</time>
      </trkpt>
      <trkpt lat="46.94599" lon="8.71493">
        <ele>1480</ele>
        <time>2021-08-06T11:23:32.476Z</time>
      </trkpt>
      <trkpt lat="46.94599" lon="8.71492">
        <ele>1481</ele>
        <time>2021-08-06T11:23:33.476Z</time>
      </trkpt>
      <trkpt lat="46.94599" lon="8.71492">
        <ele>1481</ele>
        <time>2021-08-06T11:23:34.476Z</time>
      </trkpt>
      <trkpt lat="46.94598" lon="8.71492">
        <ele>1481</ele>
        <time>2021-08-06T11:23:35.475Z</time>
      </trkpt>
      <trkpt lat="46.94598" lon="8.71492">
        <ele>1481</ele>
        <time>2021-08-06T11:23:36.475Z</time>
      </trkpt>
      <trkpt lat="46.94598" lon="8.71492">
        <ele>1482</ele>
        <time>2021-08-06T11:23:37.475Z</time>
      </trkpt>
      <trkpt lat="46.94598" lon="8.71492">
        <ele>1482</ele>
        <time>2021-08-06T11:23:38.475Z</time>
      </trkpt>
      <trkpt lat="46.94597" lon="8.71492">
        <ele>1482</ele>
        <time>2021-08-06T11:23:39.475Z</time>
      </trkpt>
      <trkpt lat="46.94597" lon="8.71492">
        <ele>1482</ele>
        <time>2021-08-06T11:23:40.476Z</time>
      </trkpt>
      <trkpt lat="46.94596" lon="8.71492">
        <ele>1482</ele>
        <time>2021-08-06T11:23:41.475Z</time>
      </trkpt>
      <trkpt lat="46.94597" lon="8.71492">
        <ele>1482</ele>
        <time>2021-08-06T11:23:42.475Z</time>
      </trkpt>
      <trkpt lat="46.94597" lon="8.71492">
        <ele>1482</ele>
        <time>2021-08-06T11:23:43.476Z</time>
      </trkpt>
      <trkpt lat="46.94597" lon="8.71492">
        <ele>1482</ele>
        <time>2021-08-06T11:23:44.475Z</time>
      </trkpt>
      <trkpt lat="46.94597" lon="8.71493">
        <ele>1481</ele>
        <time>2021-08-06T11:23:45.475Z</time>
      </trkpt>
      <trkpt lat="46.94596" lon="8.71493">
        <ele>1480</ele>
        <time>2021-08-06T11:23:46.476Z</time>
      </trkpt>
      <trkpt lat="46.94596" lon="8.71493">
        <ele>1480</ele>
        <time>2021-08-06T11:23:47.476Z</time>
      </trkpt>
      <trkpt lat="46.94596" lon="8.71494">
        <ele>1479</ele>
        <time>2021-08-06T11:23:48.475Z</time>
      </trkpt>
      <trkpt lat="46.94596" lon="8.71494">
        <ele>1479</ele>
        <time>2021-08-06T11:23:49.475Z</time>
      </trkpt>
      <trkpt lat="46.94596" lon="8.71495">
        <ele>1479</ele>
        <time>2021-08-06T11:23:50.476Z</time>
      </trkpt>
      <trkpt lat="46.94595" lon="8.71496">
        <ele>1478</ele>
        <time>2021-08-06T11:23:51.476Z</time>
      </trkpt>
      <trkpt lat="46.94595" lon="8.71497">
        <ele>1478</ele>
        <time>2021-08-06T11:23:52.476Z</time>
      </trkpt>
      <trkpt lat="46.94595" lon="8.71497">
        <ele>1478</ele>
        <time>2021-08-06T11:23:53.476Z</time>
      </trkpt>
      <trkpt lat="46.94596" lon="8.71496">
        <ele>1479</ele>
        <time>2021-08-06T11:23:54.478Z</time>
      </trkpt>
      <trkpt lat="46.94596" lon="8.71495">
        <ele>1479</ele>
        <time>2021-08-06T11:23:55.477Z</time>
      </trkpt>
      <trkpt lat="46.94595" lon="8.71495">
        <ele>1479</ele>
        <time>2021-08-06T11:23:56.478Z</time>
      </trkpt>
      <trkpt lat="46.94594" lon="8.71495">
        <ele>1479</ele>
        <time>2021-08-06T11:23:57.478Z</time>
      </trkpt>
      <trkpt lat="46.94594" lon="8.71495">
        <ele>1479</ele>
        <time>2021-08-06T11:23:58.477Z</time>
      </trkpt>
      <trkpt lat="46.94593" lon="8.71494">
        <ele>1479</ele>
        <time>2021-08-06T11:23:59.477Z</time>
      </trkpt>
      <trkpt lat="46.94593" lon="8.71494">
        <ele>1480</ele>
        <time>2021-08-06T11:24:00.478Z</time>
      </trkpt>
      <trkpt lat="46.94592" lon="8.71494">
        <ele>1480</ele>
        <time>2021-08-06T11:24:01.478Z</time>
      </trkpt>
      <trkpt lat="46.94591" lon="8.71494">
        <ele>1480</ele>
        <time>2021-08-06T11:24:02.477Z</time>
      </trkpt>
      <trkpt lat="46.9459" lon="8.71493">
        <ele>1480</ele>
        <time>2021-08-06T11:24:03.477Z</time>
      </trkpt>
      <trkpt lat="46.94589" lon="8.71493">
        <ele>1481</ele>
        <time>2021-08-06T11:24:04.477Z</time>
      </trkpt>
      <trkpt lat="46.94588" lon="8.71492">
        <ele>1481</ele>
        <time>2021-08-06T11:24:05.477Z</time>
      </trkpt>
      <trkpt lat="46.94588" lon="8.71492">
        <ele>1481</ele>
        <time>2021-08-06T11:24:06.477Z</time>
      </trkpt>
      <trkpt lat="46.94587" lon="8.71491">
        <ele>1481</ele>
        <time>2021-08-06T11:24:07.477Z</time>
      </trkpt>
      <trkpt lat="46.94586" lon="8.71491">
        <ele>1482</ele>
        <time>2021-08-06T11:24:08.478Z</time>
      </trkpt>
      <trkpt lat="46.94585" lon="8.7149">
        <ele>1482</ele>
        <time>2021-08-06T11:24:09.477Z</time>
      </trkpt>
      <trkpt lat="46.94585" lon="8.7149">
        <ele>1482</ele>
        <time>2021-08-06T11:24:10.478Z</time>
      </trkpt>
      <trkpt lat="46.94584" lon="8.7149">
        <ele>1482</ele>
        <time>2021-08-06T11:24:11.477Z</time>
      </trkpt>
      <trkpt lat="46.94584" lon="8.7149">
        <ele>1482</ele>
        <time>2021-08-06T11:24:12.478Z</time>
      </trkpt>
      <trkpt lat="46.94583" lon="8.7149">
        <ele>1482</ele>
        <time>2021-08-06T11:24:13.477Z</time>
      </trkpt>
      <trkpt lat="46.94581" lon="8.71489">
        <ele>1482</ele>
        <time>2021-08-06T11:24:14.478Z</time>
      </trkpt>
      <trkpt lat="46.9458" lon="8.71489">
        <ele>1482</ele>
        <time>2021-08-06T11:24:15.478Z</time>
      </trkpt>
      <trkpt lat="46.9458" lon="8.71488">
        <ele>1482</ele>
        <time>2021-08-06T11:24:16.477Z</time>
      </trkpt>
      <trkpt lat="46.9458" lon="8.71487">
        <ele>1482</ele>
        <time>2021-08-06T11:24:17.477Z</time>
      </trkpt>
      <trkpt lat="46.9458" lon="8.71486">
        <ele>1482</ele>
        <time>2021-08-06T11:24:18.477Z</time>
      </trkpt>
      <trkpt lat="46.94581" lon="8.71485">
        <ele>1482</ele>
        <time>2021-08-06T11:24:19.477Z</time>
      </trkpt>
      <trkpt lat="46.94581" lon="8.71484">
        <ele>1483</ele>
        <time>2021-08-06T11:24:20.477Z</time>
      </trkpt>
      <trkpt lat="46.94581" lon="8.71483">
        <ele>1483</ele>
        <time>2021-08-06T11:24:21.477Z</time>
      </trkpt>
      <trkpt lat="46.94581" lon="8.71482">
        <ele>1483</ele>
        <time>2021-08-06T11:24:22.477Z</time>
      </trkpt>
      <trkpt lat="46.94582" lon="8.71482">
        <ele>1484</ele>
        <time>2021-08-06T11:24:23.477Z</time>
      </trkpt>
      <trkpt lat="46.94582" lon="8.71481">
        <ele>1484</ele>
        <time>2021-08-06T11:24:24.477Z</time>
      </trkpt>
      <trkpt lat="46.94583" lon="8.71481">
        <ele>1484</ele>
        <time>2021-08-06T11:24:25.477Z</time>
      </trkpt>
      <trkpt lat="46.94584" lon="8.7148">
        <ele>1484</ele>
        <time>2021-08-06T11:24:26.477Z</time>
      </trkpt>
      <trkpt lat="46.94584" lon="8.71479">
        <ele>1485</ele>
        <time>2021-08-06T11:24:27.478Z</time>
      </trkpt>
      <trkpt lat="46.94585" lon="8.71478">
        <ele>1485</ele>
        <time>2021-08-06T11:24:28.478Z</time>
      </trkpt>
      <trkpt lat="46.94586" lon="8.71477">
        <ele>1485</ele>
        <time>2021-08-06T11:24:29.477Z</time>
      </trkpt>
      <trkpt lat="46.94586" lon="8.71476">
        <ele>1485</ele>
        <time>2021-08-06T11:24:30.477Z</time>
      </trkpt>
      <trkpt lat="46.94585" lon="8.71475">
        <ele>1486</ele>
        <time>2021-08-06T11:24:31.478Z</time>
      </trkpt>
      <trkpt lat="46.94585" lon="8.71474">
        <ele>1486</ele>
        <time>2021-08-06T11:24:32.478Z</time>
      </trkpt>
      <trkpt lat="46.94584" lon="8.71473">
        <ele>1486</ele>
        <time>2021-08-06T11:24:33.477Z</time>
      </trkpt>
      <trkpt lat="46.94584" lon="8.71471">
        <ele>1486</ele>
        <time>2021-08-06T11:24:34.478Z</time>
      </trkpt>
      <trkpt lat="46.94583" lon="8.7147">
        <ele>1486</ele>
        <time>2021-08-06T11:24:35.477Z</time>
      </trkpt>
      <trkpt lat="46.94582" lon="8.7147">
        <ele>1486</ele>
        <time>2021-08-06T11:24:36.477Z</time>
      </trkpt>
      <trkpt lat="46.94582" lon="8.71469">
        <ele>1486</ele>
        <time>2021-08-06T11:24:37.477Z</time>
      </trkpt>
      <trkpt lat="46.94581" lon="8.71468">
        <ele>1487</ele>
        <time>2021-08-06T11:24:38.477Z</time>
      </trkpt>
      <trkpt lat="46.94581" lon="8.71466">
        <ele>1487</ele>
        <time>2021-08-06T11:24:39.477Z</time>
      </trkpt>
      <trkpt lat="46.9458" lon="8.71465">
        <ele>1487</ele>
        <time>2021-08-06T11:24:40.477Z</time>
      </trkpt>
      <trkpt lat="46.9458" lon="8.71463">
        <ele>1486</ele>
        <time>2021-08-06T11:24:41.477Z</time>
      </trkpt>
      <trkpt lat="46.9458" lon="8.71463">
        <ele>1486</ele>
        <time>2021-08-06T11:24:42.477Z</time>
      </trkpt>
      <trkpt lat="46.94579" lon="8.71462">
        <ele>1486</ele>
        <time>2021-08-06T11:24:43.477Z</time>
      </trkpt>
      <trkpt lat="46.94579" lon="8.71461">
        <ele>1486</ele>
        <time>2021-08-06T11:24:44.478Z</time>
      </trkpt>
      <trkpt lat="46.94579" lon="8.7146">
        <ele>1486</ele>
        <time>2021-08-06T11:24:45.477Z</time>
      </trkpt>
      <trkpt lat="46.94578" lon="8.71458">
        <ele>1486</ele>
        <time>2021-08-06T11:24:46.478Z</time>
      </trkpt>
      <trkpt lat="46.94577" lon="8.71456">
        <ele>1486</ele>
        <time>2021-08-06T11:24:47.478Z</time>
      </trkpt>
      <trkpt lat="46.94576" lon="8.71455">
        <ele>1486</ele>
        <time>2021-08-06T11:24:48.477Z</time>
      </trkpt>
      <trkpt lat="46.94575" lon="8.71453">
        <ele>1486</ele>
        <time>2021-08-06T11:24:49.477Z</time>
      </trkpt>
      <trkpt lat="46.94575" lon="8.71452">
        <ele>1487</ele>
        <time>2021-08-06T11:24:54.580Z</time>
      </trkpt>
      <trkpt lat="46.94574" lon="8.71451">
        <ele>1487</ele>
        <time>2021-08-06T11:24:55.580Z</time>
      </trkpt>
      <trkpt lat="46.94574" lon="8.71451">
        <ele>1487</ele>
        <time>2021-08-06T11:24:56.581Z</time>
      </trkpt>
      <trkpt lat="46.94574" lon="8.7145">
        <ele>1487</ele>
        <time>2021-08-06T11:24:57.581Z</time>
      </trkpt>
      <trkpt lat="46.94573" lon="8.7145">
        <ele>1486</ele>
        <time>2021-08-06T11:24:58.581Z</time>
      </trkpt>
      <trkpt lat="46.94572" lon="8.71449">
        <ele>1486</ele>
        <time>2021-08-06T11:24:59.581Z</time>
      </trkpt>
      <trkpt lat="46.94571" lon="8.71447">
        <ele>1486</ele>
        <time>2021-08-06T11:25:00.581Z</time>
      </trkpt>
      <trkpt lat="46.9457" lon="8.71446">
        <ele>1485</ele>
        <time>2021-08-06T11:25:01.581Z</time>
      </trkpt>
      <trkpt lat="46.9457" lon="8.71445">
        <ele>1486</ele>
        <time>2021-08-06T11:25:02.581Z</time>
      </trkpt>
      <trkpt lat="46.94569" lon="8.71444">
        <ele>1486</ele>
        <time>2021-08-06T11:25:03.580Z</time>
      </trkpt>
      <trkpt lat="46.94568" lon="8.71443">
        <ele>1486</ele>
        <time>2021-08-06T11:25:04.580Z</time>
      </trkpt>
      <trkpt lat="46.94567" lon="8.71442">
        <ele>1486</ele>
        <time>2021-08-06T11:25:05.581Z</time>
      </trkpt>
      <trkpt lat="46.94566" lon="8.7144">
        <ele>1486</ele>
        <time>2021-08-06T11:25:06.580Z</time>
      </trkpt>
      <trkpt lat="46.94566" lon="8.71438">
        <ele>1487</ele>
        <time>2021-08-06T11:25:07.581Z</time>
      </trkpt>
      <trkpt lat="46.94565" lon="8.71437">
        <ele>1487</ele>
        <time>2021-08-06T11:25:08.581Z</time>
      </trkpt>
      <trkpt lat="46.94564" lon="8.71435">
        <ele>1487</ele>
        <time>2021-08-06T11:25:09.581Z</time>
      </trkpt>
      <trkpt lat="46.94564" lon="8.71433">
        <ele>1487</ele>
        <time>2021-08-06T11:25:10.581Z</time>
      </trkpt>
      <trkpt lat="46.94563" lon="8.71432">
        <ele>1488</ele>
        <time>2021-08-06T11:25:11.581Z</time>
      </trkpt>
      <trkpt lat="46.94563" lon="8.71432">
        <ele>1488</ele>
        <time>2021-08-06T11:25:12.580Z</time>
      </trkpt>
      <trkpt lat="46.94562" lon="8.71431">
        <ele>1488</ele>
        <time>2021-08-06T11:25:13.581Z</time>
      </trkpt>
      <trkpt lat="46.94562" lon="8.7143">
        <ele>1488</ele>
        <time>2021-08-06T11:25:14.581Z</time>
      </trkpt>
      <trkpt lat="46.94561" lon="8.71429">
        <ele>1488</ele>
        <time>2021-08-06T11:25:15.581Z</time>
      </trkpt>
      <trkpt lat="46.94561" lon="8.71428">
        <ele>1488</ele>
        <time>2021-08-06T11:25:16.580Z</time>
      </trkpt>
      <trkpt lat="46.9456" lon="8.71428">
        <ele>1487</ele>
        <time>2021-08-06T11:25:17.581Z</time>
      </trkpt>
      <trkpt lat="46.9456" lon="8.71428">
        <ele>1487</ele>
        <time>2021-08-06T11:25:18.580Z</time>
      </trkpt>
      <trkpt lat="46.94559" lon="8.71428">
        <ele>1487</ele>
        <time>2021-08-06T11:25:19.580Z</time>
      </trkpt>
      <trkpt lat="46.94559" lon="8.71428">
        <ele>1487</ele>
        <time>2021-08-06T11:25:20.581Z</time>
      </trkpt>
      <trkpt lat="46.94558" lon="8.71428">
        <ele>1487</ele>
        <time>2021-08-06T11:25:21.581Z</time>
      </trkpt>
      <trkpt lat="46.94557" lon="8.71428">
        <ele>1488</ele>
        <time>2021-08-06T11:25:22.581Z</time>
      </trkpt>
      <trkpt lat="46.94557" lon="8.71429">
        <ele>1488</ele>
        <time>2021-08-06T11:25:23.581Z</time>
      </trkpt>
      <trkpt lat="46.94556" lon="8.71429">
        <ele>1488</ele>
        <time>2021-08-06T11:25:24.581Z</time>
      </trkpt>
      <trkpt lat="46.94556" lon="8.7143">
        <ele>1489</ele>
        <time>2021-08-06T11:25:25.581Z</time>
      </trkpt>
      <trkpt lat="46.94555" lon="8.71431">
        <ele>1489</ele>
        <time>2021-08-06T11:25:26.581Z</time>
      </trkpt>
      <trkpt lat="46.94555" lon="8.71431">
        <ele>1489</ele>
        <time>2021-08-06T11:25:27.581Z</time>
      </trkpt>
      <trkpt lat="46.94554" lon="8.71432">
        <ele>1489</ele>
        <time>2021-08-06T11:25:29.675Z</time>
      </trkpt>
      <trkpt lat="46.94553" lon="8.71432">
        <ele>1489</ele>
        <time>2021-08-06T11:25:30.675Z</time>
      </trkpt>
      <trkpt lat="46.94553" lon="8.71432">
        <ele>1489</ele>
        <time>2021-08-06T11:25:31.675Z</time>
      </trkpt>
      <trkpt lat="46.94552" lon="8.71433">
        <ele>1490</ele>
        <time>2021-08-06T11:25:32.674Z</time>
      </trkpt>
      <trkpt lat="46.94552" lon="8.71433">
        <ele>1490</ele>
        <time>2021-08-06T11:25:33.674Z</time>
      </trkpt>
      <trkpt lat="46.94551" lon="8.71433">
        <ele>1490</ele>
        <time>2021-08-06T11:25:34.674Z</time>
      </trkpt>
      <trkpt lat="46.94551" lon="8.71432">
        <ele>1491</ele>
        <time>2021-08-06T11:25:35.674Z</time>
      </trkpt>
      <trkpt lat="46.9455" lon="8.71431">
        <ele>1491</ele>
        <time>2021-08-06T11:25:36.675Z</time>
      </trkpt>
      <trkpt lat="46.94549" lon="8.7143">
        <ele>1491</ele>
        <time>2021-08-06T11:25:37.674Z</time>
      </trkpt>
      <trkpt lat="46.94549" lon="8.7143">
        <ele>1491</ele>
        <time>2021-08-06T11:25:38.675Z</time>
      </trkpt>
      <trkpt lat="46.94548" lon="8.71429">
        <ele>1492</ele>
        <time>2021-08-06T11:25:39.674Z</time>
      </trkpt>
      <trkpt lat="46.94547" lon="8.71428">
        <ele>1492</ele>
        <time>2021-08-06T11:25:40.675Z</time>
      </trkpt>
      <trkpt lat="46.94547" lon="8.71427">
        <ele>1493</ele>
        <time>2021-08-06T11:25:41.674Z</time>
      </trkpt>
      <trkpt lat="46.94547" lon="8.71425">
        <ele>1493</ele>
        <time>2021-08-06T11:25:42.674Z</time>
      </trkpt>
      <trkpt lat="46.94548" lon="8.71424">
        <ele>1493</ele>
        <time>2021-08-06T11:25:43.675Z</time>
      </trkpt>
      <trkpt lat="46.94548" lon="8.71424">
        <ele>1494</ele>
        <time>2021-08-06T11:25:44.675Z</time>
      </trkpt>
      <trkpt lat="46.94548" lon="8.71423">
        <ele>1494</ele>
        <time>2021-08-06T11:25:45.675Z</time>
      </trkpt>
      <trkpt lat="46.94548" lon="8.71422">
        <ele>1494</ele>
        <time>2021-08-06T11:25:46.674Z</time>
      </trkpt>
      <trkpt lat="46.94549" lon="8.71421">
        <ele>1494</ele>
        <time>2021-08-06T11:25:47.675Z</time>
      </trkpt>
      <trkpt lat="46.94549" lon="8.7142">
        <ele>1495</ele>
        <time>2021-08-06T11:25:48.675Z</time>
      </trkpt>
      <trkpt lat="46.94549" lon="8.71419">
        <ele>1495</ele>
        <time>2021-08-06T11:25:49.675Z</time>
      </trkpt>
      <trkpt lat="46.94549" lon="8.71419">
        <ele>1495</ele>
        <time>2021-08-06T11:25:50.675Z</time>
      </trkpt>
      <trkpt lat="46.94549" lon="8.71418">
        <ele>1495</ele>
        <time>2021-08-06T11:25:51.675Z</time>
      </trkpt>
      <trkpt lat="46.94548" lon="8.71417">
        <ele>1496</ele>
        <time>2021-08-06T11:25:52.675Z</time>
      </trkpt>
      <trkpt lat="46.94548" lon="8.71417">
        <ele>1496</ele>
        <time>2021-08-06T11:25:53.675Z</time>
      </trkpt>
      <trkpt lat="46.94547" lon="8.71417">
        <ele>1496</ele>
        <time>2021-08-06T11:25:54.675Z</time>
      </trkpt>
      <trkpt lat="46.94546" lon="8.71417">
        <ele>1496</ele>
        <time>2021-08-06T11:25:55.675Z</time>
      </trkpt>
      <trkpt lat="46.94545" lon="8.71417">
        <ele>1497</ele>
        <time>2021-08-06T11:25:56.675Z</time>
      </trkpt>
      <trkpt lat="46.94545" lon="8.71417">
        <ele>1497</ele>
        <time>2021-08-06T11:25:57.675Z</time>
      </trkpt>
      <trkpt lat="46.94544" lon="8.71417">
        <ele>1497</ele>
        <time>2021-08-06T11:25:58.675Z</time>
      </trkpt>
      <trkpt lat="46.94543" lon="8.71417">
        <ele>1498</ele>
        <time>2021-08-06T11:25:59.675Z</time>
      </trkpt>
      <trkpt lat="46.94543" lon="8.71417">
        <ele>1498</ele>
        <time>2021-08-06T11:26:00.674Z</time>
      </trkpt>
      <trkpt lat="46.94542" lon="8.71418">
        <ele>1499</ele>
        <time>2021-08-06T11:26:01.675Z</time>
      </trkpt>
      <trkpt lat="46.94541" lon="8.71418">
        <ele>1499</ele>
        <time>2021-08-06T11:26:02.675Z</time>
      </trkpt>
      <trkpt lat="46.9454" lon="8.71418">
        <ele>1500</ele>
        <time>2021-08-06T11:26:03.675Z</time>
      </trkpt>
      <trkpt lat="46.94539" lon="8.71418">
        <ele>1501</ele>
        <time>2021-08-06T11:26:04.675Z</time>
      </trkpt>
      <trkpt lat="46.94539" lon="8.71419">
        <ele>1501</ele>
        <time>2021-08-06T11:26:05.675Z</time>
      </trkpt>
      <trkpt lat="46.94538" lon="8.71419">
        <ele>1502</ele>
        <time>2021-08-06T11:26:06.674Z</time>
      </trkpt>
      <trkpt lat="46.94538" lon="8.7142">
        <ele>1502</ele>
        <time>2021-08-06T11:26:07.674Z</time>
      </trkpt>
      <trkpt lat="46.94537" lon="8.71419">
        <ele>1503</ele>
        <time>2021-08-06T11:26:08.675Z</time>
      </trkpt>
      <trkpt lat="46.94536" lon="8.71419">
        <ele>1503</ele>
        <time>2021-08-06T11:26:09.675Z</time>
      </trkpt>
      <trkpt lat="46.94536" lon="8.71419">
        <ele>1503</ele>
        <time>2021-08-06T11:26:10.675Z</time>
      </trkpt>
      <trkpt lat="46.94535" lon="8.71419">
        <ele>1504</ele>
        <time>2021-08-06T11:26:11.675Z</time>
      </trkpt>
      <trkpt lat="46.94534" lon="8.7142">
        <ele>1504</ele>
        <time>2021-08-06T11:26:12.675Z</time>
      </trkpt>
      <trkpt lat="46.94533" lon="8.71421">
        <ele>1505</ele>
        <time>2021-08-06T11:26:13.674Z</time>
      </trkpt>
      <trkpt lat="46.94532" lon="8.71422">
        <ele>1505</ele>
        <time>2021-08-06T11:26:14.674Z</time>
      </trkpt>
      <trkpt lat="46.94531" lon="8.71422">
        <ele>1505</ele>
        <time>2021-08-06T11:26:21.730Z</time>
      </trkpt>
      <trkpt lat="46.94531" lon="8.71423">
        <ele>1505</ele>
        <time>2021-08-06T11:26:22.730Z</time>
      </trkpt>
      <trkpt lat="46.94531" lon="8.71423">
        <ele>1506</ele>
        <time>2021-08-06T11:26:23.729Z</time>
      </trkpt>
      <trkpt lat="46.9453" lon="8.71423">
        <ele>1506</ele>
        <time>2021-08-06T11:26:24.730Z</time>
      </trkpt>
      <trkpt lat="46.9453" lon="8.71422">
        <ele>1507</ele>
        <time>2021-08-06T11:26:25.730Z</time>
      </trkpt>
      <trkpt lat="46.94529" lon="8.71422">
        <ele>1507</ele>
        <time>2021-08-06T11:26:26.730Z</time>
      </trkpt>
      <trkpt lat="46.94529" lon="8.71422">
        <ele>1508</ele>
        <time>2021-08-06T11:26:27.730Z</time>
      </trkpt>
      <trkpt lat="46.94528" lon="8.71422">
        <ele>1508</ele>
        <time>2021-08-06T11:26:28.729Z</time>
      </trkpt>
      <trkpt lat="46.94528" lon="8.71422">
        <ele>1508</ele>
        <time>2021-08-06T11:26:29.730Z</time>
      </trkpt>
      <trkpt lat="46.94527" lon="8.71423">
        <ele>1510</ele>
        <time>2021-08-06T11:26:30.731Z</time>
      </trkpt>
      <trkpt lat="46.94526" lon="8.71424">
        <ele>1511</ele>
        <time>2021-08-06T11:26:31.731Z</time>
      </trkpt>
      <trkpt lat="46.94526" lon="8.71424">
        <ele>1511</ele>
        <time>2021-08-06T11:26:32.731Z</time>
      </trkpt>
      <trkpt lat="46.94525" lon="8.71423">
        <ele>1512</ele>
        <time>2021-08-06T11:26:33.731Z</time>
      </trkpt>
      <trkpt lat="46.94525" lon="8.71423">
        <ele>1513</ele>
        <time>2021-08-06T11:26:34.731Z</time>
      </trkpt>
      <trkpt lat="46.94524" lon="8.71423">
        <ele>1513</ele>
        <time>2021-08-06T11:26:35.730Z</time>
      </trkpt>
      <trkpt lat="46.94524" lon="8.71423">
        <ele>1514</ele>
        <time>2021-08-06T11:26:36.730Z</time>
      </trkpt>
      <trkpt lat="46.94524" lon="8.71423">
        <ele>1515</ele>
        <time>2021-08-06T11:26:37.730Z</time>
      </trkpt>
      <trkpt lat="46.94523" lon="8.71424">
        <ele>1515</ele>
        <time>2021-08-06T11:26:38.731Z</time>
      </trkpt>
      <trkpt lat="46.94522" lon="8.71424">
        <ele>1515</ele>
        <time>2021-08-06T11:26:39.731Z</time>
      </trkpt>
      <trkpt lat="46.94522" lon="8.71424">
        <ele>1515</ele>
        <time>2021-08-06T11:26:40.730Z</time>
      </trkpt>
      <trkpt lat="46.94522" lon="8.71422">
        <ele>1515</ele>
        <time>2021-08-06T11:26:41.731Z</time>
      </trkpt>
      <trkpt lat="46.94521" lon="8.71421">
        <ele>1516</ele>
        <time>2021-08-06T11:26:42.730Z</time>
      </trkpt>
      <trkpt lat="46.9452" lon="8.71419">
        <ele>1516</ele>
        <time>2021-08-06T11:26:43.730Z</time>
      </trkpt>
      <trkpt lat="46.94519" lon="8.71418">
        <ele>1515</ele>
        <time>2021-08-06T11:26:44.731Z</time>
      </trkpt>
      <trkpt lat="46.94518" lon="8.71418">
        <ele>1515</ele>
        <time>2021-08-06T11:26:45.731Z</time>
      </trkpt>
      <trkpt lat="46.94517" lon="8.71417">
        <ele>1515</ele>
        <time>2021-08-06T11:26:46.731Z</time>
      </trkpt>
      <trkpt lat="46.94516" lon="8.71417">
        <ele>1515</ele>
        <time>2021-08-06T11:26:47.731Z</time>
      </trkpt>
      <trkpt lat="46.94516" lon="8.71418">
        <ele>1514</ele>
        <time>2021-08-06T11:26:48.731Z</time>
      </trkpt>
      <trkpt lat="46.94516" lon="8.71418">
        <ele>1513</ele>
        <time>2021-08-06T11:26:49.730Z</time>
      </trkpt>
      <trkpt lat="46.94516" lon="8.71418">
        <ele>1513</ele>
        <time>2021-08-06T11:26:50.731Z</time>
      </trkpt>
      <trkpt lat="46.94516" lon="8.71418">
        <ele>1512</ele>
        <time>2021-08-06T11:26:51.730Z</time>
      </trkpt>
      <trkpt lat="46.94515" lon="8.71419">
        <ele>1511</ele>
        <time>2021-08-06T11:26:52.731Z</time>
      </trkpt>
      <trkpt lat="46.94515" lon="8.7142">
        <ele>1510</ele>
        <time>2021-08-06T11:26:53.731Z</time>
      </trkpt>
      <trkpt lat="46.94514" lon="8.7142">
        <ele>1510</ele>
        <time>2021-08-06T11:26:54.731Z</time>
      </trkpt>
      <trkpt lat="46.94513" lon="8.71421">
        <ele>1509</ele>
        <time>2021-08-06T11:26:55.731Z</time>
      </trkpt>
      <trkpt lat="46.94513" lon="8.71422">
        <ele>1508</ele>
        <time>2021-08-06T11:26:56.731Z</time>
      </trkpt>
      <trkpt lat="46.94512" lon="8.71424">
        <ele>1508</ele>
        <time>2021-08-06T11:26:57.731Z</time>
      </trkpt>
      <trkpt lat="46.94512" lon="8.71425">
        <ele>1508</ele>
        <time>2021-08-06T11:26:58.731Z</time>
      </trkpt>
      <trkpt lat="46.94512" lon="8.71425">
        <ele>1507</ele>
        <time>2021-08-06T11:26:59.730Z</time>
      </trkpt>
      <trkpt lat="46.94511" lon="8.71426">
        <ele>1507</ele>
        <time>2021-08-06T11:27:00.731Z</time>
      </trkpt>
      <trkpt lat="46.94511" lon="8.71427">
        <ele>1507</ele>
        <time>2021-08-06T11:27:01.731Z</time>
      </trkpt>
      <trkpt lat="46.94512" lon="8.71428">
        <ele>1506</ele>
        <time>2021-08-06T11:27:02.731Z</time>
      </trkpt>
      <trkpt lat="46.94512" lon="8.71429">
        <ele>1506</ele>
        <time>2021-08-06T11:27:03.731Z</time>
      </trkpt>
      <trkpt lat="46.94512" lon="8.71431">
        <ele>1506</ele>
        <time>2021-08-06T11:27:04.730Z</time>
      </trkpt>
      <trkpt lat="46.94512" lon="8.71431">
        <ele>1505</ele>
        <time>2021-08-06T11:27:05.730Z</time>
      </trkpt>
      <trkpt lat="46.94511" lon="8.71432">
        <ele>1505</ele>
        <time>2021-08-06T11:27:06.731Z</time>
      </trkpt>
      <trkpt lat="46.94511" lon="8.71433">
        <ele>1505</ele>
        <time>2021-08-06T11:27:07.730Z</time>
      </trkpt>
      <trkpt lat="46.9451" lon="8.71434">
        <ele>1505</ele>
        <time>2021-08-06T11:27:08.730Z</time>
      </trkpt>
      <trkpt lat="46.94509" lon="8.71435">
        <ele>1505</ele>
        <time>2021-08-06T11:27:09.730Z</time>
      </trkpt>
      <trkpt lat="46.94509" lon="8.71437">
        <ele>1505</ele>
        <time>2021-08-06T11:27:10.730Z</time>
      </trkpt>
      <trkpt lat="46.94508" lon="8.71438">
        <ele>1506</ele>
        <time>2021-08-06T11:27:11.730Z</time>
      </trkpt>
      <trkpt lat="46.94508" lon="8.71438">
        <ele>1506</ele>
        <time>2021-08-06T11:27:12.731Z</time>
      </trkpt>
      <trkpt lat="46.94509" lon="8.71438">
        <ele>1507</ele>
        <time>2021-08-06T11:27:13.731Z</time>
      </trkpt>
      <trkpt lat="46.94509" lon="8.71437">
        <ele>1508</ele>
        <time>2021-08-06T11:27:14.730Z</time>
      </trkpt>
      <trkpt lat="46.94509" lon="8.71435">
        <ele>1509</ele>
        <time>2021-08-06T11:27:15.731Z</time>
      </trkpt>
      <trkpt lat="46.94509" lon="8.71434">
        <ele>1510</ele>
        <time>2021-08-06T11:27:16.731Z</time>
      </trkpt>
      <trkpt lat="46.94509" lon="8.71433">
        <ele>1511</ele>
        <time>2021-08-06T11:27:17.731Z</time>
      </trkpt>
      <trkpt lat="46.94509" lon="8.71432">
        <ele>1512</ele>
        <time>2021-08-06T11:27:18.730Z</time>
      </trkpt>
      <trkpt lat="46.94508" lon="8.71431">
        <ele>1512</ele>
        <time>2021-08-06T11:27:19.731Z</time>
      </trkpt>
      <trkpt lat="46.94508" lon="8.71431">
        <ele>1513</ele>
        <time>2021-08-06T11:27:20.730Z</time>
      </trkpt>
      <trkpt lat="46.94508" lon="8.71429">
        <ele>1514</ele>
        <time>2021-08-06T11:27:21.731Z</time>
      </trkpt>
      <trkpt lat="46.94507" lon="8.71427">
        <ele>1514</ele>
        <time>2021-08-06T11:27:22.730Z</time>
      </trkpt>
      <trkpt lat="46.94507" lon="8.71426">
        <ele>1514</ele>
        <time>2021-08-06T11:27:23.731Z</time>
      </trkpt>
      <trkpt lat="46.94507" lon="8.71425">
        <ele>1514</ele>
        <time>2021-08-06T11:27:24.731Z</time>
      </trkpt>
      <trkpt lat="46.94506" lon="8.71426">
        <ele>1515</ele>
        <time>2021-08-06T11:27:25.730Z</time>
      </trkpt>
      <trkpt lat="46.94506" lon="8.71427">
        <ele>1515</ele>
        <time>2021-08-06T11:27:26.731Z</time>
      </trkpt>
      <trkpt lat="46.94506" lon="8.71426">
        <ele>1515</ele>
        <time>2021-08-06T11:27:27.731Z</time>
      </trkpt>
      <trkpt lat="46.94506" lon="8.71426">
        <ele>1515</ele>
        <time>2021-08-06T11:27:28.731Z</time>
      </trkpt>
      <trkpt lat="46.94506" lon="8.71425">
        <ele>1515</ele>
        <time>2021-08-06T11:27:29.731Z</time>
      </trkpt>
      <trkpt lat="46.94506" lon="8.71424">
        <ele>1516</ele>
        <time>2021-08-06T11:27:30.731Z</time>
      </trkpt>
      <trkpt lat="46.94506" lon="8.71424">
        <ele>1516</ele>
        <time>2021-08-06T11:27:31.732Z</time>
      </trkpt>
      <trkpt lat="46.94506" lon="8.71424">
        <ele>1517</ele>
        <time>2021-08-06T11:27:32.731Z</time>
      </trkpt>
      <trkpt lat="46.94506" lon="8.71423">
        <ele>1517</ele>
        <time>2021-08-06T11:27:33.731Z</time>
      </trkpt>
      <trkpt lat="46.94506" lon="8.71423">
        <ele>1518</ele>
        <time>2021-08-06T11:27:34.732Z</time>
      </trkpt>
      <trkpt lat="46.94505" lon="8.71423">
        <ele>1518</ele>
        <time>2021-08-06T11:27:35.732Z</time>
      </trkpt>
      <trkpt lat="46.94505" lon="8.71423">
        <ele>1518</ele>
        <time>2021-08-06T11:27:36.732Z</time>
      </trkpt>
      <trkpt lat="46.94505" lon="8.71424">
        <ele>1518</ele>
        <time>2021-08-06T11:27:37.732Z</time>
      </trkpt>
      <trkpt lat="46.94504" lon="8.71423">
        <ele>1518</ele>
        <time>2021-08-06T11:27:38.731Z</time>
      </trkpt>
      <trkpt lat="46.94504" lon="8.71423">
        <ele>1518</ele>
        <time>2021-08-06T11:27:39.732Z</time>
      </trkpt>
      <trkpt lat="46.94504" lon="8.71423">
        <ele>1518</ele>
        <time>2021-08-06T11:27:40.732Z</time>
      </trkpt>
      <trkpt lat="46.94504" lon="8.71423">
        <ele>1519</ele>
        <time>2021-08-06T11:27:41.732Z</time>
      </trkpt>
      <trkpt lat="46.94503" lon="8.71423">
        <ele>1519</ele>
        <time>2021-08-06T11:27:42.732Z</time>
      </trkpt>
      <trkpt lat="46.94503" lon="8.71423">
        <ele>1520</ele>
        <time>2021-08-06T11:27:43.732Z</time>
      </trkpt>
      <trkpt lat="46.94502" lon="8.71423">
        <ele>1520</ele>
        <time>2021-08-06T11:27:44.731Z</time>
      </trkpt>
      <trkpt lat="46.94502" lon="8.71423">
        <ele>1520</ele>
        <time>2021-08-06T11:27:45.731Z</time>
      </trkpt>
      <trkpt lat="46.94501" lon="8.71423">
        <ele>1520</ele>
        <time>2021-08-06T11:27:46.732Z</time>
      </trkpt>
      <trkpt lat="46.94501" lon="8.71423">
        <ele>1520</ele>
        <time>2021-08-06T11:27:47.732Z</time>
      </trkpt>
      <trkpt lat="46.94501" lon="8.71422">
        <ele>1520</ele>
        <time>2021-08-06T11:27:48.732Z</time>
      </trkpt>
      <trkpt lat="46.94501" lon="8.71422">
        <ele>1520</ele>
        <time>2021-08-06T11:27:49.731Z</time>
      </trkpt>
      <trkpt lat="46.945" lon="8.71421">
        <ele>1519</ele>
        <time>2021-08-06T11:27:50.731Z</time>
      </trkpt>
      <trkpt lat="46.945" lon="8.71421">
        <ele>1519</ele>
        <time>2021-08-06T11:27:51.732Z</time>
      </trkpt>
      <trkpt lat="46.94499" lon="8.71421">
        <ele>1519</ele>
        <time>2021-08-06T11:27:52.731Z</time>
      </trkpt>
      <trkpt lat="46.94499" lon="8.71421">
        <ele>1519</ele>
        <time>2021-08-06T11:27:53.731Z</time>
      </trkpt>
      <trkpt lat="46.94499" lon="8.71421">
        <ele>1519</ele>
        <time>2021-08-06T11:27:54.731Z</time>
      </trkpt>
      <trkpt lat="46.94498" lon="8.7142">
        <ele>1521</ele>
        <time>2021-08-06T11:27:55.732Z</time>
      </trkpt>
      <trkpt lat="46.94497" lon="8.7142">
        <ele>1521</ele>
        <time>2021-08-06T11:27:56.731Z</time>
      </trkpt>
      <trkpt lat="46.94497" lon="8.7142">
        <ele>1521</ele>
        <time>2021-08-06T11:27:57.731Z</time>
      </trkpt>
      <trkpt lat="46.94497" lon="8.71419">
        <ele>1522</ele>
        <time>2021-08-06T11:27:58.731Z</time>
      </trkpt>
      <trkpt lat="46.94496" lon="8.71419">
        <ele>1522</ele>
        <time>2021-08-06T11:27:59.731Z</time>
      </trkpt>
      <trkpt lat="46.94495" lon="8.71418">
        <ele>1522</ele>
        <time>2021-08-06T11:28:00.731Z</time>
      </trkpt>
      <trkpt lat="46.94495" lon="8.71418">
        <ele>1523</ele>
        <time>2021-08-06T11:28:01.731Z</time>
      </trkpt>
      <trkpt lat="46.94494" lon="8.71418">
        <ele>1523</ele>
        <time>2021-08-06T11:28:02.731Z</time>
      </trkpt>
      <trkpt lat="46.94494" lon="8.71418">
        <ele>1523</ele>
        <time>2021-08-06T11:28:03.731Z</time>
      </trkpt>
      <trkpt lat="46.94493" lon="8.71417">
        <ele>1524</ele>
        <time>2021-08-06T11:28:04.732Z</time>
      </trkpt>
      <trkpt lat="46.94493" lon="8.71417">
        <ele>1524</ele>
        <time>2021-08-06T11:28:05.731Z</time>
      </trkpt>
      <trkpt lat="46.94492" lon="8.71416">
        <ele>1524</ele>
        <time>2021-08-06T11:28:06.731Z</time>
      </trkpt>
      <trkpt lat="46.94492" lon="8.71416">
        <ele>1524</ele>
        <time>2021-08-06T11:28:07.731Z</time>
      </trkpt>
      <trkpt lat="46.94491" lon="8.71416">
        <ele>1524</ele>
        <time>2021-08-06T11:28:08.732Z</time>
      </trkpt>
      <trkpt lat="46.94491" lon="8.71415">
        <ele>1525</ele>
        <time>2021-08-06T11:28:09.731Z</time>
      </trkpt>
      <trkpt lat="46.9449" lon="8.71415">
        <ele>1525</ele>
        <time>2021-08-06T11:28:10.731Z</time>
      </trkpt>
      <trkpt lat="46.9449" lon="8.71415">
        <ele>1526</ele>
        <time>2021-08-06T11:28:11.732Z</time>
      </trkpt>
      <trkpt lat="46.94489" lon="8.71415">
        <ele>1526</ele>
        <time>2021-08-06T11:28:12.732Z</time>
      </trkpt>
      <trkpt lat="46.94489" lon="8.71415">
        <ele>1527</ele>
        <time>2021-08-06T11:28:13.732Z</time>
      </trkpt>
      <trkpt lat="46.94488" lon="8.71415">
        <ele>1527</ele>
        <time>2021-08-06T11:28:14.731Z</time>
      </trkpt>
      <trkpt lat="46.94487" lon="8.71416">
        <ele>1527</ele>
        <time>2021-08-06T11:28:15.731Z</time>
      </trkpt>
      <trkpt lat="46.94486" lon="8.71416">
        <ele>1527</ele>
        <time>2021-08-06T11:28:16.732Z</time>
      </trkpt>
      <trkpt lat="46.94485" lon="8.71416">
        <ele>1527</ele>
        <time>2021-08-06T11:28:17.732Z</time>
      </trkpt>
      <trkpt lat="46.94484" lon="8.71417">
        <ele>1526</ele>
        <time>2021-08-06T11:28:18.732Z</time>
      </trkpt>
      <trkpt lat="46.94484" lon="8.71418">
        <ele>1526</ele>
        <time>2021-08-06T11:28:19.732Z</time>
      </trkpt>
      <trkpt lat="46.94484" lon="8.71419">
        <ele>1525</ele>
        <time>2021-08-06T11:28:20.731Z</time>
      </trkpt>
      <trkpt lat="46.94484" lon="8.71421">
        <ele>1525</ele>
        <time>2021-08-06T11:28:21.732Z</time>
      </trkpt>
      <trkpt lat="46.94485" lon="8.71422">
        <ele>1524</ele>
        <time>2021-08-06T11:28:22.732Z</time>
      </trkpt>
      <trkpt lat="46.94485" lon="8.71424">
        <ele>1523</ele>
        <time>2021-08-06T11:28:23.731Z</time>
      </trkpt>
      <trkpt lat="46.94484" lon="8.71425">
        <ele>1522</ele>
        <time>2021-08-06T11:28:24.732Z</time>
      </trkpt>
      <trkpt lat="46.94483" lon="8.71425">
        <ele>1522</ele>
        <time>2021-08-06T11:28:25.731Z</time>
      </trkpt>
      <trkpt lat="46.94483" lon="8.71425">
        <ele>1522</ele>
        <time>2021-08-06T11:28:26.732Z</time>
      </trkpt>
      <trkpt lat="46.94484" lon="8.71425">
        <ele>1521</ele>
        <time>2021-08-06T11:28:27.732Z</time>
      </trkpt>
      <trkpt lat="46.94483" lon="8.71426">
        <ele>1521</ele>
        <time>2021-08-06T11:28:28.732Z</time>
      </trkpt>
      <trkpt lat="46.94483" lon="8.71427">
        <ele>1521</ele>
        <time>2021-08-06T11:28:29.732Z</time>
      </trkpt>
      <trkpt lat="46.94483" lon="8.71428">
        <ele>1520</ele>
        <time>2021-08-06T11:28:30.732Z</time>
      </trkpt>
      <trkpt lat="46.94483" lon="8.71429">
        <ele>1520</ele>
        <time>2021-08-06T11:28:31.731Z</time>
      </trkpt>
      <trkpt lat="46.94484" lon="8.71429">
        <ele>1520</ele>
        <time>2021-08-06T11:28:32.732Z</time>
      </trkpt>
      <trkpt lat="46.94484" lon="8.7143">
        <ele>1519</ele>
        <time>2021-08-06T11:28:33.731Z</time>
      </trkpt>
      <trkpt lat="46.94483" lon="8.71429">
        <ele>1519</ele>
        <time>2021-08-06T11:28:34.731Z</time>
      </trkpt>
      <trkpt lat="46.94482" lon="8.7143">
        <ele>1519</ele>
        <time>2021-08-06T11:28:35.732Z</time>
      </trkpt>
      <trkpt lat="46.94482" lon="8.71431">
        <ele>1519</ele>
        <time>2021-08-06T11:28:36.732Z</time>
      </trkpt>
      <trkpt lat="46.94482" lon="8.71431">
        <ele>1519</ele>
        <time>2021-08-06T11:28:37.732Z</time>
      </trkpt>
      <trkpt lat="46.94482" lon="8.71432">
        <ele>1518</ele>
        <time>2021-08-06T11:28:38.732Z</time>
      </trkpt>
      <trkpt lat="46.94483" lon="8.71432">
        <ele>1518</ele>
        <time>2021-08-06T11:28:39.732Z</time>
      </trkpt>
      <trkpt lat="46.94484" lon="8.71431">
        <ele>1518</ele>
        <time>2021-08-06T11:28:40.731Z</time>
      </trkpt>
      <trkpt lat="46.94485" lon="8.71431">
        <ele>1518</ele>
        <time>2021-08-06T11:28:41.732Z</time>
      </trkpt>
      <trkpt lat="46.94486" lon="8.71431">
        <ele>1518</ele>
        <time>2021-08-06T11:28:42.732Z</time>
      </trkpt>
      <trkpt lat="46.94488" lon="8.7143">
        <ele>1518</ele>
        <time>2021-08-06T11:28:43.732Z</time>
      </trkpt>
      <trkpt lat="46.94489" lon="8.7143">
        <ele>1518</ele>
        <time>2021-08-06T11:28:44.731Z</time>
      </trkpt>
      <trkpt lat="46.94487" lon="8.7143">
        <ele>1523</ele>
        <time>2021-08-06T11:28:45.732Z</time>
      </trkpt>
      <trkpt lat="46.94486" lon="8.7143">
        <ele>1522</ele>
        <time>2021-08-06T11:28:46.733Z</time>
      </trkpt>
      <trkpt lat="46.94486" lon="8.71431">
        <ele>1522</ele>
        <time>2021-08-06T11:28:47.733Z</time>
      </trkpt>
      <trkpt lat="46.94485" lon="8.7143">
        <ele>1523</ele>
        <time>2021-08-06T11:28:48.735Z</time>
      </trkpt>
      <trkpt lat="46.94485" lon="8.71431">
        <ele>1523</ele>
        <time>2021-08-06T11:28:49.734Z</time>
      </trkpt>
      <trkpt lat="46.94485" lon="8.71432">
        <ele>1523</ele>
        <time>2021-08-06T11:28:50.734Z</time>
      </trkpt>
      <trkpt lat="46.94486" lon="8.71433">
        <ele>1523</ele>
        <time>2021-08-06T11:28:51.735Z</time>
      </trkpt>
      <trkpt lat="46.94485" lon="8.71433">
        <ele>1523</ele>
        <time>2021-08-06T11:28:52.735Z</time>
      </trkpt>
      <trkpt lat="46.94485" lon="8.71434">
        <ele>1523</ele>
        <time>2021-08-06T11:28:53.734Z</time>
      </trkpt>
      <trkpt lat="46.94485" lon="8.71435">
        <ele>1523</ele>
        <time>2021-08-06T11:28:54.734Z</time>
      </trkpt>
      <trkpt lat="46.94484" lon="8.71436">
        <ele>1524</ele>
        <time>2021-08-06T11:28:55.734Z</time>
      </trkpt>
      <trkpt lat="46.94484" lon="8.71437">
        <ele>1524</ele>
        <time>2021-08-06T11:28:56.735Z</time>
      </trkpt>
      <trkpt lat="46.94484" lon="8.71437">
        <ele>1525</ele>
        <time>2021-08-06T11:28:57.735Z</time>
      </trkpt>
      <trkpt lat="46.94484" lon="8.71438">
        <ele>1525</ele>
        <time>2021-08-06T11:28:58.734Z</time>
      </trkpt>
      <trkpt lat="46.94484" lon="8.71438">
        <ele>1525</ele>
        <time>2021-08-06T11:28:59.735Z</time>
      </trkpt>
      <trkpt lat="46.94483" lon="8.71439">
        <ele>1526</ele>
        <time>2021-08-06T11:29:00.734Z</time>
      </trkpt>
      <trkpt lat="46.94483" lon="8.71441">
        <ele>1526</ele>
        <time>2021-08-06T11:29:01.735Z</time>
      </trkpt>
      <trkpt lat="46.94483" lon="8.71442">
        <ele>1527</ele>
        <time>2021-08-06T11:29:02.735Z</time>
      </trkpt>
      <trkpt lat="46.94483" lon="8.71442">
        <ele>1527</ele>
        <time>2021-08-06T11:29:03.734Z</time>
      </trkpt>
      <trkpt lat="46.94483" lon="8.71443">
        <ele>1528</ele>
        <time>2021-08-06T11:29:04.734Z</time>
      </trkpt>
      <trkpt lat="46.94483" lon="8.71444">
        <ele>1528</ele>
        <time>2021-08-06T11:29:05.735Z</time>
      </trkpt>
      <trkpt lat="46.94483" lon="8.71444">
        <ele>1529</ele>
        <time>2021-08-06T11:29:06.735Z</time>
      </trkpt>
      <trkpt lat="46.94483" lon="8.71444">
        <ele>1529</ele>
        <time>2021-08-06T11:29:07.735Z</time>
      </trkpt>
      <trkpt lat="46.94483" lon="8.71445">
        <ele>1529</ele>
        <time>2021-08-06T11:29:08.734Z</time>
      </trkpt>
      <trkpt lat="46.94483" lon="8.71446">
        <ele>1530</ele>
        <time>2021-08-06T11:29:09.734Z</time>
      </trkpt>
      <trkpt lat="46.94483" lon="8.71447">
        <ele>1530</ele>
        <time>2021-08-06T11:29:10.735Z</time>
      </trkpt>
      <trkpt lat="46.94483" lon="8.71449">
        <ele>1530</ele>
        <time>2021-08-06T11:29:11.735Z</time>
      </trkpt>
      <trkpt lat="46.94482" lon="8.7145">
        <ele>1530</ele>
        <time>2021-08-06T11:29:12.735Z</time>
      </trkpt>
      <trkpt lat="46.94482" lon="8.71451">
        <ele>1531</ele>
        <time>2021-08-06T11:29:13.735Z</time>
      </trkpt>
      <trkpt lat="46.94482" lon="8.71452">
        <ele>1531</ele>
        <time>2021-08-06T11:29:14.735Z</time>
      </trkpt>
      <trkpt lat="46.94482" lon="8.71453">
        <ele>1531</ele>
        <time>2021-08-06T11:29:15.735Z</time>
      </trkpt>
      <trkpt lat="46.94482" lon="8.71454">
        <ele>1531</ele>
        <time>2021-08-06T11:29:16.735Z</time>
      </trkpt>
      <trkpt lat="46.94482" lon="8.71455">
        <ele>1531</ele>
        <time>2021-08-06T11:29:17.734Z</time>
      </trkpt>
      <trkpt lat="46.94482" lon="8.71456">
        <ele>1531</ele>
        <time>2021-08-06T11:29:18.734Z</time>
      </trkpt>
      <trkpt lat="46.94482" lon="8.71455">
        <ele>1531</ele>
        <time>2021-08-06T11:29:19.735Z</time>
      </trkpt>
      <trkpt lat="46.94482" lon="8.71455">
        <ele>1531</ele>
        <time>2021-08-06T11:29:20.735Z</time>
      </trkpt>
      <trkpt lat="46.9448" lon="8.71455">
        <ele>1531</ele>
        <time>2021-08-06T11:29:21.736Z</time>
      </trkpt>
      <trkpt lat="46.9448" lon="8.71456">
        <ele>1532</ele>
        <time>2021-08-06T11:29:22.735Z</time>
      </trkpt>
      <trkpt lat="46.9448" lon="8.71458">
        <ele>1532</ele>
        <time>2021-08-06T11:29:23.735Z</time>
      </trkpt>
      <trkpt lat="46.9448" lon="8.71459">
        <ele>1532</ele>
        <time>2021-08-06T11:29:24.735Z</time>
      </trkpt>
      <trkpt lat="46.9448" lon="8.71461">
        <ele>1532</ele>
        <time>2021-08-06T11:29:25.735Z</time>
      </trkpt>
      <trkpt lat="46.9448" lon="8.71462">
        <ele>1532</ele>
        <time>2021-08-06T11:29:26.735Z</time>
      </trkpt>
      <trkpt lat="46.9448" lon="8.71463">
        <ele>1532</ele>
        <time>2021-08-06T11:29:27.735Z</time>
      </trkpt>
      <trkpt lat="46.94479" lon="8.71463">
        <ele>1531</ele>
        <time>2021-08-06T11:29:28.735Z</time>
      </trkpt>
      <trkpt lat="46.94479" lon="8.71464">
        <ele>1531</ele>
        <time>2021-08-06T11:29:29.735Z</time>
      </trkpt>
      <trkpt lat="46.94478" lon="8.71464">
        <ele>1531</ele>
        <time>2021-08-06T11:29:30.735Z</time>
      </trkpt>
      <trkpt lat="46.94478" lon="8.71463">
        <ele>1531</ele>
        <time>2021-08-06T11:29:31.736Z</time>
      </trkpt>
      <trkpt lat="46.94478" lon="8.71462">
        <ele>1532</ele>
        <time>2021-08-06T11:29:32.736Z</time>
      </trkpt>
      <trkpt lat="46.94477" lon="8.7146">
        <ele>1532</ele>
        <time>2021-08-06T11:29:33.736Z</time>
      </trkpt>
      <trkpt lat="46.94477" lon="8.7146">
        <ele>1531</ele>
        <time>2021-08-06T11:29:34.736Z</time>
      </trkpt>
      <trkpt lat="46.94477" lon="8.7146">
        <ele>1531</ele>
        <time>2021-08-06T11:29:35.735Z</time>
      </trkpt>
      <trkpt lat="46.94476" lon="8.71459">
        <ele>1531</ele>
        <time>2021-08-06T11:29:36.736Z</time>
      </trkpt>
      <trkpt lat="46.94476" lon="8.71459">
        <ele>1531</ele>
        <time>2021-08-06T11:29:37.736Z</time>
      </trkpt>
      <trkpt lat="46.94476" lon="8.71458">
        <ele>1531</ele>
        <time>2021-08-06T11:29:38.736Z</time>
      </trkpt>
      <trkpt lat="46.94475" lon="8.71458">
        <ele>1530</ele>
        <time>2021-08-06T11:29:39.736Z</time>
      </trkpt>
      <trkpt lat="46.94475" lon="8.71458">
        <ele>1530</ele>
        <time>2021-08-06T11:29:40.736Z</time>
      </trkpt>
      <trkpt lat="46.94475" lon="8.71458">
        <ele>1531</ele>
        <time>2021-08-06T11:29:41.736Z</time>
      </trkpt>
      <trkpt lat="46.94475" lon="8.71457">
        <ele>1533</ele>
        <time>2021-08-06T11:29:42.737Z</time>
      </trkpt>
      <trkpt lat="46.94474" lon="8.71456">
        <ele>1533</ele>
        <time>2021-08-06T11:29:43.737Z</time>
      </trkpt>
      <trkpt lat="46.94474" lon="8.71456">
        <ele>1534</ele>
        <time>2021-08-06T11:29:44.736Z</time>
      </trkpt>
      <trkpt lat="46.94473" lon="8.71455">
        <ele>1534</ele>
        <time>2021-08-06T11:29:45.737Z</time>
      </trkpt>
      <trkpt lat="46.94473" lon="8.71455">
        <ele>1535</ele>
        <time>2021-08-06T11:29:46.737Z</time>
      </trkpt>
      <trkpt lat="46.94473" lon="8.71454">
        <ele>1535</ele>
        <time>2021-08-06T11:29:47.737Z</time>
      </trkpt>
      <trkpt lat="46.94473" lon="8.71454">
        <ele>1535</ele>
        <time>2021-08-06T11:29:48.737Z</time>
      </trkpt>
      <trkpt lat="46.94473" lon="8.71453">
        <ele>1535</ele>
        <time>2021-08-06T11:29:49.736Z</time>
      </trkpt>
      <trkpt lat="46.94473" lon="8.71452">
        <ele>1535</ele>
        <time>2021-08-06T11:29:50.737Z</time>
      </trkpt>
      <trkpt lat="46.94473" lon="8.71451">
        <ele>1536</ele>
        <time>2021-08-06T11:29:51.736Z</time>
      </trkpt>
      <trkpt lat="46.94473" lon="8.71451">
        <ele>1536</ele>
        <time>2021-08-06T11:29:52.737Z</time>
      </trkpt>
      <trkpt lat="46.94472" lon="8.71451">
        <ele>1536</ele>
        <time>2021-08-06T11:29:53.736Z</time>
      </trkpt>
      <trkpt lat="46.94472" lon="8.71451">
        <ele>1538</ele>
        <time>2021-08-06T11:29:54.736Z</time>
      </trkpt>
      <trkpt lat="46.94471" lon="8.71451">
        <ele>1538</ele>
        <time>2021-08-06T11:29:55.736Z</time>
      </trkpt>
      <trkpt lat="46.94471" lon="8.7145">
        <ele>1539</ele>
        <time>2021-08-06T11:29:56.737Z</time>
      </trkpt>
      <trkpt lat="46.9447" lon="8.71448">
        <ele>1541</ele>
        <time>2021-08-06T11:29:57.736Z</time>
      </trkpt>
      <trkpt lat="46.9447" lon="8.71448">
        <ele>1542</ele>
        <time>2021-08-06T11:29:58.737Z</time>
      </trkpt>
      <trkpt lat="46.94469" lon="8.71448">
        <ele>1542</ele>
        <time>2021-08-06T11:29:59.736Z</time>
      </trkpt>
      <trkpt lat="46.94469" lon="8.71447">
        <ele>1542</ele>
        <time>2021-08-06T11:30:00.736Z</time>
      </trkpt>
      <trkpt lat="46.94468" lon="8.71447">
        <ele>1541</ele>
        <time>2021-08-06T11:30:01.737Z</time>
      </trkpt>
      <trkpt lat="46.94468" lon="8.71447">
        <ele>1541</ele>
        <time>2021-08-06T11:30:02.737Z</time>
      </trkpt>
      <trkpt lat="46.94467" lon="8.71446">
        <ele>1541</ele>
        <time>2021-08-06T11:30:03.737Z</time>
      </trkpt>
      <trkpt lat="46.94467" lon="8.71446">
        <ele>1541</ele>
        <time>2021-08-06T11:30:04.736Z</time>
      </trkpt>
      <trkpt lat="46.94467" lon="8.71445">
        <ele>1540</ele>
        <time>2021-08-06T11:30:05.736Z</time>
      </trkpt>
      <trkpt lat="46.94467" lon="8.71445">
        <ele>1541</ele>
        <time>2021-08-06T11:30:06.737Z</time>
      </trkpt>
      <trkpt lat="46.94466" lon="8.71446">
        <ele>1541</ele>
        <time>2021-08-06T11:30:07.736Z</time>
      </trkpt>
      <trkpt lat="46.94466" lon="8.71446">
        <ele>1541</ele>
        <time>2021-08-06T11:30:08.737Z</time>
      </trkpt>
      <trkpt lat="46.94465" lon="8.71446">
        <ele>1541</ele>
        <time>2021-08-06T11:30:09.737Z</time>
      </trkpt>
      <trkpt lat="46.94465" lon="8.71445">
        <ele>1541</ele>
        <time>2021-08-06T11:30:10.737Z</time>
      </trkpt>
      <trkpt lat="46.94465" lon="8.71446">
        <ele>1541</ele>
        <time>2021-08-06T11:30:11.737Z</time>
      </trkpt>
      <trkpt lat="46.94464" lon="8.71446">
        <ele>1541</ele>
        <time>2021-08-06T11:30:12.737Z</time>
      </trkpt>
      <trkpt lat="46.94463" lon="8.71445">
        <ele>1541</ele>
        <time>2021-08-06T11:30:13.737Z</time>
      </trkpt>
      <trkpt lat="46.94462" lon="8.71446">
        <ele>1542</ele>
        <time>2021-08-06T11:30:14.736Z</time>
      </trkpt>
      <trkpt lat="46.94462" lon="8.71446">
        <ele>1542</ele>
        <time>2021-08-06T11:30:15.737Z</time>
      </trkpt>
      <trkpt lat="46.94462" lon="8.71445">
        <ele>1542</ele>
        <time>2021-08-06T11:30:16.737Z</time>
      </trkpt>
      <trkpt lat="46.94461" lon="8.71445">
        <ele>1541</ele>
        <time>2021-08-06T11:30:17.737Z</time>
      </trkpt>
      <trkpt lat="46.9446" lon="8.71446">
        <ele>1541</ele>
        <time>2021-08-06T11:30:18.737Z</time>
      </trkpt>
      <trkpt lat="46.9446" lon="8.71446">
        <ele>1540</ele>
        <time>2021-08-06T11:30:19.737Z</time>
      </trkpt>
      <trkpt lat="46.9446" lon="8.71447">
        <ele>1540</ele>
        <time>2021-08-06T11:30:20.736Z</time>
      </trkpt>
      <trkpt lat="46.9446" lon="8.71448">
        <ele>1540</ele>
        <time>2021-08-06T11:30:21.737Z</time>
      </trkpt>
      <trkpt lat="46.9446" lon="8.71448">
        <ele>1540</ele>
        <time>2021-08-06T11:30:22.736Z</time>
      </trkpt>
      <trkpt lat="46.94459" lon="8.71449">
        <ele>1540</ele>
        <time>2021-08-06T11:30:23.737Z</time>
      </trkpt>
      <trkpt lat="46.94459" lon="8.7145">
        <ele>1540</ele>
        <time>2021-08-06T11:30:24.737Z</time>
      </trkpt>
      <trkpt lat="46.94458" lon="8.71451">
        <ele>1540</ele>
        <time>2021-08-06T11:30:25.737Z</time>
      </trkpt>
      <trkpt lat="46.94457" lon="8.71452">
        <ele>1540</ele>
        <time>2021-08-06T11:30:26.736Z</time>
      </trkpt>
      <trkpt lat="46.94457" lon="8.71452">
        <ele>1540</ele>
        <time>2021-08-06T11:30:27.736Z</time>
      </trkpt>
      <trkpt lat="46.94456" lon="8.71452">
        <ele>1540</ele>
        <time>2021-08-06T11:30:28.736Z</time>
      </trkpt>
      <trkpt lat="46.94456" lon="8.71453">
        <ele>1540</ele>
        <time>2021-08-06T11:30:29.737Z</time>
      </trkpt>
      <trkpt lat="46.94455" lon="8.71453">
        <ele>1541</ele>
        <time>2021-08-06T11:30:30.737Z</time>
      </trkpt>
      <trkpt lat="46.94455" lon="8.71453">
        <ele>1541</ele>
        <time>2021-08-06T11:30:31.737Z</time>
      </trkpt>
      <trkpt lat="46.94455" lon="8.71453">
        <ele>1541</ele>
        <time>2021-08-06T11:30:32.737Z</time>
      </trkpt>
      <trkpt lat="46.94454" lon="8.71453">
        <ele>1541</ele>
        <time>2021-08-06T11:30:33.736Z</time>
      </trkpt>
      <trkpt lat="46.94453" lon="8.71452">
        <ele>1542</ele>
        <time>2021-08-06T11:30:34.736Z</time>
      </trkpt>
      <trkpt lat="46.94452" lon="8.71452">
        <ele>1542</ele>
        <time>2021-08-06T11:30:35.737Z</time>
      </trkpt>
      <trkpt lat="46.94452" lon="8.71453">
        <ele>1542</ele>
        <time>2021-08-06T11:30:36.737Z</time>
      </trkpt>
      <trkpt lat="46.94451" lon="8.71453">
        <ele>1543</ele>
        <time>2021-08-06T11:30:37.736Z</time>
      </trkpt>
      <trkpt lat="46.94451" lon="8.71453">
        <ele>1543</ele>
        <time>2021-08-06T11:30:38.737Z</time>
      </trkpt>
      <trkpt lat="46.94451" lon="8.71453">
        <ele>1544</ele>
        <time>2021-08-06T11:30:39.737Z</time>
      </trkpt>
      <trkpt lat="46.9445" lon="8.71454">
        <ele>1543</ele>
        <time>2021-08-06T11:30:40.738Z</time>
      </trkpt>
      <trkpt lat="46.9445" lon="8.71454">
        <ele>1543</ele>
        <time>2021-08-06T11:30:41.738Z</time>
      </trkpt>
      <trkpt lat="46.9445" lon="8.71453">
        <ele>1543</ele>
        <time>2021-08-06T11:30:42.737Z</time>
      </trkpt>
      <trkpt lat="46.94449" lon="8.71453">
        <ele>1543</ele>
        <time>2021-08-06T11:30:43.738Z</time>
      </trkpt>
      <trkpt lat="46.94449" lon="8.71452">
        <ele>1544</ele>
        <time>2021-08-06T11:30:44.738Z</time>
      </trkpt>
      <trkpt lat="46.94448" lon="8.71452">
        <ele>1544</ele>
        <time>2021-08-06T11:30:45.738Z</time>
      </trkpt>
      <trkpt lat="46.94448" lon="8.71452">
        <ele>1545</ele>
        <time>2021-08-06T11:30:46.738Z</time>
      </trkpt>
      <trkpt lat="46.94447" lon="8.71452">
        <ele>1545</ele>
        <time>2021-08-06T11:30:47.738Z</time>
      </trkpt>
      <trkpt lat="46.94447" lon="8.71452">
        <ele>1545</ele>
        <time>2021-08-06T11:30:48.738Z</time>
      </trkpt>
      <trkpt lat="46.94447" lon="8.71452">
        <ele>1546</ele>
        <time>2021-08-06T11:30:49.738Z</time>
      </trkpt>
      <trkpt lat="46.94446" lon="8.71452">
        <ele>1546</ele>
        <time>2021-08-06T11:30:50.738Z</time>
      </trkpt>
      <trkpt lat="46.94446" lon="8.71451">
        <ele>1546</ele>
        <time>2021-08-06T11:30:51.738Z</time>
      </trkpt>
      <trkpt lat="46.94446" lon="8.71451">
        <ele>1547</ele>
        <time>2021-08-06T11:30:52.737Z</time>
      </trkpt>
      <trkpt lat="46.94446" lon="8.7145">
        <ele>1547</ele>
        <time>2021-08-06T11:30:53.737Z</time>
      </trkpt>
      <trkpt lat="46.94445" lon="8.7145">
        <ele>1548</ele>
        <time>2021-08-06T11:30:54.737Z</time>
      </trkpt>
      <trkpt lat="46.94445" lon="8.7145">
        <ele>1548</ele>
        <time>2021-08-06T11:30:55.737Z</time>
      </trkpt>
      <trkpt lat="46.94445" lon="8.7145">
        <ele>1548</ele>
        <time>2021-08-06T11:30:56.738Z</time>
      </trkpt>
      <trkpt lat="46.94445" lon="8.71449">
        <ele>1548</ele>
        <time>2021-08-06T11:30:57.737Z</time>
      </trkpt>
      <trkpt lat="46.94445" lon="8.71448">
        <ele>1549</ele>
        <time>2021-08-06T11:30:58.737Z</time>
      </trkpt>
      <trkpt lat="46.94445" lon="8.71447">
        <ele>1549</ele>
        <time>2021-08-06T11:30:59.737Z</time>
      </trkpt>
      <trkpt lat="46.94445" lon="8.71446">
        <ele>1549</ele>
        <time>2021-08-06T11:31:00.738Z</time>
      </trkpt>
      <trkpt lat="46.94445" lon="8.71446">
        <ele>1549</ele>
        <time>2021-08-06T11:31:01.738Z</time>
      </trkpt>
      <trkpt lat="46.94445" lon="8.71445">
        <ele>1550</ele>
        <time>2021-08-06T11:31:02.738Z</time>
      </trkpt>
      <trkpt lat="46.94445" lon="8.71444">
        <ele>1550</ele>
        <time>2021-08-06T11:31:03.738Z</time>
      </trkpt>
      <trkpt lat="46.94445" lon="8.71443">
        <ele>1550</ele>
        <time>2021-08-06T11:31:04.738Z</time>
      </trkpt>
      <trkpt lat="46.94445" lon="8.71442">
        <ele>1550</ele>
        <time>2021-08-06T11:31:05.738Z</time>
      </trkpt>
      <trkpt lat="46.94444" lon="8.71442">
        <ele>1550</ele>
        <time>2021-08-06T11:31:06.738Z</time>
      </trkpt>
      <trkpt lat="46.94444" lon="8.71441">
        <ele>1549</ele>
        <time>2021-08-06T11:31:07.737Z</time>
      </trkpt>
      <trkpt lat="46.94443" lon="8.7144">
        <ele>1549</ele>
        <time>2021-08-06T11:31:08.737Z</time>
      </trkpt>
      <trkpt lat="46.94443" lon="8.7144">
        <ele>1549</ele>
        <time>2021-08-06T11:31:09.738Z</time>
      </trkpt>
      <trkpt lat="46.94443" lon="8.71439">
        <ele>1548</ele>
        <time>2021-08-06T11:31:10.738Z</time>
      </trkpt>
      <trkpt lat="46.94443" lon="8.71439">
        <ele>1548</ele>
        <time>2021-08-06T11:31:11.737Z</time>
      </trkpt>
      <trkpt lat="46.94444" lon="8.71439">
        <ele>1548</ele>
        <time>2021-08-06T11:31:12.737Z</time>
      </trkpt>
      <trkpt lat="46.94444" lon="8.71437">
        <ele>1548</ele>
        <time>2021-08-06T11:31:13.738Z</time>
      </trkpt>
      <trkpt lat="46.94445" lon="8.71435">
        <ele>1548</ele>
        <time>2021-08-06T11:31:14.737Z</time>
      </trkpt>
      <trkpt lat="46.94444" lon="8.71434">
        <ele>1548</ele>
        <time>2021-08-06T11:31:15.738Z</time>
      </trkpt>
      <trkpt lat="46.94444" lon="8.71433">
        <ele>1548</ele>
        <time>2021-08-06T11:31:16.738Z</time>
      </trkpt>
      <trkpt lat="46.94444" lon="8.71432">
        <ele>1548</ele>
        <time>2021-08-06T11:31:17.738Z</time>
      </trkpt>
      <trkpt lat="46.94444" lon="8.71431">
        <ele>1549</ele>
        <time>2021-08-06T11:31:18.738Z</time>
      </trkpt>
      <trkpt lat="46.94443" lon="8.71431">
        <ele>1549</ele>
        <time>2021-08-06T11:31:19.738Z</time>
      </trkpt>
      <trkpt lat="46.94443" lon="8.7143">
        <ele>1550</ele>
        <time>2021-08-06T11:31:20.738Z</time>
      </trkpt>
      <trkpt lat="46.94443" lon="8.71429">
        <ele>1550</ele>
        <time>2021-08-06T11:31:21.738Z</time>
      </trkpt>
      <trkpt lat="46.94443" lon="8.71428">
        <ele>1551</ele>
        <time>2021-08-06T11:31:22.738Z</time>
      </trkpt>
      <trkpt lat="46.94443" lon="8.71428">
        <ele>1552</ele>
        <time>2021-08-06T11:31:23.737Z</time>
      </trkpt>
      <trkpt lat="46.94442" lon="8.71427">
        <ele>1552</ele>
        <time>2021-08-06T11:31:24.738Z</time>
      </trkpt>
      <trkpt lat="46.94442" lon="8.71426">
        <ele>1552</ele>
        <time>2021-08-06T11:31:25.738Z</time>
      </trkpt>
      <trkpt lat="46.94442" lon="8.71425">
        <ele>1553</ele>
        <time>2021-08-06T11:31:26.737Z</time>
      </trkpt>
      <trkpt lat="46.94442" lon="8.71424">
        <ele>1553</ele>
        <time>2021-08-06T11:31:27.738Z</time>
      </trkpt>
      <trkpt lat="46.94442" lon="8.71424">
        <ele>1553</ele>
        <time>2021-08-06T11:31:28.737Z</time>
      </trkpt>
      <trkpt lat="46.94441" lon="8.71423">
        <ele>1554</ele>
        <time>2021-08-06T11:31:29.738Z</time>
      </trkpt>
      <trkpt lat="46.94441" lon="8.71423">
        <ele>1554</ele>
        <time>2021-08-06T11:31:30.738Z</time>
      </trkpt>
      <trkpt lat="46.9444" lon="8.71423">
        <ele>1554</ele>
        <time>2021-08-06T11:31:31.737Z</time>
      </trkpt>
      <trkpt lat="46.9444" lon="8.71422">
        <ele>1554</ele>
        <time>2021-08-06T11:31:32.738Z</time>
      </trkpt>
      <trkpt lat="46.94439" lon="8.71422">
        <ele>1554</ele>
        <time>2021-08-06T11:31:33.738Z</time>
      </trkpt>
      <trkpt lat="46.94439" lon="8.7142">
        <ele>1554</ele>
        <time>2021-08-06T11:31:34.737Z</time>
      </trkpt>
      <trkpt lat="46.94438" lon="8.7142">
        <ele>1555</ele>
        <time>2021-08-06T11:31:35.738Z</time>
      </trkpt>
      <trkpt lat="46.94438" lon="8.71419">
        <ele>1555</ele>
        <time>2021-08-06T11:31:36.737Z</time>
      </trkpt>
      <trkpt lat="46.94438" lon="8.71418">
        <ele>1555</ele>
        <time>2021-08-06T11:31:37.737Z</time>
      </trkpt>
      <trkpt lat="46.94437" lon="8.71418">
        <ele>1555</ele>
        <time>2021-08-06T11:31:38.737Z</time>
      </trkpt>
      <trkpt lat="46.94436" lon="8.71417">
        <ele>1555</ele>
        <time>2021-08-06T11:31:39.738Z</time>
      </trkpt>
      <trkpt lat="46.94436" lon="8.71417">
        <ele>1555</ele>
        <time>2021-08-06T11:31:40.737Z</time>
      </trkpt>
      <trkpt lat="46.94436" lon="8.71416">
        <ele>1555</ele>
        <time>2021-08-06T11:31:41.738Z</time>
      </trkpt>
      <trkpt lat="46.94435" lon="8.71415">
        <ele>1556</ele>
        <time>2021-08-06T11:31:42.737Z</time>
      </trkpt>
      <trkpt lat="46.94435" lon="8.71414">
        <ele>1556</ele>
        <time>2021-08-06T11:31:43.737Z</time>
      </trkpt>
      <trkpt lat="46.94435" lon="8.71413">
        <ele>1556</ele>
        <time>2021-08-06T11:31:44.738Z</time>
      </trkpt>
      <trkpt lat="46.94435" lon="8.71412">
        <ele>1556</ele>
        <time>2021-08-06T11:31:45.737Z</time>
      </trkpt>
      <trkpt lat="46.94434" lon="8.71411">
        <ele>1557</ele>
        <time>2021-08-06T11:31:46.738Z</time>
      </trkpt>
      <trkpt lat="46.94434" lon="8.71411">
        <ele>1558</ele>
        <time>2021-08-06T11:31:47.737Z</time>
      </trkpt>
      <trkpt lat="46.94433" lon="8.71411">
        <ele>1558</ele>
        <time>2021-08-06T11:31:48.738Z</time>
      </trkpt>
      <trkpt lat="46.94433" lon="8.7141">
        <ele>1558</ele>
        <time>2021-08-06T11:31:49.738Z</time>
      </trkpt>
      <trkpt lat="46.94432" lon="8.7141">
        <ele>1559</ele>
        <time>2021-08-06T11:31:50.737Z</time>
      </trkpt>
      <trkpt lat="46.94432" lon="8.71411">
        <ele>1558</ele>
        <time>2021-08-06T11:31:51.737Z</time>
      </trkpt>
      <trkpt lat="46.94431" lon="8.7141">
        <ele>1558</ele>
        <time>2021-08-06T11:31:52.737Z</time>
      </trkpt>
      <trkpt lat="46.94431" lon="8.7141">
        <ele>1559</ele>
        <time>2021-08-06T11:31:53.737Z</time>
      </trkpt>
      <trkpt lat="46.94431" lon="8.71409">
        <ele>1559</ele>
        <time>2021-08-06T11:31:54.738Z</time>
      </trkpt>
      <trkpt lat="46.9443" lon="8.71409">
        <ele>1559</ele>
        <time>2021-08-06T11:31:55.738Z</time>
      </trkpt>
      <trkpt lat="46.9443" lon="8.71409">
        <ele>1559</ele>
        <time>2021-08-06T11:31:56.738Z</time>
      </trkpt>
      <trkpt lat="46.9443" lon="8.71409">
        <ele>1559</ele>
        <time>2021-08-06T11:31:57.738Z</time>
      </trkpt>
      <trkpt lat="46.9443" lon="8.71408">
        <ele>1559</ele>
        <time>2021-08-06T11:31:58.737Z</time>
      </trkpt>
      <trkpt lat="46.94429" lon="8.71408">
        <ele>1559</ele>
        <time>2021-08-06T11:31:59.738Z</time>
      </trkpt>
      <trkpt lat="46.94428" lon="8.71408">
        <ele>1559</ele>
        <time>2021-08-06T11:32:00.738Z</time>
      </trkpt>
      <trkpt lat="46.94428" lon="8.71408">
        <ele>1559</ele>
        <time>2021-08-06T11:32:01.738Z</time>
      </trkpt>
      <trkpt lat="46.94427" lon="8.71408">
        <ele>1559</ele>
        <time>2021-08-06T11:32:02.738Z</time>
      </trkpt>
      <trkpt lat="46.94426" lon="8.71407">
        <ele>1559</ele>
        <time>2021-08-06T11:32:03.738Z</time>
      </trkpt>
      <trkpt lat="46.94426" lon="8.71406">
        <ele>1559</ele>
        <time>2021-08-06T11:32:04.737Z</time>
      </trkpt>
      <trkpt lat="46.94426" lon="8.71406">
        <ele>1560</ele>
        <time>2021-08-06T11:32:05.737Z</time>
      </trkpt>
      <trkpt lat="46.94425" lon="8.71405">
        <ele>1560</ele>
        <time>2021-08-06T11:32:06.738Z</time>
      </trkpt>
      <trkpt lat="46.94425" lon="8.71403">
        <ele>1561</ele>
        <time>2021-08-06T11:32:07.737Z</time>
      </trkpt>
      <trkpt lat="46.94425" lon="8.71403">
        <ele>1561</ele>
        <time>2021-08-06T11:32:08.737Z</time>
      </trkpt>
      <trkpt lat="46.94425" lon="8.71403">
        <ele>1561</ele>
        <time>2021-08-06T11:32:09.737Z</time>
      </trkpt>
      <trkpt lat="46.94425" lon="8.71402">
        <ele>1561</ele>
        <time>2021-08-06T11:32:10.739Z</time>
      </trkpt>
      <trkpt lat="46.94424" lon="8.71402">
        <ele>1561</ele>
        <time>2021-08-06T11:32:11.738Z</time>
      </trkpt>
      <trkpt lat="46.94425" lon="8.71402">
        <ele>1561</ele>
        <time>2021-08-06T11:32:12.738Z</time>
      </trkpt>
      <trkpt lat="46.94425" lon="8.71401">
        <ele>1561</ele>
        <time>2021-08-06T11:32:13.739Z</time>
      </trkpt>
      <trkpt lat="46.94425" lon="8.714">
        <ele>1561</ele>
        <time>2021-08-06T11:32:14.738Z</time>
      </trkpt>
      <trkpt lat="46.94425" lon="8.71399">
        <ele>1561</ele>
        <time>2021-08-06T11:32:15.738Z</time>
      </trkpt>
      <trkpt lat="46.94425" lon="8.71398">
        <ele>1561</ele>
        <time>2021-08-06T11:32:16.738Z</time>
      </trkpt>
      <trkpt lat="46.94424" lon="8.71398">
        <ele>1562</ele>
        <time>2021-08-06T11:32:17.739Z</time>
      </trkpt>
      <trkpt lat="46.94424" lon="8.71397">
        <ele>1562</ele>
        <time>2021-08-06T11:32:18.739Z</time>
      </trkpt>
      <trkpt lat="46.94424" lon="8.71397">
        <ele>1562</ele>
        <time>2021-08-06T11:32:19.739Z</time>
      </trkpt>
      <trkpt lat="46.94424" lon="8.71396">
        <ele>1562</ele>
        <time>2021-08-06T11:32:20.739Z</time>
      </trkpt>
      <trkpt lat="46.94423" lon="8.71396">
        <ele>1563</ele>
        <time>2021-08-06T11:32:21.739Z</time>
      </trkpt>
      <trkpt lat="46.94423" lon="8.71395">
        <ele>1563</ele>
        <time>2021-08-06T11:32:22.739Z</time>
      </trkpt>
      <trkpt lat="46.94423" lon="8.71395">
        <ele>1563</ele>
        <time>2021-08-06T11:32:23.738Z</time>
      </trkpt>
      <trkpt lat="46.94423" lon="8.71394">
        <ele>1563</ele>
        <time>2021-08-06T11:32:24.738Z</time>
      </trkpt>
      <trkpt lat="46.94423" lon="8.71394">
        <ele>1563</ele>
        <time>2021-08-06T11:32:25.739Z</time>
      </trkpt>
      <trkpt lat="46.94423" lon="8.71393">
        <ele>1564</ele>
        <time>2021-08-06T11:32:26.738Z</time>
      </trkpt>
      <trkpt lat="46.94423" lon="8.71393">
        <ele>1564</ele>
        <time>2021-08-06T11:32:27.738Z</time>
      </trkpt>
      <trkpt lat="46.94424" lon="8.71392">
        <ele>1564</ele>
        <time>2021-08-06T11:32:28.739Z</time>
      </trkpt>
      <trkpt lat="46.94424" lon="8.71392">
        <ele>1565</ele>
        <time>2021-08-06T11:32:29.739Z</time>
      </trkpt>
      <trkpt lat="46.94424" lon="8.71391">
        <ele>1565</ele>
        <time>2021-08-06T11:32:30.739Z</time>
      </trkpt>
      <trkpt lat="46.94424" lon="8.7139">
        <ele>1565</ele>
        <time>2021-08-06T11:32:31.738Z</time>
      </trkpt>
      <trkpt lat="46.94423" lon="8.71389">
        <ele>1565</ele>
        <time>2021-08-06T11:32:32.739Z</time>
      </trkpt>
      <trkpt lat="46.94422" lon="8.71388">
        <ele>1565</ele>
        <time>2021-08-06T11:32:33.738Z</time>
      </trkpt>
      <trkpt lat="46.94422" lon="8.71388">
        <ele>1564</ele>
        <time>2021-08-06T11:32:34.739Z</time>
      </trkpt>
      <trkpt lat="46.94421" lon="8.71388">
        <ele>1564</ele>
        <time>2021-08-06T11:32:35.739Z</time>
      </trkpt>
      <trkpt lat="46.94421" lon="8.71388">
        <ele>1564</ele>
        <time>2021-08-06T11:32:36.739Z</time>
      </trkpt>
      <trkpt lat="46.94421" lon="8.71388">
        <ele>1563</ele>
        <time>2021-08-06T11:32:37.739Z</time>
      </trkpt>
      <trkpt lat="46.9442" lon="8.71388">
        <ele>1563</ele>
        <time>2021-08-06T11:32:38.740Z</time>
      </trkpt>
      <trkpt lat="46.94419" lon="8.71388">
        <ele>1563</ele>
        <time>2021-08-06T11:32:39.739Z</time>
      </trkpt>
      <trkpt lat="46.94418" lon="8.71389">
        <ele>1563</ele>
        <time>2021-08-06T11:32:40.740Z</time>
      </trkpt>
      <trkpt lat="46.94417" lon="8.71389">
        <ele>1562</ele>
        <time>2021-08-06T11:32:41.740Z</time>
      </trkpt>
      <trkpt lat="46.94417" lon="8.7139">
        <ele>1562</ele>
        <time>2021-08-06T11:32:42.740Z</time>
      </trkpt>
      <trkpt lat="46.94416" lon="8.71391">
        <ele>1562</ele>
        <time>2021-08-06T11:32:43.740Z</time>
      </trkpt>
      <trkpt lat="46.94416" lon="8.7139">
        <ele>1562</ele>
        <time>2021-08-06T11:32:44.740Z</time>
      </trkpt>
      <trkpt lat="46.94414" lon="8.71392">
        <ele>1561</ele>
        <time>2021-08-06T11:32:45.739Z</time>
      </trkpt>
      <trkpt lat="46.94413" lon="8.71393">
        <ele>1561</ele>
        <time>2021-08-06T11:32:46.739Z</time>
      </trkpt>
      <trkpt lat="46.94413" lon="8.71394">
        <ele>1561</ele>
        <time>2021-08-06T11:32:47.740Z</time>
      </trkpt>
      <trkpt lat="46.94412" lon="8.71393">
        <ele>1561</ele>
        <time>2021-08-06T11:32:48.739Z</time>
      </trkpt>
      <trkpt lat="46.94412" lon="8.71394">
        <ele>1561</ele>
        <time>2021-08-06T11:32:49.740Z</time>
      </trkpt>
      <trkpt lat="46.94411" lon="8.71394">
        <ele>1560</ele>
        <time>2021-08-06T11:32:50.740Z</time>
      </trkpt>
      <trkpt lat="46.94411" lon="8.71394">
        <ele>1560</ele>
        <time>2021-08-06T11:32:51.740Z</time>
      </trkpt>
      <trkpt lat="46.94411" lon="8.71395">
        <ele>1560</ele>
        <time>2021-08-06T11:32:52.740Z</time>
      </trkpt>
      <trkpt lat="46.94411" lon="8.71395">
        <ele>1560</ele>
        <time>2021-08-06T11:32:53.740Z</time>
      </trkpt>
      <trkpt lat="46.9441" lon="8.71394">
        <ele>1559</ele>
        <time>2021-08-06T11:32:54.740Z</time>
      </trkpt>
      <trkpt lat="46.94409" lon="8.71393">
        <ele>1559</ele>
        <time>2021-08-06T11:32:55.740Z</time>
      </trkpt>
      <trkpt lat="46.94409" lon="8.71393">
        <ele>1559</ele>
        <time>2021-08-06T11:32:56.740Z</time>
      </trkpt>
      <trkpt lat="46.94408" lon="8.71392">
        <ele>1559</ele>
        <time>2021-08-06T11:32:57.740Z</time>
      </trkpt>
      <trkpt lat="46.94408" lon="8.71391">
        <ele>1559</ele>
        <time>2021-08-06T11:32:58.739Z</time>
      </trkpt>
      <trkpt lat="46.94408" lon="8.71391">
        <ele>1559</ele>
        <time>2021-08-06T11:32:59.739Z</time>
      </trkpt>
      <trkpt lat="46.94409" lon="8.7139">
        <ele>1559</ele>
        <time>2021-08-06T11:33:00.739Z</time>
      </trkpt>
      <trkpt lat="46.94409" lon="8.7139">
        <ele>1559</ele>
        <time>2021-08-06T11:33:01.740Z</time>
      </trkpt>
      <trkpt lat="46.9441" lon="8.71391">
        <ele>1559</ele>
        <time>2021-08-06T11:33:02.740Z</time>
      </trkpt>
      <trkpt lat="46.94411" lon="8.71391">
        <ele>1559</ele>
        <time>2021-08-06T11:33:03.739Z</time>
      </trkpt>
      <trkpt lat="46.94412" lon="8.71389">
        <ele>1559</ele>
        <time>2021-08-06T11:33:04.740Z</time>
      </trkpt>
      <trkpt lat="46.94413" lon="8.71389">
        <ele>1559</ele>
        <time>2021-08-06T11:33:05.740Z</time>
      </trkpt>
      <trkpt lat="46.94413" lon="8.71389">
        <ele>1559</ele>
        <time>2021-08-06T11:33:06.740Z</time>
      </trkpt>
      <trkpt lat="46.94411" lon="8.7139">
        <ele>1561</ele>
        <time>2021-08-06T11:33:07.741Z</time>
      </trkpt>
      <trkpt lat="46.94411" lon="8.7139">
        <ele>1561</ele>
        <time>2021-08-06T11:33:08.740Z</time>
      </trkpt>
      <trkpt lat="46.94411" lon="8.7139">
        <ele>1562</ele>
        <time>2021-08-06T11:33:09.741Z</time>
      </trkpt>
      <trkpt lat="46.9441" lon="8.71389">
        <ele>1562</ele>
        <time>2021-08-06T11:33:10.741Z</time>
      </trkpt>
      <trkpt lat="46.9441" lon="8.71389">
        <ele>1562</ele>
        <time>2021-08-06T11:33:11.741Z</time>
      </trkpt>
      <trkpt lat="46.9441" lon="8.71389">
        <ele>1562</ele>
        <time>2021-08-06T11:33:12.740Z</time>
      </trkpt>
      <trkpt lat="46.9441" lon="8.71389">
        <ele>1562</ele>
        <time>2021-08-06T11:33:13.741Z</time>
      </trkpt>
      <trkpt lat="46.9441" lon="8.71389">
        <ele>1562</ele>
        <time>2021-08-06T11:33:14.741Z</time>
      </trkpt>
      <trkpt lat="46.9441" lon="8.71388">
        <ele>1562</ele>
        <time>2021-08-06T11:33:15.740Z</time>
      </trkpt>
      <trkpt lat="46.9441" lon="8.71392">
        <ele>1565</ele>
        <time>2021-08-06T11:33:16.741Z</time>
      </trkpt>
      <trkpt lat="46.9441" lon="8.71393">
        <ele>1566</ele>
        <time>2021-08-06T11:33:17.742Z</time>
      </trkpt>
      <trkpt lat="46.9441" lon="8.71393">
        <ele>1566</ele>
        <time>2021-08-06T11:33:18.742Z</time>
      </trkpt>
      <trkpt lat="46.9441" lon="8.71393">
        <ele>1565</ele>
        <time>2021-08-06T11:33:19.742Z</time>
      </trkpt>
      <trkpt lat="46.94413" lon="8.71391">
        <ele>1563</ele>
        <time>2021-08-06T11:33:20.743Z</time>
      </trkpt>
      <trkpt lat="46.94414" lon="8.7139">
        <ele>1564</ele>
        <time>2021-08-06T11:33:21.742Z</time>
      </trkpt>
      <trkpt lat="46.94415" lon="8.71389">
        <ele>1564</ele>
        <time>2021-08-06T11:33:22.742Z</time>
      </trkpt>
      <trkpt lat="46.94415" lon="8.71388">
        <ele>1564</ele>
        <time>2021-08-06T11:33:23.742Z</time>
      </trkpt>
      <trkpt lat="46.94414" lon="8.71388">
        <ele>1564</ele>
        <time>2021-08-06T11:33:24.743Z</time>
      </trkpt>
      <trkpt lat="46.94414" lon="8.71388">
        <ele>1564</ele>
        <time>2021-08-06T11:33:25.742Z</time>
      </trkpt>
      <trkpt lat="46.94414" lon="8.71388">
        <ele>1564</ele>
        <time>2021-08-06T11:33:26.742Z</time>
      </trkpt>
      <trkpt lat="46.94414" lon="8.71386">
        <ele>1564</ele>
        <time>2021-08-06T11:33:27.742Z</time>
      </trkpt>
      <trkpt lat="46.94414" lon="8.71386">
        <ele>1563</ele>
        <time>2021-08-06T11:33:28.742Z</time>
      </trkpt>
      <trkpt lat="46.94415" lon="8.71386">
        <ele>1563</ele>
        <time>2021-08-06T11:33:29.743Z</time>
      </trkpt>
      <trkpt lat="46.94416" lon="8.71386">
        <ele>1563</ele>
        <time>2021-08-06T11:33:30.743Z</time>
      </trkpt>
      <trkpt lat="46.94416" lon="8.71384">
        <ele>1563</ele>
        <time>2021-08-06T11:33:31.743Z</time>
      </trkpt>
      <trkpt lat="46.94416" lon="8.71383">
        <ele>1563</ele>
        <time>2021-08-06T11:33:32.742Z</time>
      </trkpt>
      <trkpt lat="46.94415" lon="8.71382">
        <ele>1563</ele>
        <time>2021-08-06T11:33:33.742Z</time>
      </trkpt>
      <trkpt lat="46.94415" lon="8.71382">
        <ele>1563</ele>
        <time>2021-08-06T11:33:34.742Z</time>
      </trkpt>
      <trkpt lat="46.94414" lon="8.71381">
        <ele>1563</ele>
        <time>2021-08-06T11:33:35.742Z</time>
      </trkpt>
      <trkpt lat="46.94414" lon="8.7138">
        <ele>1563</ele>
        <time>2021-08-06T11:33:36.743Z</time>
      </trkpt>
      <trkpt lat="46.94414" lon="8.7138">
        <ele>1563</ele>
        <time>2021-08-06T11:33:37.743Z</time>
      </trkpt>
      <trkpt lat="46.94413" lon="8.71379">
        <ele>1562</ele>
        <time>2021-08-06T11:33:38.742Z</time>
      </trkpt>
      <trkpt lat="46.94413" lon="8.71378">
        <ele>1562</ele>
        <time>2021-08-06T11:33:39.742Z</time>
      </trkpt>
      <trkpt lat="46.94413" lon="8.71377">
        <ele>1563</ele>
        <time>2021-08-06T11:33:40.742Z</time>
      </trkpt>
      <trkpt lat="46.94412" lon="8.71377">
        <ele>1563</ele>
        <time>2021-08-06T11:33:41.743Z</time>
      </trkpt>
      <trkpt lat="46.94412" lon="8.71376">
        <ele>1563</ele>
        <time>2021-08-06T11:33:42.742Z</time>
      </trkpt>
      <trkpt lat="46.94412" lon="8.71376">
        <ele>1563</ele>
        <time>2021-08-06T11:33:43.742Z</time>
      </trkpt>
      <trkpt lat="46.94411" lon="8.71375">
        <ele>1563</ele>
        <time>2021-08-06T11:33:44.742Z</time>
      </trkpt>
      <trkpt lat="46.94411" lon="8.71375">
        <ele>1563</ele>
        <time>2021-08-06T11:33:45.743Z</time>
      </trkpt>
      <trkpt lat="46.9441" lon="8.71375">
        <ele>1563</ele>
        <time>2021-08-06T11:33:46.743Z</time>
      </trkpt>
      <trkpt lat="46.94408" lon="8.71375">
        <ele>1563</ele>
        <time>2021-08-06T11:33:47.743Z</time>
      </trkpt>
      <trkpt lat="46.94407" lon="8.71376">
        <ele>1563</ele>
        <time>2021-08-06T11:33:48.742Z</time>
      </trkpt>
      <trkpt lat="46.94407" lon="8.71375">
        <ele>1563</ele>
        <time>2021-08-06T11:33:49.742Z</time>
      </trkpt>
      <trkpt lat="46.94408" lon="8.71374">
        <ele>1564</ele>
        <time>2021-08-06T11:33:50.742Z</time>
      </trkpt>
      <trkpt lat="46.94408" lon="8.71374">
        <ele>1564</ele>
        <time>2021-08-06T11:33:51.742Z</time>
      </trkpt>
      <trkpt lat="46.94408" lon="8.71373">
        <ele>1564</ele>
        <time>2021-08-06T11:33:52.742Z</time>
      </trkpt>
      <trkpt lat="46.94409" lon="8.71372">
        <ele>1564</ele>
        <time>2021-08-06T11:33:53.742Z</time>
      </trkpt>
      <trkpt lat="46.9441" lon="8.71372">
        <ele>1564</ele>
        <time>2021-08-06T11:33:54.743Z</time>
      </trkpt>
      <trkpt lat="46.9441" lon="8.71371">
        <ele>1564</ele>
        <time>2021-08-06T11:33:55.743Z</time>
      </trkpt>
      <trkpt lat="46.9441" lon="8.71371">
        <ele>1564</ele>
        <time>2021-08-06T11:33:56.743Z</time>
      </trkpt>
      <trkpt lat="46.94411" lon="8.7137">
        <ele>1565</ele>
        <time>2021-08-06T11:33:57.742Z</time>
      </trkpt>
      <trkpt lat="46.94411" lon="8.7137">
        <ele>1565</ele>
        <time>2021-08-06T11:33:58.743Z</time>
      </trkpt>
      <trkpt lat="46.94412" lon="8.71369">
        <ele>1566</ele>
        <time>2021-08-06T11:33:59.743Z</time>
      </trkpt>
      <trkpt lat="46.94412" lon="8.71368">
        <ele>1566</ele>
        <time>2021-08-06T11:34:00.743Z</time>
      </trkpt>
      <trkpt lat="46.94412" lon="8.71368">
        <ele>1567</ele>
        <time>2021-08-06T11:34:01.743Z</time>
      </trkpt>
      <trkpt lat="46.94412" lon="8.71367">
        <ele>1568</ele>
        <time>2021-08-06T11:34:02.743Z</time>
      </trkpt>
      <trkpt lat="46.94413" lon="8.71366">
        <ele>1568</ele>
        <time>2021-08-06T11:34:03.743Z</time>
      </trkpt>
      <trkpt lat="46.94414" lon="8.71365">
        <ele>1569</ele>
        <time>2021-08-06T11:34:04.743Z</time>
      </trkpt>
      <trkpt lat="46.94414" lon="8.71365">
        <ele>1569</ele>
        <time>2021-08-06T11:34:05.742Z</time>
      </trkpt>
      <trkpt lat="46.94414" lon="8.71364">
        <ele>1569</ele>
        <time>2021-08-06T11:34:06.743Z</time>
      </trkpt>
      <trkpt lat="46.94415" lon="8.71363">
        <ele>1569</ele>
        <time>2021-08-06T11:34:07.742Z</time>
      </trkpt>
      <trkpt lat="46.94415" lon="8.71362">
        <ele>1570</ele>
        <time>2021-08-06T11:34:08.742Z</time>
      </trkpt>
      <trkpt lat="46.94415" lon="8.71361">
        <ele>1570</ele>
        <time>2021-08-06T11:34:09.743Z</time>
      </trkpt>
      <trkpt lat="46.94415" lon="8.71361">
        <ele>1571</ele>
        <time>2021-08-06T11:34:10.743Z</time>
      </trkpt>
      <trkpt lat="46.94414" lon="8.7136">
        <ele>1572</ele>
        <time>2021-08-06T11:34:11.742Z</time>
      </trkpt>
      <trkpt lat="46.94414" lon="8.7136">
        <ele>1573</ele>
        <time>2021-08-06T11:34:12.742Z</time>
      </trkpt>
      <trkpt lat="46.94415" lon="8.71358">
        <ele>1573</ele>
        <time>2021-08-06T11:34:13.742Z</time>
      </trkpt>
      <trkpt lat="46.94415" lon="8.71355">
        <ele>1574</ele>
        <time>2021-08-06T11:34:14.743Z</time>
      </trkpt>
      <trkpt lat="46.94416" lon="8.71353">
        <ele>1575</ele>
        <time>2021-08-06T11:34:15.742Z</time>
      </trkpt>
      <trkpt lat="46.94416" lon="8.71352">
        <ele>1575</ele>
        <time>2021-08-06T11:34:16.743Z</time>
      </trkpt>
      <trkpt lat="46.94417" lon="8.71352">
        <ele>1576</ele>
        <time>2021-08-06T11:34:17.743Z</time>
      </trkpt>
      <trkpt lat="46.94417" lon="8.71351">
        <ele>1577</ele>
        <time>2021-08-06T11:34:18.743Z</time>
      </trkpt>
      <trkpt lat="46.94417" lon="8.7135">
        <ele>1578</ele>
        <time>2021-08-06T11:34:19.742Z</time>
      </trkpt>
      <trkpt lat="46.94417" lon="8.7135">
        <ele>1579</ele>
        <time>2021-08-06T11:34:20.742Z</time>
      </trkpt>
      <trkpt lat="46.94417" lon="8.7135">
        <ele>1579</ele>
        <time>2021-08-06T11:34:21.743Z</time>
      </trkpt>
      <trkpt lat="46.94417" lon="8.71349">
        <ele>1580</ele>
        <time>2021-08-06T11:34:22.742Z</time>
      </trkpt>
      <trkpt lat="46.94416" lon="8.71348">
        <ele>1580</ele>
        <time>2021-08-06T11:34:23.743Z</time>
      </trkpt>
      <trkpt lat="46.94416" lon="8.71346">
        <ele>1581</ele>
        <time>2021-08-06T11:34:24.743Z</time>
      </trkpt>
      <trkpt lat="46.94416" lon="8.71345">
        <ele>1581</ele>
        <time>2021-08-06T11:34:25.742Z</time>
      </trkpt>
      <trkpt lat="46.94416" lon="8.71344">
        <ele>1581</ele>
        <time>2021-08-06T11:34:26.743Z</time>
      </trkpt>
      <trkpt lat="46.94415" lon="8.71342">
        <ele>1581</ele>
        <time>2021-08-06T11:34:27.743Z</time>
      </trkpt>
      <trkpt lat="46.94415" lon="8.71341">
        <ele>1581</ele>
        <time>2021-08-06T11:34:28.743Z</time>
      </trkpt>
      <trkpt lat="46.94415" lon="8.7134">
        <ele>1581</ele>
        <time>2021-08-06T11:34:29.743Z</time>
      </trkpt>
      <trkpt lat="46.94416" lon="8.71339">
        <ele>1581</ele>
        <time>2021-08-06T11:34:30.742Z</time>
      </trkpt>
      <trkpt lat="46.94416" lon="8.71338">
        <ele>1581</ele>
        <time>2021-08-06T11:34:31.742Z</time>
      </trkpt>
      <trkpt lat="46.94416" lon="8.71336">
        <ele>1581</ele>
        <time>2021-08-06T11:34:32.742Z</time>
      </trkpt>
      <trkpt lat="46.94416" lon="8.71335">
        <ele>1581</ele>
        <time>2021-08-06T11:34:33.742Z</time>
      </trkpt>
      <trkpt lat="46.94416" lon="8.71333">
        <ele>1581</ele>
        <time>2021-08-06T11:34:34.742Z</time>
      </trkpt>
      <trkpt lat="46.94416" lon="8.71332">
        <ele>1581</ele>
        <time>2021-08-06T11:34:35.742Z</time>
      </trkpt>
      <trkpt lat="46.94415" lon="8.7133">
        <ele>1581</ele>
        <time>2021-08-06T11:34:36.742Z</time>
      </trkpt>
      <trkpt lat="46.94414" lon="8.71329">
        <ele>1581</ele>
        <time>2021-08-06T11:34:37.742Z</time>
      </trkpt>
      <trkpt lat="46.94413" lon="8.71328">
        <ele>1581</ele>
        <time>2021-08-06T11:34:38.742Z</time>
      </trkpt>
      <trkpt lat="46.94413" lon="8.71327">
        <ele>1581</ele>
        <time>2021-08-06T11:34:39.742Z</time>
      </trkpt>
      <trkpt lat="46.94413" lon="8.71326">
        <ele>1580</ele>
        <time>2021-08-06T11:34:40.742Z</time>
      </trkpt>
      <trkpt lat="46.94414" lon="8.71324">
        <ele>1580</ele>
        <time>2021-08-06T11:34:41.742Z</time>
      </trkpt>
      <trkpt lat="46.94414" lon="8.71323">
        <ele>1580</ele>
        <time>2021-08-06T11:34:42.743Z</time>
      </trkpt>
      <trkpt lat="46.94414" lon="8.71322">
        <ele>1580</ele>
        <time>2021-08-06T11:34:43.742Z</time>
      </trkpt>
      <trkpt lat="46.94414" lon="8.71322">
        <ele>1580</ele>
        <time>2021-08-06T11:34:44.743Z</time>
      </trkpt>
      <trkpt lat="46.94414" lon="8.71321">
        <ele>1580</ele>
        <time>2021-08-06T11:34:45.743Z</time>
      </trkpt>
      <trkpt lat="46.94414" lon="8.7132">
        <ele>1580</ele>
        <time>2021-08-06T11:34:46.742Z</time>
      </trkpt>
      <trkpt lat="46.94414" lon="8.71319">
        <ele>1579</ele>
        <time>2021-08-06T11:34:47.742Z</time>
      </trkpt>
      <trkpt lat="46.94415" lon="8.71319">
        <ele>1579</ele>
        <time>2021-08-06T11:34:48.743Z</time>
      </trkpt>
      <trkpt lat="46.94415" lon="8.71318">
        <ele>1579</ele>
        <time>2021-08-06T11:34:49.742Z</time>
      </trkpt>
      <trkpt lat="46.94415" lon="8.71317">
        <ele>1579</ele>
        <time>2021-08-06T11:34:50.743Z</time>
      </trkpt>
      <trkpt lat="46.94415" lon="8.71316">
        <ele>1579</ele>
        <time>2021-08-06T11:34:51.742Z</time>
      </trkpt>
      <trkpt lat="46.94415" lon="8.71316">
        <ele>1579</ele>
        <time>2021-08-06T11:34:52.742Z</time>
      </trkpt>
      <trkpt lat="46.94415" lon="8.71315">
        <ele>1579</ele>
        <time>2021-08-06T11:34:53.742Z</time>
      </trkpt>
      <trkpt lat="46.94415" lon="8.71314">
        <ele>1579</ele>
        <time>2021-08-06T11:34:54.743Z</time>
      </trkpt>
      <trkpt lat="46.94415" lon="8.71314">
        <ele>1579</ele>
        <time>2021-08-06T11:34:55.743Z</time>
      </trkpt>
      <trkpt lat="46.94414" lon="8.71313">
        <ele>1578</ele>
        <time>2021-08-06T11:34:56.742Z</time>
      </trkpt>
      <trkpt lat="46.94413" lon="8.71312">
        <ele>1578</ele>
        <time>2021-08-06T11:34:57.742Z</time>
      </trkpt>
      <trkpt lat="46.94413" lon="8.71312">
        <ele>1578</ele>
        <time>2021-08-06T11:34:58.742Z</time>
      </trkpt>
      <trkpt lat="46.94412" lon="8.71311">
        <ele>1577</ele>
        <time>2021-08-06T11:34:59.742Z</time>
      </trkpt>
      <trkpt lat="46.94412" lon="8.71311">
        <ele>1577</ele>
        <time>2021-08-06T11:35:00.742Z</time>
      </trkpt>
      <trkpt lat="46.94412" lon="8.71311">
        <ele>1577</ele>
        <time>2021-08-06T11:35:01.742Z</time>
      </trkpt>
      <trkpt lat="46.94412" lon="8.71308">
        <ele>1576</ele>
        <time>2021-08-06T11:35:02.742Z</time>
      </trkpt>
      <trkpt lat="46.94412" lon="8.71307">
        <ele>1576</ele>
        <time>2021-08-06T11:35:03.743Z</time>
      </trkpt>
      <trkpt lat="46.94412" lon="8.71305">
        <ele>1575</ele>
        <time>2021-08-06T11:35:04.742Z</time>
      </trkpt>
      <trkpt lat="46.94412" lon="8.71304">
        <ele>1575</ele>
        <time>2021-08-06T11:35:05.743Z</time>
      </trkpt>
      <trkpt lat="46.94412" lon="8.71303">
        <ele>1575</ele>
        <time>2021-08-06T11:35:06.742Z</time>
      </trkpt>
      <trkpt lat="46.94411" lon="8.71302">
        <ele>1574</ele>
        <time>2021-08-06T11:35:07.743Z</time>
      </trkpt>
      <trkpt lat="46.94411" lon="8.71301">
        <ele>1574</ele>
        <time>2021-08-06T11:35:08.742Z</time>
      </trkpt>
      <trkpt lat="46.94411" lon="8.71299">
        <ele>1575</ele>
        <time>2021-08-06T11:35:09.743Z</time>
      </trkpt>
      <trkpt lat="46.94411" lon="8.71298">
        <ele>1574</ele>
        <time>2021-08-06T11:35:10.743Z</time>
      </trkpt>
      <trkpt lat="46.94412" lon="8.71296">
        <ele>1574</ele>
        <time>2021-08-06T11:35:11.743Z</time>
      </trkpt>
      <trkpt lat="46.94412" lon="8.71295">
        <ele>1574</ele>
        <time>2021-08-06T11:35:12.742Z</time>
      </trkpt>
      <trkpt lat="46.94411" lon="8.71293">
        <ele>1574</ele>
        <time>2021-08-06T11:35:13.743Z</time>
      </trkpt>
      <trkpt lat="46.94411" lon="8.71292">
        <ele>1574</ele>
        <time>2021-08-06T11:35:14.742Z</time>
      </trkpt>
      <trkpt lat="46.94411" lon="8.7129">
        <ele>1574</ele>
        <time>2021-08-06T11:35:15.742Z</time>
      </trkpt>
      <trkpt lat="46.9441" lon="8.71288">
        <ele>1574</ele>
        <time>2021-08-06T11:35:16.742Z</time>
      </trkpt>
      <trkpt lat="46.94409" lon="8.71287">
        <ele>1574</ele>
        <time>2021-08-06T11:35:17.743Z</time>
      </trkpt>
      <trkpt lat="46.94409" lon="8.71285">
        <ele>1574</ele>
        <time>2021-08-06T11:35:18.742Z</time>
      </trkpt>
      <trkpt lat="46.94408" lon="8.71283">
        <ele>1575</ele>
        <time>2021-08-06T11:35:19.742Z</time>
      </trkpt>
      <trkpt lat="46.94408" lon="8.71282">
        <ele>1574</ele>
        <time>2021-08-06T11:35:20.742Z</time>
      </trkpt>
      <trkpt lat="46.94408" lon="8.71281">
        <ele>1574</ele>
        <time>2021-08-06T11:35:21.742Z</time>
      </trkpt>
      <trkpt lat="46.94408" lon="8.7128">
        <ele>1574</ele>
        <time>2021-08-06T11:35:22.742Z</time>
      </trkpt>
      <trkpt lat="46.94408" lon="8.71279">
        <ele>1573</ele>
        <time>2021-08-06T11:35:23.742Z</time>
      </trkpt>
      <trkpt lat="46.94407" lon="8.71278">
        <ele>1573</ele>
        <time>2021-08-06T11:35:24.743Z</time>
      </trkpt>
      <trkpt lat="46.94407" lon="8.71278">
        <ele>1573</ele>
        <time>2021-08-06T11:35:25.742Z</time>
      </trkpt>
      <trkpt lat="46.94407" lon="8.71277">
        <ele>1573</ele>
        <time>2021-08-06T11:35:26.743Z</time>
      </trkpt>
      <trkpt lat="46.94407" lon="8.71275">
        <ele>1572</ele>
        <time>2021-08-06T11:35:27.742Z</time>
      </trkpt>
      <trkpt lat="46.94406" lon="8.71274">
        <ele>1572</ele>
        <time>2021-08-06T11:35:28.743Z</time>
      </trkpt>
      <trkpt lat="46.94406" lon="8.71272">
        <ele>1572</ele>
        <time>2021-08-06T11:35:29.743Z</time>
      </trkpt>
      <trkpt lat="46.94406" lon="8.71271">
        <ele>1572</ele>
        <time>2021-08-06T11:35:30.743Z</time>
      </trkpt>
      <trkpt lat="46.94406" lon="8.7127">
        <ele>1572</ele>
        <time>2021-08-06T11:35:31.742Z</time>
      </trkpt>
      <trkpt lat="46.94405" lon="8.7127">
        <ele>1572</ele>
        <time>2021-08-06T11:35:32.742Z</time>
      </trkpt>
      <trkpt lat="46.94405" lon="8.71269">
        <ele>1571</ele>
        <time>2021-08-06T11:35:33.743Z</time>
      </trkpt>
      <trkpt lat="46.94404" lon="8.71268">
        <ele>1571</ele>
        <time>2021-08-06T11:35:34.743Z</time>
      </trkpt>
      <trkpt lat="46.94403" lon="8.71267">
        <ele>1571</ele>
        <time>2021-08-06T11:35:35.742Z</time>
      </trkpt>
      <trkpt lat="46.94403" lon="8.71266">
        <ele>1571</ele>
        <time>2021-08-06T11:35:36.743Z</time>
      </trkpt>
      <trkpt lat="46.94403" lon="8.71264">
        <ele>1571</ele>
        <time>2021-08-06T11:35:37.742Z</time>
      </trkpt>
      <trkpt lat="46.94404" lon="8.71262">
        <ele>1570</ele>
        <time>2021-08-06T11:35:38.742Z</time>
      </trkpt>
      <trkpt lat="46.94404" lon="8.71261">
        <ele>1570</ele>
        <time>2021-08-06T11:35:39.742Z</time>
      </trkpt>
      <trkpt lat="46.94404" lon="8.71259">
        <ele>1569</ele>
        <time>2021-08-06T11:35:40.743Z</time>
      </trkpt>
      <trkpt lat="46.94404" lon="8.71258">
        <ele>1569</ele>
        <time>2021-08-06T11:35:41.743Z</time>
      </trkpt>
      <trkpt lat="46.94404" lon="8.71256">
        <ele>1569</ele>
        <time>2021-08-06T11:35:42.742Z</time>
      </trkpt>
      <trkpt lat="46.94403" lon="8.71254">
        <ele>1569</ele>
        <time>2021-08-06T11:35:43.742Z</time>
      </trkpt>
      <trkpt lat="46.94402" lon="8.71252">
        <ele>1569</ele>
        <time>2021-08-06T11:35:44.742Z</time>
      </trkpt>
      <trkpt lat="46.94402" lon="8.7125">
        <ele>1568</ele>
        <time>2021-08-06T11:35:45.742Z</time>
      </trkpt>
      <trkpt lat="46.94402" lon="8.71248">
        <ele>1568</ele>
        <time>2021-08-06T11:35:46.742Z</time>
      </trkpt>
      <trkpt lat="46.94402" lon="8.71246">
        <ele>1567</ele>
        <time>2021-08-06T11:35:47.742Z</time>
      </trkpt>
      <trkpt lat="46.94401" lon="8.71245">
        <ele>1567</ele>
        <time>2021-08-06T11:35:48.742Z</time>
      </trkpt>
      <trkpt lat="46.94401" lon="8.71243">
        <ele>1566</ele>
        <time>2021-08-06T11:35:49.743Z</time>
      </trkpt>
      <trkpt lat="46.94401" lon="8.71242">
        <ele>1565</ele>
        <time>2021-08-06T11:35:50.742Z</time>
      </trkpt>
      <trkpt lat="46.944" lon="8.7124">
        <ele>1565</ele>
        <time>2021-08-06T11:35:51.742Z</time>
      </trkpt>
      <trkpt lat="46.944" lon="8.71239">
        <ele>1564</ele>
        <time>2021-08-06T11:35:52.742Z</time>
      </trkpt>
      <trkpt lat="46.944" lon="8.71238">
        <ele>1564</ele>
        <time>2021-08-06T11:35:53.743Z</time>
      </trkpt>
      <trkpt lat="46.94399" lon="8.71237">
        <ele>1564</ele>
        <time>2021-08-06T11:35:54.743Z</time>
      </trkpt>
      <trkpt lat="46.94399" lon="8.71235">
        <ele>1563</ele>
        <time>2021-08-06T11:35:55.742Z</time>
      </trkpt>
      <trkpt lat="46.94399" lon="8.71233">
        <ele>1563</ele>
        <time>2021-08-06T11:35:56.742Z</time>
      </trkpt>
      <trkpt lat="46.94399" lon="8.71232">
        <ele>1563</ele>
        <time>2021-08-06T11:35:57.742Z</time>
      </trkpt>
      <trkpt lat="46.94399" lon="8.7123">
        <ele>1563</ele>
        <time>2021-08-06T11:35:58.742Z</time>
      </trkpt>
      <trkpt lat="46.94399" lon="8.71228">
        <ele>1562</ele>
        <time>2021-08-06T11:35:59.743Z</time>
      </trkpt>
      <trkpt lat="46.94399" lon="8.71227">
        <ele>1562</ele>
        <time>2021-08-06T11:36:00.742Z</time>
      </trkpt>
      <trkpt lat="46.94399" lon="8.71226">
        <ele>1562</ele>
        <time>2021-08-06T11:36:01.743Z</time>
      </trkpt>
      <trkpt lat="46.94399" lon="8.71224">
        <ele>1563</ele>
        <time>2021-08-06T11:36:02.742Z</time>
      </trkpt>
      <trkpt lat="46.94399" lon="8.71223">
        <ele>1563</ele>
        <time>2021-08-06T11:36:03.742Z</time>
      </trkpt>
      <trkpt lat="46.94398" lon="8.71222">
        <ele>1563</ele>
        <time>2021-08-06T11:36:04.742Z</time>
      </trkpt>
      <trkpt lat="46.94398" lon="8.7122">
        <ele>1563</ele>
        <time>2021-08-06T11:36:05.742Z</time>
      </trkpt>
      <trkpt lat="46.94398" lon="8.71219">
        <ele>1563</ele>
        <time>2021-08-06T11:36:06.742Z</time>
      </trkpt>
      <trkpt lat="46.94397" lon="8.71218">
        <ele>1563</ele>
        <time>2021-08-06T11:36:07.743Z</time>
      </trkpt>
      <trkpt lat="46.94397" lon="8.71217">
        <ele>1564</ele>
        <time>2021-08-06T11:36:08.742Z</time>
      </trkpt>
      <trkpt lat="46.94398" lon="8.71216">
        <ele>1564</ele>
        <time>2021-08-06T11:36:09.742Z</time>
      </trkpt>
      <trkpt lat="46.94398" lon="8.71214">
        <ele>1564</ele>
        <time>2021-08-06T11:36:10.742Z</time>
      </trkpt>
      <trkpt lat="46.94398" lon="8.71213">
        <ele>1563</ele>
        <time>2021-08-06T11:36:11.743Z</time>
      </trkpt>
      <trkpt lat="46.94397" lon="8.71211">
        <ele>1563</ele>
        <time>2021-08-06T11:36:12.742Z</time>
      </trkpt>
      <trkpt lat="46.94397" lon="8.7121">
        <ele>1562</ele>
        <time>2021-08-06T11:36:13.742Z</time>
      </trkpt>
      <trkpt lat="46.94397" lon="8.71208">
        <ele>1562</ele>
        <time>2021-08-06T11:36:14.743Z</time>
      </trkpt>
      <trkpt lat="46.94397" lon="8.71207">
        <ele>1562</ele>
        <time>2021-08-06T11:36:15.742Z</time>
      </trkpt>
      <trkpt lat="46.94396" lon="8.71205">
        <ele>1562</ele>
        <time>2021-08-06T11:36:16.743Z</time>
      </trkpt>
      <trkpt lat="46.94396" lon="8.71204">
        <ele>1562</ele>
        <time>2021-08-06T11:36:17.742Z</time>
      </trkpt>
      <trkpt lat="46.94396" lon="8.71202">
        <ele>1563</ele>
        <time>2021-08-06T11:36:18.742Z</time>
      </trkpt>
      <trkpt lat="46.94395" lon="8.71201">
        <ele>1563</ele>
        <time>2021-08-06T11:36:19.743Z</time>
      </trkpt>
      <trkpt lat="46.94395" lon="8.712">
        <ele>1563</ele>
        <time>2021-08-06T11:36:20.742Z</time>
      </trkpt>
      <trkpt lat="46.94395" lon="8.71199">
        <ele>1564</ele>
        <time>2021-08-06T11:36:21.742Z</time>
      </trkpt>
      <trkpt lat="46.94395" lon="8.71196">
        <ele>1564</ele>
        <time>2021-08-06T11:36:22.742Z</time>
      </trkpt>
      <trkpt lat="46.94395" lon="8.71195">
        <ele>1564</ele>
        <time>2021-08-06T11:36:23.743Z</time>
      </trkpt>
      <trkpt lat="46.94394" lon="8.71195">
        <ele>1564</ele>
        <time>2021-08-06T11:36:24.743Z</time>
      </trkpt>
      <trkpt lat="46.94394" lon="8.71194">
        <ele>1564</ele>
        <time>2021-08-06T11:36:25.742Z</time>
      </trkpt>
      <trkpt lat="46.94393" lon="8.71193">
        <ele>1564</ele>
        <time>2021-08-06T11:36:26.743Z</time>
      </trkpt>
      <trkpt lat="46.94393" lon="8.71193">
        <ele>1564</ele>
        <time>2021-08-06T11:36:27.742Z</time>
      </trkpt>
      <trkpt lat="46.94392" lon="8.71192">
        <ele>1563</ele>
        <time>2021-08-06T11:36:28.742Z</time>
      </trkpt>
      <trkpt lat="46.94392" lon="8.71191">
        <ele>1563</ele>
        <time>2021-08-06T11:36:29.742Z</time>
      </trkpt>
      <trkpt lat="46.94392" lon="8.71191">
        <ele>1563</ele>
        <time>2021-08-06T11:36:30.742Z</time>
      </trkpt>
      <trkpt lat="46.94392" lon="8.7119">
        <ele>1563</ele>
        <time>2021-08-06T11:36:31.742Z</time>
      </trkpt>
      <trkpt lat="46.94392" lon="8.71189">
        <ele>1563</ele>
        <time>2021-08-06T11:36:33.837Z</time>
      </trkpt>
      <trkpt lat="46.94391" lon="8.71187">
        <ele>1564</ele>
        <time>2021-08-06T11:36:34.836Z</time>
      </trkpt>
      <trkpt lat="46.94391" lon="8.71186">
        <ele>1564</ele>
        <time>2021-08-06T11:36:35.836Z</time>
      </trkpt>
      <trkpt lat="46.9439" lon="8.71185">
        <ele>1564</ele>
        <time>2021-08-06T11:36:36.836Z</time>
      </trkpt>
      <trkpt lat="46.9439" lon="8.71184">
        <ele>1563</ele>
        <time>2021-08-06T11:36:39.959Z</time>
      </trkpt>
      <trkpt lat="46.9439" lon="8.71183">
        <ele>1563</ele>
        <time>2021-08-06T11:36:40.960Z</time>
      </trkpt>
      <trkpt lat="46.94389" lon="8.71181">
        <ele>1564</ele>
        <time>2021-08-06T11:36:42.820Z</time>
      </trkpt>
      <trkpt lat="46.94388" lon="8.7118">
        <ele>1564</ele>
        <time>2021-08-06T11:36:43.820Z</time>
      </trkpt>
      <trkpt lat="46.94387" lon="8.71179">
        <ele>1564</ele>
        <time>2021-08-06T11:36:44.820Z</time>
      </trkpt>
      <trkpt lat="46.94387" lon="8.71178">
        <ele>1564</ele>
        <time>2021-08-06T11:36:45.820Z</time>
      </trkpt>
      <trkpt lat="46.94386" lon="8.71177">
        <ele>1564</ele>
        <time>2021-08-06T11:36:46.821Z</time>
      </trkpt>
      <trkpt lat="46.94386" lon="8.71176">
        <ele>1563</ele>
        <time>2021-08-06T11:36:47.820Z</time>
      </trkpt>
      <trkpt lat="46.94386" lon="8.71175">
        <ele>1563</ele>
        <time>2021-08-06T11:36:48.820Z</time>
      </trkpt>
      <trkpt lat="46.94385" lon="8.71174">
        <ele>1563</ele>
        <time>2021-08-06T11:36:49.820Z</time>
      </trkpt>
      <trkpt lat="46.94384" lon="8.71173">
        <ele>1563</ele>
        <time>2021-08-06T11:36:50.821Z</time>
      </trkpt>
      <trkpt lat="46.94383" lon="8.71173">
        <ele>1563</ele>
        <time>2021-08-06T11:36:51.821Z</time>
      </trkpt>
      <trkpt lat="46.94382" lon="8.71173">
        <ele>1563</ele>
        <time>2021-08-06T11:36:52.820Z</time>
      </trkpt>
      <trkpt lat="46.94382" lon="8.71172">
        <ele>1563</ele>
        <time>2021-08-06T11:36:53.820Z</time>
      </trkpt>
      <trkpt lat="46.94381" lon="8.71171">
        <ele>1563</ele>
        <time>2021-08-06T11:36:54.821Z</time>
      </trkpt>
      <trkpt lat="46.9438" lon="8.71171">
        <ele>1563</ele>
        <time>2021-08-06T11:36:55.821Z</time>
      </trkpt>
      <trkpt lat="46.94379" lon="8.7117">
        <ele>1563</ele>
        <time>2021-08-06T11:36:56.820Z</time>
      </trkpt>
      <trkpt lat="46.94379" lon="8.71169">
        <ele>1564</ele>
        <time>2021-08-06T11:36:57.821Z</time>
      </trkpt>
      <trkpt lat="46.94378" lon="8.71168">
        <ele>1564</ele>
        <time>2021-08-06T11:36:58.821Z</time>
      </trkpt>
      <trkpt lat="46.94377" lon="8.71167">
        <ele>1563</ele>
        <time>2021-08-06T11:36:59.820Z</time>
      </trkpt>
      <trkpt lat="46.94376" lon="8.71166">
        <ele>1563</ele>
        <time>2021-08-06T11:37:00.820Z</time>
      </trkpt>
      <trkpt lat="46.94376" lon="8.71165">
        <ele>1563</ele>
        <time>2021-08-06T11:37:01.820Z</time>
      </trkpt>
      <trkpt lat="46.94376" lon="8.71164">
        <ele>1563</ele>
        <time>2021-08-06T11:37:02.820Z</time>
      </trkpt>
      <trkpt lat="46.94376" lon="8.71163">
        <ele>1563</ele>
        <time>2021-08-06T11:37:03.820Z</time>
      </trkpt>
      <trkpt lat="46.94375" lon="8.71163">
        <ele>1563</ele>
        <time>2021-08-06T11:37:04.820Z</time>
      </trkpt>
      <trkpt lat="46.94374" lon="8.71163">
        <ele>1563</ele>
        <time>2021-08-06T11:37:05.821Z</time>
      </trkpt>
      <trkpt lat="46.94374" lon="8.71163">
        <ele>1564</ele>
        <time>2021-08-06T11:37:06.821Z</time>
      </trkpt>
      <trkpt lat="46.94374" lon="8.71163">
        <ele>1564</ele>
        <time>2021-08-06T11:37:07.821Z</time>
      </trkpt>
      <trkpt lat="46.94374" lon="8.71164">
        <ele>1565</ele>
        <time>2021-08-06T11:37:08.823Z</time>
      </trkpt>
      <trkpt lat="46.94374" lon="8.71164">
        <ele>1566</ele>
        <time>2021-08-06T11:37:09.823Z</time>
      </trkpt>
      <trkpt lat="46.94374" lon="8.71164">
        <ele>1566</ele>
        <time>2021-08-06T11:37:10.822Z</time>
      </trkpt>
      <trkpt lat="46.94375" lon="8.71167">
        <ele>1569</ele>
        <time>2021-08-06T11:37:11.823Z</time>
      </trkpt>
      <trkpt lat="46.94374" lon="8.71167">
        <ele>1569</ele>
        <time>2021-08-06T11:37:12.822Z</time>
      </trkpt>
      <trkpt lat="46.94374" lon="8.71167">
        <ele>1570</ele>
        <time>2021-08-06T11:37:13.824Z</time>
      </trkpt>
      <trkpt lat="46.94374" lon="8.71167">
        <ele>1570</ele>
        <time>2021-08-06T11:37:14.824Z</time>
      </trkpt>
      <trkpt lat="46.94375" lon="8.71168">
        <ele>1570</ele>
        <time>2021-08-06T11:37:15.823Z</time>
      </trkpt>
      <trkpt lat="46.94375" lon="8.71168">
        <ele>1571</ele>
        <time>2021-08-06T11:37:16.823Z</time>
      </trkpt>
      <trkpt lat="46.94376" lon="8.71168">
        <ele>1574</ele>
        <time>2021-08-06T11:37:22.889Z</time>
      </trkpt>
      <trkpt lat="46.94376" lon="8.71169">
        <ele>1574</ele>
        <time>2021-08-06T11:37:23.889Z</time>
      </trkpt>
      <trkpt lat="46.94376" lon="8.71168">
        <ele>1574</ele>
        <time>2021-08-06T11:37:24.888Z</time>
      </trkpt>
      <trkpt lat="46.94376" lon="8.71168">
        <ele>1574</ele>
        <time>2021-08-06T11:37:25.889Z</time>
      </trkpt>
      <trkpt lat="46.94375" lon="8.71168">
        <ele>1574</ele>
        <time>2021-08-06T11:37:26.889Z</time>
      </trkpt>
      <trkpt lat="46.94375" lon="8.71167">
        <ele>1572</ele>
        <time>2021-08-06T11:37:27.889Z</time>
      </trkpt>
      <trkpt lat="46.94375" lon="8.71167">
        <ele>1571</ele>
        <time>2021-08-06T11:37:28.889Z</time>
      </trkpt>
      <trkpt lat="46.94375" lon="8.71166">
        <ele>1571</ele>
        <time>2021-08-06T11:37:29.888Z</time>
      </trkpt>
      <trkpt lat="46.94375" lon="8.71166">
        <ele>1571</ele>
        <time>2021-08-06T11:37:30.888Z</time>
      </trkpt>
      <trkpt lat="46.94374" lon="8.71165">
        <ele>1570</ele>
        <time>2021-08-06T11:37:31.890Z</time>
      </trkpt>
      <trkpt lat="46.94374" lon="8.71165">
        <ele>1570</ele>
        <time>2021-08-06T11:37:32.890Z</time>
      </trkpt>
      <trkpt lat="46.94373" lon="8.71165">
        <ele>1571</ele>
        <time>2021-08-06T11:37:33.889Z</time>
      </trkpt>
      <trkpt lat="46.94372" lon="8.71163">
        <ele>1573</ele>
        <time>2021-08-06T11:37:34.890Z</time>
      </trkpt>
      <trkpt lat="46.94372" lon="8.71163">
        <ele>1573</ele>
        <time>2021-08-06T11:37:35.890Z</time>
      </trkpt>
      <trkpt lat="46.94371" lon="8.71163">
        <ele>1573</ele>
        <time>2021-08-06T11:37:36.891Z</time>
      </trkpt>
      <trkpt lat="46.94371" lon="8.71163">
        <ele>1573</ele>
        <time>2021-08-06T11:37:37.891Z</time>
      </trkpt>
      <trkpt lat="46.9437" lon="8.71162">
        <ele>1573</ele>
        <time>2021-08-06T11:37:38.891Z</time>
      </trkpt>
      <trkpt lat="46.9437" lon="8.71163">
        <ele>1574</ele>
        <time>2021-08-06T11:37:39.890Z</time>
      </trkpt>
      <trkpt lat="46.94369" lon="8.71164">
        <ele>1574</ele>
        <time>2021-08-06T11:37:40.891Z</time>
      </trkpt>
      <trkpt lat="46.94369" lon="8.71164">
        <ele>1574</ele>
        <time>2021-08-06T11:37:41.890Z</time>
      </trkpt>
      <trkpt lat="46.94368" lon="8.71164">
        <ele>1574</ele>
        <time>2021-08-06T11:37:42.891Z</time>
      </trkpt>
      <trkpt lat="46.94368" lon="8.71164">
        <ele>1574</ele>
        <time>2021-08-06T11:37:43.890Z</time>
      </trkpt>
      <trkpt lat="46.94368" lon="8.71164">
        <ele>1574</ele>
        <time>2021-08-06T11:37:44.890Z</time>
      </trkpt>
      <trkpt lat="46.94368" lon="8.71163">
        <ele>1574</ele>
        <time>2021-08-06T11:37:45.892Z</time>
      </trkpt>
      <trkpt lat="46.94367" lon="8.71163">
        <ele>1575</ele>
        <time>2021-08-06T11:37:46.892Z</time>
      </trkpt>
      <trkpt lat="46.94366" lon="8.71163">
        <ele>1575</ele>
        <time>2021-08-06T11:37:47.891Z</time>
      </trkpt>
      <trkpt lat="46.94366" lon="8.71163">
        <ele>1575</ele>
        <time>2021-08-06T11:37:48.892Z</time>
      </trkpt>
      <trkpt lat="46.94366" lon="8.71163">
        <ele>1574</ele>
        <time>2021-08-06T11:37:49.892Z</time>
      </trkpt>
      <trkpt lat="46.94365" lon="8.71163">
        <ele>1574</ele>
        <time>2021-08-06T11:37:50.891Z</time>
      </trkpt>
      <trkpt lat="46.94365" lon="8.71163">
        <ele>1574</ele>
        <time>2021-08-06T11:37:51.891Z</time>
      </trkpt>
      <trkpt lat="46.94365" lon="8.71163">
        <ele>1575</ele>
        <time>2021-08-06T11:37:57.022Z</time>
      </trkpt>
      <trkpt lat="46.94365" lon="8.71163">
        <ele>1575</ele>
        <time>2021-08-06T11:37:58.022Z</time>
      </trkpt>
      <trkpt lat="46.94365" lon="8.71162">
        <ele>1576</ele>
        <time>2021-08-06T11:38:01.854Z</time>
      </trkpt>
      <trkpt lat="46.94364" lon="8.71161">
        <ele>1576</ele>
        <time>2021-08-06T11:38:02.853Z</time>
      </trkpt>
      <trkpt lat="46.94364" lon="8.71161">
        <ele>1577</ele>
        <time>2021-08-06T11:38:10.767Z</time>
      </trkpt>
      <trkpt lat="46.94364" lon="8.71161">
        <ele>1577</ele>
        <time>2021-08-06T11:38:11.766Z</time>
      </trkpt>
      <trkpt lat="46.94363" lon="8.71161">
        <ele>1578</ele>
        <time>2021-08-06T11:38:17.646Z</time>
      </trkpt>
      <trkpt lat="46.94363" lon="8.71161">
        <ele>1578</ele>
        <time>2021-08-06T11:38:18.646Z</time>
      </trkpt>
      <trkpt lat="46.94363" lon="8.7116">
        <ele>1578</ele>
        <time>2021-08-06T11:38:19.646Z</time>
      </trkpt>
      <trkpt lat="46.94363" lon="8.7116">
        <ele>1578</ele>
        <time>2021-08-06T11:38:31.752Z</time>
      </trkpt>
      <trkpt lat="46.94362" lon="8.7116">
        <ele>1578</ele>
        <time>2021-08-06T11:38:32.751Z</time>
      </trkpt>
      <trkpt lat="46.94361" lon="8.71161">
        <ele>1578</ele>
        <time>2021-08-06T11:38:33.751Z</time>
      </trkpt>
      <trkpt lat="46.94361" lon="8.71161">
        <ele>1578</ele>
        <time>2021-08-06T11:38:34.752Z</time>
      </trkpt>
      <trkpt lat="46.9436" lon="8.71162">
        <ele>1578</ele>
        <time>2021-08-06T11:38:35.751Z</time>
      </trkpt>
      <trkpt lat="46.94359" lon="8.71163">
        <ele>1578</ele>
        <time>2021-08-06T11:38:36.752Z</time>
      </trkpt>
      <trkpt lat="46.94358" lon="8.71162">
        <ele>1577</ele>
        <time>2021-08-06T11:38:37.752Z</time>
      </trkpt>
      <trkpt lat="46.94358" lon="8.71162">
        <ele>1577</ele>
        <time>2021-08-06T11:38:43.896Z</time>
      </trkpt>
      <trkpt lat="46.94358" lon="8.71162">
        <ele>1577</ele>
        <time>2021-08-06T11:38:44.897Z</time>
      </trkpt>
      <trkpt lat="46.94358" lon="8.71162">
        <ele>1576</ele>
        <time>2021-08-06T11:38:45.897Z</time>
      </trkpt>
      <trkpt lat="46.94358" lon="8.71161">
        <ele>1576</ele>
        <time>2021-08-06T11:38:51.978Z</time>
      </trkpt>
      <trkpt lat="46.94358" lon="8.7116">
        <ele>1576</ele>
        <time>2021-08-06T11:38:52.977Z</time>
      </trkpt>
      <trkpt lat="46.94358" lon="8.71159">
        <ele>1575</ele>
        <time>2021-08-06T11:38:53.977Z</time>
      </trkpt>
      <trkpt lat="46.94359" lon="8.71157">
        <ele>1575</ele>
        <time>2021-08-06T11:38:57.716Z</time>
      </trkpt>
      <trkpt lat="46.9436" lon="8.71157">
        <ele>1575</ele>
        <time>2021-08-06T11:38:58.716Z</time>
      </trkpt>
      <trkpt lat="46.94361" lon="8.71157">
        <ele>1575</ele>
        <time>2021-08-06T11:39:04.858Z</time>
      </trkpt>
      <trkpt lat="46.94361" lon="8.71156">
        <ele>1575</ele>
        <time>2021-08-06T11:39:05.857Z</time>
      </trkpt>
      <trkpt lat="46.94361" lon="8.71156">
        <ele>1575</ele>
        <time>2021-08-06T11:39:06.857Z</time>
      </trkpt>
      <trkpt lat="46.94362" lon="8.71156">
        <ele>1576</ele>
        <time>2021-08-06T11:39:36.765Z</time>
      </trkpt>
      <trkpt lat="46.94362" lon="8.71156">
        <ele>1576</ele>
        <time>2021-08-06T11:39:37.765Z</time>
      </trkpt>
      <trkpt lat="46.94362" lon="8.71155">
        <ele>1576</ele>
        <time>2021-08-06T11:39:57.849Z</time>
      </trkpt>
      <trkpt lat="46.94362" lon="8.71154">
        <ele>1576</ele>
        <time>2021-08-06T11:39:58.849Z</time>
      </trkpt>
      <trkpt lat="46.94362" lon="8.71154">
        <ele>1576</ele>
        <time>2021-08-06T11:39:59.849Z</time>
      </trkpt>
      <trkpt lat="46.94362" lon="8.71154">
        <ele>1576</ele>
        <time>2021-08-06T11:40:03.993Z</time>
      </trkpt>
      <trkpt lat="46.94362" lon="8.71153">
        <ele>1576</ele>
        <time>2021-08-06T11:40:04.993Z</time>
      </trkpt>
      <trkpt lat="46.94363" lon="8.71153">
        <ele>1576</ele>
        <time>2021-08-06T11:40:07.746Z</time>
      </trkpt>
      <trkpt lat="46.94363" lon="8.71153">
        <ele>1576</ele>
        <time>2021-08-06T11:40:08.745Z</time>
      </trkpt>
      <trkpt lat="46.94363" lon="8.71153">
        <ele>1576</ele>
        <time>2021-08-06T11:40:09.745Z</time>
      </trkpt>
      <trkpt lat="46.94363" lon="8.71152">
        <ele>1576</ele>
        <time>2021-08-06T11:40:10.745Z</time>
      </trkpt>
      <trkpt lat="46.94364" lon="8.71151">
        <ele>1576</ele>
        <time>2021-08-06T11:40:11.745Z</time>
      </trkpt>
      <trkpt lat="46.94365" lon="8.71151">
        <ele>1576</ele>
        <time>2021-08-06T11:40:12.745Z</time>
      </trkpt>
      <trkpt lat="46.94365" lon="8.71151">
        <ele>1576</ele>
        <time>2021-08-06T11:40:13.745Z</time>
      </trkpt>
      <trkpt lat="46.94365" lon="8.71151">
        <ele>1577</ele>
        <time>2021-08-06T11:40:14.745Z</time>
      </trkpt>
      <trkpt lat="46.94365" lon="8.71151">
        <ele>1577</ele>
        <time>2021-08-06T11:40:15.745Z</time>
      </trkpt>
      <trkpt lat="46.94365" lon="8.7115">
        <ele>1578</ele>
        <time>2021-08-06T11:40:16.745Z</time>
      </trkpt>
      <trkpt lat="46.94364" lon="8.71149">
        <ele>1580</ele>
        <time>2021-08-06T11:40:17.745Z</time>
      </trkpt>
      <trkpt lat="46.94363" lon="8.71149">
        <ele>1581</ele>
        <time>2021-08-06T11:40:18.745Z</time>
      </trkpt>
      <trkpt lat="46.94362" lon="8.71149">
        <ele>1581</ele>
        <time>2021-08-06T11:40:19.745Z</time>
      </trkpt>
      <trkpt lat="46.94362" lon="8.71147">
        <ele>1582</ele>
        <time>2021-08-06T11:40:20.745Z</time>
      </trkpt>
      <trkpt lat="46.94361" lon="8.71146">
        <ele>1582</ele>
        <time>2021-08-06T11:40:21.745Z</time>
      </trkpt>
      <trkpt lat="46.94361" lon="8.71145">
        <ele>1582</ele>
        <time>2021-08-06T11:40:22.746Z</time>
      </trkpt>
      <trkpt lat="46.94361" lon="8.71144">
        <ele>1582</ele>
        <time>2021-08-06T11:40:23.746Z</time>
      </trkpt>
      <trkpt lat="46.9436" lon="8.71144">
        <ele>1582</ele>
        <time>2021-08-06T11:40:24.746Z</time>
      </trkpt>
      <trkpt lat="46.9436" lon="8.71144">
        <ele>1582</ele>
        <time>2021-08-06T11:40:25.746Z</time>
      </trkpt>
      <trkpt lat="46.9436" lon="8.71144">
        <ele>1582</ele>
        <time>2021-08-06T11:40:26.746Z</time>
      </trkpt>
      <trkpt lat="46.94359" lon="8.71143">
        <ele>1582</ele>
        <time>2021-08-06T11:40:27.746Z</time>
      </trkpt>
      <trkpt lat="46.9436" lon="8.71142">
        <ele>1583</ele>
        <time>2021-08-06T11:40:28.746Z</time>
      </trkpt>
      <trkpt lat="46.9436" lon="8.71141">
        <ele>1583</ele>
        <time>2021-08-06T11:40:29.746Z</time>
      </trkpt>
      <trkpt lat="46.9436" lon="8.71141">
        <ele>1583</ele>
        <time>2021-08-06T11:40:30.745Z</time>
      </trkpt>
      <trkpt lat="46.94361" lon="8.7114">
        <ele>1583</ele>
        <time>2021-08-06T11:40:31.746Z</time>
      </trkpt>
      <trkpt lat="46.9436" lon="8.71142">
        <ele>1583</ele>
        <time>2021-08-06T11:40:32.747Z</time>
      </trkpt>
      <trkpt lat="46.94359" lon="8.71143">
        <ele>1583</ele>
        <time>2021-08-06T11:40:33.747Z</time>
      </trkpt>
      <trkpt lat="46.94358" lon="8.71143">
        <ele>1582</ele>
        <time>2021-08-06T11:40:34.746Z</time>
      </trkpt>
      <trkpt lat="46.94357" lon="8.71143">
        <ele>1582</ele>
        <time>2021-08-06T11:40:35.747Z</time>
      </trkpt>
      <trkpt lat="46.94356" lon="8.71144">
        <ele>1582</ele>
        <time>2021-08-06T11:40:36.746Z</time>
      </trkpt>
      <trkpt lat="46.94355" lon="8.71144">
        <ele>1582</ele>
        <time>2021-08-06T11:40:37.747Z</time>
      </trkpt>
      <trkpt lat="46.94355" lon="8.71145">
        <ele>1582</ele>
        <time>2021-08-06T11:40:38.747Z</time>
      </trkpt>
      <trkpt lat="46.94355" lon="8.71146">
        <ele>1582</ele>
        <time>2021-08-06T11:40:39.747Z</time>
      </trkpt>
      <trkpt lat="46.94355" lon="8.71146">
        <ele>1582</ele>
        <time>2021-08-06T11:40:40.747Z</time>
      </trkpt>
      <trkpt lat="46.94354" lon="8.71145">
        <ele>1584</ele>
        <time>2021-08-06T11:40:41.746Z</time>
      </trkpt>
      <trkpt lat="46.94354" lon="8.71145">
        <ele>1584</ele>
        <time>2021-08-06T11:40:42.746Z</time>
      </trkpt>
      <trkpt lat="46.94354" lon="8.71143">
        <ele>1584</ele>
        <time>2021-08-06T11:40:43.746Z</time>
      </trkpt>
      <trkpt lat="46.94354" lon="8.71142">
        <ele>1583</ele>
        <time>2021-08-06T11:40:44.747Z</time>
      </trkpt>
      <trkpt lat="46.94353" lon="8.71141">
        <ele>1583</ele>
        <time>2021-08-06T11:40:45.747Z</time>
      </trkpt>
      <trkpt lat="46.94353" lon="8.7114">
        <ele>1583</ele>
        <time>2021-08-06T11:40:46.747Z</time>
      </trkpt>
      <trkpt lat="46.94352" lon="8.7114">
        <ele>1583</ele>
        <time>2021-08-06T11:40:47.746Z</time>
      </trkpt>
      <trkpt lat="46.94351" lon="8.71139">
        <ele>1583</ele>
        <time>2021-08-06T11:40:48.747Z</time>
      </trkpt>
      <trkpt lat="46.94351" lon="8.71139">
        <ele>1583</ele>
        <time>2021-08-06T11:40:49.747Z</time>
      </trkpt>
      <trkpt lat="46.9435" lon="8.71138">
        <ele>1584</ele>
        <time>2021-08-06T11:40:50.747Z</time>
      </trkpt>
      <trkpt lat="46.9435" lon="8.71138">
        <ele>1584</ele>
        <time>2021-08-06T11:40:51.747Z</time>
      </trkpt>
      <trkpt lat="46.94349" lon="8.71137">
        <ele>1584</ele>
        <time>2021-08-06T11:40:52.746Z</time>
      </trkpt>
      <trkpt lat="46.94349" lon="8.71136">
        <ele>1585</ele>
        <time>2021-08-06T11:40:53.746Z</time>
      </trkpt>
      <trkpt lat="46.94349" lon="8.71135">
        <ele>1585</ele>
        <time>2021-08-06T11:40:54.747Z</time>
      </trkpt>
      <trkpt lat="46.94349" lon="8.71134">
        <ele>1585</ele>
        <time>2021-08-06T11:40:55.747Z</time>
      </trkpt>
      <trkpt lat="46.94348" lon="8.71133">
        <ele>1584</ele>
        <time>2021-08-06T11:40:56.746Z</time>
      </trkpt>
      <trkpt lat="46.94348" lon="8.71132">
        <ele>1584</ele>
        <time>2021-08-06T11:40:57.746Z</time>
      </trkpt>
      <trkpt lat="46.94348" lon="8.71131">
        <ele>1583</ele>
        <time>2021-08-06T11:40:58.747Z</time>
      </trkpt>
      <trkpt lat="46.94348" lon="8.7113">
        <ele>1583</ele>
        <time>2021-08-06T11:40:59.746Z</time>
      </trkpt>
      <trkpt lat="46.94347" lon="8.71129">
        <ele>1583</ele>
        <time>2021-08-06T11:41:00.746Z</time>
      </trkpt>
      <trkpt lat="46.94347" lon="8.71128">
        <ele>1583</ele>
        <time>2021-08-06T11:41:01.747Z</time>
      </trkpt>
      <trkpt lat="46.94346" lon="8.71127">
        <ele>1583</ele>
        <time>2021-08-06T11:41:02.746Z</time>
      </trkpt>
      <trkpt lat="46.94346" lon="8.71126">
        <ele>1583</ele>
        <time>2021-08-06T11:41:03.746Z</time>
      </trkpt>
      <trkpt lat="46.94346" lon="8.71125">
        <ele>1583</ele>
        <time>2021-08-06T11:41:04.746Z</time>
      </trkpt>
      <trkpt lat="46.94345" lon="8.71125">
        <ele>1583</ele>
        <time>2021-08-06T11:41:05.747Z</time>
      </trkpt>
      <trkpt lat="46.94345" lon="8.71124">
        <ele>1583</ele>
        <time>2021-08-06T11:41:06.747Z</time>
      </trkpt>
      <trkpt lat="46.94344" lon="8.71124">
        <ele>1582</ele>
        <time>2021-08-06T11:41:07.746Z</time>
      </trkpt>
      <trkpt lat="46.94344" lon="8.71123">
        <ele>1583</ele>
        <time>2021-08-06T11:41:08.746Z</time>
      </trkpt>
      <trkpt lat="46.94344" lon="8.71123">
        <ele>1582</ele>
        <time>2021-08-06T11:41:09.747Z</time>
      </trkpt>
      <trkpt lat="46.94344" lon="8.71122">
        <ele>1582</ele>
        <time>2021-08-06T11:41:10.746Z</time>
      </trkpt>
      <trkpt lat="46.94344" lon="8.71121">
        <ele>1581</ele>
        <time>2021-08-06T11:41:11.746Z</time>
      </trkpt>
      <trkpt lat="46.94344" lon="8.7112">
        <ele>1581</ele>
        <time>2021-08-06T11:41:12.746Z</time>
      </trkpt>
      <trkpt lat="46.94344" lon="8.71119">
        <ele>1581</ele>
        <time>2021-08-06T11:41:13.747Z</time>
      </trkpt>
      <trkpt lat="46.94344" lon="8.71119">
        <ele>1581</ele>
        <time>2021-08-06T11:41:14.747Z</time>
      </trkpt>
      <trkpt lat="46.94344" lon="8.71118">
        <ele>1581</ele>
        <time>2021-08-06T11:41:15.747Z</time>
      </trkpt>
      <trkpt lat="46.94344" lon="8.71117">
        <ele>1581</ele>
        <time>2021-08-06T11:41:16.747Z</time>
      </trkpt>
      <trkpt lat="46.94343" lon="8.71117">
        <ele>1581</ele>
        <time>2021-08-06T11:41:17.747Z</time>
      </trkpt>
      <trkpt lat="46.94343" lon="8.71116">
        <ele>1582</ele>
        <time>2021-08-06T11:41:18.747Z</time>
      </trkpt>
      <trkpt lat="46.94343" lon="8.71116">
        <ele>1583</ele>
        <time>2021-08-06T11:41:19.747Z</time>
      </trkpt>
      <trkpt lat="46.94342" lon="8.71115">
        <ele>1583</ele>
        <time>2021-08-06T11:41:20.747Z</time>
      </trkpt>
      <trkpt lat="46.94341" lon="8.71115">
        <ele>1583</ele>
        <time>2021-08-06T11:41:21.747Z</time>
      </trkpt>
      <trkpt lat="46.94341" lon="8.71114">
        <ele>1584</ele>
        <time>2021-08-06T11:41:22.746Z</time>
      </trkpt>
      <trkpt lat="46.9434" lon="8.71113">
        <ele>1584</ele>
        <time>2021-08-06T11:41:23.746Z</time>
      </trkpt>
      <trkpt lat="46.94339" lon="8.71113">
        <ele>1585</ele>
        <time>2021-08-06T11:41:24.746Z</time>
      </trkpt>
      <trkpt lat="46.94339" lon="8.71112">
        <ele>1585</ele>
        <time>2021-08-06T11:41:25.746Z</time>
      </trkpt>
      <trkpt lat="46.94338" lon="8.71112">
        <ele>1586</ele>
        <time>2021-08-06T11:41:26.746Z</time>
      </trkpt>
      <trkpt lat="46.94338" lon="8.71111">
        <ele>1586</ele>
        <time>2021-08-06T11:41:27.747Z</time>
      </trkpt>
      <trkpt lat="46.94337" lon="8.71112">
        <ele>1587</ele>
        <time>2021-08-06T11:41:28.746Z</time>
      </trkpt>
      <trkpt lat="46.94336" lon="8.71112">
        <ele>1587</ele>
        <time>2021-08-06T11:41:29.746Z</time>
      </trkpt>
      <trkpt lat="46.94336" lon="8.71112">
        <ele>1588</ele>
        <time>2021-08-06T11:41:30.746Z</time>
      </trkpt>
      <trkpt lat="46.94335" lon="8.71113">
        <ele>1589</ele>
        <time>2021-08-06T11:41:31.746Z</time>
      </trkpt>
      <trkpt lat="46.94334" lon="8.71113">
        <ele>1589</ele>
        <time>2021-08-06T11:41:32.746Z</time>
      </trkpt>
      <trkpt lat="46.94334" lon="8.71113">
        <ele>1590</ele>
        <time>2021-08-06T11:41:33.746Z</time>
      </trkpt>
      <trkpt lat="46.94333" lon="8.71113">
        <ele>1589</ele>
        <time>2021-08-06T11:41:34.747Z</time>
      </trkpt>
      <trkpt lat="46.94333" lon="8.71114">
        <ele>1589</ele>
        <time>2021-08-06T11:41:35.747Z</time>
      </trkpt>
      <trkpt lat="46.94333" lon="8.71114">
        <ele>1589</ele>
        <time>2021-08-06T11:41:36.746Z</time>
      </trkpt>
      <trkpt lat="46.94332" lon="8.71114">
        <ele>1589</ele>
        <time>2021-08-06T11:41:37.747Z</time>
      </trkpt>
      <trkpt lat="46.94332" lon="8.71113">
        <ele>1589</ele>
        <time>2021-08-06T11:41:38.747Z</time>
      </trkpt>
      <trkpt lat="46.94331" lon="8.71114">
        <ele>1589</ele>
        <time>2021-08-06T11:41:39.747Z</time>
      </trkpt>
      <trkpt lat="46.94331" lon="8.71114">
        <ele>1589</ele>
        <time>2021-08-06T11:41:40.747Z</time>
      </trkpt>
      <trkpt lat="46.9433" lon="8.71114">
        <ele>1589</ele>
        <time>2021-08-06T11:41:41.747Z</time>
      </trkpt>
      <trkpt lat="46.9433" lon="8.71114">
        <ele>1589</ele>
        <time>2021-08-06T11:41:42.747Z</time>
      </trkpt>
      <trkpt lat="46.94329" lon="8.71113">
        <ele>1589</ele>
        <time>2021-08-06T11:41:43.747Z</time>
      </trkpt>
      <trkpt lat="46.94328" lon="8.71113">
        <ele>1589</ele>
        <time>2021-08-06T11:41:44.746Z</time>
      </trkpt>
      <trkpt lat="46.94328" lon="8.71113">
        <ele>1589</ele>
        <time>2021-08-06T11:41:45.747Z</time>
      </trkpt>
      <trkpt lat="46.94327" lon="8.71114">
        <ele>1588</ele>
        <time>2021-08-06T11:41:46.747Z</time>
      </trkpt>
      <trkpt lat="46.94327" lon="8.71114">
        <ele>1588</ele>
        <time>2021-08-06T11:41:47.746Z</time>
      </trkpt>
      <trkpt lat="46.94327" lon="8.71114">
        <ele>1587</ele>
        <time>2021-08-06T11:41:48.747Z</time>
      </trkpt>
      <trkpt lat="46.94327" lon="8.71114">
        <ele>1587</ele>
        <time>2021-08-06T11:41:49.746Z</time>
      </trkpt>
      <trkpt lat="46.94327" lon="8.71114">
        <ele>1587</ele>
        <time>2021-08-06T11:41:50.747Z</time>
      </trkpt>
      <trkpt lat="46.94326" lon="8.71113">
        <ele>1590</ele>
        <time>2021-08-06T11:41:53.855Z</time>
      </trkpt>
      <trkpt lat="46.94325" lon="8.71113">
        <ele>1590</ele>
        <time>2021-08-06T11:41:54.855Z</time>
      </trkpt>
      <trkpt lat="46.94324" lon="8.71112">
        <ele>1589</ele>
        <time>2021-08-06T11:41:55.855Z</time>
      </trkpt>
      <trkpt lat="46.94324" lon="8.71112">
        <ele>1590</ele>
        <time>2021-08-06T11:41:56.855Z</time>
      </trkpt>
      <trkpt lat="46.94324" lon="8.71112">
        <ele>1590</ele>
        <time>2021-08-06T11:41:57.855Z</time>
      </trkpt>
      <trkpt lat="46.94323" lon="8.71111">
        <ele>1590</ele>
        <time>2021-08-06T11:41:58.855Z</time>
      </trkpt>
      <trkpt lat="46.94323" lon="8.71111">
        <ele>1590</ele>
        <time>2021-08-06T11:41:59.855Z</time>
      </trkpt>
      <trkpt lat="46.94322" lon="8.71111">
        <ele>1590</ele>
        <time>2021-08-06T11:42:00.856Z</time>
      </trkpt>
      <trkpt lat="46.94322" lon="8.71111">
        <ele>1591</ele>
        <time>2021-08-06T11:42:01.856Z</time>
      </trkpt>
      <trkpt lat="46.94321" lon="8.7111">
        <ele>1591</ele>
        <time>2021-08-06T11:42:02.855Z</time>
      </trkpt>
      <trkpt lat="46.94321" lon="8.71109">
        <ele>1591</ele>
        <time>2021-08-06T11:42:03.856Z</time>
      </trkpt>
      <trkpt lat="46.94321" lon="8.71109">
        <ele>1591</ele>
        <time>2021-08-06T11:42:04.855Z</time>
      </trkpt>
      <trkpt lat="46.94321" lon="8.71108">
        <ele>1592</ele>
        <time>2021-08-06T11:42:05.856Z</time>
      </trkpt>
      <trkpt lat="46.9432" lon="8.71108">
        <ele>1592</ele>
        <time>2021-08-06T11:42:06.856Z</time>
      </trkpt>
      <trkpt lat="46.94319" lon="8.71108">
        <ele>1593</ele>
        <time>2021-08-06T11:42:07.856Z</time>
      </trkpt>
      <trkpt lat="46.94319" lon="8.71107">
        <ele>1593</ele>
        <time>2021-08-06T11:42:08.856Z</time>
      </trkpt>
      <trkpt lat="46.94319" lon="8.71107">
        <ele>1593</ele>
        <time>2021-08-06T11:42:09.856Z</time>
      </trkpt>
      <trkpt lat="46.94318" lon="8.71106">
        <ele>1593</ele>
        <time>2021-08-06T11:42:10.856Z</time>
      </trkpt>
      <trkpt lat="46.94318" lon="8.71105">
        <ele>1593</ele>
        <time>2021-08-06T11:42:11.855Z</time>
      </trkpt>
      <trkpt lat="46.94318" lon="8.71105">
        <ele>1594</ele>
        <time>2021-08-06T11:42:12.855Z</time>
      </trkpt>
      <trkpt lat="46.94317" lon="8.71105">
        <ele>1594</ele>
        <time>2021-08-06T11:42:13.856Z</time>
      </trkpt>
      <trkpt lat="46.94317" lon="8.71105">
        <ele>1595</ele>
        <time>2021-08-06T11:42:14.855Z</time>
      </trkpt>
      <trkpt lat="46.94316" lon="8.71105">
        <ele>1595</ele>
        <time>2021-08-06T11:42:15.856Z</time>
      </trkpt>
      <trkpt lat="46.94316" lon="8.71105">
        <ele>1595</ele>
        <time>2021-08-06T11:42:16.855Z</time>
      </trkpt>
      <trkpt lat="46.94315" lon="8.71105">
        <ele>1596</ele>
        <time>2021-08-06T11:42:17.856Z</time>
      </trkpt>
      <trkpt lat="46.94315" lon="8.71105">
        <ele>1596</ele>
        <time>2021-08-06T11:42:18.856Z</time>
      </trkpt>
      <trkpt lat="46.94314" lon="8.71105">
        <ele>1597</ele>
        <time>2021-08-06T11:42:19.855Z</time>
      </trkpt>
      <trkpt lat="46.94313" lon="8.71105">
        <ele>1597</ele>
        <time>2021-08-06T11:42:20.855Z</time>
      </trkpt>
      <trkpt lat="46.94313" lon="8.71105">
        <ele>1597</ele>
        <time>2021-08-06T11:42:21.855Z</time>
      </trkpt>
      <trkpt lat="46.94313" lon="8.71105">
        <ele>1598</ele>
        <time>2021-08-06T11:42:22.855Z</time>
      </trkpt>
      <trkpt lat="46.94312" lon="8.71105">
        <ele>1598</ele>
        <time>2021-08-06T11:42:23.855Z</time>
      </trkpt>
      <trkpt lat="46.94312" lon="8.71105">
        <ele>1599</ele>
        <time>2021-08-06T11:42:24.857Z</time>
      </trkpt>
      <trkpt lat="46.94311" lon="8.71105">
        <ele>1599</ele>
        <time>2021-08-06T11:42:25.856Z</time>
      </trkpt>
      <trkpt lat="46.9431" lon="8.71106">
        <ele>1599</ele>
        <time>2021-08-06T11:42:26.857Z</time>
      </trkpt>
      <trkpt lat="46.9431" lon="8.71106">
        <ele>1599</ele>
        <time>2021-08-06T11:42:27.857Z</time>
      </trkpt>
      <trkpt lat="46.9431" lon="8.71106">
        <ele>1599</ele>
        <time>2021-08-06T11:42:28.856Z</time>
      </trkpt>
      <trkpt lat="46.94309" lon="8.71105">
        <ele>1599</ele>
        <time>2021-08-06T11:42:29.856Z</time>
      </trkpt>
      <trkpt lat="46.94309" lon="8.71105">
        <ele>1599</ele>
        <time>2021-08-06T11:42:30.856Z</time>
      </trkpt>
      <trkpt lat="46.94308" lon="8.71105">
        <ele>1599</ele>
        <time>2021-08-06T11:42:31.856Z</time>
      </trkpt>
      <trkpt lat="46.94308" lon="8.71106">
        <ele>1599</ele>
        <time>2021-08-06T11:42:32.856Z</time>
      </trkpt>
      <trkpt lat="46.94307" lon="8.71106">
        <ele>1599</ele>
        <time>2021-08-06T11:42:33.857Z</time>
      </trkpt>
      <trkpt lat="46.94307" lon="8.71106">
        <ele>1600</ele>
        <time>2021-08-06T11:42:34.857Z</time>
      </trkpt>
      <trkpt lat="46.94307" lon="8.71106">
        <ele>1600</ele>
        <time>2021-08-06T11:42:35.857Z</time>
      </trkpt>
      <trkpt lat="46.94306" lon="8.71106">
        <ele>1600</ele>
        <time>2021-08-06T11:42:36.856Z</time>
      </trkpt>
      <trkpt lat="46.94306" lon="8.71106">
        <ele>1600</ele>
        <time>2021-08-06T11:42:37.857Z</time>
      </trkpt>
      <trkpt lat="46.94305" lon="8.71106">
        <ele>1601</ele>
        <time>2021-08-06T11:42:41.988Z</time>
      </trkpt>
      <trkpt lat="46.94305" lon="8.71106">
        <ele>1601</ele>
        <time>2021-08-06T11:42:44.832Z</time>
      </trkpt>
      <trkpt lat="46.94304" lon="8.71106">
        <ele>1602</ele>
        <time>2021-08-06T11:42:45.832Z</time>
      </trkpt>
      <trkpt lat="46.94304" lon="8.71106">
        <ele>1602</ele>
        <time>2021-08-06T11:42:46.833Z</time>
      </trkpt>
      <trkpt lat="46.94304" lon="8.71106">
        <ele>1602</ele>
        <time>2021-08-06T11:42:47.833Z</time>
      </trkpt>
      <trkpt lat="46.94303" lon="8.71105">
        <ele>1602</ele>
        <time>2021-08-06T11:42:48.833Z</time>
      </trkpt>
      <trkpt lat="46.94303" lon="8.71105">
        <ele>1602</ele>
        <time>2021-08-06T11:42:49.832Z</time>
      </trkpt>
      <trkpt lat="46.94302" lon="8.71104">
        <ele>1602</ele>
        <time>2021-08-06T11:42:57.028Z</time>
      </trkpt>
      <trkpt lat="46.94302" lon="8.71104">
        <ele>1602</ele>
        <time>2021-08-06T11:42:58.027Z</time>
      </trkpt>
      <trkpt lat="46.94301" lon="8.71104">
        <ele>1602</ele>
        <time>2021-08-06T11:42:59.027Z</time>
      </trkpt>
      <trkpt lat="46.94301" lon="8.71103">
        <ele>1602</ele>
        <time>2021-08-06T11:43:00.027Z</time>
      </trkpt>
      <trkpt lat="46.94301" lon="8.71103">
        <ele>1602</ele>
        <time>2021-08-06T11:43:01.028Z</time>
      </trkpt>
      <trkpt lat="46.94301" lon="8.71103">
        <ele>1602</ele>
        <time>2021-08-06T11:43:02.027Z</time>
      </trkpt>
      <trkpt lat="46.943" lon="8.71103">
        <ele>1602</ele>
        <time>2021-08-06T11:43:03.028Z</time>
      </trkpt>
      <trkpt lat="46.943" lon="8.71102">
        <ele>1602</ele>
        <time>2021-08-06T11:43:04.027Z</time>
      </trkpt>
      <trkpt lat="46.94299" lon="8.71102">
        <ele>1603</ele>
        <time>2021-08-06T11:43:05.028Z</time>
      </trkpt>
      <trkpt lat="46.94299" lon="8.71102">
        <ele>1603</ele>
        <time>2021-08-06T11:43:06.027Z</time>
      </trkpt>
      <trkpt lat="46.94298" lon="8.71102">
        <ele>1603</ele>
        <time>2021-08-06T11:43:07.028Z</time>
      </trkpt>
      <trkpt lat="46.94298" lon="8.71101">
        <ele>1603</ele>
        <time>2021-08-06T11:43:08.028Z</time>
      </trkpt>
      <trkpt lat="46.94297" lon="8.711">
        <ele>1603</ele>
        <time>2021-08-06T11:43:11.105Z</time>
      </trkpt>
      <trkpt lat="46.94297" lon="8.711">
        <ele>1603</ele>
        <time>2021-08-06T11:43:12.106Z</time>
      </trkpt>
      <trkpt lat="46.94296" lon="8.711">
        <ele>1602</ele>
        <time>2021-08-06T11:43:13.106Z</time>
      </trkpt>
      <trkpt lat="46.94295" lon="8.71099">
        <ele>1602</ele>
        <time>2021-08-06T11:43:14.105Z</time>
      </trkpt>
      <trkpt lat="46.94295" lon="8.71098">
        <ele>1601</ele>
        <time>2021-08-06T11:43:15.106Z</time>
      </trkpt>
      <trkpt lat="46.94294" lon="8.71097">
        <ele>1601</ele>
        <time>2021-08-06T11:43:16.106Z</time>
      </trkpt>
      <trkpt lat="46.94294" lon="8.71097">
        <ele>1601</ele>
        <time>2021-08-06T11:43:17.105Z</time>
      </trkpt>
      <trkpt lat="46.94293" lon="8.71096">
        <ele>1600</ele>
        <time>2021-08-06T11:43:18.106Z</time>
      </trkpt>
      <trkpt lat="46.94292" lon="8.71095">
        <ele>1600</ele>
        <time>2021-08-06T11:43:19.106Z</time>
      </trkpt>
      <trkpt lat="46.94292" lon="8.71095">
        <ele>1599</ele>
        <time>2021-08-06T11:43:20.106Z</time>
      </trkpt>
      <trkpt lat="46.94292" lon="8.71094">
        <ele>1599</ele>
        <time>2021-08-06T11:43:21.106Z</time>
      </trkpt>
      <trkpt lat="46.94291" lon="8.71093">
        <ele>1599</ele>
        <time>2021-08-06T11:43:22.105Z</time>
      </trkpt>
      <trkpt lat="46.94291" lon="8.71093">
        <ele>1599</ele>
        <time>2021-08-06T11:43:23.106Z</time>
      </trkpt>
      <trkpt lat="46.9429" lon="8.71092">
        <ele>1599</ele>
        <time>2021-08-06T11:43:24.105Z</time>
      </trkpt>
      <trkpt lat="46.94289" lon="8.71092">
        <ele>1599</ele>
        <time>2021-08-06T11:43:25.106Z</time>
      </trkpt>
      <trkpt lat="46.94289" lon="8.7109">
        <ele>1599</ele>
        <time>2021-08-06T11:43:26.106Z</time>
      </trkpt>
      <trkpt lat="46.94289" lon="8.71089">
        <ele>1599</ele>
        <time>2021-08-06T11:43:27.106Z</time>
      </trkpt>
      <trkpt lat="46.94288" lon="8.71088">
        <ele>1599</ele>
        <time>2021-08-06T11:43:28.106Z</time>
      </trkpt>
      <trkpt lat="46.94288" lon="8.71088">
        <ele>1599</ele>
        <time>2021-08-06T11:43:29.106Z</time>
      </trkpt>
      <trkpt lat="46.94288" lon="8.71087">
        <ele>1599</ele>
        <time>2021-08-06T11:43:30.105Z</time>
      </trkpt>
      <trkpt lat="46.94287" lon="8.71086">
        <ele>1600</ele>
        <time>2021-08-06T11:43:31.106Z</time>
      </trkpt>
      <trkpt lat="46.94286" lon="8.71086">
        <ele>1600</ele>
        <time>2021-08-06T11:43:32.106Z</time>
      </trkpt>
      <trkpt lat="46.94286" lon="8.71086">
        <ele>1600</ele>
        <time>2021-08-06T11:43:33.106Z</time>
      </trkpt>
      <trkpt lat="46.94285" lon="8.71085">
        <ele>1600</ele>
        <time>2021-08-06T11:43:34.106Z</time>
      </trkpt>
      <trkpt lat="46.94285" lon="8.71084">
        <ele>1600</ele>
        <time>2021-08-06T11:43:35.106Z</time>
      </trkpt>
      <trkpt lat="46.94284" lon="8.71084">
        <ele>1600</ele>
        <time>2021-08-06T11:43:36.106Z</time>
      </trkpt>
      <trkpt lat="46.94283" lon="8.71083">
        <ele>1600</ele>
        <time>2021-08-06T11:43:37.105Z</time>
      </trkpt>
      <trkpt lat="46.94283" lon="8.71082">
        <ele>1600</ele>
        <time>2021-08-06T11:43:38.106Z</time>
      </trkpt>
      <trkpt lat="46.94282" lon="8.71082">
        <ele>1600</ele>
        <time>2021-08-06T11:43:41.090Z</time>
      </trkpt>
      <trkpt lat="46.94282" lon="8.71082">
        <ele>1599</ele>
        <time>2021-08-06T11:43:42.090Z</time>
      </trkpt>
      <trkpt lat="46.94281" lon="8.71083">
        <ele>1599</ele>
        <time>2021-08-06T11:43:43.090Z</time>
      </trkpt>
      <trkpt lat="46.9428" lon="8.71082">
        <ele>1599</ele>
        <time>2021-08-06T11:43:44.090Z</time>
      </trkpt>
      <trkpt lat="46.9428" lon="8.71082">
        <ele>1599</ele>
        <time>2021-08-06T11:43:45.090Z</time>
      </trkpt>
      <trkpt lat="46.94279" lon="8.71082">
        <ele>1599</ele>
        <time>2021-08-06T11:43:46.090Z</time>
      </trkpt>
      <trkpt lat="46.94279" lon="8.71082">
        <ele>1599</ele>
        <time>2021-08-06T11:43:47.091Z</time>
      </trkpt>
      <trkpt lat="46.94278" lon="8.71082">
        <ele>1599</ele>
        <time>2021-08-06T11:43:48.090Z</time>
      </trkpt>
      <trkpt lat="46.94278" lon="8.71082">
        <ele>1600</ele>
        <time>2021-08-06T11:43:49.090Z</time>
      </trkpt>
      <trkpt lat="46.94278" lon="8.71081">
        <ele>1600</ele>
        <time>2021-08-06T11:43:50.090Z</time>
      </trkpt>
      <trkpt lat="46.94277" lon="8.7108">
        <ele>1600</ele>
        <time>2021-08-06T11:43:51.090Z</time>
      </trkpt>
      <trkpt lat="46.94277" lon="8.7108">
        <ele>1600</ele>
        <time>2021-08-06T11:43:52.090Z</time>
      </trkpt>
      <trkpt lat="46.94277" lon="8.7108">
        <ele>1601</ele>
        <time>2021-08-06T11:43:53.090Z</time>
      </trkpt>
      <trkpt lat="46.94276" lon="8.71079">
        <ele>1601</ele>
        <time>2021-08-06T11:43:54.090Z</time>
      </trkpt>
      <trkpt lat="46.94276" lon="8.71078">
        <ele>1601</ele>
        <time>2021-08-06T11:43:55.090Z</time>
      </trkpt>
      <trkpt lat="46.94276" lon="8.71077">
        <ele>1601</ele>
        <time>2021-08-06T11:43:56.090Z</time>
      </trkpt>
      <trkpt lat="46.94276" lon="8.71076">
        <ele>1601</ele>
        <time>2021-08-06T11:43:57.090Z</time>
      </trkpt>
      <trkpt lat="46.94275" lon="8.71076">
        <ele>1601</ele>
        <time>2021-08-06T11:43:58.091Z</time>
      </trkpt>
      <trkpt lat="46.94275" lon="8.71075">
        <ele>1602</ele>
        <time>2021-08-06T11:43:59.090Z</time>
      </trkpt>
      <trkpt lat="46.94275" lon="8.71075">
        <ele>1602</ele>
        <time>2021-08-06T11:44:00.090Z</time>
      </trkpt>
      <trkpt lat="46.94274" lon="8.71075">
        <ele>1602</ele>
        <time>2021-08-06T11:44:01.090Z</time>
      </trkpt>
      <trkpt lat="46.94274" lon="8.71074">
        <ele>1602</ele>
        <time>2021-08-06T11:44:02.090Z</time>
      </trkpt>
      <trkpt lat="46.94275" lon="8.71074">
        <ele>1602</ele>
        <time>2021-08-06T11:44:03.090Z</time>
      </trkpt>
      <trkpt lat="46.94274" lon="8.71073">
        <ele>1603</ele>
        <time>2021-08-06T11:44:04.090Z</time>
      </trkpt>
      <trkpt lat="46.94274" lon="8.71072">
        <ele>1603</ele>
        <time>2021-08-06T11:44:07.126Z</time>
      </trkpt>
      <trkpt lat="46.94274" lon="8.71071">
        <ele>1603</ele>
        <time>2021-08-06T11:44:08.125Z</time>
      </trkpt>
      <trkpt lat="46.94274" lon="8.71071">
        <ele>1604</ele>
        <time>2021-08-06T11:44:09.126Z</time>
      </trkpt>
      <trkpt lat="46.94273" lon="8.71069">
        <ele>1604</ele>
        <time>2021-08-06T11:44:10.126Z</time>
      </trkpt>
      <trkpt lat="46.94272" lon="8.71068">
        <ele>1604</ele>
        <time>2021-08-06T11:44:11.126Z</time>
      </trkpt>
      <trkpt lat="46.94272" lon="8.71067">
        <ele>1604</ele>
        <time>2021-08-06T11:44:12.126Z</time>
      </trkpt>
      <trkpt lat="46.94272" lon="8.71066">
        <ele>1605</ele>
        <time>2021-08-06T11:44:13.126Z</time>
      </trkpt>
      <trkpt lat="46.94271" lon="8.71066">
        <ele>1605</ele>
        <time>2021-08-06T11:44:14.126Z</time>
      </trkpt>
      <trkpt lat="46.94271" lon="8.71066">
        <ele>1605</ele>
        <time>2021-08-06T11:44:15.126Z</time>
      </trkpt>
      <trkpt lat="46.9427" lon="8.71066">
        <ele>1605</ele>
        <time>2021-08-06T11:44:16.126Z</time>
      </trkpt>
      <trkpt lat="46.9427" lon="8.71066">
        <ele>1606</ele>
        <time>2021-08-06T11:44:17.126Z</time>
      </trkpt>
      <trkpt lat="46.94271" lon="8.71065">
        <ele>1606</ele>
        <time>2021-08-06T11:44:18.126Z</time>
      </trkpt>
      <trkpt lat="46.9427" lon="8.71064">
        <ele>1606</ele>
        <time>2021-08-06T11:44:19.126Z</time>
      </trkpt>
      <trkpt lat="46.9427" lon="8.71064">
        <ele>1606</ele>
        <time>2021-08-06T11:44:20.126Z</time>
      </trkpt>
      <trkpt lat="46.9427" lon="8.71064">
        <ele>1606</ele>
        <time>2021-08-06T11:44:21.126Z</time>
      </trkpt>
      <trkpt lat="46.9427" lon="8.71064">
        <ele>1607</ele>
        <time>2021-08-06T11:44:22.125Z</time>
      </trkpt>
      <trkpt lat="46.94269" lon="8.71065">
        <ele>1608</ele>
        <time>2021-08-06T11:44:23.126Z</time>
      </trkpt>
      <trkpt lat="46.9427" lon="8.71065">
        <ele>1608</ele>
        <time>2021-08-06T11:44:25.228Z</time>
      </trkpt>
      <trkpt lat="46.9427" lon="8.71065">
        <ele>1609</ele>
        <time>2021-08-06T11:44:26.227Z</time>
      </trkpt>
      <trkpt lat="46.94269" lon="8.71064">
        <ele>1609</ele>
        <time>2021-08-06T11:44:27.227Z</time>
      </trkpt>
      <trkpt lat="46.94269" lon="8.71063">
        <ele>1609</ele>
        <time>2021-08-06T11:44:28.227Z</time>
      </trkpt>
      <trkpt lat="46.94269" lon="8.71063">
        <ele>1610</ele>
        <time>2021-08-06T11:44:29.227Z</time>
      </trkpt>
      <trkpt lat="46.94268" lon="8.71062">
        <ele>1610</ele>
        <time>2021-08-06T11:44:30.228Z</time>
      </trkpt>
      <trkpt lat="46.94268" lon="8.7106">
        <ele>1610</ele>
        <time>2021-08-06T11:44:31.227Z</time>
      </trkpt>
      <trkpt lat="46.94269" lon="8.71059">
        <ele>1610</ele>
        <time>2021-08-06T11:44:32.228Z</time>
      </trkpt>
      <trkpt lat="46.94269" lon="8.71058">
        <ele>1610</ele>
        <time>2021-08-06T11:44:33.227Z</time>
      </trkpt>
      <trkpt lat="46.94268" lon="8.71057">
        <ele>1610</ele>
        <time>2021-08-06T11:44:34.227Z</time>
      </trkpt>
      <trkpt lat="46.94268" lon="8.71057">
        <ele>1610</ele>
        <time>2021-08-06T11:44:35.227Z</time>
      </trkpt>
      <trkpt lat="46.94267" lon="8.71056">
        <ele>1610</ele>
        <time>2021-08-06T11:44:36.227Z</time>
      </trkpt>
      <trkpt lat="46.94267" lon="8.71056">
        <ele>1610</ele>
        <time>2021-08-06T11:44:37.227Z</time>
      </trkpt>
      <trkpt lat="46.94266" lon="8.71055">
        <ele>1610</ele>
        <time>2021-08-06T11:44:38.227Z</time>
      </trkpt>
      <trkpt lat="46.94266" lon="8.71054">
        <ele>1611</ele>
        <time>2021-08-06T11:44:39.228Z</time>
      </trkpt>
      <trkpt lat="46.94266" lon="8.71054">
        <ele>1612</ele>
        <time>2021-08-06T11:44:40.227Z</time>
      </trkpt>
      <trkpt lat="46.94266" lon="8.71053">
        <ele>1613</ele>
        <time>2021-08-06T11:44:41.227Z</time>
      </trkpt>
      <trkpt lat="46.94266" lon="8.71052">
        <ele>1613</ele>
        <time>2021-08-06T11:44:42.228Z</time>
      </trkpt>
      <trkpt lat="46.94266" lon="8.71052">
        <ele>1614</ele>
        <time>2021-08-06T11:44:43.228Z</time>
      </trkpt>
      <trkpt lat="46.94267" lon="8.71052">
        <ele>1613</ele>
        <time>2021-08-06T11:44:44.227Z</time>
      </trkpt>
      <trkpt lat="46.94267" lon="8.71052">
        <ele>1613</ele>
        <time>2021-08-06T11:44:45.228Z</time>
      </trkpt>
      <trkpt lat="46.94267" lon="8.71052">
        <ele>1613</ele>
        <time>2021-08-06T11:44:46.228Z</time>
      </trkpt>
      <trkpt lat="46.94266" lon="8.71051">
        <ele>1614</ele>
        <time>2021-08-06T11:44:47.227Z</time>
      </trkpt>
      <trkpt lat="46.94266" lon="8.71051">
        <ele>1614</ele>
        <time>2021-08-06T11:44:48.228Z</time>
      </trkpt>
      <trkpt lat="46.94265" lon="8.71051">
        <ele>1615</ele>
        <time>2021-08-06T11:44:49.228Z</time>
      </trkpt>
      <trkpt lat="46.94265" lon="8.7105">
        <ele>1615</ele>
        <time>2021-08-06T11:44:50.228Z</time>
      </trkpt>
      <trkpt lat="46.94265" lon="8.7105">
        <ele>1616</ele>
        <time>2021-08-06T11:44:51.228Z</time>
      </trkpt>
      <trkpt lat="46.94265" lon="8.7105">
        <ele>1616</ele>
        <time>2021-08-06T11:44:52.227Z</time>
      </trkpt>
      <trkpt lat="46.94264" lon="8.71048">
        <ele>1618</ele>
        <time>2021-08-06T11:44:53.229Z</time>
      </trkpt>
      <trkpt lat="46.94263" lon="8.71048">
        <ele>1618</ele>
        <time>2021-08-06T11:44:54.229Z</time>
      </trkpt>
      <trkpt lat="46.94263" lon="8.71048">
        <ele>1617</ele>
        <time>2021-08-06T11:44:55.228Z</time>
      </trkpt>
      <trkpt lat="46.94262" lon="8.71048">
        <ele>1617</ele>
        <time>2021-08-06T11:44:56.228Z</time>
      </trkpt>
      <trkpt lat="46.94261" lon="8.71047">
        <ele>1617</ele>
        <time>2021-08-06T11:44:57.228Z</time>
      </trkpt>
      <trkpt lat="46.94261" lon="8.71046">
        <ele>1617</ele>
        <time>2021-08-06T11:44:58.229Z</time>
      </trkpt>
      <trkpt lat="46.9426" lon="8.71046">
        <ele>1617</ele>
        <time>2021-08-06T11:44:59.228Z</time>
      </trkpt>
      <trkpt lat="46.9426" lon="8.71045">
        <ele>1617</ele>
        <time>2021-08-06T11:45:00.228Z</time>
      </trkpt>
      <trkpt lat="46.9426" lon="8.71044">
        <ele>1617</ele>
        <time>2021-08-06T11:45:01.228Z</time>
      </trkpt>
      <trkpt lat="46.94259" lon="8.71043">
        <ele>1617</ele>
        <time>2021-08-06T11:45:02.229Z</time>
      </trkpt>
      <trkpt lat="46.94258" lon="8.71043">
        <ele>1616</ele>
        <time>2021-08-06T11:45:03.229Z</time>
      </trkpt>
      <trkpt lat="46.94258" lon="8.71042">
        <ele>1616</ele>
        <time>2021-08-06T11:45:04.228Z</time>
      </trkpt>
      <trkpt lat="46.94258" lon="8.71042">
        <ele>1616</ele>
        <time>2021-08-06T11:45:05.228Z</time>
      </trkpt>
      <trkpt lat="46.94257" lon="8.71041">
        <ele>1615</ele>
        <time>2021-08-06T11:45:06.228Z</time>
      </trkpt>
      <trkpt lat="46.94257" lon="8.7104">
        <ele>1615</ele>
        <time>2021-08-06T11:45:07.228Z</time>
      </trkpt>
      <trkpt lat="46.94256" lon="8.7104">
        <ele>1615</ele>
        <time>2021-08-06T11:45:08.229Z</time>
      </trkpt>
      <trkpt lat="46.94255" lon="8.71039">
        <ele>1614</ele>
        <time>2021-08-06T11:45:12.379Z</time>
      </trkpt>
      <trkpt lat="46.94254" lon="8.71039">
        <ele>1613</ele>
        <time>2021-08-06T11:45:13.379Z</time>
      </trkpt>
      <trkpt lat="46.94253" lon="8.71038">
        <ele>1613</ele>
        <time>2021-08-06T11:45:14.379Z</time>
      </trkpt>
      <trkpt lat="46.94253" lon="8.71038">
        <ele>1613</ele>
        <time>2021-08-06T11:45:15.379Z</time>
      </trkpt>
      <trkpt lat="46.94252" lon="8.71038">
        <ele>1612</ele>
        <time>2021-08-06T11:45:16.379Z</time>
      </trkpt>
      <trkpt lat="46.94252" lon="8.71037">
        <ele>1612</ele>
        <time>2021-08-06T11:45:17.379Z</time>
      </trkpt>
      <trkpt lat="46.94251" lon="8.71037">
        <ele>1612</ele>
        <time>2021-08-06T11:45:18.379Z</time>
      </trkpt>
      <trkpt lat="46.94251" lon="8.71037">
        <ele>1612</ele>
        <time>2021-08-06T11:45:19.379Z</time>
      </trkpt>
      <trkpt lat="46.94251" lon="8.71037">
        <ele>1612</ele>
        <time>2021-08-06T11:45:20.379Z</time>
      </trkpt>
      <trkpt lat="46.9425" lon="8.71037">
        <ele>1612</ele>
        <time>2021-08-06T11:45:21.379Z</time>
      </trkpt>
      <trkpt lat="46.9425" lon="8.71037">
        <ele>1613</ele>
        <time>2021-08-06T11:45:22.379Z</time>
      </trkpt>
      <trkpt lat="46.9425" lon="8.71037">
        <ele>1613</ele>
        <time>2021-08-06T11:45:23.379Z</time>
      </trkpt>
      <trkpt lat="46.94249" lon="8.71038">
        <ele>1612</ele>
        <time>2021-08-06T11:45:24.380Z</time>
      </trkpt>
      <trkpt lat="46.94249" lon="8.71037">
        <ele>1612</ele>
        <time>2021-08-06T11:45:25.379Z</time>
      </trkpt>
      <trkpt lat="46.94249" lon="8.71036">
        <ele>1612</ele>
        <time>2021-08-06T11:45:26.380Z</time>
      </trkpt>
      <trkpt lat="46.94248" lon="8.71036">
        <ele>1612</ele>
        <time>2021-08-06T11:45:27.379Z</time>
      </trkpt>
      <trkpt lat="46.94248" lon="8.71035">
        <ele>1612</ele>
        <time>2021-08-06T11:45:28.379Z</time>
      </trkpt>
      <trkpt lat="46.94247" lon="8.71035">
        <ele>1613</ele>
        <time>2021-08-06T11:45:29.379Z</time>
      </trkpt>
      <trkpt lat="46.94246" lon="8.71034">
        <ele>1613</ele>
        <time>2021-08-06T11:45:30.379Z</time>
      </trkpt>
      <trkpt lat="46.94245" lon="8.71034">
        <ele>1613</ele>
        <time>2021-08-06T11:45:31.379Z</time>
      </trkpt>
      <trkpt lat="46.94245" lon="8.71034">
        <ele>1612</ele>
        <time>2021-08-06T11:45:40.393Z</time>
      </trkpt>
      <trkpt lat="46.94244" lon="8.71033">
        <ele>1612</ele>
        <time>2021-08-06T11:45:41.393Z</time>
      </trkpt>
      <trkpt lat="46.94244" lon="8.71032">
        <ele>1612</ele>
        <time>2021-08-06T11:45:42.393Z</time>
      </trkpt>
      <trkpt lat="46.94244" lon="8.71031">
        <ele>1612</ele>
        <time>2021-08-06T11:45:43.393Z</time>
      </trkpt>
      <trkpt lat="46.94244" lon="8.71031">
        <ele>1612</ele>
        <time>2021-08-06T11:45:44.393Z</time>
      </trkpt>
      <trkpt lat="46.94244" lon="8.7103">
        <ele>1612</ele>
        <time>2021-08-06T11:45:45.392Z</time>
      </trkpt>
      <trkpt lat="46.94244" lon="8.7103">
        <ele>1613</ele>
        <time>2021-08-06T11:45:46.393Z</time>
      </trkpt>
      <trkpt lat="46.94244" lon="8.71029">
        <ele>1613</ele>
        <time>2021-08-06T11:45:47.393Z</time>
      </trkpt>
      <trkpt lat="46.94243" lon="8.71029">
        <ele>1613</ele>
        <time>2021-08-06T11:45:48.393Z</time>
      </trkpt>
      <trkpt lat="46.94243" lon="8.71028">
        <ele>1612</ele>
        <time>2021-08-06T11:45:49.392Z</time>
      </trkpt>
      <trkpt lat="46.94242" lon="8.71027">
        <ele>1612</ele>
        <time>2021-08-06T11:45:50.392Z</time>
      </trkpt>
      <trkpt lat="46.94242" lon="8.71027">
        <ele>1611</ele>
        <time>2021-08-06T11:45:51.393Z</time>
      </trkpt>
      <trkpt lat="46.94242" lon="8.71026">
        <ele>1611</ele>
        <time>2021-08-06T11:45:52.392Z</time>
      </trkpt>
      <trkpt lat="46.94242" lon="8.71026">
        <ele>1610</ele>
        <time>2021-08-06T11:45:53.393Z</time>
      </trkpt>
      <trkpt lat="46.94241" lon="8.71025">
        <ele>1610</ele>
        <time>2021-08-06T11:45:54.393Z</time>
      </trkpt>
      <trkpt lat="46.94241" lon="8.71024">
        <ele>1610</ele>
        <time>2021-08-06T11:45:55.392Z</time>
      </trkpt>
      <trkpt lat="46.9424" lon="8.71024">
        <ele>1609</ele>
        <time>2021-08-06T11:45:56.393Z</time>
      </trkpt>
      <trkpt lat="46.9424" lon="8.71023">
        <ele>1609</ele>
        <time>2021-08-06T11:45:57.392Z</time>
      </trkpt>
      <trkpt lat="46.94239" lon="8.71022">
        <ele>1610</ele>
        <time>2021-08-06T11:45:58.393Z</time>
      </trkpt>
      <trkpt lat="46.94239" lon="8.71022">
        <ele>1610</ele>
        <time>2021-08-06T11:45:59.392Z</time>
      </trkpt>
      <trkpt lat="46.94238" lon="8.71021">
        <ele>1611</ele>
        <time>2021-08-06T11:46:00.393Z</time>
      </trkpt>
      <trkpt lat="46.94238" lon="8.71021">
        <ele>1611</ele>
        <time>2021-08-06T11:46:01.393Z</time>
      </trkpt>
      <trkpt lat="46.94237" lon="8.7102">
        <ele>1612</ele>
        <time>2021-08-06T11:46:02.393Z</time>
      </trkpt>
      <trkpt lat="46.94237" lon="8.71019">
        <ele>1612</ele>
        <time>2021-08-06T11:46:03.393Z</time>
      </trkpt>
      <trkpt lat="46.94236" lon="8.71018">
        <ele>1613</ele>
        <time>2021-08-06T11:46:04.393Z</time>
      </trkpt>
      <trkpt lat="46.94236" lon="8.71018">
        <ele>1614</ele>
        <time>2021-08-06T11:46:05.392Z</time>
      </trkpt>
      <trkpt lat="46.94235" lon="8.71017">
        <ele>1614</ele>
        <time>2021-08-06T11:46:06.392Z</time>
      </trkpt>
      <trkpt lat="46.94235" lon="8.71016">
        <ele>1615</ele>
        <time>2021-08-06T11:46:07.392Z</time>
      </trkpt>
      <trkpt lat="46.94235" lon="8.71016">
        <ele>1616</ele>
        <time>2021-08-06T11:46:08.393Z</time>
      </trkpt>
      <trkpt lat="46.94234" lon="8.71016">
        <ele>1616</ele>
        <time>2021-08-06T11:46:09.392Z</time>
      </trkpt>
      <trkpt lat="46.94234" lon="8.71015">
        <ele>1617</ele>
        <time>2021-08-06T11:46:10.393Z</time>
      </trkpt>
      <trkpt lat="46.94234" lon="8.71014">
        <ele>1618</ele>
        <time>2021-08-06T11:46:11.393Z</time>
      </trkpt>
      <trkpt lat="46.94233" lon="8.71014">
        <ele>1619</ele>
        <time>2021-08-06T11:46:12.393Z</time>
      </trkpt>
      <trkpt lat="46.94233" lon="8.71013">
        <ele>1619</ele>
        <time>2021-08-06T11:46:13.392Z</time>
      </trkpt>
      <trkpt lat="46.94232" lon="8.71013">
        <ele>1620</ele>
        <time>2021-08-06T11:46:14.392Z</time>
      </trkpt>
      <trkpt lat="46.94232" lon="8.71013">
        <ele>1620</ele>
        <time>2021-08-06T11:46:15.393Z</time>
      </trkpt>
      <trkpt lat="46.94232" lon="8.71013">
        <ele>1620</ele>
        <time>2021-08-06T11:46:16.392Z</time>
      </trkpt>
      <trkpt lat="46.94231" lon="8.71013">
        <ele>1620</ele>
        <time>2021-08-06T11:46:17.393Z</time>
      </trkpt>
      <trkpt lat="46.9423" lon="8.71012">
        <ele>1619</ele>
        <time>2021-08-06T11:46:18.393Z</time>
      </trkpt>
      <trkpt lat="46.9423" lon="8.71012">
        <ele>1619</ele>
        <time>2021-08-06T11:46:19.393Z</time>
      </trkpt>
      <trkpt lat="46.9423" lon="8.71011">
        <ele>1620</ele>
        <time>2021-08-06T11:46:20.393Z</time>
      </trkpt>
      <trkpt lat="46.9423" lon="8.71011">
        <ele>1620</ele>
        <time>2021-08-06T11:46:21.393Z</time>
      </trkpt>
      <trkpt lat="46.94229" lon="8.7101">
        <ele>1620</ele>
        <time>2021-08-06T11:46:22.393Z</time>
      </trkpt>
      <trkpt lat="46.94229" lon="8.7101">
        <ele>1620</ele>
        <time>2021-08-06T11:46:23.393Z</time>
      </trkpt>
      <trkpt lat="46.94229" lon="8.71009">
        <ele>1619</ele>
        <time>2021-08-06T11:46:24.393Z</time>
      </trkpt>
      <trkpt lat="46.94229" lon="8.71008">
        <ele>1619</ele>
        <time>2021-08-06T11:46:25.392Z</time>
      </trkpt>
      <trkpt lat="46.94229" lon="8.71008">
        <ele>1619</ele>
        <time>2021-08-06T11:46:26.392Z</time>
      </trkpt>
      <trkpt lat="46.94228" lon="8.71008">
        <ele>1619</ele>
        <time>2021-08-06T11:46:27.393Z</time>
      </trkpt>
      <trkpt lat="46.94228" lon="8.71007">
        <ele>1619</ele>
        <time>2021-08-06T11:46:28.392Z</time>
      </trkpt>
      <trkpt lat="46.94228" lon="8.71006">
        <ele>1619</ele>
        <time>2021-08-06T11:46:29.392Z</time>
      </trkpt>
      <trkpt lat="46.94228" lon="8.71006">
        <ele>1619</ele>
        <time>2021-08-06T11:46:30.393Z</time>
      </trkpt>
      <trkpt lat="46.94229" lon="8.71005">
        <ele>1620</ele>
        <time>2021-08-06T11:46:31.392Z</time>
      </trkpt>
      <trkpt lat="46.94229" lon="8.71005">
        <ele>1621</ele>
        <time>2021-08-06T11:46:32.393Z</time>
      </trkpt>
      <trkpt lat="46.94229" lon="8.71004">
        <ele>1621</ele>
        <time>2021-08-06T11:46:33.393Z</time>
      </trkpt>
      <trkpt lat="46.94228" lon="8.71004">
        <ele>1621</ele>
        <time>2021-08-06T11:46:34.393Z</time>
      </trkpt>
      <trkpt lat="46.94228" lon="8.71003">
        <ele>1622</ele>
        <time>2021-08-06T11:46:35.392Z</time>
      </trkpt>
      <trkpt lat="46.94228" lon="8.71003">
        <ele>1622</ele>
        <time>2021-08-06T11:46:36.393Z</time>
      </trkpt>
      <trkpt lat="46.94228" lon="8.71002">
        <ele>1622</ele>
        <time>2021-08-06T11:46:37.393Z</time>
      </trkpt>
      <trkpt lat="46.94227" lon="8.71001">
        <ele>1623</ele>
        <time>2021-08-06T11:46:38.392Z</time>
      </trkpt>
      <trkpt lat="46.94227" lon="8.71">
        <ele>1623</ele>
        <time>2021-08-06T11:46:39.393Z</time>
      </trkpt>
      <trkpt lat="46.94226" lon="8.71">
        <ele>1623</ele>
        <time>2021-08-06T11:46:40.393Z</time>
      </trkpt>
      <trkpt lat="46.94226" lon="8.70999">
        <ele>1624</ele>
        <time>2021-08-06T11:46:41.393Z</time>
      </trkpt>
      <trkpt lat="46.94226" lon="8.70998">
        <ele>1624</ele>
        <time>2021-08-06T11:46:42.393Z</time>
      </trkpt>
      <trkpt lat="46.94225" lon="8.70998">
        <ele>1624</ele>
        <time>2021-08-06T11:46:43.393Z</time>
      </trkpt>
      <trkpt lat="46.94225" lon="8.70997">
        <ele>1624</ele>
        <time>2021-08-06T11:46:44.393Z</time>
      </trkpt>
      <trkpt lat="46.94225" lon="8.70996">
        <ele>1624</ele>
        <time>2021-08-06T11:46:45.392Z</time>
      </trkpt>
      <trkpt lat="46.94225" lon="8.70995">
        <ele>1624</ele>
        <time>2021-08-06T11:46:46.393Z</time>
      </trkpt>
      <trkpt lat="46.94225" lon="8.70994">
        <ele>1624</ele>
        <time>2021-08-06T11:46:47.393Z</time>
      </trkpt>
      <trkpt lat="46.94224" lon="8.70994">
        <ele>1624</ele>
        <time>2021-08-06T11:46:48.392Z</time>
      </trkpt>
      <trkpt lat="46.94224" lon="8.70994">
        <ele>1624</ele>
        <time>2021-08-06T11:46:49.393Z</time>
      </trkpt>
      <trkpt lat="46.94223" lon="8.70993">
        <ele>1624</ele>
        <time>2021-08-06T11:46:50.392Z</time>
      </trkpt>
      <trkpt lat="46.94224" lon="8.70993">
        <ele>1625</ele>
        <time>2021-08-06T11:46:51.393Z</time>
      </trkpt>
      <trkpt lat="46.94224" lon="8.70992">
        <ele>1625</ele>
        <time>2021-08-06T11:46:52.393Z</time>
      </trkpt>
      <trkpt lat="46.94224" lon="8.70991">
        <ele>1625</ele>
        <time>2021-08-06T11:46:53.392Z</time>
      </trkpt>
      <trkpt lat="46.94224" lon="8.70991">
        <ele>1626</ele>
        <time>2021-08-06T11:46:54.392Z</time>
      </trkpt>
      <trkpt lat="46.94224" lon="8.7099">
        <ele>1626</ele>
        <time>2021-08-06T11:46:55.393Z</time>
      </trkpt>
      <trkpt lat="46.94224" lon="8.70989">
        <ele>1627</ele>
        <time>2021-08-06T11:46:56.392Z</time>
      </trkpt>
      <trkpt lat="46.94224" lon="8.70988">
        <ele>1628</ele>
        <time>2021-08-06T11:46:57.392Z</time>
      </trkpt>
      <trkpt lat="46.94224" lon="8.70987">
        <ele>1629</ele>
        <time>2021-08-06T11:46:58.392Z</time>
      </trkpt>
      <trkpt lat="46.94224" lon="8.70986">
        <ele>1630</ele>
        <time>2021-08-06T11:46:59.393Z</time>
      </trkpt>
      <trkpt lat="46.94223" lon="8.70985">
        <ele>1631</ele>
        <time>2021-08-06T11:47:00.393Z</time>
      </trkpt>
      <trkpt lat="46.94223" lon="8.70985">
        <ele>1631</ele>
        <time>2021-08-06T11:47:01.393Z</time>
      </trkpt>
      <trkpt lat="46.94223" lon="8.70984">
        <ele>1631</ele>
        <time>2021-08-06T11:47:02.393Z</time>
      </trkpt>
      <trkpt lat="46.94222" lon="8.70984">
        <ele>1631</ele>
        <time>2021-08-06T11:47:03.392Z</time>
      </trkpt>
      <trkpt lat="46.94221" lon="8.70983">
        <ele>1631</ele>
        <time>2021-08-06T11:47:04.392Z</time>
      </trkpt>
      <trkpt lat="46.94221" lon="8.70983">
        <ele>1631</ele>
        <time>2021-08-06T11:47:05.392Z</time>
      </trkpt>
      <trkpt lat="46.94221" lon="8.70982">
        <ele>1631</ele>
        <time>2021-08-06T11:47:06.393Z</time>
      </trkpt>
      <trkpt lat="46.94221" lon="8.70981">
        <ele>1631</ele>
        <time>2021-08-06T11:47:07.393Z</time>
      </trkpt>
      <trkpt lat="46.94221" lon="8.7098">
        <ele>1631</ele>
        <time>2021-08-06T11:47:08.393Z</time>
      </trkpt>
      <trkpt lat="46.94221" lon="8.70979">
        <ele>1632</ele>
        <time>2021-08-06T11:47:09.393Z</time>
      </trkpt>
      <trkpt lat="46.9422" lon="8.70978">
        <ele>1632</ele>
        <time>2021-08-06T11:47:10.392Z</time>
      </trkpt>
      <trkpt lat="46.9422" lon="8.70977">
        <ele>1633</ele>
        <time>2021-08-06T11:47:11.392Z</time>
      </trkpt>
      <trkpt lat="46.94219" lon="8.70977">
        <ele>1633</ele>
        <time>2021-08-06T11:47:12.393Z</time>
      </trkpt>
      <trkpt lat="46.94218" lon="8.70976">
        <ele>1634</ele>
        <time>2021-08-06T11:47:13.393Z</time>
      </trkpt>
      <trkpt lat="46.94218" lon="8.70974">
        <ele>1634</ele>
        <time>2021-08-06T11:47:14.393Z</time>
      </trkpt>
      <trkpt lat="46.94217" lon="8.70974">
        <ele>1634</ele>
        <time>2021-08-06T11:47:15.393Z</time>
      </trkpt>
      <trkpt lat="46.94216" lon="8.70972">
        <ele>1634</ele>
        <time>2021-08-06T11:47:16.393Z</time>
      </trkpt>
      <trkpt lat="46.94215" lon="8.70972">
        <ele>1634</ele>
        <time>2021-08-06T11:47:17.393Z</time>
      </trkpt>
      <trkpt lat="46.94214" lon="8.70971">
        <ele>1634</ele>
        <time>2021-08-06T11:47:18.392Z</time>
      </trkpt>
      <trkpt lat="46.94213" lon="8.7097">
        <ele>1634</ele>
        <time>2021-08-06T11:47:19.392Z</time>
      </trkpt>
      <trkpt lat="46.94213" lon="8.70969">
        <ele>1633</ele>
        <time>2021-08-06T11:47:20.393Z</time>
      </trkpt>
      <trkpt lat="46.94212" lon="8.70969">
        <ele>1633</ele>
        <time>2021-08-06T11:47:21.393Z</time>
      </trkpt>
      <trkpt lat="46.94211" lon="8.70967">
        <ele>1632</ele>
        <time>2021-08-06T11:47:22.393Z</time>
      </trkpt>
      <trkpt lat="46.94211" lon="8.70966">
        <ele>1632</ele>
        <time>2021-08-06T11:47:23.392Z</time>
      </trkpt>
      <trkpt lat="46.94211" lon="8.70965">
        <ele>1632</ele>
        <time>2021-08-06T11:47:24.393Z</time>
      </trkpt>
      <trkpt lat="46.9421" lon="8.70964">
        <ele>1632</ele>
        <time>2021-08-06T11:47:25.393Z</time>
      </trkpt>
      <trkpt lat="46.9421" lon="8.70963">
        <ele>1632</ele>
        <time>2021-08-06T11:47:26.393Z</time>
      </trkpt>
      <trkpt lat="46.94209" lon="8.70962">
        <ele>1631</ele>
        <time>2021-08-06T11:47:27.393Z</time>
      </trkpt>
      <trkpt lat="46.94208" lon="8.7096">
        <ele>1630</ele>
        <time>2021-08-06T11:47:28.393Z</time>
      </trkpt>
      <trkpt lat="46.94208" lon="8.7096">
        <ele>1629</ele>
        <time>2021-08-06T11:47:29.393Z</time>
      </trkpt>
      <trkpt lat="46.94208" lon="8.70959">
        <ele>1628</ele>
        <time>2021-08-06T11:47:30.392Z</time>
      </trkpt>
      <trkpt lat="46.94207" lon="8.70959">
        <ele>1627</ele>
        <time>2021-08-06T11:47:31.393Z</time>
      </trkpt>
      <trkpt lat="46.94207" lon="8.70958">
        <ele>1627</ele>
        <time>2021-08-06T11:47:32.392Z</time>
      </trkpt>
      <trkpt lat="46.94207" lon="8.70957">
        <ele>1627</ele>
        <time>2021-08-06T11:47:33.393Z</time>
      </trkpt>
      <trkpt lat="46.94207" lon="8.70957">
        <ele>1627</ele>
        <time>2021-08-06T11:47:34.393Z</time>
      </trkpt>
      <trkpt lat="46.94207" lon="8.70956">
        <ele>1627</ele>
        <time>2021-08-06T11:47:35.393Z</time>
      </trkpt>
      <trkpt lat="46.94207" lon="8.70955">
        <ele>1627</ele>
        <time>2021-08-06T11:47:36.393Z</time>
      </trkpt>
      <trkpt lat="46.94207" lon="8.70954">
        <ele>1627</ele>
        <time>2021-08-06T11:47:37.392Z</time>
      </trkpt>
      <trkpt lat="46.94207" lon="8.70953">
        <ele>1627</ele>
        <time>2021-08-06T11:47:38.393Z</time>
      </trkpt>
      <trkpt lat="46.94207" lon="8.70952">
        <ele>1626</ele>
        <time>2021-08-06T11:47:39.393Z</time>
      </trkpt>
      <trkpt lat="46.94206" lon="8.70951">
        <ele>1626</ele>
        <time>2021-08-06T11:47:40.393Z</time>
      </trkpt>
      <trkpt lat="46.94206" lon="8.70951">
        <ele>1626</ele>
        <time>2021-08-06T11:47:41.393Z</time>
      </trkpt>
      <trkpt lat="46.94205" lon="8.7095">
        <ele>1626</ele>
        <time>2021-08-06T11:47:42.392Z</time>
      </trkpt>
      <trkpt lat="46.94204" lon="8.70949">
        <ele>1626</ele>
        <time>2021-08-06T11:47:43.393Z</time>
      </trkpt>
      <trkpt lat="46.94203" lon="8.70948">
        <ele>1627</ele>
        <time>2021-08-06T11:47:44.393Z</time>
      </trkpt>
      <trkpt lat="46.94203" lon="8.70947">
        <ele>1627</ele>
        <time>2021-08-06T11:47:45.392Z</time>
      </trkpt>
      <trkpt lat="46.94203" lon="8.70946">
        <ele>1627</ele>
        <time>2021-08-06T11:47:46.393Z</time>
      </trkpt>
      <trkpt lat="46.94202" lon="8.70944">
        <ele>1628</ele>
        <time>2021-08-06T11:47:47.392Z</time>
      </trkpt>
      <trkpt lat="46.94202" lon="8.70943">
        <ele>1628</ele>
        <time>2021-08-06T11:47:48.393Z</time>
      </trkpt>
      <trkpt lat="46.94201" lon="8.70942">
        <ele>1628</ele>
        <time>2021-08-06T11:47:49.393Z</time>
      </trkpt>
      <trkpt lat="46.94201" lon="8.70939">
        <ele>1628</ele>
        <time>2021-08-06T11:47:50.392Z</time>
      </trkpt>
      <trkpt lat="46.942" lon="8.70937">
        <ele>1629</ele>
        <time>2021-08-06T11:47:51.393Z</time>
      </trkpt>
      <trkpt lat="46.94199" lon="8.70937">
        <ele>1629</ele>
        <time>2021-08-06T11:47:52.392Z</time>
      </trkpt>
      <trkpt lat="46.94199" lon="8.70936">
        <ele>1629</ele>
        <time>2021-08-06T11:47:53.393Z</time>
      </trkpt>
      <trkpt lat="46.94199" lon="8.70937">
        <ele>1630</ele>
        <time>2021-08-06T11:47:54.393Z</time>
      </trkpt>
      <trkpt lat="46.94199" lon="8.70936">
        <ele>1630</ele>
        <time>2021-08-06T11:47:55.393Z</time>
      </trkpt>
      <trkpt lat="46.94198" lon="8.70935">
        <ele>1630</ele>
        <time>2021-08-06T11:47:56.392Z</time>
      </trkpt>
      <trkpt lat="46.94198" lon="8.70934">
        <ele>1630</ele>
        <time>2021-08-06T11:47:57.393Z</time>
      </trkpt>
      <trkpt lat="46.94197" lon="8.70933">
        <ele>1631</ele>
        <time>2021-08-06T11:47:58.393Z</time>
      </trkpt>
      <trkpt lat="46.94196" lon="8.70932">
        <ele>1631</ele>
        <time>2021-08-06T11:47:59.392Z</time>
      </trkpt>
      <trkpt lat="46.94196" lon="8.70931">
        <ele>1632</ele>
        <time>2021-08-06T11:48:00.393Z</time>
      </trkpt>
      <trkpt lat="46.94195" lon="8.7093">
        <ele>1632</ele>
        <time>2021-08-06T11:48:01.393Z</time>
      </trkpt>
      <trkpt lat="46.94195" lon="8.70929">
        <ele>1633</ele>
        <time>2021-08-06T11:48:02.393Z</time>
      </trkpt>
      <trkpt lat="46.94195" lon="8.70928">
        <ele>1633</ele>
        <time>2021-08-06T11:48:03.392Z</time>
      </trkpt>
      <trkpt lat="46.94194" lon="8.70927">
        <ele>1633</ele>
        <time>2021-08-06T11:48:04.393Z</time>
      </trkpt>
      <trkpt lat="46.94193" lon="8.70926">
        <ele>1633</ele>
        <time>2021-08-06T11:48:05.393Z</time>
      </trkpt>
      <trkpt lat="46.94192" lon="8.70925">
        <ele>1633</ele>
        <time>2021-08-06T11:48:06.393Z</time>
      </trkpt>
      <trkpt lat="46.94191" lon="8.70923">
        <ele>1633</ele>
        <time>2021-08-06T11:48:07.393Z</time>
      </trkpt>
      <trkpt lat="46.94191" lon="8.70922">
        <ele>1634</ele>
        <time>2021-08-06T11:48:08.392Z</time>
      </trkpt>
      <trkpt lat="46.9419" lon="8.70921">
        <ele>1633</ele>
        <time>2021-08-06T11:48:09.392Z</time>
      </trkpt>
      <trkpt lat="46.9419" lon="8.70921">
        <ele>1633</ele>
        <time>2021-08-06T11:48:10.393Z</time>
      </trkpt>
      <trkpt lat="46.94189" lon="8.7092">
        <ele>1634</ele>
        <time>2021-08-06T11:48:11.393Z</time>
      </trkpt>
      <trkpt lat="46.94189" lon="8.70919">
        <ele>1633</ele>
        <time>2021-08-06T11:48:12.393Z</time>
      </trkpt>
      <trkpt lat="46.94189" lon="8.70917">
        <ele>1633</ele>
        <time>2021-08-06T11:48:13.392Z</time>
      </trkpt>
      <trkpt lat="46.94189" lon="8.70916">
        <ele>1632</ele>
        <time>2021-08-06T11:48:14.393Z</time>
      </trkpt>
      <trkpt lat="46.94188" lon="8.70915">
        <ele>1632</ele>
        <time>2021-08-06T11:48:15.392Z</time>
      </trkpt>
      <trkpt lat="46.94188" lon="8.70914">
        <ele>1632</ele>
        <time>2021-08-06T11:48:16.392Z</time>
      </trkpt>
      <trkpt lat="46.94188" lon="8.70913">
        <ele>1633</ele>
        <time>2021-08-06T11:48:17.392Z</time>
      </trkpt>
      <trkpt lat="46.94188" lon="8.70911">
        <ele>1633</ele>
        <time>2021-08-06T11:48:18.393Z</time>
      </trkpt>
      <trkpt lat="46.94187" lon="8.70911">
        <ele>1633</ele>
        <time>2021-08-06T11:48:19.393Z</time>
      </trkpt>
      <trkpt lat="46.94186" lon="8.70911">
        <ele>1634</ele>
        <time>2021-08-06T11:48:20.392Z</time>
      </trkpt>
      <trkpt lat="46.94185" lon="8.7091">
        <ele>1634</ele>
        <time>2021-08-06T11:48:21.393Z</time>
      </trkpt>
      <trkpt lat="46.94184" lon="8.7091">
        <ele>1633</ele>
        <time>2021-08-06T11:48:22.393Z</time>
      </trkpt>
      <trkpt lat="46.94184" lon="8.70908">
        <ele>1633</ele>
        <time>2021-08-06T11:48:23.393Z</time>
      </trkpt>
      <trkpt lat="46.94184" lon="8.70907">
        <ele>1634</ele>
        <time>2021-08-06T11:48:24.393Z</time>
      </trkpt>
      <trkpt lat="46.94183" lon="8.70906">
        <ele>1634</ele>
        <time>2021-08-06T11:48:25.392Z</time>
      </trkpt>
      <trkpt lat="46.94183" lon="8.70905">
        <ele>1634</ele>
        <time>2021-08-06T11:48:26.392Z</time>
      </trkpt>
      <trkpt lat="46.94183" lon="8.70904">
        <ele>1634</ele>
        <time>2021-08-06T11:48:27.392Z</time>
      </trkpt>
      <trkpt lat="46.94182" lon="8.70903">
        <ele>1634</ele>
        <time>2021-08-06T11:48:28.393Z</time>
      </trkpt>
      <trkpt lat="46.94181" lon="8.70902">
        <ele>1634</ele>
        <time>2021-08-06T11:48:29.393Z</time>
      </trkpt>
      <trkpt lat="46.94181" lon="8.70901">
        <ele>1635</ele>
        <time>2021-08-06T11:48:30.392Z</time>
      </trkpt>
      <trkpt lat="46.9418" lon="8.70901">
        <ele>1635</ele>
        <time>2021-08-06T11:48:31.393Z</time>
      </trkpt>
      <trkpt lat="46.9418" lon="8.709">
        <ele>1635</ele>
        <time>2021-08-06T11:48:32.393Z</time>
      </trkpt>
      <trkpt lat="46.94179" lon="8.709">
        <ele>1635</ele>
        <time>2021-08-06T11:48:33.393Z</time>
      </trkpt>
      <trkpt lat="46.94178" lon="8.709">
        <ele>1635</ele>
        <time>2021-08-06T11:48:34.393Z</time>
      </trkpt>
      <trkpt lat="46.94178" lon="8.709">
        <ele>1635</ele>
        <time>2021-08-06T11:48:35.393Z</time>
      </trkpt>
      <trkpt lat="46.94177" lon="8.70899">
        <ele>1635</ele>
        <time>2021-08-06T11:48:36.392Z</time>
      </trkpt>
      <trkpt lat="46.94176" lon="8.70899">
        <ele>1634</ele>
        <time>2021-08-06T11:48:37.392Z</time>
      </trkpt>
      <trkpt lat="46.94175" lon="8.70898">
        <ele>1634</ele>
        <time>2021-08-06T11:48:38.392Z</time>
      </trkpt>
      <trkpt lat="46.94174" lon="8.70898">
        <ele>1634</ele>
        <time>2021-08-06T11:48:39.393Z</time>
      </trkpt>
      <trkpt lat="46.94174" lon="8.70897">
        <ele>1634</ele>
        <time>2021-08-06T11:48:40.393Z</time>
      </trkpt>
      <trkpt lat="46.94173" lon="8.70897">
        <ele>1635</ele>
        <time>2021-08-06T11:48:41.393Z</time>
      </trkpt>
      <trkpt lat="46.94173" lon="8.70897">
        <ele>1635</ele>
        <time>2021-08-06T11:48:42.393Z</time>
      </trkpt>
      <trkpt lat="46.94172" lon="8.70896">
        <ele>1635</ele>
        <time>2021-08-06T11:48:43.393Z</time>
      </trkpt>
      <trkpt lat="46.94171" lon="8.70896">
        <ele>1635</ele>
        <time>2021-08-06T11:48:44.392Z</time>
      </trkpt>
      <trkpt lat="46.94171" lon="8.70895">
        <ele>1635</ele>
        <time>2021-08-06T11:48:45.393Z</time>
      </trkpt>
      <trkpt lat="46.9417" lon="8.70895">
        <ele>1635</ele>
        <time>2021-08-06T11:48:46.393Z</time>
      </trkpt>
      <trkpt lat="46.94169" lon="8.70895">
        <ele>1635</ele>
        <time>2021-08-06T11:48:47.393Z</time>
      </trkpt>
      <trkpt lat="46.94169" lon="8.70894">
        <ele>1635</ele>
        <time>2021-08-06T11:48:48.393Z</time>
      </trkpt>
      <trkpt lat="46.94169" lon="8.70894">
        <ele>1635</ele>
        <time>2021-08-06T11:48:49.393Z</time>
      </trkpt>
      <trkpt lat="46.94168" lon="8.70895">
        <ele>1634</ele>
        <time>2021-08-06T11:48:50.393Z</time>
      </trkpt>
      <trkpt lat="46.94168" lon="8.70895">
        <ele>1634</ele>
        <time>2021-08-06T11:48:51.393Z</time>
      </trkpt>
      <trkpt lat="46.94167" lon="8.70895">
        <ele>1633</ele>
        <time>2021-08-06T11:48:52.393Z</time>
      </trkpt>
      <trkpt lat="46.94167" lon="8.70895">
        <ele>1633</ele>
        <time>2021-08-06T11:48:53.393Z</time>
      </trkpt>
      <trkpt lat="46.94166" lon="8.70895">
        <ele>1633</ele>
        <time>2021-08-06T11:48:54.392Z</time>
      </trkpt>
      <trkpt lat="46.94165" lon="8.70895">
        <ele>1633</ele>
        <time>2021-08-06T11:48:55.393Z</time>
      </trkpt>
      <trkpt lat="46.94164" lon="8.70895">
        <ele>1633</ele>
        <time>2021-08-06T11:48:56.392Z</time>
      </trkpt>
      <trkpt lat="46.94163" lon="8.70896">
        <ele>1632</ele>
        <time>2021-08-06T11:48:57.393Z</time>
      </trkpt>
      <trkpt lat="46.94162" lon="8.70897">
        <ele>1632</ele>
        <time>2021-08-06T11:48:58.393Z</time>
      </trkpt>
      <trkpt lat="46.94161" lon="8.70897">
        <ele>1632</ele>
        <time>2021-08-06T11:48:59.393Z</time>
      </trkpt>
      <trkpt lat="46.9416" lon="8.70897">
        <ele>1632</ele>
        <time>2021-08-06T11:49:00.393Z</time>
      </trkpt>
      <trkpt lat="46.9416" lon="8.70897">
        <ele>1632</ele>
        <time>2021-08-06T11:49:01.393Z</time>
      </trkpt>
      <trkpt lat="46.94159" lon="8.70897">
        <ele>1632</ele>
        <time>2021-08-06T11:49:02.393Z</time>
      </trkpt>
      <trkpt lat="46.94158" lon="8.70897">
        <ele>1632</ele>
        <time>2021-08-06T11:49:03.393Z</time>
      </trkpt>
      <trkpt lat="46.94158" lon="8.70898">
        <ele>1632</ele>
        <time>2021-08-06T11:49:04.393Z</time>
      </trkpt>
      <trkpt lat="46.94157" lon="8.70898">
        <ele>1632</ele>
        <time>2021-08-06T11:49:05.393Z</time>
      </trkpt>
      <trkpt lat="46.94157" lon="8.70898">
        <ele>1631</ele>
        <time>2021-08-06T11:49:06.392Z</time>
      </trkpt>
      <trkpt lat="46.94156" lon="8.70899">
        <ele>1631</ele>
        <time>2021-08-06T11:49:07.393Z</time>
      </trkpt>
      <trkpt lat="46.94156" lon="8.70899">
        <ele>1631</ele>
        <time>2021-08-06T11:49:08.393Z</time>
      </trkpt>
      <trkpt lat="46.94155" lon="8.70899">
        <ele>1631</ele>
        <time>2021-08-06T11:49:09.392Z</time>
      </trkpt>
      <trkpt lat="46.94154" lon="8.709">
        <ele>1631</ele>
        <time>2021-08-06T11:49:10.392Z</time>
      </trkpt>
      <trkpt lat="46.94154" lon="8.709">
        <ele>1631</ele>
        <time>2021-08-06T11:49:11.393Z</time>
      </trkpt>
      <trkpt lat="46.94153" lon="8.709">
        <ele>1631</ele>
        <time>2021-08-06T11:49:12.392Z</time>
      </trkpt>
      <trkpt lat="46.94153" lon="8.709">
        <ele>1631</ele>
        <time>2021-08-06T11:49:13.393Z</time>
      </trkpt>
      <trkpt lat="46.94152" lon="8.70899">
        <ele>1631</ele>
        <time>2021-08-06T11:49:14.393Z</time>
      </trkpt>
      <trkpt lat="46.94151" lon="8.70899">
        <ele>1632</ele>
        <time>2021-08-06T11:49:15.393Z</time>
      </trkpt>
      <trkpt lat="46.94151" lon="8.709">
        <ele>1632</ele>
        <time>2021-08-06T11:49:16.393Z</time>
      </trkpt>
      <trkpt lat="46.9415" lon="8.709">
        <ele>1632</ele>
        <time>2021-08-06T11:49:17.393Z</time>
      </trkpt>
      <trkpt lat="46.94149" lon="8.709">
        <ele>1632</ele>
        <time>2021-08-06T11:49:18.393Z</time>
      </trkpt>
      <trkpt lat="46.94149" lon="8.709">
        <ele>1633</ele>
        <time>2021-08-06T11:49:19.392Z</time>
      </trkpt>
      <trkpt lat="46.94148" lon="8.709">
        <ele>1633</ele>
        <time>2021-08-06T11:49:20.393Z</time>
      </trkpt>
      <trkpt lat="46.94148" lon="8.709">
        <ele>1633</ele>
        <time>2021-08-06T11:49:21.392Z</time>
      </trkpt>
      <trkpt lat="46.94147" lon="8.709">
        <ele>1634</ele>
        <time>2021-08-06T11:49:22.392Z</time>
      </trkpt>
      <trkpt lat="46.94146" lon="8.709">
        <ele>1634</ele>
        <time>2021-08-06T11:49:23.393Z</time>
      </trkpt>
      <trkpt lat="46.94146" lon="8.709">
        <ele>1635</ele>
        <time>2021-08-06T11:49:24.393Z</time>
      </trkpt>
      <trkpt lat="46.94145" lon="8.70899">
        <ele>1635</ele>
        <time>2021-08-06T11:49:25.392Z</time>
      </trkpt>
      <trkpt lat="46.94144" lon="8.70899">
        <ele>1635</ele>
        <time>2021-08-06T11:49:26.392Z</time>
      </trkpt>
      <trkpt lat="46.94144" lon="8.70899">
        <ele>1634</ele>
        <time>2021-08-06T11:49:27.393Z</time>
      </trkpt>
      <trkpt lat="46.94143" lon="8.70899">
        <ele>1634</ele>
        <time>2021-08-06T11:49:28.393Z</time>
      </trkpt>
      <trkpt lat="46.94142" lon="8.70898">
        <ele>1634</ele>
        <time>2021-08-06T11:49:29.393Z</time>
      </trkpt>
      <trkpt lat="46.94141" lon="8.70898">
        <ele>1634</ele>
        <time>2021-08-06T11:49:30.393Z</time>
      </trkpt>
      <trkpt lat="46.94141" lon="8.70898">
        <ele>1634</ele>
        <time>2021-08-06T11:49:31.393Z</time>
      </trkpt>
      <trkpt lat="46.9414" lon="8.70897">
        <ele>1635</ele>
        <time>2021-08-06T11:49:32.393Z</time>
      </trkpt>
      <trkpt lat="46.94139" lon="8.70897">
        <ele>1635</ele>
        <time>2021-08-06T11:49:33.393Z</time>
      </trkpt>
      <trkpt lat="46.94139" lon="8.70897">
        <ele>1635</ele>
        <time>2021-08-06T11:49:34.393Z</time>
      </trkpt>
      <trkpt lat="46.94138" lon="8.70897">
        <ele>1635</ele>
        <time>2021-08-06T11:49:35.393Z</time>
      </trkpt>
      <trkpt lat="46.94137" lon="8.70897">
        <ele>1635</ele>
        <time>2021-08-06T11:49:36.393Z</time>
      </trkpt>
      <trkpt lat="46.94136" lon="8.70896">
        <ele>1635</ele>
        <time>2021-08-06T11:49:37.393Z</time>
      </trkpt>
      <trkpt lat="46.94135" lon="8.70896">
        <ele>1635</ele>
        <time>2021-08-06T11:49:38.393Z</time>
      </trkpt>
      <trkpt lat="46.94135" lon="8.70895">
        <ele>1636</ele>
        <time>2021-08-06T11:49:39.393Z</time>
      </trkpt>
      <trkpt lat="46.94134" lon="8.70895">
        <ele>1636</ele>
        <time>2021-08-06T11:49:40.392Z</time>
      </trkpt>
      <trkpt lat="46.94133" lon="8.70895">
        <ele>1636</ele>
        <time>2021-08-06T11:49:41.392Z</time>
      </trkpt>
      <trkpt lat="46.94133" lon="8.70895">
        <ele>1636</ele>
        <time>2021-08-06T11:49:42.392Z</time>
      </trkpt>
      <trkpt lat="46.94133" lon="8.70895">
        <ele>1637</ele>
        <time>2021-08-06T11:49:43.392Z</time>
      </trkpt>
      <trkpt lat="46.94132" lon="8.70894">
        <ele>1637</ele>
        <time>2021-08-06T11:49:44.392Z</time>
      </trkpt>
      <trkpt lat="46.94132" lon="8.70893">
        <ele>1638</ele>
        <time>2021-08-06T11:49:45.392Z</time>
      </trkpt>
      <trkpt lat="46.94132" lon="8.70893">
        <ele>1638</ele>
        <time>2021-08-06T11:49:46.392Z</time>
      </trkpt>
      <trkpt lat="46.94131" lon="8.70892">
        <ele>1638</ele>
        <time>2021-08-06T11:49:47.392Z</time>
      </trkpt>
      <trkpt lat="46.94131" lon="8.7089">
        <ele>1639</ele>
        <time>2021-08-06T11:49:48.392Z</time>
      </trkpt>
      <trkpt lat="46.94131" lon="8.7089">
        <ele>1639</ele>
        <time>2021-08-06T11:49:49.392Z</time>
      </trkpt>
      <trkpt lat="46.9413" lon="8.70889">
        <ele>1639</ele>
        <time>2021-08-06T11:49:50.392Z</time>
      </trkpt>
      <trkpt lat="46.9413" lon="8.70889">
        <ele>1640</ele>
        <time>2021-08-06T11:49:51.392Z</time>
      </trkpt>
      <trkpt lat="46.9413" lon="8.70888">
        <ele>1640</ele>
        <time>2021-08-06T11:49:52.392Z</time>
      </trkpt>
      <trkpt lat="46.94129" lon="8.70888">
        <ele>1641</ele>
        <time>2021-08-06T11:49:53.392Z</time>
      </trkpt>
      <trkpt lat="46.94129" lon="8.70887">
        <ele>1641</ele>
        <time>2021-08-06T11:49:54.392Z</time>
      </trkpt>
      <trkpt lat="46.94129" lon="8.70886">
        <ele>1641</ele>
        <time>2021-08-06T11:49:55.392Z</time>
      </trkpt>
      <trkpt lat="46.94129" lon="8.70885">
        <ele>1642</ele>
        <time>2021-08-06T11:49:56.392Z</time>
      </trkpt>
      <trkpt lat="46.94128" lon="8.70884">
        <ele>1642</ele>
        <time>2021-08-06T11:49:57.392Z</time>
      </trkpt>
      <trkpt lat="46.94128" lon="8.70882">
        <ele>1642</ele>
        <time>2021-08-06T11:49:58.392Z</time>
      </trkpt>
      <trkpt lat="46.94128" lon="8.70882">
        <ele>1643</ele>
        <time>2021-08-06T11:49:59.392Z</time>
      </trkpt>
      <trkpt lat="46.94128" lon="8.70881">
        <ele>1643</ele>
        <time>2021-08-06T11:50:00.392Z</time>
      </trkpt>
      <trkpt lat="46.94128" lon="8.70881">
        <ele>1643</ele>
        <time>2021-08-06T11:50:01.393Z</time>
      </trkpt>
      <trkpt lat="46.94127" lon="8.7088">
        <ele>1643</ele>
        <time>2021-08-06T11:50:02.392Z</time>
      </trkpt>
      <trkpt lat="46.94127" lon="8.70879">
        <ele>1644</ele>
        <time>2021-08-06T11:50:03.392Z</time>
      </trkpt>
      <trkpt lat="46.94126" lon="8.70879">
        <ele>1644</ele>
        <time>2021-08-06T11:50:04.392Z</time>
      </trkpt>
      <trkpt lat="46.94126" lon="8.70878">
        <ele>1644</ele>
        <time>2021-08-06T11:50:05.392Z</time>
      </trkpt>
      <trkpt lat="46.94125" lon="8.70877">
        <ele>1645</ele>
        <time>2021-08-06T11:50:06.393Z</time>
      </trkpt>
      <trkpt lat="46.94125" lon="8.70876">
        <ele>1645</ele>
        <time>2021-08-06T11:50:07.392Z</time>
      </trkpt>
      <trkpt lat="46.94125" lon="8.70875">
        <ele>1646</ele>
        <time>2021-08-06T11:50:08.392Z</time>
      </trkpt>
      <trkpt lat="46.94124" lon="8.70874">
        <ele>1646</ele>
        <time>2021-08-06T11:50:09.392Z</time>
      </trkpt>
      <trkpt lat="46.94123" lon="8.70873">
        <ele>1646</ele>
        <time>2021-08-06T11:50:10.392Z</time>
      </trkpt>
      <trkpt lat="46.94123" lon="8.70872">
        <ele>1646</ele>
        <time>2021-08-06T11:50:11.392Z</time>
      </trkpt>
      <trkpt lat="46.94122" lon="8.70872">
        <ele>1646</ele>
        <time>2021-08-06T11:50:12.392Z</time>
      </trkpt>
      <trkpt lat="46.94122" lon="8.70872">
        <ele>1646</ele>
        <time>2021-08-06T11:50:13.392Z</time>
      </trkpt>
      <trkpt lat="46.94121" lon="8.70872">
        <ele>1646</ele>
        <time>2021-08-06T11:50:14.393Z</time>
      </trkpt>
      <trkpt lat="46.94121" lon="8.7087">
        <ele>1646</ele>
        <time>2021-08-06T11:50:15.392Z</time>
      </trkpt>
      <trkpt lat="46.94121" lon="8.70869">
        <ele>1646</ele>
        <time>2021-08-06T11:50:16.392Z</time>
      </trkpt>
      <trkpt lat="46.94121" lon="8.70869">
        <ele>1647</ele>
        <time>2021-08-06T11:50:17.392Z</time>
      </trkpt>
      <trkpt lat="46.94121" lon="8.70868">
        <ele>1647</ele>
        <time>2021-08-06T11:50:18.392Z</time>
      </trkpt>
      <trkpt lat="46.94121" lon="8.70868">
        <ele>1648</ele>
        <time>2021-08-06T11:50:19.393Z</time>
      </trkpt>
      <trkpt lat="46.94121" lon="8.70867">
        <ele>1648</ele>
        <time>2021-08-06T11:50:20.392Z</time>
      </trkpt>
      <trkpt lat="46.94121" lon="8.70867">
        <ele>1649</ele>
        <time>2021-08-06T11:50:21.392Z</time>
      </trkpt>
      <trkpt lat="46.9412" lon="8.70866">
        <ele>1649</ele>
        <time>2021-08-06T11:50:22.392Z</time>
      </trkpt>
      <trkpt lat="46.9412" lon="8.70865">
        <ele>1649</ele>
        <time>2021-08-06T11:50:23.392Z</time>
      </trkpt>
      <trkpt lat="46.94119" lon="8.70865">
        <ele>1650</ele>
        <time>2021-08-06T11:50:24.392Z</time>
      </trkpt>
      <trkpt lat="46.94119" lon="8.70864">
        <ele>1650</ele>
        <time>2021-08-06T11:50:25.392Z</time>
      </trkpt>
      <trkpt lat="46.94119" lon="8.70863">
        <ele>1650</ele>
        <time>2021-08-06T11:50:26.393Z</time>
      </trkpt>
      <trkpt lat="46.94118" lon="8.70863">
        <ele>1650</ele>
        <time>2021-08-06T11:50:27.392Z</time>
      </trkpt>
      <trkpt lat="46.94117" lon="8.70863">
        <ele>1650</ele>
        <time>2021-08-06T11:50:28.392Z</time>
      </trkpt>
      <trkpt lat="46.94117" lon="8.70862">
        <ele>1650</ele>
        <time>2021-08-06T11:50:29.392Z</time>
      </trkpt>
      <trkpt lat="46.94117" lon="8.70861">
        <ele>1650</ele>
        <time>2021-08-06T11:50:30.392Z</time>
      </trkpt>
      <trkpt lat="46.94117" lon="8.7086">
        <ele>1649</ele>
        <time>2021-08-06T11:50:31.392Z</time>
      </trkpt>
      <trkpt lat="46.94117" lon="8.70859">
        <ele>1649</ele>
        <time>2021-08-06T11:50:32.392Z</time>
      </trkpt>
      <trkpt lat="46.94117" lon="8.70858">
        <ele>1649</ele>
        <time>2021-08-06T11:50:33.392Z</time>
      </trkpt>
      <trkpt lat="46.94116" lon="8.70858">
        <ele>1649</ele>
        <time>2021-08-06T11:50:34.392Z</time>
      </trkpt>
      <trkpt lat="46.94115" lon="8.70857">
        <ele>1649</ele>
        <time>2021-08-06T11:50:35.392Z</time>
      </trkpt>
      <trkpt lat="46.94115" lon="8.70857">
        <ele>1649</ele>
        <time>2021-08-06T11:50:36.392Z</time>
      </trkpt>
      <trkpt lat="46.94115" lon="8.70856">
        <ele>1648</ele>
        <time>2021-08-06T11:50:37.392Z</time>
      </trkpt>
      <trkpt lat="46.94116" lon="8.70855">
        <ele>1648</ele>
        <time>2021-08-06T11:50:38.392Z</time>
      </trkpt>
      <trkpt lat="46.94116" lon="8.70854">
        <ele>1647</ele>
        <time>2021-08-06T11:50:39.392Z</time>
      </trkpt>
      <trkpt lat="46.94117" lon="8.70853">
        <ele>1647</ele>
        <time>2021-08-06T11:50:40.393Z</time>
      </trkpt>
      <trkpt lat="46.94117" lon="8.70852">
        <ele>1646</ele>
        <time>2021-08-06T11:50:41.392Z</time>
      </trkpt>
      <trkpt lat="46.94117" lon="8.70851">
        <ele>1646</ele>
        <time>2021-08-06T11:50:42.393Z</time>
      </trkpt>
      <trkpt lat="46.94118" lon="8.7085">
        <ele>1646</ele>
        <time>2021-08-06T11:50:43.393Z</time>
      </trkpt>
      <trkpt lat="46.94118" lon="8.70849">
        <ele>1646</ele>
        <time>2021-08-06T11:50:44.392Z</time>
      </trkpt>
      <trkpt lat="46.94118" lon="8.70848">
        <ele>1646</ele>
        <time>2021-08-06T11:50:45.393Z</time>
      </trkpt>
      <trkpt lat="46.94118" lon="8.70847">
        <ele>1646</ele>
        <time>2021-08-06T11:50:46.392Z</time>
      </trkpt>
      <trkpt lat="46.94119" lon="8.70847">
        <ele>1646</ele>
        <time>2021-08-06T11:50:47.393Z</time>
      </trkpt>
      <trkpt lat="46.94119" lon="8.70846">
        <ele>1646</ele>
        <time>2021-08-06T11:50:48.393Z</time>
      </trkpt>
      <trkpt lat="46.9412" lon="8.70845">
        <ele>1646</ele>
        <time>2021-08-06T11:50:49.393Z</time>
      </trkpt>
      <trkpt lat="46.9412" lon="8.70845">
        <ele>1646</ele>
        <time>2021-08-06T11:50:50.393Z</time>
      </trkpt>
      <trkpt lat="46.9412" lon="8.70844">
        <ele>1646</ele>
        <time>2021-08-06T11:50:51.393Z</time>
      </trkpt>
      <trkpt lat="46.94121" lon="8.70843">
        <ele>1646</ele>
        <time>2021-08-06T11:50:52.393Z</time>
      </trkpt>
      <trkpt lat="46.94121" lon="8.70842">
        <ele>1646</ele>
        <time>2021-08-06T11:50:53.393Z</time>
      </trkpt>
      <trkpt lat="46.94122" lon="8.70841">
        <ele>1647</ele>
        <time>2021-08-06T11:50:54.393Z</time>
      </trkpt>
      <trkpt lat="46.94122" lon="8.7084">
        <ele>1648</ele>
        <time>2021-08-06T11:50:55.393Z</time>
      </trkpt>
      <trkpt lat="46.94122" lon="8.7084">
        <ele>1648</ele>
        <time>2021-08-06T11:50:56.393Z</time>
      </trkpt>
      <trkpt lat="46.94123" lon="8.70839">
        <ele>1648</ele>
        <time>2021-08-06T11:50:57.392Z</time>
      </trkpt>
      <trkpt lat="46.94122" lon="8.70838">
        <ele>1648</ele>
        <time>2021-08-06T11:50:58.393Z</time>
      </trkpt>
      <trkpt lat="46.94122" lon="8.70837">
        <ele>1648</ele>
        <time>2021-08-06T11:50:59.392Z</time>
      </trkpt>
      <trkpt lat="46.94121" lon="8.70836">
        <ele>1649</ele>
        <time>2021-08-06T11:51:00.393Z</time>
      </trkpt>
      <trkpt lat="46.94121" lon="8.70835">
        <ele>1649</ele>
        <time>2021-08-06T11:51:01.393Z</time>
      </trkpt>
      <trkpt lat="46.9412" lon="8.70835">
        <ele>1649</ele>
        <time>2021-08-06T11:51:02.393Z</time>
      </trkpt>
      <trkpt lat="46.94119" lon="8.70834">
        <ele>1649</ele>
        <time>2021-08-06T11:51:03.392Z</time>
      </trkpt>
      <trkpt lat="46.94118" lon="8.70834">
        <ele>1649</ele>
        <time>2021-08-06T11:51:04.393Z</time>
      </trkpt>
      <trkpt lat="46.94117" lon="8.70835">
        <ele>1649</ele>
        <time>2021-08-06T11:51:05.393Z</time>
      </trkpt>
      <trkpt lat="46.94117" lon="8.70835">
        <ele>1650</ele>
        <time>2021-08-06T11:51:06.393Z</time>
      </trkpt>
      <trkpt lat="46.94116" lon="8.70834">
        <ele>1650</ele>
        <time>2021-08-06T11:51:07.393Z</time>
      </trkpt>
      <trkpt lat="46.94115" lon="8.70833">
        <ele>1650</ele>
        <time>2021-08-06T11:51:08.393Z</time>
      </trkpt>
      <trkpt lat="46.94114" lon="8.70833">
        <ele>1651</ele>
        <time>2021-08-06T11:51:09.392Z</time>
      </trkpt>
      <trkpt lat="46.94114" lon="8.70832">
        <ele>1651</ele>
        <time>2021-08-06T11:51:10.393Z</time>
      </trkpt>
      <trkpt lat="46.94114" lon="8.70832">
        <ele>1651</ele>
        <time>2021-08-06T11:51:11.393Z</time>
      </trkpt>
      <trkpt lat="46.94114" lon="8.70831">
        <ele>1652</ele>
        <time>2021-08-06T11:51:12.393Z</time>
      </trkpt>
      <trkpt lat="46.94113" lon="8.70831">
        <ele>1652</ele>
        <time>2021-08-06T11:51:13.392Z</time>
      </trkpt>
      <trkpt lat="46.94113" lon="8.7083">
        <ele>1653</ele>
        <time>2021-08-06T11:51:14.393Z</time>
      </trkpt>
      <trkpt lat="46.94113" lon="8.70829">
        <ele>1653</ele>
        <time>2021-08-06T11:51:15.393Z</time>
      </trkpt>
      <trkpt lat="46.94113" lon="8.70829">
        <ele>1654</ele>
        <time>2021-08-06T11:51:16.392Z</time>
      </trkpt>
      <trkpt lat="46.94112" lon="8.70828">
        <ele>1654</ele>
        <time>2021-08-06T11:51:17.393Z</time>
      </trkpt>
      <trkpt lat="46.94112" lon="8.70827">
        <ele>1655</ele>
        <time>2021-08-06T11:51:18.393Z</time>
      </trkpt>
      <trkpt lat="46.94112" lon="8.70827">
        <ele>1656</ele>
        <time>2021-08-06T11:51:19.392Z</time>
      </trkpt>
      <trkpt lat="46.94111" lon="8.70827">
        <ele>1657</ele>
        <time>2021-08-06T11:51:20.392Z</time>
      </trkpt>
      <trkpt lat="46.94111" lon="8.70826">
        <ele>1658</ele>
        <time>2021-08-06T11:51:21.393Z</time>
      </trkpt>
      <trkpt lat="46.94111" lon="8.70825">
        <ele>1658</ele>
        <time>2021-08-06T11:51:22.392Z</time>
      </trkpt>
      <trkpt lat="46.94111" lon="8.70824">
        <ele>1659</ele>
        <time>2021-08-06T11:51:23.392Z</time>
      </trkpt>
      <trkpt lat="46.9411" lon="8.70824">
        <ele>1659</ele>
        <time>2021-08-06T11:51:24.392Z</time>
      </trkpt>
      <trkpt lat="46.9411" lon="8.70823">
        <ele>1659</ele>
        <time>2021-08-06T11:51:25.392Z</time>
      </trkpt>
      <trkpt lat="46.9411" lon="8.70822">
        <ele>1659</ele>
        <time>2021-08-06T11:51:26.392Z</time>
      </trkpt>
      <trkpt lat="46.94109" lon="8.70822">
        <ele>1659</ele>
        <time>2021-08-06T11:51:27.392Z</time>
      </trkpt>
      <trkpt lat="46.94109" lon="8.70822">
        <ele>1659</ele>
        <time>2021-08-06T11:51:28.392Z</time>
      </trkpt>
      <trkpt lat="46.94108" lon="8.70821">
        <ele>1659</ele>
        <time>2021-08-06T11:51:29.393Z</time>
      </trkpt>
      <trkpt lat="46.94108" lon="8.70821">
        <ele>1660</ele>
        <time>2021-08-06T11:51:30.392Z</time>
      </trkpt>
      <trkpt lat="46.94107" lon="8.7082">
        <ele>1660</ele>
        <time>2021-08-06T11:51:31.393Z</time>
      </trkpt>
      <trkpt lat="46.94106" lon="8.7082">
        <ele>1661</ele>
        <time>2021-08-06T11:51:32.393Z</time>
      </trkpt>
      <trkpt lat="46.94106" lon="8.70819">
        <ele>1660</ele>
        <time>2021-08-06T11:51:33.392Z</time>
      </trkpt>
      <trkpt lat="46.94105" lon="8.70818">
        <ele>1660</ele>
        <time>2021-08-06T11:51:34.393Z</time>
      </trkpt>
      <trkpt lat="46.94104" lon="8.70818">
        <ele>1660</ele>
        <time>2021-08-06T11:51:35.393Z</time>
      </trkpt>
      <trkpt lat="46.94104" lon="8.70817">
        <ele>1660</ele>
        <time>2021-08-06T11:51:36.393Z</time>
      </trkpt>
      <trkpt lat="46.94103" lon="8.70816">
        <ele>1659</ele>
        <time>2021-08-06T11:51:37.393Z</time>
      </trkpt>
      <trkpt lat="46.94103" lon="8.70815">
        <ele>1659</ele>
        <time>2021-08-06T11:51:38.392Z</time>
      </trkpt>
      <trkpt lat="46.94102" lon="8.70814">
        <ele>1659</ele>
        <time>2021-08-06T11:51:39.392Z</time>
      </trkpt>
      <trkpt lat="46.94101" lon="8.70813">
        <ele>1659</ele>
        <time>2021-08-06T11:51:40.393Z</time>
      </trkpt>
      <trkpt lat="46.94101" lon="8.70813">
        <ele>1659</ele>
        <time>2021-08-06T11:51:41.393Z</time>
      </trkpt>
      <trkpt lat="46.941" lon="8.70812">
        <ele>1660</ele>
        <time>2021-08-06T11:51:42.393Z</time>
      </trkpt>
      <trkpt lat="46.941" lon="8.70812">
        <ele>1660</ele>
        <time>2021-08-06T11:51:43.393Z</time>
      </trkpt>
      <trkpt lat="46.941" lon="8.70811">
        <ele>1659</ele>
        <time>2021-08-06T11:51:44.393Z</time>
      </trkpt>
      <trkpt lat="46.941" lon="8.70811">
        <ele>1659</ele>
        <time>2021-08-06T11:51:45.392Z</time>
      </trkpt>
      <trkpt lat="46.94099" lon="8.7081">
        <ele>1659</ele>
        <time>2021-08-06T11:51:46.392Z</time>
      </trkpt>
      <trkpt lat="46.94098" lon="8.7081">
        <ele>1659</ele>
        <time>2021-08-06T11:51:47.393Z</time>
      </trkpt>
      <trkpt lat="46.94098" lon="8.70809">
        <ele>1659</ele>
        <time>2021-08-06T11:51:48.392Z</time>
      </trkpt>
      <trkpt lat="46.94097" lon="8.70808">
        <ele>1659</ele>
        <time>2021-08-06T11:51:49.393Z</time>
      </trkpt>
      <trkpt lat="46.94098" lon="8.70808">
        <ele>1659</ele>
        <time>2021-08-06T11:51:50.393Z</time>
      </trkpt>
      <trkpt lat="46.94098" lon="8.70807">
        <ele>1659</ele>
        <time>2021-08-06T11:51:51.393Z</time>
      </trkpt>
      <trkpt lat="46.94099" lon="8.70807">
        <ele>1660</ele>
        <time>2021-08-06T11:51:52.392Z</time>
      </trkpt>
      <trkpt lat="46.94099" lon="8.70807">
        <ele>1660</ele>
        <time>2021-08-06T11:51:53.393Z</time>
      </trkpt>
      <trkpt lat="46.94098" lon="8.70806">
        <ele>1660</ele>
        <time>2021-08-06T11:51:54.393Z</time>
      </trkpt>
      <trkpt lat="46.94098" lon="8.70806">
        <ele>1660</ele>
        <time>2021-08-06T11:51:55.393Z</time>
      </trkpt>
      <trkpt lat="46.94097" lon="8.70805">
        <ele>1661</ele>
        <time>2021-08-06T11:51:56.392Z</time>
      </trkpt>
      <trkpt lat="46.94097" lon="8.70804">
        <ele>1661</ele>
        <time>2021-08-06T11:51:57.392Z</time>
      </trkpt>
      <trkpt lat="46.94096" lon="8.70803">
        <ele>1661</ele>
        <time>2021-08-06T11:51:58.392Z</time>
      </trkpt>
      <trkpt lat="46.94096" lon="8.70803">
        <ele>1661</ele>
        <time>2021-08-06T11:51:59.393Z</time>
      </trkpt>
      <trkpt lat="46.94096" lon="8.70802">
        <ele>1661</ele>
        <time>2021-08-06T11:52:00.393Z</time>
      </trkpt>
      <trkpt lat="46.94095" lon="8.70802">
        <ele>1661</ele>
        <time>2021-08-06T11:52:01.393Z</time>
      </trkpt>
      <trkpt lat="46.94095" lon="8.70801">
        <ele>1661</ele>
        <time>2021-08-06T11:52:02.393Z</time>
      </trkpt>
      <trkpt lat="46.94095" lon="8.70801">
        <ele>1661</ele>
        <time>2021-08-06T11:52:03.392Z</time>
      </trkpt>
      <trkpt lat="46.94095" lon="8.708">
        <ele>1661</ele>
        <time>2021-08-06T11:52:04.393Z</time>
      </trkpt>
      <trkpt lat="46.94095" lon="8.708">
        <ele>1661</ele>
        <time>2021-08-06T11:52:05.393Z</time>
      </trkpt>
      <trkpt lat="46.94095" lon="8.708">
        <ele>1661</ele>
        <time>2021-08-06T11:52:06.393Z</time>
      </trkpt>
      <trkpt lat="46.94094" lon="8.70799">
        <ele>1661</ele>
        <time>2021-08-06T11:52:07.393Z</time>
      </trkpt>
      <trkpt lat="46.94094" lon="8.70799">
        <ele>1661</ele>
        <time>2021-08-06T11:52:08.393Z</time>
      </trkpt>
      <trkpt lat="46.94094" lon="8.70799">
        <ele>1661</ele>
        <time>2021-08-06T11:52:09.392Z</time>
      </trkpt>
      <trkpt lat="46.94093" lon="8.70799">
        <ele>1661</ele>
        <time>2021-08-06T11:52:10.392Z</time>
      </trkpt>
      <trkpt lat="46.94092" lon="8.70799">
        <ele>1661</ele>
        <time>2021-08-06T11:52:11.393Z</time>
      </trkpt>
      <trkpt lat="46.94091" lon="8.70798">
        <ele>1660</ele>
        <time>2021-08-06T11:52:12.392Z</time>
      </trkpt>
      <trkpt lat="46.94091" lon="8.70798">
        <ele>1660</ele>
        <time>2021-08-06T11:52:13.393Z</time>
      </trkpt>
      <trkpt lat="46.9409" lon="8.70797">
        <ele>1661</ele>
        <time>2021-08-06T11:52:14.393Z</time>
      </trkpt>
      <trkpt lat="46.9409" lon="8.70797">
        <ele>1661</ele>
        <time>2021-08-06T11:52:15.393Z</time>
      </trkpt>
      <trkpt lat="46.94089" lon="8.70797">
        <ele>1661</ele>
        <time>2021-08-06T11:52:16.392Z</time>
      </trkpt>
      <trkpt lat="46.94089" lon="8.70797">
        <ele>1662</ele>
        <time>2021-08-06T11:52:17.393Z</time>
      </trkpt>
      <trkpt lat="46.94089" lon="8.70798">
        <ele>1662</ele>
        <time>2021-08-06T11:52:18.392Z</time>
      </trkpt>
      <trkpt lat="46.94089" lon="8.70798">
        <ele>1662</ele>
        <time>2021-08-06T11:52:19.392Z</time>
      </trkpt>
      <trkpt lat="46.94089" lon="8.70798">
        <ele>1663</ele>
        <time>2021-08-06T11:52:20.392Z</time>
      </trkpt>
      <trkpt lat="46.9409" lon="8.70798">
        <ele>1663</ele>
        <time>2021-08-06T11:52:21.392Z</time>
      </trkpt>
      <trkpt lat="46.94089" lon="8.70797">
        <ele>1663</ele>
        <time>2021-08-06T11:52:22.393Z</time>
      </trkpt>
      <trkpt lat="46.94089" lon="8.70796">
        <ele>1664</ele>
        <time>2021-08-06T11:52:23.392Z</time>
      </trkpt>
      <trkpt lat="46.94088" lon="8.70795">
        <ele>1664</ele>
        <time>2021-08-06T11:52:24.393Z</time>
      </trkpt>
      <trkpt lat="46.94088" lon="8.70795">
        <ele>1664</ele>
        <time>2021-08-06T11:52:25.393Z</time>
      </trkpt>
      <trkpt lat="46.94087" lon="8.70794">
        <ele>1664</ele>
        <time>2021-08-06T11:52:26.393Z</time>
      </trkpt>
      <trkpt lat="46.94087" lon="8.70794">
        <ele>1664</ele>
        <time>2021-08-06T11:52:27.393Z</time>
      </trkpt>
      <trkpt lat="46.94087" lon="8.70794">
        <ele>1664</ele>
        <time>2021-08-06T11:52:28.393Z</time>
      </trkpt>
      <trkpt lat="46.94086" lon="8.70793">
        <ele>1664</ele>
        <time>2021-08-06T11:52:29.393Z</time>
      </trkpt>
      <trkpt lat="46.94085" lon="8.70793">
        <ele>1664</ele>
        <time>2021-08-06T11:52:30.393Z</time>
      </trkpt>
      <trkpt lat="46.94085" lon="8.70793">
        <ele>1665</ele>
        <time>2021-08-06T11:52:31.392Z</time>
      </trkpt>
      <trkpt lat="46.94085" lon="8.70793">
        <ele>1665</ele>
        <time>2021-08-06T11:52:32.393Z</time>
      </trkpt>
      <trkpt lat="46.94084" lon="8.70792">
        <ele>1665</ele>
        <time>2021-08-06T11:52:33.393Z</time>
      </trkpt>
      <trkpt lat="46.94084" lon="8.70793">
        <ele>1665</ele>
        <time>2021-08-06T11:52:34.393Z</time>
      </trkpt>
      <trkpt lat="46.94084" lon="8.70792">
        <ele>1665</ele>
        <time>2021-08-06T11:52:35.393Z</time>
      </trkpt>
      <trkpt lat="46.94083" lon="8.70792">
        <ele>1665</ele>
        <time>2021-08-06T11:52:36.392Z</time>
      </trkpt>
      <trkpt lat="46.94083" lon="8.70791">
        <ele>1665</ele>
        <time>2021-08-06T11:52:37.393Z</time>
      </trkpt>
      <trkpt lat="46.94083" lon="8.7079">
        <ele>1665</ele>
        <time>2021-08-06T11:52:38.393Z</time>
      </trkpt>
      <trkpt lat="46.94083" lon="8.70789">
        <ele>1666</ele>
        <time>2021-08-06T11:52:39.393Z</time>
      </trkpt>
      <trkpt lat="46.94082" lon="8.70788">
        <ele>1666</ele>
        <time>2021-08-06T11:52:40.393Z</time>
      </trkpt>
      <trkpt lat="46.94082" lon="8.70788">
        <ele>1666</ele>
        <time>2021-08-06T11:52:41.393Z</time>
      </trkpt>
      <trkpt lat="46.94082" lon="8.70788">
        <ele>1666</ele>
        <time>2021-08-06T11:52:42.393Z</time>
      </trkpt>
      <trkpt lat="46.94081" lon="8.70787">
        <ele>1666</ele>
        <time>2021-08-06T11:52:43.393Z</time>
      </trkpt>
      <trkpt lat="46.9408" lon="8.70787">
        <ele>1666</ele>
        <time>2021-08-06T11:52:44.392Z</time>
      </trkpt>
      <trkpt lat="46.9408" lon="8.70787">
        <ele>1666</ele>
        <time>2021-08-06T11:52:45.392Z</time>
      </trkpt>
      <trkpt lat="46.94079" lon="8.70787">
        <ele>1667</ele>
        <time>2021-08-06T11:52:46.393Z</time>
      </trkpt>
      <trkpt lat="46.94078" lon="8.70787">
        <ele>1667</ele>
        <time>2021-08-06T11:52:47.393Z</time>
      </trkpt>
      <trkpt lat="46.94078" lon="8.70786">
        <ele>1667</ele>
        <time>2021-08-06T11:52:48.392Z</time>
      </trkpt>
      <trkpt lat="46.94078" lon="8.70786">
        <ele>1666</ele>
        <time>2021-08-06T11:52:49.392Z</time>
      </trkpt>
      <trkpt lat="46.94077" lon="8.70786">
        <ele>1666</ele>
        <time>2021-08-06T11:52:50.392Z</time>
      </trkpt>
      <trkpt lat="46.94077" lon="8.70786">
        <ele>1666</ele>
        <time>2021-08-06T11:52:51.392Z</time>
      </trkpt>
      <trkpt lat="46.94076" lon="8.70786">
        <ele>1665</ele>
        <time>2021-08-06T11:52:52.392Z</time>
      </trkpt>
      <trkpt lat="46.94076" lon="8.70785">
        <ele>1665</ele>
        <time>2021-08-06T11:52:53.392Z</time>
      </trkpt>
      <trkpt lat="46.94075" lon="8.70785">
        <ele>1665</ele>
        <time>2021-08-06T11:52:54.392Z</time>
      </trkpt>
      <trkpt lat="46.94075" lon="8.70784">
        <ele>1665</ele>
        <time>2021-08-06T11:52:55.392Z</time>
      </trkpt>
      <trkpt lat="46.94074" lon="8.70784">
        <ele>1665</ele>
        <time>2021-08-06T11:52:56.392Z</time>
      </trkpt>
      <trkpt lat="46.94073" lon="8.70783">
        <ele>1664</ele>
        <time>2021-08-06T11:52:57.393Z</time>
      </trkpt>
      <trkpt lat="46.94072" lon="8.70782">
        <ele>1664</ele>
        <time>2021-08-06T11:52:58.393Z</time>
      </trkpt>
      <trkpt lat="46.94072" lon="8.70782">
        <ele>1664</ele>
        <time>2021-08-06T11:52:59.392Z</time>
      </trkpt>
      <trkpt lat="46.94072" lon="8.70782">
        <ele>1664</ele>
        <time>2021-08-06T11:53:00.392Z</time>
      </trkpt>
      <trkpt lat="46.94072" lon="8.70781">
        <ele>1665</ele>
        <time>2021-08-06T11:53:01.392Z</time>
      </trkpt>
      <trkpt lat="46.94072" lon="8.70781">
        <ele>1665</ele>
        <time>2021-08-06T11:53:02.393Z</time>
      </trkpt>
      <trkpt lat="46.94071" lon="8.70781">
        <ele>1665</ele>
        <time>2021-08-06T11:53:03.392Z</time>
      </trkpt>
      <trkpt lat="46.94071" lon="8.70781">
        <ele>1665</ele>
        <time>2021-08-06T11:53:04.392Z</time>
      </trkpt>
      <trkpt lat="46.94071" lon="8.7078">
        <ele>1665</ele>
        <time>2021-08-06T11:53:05.393Z</time>
      </trkpt>
      <trkpt lat="46.94071" lon="8.7078">
        <ele>1665</ele>
        <time>2021-08-06T11:53:06.393Z</time>
      </trkpt>
      <trkpt lat="46.94071" lon="8.7078">
        <ele>1666</ele>
        <time>2021-08-06T11:53:07.393Z</time>
      </trkpt>
      <trkpt lat="46.9407" lon="8.70782">
        <ele>1667</ele>
        <time>2021-08-06T11:53:08.393Z</time>
      </trkpt>
      <trkpt lat="46.9407" lon="8.70783">
        <ele>1667</ele>
        <time>2021-08-06T11:53:09.393Z</time>
      </trkpt>
      <trkpt lat="46.94072" lon="8.70782">
        <ele>1664</ele>
        <time>2021-08-06T11:53:10.393Z</time>
      </trkpt>
      <trkpt lat="46.9407" lon="8.70784">
        <ele>1663</ele>
        <time>2021-08-06T11:53:11.393Z</time>
      </trkpt>
      <trkpt lat="46.9407" lon="8.70785">
        <ele>1663</ele>
        <time>2021-08-06T11:53:12.393Z</time>
      </trkpt>
      <trkpt lat="46.9407" lon="8.70785">
        <ele>1663</ele>
        <time>2021-08-06T11:53:13.392Z</time>
      </trkpt>
      <trkpt lat="46.94069" lon="8.70785">
        <ele>1663</ele>
        <time>2021-08-06T11:53:14.393Z</time>
      </trkpt>
      <trkpt lat="46.94069" lon="8.70786">
        <ele>1665</ele>
        <time>2021-08-06T11:53:15.392Z</time>
      </trkpt>
      <trkpt lat="46.94068" lon="8.70785">
        <ele>1666</ele>
        <time>2021-08-06T11:53:16.393Z</time>
      </trkpt>
      <trkpt lat="46.94068" lon="8.70785">
        <ele>1666</ele>
        <time>2021-08-06T11:53:17.392Z</time>
      </trkpt>
      <trkpt lat="46.94068" lon="8.70784">
        <ele>1667</ele>
        <time>2021-08-06T11:53:18.393Z</time>
      </trkpt>
      <trkpt lat="46.94068" lon="8.70784">
        <ele>1667</ele>
        <time>2021-08-06T11:53:19.392Z</time>
      </trkpt>
      <trkpt lat="46.94068" lon="8.70784">
        <ele>1668</ele>
        <time>2021-08-06T11:53:20.392Z</time>
      </trkpt>
      <trkpt lat="46.94069" lon="8.70785">
        <ele>1668</ele>
        <time>2021-08-06T11:53:21.393Z</time>
      </trkpt>
      <trkpt lat="46.94069" lon="8.70785">
        <ele>1668</ele>
        <time>2021-08-06T11:53:22.392Z</time>
      </trkpt>
      <trkpt lat="46.9407" lon="8.70785">
        <ele>1669</ele>
        <time>2021-08-06T11:53:23.392Z</time>
      </trkpt>
      <trkpt lat="46.94071" lon="8.70785">
        <ele>1669</ele>
        <time>2021-08-06T11:53:24.393Z</time>
      </trkpt>
      <trkpt lat="46.94072" lon="8.70785">
        <ele>1670</ele>
        <time>2021-08-06T11:53:25.392Z</time>
      </trkpt>
      <trkpt lat="46.94072" lon="8.70786">
        <ele>1670</ele>
        <time>2021-08-06T11:53:26.392Z</time>
      </trkpt>
      <trkpt lat="46.94072" lon="8.70786">
        <ele>1670</ele>
        <time>2021-08-06T11:53:27.393Z</time>
      </trkpt>
      <trkpt lat="46.94072" lon="8.70787">
        <ele>1670</ele>
        <time>2021-08-06T11:53:28.392Z</time>
      </trkpt>
      <trkpt lat="46.94072" lon="8.70787">
        <ele>1670</ele>
        <time>2021-08-06T11:53:29.393Z</time>
      </trkpt>
      <trkpt lat="46.94073" lon="8.70787">
        <ele>1670</ele>
        <time>2021-08-06T11:53:30.392Z</time>
      </trkpt>
      <trkpt lat="46.94073" lon="8.70787">
        <ele>1671</ele>
        <time>2021-08-06T11:53:31.393Z</time>
      </trkpt>
      <trkpt lat="46.94073" lon="8.70788">
        <ele>1672</ele>
        <time>2021-08-06T11:53:32.394Z</time>
      </trkpt>
      <trkpt lat="46.94072" lon="8.70788">
        <ele>1673</ele>
        <time>2021-08-06T11:53:33.393Z</time>
      </trkpt>
      <trkpt lat="46.94071" lon="8.70786">
        <ele>1681</ele>
        <time>2021-08-06T11:53:34.394Z</time>
      </trkpt>
      <trkpt lat="46.94071" lon="8.70785">
        <ele>1681</ele>
        <time>2021-08-06T11:53:35.394Z</time>
      </trkpt>
      <trkpt lat="46.94071" lon="8.70785">
        <ele>1680</ele>
        <time>2021-08-06T11:53:36.393Z</time>
      </trkpt>
      <trkpt lat="46.94068" lon="8.70788">
        <ele>1671</ele>
        <time>2021-08-06T11:53:37.393Z</time>
      </trkpt>
      <trkpt lat="46.94068" lon="8.70788">
        <ele>1671</ele>
        <time>2021-08-06T11:53:38.393Z</time>
      </trkpt>
      <trkpt lat="46.94068" lon="8.70788">
        <ele>1672</ele>
        <time>2021-08-06T11:53:39.394Z</time>
      </trkpt>
      <trkpt lat="46.94069" lon="8.70785">
        <ele>1678</ele>
        <time>2021-08-06T11:53:40.394Z</time>
      </trkpt>
      <trkpt lat="46.94069" lon="8.70786">
        <ele>1677</ele>
        <time>2021-08-06T11:53:41.394Z</time>
      </trkpt>
      <trkpt lat="46.9407" lon="8.70781">
        <ele>1675</ele>
        <time>2021-08-06T11:53:42.395Z</time>
      </trkpt>
      <trkpt lat="46.9407" lon="8.7078">
        <ele>1675</ele>
        <time>2021-08-06T11:53:43.394Z</time>
      </trkpt>
      <trkpt lat="46.94069" lon="8.7078">
        <ele>1674</ele>
        <time>2021-08-06T11:53:44.395Z</time>
      </trkpt>
      <trkpt lat="46.94069" lon="8.70779">
        <ele>1674</ele>
        <time>2021-08-06T11:53:45.394Z</time>
      </trkpt>
      <trkpt lat="46.94069" lon="8.70778">
        <ele>1674</ele>
        <time>2021-08-06T11:53:46.394Z</time>
      </trkpt>
      <trkpt lat="46.94069" lon="8.70777">
        <ele>1673</ele>
        <time>2021-08-06T11:53:47.394Z</time>
      </trkpt>
      <trkpt lat="46.94069" lon="8.70776">
        <ele>1673</ele>
        <time>2021-08-06T11:53:48.394Z</time>
      </trkpt>
      <trkpt lat="46.94069" lon="8.70775">
        <ele>1673</ele>
        <time>2021-08-06T11:53:49.394Z</time>
      </trkpt>
      <trkpt lat="46.94068" lon="8.70774">
        <ele>1672</ele>
        <time>2021-08-06T11:53:50.395Z</time>
      </trkpt>
      <trkpt lat="46.94068" lon="8.70773">
        <ele>1672</ele>
        <time>2021-08-06T11:53:51.395Z</time>
      </trkpt>
      <trkpt lat="46.94068" lon="8.70772">
        <ele>1671</ele>
        <time>2021-08-06T11:53:52.394Z</time>
      </trkpt>
      <trkpt lat="46.94067" lon="8.70771">
        <ele>1671</ele>
        <time>2021-08-06T11:53:53.394Z</time>
      </trkpt>
      <trkpt lat="46.94066" lon="8.7077">
        <ele>1671</ele>
        <time>2021-08-06T11:53:54.394Z</time>
      </trkpt>
      <trkpt lat="46.94066" lon="8.70768">
        <ele>1670</ele>
        <time>2021-08-06T11:53:55.394Z</time>
      </trkpt>
      <trkpt lat="46.94066" lon="8.70768">
        <ele>1669</ele>
        <time>2021-08-06T11:53:56.394Z</time>
      </trkpt>
      <trkpt lat="46.94065" lon="8.70766">
        <ele>1668</ele>
        <time>2021-08-06T11:53:57.394Z</time>
      </trkpt>
      <trkpt lat="46.94065" lon="8.70765">
        <ele>1668</ele>
        <time>2021-08-06T11:53:58.394Z</time>
      </trkpt>
      <trkpt lat="46.94064" lon="8.70763">
        <ele>1668</ele>
        <time>2021-08-06T11:53:59.395Z</time>
      </trkpt>
      <trkpt lat="46.94064" lon="8.70762">
        <ele>1668</ele>
        <time>2021-08-06T11:54:00.395Z</time>
      </trkpt>
      <trkpt lat="46.94063" lon="8.70761">
        <ele>1668</ele>
        <time>2021-08-06T11:54:01.394Z</time>
      </trkpt>
      <trkpt lat="46.94062" lon="8.7076">
        <ele>1668</ele>
        <time>2021-08-06T11:54:02.394Z</time>
      </trkpt>
      <trkpt lat="46.94062" lon="8.70759">
        <ele>1668</ele>
        <time>2021-08-06T11:54:03.394Z</time>
      </trkpt>
      <trkpt lat="46.94061" lon="8.70758">
        <ele>1668</ele>
        <time>2021-08-06T11:54:04.394Z</time>
      </trkpt>
      <trkpt lat="46.94061" lon="8.70757">
        <ele>1667</ele>
        <time>2021-08-06T11:54:05.394Z</time>
      </trkpt>
      <trkpt lat="46.9406" lon="8.70755">
        <ele>1667</ele>
        <time>2021-08-06T11:54:06.394Z</time>
      </trkpt>
      <trkpt lat="46.94059" lon="8.70754">
        <ele>1667</ele>
        <time>2021-08-06T11:54:07.394Z</time>
      </trkpt>
      <trkpt lat="46.94059" lon="8.70754">
        <ele>1667</ele>
        <time>2021-08-06T11:54:08.394Z</time>
      </trkpt>
      <trkpt lat="46.94058" lon="8.70753">
        <ele>1667</ele>
        <time>2021-08-06T11:54:09.394Z</time>
      </trkpt>
      <trkpt lat="46.94057" lon="8.70752">
        <ele>1667</ele>
        <time>2021-08-06T11:54:10.394Z</time>
      </trkpt>
      <trkpt lat="46.94057" lon="8.70751">
        <ele>1667</ele>
        <time>2021-08-06T11:54:11.394Z</time>
      </trkpt>
      <trkpt lat="46.94056" lon="8.7075">
        <ele>1667</ele>
        <time>2021-08-06T11:54:12.395Z</time>
      </trkpt>
      <trkpt lat="46.94056" lon="8.70749">
        <ele>1667</ele>
        <time>2021-08-06T11:54:13.394Z</time>
      </trkpt>
      <trkpt lat="46.94056" lon="8.70748">
        <ele>1667</ele>
        <time>2021-08-06T11:54:14.394Z</time>
      </trkpt>
      <trkpt lat="46.94055" lon="8.70748">
        <ele>1667</ele>
        <time>2021-08-06T11:54:15.394Z</time>
      </trkpt>
      <trkpt lat="46.94054" lon="8.70747">
        <ele>1667</ele>
        <time>2021-08-06T11:54:16.395Z</time>
      </trkpt>
      <trkpt lat="46.94054" lon="8.70747">
        <ele>1667</ele>
        <time>2021-08-06T11:54:17.394Z</time>
      </trkpt>
      <trkpt lat="46.94053" lon="8.70746">
        <ele>1667</ele>
        <time>2021-08-06T11:54:18.394Z</time>
      </trkpt>
      <trkpt lat="46.94053" lon="8.70745">
        <ele>1667</ele>
        <time>2021-08-06T11:54:19.395Z</time>
      </trkpt>
      <trkpt lat="46.94052" lon="8.70745">
        <ele>1667</ele>
        <time>2021-08-06T11:54:20.395Z</time>
      </trkpt>
      <trkpt lat="46.94052" lon="8.70744">
        <ele>1667</ele>
        <time>2021-08-06T11:54:21.394Z</time>
      </trkpt>
      <trkpt lat="46.94051" lon="8.70744">
        <ele>1667</ele>
        <time>2021-08-06T11:54:22.395Z</time>
      </trkpt>
      <trkpt lat="46.94051" lon="8.70743">
        <ele>1667</ele>
        <time>2021-08-06T11:54:23.394Z</time>
      </trkpt>
      <trkpt lat="46.9405" lon="8.70742">
        <ele>1667</ele>
        <time>2021-08-06T11:54:24.394Z</time>
      </trkpt>
      <trkpt lat="46.94049" lon="8.70741">
        <ele>1667</ele>
        <time>2021-08-06T11:54:25.394Z</time>
      </trkpt>
      <trkpt lat="46.94049" lon="8.7074">
        <ele>1667</ele>
        <time>2021-08-06T11:54:26.394Z</time>
      </trkpt>
      <trkpt lat="46.94048" lon="8.70739">
        <ele>1668</ele>
        <time>2021-08-06T11:54:27.394Z</time>
      </trkpt>
      <trkpt lat="46.94048" lon="8.70738">
        <ele>1668</ele>
        <time>2021-08-06T11:54:28.394Z</time>
      </trkpt>
      <trkpt lat="46.94047" lon="8.70738">
        <ele>1668</ele>
        <time>2021-08-06T11:54:29.394Z</time>
      </trkpt>
      <trkpt lat="46.94047" lon="8.70738">
        <ele>1669</ele>
        <time>2021-08-06T11:54:30.394Z</time>
      </trkpt>
      <trkpt lat="46.94046" lon="8.70737">
        <ele>1669</ele>
        <time>2021-08-06T11:54:31.394Z</time>
      </trkpt>
      <trkpt lat="46.94046" lon="8.70736">
        <ele>1669</ele>
        <time>2021-08-06T11:54:32.395Z</time>
      </trkpt>
      <trkpt lat="46.94045" lon="8.70735">
        <ele>1669</ele>
        <time>2021-08-06T11:54:33.394Z</time>
      </trkpt>
      <trkpt lat="46.94045" lon="8.70735">
        <ele>1669</ele>
        <time>2021-08-06T11:54:34.394Z</time>
      </trkpt>
      <trkpt lat="46.94044" lon="8.70734">
        <ele>1669</ele>
        <time>2021-08-06T11:54:35.394Z</time>
      </trkpt>
      <trkpt lat="46.94043" lon="8.70733">
        <ele>1670</ele>
        <time>2021-08-06T11:54:36.395Z</time>
      </trkpt>
      <trkpt lat="46.94043" lon="8.70733">
        <ele>1669</ele>
        <time>2021-08-06T11:54:37.394Z</time>
      </trkpt>
      <trkpt lat="46.94042" lon="8.70732">
        <ele>1669</ele>
        <time>2021-08-06T11:54:38.395Z</time>
      </trkpt>
      <trkpt lat="46.94042" lon="8.70731">
        <ele>1669</ele>
        <time>2021-08-06T11:54:39.395Z</time>
      </trkpt>
      <trkpt lat="46.94041" lon="8.7073">
        <ele>1669</ele>
        <time>2021-08-06T11:54:40.395Z</time>
      </trkpt>
      <trkpt lat="46.94041" lon="8.70728">
        <ele>1669</ele>
        <time>2021-08-06T11:54:41.394Z</time>
      </trkpt>
      <trkpt lat="46.94041" lon="8.70727">
        <ele>1668</ele>
        <time>2021-08-06T11:54:42.394Z</time>
      </trkpt>
      <trkpt lat="46.9404" lon="8.70726">
        <ele>1668</ele>
        <time>2021-08-06T11:54:43.394Z</time>
      </trkpt>
      <trkpt lat="46.9404" lon="8.70725">
        <ele>1668</ele>
        <time>2021-08-06T11:54:44.395Z</time>
      </trkpt>
      <trkpt lat="46.9404" lon="8.70724">
        <ele>1669</ele>
        <time>2021-08-06T11:54:45.394Z</time>
      </trkpt>
      <trkpt lat="46.94039" lon="8.70723">
        <ele>1670</ele>
        <time>2021-08-06T11:54:46.394Z</time>
      </trkpt>
      <trkpt lat="46.94039" lon="8.70722">
        <ele>1670</ele>
        <time>2021-08-06T11:54:47.394Z</time>
      </trkpt>
      <trkpt lat="46.94039" lon="8.70721">
        <ele>1670</ele>
        <time>2021-08-06T11:54:48.394Z</time>
      </trkpt>
      <trkpt lat="46.94039" lon="8.70719">
        <ele>1671</ele>
        <time>2021-08-06T11:54:49.395Z</time>
      </trkpt>
      <trkpt lat="46.94039" lon="8.70717">
        <ele>1670</ele>
        <time>2021-08-06T11:54:50.394Z</time>
      </trkpt>
      <trkpt lat="46.94039" lon="8.70715">
        <ele>1671</ele>
        <time>2021-08-06T11:54:51.394Z</time>
      </trkpt>
      <trkpt lat="46.94039" lon="8.70714">
        <ele>1671</ele>
        <time>2021-08-06T11:54:52.394Z</time>
      </trkpt>
      <trkpt lat="46.94039" lon="8.70712">
        <ele>1671</ele>
        <time>2021-08-06T11:54:53.395Z</time>
      </trkpt>
      <trkpt lat="46.94039" lon="8.70711">
        <ele>1671</ele>
        <time>2021-08-06T11:54:54.394Z</time>
      </trkpt>
      <trkpt lat="46.94039" lon="8.7071">
        <ele>1671</ele>
        <time>2021-08-06T11:54:55.394Z</time>
      </trkpt>
      <trkpt lat="46.9404" lon="8.70708">
        <ele>1671</ele>
        <time>2021-08-06T11:54:56.394Z</time>
      </trkpt>
      <trkpt lat="46.9404" lon="8.70706">
        <ele>1671</ele>
        <time>2021-08-06T11:54:57.395Z</time>
      </trkpt>
      <trkpt lat="46.9404" lon="8.70705">
        <ele>1672</ele>
        <time>2021-08-06T11:54:58.394Z</time>
      </trkpt>
      <trkpt lat="46.9404" lon="8.70703">
        <ele>1672</ele>
        <time>2021-08-06T11:54:59.395Z</time>
      </trkpt>
      <trkpt lat="46.94041" lon="8.70702">
        <ele>1672</ele>
        <time>2021-08-06T11:55:00.395Z</time>
      </trkpt>
      <trkpt lat="46.94041" lon="8.70701">
        <ele>1672</ele>
        <time>2021-08-06T11:55:01.394Z</time>
      </trkpt>
      <trkpt lat="46.94041" lon="8.70699">
        <ele>1673</ele>
        <time>2021-08-06T11:55:02.394Z</time>
      </trkpt>
      <trkpt lat="46.94041" lon="8.70698">
        <ele>1673</ele>
        <time>2021-08-06T11:55:03.394Z</time>
      </trkpt>
      <trkpt lat="46.9404" lon="8.70697">
        <ele>1672</ele>
        <time>2021-08-06T11:55:04.395Z</time>
      </trkpt>
      <trkpt lat="46.9404" lon="8.70696">
        <ele>1673</ele>
        <time>2021-08-06T11:55:05.394Z</time>
      </trkpt>
      <trkpt lat="46.9404" lon="8.70694">
        <ele>1673</ele>
        <time>2021-08-06T11:55:06.395Z</time>
      </trkpt>
      <trkpt lat="46.9404" lon="8.70693">
        <ele>1673</ele>
        <time>2021-08-06T11:55:07.394Z</time>
      </trkpt>
      <trkpt lat="46.9404" lon="8.70691">
        <ele>1673</ele>
        <time>2021-08-06T11:55:08.394Z</time>
      </trkpt>
      <trkpt lat="46.9404" lon="8.7069">
        <ele>1673</ele>
        <time>2021-08-06T11:55:09.394Z</time>
      </trkpt>
      <trkpt lat="46.94039" lon="8.70689">
        <ele>1673</ele>
        <time>2021-08-06T11:55:10.394Z</time>
      </trkpt>
      <trkpt lat="46.94039" lon="8.70687">
        <ele>1673</ele>
        <time>2021-08-06T11:55:11.394Z</time>
      </trkpt>
      <trkpt lat="46.94039" lon="8.70686">
        <ele>1673</ele>
        <time>2021-08-06T11:55:12.394Z</time>
      </trkpt>
      <trkpt lat="46.94039" lon="8.70684">
        <ele>1673</ele>
        <time>2021-08-06T11:55:13.395Z</time>
      </trkpt>
      <trkpt lat="46.94039" lon="8.70682">
        <ele>1673</ele>
        <time>2021-08-06T11:55:14.394Z</time>
      </trkpt>
      <trkpt lat="46.94038" lon="8.70681">
        <ele>1673</ele>
        <time>2021-08-06T11:55:15.394Z</time>
      </trkpt>
      <trkpt lat="46.94038" lon="8.70679">
        <ele>1672</ele>
        <time>2021-08-06T11:55:16.395Z</time>
      </trkpt>
      <trkpt lat="46.94037" lon="8.70678">
        <ele>1672</ele>
        <time>2021-08-06T11:55:17.394Z</time>
      </trkpt>
      <trkpt lat="46.94036" lon="8.70677">
        <ele>1672</ele>
        <time>2021-08-06T11:55:18.394Z</time>
      </trkpt>
      <trkpt lat="46.94036" lon="8.70676">
        <ele>1672</ele>
        <time>2021-08-06T11:55:19.395Z</time>
      </trkpt>
      <trkpt lat="46.94035" lon="8.70675">
        <ele>1672</ele>
        <time>2021-08-06T11:55:20.394Z</time>
      </trkpt>
      <trkpt lat="46.94034" lon="8.70674">
        <ele>1672</ele>
        <time>2021-08-06T11:55:21.395Z</time>
      </trkpt>
      <trkpt lat="46.94033" lon="8.70673">
        <ele>1671</ele>
        <time>2021-08-06T11:55:22.394Z</time>
      </trkpt>
      <trkpt lat="46.94032" lon="8.70672">
        <ele>1671</ele>
        <time>2021-08-06T11:55:23.394Z</time>
      </trkpt>
      <trkpt lat="46.94031" lon="8.70671">
        <ele>1671</ele>
        <time>2021-08-06T11:55:24.394Z</time>
      </trkpt>
      <trkpt lat="46.9403" lon="8.7067">
        <ele>1670</ele>
        <time>2021-08-06T11:55:25.394Z</time>
      </trkpt>
      <trkpt lat="46.94029" lon="8.70669">
        <ele>1670</ele>
        <time>2021-08-06T11:55:26.394Z</time>
      </trkpt>
      <trkpt lat="46.94029" lon="8.70667">
        <ele>1670</ele>
        <time>2021-08-06T11:55:27.394Z</time>
      </trkpt>
      <trkpt lat="46.94028" lon="8.70666">
        <ele>1670</ele>
        <time>2021-08-06T11:55:28.394Z</time>
      </trkpt>
      <trkpt lat="46.94027" lon="8.70665">
        <ele>1669</ele>
        <time>2021-08-06T11:55:29.394Z</time>
      </trkpt>
      <trkpt lat="46.94026" lon="8.70664">
        <ele>1669</ele>
        <time>2021-08-06T11:55:30.395Z</time>
      </trkpt>
      <trkpt lat="46.94026" lon="8.70663">
        <ele>1669</ele>
        <time>2021-08-06T11:55:31.394Z</time>
      </trkpt>
      <trkpt lat="46.94025" lon="8.70661">
        <ele>1668</ele>
        <time>2021-08-06T11:55:32.395Z</time>
      </trkpt>
      <trkpt lat="46.94024" lon="8.7066">
        <ele>1668</ele>
        <time>2021-08-06T11:55:33.394Z</time>
      </trkpt>
      <trkpt lat="46.94024" lon="8.70659">
        <ele>1668</ele>
        <time>2021-08-06T11:55:34.394Z</time>
      </trkpt>
      <trkpt lat="46.94023" lon="8.70657">
        <ele>1667</ele>
        <time>2021-08-06T11:55:35.394Z</time>
      </trkpt>
      <trkpt lat="46.94023" lon="8.70656">
        <ele>1667</ele>
        <time>2021-08-06T11:55:36.394Z</time>
      </trkpt>
      <trkpt lat="46.94022" lon="8.70654">
        <ele>1667</ele>
        <time>2021-08-06T11:55:37.394Z</time>
      </trkpt>
      <trkpt lat="46.94022" lon="8.70653">
        <ele>1666</ele>
        <time>2021-08-06T11:55:38.394Z</time>
      </trkpt>
      <trkpt lat="46.94021" lon="8.70651">
        <ele>1666</ele>
        <time>2021-08-06T11:55:39.394Z</time>
      </trkpt>
      <trkpt lat="46.9402" lon="8.7065">
        <ele>1665</ele>
        <time>2021-08-06T11:55:40.394Z</time>
      </trkpt>
      <trkpt lat="46.94019" lon="8.70649">
        <ele>1665</ele>
        <time>2021-08-06T11:55:41.394Z</time>
      </trkpt>
      <trkpt lat="46.94018" lon="8.70647">
        <ele>1665</ele>
        <time>2021-08-06T11:55:42.394Z</time>
      </trkpt>
      <trkpt lat="46.94017" lon="8.70646">
        <ele>1665</ele>
        <time>2021-08-06T11:55:43.394Z</time>
      </trkpt>
      <trkpt lat="46.94016" lon="8.70645">
        <ele>1665</ele>
        <time>2021-08-06T11:55:44.394Z</time>
      </trkpt>
      <trkpt lat="46.94015" lon="8.70645">
        <ele>1665</ele>
        <time>2021-08-06T11:55:45.394Z</time>
      </trkpt>
      <trkpt lat="46.94014" lon="8.70644">
        <ele>1665</ele>
        <time>2021-08-06T11:55:46.394Z</time>
      </trkpt>
      <trkpt lat="46.94013" lon="8.70644">
        <ele>1666</ele>
        <time>2021-08-06T11:55:47.394Z</time>
      </trkpt>
      <trkpt lat="46.94012" lon="8.70643">
        <ele>1666</ele>
        <time>2021-08-06T11:55:48.394Z</time>
      </trkpt>
      <trkpt lat="46.94011" lon="8.70642">
        <ele>1666</ele>
        <time>2021-08-06T11:55:49.395Z</time>
      </trkpt>
      <trkpt lat="46.9401" lon="8.70641">
        <ele>1667</ele>
        <time>2021-08-06T11:55:50.395Z</time>
      </trkpt>
      <trkpt lat="46.94009" lon="8.7064">
        <ele>1667</ele>
        <time>2021-08-06T11:55:51.394Z</time>
      </trkpt>
      <trkpt lat="46.94008" lon="8.7064">
        <ele>1666</ele>
        <time>2021-08-06T11:55:52.394Z</time>
      </trkpt>
      <trkpt lat="46.94007" lon="8.70639">
        <ele>1666</ele>
        <time>2021-08-06T11:55:53.394Z</time>
      </trkpt>
      <trkpt lat="46.94006" lon="8.70638">
        <ele>1665</ele>
        <time>2021-08-06T11:55:54.394Z</time>
      </trkpt>
      <trkpt lat="46.94005" lon="8.70638">
        <ele>1665</ele>
        <time>2021-08-06T11:55:55.394Z</time>
      </trkpt>
      <trkpt lat="46.94004" lon="8.70637">
        <ele>1665</ele>
        <time>2021-08-06T11:55:56.394Z</time>
      </trkpt>
      <trkpt lat="46.94003" lon="8.70636">
        <ele>1665</ele>
        <time>2021-08-06T11:55:57.394Z</time>
      </trkpt>
      <trkpt lat="46.94002" lon="8.70636">
        <ele>1665</ele>
        <time>2021-08-06T11:55:58.394Z</time>
      </trkpt>
      <trkpt lat="46.94002" lon="8.70636">
        <ele>1665</ele>
        <time>2021-08-06T11:55:59.395Z</time>
      </trkpt>
      <trkpt lat="46.94001" lon="8.70635">
        <ele>1665</ele>
        <time>2021-08-06T11:56:00.394Z</time>
      </trkpt>
      <trkpt lat="46.94" lon="8.70635">
        <ele>1665</ele>
        <time>2021-08-06T11:56:01.394Z</time>
      </trkpt>
      <trkpt lat="46.93999" lon="8.70634">
        <ele>1665</ele>
        <time>2021-08-06T11:56:02.394Z</time>
      </trkpt>
      <trkpt lat="46.93998" lon="8.70633">
        <ele>1665</ele>
        <time>2021-08-06T11:56:03.394Z</time>
      </trkpt>
      <trkpt lat="46.93998" lon="8.70632">
        <ele>1665</ele>
        <time>2021-08-06T11:56:04.394Z</time>
      </trkpt>
      <trkpt lat="46.93997" lon="8.70631">
        <ele>1665</ele>
        <time>2021-08-06T11:56:05.394Z</time>
      </trkpt>
      <trkpt lat="46.93996" lon="8.70631">
        <ele>1665</ele>
        <time>2021-08-06T11:56:06.394Z</time>
      </trkpt>
      <trkpt lat="46.93995" lon="8.7063">
        <ele>1665</ele>
        <time>2021-08-06T11:56:07.394Z</time>
      </trkpt>
      <trkpt lat="46.93995" lon="8.70629">
        <ele>1665</ele>
        <time>2021-08-06T11:56:08.395Z</time>
      </trkpt>
      <trkpt lat="46.93994" lon="8.70629">
        <ele>1665</ele>
        <time>2021-08-06T11:56:09.395Z</time>
      </trkpt>
      <trkpt lat="46.93994" lon="8.70628">
        <ele>1666</ele>
        <time>2021-08-06T11:56:10.394Z</time>
      </trkpt>
      <trkpt lat="46.93993" lon="8.70628">
        <ele>1666</ele>
        <time>2021-08-06T11:56:11.394Z</time>
      </trkpt>
      <trkpt lat="46.93993" lon="8.70627">
        <ele>1666</ele>
        <time>2021-08-06T11:56:12.394Z</time>
      </trkpt>
      <trkpt lat="46.93992" lon="8.70626">
        <ele>1666</ele>
        <time>2021-08-06T11:56:13.394Z</time>
      </trkpt>
      <trkpt lat="46.93992" lon="8.70625">
        <ele>1666</ele>
        <time>2021-08-06T11:56:14.395Z</time>
      </trkpt>
      <trkpt lat="46.93992" lon="8.70624">
        <ele>1667</ele>
        <time>2021-08-06T11:56:19.508Z</time>
      </trkpt>
      <trkpt lat="46.93992" lon="8.70624">
        <ele>1667</ele>
        <time>2021-08-06T11:56:20.508Z</time>
      </trkpt>
      <trkpt lat="46.93992" lon="8.70623">
        <ele>1667</ele>
        <time>2021-08-06T11:56:21.509Z</time>
      </trkpt>
      <trkpt lat="46.93993" lon="8.70622">
        <ele>1667</ele>
        <time>2021-08-06T11:56:22.508Z</time>
      </trkpt>
      <trkpt lat="46.93993" lon="8.70621">
        <ele>1668</ele>
        <time>2021-08-06T11:56:23.508Z</time>
      </trkpt>
      <trkpt lat="46.93994" lon="8.7062">
        <ele>1668</ele>
        <time>2021-08-06T11:56:24.508Z</time>
      </trkpt>
      <trkpt lat="46.93994" lon="8.70618">
        <ele>1668</ele>
        <time>2021-08-06T11:56:25.508Z</time>
      </trkpt>
      <trkpt lat="46.93994" lon="8.70617">
        <ele>1669</ele>
        <time>2021-08-06T11:56:26.508Z</time>
      </trkpt>
      <trkpt lat="46.93994" lon="8.70616">
        <ele>1669</ele>
        <time>2021-08-06T11:56:27.508Z</time>
      </trkpt>
      <trkpt lat="46.93994" lon="8.70614">
        <ele>1669</ele>
        <time>2021-08-06T11:56:28.509Z</time>
      </trkpt>
      <trkpt lat="46.93994" lon="8.70613">
        <ele>1669</ele>
        <time>2021-08-06T11:56:29.509Z</time>
      </trkpt>
      <trkpt lat="46.93993" lon="8.70611">
        <ele>1669</ele>
        <time>2021-08-06T11:56:30.509Z</time>
      </trkpt>
      <trkpt lat="46.93992" lon="8.7061">
        <ele>1669</ele>
        <time>2021-08-06T11:56:31.508Z</time>
      </trkpt>
      <trkpt lat="46.93991" lon="8.70609">
        <ele>1669</ele>
        <time>2021-08-06T11:56:32.508Z</time>
      </trkpt>
      <trkpt lat="46.93991" lon="8.70608">
        <ele>1669</ele>
        <time>2021-08-06T11:56:33.508Z</time>
      </trkpt>
      <trkpt lat="46.9399" lon="8.70607">
        <ele>1669</ele>
        <time>2021-08-06T11:56:34.508Z</time>
      </trkpt>
      <trkpt lat="46.9399" lon="8.70606">
        <ele>1669</ele>
        <time>2021-08-06T11:56:35.508Z</time>
      </trkpt>
      <trkpt lat="46.93989" lon="8.70606">
        <ele>1669</ele>
        <time>2021-08-06T11:56:36.509Z</time>
      </trkpt>
      <trkpt lat="46.93988" lon="8.70605">
        <ele>1669</ele>
        <time>2021-08-06T11:56:37.508Z</time>
      </trkpt>
      <trkpt lat="46.93988" lon="8.70605">
        <ele>1669</ele>
        <time>2021-08-06T11:56:38.508Z</time>
      </trkpt>
      <trkpt lat="46.93987" lon="8.70604">
        <ele>1669</ele>
        <time>2021-08-06T11:56:39.508Z</time>
      </trkpt>
      <trkpt lat="46.93987" lon="8.70603">
        <ele>1669</ele>
        <time>2021-08-06T11:56:40.509Z</time>
      </trkpt>
      <trkpt lat="46.93987" lon="8.70602">
        <ele>1669</ele>
        <time>2021-08-06T11:56:41.508Z</time>
      </trkpt>
      <trkpt lat="46.93986" lon="8.70601">
        <ele>1669</ele>
        <time>2021-08-06T11:56:42.508Z</time>
      </trkpt>
      <trkpt lat="46.93986" lon="8.706">
        <ele>1669</ele>
        <time>2021-08-06T11:56:43.508Z</time>
      </trkpt>
      <trkpt lat="46.93986" lon="8.70599">
        <ele>1669</ele>
        <time>2021-08-06T11:56:44.509Z</time>
      </trkpt>
      <trkpt lat="46.93985" lon="8.70598">
        <ele>1669</ele>
        <time>2021-08-06T11:56:45.508Z</time>
      </trkpt>
      <trkpt lat="46.93984" lon="8.70597">
        <ele>1669</ele>
        <time>2021-08-06T11:56:46.508Z</time>
      </trkpt>
      <trkpt lat="46.93984" lon="8.70597">
        <ele>1669</ele>
        <time>2021-08-06T11:56:47.508Z</time>
      </trkpt>
      <trkpt lat="46.93983" lon="8.70596">
        <ele>1669</ele>
        <time>2021-08-06T11:56:48.508Z</time>
      </trkpt>
      <trkpt lat="46.93983" lon="8.70596">
        <ele>1669</ele>
        <time>2021-08-06T11:56:49.509Z</time>
      </trkpt>
      <trkpt lat="46.93982" lon="8.70595">
        <ele>1669</ele>
        <time>2021-08-06T11:56:50.508Z</time>
      </trkpt>
      <trkpt lat="46.93982" lon="8.70594">
        <ele>1669</ele>
        <time>2021-08-06T11:56:51.508Z</time>
      </trkpt>
      <trkpt lat="46.93981" lon="8.70593">
        <ele>1669</ele>
        <time>2021-08-06T11:56:52.509Z</time>
      </trkpt>
      <trkpt lat="46.93981" lon="8.70592">
        <ele>1669</ele>
        <time>2021-08-06T11:56:53.508Z</time>
      </trkpt>
      <trkpt lat="46.9398" lon="8.70591">
        <ele>1670</ele>
        <time>2021-08-06T11:56:54.508Z</time>
      </trkpt>
      <trkpt lat="46.9398" lon="8.7059">
        <ele>1670</ele>
        <time>2021-08-06T11:56:55.508Z</time>
      </trkpt>
      <trkpt lat="46.93979" lon="8.70589">
        <ele>1670</ele>
        <time>2021-08-06T11:56:56.508Z</time>
      </trkpt>
      <trkpt lat="46.93978" lon="8.70588">
        <ele>1670</ele>
        <time>2021-08-06T11:56:57.508Z</time>
      </trkpt>
      <trkpt lat="46.93978" lon="8.70587">
        <ele>1670</ele>
        <time>2021-08-06T11:56:58.508Z</time>
      </trkpt>
      <trkpt lat="46.93977" lon="8.70587">
        <ele>1670</ele>
        <time>2021-08-06T11:56:59.508Z</time>
      </trkpt>
      <trkpt lat="46.93976" lon="8.70587">
        <ele>1670</ele>
        <time>2021-08-06T11:57:00.508Z</time>
      </trkpt>
      <trkpt lat="46.93976" lon="8.70586">
        <ele>1671</ele>
        <time>2021-08-06T11:57:01.508Z</time>
      </trkpt>
      <trkpt lat="46.93975" lon="8.70586">
        <ele>1671</ele>
        <time>2021-08-06T11:57:02.509Z</time>
      </trkpt>
      <trkpt lat="46.93974" lon="8.70586">
        <ele>1671</ele>
        <time>2021-08-06T11:57:03.508Z</time>
      </trkpt>
      <trkpt lat="46.93973" lon="8.70586">
        <ele>1671</ele>
        <time>2021-08-06T11:57:04.508Z</time>
      </trkpt>
      <trkpt lat="46.93973" lon="8.70587">
        <ele>1671</ele>
        <time>2021-08-06T11:57:05.508Z</time>
      </trkpt>
      <trkpt lat="46.93972" lon="8.70586">
        <ele>1671</ele>
        <time>2021-08-06T11:57:06.509Z</time>
      </trkpt>
      <trkpt lat="46.93972" lon="8.70586">
        <ele>1671</ele>
        <time>2021-08-06T11:57:07.508Z</time>
      </trkpt>
      <trkpt lat="46.93971" lon="8.70586">
        <ele>1670</ele>
        <time>2021-08-06T11:57:08.508Z</time>
      </trkpt>
      <trkpt lat="46.93971" lon="8.70586">
        <ele>1670</ele>
        <time>2021-08-06T11:57:09.509Z</time>
      </trkpt>
      <trkpt lat="46.9397" lon="8.70585">
        <ele>1670</ele>
        <time>2021-08-06T11:57:10.508Z</time>
      </trkpt>
      <trkpt lat="46.9397" lon="8.70585">
        <ele>1670</ele>
        <time>2021-08-06T11:57:11.508Z</time>
      </trkpt>
      <trkpt lat="46.93969" lon="8.70584">
        <ele>1670</ele>
        <time>2021-08-06T11:57:12.509Z</time>
      </trkpt>
      <trkpt lat="46.93969" lon="8.70583">
        <ele>1670</ele>
        <time>2021-08-06T11:57:13.508Z</time>
      </trkpt>
      <trkpt lat="46.93968" lon="8.70583">
        <ele>1671</ele>
        <time>2021-08-06T11:57:14.508Z</time>
      </trkpt>
      <trkpt lat="46.93968" lon="8.70582">
        <ele>1671</ele>
        <time>2021-08-06T11:57:15.508Z</time>
      </trkpt>
      <trkpt lat="46.93967" lon="8.70581">
        <ele>1671</ele>
        <time>2021-08-06T11:57:16.508Z</time>
      </trkpt>
      <trkpt lat="46.93967" lon="8.7058">
        <ele>1671</ele>
        <time>2021-08-06T11:57:17.509Z</time>
      </trkpt>
      <trkpt lat="46.93967" lon="8.7058">
        <ele>1672</ele>
        <time>2021-08-06T11:57:18.508Z</time>
      </trkpt>
      <trkpt lat="46.93966" lon="8.70579">
        <ele>1672</ele>
        <time>2021-08-06T11:57:19.508Z</time>
      </trkpt>
      <trkpt lat="46.93965" lon="8.70578">
        <ele>1672</ele>
        <time>2021-08-06T11:57:20.508Z</time>
      </trkpt>
      <trkpt lat="46.93965" lon="8.70577">
        <ele>1672</ele>
        <time>2021-08-06T11:57:21.508Z</time>
      </trkpt>
      <trkpt lat="46.93965" lon="8.70576">
        <ele>1672</ele>
        <time>2021-08-06T11:57:22.509Z</time>
      </trkpt>
      <trkpt lat="46.93964" lon="8.70575">
        <ele>1672</ele>
        <time>2021-08-06T11:57:23.508Z</time>
      </trkpt>
      <trkpt lat="46.93964" lon="8.70574">
        <ele>1673</ele>
        <time>2021-08-06T11:57:24.509Z</time>
      </trkpt>
      <trkpt lat="46.93964" lon="8.70573">
        <ele>1673</ele>
        <time>2021-08-06T11:57:25.509Z</time>
      </trkpt>
      <trkpt lat="46.93963" lon="8.70572">
        <ele>1674</ele>
        <time>2021-08-06T11:57:26.509Z</time>
      </trkpt>
      <trkpt lat="46.93963" lon="8.70571">
        <ele>1674</ele>
        <time>2021-08-06T11:57:27.508Z</time>
      </trkpt>
      <trkpt lat="46.93963" lon="8.70571">
        <ele>1674</ele>
        <time>2021-08-06T11:57:28.508Z</time>
      </trkpt>
      <trkpt lat="46.93962" lon="8.7057">
        <ele>1674</ele>
        <time>2021-08-06T11:57:29.508Z</time>
      </trkpt>
      <trkpt lat="46.93962" lon="8.70569">
        <ele>1674</ele>
        <time>2021-08-06T11:57:30.508Z</time>
      </trkpt>
      <trkpt lat="46.93961" lon="8.70568">
        <ele>1674</ele>
        <time>2021-08-06T11:57:31.508Z</time>
      </trkpt>
      <trkpt lat="46.93961" lon="8.70566">
        <ele>1674</ele>
        <time>2021-08-06T11:57:32.508Z</time>
      </trkpt>
      <trkpt lat="46.93961" lon="8.70566">
        <ele>1674</ele>
        <time>2021-08-06T11:57:33.509Z</time>
      </trkpt>
      <trkpt lat="46.9396" lon="8.70565">
        <ele>1674</ele>
        <time>2021-08-06T11:57:34.508Z</time>
      </trkpt>
      <trkpt lat="46.9396" lon="8.70564">
        <ele>1674</ele>
        <time>2021-08-06T11:57:35.508Z</time>
      </trkpt>
      <trkpt lat="46.9396" lon="8.70564">
        <ele>1674</ele>
        <time>2021-08-06T11:57:36.508Z</time>
      </trkpt>
      <trkpt lat="46.93959" lon="8.70564">
        <ele>1674</ele>
        <time>2021-08-06T11:57:37.508Z</time>
      </trkpt>
      <trkpt lat="46.93959" lon="8.70563">
        <ele>1675</ele>
        <time>2021-08-06T11:57:38.508Z</time>
      </trkpt>
      <trkpt lat="46.93959" lon="8.70563">
        <ele>1675</ele>
        <time>2021-08-06T11:57:39.508Z</time>
      </trkpt>
      <trkpt lat="46.93958" lon="8.70562">
        <ele>1675</ele>
        <time>2021-08-06T11:57:40.508Z</time>
      </trkpt>
      <trkpt lat="46.93958" lon="8.70561">
        <ele>1675</ele>
        <time>2021-08-06T11:57:41.509Z</time>
      </trkpt>
      <trkpt lat="46.93957" lon="8.7056">
        <ele>1674</ele>
        <time>2021-08-06T11:57:42.509Z</time>
      </trkpt>
      <trkpt lat="46.93956" lon="8.7056">
        <ele>1674</ele>
        <time>2021-08-06T11:57:43.508Z</time>
      </trkpt>
      <trkpt lat="46.93955" lon="8.7056">
        <ele>1674</ele>
        <time>2021-08-06T11:57:44.508Z</time>
      </trkpt>
      <trkpt lat="46.93955" lon="8.7056">
        <ele>1674</ele>
        <time>2021-08-06T11:57:45.509Z</time>
      </trkpt>
      <trkpt lat="46.93955" lon="8.7056">
        <ele>1674</ele>
        <time>2021-08-06T11:57:46.508Z</time>
      </trkpt>
      <trkpt lat="46.93954" lon="8.7056">
        <ele>1674</ele>
        <time>2021-08-06T11:57:47.508Z</time>
      </trkpt>
      <trkpt lat="46.93954" lon="8.7056">
        <ele>1674</ele>
        <time>2021-08-06T11:57:48.508Z</time>
      </trkpt>
      <trkpt lat="46.93953" lon="8.7056">
        <ele>1673</ele>
        <time>2021-08-06T11:57:49.508Z</time>
      </trkpt>
      <trkpt lat="46.93953" lon="8.7056">
        <ele>1673</ele>
        <time>2021-08-06T11:57:50.508Z</time>
      </trkpt>
      <trkpt lat="46.93953" lon="8.70561">
        <ele>1673</ele>
        <time>2021-08-06T11:57:51.509Z</time>
      </trkpt>
      <trkpt lat="46.93952" lon="8.70562">
        <ele>1672</ele>
        <time>2021-08-06T11:57:52.508Z</time>
      </trkpt>
      <trkpt lat="46.93952" lon="8.70563">
        <ele>1672</ele>
        <time>2021-08-06T11:57:53.508Z</time>
      </trkpt>
      <trkpt lat="46.93952" lon="8.70564">
        <ele>1672</ele>
        <time>2021-08-06T11:57:54.508Z</time>
      </trkpt>
      <trkpt lat="46.93951" lon="8.70564">
        <ele>1672</ele>
        <time>2021-08-06T11:57:55.509Z</time>
      </trkpt>
      <trkpt lat="46.93951" lon="8.70564">
        <ele>1672</ele>
        <time>2021-08-06T11:57:56.508Z</time>
      </trkpt>
      <trkpt lat="46.9395" lon="8.70564">
        <ele>1672</ele>
        <time>2021-08-06T11:57:57.509Z</time>
      </trkpt>
      <trkpt lat="46.9395" lon="8.70564">
        <ele>1672</ele>
        <time>2021-08-06T11:57:58.509Z</time>
      </trkpt>
      <trkpt lat="46.93949" lon="8.70564">
        <ele>1672</ele>
        <time>2021-08-06T11:57:59.509Z</time>
      </trkpt>
      <trkpt lat="46.93948" lon="8.70563">
        <ele>1672</ele>
        <time>2021-08-06T11:58:00.509Z</time>
      </trkpt>
      <trkpt lat="46.93948" lon="8.70563">
        <ele>1672</ele>
        <time>2021-08-06T11:58:01.508Z</time>
      </trkpt>
      <trkpt lat="46.93948" lon="8.70563">
        <ele>1672</ele>
        <time>2021-08-06T11:58:02.509Z</time>
      </trkpt>
      <trkpt lat="46.93947" lon="8.70564">
        <ele>1673</ele>
        <time>2021-08-06T11:58:03.508Z</time>
      </trkpt>
      <trkpt lat="46.93947" lon="8.70565">
        <ele>1673</ele>
        <time>2021-08-06T11:58:04.508Z</time>
      </trkpt>
      <trkpt lat="46.93947" lon="8.70566">
        <ele>1673</ele>
        <time>2021-08-06T11:58:05.508Z</time>
      </trkpt>
      <trkpt lat="46.93947" lon="8.70566">
        <ele>1674</ele>
        <time>2021-08-06T11:58:06.508Z</time>
      </trkpt>
      <trkpt lat="46.93946" lon="8.70566">
        <ele>1674</ele>
        <time>2021-08-06T11:58:07.508Z</time>
      </trkpt>
      <trkpt lat="46.93946" lon="8.70565">
        <ele>1674</ele>
        <time>2021-08-06T11:58:08.508Z</time>
      </trkpt>
      <trkpt lat="46.93946" lon="8.70565">
        <ele>1675</ele>
        <time>2021-08-06T11:58:09.509Z</time>
      </trkpt>
      <trkpt lat="46.93945" lon="8.70565">
        <ele>1675</ele>
        <time>2021-08-06T11:58:10.508Z</time>
      </trkpt>
      <trkpt lat="46.93945" lon="8.70565">
        <ele>1675</ele>
        <time>2021-08-06T11:58:11.509Z</time>
      </trkpt>
      <trkpt lat="46.93945" lon="8.70565">
        <ele>1676</ele>
        <time>2021-08-06T11:58:12.509Z</time>
      </trkpt>
      <trkpt lat="46.93945" lon="8.70566">
        <ele>1676</ele>
        <time>2021-08-06T11:58:13.509Z</time>
      </trkpt>
      <trkpt lat="46.93944" lon="8.70566">
        <ele>1676</ele>
        <time>2021-08-06T11:58:14.508Z</time>
      </trkpt>
      <trkpt lat="46.93944" lon="8.70566">
        <ele>1677</ele>
        <time>2021-08-06T11:58:15.508Z</time>
      </trkpt>
      <trkpt lat="46.93943" lon="8.70566">
        <ele>1677</ele>
        <time>2021-08-06T11:58:16.508Z</time>
      </trkpt>
      <trkpt lat="46.93943" lon="8.70565">
        <ele>1677</ele>
        <time>2021-08-06T11:58:17.509Z</time>
      </trkpt>
      <trkpt lat="46.93942" lon="8.70563">
        <ele>1678</ele>
        <time>2021-08-06T11:58:18.508Z</time>
      </trkpt>
      <trkpt lat="46.93942" lon="8.70561">
        <ele>1678</ele>
        <time>2021-08-06T11:58:19.509Z</time>
      </trkpt>
      <trkpt lat="46.93941" lon="8.70561">
        <ele>1679</ele>
        <time>2021-08-06T11:58:20.508Z</time>
      </trkpt>
      <trkpt lat="46.93941" lon="8.7056">
        <ele>1679</ele>
        <time>2021-08-06T11:58:21.509Z</time>
      </trkpt>
      <trkpt lat="46.9394" lon="8.7056">
        <ele>1680</ele>
        <time>2021-08-06T11:58:22.508Z</time>
      </trkpt>
      <trkpt lat="46.93939" lon="8.7056">
        <ele>1680</ele>
        <time>2021-08-06T11:58:23.508Z</time>
      </trkpt>
      <trkpt lat="46.93939" lon="8.7056">
        <ele>1680</ele>
        <time>2021-08-06T11:58:24.508Z</time>
      </trkpt>
      <trkpt lat="46.93938" lon="8.7056">
        <ele>1681</ele>
        <time>2021-08-06T11:58:25.508Z</time>
      </trkpt>
      <trkpt lat="46.93938" lon="8.70559">
        <ele>1681</ele>
        <time>2021-08-06T11:58:26.508Z</time>
      </trkpt>
      <trkpt lat="46.93939" lon="8.70559">
        <ele>1681</ele>
        <time>2021-08-06T11:58:27.508Z</time>
      </trkpt>
      <trkpt lat="46.93939" lon="8.70558">
        <ele>1681</ele>
        <time>2021-08-06T11:58:28.508Z</time>
      </trkpt>
      <trkpt lat="46.93939" lon="8.70555">
        <ele>1681</ele>
        <time>2021-08-06T11:58:29.508Z</time>
      </trkpt>
      <trkpt lat="46.93939" lon="8.70553">
        <ele>1682</ele>
        <time>2021-08-06T11:58:30.508Z</time>
      </trkpt>
      <trkpt lat="46.9394" lon="8.70551">
        <ele>1682</ele>
        <time>2021-08-06T11:58:31.508Z</time>
      </trkpt>
      <trkpt lat="46.9394" lon="8.7055">
        <ele>1682</ele>
        <time>2021-08-06T11:58:32.508Z</time>
      </trkpt>
      <trkpt lat="46.9394" lon="8.70548">
        <ele>1682</ele>
        <time>2021-08-06T11:58:33.508Z</time>
      </trkpt>
      <trkpt lat="46.9394" lon="8.70547">
        <ele>1682</ele>
        <time>2021-08-06T11:58:34.509Z</time>
      </trkpt>
      <trkpt lat="46.9394" lon="8.70546">
        <ele>1682</ele>
        <time>2021-08-06T11:58:35.508Z</time>
      </trkpt>
      <trkpt lat="46.93939" lon="8.70545">
        <ele>1682</ele>
        <time>2021-08-06T11:58:36.508Z</time>
      </trkpt>
      <trkpt lat="46.93939" lon="8.70544">
        <ele>1682</ele>
        <time>2021-08-06T11:58:37.509Z</time>
      </trkpt>
      <trkpt lat="46.93939" lon="8.70543">
        <ele>1682</ele>
        <time>2021-08-06T11:58:38.508Z</time>
      </trkpt>
      <trkpt lat="46.93938" lon="8.70542">
        <ele>1682</ele>
        <time>2021-08-06T11:58:39.508Z</time>
      </trkpt>
      <trkpt lat="46.93939" lon="8.70541">
        <ele>1682</ele>
        <time>2021-08-06T11:58:40.509Z</time>
      </trkpt>
      <trkpt lat="46.93939" lon="8.7054">
        <ele>1682</ele>
        <time>2021-08-06T11:58:41.508Z</time>
      </trkpt>
      <trkpt lat="46.93939" lon="8.70539">
        <ele>1682</ele>
        <time>2021-08-06T11:58:42.508Z</time>
      </trkpt>
      <trkpt lat="46.93939" lon="8.70538">
        <ele>1682</ele>
        <time>2021-08-06T11:58:43.508Z</time>
      </trkpt>
      <trkpt lat="46.93939" lon="8.70537">
        <ele>1682</ele>
        <time>2021-08-06T11:58:44.508Z</time>
      </trkpt>
      <trkpt lat="46.93939" lon="8.70536">
        <ele>1682</ele>
        <time>2021-08-06T11:58:45.509Z</time>
      </trkpt>
      <trkpt lat="46.9394" lon="8.70534">
        <ele>1682</ele>
        <time>2021-08-06T11:58:46.508Z</time>
      </trkpt>
      <trkpt lat="46.9394" lon="8.70533">
        <ele>1683</ele>
        <time>2021-08-06T11:58:47.508Z</time>
      </trkpt>
      <trkpt lat="46.9394" lon="8.70532">
        <ele>1683</ele>
        <time>2021-08-06T11:58:48.508Z</time>
      </trkpt>
      <trkpt lat="46.9394" lon="8.70531">
        <ele>1683</ele>
        <time>2021-08-06T11:58:49.508Z</time>
      </trkpt>
      <trkpt lat="46.9394" lon="8.7053">
        <ele>1683</ele>
        <time>2021-08-06T11:58:50.508Z</time>
      </trkpt>
      <trkpt lat="46.9394" lon="8.70529">
        <ele>1682</ele>
        <time>2021-08-06T11:58:51.508Z</time>
      </trkpt>
      <trkpt lat="46.9394" lon="8.70528">
        <ele>1682</ele>
        <time>2021-08-06T11:58:52.508Z</time>
      </trkpt>
      <trkpt lat="46.9394" lon="8.70527">
        <ele>1682</ele>
        <time>2021-08-06T11:58:53.508Z</time>
      </trkpt>
      <trkpt lat="46.93939" lon="8.70525">
        <ele>1681</ele>
        <time>2021-08-06T11:58:54.508Z</time>
      </trkpt>
      <trkpt lat="46.93939" lon="8.70524">
        <ele>1681</ele>
        <time>2021-08-06T11:58:55.508Z</time>
      </trkpt>
      <trkpt lat="46.9394" lon="8.70523">
        <ele>1681</ele>
        <time>2021-08-06T11:58:56.508Z</time>
      </trkpt>
      <trkpt lat="46.9394" lon="8.70524">
        <ele>1681</ele>
        <time>2021-08-06T11:58:57.508Z</time>
      </trkpt>
      <trkpt lat="46.9394" lon="8.70523">
        <ele>1680</ele>
        <time>2021-08-06T11:58:58.509Z</time>
      </trkpt>
      <trkpt lat="46.9394" lon="8.70522">
        <ele>1680</ele>
        <time>2021-08-06T11:58:59.509Z</time>
      </trkpt>
      <trkpt lat="46.9394" lon="8.70521">
        <ele>1680</ele>
        <time>2021-08-06T11:59:00.508Z</time>
      </trkpt>
      <trkpt lat="46.9394" lon="8.7052">
        <ele>1680</ele>
        <time>2021-08-06T11:59:01.508Z</time>
      </trkpt>
      <trkpt lat="46.93941" lon="8.70519">
        <ele>1680</ele>
        <time>2021-08-06T11:59:02.508Z</time>
      </trkpt>
      <trkpt lat="46.93941" lon="8.70518">
        <ele>1680</ele>
        <time>2021-08-06T11:59:03.509Z</time>
      </trkpt>
      <trkpt lat="46.93941" lon="8.70517">
        <ele>1680</ele>
        <time>2021-08-06T11:59:04.508Z</time>
      </trkpt>
      <trkpt lat="46.93941" lon="8.70516">
        <ele>1680</ele>
        <time>2021-08-06T11:59:05.508Z</time>
      </trkpt>
      <trkpt lat="46.93942" lon="8.70514">
        <ele>1679</ele>
        <time>2021-08-06T11:59:06.508Z</time>
      </trkpt>
      <trkpt lat="46.93942" lon="8.70513">
        <ele>1679</ele>
        <time>2021-08-06T11:59:07.509Z</time>
      </trkpt>
      <trkpt lat="46.93942" lon="8.70513">
        <ele>1679</ele>
        <time>2021-08-06T11:59:08.509Z</time>
      </trkpt>
      <trkpt lat="46.93942" lon="8.70511">
        <ele>1679</ele>
        <time>2021-08-06T11:59:09.509Z</time>
      </trkpt>
      <trkpt lat="46.93942" lon="8.7051">
        <ele>1679</ele>
        <time>2021-08-06T11:59:10.509Z</time>
      </trkpt>
      <trkpt lat="46.93942" lon="8.70509">
        <ele>1679</ele>
        <time>2021-08-06T11:59:11.508Z</time>
      </trkpt>
      <trkpt lat="46.93942" lon="8.70508">
        <ele>1679</ele>
        <time>2021-08-06T11:59:12.508Z</time>
      </trkpt>
      <trkpt lat="46.93942" lon="8.70506">
        <ele>1679</ele>
        <time>2021-08-06T11:59:13.508Z</time>
      </trkpt>
      <trkpt lat="46.93942" lon="8.70505">
        <ele>1679</ele>
        <time>2021-08-06T11:59:14.508Z</time>
      </trkpt>
      <trkpt lat="46.93943" lon="8.70503">
        <ele>1679</ele>
        <time>2021-08-06T11:59:15.508Z</time>
      </trkpt>
      <trkpt lat="46.93943" lon="8.70502">
        <ele>1679</ele>
        <time>2021-08-06T11:59:16.508Z</time>
      </trkpt>
      <trkpt lat="46.93943" lon="8.705">
        <ele>1678</ele>
        <time>2021-08-06T11:59:17.509Z</time>
      </trkpt>
      <trkpt lat="46.93943" lon="8.70499">
        <ele>1678</ele>
        <time>2021-08-06T11:59:18.508Z</time>
      </trkpt>
      <trkpt lat="46.93943" lon="8.70497">
        <ele>1677</ele>
        <time>2021-08-06T11:59:19.509Z</time>
      </trkpt>
      <trkpt lat="46.93944" lon="8.70496">
        <ele>1677</ele>
        <time>2021-08-06T11:59:20.508Z</time>
      </trkpt>
      <trkpt lat="46.93943" lon="8.70495">
        <ele>1676</ele>
        <time>2021-08-06T11:59:21.508Z</time>
      </trkpt>
      <trkpt lat="46.93943" lon="8.70494">
        <ele>1676</ele>
        <time>2021-08-06T11:59:22.509Z</time>
      </trkpt>
      <trkpt lat="46.93943" lon="8.70493">
        <ele>1675</ele>
        <time>2021-08-06T11:59:23.508Z</time>
      </trkpt>
      <trkpt lat="46.93943" lon="8.70491">
        <ele>1675</ele>
        <time>2021-08-06T11:59:24.508Z</time>
      </trkpt>
      <trkpt lat="46.93943" lon="8.7049">
        <ele>1675</ele>
        <time>2021-08-06T11:59:25.508Z</time>
      </trkpt>
      <trkpt lat="46.93942" lon="8.70488">
        <ele>1674</ele>
        <time>2021-08-06T11:59:26.509Z</time>
      </trkpt>
      <trkpt lat="46.93942" lon="8.70488">
        <ele>1674</ele>
        <time>2021-08-06T11:59:27.509Z</time>
      </trkpt>
      <trkpt lat="46.93941" lon="8.70487">
        <ele>1674</ele>
        <time>2021-08-06T11:59:28.508Z</time>
      </trkpt>
      <trkpt lat="46.9394" lon="8.70486">
        <ele>1673</ele>
        <time>2021-08-06T11:59:29.509Z</time>
      </trkpt>
      <trkpt lat="46.93939" lon="8.70486">
        <ele>1673</ele>
        <time>2021-08-06T11:59:30.508Z</time>
      </trkpt>
      <trkpt lat="46.93938" lon="8.70485">
        <ele>1673</ele>
        <time>2021-08-06T11:59:31.508Z</time>
      </trkpt>
      <trkpt lat="46.93937" lon="8.70484">
        <ele>1673</ele>
        <time>2021-08-06T11:59:32.509Z</time>
      </trkpt>
      <trkpt lat="46.93936" lon="8.70483">
        <ele>1672</ele>
        <time>2021-08-06T11:59:33.508Z</time>
      </trkpt>
      <trkpt lat="46.93935" lon="8.70483">
        <ele>1672</ele>
        <time>2021-08-06T11:59:34.508Z</time>
      </trkpt>
      <trkpt lat="46.93934" lon="8.70482">
        <ele>1672</ele>
        <time>2021-08-06T11:59:35.508Z</time>
      </trkpt>
      <trkpt lat="46.93933" lon="8.70481">
        <ele>1671</ele>
        <time>2021-08-06T11:59:36.508Z</time>
      </trkpt>
      <trkpt lat="46.93932" lon="8.7048">
        <ele>1671</ele>
        <time>2021-08-06T11:59:37.508Z</time>
      </trkpt>
      <trkpt lat="46.93931" lon="8.70479">
        <ele>1671</ele>
        <time>2021-08-06T11:59:38.509Z</time>
      </trkpt>
      <trkpt lat="46.9393" lon="8.70478">
        <ele>1671</ele>
        <time>2021-08-06T11:59:39.508Z</time>
      </trkpt>
      <trkpt lat="46.93929" lon="8.70478">
        <ele>1671</ele>
        <time>2021-08-06T11:59:40.509Z</time>
      </trkpt>
      <trkpt lat="46.93927" lon="8.70477">
        <ele>1670</ele>
        <time>2021-08-06T11:59:41.509Z</time>
      </trkpt>
      <trkpt lat="46.93926" lon="8.70476">
        <ele>1670</ele>
        <time>2021-08-06T11:59:42.509Z</time>
      </trkpt>
      <trkpt lat="46.93926" lon="8.70475">
        <ele>1670</ele>
        <time>2021-08-06T11:59:43.508Z</time>
      </trkpt>
      <trkpt lat="46.93925" lon="8.70474">
        <ele>1670</ele>
        <time>2021-08-06T11:59:44.508Z</time>
      </trkpt>
      <trkpt lat="46.93924" lon="8.70473">
        <ele>1669</ele>
        <time>2021-08-06T11:59:45.508Z</time>
      </trkpt>
      <trkpt lat="46.93923" lon="8.70472">
        <ele>1669</ele>
        <time>2021-08-06T11:59:46.508Z</time>
      </trkpt>
      <trkpt lat="46.93922" lon="8.7047">
        <ele>1669</ele>
        <time>2021-08-06T11:59:47.509Z</time>
      </trkpt>
      <trkpt lat="46.93922" lon="8.70469">
        <ele>1669</ele>
        <time>2021-08-06T11:59:48.509Z</time>
      </trkpt>
      <trkpt lat="46.93922" lon="8.70468">
        <ele>1670</ele>
        <time>2021-08-06T11:59:49.508Z</time>
      </trkpt>
      <trkpt lat="46.93921" lon="8.70467">
        <ele>1670</ele>
        <time>2021-08-06T11:59:50.508Z</time>
      </trkpt>
      <trkpt lat="46.93921" lon="8.70466">
        <ele>1671</ele>
        <time>2021-08-06T11:59:51.508Z</time>
      </trkpt>
      <trkpt lat="46.9392" lon="8.70464">
        <ele>1671</ele>
        <time>2021-08-06T11:59:52.508Z</time>
      </trkpt>
      <trkpt lat="46.9392" lon="8.70463">
        <ele>1671</ele>
        <time>2021-08-06T11:59:53.508Z</time>
      </trkpt>
      <trkpt lat="46.93919" lon="8.70462">
        <ele>1672</ele>
        <time>2021-08-06T11:59:54.508Z</time>
      </trkpt>
      <trkpt lat="46.93919" lon="8.70461">
        <ele>1672</ele>
        <time>2021-08-06T11:59:55.508Z</time>
      </trkpt>
      <trkpt lat="46.93918" lon="8.7046">
        <ele>1672</ele>
        <time>2021-08-06T11:59:56.509Z</time>
      </trkpt>
      <trkpt lat="46.93918" lon="8.70459">
        <ele>1672</ele>
        <time>2021-08-06T11:59:57.508Z</time>
      </trkpt>
      <trkpt lat="46.93917" lon="8.70458">
        <ele>1672</ele>
        <time>2021-08-06T11:59:58.508Z</time>
      </trkpt>
      <trkpt lat="46.93916" lon="8.70457">
        <ele>1673</ele>
        <time>2021-08-06T11:59:59.508Z</time>
      </trkpt>
      <trkpt lat="46.93915" lon="8.70456">
        <ele>1672</ele>
        <time>2021-08-06T12:00:00.508Z</time>
      </trkpt>
      <trkpt lat="46.93915" lon="8.70455">
        <ele>1672</ele>
        <time>2021-08-06T12:00:01.508Z</time>
      </trkpt>
      <trkpt lat="46.93914" lon="8.70454">
        <ele>1672</ele>
        <time>2021-08-06T12:00:02.508Z</time>
      </trkpt>
      <trkpt lat="46.93914" lon="8.70453">
        <ele>1672</ele>
        <time>2021-08-06T12:00:03.508Z</time>
      </trkpt>
      <trkpt lat="46.93913" lon="8.70452">
        <ele>1672</ele>
        <time>2021-08-06T12:00:04.508Z</time>
      </trkpt>
      <trkpt lat="46.93913" lon="8.7045">
        <ele>1672</ele>
        <time>2021-08-06T12:00:05.508Z</time>
      </trkpt>
      <trkpt lat="46.93912" lon="8.70448">
        <ele>1672</ele>
        <time>2021-08-06T12:00:06.508Z</time>
      </trkpt>
      <trkpt lat="46.93912" lon="8.70447">
        <ele>1673</ele>
        <time>2021-08-06T12:00:07.509Z</time>
      </trkpt>
      <trkpt lat="46.93912" lon="8.70445">
        <ele>1672</ele>
        <time>2021-08-06T12:00:08.508Z</time>
      </trkpt>
      <trkpt lat="46.93912" lon="8.70444">
        <ele>1672</ele>
        <time>2021-08-06T12:00:09.508Z</time>
      </trkpt>
      <trkpt lat="46.93912" lon="8.70443">
        <ele>1673</ele>
        <time>2021-08-06T12:00:10.508Z</time>
      </trkpt>
      <trkpt lat="46.93911" lon="8.70441">
        <ele>1673</ele>
        <time>2021-08-06T12:00:11.509Z</time>
      </trkpt>
      <trkpt lat="46.93911" lon="8.7044">
        <ele>1673</ele>
        <time>2021-08-06T12:00:12.508Z</time>
      </trkpt>
      <trkpt lat="46.93911" lon="8.70439">
        <ele>1674</ele>
        <time>2021-08-06T12:00:13.509Z</time>
      </trkpt>
      <trkpt lat="46.93911" lon="8.70437">
        <ele>1674</ele>
        <time>2021-08-06T12:00:14.508Z</time>
      </trkpt>
      <trkpt lat="46.93911" lon="8.70435">
        <ele>1674</ele>
        <time>2021-08-06T12:00:15.508Z</time>
      </trkpt>
      <trkpt lat="46.93911" lon="8.70434">
        <ele>1674</ele>
        <time>2021-08-06T12:00:16.508Z</time>
      </trkpt>
      <trkpt lat="46.93911" lon="8.70433">
        <ele>1674</ele>
        <time>2021-08-06T12:00:17.509Z</time>
      </trkpt>
      <trkpt lat="46.93912" lon="8.70432">
        <ele>1674</ele>
        <time>2021-08-06T12:00:18.509Z</time>
      </trkpt>
      <trkpt lat="46.93912" lon="8.70431">
        <ele>1674</ele>
        <time>2021-08-06T12:00:19.508Z</time>
      </trkpt>
      <trkpt lat="46.93913" lon="8.70431">
        <ele>1674</ele>
        <time>2021-08-06T12:00:20.508Z</time>
      </trkpt>
      <trkpt lat="46.93914" lon="8.7043">
        <ele>1674</ele>
        <time>2021-08-06T12:00:21.508Z</time>
      </trkpt>
      <trkpt lat="46.93914" lon="8.70429">
        <ele>1674</ele>
        <time>2021-08-06T12:00:22.508Z</time>
      </trkpt>
      <trkpt lat="46.93915" lon="8.70428">
        <ele>1674</ele>
        <time>2021-08-06T12:00:23.508Z</time>
      </trkpt>
      <trkpt lat="46.93916" lon="8.70427">
        <ele>1675</ele>
        <time>2021-08-06T12:00:24.508Z</time>
      </trkpt>
      <trkpt lat="46.93916" lon="8.70426">
        <ele>1675</ele>
        <time>2021-08-06T12:00:25.508Z</time>
      </trkpt>
      <trkpt lat="46.93917" lon="8.70426">
        <ele>1676</ele>
        <time>2021-08-06T12:00:26.509Z</time>
      </trkpt>
      <trkpt lat="46.93918" lon="8.70425">
        <ele>1676</ele>
        <time>2021-08-06T12:00:27.509Z</time>
      </trkpt>
      <trkpt lat="46.93919" lon="8.70424">
        <ele>1677</ele>
        <time>2021-08-06T12:00:28.509Z</time>
      </trkpt>
      <trkpt lat="46.9392" lon="8.70423">
        <ele>1678</ele>
        <time>2021-08-06T12:00:29.509Z</time>
      </trkpt>
      <trkpt lat="46.93921" lon="8.70422">
        <ele>1679</ele>
        <time>2021-08-06T12:00:30.508Z</time>
      </trkpt>
      <trkpt lat="46.93922" lon="8.70422">
        <ele>1680</ele>
        <time>2021-08-06T12:00:31.508Z</time>
      </trkpt>
      <trkpt lat="46.93922" lon="8.70421">
        <ele>1681</ele>
        <time>2021-08-06T12:00:32.508Z</time>
      </trkpt>
      <trkpt lat="46.93924" lon="8.7042">
        <ele>1682</ele>
        <time>2021-08-06T12:00:33.508Z</time>
      </trkpt>
      <trkpt lat="46.93924" lon="8.70419">
        <ele>1684</ele>
        <time>2021-08-06T12:00:34.509Z</time>
      </trkpt>
      <trkpt lat="46.93925" lon="8.70419">
        <ele>1685</ele>
        <time>2021-08-06T12:00:35.508Z</time>
      </trkpt>
      <trkpt lat="46.93926" lon="8.70418">
        <ele>1686</ele>
        <time>2021-08-06T12:00:36.508Z</time>
      </trkpt>
      <trkpt lat="46.93928" lon="8.70418">
        <ele>1687</ele>
        <time>2021-08-06T12:00:37.508Z</time>
      </trkpt>
      <trkpt lat="46.93929" lon="8.70417">
        <ele>1688</ele>
        <time>2021-08-06T12:00:38.508Z</time>
      </trkpt>
      <trkpt lat="46.9393" lon="8.70417">
        <ele>1689</ele>
        <time>2021-08-06T12:00:39.508Z</time>
      </trkpt>
      <trkpt lat="46.93931" lon="8.70416">
        <ele>1690</ele>
        <time>2021-08-06T12:00:40.508Z</time>
      </trkpt>
      <trkpt lat="46.93932" lon="8.70415">
        <ele>1691</ele>
        <time>2021-08-06T12:00:41.509Z</time>
      </trkpt>
      <trkpt lat="46.93933" lon="8.70414">
        <ele>1692</ele>
        <time>2021-08-06T12:00:42.508Z</time>
      </trkpt>
      <trkpt lat="46.93933" lon="8.70414">
        <ele>1692</ele>
        <time>2021-08-06T12:00:43.509Z</time>
      </trkpt>
      <trkpt lat="46.93934" lon="8.70413">
        <ele>1693</ele>
        <time>2021-08-06T12:00:44.508Z</time>
      </trkpt>
      <trkpt lat="46.93936" lon="8.70413">
        <ele>1693</ele>
        <time>2021-08-06T12:00:45.508Z</time>
      </trkpt>
      <trkpt lat="46.93937" lon="8.70413">
        <ele>1694</ele>
        <time>2021-08-06T12:00:46.508Z</time>
      </trkpt>
      <trkpt lat="46.93939" lon="8.70413">
        <ele>1694</ele>
        <time>2021-08-06T12:00:47.508Z</time>
      </trkpt>
      <trkpt lat="46.9394" lon="8.70412">
        <ele>1695</ele>
        <time>2021-08-06T12:00:48.508Z</time>
      </trkpt>
      <trkpt lat="46.93941" lon="8.70412">
        <ele>1696</ele>
        <time>2021-08-06T12:00:49.509Z</time>
      </trkpt>
      <trkpt lat="46.93942" lon="8.70411">
        <ele>1696</ele>
        <time>2021-08-06T12:00:50.508Z</time>
      </trkpt>
      <trkpt lat="46.93942" lon="8.7041">
        <ele>1696</ele>
        <time>2021-08-06T12:00:51.508Z</time>
      </trkpt>
      <trkpt lat="46.93942" lon="8.70409">
        <ele>1696</ele>
        <time>2021-08-06T12:00:52.508Z</time>
      </trkpt>
      <trkpt lat="46.93941" lon="8.70408">
        <ele>1696</ele>
        <time>2021-08-06T12:00:53.508Z</time>
      </trkpt>
      <trkpt lat="46.9394" lon="8.70407">
        <ele>1695</ele>
        <time>2021-08-06T12:00:54.508Z</time>
      </trkpt>
      <trkpt lat="46.9394" lon="8.70406">
        <ele>1694</ele>
        <time>2021-08-06T12:00:55.509Z</time>
      </trkpt>
      <trkpt lat="46.9394" lon="8.70404">
        <ele>1693</ele>
        <time>2021-08-06T12:00:56.508Z</time>
      </trkpt>
      <trkpt lat="46.9394" lon="8.70403">
        <ele>1692</ele>
        <time>2021-08-06T12:00:57.508Z</time>
      </trkpt>
      <trkpt lat="46.9394" lon="8.70403">
        <ele>1691</ele>
        <time>2021-08-06T12:00:58.508Z</time>
      </trkpt>
      <trkpt lat="46.93941" lon="8.70402">
        <ele>1690</ele>
        <time>2021-08-06T12:00:59.508Z</time>
      </trkpt>
      <trkpt lat="46.93941" lon="8.70401">
        <ele>1689</ele>
        <time>2021-08-06T12:01:00.508Z</time>
      </trkpt>
      <trkpt lat="46.93941" lon="8.704">
        <ele>1689</ele>
        <time>2021-08-06T12:01:01.508Z</time>
      </trkpt>
      <trkpt lat="46.93941" lon="8.70399">
        <ele>1688</ele>
        <time>2021-08-06T12:01:02.508Z</time>
      </trkpt>
      <trkpt lat="46.93941" lon="8.70398">
        <ele>1687</ele>
        <time>2021-08-06T12:01:03.509Z</time>
      </trkpt>
      <trkpt lat="46.93941" lon="8.70397">
        <ele>1686</ele>
        <time>2021-08-06T12:01:04.508Z</time>
      </trkpt>
      <trkpt lat="46.93941" lon="8.70396">
        <ele>1686</ele>
        <time>2021-08-06T12:01:05.508Z</time>
      </trkpt>
      <trkpt lat="46.9394" lon="8.70396">
        <ele>1685</ele>
        <time>2021-08-06T12:01:06.508Z</time>
      </trkpt>
      <trkpt lat="46.93939" lon="8.70395">
        <ele>1684</ele>
        <time>2021-08-06T12:01:07.508Z</time>
      </trkpt>
      <trkpt lat="46.93939" lon="8.70394">
        <ele>1684</ele>
        <time>2021-08-06T12:01:08.508Z</time>
      </trkpt>
      <trkpt lat="46.9394" lon="8.70393">
        <ele>1684</ele>
        <time>2021-08-06T12:01:09.508Z</time>
      </trkpt>
      <trkpt lat="46.9394" lon="8.70392">
        <ele>1684</ele>
        <time>2021-08-06T12:01:10.509Z</time>
      </trkpt>
      <trkpt lat="46.9394" lon="8.70391">
        <ele>1683</ele>
        <time>2021-08-06T12:01:11.508Z</time>
      </trkpt>
      <trkpt lat="46.93939" lon="8.70389">
        <ele>1683</ele>
        <time>2021-08-06T12:01:12.508Z</time>
      </trkpt>
      <trkpt lat="46.9394" lon="8.70388">
        <ele>1683</ele>
        <time>2021-08-06T12:01:13.509Z</time>
      </trkpt>
      <trkpt lat="46.9394" lon="8.70388">
        <ele>1683</ele>
        <time>2021-08-06T12:01:14.508Z</time>
      </trkpt>
      <trkpt lat="46.93941" lon="8.70387">
        <ele>1683</ele>
        <time>2021-08-06T12:01:15.508Z</time>
      </trkpt>
      <trkpt lat="46.93941" lon="8.70385">
        <ele>1683</ele>
        <time>2021-08-06T12:01:16.508Z</time>
      </trkpt>
      <trkpt lat="46.9394" lon="8.70384">
        <ele>1683</ele>
        <time>2021-08-06T12:01:17.508Z</time>
      </trkpt>
      <trkpt lat="46.9394" lon="8.70384">
        <ele>1683</ele>
        <time>2021-08-06T12:01:18.508Z</time>
      </trkpt>
      <trkpt lat="46.9394" lon="8.70382">
        <ele>1683</ele>
        <time>2021-08-06T12:01:19.508Z</time>
      </trkpt>
      <trkpt lat="46.93939" lon="8.70381">
        <ele>1683</ele>
        <time>2021-08-06T12:01:20.508Z</time>
      </trkpt>
      <trkpt lat="46.93939" lon="8.7038">
        <ele>1682</ele>
        <time>2021-08-06T12:01:21.508Z</time>
      </trkpt>
      <trkpt lat="46.93938" lon="8.7038">
        <ele>1682</ele>
        <time>2021-08-06T12:01:22.508Z</time>
      </trkpt>
      <trkpt lat="46.93938" lon="8.7038">
        <ele>1682</ele>
        <time>2021-08-06T12:01:23.509Z</time>
      </trkpt>
      <trkpt lat="46.93935" lon="8.70379">
        <ele>1685</ele>
        <time>2021-08-06T12:01:24.510Z</time>
      </trkpt>
      <trkpt lat="46.93935" lon="8.70379">
        <ele>1685</ele>
        <time>2021-08-06T12:01:25.509Z</time>
      </trkpt>
      <trkpt lat="46.93935" lon="8.70378">
        <ele>1684</ele>
        <time>2021-08-06T12:01:26.509Z</time>
      </trkpt>
      <trkpt lat="46.93935" lon="8.70377">
        <ele>1684</ele>
        <time>2021-08-06T12:01:27.509Z</time>
      </trkpt>
      <trkpt lat="46.93934" lon="8.70376">
        <ele>1684</ele>
        <time>2021-08-06T12:01:28.509Z</time>
      </trkpt>
      <trkpt lat="46.93933" lon="8.70375">
        <ele>1684</ele>
        <time>2021-08-06T12:01:29.509Z</time>
      </trkpt>
      <trkpt lat="46.93932" lon="8.70374">
        <ele>1684</ele>
        <time>2021-08-06T12:01:30.509Z</time>
      </trkpt>
      <trkpt lat="46.93931" lon="8.70373">
        <ele>1683</ele>
        <time>2021-08-06T12:01:31.509Z</time>
      </trkpt>
      <trkpt lat="46.9393" lon="8.70373">
        <ele>1683</ele>
        <time>2021-08-06T12:01:32.509Z</time>
      </trkpt>
      <trkpt lat="46.93929" lon="8.70372">
        <ele>1682</ele>
        <time>2021-08-06T12:01:33.509Z</time>
      </trkpt>
      <trkpt lat="46.93928" lon="8.70372">
        <ele>1682</ele>
        <time>2021-08-06T12:01:34.509Z</time>
      </trkpt>
      <trkpt lat="46.93928" lon="8.70371">
        <ele>1682</ele>
        <time>2021-08-06T12:01:35.510Z</time>
      </trkpt>
      <trkpt lat="46.93927" lon="8.7037">
        <ele>1682</ele>
        <time>2021-08-06T12:01:36.509Z</time>
      </trkpt>
      <trkpt lat="46.93926" lon="8.70369">
        <ele>1682</ele>
        <time>2021-08-06T12:01:37.509Z</time>
      </trkpt>
      <trkpt lat="46.93925" lon="8.70368">
        <ele>1683</ele>
        <time>2021-08-06T12:01:38.509Z</time>
      </trkpt>
      <trkpt lat="46.93924" lon="8.70367">
        <ele>1682</ele>
        <time>2021-08-06T12:01:39.509Z</time>
      </trkpt>
      <trkpt lat="46.93924" lon="8.70367">
        <ele>1682</ele>
        <time>2021-08-06T12:01:40.509Z</time>
      </trkpt>
      <trkpt lat="46.93923" lon="8.70366">
        <ele>1682</ele>
        <time>2021-08-06T12:01:41.509Z</time>
      </trkpt>
      <trkpt lat="46.93922" lon="8.70365">
        <ele>1681</ele>
        <time>2021-08-06T12:01:42.509Z</time>
      </trkpt>
      <trkpt lat="46.93921" lon="8.70364">
        <ele>1681</ele>
        <time>2021-08-06T12:01:43.509Z</time>
      </trkpt>
      <trkpt lat="46.93921" lon="8.70363">
        <ele>1680</ele>
        <time>2021-08-06T12:01:44.509Z</time>
      </trkpt>
      <trkpt lat="46.9392" lon="8.70362">
        <ele>1680</ele>
        <time>2021-08-06T12:01:45.509Z</time>
      </trkpt>
      <trkpt lat="46.93919" lon="8.70361">
        <ele>1680</ele>
        <time>2021-08-06T12:01:46.509Z</time>
      </trkpt>
      <trkpt lat="46.93919" lon="8.70359">
        <ele>1681</ele>
        <time>2021-08-06T12:01:47.509Z</time>
      </trkpt>
      <trkpt lat="46.93918" lon="8.70358">
        <ele>1681</ele>
        <time>2021-08-06T12:01:48.510Z</time>
      </trkpt>
      <trkpt lat="46.93917" lon="8.70357">
        <ele>1681</ele>
        <time>2021-08-06T12:01:49.510Z</time>
      </trkpt>
      <trkpt lat="46.93916" lon="8.70356">
        <ele>1682</ele>
        <time>2021-08-06T12:01:50.509Z</time>
      </trkpt>
      <trkpt lat="46.93915" lon="8.70355">
        <ele>1682</ele>
        <time>2021-08-06T12:01:51.509Z</time>
      </trkpt>
      <trkpt lat="46.93915" lon="8.70354">
        <ele>1682</ele>
        <time>2021-08-06T12:01:52.509Z</time>
      </trkpt>
      <trkpt lat="46.93914" lon="8.70354">
        <ele>1682</ele>
        <time>2021-08-06T12:01:53.509Z</time>
      </trkpt>
      <trkpt lat="46.93914" lon="8.70353">
        <ele>1682</ele>
        <time>2021-08-06T12:01:54.509Z</time>
      </trkpt>
      <trkpt lat="46.93913" lon="8.70353">
        <ele>1682</ele>
        <time>2021-08-06T12:01:55.509Z</time>
      </trkpt>
      <trkpt lat="46.93912" lon="8.70352">
        <ele>1682</ele>
        <time>2021-08-06T12:01:56.509Z</time>
      </trkpt>
      <trkpt lat="46.93912" lon="8.70351">
        <ele>1682</ele>
        <time>2021-08-06T12:01:57.509Z</time>
      </trkpt>
      <trkpt lat="46.93911" lon="8.7035">
        <ele>1682</ele>
        <time>2021-08-06T12:01:58.509Z</time>
      </trkpt>
      <trkpt lat="46.9391" lon="8.7035">
        <ele>1683</ele>
        <time>2021-08-06T12:01:59.509Z</time>
      </trkpt>
      <trkpt lat="46.93909" lon="8.70349">
        <ele>1683</ele>
        <time>2021-08-06T12:02:00.509Z</time>
      </trkpt>
      <trkpt lat="46.93909" lon="8.70349">
        <ele>1683</ele>
        <time>2021-08-06T12:02:01.509Z</time>
      </trkpt>
      <trkpt lat="46.93908" lon="8.70348">
        <ele>1683</ele>
        <time>2021-08-06T12:02:02.509Z</time>
      </trkpt>
      <trkpt lat="46.93907" lon="8.70348">
        <ele>1684</ele>
        <time>2021-08-06T12:02:03.509Z</time>
      </trkpt>
      <trkpt lat="46.93906" lon="8.70348">
        <ele>1684</ele>
        <time>2021-08-06T12:02:04.509Z</time>
      </trkpt>
      <trkpt lat="46.93905" lon="8.70347">
        <ele>1684</ele>
        <time>2021-08-06T12:02:05.509Z</time>
      </trkpt>
      <trkpt lat="46.93904" lon="8.70347">
        <ele>1683</ele>
        <time>2021-08-06T12:02:06.509Z</time>
      </trkpt>
      <trkpt lat="46.93903" lon="8.70346">
        <ele>1683</ele>
        <time>2021-08-06T12:02:07.509Z</time>
      </trkpt>
      <trkpt lat="46.93902" lon="8.70346">
        <ele>1682</ele>
        <time>2021-08-06T12:02:08.509Z</time>
      </trkpt>
      <trkpt lat="46.93901" lon="8.70345">
        <ele>1682</ele>
        <time>2021-08-06T12:02:09.509Z</time>
      </trkpt>
      <trkpt lat="46.939" lon="8.70344">
        <ele>1682</ele>
        <time>2021-08-06T12:02:10.509Z</time>
      </trkpt>
      <trkpt lat="46.93899" lon="8.70343">
        <ele>1682</ele>
        <time>2021-08-06T12:02:11.509Z</time>
      </trkpt>
      <trkpt lat="46.93898" lon="8.70343">
        <ele>1682</ele>
        <time>2021-08-06T12:02:14.612Z</time>
      </trkpt>
      <trkpt lat="46.93897" lon="8.70342">
        <ele>1682</ele>
        <time>2021-08-06T12:02:15.612Z</time>
      </trkpt>
      <trkpt lat="46.93896" lon="8.70342">
        <ele>1682</ele>
        <time>2021-08-06T12:02:16.612Z</time>
      </trkpt>
      <trkpt lat="46.93895" lon="8.70341">
        <ele>1683</ele>
        <time>2021-08-06T12:02:17.612Z</time>
      </trkpt>
      <trkpt lat="46.93894" lon="8.70341">
        <ele>1683</ele>
        <time>2021-08-06T12:02:18.612Z</time>
      </trkpt>
      <trkpt lat="46.93893" lon="8.7034">
        <ele>1683</ele>
        <time>2021-08-06T12:02:19.612Z</time>
      </trkpt>
      <trkpt lat="46.93892" lon="8.7034">
        <ele>1683</ele>
        <time>2021-08-06T12:02:20.612Z</time>
      </trkpt>
      <trkpt lat="46.93892" lon="8.7034">
        <ele>1683</ele>
        <time>2021-08-06T12:02:21.613Z</time>
      </trkpt>
      <trkpt lat="46.93891" lon="8.70339">
        <ele>1683</ele>
        <time>2021-08-06T12:02:22.612Z</time>
      </trkpt>
      <trkpt lat="46.9389" lon="8.70339">
        <ele>1684</ele>
        <time>2021-08-06T12:02:23.612Z</time>
      </trkpt>
      <trkpt lat="46.93889" lon="8.70339">
        <ele>1684</ele>
        <time>2021-08-06T12:02:24.612Z</time>
      </trkpt>
      <trkpt lat="46.93889" lon="8.70339">
        <ele>1684</ele>
        <time>2021-08-06T12:02:25.612Z</time>
      </trkpt>
      <trkpt lat="46.93888" lon="8.70338">
        <ele>1684</ele>
        <time>2021-08-06T12:02:26.613Z</time>
      </trkpt>
      <trkpt lat="46.93888" lon="8.70338">
        <ele>1685</ele>
        <time>2021-08-06T12:02:27.612Z</time>
      </trkpt>
      <trkpt lat="46.93887" lon="8.70338">
        <ele>1685</ele>
        <time>2021-08-06T12:02:28.613Z</time>
      </trkpt>
      <trkpt lat="46.93887" lon="8.70337">
        <ele>1685</ele>
        <time>2021-08-06T12:02:29.612Z</time>
      </trkpt>
      <trkpt lat="46.93886" lon="8.70336">
        <ele>1686</ele>
        <time>2021-08-06T12:02:30.612Z</time>
      </trkpt>
      <trkpt lat="46.93886" lon="8.70335">
        <ele>1687</ele>
        <time>2021-08-06T12:02:31.612Z</time>
      </trkpt>
      <trkpt lat="46.93886" lon="8.70335">
        <ele>1687</ele>
        <time>2021-08-06T12:02:32.612Z</time>
      </trkpt>
      <trkpt lat="46.93886" lon="8.70333">
        <ele>1688</ele>
        <time>2021-08-06T12:02:33.612Z</time>
      </trkpt>
      <trkpt lat="46.93886" lon="8.70332">
        <ele>1688</ele>
        <time>2021-08-06T12:02:34.612Z</time>
      </trkpt>
      <trkpt lat="46.93886" lon="8.70331">
        <ele>1689</ele>
        <time>2021-08-06T12:02:35.612Z</time>
      </trkpt>
      <trkpt lat="46.93886" lon="8.7033">
        <ele>1689</ele>
        <time>2021-08-06T12:02:36.612Z</time>
      </trkpt>
      <trkpt lat="46.93886" lon="8.70328">
        <ele>1690</ele>
        <time>2021-08-06T12:02:37.612Z</time>
      </trkpt>
      <trkpt lat="46.93887" lon="8.70327">
        <ele>1690</ele>
        <time>2021-08-06T12:02:38.612Z</time>
      </trkpt>
      <trkpt lat="46.93887" lon="8.70326">
        <ele>1690</ele>
        <time>2021-08-06T12:02:39.613Z</time>
      </trkpt>
      <trkpt lat="46.93887" lon="8.70325">
        <ele>1690</ele>
        <time>2021-08-06T12:02:40.612Z</time>
      </trkpt>
      <trkpt lat="46.93887" lon="8.70324">
        <ele>1690</ele>
        <time>2021-08-06T12:02:41.612Z</time>
      </trkpt>
      <trkpt lat="46.93888" lon="8.70322">
        <ele>1690</ele>
        <time>2021-08-06T12:02:42.612Z</time>
      </trkpt>
      <trkpt lat="46.93888" lon="8.70321">
        <ele>1690</ele>
        <time>2021-08-06T12:02:43.612Z</time>
      </trkpt>
      <trkpt lat="46.93889" lon="8.70319">
        <ele>1690</ele>
        <time>2021-08-06T12:02:44.612Z</time>
      </trkpt>
      <trkpt lat="46.93889" lon="8.70318">
        <ele>1691</ele>
        <time>2021-08-06T12:02:45.612Z</time>
      </trkpt>
      <trkpt lat="46.9389" lon="8.70316">
        <ele>1691</ele>
        <time>2021-08-06T12:02:46.612Z</time>
      </trkpt>
      <trkpt lat="46.9389" lon="8.70315">
        <ele>1692</ele>
        <time>2021-08-06T12:02:47.612Z</time>
      </trkpt>
      <trkpt lat="46.93889" lon="8.70313">
        <ele>1692</ele>
        <time>2021-08-06T12:02:48.612Z</time>
      </trkpt>
      <trkpt lat="46.93889" lon="8.70312">
        <ele>1693</ele>
        <time>2021-08-06T12:02:49.612Z</time>
      </trkpt>
      <trkpt lat="46.93889" lon="8.70311">
        <ele>1693</ele>
        <time>2021-08-06T12:02:50.612Z</time>
      </trkpt>
      <trkpt lat="46.93889" lon="8.70309">
        <ele>1694</ele>
        <time>2021-08-06T12:02:51.612Z</time>
      </trkpt>
      <trkpt lat="46.93889" lon="8.70307">
        <ele>1694</ele>
        <time>2021-08-06T12:02:52.612Z</time>
      </trkpt>
      <trkpt lat="46.93889" lon="8.70306">
        <ele>1693</ele>
        <time>2021-08-06T12:02:53.612Z</time>
      </trkpt>
      <trkpt lat="46.93889" lon="8.70305">
        <ele>1693</ele>
        <time>2021-08-06T12:02:54.612Z</time>
      </trkpt>
      <trkpt lat="46.93889" lon="8.70304">
        <ele>1693</ele>
        <time>2021-08-06T12:02:55.612Z</time>
      </trkpt>
      <trkpt lat="46.93889" lon="8.70302">
        <ele>1693</ele>
        <time>2021-08-06T12:02:56.612Z</time>
      </trkpt>
      <trkpt lat="46.93889" lon="8.70301">
        <ele>1693</ele>
        <time>2021-08-06T12:02:57.613Z</time>
      </trkpt>
      <trkpt lat="46.93889" lon="8.70301">
        <ele>1693</ele>
        <time>2021-08-06T12:02:58.612Z</time>
      </trkpt>
      <trkpt lat="46.9389" lon="8.703">
        <ele>1693</ele>
        <time>2021-08-06T12:02:59.612Z</time>
      </trkpt>
      <trkpt lat="46.93891" lon="8.70299">
        <ele>1693</ele>
        <time>2021-08-06T12:03:00.613Z</time>
      </trkpt>
      <trkpt lat="46.93892" lon="8.70298">
        <ele>1693</ele>
        <time>2021-08-06T12:03:01.613Z</time>
      </trkpt>
      <trkpt lat="46.93892" lon="8.70297">
        <ele>1693</ele>
        <time>2021-08-06T12:03:02.612Z</time>
      </trkpt>
      <trkpt lat="46.93892" lon="8.70296">
        <ele>1693</ele>
        <time>2021-08-06T12:03:03.612Z</time>
      </trkpt>
      <trkpt lat="46.93893" lon="8.70295">
        <ele>1694</ele>
        <time>2021-08-06T12:03:04.612Z</time>
      </trkpt>
      <trkpt lat="46.93892" lon="8.70293">
        <ele>1694</ele>
        <time>2021-08-06T12:03:07.750Z</time>
      </trkpt>
      <trkpt lat="46.93892" lon="8.70291">
        <ele>1694</ele>
        <time>2021-08-06T12:03:08.751Z</time>
      </trkpt>
      <trkpt lat="46.93891" lon="8.7029">
        <ele>1694</ele>
        <time>2021-08-06T12:03:09.750Z</time>
      </trkpt>
      <trkpt lat="46.93891" lon="8.70289">
        <ele>1693</ele>
        <time>2021-08-06T12:03:10.750Z</time>
      </trkpt>
      <trkpt lat="46.9389" lon="8.70288">
        <ele>1693</ele>
        <time>2021-08-06T12:03:11.751Z</time>
      </trkpt>
      <trkpt lat="46.9389" lon="8.70288">
        <ele>1692</ele>
        <time>2021-08-06T12:03:12.750Z</time>
      </trkpt>
      <trkpt lat="46.9389" lon="8.70287">
        <ele>1691</ele>
        <time>2021-08-06T12:03:13.750Z</time>
      </trkpt>
      <trkpt lat="46.9389" lon="8.70286">
        <ele>1691</ele>
        <time>2021-08-06T12:03:14.750Z</time>
      </trkpt>
      <trkpt lat="46.9389" lon="8.70286">
        <ele>1690</ele>
        <time>2021-08-06T12:03:15.750Z</time>
      </trkpt>
      <trkpt lat="46.93889" lon="8.70287">
        <ele>1689</ele>
        <time>2021-08-06T12:03:16.751Z</time>
      </trkpt>
      <trkpt lat="46.93889" lon="8.70287">
        <ele>1689</ele>
        <time>2021-08-06T12:03:17.751Z</time>
      </trkpt>
      <trkpt lat="46.93889" lon="8.70288">
        <ele>1688</ele>
        <time>2021-08-06T12:03:18.750Z</time>
      </trkpt>
      <trkpt lat="46.93888" lon="8.70287">
        <ele>1686</ele>
        <time>2021-08-06T12:03:19.750Z</time>
      </trkpt>
      <trkpt lat="46.93887" lon="8.70287">
        <ele>1686</ele>
        <time>2021-08-06T12:03:20.750Z</time>
      </trkpt>
      <trkpt lat="46.93888" lon="8.70287">
        <ele>1685</ele>
        <time>2021-08-06T12:03:21.750Z</time>
      </trkpt>
      <trkpt lat="46.93886" lon="8.70289">
        <ele>1683</ele>
        <time>2021-08-06T12:03:22.751Z</time>
      </trkpt>
      <trkpt lat="46.93885" lon="8.7029">
        <ele>1683</ele>
        <time>2021-08-06T12:03:23.750Z</time>
      </trkpt>
      <trkpt lat="46.93885" lon="8.7029">
        <ele>1682</ele>
        <time>2021-08-06T12:03:24.750Z</time>
      </trkpt>
      <trkpt lat="46.93886" lon="8.70287">
        <ele>1688</ele>
        <time>2021-08-06T12:03:25.751Z</time>
      </trkpt>
      <trkpt lat="46.93887" lon="8.70287">
        <ele>1688</ele>
        <time>2021-08-06T12:03:26.750Z</time>
      </trkpt>
      <trkpt lat="46.93888" lon="8.70286">
        <ele>1689</ele>
        <time>2021-08-06T12:03:27.750Z</time>
      </trkpt>
      <trkpt lat="46.93887" lon="8.70287">
        <ele>1689</ele>
        <time>2021-08-06T12:03:28.751Z</time>
      </trkpt>
      <trkpt lat="46.93887" lon="8.70287">
        <ele>1689</ele>
        <time>2021-08-06T12:03:29.751Z</time>
      </trkpt>
      <trkpt lat="46.93887" lon="8.70288">
        <ele>1689</ele>
        <time>2021-08-06T12:03:30.752Z</time>
      </trkpt>
      <trkpt lat="46.93886" lon="8.70287">
        <ele>1686</ele>
        <time>2021-08-06T12:03:31.751Z</time>
      </trkpt>
      <trkpt lat="46.93887" lon="8.70288">
        <ele>1687</ele>
        <time>2021-08-06T12:03:32.752Z</time>
      </trkpt>
      <trkpt lat="46.93887" lon="8.70287">
        <ele>1687</ele>
        <time>2021-08-06T12:03:33.751Z</time>
      </trkpt>
      <trkpt lat="46.93887" lon="8.70287">
        <ele>1687</ele>
        <time>2021-08-06T12:03:34.752Z</time>
      </trkpt>
      <trkpt lat="46.93887" lon="8.70287">
        <ele>1688</ele>
        <time>2021-08-06T12:03:35.752Z</time>
      </trkpt>
      <trkpt lat="46.93888" lon="8.70292">
        <ele>1684</ele>
        <time>2021-08-06T12:03:36.752Z</time>
      </trkpt>
      <trkpt lat="46.93888" lon="8.70294">
        <ele>1683</ele>
        <time>2021-08-06T12:03:37.753Z</time>
      </trkpt>
      <trkpt lat="46.93888" lon="8.70294">
        <ele>1682</ele>
        <time>2021-08-06T12:03:38.752Z</time>
      </trkpt>
      <trkpt lat="46.93886" lon="8.70294">
        <ele>1679</ele>
        <time>2021-08-06T12:03:39.752Z</time>
      </trkpt>
      <trkpt lat="46.93886" lon="8.70295">
        <ele>1678</ele>
        <time>2021-08-06T12:03:40.752Z</time>
      </trkpt>
      <trkpt lat="46.93887" lon="8.70293">
        <ele>1681</ele>
        <time>2021-08-06T12:03:41.754Z</time>
      </trkpt>
      <trkpt lat="46.93887" lon="8.70293">
        <ele>1682</ele>
        <time>2021-08-06T12:03:42.755Z</time>
      </trkpt>
      <trkpt lat="46.93887" lon="8.70293">
        <ele>1683</ele>
        <time>2021-08-06T12:03:43.754Z</time>
      </trkpt>
      <trkpt lat="46.9389" lon="8.70294">
        <ele>1691</ele>
        <time>2021-08-06T12:03:44.755Z</time>
      </trkpt>
      <trkpt lat="46.9389" lon="8.70294">
        <ele>1692</ele>
        <time>2021-08-06T12:03:45.755Z</time>
      </trkpt>
      <trkpt lat="46.93893" lon="8.70289">
        <ele>1695</ele>
        <time>2021-08-06T12:03:46.756Z</time>
      </trkpt>
      <trkpt lat="46.93891" lon="8.70288">
        <ele>1694</ele>
        <time>2021-08-06T12:03:47.755Z</time>
      </trkpt>
      <trkpt lat="46.9389" lon="8.70288">
        <ele>1693</ele>
        <time>2021-08-06T12:03:48.755Z</time>
      </trkpt>
      <trkpt lat="46.93889" lon="8.70287">
        <ele>1692</ele>
        <time>2021-08-06T12:03:49.756Z</time>
      </trkpt>
      <trkpt lat="46.93888" lon="8.70287">
        <ele>1691</ele>
        <time>2021-08-06T12:03:50.756Z</time>
      </trkpt>
      <trkpt lat="46.93887" lon="8.70286">
        <ele>1690</ele>
        <time>2021-08-06T12:03:51.756Z</time>
      </trkpt>
      <trkpt lat="46.93887" lon="8.70285">
        <ele>1690</ele>
        <time>2021-08-06T12:03:52.755Z</time>
      </trkpt>
      <trkpt lat="46.93886" lon="8.70284">
        <ele>1689</ele>
        <time>2021-08-06T12:03:53.755Z</time>
      </trkpt>
      <trkpt lat="46.93886" lon="8.70283">
        <ele>1688</ele>
        <time>2021-08-06T12:03:54.756Z</time>
      </trkpt>
      <trkpt lat="46.93885" lon="8.70282">
        <ele>1688</ele>
        <time>2021-08-06T12:03:55.756Z</time>
      </trkpt>
      <trkpt lat="46.93884" lon="8.70281">
        <ele>1687</ele>
        <time>2021-08-06T12:03:56.756Z</time>
      </trkpt>
      <trkpt lat="46.93883" lon="8.70281">
        <ele>1687</ele>
        <time>2021-08-06T12:03:57.756Z</time>
      </trkpt>
      <trkpt lat="46.93883" lon="8.7028">
        <ele>1687</ele>
        <time>2021-08-06T12:03:58.756Z</time>
      </trkpt>
      <trkpt lat="46.93882" lon="8.7028">
        <ele>1686</ele>
        <time>2021-08-06T12:03:59.755Z</time>
      </trkpt>
      <trkpt lat="46.93882" lon="8.70279">
        <ele>1686</ele>
        <time>2021-08-06T12:04:00.756Z</time>
      </trkpt>
      <trkpt lat="46.93881" lon="8.70277">
        <ele>1686</ele>
        <time>2021-08-06T12:04:01.756Z</time>
      </trkpt>
      <trkpt lat="46.93881" lon="8.70277">
        <ele>1686</ele>
        <time>2021-08-06T12:04:02.756Z</time>
      </trkpt>
      <trkpt lat="46.93881" lon="8.70276">
        <ele>1685</ele>
        <time>2021-08-06T12:04:03.756Z</time>
      </trkpt>
      <trkpt lat="46.9388" lon="8.70275">
        <ele>1686</ele>
        <time>2021-08-06T12:04:04.756Z</time>
      </trkpt>
      <trkpt lat="46.9388" lon="8.70274">
        <ele>1686</ele>
        <time>2021-08-06T12:04:05.756Z</time>
      </trkpt>
      <trkpt lat="46.9388" lon="8.70273">
        <ele>1686</ele>
        <time>2021-08-06T12:04:06.756Z</time>
      </trkpt>
      <trkpt lat="46.9388" lon="8.70273">
        <ele>1686</ele>
        <time>2021-08-06T12:04:07.756Z</time>
      </trkpt>
      <trkpt lat="46.9388" lon="8.70272">
        <ele>1686</ele>
        <time>2021-08-06T12:04:08.756Z</time>
      </trkpt>
      <trkpt lat="46.9388" lon="8.70271">
        <ele>1687</ele>
        <time>2021-08-06T12:04:09.755Z</time>
      </trkpt>
      <trkpt lat="46.93881" lon="8.70271">
        <ele>1687</ele>
        <time>2021-08-06T12:04:10.756Z</time>
      </trkpt>
      <trkpt lat="46.93881" lon="8.7027">
        <ele>1687</ele>
        <time>2021-08-06T12:04:11.756Z</time>
      </trkpt>
      <trkpt lat="46.93881" lon="8.7027">
        <ele>1687</ele>
        <time>2021-08-06T12:04:12.756Z</time>
      </trkpt>
      <trkpt lat="46.93881" lon="8.70269">
        <ele>1687</ele>
        <time>2021-08-06T12:04:13.756Z</time>
      </trkpt>
      <trkpt lat="46.93881" lon="8.70268">
        <ele>1687</ele>
        <time>2021-08-06T12:04:14.755Z</time>
      </trkpt>
      <trkpt lat="46.9388" lon="8.70267">
        <ele>1687</ele>
        <time>2021-08-06T12:04:15.756Z</time>
      </trkpt>
      <trkpt lat="46.9388" lon="8.70267">
        <ele>1688</ele>
        <time>2021-08-06T12:04:16.756Z</time>
      </trkpt>
      <trkpt lat="46.9388" lon="8.70266">
        <ele>1688</ele>
        <time>2021-08-06T12:04:17.756Z</time>
      </trkpt>
      <trkpt lat="46.9388" lon="8.70265">
        <ele>1689</ele>
        <time>2021-08-06T12:04:18.756Z</time>
      </trkpt>
      <trkpt lat="46.9388" lon="8.70264">
        <ele>1689</ele>
        <time>2021-08-06T12:04:19.755Z</time>
      </trkpt>
      <trkpt lat="46.93879" lon="8.70263">
        <ele>1690</ele>
        <time>2021-08-06T12:04:20.755Z</time>
      </trkpt>
      <trkpt lat="46.93879" lon="8.70261">
        <ele>1690</ele>
        <time>2021-08-06T12:04:21.755Z</time>
      </trkpt>
      <trkpt lat="46.93878" lon="8.70261">
        <ele>1690</ele>
        <time>2021-08-06T12:04:22.756Z</time>
      </trkpt>
      <trkpt lat="46.93877" lon="8.7026">
        <ele>1689</ele>
        <time>2021-08-06T12:04:23.756Z</time>
      </trkpt>
      <trkpt lat="46.93876" lon="8.70259">
        <ele>1689</ele>
        <time>2021-08-06T12:04:24.755Z</time>
      </trkpt>
      <trkpt lat="46.93875" lon="8.70258">
        <ele>1688</ele>
        <time>2021-08-06T12:04:25.756Z</time>
      </trkpt>
      <trkpt lat="46.93874" lon="8.70258">
        <ele>1688</ele>
        <time>2021-08-06T12:04:26.756Z</time>
      </trkpt>
      <trkpt lat="46.93873" lon="8.70257">
        <ele>1688</ele>
        <time>2021-08-06T12:04:27.756Z</time>
      </trkpt>
      <trkpt lat="46.93873" lon="8.70256">
        <ele>1688</ele>
        <time>2021-08-06T12:04:28.756Z</time>
      </trkpt>
      <trkpt lat="46.93872" lon="8.70256">
        <ele>1688</ele>
        <time>2021-08-06T12:04:29.755Z</time>
      </trkpt>
      <trkpt lat="46.93871" lon="8.70255">
        <ele>1688</ele>
        <time>2021-08-06T12:04:30.755Z</time>
      </trkpt>
      <trkpt lat="46.9387" lon="8.70254">
        <ele>1688</ele>
        <time>2021-08-06T12:04:31.755Z</time>
      </trkpt>
      <trkpt lat="46.93869" lon="8.70253">
        <ele>1688</ele>
        <time>2021-08-06T12:04:32.756Z</time>
      </trkpt>
      <trkpt lat="46.93868" lon="8.70252">
        <ele>1688</ele>
        <time>2021-08-06T12:04:33.756Z</time>
      </trkpt>
      <trkpt lat="46.93867" lon="8.70251">
        <ele>1689</ele>
        <time>2021-08-06T12:04:34.756Z</time>
      </trkpt>
      <trkpt lat="46.93866" lon="8.7025">
        <ele>1689</ele>
        <time>2021-08-06T12:04:35.755Z</time>
      </trkpt>
      <trkpt lat="46.93865" lon="8.70249">
        <ele>1689</ele>
        <time>2021-08-06T12:04:36.756Z</time>
      </trkpt>
      <trkpt lat="46.93865" lon="8.70249">
        <ele>1690</ele>
        <time>2021-08-06T12:04:37.755Z</time>
      </trkpt>
      <trkpt lat="46.93864" lon="8.70248">
        <ele>1690</ele>
        <time>2021-08-06T12:04:38.755Z</time>
      </trkpt>
      <trkpt lat="46.93863" lon="8.70247">
        <ele>1690</ele>
        <time>2021-08-06T12:04:39.756Z</time>
      </trkpt>
      <trkpt lat="46.93862" lon="8.70246">
        <ele>1690</ele>
        <time>2021-08-06T12:04:40.756Z</time>
      </trkpt>
      <trkpt lat="46.93862" lon="8.70245">
        <ele>1690</ele>
        <time>2021-08-06T12:04:41.755Z</time>
      </trkpt>
      <trkpt lat="46.93861" lon="8.70244">
        <ele>1690</ele>
        <time>2021-08-06T12:04:42.756Z</time>
      </trkpt>
      <trkpt lat="46.9386" lon="8.70242">
        <ele>1690</ele>
        <time>2021-08-06T12:04:43.756Z</time>
      </trkpt>
      <trkpt lat="46.9386" lon="8.70241">
        <ele>1690</ele>
        <time>2021-08-06T12:04:44.756Z</time>
      </trkpt>
      <trkpt lat="46.93859" lon="8.70241">
        <ele>1689</ele>
        <time>2021-08-06T12:04:45.756Z</time>
      </trkpt>
      <trkpt lat="46.93859" lon="8.7024">
        <ele>1689</ele>
        <time>2021-08-06T12:04:46.756Z</time>
      </trkpt>
      <trkpt lat="46.93858" lon="8.70238">
        <ele>1689</ele>
        <time>2021-08-06T12:04:47.756Z</time>
      </trkpt>
      <trkpt lat="46.93858" lon="8.70237">
        <ele>1689</ele>
        <time>2021-08-06T12:04:48.756Z</time>
      </trkpt>
      <trkpt lat="46.93858" lon="8.70236">
        <ele>1689</ele>
        <time>2021-08-06T12:04:49.756Z</time>
      </trkpt>
      <trkpt lat="46.93857" lon="8.70235">
        <ele>1689</ele>
        <time>2021-08-06T12:04:50.756Z</time>
      </trkpt>
      <trkpt lat="46.93856" lon="8.70234">
        <ele>1688</ele>
        <time>2021-08-06T12:04:51.756Z</time>
      </trkpt>
      <trkpt lat="46.93856" lon="8.70233">
        <ele>1688</ele>
        <time>2021-08-06T12:04:52.756Z</time>
      </trkpt>
      <trkpt lat="46.93856" lon="8.70231">
        <ele>1688</ele>
        <time>2021-08-06T12:04:53.755Z</time>
      </trkpt>
      <trkpt lat="46.93856" lon="8.7023">
        <ele>1689</ele>
        <time>2021-08-06T12:04:54.756Z</time>
      </trkpt>
      <trkpt lat="46.93856" lon="8.70229">
        <ele>1689</ele>
        <time>2021-08-06T12:04:55.755Z</time>
      </trkpt>
      <trkpt lat="46.93856" lon="8.70228">
        <ele>1689</ele>
        <time>2021-08-06T12:04:56.756Z</time>
      </trkpt>
      <trkpt lat="46.93856" lon="8.70227">
        <ele>1689</ele>
        <time>2021-08-06T12:04:57.755Z</time>
      </trkpt>
      <trkpt lat="46.93856" lon="8.70225">
        <ele>1690</ele>
        <time>2021-08-06T12:04:58.755Z</time>
      </trkpt>
      <trkpt lat="46.93856" lon="8.70224">
        <ele>1690</ele>
        <time>2021-08-06T12:04:59.755Z</time>
      </trkpt>
      <trkpt lat="46.93856" lon="8.70223">
        <ele>1690</ele>
        <time>2021-08-06T12:05:00.755Z</time>
      </trkpt>
      <trkpt lat="46.93856" lon="8.70222">
        <ele>1690</ele>
        <time>2021-08-06T12:05:01.756Z</time>
      </trkpt>
      <trkpt lat="46.93856" lon="8.70221">
        <ele>1691</ele>
        <time>2021-08-06T12:05:02.756Z</time>
      </trkpt>
      <trkpt lat="46.93857" lon="8.7022">
        <ele>1691</ele>
        <time>2021-08-06T12:05:03.756Z</time>
      </trkpt>
      <trkpt lat="46.93857" lon="8.70219">
        <ele>1692</ele>
        <time>2021-08-06T12:05:04.756Z</time>
      </trkpt>
      <trkpt lat="46.93857" lon="8.70218">
        <ele>1693</ele>
        <time>2021-08-06T12:05:05.755Z</time>
      </trkpt>
      <trkpt lat="46.93858" lon="8.70217">
        <ele>1693</ele>
        <time>2021-08-06T12:05:06.756Z</time>
      </trkpt>
      <trkpt lat="46.93858" lon="8.70216">
        <ele>1694</ele>
        <time>2021-08-06T12:05:07.756Z</time>
      </trkpt>
      <trkpt lat="46.93859" lon="8.70215">
        <ele>1694</ele>
        <time>2021-08-06T12:05:08.756Z</time>
      </trkpt>
      <trkpt lat="46.93859" lon="8.70214">
        <ele>1695</ele>
        <time>2021-08-06T12:05:09.756Z</time>
      </trkpt>
      <trkpt lat="46.93859" lon="8.70213">
        <ele>1695</ele>
        <time>2021-08-06T12:05:10.756Z</time>
      </trkpt>
      <trkpt lat="46.93859" lon="8.70212">
        <ele>1695</ele>
        <time>2021-08-06T12:05:11.756Z</time>
      </trkpt>
      <trkpt lat="46.9386" lon="8.70211">
        <ele>1695</ele>
        <time>2021-08-06T12:05:12.756Z</time>
      </trkpt>
      <trkpt lat="46.93861" lon="8.7021">
        <ele>1696</ele>
        <time>2021-08-06T12:05:13.756Z</time>
      </trkpt>
      <trkpt lat="46.93862" lon="8.70209">
        <ele>1697</ele>
        <time>2021-08-06T12:05:14.756Z</time>
      </trkpt>
      <trkpt lat="46.93863" lon="8.70209">
        <ele>1697</ele>
        <time>2021-08-06T12:05:15.755Z</time>
      </trkpt>
      <trkpt lat="46.93863" lon="8.70208">
        <ele>1697</ele>
        <time>2021-08-06T12:05:16.756Z</time>
      </trkpt>
      <trkpt lat="46.93863" lon="8.70208">
        <ele>1697</ele>
        <time>2021-08-06T12:05:17.755Z</time>
      </trkpt>
      <trkpt lat="46.93864" lon="8.70207">
        <ele>1697</ele>
        <time>2021-08-06T12:05:20.850Z</time>
      </trkpt>
      <trkpt lat="46.93864" lon="8.70206">
        <ele>1697</ele>
        <time>2021-08-06T12:05:21.850Z</time>
      </trkpt>
      <trkpt lat="46.93865" lon="8.70205">
        <ele>1697</ele>
        <time>2021-08-06T12:05:22.850Z</time>
      </trkpt>
      <trkpt lat="46.93867" lon="8.70205">
        <ele>1697</ele>
        <time>2021-08-06T12:05:23.850Z</time>
      </trkpt>
      <trkpt lat="46.93867" lon="8.70204">
        <ele>1697</ele>
        <time>2021-08-06T12:05:24.850Z</time>
      </trkpt>
      <trkpt lat="46.93868" lon="8.70203">
        <ele>1696</ele>
        <time>2021-08-06T12:05:26.986Z</time>
      </trkpt>
      <trkpt lat="46.93869" lon="8.70202">
        <ele>1696</ele>
        <time>2021-08-06T12:05:28.831Z</time>
      </trkpt>
      <trkpt lat="46.93869" lon="8.702">
        <ele>1696</ele>
        <time>2021-08-06T12:05:29.831Z</time>
      </trkpt>
      <trkpt lat="46.9387" lon="8.70199">
        <ele>1696</ele>
        <time>2021-08-06T12:05:30.831Z</time>
      </trkpt>
      <trkpt lat="46.93871" lon="8.70198">
        <ele>1695</ele>
        <time>2021-08-06T12:05:41.006Z</time>
      </trkpt>
      <trkpt lat="46.93871" lon="8.70197">
        <ele>1695</ele>
        <time>2021-08-06T12:05:42.006Z</time>
      </trkpt>
      <trkpt lat="46.93872" lon="8.70196">
        <ele>1695</ele>
        <time>2021-08-06T12:05:43.006Z</time>
      </trkpt>
      <trkpt lat="46.93872" lon="8.70195">
        <ele>1695</ele>
        <time>2021-08-06T12:05:44.006Z</time>
      </trkpt>
      <trkpt lat="46.93873" lon="8.70193">
        <ele>1696</ele>
        <time>2021-08-06T12:05:45.006Z</time>
      </trkpt>
      <trkpt lat="46.93873" lon="8.70192">
        <ele>1696</ele>
        <time>2021-08-06T12:05:46.006Z</time>
      </trkpt>
      <trkpt lat="46.93873" lon="8.7019">
        <ele>1696</ele>
        <time>2021-08-06T12:05:47.006Z</time>
      </trkpt>
      <trkpt lat="46.93873" lon="8.70189">
        <ele>1696</ele>
        <time>2021-08-06T12:05:53.113Z</time>
      </trkpt>
      <trkpt lat="46.93872" lon="8.70187">
        <ele>1696</ele>
        <time>2021-08-06T12:05:54.114Z</time>
      </trkpt>
      <trkpt lat="46.93871" lon="8.70185">
        <ele>1696</ele>
        <time>2021-08-06T12:05:55.114Z</time>
      </trkpt>
      <trkpt lat="46.9387" lon="8.70184">
        <ele>1696</ele>
        <time>2021-08-06T12:05:56.114Z</time>
      </trkpt>
      <trkpt lat="46.9387" lon="8.70182">
        <ele>1696</ele>
        <time>2021-08-06T12:05:57.114Z</time>
      </trkpt>
      <trkpt lat="46.93869" lon="8.70181">
        <ele>1696</ele>
        <time>2021-08-06T12:05:58.114Z</time>
      </trkpt>
      <trkpt lat="46.93869" lon="8.70179">
        <ele>1696</ele>
        <time>2021-08-06T12:06:08.254Z</time>
      </trkpt>
      <trkpt lat="46.93868" lon="8.70177">
        <ele>1696</ele>
        <time>2021-08-06T12:06:09.254Z</time>
      </trkpt>
      <trkpt lat="46.93868" lon="8.70175">
        <ele>1696</ele>
        <time>2021-08-06T12:06:10.254Z</time>
      </trkpt>
      <trkpt lat="46.93868" lon="8.70174">
        <ele>1695</ele>
        <time>2021-08-06T12:06:17.371Z</time>
      </trkpt>
      <trkpt lat="46.93868" lon="8.70173">
        <ele>1695</ele>
        <time>2021-08-06T12:06:18.370Z</time>
      </trkpt>
      <trkpt lat="46.93868" lon="8.70171">
        <ele>1695</ele>
        <time>2021-08-06T12:06:19.370Z</time>
      </trkpt>
      <trkpt lat="46.93868" lon="8.70169">
        <ele>1694</ele>
        <time>2021-08-06T12:06:20.371Z</time>
      </trkpt>
      <trkpt lat="46.93867" lon="8.70167">
        <ele>1694</ele>
        <time>2021-08-06T12:06:21.370Z</time>
      </trkpt>
      <trkpt lat="46.93868" lon="8.70165">
        <ele>1694</ele>
        <time>2021-08-06T12:06:25.519Z</time>
      </trkpt>
      <trkpt lat="46.93868" lon="8.70163">
        <ele>1694</ele>
        <time>2021-08-06T12:06:26.518Z</time>
      </trkpt>
      <trkpt lat="46.93868" lon="8.70162">
        <ele>1694</ele>
        <time>2021-08-06T12:06:27.518Z</time>
      </trkpt>
      <trkpt lat="46.93868" lon="8.7016">
        <ele>1694</ele>
        <time>2021-08-06T12:06:28.519Z</time>
      </trkpt>
      <trkpt lat="46.93869" lon="8.7016">
        <ele>1694</ele>
        <time>2021-08-06T12:06:29.518Z</time>
      </trkpt>
      <trkpt lat="46.93869" lon="8.70158">
        <ele>1695</ele>
        <time>2021-08-06T12:06:34.625Z</time>
      </trkpt>
      <trkpt lat="46.93869" lon="8.70156">
        <ele>1695</ele>
        <time>2021-08-06T12:06:35.626Z</time>
      </trkpt>
      <trkpt lat="46.9387" lon="8.70154">
        <ele>1695</ele>
        <time>2021-08-06T12:06:36.625Z</time>
      </trkpt>
      <trkpt lat="46.9387" lon="8.70153">
        <ele>1696</ele>
        <time>2021-08-06T12:06:37.625Z</time>
      </trkpt>
      <trkpt lat="46.93871" lon="8.70152">
        <ele>1697</ele>
        <time>2021-08-06T12:06:55.779Z</time>
      </trkpt>
      <trkpt lat="46.93872" lon="8.70151">
        <ele>1697</ele>
        <time>2021-08-06T12:06:56.779Z</time>
      </trkpt>
      <trkpt lat="46.93872" lon="8.70149">
        <ele>1698</ele>
        <time>2021-08-06T12:07:03.877Z</time>
      </trkpt>
      <trkpt lat="46.93873" lon="8.70148">
        <ele>1699</ele>
        <time>2021-08-06T12:07:04.877Z</time>
      </trkpt>
      <trkpt lat="46.93873" lon="8.70148">
        <ele>1699</ele>
        <time>2021-08-06T12:07:15.727Z</time>
      </trkpt>
      <trkpt lat="46.93873" lon="8.70146">
        <ele>1700</ele>
        <time>2021-08-06T12:07:16.728Z</time>
      </trkpt>
      <trkpt lat="46.93874" lon="8.70146">
        <ele>1701</ele>
        <time>2021-08-06T12:07:25.602Z</time>
      </trkpt>
      <trkpt lat="46.93875" lon="8.70145">
        <ele>1701</ele>
        <time>2021-08-06T12:07:26.601Z</time>
      </trkpt>
      <trkpt lat="46.93875" lon="8.70144">
        <ele>1701</ele>
        <time>2021-08-06T12:07:27.601Z</time>
      </trkpt>
      <trkpt lat="46.93874" lon="8.70143">
        <ele>1701</ele>
        <time>2021-08-06T12:07:42.728Z</time>
      </trkpt>
      <trkpt lat="46.93874" lon="8.70143">
        <ele>1701</ele>
        <time>2021-08-06T12:07:43.728Z</time>
      </trkpt>
      <trkpt lat="46.93873" lon="8.70142">
        <ele>1701</ele>
        <time>2021-08-06T12:07:44.728Z</time>
      </trkpt>
      <trkpt lat="46.93873" lon="8.7014">
        <ele>1701</ele>
        <time>2021-08-06T12:07:45.728Z</time>
      </trkpt>
      <trkpt lat="46.93873" lon="8.70139">
        <ele>1701</ele>
        <time>2021-08-06T12:07:46.728Z</time>
      </trkpt>
      <trkpt lat="46.93872" lon="8.70138">
        <ele>1701</ele>
        <time>2021-08-06T12:07:47.728Z</time>
      </trkpt>
      <trkpt lat="46.93872" lon="8.70137">
        <ele>1700</ele>
        <time>2021-08-06T12:07:48.728Z</time>
      </trkpt>
      <trkpt lat="46.93873" lon="8.70136">
        <ele>1700</ele>
        <time>2021-08-06T12:07:49.727Z</time>
      </trkpt>
      <trkpt lat="46.93873" lon="8.70135">
        <ele>1700</ele>
        <time>2021-08-06T12:07:50.728Z</time>
      </trkpt>
      <trkpt lat="46.93873" lon="8.70134">
        <ele>1699</ele>
        <time>2021-08-06T12:07:51.728Z</time>
      </trkpt>
      <trkpt lat="46.93873" lon="8.70133">
        <ele>1699</ele>
        <time>2021-08-06T12:07:52.728Z</time>
      </trkpt>
      <trkpt lat="46.93874" lon="8.70132">
        <ele>1699</ele>
        <time>2021-08-06T12:07:53.728Z</time>
      </trkpt>
      <trkpt lat="46.93874" lon="8.70131">
        <ele>1699</ele>
        <time>2021-08-06T12:08:18.710Z</time>
      </trkpt>
      <trkpt lat="46.93874" lon="8.7013">
        <ele>1699</ele>
        <time>2021-08-06T12:08:19.710Z</time>
      </trkpt>
      <trkpt lat="46.93874" lon="8.70128">
        <ele>1699</ele>
        <time>2021-08-06T12:08:26.584Z</time>
      </trkpt>
      <trkpt lat="46.93874" lon="8.70127">
        <ele>1699</ele>
        <time>2021-08-06T12:08:28.462Z</time>
      </trkpt>
      <trkpt lat="46.93874" lon="8.70126">
        <ele>1699</ele>
        <time>2021-08-06T12:08:34.390Z</time>
      </trkpt>
      <trkpt lat="46.93874" lon="8.70126">
        <ele>1700</ele>
        <time>2021-08-06T12:08:35.390Z</time>
      </trkpt>
      <trkpt lat="46.93874" lon="8.70125">
        <ele>1700</ele>
        <time>2021-08-06T12:08:36.390Z</time>
      </trkpt>
      <trkpt lat="46.93874" lon="8.70124">
        <ele>1700</ele>
        <time>2021-08-06T12:08:37.390Z</time>
      </trkpt>
      <trkpt lat="46.93874" lon="8.70123">
        <ele>1700</ele>
        <time>2021-08-06T12:08:38.390Z</time>
      </trkpt>
      <trkpt lat="46.93874" lon="8.70122">
        <ele>1700</ele>
        <time>2021-08-06T12:08:39.390Z</time>
      </trkpt>
      <trkpt lat="46.93874" lon="8.7012">
        <ele>1700</ele>
        <time>2021-08-06T12:08:40.389Z</time>
      </trkpt>
      <trkpt lat="46.93874" lon="8.70119">
        <ele>1700</ele>
        <time>2021-08-06T12:08:41.390Z</time>
      </trkpt>
      <trkpt lat="46.93874" lon="8.70118">
        <ele>1699</ele>
        <time>2021-08-06T12:08:42.390Z</time>
      </trkpt>
      <trkpt lat="46.93874" lon="8.70116">
        <ele>1699</ele>
        <time>2021-08-06T12:08:43.390Z</time>
      </trkpt>
      <trkpt lat="46.93874" lon="8.70115">
        <ele>1699</ele>
        <time>2021-08-06T12:08:44.390Z</time>
      </trkpt>
      <trkpt lat="46.93874" lon="8.70113">
        <ele>1699</ele>
        <time>2021-08-06T12:08:45.390Z</time>
      </trkpt>
      <trkpt lat="46.93873" lon="8.70113">
        <ele>1699</ele>
        <time>2021-08-06T12:08:46.390Z</time>
      </trkpt>
      <trkpt lat="46.93873" lon="8.70112">
        <ele>1699</ele>
        <time>2021-08-06T12:08:47.390Z</time>
      </trkpt>
      <trkpt lat="46.93872" lon="8.7011">
        <ele>1699</ele>
        <time>2021-08-06T12:08:48.390Z</time>
      </trkpt>
      <trkpt lat="46.93871" lon="8.70109">
        <ele>1699</ele>
        <time>2021-08-06T12:08:49.390Z</time>
      </trkpt>
      <trkpt lat="46.93871" lon="8.70107">
        <ele>1699</ele>
        <time>2021-08-06T12:08:50.389Z</time>
      </trkpt>
      <trkpt lat="46.93869" lon="8.70105">
        <ele>1698</ele>
        <time>2021-08-06T12:08:51.389Z</time>
      </trkpt>
      <trkpt lat="46.93868" lon="8.70103">
        <ele>1698</ele>
        <time>2021-08-06T12:08:52.390Z</time>
      </trkpt>
      <trkpt lat="46.93868" lon="8.70102">
        <ele>1698</ele>
        <time>2021-08-06T12:08:53.390Z</time>
      </trkpt>
      <trkpt lat="46.93867" lon="8.701">
        <ele>1698</ele>
        <time>2021-08-06T12:08:54.390Z</time>
      </trkpt>
      <trkpt lat="46.93867" lon="8.70099">
        <ele>1698</ele>
        <time>2021-08-06T12:08:55.390Z</time>
      </trkpt>
      <trkpt lat="46.93867" lon="8.70097">
        <ele>1698</ele>
        <time>2021-08-06T12:08:56.389Z</time>
      </trkpt>
      <trkpt lat="46.93866" lon="8.70095">
        <ele>1697</ele>
        <time>2021-08-06T12:08:57.390Z</time>
      </trkpt>
      <trkpt lat="46.93865" lon="8.70094">
        <ele>1697</ele>
        <time>2021-08-06T12:08:58.390Z</time>
      </trkpt>
      <trkpt lat="46.93866" lon="8.70093">
        <ele>1698</ele>
        <time>2021-08-06T12:08:59.390Z</time>
      </trkpt>
      <trkpt lat="46.93866" lon="8.70091">
        <ele>1698</ele>
        <time>2021-08-06T12:09:00.390Z</time>
      </trkpt>
      <trkpt lat="46.93866" lon="8.7009">
        <ele>1699</ele>
        <time>2021-08-06T12:09:01.389Z</time>
      </trkpt>
      <trkpt lat="46.93867" lon="8.70089">
        <ele>1699</ele>
        <time>2021-08-06T12:09:02.389Z</time>
      </trkpt>
      <trkpt lat="46.93866" lon="8.70088">
        <ele>1700</ele>
        <time>2021-08-06T12:09:03.390Z</time>
      </trkpt>
      <trkpt lat="46.93867" lon="8.70086">
        <ele>1700</ele>
        <time>2021-08-06T12:09:04.389Z</time>
      </trkpt>
      <trkpt lat="46.93867" lon="8.70084">
        <ele>1700</ele>
        <time>2021-08-06T12:09:05.390Z</time>
      </trkpt>
      <trkpt lat="46.93866" lon="8.70083">
        <ele>1700</ele>
        <time>2021-08-06T12:09:06.389Z</time>
      </trkpt>
      <trkpt lat="46.93866" lon="8.70081">
        <ele>1700</ele>
        <time>2021-08-06T12:09:07.390Z</time>
      </trkpt>
      <trkpt lat="46.93865" lon="8.70081">
        <ele>1699</ele>
        <time>2021-08-06T12:09:08.389Z</time>
      </trkpt>
      <trkpt lat="46.93865" lon="8.70079">
        <ele>1699</ele>
        <time>2021-08-06T12:09:09.390Z</time>
      </trkpt>
      <trkpt lat="46.93865" lon="8.70077">
        <ele>1698</ele>
        <time>2021-08-06T12:09:10.389Z</time>
      </trkpt>
      <trkpt lat="46.93865" lon="8.70075">
        <ele>1698</ele>
        <time>2021-08-06T12:09:11.390Z</time>
      </trkpt>
      <trkpt lat="46.93864" lon="8.70074">
        <ele>1697</ele>
        <time>2021-08-06T12:09:12.389Z</time>
      </trkpt>
      <trkpt lat="46.93865" lon="8.70072">
        <ele>1697</ele>
        <time>2021-08-06T12:09:13.389Z</time>
      </trkpt>
      <trkpt lat="46.93865" lon="8.70071">
        <ele>1696</ele>
        <time>2021-08-06T12:09:14.389Z</time>
      </trkpt>
      <trkpt lat="46.93864" lon="8.70069">
        <ele>1696</ele>
        <time>2021-08-06T12:09:15.390Z</time>
      </trkpt>
      <trkpt lat="46.93864" lon="8.70067">
        <ele>1696</ele>
        <time>2021-08-06T12:09:16.390Z</time>
      </trkpt>
      <trkpt lat="46.93864" lon="8.70066">
        <ele>1695</ele>
        <time>2021-08-06T12:09:17.390Z</time>
      </trkpt>
      <trkpt lat="46.93863" lon="8.70065">
        <ele>1695</ele>
        <time>2021-08-06T12:09:18.390Z</time>
      </trkpt>
      <trkpt lat="46.93862" lon="8.70065">
        <ele>1695</ele>
        <time>2021-08-06T12:09:20.489Z</time>
      </trkpt>
      <trkpt lat="46.93861" lon="8.70064">
        <ele>1696</ele>
        <time>2021-08-06T12:09:21.488Z</time>
      </trkpt>
      <trkpt lat="46.9386" lon="8.70063">
        <ele>1695</ele>
        <time>2021-08-06T12:09:22.488Z</time>
      </trkpt>
      <trkpt lat="46.93859" lon="8.70063">
        <ele>1695</ele>
        <time>2021-08-06T12:09:23.489Z</time>
      </trkpt>
      <trkpt lat="46.93858" lon="8.70062">
        <ele>1695</ele>
        <time>2021-08-06T12:09:24.489Z</time>
      </trkpt>
      <trkpt lat="46.93857" lon="8.70061">
        <ele>1695</ele>
        <time>2021-08-06T12:09:25.489Z</time>
      </trkpt>
      <trkpt lat="46.93856" lon="8.7006">
        <ele>1694</ele>
        <time>2021-08-06T12:09:26.488Z</time>
      </trkpt>
      <trkpt lat="46.93855" lon="8.70058">
        <ele>1693</ele>
        <time>2021-08-06T12:09:27.488Z</time>
      </trkpt>
      <trkpt lat="46.93854" lon="8.70057">
        <ele>1693</ele>
        <time>2021-08-06T12:09:28.488Z</time>
      </trkpt>
      <trkpt lat="46.93854" lon="8.70055">
        <ele>1693</ele>
        <time>2021-08-06T12:09:29.489Z</time>
      </trkpt>
      <trkpt lat="46.93853" lon="8.70055">
        <ele>1693</ele>
        <time>2021-08-06T12:09:30.489Z</time>
      </trkpt>
      <trkpt lat="46.93852" lon="8.70053">
        <ele>1692</ele>
        <time>2021-08-06T12:09:31.488Z</time>
      </trkpt>
      <trkpt lat="46.93851" lon="8.70052">
        <ele>1692</ele>
        <time>2021-08-06T12:09:32.489Z</time>
      </trkpt>
      <trkpt lat="46.9385" lon="8.70051">
        <ele>1692</ele>
        <time>2021-08-06T12:09:33.489Z</time>
      </trkpt>
      <trkpt lat="46.93849" lon="8.7005">
        <ele>1691</ele>
        <time>2021-08-06T12:09:34.489Z</time>
      </trkpt>
      <trkpt lat="46.93848" lon="8.7005">
        <ele>1691</ele>
        <time>2021-08-06T12:09:35.488Z</time>
      </trkpt>
      <trkpt lat="46.93847" lon="8.70049">
        <ele>1691</ele>
        <time>2021-08-06T12:09:36.489Z</time>
      </trkpt>
      <trkpt lat="46.93846" lon="8.70048">
        <ele>1690</ele>
        <time>2021-08-06T12:09:37.489Z</time>
      </trkpt>
      <trkpt lat="46.93846" lon="8.70047">
        <ele>1690</ele>
        <time>2021-08-06T12:09:38.488Z</time>
      </trkpt>
      <trkpt lat="46.93847" lon="8.70045">
        <ele>1689</ele>
        <time>2021-08-06T12:09:39.489Z</time>
      </trkpt>
      <trkpt lat="46.93847" lon="8.70044">
        <ele>1689</ele>
        <time>2021-08-06T12:09:40.489Z</time>
      </trkpt>
      <trkpt lat="46.93847" lon="8.70042">
        <ele>1689</ele>
        <time>2021-08-06T12:09:41.488Z</time>
      </trkpt>
      <trkpt lat="46.93847" lon="8.7004">
        <ele>1689</ele>
        <time>2021-08-06T12:09:42.489Z</time>
      </trkpt>
      <trkpt lat="46.93847" lon="8.70038">
        <ele>1689</ele>
        <time>2021-08-06T12:09:43.488Z</time>
      </trkpt>
      <trkpt lat="46.93847" lon="8.70036">
        <ele>1689</ele>
        <time>2021-08-06T12:09:44.488Z</time>
      </trkpt>
      <trkpt lat="46.93847" lon="8.70035">
        <ele>1689</ele>
        <time>2021-08-06T12:09:45.489Z</time>
      </trkpt>
      <trkpt lat="46.93847" lon="8.70033">
        <ele>1689</ele>
        <time>2021-08-06T12:09:46.489Z</time>
      </trkpt>
      <trkpt lat="46.93847" lon="8.70032">
        <ele>1690</ele>
        <time>2021-08-06T12:09:47.489Z</time>
      </trkpt>
      <trkpt lat="46.93847" lon="8.70031">
        <ele>1690</ele>
        <time>2021-08-06T12:09:48.488Z</time>
      </trkpt>
      <trkpt lat="46.93846" lon="8.7003">
        <ele>1690</ele>
        <time>2021-08-06T12:09:49.488Z</time>
      </trkpt>
      <trkpt lat="46.93846" lon="8.70029">
        <ele>1690</ele>
        <time>2021-08-06T12:09:50.489Z</time>
      </trkpt>
      <trkpt lat="46.93846" lon="8.70027">
        <ele>1690</ele>
        <time>2021-08-06T12:09:51.489Z</time>
      </trkpt>
      <trkpt lat="46.93846" lon="8.70026">
        <ele>1690</ele>
        <time>2021-08-06T12:09:52.489Z</time>
      </trkpt>
      <trkpt lat="46.93846" lon="8.70025">
        <ele>1690</ele>
        <time>2021-08-06T12:09:53.488Z</time>
      </trkpt>
      <trkpt lat="46.93847" lon="8.70024">
        <ele>1690</ele>
        <time>2021-08-06T12:09:54.489Z</time>
      </trkpt>
      <trkpt lat="46.93847" lon="8.70022">
        <ele>1691</ele>
        <time>2021-08-06T12:09:55.489Z</time>
      </trkpt>
      <trkpt lat="46.93847" lon="8.70021">
        <ele>1691</ele>
        <time>2021-08-06T12:09:56.489Z</time>
      </trkpt>
      <trkpt lat="46.93849" lon="8.7002">
        <ele>1692</ele>
        <time>2021-08-06T12:09:57.488Z</time>
      </trkpt>
      <trkpt lat="46.93849" lon="8.70019">
        <ele>1692</ele>
        <time>2021-08-06T12:09:58.488Z</time>
      </trkpt>
      <trkpt lat="46.93849" lon="8.70017">
        <ele>1692</ele>
        <time>2021-08-06T12:09:59.488Z</time>
      </trkpt>
      <trkpt lat="46.93849" lon="8.70016">
        <ele>1692</ele>
        <time>2021-08-06T12:10:00.488Z</time>
      </trkpt>
      <trkpt lat="46.93849" lon="8.70014">
        <ele>1692</ele>
        <time>2021-08-06T12:10:01.488Z</time>
      </trkpt>
      <trkpt lat="46.93849" lon="8.70013">
        <ele>1692</ele>
        <time>2021-08-06T12:10:02.488Z</time>
      </trkpt>
      <trkpt lat="46.93848" lon="8.70011">
        <ele>1693</ele>
        <time>2021-08-06T12:10:03.488Z</time>
      </trkpt>
      <trkpt lat="46.93848" lon="8.70009">
        <ele>1693</ele>
        <time>2021-08-06T12:10:04.488Z</time>
      </trkpt>
      <trkpt lat="46.93847" lon="8.70007">
        <ele>1693</ele>
        <time>2021-08-06T12:10:05.488Z</time>
      </trkpt>
      <trkpt lat="46.93847" lon="8.70006">
        <ele>1693</ele>
        <time>2021-08-06T12:10:06.488Z</time>
      </trkpt>
      <trkpt lat="46.93847" lon="8.70004">
        <ele>1693</ele>
        <time>2021-08-06T12:10:07.488Z</time>
      </trkpt>
      <trkpt lat="46.93846" lon="8.70003">
        <ele>1693</ele>
        <time>2021-08-06T12:10:08.488Z</time>
      </trkpt>
      <trkpt lat="46.93846" lon="8.70001">
        <ele>1692</ele>
        <time>2021-08-06T12:10:09.488Z</time>
      </trkpt>
      <trkpt lat="46.93846" lon="8.7">
        <ele>1692</ele>
        <time>2021-08-06T12:10:10.489Z</time>
      </trkpt>
      <trkpt lat="46.93845" lon="8.69999">
        <ele>1691</ele>
        <time>2021-08-06T12:10:11.489Z</time>
      </trkpt>
      <trkpt lat="46.93844" lon="8.69997">
        <ele>1691</ele>
        <time>2021-08-06T12:10:12.488Z</time>
      </trkpt>
      <trkpt lat="46.93844" lon="8.69996">
        <ele>1690</ele>
        <time>2021-08-06T12:10:13.489Z</time>
      </trkpt>
      <trkpt lat="46.93843" lon="8.69995">
        <ele>1689</ele>
        <time>2021-08-06T12:10:14.489Z</time>
      </trkpt>
      <trkpt lat="46.93843" lon="8.69995">
        <ele>1689</ele>
        <time>2021-08-06T12:10:15.489Z</time>
      </trkpt>
      <trkpt lat="46.93843" lon="8.69994">
        <ele>1689</ele>
        <time>2021-08-06T12:10:16.489Z</time>
      </trkpt>
      <trkpt lat="46.93842" lon="8.69993">
        <ele>1688</ele>
        <time>2021-08-06T12:10:17.489Z</time>
      </trkpt>
      <trkpt lat="46.93842" lon="8.69991">
        <ele>1688</ele>
        <time>2021-08-06T12:10:18.488Z</time>
      </trkpt>
      <trkpt lat="46.93841" lon="8.69989">
        <ele>1688</ele>
        <time>2021-08-06T12:10:19.489Z</time>
      </trkpt>
      <trkpt lat="46.9384" lon="8.69988">
        <ele>1688</ele>
        <time>2021-08-06T12:10:20.488Z</time>
      </trkpt>
      <trkpt lat="46.9384" lon="8.69986">
        <ele>1687</ele>
        <time>2021-08-06T12:10:21.488Z</time>
      </trkpt>
      <trkpt lat="46.93839" lon="8.69985">
        <ele>1687</ele>
        <time>2021-08-06T12:10:22.489Z</time>
      </trkpt>
      <trkpt lat="46.93839" lon="8.69984">
        <ele>1688</ele>
        <time>2021-08-06T12:10:23.489Z</time>
      </trkpt>
      <trkpt lat="46.93838" lon="8.69983">
        <ele>1688</ele>
        <time>2021-08-06T12:10:24.489Z</time>
      </trkpt>
      <trkpt lat="46.93838" lon="8.69982">
        <ele>1688</ele>
        <time>2021-08-06T12:10:25.488Z</time>
      </trkpt>
      <trkpt lat="46.93838" lon="8.69981">
        <ele>1689</ele>
        <time>2021-08-06T12:10:26.488Z</time>
      </trkpt>
      <trkpt lat="46.93837" lon="8.6998">
        <ele>1689</ele>
        <time>2021-08-06T12:10:27.489Z</time>
      </trkpt>
      <trkpt lat="46.93837" lon="8.69978">
        <ele>1690</ele>
        <time>2021-08-06T12:10:28.488Z</time>
      </trkpt>
      <trkpt lat="46.93837" lon="8.69976">
        <ele>1690</ele>
        <time>2021-08-06T12:10:29.489Z</time>
      </trkpt>
      <trkpt lat="46.93837" lon="8.69974">
        <ele>1690</ele>
        <time>2021-08-06T12:10:30.489Z</time>
      </trkpt>
      <trkpt lat="46.93837" lon="8.69972">
        <ele>1691</ele>
        <time>2021-08-06T12:10:31.489Z</time>
      </trkpt>
      <trkpt lat="46.93837" lon="8.6997">
        <ele>1691</ele>
        <time>2021-08-06T12:10:32.489Z</time>
      </trkpt>
      <trkpt lat="46.93837" lon="8.69969">
        <ele>1691</ele>
        <time>2021-08-06T12:10:33.489Z</time>
      </trkpt>
      <trkpt lat="46.93837" lon="8.69967">
        <ele>1690</ele>
        <time>2021-08-06T12:10:34.489Z</time>
      </trkpt>
      <trkpt lat="46.93837" lon="8.69966">
        <ele>1690</ele>
        <time>2021-08-06T12:10:35.489Z</time>
      </trkpt>
      <trkpt lat="46.93836" lon="8.69964">
        <ele>1690</ele>
        <time>2021-08-06T12:10:36.488Z</time>
      </trkpt>
      <trkpt lat="46.93836" lon="8.69963">
        <ele>1690</ele>
        <time>2021-08-06T12:10:37.488Z</time>
      </trkpt>
      <trkpt lat="46.93836" lon="8.69961">
        <ele>1689</ele>
        <time>2021-08-06T12:10:38.489Z</time>
      </trkpt>
      <trkpt lat="46.93837" lon="8.69959">
        <ele>1688</ele>
        <time>2021-08-06T12:10:39.489Z</time>
      </trkpt>
      <trkpt lat="46.93837" lon="8.69957">
        <ele>1688</ele>
        <time>2021-08-06T12:10:40.488Z</time>
      </trkpt>
      <trkpt lat="46.93837" lon="8.69955">
        <ele>1687</ele>
        <time>2021-08-06T12:10:41.488Z</time>
      </trkpt>
      <trkpt lat="46.93838" lon="8.69954">
        <ele>1687</ele>
        <time>2021-08-06T12:10:42.489Z</time>
      </trkpt>
      <trkpt lat="46.93838" lon="8.69953">
        <ele>1687</ele>
        <time>2021-08-06T12:10:43.489Z</time>
      </trkpt>
      <trkpt lat="46.93839" lon="8.69951">
        <ele>1687</ele>
        <time>2021-08-06T12:10:48.475Z</time>
      </trkpt>
      <trkpt lat="46.9384" lon="8.69949">
        <ele>1687</ele>
        <time>2021-08-06T12:10:49.474Z</time>
      </trkpt>
      <trkpt lat="46.9384" lon="8.69948">
        <ele>1686</ele>
        <time>2021-08-06T12:10:50.475Z</time>
      </trkpt>
      <trkpt lat="46.9384" lon="8.69946">
        <ele>1686</ele>
        <time>2021-08-06T12:10:58.650Z</time>
      </trkpt>
      <trkpt lat="46.9384" lon="8.69945">
        <ele>1686</ele>
        <time>2021-08-06T12:10:59.650Z</time>
      </trkpt>
      <trkpt lat="46.93841" lon="8.69943">
        <ele>1685</ele>
        <time>2021-08-06T12:11:00.650Z</time>
      </trkpt>
      <trkpt lat="46.93841" lon="8.69941">
        <ele>1685</ele>
        <time>2021-08-06T12:11:01.650Z</time>
      </trkpt>
      <trkpt lat="46.93842" lon="8.6994">
        <ele>1685</ele>
        <time>2021-08-06T12:11:02.649Z</time>
      </trkpt>
      <trkpt lat="46.93842" lon="8.69938">
        <ele>1685</ele>
        <time>2021-08-06T12:11:03.649Z</time>
      </trkpt>
      <trkpt lat="46.93842" lon="8.69936">
        <ele>1684</ele>
        <time>2021-08-06T12:11:04.650Z</time>
      </trkpt>
      <trkpt lat="46.93841" lon="8.69935">
        <ele>1684</ele>
        <time>2021-08-06T12:11:05.650Z</time>
      </trkpt>
      <trkpt lat="46.93841" lon="8.69933">
        <ele>1684</ele>
        <time>2021-08-06T12:11:06.650Z</time>
      </trkpt>
      <trkpt lat="46.93841" lon="8.69931">
        <ele>1683</ele>
        <time>2021-08-06T12:11:07.650Z</time>
      </trkpt>
      <trkpt lat="46.9384" lon="8.6993">
        <ele>1683</ele>
        <time>2021-08-06T12:11:08.650Z</time>
      </trkpt>
      <trkpt lat="46.9384" lon="8.69928">
        <ele>1683</ele>
        <time>2021-08-06T12:11:09.650Z</time>
      </trkpt>
      <trkpt lat="46.93839" lon="8.69927">
        <ele>1682</ele>
        <time>2021-08-06T12:11:10.650Z</time>
      </trkpt>
      <trkpt lat="46.93839" lon="8.69926">
        <ele>1681</ele>
        <time>2021-08-06T12:11:11.650Z</time>
      </trkpt>
      <trkpt lat="46.93838" lon="8.69924">
        <ele>1681</ele>
        <time>2021-08-06T12:11:12.650Z</time>
      </trkpt>
      <trkpt lat="46.93838" lon="8.69923">
        <ele>1681</ele>
        <time>2021-08-06T12:11:13.650Z</time>
      </trkpt>
      <trkpt lat="46.93837" lon="8.69922">
        <ele>1682</ele>
        <time>2021-08-06T12:11:14.649Z</time>
      </trkpt>
      <trkpt lat="46.93837" lon="8.69922">
        <ele>1682</ele>
        <time>2021-08-06T12:11:15.649Z</time>
      </trkpt>
      <trkpt lat="46.93836" lon="8.69922">
        <ele>1682</ele>
        <time>2021-08-06T12:11:16.649Z</time>
      </trkpt>
      <trkpt lat="46.93836" lon="8.6992">
        <ele>1680</ele>
        <time>2021-08-06T12:11:17.651Z</time>
      </trkpt>
      <trkpt lat="46.93836" lon="8.69918">
        <ele>1681</ele>
        <time>2021-08-06T12:11:18.650Z</time>
      </trkpt>
      <trkpt lat="46.93836" lon="8.69916">
        <ele>1681</ele>
        <time>2021-08-06T12:11:19.651Z</time>
      </trkpt>
      <trkpt lat="46.93836" lon="8.69914">
        <ele>1682</ele>
        <time>2021-08-06T12:11:20.650Z</time>
      </trkpt>
      <trkpt lat="46.93835" lon="8.69912">
        <ele>1682</ele>
        <time>2021-08-06T12:11:21.650Z</time>
      </trkpt>
      <trkpt lat="46.93835" lon="8.6991">
        <ele>1682</ele>
        <time>2021-08-06T12:11:22.651Z</time>
      </trkpt>
      <trkpt lat="46.93835" lon="8.69909">
        <ele>1682</ele>
        <time>2021-08-06T12:11:23.651Z</time>
      </trkpt>
      <trkpt lat="46.93835" lon="8.69907">
        <ele>1682</ele>
        <time>2021-08-06T12:11:24.651Z</time>
      </trkpt>
      <trkpt lat="46.93834" lon="8.69906">
        <ele>1681</ele>
        <time>2021-08-06T12:11:25.651Z</time>
      </trkpt>
      <trkpt lat="46.93834" lon="8.69905">
        <ele>1681</ele>
        <time>2021-08-06T12:11:26.651Z</time>
      </trkpt>
      <trkpt lat="46.93834" lon="8.69903">
        <ele>1681</ele>
        <time>2021-08-06T12:11:27.651Z</time>
      </trkpt>
      <trkpt lat="46.93833" lon="8.69902">
        <ele>1680</ele>
        <time>2021-08-06T12:11:28.651Z</time>
      </trkpt>
      <trkpt lat="46.93833" lon="8.69902">
        <ele>1680</ele>
        <time>2021-08-06T12:11:29.651Z</time>
      </trkpt>
      <trkpt lat="46.93832" lon="8.69901">
        <ele>1679</ele>
        <time>2021-08-06T12:11:30.650Z</time>
      </trkpt>
      <trkpt lat="46.93832" lon="8.69901">
        <ele>1678</ele>
        <time>2021-08-06T12:11:31.650Z</time>
      </trkpt>
      <trkpt lat="46.93831" lon="8.69901">
        <ele>1677</ele>
        <time>2021-08-06T12:11:32.650Z</time>
      </trkpt>
      <trkpt lat="46.9383" lon="8.69901">
        <ele>1676</ele>
        <time>2021-08-06T12:11:33.652Z</time>
      </trkpt>
      <trkpt lat="46.93829" lon="8.699">
        <ele>1676</ele>
        <time>2021-08-06T12:11:34.651Z</time>
      </trkpt>
      <trkpt lat="46.93828" lon="8.69898">
        <ele>1677</ele>
        <time>2021-08-06T12:11:35.651Z</time>
      </trkpt>
      <trkpt lat="46.93827" lon="8.69897">
        <ele>1677</ele>
        <time>2021-08-06T12:11:36.651Z</time>
      </trkpt>
      <trkpt lat="46.93826" lon="8.69895">
        <ele>1677</ele>
        <time>2021-08-06T12:11:37.652Z</time>
      </trkpt>
      <trkpt lat="46.93826" lon="8.69895">
        <ele>1678</ele>
        <time>2021-08-06T12:11:38.652Z</time>
      </trkpt>
      <trkpt lat="46.93825" lon="8.69894">
        <ele>1678</ele>
        <time>2021-08-06T12:11:39.652Z</time>
      </trkpt>
      <trkpt lat="46.93824" lon="8.69894">
        <ele>1678</ele>
        <time>2021-08-06T12:11:40.652Z</time>
      </trkpt>
      <trkpt lat="46.93823" lon="8.69893">
        <ele>1678</ele>
        <time>2021-08-06T12:11:41.652Z</time>
      </trkpt>
      <trkpt lat="46.93823" lon="8.69893">
        <ele>1678</ele>
        <time>2021-08-06T12:11:42.652Z</time>
      </trkpt>
      <trkpt lat="46.93823" lon="8.69893">
        <ele>1678</ele>
        <time>2021-08-06T12:11:43.651Z</time>
      </trkpt>
      <trkpt lat="46.93822" lon="8.69892">
        <ele>1678</ele>
        <time>2021-08-06T12:11:44.651Z</time>
      </trkpt>
      <trkpt lat="46.93822" lon="8.69891">
        <ele>1678</ele>
        <time>2021-08-06T12:11:45.651Z</time>
      </trkpt>
      <trkpt lat="46.93822" lon="8.6989">
        <ele>1678</ele>
        <time>2021-08-06T12:11:46.651Z</time>
      </trkpt>
      <trkpt lat="46.93822" lon="8.69889">
        <ele>1678</ele>
        <time>2021-08-06T12:11:47.652Z</time>
      </trkpt>
      <trkpt lat="46.93822" lon="8.69887">
        <ele>1678</ele>
        <time>2021-08-06T12:11:48.651Z</time>
      </trkpt>
      <trkpt lat="46.93822" lon="8.69886">
        <ele>1677</ele>
        <time>2021-08-06T12:11:49.652Z</time>
      </trkpt>
      <trkpt lat="46.93822" lon="8.69885">
        <ele>1677</ele>
        <time>2021-08-06T12:11:50.652Z</time>
      </trkpt>
      <trkpt lat="46.93822" lon="8.69883">
        <ele>1677</ele>
        <time>2021-08-06T12:11:51.652Z</time>
      </trkpt>
      <trkpt lat="46.93822" lon="8.69882">
        <ele>1676</ele>
        <time>2021-08-06T12:11:52.652Z</time>
      </trkpt>
      <trkpt lat="46.93821" lon="8.6988">
        <ele>1676</ele>
        <time>2021-08-06T12:11:53.652Z</time>
      </trkpt>
      <trkpt lat="46.93821" lon="8.69879">
        <ele>1676</ele>
        <time>2021-08-06T12:11:54.651Z</time>
      </trkpt>
      <trkpt lat="46.93821" lon="8.69877">
        <ele>1676</ele>
        <time>2021-08-06T12:11:55.651Z</time>
      </trkpt>
      <trkpt lat="46.9382" lon="8.69876">
        <ele>1676</ele>
        <time>2021-08-06T12:11:56.651Z</time>
      </trkpt>
      <trkpt lat="46.9382" lon="8.69875">
        <ele>1676</ele>
        <time>2021-08-06T12:11:57.651Z</time>
      </trkpt>
      <trkpt lat="46.93819" lon="8.69873">
        <ele>1676</ele>
        <time>2021-08-06T12:11:58.652Z</time>
      </trkpt>
      <trkpt lat="46.93819" lon="8.69871">
        <ele>1676</ele>
        <time>2021-08-06T12:11:59.651Z</time>
      </trkpt>
      <trkpt lat="46.93819" lon="8.6987">
        <ele>1676</ele>
        <time>2021-08-06T12:12:00.652Z</time>
      </trkpt>
      <trkpt lat="46.93818" lon="8.69868">
        <ele>1676</ele>
        <time>2021-08-06T12:12:01.651Z</time>
      </trkpt>
      <trkpt lat="46.93817" lon="8.69867">
        <ele>1676</ele>
        <time>2021-08-06T12:12:02.651Z</time>
      </trkpt>
      <trkpt lat="46.93816" lon="8.69865">
        <ele>1675</ele>
        <time>2021-08-06T12:12:03.651Z</time>
      </trkpt>
      <trkpt lat="46.93815" lon="8.69864">
        <ele>1675</ele>
        <time>2021-08-06T12:12:04.651Z</time>
      </trkpt>
      <trkpt lat="46.93815" lon="8.69862">
        <ele>1674</ele>
        <time>2021-08-06T12:12:05.651Z</time>
      </trkpt>
      <trkpt lat="46.93815" lon="8.69861">
        <ele>1673</ele>
        <time>2021-08-06T12:12:06.651Z</time>
      </trkpt>
      <trkpt lat="46.93814" lon="8.6986">
        <ele>1672</ele>
        <time>2021-08-06T12:12:07.651Z</time>
      </trkpt>
      <trkpt lat="46.93814" lon="8.69859">
        <ele>1672</ele>
        <time>2021-08-06T12:12:08.651Z</time>
      </trkpt>
      <trkpt lat="46.93813" lon="8.69858">
        <ele>1671</ele>
        <time>2021-08-06T12:12:09.651Z</time>
      </trkpt>
      <trkpt lat="46.93812" lon="8.69857">
        <ele>1671</ele>
        <time>2021-08-06T12:12:10.651Z</time>
      </trkpt>
      <trkpt lat="46.93811" lon="8.69856">
        <ele>1671</ele>
        <time>2021-08-06T12:12:11.651Z</time>
      </trkpt>
      <trkpt lat="46.93811" lon="8.69855">
        <ele>1670</ele>
        <time>2021-08-06T12:12:12.651Z</time>
      </trkpt>
      <trkpt lat="46.9381" lon="8.69855">
        <ele>1670</ele>
        <time>2021-08-06T12:12:13.652Z</time>
      </trkpt>
      <trkpt lat="46.93809" lon="8.69854">
        <ele>1670</ele>
        <time>2021-08-06T12:12:14.651Z</time>
      </trkpt>
      <trkpt lat="46.93808" lon="8.69853">
        <ele>1669</ele>
        <time>2021-08-06T12:12:15.651Z</time>
      </trkpt>
      <trkpt lat="46.93807" lon="8.69852">
        <ele>1669</ele>
        <time>2021-08-06T12:12:16.652Z</time>
      </trkpt>
      <trkpt lat="46.93806" lon="8.69851">
        <ele>1670</ele>
        <time>2021-08-06T12:12:17.651Z</time>
      </trkpt>
      <trkpt lat="46.93805" lon="8.6985">
        <ele>1669</ele>
        <time>2021-08-06T12:12:18.652Z</time>
      </trkpt>
      <trkpt lat="46.93805" lon="8.69849">
        <ele>1669</ele>
        <time>2021-08-06T12:12:19.652Z</time>
      </trkpt>
      <trkpt lat="46.93804" lon="8.69848">
        <ele>1668</ele>
        <time>2021-08-06T12:12:20.651Z</time>
      </trkpt>
      <trkpt lat="46.93804" lon="8.69847">
        <ele>1668</ele>
        <time>2021-08-06T12:12:21.651Z</time>
      </trkpt>
      <trkpt lat="46.93804" lon="8.69845">
        <ele>1668</ele>
        <time>2021-08-06T12:12:22.652Z</time>
      </trkpt>
      <trkpt lat="46.93804" lon="8.69843">
        <ele>1668</ele>
        <time>2021-08-06T12:12:23.652Z</time>
      </trkpt>
      <trkpt lat="46.93804" lon="8.69841">
        <ele>1668</ele>
        <time>2021-08-06T12:12:24.652Z</time>
      </trkpt>
      <trkpt lat="46.93804" lon="8.69839">
        <ele>1668</ele>
        <time>2021-08-06T12:12:25.651Z</time>
      </trkpt>
      <trkpt lat="46.93804" lon="8.69838">
        <ele>1668</ele>
        <time>2021-08-06T12:12:26.652Z</time>
      </trkpt>
      <trkpt lat="46.93804" lon="8.69836">
        <ele>1668</ele>
        <time>2021-08-06T12:12:27.652Z</time>
      </trkpt>
      <trkpt lat="46.93804" lon="8.69835">
        <ele>1668</ele>
        <time>2021-08-06T12:12:28.651Z</time>
      </trkpt>
      <trkpt lat="46.93804" lon="8.69835">
        <ele>1668</ele>
        <time>2021-08-06T12:12:29.652Z</time>
      </trkpt>
      <trkpt lat="46.93804" lon="8.69836">
        <ele>1668</ele>
        <time>2021-08-06T12:12:30.652Z</time>
      </trkpt>
      <trkpt lat="46.93805" lon="8.69838">
        <ele>1668</ele>
        <time>2021-08-06T12:12:31.652Z</time>
      </trkpt>
      <trkpt lat="46.93805" lon="8.6984">
        <ele>1667</ele>
        <time>2021-08-06T12:12:32.652Z</time>
      </trkpt>
      <trkpt lat="46.93805" lon="8.69841">
        <ele>1667</ele>
        <time>2021-08-06T12:12:33.652Z</time>
      </trkpt>
      <trkpt lat="46.93806" lon="8.6984">
        <ele>1667</ele>
        <time>2021-08-06T12:12:34.652Z</time>
      </trkpt>
      <trkpt lat="46.93807" lon="8.69839">
        <ele>1667</ele>
        <time>2021-08-06T12:12:35.651Z</time>
      </trkpt>
      <trkpt lat="46.93807" lon="8.69839">
        <ele>1667</ele>
        <time>2021-08-06T12:12:36.651Z</time>
      </trkpt>
      <trkpt lat="46.93807" lon="8.69839">
        <ele>1667</ele>
        <time>2021-08-06T12:12:37.652Z</time>
      </trkpt>
      <trkpt lat="46.93807" lon="8.69838">
        <ele>1667</ele>
        <time>2021-08-06T12:12:38.652Z</time>
      </trkpt>
      <trkpt lat="46.93807" lon="8.69838">
        <ele>1667</ele>
        <time>2021-08-06T12:12:39.652Z</time>
      </trkpt>
      <trkpt lat="46.93806" lon="8.69838">
        <ele>1667</ele>
        <time>2021-08-06T12:12:40.651Z</time>
      </trkpt>
      <trkpt lat="46.93806" lon="8.69838">
        <ele>1667</ele>
        <time>2021-08-06T12:12:41.652Z</time>
      </trkpt>
      <trkpt lat="46.93805" lon="8.69837">
        <ele>1668</ele>
        <time>2021-08-06T12:12:42.652Z</time>
      </trkpt>
      <trkpt lat="46.93805" lon="8.69836">
        <ele>1668</ele>
        <time>2021-08-06T12:12:43.651Z</time>
      </trkpt>
      <trkpt lat="46.93805" lon="8.69835">
        <ele>1668</ele>
        <time>2021-08-06T12:12:44.651Z</time>
      </trkpt>
      <trkpt lat="46.93805" lon="8.69833">
        <ele>1669</ele>
        <time>2021-08-06T12:12:45.652Z</time>
      </trkpt>
      <trkpt lat="46.93806" lon="8.69833">
        <ele>1669</ele>
        <time>2021-08-06T12:12:46.652Z</time>
      </trkpt>
      <trkpt lat="46.93805" lon="8.69831">
        <ele>1669</ele>
        <time>2021-08-06T12:12:47.651Z</time>
      </trkpt>
      <trkpt lat="46.93805" lon="8.6983">
        <ele>1669</ele>
        <time>2021-08-06T12:12:48.651Z</time>
      </trkpt>
      <trkpt lat="46.93806" lon="8.6983">
        <ele>1670</ele>
        <time>2021-08-06T12:12:49.652Z</time>
      </trkpt>
      <trkpt lat="46.93805" lon="8.69829">
        <ele>1670</ele>
        <time>2021-08-06T12:12:50.652Z</time>
      </trkpt>
      <trkpt lat="46.93805" lon="8.69828">
        <ele>1670</ele>
        <time>2021-08-06T12:12:51.651Z</time>
      </trkpt>
      <trkpt lat="46.93804" lon="8.69828">
        <ele>1670</ele>
        <time>2021-08-06T12:12:52.652Z</time>
      </trkpt>
      <trkpt lat="46.93803" lon="8.69827">
        <ele>1670</ele>
        <time>2021-08-06T12:12:53.652Z</time>
      </trkpt>
      <trkpt lat="46.93802" lon="8.69826">
        <ele>1670</ele>
        <time>2021-08-06T12:12:54.652Z</time>
      </trkpt>
      <trkpt lat="46.93801" lon="8.69824">
        <ele>1670</ele>
        <time>2021-08-06T12:12:55.652Z</time>
      </trkpt>
      <trkpt lat="46.93799" lon="8.69823">
        <ele>1670</ele>
        <time>2021-08-06T12:12:56.652Z</time>
      </trkpt>
      <trkpt lat="46.93799" lon="8.69823">
        <ele>1670</ele>
        <time>2021-08-06T12:12:57.651Z</time>
      </trkpt>
      <trkpt lat="46.93799" lon="8.69822">
        <ele>1671</ele>
        <time>2021-08-06T12:12:58.651Z</time>
      </trkpt>
      <trkpt lat="46.93798" lon="8.69821">
        <ele>1671</ele>
        <time>2021-08-06T12:12:59.652Z</time>
      </trkpt>
      <trkpt lat="46.93797" lon="8.69821">
        <ele>1671</ele>
        <time>2021-08-06T12:13:00.651Z</time>
      </trkpt>
      <trkpt lat="46.93796" lon="8.6982">
        <ele>1672</ele>
        <time>2021-08-06T12:13:01.651Z</time>
      </trkpt>
      <trkpt lat="46.93796" lon="8.6982">
        <ele>1672</ele>
        <time>2021-08-06T12:13:02.651Z</time>
      </trkpt>
      <trkpt lat="46.93795" lon="8.69819">
        <ele>1672</ele>
        <time>2021-08-06T12:13:03.652Z</time>
      </trkpt>
      <trkpt lat="46.93795" lon="8.69817">
        <ele>1671</ele>
        <time>2021-08-06T12:13:04.651Z</time>
      </trkpt>
      <trkpt lat="46.93794" lon="8.69817">
        <ele>1670</ele>
        <time>2021-08-06T12:13:05.651Z</time>
      </trkpt>
      <trkpt lat="46.93793" lon="8.69816">
        <ele>1670</ele>
        <time>2021-08-06T12:13:06.652Z</time>
      </trkpt>
      <trkpt lat="46.93793" lon="8.69815">
        <ele>1669</ele>
        <time>2021-08-06T12:13:07.652Z</time>
      </trkpt>
      <trkpt lat="46.93792" lon="8.69815">
        <ele>1669</ele>
        <time>2021-08-06T12:13:08.652Z</time>
      </trkpt>
      <trkpt lat="46.93792" lon="8.69816">
        <ele>1669</ele>
        <time>2021-08-06T12:13:09.652Z</time>
      </trkpt>
      <trkpt lat="46.93791" lon="8.69816">
        <ele>1669</ele>
        <time>2021-08-06T12:13:10.652Z</time>
      </trkpt>
      <trkpt lat="46.93791" lon="8.69815">
        <ele>1669</ele>
        <time>2021-08-06T12:13:11.652Z</time>
      </trkpt>
      <trkpt lat="46.93791" lon="8.69815">
        <ele>1669</ele>
        <time>2021-08-06T12:13:12.651Z</time>
      </trkpt>
      <trkpt lat="46.9379" lon="8.69814">
        <ele>1669</ele>
        <time>2021-08-06T12:13:13.652Z</time>
      </trkpt>
      <trkpt lat="46.93789" lon="8.69814">
        <ele>1669</ele>
        <time>2021-08-06T12:13:14.652Z</time>
      </trkpt>
      <trkpt lat="46.93789" lon="8.69813">
        <ele>1670</ele>
        <time>2021-08-06T12:13:15.651Z</time>
      </trkpt>
      <trkpt lat="46.93789" lon="8.69813">
        <ele>1669</ele>
        <time>2021-08-06T12:13:16.652Z</time>
      </trkpt>
      <trkpt lat="46.93788" lon="8.69813">
        <ele>1669</ele>
        <time>2021-08-06T12:13:17.651Z</time>
      </trkpt>
      <trkpt lat="46.93788" lon="8.69813">
        <ele>1669</ele>
        <time>2021-08-06T12:13:18.652Z</time>
      </trkpt>
      <trkpt lat="46.93787" lon="8.69813">
        <ele>1670</ele>
        <time>2021-08-06T12:13:19.651Z</time>
      </trkpt>
      <trkpt lat="46.93786" lon="8.69813">
        <ele>1670</ele>
        <time>2021-08-06T12:13:20.652Z</time>
      </trkpt>
      <trkpt lat="46.93786" lon="8.69813">
        <ele>1670</ele>
        <time>2021-08-06T12:13:21.652Z</time>
      </trkpt>
      <trkpt lat="46.93786" lon="8.69812">
        <ele>1670</ele>
        <time>2021-08-06T12:13:22.652Z</time>
      </trkpt>
      <trkpt lat="46.93785" lon="8.69812">
        <ele>1670</ele>
        <time>2021-08-06T12:13:23.651Z</time>
      </trkpt>
      <trkpt lat="46.93785" lon="8.69811">
        <ele>1670</ele>
        <time>2021-08-06T12:13:24.652Z</time>
      </trkpt>
      <trkpt lat="46.93786" lon="8.69811">
        <ele>1670</ele>
        <time>2021-08-06T12:13:25.651Z</time>
      </trkpt>
      <trkpt lat="46.93784" lon="8.69811">
        <ele>1670</ele>
        <time>2021-08-06T12:13:26.652Z</time>
      </trkpt>
      <trkpt lat="46.93784" lon="8.69811">
        <ele>1670</ele>
        <time>2021-08-06T12:13:27.652Z</time>
      </trkpt>
      <trkpt lat="46.93783" lon="8.69811">
        <ele>1670</ele>
        <time>2021-08-06T12:13:28.651Z</time>
      </trkpt>
      <trkpt lat="46.93783" lon="8.69811">
        <ele>1670</ele>
        <time>2021-08-06T12:13:29.652Z</time>
      </trkpt>
      <trkpt lat="46.93782" lon="8.69811">
        <ele>1670</ele>
        <time>2021-08-06T12:13:30.652Z</time>
      </trkpt>
      <trkpt lat="46.93782" lon="8.6981">
        <ele>1671</ele>
        <time>2021-08-06T12:13:31.652Z</time>
      </trkpt>
      <trkpt lat="46.93781" lon="8.6981">
        <ele>1671</ele>
        <time>2021-08-06T12:13:32.652Z</time>
      </trkpt>
      <trkpt lat="46.93781" lon="8.6981">
        <ele>1671</ele>
        <time>2021-08-06T12:13:33.652Z</time>
      </trkpt>
      <trkpt lat="46.9378" lon="8.6981">
        <ele>1672</ele>
        <time>2021-08-06T12:13:34.652Z</time>
      </trkpt>
      <trkpt lat="46.93779" lon="8.6981">
        <ele>1672</ele>
        <time>2021-08-06T12:13:35.652Z</time>
      </trkpt>
      <trkpt lat="46.93779" lon="8.6981">
        <ele>1672</ele>
        <time>2021-08-06T12:13:36.652Z</time>
      </trkpt>
      <trkpt lat="46.93778" lon="8.6981">
        <ele>1672</ele>
        <time>2021-08-06T12:13:37.652Z</time>
      </trkpt>
      <trkpt lat="46.93778" lon="8.69809">
        <ele>1672</ele>
        <time>2021-08-06T12:13:38.652Z</time>
      </trkpt>
      <trkpt lat="46.93778" lon="8.69809">
        <ele>1672</ele>
        <time>2021-08-06T12:13:39.652Z</time>
      </trkpt>
      <trkpt lat="46.93777" lon="8.69809">
        <ele>1672</ele>
        <time>2021-08-06T12:13:40.652Z</time>
      </trkpt>
      <trkpt lat="46.93777" lon="8.69809">
        <ele>1672</ele>
        <time>2021-08-06T12:13:41.651Z</time>
      </trkpt>
      <trkpt lat="46.93776" lon="8.6981">
        <ele>1672</ele>
        <time>2021-08-06T12:13:42.652Z</time>
      </trkpt>
      <trkpt lat="46.93775" lon="8.69811">
        <ele>1673</ele>
        <time>2021-08-06T12:13:43.651Z</time>
      </trkpt>
      <trkpt lat="46.93774" lon="8.6981">
        <ele>1673</ele>
        <time>2021-08-06T12:13:44.652Z</time>
      </trkpt>
      <trkpt lat="46.93773" lon="8.69811">
        <ele>1674</ele>
        <time>2021-08-06T12:13:45.652Z</time>
      </trkpt>
      <trkpt lat="46.93773" lon="8.69811">
        <ele>1674</ele>
        <time>2021-08-06T12:13:46.652Z</time>
      </trkpt>
      <trkpt lat="46.93772" lon="8.69811">
        <ele>1675</ele>
        <time>2021-08-06T12:13:47.651Z</time>
      </trkpt>
      <trkpt lat="46.93771" lon="8.69811">
        <ele>1675</ele>
        <time>2021-08-06T12:13:48.652Z</time>
      </trkpt>
      <trkpt lat="46.93771" lon="8.69811">
        <ele>1675</ele>
        <time>2021-08-06T12:13:49.651Z</time>
      </trkpt>
      <trkpt lat="46.93771" lon="8.69811">
        <ele>1675</ele>
        <time>2021-08-06T12:13:50.652Z</time>
      </trkpt>
      <trkpt lat="46.9377" lon="8.69812">
        <ele>1675</ele>
        <time>2021-08-06T12:13:51.652Z</time>
      </trkpt>
      <trkpt lat="46.93769" lon="8.69812">
        <ele>1674</ele>
        <time>2021-08-06T12:13:52.651Z</time>
      </trkpt>
      <trkpt lat="46.93769" lon="8.69812">
        <ele>1674</ele>
        <time>2021-08-06T12:13:53.652Z</time>
      </trkpt>
      <trkpt lat="46.93768" lon="8.69812">
        <ele>1673</ele>
        <time>2021-08-06T12:13:54.652Z</time>
      </trkpt>
      <trkpt lat="46.93768" lon="8.69812">
        <ele>1673</ele>
        <time>2021-08-06T12:13:55.652Z</time>
      </trkpt>
      <trkpt lat="46.93767" lon="8.69812">
        <ele>1672</ele>
        <time>2021-08-06T12:13:56.651Z</time>
      </trkpt>
      <trkpt lat="46.93767" lon="8.69811">
        <ele>1672</ele>
        <time>2021-08-06T12:13:57.652Z</time>
      </trkpt>
      <trkpt lat="46.93766" lon="8.69811">
        <ele>1672</ele>
        <time>2021-08-06T12:13:58.651Z</time>
      </trkpt>
      <trkpt lat="46.93766" lon="8.69811">
        <ele>1672</ele>
        <time>2021-08-06T12:13:59.652Z</time>
      </trkpt>
      <trkpt lat="46.93765" lon="8.6981">
        <ele>1673</ele>
        <time>2021-08-06T12:14:00.651Z</time>
      </trkpt>
      <trkpt lat="46.93765" lon="8.69809">
        <ele>1673</ele>
        <time>2021-08-06T12:14:01.652Z</time>
      </trkpt>
      <trkpt lat="46.93764" lon="8.69809">
        <ele>1673</ele>
        <time>2021-08-06T12:14:02.652Z</time>
      </trkpt>
      <trkpt lat="46.93764" lon="8.69808">
        <ele>1673</ele>
        <time>2021-08-06T12:14:03.652Z</time>
      </trkpt>
      <trkpt lat="46.93764" lon="8.69808">
        <ele>1674</ele>
        <time>2021-08-06T12:14:04.651Z</time>
      </trkpt>
      <trkpt lat="46.93764" lon="8.69808">
        <ele>1674</ele>
        <time>2021-08-06T12:14:05.652Z</time>
      </trkpt>
      <trkpt lat="46.93763" lon="8.69807">
        <ele>1674</ele>
        <time>2021-08-06T12:14:06.651Z</time>
      </trkpt>
      <trkpt lat="46.93763" lon="8.69807">
        <ele>1674</ele>
        <time>2021-08-06T12:14:07.652Z</time>
      </trkpt>
      <trkpt lat="46.93763" lon="8.69807">
        <ele>1674</ele>
        <time>2021-08-06T12:14:08.652Z</time>
      </trkpt>
      <trkpt lat="46.93763" lon="8.69806">
        <ele>1675</ele>
        <time>2021-08-06T12:14:09.652Z</time>
      </trkpt>
      <trkpt lat="46.93762" lon="8.69806">
        <ele>1675</ele>
        <time>2021-08-06T12:14:10.652Z</time>
      </trkpt>
      <trkpt lat="46.93762" lon="8.69805">
        <ele>1675</ele>
        <time>2021-08-06T12:14:11.652Z</time>
      </trkpt>
      <trkpt lat="46.93762" lon="8.69804">
        <ele>1675</ele>
        <time>2021-08-06T12:14:12.651Z</time>
      </trkpt>
      <trkpt lat="46.93761" lon="8.69804">
        <ele>1675</ele>
        <time>2021-08-06T12:14:13.652Z</time>
      </trkpt>
      <trkpt lat="46.93761" lon="8.69803">
        <ele>1675</ele>
        <time>2021-08-06T12:14:14.651Z</time>
      </trkpt>
      <trkpt lat="46.93761" lon="8.69803">
        <ele>1675</ele>
        <time>2021-08-06T12:14:15.651Z</time>
      </trkpt>
      <trkpt lat="46.9376" lon="8.69802">
        <ele>1675</ele>
        <time>2021-08-06T12:14:16.652Z</time>
      </trkpt>
      <trkpt lat="46.9376" lon="8.69801">
        <ele>1675</ele>
        <time>2021-08-06T12:14:17.652Z</time>
      </trkpt>
      <trkpt lat="46.93759" lon="8.698">
        <ele>1675</ele>
        <time>2021-08-06T12:14:18.651Z</time>
      </trkpt>
      <trkpt lat="46.93759" lon="8.69799">
        <ele>1675</ele>
        <time>2021-08-06T12:14:19.652Z</time>
      </trkpt>
      <trkpt lat="46.93759" lon="8.69799">
        <ele>1675</ele>
        <time>2021-08-06T12:14:20.651Z</time>
      </trkpt>
      <trkpt lat="46.93758" lon="8.69798">
        <ele>1675</ele>
        <time>2021-08-06T12:14:21.652Z</time>
      </trkpt>
      <trkpt lat="46.93758" lon="8.69798">
        <ele>1675</ele>
        <time>2021-08-06T12:14:22.651Z</time>
      </trkpt>
      <trkpt lat="46.93758" lon="8.69798">
        <ele>1675</ele>
        <time>2021-08-06T12:14:23.652Z</time>
      </trkpt>
      <trkpt lat="46.93757" lon="8.69797">
        <ele>1675</ele>
        <time>2021-08-06T12:14:24.651Z</time>
      </trkpt>
      <trkpt lat="46.93757" lon="8.69796">
        <ele>1676</ele>
        <time>2021-08-06T12:14:25.652Z</time>
      </trkpt>
      <trkpt lat="46.93757" lon="8.69795">
        <ele>1676</ele>
        <time>2021-08-06T12:14:26.651Z</time>
      </trkpt>
      <trkpt lat="46.93756" lon="8.69794">
        <ele>1677</ele>
        <time>2021-08-06T12:14:27.652Z</time>
      </trkpt>
      <trkpt lat="46.93756" lon="8.69792">
        <ele>1677</ele>
        <time>2021-08-06T12:14:28.652Z</time>
      </trkpt>
      <trkpt lat="46.93755" lon="8.69792">
        <ele>1678</ele>
        <time>2021-08-06T12:14:29.652Z</time>
      </trkpt>
      <trkpt lat="46.93755" lon="8.69791">
        <ele>1678</ele>
        <time>2021-08-06T12:14:30.651Z</time>
      </trkpt>
      <trkpt lat="46.93754" lon="8.6979">
        <ele>1678</ele>
        <time>2021-08-06T12:14:31.652Z</time>
      </trkpt>
      <trkpt lat="46.93754" lon="8.69789">
        <ele>1679</ele>
        <time>2021-08-06T12:14:32.652Z</time>
      </trkpt>
      <trkpt lat="46.93754" lon="8.69789">
        <ele>1679</ele>
        <time>2021-08-06T12:14:33.651Z</time>
      </trkpt>
      <trkpt lat="46.93753" lon="8.69787">
        <ele>1680</ele>
        <time>2021-08-06T12:14:34.651Z</time>
      </trkpt>
      <trkpt lat="46.93752" lon="8.69786">
        <ele>1680</ele>
        <time>2021-08-06T12:14:35.651Z</time>
      </trkpt>
      <trkpt lat="46.93752" lon="8.69786">
        <ele>1681</ele>
        <time>2021-08-06T12:14:36.651Z</time>
      </trkpt>
      <trkpt lat="46.93751" lon="8.69785">
        <ele>1681</ele>
        <time>2021-08-06T12:14:37.652Z</time>
      </trkpt>
      <trkpt lat="46.93751" lon="8.69784">
        <ele>1681</ele>
        <time>2021-08-06T12:14:38.651Z</time>
      </trkpt>
      <trkpt lat="46.93752" lon="8.69783">
        <ele>1682</ele>
        <time>2021-08-06T12:14:39.652Z</time>
      </trkpt>
      <trkpt lat="46.93752" lon="8.69781">
        <ele>1682</ele>
        <time>2021-08-06T12:14:40.652Z</time>
      </trkpt>
      <trkpt lat="46.93753" lon="8.6978">
        <ele>1683</ele>
        <time>2021-08-06T12:14:41.652Z</time>
      </trkpt>
      <trkpt lat="46.93754" lon="8.69778">
        <ele>1683</ele>
        <time>2021-08-06T12:14:42.652Z</time>
      </trkpt>
      <trkpt lat="46.93754" lon="8.69777">
        <ele>1683</ele>
        <time>2021-08-06T12:14:43.651Z</time>
      </trkpt>
      <trkpt lat="46.93755" lon="8.69775">
        <ele>1684</ele>
        <time>2021-08-06T12:14:44.652Z</time>
      </trkpt>
      <trkpt lat="46.93754" lon="8.69774">
        <ele>1684</ele>
        <time>2021-08-06T12:14:45.652Z</time>
      </trkpt>
      <trkpt lat="46.93754" lon="8.69773">
        <ele>1685</ele>
        <time>2021-08-06T12:14:46.652Z</time>
      </trkpt>
      <trkpt lat="46.93753" lon="8.69773">
        <ele>1685</ele>
        <time>2021-08-06T12:14:47.652Z</time>
      </trkpt>
      <trkpt lat="46.93752" lon="8.69772">
        <ele>1685</ele>
        <time>2021-08-06T12:14:48.652Z</time>
      </trkpt>
      <trkpt lat="46.93752" lon="8.69771">
        <ele>1685</ele>
        <time>2021-08-06T12:14:49.652Z</time>
      </trkpt>
      <trkpt lat="46.93751" lon="8.69771">
        <ele>1685</ele>
        <time>2021-08-06T12:14:50.651Z</time>
      </trkpt>
      <trkpt lat="46.9375" lon="8.6977">
        <ele>1685</ele>
        <time>2021-08-06T12:14:51.651Z</time>
      </trkpt>
      <trkpt lat="46.93749" lon="8.6977">
        <ele>1685</ele>
        <time>2021-08-06T12:14:52.651Z</time>
      </trkpt>
      <trkpt lat="46.93748" lon="8.69769">
        <ele>1685</ele>
        <time>2021-08-06T12:14:53.652Z</time>
      </trkpt>
      <trkpt lat="46.93747" lon="8.69769">
        <ele>1684</ele>
        <time>2021-08-06T12:14:54.651Z</time>
      </trkpt>
      <trkpt lat="46.93746" lon="8.69768">
        <ele>1684</ele>
        <time>2021-08-06T12:14:55.651Z</time>
      </trkpt>
      <trkpt lat="46.93746" lon="8.69768">
        <ele>1683</ele>
        <time>2021-08-06T12:14:56.651Z</time>
      </trkpt>
      <trkpt lat="46.93745" lon="8.69768">
        <ele>1683</ele>
        <time>2021-08-06T12:14:57.652Z</time>
      </trkpt>
      <trkpt lat="46.93745" lon="8.69767">
        <ele>1682</ele>
        <time>2021-08-06T12:14:58.652Z</time>
      </trkpt>
      <trkpt lat="46.93745" lon="8.69766">
        <ele>1682</ele>
        <time>2021-08-06T12:14:59.652Z</time>
      </trkpt>
      <trkpt lat="46.93744" lon="8.69765">
        <ele>1682</ele>
        <time>2021-08-06T12:15:00.652Z</time>
      </trkpt>
      <trkpt lat="46.93744" lon="8.69764">
        <ele>1682</ele>
        <time>2021-08-06T12:15:01.652Z</time>
      </trkpt>
      <trkpt lat="46.93744" lon="8.69763">
        <ele>1682</ele>
        <time>2021-08-06T12:15:02.652Z</time>
      </trkpt>
      <trkpt lat="46.93743" lon="8.69762">
        <ele>1681</ele>
        <time>2021-08-06T12:15:03.651Z</time>
      </trkpt>
      <trkpt lat="46.93743" lon="8.6976">
        <ele>1680</ele>
        <time>2021-08-06T12:15:04.651Z</time>
      </trkpt>
      <trkpt lat="46.93743" lon="8.69758">
        <ele>1680</ele>
        <time>2021-08-06T12:15:05.651Z</time>
      </trkpt>
      <trkpt lat="46.93743" lon="8.69757">
        <ele>1680</ele>
        <time>2021-08-06T12:15:06.652Z</time>
      </trkpt>
      <trkpt lat="46.93742" lon="8.69755">
        <ele>1679</ele>
        <time>2021-08-06T12:15:07.652Z</time>
      </trkpt>
      <trkpt lat="46.93742" lon="8.69753">
        <ele>1679</ele>
        <time>2021-08-06T12:15:08.651Z</time>
      </trkpt>
      <trkpt lat="46.93742" lon="8.69752">
        <ele>1679</ele>
        <time>2021-08-06T12:15:09.652Z</time>
      </trkpt>
      <trkpt lat="46.93742" lon="8.6975">
        <ele>1679</ele>
        <time>2021-08-06T12:15:10.651Z</time>
      </trkpt>
      <trkpt lat="46.93741" lon="8.69749">
        <ele>1679</ele>
        <time>2021-08-06T12:15:11.651Z</time>
      </trkpt>
      <trkpt lat="46.93742" lon="8.69748">
        <ele>1679</ele>
        <time>2021-08-06T12:15:12.652Z</time>
      </trkpt>
      <trkpt lat="46.93742" lon="8.69747">
        <ele>1679</ele>
        <time>2021-08-06T12:15:13.651Z</time>
      </trkpt>
      <trkpt lat="46.93742" lon="8.69745">
        <ele>1680</ele>
        <time>2021-08-06T12:15:14.651Z</time>
      </trkpt>
      <trkpt lat="46.93742" lon="8.69743">
        <ele>1679</ele>
        <time>2021-08-06T12:15:15.651Z</time>
      </trkpt>
      <trkpt lat="46.93742" lon="8.69742">
        <ele>1679</ele>
        <time>2021-08-06T12:15:16.651Z</time>
      </trkpt>
      <trkpt lat="46.93742" lon="8.6974">
        <ele>1680</ele>
        <time>2021-08-06T12:15:17.651Z</time>
      </trkpt>
      <trkpt lat="46.93742" lon="8.69739">
        <ele>1680</ele>
        <time>2021-08-06T12:15:18.652Z</time>
      </trkpt>
      <trkpt lat="46.93743" lon="8.69738">
        <ele>1680</ele>
        <time>2021-08-06T12:15:19.651Z</time>
      </trkpt>
      <trkpt lat="46.93743" lon="8.69737">
        <ele>1681</ele>
        <time>2021-08-06T12:15:20.651Z</time>
      </trkpt>
      <trkpt lat="46.93743" lon="8.69736">
        <ele>1681</ele>
        <time>2021-08-06T12:15:21.651Z</time>
      </trkpt>
      <trkpt lat="46.93743" lon="8.69734">
        <ele>1682</ele>
        <time>2021-08-06T12:15:22.651Z</time>
      </trkpt>
      <trkpt lat="46.93743" lon="8.69733">
        <ele>1682</ele>
        <time>2021-08-06T12:15:23.651Z</time>
      </trkpt>
      <trkpt lat="46.93743" lon="8.69732">
        <ele>1683</ele>
        <time>2021-08-06T12:15:24.651Z</time>
      </trkpt>
      <trkpt lat="46.93743" lon="8.69731">
        <ele>1683</ele>
        <time>2021-08-06T12:15:25.651Z</time>
      </trkpt>
      <trkpt lat="46.93743" lon="8.69729">
        <ele>1683</ele>
        <time>2021-08-06T12:15:26.651Z</time>
      </trkpt>
      <trkpt lat="46.93743" lon="8.69728">
        <ele>1683</ele>
        <time>2021-08-06T12:15:27.651Z</time>
      </trkpt>
      <trkpt lat="46.93743" lon="8.69727">
        <ele>1683</ele>
        <time>2021-08-06T12:15:28.651Z</time>
      </trkpt>
      <trkpt lat="46.93743" lon="8.69726">
        <ele>1684</ele>
        <time>2021-08-06T12:15:29.652Z</time>
      </trkpt>
      <trkpt lat="46.93743" lon="8.69724">
        <ele>1685</ele>
        <time>2021-08-06T12:15:30.651Z</time>
      </trkpt>
      <trkpt lat="46.93743" lon="8.69722">
        <ele>1686</ele>
        <time>2021-08-06T12:15:31.651Z</time>
      </trkpt>
      <trkpt lat="46.93743" lon="8.69721">
        <ele>1687</ele>
        <time>2021-08-06T12:15:32.651Z</time>
      </trkpt>
      <trkpt lat="46.93743" lon="8.69719">
        <ele>1688</ele>
        <time>2021-08-06T12:15:33.651Z</time>
      </trkpt>
      <trkpt lat="46.93742" lon="8.69718">
        <ele>1688</ele>
        <time>2021-08-06T12:15:34.651Z</time>
      </trkpt>
      <trkpt lat="46.93742" lon="8.69717">
        <ele>1689</ele>
        <time>2021-08-06T12:15:35.652Z</time>
      </trkpt>
      <trkpt lat="46.93741" lon="8.69715">
        <ele>1689</ele>
        <time>2021-08-06T12:15:36.651Z</time>
      </trkpt>
      <trkpt lat="46.9374" lon="8.69714">
        <ele>1690</ele>
        <time>2021-08-06T12:15:37.651Z</time>
      </trkpt>
      <trkpt lat="46.9374" lon="8.69713">
        <ele>1690</ele>
        <time>2021-08-06T12:15:38.651Z</time>
      </trkpt>
      <trkpt lat="46.93739" lon="8.69712">
        <ele>1691</ele>
        <time>2021-08-06T12:15:39.652Z</time>
      </trkpt>
      <trkpt lat="46.93739" lon="8.69711">
        <ele>1691</ele>
        <time>2021-08-06T12:15:40.651Z</time>
      </trkpt>
      <trkpt lat="46.93737" lon="8.69711">
        <ele>1691</ele>
        <time>2021-08-06T12:15:41.651Z</time>
      </trkpt>
      <trkpt lat="46.93737" lon="8.6971">
        <ele>1691</ele>
        <time>2021-08-06T12:15:42.652Z</time>
      </trkpt>
      <trkpt lat="46.93735" lon="8.69709">
        <ele>1691</ele>
        <time>2021-08-06T12:15:43.652Z</time>
      </trkpt>
      <trkpt lat="46.93735" lon="8.69708">
        <ele>1691</ele>
        <time>2021-08-06T12:15:44.652Z</time>
      </trkpt>
      <trkpt lat="46.93734" lon="8.69707">
        <ele>1690</ele>
        <time>2021-08-06T12:15:45.652Z</time>
      </trkpt>
      <trkpt lat="46.93733" lon="8.69706">
        <ele>1690</ele>
        <time>2021-08-06T12:15:46.652Z</time>
      </trkpt>
      <trkpt lat="46.93732" lon="8.69705">
        <ele>1690</ele>
        <time>2021-08-06T12:15:47.651Z</time>
      </trkpt>
      <trkpt lat="46.93731" lon="8.69704">
        <ele>1689</ele>
        <time>2021-08-06T12:15:48.651Z</time>
      </trkpt>
      <trkpt lat="46.9373" lon="8.69703">
        <ele>1689</ele>
        <time>2021-08-06T12:15:49.651Z</time>
      </trkpt>
      <trkpt lat="46.93729" lon="8.69702">
        <ele>1689</ele>
        <time>2021-08-06T12:15:50.651Z</time>
      </trkpt>
      <trkpt lat="46.93728" lon="8.69701">
        <ele>1689</ele>
        <time>2021-08-06T12:15:51.652Z</time>
      </trkpt>
      <trkpt lat="46.93727" lon="8.697">
        <ele>1689</ele>
        <time>2021-08-06T12:15:52.652Z</time>
      </trkpt>
      <trkpt lat="46.93726" lon="8.697">
        <ele>1689</ele>
        <time>2021-08-06T12:15:53.651Z</time>
      </trkpt>
      <trkpt lat="46.93725" lon="8.69699">
        <ele>1689</ele>
        <time>2021-08-06T12:15:54.651Z</time>
      </trkpt>
      <trkpt lat="46.93724" lon="8.69698">
        <ele>1689</ele>
        <time>2021-08-06T12:15:55.652Z</time>
      </trkpt>
      <trkpt lat="46.93723" lon="8.69698">
        <ele>1689</ele>
        <time>2021-08-06T12:15:56.651Z</time>
      </trkpt>
      <trkpt lat="46.93722" lon="8.69697">
        <ele>1689</ele>
        <time>2021-08-06T12:15:57.651Z</time>
      </trkpt>
      <trkpt lat="46.93721" lon="8.69698">
        <ele>1689</ele>
        <time>2021-08-06T12:15:58.652Z</time>
      </trkpt>
      <trkpt lat="46.93721" lon="8.69697">
        <ele>1689</ele>
        <time>2021-08-06T12:15:59.651Z</time>
      </trkpt>
      <trkpt lat="46.9372" lon="8.69696">
        <ele>1690</ele>
        <time>2021-08-06T12:16:00.652Z</time>
      </trkpt>
      <trkpt lat="46.93719" lon="8.69696">
        <ele>1690</ele>
        <time>2021-08-06T12:16:01.652Z</time>
      </trkpt>
      <trkpt lat="46.93718" lon="8.69694">
        <ele>1690</ele>
        <time>2021-08-06T12:16:02.652Z</time>
      </trkpt>
      <trkpt lat="46.93718" lon="8.69694">
        <ele>1690</ele>
        <time>2021-08-06T12:16:03.652Z</time>
      </trkpt>
      <trkpt lat="46.93717" lon="8.69693">
        <ele>1691</ele>
        <time>2021-08-06T12:16:04.651Z</time>
      </trkpt>
      <trkpt lat="46.93716" lon="8.69692">
        <ele>1691</ele>
        <time>2021-08-06T12:16:05.652Z</time>
      </trkpt>
      <trkpt lat="46.93715" lon="8.6969">
        <ele>1692</ele>
        <time>2021-08-06T12:16:06.652Z</time>
      </trkpt>
      <trkpt lat="46.93714" lon="8.69688">
        <ele>1692</ele>
        <time>2021-08-06T12:16:07.651Z</time>
      </trkpt>
      <trkpt lat="46.93714" lon="8.69687">
        <ele>1692</ele>
        <time>2021-08-06T12:16:08.652Z</time>
      </trkpt>
      <trkpt lat="46.93713" lon="8.69686">
        <ele>1693</ele>
        <time>2021-08-06T12:16:09.652Z</time>
      </trkpt>
      <trkpt lat="46.93713" lon="8.69686">
        <ele>1693</ele>
        <time>2021-08-06T12:16:10.651Z</time>
      </trkpt>
      <trkpt lat="46.93712" lon="8.69685">
        <ele>1693</ele>
        <time>2021-08-06T12:16:11.651Z</time>
      </trkpt>
      <trkpt lat="46.93711" lon="8.69684">
        <ele>1693</ele>
        <time>2021-08-06T12:16:12.652Z</time>
      </trkpt>
      <trkpt lat="46.93711" lon="8.69683">
        <ele>1693</ele>
        <time>2021-08-06T12:16:13.652Z</time>
      </trkpt>
      <trkpt lat="46.93711" lon="8.69682">
        <ele>1693</ele>
        <time>2021-08-06T12:16:14.651Z</time>
      </trkpt>
      <trkpt lat="46.93711" lon="8.69681">
        <ele>1693</ele>
        <time>2021-08-06T12:16:15.651Z</time>
      </trkpt>
      <trkpt lat="46.93711" lon="8.6968">
        <ele>1694</ele>
        <time>2021-08-06T12:16:16.651Z</time>
      </trkpt>
      <trkpt lat="46.93711" lon="8.69679">
        <ele>1694</ele>
        <time>2021-08-06T12:16:17.651Z</time>
      </trkpt>
      <trkpt lat="46.93711" lon="8.69679">
        <ele>1695</ele>
        <time>2021-08-06T12:16:18.652Z</time>
      </trkpt>
      <trkpt lat="46.93711" lon="8.69678">
        <ele>1695</ele>
        <time>2021-08-06T12:16:19.652Z</time>
      </trkpt>
      <trkpt lat="46.93711" lon="8.69678">
        <ele>1695</ele>
        <time>2021-08-06T12:16:20.652Z</time>
      </trkpt>
      <trkpt lat="46.9371" lon="8.69678">
        <ele>1695</ele>
        <time>2021-08-06T12:16:21.652Z</time>
      </trkpt>
      <trkpt lat="46.9371" lon="8.69677">
        <ele>1694</ele>
        <time>2021-08-06T12:16:22.651Z</time>
      </trkpt>
      <trkpt lat="46.93709" lon="8.69676">
        <ele>1694</ele>
        <time>2021-08-06T12:16:23.652Z</time>
      </trkpt>
      <trkpt lat="46.93709" lon="8.69675">
        <ele>1693</ele>
        <time>2021-08-06T12:16:24.652Z</time>
      </trkpt>
      <trkpt lat="46.93709" lon="8.69675">
        <ele>1693</ele>
        <time>2021-08-06T12:16:25.651Z</time>
      </trkpt>
      <trkpt lat="46.93708" lon="8.69674">
        <ele>1693</ele>
        <time>2021-08-06T12:16:26.652Z</time>
      </trkpt>
      <trkpt lat="46.93709" lon="8.69672">
        <ele>1693</ele>
        <time>2021-08-06T12:16:27.651Z</time>
      </trkpt>
      <trkpt lat="46.93708" lon="8.69671">
        <ele>1693</ele>
        <time>2021-08-06T12:16:28.651Z</time>
      </trkpt>
      <trkpt lat="46.93708" lon="8.69671">
        <ele>1693</ele>
        <time>2021-08-06T12:16:29.652Z</time>
      </trkpt>
      <trkpt lat="46.93708" lon="8.6967">
        <ele>1693</ele>
        <time>2021-08-06T12:16:30.651Z</time>
      </trkpt>
      <trkpt lat="46.93707" lon="8.6967">
        <ele>1693</ele>
        <time>2021-08-06T12:16:31.652Z</time>
      </trkpt>
      <trkpt lat="46.93706" lon="8.6967">
        <ele>1694</ele>
        <time>2021-08-06T12:16:32.652Z</time>
      </trkpt>
      <trkpt lat="46.93706" lon="8.6967">
        <ele>1694</ele>
        <time>2021-08-06T12:16:33.652Z</time>
      </trkpt>
      <trkpt lat="46.93706" lon="8.69669">
        <ele>1693</ele>
        <time>2021-08-06T12:16:34.651Z</time>
      </trkpt>
      <trkpt lat="46.93705" lon="8.69668">
        <ele>1693</ele>
        <time>2021-08-06T12:16:35.651Z</time>
      </trkpt>
      <trkpt lat="46.93704" lon="8.69667">
        <ele>1692</ele>
        <time>2021-08-06T12:16:36.652Z</time>
      </trkpt>
      <trkpt lat="46.93704" lon="8.69666">
        <ele>1692</ele>
        <time>2021-08-06T12:16:37.652Z</time>
      </trkpt>
      <trkpt lat="46.93703" lon="8.69666">
        <ele>1691</ele>
        <time>2021-08-06T12:16:38.652Z</time>
      </trkpt>
      <trkpt lat="46.93703" lon="8.69664">
        <ele>1691</ele>
        <time>2021-08-06T12:16:39.652Z</time>
      </trkpt>
      <trkpt lat="46.93703" lon="8.69664">
        <ele>1691</ele>
        <time>2021-08-06T12:16:40.651Z</time>
      </trkpt>
      <trkpt lat="46.93703" lon="8.69663">
        <ele>1691</ele>
        <time>2021-08-06T12:16:41.651Z</time>
      </trkpt>
      <trkpt lat="46.93702" lon="8.69662">
        <ele>1691</ele>
        <time>2021-08-06T12:16:42.652Z</time>
      </trkpt>
      <trkpt lat="46.93701" lon="8.69662">
        <ele>1690</ele>
        <time>2021-08-06T12:16:43.651Z</time>
      </trkpt>
      <trkpt lat="46.937" lon="8.69661">
        <ele>1690</ele>
        <time>2021-08-06T12:16:44.652Z</time>
      </trkpt>
      <trkpt lat="46.93699" lon="8.6966">
        <ele>1690</ele>
        <time>2021-08-06T12:16:45.651Z</time>
      </trkpt>
      <trkpt lat="46.93698" lon="8.69659">
        <ele>1690</ele>
        <time>2021-08-06T12:16:46.652Z</time>
      </trkpt>
      <trkpt lat="46.93698" lon="8.69658">
        <ele>1690</ele>
        <time>2021-08-06T12:16:47.652Z</time>
      </trkpt>
      <trkpt lat="46.93697" lon="8.69657">
        <ele>1690</ele>
        <time>2021-08-06T12:16:48.651Z</time>
      </trkpt>
      <trkpt lat="46.93696" lon="8.69657">
        <ele>1689</ele>
        <time>2021-08-06T12:16:49.652Z</time>
      </trkpt>
      <trkpt lat="46.93697" lon="8.69657">
        <ele>1690</ele>
        <time>2021-08-06T12:16:50.651Z</time>
      </trkpt>
      <trkpt lat="46.93697" lon="8.69656">
        <ele>1690</ele>
        <time>2021-08-06T12:16:51.651Z</time>
      </trkpt>
      <trkpt lat="46.93697" lon="8.69656">
        <ele>1691</ele>
        <time>2021-08-06T12:16:52.651Z</time>
      </trkpt>
      <trkpt lat="46.93696" lon="8.69655">
        <ele>1691</ele>
        <time>2021-08-06T12:16:53.651Z</time>
      </trkpt>
      <trkpt lat="46.93694" lon="8.69654">
        <ele>1692</ele>
        <time>2021-08-06T12:16:54.652Z</time>
      </trkpt>
      <trkpt lat="46.93693" lon="8.69654">
        <ele>1692</ele>
        <time>2021-08-06T12:16:55.652Z</time>
      </trkpt>
      <trkpt lat="46.93693" lon="8.69654">
        <ele>1692</ele>
        <time>2021-08-06T12:16:56.651Z</time>
      </trkpt>
      <trkpt lat="46.93692" lon="8.69654">
        <ele>1693</ele>
        <time>2021-08-06T12:16:57.652Z</time>
      </trkpt>
      <trkpt lat="46.93692" lon="8.69654">
        <ele>1693</ele>
        <time>2021-08-06T12:16:58.652Z</time>
      </trkpt>
      <trkpt lat="46.93691" lon="8.69654">
        <ele>1693</ele>
        <time>2021-08-06T12:16:59.651Z</time>
      </trkpt>
      <trkpt lat="46.9369" lon="8.69654">
        <ele>1693</ele>
        <time>2021-08-06T12:17:00.651Z</time>
      </trkpt>
      <trkpt lat="46.9369" lon="8.69654">
        <ele>1693</ele>
        <time>2021-08-06T12:17:01.651Z</time>
      </trkpt>
      <trkpt lat="46.93689" lon="8.69654">
        <ele>1693</ele>
        <time>2021-08-06T12:17:02.652Z</time>
      </trkpt>
      <trkpt lat="46.93689" lon="8.69654">
        <ele>1693</ele>
        <time>2021-08-06T12:17:03.651Z</time>
      </trkpt>
      <trkpt lat="46.93689" lon="8.69654">
        <ele>1693</ele>
        <time>2021-08-06T12:17:04.652Z</time>
      </trkpt>
      <trkpt lat="46.93688" lon="8.69654">
        <ele>1693</ele>
        <time>2021-08-06T12:17:05.651Z</time>
      </trkpt>
      <trkpt lat="46.93687" lon="8.69653">
        <ele>1693</ele>
        <time>2021-08-06T12:17:06.652Z</time>
      </trkpt>
      <trkpt lat="46.93687" lon="8.69653">
        <ele>1693</ele>
        <time>2021-08-06T12:17:07.652Z</time>
      </trkpt>
      <trkpt lat="46.93686" lon="8.69652">
        <ele>1694</ele>
        <time>2021-08-06T12:17:08.651Z</time>
      </trkpt>
      <trkpt lat="46.93685" lon="8.69651">
        <ele>1694</ele>
        <time>2021-08-06T12:17:09.651Z</time>
      </trkpt>
      <trkpt lat="46.93684" lon="8.6965">
        <ele>1694</ele>
        <time>2021-08-06T12:17:10.651Z</time>
      </trkpt>
      <trkpt lat="46.93683" lon="8.6965">
        <ele>1694</ele>
        <time>2021-08-06T12:17:11.652Z</time>
      </trkpt>
      <trkpt lat="46.93683" lon="8.69649">
        <ele>1695</ele>
        <time>2021-08-06T12:17:12.651Z</time>
      </trkpt>
      <trkpt lat="46.93683" lon="8.69649">
        <ele>1695</ele>
        <time>2021-08-06T12:17:13.651Z</time>
      </trkpt>
      <trkpt lat="46.93682" lon="8.69649">
        <ele>1695</ele>
        <time>2021-08-06T12:17:14.651Z</time>
      </trkpt>
      <trkpt lat="46.93686" lon="8.69647">
        <ele>1698</ele>
        <time>2021-08-06T12:17:15.652Z</time>
      </trkpt>
      <trkpt lat="46.93686" lon="8.69647">
        <ele>1699</ele>
        <time>2021-08-06T12:17:16.651Z</time>
      </trkpt>
      <trkpt lat="46.93685" lon="8.69646">
        <ele>1699</ele>
        <time>2021-08-06T12:17:17.651Z</time>
      </trkpt>
      <trkpt lat="46.93685" lon="8.69645">
        <ele>1699</ele>
        <time>2021-08-06T12:17:18.652Z</time>
      </trkpt>
      <trkpt lat="46.93684" lon="8.69644">
        <ele>1700</ele>
        <time>2021-08-06T12:17:19.652Z</time>
      </trkpt>
      <trkpt lat="46.93684" lon="8.69643">
        <ele>1700</ele>
        <time>2021-08-06T12:17:20.652Z</time>
      </trkpt>
      <trkpt lat="46.93682" lon="8.69642">
        <ele>1701</ele>
        <time>2021-08-06T12:17:21.652Z</time>
      </trkpt>
      <trkpt lat="46.93682" lon="8.69642">
        <ele>1701</ele>
        <time>2021-08-06T12:17:22.651Z</time>
      </trkpt>
      <trkpt lat="46.93681" lon="8.69641">
        <ele>1701</ele>
        <time>2021-08-06T12:17:23.652Z</time>
      </trkpt>
      <trkpt lat="46.93681" lon="8.6964">
        <ele>1702</ele>
        <time>2021-08-06T12:17:24.651Z</time>
      </trkpt>
      <trkpt lat="46.9368" lon="8.69639">
        <ele>1702</ele>
        <time>2021-08-06T12:17:25.652Z</time>
      </trkpt>
      <trkpt lat="46.93679" lon="8.69638">
        <ele>1702</ele>
        <time>2021-08-06T12:17:26.652Z</time>
      </trkpt>
      <trkpt lat="46.93678" lon="8.69638">
        <ele>1703</ele>
        <time>2021-08-06T12:17:27.652Z</time>
      </trkpt>
      <trkpt lat="46.93677" lon="8.69637">
        <ele>1703</ele>
        <time>2021-08-06T12:17:28.652Z</time>
      </trkpt>
      <trkpt lat="46.93676" lon="8.69636">
        <ele>1704</ele>
        <time>2021-08-06T12:17:29.651Z</time>
      </trkpt>
      <trkpt lat="46.93675" lon="8.69636">
        <ele>1704</ele>
        <time>2021-08-06T12:17:30.652Z</time>
      </trkpt>
      <trkpt lat="46.93675" lon="8.69635">
        <ele>1705</ele>
        <time>2021-08-06T12:17:31.652Z</time>
      </trkpt>
      <trkpt lat="46.93673" lon="8.69635">
        <ele>1705</ele>
        <time>2021-08-06T12:17:32.652Z</time>
      </trkpt>
      <trkpt lat="46.93672" lon="8.69633">
        <ele>1706</ele>
        <time>2021-08-06T12:17:33.652Z</time>
      </trkpt>
      <trkpt lat="46.93671" lon="8.69631">
        <ele>1707</ele>
        <time>2021-08-06T12:17:34.652Z</time>
      </trkpt>
      <trkpt lat="46.9367" lon="8.6963">
        <ele>1707</ele>
        <time>2021-08-06T12:17:35.652Z</time>
      </trkpt>
      <trkpt lat="46.93669" lon="8.6963">
        <ele>1708</ele>
        <time>2021-08-06T12:17:36.652Z</time>
      </trkpt>
      <trkpt lat="46.93669" lon="8.69629">
        <ele>1709</ele>
        <time>2021-08-06T12:17:37.652Z</time>
      </trkpt>
      <trkpt lat="46.93669" lon="8.69628">
        <ele>1709</ele>
        <time>2021-08-06T12:17:38.652Z</time>
      </trkpt>
      <trkpt lat="46.93668" lon="8.69627">
        <ele>1710</ele>
        <time>2021-08-06T12:17:39.652Z</time>
      </trkpt>
      <trkpt lat="46.93667" lon="8.69625">
        <ele>1711</ele>
        <time>2021-08-06T12:17:40.652Z</time>
      </trkpt>
      <trkpt lat="46.93667" lon="8.69624">
        <ele>1712</ele>
        <time>2021-08-06T12:17:41.652Z</time>
      </trkpt>
      <trkpt lat="46.93666" lon="8.69623">
        <ele>1712</ele>
        <time>2021-08-06T12:17:42.652Z</time>
      </trkpt>
      <trkpt lat="46.93665" lon="8.69621">
        <ele>1713</ele>
        <time>2021-08-06T12:17:43.652Z</time>
      </trkpt>
      <trkpt lat="46.93664" lon="8.69621">
        <ele>1713</ele>
        <time>2021-08-06T12:17:44.652Z</time>
      </trkpt>
      <trkpt lat="46.93664" lon="8.6962">
        <ele>1713</ele>
        <time>2021-08-06T12:17:45.652Z</time>
      </trkpt>
      <trkpt lat="46.93663" lon="8.69621">
        <ele>1714</ele>
        <time>2021-08-06T12:17:46.652Z</time>
      </trkpt>
      <trkpt lat="46.93663" lon="8.69621">
        <ele>1715</ele>
        <time>2021-08-06T12:17:47.652Z</time>
      </trkpt>
      <trkpt lat="46.93663" lon="8.69622">
        <ele>1715</ele>
        <time>2021-08-06T12:17:48.652Z</time>
      </trkpt>
      <trkpt lat="46.93663" lon="8.69621">
        <ele>1715</ele>
        <time>2021-08-06T12:17:49.652Z</time>
      </trkpt>
      <trkpt lat="46.93663" lon="8.6962">
        <ele>1715</ele>
        <time>2021-08-06T12:17:50.652Z</time>
      </trkpt>
      <trkpt lat="46.93663" lon="8.6962">
        <ele>1715</ele>
        <time>2021-08-06T12:17:51.652Z</time>
      </trkpt>
      <trkpt lat="46.93663" lon="8.6962">
        <ele>1714</ele>
        <time>2021-08-06T12:17:52.651Z</time>
      </trkpt>
      <trkpt lat="46.93663" lon="8.69619">
        <ele>1714</ele>
        <time>2021-08-06T12:17:53.652Z</time>
      </trkpt>
      <trkpt lat="46.93663" lon="8.69618">
        <ele>1713</ele>
        <time>2021-08-06T12:17:54.652Z</time>
      </trkpt>
      <trkpt lat="46.93663" lon="8.69617">
        <ele>1713</ele>
        <time>2021-08-06T12:17:55.652Z</time>
      </trkpt>
      <trkpt lat="46.93663" lon="8.69617">
        <ele>1713</ele>
        <time>2021-08-06T12:17:56.652Z</time>
      </trkpt>
      <trkpt lat="46.93662" lon="8.69617">
        <ele>1713</ele>
        <time>2021-08-06T12:17:57.651Z</time>
      </trkpt>
      <trkpt lat="46.93662" lon="8.69616">
        <ele>1712</ele>
        <time>2021-08-06T12:17:58.652Z</time>
      </trkpt>
      <trkpt lat="46.93661" lon="8.69616">
        <ele>1712</ele>
        <time>2021-08-06T12:17:59.651Z</time>
      </trkpt>
      <trkpt lat="46.9366" lon="8.69615">
        <ele>1712</ele>
        <time>2021-08-06T12:18:00.652Z</time>
      </trkpt>
      <trkpt lat="46.93659" lon="8.69615">
        <ele>1712</ele>
        <time>2021-08-06T12:18:01.652Z</time>
      </trkpt>
      <trkpt lat="46.93659" lon="8.69615">
        <ele>1713</ele>
        <time>2021-08-06T12:18:02.652Z</time>
      </trkpt>
      <trkpt lat="46.93658" lon="8.69615">
        <ele>1713</ele>
        <time>2021-08-06T12:18:03.652Z</time>
      </trkpt>
      <trkpt lat="46.93658" lon="8.69615">
        <ele>1713</ele>
        <time>2021-08-06T12:18:04.651Z</time>
      </trkpt>
      <trkpt lat="46.93658" lon="8.69615">
        <ele>1713</ele>
        <time>2021-08-06T12:18:05.652Z</time>
      </trkpt>
      <trkpt lat="46.93657" lon="8.69615">
        <ele>1713</ele>
        <time>2021-08-06T12:18:06.652Z</time>
      </trkpt>
      <trkpt lat="46.93656" lon="8.69616">
        <ele>1713</ele>
        <time>2021-08-06T12:18:07.651Z</time>
      </trkpt>
      <trkpt lat="46.93655" lon="8.69616">
        <ele>1713</ele>
        <time>2021-08-06T12:18:08.652Z</time>
      </trkpt>
      <trkpt lat="46.93655" lon="8.69616">
        <ele>1712</ele>
        <time>2021-08-06T12:18:09.652Z</time>
      </trkpt>
      <trkpt lat="46.93654" lon="8.69615">
        <ele>1712</ele>
        <time>2021-08-06T12:18:10.651Z</time>
      </trkpt>
      <trkpt lat="46.93654" lon="8.69616">
        <ele>1712</ele>
        <time>2021-08-06T12:18:11.651Z</time>
      </trkpt>
      <trkpt lat="46.93653" lon="8.69617">
        <ele>1712</ele>
        <time>2021-08-06T12:18:12.652Z</time>
      </trkpt>
      <trkpt lat="46.93652" lon="8.69617">
        <ele>1712</ele>
        <time>2021-08-06T12:18:13.651Z</time>
      </trkpt>
      <trkpt lat="46.93651" lon="8.69617">
        <ele>1712</ele>
        <time>2021-08-06T12:18:14.652Z</time>
      </trkpt>
      <trkpt lat="46.9365" lon="8.69618">
        <ele>1711</ele>
        <time>2021-08-06T12:18:15.652Z</time>
      </trkpt>
      <trkpt lat="46.9365" lon="8.69617">
        <ele>1710</ele>
        <time>2021-08-06T12:18:16.651Z</time>
      </trkpt>
      <trkpt lat="46.93649" lon="8.69617">
        <ele>1710</ele>
        <time>2021-08-06T12:18:17.652Z</time>
      </trkpt>
      <trkpt lat="46.93649" lon="8.69618">
        <ele>1709</ele>
        <time>2021-08-06T12:18:18.652Z</time>
      </trkpt>
      <trkpt lat="46.93648" lon="8.69618">
        <ele>1709</ele>
        <time>2021-08-06T12:18:19.652Z</time>
      </trkpt>
      <trkpt lat="46.93648" lon="8.69618">
        <ele>1709</ele>
        <time>2021-08-06T12:18:20.652Z</time>
      </trkpt>
      <trkpt lat="46.93648" lon="8.69617">
        <ele>1708</ele>
        <time>2021-08-06T12:18:21.652Z</time>
      </trkpt>
      <trkpt lat="46.93648" lon="8.69617">
        <ele>1708</ele>
        <time>2021-08-06T12:18:22.651Z</time>
      </trkpt>
      <trkpt lat="46.93647" lon="8.69616">
        <ele>1707</ele>
        <time>2021-08-06T12:18:23.652Z</time>
      </trkpt>
      <trkpt lat="46.93647" lon="8.69616">
        <ele>1706</ele>
        <time>2021-08-06T12:18:24.652Z</time>
      </trkpt>
      <trkpt lat="46.93647" lon="8.69616">
        <ele>1706</ele>
        <time>2021-08-06T12:18:25.652Z</time>
      </trkpt>
      <trkpt lat="46.93646" lon="8.69615">
        <ele>1705</ele>
        <time>2021-08-06T12:18:26.652Z</time>
      </trkpt>
      <trkpt lat="46.93645" lon="8.69615">
        <ele>1705</ele>
        <time>2021-08-06T12:18:27.652Z</time>
      </trkpt>
      <trkpt lat="46.93645" lon="8.69614">
        <ele>1704</ele>
        <time>2021-08-06T12:18:28.652Z</time>
      </trkpt>
      <trkpt lat="46.93644" lon="8.69613">
        <ele>1704</ele>
        <time>2021-08-06T12:18:29.652Z</time>
      </trkpt>
      <trkpt lat="46.93643" lon="8.69613">
        <ele>1704</ele>
        <time>2021-08-06T12:18:30.651Z</time>
      </trkpt>
      <trkpt lat="46.93643" lon="8.69612">
        <ele>1704</ele>
        <time>2021-08-06T12:18:31.652Z</time>
      </trkpt>
      <trkpt lat="46.93642" lon="8.69611">
        <ele>1704</ele>
        <time>2021-08-06T12:18:32.651Z</time>
      </trkpt>
      <trkpt lat="46.93641" lon="8.6961">
        <ele>1704</ele>
        <time>2021-08-06T12:18:33.652Z</time>
      </trkpt>
      <trkpt lat="46.9364" lon="8.69609">
        <ele>1704</ele>
        <time>2021-08-06T12:18:34.652Z</time>
      </trkpt>
      <trkpt lat="46.93639" lon="8.69609">
        <ele>1705</ele>
        <time>2021-08-06T12:18:35.652Z</time>
      </trkpt>
      <trkpt lat="46.93639" lon="8.69608">
        <ele>1705</ele>
        <time>2021-08-06T12:18:36.652Z</time>
      </trkpt>
      <trkpt lat="46.93638" lon="8.69607">
        <ele>1705</ele>
        <time>2021-08-06T12:18:37.651Z</time>
      </trkpt>
      <trkpt lat="46.93638" lon="8.69607">
        <ele>1706</ele>
        <time>2021-08-06T12:18:38.652Z</time>
      </trkpt>
      <trkpt lat="46.93637" lon="8.69606">
        <ele>1706</ele>
        <time>2021-08-06T12:18:39.652Z</time>
      </trkpt>
      <trkpt lat="46.93636" lon="8.69605">
        <ele>1707</ele>
        <time>2021-08-06T12:18:40.651Z</time>
      </trkpt>
      <trkpt lat="46.93636" lon="8.69604">
        <ele>1707</ele>
        <time>2021-08-06T12:18:41.652Z</time>
      </trkpt>
      <trkpt lat="46.93635" lon="8.69604">
        <ele>1707</ele>
        <time>2021-08-06T12:18:42.652Z</time>
      </trkpt>
      <trkpt lat="46.93634" lon="8.69603">
        <ele>1707</ele>
        <time>2021-08-06T12:18:43.652Z</time>
      </trkpt>
      <trkpt lat="46.93633" lon="8.69603">
        <ele>1707</ele>
        <time>2021-08-06T12:18:44.652Z</time>
      </trkpt>
      <trkpt lat="46.93632" lon="8.69604">
        <ele>1707</ele>
        <time>2021-08-06T12:18:45.652Z</time>
      </trkpt>
      <trkpt lat="46.93632" lon="8.69603">
        <ele>1707</ele>
        <time>2021-08-06T12:18:46.651Z</time>
      </trkpt>
      <trkpt lat="46.93632" lon="8.69602">
        <ele>1707</ele>
        <time>2021-08-06T12:18:47.652Z</time>
      </trkpt>
      <trkpt lat="46.93632" lon="8.69603">
        <ele>1707</ele>
        <time>2021-08-06T12:18:48.652Z</time>
      </trkpt>
      <trkpt lat="46.93634" lon="8.69608">
        <ele>1705</ele>
        <time>2021-08-06T12:18:49.651Z</time>
      </trkpt>
      <trkpt lat="46.93634" lon="8.69608">
        <ele>1704</ele>
        <time>2021-08-06T12:18:50.652Z</time>
      </trkpt>
      <trkpt lat="46.93633" lon="8.69608">
        <ele>1704</ele>
        <time>2021-08-06T12:18:51.651Z</time>
      </trkpt>
      <trkpt lat="46.93633" lon="8.69607">
        <ele>1704</ele>
        <time>2021-08-06T12:18:52.652Z</time>
      </trkpt>
      <trkpt lat="46.93633" lon="8.69606">
        <ele>1704</ele>
        <time>2021-08-06T12:18:53.652Z</time>
      </trkpt>
      <trkpt lat="46.93632" lon="8.69604">
        <ele>1704</ele>
        <time>2021-08-06T12:18:54.651Z</time>
      </trkpt>
      <trkpt lat="46.93632" lon="8.69603">
        <ele>1705</ele>
        <time>2021-08-06T12:18:55.651Z</time>
      </trkpt>
      <trkpt lat="46.93631" lon="8.69602">
        <ele>1705</ele>
        <time>2021-08-06T12:18:56.651Z</time>
      </trkpt>
      <trkpt lat="46.9363" lon="8.69601">
        <ele>1705</ele>
        <time>2021-08-06T12:18:57.651Z</time>
      </trkpt>
      <trkpt lat="46.93629" lon="8.696">
        <ele>1706</ele>
        <time>2021-08-06T12:18:58.651Z</time>
      </trkpt>
      <trkpt lat="46.93629" lon="8.69599">
        <ele>1706</ele>
        <time>2021-08-06T12:18:59.651Z</time>
      </trkpt>
      <trkpt lat="46.93628" lon="8.69598">
        <ele>1707</ele>
        <time>2021-08-06T12:19:00.651Z</time>
      </trkpt>
      <trkpt lat="46.93627" lon="8.69597">
        <ele>1707</ele>
        <time>2021-08-06T12:19:01.652Z</time>
      </trkpt>
      <trkpt lat="46.93626" lon="8.69596">
        <ele>1708</ele>
        <time>2021-08-06T12:19:02.652Z</time>
      </trkpt>
      <trkpt lat="46.93626" lon="8.69595">
        <ele>1708</ele>
        <time>2021-08-06T12:19:03.652Z</time>
      </trkpt>
      <trkpt lat="46.93626" lon="8.69595">
        <ele>1708</ele>
        <time>2021-08-06T12:19:04.652Z</time>
      </trkpt>
      <trkpt lat="46.93626" lon="8.69595">
        <ele>1708</ele>
        <time>2021-08-06T12:19:05.652Z</time>
      </trkpt>
      <trkpt lat="46.93625" lon="8.69595">
        <ele>1708</ele>
        <time>2021-08-06T12:19:06.652Z</time>
      </trkpt>
      <trkpt lat="46.93624" lon="8.69594">
        <ele>1708</ele>
        <time>2021-08-06T12:19:07.652Z</time>
      </trkpt>
      <trkpt lat="46.93624" lon="8.69594">
        <ele>1708</ele>
        <time>2021-08-06T12:19:08.651Z</time>
      </trkpt>
      <trkpt lat="46.93623" lon="8.69594">
        <ele>1708</ele>
        <time>2021-08-06T12:19:09.651Z</time>
      </trkpt>
      <trkpt lat="46.93622" lon="8.69594">
        <ele>1708</ele>
        <time>2021-08-06T12:19:10.652Z</time>
      </trkpt>
      <trkpt lat="46.93621" lon="8.69593">
        <ele>1708</ele>
        <time>2021-08-06T12:19:11.651Z</time>
      </trkpt>
      <trkpt lat="46.9362" lon="8.69593">
        <ele>1709</ele>
        <time>2021-08-06T12:19:12.652Z</time>
      </trkpt>
      <trkpt lat="46.9362" lon="8.69592">
        <ele>1709</ele>
        <time>2021-08-06T12:19:13.652Z</time>
      </trkpt>
      <trkpt lat="46.93619" lon="8.69591">
        <ele>1709</ele>
        <time>2021-08-06T12:19:14.652Z</time>
      </trkpt>
      <trkpt lat="46.93619" lon="8.6959">
        <ele>1708</ele>
        <time>2021-08-06T12:19:15.652Z</time>
      </trkpt>
      <trkpt lat="46.93618" lon="8.69589">
        <ele>1708</ele>
        <time>2021-08-06T12:19:16.651Z</time>
      </trkpt>
      <trkpt lat="46.93617" lon="8.69588">
        <ele>1708</ele>
        <time>2021-08-06T12:19:17.652Z</time>
      </trkpt>
      <trkpt lat="46.93616" lon="8.69587">
        <ele>1708</ele>
        <time>2021-08-06T12:19:18.652Z</time>
      </trkpt>
      <trkpt lat="46.93615" lon="8.69587">
        <ele>1708</ele>
        <time>2021-08-06T12:19:19.651Z</time>
      </trkpt>
      <trkpt lat="46.93614" lon="8.69586">
        <ele>1707</ele>
        <time>2021-08-06T12:19:20.651Z</time>
      </trkpt>
      <trkpt lat="46.93613" lon="8.69586">
        <ele>1707</ele>
        <time>2021-08-06T12:19:21.651Z</time>
      </trkpt>
      <trkpt lat="46.93612" lon="8.69586">
        <ele>1707</ele>
        <time>2021-08-06T12:19:22.652Z</time>
      </trkpt>
      <trkpt lat="46.93611" lon="8.69585">
        <ele>1707</ele>
        <time>2021-08-06T12:19:23.652Z</time>
      </trkpt>
      <trkpt lat="46.93611" lon="8.69584">
        <ele>1707</ele>
        <time>2021-08-06T12:19:24.651Z</time>
      </trkpt>
      <trkpt lat="46.93611" lon="8.69584">
        <ele>1707</ele>
        <time>2021-08-06T12:19:25.652Z</time>
      </trkpt>
      <trkpt lat="46.93611" lon="8.69583">
        <ele>1708</ele>
        <time>2021-08-06T12:19:26.651Z</time>
      </trkpt>
      <trkpt lat="46.9361" lon="8.69582">
        <ele>1708</ele>
        <time>2021-08-06T12:19:27.652Z</time>
      </trkpt>
      <trkpt lat="46.93609" lon="8.69582">
        <ele>1709</ele>
        <time>2021-08-06T12:19:28.652Z</time>
      </trkpt>
      <trkpt lat="46.93609" lon="8.69581">
        <ele>1708</ele>
        <time>2021-08-06T12:19:29.652Z</time>
      </trkpt>
      <trkpt lat="46.93608" lon="8.6958">
        <ele>1708</ele>
        <time>2021-08-06T12:19:30.652Z</time>
      </trkpt>
      <trkpt lat="46.93607" lon="8.69579">
        <ele>1708</ele>
        <time>2021-08-06T12:19:31.651Z</time>
      </trkpt>
      <trkpt lat="46.93605" lon="8.69579">
        <ele>1708</ele>
        <time>2021-08-06T12:19:32.651Z</time>
      </trkpt>
      <trkpt lat="46.93604" lon="8.69579">
        <ele>1708</ele>
        <time>2021-08-06T12:19:33.652Z</time>
      </trkpt>
      <trkpt lat="46.93604" lon="8.69578">
        <ele>1707</ele>
        <time>2021-08-06T12:19:34.652Z</time>
      </trkpt>
      <trkpt lat="46.93603" lon="8.69577">
        <ele>1707</ele>
        <time>2021-08-06T12:19:35.652Z</time>
      </trkpt>
      <trkpt lat="46.93602" lon="8.69577">
        <ele>1707</ele>
        <time>2021-08-06T12:19:36.651Z</time>
      </trkpt>
      <trkpt lat="46.93601" lon="8.69577">
        <ele>1708</ele>
        <time>2021-08-06T12:19:37.652Z</time>
      </trkpt>
      <trkpt lat="46.936" lon="8.69577">
        <ele>1708</ele>
        <time>2021-08-06T12:19:38.652Z</time>
      </trkpt>
      <trkpt lat="46.936" lon="8.69576">
        <ele>1708</ele>
        <time>2021-08-06T12:19:39.652Z</time>
      </trkpt>
      <trkpt lat="46.93599" lon="8.69576">
        <ele>1708</ele>
        <time>2021-08-06T12:19:40.651Z</time>
      </trkpt>
      <trkpt lat="46.93599" lon="8.69575">
        <ele>1708</ele>
        <time>2021-08-06T12:19:41.652Z</time>
      </trkpt>
      <trkpt lat="46.93598" lon="8.69575">
        <ele>1709</ele>
        <time>2021-08-06T12:19:42.652Z</time>
      </trkpt>
      <trkpt lat="46.93598" lon="8.69574">
        <ele>1709</ele>
        <time>2021-08-06T12:19:43.652Z</time>
      </trkpt>
      <trkpt lat="46.93597" lon="8.69574">
        <ele>1709</ele>
        <time>2021-08-06T12:19:44.652Z</time>
      </trkpt>
      <trkpt lat="46.93597" lon="8.69575">
        <ele>1709</ele>
        <time>2021-08-06T12:19:45.651Z</time>
      </trkpt>
      <trkpt lat="46.93596" lon="8.69575">
        <ele>1709</ele>
        <time>2021-08-06T12:19:46.652Z</time>
      </trkpt>
      <trkpt lat="46.93596" lon="8.69575">
        <ele>1709</ele>
        <time>2021-08-06T12:19:47.652Z</time>
      </trkpt>
      <trkpt lat="46.93595" lon="8.69576">
        <ele>1710</ele>
        <time>2021-08-06T12:19:48.652Z</time>
      </trkpt>
      <trkpt lat="46.93594" lon="8.69575">
        <ele>1710</ele>
        <time>2021-08-06T12:19:49.652Z</time>
      </trkpt>
      <trkpt lat="46.93593" lon="8.69574">
        <ele>1710</ele>
        <time>2021-08-06T12:19:50.651Z</time>
      </trkpt>
      <trkpt lat="46.93593" lon="8.69575">
        <ele>1711</ele>
        <time>2021-08-06T12:19:51.652Z</time>
      </trkpt>
      <trkpt lat="46.93592" lon="8.69575">
        <ele>1711</ele>
        <time>2021-08-06T12:19:52.651Z</time>
      </trkpt>
      <trkpt lat="46.93592" lon="8.69575">
        <ele>1711</ele>
        <time>2021-08-06T12:19:53.651Z</time>
      </trkpt>
      <trkpt lat="46.93591" lon="8.69575">
        <ele>1712</ele>
        <time>2021-08-06T12:19:54.652Z</time>
      </trkpt>
      <trkpt lat="46.9359" lon="8.69575">
        <ele>1712</ele>
        <time>2021-08-06T12:19:55.652Z</time>
      </trkpt>
      <trkpt lat="46.93589" lon="8.69575">
        <ele>1713</ele>
        <time>2021-08-06T12:19:56.652Z</time>
      </trkpt>
      <trkpt lat="46.93589" lon="8.69575">
        <ele>1713</ele>
        <time>2021-08-06T12:19:57.652Z</time>
      </trkpt>
      <trkpt lat="46.93588" lon="8.69575">
        <ele>1714</ele>
        <time>2021-08-06T12:19:58.652Z</time>
      </trkpt>
      <trkpt lat="46.93588" lon="8.69575">
        <ele>1714</ele>
        <time>2021-08-06T12:19:59.652Z</time>
      </trkpt>
      <trkpt lat="46.93587" lon="8.69575">
        <ele>1714</ele>
        <time>2021-08-06T12:20:00.652Z</time>
      </trkpt>
      <trkpt lat="46.93587" lon="8.69575">
        <ele>1715</ele>
        <time>2021-08-06T12:20:01.652Z</time>
      </trkpt>
      <trkpt lat="46.93587" lon="8.69575">
        <ele>1716</ele>
        <time>2021-08-06T12:20:02.652Z</time>
      </trkpt>
      <trkpt lat="46.93586" lon="8.69575">
        <ele>1716</ele>
        <time>2021-08-06T12:20:03.652Z</time>
      </trkpt>
      <trkpt lat="46.93586" lon="8.69575">
        <ele>1717</ele>
        <time>2021-08-06T12:20:04.651Z</time>
      </trkpt>
      <trkpt lat="46.93585" lon="8.69575">
        <ele>1717</ele>
        <time>2021-08-06T12:20:05.652Z</time>
      </trkpt>
      <trkpt lat="46.93585" lon="8.69576">
        <ele>1718</ele>
        <time>2021-08-06T12:20:06.652Z</time>
      </trkpt>
      <trkpt lat="46.93584" lon="8.69577">
        <ele>1718</ele>
        <time>2021-08-06T12:20:07.652Z</time>
      </trkpt>
      <trkpt lat="46.93583" lon="8.69578">
        <ele>1718</ele>
        <time>2021-08-06T12:20:08.652Z</time>
      </trkpt>
      <trkpt lat="46.93583" lon="8.69579">
        <ele>1717</ele>
        <time>2021-08-06T12:20:09.652Z</time>
      </trkpt>
      <trkpt lat="46.93582" lon="8.69579">
        <ele>1717</ele>
        <time>2021-08-06T12:20:10.652Z</time>
      </trkpt>
      <trkpt lat="46.93582" lon="8.69579">
        <ele>1717</ele>
        <time>2021-08-06T12:20:11.652Z</time>
      </trkpt>
      <trkpt lat="46.93582" lon="8.69579">
        <ele>1717</ele>
        <time>2021-08-06T12:20:12.652Z</time>
      </trkpt>
      <trkpt lat="46.93581" lon="8.69579">
        <ele>1717</ele>
        <time>2021-08-06T12:20:13.651Z</time>
      </trkpt>
      <trkpt lat="46.93581" lon="8.69579">
        <ele>1716</ele>
        <time>2021-08-06T12:20:14.652Z</time>
      </trkpt>
      <trkpt lat="46.93581" lon="8.69578">
        <ele>1716</ele>
        <time>2021-08-06T12:20:15.652Z</time>
      </trkpt>
      <trkpt lat="46.9358" lon="8.69578">
        <ele>1716</ele>
        <time>2021-08-06T12:20:16.651Z</time>
      </trkpt>
      <trkpt lat="46.9358" lon="8.69578">
        <ele>1716</ele>
        <time>2021-08-06T12:20:17.651Z</time>
      </trkpt>
      <trkpt lat="46.9358" lon="8.69577">
        <ele>1716</ele>
        <time>2021-08-06T12:20:18.652Z</time>
      </trkpt>
      <trkpt lat="46.9358" lon="8.69577">
        <ele>1717</ele>
        <time>2021-08-06T12:20:19.652Z</time>
      </trkpt>
      <trkpt lat="46.9358" lon="8.69576">
        <ele>1717</ele>
        <time>2021-08-06T12:20:20.652Z</time>
      </trkpt>
      <trkpt lat="46.9358" lon="8.69575">
        <ele>1717</ele>
        <time>2021-08-06T12:20:21.652Z</time>
      </trkpt>
      <trkpt lat="46.93579" lon="8.69575">
        <ele>1717</ele>
        <time>2021-08-06T12:20:22.652Z</time>
      </trkpt>
      <trkpt lat="46.93579" lon="8.69574">
        <ele>1717</ele>
        <time>2021-08-06T12:20:23.652Z</time>
      </trkpt>
      <trkpt lat="46.93579" lon="8.69573">
        <ele>1717</ele>
        <time>2021-08-06T12:20:24.651Z</time>
      </trkpt>
      <trkpt lat="46.93579" lon="8.69572">
        <ele>1718</ele>
        <time>2021-08-06T12:20:25.651Z</time>
      </trkpt>
      <trkpt lat="46.93579" lon="8.69572">
        <ele>1718</ele>
        <time>2021-08-06T12:20:26.652Z</time>
      </trkpt>
      <trkpt lat="46.93579" lon="8.69571">
        <ele>1718</ele>
        <time>2021-08-06T12:20:27.652Z</time>
      </trkpt>
      <trkpt lat="46.93579" lon="8.69571">
        <ele>1718</ele>
        <time>2021-08-06T12:20:28.652Z</time>
      </trkpt>
      <trkpt lat="46.93579" lon="8.6957">
        <ele>1718</ele>
        <time>2021-08-06T12:20:29.652Z</time>
      </trkpt>
      <trkpt lat="46.93579" lon="8.69569">
        <ele>1718</ele>
        <time>2021-08-06T12:20:30.652Z</time>
      </trkpt>
      <trkpt lat="46.93579" lon="8.69569">
        <ele>1718</ele>
        <time>2021-08-06T12:20:31.652Z</time>
      </trkpt>
      <trkpt lat="46.93579" lon="8.69569">
        <ele>1719</ele>
        <time>2021-08-06T12:20:32.651Z</time>
      </trkpt>
      <trkpt lat="46.9358" lon="8.69569">
        <ele>1719</ele>
        <time>2021-08-06T12:20:33.652Z</time>
      </trkpt>
      <trkpt lat="46.93581" lon="8.69568">
        <ele>1719</ele>
        <time>2021-08-06T12:20:34.652Z</time>
      </trkpt>
      <trkpt lat="46.93581" lon="8.69568">
        <ele>1719</ele>
        <time>2021-08-06T12:20:35.651Z</time>
      </trkpt>
      <trkpt lat="46.93581" lon="8.69567">
        <ele>1720</ele>
        <time>2021-08-06T12:20:36.652Z</time>
      </trkpt>
      <trkpt lat="46.93581" lon="8.69566">
        <ele>1720</ele>
        <time>2021-08-06T12:20:37.651Z</time>
      </trkpt>
      <trkpt lat="46.93581" lon="8.69565">
        <ele>1720</ele>
        <time>2021-08-06T12:20:38.651Z</time>
      </trkpt>
      <trkpt lat="46.93581" lon="8.69564">
        <ele>1720</ele>
        <time>2021-08-06T12:20:39.652Z</time>
      </trkpt>
      <trkpt lat="46.93581" lon="8.69563">
        <ele>1720</ele>
        <time>2021-08-06T12:20:40.651Z</time>
      </trkpt>
      <trkpt lat="46.93581" lon="8.69562">
        <ele>1721</ele>
        <time>2021-08-06T12:20:41.652Z</time>
      </trkpt>
      <trkpt lat="46.9358" lon="8.6956">
        <ele>1721</ele>
        <time>2021-08-06T12:20:42.651Z</time>
      </trkpt>
      <trkpt lat="46.9358" lon="8.69559">
        <ele>1721</ele>
        <time>2021-08-06T12:20:43.652Z</time>
      </trkpt>
      <trkpt lat="46.9358" lon="8.69558">
        <ele>1722</ele>
        <time>2021-08-06T12:20:44.652Z</time>
      </trkpt>
      <trkpt lat="46.9358" lon="8.69557">
        <ele>1722</ele>
        <time>2021-08-06T12:20:45.652Z</time>
      </trkpt>
      <trkpt lat="46.9358" lon="8.69557">
        <ele>1722</ele>
        <time>2021-08-06T12:20:46.652Z</time>
      </trkpt>
      <trkpt lat="46.9358" lon="8.69557">
        <ele>1722</ele>
        <time>2021-08-06T12:20:47.652Z</time>
      </trkpt>
      <trkpt lat="46.93579" lon="8.69558">
        <ele>1723</ele>
        <time>2021-08-06T12:20:48.652Z</time>
      </trkpt>
      <trkpt lat="46.93578" lon="8.69558">
        <ele>1723</ele>
        <time>2021-08-06T12:20:49.652Z</time>
      </trkpt>
      <trkpt lat="46.93577" lon="8.69558">
        <ele>1723</ele>
        <time>2021-08-06T12:20:50.652Z</time>
      </trkpt>
      <trkpt lat="46.93577" lon="8.69557">
        <ele>1723</ele>
        <time>2021-08-06T12:20:51.652Z</time>
      </trkpt>
      <trkpt lat="46.93576" lon="8.69556">
        <ele>1723</ele>
        <time>2021-08-06T12:20:52.651Z</time>
      </trkpt>
      <trkpt lat="46.93576" lon="8.69556">
        <ele>1723</ele>
        <time>2021-08-06T12:20:53.651Z</time>
      </trkpt>
      <trkpt lat="46.93575" lon="8.69555">
        <ele>1723</ele>
        <time>2021-08-06T12:20:54.651Z</time>
      </trkpt>
      <trkpt lat="46.93574" lon="8.69555">
        <ele>1723</ele>
        <time>2021-08-06T12:20:55.652Z</time>
      </trkpt>
      <trkpt lat="46.93574" lon="8.69556">
        <ele>1723</ele>
        <time>2021-08-06T12:20:56.651Z</time>
      </trkpt>
      <trkpt lat="46.93574" lon="8.69556">
        <ele>1723</ele>
        <time>2021-08-06T12:20:57.652Z</time>
      </trkpt>
      <trkpt lat="46.93573" lon="8.69556">
        <ele>1722</ele>
        <time>2021-08-06T12:20:58.653Z</time>
      </trkpt>
      <trkpt lat="46.93572" lon="8.69555">
        <ele>1722</ele>
        <time>2021-08-06T12:20:59.652Z</time>
      </trkpt>
      <trkpt lat="46.93571" lon="8.69554">
        <ele>1722</ele>
        <time>2021-08-06T12:21:00.652Z</time>
      </trkpt>
      <trkpt lat="46.9357" lon="8.69552">
        <ele>1722</ele>
        <time>2021-08-06T12:21:01.653Z</time>
      </trkpt>
      <trkpt lat="46.9357" lon="8.69551">
        <ele>1723</ele>
        <time>2021-08-06T12:21:02.652Z</time>
      </trkpt>
      <trkpt lat="46.93569" lon="8.69551">
        <ele>1723</ele>
        <time>2021-08-06T12:21:03.653Z</time>
      </trkpt>
      <trkpt lat="46.93569" lon="8.6955">
        <ele>1724</ele>
        <time>2021-08-06T12:21:04.653Z</time>
      </trkpt>
      <trkpt lat="46.93568" lon="8.69549">
        <ele>1724</ele>
        <time>2021-08-06T12:21:05.653Z</time>
      </trkpt>
      <trkpt lat="46.93567" lon="8.69548">
        <ele>1725</ele>
        <time>2021-08-06T12:21:06.652Z</time>
      </trkpt>
      <trkpt lat="46.93566" lon="8.69547">
        <ele>1725</ele>
        <time>2021-08-06T12:21:07.653Z</time>
      </trkpt>
      <trkpt lat="46.93566" lon="8.69546">
        <ele>1726</ele>
        <time>2021-08-06T12:21:08.653Z</time>
      </trkpt>
      <trkpt lat="46.93565" lon="8.69545">
        <ele>1726</ele>
        <time>2021-08-06T12:21:09.653Z</time>
      </trkpt>
      <trkpt lat="46.93564" lon="8.69544">
        <ele>1726</ele>
        <time>2021-08-06T12:21:10.653Z</time>
      </trkpt>
      <trkpt lat="46.93564" lon="8.69544">
        <ele>1726</ele>
        <time>2021-08-06T12:21:11.652Z</time>
      </trkpt>
      <trkpt lat="46.93563" lon="8.69543">
        <ele>1726</ele>
        <time>2021-08-06T12:21:12.653Z</time>
      </trkpt>
      <trkpt lat="46.93563" lon="8.69543">
        <ele>1726</ele>
        <time>2021-08-06T12:21:13.653Z</time>
      </trkpt>
      <trkpt lat="46.93562" lon="8.69543">
        <ele>1726</ele>
        <time>2021-08-06T12:21:14.652Z</time>
      </trkpt>
      <trkpt lat="46.93561" lon="8.69543">
        <ele>1726</ele>
        <time>2021-08-06T12:21:15.653Z</time>
      </trkpt>
      <trkpt lat="46.9356" lon="8.69542">
        <ele>1727</ele>
        <time>2021-08-06T12:21:16.652Z</time>
      </trkpt>
      <trkpt lat="46.93559" lon="8.69541">
        <ele>1727</ele>
        <time>2021-08-06T12:21:17.653Z</time>
      </trkpt>
      <trkpt lat="46.93559" lon="8.69541">
        <ele>1727</ele>
        <time>2021-08-06T12:21:18.653Z</time>
      </trkpt>
      <trkpt lat="46.93558" lon="8.69541">
        <ele>1728</ele>
        <time>2021-08-06T12:21:20.710Z</time>
      </trkpt>
      <trkpt lat="46.93557" lon="8.69541">
        <ele>1728</ele>
        <time>2021-08-06T12:21:21.711Z</time>
      </trkpt>
      <trkpt lat="46.93557" lon="8.6954">
        <ele>1728</ele>
        <time>2021-08-06T12:21:22.710Z</time>
      </trkpt>
      <trkpt lat="46.93556" lon="8.6954">
        <ele>1729</ele>
        <time>2021-08-06T12:21:23.710Z</time>
      </trkpt>
      <trkpt lat="46.93555" lon="8.69539">
        <ele>1729</ele>
        <time>2021-08-06T12:21:24.711Z</time>
      </trkpt>
      <trkpt lat="46.93554" lon="8.69538">
        <ele>1729</ele>
        <time>2021-08-06T12:21:25.710Z</time>
      </trkpt>
      <trkpt lat="46.93553" lon="8.69537">
        <ele>1730</ele>
        <time>2021-08-06T12:21:26.710Z</time>
      </trkpt>
      <trkpt lat="46.93552" lon="8.69537">
        <ele>1730</ele>
        <time>2021-08-06T12:21:27.710Z</time>
      </trkpt>
      <trkpt lat="46.93551" lon="8.69536">
        <ele>1730</ele>
        <time>2021-08-06T12:21:28.710Z</time>
      </trkpt>
      <trkpt lat="46.9355" lon="8.69535">
        <ele>1730</ele>
        <time>2021-08-06T12:21:29.711Z</time>
      </trkpt>
      <trkpt lat="46.9355" lon="8.69535">
        <ele>1730</ele>
        <time>2021-08-06T12:21:30.710Z</time>
      </trkpt>
      <trkpt lat="46.93549" lon="8.69534">
        <ele>1731</ele>
        <time>2021-08-06T12:21:31.710Z</time>
      </trkpt>
      <trkpt lat="46.93548" lon="8.69532">
        <ele>1731</ele>
        <time>2021-08-06T12:21:32.710Z</time>
      </trkpt>
      <trkpt lat="46.93547" lon="8.6953">
        <ele>1731</ele>
        <time>2021-08-06T12:21:33.710Z</time>
      </trkpt>
      <trkpt lat="46.93546" lon="8.69529">
        <ele>1732</ele>
        <time>2021-08-06T12:21:34.711Z</time>
      </trkpt>
      <trkpt lat="46.93545" lon="8.69528">
        <ele>1732</ele>
        <time>2021-08-06T12:21:35.710Z</time>
      </trkpt>
      <trkpt lat="46.93544" lon="8.69528">
        <ele>1733</ele>
        <time>2021-08-06T12:21:36.711Z</time>
      </trkpt>
      <trkpt lat="46.93544" lon="8.69527">
        <ele>1733</ele>
        <time>2021-08-06T12:21:37.710Z</time>
      </trkpt>
      <trkpt lat="46.93543" lon="8.69527">
        <ele>1733</ele>
        <time>2021-08-06T12:21:38.711Z</time>
      </trkpt>
      <trkpt lat="46.93542" lon="8.69526">
        <ele>1734</ele>
        <time>2021-08-06T12:21:39.711Z</time>
      </trkpt>
      <trkpt lat="46.93541" lon="8.69526">
        <ele>1734</ele>
        <time>2021-08-06T12:21:40.711Z</time>
      </trkpt>
      <trkpt lat="46.9354" lon="8.69526">
        <ele>1734</ele>
        <time>2021-08-06T12:21:41.710Z</time>
      </trkpt>
      <trkpt lat="46.9354" lon="8.69525">
        <ele>1734</ele>
        <time>2021-08-06T12:21:42.711Z</time>
      </trkpt>
      <trkpt lat="46.9354" lon="8.69524">
        <ele>1734</ele>
        <time>2021-08-06T12:21:43.711Z</time>
      </trkpt>
      <trkpt lat="46.93539" lon="8.69523">
        <ele>1734</ele>
        <time>2021-08-06T12:21:44.711Z</time>
      </trkpt>
      <trkpt lat="46.93539" lon="8.69523">
        <ele>1734</ele>
        <time>2021-08-06T12:21:45.711Z</time>
      </trkpt>
      <trkpt lat="46.93538" lon="8.69524">
        <ele>1734</ele>
        <time>2021-08-06T12:21:46.711Z</time>
      </trkpt>
      <trkpt lat="46.93537" lon="8.69523">
        <ele>1734</ele>
        <time>2021-08-06T12:21:47.710Z</time>
      </trkpt>
      <trkpt lat="46.93537" lon="8.69524">
        <ele>1734</ele>
        <time>2021-08-06T12:21:48.711Z</time>
      </trkpt>
      <trkpt lat="46.93536" lon="8.69524">
        <ele>1734</ele>
        <time>2021-08-06T12:21:49.710Z</time>
      </trkpt>
      <trkpt lat="46.93535" lon="8.69524">
        <ele>1734</ele>
        <time>2021-08-06T12:21:50.711Z</time>
      </trkpt>
      <trkpt lat="46.93534" lon="8.69523">
        <ele>1734</ele>
        <time>2021-08-06T12:21:51.711Z</time>
      </trkpt>
      <trkpt lat="46.93534" lon="8.69522">
        <ele>1734</ele>
        <time>2021-08-06T12:21:52.711Z</time>
      </trkpt>
      <trkpt lat="46.93534" lon="8.69521">
        <ele>1734</ele>
        <time>2021-08-06T12:21:53.711Z</time>
      </trkpt>
      <trkpt lat="46.93533" lon="8.69521">
        <ele>1734</ele>
        <time>2021-08-06T12:21:54.711Z</time>
      </trkpt>
      <trkpt lat="46.93534" lon="8.69521">
        <ele>1734</ele>
        <time>2021-08-06T12:21:55.711Z</time>
      </trkpt>
      <trkpt lat="46.93533" lon="8.69519">
        <ele>1735</ele>
        <time>2021-08-06T12:21:56.711Z</time>
      </trkpt>
      <trkpt lat="46.93532" lon="8.69517">
        <ele>1735</ele>
        <time>2021-08-06T12:21:57.711Z</time>
      </trkpt>
      <trkpt lat="46.93531" lon="8.69517">
        <ele>1735</ele>
        <time>2021-08-06T12:21:58.711Z</time>
      </trkpt>
      <trkpt lat="46.9353" lon="8.69516">
        <ele>1734</ele>
        <time>2021-08-06T12:21:59.710Z</time>
      </trkpt>
      <trkpt lat="46.93529" lon="8.69516">
        <ele>1734</ele>
        <time>2021-08-06T12:22:00.711Z</time>
      </trkpt>
      <trkpt lat="46.93528" lon="8.69516">
        <ele>1734</ele>
        <time>2021-08-06T12:22:01.711Z</time>
      </trkpt>
      <trkpt lat="46.93528" lon="8.69515">
        <ele>1734</ele>
        <time>2021-08-06T12:22:02.710Z</time>
      </trkpt>
      <trkpt lat="46.93527" lon="8.69515">
        <ele>1734</ele>
        <time>2021-08-06T12:22:03.711Z</time>
      </trkpt>
      <trkpt lat="46.93526" lon="8.69514">
        <ele>1734</ele>
        <time>2021-08-06T12:22:04.710Z</time>
      </trkpt>
      <trkpt lat="46.93526" lon="8.69513">
        <ele>1733</ele>
        <time>2021-08-06T12:22:05.711Z</time>
      </trkpt>
      <trkpt lat="46.93525" lon="8.69511">
        <ele>1733</ele>
        <time>2021-08-06T12:22:06.711Z</time>
      </trkpt>
      <trkpt lat="46.93525" lon="8.6951">
        <ele>1733</ele>
        <time>2021-08-06T12:22:07.710Z</time>
      </trkpt>
      <trkpt lat="46.93525" lon="8.69509">
        <ele>1733</ele>
        <time>2021-08-06T12:22:08.711Z</time>
      </trkpt>
      <trkpt lat="46.93524" lon="8.69508">
        <ele>1733</ele>
        <time>2021-08-06T12:22:09.711Z</time>
      </trkpt>
      <trkpt lat="46.93523" lon="8.69507">
        <ele>1733</ele>
        <time>2021-08-06T12:22:10.710Z</time>
      </trkpt>
      <trkpt lat="46.93523" lon="8.69506">
        <ele>1732</ele>
        <time>2021-08-06T12:22:11.711Z</time>
      </trkpt>
      <trkpt lat="46.93523" lon="8.69504">
        <ele>1732</ele>
        <time>2021-08-06T12:22:12.711Z</time>
      </trkpt>
      <trkpt lat="46.93523" lon="8.69503">
        <ele>1732</ele>
        <time>2021-08-06T12:22:13.711Z</time>
      </trkpt>
      <trkpt lat="46.93522" lon="8.69501">
        <ele>1732</ele>
        <time>2021-08-06T12:22:14.711Z</time>
      </trkpt>
      <trkpt lat="46.93522" lon="8.695">
        <ele>1732</ele>
        <time>2021-08-06T12:22:15.711Z</time>
      </trkpt>
      <trkpt lat="46.93521" lon="8.69499">
        <ele>1732</ele>
        <time>2021-08-06T12:22:16.711Z</time>
      </trkpt>
      <trkpt lat="46.93521" lon="8.69497">
        <ele>1732</ele>
        <time>2021-08-06T12:22:17.711Z</time>
      </trkpt>
      <trkpt lat="46.93521" lon="8.69494">
        <ele>1732</ele>
        <time>2021-08-06T12:22:18.711Z</time>
      </trkpt>
      <trkpt lat="46.9352" lon="8.69493">
        <ele>1732</ele>
        <time>2021-08-06T12:22:19.711Z</time>
      </trkpt>
      <trkpt lat="46.9352" lon="8.69492">
        <ele>1732</ele>
        <time>2021-08-06T12:22:20.711Z</time>
      </trkpt>
      <trkpt lat="46.9352" lon="8.69491">
        <ele>1732</ele>
        <time>2021-08-06T12:22:21.710Z</time>
      </trkpt>
      <trkpt lat="46.93521" lon="8.6949">
        <ele>1732</ele>
        <time>2021-08-06T12:22:22.711Z</time>
      </trkpt>
      <trkpt lat="46.9352" lon="8.69489">
        <ele>1732</ele>
        <time>2021-08-06T12:22:23.711Z</time>
      </trkpt>
      <trkpt lat="46.9352" lon="8.69489">
        <ele>1732</ele>
        <time>2021-08-06T12:22:24.710Z</time>
      </trkpt>
      <trkpt lat="46.93519" lon="8.69489">
        <ele>1732</ele>
        <time>2021-08-06T12:22:25.711Z</time>
      </trkpt>
      <trkpt lat="46.93519" lon="8.69489">
        <ele>1733</ele>
        <time>2021-08-06T12:22:26.711Z</time>
      </trkpt>
      <trkpt lat="46.93518" lon="8.69487">
        <ele>1733</ele>
        <time>2021-08-06T12:22:27.711Z</time>
      </trkpt>
      <trkpt lat="46.93517" lon="8.69484">
        <ele>1733</ele>
        <time>2021-08-06T12:22:28.711Z</time>
      </trkpt>
      <trkpt lat="46.93517" lon="8.69483">
        <ele>1733</ele>
        <time>2021-08-06T12:22:29.711Z</time>
      </trkpt>
      <trkpt lat="46.93517" lon="8.69481">
        <ele>1734</ele>
        <time>2021-08-06T12:22:30.711Z</time>
      </trkpt>
      <trkpt lat="46.93518" lon="8.6948">
        <ele>1734</ele>
        <time>2021-08-06T12:22:31.710Z</time>
      </trkpt>
      <trkpt lat="46.93517" lon="8.69479">
        <ele>1734</ele>
        <time>2021-08-06T12:22:32.710Z</time>
      </trkpt>
      <trkpt lat="46.93516" lon="8.69478">
        <ele>1734</ele>
        <time>2021-08-06T12:22:33.710Z</time>
      </trkpt>
      <trkpt lat="46.93515" lon="8.69477">
        <ele>1734</ele>
        <time>2021-08-06T12:22:34.711Z</time>
      </trkpt>
      <trkpt lat="46.93514" lon="8.69476">
        <ele>1733</ele>
        <time>2021-08-06T12:22:35.710Z</time>
      </trkpt>
      <trkpt lat="46.93513" lon="8.69475">
        <ele>1733</ele>
        <time>2021-08-06T12:22:36.710Z</time>
      </trkpt>
      <trkpt lat="46.93512" lon="8.69475">
        <ele>1733</ele>
        <time>2021-08-06T12:22:37.710Z</time>
      </trkpt>
      <trkpt lat="46.93512" lon="8.69474">
        <ele>1733</ele>
        <time>2021-08-06T12:22:38.710Z</time>
      </trkpt>
      <trkpt lat="46.93511" lon="8.69474">
        <ele>1733</ele>
        <time>2021-08-06T12:22:39.711Z</time>
      </trkpt>
      <trkpt lat="46.93511" lon="8.69473">
        <ele>1733</ele>
        <time>2021-08-06T12:22:40.710Z</time>
      </trkpt>
      <trkpt lat="46.9351" lon="8.69472">
        <ele>1733</ele>
        <time>2021-08-06T12:22:41.711Z</time>
      </trkpt>
      <trkpt lat="46.93509" lon="8.69472">
        <ele>1733</ele>
        <time>2021-08-06T12:22:42.711Z</time>
      </trkpt>
      <trkpt lat="46.93508" lon="8.69471">
        <ele>1733</ele>
        <time>2021-08-06T12:22:43.711Z</time>
      </trkpt>
      <trkpt lat="46.93507" lon="8.6947">
        <ele>1734</ele>
        <time>2021-08-06T12:22:44.710Z</time>
      </trkpt>
      <trkpt lat="46.93507" lon="8.6947">
        <ele>1734</ele>
        <time>2021-08-06T12:22:45.710Z</time>
      </trkpt>
      <trkpt lat="46.93506" lon="8.69469">
        <ele>1734</ele>
        <time>2021-08-06T12:22:46.711Z</time>
      </trkpt>
      <trkpt lat="46.93505" lon="8.69467">
        <ele>1734</ele>
        <time>2021-08-06T12:22:47.711Z</time>
      </trkpt>
      <trkpt lat="46.93505" lon="8.69466">
        <ele>1734</ele>
        <time>2021-08-06T12:22:48.711Z</time>
      </trkpt>
      <trkpt lat="46.93504" lon="8.69464">
        <ele>1734</ele>
        <time>2021-08-06T12:22:49.711Z</time>
      </trkpt>
      <trkpt lat="46.93503" lon="8.69462">
        <ele>1734</ele>
        <time>2021-08-06T12:22:50.711Z</time>
      </trkpt>
      <trkpt lat="46.93502" lon="8.69461">
        <ele>1734</ele>
        <time>2021-08-06T12:22:51.711Z</time>
      </trkpt>
      <trkpt lat="46.93502" lon="8.6946">
        <ele>1734</ele>
        <time>2021-08-06T12:22:52.711Z</time>
      </trkpt>
      <trkpt lat="46.93501" lon="8.69458">
        <ele>1734</ele>
        <time>2021-08-06T12:22:53.710Z</time>
      </trkpt>
      <trkpt lat="46.93501" lon="8.69456">
        <ele>1734</ele>
        <time>2021-08-06T12:22:54.711Z</time>
      </trkpt>
      <trkpt lat="46.93501" lon="8.69454">
        <ele>1734</ele>
        <time>2021-08-06T12:22:55.710Z</time>
      </trkpt>
      <trkpt lat="46.93502" lon="8.69453">
        <ele>1734</ele>
        <time>2021-08-06T12:22:56.711Z</time>
      </trkpt>
      <trkpt lat="46.93501" lon="8.69451">
        <ele>1734</ele>
        <time>2021-08-06T12:22:57.710Z</time>
      </trkpt>
      <trkpt lat="46.93499" lon="8.6945">
        <ele>1734</ele>
        <time>2021-08-06T12:22:58.710Z</time>
      </trkpt>
      <trkpt lat="46.93498" lon="8.6945">
        <ele>1734</ele>
        <time>2021-08-06T12:22:59.711Z</time>
      </trkpt>
      <trkpt lat="46.93498" lon="8.69449">
        <ele>1734</ele>
        <time>2021-08-06T12:23:00.711Z</time>
      </trkpt>
      <trkpt lat="46.93497" lon="8.69449">
        <ele>1734</ele>
        <time>2021-08-06T12:23:01.711Z</time>
      </trkpt>
      <trkpt lat="46.93497" lon="8.69448">
        <ele>1734</ele>
        <time>2021-08-06T12:23:02.710Z</time>
      </trkpt>
      <trkpt lat="46.93496" lon="8.69448">
        <ele>1734</ele>
        <time>2021-08-06T12:23:03.710Z</time>
      </trkpt>
      <trkpt lat="46.93495" lon="8.69447">
        <ele>1734</ele>
        <time>2021-08-06T12:23:04.711Z</time>
      </trkpt>
      <trkpt lat="46.93494" lon="8.69446">
        <ele>1733</ele>
        <time>2021-08-06T12:23:05.711Z</time>
      </trkpt>
      <trkpt lat="46.93493" lon="8.69444">
        <ele>1733</ele>
        <time>2021-08-06T12:23:06.711Z</time>
      </trkpt>
      <trkpt lat="46.93492" lon="8.69443">
        <ele>1733</ele>
        <time>2021-08-06T12:23:07.711Z</time>
      </trkpt>
      <trkpt lat="46.93492" lon="8.69442">
        <ele>1733</ele>
        <time>2021-08-06T12:23:08.711Z</time>
      </trkpt>
      <trkpt lat="46.93492" lon="8.6944">
        <ele>1732</ele>
        <time>2021-08-06T12:23:09.710Z</time>
      </trkpt>
      <trkpt lat="46.93492" lon="8.69439">
        <ele>1732</ele>
        <time>2021-08-06T12:23:10.711Z</time>
      </trkpt>
      <trkpt lat="46.93492" lon="8.69438">
        <ele>1732</ele>
        <time>2021-08-06T12:23:11.711Z</time>
      </trkpt>
      <trkpt lat="46.93493" lon="8.69436">
        <ele>1732</ele>
        <time>2021-08-06T12:23:12.711Z</time>
      </trkpt>
      <trkpt lat="46.93493" lon="8.69436">
        <ele>1732</ele>
        <time>2021-08-06T12:23:13.711Z</time>
      </trkpt>
      <trkpt lat="46.93493" lon="8.69435">
        <ele>1732</ele>
        <time>2021-08-06T12:23:14.710Z</time>
      </trkpt>
      <trkpt lat="46.93494" lon="8.69436">
        <ele>1732</ele>
        <time>2021-08-06T12:23:15.710Z</time>
      </trkpt>
      <trkpt lat="46.93494" lon="8.69435">
        <ele>1733</ele>
        <time>2021-08-06T12:23:16.712Z</time>
      </trkpt>
      <trkpt lat="46.93494" lon="8.69434">
        <ele>1733</ele>
        <time>2021-08-06T12:23:17.711Z</time>
      </trkpt>
      <trkpt lat="46.93493" lon="8.69433">
        <ele>1733</ele>
        <time>2021-08-06T12:23:18.711Z</time>
      </trkpt>
      <trkpt lat="46.93493" lon="8.69433">
        <ele>1733</ele>
        <time>2021-08-06T12:23:19.711Z</time>
      </trkpt>
      <trkpt lat="46.93492" lon="8.69433">
        <ele>1733</ele>
        <time>2021-08-06T12:23:20.712Z</time>
      </trkpt>
      <trkpt lat="46.93491" lon="8.69432">
        <ele>1733</ele>
        <time>2021-08-06T12:23:21.712Z</time>
      </trkpt>
      <trkpt lat="46.9349" lon="8.69431">
        <ele>1733</ele>
        <time>2021-08-06T12:23:22.711Z</time>
      </trkpt>
      <trkpt lat="46.9349" lon="8.6943">
        <ele>1733</ele>
        <time>2021-08-06T12:23:23.712Z</time>
      </trkpt>
      <trkpt lat="46.93489" lon="8.69428">
        <ele>1733</ele>
        <time>2021-08-06T12:23:24.712Z</time>
      </trkpt>
      <trkpt lat="46.93488" lon="8.69427">
        <ele>1733</ele>
        <time>2021-08-06T12:23:25.712Z</time>
      </trkpt>
      <trkpt lat="46.93488" lon="8.69426">
        <ele>1733</ele>
        <time>2021-08-06T12:23:26.711Z</time>
      </trkpt>
      <trkpt lat="46.93488" lon="8.69425">
        <ele>1733</ele>
        <time>2021-08-06T12:23:27.712Z</time>
      </trkpt>
      <trkpt lat="46.93488" lon="8.69423">
        <ele>1734</ele>
        <time>2021-08-06T12:23:28.712Z</time>
      </trkpt>
      <trkpt lat="46.93487" lon="8.69422">
        <ele>1734</ele>
        <time>2021-08-06T12:23:29.711Z</time>
      </trkpt>
      <trkpt lat="46.93487" lon="8.69421">
        <ele>1735</ele>
        <time>2021-08-06T12:23:30.712Z</time>
      </trkpt>
      <trkpt lat="46.93487" lon="8.69419">
        <ele>1735</ele>
        <time>2021-08-06T12:23:31.711Z</time>
      </trkpt>
      <trkpt lat="46.93486" lon="8.69417">
        <ele>1735</ele>
        <time>2021-08-06T12:23:32.712Z</time>
      </trkpt>
      <trkpt lat="46.93486" lon="8.69414">
        <ele>1735</ele>
        <time>2021-08-06T12:23:33.712Z</time>
      </trkpt>
      <trkpt lat="46.93485" lon="8.69412">
        <ele>1736</ele>
        <time>2021-08-06T12:23:34.711Z</time>
      </trkpt>
      <trkpt lat="46.93485" lon="8.69411">
        <ele>1736</ele>
        <time>2021-08-06T12:23:35.712Z</time>
      </trkpt>
      <trkpt lat="46.93485" lon="8.6941">
        <ele>1736</ele>
        <time>2021-08-06T12:23:36.711Z</time>
      </trkpt>
      <trkpt lat="46.93485" lon="8.69409">
        <ele>1735</ele>
        <time>2021-08-06T12:23:37.712Z</time>
      </trkpt>
      <trkpt lat="46.93485" lon="8.69408">
        <ele>1735</ele>
        <time>2021-08-06T12:23:38.712Z</time>
      </trkpt>
      <trkpt lat="46.93484" lon="8.69406">
        <ele>1735</ele>
        <time>2021-08-06T12:23:39.712Z</time>
      </trkpt>
      <trkpt lat="46.93484" lon="8.69404">
        <ele>1735</ele>
        <time>2021-08-06T12:23:40.711Z</time>
      </trkpt>
      <trkpt lat="46.93483" lon="8.69403">
        <ele>1734</ele>
        <time>2021-08-06T12:23:41.712Z</time>
      </trkpt>
      <trkpt lat="46.93482" lon="8.69402">
        <ele>1734</ele>
        <time>2021-08-06T12:23:42.712Z</time>
      </trkpt>
      <trkpt lat="46.93481" lon="8.694">
        <ele>1734</ele>
        <time>2021-08-06T12:23:43.711Z</time>
      </trkpt>
      <trkpt lat="46.93481" lon="8.69399">
        <ele>1733</ele>
        <time>2021-08-06T12:23:44.711Z</time>
      </trkpt>
      <trkpt lat="46.9348" lon="8.69397">
        <ele>1733</ele>
        <time>2021-08-06T12:23:45.712Z</time>
      </trkpt>
      <trkpt lat="46.9348" lon="8.69396">
        <ele>1732</ele>
        <time>2021-08-06T12:23:46.711Z</time>
      </trkpt>
      <trkpt lat="46.93479" lon="8.69394">
        <ele>1732</ele>
        <time>2021-08-06T12:23:47.712Z</time>
      </trkpt>
      <trkpt lat="46.93479" lon="8.69392">
        <ele>1732</ele>
        <time>2021-08-06T12:23:48.711Z</time>
      </trkpt>
      <trkpt lat="46.93478" lon="8.69391">
        <ele>1731</ele>
        <time>2021-08-06T12:23:49.711Z</time>
      </trkpt>
      <trkpt lat="46.93477" lon="8.6939">
        <ele>1731</ele>
        <time>2021-08-06T12:23:50.712Z</time>
      </trkpt>
      <trkpt lat="46.93477" lon="8.69389">
        <ele>1731</ele>
        <time>2021-08-06T12:23:51.711Z</time>
      </trkpt>
      <trkpt lat="46.93477" lon="8.69387">
        <ele>1730</ele>
        <time>2021-08-06T12:23:52.711Z</time>
      </trkpt>
      <trkpt lat="46.93477" lon="8.69386">
        <ele>1730</ele>
        <time>2021-08-06T12:23:53.712Z</time>
      </trkpt>
      <trkpt lat="46.93477" lon="8.69385">
        <ele>1730</ele>
        <time>2021-08-06T12:23:54.711Z</time>
      </trkpt>
      <trkpt lat="46.93477" lon="8.69384">
        <ele>1730</ele>
        <time>2021-08-06T12:23:55.712Z</time>
      </trkpt>
      <trkpt lat="46.93477" lon="8.69382">
        <ele>1730</ele>
        <time>2021-08-06T12:23:56.712Z</time>
      </trkpt>
      <trkpt lat="46.93478" lon="8.6938">
        <ele>1731</ele>
        <time>2021-08-06T12:23:57.712Z</time>
      </trkpt>
      <trkpt lat="46.93478" lon="8.69378">
        <ele>1731</ele>
        <time>2021-08-06T12:23:58.712Z</time>
      </trkpt>
      <trkpt lat="46.93479" lon="8.69377">
        <ele>1730</ele>
        <time>2021-08-06T12:23:59.712Z</time>
      </trkpt>
      <trkpt lat="46.93479" lon="8.69375">
        <ele>1730</ele>
        <time>2021-08-06T12:24:00.712Z</time>
      </trkpt>
      <trkpt lat="46.93479" lon="8.69374">
        <ele>1730</ele>
        <time>2021-08-06T12:24:01.712Z</time>
      </trkpt>
      <trkpt lat="46.93479" lon="8.69373">
        <ele>1729</ele>
        <time>2021-08-06T12:24:02.712Z</time>
      </trkpt>
      <trkpt lat="46.93479" lon="8.69371">
        <ele>1729</ele>
        <time>2021-08-06T12:24:03.712Z</time>
      </trkpt>
      <trkpt lat="46.9348" lon="8.6937">
        <ele>1729</ele>
        <time>2021-08-06T12:24:04.711Z</time>
      </trkpt>
      <trkpt lat="46.9348" lon="8.69369">
        <ele>1729</ele>
        <time>2021-08-06T12:24:05.712Z</time>
      </trkpt>
      <trkpt lat="46.93481" lon="8.69368">
        <ele>1729</ele>
        <time>2021-08-06T12:24:06.712Z</time>
      </trkpt>
      <trkpt lat="46.93482" lon="8.69367">
        <ele>1729</ele>
        <time>2021-08-06T12:24:07.712Z</time>
      </trkpt>
      <trkpt lat="46.93482" lon="8.69366">
        <ele>1729</ele>
        <time>2021-08-06T12:24:08.711Z</time>
      </trkpt>
      <trkpt lat="46.93482" lon="8.69364">
        <ele>1729</ele>
        <time>2021-08-06T12:24:09.712Z</time>
      </trkpt>
      <trkpt lat="46.93482" lon="8.69363">
        <ele>1729</ele>
        <time>2021-08-06T12:24:10.712Z</time>
      </trkpt>
      <trkpt lat="46.93482" lon="8.69361">
        <ele>1730</ele>
        <time>2021-08-06T12:24:11.712Z</time>
      </trkpt>
      <trkpt lat="46.93483" lon="8.6936">
        <ele>1730</ele>
        <time>2021-08-06T12:24:12.712Z</time>
      </trkpt>
      <trkpt lat="46.93483" lon="8.6936">
        <ele>1731</ele>
        <time>2021-08-06T12:24:13.712Z</time>
      </trkpt>
      <trkpt lat="46.93482" lon="8.69359">
        <ele>1731</ele>
        <time>2021-08-06T12:24:14.712Z</time>
      </trkpt>
      <trkpt lat="46.93481" lon="8.69357">
        <ele>1732</ele>
        <time>2021-08-06T12:24:15.712Z</time>
      </trkpt>
      <trkpt lat="46.93481" lon="8.69356">
        <ele>1732</ele>
        <time>2021-08-06T12:24:16.711Z</time>
      </trkpt>
      <trkpt lat="46.93482" lon="8.69354">
        <ele>1732</ele>
        <time>2021-08-06T12:24:17.712Z</time>
      </trkpt>
      <trkpt lat="46.93482" lon="8.69354">
        <ele>1732</ele>
        <time>2021-08-06T12:24:18.711Z</time>
      </trkpt>
      <trkpt lat="46.93482" lon="8.69352">
        <ele>1732</ele>
        <time>2021-08-06T12:24:19.712Z</time>
      </trkpt>
      <trkpt lat="46.93482" lon="8.69352">
        <ele>1733</ele>
        <time>2021-08-06T12:24:20.711Z</time>
      </trkpt>
      <trkpt lat="46.93483" lon="8.69351">
        <ele>1733</ele>
        <time>2021-08-06T12:24:21.712Z</time>
      </trkpt>
      <trkpt lat="46.93483" lon="8.6935">
        <ele>1733</ele>
        <time>2021-08-06T12:24:22.712Z</time>
      </trkpt>
      <trkpt lat="46.93483" lon="8.6935">
        <ele>1734</ele>
        <time>2021-08-06T12:24:23.712Z</time>
      </trkpt>
      <trkpt lat="46.93483" lon="8.69348">
        <ele>1734</ele>
        <time>2021-08-06T12:24:24.712Z</time>
      </trkpt>
      <trkpt lat="46.93483" lon="8.69347">
        <ele>1735</ele>
        <time>2021-08-06T12:24:25.712Z</time>
      </trkpt>
      <trkpt lat="46.93484" lon="8.69346">
        <ele>1735</ele>
        <time>2021-08-06T12:24:26.712Z</time>
      </trkpt>
      <trkpt lat="46.93485" lon="8.69345">
        <ele>1736</ele>
        <time>2021-08-06T12:24:27.712Z</time>
      </trkpt>
      <trkpt lat="46.93485" lon="8.69344">
        <ele>1736</ele>
        <time>2021-08-06T12:24:28.712Z</time>
      </trkpt>
      <trkpt lat="46.93486" lon="8.69343">
        <ele>1737</ele>
        <time>2021-08-06T12:24:29.711Z</time>
      </trkpt>
      <trkpt lat="46.93487" lon="8.69341">
        <ele>1737</ele>
        <time>2021-08-06T12:24:30.711Z</time>
      </trkpt>
      <trkpt lat="46.93487" lon="8.6934">
        <ele>1737</ele>
        <time>2021-08-06T12:24:31.711Z</time>
      </trkpt>
      <trkpt lat="46.93488" lon="8.69339">
        <ele>1738</ele>
        <time>2021-08-06T12:24:32.712Z</time>
      </trkpt>
      <trkpt lat="46.93489" lon="8.69338">
        <ele>1738</ele>
        <time>2021-08-06T12:24:33.712Z</time>
      </trkpt>
      <trkpt lat="46.9349" lon="8.69337">
        <ele>1738</ele>
        <time>2021-08-06T12:24:34.711Z</time>
      </trkpt>
      <trkpt lat="46.93491" lon="8.69335">
        <ele>1738</ele>
        <time>2021-08-06T12:24:35.712Z</time>
      </trkpt>
      <trkpt lat="46.93492" lon="8.69334">
        <ele>1738</ele>
        <time>2021-08-06T12:24:36.711Z</time>
      </trkpt>
      <trkpt lat="46.93494" lon="8.69333">
        <ele>1739</ele>
        <time>2021-08-06T12:24:37.712Z</time>
      </trkpt>
      <trkpt lat="46.93496" lon="8.69332">
        <ele>1739</ele>
        <time>2021-08-06T12:24:38.711Z</time>
      </trkpt>
      <trkpt lat="46.93496" lon="8.69331">
        <ele>1739</ele>
        <time>2021-08-06T12:24:39.712Z</time>
      </trkpt>
      <trkpt lat="46.93497" lon="8.6933">
        <ele>1740</ele>
        <time>2021-08-06T12:24:40.711Z</time>
      </trkpt>
      <trkpt lat="46.93497" lon="8.69329">
        <ele>1740</ele>
        <time>2021-08-06T12:24:41.712Z</time>
      </trkpt>
      <trkpt lat="46.93497" lon="8.69328">
        <ele>1740</ele>
        <time>2021-08-06T12:24:42.711Z</time>
      </trkpt>
      <trkpt lat="46.93497" lon="8.69328">
        <ele>1740</ele>
        <time>2021-08-06T12:24:43.712Z</time>
      </trkpt>
      <trkpt lat="46.93497" lon="8.69328">
        <ele>1740</ele>
        <time>2021-08-06T12:24:44.712Z</time>
      </trkpt>
      <trkpt lat="46.93498" lon="8.69328">
        <ele>1740</ele>
        <time>2021-08-06T12:24:45.712Z</time>
      </trkpt>
      <trkpt lat="46.93499" lon="8.69328">
        <ele>1740</ele>
        <time>2021-08-06T12:24:46.712Z</time>
      </trkpt>
      <trkpt lat="46.93499" lon="8.69327">
        <ele>1740</ele>
        <time>2021-08-06T12:24:47.712Z</time>
      </trkpt>
      <trkpt lat="46.935" lon="8.69326">
        <ele>1740</ele>
        <time>2021-08-06T12:24:48.712Z</time>
      </trkpt>
      <trkpt lat="46.93501" lon="8.69325">
        <ele>1740</ele>
        <time>2021-08-06T12:24:49.712Z</time>
      </trkpt>
      <trkpt lat="46.93501" lon="8.69324">
        <ele>1739</ele>
        <time>2021-08-06T12:24:50.711Z</time>
      </trkpt>
      <trkpt lat="46.93501" lon="8.69323">
        <ele>1739</ele>
        <time>2021-08-06T12:24:51.712Z</time>
      </trkpt>
      <trkpt lat="46.93502" lon="8.69322">
        <ele>1739</ele>
        <time>2021-08-06T12:24:52.712Z</time>
      </trkpt>
      <trkpt lat="46.93502" lon="8.69321">
        <ele>1739</ele>
        <time>2021-08-06T12:24:53.712Z</time>
      </trkpt>
      <trkpt lat="46.93503" lon="8.6932">
        <ele>1739</ele>
        <time>2021-08-06T12:24:54.712Z</time>
      </trkpt>
      <trkpt lat="46.93503" lon="8.69319">
        <ele>1739</ele>
        <time>2021-08-06T12:24:55.711Z</time>
      </trkpt>
      <trkpt lat="46.93503" lon="8.69318">
        <ele>1739</ele>
        <time>2021-08-06T12:24:56.712Z</time>
      </trkpt>
      <trkpt lat="46.93502" lon="8.69317">
        <ele>1738</ele>
        <time>2021-08-06T12:24:57.712Z</time>
      </trkpt>
      <trkpt lat="46.93502" lon="8.69315">
        <ele>1738</ele>
        <time>2021-08-06T12:24:58.711Z</time>
      </trkpt>
      <trkpt lat="46.93503" lon="8.69313">
        <ele>1737</ele>
        <time>2021-08-06T12:24:59.712Z</time>
      </trkpt>
      <trkpt lat="46.93504" lon="8.69312">
        <ele>1737</ele>
        <time>2021-08-06T12:25:00.711Z</time>
      </trkpt>
      <trkpt lat="46.93504" lon="8.6931">
        <ele>1737</ele>
        <time>2021-08-06T12:25:01.712Z</time>
      </trkpt>
      <trkpt lat="46.93505" lon="8.69309">
        <ele>1736</ele>
        <time>2021-08-06T12:25:02.712Z</time>
      </trkpt>
      <trkpt lat="46.93505" lon="8.69308">
        <ele>1736</ele>
        <time>2021-08-06T12:25:03.712Z</time>
      </trkpt>
      <trkpt lat="46.93505" lon="8.69306">
        <ele>1736</ele>
        <time>2021-08-06T12:25:04.712Z</time>
      </trkpt>
      <trkpt lat="46.93505" lon="8.69305">
        <ele>1735</ele>
        <time>2021-08-06T12:25:05.711Z</time>
      </trkpt>
      <trkpt lat="46.93505" lon="8.69303">
        <ele>1735</ele>
        <time>2021-08-06T12:25:06.712Z</time>
      </trkpt>
      <trkpt lat="46.93506" lon="8.69302">
        <ele>1735</ele>
        <time>2021-08-06T12:25:07.712Z</time>
      </trkpt>
      <trkpt lat="46.93506" lon="8.69301">
        <ele>1735</ele>
        <time>2021-08-06T12:25:08.712Z</time>
      </trkpt>
      <trkpt lat="46.93506" lon="8.693">
        <ele>1735</ele>
        <time>2021-08-06T12:25:09.712Z</time>
      </trkpt>
      <trkpt lat="46.93506" lon="8.69298">
        <ele>1735</ele>
        <time>2021-08-06T12:25:10.712Z</time>
      </trkpt>
      <trkpt lat="46.93506" lon="8.69297">
        <ele>1735</ele>
        <time>2021-08-06T12:25:11.712Z</time>
      </trkpt>
      <trkpt lat="46.93506" lon="8.69296">
        <ele>1734</ele>
        <time>2021-08-06T12:25:12.711Z</time>
      </trkpt>
      <trkpt lat="46.93507" lon="8.69296">
        <ele>1734</ele>
        <time>2021-08-06T12:25:13.712Z</time>
      </trkpt>
      <trkpt lat="46.93507" lon="8.69295">
        <ele>1734</ele>
        <time>2021-08-06T12:25:14.711Z</time>
      </trkpt>
      <trkpt lat="46.93507" lon="8.69294">
        <ele>1734</ele>
        <time>2021-08-06T12:25:15.712Z</time>
      </trkpt>
      <trkpt lat="46.93507" lon="8.69293">
        <ele>1734</ele>
        <time>2021-08-06T12:25:16.711Z</time>
      </trkpt>
      <trkpt lat="46.93508" lon="8.69292">
        <ele>1734</ele>
        <time>2021-08-06T12:25:17.712Z</time>
      </trkpt>
      <trkpt lat="46.93508" lon="8.69292">
        <ele>1735</ele>
        <time>2021-08-06T12:25:18.712Z</time>
      </trkpt>
      <trkpt lat="46.93508" lon="8.69292">
        <ele>1735</ele>
        <time>2021-08-06T12:25:19.712Z</time>
      </trkpt>
      <trkpt lat="46.93507" lon="8.69291">
        <ele>1735</ele>
        <time>2021-08-06T12:25:20.711Z</time>
      </trkpt>
      <trkpt lat="46.93507" lon="8.69291">
        <ele>1735</ele>
        <time>2021-08-06T12:25:21.711Z</time>
      </trkpt>
      <trkpt lat="46.93507" lon="8.6929">
        <ele>1736</ele>
        <time>2021-08-06T12:25:22.711Z</time>
      </trkpt>
      <trkpt lat="46.93507" lon="8.6929">
        <ele>1736</ele>
        <time>2021-08-06T12:25:23.712Z</time>
      </trkpt>
      <trkpt lat="46.93507" lon="8.69289">
        <ele>1736</ele>
        <time>2021-08-06T12:25:24.711Z</time>
      </trkpt>
      <trkpt lat="46.93507" lon="8.69287">
        <ele>1735</ele>
        <time>2021-08-06T12:25:25.712Z</time>
      </trkpt>
      <trkpt lat="46.93508" lon="8.69287">
        <ele>1735</ele>
        <time>2021-08-06T12:25:26.711Z</time>
      </trkpt>
      <trkpt lat="46.93508" lon="8.69277">
        <ele>1727</ele>
        <time>2021-08-07T06:46:31.592Z</time>
      </trkpt>
      <trkpt lat="46.93508" lon="8.69277">
        <ele>1727</ele>
        <time>2021-08-07T06:46:31.592Z</time>
      </trkpt>
      <trkpt lat="46.93508" lon="8.69277">
        <ele>1727</ele>
        <time>2021-08-07T06:46:31.592Z</time>
      </trkpt>
      <trkpt lat="46.93508" lon="8.69277">
        <ele>1727</ele>
        <time>2021-08-07T06:46:32.592Z</time>
      </trkpt>
      <trkpt lat="46.93508" lon="8.69276">
        <ele>1726</ele>
        <time>2021-08-07T06:46:33.592Z</time>
      </trkpt>
      <trkpt lat="46.93507" lon="8.69277">
        <ele>1726</ele>
        <time>2021-08-07T06:46:34.592Z</time>
      </trkpt>
      <trkpt lat="46.93507" lon="8.69277">
        <ele>1726</ele>
        <time>2021-08-07T06:46:35.592Z</time>
      </trkpt>
      <trkpt lat="46.93507" lon="8.69278">
        <ele>1726</ele>
        <time>2021-08-07T06:46:36.592Z</time>
      </trkpt>
      <trkpt lat="46.93506" lon="8.69279">
        <ele>1726</ele>
        <time>2021-08-07T06:46:37.592Z</time>
      </trkpt>
      <trkpt lat="46.93506" lon="8.6928">
        <ele>1726</ele>
        <time>2021-08-07T06:46:38.592Z</time>
      </trkpt>
      <trkpt lat="46.93505" lon="8.69281">
        <ele>1726</ele>
        <time>2021-08-07T06:46:39.592Z</time>
      </trkpt>
      <trkpt lat="46.93505" lon="8.69281">
        <ele>1726</ele>
        <time>2021-08-07T06:46:40.592Z</time>
      </trkpt>
      <trkpt lat="46.93504" lon="8.69282">
        <ele>1725</ele>
        <time>2021-08-07T06:46:41.592Z</time>
      </trkpt>
      <trkpt lat="46.93503" lon="8.69283">
        <ele>1725</ele>
        <time>2021-08-07T06:46:42.592Z</time>
      </trkpt>
      <trkpt lat="46.93502" lon="8.69284">
        <ele>1725</ele>
        <time>2021-08-07T06:46:43.592Z</time>
      </trkpt>
      <trkpt lat="46.93502" lon="8.69285">
        <ele>1725</ele>
        <time>2021-08-07T06:46:44.592Z</time>
      </trkpt>
      <trkpt lat="46.93502" lon="8.69285">
        <ele>1724</ele>
        <time>2021-08-07T06:46:45.592Z</time>
      </trkpt>
      <trkpt lat="46.93502" lon="8.69285">
        <ele>1724</ele>
        <time>2021-08-07T06:46:46.592Z</time>
      </trkpt>
      <trkpt lat="46.93501" lon="8.69285">
        <ele>1723</ele>
        <time>2021-08-07T06:46:47.592Z</time>
      </trkpt>
      <trkpt lat="46.93501" lon="8.69285">
        <ele>1723</ele>
        <time>2021-08-07T06:46:48.592Z</time>
      </trkpt>
      <trkpt lat="46.93501" lon="8.69284">
        <ele>1722</ele>
        <time>2021-08-07T06:46:49.592Z</time>
      </trkpt>
      <trkpt lat="46.93501" lon="8.69284">
        <ele>1722</ele>
        <time>2021-08-07T06:46:50.592Z</time>
      </trkpt>
      <trkpt lat="46.93501" lon="8.69284">
        <ele>1722</ele>
        <time>2021-08-07T06:46:51.592Z</time>
      </trkpt>
      <trkpt lat="46.93501" lon="8.69284">
        <ele>1722</ele>
        <time>2021-08-07T06:46:52.592Z</time>
      </trkpt>
      <trkpt lat="46.93501" lon="8.69284">
        <ele>1722</ele>
        <time>2021-08-07T06:46:53.592Z</time>
      </trkpt>
      <trkpt lat="46.93501" lon="8.69284">
        <ele>1722</ele>
        <time>2021-08-07T06:46:54.592Z</time>
      </trkpt>
      <trkpt lat="46.93501" lon="8.69284">
        <ele>1722</ele>
        <time>2021-08-07T06:46:55.592Z</time>
      </trkpt>
      <trkpt lat="46.93501" lon="8.69284">
        <ele>1722</ele>
        <time>2021-08-07T06:46:56.592Z</time>
      </trkpt>
      <trkpt lat="46.935" lon="8.69284">
        <ele>1722</ele>
        <time>2021-08-07T06:46:57.592Z</time>
      </trkpt>
      <trkpt lat="46.93501" lon="8.69284">
        <ele>1723</ele>
        <time>2021-08-07T06:46:58.592Z</time>
      </trkpt>
      <trkpt lat="46.93501" lon="8.69284">
        <ele>1724</ele>
        <time>2021-08-07T06:46:59.592Z</time>
      </trkpt>
      <trkpt lat="46.93501" lon="8.69285">
        <ele>1725</ele>
        <time>2021-08-07T06:47:00.592Z</time>
      </trkpt>
      <trkpt lat="46.93502" lon="8.69285">
        <ele>1726</ele>
        <time>2021-08-07T06:47:01.592Z</time>
      </trkpt>
      <trkpt lat="46.93502" lon="8.69285">
        <ele>1726</ele>
        <time>2021-08-07T06:47:02.592Z</time>
      </trkpt>
      <trkpt lat="46.93502" lon="8.69285">
        <ele>1726</ele>
        <time>2021-08-07T06:47:03.592Z</time>
      </trkpt>
      <trkpt lat="46.93501" lon="8.69285">
        <ele>1727</ele>
        <time>2021-08-07T06:47:04.592Z</time>
      </trkpt>
      <trkpt lat="46.93501" lon="8.69285">
        <ele>1727</ele>
        <time>2021-08-07T06:47:05.592Z</time>
      </trkpt>
      <trkpt lat="46.93501" lon="8.69286">
        <ele>1727</ele>
        <time>2021-08-07T06:47:06.592Z</time>
      </trkpt>
      <trkpt lat="46.93501" lon="8.69285">
        <ele>1727</ele>
        <time>2021-08-07T06:47:07.592Z</time>
      </trkpt>
      <trkpt lat="46.935" lon="8.69285">
        <ele>1727</ele>
        <time>2021-08-07T06:47:08.592Z</time>
      </trkpt>
      <trkpt lat="46.935" lon="8.69286">
        <ele>1727</ele>
        <time>2021-08-07T06:47:09.592Z</time>
      </trkpt>
      <trkpt lat="46.935" lon="8.69288">
        <ele>1727</ele>
        <time>2021-08-07T06:47:10.592Z</time>
      </trkpt>
      <trkpt lat="46.935" lon="8.69289">
        <ele>1727</ele>
        <time>2021-08-07T06:47:11.592Z</time>
      </trkpt>
      <trkpt lat="46.935" lon="8.6929">
        <ele>1727</ele>
        <time>2021-08-07T06:47:12.592Z</time>
      </trkpt>
      <trkpt lat="46.935" lon="8.69291">
        <ele>1728</ele>
        <time>2021-08-07T06:47:13.592Z</time>
      </trkpt>
      <trkpt lat="46.935" lon="8.69291">
        <ele>1728</ele>
        <time>2021-08-07T06:47:14.592Z</time>
      </trkpt>
      <trkpt lat="46.93497" lon="8.69289">
        <ele>1727</ele>
        <time>2021-08-07T06:47:15.592Z</time>
      </trkpt>
      <trkpt lat="46.93497" lon="8.69289">
        <ele>1727</ele>
        <time>2021-08-07T06:47:16.592Z</time>
      </trkpt>
      <trkpt lat="46.93496" lon="8.69289">
        <ele>1727</ele>
        <time>2021-08-07T06:47:17.593Z</time>
      </trkpt>
      <trkpt lat="46.93496" lon="8.69289">
        <ele>1726</ele>
        <time>2021-08-07T06:47:18.593Z</time>
      </trkpt>
      <trkpt lat="46.93495" lon="8.69289">
        <ele>1726</ele>
        <time>2021-08-07T06:47:19.592Z</time>
      </trkpt>
      <trkpt lat="46.93494" lon="8.69289">
        <ele>1726</ele>
        <time>2021-08-07T06:47:20.592Z</time>
      </trkpt>
      <trkpt lat="46.93494" lon="8.69289">
        <ele>1726</ele>
        <time>2021-08-07T06:47:21.592Z</time>
      </trkpt>
      <trkpt lat="46.93493" lon="8.69289">
        <ele>1726</ele>
        <time>2021-08-07T06:47:22.592Z</time>
      </trkpt>
      <trkpt lat="46.93493" lon="8.6929">
        <ele>1726</ele>
        <time>2021-08-07T06:47:23.593Z</time>
      </trkpt>
      <trkpt lat="46.93492" lon="8.6929">
        <ele>1726</ele>
        <time>2021-08-07T06:47:24.593Z</time>
      </trkpt>
      <trkpt lat="46.93492" lon="8.6929">
        <ele>1727</ele>
        <time>2021-08-07T06:47:25.593Z</time>
      </trkpt>
      <trkpt lat="46.93492" lon="8.6929">
        <ele>1727</ele>
        <time>2021-08-07T06:47:26.592Z</time>
      </trkpt>
      <trkpt lat="46.93492" lon="8.6929">
        <ele>1726</ele>
        <time>2021-08-07T06:47:27.592Z</time>
      </trkpt>
      <trkpt lat="46.93491" lon="8.6929">
        <ele>1726</ele>
        <time>2021-08-07T06:47:28.592Z</time>
      </trkpt>
      <trkpt lat="46.9349" lon="8.6929">
        <ele>1726</ele>
        <time>2021-08-07T06:47:29.593Z</time>
      </trkpt>
      <trkpt lat="46.9349" lon="8.6929">
        <ele>1726</ele>
        <time>2021-08-07T06:47:30.593Z</time>
      </trkpt>
      <trkpt lat="46.93489" lon="8.69287">
        <ele>1730</ele>
        <time>2021-08-07T06:47:31.594Z</time>
      </trkpt>
      <trkpt lat="46.93489" lon="8.69288">
        <ele>1730</ele>
        <time>2021-08-07T06:47:32.593Z</time>
      </trkpt>
      <trkpt lat="46.93486" lon="8.69289">
        <ele>1730</ele>
        <time>2021-08-07T06:47:33.593Z</time>
      </trkpt>
      <trkpt lat="46.93486" lon="8.69288">
        <ele>1730</ele>
        <time>2021-08-07T06:47:34.594Z</time>
      </trkpt>
      <trkpt lat="46.93486" lon="8.69288">
        <ele>1730</ele>
        <time>2021-08-07T06:47:35.593Z</time>
      </trkpt>
      <trkpt lat="46.93485" lon="8.69288">
        <ele>1730</ele>
        <time>2021-08-07T06:47:36.594Z</time>
      </trkpt>
      <trkpt lat="46.93484" lon="8.69287">
        <ele>1730</ele>
        <time>2021-08-07T06:47:37.594Z</time>
      </trkpt>
      <trkpt lat="46.93484" lon="8.69287">
        <ele>1730</ele>
        <time>2021-08-07T06:47:38.594Z</time>
      </trkpt>
      <trkpt lat="46.93484" lon="8.69286">
        <ele>1730</ele>
        <time>2021-08-07T06:47:39.594Z</time>
      </trkpt>
      <trkpt lat="46.93483" lon="8.69287">
        <ele>1730</ele>
        <time>2021-08-07T06:47:40.594Z</time>
      </trkpt>
      <trkpt lat="46.93483" lon="8.69288">
        <ele>1730</ele>
        <time>2021-08-07T06:47:41.594Z</time>
      </trkpt>
      <trkpt lat="46.93482" lon="8.69288">
        <ele>1730</ele>
        <time>2021-08-07T06:47:42.593Z</time>
      </trkpt>
      <trkpt lat="46.93482" lon="8.69288">
        <ele>1730</ele>
        <time>2021-08-07T06:47:43.593Z</time>
      </trkpt>
      <trkpt lat="46.93481" lon="8.69289">
        <ele>1730</ele>
        <time>2021-08-07T06:47:44.594Z</time>
      </trkpt>
      <trkpt lat="46.9348" lon="8.69289">
        <ele>1731</ele>
        <time>2021-08-07T06:47:45.594Z</time>
      </trkpt>
      <trkpt lat="46.9348" lon="8.69289">
        <ele>1731</ele>
        <time>2021-08-07T06:47:46.594Z</time>
      </trkpt>
      <trkpt lat="46.93479" lon="8.69289">
        <ele>1732</ele>
        <time>2021-08-07T06:47:47.594Z</time>
      </trkpt>
      <trkpt lat="46.93479" lon="8.69289">
        <ele>1732</ele>
        <time>2021-08-07T06:47:48.593Z</time>
      </trkpt>
      <trkpt lat="46.93479" lon="8.69289">
        <ele>1732</ele>
        <time>2021-08-07T06:47:49.594Z</time>
      </trkpt>
      <trkpt lat="46.93478" lon="8.69289">
        <ele>1733</ele>
        <time>2021-08-07T06:47:50.593Z</time>
      </trkpt>
      <trkpt lat="46.93478" lon="8.69289">
        <ele>1733</ele>
        <time>2021-08-07T06:47:51.593Z</time>
      </trkpt>
      <trkpt lat="46.93477" lon="8.69289">
        <ele>1733</ele>
        <time>2021-08-07T06:47:52.594Z</time>
      </trkpt>
      <trkpt lat="46.93477" lon="8.69289">
        <ele>1733</ele>
        <time>2021-08-07T06:47:53.593Z</time>
      </trkpt>
      <trkpt lat="46.93476" lon="8.69289">
        <ele>1733</ele>
        <time>2021-08-07T06:47:54.593Z</time>
      </trkpt>
      <trkpt lat="46.93476" lon="8.6929">
        <ele>1733</ele>
        <time>2021-08-07T06:47:55.594Z</time>
      </trkpt>
      <trkpt lat="46.93475" lon="8.6929">
        <ele>1733</ele>
        <time>2021-08-07T06:47:56.594Z</time>
      </trkpt>
      <trkpt lat="46.93475" lon="8.6929">
        <ele>1733</ele>
        <time>2021-08-07T06:47:57.594Z</time>
      </trkpt>
      <trkpt lat="46.93474" lon="8.69291">
        <ele>1733</ele>
        <time>2021-08-07T06:47:58.594Z</time>
      </trkpt>
      <trkpt lat="46.93473" lon="8.69291">
        <ele>1733</ele>
        <time>2021-08-07T06:47:59.594Z</time>
      </trkpt>
      <trkpt lat="46.93472" lon="8.69291">
        <ele>1733</ele>
        <time>2021-08-07T06:48:00.594Z</time>
      </trkpt>
      <trkpt lat="46.93471" lon="8.69291">
        <ele>1734</ele>
        <time>2021-08-07T06:48:01.594Z</time>
      </trkpt>
      <trkpt lat="46.9347" lon="8.69291">
        <ele>1734</ele>
        <time>2021-08-07T06:48:02.594Z</time>
      </trkpt>
      <trkpt lat="46.93469" lon="8.69291">
        <ele>1734</ele>
        <time>2021-08-07T06:48:03.594Z</time>
      </trkpt>
      <trkpt lat="46.93468" lon="8.69291">
        <ele>1734</ele>
        <time>2021-08-07T06:48:04.593Z</time>
      </trkpt>
      <trkpt lat="46.93466" lon="8.69292">
        <ele>1734</ele>
        <time>2021-08-07T06:48:05.593Z</time>
      </trkpt>
      <trkpt lat="46.93465" lon="8.69292">
        <ele>1735</ele>
        <time>2021-08-07T06:48:06.593Z</time>
      </trkpt>
      <trkpt lat="46.93465" lon="8.69291">
        <ele>1735</ele>
        <time>2021-08-07T06:48:07.593Z</time>
      </trkpt>
      <trkpt lat="46.93464" lon="8.69292">
        <ele>1736</ele>
        <time>2021-08-07T06:48:08.594Z</time>
      </trkpt>
      <trkpt lat="46.93463" lon="8.69292">
        <ele>1736</ele>
        <time>2021-08-07T06:48:09.594Z</time>
      </trkpt>
      <trkpt lat="46.93462" lon="8.69292">
        <ele>1736</ele>
        <time>2021-08-07T06:48:10.594Z</time>
      </trkpt>
      <trkpt lat="46.93461" lon="8.69291">
        <ele>1736</ele>
        <time>2021-08-07T06:48:11.594Z</time>
      </trkpt>
      <trkpt lat="46.93461" lon="8.69291">
        <ele>1737</ele>
        <time>2021-08-07T06:48:12.594Z</time>
      </trkpt>
      <trkpt lat="46.93459" lon="8.69291">
        <ele>1737</ele>
        <time>2021-08-07T06:48:13.594Z</time>
      </trkpt>
      <trkpt lat="46.93459" lon="8.69291">
        <ele>1737</ele>
        <time>2021-08-07T06:48:14.593Z</time>
      </trkpt>
      <trkpt lat="46.93458" lon="8.69291">
        <ele>1737</ele>
        <time>2021-08-07T06:48:15.594Z</time>
      </trkpt>
      <trkpt lat="46.93457" lon="8.6929">
        <ele>1737</ele>
        <time>2021-08-07T06:48:16.594Z</time>
      </trkpt>
      <trkpt lat="46.93457" lon="8.6929">
        <ele>1737</ele>
        <time>2021-08-07T06:48:17.593Z</time>
      </trkpt>
      <trkpt lat="46.93456" lon="8.69289">
        <ele>1737</ele>
        <time>2021-08-07T06:48:18.594Z</time>
      </trkpt>
      <trkpt lat="46.93456" lon="8.69289">
        <ele>1736</ele>
        <time>2021-08-07T06:48:19.594Z</time>
      </trkpt>
      <trkpt lat="46.93456" lon="8.69289">
        <ele>1736</ele>
        <time>2021-08-07T06:48:20.594Z</time>
      </trkpt>
      <trkpt lat="46.93456" lon="8.69288">
        <ele>1736</ele>
        <time>2021-08-07T06:48:21.594Z</time>
      </trkpt>
      <trkpt lat="46.93455" lon="8.69288">
        <ele>1736</ele>
        <time>2021-08-07T06:48:22.594Z</time>
      </trkpt>
      <trkpt lat="46.93455" lon="8.69287">
        <ele>1737</ele>
        <time>2021-08-07T06:48:23.594Z</time>
      </trkpt>
      <trkpt lat="46.93454" lon="8.69286">
        <ele>1737</ele>
        <time>2021-08-07T06:48:24.594Z</time>
      </trkpt>
      <trkpt lat="46.93454" lon="8.69286">
        <ele>1737</ele>
        <time>2021-08-07T06:48:25.594Z</time>
      </trkpt>
      <trkpt lat="46.93454" lon="8.69286">
        <ele>1738</ele>
        <time>2021-08-07T06:48:26.594Z</time>
      </trkpt>
      <trkpt lat="46.93453" lon="8.69286">
        <ele>1738</ele>
        <time>2021-08-07T06:48:27.594Z</time>
      </trkpt>
      <trkpt lat="46.93453" lon="8.69286">
        <ele>1738</ele>
        <time>2021-08-07T06:48:28.594Z</time>
      </trkpt>
      <trkpt lat="46.93452" lon="8.69286">
        <ele>1739</ele>
        <time>2021-08-07T06:48:29.594Z</time>
      </trkpt>
      <trkpt lat="46.93452" lon="8.69286">
        <ele>1739</ele>
        <time>2021-08-07T06:48:30.593Z</time>
      </trkpt>
      <trkpt lat="46.93452" lon="8.69285">
        <ele>1739</ele>
        <time>2021-08-07T06:48:31.594Z</time>
      </trkpt>
      <trkpt lat="46.93452" lon="8.69284">
        <ele>1740</ele>
        <time>2021-08-07T06:48:32.594Z</time>
      </trkpt>
      <trkpt lat="46.93452" lon="8.69283">
        <ele>1740</ele>
        <time>2021-08-07T06:48:33.594Z</time>
      </trkpt>
      <trkpt lat="46.93453" lon="8.69283">
        <ele>1740</ele>
        <time>2021-08-07T06:48:34.594Z</time>
      </trkpt>
      <trkpt lat="46.93453" lon="8.69282">
        <ele>1741</ele>
        <time>2021-08-07T06:48:35.594Z</time>
      </trkpt>
      <trkpt lat="46.93454" lon="8.69281">
        <ele>1741</ele>
        <time>2021-08-07T06:48:36.594Z</time>
      </trkpt>
      <trkpt lat="46.93454" lon="8.6928">
        <ele>1742</ele>
        <time>2021-08-07T06:48:37.594Z</time>
      </trkpt>
      <trkpt lat="46.93454" lon="8.69279">
        <ele>1742</ele>
        <time>2021-08-07T06:48:38.594Z</time>
      </trkpt>
      <trkpt lat="46.93454" lon="8.69278">
        <ele>1742</ele>
        <time>2021-08-07T06:48:39.594Z</time>
      </trkpt>
      <trkpt lat="46.93454" lon="8.69277">
        <ele>1741</ele>
        <time>2021-08-07T06:48:40.594Z</time>
      </trkpt>
      <trkpt lat="46.93454" lon="8.69277">
        <ele>1741</ele>
        <time>2021-08-07T06:48:41.594Z</time>
      </trkpt>
      <trkpt lat="46.93454" lon="8.69276">
        <ele>1740</ele>
        <time>2021-08-07T06:48:42.594Z</time>
      </trkpt>
      <trkpt lat="46.93454" lon="8.69274">
        <ele>1739</ele>
        <time>2021-08-07T06:48:43.594Z</time>
      </trkpt>
      <trkpt lat="46.93453" lon="8.69274">
        <ele>1739</ele>
        <time>2021-08-07T06:48:44.594Z</time>
      </trkpt>
      <trkpt lat="46.93453" lon="8.69273">
        <ele>1739</ele>
        <time>2021-08-07T06:48:45.593Z</time>
      </trkpt>
      <trkpt lat="46.93453" lon="8.69272">
        <ele>1738</ele>
        <time>2021-08-07T06:48:46.593Z</time>
      </trkpt>
      <trkpt lat="46.93453" lon="8.69271">
        <ele>1738</ele>
        <time>2021-08-07T06:48:47.594Z</time>
      </trkpt>
      <trkpt lat="46.93453" lon="8.6927">
        <ele>1738</ele>
        <time>2021-08-07T06:48:48.594Z</time>
      </trkpt>
      <trkpt lat="46.93453" lon="8.69269">
        <ele>1738</ele>
        <time>2021-08-07T06:48:49.594Z</time>
      </trkpt>
      <trkpt lat="46.93453" lon="8.69268">
        <ele>1738</ele>
        <time>2021-08-07T06:48:50.593Z</time>
      </trkpt>
      <trkpt lat="46.93453" lon="8.69267">
        <ele>1738</ele>
        <time>2021-08-07T06:48:51.594Z</time>
      </trkpt>
      <trkpt lat="46.93453" lon="8.69266">
        <ele>1738</ele>
        <time>2021-08-07T06:48:52.594Z</time>
      </trkpt>
      <trkpt lat="46.93453" lon="8.69266">
        <ele>1739</ele>
        <time>2021-08-07T06:48:53.594Z</time>
      </trkpt>
      <trkpt lat="46.93452" lon="8.69265">
        <ele>1740</ele>
        <time>2021-08-07T06:48:54.593Z</time>
      </trkpt>
      <trkpt lat="46.93452" lon="8.69264">
        <ele>1740</ele>
        <time>2021-08-07T06:48:55.593Z</time>
      </trkpt>
      <trkpt lat="46.93452" lon="8.69263">
        <ele>1741</ele>
        <time>2021-08-07T06:48:56.594Z</time>
      </trkpt>
      <trkpt lat="46.93451" lon="8.69262">
        <ele>1741</ele>
        <time>2021-08-07T06:48:57.593Z</time>
      </trkpt>
      <trkpt lat="46.93451" lon="8.69262">
        <ele>1741</ele>
        <time>2021-08-07T06:48:58.593Z</time>
      </trkpt>
      <trkpt lat="46.9345" lon="8.69262">
        <ele>1742</ele>
        <time>2021-08-07T06:48:59.593Z</time>
      </trkpt>
      <trkpt lat="46.93449" lon="8.69261">
        <ele>1743</ele>
        <time>2021-08-07T06:49:00.593Z</time>
      </trkpt>
      <trkpt lat="46.93449" lon="8.69261">
        <ele>1743</ele>
        <time>2021-08-07T06:49:01.593Z</time>
      </trkpt>
      <trkpt lat="46.93449" lon="8.6926">
        <ele>1743</ele>
        <time>2021-08-07T06:49:02.594Z</time>
      </trkpt>
      <trkpt lat="46.93449" lon="8.69259">
        <ele>1743</ele>
        <time>2021-08-07T06:49:03.593Z</time>
      </trkpt>
      <trkpt lat="46.93449" lon="8.69259">
        <ele>1743</ele>
        <time>2021-08-07T06:49:04.593Z</time>
      </trkpt>
      <trkpt lat="46.93448" lon="8.69259">
        <ele>1743</ele>
        <time>2021-08-07T06:49:05.593Z</time>
      </trkpt>
      <trkpt lat="46.93448" lon="8.69259">
        <ele>1743</ele>
        <time>2021-08-07T06:49:06.593Z</time>
      </trkpt>
      <trkpt lat="46.93447" lon="8.69258">
        <ele>1746</ele>
        <time>2021-08-07T06:49:07.594Z</time>
      </trkpt>
      <trkpt lat="46.93446" lon="8.69256">
        <ele>1745</ele>
        <time>2021-08-07T06:49:08.595Z</time>
      </trkpt>
      <trkpt lat="46.93446" lon="8.69255">
        <ele>1745</ele>
        <time>2021-08-07T06:49:09.596Z</time>
      </trkpt>
      <trkpt lat="46.93446" lon="8.69253">
        <ele>1745</ele>
        <time>2021-08-07T06:49:10.596Z</time>
      </trkpt>
      <trkpt lat="46.93446" lon="8.69253">
        <ele>1745</ele>
        <time>2021-08-07T06:49:11.596Z</time>
      </trkpt>
      <trkpt lat="46.93446" lon="8.69252">
        <ele>1745</ele>
        <time>2021-08-07T06:49:12.595Z</time>
      </trkpt>
      <trkpt lat="46.93446" lon="8.6925">
        <ele>1744</ele>
        <time>2021-08-07T06:49:13.595Z</time>
      </trkpt>
      <trkpt lat="46.93446" lon="8.69248">
        <ele>1744</ele>
        <time>2021-08-07T06:49:14.596Z</time>
      </trkpt>
      <trkpt lat="46.93446" lon="8.69247">
        <ele>1744</ele>
        <time>2021-08-07T06:49:15.595Z</time>
      </trkpt>
      <trkpt lat="46.93446" lon="8.69246">
        <ele>1744</ele>
        <time>2021-08-07T06:49:16.596Z</time>
      </trkpt>
      <trkpt lat="46.93447" lon="8.69245">
        <ele>1744</ele>
        <time>2021-08-07T06:49:17.596Z</time>
      </trkpt>
      <trkpt lat="46.93447" lon="8.69245">
        <ele>1744</ele>
        <time>2021-08-07T06:49:18.596Z</time>
      </trkpt>
      <trkpt lat="46.93447" lon="8.69244">
        <ele>1745</ele>
        <time>2021-08-07T06:49:19.595Z</time>
      </trkpt>
      <trkpt lat="46.93447" lon="8.69242">
        <ele>1745</ele>
        <time>2021-08-07T06:49:20.596Z</time>
      </trkpt>
      <trkpt lat="46.93446" lon="8.6924">
        <ele>1746</ele>
        <time>2021-08-07T06:49:21.595Z</time>
      </trkpt>
      <trkpt lat="46.93445" lon="8.69238">
        <ele>1746</ele>
        <time>2021-08-07T06:49:22.595Z</time>
      </trkpt>
      <trkpt lat="46.93444" lon="8.69236">
        <ele>1747</ele>
        <time>2021-08-07T06:49:23.595Z</time>
      </trkpt>
      <trkpt lat="46.93444" lon="8.69234">
        <ele>1747</ele>
        <time>2021-08-07T06:49:24.595Z</time>
      </trkpt>
      <trkpt lat="46.93443" lon="8.69233">
        <ele>1747</ele>
        <time>2021-08-07T06:49:25.595Z</time>
      </trkpt>
      <trkpt lat="46.93442" lon="8.69232">
        <ele>1747</ele>
        <time>2021-08-07T06:49:26.595Z</time>
      </trkpt>
      <trkpt lat="46.93441" lon="8.69231">
        <ele>1747</ele>
        <time>2021-08-07T06:49:27.595Z</time>
      </trkpt>
      <trkpt lat="46.9344" lon="8.6923">
        <ele>1746</ele>
        <time>2021-08-07T06:49:28.596Z</time>
      </trkpt>
      <trkpt lat="46.93439" lon="8.69229">
        <ele>1746</ele>
        <time>2021-08-07T06:49:29.595Z</time>
      </trkpt>
      <trkpt lat="46.93439" lon="8.69228">
        <ele>1745</ele>
        <time>2021-08-07T06:49:30.596Z</time>
      </trkpt>
      <trkpt lat="46.93438" lon="8.69226">
        <ele>1745</ele>
        <time>2021-08-07T06:49:31.595Z</time>
      </trkpt>
      <trkpt lat="46.93437" lon="8.69225">
        <ele>1744</ele>
        <time>2021-08-07T06:49:32.595Z</time>
      </trkpt>
      <trkpt lat="46.93437" lon="8.69224">
        <ele>1744</ele>
        <time>2021-08-07T06:49:33.595Z</time>
      </trkpt>
      <trkpt lat="46.93436" lon="8.69223">
        <ele>1744</ele>
        <time>2021-08-07T06:49:34.595Z</time>
      </trkpt>
      <trkpt lat="46.93435" lon="8.69222">
        <ele>1744</ele>
        <time>2021-08-07T06:49:35.595Z</time>
      </trkpt>
      <trkpt lat="46.93435" lon="8.69221">
        <ele>1744</ele>
        <time>2021-08-07T06:49:36.595Z</time>
      </trkpt>
      <trkpt lat="46.93435" lon="8.69219">
        <ele>1744</ele>
        <time>2021-08-07T06:49:37.595Z</time>
      </trkpt>
      <trkpt lat="46.93434" lon="8.69218">
        <ele>1743</ele>
        <time>2021-08-07T06:49:38.595Z</time>
      </trkpt>
      <trkpt lat="46.93434" lon="8.69217">
        <ele>1743</ele>
        <time>2021-08-07T06:49:39.595Z</time>
      </trkpt>
      <trkpt lat="46.93433" lon="8.69216">
        <ele>1743</ele>
        <time>2021-08-07T06:49:40.595Z</time>
      </trkpt>
      <trkpt lat="46.93433" lon="8.69215">
        <ele>1742</ele>
        <time>2021-08-07T06:49:41.595Z</time>
      </trkpt>
      <trkpt lat="46.93432" lon="8.69214">
        <ele>1742</ele>
        <time>2021-08-07T06:49:42.595Z</time>
      </trkpt>
      <trkpt lat="46.93432" lon="8.69213">
        <ele>1741</ele>
        <time>2021-08-07T06:49:43.595Z</time>
      </trkpt>
      <trkpt lat="46.93431" lon="8.69211">
        <ele>1741</ele>
        <time>2021-08-07T06:49:44.595Z</time>
      </trkpt>
      <trkpt lat="46.93431" lon="8.6921">
        <ele>1741</ele>
        <time>2021-08-07T06:49:45.595Z</time>
      </trkpt>
      <trkpt lat="46.93431" lon="8.69209">
        <ele>1741</ele>
        <time>2021-08-07T06:49:46.595Z</time>
      </trkpt>
      <trkpt lat="46.93431" lon="8.69208">
        <ele>1741</ele>
        <time>2021-08-07T06:49:47.595Z</time>
      </trkpt>
      <trkpt lat="46.93431" lon="8.69207">
        <ele>1741</ele>
        <time>2021-08-07T06:49:48.596Z</time>
      </trkpt>
      <trkpt lat="46.9343" lon="8.69205">
        <ele>1741</ele>
        <time>2021-08-07T06:49:49.596Z</time>
      </trkpt>
      <trkpt lat="46.9343" lon="8.69204">
        <ele>1741</ele>
        <time>2021-08-07T06:49:50.595Z</time>
      </trkpt>
      <trkpt lat="46.9343" lon="8.69203">
        <ele>1741</ele>
        <time>2021-08-07T06:49:51.596Z</time>
      </trkpt>
      <trkpt lat="46.9343" lon="8.69202">
        <ele>1741</ele>
        <time>2021-08-07T06:49:52.595Z</time>
      </trkpt>
      <trkpt lat="46.9343" lon="8.69201">
        <ele>1741</ele>
        <time>2021-08-07T06:49:53.596Z</time>
      </trkpt>
      <trkpt lat="46.93431" lon="8.692">
        <ele>1741</ele>
        <time>2021-08-07T06:49:54.595Z</time>
      </trkpt>
      <trkpt lat="46.93431" lon="8.69199">
        <ele>1741</ele>
        <time>2021-08-07T06:49:55.596Z</time>
      </trkpt>
      <trkpt lat="46.93431" lon="8.69198">
        <ele>1741</ele>
        <time>2021-08-07T06:49:56.596Z</time>
      </trkpt>
      <trkpt lat="46.93431" lon="8.69197">
        <ele>1742</ele>
        <time>2021-08-07T06:49:57.596Z</time>
      </trkpt>
      <trkpt lat="46.93431" lon="8.69196">
        <ele>1742</ele>
        <time>2021-08-07T06:49:58.595Z</time>
      </trkpt>
      <trkpt lat="46.93431" lon="8.69194">
        <ele>1742</ele>
        <time>2021-08-07T06:49:59.595Z</time>
      </trkpt>
      <trkpt lat="46.93431" lon="8.69193">
        <ele>1742</ele>
        <time>2021-08-07T06:50:00.595Z</time>
      </trkpt>
      <trkpt lat="46.9343" lon="8.69192">
        <ele>1743</ele>
        <time>2021-08-07T06:50:01.595Z</time>
      </trkpt>
      <trkpt lat="46.9343" lon="8.6919">
        <ele>1743</ele>
        <time>2021-08-07T06:50:02.595Z</time>
      </trkpt>
      <trkpt lat="46.93429" lon="8.69188">
        <ele>1743</ele>
        <time>2021-08-07T06:50:03.595Z</time>
      </trkpt>
      <trkpt lat="46.93429" lon="8.69187">
        <ele>1743</ele>
        <time>2021-08-07T06:50:04.596Z</time>
      </trkpt>
      <trkpt lat="46.93428" lon="8.69184">
        <ele>1743</ele>
        <time>2021-08-07T06:50:05.595Z</time>
      </trkpt>
      <trkpt lat="46.93428" lon="8.69184">
        <ele>1743</ele>
        <time>2021-08-07T06:50:06.596Z</time>
      </trkpt>
      <trkpt lat="46.93428" lon="8.69182">
        <ele>1744</ele>
        <time>2021-08-07T06:50:07.595Z</time>
      </trkpt>
      <trkpt lat="46.93428" lon="8.6918">
        <ele>1744</ele>
        <time>2021-08-07T06:50:08.596Z</time>
      </trkpt>
      <trkpt lat="46.93427" lon="8.69179">
        <ele>1744</ele>
        <time>2021-08-07T06:50:09.595Z</time>
      </trkpt>
      <trkpt lat="46.93427" lon="8.69178">
        <ele>1745</ele>
        <time>2021-08-07T06:50:10.596Z</time>
      </trkpt>
      <trkpt lat="46.93427" lon="8.69177">
        <ele>1745</ele>
        <time>2021-08-07T06:50:11.596Z</time>
      </trkpt>
      <trkpt lat="46.93427" lon="8.69176">
        <ele>1746</ele>
        <time>2021-08-07T06:50:12.595Z</time>
      </trkpt>
      <trkpt lat="46.93426" lon="8.69175">
        <ele>1746</ele>
        <time>2021-08-07T06:50:13.596Z</time>
      </trkpt>
      <trkpt lat="46.93426" lon="8.69174">
        <ele>1747</ele>
        <time>2021-08-07T06:50:14.595Z</time>
      </trkpt>
      <trkpt lat="46.93426" lon="8.69173">
        <ele>1747</ele>
        <time>2021-08-07T06:50:15.595Z</time>
      </trkpt>
      <trkpt lat="46.93426" lon="8.69171">
        <ele>1746</ele>
        <time>2021-08-07T06:50:16.596Z</time>
      </trkpt>
      <trkpt lat="46.93425" lon="8.69169">
        <ele>1747</ele>
        <time>2021-08-07T06:50:17.595Z</time>
      </trkpt>
      <trkpt lat="46.93425" lon="8.69168">
        <ele>1747</ele>
        <time>2021-08-07T06:50:18.596Z</time>
      </trkpt>
      <trkpt lat="46.93425" lon="8.69167">
        <ele>1747</ele>
        <time>2021-08-07T06:50:19.596Z</time>
      </trkpt>
      <trkpt lat="46.93424" lon="8.69165">
        <ele>1747</ele>
        <time>2021-08-07T06:50:20.595Z</time>
      </trkpt>
      <trkpt lat="46.93424" lon="8.69164">
        <ele>1747</ele>
        <time>2021-08-07T06:50:21.596Z</time>
      </trkpt>
      <trkpt lat="46.93423" lon="8.69163">
        <ele>1747</ele>
        <time>2021-08-07T06:50:22.596Z</time>
      </trkpt>
      <trkpt lat="46.93423" lon="8.69162">
        <ele>1747</ele>
        <time>2021-08-07T06:50:23.596Z</time>
      </trkpt>
      <trkpt lat="46.93422" lon="8.69161">
        <ele>1747</ele>
        <time>2021-08-07T06:50:24.596Z</time>
      </trkpt>
      <trkpt lat="46.93421" lon="8.6916">
        <ele>1747</ele>
        <time>2021-08-07T06:50:25.595Z</time>
      </trkpt>
      <trkpt lat="46.93421" lon="8.69159">
        <ele>1747</ele>
        <time>2021-08-07T06:50:26.596Z</time>
      </trkpt>
      <trkpt lat="46.9342" lon="8.69158">
        <ele>1747</ele>
        <time>2021-08-07T06:50:27.595Z</time>
      </trkpt>
      <trkpt lat="46.9342" lon="8.69157">
        <ele>1746</ele>
        <time>2021-08-07T06:50:28.596Z</time>
      </trkpt>
      <trkpt lat="46.93419" lon="8.69157">
        <ele>1746</ele>
        <time>2021-08-07T06:50:29.596Z</time>
      </trkpt>
      <trkpt lat="46.93419" lon="8.69156">
        <ele>1746</ele>
        <time>2021-08-07T06:50:30.596Z</time>
      </trkpt>
      <trkpt lat="46.93419" lon="8.69155">
        <ele>1746</ele>
        <time>2021-08-07T06:50:31.596Z</time>
      </trkpt>
      <trkpt lat="46.93418" lon="8.69155">
        <ele>1745</ele>
        <time>2021-08-07T06:50:32.595Z</time>
      </trkpt>
      <trkpt lat="46.93418" lon="8.69154">
        <ele>1745</ele>
        <time>2021-08-07T06:50:33.595Z</time>
      </trkpt>
      <trkpt lat="46.93417" lon="8.69154">
        <ele>1745</ele>
        <time>2021-08-07T06:50:34.596Z</time>
      </trkpt>
      <trkpt lat="46.93416" lon="8.69153">
        <ele>1746</ele>
        <time>2021-08-07T06:50:35.595Z</time>
      </trkpt>
      <trkpt lat="46.93415" lon="8.69152">
        <ele>1746</ele>
        <time>2021-08-07T06:50:36.596Z</time>
      </trkpt>
      <trkpt lat="46.93415" lon="8.69151">
        <ele>1746</ele>
        <time>2021-08-07T06:50:37.596Z</time>
      </trkpt>
      <trkpt lat="46.93414" lon="8.6915">
        <ele>1746</ele>
        <time>2021-08-07T06:50:38.596Z</time>
      </trkpt>
      <trkpt lat="46.93413" lon="8.69149">
        <ele>1747</ele>
        <time>2021-08-07T06:50:39.595Z</time>
      </trkpt>
      <trkpt lat="46.93412" lon="8.69149">
        <ele>1747</ele>
        <time>2021-08-07T06:50:40.596Z</time>
      </trkpt>
      <trkpt lat="46.93411" lon="8.69148">
        <ele>1747</ele>
        <time>2021-08-07T06:50:41.596Z</time>
      </trkpt>
      <trkpt lat="46.93411" lon="8.69148">
        <ele>1748</ele>
        <time>2021-08-07T06:50:42.596Z</time>
      </trkpt>
      <trkpt lat="46.9341" lon="8.69147">
        <ele>1748</ele>
        <time>2021-08-07T06:50:43.595Z</time>
      </trkpt>
      <trkpt lat="46.93409" lon="8.69146">
        <ele>1748</ele>
        <time>2021-08-07T06:50:44.596Z</time>
      </trkpt>
      <trkpt lat="46.93409" lon="8.69146">
        <ele>1748</ele>
        <time>2021-08-07T06:50:45.596Z</time>
      </trkpt>
      <trkpt lat="46.93409" lon="8.69145">
        <ele>1748</ele>
        <time>2021-08-07T06:50:46.596Z</time>
      </trkpt>
      <trkpt lat="46.93408" lon="8.69145">
        <ele>1748</ele>
        <time>2021-08-07T06:50:47.596Z</time>
      </trkpt>
      <trkpt lat="46.93408" lon="8.69144">
        <ele>1747</ele>
        <time>2021-08-07T06:50:48.595Z</time>
      </trkpt>
      <trkpt lat="46.93408" lon="8.69144">
        <ele>1747</ele>
        <time>2021-08-07T06:50:49.596Z</time>
      </trkpt>
      <trkpt lat="46.93408" lon="8.69143">
        <ele>1746</ele>
        <time>2021-08-07T06:50:50.596Z</time>
      </trkpt>
      <trkpt lat="46.93407" lon="8.69143">
        <ele>1746</ele>
        <time>2021-08-07T06:50:51.595Z</time>
      </trkpt>
      <trkpt lat="46.93407" lon="8.69142">
        <ele>1746</ele>
        <time>2021-08-07T06:50:52.595Z</time>
      </trkpt>
      <trkpt lat="46.93406" lon="8.69142">
        <ele>1745</ele>
        <time>2021-08-07T06:50:53.595Z</time>
      </trkpt>
      <trkpt lat="46.93406" lon="8.69141">
        <ele>1745</ele>
        <time>2021-08-07T06:50:54.595Z</time>
      </trkpt>
      <trkpt lat="46.93406" lon="8.69141">
        <ele>1745</ele>
        <time>2021-08-07T06:50:55.595Z</time>
      </trkpt>
      <trkpt lat="46.93405" lon="8.6914">
        <ele>1745</ele>
        <time>2021-08-07T06:50:56.596Z</time>
      </trkpt>
      <trkpt lat="46.93404" lon="8.6914">
        <ele>1745</ele>
        <time>2021-08-07T06:50:57.596Z</time>
      </trkpt>
      <trkpt lat="46.93403" lon="8.69139">
        <ele>1746</ele>
        <time>2021-08-07T06:50:58.595Z</time>
      </trkpt>
      <trkpt lat="46.93403" lon="8.69139">
        <ele>1747</ele>
        <time>2021-08-07T06:50:59.595Z</time>
      </trkpt>
      <trkpt lat="46.93402" lon="8.69138">
        <ele>1747</ele>
        <time>2021-08-07T06:51:00.595Z</time>
      </trkpt>
      <trkpt lat="46.93401" lon="8.69138">
        <ele>1748</ele>
        <time>2021-08-07T06:51:01.596Z</time>
      </trkpt>
      <trkpt lat="46.934" lon="8.69137">
        <ele>1749</ele>
        <time>2021-08-07T06:51:02.596Z</time>
      </trkpt>
      <trkpt lat="46.93399" lon="8.69137">
        <ele>1750</ele>
        <time>2021-08-07T06:51:03.596Z</time>
      </trkpt>
      <trkpt lat="46.93398" lon="8.69136">
        <ele>1750</ele>
        <time>2021-08-07T06:51:04.596Z</time>
      </trkpt>
      <trkpt lat="46.93398" lon="8.69136">
        <ele>1750</ele>
        <time>2021-08-07T06:51:05.595Z</time>
      </trkpt>
      <trkpt lat="46.93397" lon="8.69135">
        <ele>1750</ele>
        <time>2021-08-07T06:51:06.596Z</time>
      </trkpt>
      <trkpt lat="46.93396" lon="8.69134">
        <ele>1750</ele>
        <time>2021-08-07T06:51:07.596Z</time>
      </trkpt>
      <trkpt lat="46.93395" lon="8.69134">
        <ele>1750</ele>
        <time>2021-08-07T06:51:08.595Z</time>
      </trkpt>
      <trkpt lat="46.93394" lon="8.69133">
        <ele>1750</ele>
        <time>2021-08-07T06:51:09.595Z</time>
      </trkpt>
      <trkpt lat="46.93393" lon="8.69132">
        <ele>1750</ele>
        <time>2021-08-07T06:51:10.595Z</time>
      </trkpt>
      <trkpt lat="46.93393" lon="8.69132">
        <ele>1749</ele>
        <time>2021-08-07T06:51:11.596Z</time>
      </trkpt>
      <trkpt lat="46.93392" lon="8.69131">
        <ele>1749</ele>
        <time>2021-08-07T06:51:12.596Z</time>
      </trkpt>
      <trkpt lat="46.93391" lon="8.6913">
        <ele>1749</ele>
        <time>2021-08-07T06:51:13.596Z</time>
      </trkpt>
      <trkpt lat="46.9339" lon="8.69129">
        <ele>1750</ele>
        <time>2021-08-07T06:51:14.596Z</time>
      </trkpt>
      <trkpt lat="46.93389" lon="8.69128">
        <ele>1750</ele>
        <time>2021-08-07T06:51:15.596Z</time>
      </trkpt>
      <trkpt lat="46.93389" lon="8.69127">
        <ele>1750</ele>
        <time>2021-08-07T06:51:16.596Z</time>
      </trkpt>
      <trkpt lat="46.93388" lon="8.69127">
        <ele>1750</ele>
        <time>2021-08-07T06:51:17.595Z</time>
      </trkpt>
      <trkpt lat="46.93387" lon="8.69126">
        <ele>1750</ele>
        <time>2021-08-07T06:51:18.596Z</time>
      </trkpt>
      <trkpt lat="46.93387" lon="8.69125">
        <ele>1750</ele>
        <time>2021-08-07T06:51:19.596Z</time>
      </trkpt>
      <trkpt lat="46.93386" lon="8.69125">
        <ele>1750</ele>
        <time>2021-08-07T06:51:20.596Z</time>
      </trkpt>
      <trkpt lat="46.93385" lon="8.69125">
        <ele>1750</ele>
        <time>2021-08-07T06:51:21.596Z</time>
      </trkpt>
      <trkpt lat="46.93385" lon="8.69124">
        <ele>1750</ele>
        <time>2021-08-07T06:51:22.596Z</time>
      </trkpt>
      <trkpt lat="46.93384" lon="8.69124">
        <ele>1750</ele>
        <time>2021-08-07T06:51:23.596Z</time>
      </trkpt>
      <trkpt lat="46.93384" lon="8.69123">
        <ele>1750</ele>
        <time>2021-08-07T06:51:24.596Z</time>
      </trkpt>
      <trkpt lat="46.93383" lon="8.69122">
        <ele>1749</ele>
        <time>2021-08-07T06:51:25.596Z</time>
      </trkpt>
      <trkpt lat="46.93383" lon="8.69121">
        <ele>1749</ele>
        <time>2021-08-07T06:51:26.596Z</time>
      </trkpt>
      <trkpt lat="46.93382" lon="8.6912">
        <ele>1749</ele>
        <time>2021-08-07T06:51:27.596Z</time>
      </trkpt>
      <trkpt lat="46.93381" lon="8.69119">
        <ele>1749</ele>
        <time>2021-08-07T06:51:28.595Z</time>
      </trkpt>
      <trkpt lat="46.93381" lon="8.69118">
        <ele>1749</ele>
        <time>2021-08-07T06:51:29.596Z</time>
      </trkpt>
      <trkpt lat="46.9338" lon="8.69117">
        <ele>1749</ele>
        <time>2021-08-07T06:51:30.596Z</time>
      </trkpt>
      <trkpt lat="46.93379" lon="8.69116">
        <ele>1749</ele>
        <time>2021-08-07T06:51:31.595Z</time>
      </trkpt>
      <trkpt lat="46.93379" lon="8.69114">
        <ele>1748</ele>
        <time>2021-08-07T06:51:32.595Z</time>
      </trkpt>
      <trkpt lat="46.93378" lon="8.69114">
        <ele>1748</ele>
        <time>2021-08-07T06:51:33.596Z</time>
      </trkpt>
      <trkpt lat="46.93377" lon="8.69113">
        <ele>1748</ele>
        <time>2021-08-07T06:51:34.596Z</time>
      </trkpt>
      <trkpt lat="46.93376" lon="8.69112">
        <ele>1748</ele>
        <time>2021-08-07T06:51:35.596Z</time>
      </trkpt>
      <trkpt lat="46.93376" lon="8.69112">
        <ele>1747</ele>
        <time>2021-08-07T06:51:36.595Z</time>
      </trkpt>
      <trkpt lat="46.93375" lon="8.69111">
        <ele>1747</ele>
        <time>2021-08-07T06:51:37.595Z</time>
      </trkpt>
      <trkpt lat="46.93375" lon="8.69111">
        <ele>1747</ele>
        <time>2021-08-07T06:51:38.596Z</time>
      </trkpt>
      <trkpt lat="46.93374" lon="8.6911">
        <ele>1747</ele>
        <time>2021-08-07T06:51:39.596Z</time>
      </trkpt>
      <trkpt lat="46.93373" lon="8.6911">
        <ele>1747</ele>
        <time>2021-08-07T06:51:40.596Z</time>
      </trkpt>
      <trkpt lat="46.93372" lon="8.69109">
        <ele>1747</ele>
        <time>2021-08-07T06:51:41.596Z</time>
      </trkpt>
      <trkpt lat="46.93372" lon="8.69108">
        <ele>1747</ele>
        <time>2021-08-07T06:51:42.596Z</time>
      </trkpt>
      <trkpt lat="46.93371" lon="8.69108">
        <ele>1748</ele>
        <time>2021-08-07T06:51:43.596Z</time>
      </trkpt>
      <trkpt lat="46.9337" lon="8.69107">
        <ele>1747</ele>
        <time>2021-08-07T06:51:44.596Z</time>
      </trkpt>
      <trkpt lat="46.93369" lon="8.69107">
        <ele>1747</ele>
        <time>2021-08-07T06:51:45.596Z</time>
      </trkpt>
      <trkpt lat="46.93368" lon="8.69106">
        <ele>1747</ele>
        <time>2021-08-07T06:51:46.596Z</time>
      </trkpt>
      <trkpt lat="46.93368" lon="8.69106">
        <ele>1747</ele>
        <time>2021-08-07T06:51:47.596Z</time>
      </trkpt>
      <trkpt lat="46.93367" lon="8.69105">
        <ele>1747</ele>
        <time>2021-08-07T06:51:48.596Z</time>
      </trkpt>
      <trkpt lat="46.93366" lon="8.69104">
        <ele>1747</ele>
        <time>2021-08-07T06:51:49.596Z</time>
      </trkpt>
      <trkpt lat="46.93365" lon="8.69104">
        <ele>1747</ele>
        <time>2021-08-07T06:51:50.595Z</time>
      </trkpt>
      <trkpt lat="46.93365" lon="8.69103">
        <ele>1747</ele>
        <time>2021-08-07T06:51:51.596Z</time>
      </trkpt>
      <trkpt lat="46.93364" lon="8.69103">
        <ele>1747</ele>
        <time>2021-08-07T06:51:52.596Z</time>
      </trkpt>
      <trkpt lat="46.93363" lon="8.69103">
        <ele>1747</ele>
        <time>2021-08-07T06:51:53.596Z</time>
      </trkpt>
      <trkpt lat="46.93363" lon="8.69103">
        <ele>1747</ele>
        <time>2021-08-07T06:51:54.596Z</time>
      </trkpt>
      <trkpt lat="46.93362" lon="8.69103">
        <ele>1747</ele>
        <time>2021-08-07T06:51:55.595Z</time>
      </trkpt>
      <trkpt lat="46.93361" lon="8.69103">
        <ele>1748</ele>
        <time>2021-08-07T06:51:56.596Z</time>
      </trkpt>
      <trkpt lat="46.93361" lon="8.69102">
        <ele>1748</ele>
        <time>2021-08-07T06:51:57.596Z</time>
      </trkpt>
      <trkpt lat="46.9336" lon="8.69102">
        <ele>1747</ele>
        <time>2021-08-07T06:51:58.595Z</time>
      </trkpt>
      <trkpt lat="46.93359" lon="8.69102">
        <ele>1747</ele>
        <time>2021-08-07T06:51:59.596Z</time>
      </trkpt>
      <trkpt lat="46.93358" lon="8.69102">
        <ele>1748</ele>
        <time>2021-08-07T06:52:00.596Z</time>
      </trkpt>
      <trkpt lat="46.93358" lon="8.69102">
        <ele>1748</ele>
        <time>2021-08-07T06:52:01.596Z</time>
      </trkpt>
      <trkpt lat="46.93357" lon="8.69102">
        <ele>1748</ele>
        <time>2021-08-07T06:52:02.596Z</time>
      </trkpt>
      <trkpt lat="46.93357" lon="8.69102">
        <ele>1748</ele>
        <time>2021-08-07T06:52:03.595Z</time>
      </trkpt>
      <trkpt lat="46.93356" lon="8.69102">
        <ele>1749</ele>
        <time>2021-08-07T06:52:04.595Z</time>
      </trkpt>
      <trkpt lat="46.93355" lon="8.69102">
        <ele>1749</ele>
        <time>2021-08-07T06:52:05.595Z</time>
      </trkpt>
      <trkpt lat="46.93354" lon="8.69102">
        <ele>1750</ele>
        <time>2021-08-07T06:52:06.595Z</time>
      </trkpt>
      <trkpt lat="46.93353" lon="8.69102">
        <ele>1750</ele>
        <time>2021-08-07T06:52:07.596Z</time>
      </trkpt>
      <trkpt lat="46.93353" lon="8.69102">
        <ele>1750</ele>
        <time>2021-08-07T06:52:08.595Z</time>
      </trkpt>
      <trkpt lat="46.93352" lon="8.69102">
        <ele>1751</ele>
        <time>2021-08-07T06:52:09.596Z</time>
      </trkpt>
      <trkpt lat="46.93351" lon="8.69102">
        <ele>1751</ele>
        <time>2021-08-07T06:52:10.595Z</time>
      </trkpt>
      <trkpt lat="46.93351" lon="8.69102">
        <ele>1751</ele>
        <time>2021-08-07T06:52:11.595Z</time>
      </trkpt>
      <trkpt lat="46.9335" lon="8.69102">
        <ele>1752</ele>
        <time>2021-08-07T06:52:12.596Z</time>
      </trkpt>
      <trkpt lat="46.93349" lon="8.69102">
        <ele>1752</ele>
        <time>2021-08-07T06:52:13.596Z</time>
      </trkpt>
      <trkpt lat="46.93349" lon="8.69102">
        <ele>1753</ele>
        <time>2021-08-07T06:52:14.595Z</time>
      </trkpt>
      <trkpt lat="46.93348" lon="8.69102">
        <ele>1753</ele>
        <time>2021-08-07T06:52:15.596Z</time>
      </trkpt>
      <trkpt lat="46.93347" lon="8.69102">
        <ele>1753</ele>
        <time>2021-08-07T06:52:16.595Z</time>
      </trkpt>
      <trkpt lat="46.93347" lon="8.69102">
        <ele>1753</ele>
        <time>2021-08-07T06:52:17.595Z</time>
      </trkpt>
      <trkpt lat="46.93346" lon="8.69102">
        <ele>1753</ele>
        <time>2021-08-07T06:52:18.595Z</time>
      </trkpt>
      <trkpt lat="46.93344" lon="8.69102">
        <ele>1753</ele>
        <time>2021-08-07T06:52:19.595Z</time>
      </trkpt>
      <trkpt lat="46.93343" lon="8.69102">
        <ele>1753</ele>
        <time>2021-08-07T06:52:20.596Z</time>
      </trkpt>
      <trkpt lat="46.93342" lon="8.69102">
        <ele>1752</ele>
        <time>2021-08-07T06:52:21.596Z</time>
      </trkpt>
      <trkpt lat="46.93341" lon="8.69102">
        <ele>1752</ele>
        <time>2021-08-07T06:52:22.596Z</time>
      </trkpt>
      <trkpt lat="46.93341" lon="8.69102">
        <ele>1751</ele>
        <time>2021-08-07T06:52:23.596Z</time>
      </trkpt>
      <trkpt lat="46.93339" lon="8.69103">
        <ele>1751</ele>
        <time>2021-08-07T06:52:24.596Z</time>
      </trkpt>
      <trkpt lat="46.93338" lon="8.69102">
        <ele>1751</ele>
        <time>2021-08-07T06:52:25.595Z</time>
      </trkpt>
      <trkpt lat="46.93337" lon="8.69102">
        <ele>1751</ele>
        <time>2021-08-07T06:52:26.596Z</time>
      </trkpt>
      <trkpt lat="46.93336" lon="8.69103">
        <ele>1751</ele>
        <time>2021-08-07T06:52:27.596Z</time>
      </trkpt>
      <trkpt lat="46.93336" lon="8.69103">
        <ele>1751</ele>
        <time>2021-08-07T06:52:28.596Z</time>
      </trkpt>
      <trkpt lat="46.93335" lon="8.69103">
        <ele>1751</ele>
        <time>2021-08-07T06:52:29.595Z</time>
      </trkpt>
      <trkpt lat="46.93334" lon="8.69103">
        <ele>1751</ele>
        <time>2021-08-07T06:52:30.595Z</time>
      </trkpt>
      <trkpt lat="46.93333" lon="8.69104">
        <ele>1751</ele>
        <time>2021-08-07T06:52:31.596Z</time>
      </trkpt>
      <trkpt lat="46.93332" lon="8.69103">
        <ele>1751</ele>
        <time>2021-08-07T06:52:32.596Z</time>
      </trkpt>
      <trkpt lat="46.93332" lon="8.69103">
        <ele>1751</ele>
        <time>2021-08-07T06:52:33.595Z</time>
      </trkpt>
      <trkpt lat="46.93331" lon="8.69103">
        <ele>1750</ele>
        <time>2021-08-07T06:52:34.596Z</time>
      </trkpt>
      <trkpt lat="46.9333" lon="8.69103">
        <ele>1751</ele>
        <time>2021-08-07T06:52:35.596Z</time>
      </trkpt>
      <trkpt lat="46.9333" lon="8.69103">
        <ele>1751</ele>
        <time>2021-08-07T06:52:36.595Z</time>
      </trkpt>
      <trkpt lat="46.93329" lon="8.69103">
        <ele>1751</ele>
        <time>2021-08-07T06:52:37.595Z</time>
      </trkpt>
      <trkpt lat="46.93329" lon="8.69103">
        <ele>1751</ele>
        <time>2021-08-07T06:52:38.595Z</time>
      </trkpt>
      <trkpt lat="46.93329" lon="8.69103">
        <ele>1751</ele>
        <time>2021-08-07T06:52:39.596Z</time>
      </trkpt>
      <trkpt lat="46.93328" lon="8.69103">
        <ele>1751</ele>
        <time>2021-08-07T06:52:40.596Z</time>
      </trkpt>
      <trkpt lat="46.93328" lon="8.69103">
        <ele>1751</ele>
        <time>2021-08-07T06:52:41.596Z</time>
      </trkpt>
      <trkpt lat="46.93327" lon="8.69103">
        <ele>1752</ele>
        <time>2021-08-07T06:52:42.596Z</time>
      </trkpt>
      <trkpt lat="46.93327" lon="8.69103">
        <ele>1752</ele>
        <time>2021-08-07T06:52:43.595Z</time>
      </trkpt>
      <trkpt lat="46.93326" lon="8.69103">
        <ele>1752</ele>
        <time>2021-08-07T06:52:44.595Z</time>
      </trkpt>
      <trkpt lat="46.93325" lon="8.69104">
        <ele>1753</ele>
        <time>2021-08-07T06:52:45.595Z</time>
      </trkpt>
      <trkpt lat="46.93325" lon="8.69103">
        <ele>1753</ele>
        <time>2021-08-07T06:52:46.595Z</time>
      </trkpt>
      <trkpt lat="46.93324" lon="8.69103">
        <ele>1753</ele>
        <time>2021-08-07T06:52:47.595Z</time>
      </trkpt>
      <trkpt lat="46.93323" lon="8.69103">
        <ele>1753</ele>
        <time>2021-08-07T06:52:48.596Z</time>
      </trkpt>
      <trkpt lat="46.93323" lon="8.69102">
        <ele>1754</ele>
        <time>2021-08-07T06:52:49.596Z</time>
      </trkpt>
      <trkpt lat="46.93322" lon="8.69102">
        <ele>1754</ele>
        <time>2021-08-07T06:52:50.596Z</time>
      </trkpt>
      <trkpt lat="46.93321" lon="8.69102">
        <ele>1754</ele>
        <time>2021-08-07T06:52:51.596Z</time>
      </trkpt>
      <trkpt lat="46.9332" lon="8.69102">
        <ele>1754</ele>
        <time>2021-08-07T06:52:52.596Z</time>
      </trkpt>
      <trkpt lat="46.93319" lon="8.69102">
        <ele>1755</ele>
        <time>2021-08-07T06:52:53.596Z</time>
      </trkpt>
      <trkpt lat="46.93318" lon="8.69102">
        <ele>1755</ele>
        <time>2021-08-07T06:52:54.595Z</time>
      </trkpt>
      <trkpt lat="46.93318" lon="8.69102">
        <ele>1755</ele>
        <time>2021-08-07T06:52:55.596Z</time>
      </trkpt>
      <trkpt lat="46.93317" lon="8.69102">
        <ele>1756</ele>
        <time>2021-08-07T06:52:56.595Z</time>
      </trkpt>
      <trkpt lat="46.93316" lon="8.69102">
        <ele>1756</ele>
        <time>2021-08-07T06:52:57.596Z</time>
      </trkpt>
      <trkpt lat="46.93315" lon="8.69101">
        <ele>1756</ele>
        <time>2021-08-07T06:52:58.596Z</time>
      </trkpt>
      <trkpt lat="46.93314" lon="8.69101">
        <ele>1756</ele>
        <time>2021-08-07T06:52:59.596Z</time>
      </trkpt>
      <trkpt lat="46.93313" lon="8.69101">
        <ele>1756</ele>
        <time>2021-08-07T06:53:00.596Z</time>
      </trkpt>
      <trkpt lat="46.93312" lon="8.69101">
        <ele>1756</ele>
        <time>2021-08-07T06:53:01.595Z</time>
      </trkpt>
      <trkpt lat="46.93311" lon="8.69101">
        <ele>1756</ele>
        <time>2021-08-07T06:53:02.596Z</time>
      </trkpt>
      <trkpt lat="46.93311" lon="8.69101">
        <ele>1757</ele>
        <time>2021-08-07T06:53:03.596Z</time>
      </trkpt>
      <trkpt lat="46.9331" lon="8.69101">
        <ele>1757</ele>
        <time>2021-08-07T06:53:04.596Z</time>
      </trkpt>
      <trkpt lat="46.93309" lon="8.69101">
        <ele>1757</ele>
        <time>2021-08-07T06:53:05.596Z</time>
      </trkpt>
      <trkpt lat="46.93309" lon="8.69101">
        <ele>1757</ele>
        <time>2021-08-07T06:53:06.595Z</time>
      </trkpt>
      <trkpt lat="46.93308" lon="8.69101">
        <ele>1757</ele>
        <time>2021-08-07T06:53:07.595Z</time>
      </trkpt>
      <trkpt lat="46.93307" lon="8.69101">
        <ele>1757</ele>
        <time>2021-08-07T06:53:08.596Z</time>
      </trkpt>
      <trkpt lat="46.93306" lon="8.69101">
        <ele>1757</ele>
        <time>2021-08-07T06:53:09.596Z</time>
      </trkpt>
      <trkpt lat="46.93306" lon="8.69101">
        <ele>1757</ele>
        <time>2021-08-07T06:53:10.596Z</time>
      </trkpt>
      <trkpt lat="46.93305" lon="8.691">
        <ele>1757</ele>
        <time>2021-08-07T06:53:11.596Z</time>
      </trkpt>
      <trkpt lat="46.93304" lon="8.691">
        <ele>1757</ele>
        <time>2021-08-07T06:53:12.596Z</time>
      </trkpt>
      <trkpt lat="46.93303" lon="8.691">
        <ele>1757</ele>
        <time>2021-08-07T06:53:13.596Z</time>
      </trkpt>
      <trkpt lat="46.93303" lon="8.691">
        <ele>1757</ele>
        <time>2021-08-07T06:53:14.596Z</time>
      </trkpt>
      <trkpt lat="46.93302" lon="8.691">
        <ele>1757</ele>
        <time>2021-08-07T06:53:15.595Z</time>
      </trkpt>
      <trkpt lat="46.93301" lon="8.691">
        <ele>1758</ele>
        <time>2021-08-07T06:53:16.595Z</time>
      </trkpt>
      <trkpt lat="46.933" lon="8.691">
        <ele>1759</ele>
        <time>2021-08-07T06:53:17.596Z</time>
      </trkpt>
      <trkpt lat="46.93299" lon="8.691">
        <ele>1759</ele>
        <time>2021-08-07T06:53:18.596Z</time>
      </trkpt>
      <trkpt lat="46.93298" lon="8.69099">
        <ele>1760</ele>
        <time>2021-08-07T06:53:19.596Z</time>
      </trkpt>
      <trkpt lat="46.93297" lon="8.69099">
        <ele>1760</ele>
        <time>2021-08-07T06:53:20.596Z</time>
      </trkpt>
      <trkpt lat="46.93296" lon="8.69098">
        <ele>1761</ele>
        <time>2021-08-07T06:53:21.596Z</time>
      </trkpt>
      <trkpt lat="46.93295" lon="8.69098">
        <ele>1761</ele>
        <time>2021-08-07T06:53:22.595Z</time>
      </trkpt>
      <trkpt lat="46.93294" lon="8.69097">
        <ele>1761</ele>
        <time>2021-08-07T06:53:23.596Z</time>
      </trkpt>
      <trkpt lat="46.93294" lon="8.69097">
        <ele>1761</ele>
        <time>2021-08-07T06:53:24.596Z</time>
      </trkpt>
      <trkpt lat="46.93293" lon="8.69097">
        <ele>1761</ele>
        <time>2021-08-07T06:53:25.595Z</time>
      </trkpt>
      <trkpt lat="46.93292" lon="8.69097">
        <ele>1761</ele>
        <time>2021-08-07T06:53:26.596Z</time>
      </trkpt>
      <trkpt lat="46.93291" lon="8.69097">
        <ele>1761</ele>
        <time>2021-08-07T06:53:27.596Z</time>
      </trkpt>
      <trkpt lat="46.9329" lon="8.69096">
        <ele>1761</ele>
        <time>2021-08-07T06:53:28.596Z</time>
      </trkpt>
      <trkpt lat="46.9329" lon="8.69096">
        <ele>1762</ele>
        <time>2021-08-07T06:53:29.595Z</time>
      </trkpt>
      <trkpt lat="46.93289" lon="8.69096">
        <ele>1762</ele>
        <time>2021-08-07T06:53:30.595Z</time>
      </trkpt>
      <trkpt lat="46.93288" lon="8.69096">
        <ele>1762</ele>
        <time>2021-08-07T06:53:31.596Z</time>
      </trkpt>
      <trkpt lat="46.93287" lon="8.69095">
        <ele>1762</ele>
        <time>2021-08-07T06:53:32.596Z</time>
      </trkpt>
      <trkpt lat="46.93287" lon="8.69095">
        <ele>1763</ele>
        <time>2021-08-07T06:53:33.596Z</time>
      </trkpt>
      <trkpt lat="46.93286" lon="8.69094">
        <ele>1763</ele>
        <time>2021-08-07T06:53:34.596Z</time>
      </trkpt>
      <trkpt lat="46.93285" lon="8.69093">
        <ele>1763</ele>
        <time>2021-08-07T06:53:35.596Z</time>
      </trkpt>
      <trkpt lat="46.93284" lon="8.69092">
        <ele>1763</ele>
        <time>2021-08-07T06:53:36.596Z</time>
      </trkpt>
      <trkpt lat="46.93283" lon="8.69092">
        <ele>1763</ele>
        <time>2021-08-07T06:53:37.596Z</time>
      </trkpt>
      <trkpt lat="46.93283" lon="8.69091">
        <ele>1762</ele>
        <time>2021-08-07T06:53:38.596Z</time>
      </trkpt>
      <trkpt lat="46.93281" lon="8.69091">
        <ele>1763</ele>
        <time>2021-08-07T06:53:39.595Z</time>
      </trkpt>
      <trkpt lat="46.93281" lon="8.6909">
        <ele>1763</ele>
        <time>2021-08-07T06:53:40.596Z</time>
      </trkpt>
      <trkpt lat="46.9328" lon="8.6909">
        <ele>1763</ele>
        <time>2021-08-07T06:53:41.596Z</time>
      </trkpt>
      <trkpt lat="46.93279" lon="8.69089">
        <ele>1763</ele>
        <time>2021-08-07T06:53:42.596Z</time>
      </trkpt>
      <trkpt lat="46.93278" lon="8.69088">
        <ele>1763</ele>
        <time>2021-08-07T06:53:43.596Z</time>
      </trkpt>
      <trkpt lat="46.93277" lon="8.69088">
        <ele>1764</ele>
        <time>2021-08-07T06:53:44.595Z</time>
      </trkpt>
      <trkpt lat="46.93277" lon="8.69088">
        <ele>1763</ele>
        <time>2021-08-07T06:53:45.596Z</time>
      </trkpt>
      <trkpt lat="46.93276" lon="8.69088">
        <ele>1763</ele>
        <time>2021-08-07T06:53:46.596Z</time>
      </trkpt>
      <trkpt lat="46.93275" lon="8.69088">
        <ele>1763</ele>
        <time>2021-08-07T06:53:47.595Z</time>
      </trkpt>
      <trkpt lat="46.93275" lon="8.69087">
        <ele>1763</ele>
        <time>2021-08-07T06:53:48.595Z</time>
      </trkpt>
      <trkpt lat="46.93274" lon="8.69087">
        <ele>1763</ele>
        <time>2021-08-07T06:53:49.595Z</time>
      </trkpt>
      <trkpt lat="46.93273" lon="8.69087">
        <ele>1763</ele>
        <time>2021-08-07T06:53:50.595Z</time>
      </trkpt>
      <trkpt lat="46.93272" lon="8.69086">
        <ele>1763</ele>
        <time>2021-08-07T06:53:51.595Z</time>
      </trkpt>
      <trkpt lat="46.93271" lon="8.69084">
        <ele>1763</ele>
        <time>2021-08-07T06:53:52.595Z</time>
      </trkpt>
      <trkpt lat="46.93271" lon="8.69083">
        <ele>1763</ele>
        <time>2021-08-07T06:53:53.595Z</time>
      </trkpt>
      <trkpt lat="46.9327" lon="8.69082">
        <ele>1763</ele>
        <time>2021-08-07T06:53:54.596Z</time>
      </trkpt>
      <trkpt lat="46.93269" lon="8.69081">
        <ele>1763</ele>
        <time>2021-08-07T06:53:55.595Z</time>
      </trkpt>
      <trkpt lat="46.93269" lon="8.6908">
        <ele>1762</ele>
        <time>2021-08-07T06:53:56.595Z</time>
      </trkpt>
      <trkpt lat="46.93269" lon="8.6908">
        <ele>1762</ele>
        <time>2021-08-07T06:53:57.595Z</time>
      </trkpt>
      <trkpt lat="46.93268" lon="8.69079">
        <ele>1762</ele>
        <time>2021-08-07T06:53:58.595Z</time>
      </trkpt>
      <trkpt lat="46.93268" lon="8.69078">
        <ele>1761</ele>
        <time>2021-08-07T06:53:59.595Z</time>
      </trkpt>
      <trkpt lat="46.93268" lon="8.69076">
        <ele>1761</ele>
        <time>2021-08-07T06:54:00.595Z</time>
      </trkpt>
      <trkpt lat="46.93268" lon="8.69075">
        <ele>1761</ele>
        <time>2021-08-07T06:54:01.595Z</time>
      </trkpt>
      <trkpt lat="46.93268" lon="8.69074">
        <ele>1761</ele>
        <time>2021-08-07T06:54:02.595Z</time>
      </trkpt>
      <trkpt lat="46.93267" lon="8.69073">
        <ele>1761</ele>
        <time>2021-08-07T06:54:03.595Z</time>
      </trkpt>
      <trkpt lat="46.93266" lon="8.69072">
        <ele>1761</ele>
        <time>2021-08-07T06:54:04.595Z</time>
      </trkpt>
      <trkpt lat="46.93265" lon="8.69071">
        <ele>1761</ele>
        <time>2021-08-07T06:54:05.595Z</time>
      </trkpt>
      <trkpt lat="46.93264" lon="8.6907">
        <ele>1761</ele>
        <time>2021-08-07T06:54:06.595Z</time>
      </trkpt>
      <trkpt lat="46.93263" lon="8.6907">
        <ele>1761</ele>
        <time>2021-08-07T06:54:07.595Z</time>
      </trkpt>
      <trkpt lat="46.93262" lon="8.69069">
        <ele>1761</ele>
        <time>2021-08-07T06:54:08.595Z</time>
      </trkpt>
      <trkpt lat="46.93261" lon="8.69069">
        <ele>1761</ele>
        <time>2021-08-07T06:54:09.595Z</time>
      </trkpt>
      <trkpt lat="46.93261" lon="8.69068">
        <ele>1762</ele>
        <time>2021-08-07T06:54:10.595Z</time>
      </trkpt>
      <trkpt lat="46.9326" lon="8.69068">
        <ele>1762</ele>
        <time>2021-08-07T06:54:11.595Z</time>
      </trkpt>
      <trkpt lat="46.93259" lon="8.69067">
        <ele>1762</ele>
        <time>2021-08-07T06:54:12.595Z</time>
      </trkpt>
      <trkpt lat="46.93259" lon="8.69067">
        <ele>1762</ele>
        <time>2021-08-07T06:54:13.595Z</time>
      </trkpt>
      <trkpt lat="46.93258" lon="8.69066">
        <ele>1762</ele>
        <time>2021-08-07T06:54:14.595Z</time>
      </trkpt>
      <trkpt lat="46.93257" lon="8.69066">
        <ele>1762</ele>
        <time>2021-08-07T06:54:15.595Z</time>
      </trkpt>
      <trkpt lat="46.93257" lon="8.69065">
        <ele>1762</ele>
        <time>2021-08-07T06:54:16.595Z</time>
      </trkpt>
      <trkpt lat="46.93256" lon="8.69065">
        <ele>1762</ele>
        <time>2021-08-07T06:54:17.595Z</time>
      </trkpt>
      <trkpt lat="46.93256" lon="8.69065">
        <ele>1762</ele>
        <time>2021-08-07T06:54:18.595Z</time>
      </trkpt>
      <trkpt lat="46.93255" lon="8.69064">
        <ele>1762</ele>
        <time>2021-08-07T06:54:19.595Z</time>
      </trkpt>
      <trkpt lat="46.93254" lon="8.69064">
        <ele>1762</ele>
        <time>2021-08-07T06:54:20.595Z</time>
      </trkpt>
      <trkpt lat="46.93254" lon="8.69063">
        <ele>1762</ele>
        <time>2021-08-07T06:54:21.596Z</time>
      </trkpt>
      <trkpt lat="46.93253" lon="8.69063">
        <ele>1763</ele>
        <time>2021-08-07T06:54:22.595Z</time>
      </trkpt>
      <trkpt lat="46.93253" lon="8.69063">
        <ele>1763</ele>
        <time>2021-08-07T06:54:23.595Z</time>
      </trkpt>
      <trkpt lat="46.93253" lon="8.69063">
        <ele>1763</ele>
        <time>2021-08-07T06:54:24.595Z</time>
      </trkpt>
      <trkpt lat="46.93253" lon="8.69062">
        <ele>1763</ele>
        <time>2021-08-07T06:54:25.595Z</time>
      </trkpt>
      <trkpt lat="46.93252" lon="8.69062">
        <ele>1764</ele>
        <time>2021-08-07T06:54:26.595Z</time>
      </trkpt>
      <trkpt lat="46.93251" lon="8.6906">
        <ele>1769</ele>
        <time>2021-08-07T06:54:27.595Z</time>
      </trkpt>
      <trkpt lat="46.93251" lon="8.6906">
        <ele>1771</ele>
        <time>2021-08-07T06:54:28.596Z</time>
      </trkpt>
      <trkpt lat="46.93251" lon="8.69061">
        <ele>1772</ele>
        <time>2021-08-07T06:54:29.595Z</time>
      </trkpt>
      <trkpt lat="46.93251" lon="8.69064">
        <ele>1773</ele>
        <time>2021-08-07T06:54:30.596Z</time>
      </trkpt>
      <trkpt lat="46.93251" lon="8.69065">
        <ele>1775</ele>
        <time>2021-08-07T06:54:31.596Z</time>
      </trkpt>
      <trkpt lat="46.93251" lon="8.69067">
        <ele>1775</ele>
        <time>2021-08-07T06:54:32.596Z</time>
      </trkpt>
      <trkpt lat="46.93251" lon="8.69068">
        <ele>1775</ele>
        <time>2021-08-07T06:54:33.596Z</time>
      </trkpt>
      <trkpt lat="46.93252" lon="8.69069">
        <ele>1775</ele>
        <time>2021-08-07T06:54:34.596Z</time>
      </trkpt>
      <trkpt lat="46.93252" lon="8.6907">
        <ele>1775</ele>
        <time>2021-08-07T06:54:35.596Z</time>
      </trkpt>
      <trkpt lat="46.93253" lon="8.69071">
        <ele>1774</ele>
        <time>2021-08-07T06:54:36.596Z</time>
      </trkpt>
      <trkpt lat="46.93253" lon="8.69072">
        <ele>1773</ele>
        <time>2021-08-07T06:54:37.596Z</time>
      </trkpt>
      <trkpt lat="46.93253" lon="8.69073">
        <ele>1772</ele>
        <time>2021-08-07T06:54:38.596Z</time>
      </trkpt>
      <trkpt lat="46.93253" lon="8.69074">
        <ele>1771</ele>
        <time>2021-08-07T06:54:39.596Z</time>
      </trkpt>
      <trkpt lat="46.93252" lon="8.69075">
        <ele>1770</ele>
        <time>2021-08-07T06:54:40.596Z</time>
      </trkpt>
      <trkpt lat="46.93251" lon="8.69076">
        <ele>1770</ele>
        <time>2021-08-07T06:54:41.595Z</time>
      </trkpt>
      <trkpt lat="46.93251" lon="8.69076">
        <ele>1769</ele>
        <time>2021-08-07T06:54:42.596Z</time>
      </trkpt>
      <trkpt lat="46.9325" lon="8.69076">
        <ele>1768</ele>
        <time>2021-08-07T06:54:43.595Z</time>
      </trkpt>
      <trkpt lat="46.93249" lon="8.69077">
        <ele>1768</ele>
        <time>2021-08-07T06:54:44.596Z</time>
      </trkpt>
      <trkpt lat="46.93248" lon="8.69077">
        <ele>1767</ele>
        <time>2021-08-07T06:54:45.595Z</time>
      </trkpt>
      <trkpt lat="46.93247" lon="8.69077">
        <ele>1766</ele>
        <time>2021-08-07T06:54:46.595Z</time>
      </trkpt>
      <trkpt lat="46.93246" lon="8.69077">
        <ele>1765</ele>
        <time>2021-08-07T06:54:47.596Z</time>
      </trkpt>
      <trkpt lat="46.93245" lon="8.69077">
        <ele>1765</ele>
        <time>2021-08-07T06:54:48.595Z</time>
      </trkpt>
      <trkpt lat="46.93244" lon="8.69078">
        <ele>1765</ele>
        <time>2021-08-07T06:54:49.596Z</time>
      </trkpt>
      <trkpt lat="46.93243" lon="8.69078">
        <ele>1765</ele>
        <time>2021-08-07T06:54:50.596Z</time>
      </trkpt>
      <trkpt lat="46.93242" lon="8.69079">
        <ele>1765</ele>
        <time>2021-08-07T06:54:51.596Z</time>
      </trkpt>
      <trkpt lat="46.93242" lon="8.69079">
        <ele>1764</ele>
        <time>2021-08-07T06:54:52.596Z</time>
      </trkpt>
      <trkpt lat="46.93241" lon="8.6908">
        <ele>1764</ele>
        <time>2021-08-07T06:54:53.595Z</time>
      </trkpt>
      <trkpt lat="46.9324" lon="8.6908">
        <ele>1763</ele>
        <time>2021-08-07T06:54:54.595Z</time>
      </trkpt>
      <trkpt lat="46.93239" lon="8.69081">
        <ele>1763</ele>
        <time>2021-08-07T06:54:55.595Z</time>
      </trkpt>
      <trkpt lat="46.93239" lon="8.69081">
        <ele>1763</ele>
        <time>2021-08-07T06:54:56.596Z</time>
      </trkpt>
      <trkpt lat="46.93238" lon="8.69081">
        <ele>1762</ele>
        <time>2021-08-07T06:54:57.596Z</time>
      </trkpt>
      <trkpt lat="46.93237" lon="8.6908">
        <ele>1762</ele>
        <time>2021-08-07T06:54:58.596Z</time>
      </trkpt>
      <trkpt lat="46.93237" lon="8.6908">
        <ele>1762</ele>
        <time>2021-08-07T06:54:59.595Z</time>
      </trkpt>
      <trkpt lat="46.93236" lon="8.69079">
        <ele>1762</ele>
        <time>2021-08-07T06:55:00.595Z</time>
      </trkpt>
      <trkpt lat="46.93235" lon="8.69079">
        <ele>1762</ele>
        <time>2021-08-07T06:55:01.595Z</time>
      </trkpt>
      <trkpt lat="46.93235" lon="8.69079">
        <ele>1761</ele>
        <time>2021-08-07T06:55:02.596Z</time>
      </trkpt>
      <trkpt lat="46.93234" lon="8.6908">
        <ele>1761</ele>
        <time>2021-08-07T06:55:03.596Z</time>
      </trkpt>
      <trkpt lat="46.93233" lon="8.6908">
        <ele>1761</ele>
        <time>2021-08-07T06:55:04.595Z</time>
      </trkpt>
      <trkpt lat="46.93233" lon="8.6908">
        <ele>1762</ele>
        <time>2021-08-07T06:55:05.596Z</time>
      </trkpt>
      <trkpt lat="46.93232" lon="8.6908">
        <ele>1762</ele>
        <time>2021-08-07T06:55:06.596Z</time>
      </trkpt>
      <trkpt lat="46.93231" lon="8.69079">
        <ele>1762</ele>
        <time>2021-08-07T06:55:07.596Z</time>
      </trkpt>
      <trkpt lat="46.9323" lon="8.69078">
        <ele>1763</ele>
        <time>2021-08-07T06:55:08.596Z</time>
      </trkpt>
      <trkpt lat="46.9323" lon="8.69077">
        <ele>1763</ele>
        <time>2021-08-07T06:55:09.596Z</time>
      </trkpt>
      <trkpt lat="46.93229" lon="8.69077">
        <ele>1763</ele>
        <time>2021-08-07T06:55:10.596Z</time>
      </trkpt>
      <trkpt lat="46.93229" lon="8.69077">
        <ele>1763</ele>
        <time>2021-08-07T06:55:11.596Z</time>
      </trkpt>
      <trkpt lat="46.93228" lon="8.69077">
        <ele>1763</ele>
        <time>2021-08-07T06:55:12.595Z</time>
      </trkpt>
      <trkpt lat="46.93227" lon="8.69078">
        <ele>1763</ele>
        <time>2021-08-07T06:55:13.596Z</time>
      </trkpt>
      <trkpt lat="46.93227" lon="8.69078">
        <ele>1763</ele>
        <time>2021-08-07T06:55:14.596Z</time>
      </trkpt>
      <trkpt lat="46.93227" lon="8.69078">
        <ele>1763</ele>
        <time>2021-08-07T06:55:15.595Z</time>
      </trkpt>
      <trkpt lat="46.93227" lon="8.69078">
        <ele>1762</ele>
        <time>2021-08-07T06:55:16.596Z</time>
      </trkpt>
      <trkpt lat="46.93226" lon="8.69077">
        <ele>1762</ele>
        <time>2021-08-07T06:55:17.597Z</time>
      </trkpt>
      <trkpt lat="46.93226" lon="8.69077">
        <ele>1762</ele>
        <time>2021-08-07T06:55:18.596Z</time>
      </trkpt>
      <trkpt lat="46.93226" lon="8.69076">
        <ele>1762</ele>
        <time>2021-08-07T06:55:19.597Z</time>
      </trkpt>
      <trkpt lat="46.93227" lon="8.69076">
        <ele>1762</ele>
        <time>2021-08-07T06:55:20.596Z</time>
      </trkpt>
      <trkpt lat="46.93227" lon="8.69075">
        <ele>1762</ele>
        <time>2021-08-07T06:55:21.596Z</time>
      </trkpt>
      <trkpt lat="46.93225" lon="8.69075">
        <ele>1762</ele>
        <time>2021-08-07T06:55:22.599Z</time>
      </trkpt>
      <trkpt lat="46.93225" lon="8.69076">
        <ele>1762</ele>
        <time>2021-08-07T06:55:23.599Z</time>
      </trkpt>
      <trkpt lat="46.93225" lon="8.69078">
        <ele>1762</ele>
        <time>2021-08-07T06:55:24.598Z</time>
      </trkpt>
      <trkpt lat="46.93226" lon="8.69079">
        <ele>1761</ele>
        <time>2021-08-07T06:55:25.599Z</time>
      </trkpt>
      <trkpt lat="46.93226" lon="8.6908">
        <ele>1761</ele>
        <time>2021-08-07T06:55:26.598Z</time>
      </trkpt>
      <trkpt lat="46.93227" lon="8.6908">
        <ele>1761</ele>
        <time>2021-08-07T06:55:27.598Z</time>
      </trkpt>
      <trkpt lat="46.93227" lon="8.69081">
        <ele>1760</ele>
        <time>2021-08-07T06:55:28.599Z</time>
      </trkpt>
      <trkpt lat="46.93227" lon="8.6908">
        <ele>1760</ele>
        <time>2021-08-07T06:55:29.599Z</time>
      </trkpt>
      <trkpt lat="46.93226" lon="8.6908">
        <ele>1759</ele>
        <time>2021-08-07T06:55:30.599Z</time>
      </trkpt>
      <trkpt lat="46.93225" lon="8.6908">
        <ele>1759</ele>
        <time>2021-08-07T06:55:31.599Z</time>
      </trkpt>
      <trkpt lat="46.93224" lon="8.6908">
        <ele>1759</ele>
        <time>2021-08-07T06:55:32.598Z</time>
      </trkpt>
      <trkpt lat="46.93223" lon="8.69082">
        <ele>1759</ele>
        <time>2021-08-07T06:55:33.599Z</time>
      </trkpt>
      <trkpt lat="46.93223" lon="8.69084">
        <ele>1759</ele>
        <time>2021-08-07T06:55:34.598Z</time>
      </trkpt>
      <trkpt lat="46.93222" lon="8.69084">
        <ele>1759</ele>
        <time>2021-08-07T06:55:35.598Z</time>
      </trkpt>
      <trkpt lat="46.93221" lon="8.69085">
        <ele>1759</ele>
        <time>2021-08-07T06:55:36.599Z</time>
      </trkpt>
      <trkpt lat="46.9322" lon="8.69084">
        <ele>1759</ele>
        <time>2021-08-07T06:55:37.599Z</time>
      </trkpt>
      <trkpt lat="46.93219" lon="8.69084">
        <ele>1760</ele>
        <time>2021-08-07T06:55:38.599Z</time>
      </trkpt>
      <trkpt lat="46.93218" lon="8.69083">
        <ele>1760</ele>
        <time>2021-08-07T06:55:39.599Z</time>
      </trkpt>
      <trkpt lat="46.93216" lon="8.69082">
        <ele>1761</ele>
        <time>2021-08-07T06:55:40.599Z</time>
      </trkpt>
      <trkpt lat="46.93215" lon="8.69082">
        <ele>1762</ele>
        <time>2021-08-07T06:55:41.599Z</time>
      </trkpt>
      <trkpt lat="46.93214" lon="8.69081">
        <ele>1763</ele>
        <time>2021-08-07T06:55:42.599Z</time>
      </trkpt>
      <trkpt lat="46.93213" lon="8.69081">
        <ele>1764</ele>
        <time>2021-08-07T06:55:43.599Z</time>
      </trkpt>
      <trkpt lat="46.93211" lon="8.69081">
        <ele>1764</ele>
        <time>2021-08-07T06:55:44.599Z</time>
      </trkpt>
      <trkpt lat="46.93211" lon="8.69081">
        <ele>1764</ele>
        <time>2021-08-07T06:55:45.598Z</time>
      </trkpt>
      <trkpt lat="46.93211" lon="8.69084">
        <ele>1764</ele>
        <time>2021-08-07T06:55:46.598Z</time>
      </trkpt>
      <trkpt lat="46.93211" lon="8.69087">
        <ele>1763</ele>
        <time>2021-08-07T06:55:47.599Z</time>
      </trkpt>
      <trkpt lat="46.93211" lon="8.69087">
        <ele>1762</ele>
        <time>2021-08-07T06:55:48.599Z</time>
      </trkpt>
      <trkpt lat="46.9321" lon="8.69086">
        <ele>1761</ele>
        <time>2021-08-07T06:55:49.598Z</time>
      </trkpt>
      <trkpt lat="46.9321" lon="8.69086">
        <ele>1761</ele>
        <time>2021-08-07T06:55:50.599Z</time>
      </trkpt>
      <trkpt lat="46.93209" lon="8.69085">
        <ele>1760</ele>
        <time>2021-08-07T06:55:51.599Z</time>
      </trkpt>
      <trkpt lat="46.93209" lon="8.69084">
        <ele>1759</ele>
        <time>2021-08-07T06:55:52.599Z</time>
      </trkpt>
      <trkpt lat="46.93208" lon="8.69083">
        <ele>1759</ele>
        <time>2021-08-07T06:55:53.598Z</time>
      </trkpt>
      <trkpt lat="46.93207" lon="8.69082">
        <ele>1759</ele>
        <time>2021-08-07T06:55:54.599Z</time>
      </trkpt>
      <trkpt lat="46.93206" lon="8.69081">
        <ele>1759</ele>
        <time>2021-08-07T06:55:55.599Z</time>
      </trkpt>
      <trkpt lat="46.93206" lon="8.6908">
        <ele>1760</ele>
        <time>2021-08-07T06:55:56.599Z</time>
      </trkpt>
      <trkpt lat="46.93205" lon="8.69079">
        <ele>1761</ele>
        <time>2021-08-07T06:55:57.599Z</time>
      </trkpt>
      <trkpt lat="46.93204" lon="8.69077">
        <ele>1761</ele>
        <time>2021-08-07T06:55:58.599Z</time>
      </trkpt>
      <trkpt lat="46.93203" lon="8.69076">
        <ele>1762</ele>
        <time>2021-08-07T06:55:59.599Z</time>
      </trkpt>
      <trkpt lat="46.93202" lon="8.69075">
        <ele>1762</ele>
        <time>2021-08-07T06:56:00.599Z</time>
      </trkpt>
      <trkpt lat="46.93202" lon="8.69073">
        <ele>1762</ele>
        <time>2021-08-07T06:56:01.599Z</time>
      </trkpt>
      <trkpt lat="46.93201" lon="8.69072">
        <ele>1763</ele>
        <time>2021-08-07T06:56:02.598Z</time>
      </trkpt>
      <trkpt lat="46.932" lon="8.69071">
        <ele>1763</ele>
        <time>2021-08-07T06:56:03.598Z</time>
      </trkpt>
      <trkpt lat="46.93199" lon="8.69069">
        <ele>1763</ele>
        <time>2021-08-07T06:56:04.599Z</time>
      </trkpt>
      <trkpt lat="46.93199" lon="8.69068">
        <ele>1763</ele>
        <time>2021-08-07T06:56:05.599Z</time>
      </trkpt>
      <trkpt lat="46.93198" lon="8.69067">
        <ele>1763</ele>
        <time>2021-08-07T06:56:06.598Z</time>
      </trkpt>
      <trkpt lat="46.93198" lon="8.69066">
        <ele>1764</ele>
        <time>2021-08-07T06:56:07.599Z</time>
      </trkpt>
      <trkpt lat="46.93197" lon="8.69065">
        <ele>1764</ele>
        <time>2021-08-07T06:56:08.599Z</time>
      </trkpt>
      <trkpt lat="46.93197" lon="8.69064">
        <ele>1764</ele>
        <time>2021-08-07T06:56:09.599Z</time>
      </trkpt>
      <trkpt lat="46.93196" lon="8.69064">
        <ele>1764</ele>
        <time>2021-08-07T06:56:10.599Z</time>
      </trkpt>
      <trkpt lat="46.93195" lon="8.69063">
        <ele>1764</ele>
        <time>2021-08-07T06:56:11.599Z</time>
      </trkpt>
      <trkpt lat="46.93194" lon="8.69063">
        <ele>1764</ele>
        <time>2021-08-07T06:56:12.599Z</time>
      </trkpt>
      <trkpt lat="46.93194" lon="8.69063">
        <ele>1765</ele>
        <time>2021-08-07T06:56:13.599Z</time>
      </trkpt>
      <trkpt lat="46.93193" lon="8.69062">
        <ele>1765</ele>
        <time>2021-08-07T06:56:14.599Z</time>
      </trkpt>
      <trkpt lat="46.93193" lon="8.69062">
        <ele>1765</ele>
        <time>2021-08-07T06:56:15.598Z</time>
      </trkpt>
      <trkpt lat="46.93192" lon="8.69061">
        <ele>1766</ele>
        <time>2021-08-07T06:56:16.599Z</time>
      </trkpt>
      <trkpt lat="46.93191" lon="8.69061">
        <ele>1766</ele>
        <time>2021-08-07T06:56:17.598Z</time>
      </trkpt>
      <trkpt lat="46.93191" lon="8.6906">
        <ele>1766</ele>
        <time>2021-08-07T06:56:18.598Z</time>
      </trkpt>
      <trkpt lat="46.9319" lon="8.69059">
        <ele>1766</ele>
        <time>2021-08-07T06:56:19.599Z</time>
      </trkpt>
      <trkpt lat="46.9319" lon="8.69059">
        <ele>1766</ele>
        <time>2021-08-07T06:56:20.599Z</time>
      </trkpt>
      <trkpt lat="46.9319" lon="8.69058">
        <ele>1766</ele>
        <time>2021-08-07T06:56:21.599Z</time>
      </trkpt>
      <trkpt lat="46.9319" lon="8.69058">
        <ele>1766</ele>
        <time>2021-08-07T06:56:22.599Z</time>
      </trkpt>
      <trkpt lat="46.93189" lon="8.69057">
        <ele>1765</ele>
        <time>2021-08-07T06:56:23.599Z</time>
      </trkpt>
      <trkpt lat="46.93188" lon="8.69056">
        <ele>1765</ele>
        <time>2021-08-07T06:56:24.599Z</time>
      </trkpt>
      <trkpt lat="46.93187" lon="8.69055">
        <ele>1765</ele>
        <time>2021-08-07T06:56:25.599Z</time>
      </trkpt>
      <trkpt lat="46.93187" lon="8.69054">
        <ele>1765</ele>
        <time>2021-08-07T06:56:26.598Z</time>
      </trkpt>
      <trkpt lat="46.93186" lon="8.69053">
        <ele>1764</ele>
        <time>2021-08-07T06:56:27.599Z</time>
      </trkpt>
      <trkpt lat="46.93185" lon="8.69052">
        <ele>1764</ele>
        <time>2021-08-07T06:56:28.598Z</time>
      </trkpt>
      <trkpt lat="46.93184" lon="8.69051">
        <ele>1765</ele>
        <time>2021-08-07T06:56:29.599Z</time>
      </trkpt>
      <trkpt lat="46.93183" lon="8.6905">
        <ele>1765</ele>
        <time>2021-08-07T06:56:30.599Z</time>
      </trkpt>
      <trkpt lat="46.93183" lon="8.6905">
        <ele>1766</ele>
        <time>2021-08-07T06:56:31.598Z</time>
      </trkpt>
      <trkpt lat="46.93182" lon="8.6905">
        <ele>1766</ele>
        <time>2021-08-07T06:56:32.598Z</time>
      </trkpt>
      <trkpt lat="46.93182" lon="8.69049">
        <ele>1767</ele>
        <time>2021-08-07T06:56:33.599Z</time>
      </trkpt>
      <trkpt lat="46.93181" lon="8.69048">
        <ele>1767</ele>
        <time>2021-08-07T06:56:34.598Z</time>
      </trkpt>
      <trkpt lat="46.9318" lon="8.69048">
        <ele>1767</ele>
        <time>2021-08-07T06:56:35.599Z</time>
      </trkpt>
      <trkpt lat="46.93179" lon="8.69047">
        <ele>1768</ele>
        <time>2021-08-07T06:56:36.598Z</time>
      </trkpt>
      <trkpt lat="46.93178" lon="8.69046">
        <ele>1768</ele>
        <time>2021-08-07T06:56:37.599Z</time>
      </trkpt>
      <trkpt lat="46.93178" lon="8.69046">
        <ele>1769</ele>
        <time>2021-08-07T06:56:38.598Z</time>
      </trkpt>
      <trkpt lat="46.93177" lon="8.69046">
        <ele>1769</ele>
        <time>2021-08-07T06:56:39.599Z</time>
      </trkpt>
      <trkpt lat="46.93176" lon="8.69046">
        <ele>1769</ele>
        <time>2021-08-07T06:56:40.598Z</time>
      </trkpt>
      <trkpt lat="46.93176" lon="8.69046">
        <ele>1769</ele>
        <time>2021-08-07T06:56:41.599Z</time>
      </trkpt>
      <trkpt lat="46.93175" lon="8.69045">
        <ele>1770</ele>
        <time>2021-08-07T06:56:42.599Z</time>
      </trkpt>
      <trkpt lat="46.93175" lon="8.69045">
        <ele>1770</ele>
        <time>2021-08-07T06:56:43.599Z</time>
      </trkpt>
      <trkpt lat="46.93174" lon="8.69045">
        <ele>1770</ele>
        <time>2021-08-07T06:56:44.599Z</time>
      </trkpt>
      <trkpt lat="46.93174" lon="8.69045">
        <ele>1770</ele>
        <time>2021-08-07T06:56:45.599Z</time>
      </trkpt>
      <trkpt lat="46.93173" lon="8.69044">
        <ele>1771</ele>
        <time>2021-08-07T06:56:46.599Z</time>
      </trkpt>
      <trkpt lat="46.93172" lon="8.69044">
        <ele>1771</ele>
        <time>2021-08-07T06:56:47.599Z</time>
      </trkpt>
      <trkpt lat="46.93171" lon="8.69044">
        <ele>1771</ele>
        <time>2021-08-07T06:56:48.598Z</time>
      </trkpt>
      <trkpt lat="46.93171" lon="8.69044">
        <ele>1771</ele>
        <time>2021-08-07T06:56:49.599Z</time>
      </trkpt>
      <trkpt lat="46.93171" lon="8.69043">
        <ele>1771</ele>
        <time>2021-08-07T06:56:50.599Z</time>
      </trkpt>
      <trkpt lat="46.9317" lon="8.69043">
        <ele>1772</ele>
        <time>2021-08-07T06:56:51.598Z</time>
      </trkpt>
      <trkpt lat="46.9317" lon="8.69043">
        <ele>1772</ele>
        <time>2021-08-07T06:56:52.599Z</time>
      </trkpt>
      <trkpt lat="46.93169" lon="8.69043">
        <ele>1772</ele>
        <time>2021-08-07T06:56:53.598Z</time>
      </trkpt>
      <trkpt lat="46.93169" lon="8.69043">
        <ele>1772</ele>
        <time>2021-08-07T06:56:54.599Z</time>
      </trkpt>
      <trkpt lat="46.93168" lon="8.69043">
        <ele>1772</ele>
        <time>2021-08-07T06:56:55.599Z</time>
      </trkpt>
      <trkpt lat="46.93168" lon="8.69044">
        <ele>1772</ele>
        <time>2021-08-07T06:56:56.598Z</time>
      </trkpt>
      <trkpt lat="46.93167" lon="8.69044">
        <ele>1772</ele>
        <time>2021-08-07T06:56:57.598Z</time>
      </trkpt>
      <trkpt lat="46.93167" lon="8.69045">
        <ele>1771</ele>
        <time>2021-08-07T06:56:58.599Z</time>
      </trkpt>
      <trkpt lat="46.93167" lon="8.69045">
        <ele>1771</ele>
        <time>2021-08-07T06:56:59.599Z</time>
      </trkpt>
      <trkpt lat="46.93167" lon="8.69046">
        <ele>1770</ele>
        <time>2021-08-07T06:57:00.599Z</time>
      </trkpt>
      <trkpt lat="46.93166" lon="8.69046">
        <ele>1770</ele>
        <time>2021-08-07T06:57:01.599Z</time>
      </trkpt>
      <trkpt lat="46.93166" lon="8.69046">
        <ele>1770</ele>
        <time>2021-08-07T06:57:02.599Z</time>
      </trkpt>
      <trkpt lat="46.93165" lon="8.69047">
        <ele>1770</ele>
        <time>2021-08-07T06:57:03.599Z</time>
      </trkpt>
      <trkpt lat="46.93165" lon="8.69047">
        <ele>1770</ele>
        <time>2021-08-07T06:57:04.598Z</time>
      </trkpt>
      <trkpt lat="46.93164" lon="8.69047">
        <ele>1770</ele>
        <time>2021-08-07T06:57:05.599Z</time>
      </trkpt>
      <trkpt lat="46.93163" lon="8.69047">
        <ele>1770</ele>
        <time>2021-08-07T06:57:06.599Z</time>
      </trkpt>
      <trkpt lat="46.93163" lon="8.69047">
        <ele>1770</ele>
        <time>2021-08-07T06:57:07.598Z</time>
      </trkpt>
      <trkpt lat="46.93164" lon="8.69047">
        <ele>1769</ele>
        <time>2021-08-07T06:57:08.599Z</time>
      </trkpt>
      <trkpt lat="46.93164" lon="8.69048">
        <ele>1769</ele>
        <time>2021-08-07T06:57:09.598Z</time>
      </trkpt>
      <trkpt lat="46.93164" lon="8.69047">
        <ele>1769</ele>
        <time>2021-08-07T06:57:10.599Z</time>
      </trkpt>
      <trkpt lat="46.93165" lon="8.69047">
        <ele>1769</ele>
        <time>2021-08-07T06:57:11.598Z</time>
      </trkpt>
      <trkpt lat="46.93164" lon="8.69046">
        <ele>1770</ele>
        <time>2021-08-07T06:57:12.598Z</time>
      </trkpt>
      <trkpt lat="46.93164" lon="8.69046">
        <ele>1770</ele>
        <time>2021-08-07T06:57:13.599Z</time>
      </trkpt>
      <trkpt lat="46.93163" lon="8.69046">
        <ele>1769</ele>
        <time>2021-08-07T06:57:14.598Z</time>
      </trkpt>
      <trkpt lat="46.93162" lon="8.69046">
        <ele>1769</ele>
        <time>2021-08-07T06:57:15.599Z</time>
      </trkpt>
      <trkpt lat="46.93162" lon="8.69046">
        <ele>1769</ele>
        <time>2021-08-07T06:57:16.599Z</time>
      </trkpt>
      <trkpt lat="46.93161" lon="8.69047">
        <ele>1769</ele>
        <time>2021-08-07T06:57:17.599Z</time>
      </trkpt>
      <trkpt lat="46.9316" lon="8.69048">
        <ele>1769</ele>
        <time>2021-08-07T06:57:18.599Z</time>
      </trkpt>
      <trkpt lat="46.9316" lon="8.69048">
        <ele>1769</ele>
        <time>2021-08-07T06:57:19.599Z</time>
      </trkpt>
      <trkpt lat="46.9316" lon="8.69048">
        <ele>1771</ele>
        <time>2021-08-07T06:57:20.600Z</time>
      </trkpt>
      <trkpt lat="46.93159" lon="8.69048">
        <ele>1772</ele>
        <time>2021-08-07T06:57:21.601Z</time>
      </trkpt>
      <trkpt lat="46.93158" lon="8.69048">
        <ele>1772</ele>
        <time>2021-08-07T06:57:22.600Z</time>
      </trkpt>
      <trkpt lat="46.93158" lon="8.69047">
        <ele>1773</ele>
        <time>2021-08-07T06:57:23.600Z</time>
      </trkpt>
      <trkpt lat="46.93159" lon="8.69047">
        <ele>1773</ele>
        <time>2021-08-07T06:57:24.600Z</time>
      </trkpt>
      <trkpt lat="46.93159" lon="8.69046">
        <ele>1774</ele>
        <time>2021-08-07T06:57:25.601Z</time>
      </trkpt>
      <trkpt lat="46.93159" lon="8.69045">
        <ele>1774</ele>
        <time>2021-08-07T06:57:26.601Z</time>
      </trkpt>
      <trkpt lat="46.93159" lon="8.69045">
        <ele>1774</ele>
        <time>2021-08-07T06:57:27.601Z</time>
      </trkpt>
      <trkpt lat="46.9316" lon="8.69045">
        <ele>1774</ele>
        <time>2021-08-07T06:57:28.601Z</time>
      </trkpt>
      <trkpt lat="46.9316" lon="8.69044">
        <ele>1774</ele>
        <time>2021-08-07T06:57:29.601Z</time>
      </trkpt>
      <trkpt lat="46.9316" lon="8.69044">
        <ele>1774</ele>
        <time>2021-08-07T06:57:30.601Z</time>
      </trkpt>
      <trkpt lat="46.93161" lon="8.69043">
        <ele>1774</ele>
        <time>2021-08-07T06:57:31.600Z</time>
      </trkpt>
      <trkpt lat="46.93161" lon="8.69043">
        <ele>1774</ele>
        <time>2021-08-07T06:57:32.601Z</time>
      </trkpt>
      <trkpt lat="46.9316" lon="8.69042">
        <ele>1774</ele>
        <time>2021-08-07T06:57:33.601Z</time>
      </trkpt>
      <trkpt lat="46.9316" lon="8.69041">
        <ele>1774</ele>
        <time>2021-08-07T06:57:34.600Z</time>
      </trkpt>
      <trkpt lat="46.93159" lon="8.69039">
        <ele>1773</ele>
        <time>2021-08-07T06:57:35.601Z</time>
      </trkpt>
      <trkpt lat="46.93159" lon="8.69038">
        <ele>1773</ele>
        <time>2021-08-07T06:57:36.601Z</time>
      </trkpt>
      <trkpt lat="46.93159" lon="8.69036">
        <ele>1773</ele>
        <time>2021-08-07T06:57:37.601Z</time>
      </trkpt>
      <trkpt lat="46.93159" lon="8.69035">
        <ele>1773</ele>
        <time>2021-08-07T06:57:38.601Z</time>
      </trkpt>
      <trkpt lat="46.93159" lon="8.69035">
        <ele>1773</ele>
        <time>2021-08-07T06:57:39.600Z</time>
      </trkpt>
      <trkpt lat="46.93158" lon="8.69034">
        <ele>1773</ele>
        <time>2021-08-07T06:57:40.600Z</time>
      </trkpt>
      <trkpt lat="46.93158" lon="8.69034">
        <ele>1773</ele>
        <time>2021-08-07T06:57:41.601Z</time>
      </trkpt>
      <trkpt lat="46.93157" lon="8.69033">
        <ele>1773</ele>
        <time>2021-08-07T06:57:42.601Z</time>
      </trkpt>
      <trkpt lat="46.93157" lon="8.69032">
        <ele>1773</ele>
        <time>2021-08-07T06:57:43.601Z</time>
      </trkpt>
      <trkpt lat="46.93156" lon="8.69031">
        <ele>1773</ele>
        <time>2021-08-07T06:57:44.601Z</time>
      </trkpt>
      <trkpt lat="46.93156" lon="8.6903">
        <ele>1773</ele>
        <time>2021-08-07T06:57:45.601Z</time>
      </trkpt>
      <trkpt lat="46.93156" lon="8.69029">
        <ele>1773</ele>
        <time>2021-08-07T06:57:46.600Z</time>
      </trkpt>
      <trkpt lat="46.93156" lon="8.69028">
        <ele>1773</ele>
        <time>2021-08-07T06:57:47.600Z</time>
      </trkpt>
      <trkpt lat="46.93156" lon="8.69027">
        <ele>1773</ele>
        <time>2021-08-07T06:57:48.601Z</time>
      </trkpt>
      <trkpt lat="46.93155" lon="8.69026">
        <ele>1773</ele>
        <time>2021-08-07T06:57:49.601Z</time>
      </trkpt>
      <trkpt lat="46.93155" lon="8.69025">
        <ele>1773</ele>
        <time>2021-08-07T06:57:50.601Z</time>
      </trkpt>
      <trkpt lat="46.93154" lon="8.69024">
        <ele>1774</ele>
        <time>2021-08-07T06:57:51.600Z</time>
      </trkpt>
      <trkpt lat="46.93154" lon="8.69023">
        <ele>1774</ele>
        <time>2021-08-07T06:57:52.601Z</time>
      </trkpt>
      <trkpt lat="46.93153" lon="8.69022">
        <ele>1775</ele>
        <time>2021-08-07T06:57:53.601Z</time>
      </trkpt>
      <trkpt lat="46.93153" lon="8.69021">
        <ele>1776</ele>
        <time>2021-08-07T06:57:54.601Z</time>
      </trkpt>
      <trkpt lat="46.93152" lon="8.6902">
        <ele>1776</ele>
        <time>2021-08-07T06:57:55.600Z</time>
      </trkpt>
      <trkpt lat="46.93151" lon="8.69019">
        <ele>1777</ele>
        <time>2021-08-07T06:57:56.601Z</time>
      </trkpt>
      <trkpt lat="46.93151" lon="8.69018">
        <ele>1777</ele>
        <time>2021-08-07T06:57:57.601Z</time>
      </trkpt>
      <trkpt lat="46.9315" lon="8.69018">
        <ele>1777</ele>
        <time>2021-08-07T06:57:58.601Z</time>
      </trkpt>
      <trkpt lat="46.9315" lon="8.69017">
        <ele>1778</ele>
        <time>2021-08-07T06:57:59.601Z</time>
      </trkpt>
      <trkpt lat="46.9315" lon="8.69017">
        <ele>1778</ele>
        <time>2021-08-07T06:58:00.600Z</time>
      </trkpt>
      <trkpt lat="46.9315" lon="8.69016">
        <ele>1778</ele>
        <time>2021-08-07T06:58:01.601Z</time>
      </trkpt>
      <trkpt lat="46.93149" lon="8.69016">
        <ele>1778</ele>
        <time>2021-08-07T06:58:02.601Z</time>
      </trkpt>
      <trkpt lat="46.93149" lon="8.69016">
        <ele>1778</ele>
        <time>2021-08-07T06:58:03.601Z</time>
      </trkpt>
      <trkpt lat="46.93149" lon="8.69015">
        <ele>1778</ele>
        <time>2021-08-07T06:58:04.600Z</time>
      </trkpt>
      <trkpt lat="46.93148" lon="8.69015">
        <ele>1778</ele>
        <time>2021-08-07T06:58:05.601Z</time>
      </trkpt>
      <trkpt lat="46.93148" lon="8.69015">
        <ele>1778</ele>
        <time>2021-08-07T06:58:06.601Z</time>
      </trkpt>
      <trkpt lat="46.93147" lon="8.69014">
        <ele>1779</ele>
        <time>2021-08-07T06:58:07.600Z</time>
      </trkpt>
      <trkpt lat="46.93147" lon="8.69013">
        <ele>1779</ele>
        <time>2021-08-07T06:58:08.601Z</time>
      </trkpt>
      <trkpt lat="46.93146" lon="8.69013">
        <ele>1780</ele>
        <time>2021-08-07T06:58:09.600Z</time>
      </trkpt>
      <trkpt lat="46.93146" lon="8.69012">
        <ele>1780</ele>
        <time>2021-08-07T06:58:10.601Z</time>
      </trkpt>
      <trkpt lat="46.93145" lon="8.69012">
        <ele>1780</ele>
        <time>2021-08-07T06:58:11.601Z</time>
      </trkpt>
      <trkpt lat="46.93144" lon="8.69012">
        <ele>1780</ele>
        <time>2021-08-07T06:58:12.600Z</time>
      </trkpt>
      <trkpt lat="46.93143" lon="8.69012">
        <ele>1779</ele>
        <time>2021-08-07T06:58:13.601Z</time>
      </trkpt>
      <trkpt lat="46.93143" lon="8.69012">
        <ele>1779</ele>
        <time>2021-08-07T06:58:14.601Z</time>
      </trkpt>
      <trkpt lat="46.93142" lon="8.69013">
        <ele>1779</ele>
        <time>2021-08-07T06:58:15.601Z</time>
      </trkpt>
      <trkpt lat="46.93142" lon="8.69013">
        <ele>1779</ele>
        <time>2021-08-07T06:58:16.601Z</time>
      </trkpt>
      <trkpt lat="46.93141" lon="8.69014">
        <ele>1779</ele>
        <time>2021-08-07T06:58:17.601Z</time>
      </trkpt>
      <trkpt lat="46.9314" lon="8.69014">
        <ele>1779</ele>
        <time>2021-08-07T06:58:18.601Z</time>
      </trkpt>
      <trkpt lat="46.9314" lon="8.69015">
        <ele>1780</ele>
        <time>2021-08-07T06:58:19.601Z</time>
      </trkpt>
      <trkpt lat="46.93139" lon="8.69015">
        <ele>1780</ele>
        <time>2021-08-07T06:58:20.601Z</time>
      </trkpt>
      <trkpt lat="46.93139" lon="8.69016">
        <ele>1780</ele>
        <time>2021-08-07T06:58:21.600Z</time>
      </trkpt>
      <trkpt lat="46.93138" lon="8.69016">
        <ele>1779</ele>
        <time>2021-08-07T06:58:22.601Z</time>
      </trkpt>
      <trkpt lat="46.93137" lon="8.69017">
        <ele>1779</ele>
        <time>2021-08-07T06:58:23.601Z</time>
      </trkpt>
      <trkpt lat="46.93136" lon="8.69017">
        <ele>1779</ele>
        <time>2021-08-07T06:58:24.600Z</time>
      </trkpt>
      <trkpt lat="46.93136" lon="8.69017">
        <ele>1779</ele>
        <time>2021-08-07T06:58:25.601Z</time>
      </trkpt>
      <trkpt lat="46.93135" lon="8.69018">
        <ele>1779</ele>
        <time>2021-08-07T06:58:26.600Z</time>
      </trkpt>
      <trkpt lat="46.93134" lon="8.69018">
        <ele>1778</ele>
        <time>2021-08-07T06:58:27.600Z</time>
      </trkpt>
      <trkpt lat="46.93133" lon="8.69018">
        <ele>1779</ele>
        <time>2021-08-07T06:58:28.600Z</time>
      </trkpt>
      <trkpt lat="46.93132" lon="8.69018">
        <ele>1778</ele>
        <time>2021-08-07T06:58:29.601Z</time>
      </trkpt>
      <trkpt lat="46.93132" lon="8.69018">
        <ele>1778</ele>
        <time>2021-08-07T06:58:30.600Z</time>
      </trkpt>
      <trkpt lat="46.93131" lon="8.69018">
        <ele>1778</ele>
        <time>2021-08-07T06:58:31.601Z</time>
      </trkpt>
      <trkpt lat="46.9313" lon="8.69019">
        <ele>1777</ele>
        <time>2021-08-07T06:58:32.600Z</time>
      </trkpt>
      <trkpt lat="46.9313" lon="8.6902">
        <ele>1776</ele>
        <time>2021-08-07T06:58:33.601Z</time>
      </trkpt>
      <trkpt lat="46.93129" lon="8.6902">
        <ele>1776</ele>
        <time>2021-08-07T06:58:34.600Z</time>
      </trkpt>
      <trkpt lat="46.93129" lon="8.69022">
        <ele>1775</ele>
        <time>2021-08-07T06:58:35.601Z</time>
      </trkpt>
      <trkpt lat="46.93129" lon="8.69022">
        <ele>1774</ele>
        <time>2021-08-07T06:58:36.601Z</time>
      </trkpt>
      <trkpt lat="46.93128" lon="8.69022">
        <ele>1773</ele>
        <time>2021-08-07T06:58:37.601Z</time>
      </trkpt>
      <trkpt lat="46.93127" lon="8.69022">
        <ele>1773</ele>
        <time>2021-08-07T06:58:38.601Z</time>
      </trkpt>
      <trkpt lat="46.93127" lon="8.69021">
        <ele>1773</ele>
        <time>2021-08-07T06:58:39.601Z</time>
      </trkpt>
      <trkpt lat="46.93126" lon="8.69021">
        <ele>1773</ele>
        <time>2021-08-07T06:58:40.601Z</time>
      </trkpt>
      <trkpt lat="46.93126" lon="8.69022">
        <ele>1772</ele>
        <time>2021-08-07T06:58:41.601Z</time>
      </trkpt>
      <trkpt lat="46.93125" lon="8.69022">
        <ele>1772</ele>
        <time>2021-08-07T06:58:42.601Z</time>
      </trkpt>
      <trkpt lat="46.93124" lon="8.69022">
        <ele>1772</ele>
        <time>2021-08-07T06:58:43.601Z</time>
      </trkpt>
      <trkpt lat="46.93124" lon="8.69022">
        <ele>1773</ele>
        <time>2021-08-07T06:58:44.601Z</time>
      </trkpt>
      <trkpt lat="46.93124" lon="8.69022">
        <ele>1774</ele>
        <time>2021-08-07T06:58:45.601Z</time>
      </trkpt>
      <trkpt lat="46.93123" lon="8.69023">
        <ele>1774</ele>
        <time>2021-08-07T06:58:46.601Z</time>
      </trkpt>
      <trkpt lat="46.93123" lon="8.69023">
        <ele>1775</ele>
        <time>2021-08-07T06:58:47.601Z</time>
      </trkpt>
      <trkpt lat="46.93123" lon="8.69023">
        <ele>1776</ele>
        <time>2021-08-07T06:58:48.601Z</time>
      </trkpt>
      <trkpt lat="46.93122" lon="8.69023">
        <ele>1776</ele>
        <time>2021-08-07T06:58:49.601Z</time>
      </trkpt>
      <trkpt lat="46.93122" lon="8.69024">
        <ele>1776</ele>
        <time>2021-08-07T06:58:50.600Z</time>
      </trkpt>
      <trkpt lat="46.93121" lon="8.69024">
        <ele>1776</ele>
        <time>2021-08-07T06:58:51.601Z</time>
      </trkpt>
      <trkpt lat="46.93121" lon="8.69024">
        <ele>1777</ele>
        <time>2021-08-07T06:58:52.601Z</time>
      </trkpt>
      <trkpt lat="46.9312" lon="8.69024">
        <ele>1777</ele>
        <time>2021-08-07T06:58:53.601Z</time>
      </trkpt>
      <trkpt lat="46.93119" lon="8.69024">
        <ele>1777</ele>
        <time>2021-08-07T06:58:54.600Z</time>
      </trkpt>
      <trkpt lat="46.93118" lon="8.69024">
        <ele>1777</ele>
        <time>2021-08-07T06:58:55.601Z</time>
      </trkpt>
      <trkpt lat="46.93118" lon="8.69024">
        <ele>1777</ele>
        <time>2021-08-07T06:58:56.600Z</time>
      </trkpt>
      <trkpt lat="46.93117" lon="8.69024">
        <ele>1777</ele>
        <time>2021-08-07T06:58:57.600Z</time>
      </trkpt>
      <trkpt lat="46.93117" lon="8.69025">
        <ele>1776</ele>
        <time>2021-08-07T06:58:58.601Z</time>
      </trkpt>
      <trkpt lat="46.93117" lon="8.69026">
        <ele>1777</ele>
        <time>2021-08-07T06:58:59.600Z</time>
      </trkpt>
      <trkpt lat="46.93116" lon="8.69026">
        <ele>1777</ele>
        <time>2021-08-07T06:59:00.600Z</time>
      </trkpt>
      <trkpt lat="46.93116" lon="8.69026">
        <ele>1777</ele>
        <time>2021-08-07T06:59:01.600Z</time>
      </trkpt>
      <trkpt lat="46.93116" lon="8.69028">
        <ele>1778</ele>
        <time>2021-08-07T06:59:02.601Z</time>
      </trkpt>
      <trkpt lat="46.93115" lon="8.69028">
        <ele>1779</ele>
        <time>2021-08-07T06:59:03.601Z</time>
      </trkpt>
      <trkpt lat="46.93115" lon="8.69028">
        <ele>1780</ele>
        <time>2021-08-07T06:59:04.600Z</time>
      </trkpt>
      <trkpt lat="46.93115" lon="8.69028">
        <ele>1780</ele>
        <time>2021-08-07T06:59:05.600Z</time>
      </trkpt>
      <trkpt lat="46.93114" lon="8.69028">
        <ele>1783</ele>
        <time>2021-08-07T06:59:06.600Z</time>
      </trkpt>
      <trkpt lat="46.93115" lon="8.69028">
        <ele>1784</ele>
        <time>2021-08-07T06:59:07.600Z</time>
      </trkpt>
      <trkpt lat="46.93115" lon="8.69028">
        <ele>1784</ele>
        <time>2021-08-07T06:59:08.600Z</time>
      </trkpt>
      <trkpt lat="46.93115" lon="8.69029">
        <ele>1784</ele>
        <time>2021-08-07T06:59:09.601Z</time>
      </trkpt>
      <trkpt lat="46.93115" lon="8.69029">
        <ele>1784</ele>
        <time>2021-08-07T06:59:10.600Z</time>
      </trkpt>
      <trkpt lat="46.93113" lon="8.69028">
        <ele>1783</ele>
        <time>2021-08-07T06:59:11.602Z</time>
      </trkpt>
      <trkpt lat="46.93113" lon="8.69028">
        <ele>1783</ele>
        <time>2021-08-07T06:59:12.602Z</time>
      </trkpt>
      <trkpt lat="46.93114" lon="8.69029">
        <ele>1783</ele>
        <time>2021-08-07T06:59:13.601Z</time>
      </trkpt>
      <trkpt lat="46.93115" lon="8.6903">
        <ele>1783</ele>
        <time>2021-08-07T06:59:14.602Z</time>
      </trkpt>
      <trkpt lat="46.93115" lon="8.6903">
        <ele>1783</ele>
        <time>2021-08-07T06:59:15.601Z</time>
      </trkpt>
      <trkpt lat="46.93114" lon="8.6903">
        <ele>1782</ele>
        <time>2021-08-07T06:59:16.601Z</time>
      </trkpt>
      <trkpt lat="46.93113" lon="8.6903">
        <ele>1782</ele>
        <time>2021-08-07T06:59:17.602Z</time>
      </trkpt>
      <trkpt lat="46.93112" lon="8.6903">
        <ele>1782</ele>
        <time>2021-08-07T06:59:18.601Z</time>
      </trkpt>
      <trkpt lat="46.93111" lon="8.6903">
        <ele>1782</ele>
        <time>2021-08-07T06:59:19.602Z</time>
      </trkpt>
      <trkpt lat="46.9311" lon="8.6903">
        <ele>1782</ele>
        <time>2021-08-07T06:59:20.602Z</time>
      </trkpt>
      <trkpt lat="46.93109" lon="8.6903">
        <ele>1781</ele>
        <time>2021-08-07T06:59:21.601Z</time>
      </trkpt>
      <trkpt lat="46.93108" lon="8.6903">
        <ele>1781</ele>
        <time>2021-08-07T06:59:22.602Z</time>
      </trkpt>
      <trkpt lat="46.93107" lon="8.69031">
        <ele>1780</ele>
        <time>2021-08-07T06:59:23.602Z</time>
      </trkpt>
      <trkpt lat="46.93106" lon="8.69031">
        <ele>1780</ele>
        <time>2021-08-07T06:59:24.602Z</time>
      </trkpt>
      <trkpt lat="46.93106" lon="8.69032">
        <ele>1779</ele>
        <time>2021-08-07T06:59:25.602Z</time>
      </trkpt>
      <trkpt lat="46.93106" lon="8.69033">
        <ele>1779</ele>
        <time>2021-08-07T06:59:26.601Z</time>
      </trkpt>
      <trkpt lat="46.93105" lon="8.69034">
        <ele>1778</ele>
        <time>2021-08-07T06:59:27.602Z</time>
      </trkpt>
      <trkpt lat="46.93104" lon="8.69035">
        <ele>1777</ele>
        <time>2021-08-07T06:59:28.601Z</time>
      </trkpt>
      <trkpt lat="46.93103" lon="8.69036">
        <ele>1777</ele>
        <time>2021-08-07T06:59:29.601Z</time>
      </trkpt>
      <trkpt lat="46.93103" lon="8.69036">
        <ele>1776</ele>
        <time>2021-08-07T06:59:30.602Z</time>
      </trkpt>
      <trkpt lat="46.93102" lon="8.69036">
        <ele>1775</ele>
        <time>2021-08-07T06:59:31.602Z</time>
      </trkpt>
      <trkpt lat="46.93102" lon="8.69037">
        <ele>1774</ele>
        <time>2021-08-07T06:59:32.602Z</time>
      </trkpt>
      <trkpt lat="46.93101" lon="8.69038">
        <ele>1774</ele>
        <time>2021-08-07T06:59:33.601Z</time>
      </trkpt>
      <trkpt lat="46.93101" lon="8.69039">
        <ele>1774</ele>
        <time>2021-08-07T06:59:34.601Z</time>
      </trkpt>
      <trkpt lat="46.931" lon="8.69039">
        <ele>1774</ele>
        <time>2021-08-07T06:59:35.602Z</time>
      </trkpt>
      <trkpt lat="46.931" lon="8.6904">
        <ele>1774</ele>
        <time>2021-08-07T06:59:36.601Z</time>
      </trkpt>
      <trkpt lat="46.93099" lon="8.69041">
        <ele>1773</ele>
        <time>2021-08-07T06:59:37.602Z</time>
      </trkpt>
      <trkpt lat="46.93099" lon="8.69042">
        <ele>1773</ele>
        <time>2021-08-07T06:59:38.601Z</time>
      </trkpt>
      <trkpt lat="46.93099" lon="8.69043">
        <ele>1774</ele>
        <time>2021-08-07T06:59:39.601Z</time>
      </trkpt>
      <trkpt lat="46.93099" lon="8.69044">
        <ele>1774</ele>
        <time>2021-08-07T06:59:40.602Z</time>
      </trkpt>
      <trkpt lat="46.93098" lon="8.69044">
        <ele>1775</ele>
        <time>2021-08-07T06:59:41.602Z</time>
      </trkpt>
      <trkpt lat="46.93098" lon="8.69044">
        <ele>1776</ele>
        <time>2021-08-07T06:59:42.601Z</time>
      </trkpt>
      <trkpt lat="46.93098" lon="8.69045">
        <ele>1777</ele>
        <time>2021-08-07T06:59:43.602Z</time>
      </trkpt>
      <trkpt lat="46.93097" lon="8.69046">
        <ele>1778</ele>
        <time>2021-08-07T06:59:44.601Z</time>
      </trkpt>
      <trkpt lat="46.93096" lon="8.69046">
        <ele>1779</ele>
        <time>2021-08-07T06:59:45.602Z</time>
      </trkpt>
      <trkpt lat="46.93096" lon="8.69046">
        <ele>1780</ele>
        <time>2021-08-07T06:59:46.601Z</time>
      </trkpt>
      <trkpt lat="46.93095" lon="8.69047">
        <ele>1780</ele>
        <time>2021-08-07T06:59:47.602Z</time>
      </trkpt>
      <trkpt lat="46.93094" lon="8.69047">
        <ele>1781</ele>
        <time>2021-08-07T06:59:48.602Z</time>
      </trkpt>
      <trkpt lat="46.93093" lon="8.69047">
        <ele>1781</ele>
        <time>2021-08-07T06:59:49.601Z</time>
      </trkpt>
      <trkpt lat="46.93093" lon="8.69048">
        <ele>1782</ele>
        <time>2021-08-07T06:59:50.602Z</time>
      </trkpt>
      <trkpt lat="46.93092" lon="8.69049">
        <ele>1782</ele>
        <time>2021-08-07T06:59:51.602Z</time>
      </trkpt>
      <trkpt lat="46.93091" lon="8.69049">
        <ele>1782</ele>
        <time>2021-08-07T06:59:52.602Z</time>
      </trkpt>
      <trkpt lat="46.93091" lon="8.6905">
        <ele>1782</ele>
        <time>2021-08-07T06:59:53.602Z</time>
      </trkpt>
      <trkpt lat="46.9309" lon="8.69051">
        <ele>1782</ele>
        <time>2021-08-07T06:59:54.601Z</time>
      </trkpt>
      <trkpt lat="46.9309" lon="8.69052">
        <ele>1782</ele>
        <time>2021-08-07T06:59:55.602Z</time>
      </trkpt>
      <trkpt lat="46.9309" lon="8.69053">
        <ele>1781</ele>
        <time>2021-08-07T06:59:56.602Z</time>
      </trkpt>
      <trkpt lat="46.93089" lon="8.69054">
        <ele>1781</ele>
        <time>2021-08-07T06:59:57.602Z</time>
      </trkpt>
      <trkpt lat="46.93088" lon="8.69054">
        <ele>1782</ele>
        <time>2021-08-07T06:59:58.601Z</time>
      </trkpt>
      <trkpt lat="46.93087" lon="8.69054">
        <ele>1783</ele>
        <time>2021-08-07T06:59:59.601Z</time>
      </trkpt>
      <trkpt lat="46.93085" lon="8.69054">
        <ele>1785</ele>
        <time>2021-08-07T07:00:00.601Z</time>
      </trkpt>
      <trkpt lat="46.93085" lon="8.69055">
        <ele>1786</ele>
        <time>2021-08-07T07:00:01.602Z</time>
      </trkpt>
      <trkpt lat="46.93084" lon="8.69055">
        <ele>1788</ele>
        <time>2021-08-07T07:00:02.602Z</time>
      </trkpt>
      <trkpt lat="46.93083" lon="8.69056">
        <ele>1789</ele>
        <time>2021-08-07T07:00:03.602Z</time>
      </trkpt>
      <trkpt lat="46.93082" lon="8.69057">
        <ele>1790</ele>
        <time>2021-08-07T07:00:04.602Z</time>
      </trkpt>
      <trkpt lat="46.93082" lon="8.69057">
        <ele>1791</ele>
        <time>2021-08-07T07:00:05.602Z</time>
      </trkpt>
      <trkpt lat="46.93082" lon="8.69059">
        <ele>1791</ele>
        <time>2021-08-07T07:00:06.601Z</time>
      </trkpt>
      <trkpt lat="46.93084" lon="8.6906">
        <ele>1792</ele>
        <time>2021-08-07T07:00:07.602Z</time>
      </trkpt>
      <trkpt lat="46.93085" lon="8.69062">
        <ele>1792</ele>
        <time>2021-08-07T07:00:08.601Z</time>
      </trkpt>
      <trkpt lat="46.93086" lon="8.69063">
        <ele>1793</ele>
        <time>2021-08-07T07:00:09.602Z</time>
      </trkpt>
      <trkpt lat="46.93085" lon="8.69063">
        <ele>1793</ele>
        <time>2021-08-07T07:00:10.601Z</time>
      </trkpt>
      <trkpt lat="46.93085" lon="8.69064">
        <ele>1794</ele>
        <time>2021-08-07T07:00:11.602Z</time>
      </trkpt>
      <trkpt lat="46.93085" lon="8.69064">
        <ele>1797</ele>
        <time>2021-08-07T07:00:12.603Z</time>
      </trkpt>
      <trkpt lat="46.93085" lon="8.69064">
        <ele>1797</ele>
        <time>2021-08-07T07:00:13.603Z</time>
      </trkpt>
      <trkpt lat="46.93082" lon="8.69062">
        <ele>1798</ele>
        <time>2021-08-07T07:00:14.603Z</time>
      </trkpt>
      <trkpt lat="46.93081" lon="8.69062">
        <ele>1798</ele>
        <time>2021-08-07T07:00:15.603Z</time>
      </trkpt>
      <trkpt lat="46.93081" lon="8.69062">
        <ele>1798</ele>
        <time>2021-08-07T07:00:16.602Z</time>
      </trkpt>
      <trkpt lat="46.9308" lon="8.69062">
        <ele>1798</ele>
        <time>2021-08-07T07:00:17.602Z</time>
      </trkpt>
      <trkpt lat="46.9308" lon="8.69062">
        <ele>1798</ele>
        <time>2021-08-07T07:00:18.602Z</time>
      </trkpt>
      <trkpt lat="46.9308" lon="8.69062">
        <ele>1798</ele>
        <time>2021-08-07T07:00:19.603Z</time>
      </trkpt>
      <trkpt lat="46.9308" lon="8.69063">
        <ele>1798</ele>
        <time>2021-08-07T07:00:20.602Z</time>
      </trkpt>
      <trkpt lat="46.93079" lon="8.69063">
        <ele>1798</ele>
        <time>2021-08-07T07:00:21.603Z</time>
      </trkpt>
      <trkpt lat="46.93078" lon="8.69063">
        <ele>1798</ele>
        <time>2021-08-07T07:00:22.603Z</time>
      </trkpt>
      <trkpt lat="46.93077" lon="8.69063">
        <ele>1797</ele>
        <time>2021-08-07T07:00:23.603Z</time>
      </trkpt>
      <trkpt lat="46.93077" lon="8.69063">
        <ele>1797</ele>
        <time>2021-08-07T07:00:24.602Z</time>
      </trkpt>
      <trkpt lat="46.93077" lon="8.69064">
        <ele>1796</ele>
        <time>2021-08-07T07:00:25.602Z</time>
      </trkpt>
      <trkpt lat="46.93076" lon="8.69065">
        <ele>1796</ele>
        <time>2021-08-07T07:00:26.603Z</time>
      </trkpt>
      <trkpt lat="46.93076" lon="8.69066">
        <ele>1795</ele>
        <time>2021-08-07T07:00:27.603Z</time>
      </trkpt>
      <trkpt lat="46.93076" lon="8.69067">
        <ele>1795</ele>
        <time>2021-08-07T07:00:28.603Z</time>
      </trkpt>
      <trkpt lat="46.93075" lon="8.69067">
        <ele>1794</ele>
        <time>2021-08-07T07:00:29.603Z</time>
      </trkpt>
      <trkpt lat="46.93074" lon="8.69067">
        <ele>1794</ele>
        <time>2021-08-07T07:00:30.602Z</time>
      </trkpt>
      <trkpt lat="46.93073" lon="8.69067">
        <ele>1794</ele>
        <time>2021-08-07T07:00:31.603Z</time>
      </trkpt>
      <trkpt lat="46.93072" lon="8.69067">
        <ele>1794</ele>
        <time>2021-08-07T07:00:32.603Z</time>
      </trkpt>
      <trkpt lat="46.93071" lon="8.69068">
        <ele>1793</ele>
        <time>2021-08-07T07:00:33.603Z</time>
      </trkpt>
      <trkpt lat="46.93071" lon="8.69068">
        <ele>1793</ele>
        <time>2021-08-07T07:00:34.603Z</time>
      </trkpt>
      <trkpt lat="46.9307" lon="8.69069">
        <ele>1793</ele>
        <time>2021-08-07T07:00:35.603Z</time>
      </trkpt>
      <trkpt lat="46.9307" lon="8.6907">
        <ele>1792</ele>
        <time>2021-08-07T07:00:36.603Z</time>
      </trkpt>
      <trkpt lat="46.93069" lon="8.69071">
        <ele>1792</ele>
        <time>2021-08-07T07:00:37.603Z</time>
      </trkpt>
      <trkpt lat="46.93069" lon="8.69073">
        <ele>1791</ele>
        <time>2021-08-07T07:00:38.602Z</time>
      </trkpt>
      <trkpt lat="46.93068" lon="8.69074">
        <ele>1791</ele>
        <time>2021-08-07T07:00:39.603Z</time>
      </trkpt>
      <trkpt lat="46.93068" lon="8.69075">
        <ele>1791</ele>
        <time>2021-08-07T07:00:40.602Z</time>
      </trkpt>
      <trkpt lat="46.93067" lon="8.69075">
        <ele>1790</ele>
        <time>2021-08-07T07:00:41.603Z</time>
      </trkpt>
      <trkpt lat="46.93066" lon="8.69076">
        <ele>1790</ele>
        <time>2021-08-07T07:00:42.603Z</time>
      </trkpt>
      <trkpt lat="46.93065" lon="8.69076">
        <ele>1790</ele>
        <time>2021-08-07T07:00:43.602Z</time>
      </trkpt>
      <trkpt lat="46.93065" lon="8.69076">
        <ele>1791</ele>
        <time>2021-08-07T07:00:44.603Z</time>
      </trkpt>
      <trkpt lat="46.93064" lon="8.69076">
        <ele>1791</ele>
        <time>2021-08-07T07:00:45.602Z</time>
      </trkpt>
      <trkpt lat="46.93064" lon="8.69077">
        <ele>1791</ele>
        <time>2021-08-07T07:00:46.603Z</time>
      </trkpt>
      <trkpt lat="46.93064" lon="8.69078">
        <ele>1791</ele>
        <time>2021-08-07T07:00:47.603Z</time>
      </trkpt>
      <trkpt lat="46.93064" lon="8.69079">
        <ele>1791</ele>
        <time>2021-08-07T07:00:48.602Z</time>
      </trkpt>
      <trkpt lat="46.93063" lon="8.69079">
        <ele>1790</ele>
        <time>2021-08-07T07:00:49.602Z</time>
      </trkpt>
      <trkpt lat="46.93063" lon="8.6908">
        <ele>1790</ele>
        <time>2021-08-07T07:00:50.603Z</time>
      </trkpt>
      <trkpt lat="46.93062" lon="8.6908">
        <ele>1789</ele>
        <time>2021-08-07T07:00:51.602Z</time>
      </trkpt>
      <trkpt lat="46.93062" lon="8.69081">
        <ele>1789</ele>
        <time>2021-08-07T07:00:52.602Z</time>
      </trkpt>
      <trkpt lat="46.93061" lon="8.69081">
        <ele>1788</ele>
        <time>2021-08-07T07:00:53.603Z</time>
      </trkpt>
      <trkpt lat="46.9306" lon="8.69082">
        <ele>1788</ele>
        <time>2021-08-07T07:00:54.603Z</time>
      </trkpt>
      <trkpt lat="46.93059" lon="8.69082">
        <ele>1788</ele>
        <time>2021-08-07T07:00:55.603Z</time>
      </trkpt>
      <trkpt lat="46.93058" lon="8.69082">
        <ele>1788</ele>
        <time>2021-08-07T07:00:56.603Z</time>
      </trkpt>
      <trkpt lat="46.93057" lon="8.69082">
        <ele>1788</ele>
        <time>2021-08-07T07:00:57.603Z</time>
      </trkpt>
      <trkpt lat="46.93057" lon="8.69083">
        <ele>1788</ele>
        <time>2021-08-07T07:00:58.603Z</time>
      </trkpt>
      <trkpt lat="46.93056" lon="8.69082">
        <ele>1788</ele>
        <time>2021-08-07T07:00:59.603Z</time>
      </trkpt>
      <trkpt lat="46.93056" lon="8.69082">
        <ele>1788</ele>
        <time>2021-08-07T07:01:00.603Z</time>
      </trkpt>
      <trkpt lat="46.93056" lon="8.69082">
        <ele>1788</ele>
        <time>2021-08-07T07:01:01.603Z</time>
      </trkpt>
      <trkpt lat="46.93054" lon="8.6908">
        <ele>1787</ele>
        <time>2021-08-07T07:01:02.602Z</time>
      </trkpt>
      <trkpt lat="46.93053" lon="8.69079">
        <ele>1787</ele>
        <time>2021-08-07T07:01:03.603Z</time>
      </trkpt>
      <trkpt lat="46.93052" lon="8.69078">
        <ele>1787</ele>
        <time>2021-08-07T07:01:04.602Z</time>
      </trkpt>
      <trkpt lat="46.93051" lon="8.69077">
        <ele>1787</ele>
        <time>2021-08-07T07:01:05.603Z</time>
      </trkpt>
      <trkpt lat="46.93051" lon="8.69076">
        <ele>1788</ele>
        <time>2021-08-07T07:01:06.603Z</time>
      </trkpt>
      <trkpt lat="46.93051" lon="8.69075">
        <ele>1788</ele>
        <time>2021-08-07T07:01:07.603Z</time>
      </trkpt>
      <trkpt lat="46.9305" lon="8.69074">
        <ele>1789</ele>
        <time>2021-08-07T07:01:08.603Z</time>
      </trkpt>
      <trkpt lat="46.93049" lon="8.69072">
        <ele>1789</ele>
        <time>2021-08-07T07:01:09.602Z</time>
      </trkpt>
      <trkpt lat="46.93049" lon="8.69071">
        <ele>1789</ele>
        <time>2021-08-07T07:01:10.603Z</time>
      </trkpt>
      <trkpt lat="46.93048" lon="8.6907">
        <ele>1790</ele>
        <time>2021-08-07T07:01:11.603Z</time>
      </trkpt>
      <trkpt lat="46.93047" lon="8.69069">
        <ele>1790</ele>
        <time>2021-08-07T07:01:12.603Z</time>
      </trkpt>
      <trkpt lat="46.93045" lon="8.69069">
        <ele>1791</ele>
        <time>2021-08-07T07:01:13.603Z</time>
      </trkpt>
      <trkpt lat="46.93044" lon="8.69068">
        <ele>1791</ele>
        <time>2021-08-07T07:01:14.602Z</time>
      </trkpt>
      <trkpt lat="46.93043" lon="8.69067">
        <ele>1791</ele>
        <time>2021-08-07T07:01:15.603Z</time>
      </trkpt>
      <trkpt lat="46.93043" lon="8.69067">
        <ele>1792</ele>
        <time>2021-08-07T07:01:16.603Z</time>
      </trkpt>
      <trkpt lat="46.93042" lon="8.69067">
        <ele>1792</ele>
        <time>2021-08-07T07:01:17.603Z</time>
      </trkpt>
      <trkpt lat="46.9304" lon="8.69067">
        <ele>1792</ele>
        <time>2021-08-07T07:01:18.602Z</time>
      </trkpt>
      <trkpt lat="46.93039" lon="8.69068">
        <ele>1792</ele>
        <time>2021-08-07T07:01:19.603Z</time>
      </trkpt>
      <trkpt lat="46.93039" lon="8.69069">
        <ele>1792</ele>
        <time>2021-08-07T07:01:20.602Z</time>
      </trkpt>
      <trkpt lat="46.93039" lon="8.69071">
        <ele>1792</ele>
        <time>2021-08-07T07:01:21.603Z</time>
      </trkpt>
      <trkpt lat="46.93038" lon="8.69072">
        <ele>1792</ele>
        <time>2021-08-07T07:01:22.603Z</time>
      </trkpt>
      <trkpt lat="46.93036" lon="8.69073">
        <ele>1792</ele>
        <time>2021-08-07T07:01:23.602Z</time>
      </trkpt>
      <trkpt lat="46.93036" lon="8.69074">
        <ele>1792</ele>
        <time>2021-08-07T07:01:24.603Z</time>
      </trkpt>
      <trkpt lat="46.93035" lon="8.69075">
        <ele>1792</ele>
        <time>2021-08-07T07:01:25.602Z</time>
      </trkpt>
      <trkpt lat="46.93034" lon="8.69076">
        <ele>1792</ele>
        <time>2021-08-07T07:01:26.602Z</time>
      </trkpt>
      <trkpt lat="46.93034" lon="8.69077">
        <ele>1791</ele>
        <time>2021-08-07T07:01:27.603Z</time>
      </trkpt>
      <trkpt lat="46.93033" lon="8.69078">
        <ele>1791</ele>
        <time>2021-08-07T07:01:28.603Z</time>
      </trkpt>
      <trkpt lat="46.93032" lon="8.69079">
        <ele>1791</ele>
        <time>2021-08-07T07:01:29.602Z</time>
      </trkpt>
      <trkpt lat="46.93031" lon="8.69079">
        <ele>1791</ele>
        <time>2021-08-07T07:01:30.603Z</time>
      </trkpt>
      <trkpt lat="46.9303" lon="8.69079">
        <ele>1791</ele>
        <time>2021-08-07T07:01:31.603Z</time>
      </trkpt>
      <trkpt lat="46.93029" lon="8.69079">
        <ele>1791</ele>
        <time>2021-08-07T07:01:32.603Z</time>
      </trkpt>
      <trkpt lat="46.93028" lon="8.69079">
        <ele>1790</ele>
        <time>2021-08-07T07:01:33.603Z</time>
      </trkpt>
      <trkpt lat="46.93028" lon="8.69079">
        <ele>1790</ele>
        <time>2021-08-07T07:01:34.603Z</time>
      </trkpt>
      <trkpt lat="46.93028" lon="8.69079">
        <ele>1790</ele>
        <time>2021-08-07T07:01:35.602Z</time>
      </trkpt>
      <trkpt lat="46.93027" lon="8.6908">
        <ele>1790</ele>
        <time>2021-08-07T07:01:36.603Z</time>
      </trkpt>
      <trkpt lat="46.93027" lon="8.6908">
        <ele>1790</ele>
        <time>2021-08-07T07:01:37.603Z</time>
      </trkpt>
      <trkpt lat="46.93027" lon="8.6908">
        <ele>1790</ele>
        <time>2021-08-07T07:01:38.602Z</time>
      </trkpt>
      <trkpt lat="46.93027" lon="8.69081">
        <ele>1790</ele>
        <time>2021-08-07T07:01:39.603Z</time>
      </trkpt>
      <trkpt lat="46.93027" lon="8.69082">
        <ele>1790</ele>
        <time>2021-08-07T07:01:40.603Z</time>
      </trkpt>
      <trkpt lat="46.93027" lon="8.69082">
        <ele>1790</ele>
        <time>2021-08-07T07:01:41.603Z</time>
      </trkpt>
      <trkpt lat="46.93026" lon="8.69082">
        <ele>1790</ele>
        <time>2021-08-07T07:01:42.603Z</time>
      </trkpt>
      <trkpt lat="46.93025" lon="8.69082">
        <ele>1789</ele>
        <time>2021-08-07T07:01:43.602Z</time>
      </trkpt>
      <trkpt lat="46.93025" lon="8.69083">
        <ele>1789</ele>
        <time>2021-08-07T07:01:44.603Z</time>
      </trkpt>
      <trkpt lat="46.93024" lon="8.69083">
        <ele>1789</ele>
        <time>2021-08-07T07:01:45.603Z</time>
      </trkpt>
      <trkpt lat="46.93024" lon="8.69082">
        <ele>1788</ele>
        <time>2021-08-07T07:01:46.603Z</time>
      </trkpt>
      <trkpt lat="46.93025" lon="8.69081">
        <ele>1789</ele>
        <time>2021-08-07T07:01:47.603Z</time>
      </trkpt>
      <trkpt lat="46.93024" lon="8.69081">
        <ele>1789</ele>
        <time>2021-08-07T07:01:48.602Z</time>
      </trkpt>
      <trkpt lat="46.93024" lon="8.69081">
        <ele>1789</ele>
        <time>2021-08-07T07:01:49.602Z</time>
      </trkpt>
      <trkpt lat="46.93024" lon="8.69081">
        <ele>1789</ele>
        <time>2021-08-07T07:01:50.603Z</time>
      </trkpt>
      <trkpt lat="46.93023" lon="8.6908">
        <ele>1788</ele>
        <time>2021-08-07T07:01:51.604Z</time>
      </trkpt>
      <trkpt lat="46.93023" lon="8.6908">
        <ele>1787</ele>
        <time>2021-08-07T07:01:52.605Z</time>
      </trkpt>
      <trkpt lat="46.93022" lon="8.69079">
        <ele>1787</ele>
        <time>2021-08-07T07:01:53.604Z</time>
      </trkpt>
      <trkpt lat="46.93021" lon="8.69078">
        <ele>1787</ele>
        <time>2021-08-07T07:01:54.605Z</time>
      </trkpt>
      <trkpt lat="46.9302" lon="8.69077">
        <ele>1787</ele>
        <time>2021-08-07T07:01:55.605Z</time>
      </trkpt>
      <trkpt lat="46.93019" lon="8.69077">
        <ele>1787</ele>
        <time>2021-08-07T07:01:56.605Z</time>
      </trkpt>
      <trkpt lat="46.93018" lon="8.69077">
        <ele>1787</ele>
        <time>2021-08-07T07:01:57.604Z</time>
      </trkpt>
      <trkpt lat="46.93018" lon="8.69077">
        <ele>1787</ele>
        <time>2021-08-07T07:01:58.605Z</time>
      </trkpt>
      <trkpt lat="46.93016" lon="8.69076">
        <ele>1787</ele>
        <time>2021-08-07T07:01:59.605Z</time>
      </trkpt>
      <trkpt lat="46.93015" lon="8.69076">
        <ele>1787</ele>
        <time>2021-08-07T07:02:00.604Z</time>
      </trkpt>
      <trkpt lat="46.93014" lon="8.69076">
        <ele>1787</ele>
        <time>2021-08-07T07:02:01.605Z</time>
      </trkpt>
      <trkpt lat="46.93013" lon="8.69075">
        <ele>1787</ele>
        <time>2021-08-07T07:02:02.605Z</time>
      </trkpt>
      <trkpt lat="46.93012" lon="8.69075">
        <ele>1787</ele>
        <time>2021-08-07T07:02:03.604Z</time>
      </trkpt>
      <trkpt lat="46.93011" lon="8.69074">
        <ele>1788</ele>
        <time>2021-08-07T07:02:04.604Z</time>
      </trkpt>
      <trkpt lat="46.9301" lon="8.69073">
        <ele>1788</ele>
        <time>2021-08-07T07:02:05.605Z</time>
      </trkpt>
      <trkpt lat="46.93008" lon="8.69073">
        <ele>1788</ele>
        <time>2021-08-07T07:02:06.605Z</time>
      </trkpt>
      <trkpt lat="46.93007" lon="8.69072">
        <ele>1789</ele>
        <time>2021-08-07T07:02:07.605Z</time>
      </trkpt>
      <trkpt lat="46.93008" lon="8.69073">
        <ele>1788</ele>
        <time>2021-08-07T07:02:08.605Z</time>
      </trkpt>
      <trkpt lat="46.93006" lon="8.69072">
        <ele>1788</ele>
        <time>2021-08-07T07:02:09.605Z</time>
      </trkpt>
      <trkpt lat="46.93005" lon="8.69071">
        <ele>1788</ele>
        <time>2021-08-07T07:02:10.604Z</time>
      </trkpt>
      <trkpt lat="46.93004" lon="8.69071">
        <ele>1788</ele>
        <time>2021-08-07T07:02:11.605Z</time>
      </trkpt>
      <trkpt lat="46.93003" lon="8.69071">
        <ele>1788</ele>
        <time>2021-08-07T07:02:12.605Z</time>
      </trkpt>
      <trkpt lat="46.93002" lon="8.6907">
        <ele>1789</ele>
        <time>2021-08-07T07:02:13.605Z</time>
      </trkpt>
      <trkpt lat="46.93002" lon="8.6907">
        <ele>1789</ele>
        <time>2021-08-07T07:02:14.604Z</time>
      </trkpt>
      <trkpt lat="46.93002" lon="8.6907">
        <ele>1790</ele>
        <time>2021-08-07T07:02:15.605Z</time>
      </trkpt>
      <trkpt lat="46.93001" lon="8.69068">
        <ele>1790</ele>
        <time>2021-08-07T07:02:16.605Z</time>
      </trkpt>
      <trkpt lat="46.93" lon="8.69067">
        <ele>1790</ele>
        <time>2021-08-07T07:02:17.604Z</time>
      </trkpt>
      <trkpt lat="46.93" lon="8.69067">
        <ele>1790</ele>
        <time>2021-08-07T07:02:18.605Z</time>
      </trkpt>
      <trkpt lat="46.92999" lon="8.69067">
        <ele>1790</ele>
        <time>2021-08-07T07:02:19.604Z</time>
      </trkpt>
      <trkpt lat="46.92998" lon="8.69066">
        <ele>1790</ele>
        <time>2021-08-07T07:02:20.605Z</time>
      </trkpt>
      <trkpt lat="46.92997" lon="8.69065">
        <ele>1790</ele>
        <time>2021-08-07T07:02:21.605Z</time>
      </trkpt>
      <trkpt lat="46.92996" lon="8.69063">
        <ele>1790</ele>
        <time>2021-08-07T07:02:22.604Z</time>
      </trkpt>
      <trkpt lat="46.92994" lon="8.69062">
        <ele>1791</ele>
        <time>2021-08-07T07:02:23.605Z</time>
      </trkpt>
      <trkpt lat="46.92993" lon="8.69061">
        <ele>1791</ele>
        <time>2021-08-07T07:02:24.604Z</time>
      </trkpt>
      <trkpt lat="46.92992" lon="8.69061">
        <ele>1791</ele>
        <time>2021-08-07T07:02:25.604Z</time>
      </trkpt>
      <trkpt lat="46.92991" lon="8.69061">
        <ele>1792</ele>
        <time>2021-08-07T07:02:26.605Z</time>
      </trkpt>
      <trkpt lat="46.92991" lon="8.69061">
        <ele>1793</ele>
        <time>2021-08-07T07:02:27.605Z</time>
      </trkpt>
      <trkpt lat="46.92991" lon="8.69062">
        <ele>1793</ele>
        <time>2021-08-07T07:02:28.605Z</time>
      </trkpt>
      <trkpt lat="46.92991" lon="8.69063">
        <ele>1793</ele>
        <time>2021-08-07T07:02:29.605Z</time>
      </trkpt>
      <trkpt lat="46.92991" lon="8.69064">
        <ele>1793</ele>
        <time>2021-08-07T07:02:30.604Z</time>
      </trkpt>
      <trkpt lat="46.9299" lon="8.69064">
        <ele>1793</ele>
        <time>2021-08-07T07:02:31.604Z</time>
      </trkpt>
      <trkpt lat="46.9299" lon="8.69064">
        <ele>1793</ele>
        <time>2021-08-07T07:02:32.604Z</time>
      </trkpt>
      <trkpt lat="46.92989" lon="8.69064">
        <ele>1794</ele>
        <time>2021-08-07T07:02:33.604Z</time>
      </trkpt>
      <trkpt lat="46.92988" lon="8.69063">
        <ele>1794</ele>
        <time>2021-08-07T07:02:34.605Z</time>
      </trkpt>
      <trkpt lat="46.92987" lon="8.69063">
        <ele>1794</ele>
        <time>2021-08-07T07:02:35.604Z</time>
      </trkpt>
      <trkpt lat="46.92987" lon="8.69064">
        <ele>1794</ele>
        <time>2021-08-07T07:02:36.605Z</time>
      </trkpt>
      <trkpt lat="46.92986" lon="8.69064">
        <ele>1794</ele>
        <time>2021-08-07T07:02:37.605Z</time>
      </trkpt>
      <trkpt lat="46.92985" lon="8.69063">
        <ele>1794</ele>
        <time>2021-08-07T07:02:38.605Z</time>
      </trkpt>
      <trkpt lat="46.92984" lon="8.69064">
        <ele>1794</ele>
        <time>2021-08-07T07:02:39.605Z</time>
      </trkpt>
      <trkpt lat="46.92983" lon="8.69064">
        <ele>1794</ele>
        <time>2021-08-07T07:02:40.605Z</time>
      </trkpt>
      <trkpt lat="46.92983" lon="8.69065">
        <ele>1794</ele>
        <time>2021-08-07T07:02:41.604Z</time>
      </trkpt>
      <trkpt lat="46.92982" lon="8.69064">
        <ele>1793</ele>
        <time>2021-08-07T07:02:42.605Z</time>
      </trkpt>
      <trkpt lat="46.92981" lon="8.69064">
        <ele>1793</ele>
        <time>2021-08-07T07:02:43.604Z</time>
      </trkpt>
      <trkpt lat="46.9298" lon="8.69063">
        <ele>1792</ele>
        <time>2021-08-07T07:02:44.605Z</time>
      </trkpt>
      <trkpt lat="46.92979" lon="8.69063">
        <ele>1792</ele>
        <time>2021-08-07T07:02:45.604Z</time>
      </trkpt>
      <trkpt lat="46.92978" lon="8.69062">
        <ele>1792</ele>
        <time>2021-08-07T07:02:46.605Z</time>
      </trkpt>
      <trkpt lat="46.92977" lon="8.69062">
        <ele>1792</ele>
        <time>2021-08-07T07:02:47.604Z</time>
      </trkpt>
      <trkpt lat="46.92977" lon="8.69061">
        <ele>1792</ele>
        <time>2021-08-07T07:02:48.604Z</time>
      </trkpt>
      <trkpt lat="46.92976" lon="8.69061">
        <ele>1792</ele>
        <time>2021-08-07T07:02:49.604Z</time>
      </trkpt>
      <trkpt lat="46.92975" lon="8.6906">
        <ele>1793</ele>
        <time>2021-08-07T07:02:50.605Z</time>
      </trkpt>
      <trkpt lat="46.92974" lon="8.69059">
        <ele>1794</ele>
        <time>2021-08-07T07:02:51.605Z</time>
      </trkpt>
      <trkpt lat="46.92973" lon="8.69057">
        <ele>1794</ele>
        <time>2021-08-07T07:02:52.605Z</time>
      </trkpt>
      <trkpt lat="46.92972" lon="8.69056">
        <ele>1795</ele>
        <time>2021-08-07T07:02:53.604Z</time>
      </trkpt>
      <trkpt lat="46.92971" lon="8.69056">
        <ele>1796</ele>
        <time>2021-08-07T07:02:54.605Z</time>
      </trkpt>
      <trkpt lat="46.92971" lon="8.69056">
        <ele>1796</ele>
        <time>2021-08-07T07:02:55.604Z</time>
      </trkpt>
      <trkpt lat="46.9297" lon="8.69055">
        <ele>1797</ele>
        <time>2021-08-07T07:02:56.605Z</time>
      </trkpt>
      <trkpt lat="46.9297" lon="8.69054">
        <ele>1797</ele>
        <time>2021-08-07T07:02:57.605Z</time>
      </trkpt>
      <trkpt lat="46.9297" lon="8.69055">
        <ele>1797</ele>
        <time>2021-08-07T07:02:58.605Z</time>
      </trkpt>
      <trkpt lat="46.9297" lon="8.69055">
        <ele>1798</ele>
        <time>2021-08-07T07:02:59.605Z</time>
      </trkpt>
      <trkpt lat="46.92968" lon="8.69052">
        <ele>1798</ele>
        <time>2021-08-07T07:03:00.605Z</time>
      </trkpt>
      <trkpt lat="46.92966" lon="8.69051">
        <ele>1799</ele>
        <time>2021-08-07T07:03:01.604Z</time>
      </trkpt>
      <trkpt lat="46.92966" lon="8.6905">
        <ele>1799</ele>
        <time>2021-08-07T07:03:02.605Z</time>
      </trkpt>
      <trkpt lat="46.92965" lon="8.69045">
        <ele>1800</ele>
        <time>2021-08-07T07:03:03.605Z</time>
      </trkpt>
      <trkpt lat="46.92964" lon="8.69043">
        <ele>1801</ele>
        <time>2021-08-07T07:03:04.605Z</time>
      </trkpt>
      <trkpt lat="46.92963" lon="8.69042">
        <ele>1802</ele>
        <time>2021-08-07T07:03:05.605Z</time>
      </trkpt>
      <trkpt lat="46.92963" lon="8.69042">
        <ele>1803</ele>
        <time>2021-08-07T07:03:06.604Z</time>
      </trkpt>
      <trkpt lat="46.92963" lon="8.69042">
        <ele>1804</ele>
        <time>2021-08-07T07:03:07.605Z</time>
      </trkpt>
      <trkpt lat="46.92963" lon="8.69043">
        <ele>1806</ele>
        <time>2021-08-07T07:03:08.605Z</time>
      </trkpt>
      <trkpt lat="46.92963" lon="8.69044">
        <ele>1806</ele>
        <time>2021-08-07T07:03:09.605Z</time>
      </trkpt>
      <trkpt lat="46.92963" lon="8.69045">
        <ele>1807</ele>
        <time>2021-08-07T07:03:10.604Z</time>
      </trkpt>
      <trkpt lat="46.92962" lon="8.69045">
        <ele>1807</ele>
        <time>2021-08-07T07:03:11.604Z</time>
      </trkpt>
      <trkpt lat="46.92962" lon="8.69045">
        <ele>1807</ele>
        <time>2021-08-07T07:03:12.605Z</time>
      </trkpt>
      <trkpt lat="46.92961" lon="8.69045">
        <ele>1808</ele>
        <time>2021-08-07T07:03:13.604Z</time>
      </trkpt>
      <trkpt lat="46.92961" lon="8.69046">
        <ele>1808</ele>
        <time>2021-08-07T07:03:14.605Z</time>
      </trkpt>
      <trkpt lat="46.92961" lon="8.69047">
        <ele>1808</ele>
        <time>2021-08-07T07:03:15.605Z</time>
      </trkpt>
      <trkpt lat="46.92961" lon="8.69048">
        <ele>1808</ele>
        <time>2021-08-07T07:03:16.605Z</time>
      </trkpt>
      <trkpt lat="46.92961" lon="8.69049">
        <ele>1809</ele>
        <time>2021-08-07T07:03:17.605Z</time>
      </trkpt>
      <trkpt lat="46.9296" lon="8.69049">
        <ele>1809</ele>
        <time>2021-08-07T07:03:18.605Z</time>
      </trkpt>
      <trkpt lat="46.92959" lon="8.69049">
        <ele>1809</ele>
        <time>2021-08-07T07:03:19.605Z</time>
      </trkpt>
      <trkpt lat="46.92959" lon="8.69048">
        <ele>1810</ele>
        <time>2021-08-07T07:03:20.605Z</time>
      </trkpt>
      <trkpt lat="46.92958" lon="8.69048">
        <ele>1810</ele>
        <time>2021-08-07T07:03:21.605Z</time>
      </trkpt>
      <trkpt lat="46.92958" lon="8.69049">
        <ele>1811</ele>
        <time>2021-08-07T07:03:22.604Z</time>
      </trkpt>
      <trkpt lat="46.92958" lon="8.69051">
        <ele>1811</ele>
        <time>2021-08-07T07:03:23.605Z</time>
      </trkpt>
      <trkpt lat="46.92957" lon="8.69051">
        <ele>1811</ele>
        <time>2021-08-07T07:03:24.604Z</time>
      </trkpt>
      <trkpt lat="46.92956" lon="8.69052">
        <ele>1812</ele>
        <time>2021-08-07T07:03:25.605Z</time>
      </trkpt>
      <trkpt lat="46.92956" lon="8.69054">
        <ele>1811</ele>
        <time>2021-08-07T07:03:26.605Z</time>
      </trkpt>
      <trkpt lat="46.92955" lon="8.69055">
        <ele>1811</ele>
        <time>2021-08-07T07:03:27.604Z</time>
      </trkpt>
      <trkpt lat="46.92956" lon="8.69056">
        <ele>1811</ele>
        <time>2021-08-07T07:03:28.605Z</time>
      </trkpt>
      <trkpt lat="46.92955" lon="8.69056">
        <ele>1811</ele>
        <time>2021-08-07T07:03:29.605Z</time>
      </trkpt>
      <trkpt lat="46.92955" lon="8.69057">
        <ele>1811</ele>
        <time>2021-08-07T07:03:30.604Z</time>
      </trkpt>
      <trkpt lat="46.92955" lon="8.69058">
        <ele>1811</ele>
        <time>2021-08-07T07:03:31.605Z</time>
      </trkpt>
      <trkpt lat="46.92955" lon="8.69059">
        <ele>1811</ele>
        <time>2021-08-07T07:03:32.605Z</time>
      </trkpt>
      <trkpt lat="46.92955" lon="8.69059">
        <ele>1811</ele>
        <time>2021-08-07T07:03:33.605Z</time>
      </trkpt>
      <trkpt lat="46.92955" lon="8.6906">
        <ele>1810</ele>
        <time>2021-08-07T07:03:34.605Z</time>
      </trkpt>
      <trkpt lat="46.92955" lon="8.69061">
        <ele>1810</ele>
        <time>2021-08-07T07:03:35.605Z</time>
      </trkpt>
      <trkpt lat="46.92954" lon="8.69061">
        <ele>1809</ele>
        <time>2021-08-07T07:03:36.605Z</time>
      </trkpt>
      <trkpt lat="46.92953" lon="8.69061">
        <ele>1808</ele>
        <time>2021-08-07T07:03:37.604Z</time>
      </trkpt>
      <trkpt lat="46.92953" lon="8.69062">
        <ele>1808</ele>
        <time>2021-08-07T07:03:38.604Z</time>
      </trkpt>
      <trkpt lat="46.92952" lon="8.69063">
        <ele>1807</ele>
        <time>2021-08-07T07:03:39.604Z</time>
      </trkpt>
      <trkpt lat="46.92952" lon="8.69063">
        <ele>1806</ele>
        <time>2021-08-07T07:03:40.605Z</time>
      </trkpt>
      <trkpt lat="46.92951" lon="8.69063">
        <ele>1806</ele>
        <time>2021-08-07T07:03:41.605Z</time>
      </trkpt>
      <trkpt lat="46.9295" lon="8.69063">
        <ele>1805</ele>
        <time>2021-08-07T07:03:42.605Z</time>
      </trkpt>
      <trkpt lat="46.9295" lon="8.69063">
        <ele>1805</ele>
        <time>2021-08-07T07:03:43.605Z</time>
      </trkpt>
      <trkpt lat="46.92949" lon="8.69064">
        <ele>1804</ele>
        <time>2021-08-07T07:03:44.605Z</time>
      </trkpt>
      <trkpt lat="46.92948" lon="8.69063">
        <ele>1804</ele>
        <time>2021-08-07T07:03:45.605Z</time>
      </trkpt>
      <trkpt lat="46.92948" lon="8.69063">
        <ele>1803</ele>
        <time>2021-08-07T07:03:46.605Z</time>
      </trkpt>
      <trkpt lat="46.92947" lon="8.69065">
        <ele>1803</ele>
        <time>2021-08-07T07:03:47.604Z</time>
      </trkpt>
      <trkpt lat="46.92946" lon="8.69066">
        <ele>1803</ele>
        <time>2021-08-07T07:03:48.605Z</time>
      </trkpt>
      <trkpt lat="46.92946" lon="8.69066">
        <ele>1802</ele>
        <time>2021-08-07T07:03:49.605Z</time>
      </trkpt>
      <trkpt lat="46.92946" lon="8.69066">
        <ele>1802</ele>
        <time>2021-08-07T07:03:50.605Z</time>
      </trkpt>
      <trkpt lat="46.92949" lon="8.69065">
        <ele>1802</ele>
        <time>2021-08-07T07:03:51.605Z</time>
      </trkpt>
      <trkpt lat="46.92949" lon="8.69065">
        <ele>1803</ele>
        <time>2021-08-07T07:03:52.605Z</time>
      </trkpt>
      <trkpt lat="46.92949" lon="8.69063">
        <ele>1803</ele>
        <time>2021-08-07T07:03:53.605Z</time>
      </trkpt>
      <trkpt lat="46.92948" lon="8.69061">
        <ele>1803</ele>
        <time>2021-08-07T07:03:54.605Z</time>
      </trkpt>
      <trkpt lat="46.92946" lon="8.6906">
        <ele>1804</ele>
        <time>2021-08-07T07:03:55.605Z</time>
      </trkpt>
      <trkpt lat="46.92945" lon="8.6906">
        <ele>1805</ele>
        <time>2021-08-07T07:03:56.605Z</time>
      </trkpt>
      <trkpt lat="46.92944" lon="8.69059">
        <ele>1805</ele>
        <time>2021-08-07T07:03:57.604Z</time>
      </trkpt>
      <trkpt lat="46.92943" lon="8.69059">
        <ele>1806</ele>
        <time>2021-08-07T07:03:58.605Z</time>
      </trkpt>
      <trkpt lat="46.92942" lon="8.6906">
        <ele>1806</ele>
        <time>2021-08-07T07:03:59.604Z</time>
      </trkpt>
      <trkpt lat="46.92941" lon="8.6906">
        <ele>1807</ele>
        <time>2021-08-07T07:04:00.605Z</time>
      </trkpt>
      <trkpt lat="46.9294" lon="8.69061">
        <ele>1807</ele>
        <time>2021-08-07T07:04:01.604Z</time>
      </trkpt>
      <trkpt lat="46.9294" lon="8.69061">
        <ele>1808</ele>
        <time>2021-08-07T07:04:02.605Z</time>
      </trkpt>
      <trkpt lat="46.92939" lon="8.69062">
        <ele>1808</ele>
        <time>2021-08-07T07:04:03.604Z</time>
      </trkpt>
      <trkpt lat="46.92938" lon="8.69062">
        <ele>1808</ele>
        <time>2021-08-07T07:04:04.604Z</time>
      </trkpt>
      <trkpt lat="46.92937" lon="8.69062">
        <ele>1808</ele>
        <time>2021-08-07T07:04:05.605Z</time>
      </trkpt>
      <trkpt lat="46.92937" lon="8.69062">
        <ele>1808</ele>
        <time>2021-08-07T07:04:06.605Z</time>
      </trkpt>
      <trkpt lat="46.92936" lon="8.69063">
        <ele>1807</ele>
        <time>2021-08-07T07:04:07.605Z</time>
      </trkpt>
      <trkpt lat="46.92936" lon="8.69063">
        <ele>1807</ele>
        <time>2021-08-07T07:04:08.605Z</time>
      </trkpt>
      <trkpt lat="46.92935" lon="8.69064">
        <ele>1806</ele>
        <time>2021-08-07T07:04:09.604Z</time>
      </trkpt>
      <trkpt lat="46.92933" lon="8.69065">
        <ele>1806</ele>
        <time>2021-08-07T07:04:10.605Z</time>
      </trkpt>
      <trkpt lat="46.92933" lon="8.69065">
        <ele>1805</ele>
        <time>2021-08-07T07:04:11.605Z</time>
      </trkpt>
      <trkpt lat="46.92933" lon="8.69065">
        <ele>1805</ele>
        <time>2021-08-07T07:04:12.604Z</time>
      </trkpt>
      <trkpt lat="46.92933" lon="8.69066">
        <ele>1804</ele>
        <time>2021-08-07T07:04:13.604Z</time>
      </trkpt>
      <trkpt lat="46.92933" lon="8.69068">
        <ele>1804</ele>
        <time>2021-08-07T07:04:14.605Z</time>
      </trkpt>
      <trkpt lat="46.92933" lon="8.69069">
        <ele>1804</ele>
        <time>2021-08-07T07:04:15.605Z</time>
      </trkpt>
      <trkpt lat="46.92933" lon="8.69069">
        <ele>1804</ele>
        <time>2021-08-07T07:04:16.605Z</time>
      </trkpt>
      <trkpt lat="46.92932" lon="8.69069">
        <ele>1804</ele>
        <time>2021-08-07T07:04:17.605Z</time>
      </trkpt>
      <trkpt lat="46.92931" lon="8.69069">
        <ele>1804</ele>
        <time>2021-08-07T07:04:18.605Z</time>
      </trkpt>
      <trkpt lat="46.9293" lon="8.69068">
        <ele>1804</ele>
        <time>2021-08-07T07:04:19.605Z</time>
      </trkpt>
      <trkpt lat="46.9293" lon="8.69068">
        <ele>1804</ele>
        <time>2021-08-07T07:04:20.604Z</time>
      </trkpt>
      <trkpt lat="46.9293" lon="8.69068">
        <ele>1805</ele>
        <time>2021-08-07T07:04:21.605Z</time>
      </trkpt>
      <trkpt lat="46.92929" lon="8.69069">
        <ele>1805</ele>
        <time>2021-08-07T07:04:22.605Z</time>
      </trkpt>
      <trkpt lat="46.92928" lon="8.69069">
        <ele>1805</ele>
        <time>2021-08-07T07:04:23.605Z</time>
      </trkpt>
      <trkpt lat="46.92927" lon="8.69069">
        <ele>1805</ele>
        <time>2021-08-07T07:04:24.605Z</time>
      </trkpt>
      <trkpt lat="46.92926" lon="8.69069">
        <ele>1806</ele>
        <time>2021-08-07T07:04:25.604Z</time>
      </trkpt>
      <trkpt lat="46.92925" lon="8.6907">
        <ele>1806</ele>
        <time>2021-08-07T07:04:26.605Z</time>
      </trkpt>
      <trkpt lat="46.92924" lon="8.6907">
        <ele>1806</ele>
        <time>2021-08-07T07:04:27.605Z</time>
      </trkpt>
      <trkpt lat="46.92923" lon="8.6907">
        <ele>1806</ele>
        <time>2021-08-07T07:04:28.604Z</time>
      </trkpt>
      <trkpt lat="46.92921" lon="8.6907">
        <ele>1807</ele>
        <time>2021-08-07T07:04:29.605Z</time>
      </trkpt>
      <trkpt lat="46.9292" lon="8.6907">
        <ele>1807</ele>
        <time>2021-08-07T07:04:30.605Z</time>
      </trkpt>
      <trkpt lat="46.92919" lon="8.6907">
        <ele>1807</ele>
        <time>2021-08-07T07:04:31.605Z</time>
      </trkpt>
      <trkpt lat="46.92917" lon="8.69069">
        <ele>1807</ele>
        <time>2021-08-07T07:04:32.605Z</time>
      </trkpt>
      <trkpt lat="46.92916" lon="8.69069">
        <ele>1807</ele>
        <time>2021-08-07T07:04:33.605Z</time>
      </trkpt>
      <trkpt lat="46.92916" lon="8.6907">
        <ele>1808</ele>
        <time>2021-08-07T07:04:34.605Z</time>
      </trkpt>
      <trkpt lat="46.92915" lon="8.69071">
        <ele>1808</ele>
        <time>2021-08-07T07:04:35.605Z</time>
      </trkpt>
      <trkpt lat="46.92914" lon="8.69071">
        <ele>1808</ele>
        <time>2021-08-07T07:04:36.605Z</time>
      </trkpt>
      <trkpt lat="46.92913" lon="8.69072">
        <ele>1808</ele>
        <time>2021-08-07T07:04:37.605Z</time>
      </trkpt>
      <trkpt lat="46.92913" lon="8.69073">
        <ele>1808</ele>
        <time>2021-08-07T07:04:38.605Z</time>
      </trkpt>
      <trkpt lat="46.92913" lon="8.69073">
        <ele>1808</ele>
        <time>2021-08-07T07:04:39.605Z</time>
      </trkpt>
      <trkpt lat="46.92912" lon="8.69074">
        <ele>1808</ele>
        <time>2021-08-07T07:04:40.605Z</time>
      </trkpt>
      <trkpt lat="46.92912" lon="8.69074">
        <ele>1808</ele>
        <time>2021-08-07T07:04:41.605Z</time>
      </trkpt>
      <trkpt lat="46.92911" lon="8.69074">
        <ele>1808</ele>
        <time>2021-08-07T07:04:42.605Z</time>
      </trkpt>
      <trkpt lat="46.9291" lon="8.69074">
        <ele>1808</ele>
        <time>2021-08-07T07:04:43.605Z</time>
      </trkpt>
      <trkpt lat="46.9291" lon="8.69075">
        <ele>1808</ele>
        <time>2021-08-07T07:04:44.605Z</time>
      </trkpt>
      <trkpt lat="46.92909" lon="8.69075">
        <ele>1807</ele>
        <time>2021-08-07T07:04:45.605Z</time>
      </trkpt>
      <trkpt lat="46.92908" lon="8.69076">
        <ele>1807</ele>
        <time>2021-08-07T07:04:46.604Z</time>
      </trkpt>
      <trkpt lat="46.92907" lon="8.69076">
        <ele>1806</ele>
        <time>2021-08-07T07:04:47.605Z</time>
      </trkpt>
      <trkpt lat="46.92906" lon="8.69076">
        <ele>1806</ele>
        <time>2021-08-07T07:04:48.604Z</time>
      </trkpt>
      <trkpt lat="46.92905" lon="8.69075">
        <ele>1806</ele>
        <time>2021-08-07T07:04:49.605Z</time>
      </trkpt>
      <trkpt lat="46.92905" lon="8.69077">
        <ele>1806</ele>
        <time>2021-08-07T07:04:50.605Z</time>
      </trkpt>
      <trkpt lat="46.92904" lon="8.69077">
        <ele>1805</ele>
        <time>2021-08-07T07:04:51.604Z</time>
      </trkpt>
      <trkpt lat="46.92904" lon="8.69077">
        <ele>1805</ele>
        <time>2021-08-07T07:04:52.604Z</time>
      </trkpt>
      <trkpt lat="46.92902" lon="8.69076">
        <ele>1804</ele>
        <time>2021-08-07T07:04:53.605Z</time>
      </trkpt>
      <trkpt lat="46.92901" lon="8.69076">
        <ele>1805</ele>
        <time>2021-08-07T07:04:54.604Z</time>
      </trkpt>
      <trkpt lat="46.929" lon="8.69076">
        <ele>1805</ele>
        <time>2021-08-07T07:04:55.605Z</time>
      </trkpt>
      <trkpt lat="46.92899" lon="8.69076">
        <ele>1805</ele>
        <time>2021-08-07T07:04:56.605Z</time>
      </trkpt>
      <trkpt lat="46.92898" lon="8.69076">
        <ele>1806</ele>
        <time>2021-08-07T07:04:57.605Z</time>
      </trkpt>
      <trkpt lat="46.92898" lon="8.69077">
        <ele>1806</ele>
        <time>2021-08-07T07:04:58.605Z</time>
      </trkpt>
      <trkpt lat="46.92897" lon="8.69078">
        <ele>1806</ele>
        <time>2021-08-07T07:04:59.604Z</time>
      </trkpt>
      <trkpt lat="46.92897" lon="8.69078">
        <ele>1807</ele>
        <time>2021-08-07T07:05:00.605Z</time>
      </trkpt>
      <trkpt lat="46.92896" lon="8.6908">
        <ele>1807</ele>
        <time>2021-08-07T07:05:01.605Z</time>
      </trkpt>
      <trkpt lat="46.92896" lon="8.6908">
        <ele>1807</ele>
        <time>2021-08-07T07:05:02.604Z</time>
      </trkpt>
      <trkpt lat="46.92895" lon="8.6908">
        <ele>1807</ele>
        <time>2021-08-07T07:05:03.604Z</time>
      </trkpt>
      <trkpt lat="46.92894" lon="8.6908">
        <ele>1807</ele>
        <time>2021-08-07T07:05:04.604Z</time>
      </trkpt>
      <trkpt lat="46.92893" lon="8.6908">
        <ele>1807</ele>
        <time>2021-08-07T07:05:05.604Z</time>
      </trkpt>
      <trkpt lat="46.92892" lon="8.6908">
        <ele>1807</ele>
        <time>2021-08-07T07:05:06.605Z</time>
      </trkpt>
      <trkpt lat="46.92892" lon="8.69079">
        <ele>1808</ele>
        <time>2021-08-07T07:05:07.604Z</time>
      </trkpt>
      <trkpt lat="46.92892" lon="8.69079">
        <ele>1808</ele>
        <time>2021-08-07T07:05:08.605Z</time>
      </trkpt>
      <trkpt lat="46.92891" lon="8.69079">
        <ele>1808</ele>
        <time>2021-08-07T07:05:09.605Z</time>
      </trkpt>
      <trkpt lat="46.9289" lon="8.69079">
        <ele>1809</ele>
        <time>2021-08-07T07:05:10.605Z</time>
      </trkpt>
      <trkpt lat="46.9289" lon="8.69079">
        <ele>1809</ele>
        <time>2021-08-07T07:05:11.605Z</time>
      </trkpt>
      <trkpt lat="46.92889" lon="8.69078">
        <ele>1809</ele>
        <time>2021-08-07T07:05:12.604Z</time>
      </trkpt>
      <trkpt lat="46.92889" lon="8.69078">
        <ele>1809</ele>
        <time>2021-08-07T07:05:13.605Z</time>
      </trkpt>
      <trkpt lat="46.92888" lon="8.69078">
        <ele>1809</ele>
        <time>2021-08-07T07:05:14.605Z</time>
      </trkpt>
      <trkpt lat="46.92887" lon="8.69078">
        <ele>1808</ele>
        <time>2021-08-07T07:05:15.605Z</time>
      </trkpt>
      <trkpt lat="46.92886" lon="8.69078">
        <ele>1808</ele>
        <time>2021-08-07T07:05:16.605Z</time>
      </trkpt>
      <trkpt lat="46.92885" lon="8.69078">
        <ele>1808</ele>
        <time>2021-08-07T07:05:17.605Z</time>
      </trkpt>
      <trkpt lat="46.92885" lon="8.69079">
        <ele>1807</ele>
        <time>2021-08-07T07:05:18.605Z</time>
      </trkpt>
      <trkpt lat="46.92885" lon="8.69079">
        <ele>1807</ele>
        <time>2021-08-07T07:05:19.605Z</time>
      </trkpt>
      <trkpt lat="46.92885" lon="8.6908">
        <ele>1807</ele>
        <time>2021-08-07T07:05:20.605Z</time>
      </trkpt>
      <trkpt lat="46.92885" lon="8.6908">
        <ele>1806</ele>
        <time>2021-08-07T07:05:21.605Z</time>
      </trkpt>
      <trkpt lat="46.92885" lon="8.6908">
        <ele>1806</ele>
        <time>2021-08-07T07:05:22.605Z</time>
      </trkpt>
      <trkpt lat="46.92885" lon="8.6908">
        <ele>1805</ele>
        <time>2021-08-07T07:05:23.605Z</time>
      </trkpt>
      <trkpt lat="46.92884" lon="8.6908">
        <ele>1804</ele>
        <time>2021-08-07T07:05:24.604Z</time>
      </trkpt>
      <trkpt lat="46.92884" lon="8.6908">
        <ele>1804</ele>
        <time>2021-08-07T07:05:25.604Z</time>
      </trkpt>
      <trkpt lat="46.92883" lon="8.6908">
        <ele>1804</ele>
        <time>2021-08-07T07:05:26.605Z</time>
      </trkpt>
      <trkpt lat="46.92883" lon="8.6908">
        <ele>1803</ele>
        <time>2021-08-07T07:05:27.604Z</time>
      </trkpt>
      <trkpt lat="46.92883" lon="8.6908">
        <ele>1803</ele>
        <time>2021-08-07T07:05:28.604Z</time>
      </trkpt>
      <trkpt lat="46.92883" lon="8.6908">
        <ele>1803</ele>
        <time>2021-08-07T07:05:29.604Z</time>
      </trkpt>
      <trkpt lat="46.92882" lon="8.69079">
        <ele>1803</ele>
        <time>2021-08-07T07:05:30.604Z</time>
      </trkpt>
      <trkpt lat="46.92882" lon="8.69079">
        <ele>1802</ele>
        <time>2021-08-07T07:05:31.604Z</time>
      </trkpt>
      <trkpt lat="46.92882" lon="8.69078">
        <ele>1802</ele>
        <time>2021-08-07T07:05:32.604Z</time>
      </trkpt>
      <trkpt lat="46.92881" lon="8.69078">
        <ele>1803</ele>
        <time>2021-08-07T07:05:33.604Z</time>
      </trkpt>
      <trkpt lat="46.9288" lon="8.69077">
        <ele>1803</ele>
        <time>2021-08-07T07:05:34.604Z</time>
      </trkpt>
      <trkpt lat="46.9288" lon="8.69077">
        <ele>1804</ele>
        <time>2021-08-07T07:05:35.604Z</time>
      </trkpt>
      <trkpt lat="46.9288" lon="8.69077">
        <ele>1804</ele>
        <time>2021-08-07T07:05:36.604Z</time>
      </trkpt>
      <trkpt lat="46.92879" lon="8.69077">
        <ele>1804</ele>
        <time>2021-08-07T07:05:37.604Z</time>
      </trkpt>
      <trkpt lat="46.92879" lon="8.69077">
        <ele>1804</ele>
        <time>2021-08-07T07:05:38.604Z</time>
      </trkpt>
      <trkpt lat="46.92879" lon="8.69076">
        <ele>1804</ele>
        <time>2021-08-07T07:05:39.604Z</time>
      </trkpt>
      <trkpt lat="46.92879" lon="8.69076">
        <ele>1804</ele>
        <time>2021-08-07T07:05:40.605Z</time>
      </trkpt>
      <trkpt lat="46.92878" lon="8.69076">
        <ele>1804</ele>
        <time>2021-08-07T07:05:41.604Z</time>
      </trkpt>
      <trkpt lat="46.92877" lon="8.69076">
        <ele>1804</ele>
        <time>2021-08-07T07:05:42.604Z</time>
      </trkpt>
      <trkpt lat="46.92877" lon="8.69076">
        <ele>1804</ele>
        <time>2021-08-07T07:05:43.604Z</time>
      </trkpt>
      <trkpt lat="46.92876" lon="8.69077">
        <ele>1804</ele>
        <time>2021-08-07T07:05:44.604Z</time>
      </trkpt>
      <trkpt lat="46.92876" lon="8.69078">
        <ele>1805</ele>
        <time>2021-08-07T07:05:45.605Z</time>
      </trkpt>
      <trkpt lat="46.92875" lon="8.69078">
        <ele>1805</ele>
        <time>2021-08-07T07:05:46.605Z</time>
      </trkpt>
      <trkpt lat="46.92874" lon="8.69079">
        <ele>1804</ele>
        <time>2021-08-07T07:05:47.605Z</time>
      </trkpt>
      <trkpt lat="46.92873" lon="8.69079">
        <ele>1805</ele>
        <time>2021-08-07T07:05:48.604Z</time>
      </trkpt>
      <trkpt lat="46.92873" lon="8.6908">
        <ele>1804</ele>
        <time>2021-08-07T07:05:49.605Z</time>
      </trkpt>
      <trkpt lat="46.92872" lon="8.69081">
        <ele>1804</ele>
        <time>2021-08-07T07:05:50.605Z</time>
      </trkpt>
      <trkpt lat="46.92872" lon="8.69081">
        <ele>1804</ele>
        <time>2021-08-07T07:05:51.605Z</time>
      </trkpt>
      <trkpt lat="46.92871" lon="8.69082">
        <ele>1804</ele>
        <time>2021-08-07T07:05:52.605Z</time>
      </trkpt>
      <trkpt lat="46.9287" lon="8.69082">
        <ele>1804</ele>
        <time>2021-08-07T07:05:53.605Z</time>
      </trkpt>
      <trkpt lat="46.92869" lon="8.69082">
        <ele>1804</ele>
        <time>2021-08-07T07:05:54.604Z</time>
      </trkpt>
      <trkpt lat="46.92868" lon="8.69082">
        <ele>1804</ele>
        <time>2021-08-07T07:05:55.605Z</time>
      </trkpt>
      <trkpt lat="46.92867" lon="8.69082">
        <ele>1804</ele>
        <time>2021-08-07T07:05:56.605Z</time>
      </trkpt>
      <trkpt lat="46.92867" lon="8.69082">
        <ele>1804</ele>
        <time>2021-08-07T07:05:57.605Z</time>
      </trkpt>
      <trkpt lat="46.92866" lon="8.69082">
        <ele>1804</ele>
        <time>2021-08-07T07:05:58.605Z</time>
      </trkpt>
      <trkpt lat="46.92866" lon="8.69083">
        <ele>1805</ele>
        <time>2021-08-07T07:05:59.604Z</time>
      </trkpt>
      <trkpt lat="46.92866" lon="8.69083">
        <ele>1805</ele>
        <time>2021-08-07T07:06:00.605Z</time>
      </trkpt>
      <trkpt lat="46.92868" lon="8.69083">
        <ele>1805</ele>
        <time>2021-08-07T07:06:01.606Z</time>
      </trkpt>
      <trkpt lat="46.92868" lon="8.69084">
        <ele>1805</ele>
        <time>2021-08-07T07:06:02.605Z</time>
      </trkpt>
      <trkpt lat="46.92868" lon="8.69084">
        <ele>1805</ele>
        <time>2021-08-07T07:06:03.605Z</time>
      </trkpt>
      <trkpt lat="46.92867" lon="8.69084">
        <ele>1805</ele>
        <time>2021-08-07T07:06:04.605Z</time>
      </trkpt>
      <trkpt lat="46.92866" lon="8.69083">
        <ele>1806</ele>
        <time>2021-08-07T07:06:05.605Z</time>
      </trkpt>
      <trkpt lat="46.92865" lon="8.69083">
        <ele>1806</ele>
        <time>2021-08-07T07:06:06.606Z</time>
      </trkpt>
      <trkpt lat="46.92865" lon="8.69084">
        <ele>1807</ele>
        <time>2021-08-07T07:06:07.605Z</time>
      </trkpt>
      <trkpt lat="46.92864" lon="8.69085">
        <ele>1807</ele>
        <time>2021-08-07T07:06:08.606Z</time>
      </trkpt>
      <trkpt lat="46.92863" lon="8.69085">
        <ele>1807</ele>
        <time>2021-08-07T07:06:09.605Z</time>
      </trkpt>
      <trkpt lat="46.92862" lon="8.69085">
        <ele>1807</ele>
        <time>2021-08-07T07:06:10.605Z</time>
      </trkpt>
      <trkpt lat="46.92862" lon="8.69086">
        <ele>1807</ele>
        <time>2021-08-07T07:06:11.606Z</time>
      </trkpt>
      <trkpt lat="46.92861" lon="8.69086">
        <ele>1808</ele>
        <time>2021-08-07T07:06:12.605Z</time>
      </trkpt>
      <trkpt lat="46.9286" lon="8.69087">
        <ele>1808</ele>
        <time>2021-08-07T07:06:13.606Z</time>
      </trkpt>
      <trkpt lat="46.9286" lon="8.69088">
        <ele>1808</ele>
        <time>2021-08-07T07:06:14.606Z</time>
      </trkpt>
      <trkpt lat="46.9286" lon="8.69088">
        <ele>1809</ele>
        <time>2021-08-07T07:06:15.606Z</time>
      </trkpt>
      <trkpt lat="46.92861" lon="8.69088">
        <ele>1809</ele>
        <time>2021-08-07T07:06:16.605Z</time>
      </trkpt>
      <trkpt lat="46.92861" lon="8.69088">
        <ele>1809</ele>
        <time>2021-08-07T07:06:17.605Z</time>
      </trkpt>
      <trkpt lat="46.92861" lon="8.69088">
        <ele>1809</ele>
        <time>2021-08-07T07:06:18.605Z</time>
      </trkpt>
      <trkpt lat="46.9286" lon="8.69089">
        <ele>1809</ele>
        <time>2021-08-07T07:06:19.606Z</time>
      </trkpt>
      <trkpt lat="46.92859" lon="8.6909">
        <ele>1809</ele>
        <time>2021-08-07T07:06:20.606Z</time>
      </trkpt>
      <trkpt lat="46.92859" lon="8.69091">
        <ele>1809</ele>
        <time>2021-08-07T07:06:21.606Z</time>
      </trkpt>
      <trkpt lat="46.92859" lon="8.69092">
        <ele>1810</ele>
        <time>2021-08-07T07:06:22.605Z</time>
      </trkpt>
      <trkpt lat="46.92858" lon="8.69092">
        <ele>1810</ele>
        <time>2021-08-07T07:06:23.606Z</time>
      </trkpt>
      <trkpt lat="46.92859" lon="8.69094">
        <ele>1810</ele>
        <time>2021-08-07T07:06:24.605Z</time>
      </trkpt>
      <trkpt lat="46.92858" lon="8.69095">
        <ele>1810</ele>
        <time>2021-08-07T07:06:25.606Z</time>
      </trkpt>
      <trkpt lat="46.92858" lon="8.69096">
        <ele>1810</ele>
        <time>2021-08-07T07:06:26.606Z</time>
      </trkpt>
      <trkpt lat="46.92858" lon="8.69098">
        <ele>1810</ele>
        <time>2021-08-07T07:06:27.606Z</time>
      </trkpt>
      <trkpt lat="46.92857" lon="8.69098">
        <ele>1810</ele>
        <time>2021-08-07T07:06:28.606Z</time>
      </trkpt>
      <trkpt lat="46.92856" lon="8.69099">
        <ele>1810</ele>
        <time>2021-08-07T07:06:29.606Z</time>
      </trkpt>
      <trkpt lat="46.92855" lon="8.691">
        <ele>1810</ele>
        <time>2021-08-07T07:06:30.605Z</time>
      </trkpt>
      <trkpt lat="46.92854" lon="8.69101">
        <ele>1810</ele>
        <time>2021-08-07T07:06:31.606Z</time>
      </trkpt>
      <trkpt lat="46.92853" lon="8.69102">
        <ele>1810</ele>
        <time>2021-08-07T07:06:32.606Z</time>
      </trkpt>
      <trkpt lat="46.92852" lon="8.69103">
        <ele>1810</ele>
        <time>2021-08-07T07:06:33.606Z</time>
      </trkpt>
      <trkpt lat="46.92851" lon="8.69103">
        <ele>1810</ele>
        <time>2021-08-07T07:06:34.606Z</time>
      </trkpt>
      <trkpt lat="46.9285" lon="8.69104">
        <ele>1810</ele>
        <time>2021-08-07T07:06:35.605Z</time>
      </trkpt>
      <trkpt lat="46.92849" lon="8.69105">
        <ele>1810</ele>
        <time>2021-08-07T07:06:36.606Z</time>
      </trkpt>
      <trkpt lat="46.92848" lon="8.69105">
        <ele>1810</ele>
        <time>2021-08-07T07:06:37.605Z</time>
      </trkpt>
      <trkpt lat="46.92847" lon="8.69106">
        <ele>1810</ele>
        <time>2021-08-07T07:06:38.606Z</time>
      </trkpt>
      <trkpt lat="46.92846" lon="8.69106">
        <ele>1810</ele>
        <time>2021-08-07T07:06:39.605Z</time>
      </trkpt>
      <trkpt lat="46.92845" lon="8.69107">
        <ele>1810</ele>
        <time>2021-08-07T07:06:40.606Z</time>
      </trkpt>
      <trkpt lat="46.92843" lon="8.69107">
        <ele>1810</ele>
        <time>2021-08-07T07:06:41.606Z</time>
      </trkpt>
      <trkpt lat="46.92842" lon="8.69107">
        <ele>1810</ele>
        <time>2021-08-07T07:06:42.606Z</time>
      </trkpt>
      <trkpt lat="46.92841" lon="8.69108">
        <ele>1810</ele>
        <time>2021-08-07T07:06:43.605Z</time>
      </trkpt>
      <trkpt lat="46.9284" lon="8.69109">
        <ele>1810</ele>
        <time>2021-08-07T07:06:44.606Z</time>
      </trkpt>
      <trkpt lat="46.92839" lon="8.6911">
        <ele>1810</ele>
        <time>2021-08-07T07:06:45.606Z</time>
      </trkpt>
      <trkpt lat="46.92838" lon="8.69111">
        <ele>1810</ele>
        <time>2021-08-07T07:06:46.606Z</time>
      </trkpt>
      <trkpt lat="46.92838" lon="8.69112">
        <ele>1810</ele>
        <time>2021-08-07T07:06:47.606Z</time>
      </trkpt>
      <trkpt lat="46.92837" lon="8.69111">
        <ele>1810</ele>
        <time>2021-08-07T07:06:48.606Z</time>
      </trkpt>
      <trkpt lat="46.92835" lon="8.69112">
        <ele>1810</ele>
        <time>2021-08-07T07:06:49.605Z</time>
      </trkpt>
      <trkpt lat="46.92834" lon="8.69112">
        <ele>1810</ele>
        <time>2021-08-07T07:06:50.606Z</time>
      </trkpt>
      <trkpt lat="46.92833" lon="8.69113">
        <ele>1810</ele>
        <time>2021-08-07T07:06:51.605Z</time>
      </trkpt>
      <trkpt lat="46.92832" lon="8.69113">
        <ele>1810</ele>
        <time>2021-08-07T07:06:52.605Z</time>
      </trkpt>
      <trkpt lat="46.92831" lon="8.69114">
        <ele>1809</ele>
        <time>2021-08-07T07:06:53.605Z</time>
      </trkpt>
      <trkpt lat="46.92831" lon="8.69115">
        <ele>1809</ele>
        <time>2021-08-07T07:06:54.605Z</time>
      </trkpt>
      <trkpt lat="46.9283" lon="8.69115">
        <ele>1809</ele>
        <time>2021-08-07T07:06:55.606Z</time>
      </trkpt>
      <trkpt lat="46.92829" lon="8.69116">
        <ele>1809</ele>
        <time>2021-08-07T07:06:56.605Z</time>
      </trkpt>
      <trkpt lat="46.92828" lon="8.69116">
        <ele>1809</ele>
        <time>2021-08-07T07:06:57.605Z</time>
      </trkpt>
      <trkpt lat="46.92827" lon="8.69116">
        <ele>1809</ele>
        <time>2021-08-07T07:06:58.605Z</time>
      </trkpt>
      <trkpt lat="46.92827" lon="8.69117">
        <ele>1809</ele>
        <time>2021-08-07T07:06:59.605Z</time>
      </trkpt>
      <trkpt lat="46.92826" lon="8.69117">
        <ele>1809</ele>
        <time>2021-08-07T07:07:00.605Z</time>
      </trkpt>
      <trkpt lat="46.92825" lon="8.69118">
        <ele>1809</ele>
        <time>2021-08-07T07:07:01.605Z</time>
      </trkpt>
      <trkpt lat="46.92824" lon="8.69118">
        <ele>1809</ele>
        <time>2021-08-07T07:07:02.605Z</time>
      </trkpt>
      <trkpt lat="46.92823" lon="8.69118">
        <ele>1809</ele>
        <time>2021-08-07T07:07:03.605Z</time>
      </trkpt>
      <trkpt lat="46.92822" lon="8.69118">
        <ele>1809</ele>
        <time>2021-08-07T07:07:04.606Z</time>
      </trkpt>
      <trkpt lat="46.92821" lon="8.69119">
        <ele>1809</ele>
        <time>2021-08-07T07:07:05.606Z</time>
      </trkpt>
      <trkpt lat="46.9282" lon="8.69119">
        <ele>1809</ele>
        <time>2021-08-07T07:07:06.605Z</time>
      </trkpt>
      <trkpt lat="46.92819" lon="8.6912">
        <ele>1809</ele>
        <time>2021-08-07T07:07:07.606Z</time>
      </trkpt>
      <trkpt lat="46.92818" lon="8.6912">
        <ele>1810</ele>
        <time>2021-08-07T07:07:08.606Z</time>
      </trkpt>
      <trkpt lat="46.92816" lon="8.6912">
        <ele>1810</ele>
        <time>2021-08-07T07:07:09.606Z</time>
      </trkpt>
      <trkpt lat="46.92815" lon="8.69121">
        <ele>1810</ele>
        <time>2021-08-07T07:07:10.605Z</time>
      </trkpt>
      <trkpt lat="46.92814" lon="8.69121">
        <ele>1810</ele>
        <time>2021-08-07T07:07:11.605Z</time>
      </trkpt>
      <trkpt lat="46.92813" lon="8.69122">
        <ele>1810</ele>
        <time>2021-08-07T07:07:12.606Z</time>
      </trkpt>
      <trkpt lat="46.92813" lon="8.69123">
        <ele>1810</ele>
        <time>2021-08-07T07:07:13.605Z</time>
      </trkpt>
      <trkpt lat="46.92812" lon="8.69124">
        <ele>1809</ele>
        <time>2021-08-07T07:07:14.605Z</time>
      </trkpt>
      <trkpt lat="46.92811" lon="8.69125">
        <ele>1809</ele>
        <time>2021-08-07T07:07:15.606Z</time>
      </trkpt>
      <trkpt lat="46.92811" lon="8.69125">
        <ele>1810</ele>
        <time>2021-08-07T07:07:16.605Z</time>
      </trkpt>
      <trkpt lat="46.92809" lon="8.69126">
        <ele>1810</ele>
        <time>2021-08-07T07:07:17.606Z</time>
      </trkpt>
      <trkpt lat="46.92808" lon="8.69126">
        <ele>1810</ele>
        <time>2021-08-07T07:07:18.605Z</time>
      </trkpt>
      <trkpt lat="46.92807" lon="8.69126">
        <ele>1810</ele>
        <time>2021-08-07T07:07:19.606Z</time>
      </trkpt>
      <trkpt lat="46.92806" lon="8.69127">
        <ele>1810</ele>
        <time>2021-08-07T07:07:20.605Z</time>
      </trkpt>
      <trkpt lat="46.92805" lon="8.69127">
        <ele>1810</ele>
        <time>2021-08-07T07:07:21.606Z</time>
      </trkpt>
      <trkpt lat="46.92805" lon="8.69128">
        <ele>1810</ele>
        <time>2021-08-07T07:07:22.606Z</time>
      </trkpt>
      <trkpt lat="46.92804" lon="8.69128">
        <ele>1810</ele>
        <time>2021-08-07T07:07:23.605Z</time>
      </trkpt>
      <trkpt lat="46.92803" lon="8.69129">
        <ele>1811</ele>
        <time>2021-08-07T07:07:24.605Z</time>
      </trkpt>
      <trkpt lat="46.92802" lon="8.69129">
        <ele>1811</ele>
        <time>2021-08-07T07:07:25.606Z</time>
      </trkpt>
      <trkpt lat="46.92801" lon="8.6913">
        <ele>1811</ele>
        <time>2021-08-07T07:07:26.605Z</time>
      </trkpt>
      <trkpt lat="46.928" lon="8.69131">
        <ele>1812</ele>
        <time>2021-08-07T07:07:27.605Z</time>
      </trkpt>
      <trkpt lat="46.92799" lon="8.69131">
        <ele>1812</ele>
        <time>2021-08-07T07:07:28.605Z</time>
      </trkpt>
      <trkpt lat="46.92798" lon="8.69131">
        <ele>1812</ele>
        <time>2021-08-07T07:07:29.605Z</time>
      </trkpt>
      <trkpt lat="46.92797" lon="8.69132">
        <ele>1812</ele>
        <time>2021-08-07T07:07:30.605Z</time>
      </trkpt>
      <trkpt lat="46.92796" lon="8.69133">
        <ele>1812</ele>
        <time>2021-08-07T07:07:31.605Z</time>
      </trkpt>
      <trkpt lat="46.92795" lon="8.69133">
        <ele>1812</ele>
        <time>2021-08-07T07:07:32.605Z</time>
      </trkpt>
      <trkpt lat="46.92795" lon="8.69134">
        <ele>1813</ele>
        <time>2021-08-07T07:07:33.605Z</time>
      </trkpt>
      <trkpt lat="46.92794" lon="8.69135">
        <ele>1813</ele>
        <time>2021-08-07T07:07:34.605Z</time>
      </trkpt>
      <trkpt lat="46.92793" lon="8.69135">
        <ele>1813</ele>
        <time>2021-08-07T07:07:35.605Z</time>
      </trkpt>
      <trkpt lat="46.92792" lon="8.69136">
        <ele>1814</ele>
        <time>2021-08-07T07:07:36.605Z</time>
      </trkpt>
      <trkpt lat="46.92791" lon="8.69136">
        <ele>1814</ele>
        <time>2021-08-07T07:07:37.605Z</time>
      </trkpt>
      <trkpt lat="46.92791" lon="8.69137">
        <ele>1814</ele>
        <time>2021-08-07T07:07:38.605Z</time>
      </trkpt>
      <trkpt lat="46.9279" lon="8.69137">
        <ele>1813</ele>
        <time>2021-08-07T07:07:39.605Z</time>
      </trkpt>
      <trkpt lat="46.9279" lon="8.69138">
        <ele>1813</ele>
        <time>2021-08-07T07:07:40.605Z</time>
      </trkpt>
      <trkpt lat="46.9279" lon="8.69138">
        <ele>1813</ele>
        <time>2021-08-07T07:07:41.605Z</time>
      </trkpt>
      <trkpt lat="46.92789" lon="8.69138">
        <ele>1813</ele>
        <time>2021-08-07T07:07:42.606Z</time>
      </trkpt>
      <trkpt lat="46.92788" lon="8.69139">
        <ele>1814</ele>
        <time>2021-08-07T07:07:43.606Z</time>
      </trkpt>
      <trkpt lat="46.92788" lon="8.69139">
        <ele>1814</ele>
        <time>2021-08-07T07:07:44.606Z</time>
      </trkpt>
      <trkpt lat="46.92788" lon="8.6914">
        <ele>1814</ele>
        <time>2021-08-07T07:07:45.607Z</time>
      </trkpt>
      <trkpt lat="46.92787" lon="8.69141">
        <ele>1814</ele>
        <time>2021-08-07T07:07:46.606Z</time>
      </trkpt>
      <trkpt lat="46.92787" lon="8.69141">
        <ele>1814</ele>
        <time>2021-08-07T07:07:47.606Z</time>
      </trkpt>
      <trkpt lat="46.92785" lon="8.69141">
        <ele>1814</ele>
        <time>2021-08-07T07:07:48.606Z</time>
      </trkpt>
      <trkpt lat="46.92785" lon="8.69142">
        <ele>1815</ele>
        <time>2021-08-07T07:07:49.606Z</time>
      </trkpt>
      <trkpt lat="46.92784" lon="8.69143">
        <ele>1815</ele>
        <time>2021-08-07T07:07:50.606Z</time>
      </trkpt>
      <trkpt lat="46.92784" lon="8.69144">
        <ele>1815</ele>
        <time>2021-08-07T07:07:51.606Z</time>
      </trkpt>
      <trkpt lat="46.92783" lon="8.69145">
        <ele>1815</ele>
        <time>2021-08-07T07:07:52.606Z</time>
      </trkpt>
      <trkpt lat="46.92782" lon="8.69145">
        <ele>1815</ele>
        <time>2021-08-07T07:07:53.606Z</time>
      </trkpt>
      <trkpt lat="46.9278" lon="8.69146">
        <ele>1815</ele>
        <time>2021-08-07T07:07:54.606Z</time>
      </trkpt>
      <trkpt lat="46.9278" lon="8.69148">
        <ele>1815</ele>
        <time>2021-08-07T07:07:55.607Z</time>
      </trkpt>
      <trkpt lat="46.92779" lon="8.69149">
        <ele>1816</ele>
        <time>2021-08-07T07:07:56.607Z</time>
      </trkpt>
      <trkpt lat="46.92778" lon="8.69151">
        <ele>1816</ele>
        <time>2021-08-07T07:07:57.606Z</time>
      </trkpt>
      <trkpt lat="46.92777" lon="8.69153">
        <ele>1817</ele>
        <time>2021-08-07T07:07:58.607Z</time>
      </trkpt>
      <trkpt lat="46.92776" lon="8.69154">
        <ele>1817</ele>
        <time>2021-08-07T07:07:59.606Z</time>
      </trkpt>
      <trkpt lat="46.92776" lon="8.69155">
        <ele>1817</ele>
        <time>2021-08-07T07:08:00.607Z</time>
      </trkpt>
      <trkpt lat="46.92775" lon="8.69156">
        <ele>1818</ele>
        <time>2021-08-07T07:08:01.606Z</time>
      </trkpt>
      <trkpt lat="46.92774" lon="8.69157">
        <ele>1818</ele>
        <time>2021-08-07T07:08:02.607Z</time>
      </trkpt>
      <trkpt lat="46.92773" lon="8.69157">
        <ele>1818</ele>
        <time>2021-08-07T07:08:03.607Z</time>
      </trkpt>
      <trkpt lat="46.92772" lon="8.69157">
        <ele>1818</ele>
        <time>2021-08-07T07:08:04.607Z</time>
      </trkpt>
      <trkpt lat="46.92771" lon="8.69157">
        <ele>1819</ele>
        <time>2021-08-07T07:08:05.606Z</time>
      </trkpt>
      <trkpt lat="46.92771" lon="8.69158">
        <ele>1819</ele>
        <time>2021-08-07T07:08:06.606Z</time>
      </trkpt>
      <trkpt lat="46.9277" lon="8.69159">
        <ele>1820</ele>
        <time>2021-08-07T07:08:07.607Z</time>
      </trkpt>
      <trkpt lat="46.92771" lon="8.6916">
        <ele>1820</ele>
        <time>2021-08-07T07:08:08.607Z</time>
      </trkpt>
      <trkpt lat="46.92771" lon="8.69161">
        <ele>1820</ele>
        <time>2021-08-07T07:08:09.606Z</time>
      </trkpt>
      <trkpt lat="46.92771" lon="8.69162">
        <ele>1820</ele>
        <time>2021-08-07T07:08:10.606Z</time>
      </trkpt>
      <trkpt lat="46.9277" lon="8.69162">
        <ele>1820</ele>
        <time>2021-08-07T07:08:11.606Z</time>
      </trkpt>
      <trkpt lat="46.9277" lon="8.69163">
        <ele>1820</ele>
        <time>2021-08-07T07:08:12.606Z</time>
      </trkpt>
      <trkpt lat="46.92769" lon="8.69163">
        <ele>1820</ele>
        <time>2021-08-07T07:08:13.606Z</time>
      </trkpt>
      <trkpt lat="46.92769" lon="8.69164">
        <ele>1820</ele>
        <time>2021-08-07T07:08:14.606Z</time>
      </trkpt>
      <trkpt lat="46.92768" lon="8.69164">
        <ele>1819</ele>
        <time>2021-08-07T07:08:15.606Z</time>
      </trkpt>
      <trkpt lat="46.92768" lon="8.69165">
        <ele>1819</ele>
        <time>2021-08-07T07:08:16.606Z</time>
      </trkpt>
      <trkpt lat="46.92767" lon="8.69166">
        <ele>1819</ele>
        <time>2021-08-07T07:08:17.607Z</time>
      </trkpt>
      <trkpt lat="46.92767" lon="8.69167">
        <ele>1819</ele>
        <time>2021-08-07T07:08:18.607Z</time>
      </trkpt>
      <trkpt lat="46.92768" lon="8.69169">
        <ele>1819</ele>
        <time>2021-08-07T07:08:19.606Z</time>
      </trkpt>
      <trkpt lat="46.92767" lon="8.69169">
        <ele>1819</ele>
        <time>2021-08-07T07:08:20.606Z</time>
      </trkpt>
      <trkpt lat="46.92766" lon="8.6917">
        <ele>1819</ele>
        <time>2021-08-07T07:08:21.606Z</time>
      </trkpt>
      <trkpt lat="46.92766" lon="8.69171">
        <ele>1819</ele>
        <time>2021-08-07T07:08:22.607Z</time>
      </trkpt>
      <trkpt lat="46.92765" lon="8.69172">
        <ele>1819</ele>
        <time>2021-08-07T07:08:23.606Z</time>
      </trkpt>
      <trkpt lat="46.92764" lon="8.69172">
        <ele>1819</ele>
        <time>2021-08-07T07:08:24.607Z</time>
      </trkpt>
      <trkpt lat="46.92764" lon="8.69173">
        <ele>1819</ele>
        <time>2021-08-07T07:08:25.607Z</time>
      </trkpt>
      <trkpt lat="46.92764" lon="8.69173">
        <ele>1819</ele>
        <time>2021-08-07T07:08:26.607Z</time>
      </trkpt>
      <trkpt lat="46.92763" lon="8.69174">
        <ele>1819</ele>
        <time>2021-08-07T07:08:27.606Z</time>
      </trkpt>
      <trkpt lat="46.92763" lon="8.69175">
        <ele>1819</ele>
        <time>2021-08-07T07:08:28.606Z</time>
      </trkpt>
      <trkpt lat="46.92762" lon="8.69176">
        <ele>1819</ele>
        <time>2021-08-07T07:08:29.607Z</time>
      </trkpt>
      <trkpt lat="46.92762" lon="8.69178">
        <ele>1819</ele>
        <time>2021-08-07T07:08:30.607Z</time>
      </trkpt>
      <trkpt lat="46.92762" lon="8.69179">
        <ele>1819</ele>
        <time>2021-08-07T07:08:31.606Z</time>
      </trkpt>
      <trkpt lat="46.92761" lon="8.69179">
        <ele>1820</ele>
        <time>2021-08-07T07:08:32.606Z</time>
      </trkpt>
      <trkpt lat="46.9276" lon="8.69179">
        <ele>1820</ele>
        <time>2021-08-07T07:08:33.606Z</time>
      </trkpt>
      <trkpt lat="46.92759" lon="8.69179">
        <ele>1820</ele>
        <time>2021-08-07T07:08:34.606Z</time>
      </trkpt>
      <trkpt lat="46.92758" lon="8.6918">
        <ele>1821</ele>
        <time>2021-08-07T07:08:35.607Z</time>
      </trkpt>
      <trkpt lat="46.92758" lon="8.6918">
        <ele>1821</ele>
        <time>2021-08-07T07:08:36.607Z</time>
      </trkpt>
      <trkpt lat="46.92758" lon="8.6918">
        <ele>1821</ele>
        <time>2021-08-07T07:08:37.607Z</time>
      </trkpt>
      <trkpt lat="46.92758" lon="8.69181">
        <ele>1821</ele>
        <time>2021-08-07T07:08:38.606Z</time>
      </trkpt>
      <trkpt lat="46.92757" lon="8.69181">
        <ele>1821</ele>
        <time>2021-08-07T07:08:39.606Z</time>
      </trkpt>
      <trkpt lat="46.92757" lon="8.69181">
        <ele>1821</ele>
        <time>2021-08-07T07:08:40.606Z</time>
      </trkpt>
      <trkpt lat="46.92757" lon="8.69183">
        <ele>1821</ele>
        <time>2021-08-07T07:08:41.607Z</time>
      </trkpt>
      <trkpt lat="46.92757" lon="8.69183">
        <ele>1821</ele>
        <time>2021-08-07T07:08:42.606Z</time>
      </trkpt>
      <trkpt lat="46.92757" lon="8.69183">
        <ele>1821</ele>
        <time>2021-08-07T07:08:43.607Z</time>
      </trkpt>
      <trkpt lat="46.92757" lon="8.69184">
        <ele>1820</ele>
        <time>2021-08-07T07:08:44.606Z</time>
      </trkpt>
      <trkpt lat="46.92758" lon="8.69184">
        <ele>1820</ele>
        <time>2021-08-07T07:08:45.606Z</time>
      </trkpt>
      <trkpt lat="46.92757" lon="8.69185">
        <ele>1819</ele>
        <time>2021-08-07T07:08:46.606Z</time>
      </trkpt>
      <trkpt lat="46.92758" lon="8.69186">
        <ele>1819</ele>
        <time>2021-08-07T07:08:47.606Z</time>
      </trkpt>
      <trkpt lat="46.92757" lon="8.69186">
        <ele>1819</ele>
        <time>2021-08-07T07:08:48.607Z</time>
      </trkpt>
      <trkpt lat="46.92756" lon="8.69186">
        <ele>1819</ele>
        <time>2021-08-07T07:08:49.606Z</time>
      </trkpt>
      <trkpt lat="46.92755" lon="8.69187">
        <ele>1819</ele>
        <time>2021-08-07T07:08:50.607Z</time>
      </trkpt>
      <trkpt lat="46.92754" lon="8.69187">
        <ele>1818</ele>
        <time>2021-08-07T07:08:51.606Z</time>
      </trkpt>
      <trkpt lat="46.92754" lon="8.69187">
        <ele>1818</ele>
        <time>2021-08-07T07:08:52.607Z</time>
      </trkpt>
      <trkpt lat="46.92753" lon="8.69188">
        <ele>1819</ele>
        <time>2021-08-07T07:08:53.606Z</time>
      </trkpt>
      <trkpt lat="46.92753" lon="8.69188">
        <ele>1819</ele>
        <time>2021-08-07T07:08:54.606Z</time>
      </trkpt>
      <trkpt lat="46.92752" lon="8.69189">
        <ele>1819</ele>
        <time>2021-08-07T07:08:55.606Z</time>
      </trkpt>
      <trkpt lat="46.92752" lon="8.69189">
        <ele>1819</ele>
        <time>2021-08-07T07:08:56.607Z</time>
      </trkpt>
      <trkpt lat="46.92751" lon="8.6919">
        <ele>1820</ele>
        <time>2021-08-07T07:08:57.606Z</time>
      </trkpt>
      <trkpt lat="46.92751" lon="8.6919">
        <ele>1820</ele>
        <time>2021-08-07T07:08:58.606Z</time>
      </trkpt>
      <trkpt lat="46.9275" lon="8.69191">
        <ele>1820</ele>
        <time>2021-08-07T07:08:59.607Z</time>
      </trkpt>
      <trkpt lat="46.9275" lon="8.69192">
        <ele>1820</ele>
        <time>2021-08-07T07:09:00.607Z</time>
      </trkpt>
      <trkpt lat="46.92749" lon="8.69192">
        <ele>1820</ele>
        <time>2021-08-07T07:09:01.606Z</time>
      </trkpt>
      <trkpt lat="46.92748" lon="8.69193">
        <ele>1820</ele>
        <time>2021-08-07T07:09:02.606Z</time>
      </trkpt>
      <trkpt lat="46.92747" lon="8.69193">
        <ele>1820</ele>
        <time>2021-08-07T07:09:03.606Z</time>
      </trkpt>
      <trkpt lat="46.92747" lon="8.69194">
        <ele>1820</ele>
        <time>2021-08-07T07:09:04.606Z</time>
      </trkpt>
      <trkpt lat="46.92746" lon="8.69195">
        <ele>1820</ele>
        <time>2021-08-07T07:09:05.606Z</time>
      </trkpt>
      <trkpt lat="46.92746" lon="8.69196">
        <ele>1820</ele>
        <time>2021-08-07T07:09:06.606Z</time>
      </trkpt>
      <trkpt lat="46.92745" lon="8.69196">
        <ele>1821</ele>
        <time>2021-08-07T07:09:07.607Z</time>
      </trkpt>
      <trkpt lat="46.92745" lon="8.69197">
        <ele>1821</ele>
        <time>2021-08-07T07:09:08.606Z</time>
      </trkpt>
      <trkpt lat="46.92745" lon="8.69198">
        <ele>1822</ele>
        <time>2021-08-07T07:09:09.607Z</time>
      </trkpt>
      <trkpt lat="46.92745" lon="8.69198">
        <ele>1822</ele>
        <time>2021-08-07T07:09:10.606Z</time>
      </trkpt>
      <trkpt lat="46.92745" lon="8.692">
        <ele>1823</ele>
        <time>2021-08-07T07:09:11.606Z</time>
      </trkpt>
      <trkpt lat="46.92745" lon="8.692">
        <ele>1823</ele>
        <time>2021-08-07T07:09:12.606Z</time>
      </trkpt>
      <trkpt lat="46.92744" lon="8.69201">
        <ele>1823</ele>
        <time>2021-08-07T07:09:13.607Z</time>
      </trkpt>
      <trkpt lat="46.92744" lon="8.69202">
        <ele>1823</ele>
        <time>2021-08-07T07:09:14.607Z</time>
      </trkpt>
      <trkpt lat="46.92744" lon="8.69202">
        <ele>1823</ele>
        <time>2021-08-07T07:09:15.606Z</time>
      </trkpt>
      <trkpt lat="46.92743" lon="8.69203">
        <ele>1823</ele>
        <time>2021-08-07T07:09:16.606Z</time>
      </trkpt>
      <trkpt lat="46.92743" lon="8.69203">
        <ele>1823</ele>
        <time>2021-08-07T07:09:17.606Z</time>
      </trkpt>
      <trkpt lat="46.92742" lon="8.69203">
        <ele>1824</ele>
        <time>2021-08-07T07:09:18.607Z</time>
      </trkpt>
      <trkpt lat="46.92742" lon="8.69204">
        <ele>1824</ele>
        <time>2021-08-07T07:09:19.606Z</time>
      </trkpt>
      <trkpt lat="46.92742" lon="8.69204">
        <ele>1824</ele>
        <time>2021-08-07T07:09:20.607Z</time>
      </trkpt>
      <trkpt lat="46.92741" lon="8.69205">
        <ele>1824</ele>
        <time>2021-08-07T07:09:21.607Z</time>
      </trkpt>
      <trkpt lat="46.92741" lon="8.69205">
        <ele>1825</ele>
        <time>2021-08-07T07:09:22.607Z</time>
      </trkpt>
      <trkpt lat="46.9274" lon="8.69205">
        <ele>1825</ele>
        <time>2021-08-07T07:09:23.606Z</time>
      </trkpt>
      <trkpt lat="46.92739" lon="8.69205">
        <ele>1825</ele>
        <time>2021-08-07T07:09:24.606Z</time>
      </trkpt>
      <trkpt lat="46.92739" lon="8.69205">
        <ele>1825</ele>
        <time>2021-08-07T07:09:25.607Z</time>
      </trkpt>
      <trkpt lat="46.92738" lon="8.69205">
        <ele>1824</ele>
        <time>2021-08-07T07:09:26.606Z</time>
      </trkpt>
      <trkpt lat="46.92737" lon="8.69205">
        <ele>1824</ele>
        <time>2021-08-07T07:09:27.607Z</time>
      </trkpt>
      <trkpt lat="46.92737" lon="8.69205">
        <ele>1824</ele>
        <time>2021-08-07T07:09:28.606Z</time>
      </trkpt>
      <trkpt lat="46.92736" lon="8.69206">
        <ele>1824</ele>
        <time>2021-08-07T07:09:29.606Z</time>
      </trkpt>
      <trkpt lat="46.92735" lon="8.69206">
        <ele>1824</ele>
        <time>2021-08-07T07:09:30.606Z</time>
      </trkpt>
      <trkpt lat="46.92735" lon="8.69206">
        <ele>1825</ele>
        <time>2021-08-07T07:09:31.606Z</time>
      </trkpt>
      <trkpt lat="46.92735" lon="8.69208">
        <ele>1825</ele>
        <time>2021-08-07T07:09:32.606Z</time>
      </trkpt>
      <trkpt lat="46.92735" lon="8.69209">
        <ele>1825</ele>
        <time>2021-08-07T07:09:33.606Z</time>
      </trkpt>
      <trkpt lat="46.92734" lon="8.69209">
        <ele>1825</ele>
        <time>2021-08-07T07:09:34.606Z</time>
      </trkpt>
      <trkpt lat="46.92734" lon="8.6921">
        <ele>1826</ele>
        <time>2021-08-07T07:09:35.606Z</time>
      </trkpt>
      <trkpt lat="46.92734" lon="8.69212">
        <ele>1826</ele>
        <time>2021-08-07T07:09:36.606Z</time>
      </trkpt>
      <trkpt lat="46.92733" lon="8.69212">
        <ele>1826</ele>
        <time>2021-08-07T07:09:37.606Z</time>
      </trkpt>
      <trkpt lat="46.92732" lon="8.69212">
        <ele>1826</ele>
        <time>2021-08-07T07:09:38.606Z</time>
      </trkpt>
      <trkpt lat="46.92731" lon="8.69213">
        <ele>1827</ele>
        <time>2021-08-07T07:09:39.607Z</time>
      </trkpt>
      <trkpt lat="46.9273" lon="8.69213">
        <ele>1827</ele>
        <time>2021-08-07T07:09:40.606Z</time>
      </trkpt>
      <trkpt lat="46.92729" lon="8.69213">
        <ele>1827</ele>
        <time>2021-08-07T07:09:41.606Z</time>
      </trkpt>
      <trkpt lat="46.92728" lon="8.69214">
        <ele>1828</ele>
        <time>2021-08-07T07:09:42.607Z</time>
      </trkpt>
      <trkpt lat="46.92728" lon="8.69214">
        <ele>1828</ele>
        <time>2021-08-07T07:09:43.607Z</time>
      </trkpt>
      <trkpt lat="46.92727" lon="8.69215">
        <ele>1828</ele>
        <time>2021-08-07T07:09:44.606Z</time>
      </trkpt>
      <trkpt lat="46.92727" lon="8.69215">
        <ele>1828</ele>
        <time>2021-08-07T07:09:45.606Z</time>
      </trkpt>
      <trkpt lat="46.92727" lon="8.69215">
        <ele>1828</ele>
        <time>2021-08-07T07:09:46.606Z</time>
      </trkpt>
      <trkpt lat="46.92726" lon="8.69216">
        <ele>1828</ele>
        <time>2021-08-07T07:09:47.606Z</time>
      </trkpt>
      <trkpt lat="46.92726" lon="8.69216">
        <ele>1828</ele>
        <time>2021-08-07T07:09:48.606Z</time>
      </trkpt>
      <trkpt lat="46.92725" lon="8.69216">
        <ele>1828</ele>
        <time>2021-08-07T07:09:49.606Z</time>
      </trkpt>
      <trkpt lat="46.92725" lon="8.69217">
        <ele>1829</ele>
        <time>2021-08-07T07:09:50.607Z</time>
      </trkpt>
      <trkpt lat="46.92724" lon="8.69217">
        <ele>1829</ele>
        <time>2021-08-07T07:09:51.607Z</time>
      </trkpt>
      <trkpt lat="46.92723" lon="8.69217">
        <ele>1829</ele>
        <time>2021-08-07T07:09:52.607Z</time>
      </trkpt>
      <trkpt lat="46.92723" lon="8.69217">
        <ele>1829</ele>
        <time>2021-08-07T07:09:53.606Z</time>
      </trkpt>
      <trkpt lat="46.92722" lon="8.69217">
        <ele>1829</ele>
        <time>2021-08-07T07:09:54.607Z</time>
      </trkpt>
      <trkpt lat="46.92721" lon="8.69217">
        <ele>1829</ele>
        <time>2021-08-07T07:09:55.606Z</time>
      </trkpt>
      <trkpt lat="46.92719" lon="8.69216">
        <ele>1830</ele>
        <time>2021-08-07T07:09:56.606Z</time>
      </trkpt>
      <trkpt lat="46.92718" lon="8.69217">
        <ele>1830</ele>
        <time>2021-08-07T07:09:57.607Z</time>
      </trkpt>
      <trkpt lat="46.92718" lon="8.69217">
        <ele>1830</ele>
        <time>2021-08-07T07:09:58.607Z</time>
      </trkpt>
      <trkpt lat="46.92717" lon="8.69218">
        <ele>1830</ele>
        <time>2021-08-07T07:09:59.607Z</time>
      </trkpt>
      <trkpt lat="46.92717" lon="8.69219">
        <ele>1830</ele>
        <time>2021-08-07T07:10:00.607Z</time>
      </trkpt>
      <trkpt lat="46.92717" lon="8.69219">
        <ele>1830</ele>
        <time>2021-08-07T07:10:01.606Z</time>
      </trkpt>
      <trkpt lat="46.92716" lon="8.69219">
        <ele>1830</ele>
        <time>2021-08-07T07:10:02.606Z</time>
      </trkpt>
      <trkpt lat="46.92715" lon="8.69218">
        <ele>1830</ele>
        <time>2021-08-07T07:10:03.606Z</time>
      </trkpt>
      <trkpt lat="46.92714" lon="8.69217">
        <ele>1831</ele>
        <time>2021-08-07T07:10:04.607Z</time>
      </trkpt>
      <trkpt lat="46.92714" lon="8.69216">
        <ele>1831</ele>
        <time>2021-08-07T07:10:05.606Z</time>
      </trkpt>
      <trkpt lat="46.92715" lon="8.69219">
        <ele>1828</ele>
        <time>2021-08-07T07:10:06.606Z</time>
      </trkpt>
      <trkpt lat="46.92716" lon="8.69219">
        <ele>1825</ele>
        <time>2021-08-07T07:10:07.607Z</time>
      </trkpt>
      <trkpt lat="46.92716" lon="8.69219">
        <ele>1825</ele>
        <time>2021-08-07T07:10:08.607Z</time>
      </trkpt>
      <trkpt lat="46.92716" lon="8.69219">
        <ele>1825</ele>
        <time>2021-08-07T07:10:09.607Z</time>
      </trkpt>
      <trkpt lat="46.92716" lon="8.69219">
        <ele>1825</ele>
        <time>2021-08-07T07:10:10.607Z</time>
      </trkpt>
      <trkpt lat="46.92716" lon="8.69219">
        <ele>1825</ele>
        <time>2021-08-07T07:10:11.607Z</time>
      </trkpt>
      <trkpt lat="46.92718" lon="8.6922">
        <ele>1822</ele>
        <time>2021-08-07T07:10:12.608Z</time>
      </trkpt>
      <trkpt lat="46.92718" lon="8.69219">
        <ele>1822</ele>
        <time>2021-08-07T07:10:13.608Z</time>
      </trkpt>
      <trkpt lat="46.92719" lon="8.6922">
        <ele>1825</ele>
        <time>2021-08-07T07:10:14.609Z</time>
      </trkpt>
      <trkpt lat="46.92719" lon="8.6922">
        <ele>1825</ele>
        <time>2021-08-07T07:10:15.609Z</time>
      </trkpt>
      <trkpt lat="46.92719" lon="8.6922">
        <ele>1825</ele>
        <time>2021-08-07T07:10:16.609Z</time>
      </trkpt>
      <trkpt lat="46.92719" lon="8.6922">
        <ele>1826</ele>
        <time>2021-08-07T07:10:17.609Z</time>
      </trkpt>
      <trkpt lat="46.92718" lon="8.69218">
        <ele>1827</ele>
        <time>2021-08-07T07:10:18.610Z</time>
      </trkpt>
      <trkpt lat="46.92717" lon="8.69218">
        <ele>1827</ele>
        <time>2021-08-07T07:10:19.610Z</time>
      </trkpt>
      <trkpt lat="46.92717" lon="8.69217">
        <ele>1827</ele>
        <time>2021-08-07T07:10:20.610Z</time>
      </trkpt>
      <trkpt lat="46.92717" lon="8.69217">
        <ele>1827</ele>
        <time>2021-08-07T07:10:21.610Z</time>
      </trkpt>
      <trkpt lat="46.92717" lon="8.69217">
        <ele>1828</ele>
        <time>2021-08-07T07:10:22.609Z</time>
      </trkpt>
      <trkpt lat="46.92718" lon="8.69218">
        <ele>1829</ele>
        <time>2021-08-07T07:10:23.611Z</time>
      </trkpt>
      <trkpt lat="46.92717" lon="8.69217">
        <ele>1830</ele>
        <time>2021-08-07T07:10:24.611Z</time>
      </trkpt>
      <trkpt lat="46.92717" lon="8.69217">
        <ele>1831</ele>
        <time>2021-08-07T07:10:25.611Z</time>
      </trkpt>
      <trkpt lat="46.92717" lon="8.69217">
        <ele>1832</ele>
        <time>2021-08-07T07:10:26.611Z</time>
      </trkpt>
      <trkpt lat="46.92717" lon="8.69217">
        <ele>1832</ele>
        <time>2021-08-07T07:10:27.611Z</time>
      </trkpt>
      <trkpt lat="46.92716" lon="8.69217">
        <ele>1832</ele>
        <time>2021-08-07T07:10:28.611Z</time>
      </trkpt>
      <trkpt lat="46.92717" lon="8.69218">
        <ele>1832</ele>
        <time>2021-08-07T07:10:29.611Z</time>
      </trkpt>
      <trkpt lat="46.92717" lon="8.69218">
        <ele>1832</ele>
        <time>2021-08-07T07:10:30.611Z</time>
      </trkpt>
      <trkpt lat="46.92717" lon="8.69218">
        <ele>1832</ele>
        <time>2021-08-07T07:10:31.610Z</time>
      </trkpt>
      <trkpt lat="46.92718" lon="8.69218">
        <ele>1831</ele>
        <time>2021-08-07T07:10:32.611Z</time>
      </trkpt>
      <trkpt lat="46.92718" lon="8.69219">
        <ele>1831</ele>
        <time>2021-08-07T07:10:33.611Z</time>
      </trkpt>
      <trkpt lat="46.92719" lon="8.69219">
        <ele>1831</ele>
        <time>2021-08-07T07:10:34.611Z</time>
      </trkpt>
      <trkpt lat="46.92719" lon="8.69219">
        <ele>1831</ele>
        <time>2021-08-07T07:10:35.611Z</time>
      </trkpt>
      <trkpt lat="46.9272" lon="8.6922">
        <ele>1831</ele>
        <time>2021-08-07T07:10:36.611Z</time>
      </trkpt>
      <trkpt lat="46.92719" lon="8.69221">
        <ele>1831</ele>
        <time>2021-08-07T07:10:37.611Z</time>
      </trkpt>
      <trkpt lat="46.92718" lon="8.69221">
        <ele>1830</ele>
        <time>2021-08-07T07:10:38.611Z</time>
      </trkpt>
      <trkpt lat="46.92717" lon="8.69221">
        <ele>1830</ele>
        <time>2021-08-07T07:10:39.611Z</time>
      </trkpt>
      <trkpt lat="46.92715" lon="8.6922">
        <ele>1830</ele>
        <time>2021-08-07T07:10:40.611Z</time>
      </trkpt>
      <trkpt lat="46.92713" lon="8.69218">
        <ele>1830</ele>
        <time>2021-08-07T07:10:41.610Z</time>
      </trkpt>
      <trkpt lat="46.92712" lon="8.69218">
        <ele>1829</ele>
        <time>2021-08-07T07:10:42.610Z</time>
      </trkpt>
      <trkpt lat="46.92711" lon="8.69219">
        <ele>1829</ele>
        <time>2021-08-07T07:10:43.610Z</time>
      </trkpt>
      <trkpt lat="46.9271" lon="8.69219">
        <ele>1829</ele>
        <time>2021-08-07T07:10:44.611Z</time>
      </trkpt>
      <trkpt lat="46.92709" lon="8.69219">
        <ele>1829</ele>
        <time>2021-08-07T07:10:45.610Z</time>
      </trkpt>
      <trkpt lat="46.92708" lon="8.6922">
        <ele>1829</ele>
        <time>2021-08-07T07:10:46.611Z</time>
      </trkpt>
      <trkpt lat="46.92707" lon="8.6922">
        <ele>1828</ele>
        <time>2021-08-07T07:10:47.611Z</time>
      </trkpt>
      <trkpt lat="46.92706" lon="8.69219">
        <ele>1828</ele>
        <time>2021-08-07T07:10:48.610Z</time>
      </trkpt>
      <trkpt lat="46.92705" lon="8.69219">
        <ele>1828</ele>
        <time>2021-08-07T07:10:49.611Z</time>
      </trkpt>
      <trkpt lat="46.92703" lon="8.69217">
        <ele>1828</ele>
        <time>2021-08-07T07:10:50.611Z</time>
      </trkpt>
      <trkpt lat="46.92702" lon="8.69216">
        <ele>1828</ele>
        <time>2021-08-07T07:10:51.611Z</time>
      </trkpt>
      <trkpt lat="46.927" lon="8.69216">
        <ele>1828</ele>
        <time>2021-08-07T07:10:52.610Z</time>
      </trkpt>
      <trkpt lat="46.92699" lon="8.69215">
        <ele>1827</ele>
        <time>2021-08-07T07:10:53.611Z</time>
      </trkpt>
      <trkpt lat="46.92699" lon="8.69215">
        <ele>1827</ele>
        <time>2021-08-07T07:10:54.611Z</time>
      </trkpt>
      <trkpt lat="46.92698" lon="8.69215">
        <ele>1827</ele>
        <time>2021-08-07T07:10:55.610Z</time>
      </trkpt>
      <trkpt lat="46.92698" lon="8.69215">
        <ele>1826</ele>
        <time>2021-08-07T07:10:56.610Z</time>
      </trkpt>
      <trkpt lat="46.92698" lon="8.69215">
        <ele>1826</ele>
        <time>2021-08-07T07:10:57.611Z</time>
      </trkpt>
      <trkpt lat="46.92697" lon="8.69215">
        <ele>1826</ele>
        <time>2021-08-07T07:10:58.611Z</time>
      </trkpt>
      <trkpt lat="46.92696" lon="8.69214">
        <ele>1826</ele>
        <time>2021-08-07T07:10:59.611Z</time>
      </trkpt>
      <trkpt lat="46.92695" lon="8.69214">
        <ele>1826</ele>
        <time>2021-08-07T07:11:00.611Z</time>
      </trkpt>
      <trkpt lat="46.92694" lon="8.69213">
        <ele>1826</ele>
        <time>2021-08-07T07:11:01.610Z</time>
      </trkpt>
      <trkpt lat="46.92693" lon="8.69213">
        <ele>1826</ele>
        <time>2021-08-07T07:11:02.611Z</time>
      </trkpt>
      <trkpt lat="46.92692" lon="8.69213">
        <ele>1826</ele>
        <time>2021-08-07T07:11:03.611Z</time>
      </trkpt>
      <trkpt lat="46.92692" lon="8.69213">
        <ele>1825</ele>
        <time>2021-08-07T07:11:04.611Z</time>
      </trkpt>
      <trkpt lat="46.92691" lon="8.69213">
        <ele>1825</ele>
        <time>2021-08-07T07:11:05.611Z</time>
      </trkpt>
      <trkpt lat="46.9269" lon="8.69212">
        <ele>1825</ele>
        <time>2021-08-07T07:11:06.611Z</time>
      </trkpt>
      <trkpt lat="46.92689" lon="8.69212">
        <ele>1825</ele>
        <time>2021-08-07T07:11:07.611Z</time>
      </trkpt>
      <trkpt lat="46.92687" lon="8.69212">
        <ele>1825</ele>
        <time>2021-08-07T07:11:08.611Z</time>
      </trkpt>
      <trkpt lat="46.92686" lon="8.69212">
        <ele>1825</ele>
        <time>2021-08-07T07:11:09.611Z</time>
      </trkpt>
      <trkpt lat="46.92685" lon="8.69211">
        <ele>1825</ele>
        <time>2021-08-07T07:11:10.610Z</time>
      </trkpt>
      <trkpt lat="46.92684" lon="8.69211">
        <ele>1825</ele>
        <time>2021-08-07T07:11:11.611Z</time>
      </trkpt>
      <trkpt lat="46.92683" lon="8.69211">
        <ele>1825</ele>
        <time>2021-08-07T07:11:12.611Z</time>
      </trkpt>
      <trkpt lat="46.92682" lon="8.69211">
        <ele>1825</ele>
        <time>2021-08-07T07:11:13.611Z</time>
      </trkpt>
      <trkpt lat="46.92681" lon="8.69211">
        <ele>1825</ele>
        <time>2021-08-07T07:11:14.610Z</time>
      </trkpt>
      <trkpt lat="46.9268" lon="8.69212">
        <ele>1825</ele>
        <time>2021-08-07T07:11:15.611Z</time>
      </trkpt>
      <trkpt lat="46.92679" lon="8.69212">
        <ele>1826</ele>
        <time>2021-08-07T07:11:16.610Z</time>
      </trkpt>
      <trkpt lat="46.92678" lon="8.69212">
        <ele>1826</ele>
        <time>2021-08-07T07:11:17.611Z</time>
      </trkpt>
      <trkpt lat="46.92677" lon="8.69212">
        <ele>1826</ele>
        <time>2021-08-07T07:11:18.610Z</time>
      </trkpt>
      <trkpt lat="46.92675" lon="8.69212">
        <ele>1827</ele>
        <time>2021-08-07T07:11:19.611Z</time>
      </trkpt>
      <trkpt lat="46.92674" lon="8.69212">
        <ele>1827</ele>
        <time>2021-08-07T07:11:20.611Z</time>
      </trkpt>
      <trkpt lat="46.92673" lon="8.69213">
        <ele>1827</ele>
        <time>2021-08-07T07:11:21.610Z</time>
      </trkpt>
      <trkpt lat="46.92672" lon="8.69212">
        <ele>1827</ele>
        <time>2021-08-07T07:11:22.610Z</time>
      </trkpt>
      <trkpt lat="46.92671" lon="8.69212">
        <ele>1826</ele>
        <time>2021-08-07T07:11:23.611Z</time>
      </trkpt>
      <trkpt lat="46.92671" lon="8.69213">
        <ele>1826</ele>
        <time>2021-08-07T07:11:24.610Z</time>
      </trkpt>
      <trkpt lat="46.9267" lon="8.69214">
        <ele>1826</ele>
        <time>2021-08-07T07:11:25.610Z</time>
      </trkpt>
      <trkpt lat="46.92669" lon="8.69214">
        <ele>1826</ele>
        <time>2021-08-07T07:11:26.610Z</time>
      </trkpt>
      <trkpt lat="46.92669" lon="8.69214">
        <ele>1825</ele>
        <time>2021-08-07T07:11:27.611Z</time>
      </trkpt>
      <trkpt lat="46.92668" lon="8.69215">
        <ele>1825</ele>
        <time>2021-08-07T07:11:28.611Z</time>
      </trkpt>
      <trkpt lat="46.92667" lon="8.69215">
        <ele>1824</ele>
        <time>2021-08-07T07:11:29.611Z</time>
      </trkpt>
      <trkpt lat="46.92665" lon="8.69216">
        <ele>1824</ele>
        <time>2021-08-07T07:11:30.610Z</time>
      </trkpt>
      <trkpt lat="46.92665" lon="8.69216">
        <ele>1824</ele>
        <time>2021-08-07T07:11:31.611Z</time>
      </trkpt>
      <trkpt lat="46.92665" lon="8.69218">
        <ele>1824</ele>
        <time>2021-08-07T07:11:32.610Z</time>
      </trkpt>
      <trkpt lat="46.92665" lon="8.69219">
        <ele>1824</ele>
        <time>2021-08-07T07:11:33.611Z</time>
      </trkpt>
      <trkpt lat="46.92663" lon="8.69219">
        <ele>1824</ele>
        <time>2021-08-07T07:11:34.610Z</time>
      </trkpt>
      <trkpt lat="46.92662" lon="8.69219">
        <ele>1824</ele>
        <time>2021-08-07T07:11:35.610Z</time>
      </trkpt>
      <trkpt lat="46.92662" lon="8.6922">
        <ele>1825</ele>
        <time>2021-08-07T07:11:36.611Z</time>
      </trkpt>
      <trkpt lat="46.92661" lon="8.69221">
        <ele>1825</ele>
        <time>2021-08-07T07:11:37.610Z</time>
      </trkpt>
      <trkpt lat="46.9266" lon="8.69222">
        <ele>1825</ele>
        <time>2021-08-07T07:11:38.610Z</time>
      </trkpt>
      <trkpt lat="46.92659" lon="8.69222">
        <ele>1825</ele>
        <time>2021-08-07T07:11:39.610Z</time>
      </trkpt>
      <trkpt lat="46.92658" lon="8.69223">
        <ele>1825</ele>
        <time>2021-08-07T07:11:40.611Z</time>
      </trkpt>
      <trkpt lat="46.92657" lon="8.69223">
        <ele>1825</ele>
        <time>2021-08-07T07:11:41.611Z</time>
      </trkpt>
      <trkpt lat="46.92656" lon="8.69223">
        <ele>1824</ele>
        <time>2021-08-07T07:11:42.611Z</time>
      </trkpt>
      <trkpt lat="46.92655" lon="8.69224">
        <ele>1824</ele>
        <time>2021-08-07T07:11:43.610Z</time>
      </trkpt>
      <trkpt lat="46.92654" lon="8.69225">
        <ele>1824</ele>
        <time>2021-08-07T07:11:44.611Z</time>
      </trkpt>
      <trkpt lat="46.92653" lon="8.69226">
        <ele>1824</ele>
        <time>2021-08-07T07:11:45.610Z</time>
      </trkpt>
      <trkpt lat="46.92652" lon="8.69226">
        <ele>1824</ele>
        <time>2021-08-07T07:11:46.611Z</time>
      </trkpt>
      <trkpt lat="46.92651" lon="8.69227">
        <ele>1824</ele>
        <time>2021-08-07T07:11:47.610Z</time>
      </trkpt>
      <trkpt lat="46.9265" lon="8.69228">
        <ele>1824</ele>
        <time>2021-08-07T07:11:48.611Z</time>
      </trkpt>
      <trkpt lat="46.92649" lon="8.69228">
        <ele>1824</ele>
        <time>2021-08-07T07:11:49.610Z</time>
      </trkpt>
      <trkpt lat="46.92647" lon="8.69228">
        <ele>1823</ele>
        <time>2021-08-07T07:11:50.611Z</time>
      </trkpt>
      <trkpt lat="46.92646" lon="8.69229">
        <ele>1823</ele>
        <time>2021-08-07T07:11:51.610Z</time>
      </trkpt>
      <trkpt lat="46.92645" lon="8.69229">
        <ele>1823</ele>
        <time>2021-08-07T07:11:52.611Z</time>
      </trkpt>
      <trkpt lat="46.92644" lon="8.69229">
        <ele>1822</ele>
        <time>2021-08-07T07:11:53.611Z</time>
      </trkpt>
      <trkpt lat="46.92644" lon="8.69229">
        <ele>1822</ele>
        <time>2021-08-07T07:11:54.611Z</time>
      </trkpt>
      <trkpt lat="46.92644" lon="8.69229">
        <ele>1822</ele>
        <time>2021-08-07T07:11:55.611Z</time>
      </trkpt>
      <trkpt lat="46.92643" lon="8.69229">
        <ele>1821</ele>
        <time>2021-08-07T07:11:56.611Z</time>
      </trkpt>
      <trkpt lat="46.92642" lon="8.6923">
        <ele>1821</ele>
        <time>2021-08-07T07:11:57.611Z</time>
      </trkpt>
      <trkpt lat="46.92641" lon="8.6923">
        <ele>1821</ele>
        <time>2021-08-07T07:11:58.611Z</time>
      </trkpt>
      <trkpt lat="46.92641" lon="8.6923">
        <ele>1820</ele>
        <time>2021-08-07T07:11:59.610Z</time>
      </trkpt>
      <trkpt lat="46.92641" lon="8.69231">
        <ele>1820</ele>
        <time>2021-08-07T07:12:00.611Z</time>
      </trkpt>
      <trkpt lat="46.9264" lon="8.69231">
        <ele>1819</ele>
        <time>2021-08-07T07:12:01.611Z</time>
      </trkpt>
      <trkpt lat="46.9264" lon="8.69233">
        <ele>1819</ele>
        <time>2021-08-07T07:12:02.611Z</time>
      </trkpt>
      <trkpt lat="46.9264" lon="8.69233">
        <ele>1819</ele>
        <time>2021-08-07T07:12:03.611Z</time>
      </trkpt>
      <trkpt lat="46.9264" lon="8.69234">
        <ele>1819</ele>
        <time>2021-08-07T07:12:04.611Z</time>
      </trkpt>
      <trkpt lat="46.92639" lon="8.69233">
        <ele>1818</ele>
        <time>2021-08-07T07:12:05.610Z</time>
      </trkpt>
      <trkpt lat="46.92638" lon="8.69234">
        <ele>1818</ele>
        <time>2021-08-07T07:12:06.610Z</time>
      </trkpt>
      <trkpt lat="46.92637" lon="8.69233">
        <ele>1818</ele>
        <time>2021-08-07T07:12:07.610Z</time>
      </trkpt>
      <trkpt lat="46.92637" lon="8.69233">
        <ele>1818</ele>
        <time>2021-08-07T07:12:08.611Z</time>
      </trkpt>
      <trkpt lat="46.92636" lon="8.69233">
        <ele>1818</ele>
        <time>2021-08-07T07:12:09.611Z</time>
      </trkpt>
      <trkpt lat="46.92635" lon="8.69234">
        <ele>1818</ele>
        <time>2021-08-07T07:12:10.611Z</time>
      </trkpt>
      <trkpt lat="46.92635" lon="8.69234">
        <ele>1818</ele>
        <time>2021-08-07T07:12:11.610Z</time>
      </trkpt>
      <trkpt lat="46.92634" lon="8.69235">
        <ele>1818</ele>
        <time>2021-08-07T07:12:12.610Z</time>
      </trkpt>
      <trkpt lat="46.92633" lon="8.69235">
        <ele>1819</ele>
        <time>2021-08-07T07:12:13.611Z</time>
      </trkpt>
      <trkpt lat="46.92633" lon="8.69235">
        <ele>1819</ele>
        <time>2021-08-07T07:12:14.611Z</time>
      </trkpt>
      <trkpt lat="46.92632" lon="8.69236">
        <ele>1820</ele>
        <time>2021-08-07T07:12:15.611Z</time>
      </trkpt>
      <trkpt lat="46.92632" lon="8.69237">
        <ele>1820</ele>
        <time>2021-08-07T07:12:16.610Z</time>
      </trkpt>
      <trkpt lat="46.92631" lon="8.69238">
        <ele>1820</ele>
        <time>2021-08-07T07:12:17.611Z</time>
      </trkpt>
      <trkpt lat="46.9263" lon="8.69239">
        <ele>1821</ele>
        <time>2021-08-07T07:12:18.611Z</time>
      </trkpt>
      <trkpt lat="46.92631" lon="8.6924">
        <ele>1821</ele>
        <time>2021-08-07T07:12:19.611Z</time>
      </trkpt>
      <trkpt lat="46.92631" lon="8.69241">
        <ele>1822</ele>
        <time>2021-08-07T07:12:20.610Z</time>
      </trkpt>
      <trkpt lat="46.92631" lon="8.69242">
        <ele>1823</ele>
        <time>2021-08-07T07:12:21.610Z</time>
      </trkpt>
      <trkpt lat="46.9263" lon="8.69243">
        <ele>1824</ele>
        <time>2021-08-07T07:12:22.610Z</time>
      </trkpt>
      <trkpt lat="46.92629" lon="8.69244">
        <ele>1825</ele>
        <time>2021-08-07T07:12:23.611Z</time>
      </trkpt>
      <trkpt lat="46.92628" lon="8.69245">
        <ele>1826</ele>
        <time>2021-08-07T07:12:24.611Z</time>
      </trkpt>
      <trkpt lat="46.92628" lon="8.69245">
        <ele>1827</ele>
        <time>2021-08-07T07:12:25.611Z</time>
      </trkpt>
      <trkpt lat="46.92627" lon="8.69246">
        <ele>1828</ele>
        <time>2021-08-07T07:12:26.611Z</time>
      </trkpt>
      <trkpt lat="46.92627" lon="8.69246">
        <ele>1828</ele>
        <time>2021-08-07T07:12:27.611Z</time>
      </trkpt>
      <trkpt lat="46.92627" lon="8.69247">
        <ele>1829</ele>
        <time>2021-08-07T07:12:28.611Z</time>
      </trkpt>
      <trkpt lat="46.92626" lon="8.69247">
        <ele>1829</ele>
        <time>2021-08-07T07:12:29.610Z</time>
      </trkpt>
      <trkpt lat="46.92625" lon="8.69248">
        <ele>1829</ele>
        <time>2021-08-07T07:12:30.611Z</time>
      </trkpt>
      <trkpt lat="46.92624" lon="8.69248">
        <ele>1829</ele>
        <time>2021-08-07T07:12:31.610Z</time>
      </trkpt>
      <trkpt lat="46.92623" lon="8.69249">
        <ele>1829</ele>
        <time>2021-08-07T07:12:32.610Z</time>
      </trkpt>
      <trkpt lat="46.92623" lon="8.69249">
        <ele>1829</ele>
        <time>2021-08-07T07:12:33.611Z</time>
      </trkpt>
      <trkpt lat="46.92622" lon="8.6925">
        <ele>1830</ele>
        <time>2021-08-07T07:12:34.610Z</time>
      </trkpt>
      <trkpt lat="46.92622" lon="8.69251">
        <ele>1830</ele>
        <time>2021-08-07T07:12:35.611Z</time>
      </trkpt>
      <trkpt lat="46.92621" lon="8.69252">
        <ele>1830</ele>
        <time>2021-08-07T07:12:36.610Z</time>
      </trkpt>
      <trkpt lat="46.92621" lon="8.69252">
        <ele>1830</ele>
        <time>2021-08-07T07:12:37.610Z</time>
      </trkpt>
      <trkpt lat="46.9262" lon="8.69253">
        <ele>1830</ele>
        <time>2021-08-07T07:12:38.610Z</time>
      </trkpt>
      <trkpt lat="46.92619" lon="8.69254">
        <ele>1829</ele>
        <time>2021-08-07T07:12:39.611Z</time>
      </trkpt>
      <trkpt lat="46.92619" lon="8.69255">
        <ele>1829</ele>
        <time>2021-08-07T07:12:40.611Z</time>
      </trkpt>
      <trkpt lat="46.92618" lon="8.69256">
        <ele>1829</ele>
        <time>2021-08-07T07:12:41.610Z</time>
      </trkpt>
      <trkpt lat="46.92617" lon="8.69256">
        <ele>1829</ele>
        <time>2021-08-07T07:12:42.611Z</time>
      </trkpt>
      <trkpt lat="46.92617" lon="8.69257">
        <ele>1828</ele>
        <time>2021-08-07T07:12:43.611Z</time>
      </trkpt>
      <trkpt lat="46.92616" lon="8.69258">
        <ele>1828</ele>
        <time>2021-08-07T07:12:44.610Z</time>
      </trkpt>
      <trkpt lat="46.92615" lon="8.69258">
        <ele>1828</ele>
        <time>2021-08-07T07:12:45.610Z</time>
      </trkpt>
      <trkpt lat="46.92614" lon="8.69259">
        <ele>1828</ele>
        <time>2021-08-07T07:12:46.610Z</time>
      </trkpt>
      <trkpt lat="46.92613" lon="8.69259">
        <ele>1828</ele>
        <time>2021-08-07T07:12:47.611Z</time>
      </trkpt>
      <trkpt lat="46.92613" lon="8.6926">
        <ele>1828</ele>
        <time>2021-08-07T07:12:48.611Z</time>
      </trkpt>
      <trkpt lat="46.92612" lon="8.6926">
        <ele>1828</ele>
        <time>2021-08-07T07:12:49.610Z</time>
      </trkpt>
      <trkpt lat="46.92611" lon="8.6926">
        <ele>1828</ele>
        <time>2021-08-07T07:12:50.610Z</time>
      </trkpt>
      <trkpt lat="46.9261" lon="8.69261">
        <ele>1828</ele>
        <time>2021-08-07T07:12:51.610Z</time>
      </trkpt>
      <trkpt lat="46.92609" lon="8.69261">
        <ele>1828</ele>
        <time>2021-08-07T07:12:52.611Z</time>
      </trkpt>
      <trkpt lat="46.92608" lon="8.69261">
        <ele>1828</ele>
        <time>2021-08-07T07:12:53.610Z</time>
      </trkpt>
      <trkpt lat="46.92607" lon="8.69261">
        <ele>1829</ele>
        <time>2021-08-07T07:12:54.611Z</time>
      </trkpt>
      <trkpt lat="46.92607" lon="8.69261">
        <ele>1829</ele>
        <time>2021-08-07T07:12:55.610Z</time>
      </trkpt>
      <trkpt lat="46.92606" lon="8.69261">
        <ele>1829</ele>
        <time>2021-08-07T07:12:56.611Z</time>
      </trkpt>
      <trkpt lat="46.92605" lon="8.69261">
        <ele>1830</ele>
        <time>2021-08-07T07:12:57.610Z</time>
      </trkpt>
      <trkpt lat="46.92604" lon="8.69261">
        <ele>1830</ele>
        <time>2021-08-07T07:12:58.611Z</time>
      </trkpt>
      <trkpt lat="46.92604" lon="8.69261">
        <ele>1830</ele>
        <time>2021-08-07T07:12:59.610Z</time>
      </trkpt>
      <trkpt lat="46.92603" lon="8.69261">
        <ele>1831</ele>
        <time>2021-08-07T07:13:00.610Z</time>
      </trkpt>
      <trkpt lat="46.92603" lon="8.69261">
        <ele>1831</ele>
        <time>2021-08-07T07:13:01.611Z</time>
      </trkpt>
      <trkpt lat="46.92602" lon="8.69262">
        <ele>1831</ele>
        <time>2021-08-07T07:13:02.610Z</time>
      </trkpt>
      <trkpt lat="46.92601" lon="8.69262">
        <ele>1832</ele>
        <time>2021-08-07T07:13:03.610Z</time>
      </trkpt>
      <trkpt lat="46.926" lon="8.69262">
        <ele>1832</ele>
        <time>2021-08-07T07:13:04.611Z</time>
      </trkpt>
      <trkpt lat="46.926" lon="8.69261">
        <ele>1833</ele>
        <time>2021-08-07T07:13:05.611Z</time>
      </trkpt>
      <trkpt lat="46.92599" lon="8.69261">
        <ele>1833</ele>
        <time>2021-08-07T07:13:06.610Z</time>
      </trkpt>
      <trkpt lat="46.92598" lon="8.69261">
        <ele>1833</ele>
        <time>2021-08-07T07:13:07.611Z</time>
      </trkpt>
      <trkpt lat="46.92597" lon="8.69261">
        <ele>1834</ele>
        <time>2021-08-07T07:13:08.611Z</time>
      </trkpt>
      <trkpt lat="46.92596" lon="8.69261">
        <ele>1834</ele>
        <time>2021-08-07T07:13:09.611Z</time>
      </trkpt>
      <trkpt lat="46.92595" lon="8.6926">
        <ele>1835</ele>
        <time>2021-08-07T07:13:10.611Z</time>
      </trkpt>
      <trkpt lat="46.92594" lon="8.69261">
        <ele>1835</ele>
        <time>2021-08-07T07:13:11.610Z</time>
      </trkpt>
      <trkpt lat="46.92594" lon="8.69261">
        <ele>1836</ele>
        <time>2021-08-07T07:13:12.611Z</time>
      </trkpt>
      <trkpt lat="46.92593" lon="8.6926">
        <ele>1836</ele>
        <time>2021-08-07T07:13:13.610Z</time>
      </trkpt>
      <trkpt lat="46.92593" lon="8.6926">
        <ele>1836</ele>
        <time>2021-08-07T07:13:14.610Z</time>
      </trkpt>
      <trkpt lat="46.92592" lon="8.6926">
        <ele>1836</ele>
        <time>2021-08-07T07:13:15.611Z</time>
      </trkpt>
      <trkpt lat="46.92592" lon="8.6926">
        <ele>1836</ele>
        <time>2021-08-07T07:13:16.610Z</time>
      </trkpt>
      <trkpt lat="46.92591" lon="8.6926">
        <ele>1836</ele>
        <time>2021-08-07T07:13:17.611Z</time>
      </trkpt>
      <trkpt lat="46.92591" lon="8.6926">
        <ele>1835</ele>
        <time>2021-08-07T07:13:18.611Z</time>
      </trkpt>
      <trkpt lat="46.9259" lon="8.69259">
        <ele>1835</ele>
        <time>2021-08-07T07:13:19.611Z</time>
      </trkpt>
      <trkpt lat="46.92589" lon="8.69259">
        <ele>1835</ele>
        <time>2021-08-07T07:13:20.611Z</time>
      </trkpt>
      <trkpt lat="46.92588" lon="8.69259">
        <ele>1835</ele>
        <time>2021-08-07T07:13:21.610Z</time>
      </trkpt>
      <trkpt lat="46.92588" lon="8.69259">
        <ele>1835</ele>
        <time>2021-08-07T07:13:22.610Z</time>
      </trkpt>
      <trkpt lat="46.92588" lon="8.6926">
        <ele>1835</ele>
        <time>2021-08-07T07:13:23.611Z</time>
      </trkpt>
      <trkpt lat="46.92587" lon="8.6926">
        <ele>1835</ele>
        <time>2021-08-07T07:13:24.611Z</time>
      </trkpt>
      <trkpt lat="46.92586" lon="8.6926">
        <ele>1835</ele>
        <time>2021-08-07T07:13:25.610Z</time>
      </trkpt>
      <trkpt lat="46.92585" lon="8.6926">
        <ele>1835</ele>
        <time>2021-08-07T07:13:26.610Z</time>
      </trkpt>
      <trkpt lat="46.92585" lon="8.6926">
        <ele>1835</ele>
        <time>2021-08-07T07:13:27.610Z</time>
      </trkpt>
      <trkpt lat="46.92584" lon="8.6926">
        <ele>1835</ele>
        <time>2021-08-07T07:13:28.611Z</time>
      </trkpt>
      <trkpt lat="46.92584" lon="8.6926">
        <ele>1835</ele>
        <time>2021-08-07T07:13:29.611Z</time>
      </trkpt>
      <trkpt lat="46.92584" lon="8.69261">
        <ele>1836</ele>
        <time>2021-08-07T07:13:30.611Z</time>
      </trkpt>
      <trkpt lat="46.92583" lon="8.69261">
        <ele>1836</ele>
        <time>2021-08-07T07:13:31.610Z</time>
      </trkpt>
      <trkpt lat="46.92582" lon="8.69261">
        <ele>1837</ele>
        <time>2021-08-07T07:13:32.611Z</time>
      </trkpt>
      <trkpt lat="46.92582" lon="8.69262">
        <ele>1837</ele>
        <time>2021-08-07T07:13:33.611Z</time>
      </trkpt>
      <trkpt lat="46.92582" lon="8.69263">
        <ele>1837</ele>
        <time>2021-08-07T07:13:34.611Z</time>
      </trkpt>
      <trkpt lat="46.92581" lon="8.69263">
        <ele>1837</ele>
        <time>2021-08-07T07:13:35.611Z</time>
      </trkpt>
      <trkpt lat="46.92581" lon="8.69264">
        <ele>1838</ele>
        <time>2021-08-07T07:13:36.611Z</time>
      </trkpt>
      <trkpt lat="46.9258" lon="8.69264">
        <ele>1838</ele>
        <time>2021-08-07T07:13:37.611Z</time>
      </trkpt>
      <trkpt lat="46.9258" lon="8.69265">
        <ele>1838</ele>
        <time>2021-08-07T07:13:38.611Z</time>
      </trkpt>
      <trkpt lat="46.92579" lon="8.69265">
        <ele>1838</ele>
        <time>2021-08-07T07:13:39.610Z</time>
      </trkpt>
      <trkpt lat="46.92579" lon="8.69266">
        <ele>1838</ele>
        <time>2021-08-07T07:13:40.611Z</time>
      </trkpt>
      <trkpt lat="46.92578" lon="8.69266">
        <ele>1839</ele>
        <time>2021-08-07T07:13:41.611Z</time>
      </trkpt>
      <trkpt lat="46.92578" lon="8.69267">
        <ele>1839</ele>
        <time>2021-08-07T07:13:42.611Z</time>
      </trkpt>
      <trkpt lat="46.92577" lon="8.69268">
        <ele>1839</ele>
        <time>2021-08-07T07:13:43.610Z</time>
      </trkpt>
      <trkpt lat="46.92576" lon="8.69268">
        <ele>1839</ele>
        <time>2021-08-07T07:13:44.611Z</time>
      </trkpt>
      <trkpt lat="46.92576" lon="8.69269">
        <ele>1839</ele>
        <time>2021-08-07T07:13:45.610Z</time>
      </trkpt>
      <trkpt lat="46.92575" lon="8.6927">
        <ele>1839</ele>
        <time>2021-08-07T07:13:46.610Z</time>
      </trkpt>
      <trkpt lat="46.92575" lon="8.69271">
        <ele>1838</ele>
        <time>2021-08-07T07:13:47.610Z</time>
      </trkpt>
      <trkpt lat="46.92574" lon="8.69272">
        <ele>1838</ele>
        <time>2021-08-07T07:13:48.611Z</time>
      </trkpt>
      <trkpt lat="46.92574" lon="8.69273">
        <ele>1837</ele>
        <time>2021-08-07T07:13:49.611Z</time>
      </trkpt>
      <trkpt lat="46.92573" lon="8.69274">
        <ele>1837</ele>
        <time>2021-08-07T07:13:50.610Z</time>
      </trkpt>
      <trkpt lat="46.92573" lon="8.69275">
        <ele>1837</ele>
        <time>2021-08-07T07:13:51.610Z</time>
      </trkpt>
      <trkpt lat="46.92572" lon="8.69275">
        <ele>1837</ele>
        <time>2021-08-07T07:13:52.611Z</time>
      </trkpt>
      <trkpt lat="46.92571" lon="8.69276">
        <ele>1837</ele>
        <time>2021-08-07T07:13:53.611Z</time>
      </trkpt>
      <trkpt lat="46.92571" lon="8.69276">
        <ele>1837</ele>
        <time>2021-08-07T07:13:54.610Z</time>
      </trkpt>
      <trkpt lat="46.9257" lon="8.69277">
        <ele>1837</ele>
        <time>2021-08-07T07:13:55.611Z</time>
      </trkpt>
      <trkpt lat="46.9257" lon="8.69277">
        <ele>1838</ele>
        <time>2021-08-07T07:13:56.611Z</time>
      </trkpt>
      <trkpt lat="46.92569" lon="8.69277">
        <ele>1838</ele>
        <time>2021-08-07T07:13:57.611Z</time>
      </trkpt>
      <trkpt lat="46.92568" lon="8.69277">
        <ele>1838</ele>
        <time>2021-08-07T07:13:58.610Z</time>
      </trkpt>
      <trkpt lat="46.92568" lon="8.69277">
        <ele>1839</ele>
        <time>2021-08-07T07:13:59.610Z</time>
      </trkpt>
      <trkpt lat="46.92567" lon="8.69277">
        <ele>1839</ele>
        <time>2021-08-07T07:14:00.611Z</time>
      </trkpt>
      <trkpt lat="46.92566" lon="8.69278">
        <ele>1840</ele>
        <time>2021-08-07T07:14:01.610Z</time>
      </trkpt>
      <trkpt lat="46.92566" lon="8.69278">
        <ele>1840</ele>
        <time>2021-08-07T07:14:02.610Z</time>
      </trkpt>
      <trkpt lat="46.92565" lon="8.69278">
        <ele>1841</ele>
        <time>2021-08-07T07:14:03.611Z</time>
      </trkpt>
      <trkpt lat="46.92565" lon="8.69279">
        <ele>1841</ele>
        <time>2021-08-07T07:14:04.611Z</time>
      </trkpt>
      <trkpt lat="46.92564" lon="8.69279">
        <ele>1841</ele>
        <time>2021-08-07T07:14:05.610Z</time>
      </trkpt>
      <trkpt lat="46.92564" lon="8.6928">
        <ele>1842</ele>
        <time>2021-08-07T07:14:06.611Z</time>
      </trkpt>
      <trkpt lat="46.92563" lon="8.6928">
        <ele>1842</ele>
        <time>2021-08-07T07:14:07.611Z</time>
      </trkpt>
      <trkpt lat="46.92563" lon="8.6928">
        <ele>1842</ele>
        <time>2021-08-07T07:14:08.611Z</time>
      </trkpt>
      <trkpt lat="46.92562" lon="8.69281">
        <ele>1843</ele>
        <time>2021-08-07T07:14:09.611Z</time>
      </trkpt>
      <trkpt lat="46.92562" lon="8.69281">
        <ele>1843</ele>
        <time>2021-08-07T07:14:10.610Z</time>
      </trkpt>
      <trkpt lat="46.92561" lon="8.69281">
        <ele>1844</ele>
        <time>2021-08-07T07:14:11.610Z</time>
      </trkpt>
      <trkpt lat="46.92561" lon="8.69282">
        <ele>1845</ele>
        <time>2021-08-07T07:14:12.610Z</time>
      </trkpt>
      <trkpt lat="46.9256" lon="8.69282">
        <ele>1845</ele>
        <time>2021-08-07T07:14:13.611Z</time>
      </trkpt>
      <trkpt lat="46.9256" lon="8.69283">
        <ele>1846</ele>
        <time>2021-08-07T07:14:14.611Z</time>
      </trkpt>
      <trkpt lat="46.92559" lon="8.69283">
        <ele>1846</ele>
        <time>2021-08-07T07:14:15.611Z</time>
      </trkpt>
      <trkpt lat="46.92559" lon="8.69284">
        <ele>1846</ele>
        <time>2021-08-07T07:14:16.610Z</time>
      </trkpt>
      <trkpt lat="46.92558" lon="8.69285">
        <ele>1846</ele>
        <time>2021-08-07T07:14:17.610Z</time>
      </trkpt>
      <trkpt lat="46.92557" lon="8.69285">
        <ele>1846</ele>
        <time>2021-08-07T07:14:18.610Z</time>
      </trkpt>
      <trkpt lat="46.92557" lon="8.69286">
        <ele>1846</ele>
        <time>2021-08-07T07:14:19.610Z</time>
      </trkpt>
      <trkpt lat="46.92557" lon="8.69286">
        <ele>1847</ele>
        <time>2021-08-07T07:14:20.610Z</time>
      </trkpt>
      <trkpt lat="46.92556" lon="8.69287">
        <ele>1847</ele>
        <time>2021-08-07T07:14:21.610Z</time>
      </trkpt>
      <trkpt lat="46.92555" lon="8.69287">
        <ele>1847</ele>
        <time>2021-08-07T07:14:22.611Z</time>
      </trkpt>
      <trkpt lat="46.92555" lon="8.69287">
        <ele>1847</ele>
        <time>2021-08-07T07:14:23.610Z</time>
      </trkpt>
      <trkpt lat="46.92554" lon="8.69286">
        <ele>1847</ele>
        <time>2021-08-07T07:14:24.610Z</time>
      </trkpt>
      <trkpt lat="46.92553" lon="8.69287">
        <ele>1847</ele>
        <time>2021-08-07T07:14:25.610Z</time>
      </trkpt>
      <trkpt lat="46.92552" lon="8.69287">
        <ele>1847</ele>
        <time>2021-08-07T07:14:26.611Z</time>
      </trkpt>
      <trkpt lat="46.92551" lon="8.69287">
        <ele>1847</ele>
        <time>2021-08-07T07:14:27.611Z</time>
      </trkpt>
      <trkpt lat="46.92551" lon="8.69287">
        <ele>1847</ele>
        <time>2021-08-07T07:14:28.610Z</time>
      </trkpt>
      <trkpt lat="46.9255" lon="8.69287">
        <ele>1847</ele>
        <time>2021-08-07T07:14:29.610Z</time>
      </trkpt>
      <trkpt lat="46.92549" lon="8.69287">
        <ele>1847</ele>
        <time>2021-08-07T07:14:30.610Z</time>
      </trkpt>
      <trkpt lat="46.92548" lon="8.69287">
        <ele>1847</ele>
        <time>2021-08-07T07:14:31.610Z</time>
      </trkpt>
      <trkpt lat="46.92548" lon="8.69287">
        <ele>1847</ele>
        <time>2021-08-07T07:14:32.610Z</time>
      </trkpt>
      <trkpt lat="46.92547" lon="8.69287">
        <ele>1848</ele>
        <time>2021-08-07T07:14:33.610Z</time>
      </trkpt>
      <trkpt lat="46.92546" lon="8.69287">
        <ele>1848</ele>
        <time>2021-08-07T07:14:34.610Z</time>
      </trkpt>
      <trkpt lat="46.92545" lon="8.69287">
        <ele>1848</ele>
        <time>2021-08-07T07:14:35.610Z</time>
      </trkpt>
      <trkpt lat="46.92544" lon="8.69286">
        <ele>1848</ele>
        <time>2021-08-07T07:14:36.610Z</time>
      </trkpt>
      <trkpt lat="46.92543" lon="8.69286">
        <ele>1848</ele>
        <time>2021-08-07T07:14:37.611Z</time>
      </trkpt>
      <trkpt lat="46.92542" lon="8.69287">
        <ele>1847</ele>
        <time>2021-08-07T07:14:38.611Z</time>
      </trkpt>
      <trkpt lat="46.92542" lon="8.69287">
        <ele>1847</ele>
        <time>2021-08-07T07:14:39.611Z</time>
      </trkpt>
      <trkpt lat="46.92541" lon="8.69288">
        <ele>1847</ele>
        <time>2021-08-07T07:14:40.611Z</time>
      </trkpt>
      <trkpt lat="46.92541" lon="8.69289">
        <ele>1847</ele>
        <time>2021-08-07T07:14:41.611Z</time>
      </trkpt>
      <trkpt lat="46.92541" lon="8.69289">
        <ele>1847</ele>
        <time>2021-08-07T07:14:42.610Z</time>
      </trkpt>
      <trkpt lat="46.92541" lon="8.69289">
        <ele>1847</ele>
        <time>2021-08-07T07:14:43.611Z</time>
      </trkpt>
      <trkpt lat="46.9254" lon="8.69289">
        <ele>1847</ele>
        <time>2021-08-07T07:14:44.611Z</time>
      </trkpt>
      <trkpt lat="46.92539" lon="8.69288">
        <ele>1847</ele>
        <time>2021-08-07T07:14:45.610Z</time>
      </trkpt>
      <trkpt lat="46.92538" lon="8.69287">
        <ele>1847</ele>
        <time>2021-08-07T07:14:46.611Z</time>
      </trkpt>
      <trkpt lat="46.92538" lon="8.69287">
        <ele>1847</ele>
        <time>2021-08-07T07:14:47.611Z</time>
      </trkpt>
      <trkpt lat="46.92538" lon="8.69287">
        <ele>1848</ele>
        <time>2021-08-07T07:14:48.611Z</time>
      </trkpt>
      <trkpt lat="46.92537" lon="8.69287">
        <ele>1848</ele>
        <time>2021-08-07T07:14:49.610Z</time>
      </trkpt>
      <trkpt lat="46.92537" lon="8.69287">
        <ele>1848</ele>
        <time>2021-08-07T07:14:50.611Z</time>
      </trkpt>
      <trkpt lat="46.92536" lon="8.69286">
        <ele>1849</ele>
        <time>2021-08-07T07:14:51.611Z</time>
      </trkpt>
      <trkpt lat="46.92536" lon="8.69285">
        <ele>1848</ele>
        <time>2021-08-07T07:14:52.611Z</time>
      </trkpt>
      <trkpt lat="46.92536" lon="8.69285">
        <ele>1848</ele>
        <time>2021-08-07T07:14:53.610Z</time>
      </trkpt>
      <trkpt lat="46.92536" lon="8.69285">
        <ele>1848</ele>
        <time>2021-08-07T07:14:54.610Z</time>
      </trkpt>
      <trkpt lat="46.92535" lon="8.69285">
        <ele>1848</ele>
        <time>2021-08-07T07:14:55.611Z</time>
      </trkpt>
      <trkpt lat="46.92534" lon="8.69285">
        <ele>1848</ele>
        <time>2021-08-07T07:14:56.610Z</time>
      </trkpt>
      <trkpt lat="46.92533" lon="8.69284">
        <ele>1848</ele>
        <time>2021-08-07T07:14:57.610Z</time>
      </trkpt>
      <trkpt lat="46.92533" lon="8.69285">
        <ele>1849</ele>
        <time>2021-08-07T07:14:58.610Z</time>
      </trkpt>
      <trkpt lat="46.92532" lon="8.69285">
        <ele>1849</ele>
        <time>2021-08-07T07:14:59.611Z</time>
      </trkpt>
      <trkpt lat="46.92531" lon="8.69285">
        <ele>1849</ele>
        <time>2021-08-07T07:15:00.610Z</time>
      </trkpt>
      <trkpt lat="46.9253" lon="8.69284">
        <ele>1849</ele>
        <time>2021-08-07T07:15:01.611Z</time>
      </trkpt>
      <trkpt lat="46.92529" lon="8.69283">
        <ele>1849</ele>
        <time>2021-08-07T07:15:02.611Z</time>
      </trkpt>
      <trkpt lat="46.92528" lon="8.69283">
        <ele>1848</ele>
        <time>2021-08-07T07:15:03.610Z</time>
      </trkpt>
      <trkpt lat="46.92528" lon="8.69282">
        <ele>1848</ele>
        <time>2021-08-07T07:15:04.610Z</time>
      </trkpt>
      <trkpt lat="46.92527" lon="8.69281">
        <ele>1847</ele>
        <time>2021-08-07T07:15:05.611Z</time>
      </trkpt>
      <trkpt lat="46.92526" lon="8.6928">
        <ele>1847</ele>
        <time>2021-08-07T07:15:06.611Z</time>
      </trkpt>
      <trkpt lat="46.92524" lon="8.69279">
        <ele>1847</ele>
        <time>2021-08-07T07:15:07.611Z</time>
      </trkpt>
      <trkpt lat="46.92524" lon="8.69279">
        <ele>1847</ele>
        <time>2021-08-07T07:15:08.610Z</time>
      </trkpt>
      <trkpt lat="46.92523" lon="8.69279">
        <ele>1847</ele>
        <time>2021-08-07T07:15:09.610Z</time>
      </trkpt>
      <trkpt lat="46.92523" lon="8.69279">
        <ele>1846</ele>
        <time>2021-08-07T07:15:10.610Z</time>
      </trkpt>
      <trkpt lat="46.92522" lon="8.69279">
        <ele>1846</ele>
        <time>2021-08-07T07:15:11.610Z</time>
      </trkpt>
      <trkpt lat="46.92523" lon="8.69279">
        <ele>1846</ele>
        <time>2021-08-07T07:15:12.612Z</time>
      </trkpt>
      <trkpt lat="46.92523" lon="8.6928">
        <ele>1846</ele>
        <time>2021-08-07T07:15:13.611Z</time>
      </trkpt>
      <trkpt lat="46.92523" lon="8.69279">
        <ele>1845</ele>
        <time>2021-08-07T07:15:14.612Z</time>
      </trkpt>
      <trkpt lat="46.92523" lon="8.6928">
        <ele>1845</ele>
        <time>2021-08-07T07:15:15.611Z</time>
      </trkpt>
      <trkpt lat="46.92522" lon="8.69279">
        <ele>1847</ele>
        <time>2021-08-07T07:15:16.612Z</time>
      </trkpt>
      <trkpt lat="46.92522" lon="8.69278">
        <ele>1847</ele>
        <time>2021-08-07T07:15:17.612Z</time>
      </trkpt>
      <trkpt lat="46.92522" lon="8.69277">
        <ele>1847</ele>
        <time>2021-08-07T07:15:18.611Z</time>
      </trkpt>
      <trkpt lat="46.92522" lon="8.69276">
        <ele>1848</ele>
        <time>2021-08-07T07:15:19.612Z</time>
      </trkpt>
      <trkpt lat="46.92522" lon="8.69274">
        <ele>1848</ele>
        <time>2021-08-07T07:15:20.612Z</time>
      </trkpt>
      <trkpt lat="46.92522" lon="8.69273">
        <ele>1848</ele>
        <time>2021-08-07T07:15:21.612Z</time>
      </trkpt>
      <trkpt lat="46.92521" lon="8.69272">
        <ele>1849</ele>
        <time>2021-08-07T07:15:22.612Z</time>
      </trkpt>
      <trkpt lat="46.9252" lon="8.69271">
        <ele>1849</ele>
        <time>2021-08-07T07:15:23.611Z</time>
      </trkpt>
      <trkpt lat="46.9252" lon="8.6927">
        <ele>1850</ele>
        <time>2021-08-07T07:15:24.612Z</time>
      </trkpt>
      <trkpt lat="46.92519" lon="8.6927">
        <ele>1850</ele>
        <time>2021-08-07T07:15:25.612Z</time>
      </trkpt>
      <trkpt lat="46.92519" lon="8.6927">
        <ele>1850</ele>
        <time>2021-08-07T07:15:26.612Z</time>
      </trkpt>
      <trkpt lat="46.92518" lon="8.69269">
        <ele>1850</ele>
        <time>2021-08-07T07:15:27.613Z</time>
      </trkpt>
      <trkpt lat="46.92517" lon="8.69268">
        <ele>1850</ele>
        <time>2021-08-07T07:15:28.613Z</time>
      </trkpt>
      <trkpt lat="46.92517" lon="8.69267">
        <ele>1851</ele>
        <time>2021-08-07T07:15:29.612Z</time>
      </trkpt>
      <trkpt lat="46.92517" lon="8.69267">
        <ele>1851</ele>
        <time>2021-08-07T07:15:30.613Z</time>
      </trkpt>
      <trkpt lat="46.92517" lon="8.69268">
        <ele>1851</ele>
        <time>2021-08-07T07:15:31.612Z</time>
      </trkpt>
      <trkpt lat="46.92517" lon="8.69268">
        <ele>1851</ele>
        <time>2021-08-07T07:15:32.613Z</time>
      </trkpt>
      <trkpt lat="46.92516" lon="8.69268">
        <ele>1851</ele>
        <time>2021-08-07T07:15:33.613Z</time>
      </trkpt>
      <trkpt lat="46.92515" lon="8.69267">
        <ele>1851</ele>
        <time>2021-08-07T07:15:34.612Z</time>
      </trkpt>
      <trkpt lat="46.92515" lon="8.69266">
        <ele>1851</ele>
        <time>2021-08-07T07:15:35.612Z</time>
      </trkpt>
      <trkpt lat="46.92514" lon="8.69265">
        <ele>1851</ele>
        <time>2021-08-07T07:15:36.612Z</time>
      </trkpt>
      <trkpt lat="46.92513" lon="8.69265">
        <ele>1851</ele>
        <time>2021-08-07T07:15:37.613Z</time>
      </trkpt>
      <trkpt lat="46.92513" lon="8.69264">
        <ele>1852</ele>
        <time>2021-08-07T07:15:38.613Z</time>
      </trkpt>
      <trkpt lat="46.92513" lon="8.69264">
        <ele>1852</ele>
        <time>2021-08-07T07:15:39.612Z</time>
      </trkpt>
      <trkpt lat="46.92512" lon="8.69264">
        <ele>1853</ele>
        <time>2021-08-07T07:15:40.612Z</time>
      </trkpt>
      <trkpt lat="46.92511" lon="8.69264">
        <ele>1853</ele>
        <time>2021-08-07T07:15:41.612Z</time>
      </trkpt>
      <trkpt lat="46.9251" lon="8.69264">
        <ele>1854</ele>
        <time>2021-08-07T07:15:42.612Z</time>
      </trkpt>
      <trkpt lat="46.9251" lon="8.69264">
        <ele>1854</ele>
        <time>2021-08-07T07:15:43.613Z</time>
      </trkpt>
      <trkpt lat="46.9251" lon="8.69264">
        <ele>1854</ele>
        <time>2021-08-07T07:15:44.612Z</time>
      </trkpt>
      <trkpt lat="46.92508" lon="8.69263">
        <ele>1855</ele>
        <time>2021-08-07T07:15:45.612Z</time>
      </trkpt>
      <trkpt lat="46.92507" lon="8.69262">
        <ele>1855</ele>
        <time>2021-08-07T07:15:46.612Z</time>
      </trkpt>
      <trkpt lat="46.92507" lon="8.69262">
        <ele>1856</ele>
        <time>2021-08-07T07:15:47.612Z</time>
      </trkpt>
      <trkpt lat="46.92506" lon="8.69261">
        <ele>1856</ele>
        <time>2021-08-07T07:15:48.612Z</time>
      </trkpt>
      <trkpt lat="46.92506" lon="8.6926">
        <ele>1856</ele>
        <time>2021-08-07T07:15:49.612Z</time>
      </trkpt>
      <trkpt lat="46.92505" lon="8.69261">
        <ele>1857</ele>
        <time>2021-08-07T07:15:50.612Z</time>
      </trkpt>
      <trkpt lat="46.92505" lon="8.69261">
        <ele>1857</ele>
        <time>2021-08-07T07:15:51.612Z</time>
      </trkpt>
      <trkpt lat="46.92504" lon="8.6926">
        <ele>1857</ele>
        <time>2021-08-07T07:15:52.612Z</time>
      </trkpt>
      <trkpt lat="46.92504" lon="8.6926">
        <ele>1857</ele>
        <time>2021-08-07T07:15:53.612Z</time>
      </trkpt>
      <trkpt lat="46.92503" lon="8.6926">
        <ele>1857</ele>
        <time>2021-08-07T07:15:54.613Z</time>
      </trkpt>
      <trkpt lat="46.92503" lon="8.69258">
        <ele>1857</ele>
        <time>2021-08-07T07:15:55.612Z</time>
      </trkpt>
      <trkpt lat="46.92503" lon="8.69257">
        <ele>1857</ele>
        <time>2021-08-07T07:15:56.612Z</time>
      </trkpt>
      <trkpt lat="46.92502" lon="8.69256">
        <ele>1857</ele>
        <time>2021-08-07T07:15:57.612Z</time>
      </trkpt>
      <trkpt lat="46.92502" lon="8.69255">
        <ele>1857</ele>
        <time>2021-08-07T07:15:58.613Z</time>
      </trkpt>
      <trkpt lat="46.92501" lon="8.69254">
        <ele>1857</ele>
        <time>2021-08-07T07:15:59.612Z</time>
      </trkpt>
      <trkpt lat="46.92501" lon="8.69255">
        <ele>1857</ele>
        <time>2021-08-07T07:16:00.613Z</time>
      </trkpt>
      <trkpt lat="46.92501" lon="8.69254">
        <ele>1857</ele>
        <time>2021-08-07T07:16:01.613Z</time>
      </trkpt>
      <trkpt lat="46.92501" lon="8.69254">
        <ele>1857</ele>
        <time>2021-08-07T07:16:02.612Z</time>
      </trkpt>
      <trkpt lat="46.925" lon="8.69254">
        <ele>1857</ele>
        <time>2021-08-07T07:16:03.612Z</time>
      </trkpt>
      <trkpt lat="46.92499" lon="8.69253">
        <ele>1858</ele>
        <time>2021-08-07T07:16:04.612Z</time>
      </trkpt>
      <trkpt lat="46.92498" lon="8.69253">
        <ele>1858</ele>
        <time>2021-08-07T07:16:05.613Z</time>
      </trkpt>
      <trkpt lat="46.92496" lon="8.69253">
        <ele>1858</ele>
        <time>2021-08-07T07:16:06.612Z</time>
      </trkpt>
      <trkpt lat="46.92495" lon="8.69252">
        <ele>1858</ele>
        <time>2021-08-07T07:16:07.612Z</time>
      </trkpt>
      <trkpt lat="46.92494" lon="8.69251">
        <ele>1858</ele>
        <time>2021-08-07T07:16:08.612Z</time>
      </trkpt>
      <trkpt lat="46.92493" lon="8.6925">
        <ele>1858</ele>
        <time>2021-08-07T07:16:09.613Z</time>
      </trkpt>
      <trkpt lat="46.92492" lon="8.69251">
        <ele>1858</ele>
        <time>2021-08-07T07:16:10.612Z</time>
      </trkpt>
      <trkpt lat="46.92491" lon="8.69252">
        <ele>1857</ele>
        <time>2021-08-07T07:16:11.612Z</time>
      </trkpt>
      <trkpt lat="46.9249" lon="8.69252">
        <ele>1857</ele>
        <time>2021-08-07T07:16:12.612Z</time>
      </trkpt>
      <trkpt lat="46.92489" lon="8.69252">
        <ele>1857</ele>
        <time>2021-08-07T07:16:13.612Z</time>
      </trkpt>
      <trkpt lat="46.92489" lon="8.69251">
        <ele>1857</ele>
        <time>2021-08-07T07:16:14.612Z</time>
      </trkpt>
      <trkpt lat="46.92488" lon="8.6925">
        <ele>1856</ele>
        <time>2021-08-07T07:16:15.612Z</time>
      </trkpt>
      <trkpt lat="46.92487" lon="8.6925">
        <ele>1856</ele>
        <time>2021-08-07T07:16:16.612Z</time>
      </trkpt>
      <trkpt lat="46.92486" lon="8.6925">
        <ele>1856</ele>
        <time>2021-08-07T07:16:17.612Z</time>
      </trkpt>
      <trkpt lat="46.92485" lon="8.6925">
        <ele>1856</ele>
        <time>2021-08-07T07:16:18.612Z</time>
      </trkpt>
      <trkpt lat="46.92485" lon="8.6925">
        <ele>1856</ele>
        <time>2021-08-07T07:16:19.613Z</time>
      </trkpt>
      <trkpt lat="46.92484" lon="8.69248">
        <ele>1856</ele>
        <time>2021-08-07T07:16:20.612Z</time>
      </trkpt>
      <trkpt lat="46.92483" lon="8.69248">
        <ele>1856</ele>
        <time>2021-08-07T07:16:21.612Z</time>
      </trkpt>
      <trkpt lat="46.92482" lon="8.69247">
        <ele>1856</ele>
        <time>2021-08-07T07:16:22.612Z</time>
      </trkpt>
      <trkpt lat="46.92481" lon="8.69247">
        <ele>1856</ele>
        <time>2021-08-07T07:16:23.612Z</time>
      </trkpt>
      <trkpt lat="46.9248" lon="8.69245">
        <ele>1857</ele>
        <time>2021-08-07T07:16:24.612Z</time>
      </trkpt>
      <trkpt lat="46.92479" lon="8.69244">
        <ele>1857</ele>
        <time>2021-08-07T07:16:25.613Z</time>
      </trkpt>
      <trkpt lat="46.92479" lon="8.69244">
        <ele>1857</ele>
        <time>2021-08-07T07:16:26.612Z</time>
      </trkpt>
      <trkpt lat="46.92479" lon="8.69244">
        <ele>1858</ele>
        <time>2021-08-07T07:16:27.612Z</time>
      </trkpt>
      <trkpt lat="46.92479" lon="8.69243">
        <ele>1859</ele>
        <time>2021-08-07T07:16:28.612Z</time>
      </trkpt>
      <trkpt lat="46.92478" lon="8.69242">
        <ele>1859</ele>
        <time>2021-08-07T07:16:29.613Z</time>
      </trkpt>
      <trkpt lat="46.92477" lon="8.69241">
        <ele>1859</ele>
        <time>2021-08-07T07:16:30.612Z</time>
      </trkpt>
      <trkpt lat="46.92477" lon="8.6924">
        <ele>1859</ele>
        <time>2021-08-07T07:16:31.613Z</time>
      </trkpt>
      <trkpt lat="46.92476" lon="8.6924">
        <ele>1859</ele>
        <time>2021-08-07T07:16:32.613Z</time>
      </trkpt>
      <trkpt lat="46.92475" lon="8.69239">
        <ele>1859</ele>
        <time>2021-08-07T07:16:33.613Z</time>
      </trkpt>
      <trkpt lat="46.92475" lon="8.69238">
        <ele>1859</ele>
        <time>2021-08-07T07:16:34.613Z</time>
      </trkpt>
      <trkpt lat="46.92474" lon="8.69237">
        <ele>1859</ele>
        <time>2021-08-07T07:16:35.613Z</time>
      </trkpt>
      <trkpt lat="46.92473" lon="8.69236">
        <ele>1859</ele>
        <time>2021-08-07T07:16:36.613Z</time>
      </trkpt>
      <trkpt lat="46.92472" lon="8.69236">
        <ele>1859</ele>
        <time>2021-08-07T07:16:37.613Z</time>
      </trkpt>
      <trkpt lat="46.92471" lon="8.69235">
        <ele>1859</ele>
        <time>2021-08-07T07:16:38.613Z</time>
      </trkpt>
      <trkpt lat="46.92471" lon="8.69235">
        <ele>1859</ele>
        <time>2021-08-07T07:16:39.613Z</time>
      </trkpt>
      <trkpt lat="46.9247" lon="8.69234">
        <ele>1860</ele>
        <time>2021-08-07T07:16:40.612Z</time>
      </trkpt>
      <trkpt lat="46.92469" lon="8.69234">
        <ele>1860</ele>
        <time>2021-08-07T07:16:41.612Z</time>
      </trkpt>
      <trkpt lat="46.92468" lon="8.69233">
        <ele>1860</ele>
        <time>2021-08-07T07:16:42.612Z</time>
      </trkpt>
      <trkpt lat="46.92467" lon="8.69232">
        <ele>1860</ele>
        <time>2021-08-07T07:16:43.613Z</time>
      </trkpt>
      <trkpt lat="46.92467" lon="8.69232">
        <ele>1861</ele>
        <time>2021-08-07T07:16:44.612Z</time>
      </trkpt>
      <trkpt lat="46.92466" lon="8.69232">
        <ele>1861</ele>
        <time>2021-08-07T07:16:45.613Z</time>
      </trkpt>
      <trkpt lat="46.92466" lon="8.69232">
        <ele>1861</ele>
        <time>2021-08-07T07:16:46.612Z</time>
      </trkpt>
      <trkpt lat="46.92465" lon="8.69232">
        <ele>1862</ele>
        <time>2021-08-07T07:16:47.613Z</time>
      </trkpt>
      <trkpt lat="46.92464" lon="8.69232">
        <ele>1862</ele>
        <time>2021-08-07T07:16:48.612Z</time>
      </trkpt>
      <trkpt lat="46.92464" lon="8.69232">
        <ele>1863</ele>
        <time>2021-08-07T07:16:49.613Z</time>
      </trkpt>
      <trkpt lat="46.92463" lon="8.69232">
        <ele>1863</ele>
        <time>2021-08-07T07:16:50.613Z</time>
      </trkpt>
      <trkpt lat="46.92463" lon="8.69232">
        <ele>1864</ele>
        <time>2021-08-07T07:16:51.612Z</time>
      </trkpt>
      <trkpt lat="46.92462" lon="8.69232">
        <ele>1864</ele>
        <time>2021-08-07T07:16:52.613Z</time>
      </trkpt>
      <trkpt lat="46.92461" lon="8.69232">
        <ele>1865</ele>
        <time>2021-08-07T07:16:53.612Z</time>
      </trkpt>
      <trkpt lat="46.9246" lon="8.69232">
        <ele>1865</ele>
        <time>2021-08-07T07:16:54.612Z</time>
      </trkpt>
      <trkpt lat="46.92459" lon="8.69231">
        <ele>1865</ele>
        <time>2021-08-07T07:16:55.613Z</time>
      </trkpt>
      <trkpt lat="46.92458" lon="8.69231">
        <ele>1865</ele>
        <time>2021-08-07T07:16:56.612Z</time>
      </trkpt>
      <trkpt lat="46.92457" lon="8.69231">
        <ele>1865</ele>
        <time>2021-08-07T07:16:57.613Z</time>
      </trkpt>
      <trkpt lat="46.92457" lon="8.69231">
        <ele>1866</ele>
        <time>2021-08-07T07:16:58.612Z</time>
      </trkpt>
      <trkpt lat="46.92456" lon="8.6923">
        <ele>1866</ele>
        <time>2021-08-07T07:16:59.613Z</time>
      </trkpt>
      <trkpt lat="46.92456" lon="8.6923">
        <ele>1866</ele>
        <time>2021-08-07T07:17:00.613Z</time>
      </trkpt>
      <trkpt lat="46.92455" lon="8.69229">
        <ele>1866</ele>
        <time>2021-08-07T07:17:01.612Z</time>
      </trkpt>
      <trkpt lat="46.92454" lon="8.69228">
        <ele>1866</ele>
        <time>2021-08-07T07:17:02.613Z</time>
      </trkpt>
      <trkpt lat="46.92453" lon="8.69228">
        <ele>1866</ele>
        <time>2021-08-07T07:17:03.613Z</time>
      </trkpt>
      <trkpt lat="46.92452" lon="8.69227">
        <ele>1866</ele>
        <time>2021-08-07T07:17:04.612Z</time>
      </trkpt>
      <trkpt lat="46.92451" lon="8.69226">
        <ele>1866</ele>
        <time>2021-08-07T07:17:05.612Z</time>
      </trkpt>
      <trkpt lat="46.92451" lon="8.69225">
        <ele>1866</ele>
        <time>2021-08-07T07:17:06.613Z</time>
      </trkpt>
      <trkpt lat="46.9245" lon="8.69223">
        <ele>1866</ele>
        <time>2021-08-07T07:17:07.613Z</time>
      </trkpt>
      <trkpt lat="46.92449" lon="8.69222">
        <ele>1867</ele>
        <time>2021-08-07T07:17:08.612Z</time>
      </trkpt>
      <trkpt lat="46.92449" lon="8.69221">
        <ele>1867</ele>
        <time>2021-08-07T07:17:09.612Z</time>
      </trkpt>
      <trkpt lat="46.92448" lon="8.69221">
        <ele>1867</ele>
        <time>2021-08-07T07:17:10.612Z</time>
      </trkpt>
      <trkpt lat="46.92448" lon="8.69221">
        <ele>1867</ele>
        <time>2021-08-07T07:17:11.612Z</time>
      </trkpt>
      <trkpt lat="46.92448" lon="8.69222">
        <ele>1867</ele>
        <time>2021-08-07T07:17:12.613Z</time>
      </trkpt>
      <trkpt lat="46.92447" lon="8.69221">
        <ele>1867</ele>
        <time>2021-08-07T07:17:13.612Z</time>
      </trkpt>
      <trkpt lat="46.92446" lon="8.69221">
        <ele>1867</ele>
        <time>2021-08-07T07:17:14.612Z</time>
      </trkpt>
      <trkpt lat="46.92445" lon="8.6922">
        <ele>1867</ele>
        <time>2021-08-07T07:17:15.613Z</time>
      </trkpt>
      <trkpt lat="46.92444" lon="8.6922">
        <ele>1867</ele>
        <time>2021-08-07T07:17:16.613Z</time>
      </trkpt>
      <trkpt lat="46.92444" lon="8.6922">
        <ele>1868</ele>
        <time>2021-08-07T07:17:17.613Z</time>
      </trkpt>
      <trkpt lat="46.92442" lon="8.69219">
        <ele>1868</ele>
        <time>2021-08-07T07:17:18.613Z</time>
      </trkpt>
      <trkpt lat="46.92441" lon="8.69218">
        <ele>1868</ele>
        <time>2021-08-07T07:17:19.612Z</time>
      </trkpt>
      <trkpt lat="46.92441" lon="8.69217">
        <ele>1868</ele>
        <time>2021-08-07T07:17:20.613Z</time>
      </trkpt>
      <trkpt lat="46.9244" lon="8.69217">
        <ele>1869</ele>
        <time>2021-08-07T07:17:21.613Z</time>
      </trkpt>
      <trkpt lat="46.9244" lon="8.69216">
        <ele>1869</ele>
        <time>2021-08-07T07:17:22.613Z</time>
      </trkpt>
      <trkpt lat="46.92439" lon="8.69216">
        <ele>1869</ele>
        <time>2021-08-07T07:17:23.612Z</time>
      </trkpt>
      <trkpt lat="46.92439" lon="8.69215">
        <ele>1870</ele>
        <time>2021-08-07T07:17:24.612Z</time>
      </trkpt>
      <trkpt lat="46.92438" lon="8.69214">
        <ele>1870</ele>
        <time>2021-08-07T07:17:25.613Z</time>
      </trkpt>
      <trkpt lat="46.92437" lon="8.69213">
        <ele>1870</ele>
        <time>2021-08-07T07:17:26.613Z</time>
      </trkpt>
      <trkpt lat="46.92437" lon="8.69213">
        <ele>1870</ele>
        <time>2021-08-07T07:17:27.613Z</time>
      </trkpt>
      <trkpt lat="46.92436" lon="8.69213">
        <ele>1871</ele>
        <time>2021-08-07T07:17:28.612Z</time>
      </trkpt>
      <trkpt lat="46.92436" lon="8.69213">
        <ele>1871</ele>
        <time>2021-08-07T07:17:29.612Z</time>
      </trkpt>
      <trkpt lat="46.92435" lon="8.69213">
        <ele>1871</ele>
        <time>2021-08-07T07:17:30.612Z</time>
      </trkpt>
      <trkpt lat="46.92435" lon="8.69213">
        <ele>1872</ele>
        <time>2021-08-07T07:17:31.613Z</time>
      </trkpt>
      <trkpt lat="46.92434" lon="8.69213">
        <ele>1872</ele>
        <time>2021-08-07T07:17:32.612Z</time>
      </trkpt>
      <trkpt lat="46.92434" lon="8.69212">
        <ele>1872</ele>
        <time>2021-08-07T07:17:33.612Z</time>
      </trkpt>
      <trkpt lat="46.92433" lon="8.69212">
        <ele>1872</ele>
        <time>2021-08-07T07:17:34.613Z</time>
      </trkpt>
      <trkpt lat="46.92433" lon="8.69212">
        <ele>1871</ele>
        <time>2021-08-07T07:17:35.613Z</time>
      </trkpt>
      <trkpt lat="46.92431" lon="8.6921">
        <ele>1868</ele>
        <time>2021-08-07T07:17:36.613Z</time>
      </trkpt>
      <trkpt lat="46.92432" lon="8.6921">
        <ele>1868</ele>
        <time>2021-08-07T07:17:37.612Z</time>
      </trkpt>
      <trkpt lat="46.92432" lon="8.69209">
        <ele>1864</ele>
        <time>2021-08-07T07:17:38.613Z</time>
      </trkpt>
      <trkpt lat="46.92432" lon="8.69209">
        <ele>1863</ele>
        <time>2021-08-07T07:17:39.613Z</time>
      </trkpt>
      <trkpt lat="46.92432" lon="8.69209">
        <ele>1862</ele>
        <time>2021-08-07T07:17:40.612Z</time>
      </trkpt>
      <trkpt lat="46.92431" lon="8.69209">
        <ele>1862</ele>
        <time>2021-08-07T07:17:41.612Z</time>
      </trkpt>
      <trkpt lat="46.92431" lon="8.69208">
        <ele>1862</ele>
        <time>2021-08-07T07:17:42.612Z</time>
      </trkpt>
      <trkpt lat="46.9243" lon="8.69208">
        <ele>1862</ele>
        <time>2021-08-07T07:17:43.613Z</time>
      </trkpt>
      <trkpt lat="46.9243" lon="8.69208">
        <ele>1862</ele>
        <time>2021-08-07T07:17:44.613Z</time>
      </trkpt>
      <trkpt lat="46.9243" lon="8.69208">
        <ele>1862</ele>
        <time>2021-08-07T07:17:45.613Z</time>
      </trkpt>
      <trkpt lat="46.92428" lon="8.69207">
        <ele>1860</ele>
        <time>2021-08-07T07:17:46.613Z</time>
      </trkpt>
      <trkpt lat="46.92428" lon="8.69206">
        <ele>1860</ele>
        <time>2021-08-07T07:17:47.614Z</time>
      </trkpt>
      <trkpt lat="46.92427" lon="8.69206">
        <ele>1859</ele>
        <time>2021-08-07T07:17:48.613Z</time>
      </trkpt>
      <trkpt lat="46.92427" lon="8.69206">
        <ele>1859</ele>
        <time>2021-08-07T07:17:49.613Z</time>
      </trkpt>
      <trkpt lat="46.92427" lon="8.69206">
        <ele>1859</ele>
        <time>2021-08-07T07:17:50.613Z</time>
      </trkpt>
      <trkpt lat="46.92426" lon="8.69207">
        <ele>1859</ele>
        <time>2021-08-07T07:17:51.614Z</time>
      </trkpt>
      <trkpt lat="46.92425" lon="8.69207">
        <ele>1859</ele>
        <time>2021-08-07T07:17:52.614Z</time>
      </trkpt>
      <trkpt lat="46.92425" lon="8.69207">
        <ele>1859</ele>
        <time>2021-08-07T07:17:53.614Z</time>
      </trkpt>
      <trkpt lat="46.92424" lon="8.69207">
        <ele>1860</ele>
        <time>2021-08-07T07:17:54.613Z</time>
      </trkpt>
      <trkpt lat="46.92423" lon="8.69206">
        <ele>1860</ele>
        <time>2021-08-07T07:17:55.614Z</time>
      </trkpt>
      <trkpt lat="46.92422" lon="8.69205">
        <ele>1860</ele>
        <time>2021-08-07T07:17:56.614Z</time>
      </trkpt>
      <trkpt lat="46.92422" lon="8.69205">
        <ele>1860</ele>
        <time>2021-08-07T07:17:57.613Z</time>
      </trkpt>
      <trkpt lat="46.92421" lon="8.69205">
        <ele>1860</ele>
        <time>2021-08-07T07:17:58.614Z</time>
      </trkpt>
      <trkpt lat="46.92421" lon="8.69205">
        <ele>1860</ele>
        <time>2021-08-07T07:17:59.613Z</time>
      </trkpt>
      <trkpt lat="46.9242" lon="8.69204">
        <ele>1861</ele>
        <time>2021-08-07T07:18:00.614Z</time>
      </trkpt>
      <trkpt lat="46.92418" lon="8.69204">
        <ele>1861</ele>
        <time>2021-08-07T07:18:01.614Z</time>
      </trkpt>
      <trkpt lat="46.92417" lon="8.69203">
        <ele>1861</ele>
        <time>2021-08-07T07:18:02.614Z</time>
      </trkpt>
      <trkpt lat="46.92416" lon="8.69203">
        <ele>1861</ele>
        <time>2021-08-07T07:18:03.613Z</time>
      </trkpt>
      <trkpt lat="46.92416" lon="8.69203">
        <ele>1861</ele>
        <time>2021-08-07T07:18:04.614Z</time>
      </trkpt>
      <trkpt lat="46.92415" lon="8.69202">
        <ele>1861</ele>
        <time>2021-08-07T07:18:05.614Z</time>
      </trkpt>
      <trkpt lat="46.92414" lon="8.69202">
        <ele>1861</ele>
        <time>2021-08-07T07:18:06.613Z</time>
      </trkpt>
      <trkpt lat="46.92414" lon="8.69201">
        <ele>1861</ele>
        <time>2021-08-07T07:18:07.614Z</time>
      </trkpt>
      <trkpt lat="46.92413" lon="8.692">
        <ele>1861</ele>
        <time>2021-08-07T07:18:08.614Z</time>
      </trkpt>
      <trkpt lat="46.92413" lon="8.69199">
        <ele>1861</ele>
        <time>2021-08-07T07:18:09.613Z</time>
      </trkpt>
      <trkpt lat="46.92412" lon="8.69198">
        <ele>1862</ele>
        <time>2021-08-07T07:18:10.614Z</time>
      </trkpt>
      <trkpt lat="46.92412" lon="8.69197">
        <ele>1862</ele>
        <time>2021-08-07T07:18:11.613Z</time>
      </trkpt>
      <trkpt lat="46.92411" lon="8.69196">
        <ele>1862</ele>
        <time>2021-08-07T07:18:12.614Z</time>
      </trkpt>
      <trkpt lat="46.92411" lon="8.69195">
        <ele>1862</ele>
        <time>2021-08-07T07:18:13.613Z</time>
      </trkpt>
      <trkpt lat="46.92411" lon="8.69194">
        <ele>1862</ele>
        <time>2021-08-07T07:18:14.614Z</time>
      </trkpt>
      <trkpt lat="46.9241" lon="8.69193">
        <ele>1862</ele>
        <time>2021-08-07T07:18:15.613Z</time>
      </trkpt>
      <trkpt lat="46.9241" lon="8.69193">
        <ele>1862</ele>
        <time>2021-08-07T07:18:16.613Z</time>
      </trkpt>
      <trkpt lat="46.92409" lon="8.69194">
        <ele>1862</ele>
        <time>2021-08-07T07:18:17.613Z</time>
      </trkpt>
      <trkpt lat="46.92409" lon="8.69194">
        <ele>1862</ele>
        <time>2021-08-07T07:18:18.614Z</time>
      </trkpt>
      <trkpt lat="46.92408" lon="8.69193">
        <ele>1862</ele>
        <time>2021-08-07T07:18:19.614Z</time>
      </trkpt>
      <trkpt lat="46.92408" lon="8.69193">
        <ele>1862</ele>
        <time>2021-08-07T07:18:20.613Z</time>
      </trkpt>
      <trkpt lat="46.92407" lon="8.69192">
        <ele>1862</ele>
        <time>2021-08-07T07:18:21.613Z</time>
      </trkpt>
      <trkpt lat="46.92407" lon="8.69191">
        <ele>1862</ele>
        <time>2021-08-07T07:18:22.613Z</time>
      </trkpt>
      <trkpt lat="46.92406" lon="8.6919">
        <ele>1862</ele>
        <time>2021-08-07T07:18:23.614Z</time>
      </trkpt>
      <trkpt lat="46.92406" lon="8.69189">
        <ele>1862</ele>
        <time>2021-08-07T07:18:24.613Z</time>
      </trkpt>
      <trkpt lat="46.92405" lon="8.69189">
        <ele>1862</ele>
        <time>2021-08-07T07:18:25.614Z</time>
      </trkpt>
      <trkpt lat="46.92405" lon="8.69188">
        <ele>1862</ele>
        <time>2021-08-07T07:18:26.614Z</time>
      </trkpt>
      <trkpt lat="46.92405" lon="8.69187">
        <ele>1862</ele>
        <time>2021-08-07T07:18:27.613Z</time>
      </trkpt>
      <trkpt lat="46.92404" lon="8.69185">
        <ele>1862</ele>
        <time>2021-08-07T07:18:28.613Z</time>
      </trkpt>
      <trkpt lat="46.92403" lon="8.69185">
        <ele>1862</ele>
        <time>2021-08-07T07:18:29.614Z</time>
      </trkpt>
      <trkpt lat="46.92403" lon="8.69184">
        <ele>1862</ele>
        <time>2021-08-07T07:18:30.613Z</time>
      </trkpt>
      <trkpt lat="46.92403" lon="8.69184">
        <ele>1862</ele>
        <time>2021-08-07T07:18:31.614Z</time>
      </trkpt>
      <trkpt lat="46.92403" lon="8.69183">
        <ele>1862</ele>
        <time>2021-08-07T07:18:32.614Z</time>
      </trkpt>
      <trkpt lat="46.92403" lon="8.69182">
        <ele>1862</ele>
        <time>2021-08-07T07:18:33.614Z</time>
      </trkpt>
      <trkpt lat="46.92404" lon="8.69181">
        <ele>1862</ele>
        <time>2021-08-07T07:18:34.613Z</time>
      </trkpt>
      <trkpt lat="46.92403" lon="8.69181">
        <ele>1862</ele>
        <time>2021-08-07T07:18:35.613Z</time>
      </trkpt>
      <trkpt lat="46.92402" lon="8.6918">
        <ele>1862</ele>
        <time>2021-08-07T07:18:36.613Z</time>
      </trkpt>
      <trkpt lat="46.92403" lon="8.69176">
        <ele>1861</ele>
        <time>2021-08-07T07:18:37.615Z</time>
      </trkpt>
      <trkpt lat="46.92404" lon="8.69175">
        <ele>1861</ele>
        <time>2021-08-07T07:18:38.615Z</time>
      </trkpt>
      <trkpt lat="46.92404" lon="8.69174">
        <ele>1861</ele>
        <time>2021-08-07T07:18:39.614Z</time>
      </trkpt>
      <trkpt lat="46.92404" lon="8.69175">
        <ele>1861</ele>
        <time>2021-08-07T07:18:40.615Z</time>
      </trkpt>
      <trkpt lat="46.92403" lon="8.69175">
        <ele>1860</ele>
        <time>2021-08-07T07:18:41.615Z</time>
      </trkpt>
      <trkpt lat="46.92404" lon="8.69172">
        <ele>1860</ele>
        <time>2021-08-07T07:18:42.614Z</time>
      </trkpt>
      <trkpt lat="46.92404" lon="8.69171">
        <ele>1860</ele>
        <time>2021-08-07T07:18:43.614Z</time>
      </trkpt>
      <trkpt lat="46.92405" lon="8.6917">
        <ele>1860</ele>
        <time>2021-08-07T07:18:44.615Z</time>
      </trkpt>
      <trkpt lat="46.92405" lon="8.69169">
        <ele>1859</ele>
        <time>2021-08-07T07:18:45.615Z</time>
      </trkpt>
      <trkpt lat="46.92405" lon="8.69168">
        <ele>1859</ele>
        <time>2021-08-07T07:18:46.615Z</time>
      </trkpt>
      <trkpt lat="46.92404" lon="8.69168">
        <ele>1859</ele>
        <time>2021-08-07T07:18:47.615Z</time>
      </trkpt>
      <trkpt lat="46.92404" lon="8.69167">
        <ele>1859</ele>
        <time>2021-08-07T07:18:48.615Z</time>
      </trkpt>
      <trkpt lat="46.92403" lon="8.69167">
        <ele>1859</ele>
        <time>2021-08-07T07:18:49.615Z</time>
      </trkpt>
      <trkpt lat="46.92403" lon="8.69167">
        <ele>1859</ele>
        <time>2021-08-07T07:18:50.614Z</time>
      </trkpt>
      <trkpt lat="46.92402" lon="8.69166">
        <ele>1859</ele>
        <time>2021-08-07T07:18:51.614Z</time>
      </trkpt>
      <trkpt lat="46.92402" lon="8.69166">
        <ele>1859</ele>
        <time>2021-08-07T07:18:52.615Z</time>
      </trkpt>
      <trkpt lat="46.92401" lon="8.69165">
        <ele>1859</ele>
        <time>2021-08-07T07:18:53.615Z</time>
      </trkpt>
      <trkpt lat="46.924" lon="8.69165">
        <ele>1859</ele>
        <time>2021-08-07T07:18:54.614Z</time>
      </trkpt>
      <trkpt lat="46.924" lon="8.69164">
        <ele>1858</ele>
        <time>2021-08-07T07:18:55.615Z</time>
      </trkpt>
      <trkpt lat="46.924" lon="8.69163">
        <ele>1858</ele>
        <time>2021-08-07T07:18:56.615Z</time>
      </trkpt>
      <trkpt lat="46.924" lon="8.69163">
        <ele>1858</ele>
        <time>2021-08-07T07:18:57.615Z</time>
      </trkpt>
      <trkpt lat="46.92399" lon="8.69163">
        <ele>1858</ele>
        <time>2021-08-07T07:18:58.614Z</time>
      </trkpt>
      <trkpt lat="46.92397" lon="8.69163">
        <ele>1858</ele>
        <time>2021-08-07T07:18:59.615Z</time>
      </trkpt>
      <trkpt lat="46.92397" lon="8.69163">
        <ele>1858</ele>
        <time>2021-08-07T07:19:00.615Z</time>
      </trkpt>
      <trkpt lat="46.92396" lon="8.69162">
        <ele>1858</ele>
        <time>2021-08-07T07:19:01.614Z</time>
      </trkpt>
      <trkpt lat="46.92396" lon="8.69161">
        <ele>1857</ele>
        <time>2021-08-07T07:19:02.615Z</time>
      </trkpt>
      <trkpt lat="46.92396" lon="8.6916">
        <ele>1857</ele>
        <time>2021-08-07T07:19:03.615Z</time>
      </trkpt>
      <trkpt lat="46.92396" lon="8.69159">
        <ele>1857</ele>
        <time>2021-08-07T07:19:04.614Z</time>
      </trkpt>
      <trkpt lat="46.92396" lon="8.69158">
        <ele>1857</ele>
        <time>2021-08-07T07:19:05.615Z</time>
      </trkpt>
      <trkpt lat="46.92395" lon="8.69159">
        <ele>1857</ele>
        <time>2021-08-07T07:19:06.614Z</time>
      </trkpt>
      <trkpt lat="46.92394" lon="8.69159">
        <ele>1857</ele>
        <time>2021-08-07T07:19:07.614Z</time>
      </trkpt>
      <trkpt lat="46.92394" lon="8.69158">
        <ele>1857</ele>
        <time>2021-08-07T07:19:08.614Z</time>
      </trkpt>
      <trkpt lat="46.92394" lon="8.69158">
        <ele>1857</ele>
        <time>2021-08-07T07:19:09.614Z</time>
      </trkpt>
      <trkpt lat="46.92394" lon="8.69157">
        <ele>1856</ele>
        <time>2021-08-07T07:19:10.615Z</time>
      </trkpt>
      <trkpt lat="46.92393" lon="8.69157">
        <ele>1856</ele>
        <time>2021-08-07T07:19:11.615Z</time>
      </trkpt>
      <trkpt lat="46.92392" lon="8.69156">
        <ele>1857</ele>
        <time>2021-08-07T07:19:12.615Z</time>
      </trkpt>
      <trkpt lat="46.92391" lon="8.69156">
        <ele>1857</ele>
        <time>2021-08-07T07:19:13.614Z</time>
      </trkpt>
      <trkpt lat="46.9239" lon="8.69156">
        <ele>1857</ele>
        <time>2021-08-07T07:19:14.615Z</time>
      </trkpt>
      <trkpt lat="46.92389" lon="8.69155">
        <ele>1857</ele>
        <time>2021-08-07T07:19:15.615Z</time>
      </trkpt>
      <trkpt lat="46.92389" lon="8.69154">
        <ele>1858</ele>
        <time>2021-08-07T07:19:16.615Z</time>
      </trkpt>
      <trkpt lat="46.92388" lon="8.69154">
        <ele>1858</ele>
        <time>2021-08-07T07:19:17.615Z</time>
      </trkpt>
      <trkpt lat="46.92387" lon="8.69154">
        <ele>1858</ele>
        <time>2021-08-07T07:19:18.615Z</time>
      </trkpt>
      <trkpt lat="46.92387" lon="8.69154">
        <ele>1858</ele>
        <time>2021-08-07T07:19:19.614Z</time>
      </trkpt>
      <trkpt lat="46.92387" lon="8.69154">
        <ele>1858</ele>
        <time>2021-08-07T07:19:20.614Z</time>
      </trkpt>
      <trkpt lat="46.92387" lon="8.69154">
        <ele>1858</ele>
        <time>2021-08-07T07:19:21.615Z</time>
      </trkpt>
      <trkpt lat="46.92386" lon="8.69154">
        <ele>1857</ele>
        <time>2021-08-07T07:19:22.616Z</time>
      </trkpt>
      <trkpt lat="46.92385" lon="8.69153">
        <ele>1857</ele>
        <time>2021-08-07T07:19:23.615Z</time>
      </trkpt>
      <trkpt lat="46.92384" lon="8.69153">
        <ele>1856</ele>
        <time>2021-08-07T07:19:24.615Z</time>
      </trkpt>
      <trkpt lat="46.92383" lon="8.69153">
        <ele>1856</ele>
        <time>2021-08-07T07:19:25.615Z</time>
      </trkpt>
      <trkpt lat="46.92383" lon="8.69153">
        <ele>1855</ele>
        <time>2021-08-07T07:19:26.615Z</time>
      </trkpt>
      <trkpt lat="46.92382" lon="8.69154">
        <ele>1855</ele>
        <time>2021-08-07T07:19:27.615Z</time>
      </trkpt>
      <trkpt lat="46.92378" lon="8.69157">
        <ele>1859</ele>
        <time>2021-08-07T07:19:28.617Z</time>
      </trkpt>
      <trkpt lat="46.92377" lon="8.69157">
        <ele>1859</ele>
        <time>2021-08-07T07:19:29.616Z</time>
      </trkpt>
      <trkpt lat="46.92377" lon="8.69156">
        <ele>1860</ele>
        <time>2021-08-07T07:19:30.617Z</time>
      </trkpt>
      <trkpt lat="46.92376" lon="8.69157">
        <ele>1860</ele>
        <time>2021-08-07T07:19:31.617Z</time>
      </trkpt>
      <trkpt lat="46.92376" lon="8.69158">
        <ele>1858</ele>
        <time>2021-08-07T07:19:32.617Z</time>
      </trkpt>
      <trkpt lat="46.92376" lon="8.69159">
        <ele>1858</ele>
        <time>2021-08-07T07:19:33.617Z</time>
      </trkpt>
      <trkpt lat="46.92376" lon="8.6916">
        <ele>1858</ele>
        <time>2021-08-07T07:19:34.616Z</time>
      </trkpt>
      <trkpt lat="46.92373" lon="8.69161">
        <ele>1857</ele>
        <time>2021-08-07T07:19:35.616Z</time>
      </trkpt>
      <trkpt lat="46.92373" lon="8.69161">
        <ele>1856</ele>
        <time>2021-08-07T07:19:36.617Z</time>
      </trkpt>
      <trkpt lat="46.92372" lon="8.6916">
        <ele>1856</ele>
        <time>2021-08-07T07:19:37.617Z</time>
      </trkpt>
      <trkpt lat="46.92372" lon="8.6916">
        <ele>1856</ele>
        <time>2021-08-07T07:19:38.617Z</time>
      </trkpt>
      <trkpt lat="46.92371" lon="8.69159">
        <ele>1856</ele>
        <time>2021-08-07T07:19:39.617Z</time>
      </trkpt>
      <trkpt lat="46.9237" lon="8.69158">
        <ele>1857</ele>
        <time>2021-08-07T07:19:40.616Z</time>
      </trkpt>
      <trkpt lat="46.92369" lon="8.69158">
        <ele>1857</ele>
        <time>2021-08-07T07:19:41.616Z</time>
      </trkpt>
      <trkpt lat="46.92368" lon="8.69158">
        <ele>1857</ele>
        <time>2021-08-07T07:19:42.617Z</time>
      </trkpt>
      <trkpt lat="46.92368" lon="8.6916">
        <ele>1857</ele>
        <time>2021-08-07T07:19:43.616Z</time>
      </trkpt>
      <trkpt lat="46.92367" lon="8.6916">
        <ele>1856</ele>
        <time>2021-08-07T07:19:44.617Z</time>
      </trkpt>
      <trkpt lat="46.92365" lon="8.69159">
        <ele>1855</ele>
        <time>2021-08-07T07:19:45.618Z</time>
      </trkpt>
      <trkpt lat="46.92364" lon="8.69159">
        <ele>1855</ele>
        <time>2021-08-07T07:19:46.617Z</time>
      </trkpt>
      <trkpt lat="46.92364" lon="8.6916">
        <ele>1855</ele>
        <time>2021-08-07T07:19:47.618Z</time>
      </trkpt>
      <trkpt lat="46.92363" lon="8.6916">
        <ele>1855</ele>
        <time>2021-08-07T07:19:48.618Z</time>
      </trkpt>
      <trkpt lat="46.92363" lon="8.69161">
        <ele>1855</ele>
        <time>2021-08-07T07:19:49.618Z</time>
      </trkpt>
      <trkpt lat="46.92362" lon="8.69161">
        <ele>1855</ele>
        <time>2021-08-07T07:19:50.618Z</time>
      </trkpt>
      <trkpt lat="46.92361" lon="8.69161">
        <ele>1855</ele>
        <time>2021-08-07T07:19:51.617Z</time>
      </trkpt>
      <trkpt lat="46.9236" lon="8.69161">
        <ele>1855</ele>
        <time>2021-08-07T07:19:52.617Z</time>
      </trkpt>
      <trkpt lat="46.9236" lon="8.69161">
        <ele>1856</ele>
        <time>2021-08-07T07:19:53.617Z</time>
      </trkpt>
      <trkpt lat="46.92358" lon="8.69161">
        <ele>1856</ele>
        <time>2021-08-07T07:19:54.617Z</time>
      </trkpt>
      <trkpt lat="46.92358" lon="8.6916">
        <ele>1856</ele>
        <time>2021-08-07T07:19:55.617Z</time>
      </trkpt>
      <trkpt lat="46.92357" lon="8.6916">
        <ele>1857</ele>
        <time>2021-08-07T07:19:56.618Z</time>
      </trkpt>
      <trkpt lat="46.92357" lon="8.6916">
        <ele>1858</ele>
        <time>2021-08-07T07:19:57.618Z</time>
      </trkpt>
      <trkpt lat="46.92356" lon="8.6916">
        <ele>1859</ele>
        <time>2021-08-07T07:19:58.617Z</time>
      </trkpt>
      <trkpt lat="46.92356" lon="8.6916">
        <ele>1860</ele>
        <time>2021-08-07T07:19:59.617Z</time>
      </trkpt>
      <trkpt lat="46.92356" lon="8.69159">
        <ele>1863</ele>
        <time>2021-08-07T07:20:00.619Z</time>
      </trkpt>
      <trkpt lat="46.92356" lon="8.69159">
        <ele>1864</ele>
        <time>2021-08-07T07:20:01.619Z</time>
      </trkpt>
      <trkpt lat="46.92356" lon="8.69157">
        <ele>1864</ele>
        <time>2021-08-07T07:20:02.620Z</time>
      </trkpt>
      <trkpt lat="46.92356" lon="8.69156">
        <ele>1865</ele>
        <time>2021-08-07T07:20:03.619Z</time>
      </trkpt>
      <trkpt lat="46.92356" lon="8.69155">
        <ele>1865</ele>
        <time>2021-08-07T07:20:04.619Z</time>
      </trkpt>
      <trkpt lat="46.92355" lon="8.69155">
        <ele>1865</ele>
        <time>2021-08-07T07:20:05.620Z</time>
      </trkpt>
      <trkpt lat="46.92354" lon="8.69154">
        <ele>1865</ele>
        <time>2021-08-07T07:20:06.620Z</time>
      </trkpt>
      <trkpt lat="46.92354" lon="8.69153">
        <ele>1866</ele>
        <time>2021-08-07T07:20:07.620Z</time>
      </trkpt>
      <trkpt lat="46.92353" lon="8.69153">
        <ele>1865</ele>
        <time>2021-08-07T07:20:08.620Z</time>
      </trkpt>
      <trkpt lat="46.92353" lon="8.69153">
        <ele>1865</ele>
        <time>2021-08-07T07:20:09.620Z</time>
      </trkpt>
      <trkpt lat="46.92352" lon="8.69153">
        <ele>1865</ele>
        <time>2021-08-07T07:20:10.620Z</time>
      </trkpt>
      <trkpt lat="46.92351" lon="8.69152">
        <ele>1865</ele>
        <time>2021-08-07T07:20:11.619Z</time>
      </trkpt>
      <trkpt lat="46.92349" lon="8.69151">
        <ele>1865</ele>
        <time>2021-08-07T07:20:12.620Z</time>
      </trkpt>
      <trkpt lat="46.92349" lon="8.69152">
        <ele>1865</ele>
        <time>2021-08-07T07:20:13.619Z</time>
      </trkpt>
      <trkpt lat="46.92348" lon="8.69152">
        <ele>1864</ele>
        <time>2021-08-07T07:20:14.619Z</time>
      </trkpt>
      <trkpt lat="46.92347" lon="8.69151">
        <ele>1864</ele>
        <time>2021-08-07T07:20:15.620Z</time>
      </trkpt>
      <trkpt lat="46.92347" lon="8.69152">
        <ele>1863</ele>
        <time>2021-08-07T07:20:16.620Z</time>
      </trkpt>
      <trkpt lat="46.92348" lon="8.69152">
        <ele>1863</ele>
        <time>2021-08-07T07:20:17.619Z</time>
      </trkpt>
      <trkpt lat="46.92347" lon="8.6915">
        <ele>1862</ele>
        <time>2021-08-07T07:20:18.620Z</time>
      </trkpt>
      <trkpt lat="46.92347" lon="8.69149">
        <ele>1862</ele>
        <time>2021-08-07T07:20:19.619Z</time>
      </trkpt>
      <trkpt lat="46.92346" lon="8.69148">
        <ele>1862</ele>
        <time>2021-08-07T07:20:20.619Z</time>
      </trkpt>
      <trkpt lat="46.92346" lon="8.69147">
        <ele>1861</ele>
        <time>2021-08-07T07:20:21.620Z</time>
      </trkpt>
      <trkpt lat="46.92345" lon="8.69145">
        <ele>1861</ele>
        <time>2021-08-07T07:20:22.619Z</time>
      </trkpt>
      <trkpt lat="46.92345" lon="8.69146">
        <ele>1861</ele>
        <time>2021-08-07T07:20:23.620Z</time>
      </trkpt>
      <trkpt lat="46.92345" lon="8.69146">
        <ele>1861</ele>
        <time>2021-08-07T07:20:24.620Z</time>
      </trkpt>
      <trkpt lat="46.92344" lon="8.69146">
        <ele>1861</ele>
        <time>2021-08-07T07:20:25.619Z</time>
      </trkpt>
      <trkpt lat="46.92346" lon="8.69147">
        <ele>1861</ele>
        <time>2021-08-07T07:20:26.620Z</time>
      </trkpt>
      <trkpt lat="46.92347" lon="8.69146">
        <ele>1861</ele>
        <time>2021-08-07T07:20:27.620Z</time>
      </trkpt>
      <trkpt lat="46.92347" lon="8.69146">
        <ele>1862</ele>
        <time>2021-08-07T07:20:28.620Z</time>
      </trkpt>
      <trkpt lat="46.92346" lon="8.69145">
        <ele>1862</ele>
        <time>2021-08-07T07:20:29.620Z</time>
      </trkpt>
      <trkpt lat="46.92346" lon="8.69145">
        <ele>1863</ele>
        <time>2021-08-07T07:20:30.620Z</time>
      </trkpt>
      <trkpt lat="46.92345" lon="8.69145">
        <ele>1863</ele>
        <time>2021-08-07T07:20:31.619Z</time>
      </trkpt>
      <trkpt lat="46.92345" lon="8.69145">
        <ele>1863</ele>
        <time>2021-08-07T07:20:32.619Z</time>
      </trkpt>
      <trkpt lat="46.92344" lon="8.69145">
        <ele>1866</ele>
        <time>2021-08-07T07:20:33.621Z</time>
      </trkpt>
      <trkpt lat="46.92344" lon="8.69145">
        <ele>1866</ele>
        <time>2021-08-07T07:20:34.620Z</time>
      </trkpt>
      <trkpt lat="46.92343" lon="8.69144">
        <ele>1866</ele>
        <time>2021-08-07T07:20:35.621Z</time>
      </trkpt>
      <trkpt lat="46.92342" lon="8.69143">
        <ele>1867</ele>
        <time>2021-08-07T07:20:36.621Z</time>
      </trkpt>
      <trkpt lat="46.92341" lon="8.69141">
        <ele>1867</ele>
        <time>2021-08-07T07:20:37.621Z</time>
      </trkpt>
      <trkpt lat="46.92341" lon="8.69141">
        <ele>1868</ele>
        <time>2021-08-07T07:20:38.620Z</time>
      </trkpt>
      <trkpt lat="46.92341" lon="8.69141">
        <ele>1869</ele>
        <time>2021-08-07T07:20:39.622Z</time>
      </trkpt>
      <trkpt lat="46.92341" lon="8.69141">
        <ele>1870</ele>
        <time>2021-08-07T07:20:40.623Z</time>
      </trkpt>
      <trkpt lat="46.92341" lon="8.69141">
        <ele>1870</ele>
        <time>2021-08-07T07:20:41.622Z</time>
      </trkpt>
      <trkpt lat="46.92341" lon="8.69141">
        <ele>1871</ele>
        <time>2021-08-07T07:20:42.623Z</time>
      </trkpt>
      <trkpt lat="46.9234" lon="8.69139">
        <ele>1873</ele>
        <time>2021-08-07T07:20:43.623Z</time>
      </trkpt>
      <trkpt lat="46.9234" lon="8.69138">
        <ele>1873</ele>
        <time>2021-08-07T07:20:44.623Z</time>
      </trkpt>
      <trkpt lat="46.9234" lon="8.69138">
        <ele>1873</ele>
        <time>2021-08-07T07:20:45.623Z</time>
      </trkpt>
      <trkpt lat="46.92339" lon="8.69139">
        <ele>1871</ele>
        <time>2021-08-07T07:20:46.624Z</time>
      </trkpt>
      <trkpt lat="46.92338" lon="8.69139">
        <ele>1870</ele>
        <time>2021-08-07T07:20:47.624Z</time>
      </trkpt>
      <trkpt lat="46.92338" lon="8.69138">
        <ele>1870</ele>
        <time>2021-08-07T07:20:48.623Z</time>
      </trkpt>
      <trkpt lat="46.92337" lon="8.69138">
        <ele>1869</ele>
        <time>2021-08-07T07:20:49.623Z</time>
      </trkpt>
      <trkpt lat="46.92337" lon="8.69137">
        <ele>1869</ele>
        <time>2021-08-07T07:20:50.623Z</time>
      </trkpt>
      <trkpt lat="46.92337" lon="8.69137">
        <ele>1868</ele>
        <time>2021-08-07T07:20:51.623Z</time>
      </trkpt>
      <trkpt lat="46.92336" lon="8.69137">
        <ele>1868</ele>
        <time>2021-08-07T07:20:52.623Z</time>
      </trkpt>
      <trkpt lat="46.92335" lon="8.69136">
        <ele>1869</ele>
        <time>2021-08-07T07:20:53.623Z</time>
      </trkpt>
      <trkpt lat="46.92334" lon="8.69135">
        <ele>1869</ele>
        <time>2021-08-07T07:20:54.623Z</time>
      </trkpt>
      <trkpt lat="46.92333" lon="8.69134">
        <ele>1869</ele>
        <time>2021-08-07T07:20:55.623Z</time>
      </trkpt>
      <trkpt lat="46.92333" lon="8.69134">
        <ele>1869</ele>
        <time>2021-08-07T07:20:56.623Z</time>
      </trkpt>
      <trkpt lat="46.92332" lon="8.69133">
        <ele>1870</ele>
        <time>2021-08-07T07:20:57.623Z</time>
      </trkpt>
      <trkpt lat="46.92331" lon="8.69133">
        <ele>1870</ele>
        <time>2021-08-07T07:20:58.623Z</time>
      </trkpt>
      <trkpt lat="46.92331" lon="8.69133">
        <ele>1871</ele>
        <time>2021-08-07T07:20:59.623Z</time>
      </trkpt>
      <trkpt lat="46.9233" lon="8.69133">
        <ele>1872</ele>
        <time>2021-08-07T07:21:00.623Z</time>
      </trkpt>
      <trkpt lat="46.9233" lon="8.69133">
        <ele>1872</ele>
        <time>2021-08-07T07:21:01.623Z</time>
      </trkpt>
      <trkpt lat="46.92329" lon="8.69133">
        <ele>1872</ele>
        <time>2021-08-07T07:21:02.623Z</time>
      </trkpt>
      <trkpt lat="46.92329" lon="8.69133">
        <ele>1873</ele>
        <time>2021-08-07T07:21:03.624Z</time>
      </trkpt>
      <trkpt lat="46.92328" lon="8.69133">
        <ele>1873</ele>
        <time>2021-08-07T07:21:04.623Z</time>
      </trkpt>
      <trkpt lat="46.92327" lon="8.69131">
        <ele>1873</ele>
        <time>2021-08-07T07:21:05.623Z</time>
      </trkpt>
      <trkpt lat="46.92326" lon="8.69131">
        <ele>1873</ele>
        <time>2021-08-07T07:21:06.624Z</time>
      </trkpt>
      <trkpt lat="46.92325" lon="8.69131">
        <ele>1873</ele>
        <time>2021-08-07T07:21:07.624Z</time>
      </trkpt>
      <trkpt lat="46.92324" lon="8.6913">
        <ele>1873</ele>
        <time>2021-08-07T07:21:08.624Z</time>
      </trkpt>
      <trkpt lat="46.92323" lon="8.69129">
        <ele>1873</ele>
        <time>2021-08-07T07:21:09.623Z</time>
      </trkpt>
      <trkpt lat="46.92323" lon="8.69129">
        <ele>1874</ele>
        <time>2021-08-07T07:21:10.623Z</time>
      </trkpt>
      <trkpt lat="46.92322" lon="8.69128">
        <ele>1874</ele>
        <time>2021-08-07T07:21:11.624Z</time>
      </trkpt>
      <trkpt lat="46.92321" lon="8.69128">
        <ele>1874</ele>
        <time>2021-08-07T07:21:12.623Z</time>
      </trkpt>
      <trkpt lat="46.92321" lon="8.69128">
        <ele>1874</ele>
        <time>2021-08-07T07:21:13.624Z</time>
      </trkpt>
      <trkpt lat="46.92321" lon="8.69128">
        <ele>1874</ele>
        <time>2021-08-07T07:21:14.624Z</time>
      </trkpt>
      <trkpt lat="46.92321" lon="8.69129">
        <ele>1875</ele>
        <time>2021-08-07T07:21:15.624Z</time>
      </trkpt>
      <trkpt lat="46.92321" lon="8.69129">
        <ele>1875</ele>
        <time>2021-08-07T07:21:16.624Z</time>
      </trkpt>
      <trkpt lat="46.92321" lon="8.69129">
        <ele>1875</ele>
        <time>2021-08-07T07:21:17.624Z</time>
      </trkpt>
      <trkpt lat="46.9232" lon="8.69128">
        <ele>1876</ele>
        <time>2021-08-07T07:21:18.624Z</time>
      </trkpt>
      <trkpt lat="46.9232" lon="8.69128">
        <ele>1875</ele>
        <time>2021-08-07T07:21:19.624Z</time>
      </trkpt>
      <trkpt lat="46.92319" lon="8.69128">
        <ele>1875</ele>
        <time>2021-08-07T07:21:20.623Z</time>
      </trkpt>
      <trkpt lat="46.92318" lon="8.69128">
        <ele>1875</ele>
        <time>2021-08-07T07:21:21.623Z</time>
      </trkpt>
      <trkpt lat="46.92318" lon="8.69127">
        <ele>1875</ele>
        <time>2021-08-07T07:21:22.624Z</time>
      </trkpt>
      <trkpt lat="46.92317" lon="8.69127">
        <ele>1875</ele>
        <time>2021-08-07T07:21:23.624Z</time>
      </trkpt>
      <trkpt lat="46.92316" lon="8.69127">
        <ele>1875</ele>
        <time>2021-08-07T07:21:24.624Z</time>
      </trkpt>
      <trkpt lat="46.92316" lon="8.69127">
        <ele>1876</ele>
        <time>2021-08-07T07:21:25.624Z</time>
      </trkpt>
      <trkpt lat="46.92315" lon="8.69127">
        <ele>1876</ele>
        <time>2021-08-07T07:21:26.624Z</time>
      </trkpt>
      <trkpt lat="46.92315" lon="8.69126">
        <ele>1876</ele>
        <time>2021-08-07T07:21:27.623Z</time>
      </trkpt>
      <trkpt lat="46.92314" lon="8.69126">
        <ele>1876</ele>
        <time>2021-08-07T07:21:28.624Z</time>
      </trkpt>
      <trkpt lat="46.92313" lon="8.69126">
        <ele>1876</ele>
        <time>2021-08-07T07:21:29.624Z</time>
      </trkpt>
      <trkpt lat="46.92312" lon="8.69126">
        <ele>1876</ele>
        <time>2021-08-07T07:21:30.624Z</time>
      </trkpt>
      <trkpt lat="46.92312" lon="8.69126">
        <ele>1876</ele>
        <time>2021-08-07T07:21:31.624Z</time>
      </trkpt>
      <trkpt lat="46.9231" lon="8.69125">
        <ele>1875</ele>
        <time>2021-08-07T07:21:32.624Z</time>
      </trkpt>
      <trkpt lat="46.9231" lon="8.69125">
        <ele>1875</ele>
        <time>2021-08-07T07:21:33.623Z</time>
      </trkpt>
      <trkpt lat="46.92309" lon="8.69124">
        <ele>1875</ele>
        <time>2021-08-07T07:21:34.623Z</time>
      </trkpt>
      <trkpt lat="46.92309" lon="8.69124">
        <ele>1876</ele>
        <time>2021-08-07T07:21:35.623Z</time>
      </trkpt>
      <trkpt lat="46.92308" lon="8.69124">
        <ele>1876</ele>
        <time>2021-08-07T07:21:36.624Z</time>
      </trkpt>
      <trkpt lat="46.92308" lon="8.69124">
        <ele>1876</ele>
        <time>2021-08-07T07:21:37.623Z</time>
      </trkpt>
      <trkpt lat="46.92307" lon="8.69123">
        <ele>1876</ele>
        <time>2021-08-07T07:21:38.624Z</time>
      </trkpt>
      <trkpt lat="46.92306" lon="8.69123">
        <ele>1876</ele>
        <time>2021-08-07T07:21:39.623Z</time>
      </trkpt>
      <trkpt lat="46.92305" lon="8.69122">
        <ele>1877</ele>
        <time>2021-08-07T07:21:40.623Z</time>
      </trkpt>
      <trkpt lat="46.92305" lon="8.69122">
        <ele>1877</ele>
        <time>2021-08-07T07:21:41.624Z</time>
      </trkpt>
      <trkpt lat="46.92306" lon="8.69122">
        <ele>1877</ele>
        <time>2021-08-07T07:21:42.623Z</time>
      </trkpt>
      <trkpt lat="46.92305" lon="8.6912">
        <ele>1878</ele>
        <time>2021-08-07T07:21:43.624Z</time>
      </trkpt>
      <trkpt lat="46.92304" lon="8.69119">
        <ele>1878</ele>
        <time>2021-08-07T07:21:44.623Z</time>
      </trkpt>
      <trkpt lat="46.92304" lon="8.69118">
        <ele>1878</ele>
        <time>2021-08-07T07:21:45.624Z</time>
      </trkpt>
      <trkpt lat="46.92303" lon="8.69117">
        <ele>1878</ele>
        <time>2021-08-07T07:21:46.624Z</time>
      </trkpt>
      <trkpt lat="46.92303" lon="8.69117">
        <ele>1878</ele>
        <time>2021-08-07T07:21:47.623Z</time>
      </trkpt>
      <trkpt lat="46.92302" lon="8.69117">
        <ele>1879</ele>
        <time>2021-08-07T07:21:48.623Z</time>
      </trkpt>
      <trkpt lat="46.92301" lon="8.69116">
        <ele>1879</ele>
        <time>2021-08-07T07:21:49.624Z</time>
      </trkpt>
      <trkpt lat="46.92301" lon="8.69116">
        <ele>1879</ele>
        <time>2021-08-07T07:21:50.624Z</time>
      </trkpt>
      <trkpt lat="46.923" lon="8.69116">
        <ele>1879</ele>
        <time>2021-08-07T07:21:51.623Z</time>
      </trkpt>
      <trkpt lat="46.923" lon="8.69116">
        <ele>1880</ele>
        <time>2021-08-07T07:21:52.623Z</time>
      </trkpt>
      <trkpt lat="46.923" lon="8.69115">
        <ele>1879</ele>
        <time>2021-08-07T07:21:53.623Z</time>
      </trkpt>
      <trkpt lat="46.92299" lon="8.69115">
        <ele>1879</ele>
        <time>2021-08-07T07:21:54.623Z</time>
      </trkpt>
      <trkpt lat="46.92299" lon="8.69114">
        <ele>1879</ele>
        <time>2021-08-07T07:21:55.623Z</time>
      </trkpt>
      <trkpt lat="46.92298" lon="8.69114">
        <ele>1879</ele>
        <time>2021-08-07T07:21:56.623Z</time>
      </trkpt>
      <trkpt lat="46.92297" lon="8.69114">
        <ele>1879</ele>
        <time>2021-08-07T07:21:57.624Z</time>
      </trkpt>
      <trkpt lat="46.92296" lon="8.69114">
        <ele>1879</ele>
        <time>2021-08-07T07:21:58.624Z</time>
      </trkpt>
      <trkpt lat="46.92296" lon="8.69113">
        <ele>1879</ele>
        <time>2021-08-07T07:21:59.623Z</time>
      </trkpt>
      <trkpt lat="46.92295" lon="8.69113">
        <ele>1879</ele>
        <time>2021-08-07T07:22:00.623Z</time>
      </trkpt>
      <trkpt lat="46.92295" lon="8.69112">
        <ele>1879</ele>
        <time>2021-08-07T07:22:01.623Z</time>
      </trkpt>
      <trkpt lat="46.92294" lon="8.69111">
        <ele>1879</ele>
        <time>2021-08-07T07:22:02.624Z</time>
      </trkpt>
      <trkpt lat="46.92294" lon="8.69111">
        <ele>1879</ele>
        <time>2021-08-07T07:22:03.624Z</time>
      </trkpt>
      <trkpt lat="46.92293" lon="8.69111">
        <ele>1879</ele>
        <time>2021-08-07T07:22:04.623Z</time>
      </trkpt>
      <trkpt lat="46.92293" lon="8.6911">
        <ele>1880</ele>
        <time>2021-08-07T07:22:05.623Z</time>
      </trkpt>
      <trkpt lat="46.92293" lon="8.6911">
        <ele>1880</ele>
        <time>2021-08-07T07:22:06.623Z</time>
      </trkpt>
      <trkpt lat="46.92296" lon="8.69113">
        <ele>1877</ele>
        <time>2021-08-07T07:22:07.625Z</time>
      </trkpt>
      <trkpt lat="46.92296" lon="8.69113">
        <ele>1877</ele>
        <time>2021-08-07T07:22:08.625Z</time>
      </trkpt>
      <trkpt lat="46.92296" lon="8.69113">
        <ele>1877</ele>
        <time>2021-08-07T07:22:09.625Z</time>
      </trkpt>
      <trkpt lat="46.92294" lon="8.69108">
        <ele>1879</ele>
        <time>2021-08-07T07:22:10.626Z</time>
      </trkpt>
      <trkpt lat="46.92295" lon="8.69109">
        <ele>1879</ele>
        <time>2021-08-07T07:22:11.625Z</time>
      </trkpt>
      <trkpt lat="46.92295" lon="8.69109">
        <ele>1879</ele>
        <time>2021-08-07T07:22:12.625Z</time>
      </trkpt>
      <trkpt lat="46.92295" lon="8.69109">
        <ele>1880</ele>
        <time>2021-08-07T07:22:13.626Z</time>
      </trkpt>
      <trkpt lat="46.92297" lon="8.6911">
        <ele>1879</ele>
        <time>2021-08-07T07:22:14.625Z</time>
      </trkpt>
      <trkpt lat="46.92296" lon="8.69109">
        <ele>1879</ele>
        <time>2021-08-07T07:22:15.625Z</time>
      </trkpt>
      <trkpt lat="46.92296" lon="8.69108">
        <ele>1878</ele>
        <time>2021-08-07T07:22:16.626Z</time>
      </trkpt>
      <trkpt lat="46.92295" lon="8.69107">
        <ele>1878</ele>
        <time>2021-08-07T07:22:17.626Z</time>
      </trkpt>
      <trkpt lat="46.92294" lon="8.69107">
        <ele>1877</ele>
        <time>2021-08-07T07:22:18.626Z</time>
      </trkpt>
      <trkpt lat="46.92294" lon="8.69108">
        <ele>1873</ele>
        <time>2021-08-07T07:22:19.627Z</time>
      </trkpt>
      <trkpt lat="46.92294" lon="8.69108">
        <ele>1872</ele>
        <time>2021-08-07T07:22:20.627Z</time>
      </trkpt>
      <trkpt lat="46.92292" lon="8.69104">
        <ele>1871</ele>
        <time>2021-08-07T07:22:21.627Z</time>
      </trkpt>
      <trkpt lat="46.92291" lon="8.69104">
        <ele>1871</ele>
        <time>2021-08-07T07:22:22.627Z</time>
      </trkpt>
      <trkpt lat="46.92291" lon="8.69105">
        <ele>1871</ele>
        <time>2021-08-07T07:22:23.627Z</time>
      </trkpt>
      <trkpt lat="46.92291" lon="8.69105">
        <ele>1872</ele>
        <time>2021-08-07T07:22:24.627Z</time>
      </trkpt>
      <trkpt lat="46.92292" lon="8.69105">
        <ele>1872</ele>
        <time>2021-08-07T07:22:25.626Z</time>
      </trkpt>
      <trkpt lat="46.92292" lon="8.69105">
        <ele>1872</ele>
        <time>2021-08-07T07:22:26.627Z</time>
      </trkpt>
      <trkpt lat="46.92291" lon="8.69104">
        <ele>1871</ele>
        <time>2021-08-07T07:22:27.627Z</time>
      </trkpt>
      <trkpt lat="46.92291" lon="8.69104">
        <ele>1866</ele>
        <time>2021-08-07T07:22:28.627Z</time>
      </trkpt>
      <trkpt lat="46.92291" lon="8.69104">
        <ele>1866</ele>
        <time>2021-08-07T07:22:29.627Z</time>
      </trkpt>
      <trkpt lat="46.92291" lon="8.69103">
        <ele>1866</ele>
        <time>2021-08-07T07:22:30.627Z</time>
      </trkpt>
      <trkpt lat="46.9229" lon="8.69103">
        <ele>1865</ele>
        <time>2021-08-07T07:22:31.627Z</time>
      </trkpt>
      <trkpt lat="46.9229" lon="8.69102">
        <ele>1865</ele>
        <time>2021-08-07T07:22:32.627Z</time>
      </trkpt>
      <trkpt lat="46.92289" lon="8.69102">
        <ele>1865</ele>
        <time>2021-08-07T07:22:33.628Z</time>
      </trkpt>
      <trkpt lat="46.92289" lon="8.69101">
        <ele>1865</ele>
        <time>2021-08-07T07:22:34.628Z</time>
      </trkpt>
      <trkpt lat="46.92289" lon="8.691">
        <ele>1865</ele>
        <time>2021-08-07T07:22:35.627Z</time>
      </trkpt>
      <trkpt lat="46.92289" lon="8.69099">
        <ele>1865</ele>
        <time>2021-08-07T07:22:36.628Z</time>
      </trkpt>
      <trkpt lat="46.92289" lon="8.69099">
        <ele>1865</ele>
        <time>2021-08-07T07:22:37.627Z</time>
      </trkpt>
      <trkpt lat="46.92289" lon="8.69099">
        <ele>1865</ele>
        <time>2021-08-07T07:22:38.627Z</time>
      </trkpt>
      <trkpt lat="46.9229" lon="8.69101">
        <ele>1864</ele>
        <time>2021-08-07T07:22:39.628Z</time>
      </trkpt>
      <trkpt lat="46.9229" lon="8.69097">
        <ele>1865</ele>
        <time>2021-08-07T07:22:40.628Z</time>
      </trkpt>
      <trkpt lat="46.92289" lon="8.69096">
        <ele>1865</ele>
        <time>2021-08-07T07:22:41.628Z</time>
      </trkpt>
      <trkpt lat="46.92289" lon="8.69095">
        <ele>1866</ele>
        <time>2021-08-07T07:22:42.627Z</time>
      </trkpt>
      <trkpt lat="46.92289" lon="8.69094">
        <ele>1866</ele>
        <time>2021-08-07T07:22:43.627Z</time>
      </trkpt>
      <trkpt lat="46.92289" lon="8.69093">
        <ele>1867</ele>
        <time>2021-08-07T07:22:44.628Z</time>
      </trkpt>
      <trkpt lat="46.92289" lon="8.69093">
        <ele>1867</ele>
        <time>2021-08-07T07:22:45.628Z</time>
      </trkpt>
      <trkpt lat="46.92289" lon="8.69092">
        <ele>1868</ele>
        <time>2021-08-07T07:22:46.628Z</time>
      </trkpt>
      <trkpt lat="46.92289" lon="8.69091">
        <ele>1868</ele>
        <time>2021-08-07T07:22:47.627Z</time>
      </trkpt>
      <trkpt lat="46.92288" lon="8.69091">
        <ele>1868</ele>
        <time>2021-08-07T07:22:48.627Z</time>
      </trkpt>
      <trkpt lat="46.92288" lon="8.69089">
        <ele>1868</ele>
        <time>2021-08-07T07:22:49.628Z</time>
      </trkpt>
      <trkpt lat="46.92287" lon="8.69089">
        <ele>1868</ele>
        <time>2021-08-07T07:22:50.628Z</time>
      </trkpt>
      <trkpt lat="46.92287" lon="8.69088">
        <ele>1869</ele>
        <time>2021-08-07T07:22:51.628Z</time>
      </trkpt>
      <trkpt lat="46.92286" lon="8.69087">
        <ele>1869</ele>
        <time>2021-08-07T07:22:52.627Z</time>
      </trkpt>
      <trkpt lat="46.92285" lon="8.69086">
        <ele>1869</ele>
        <time>2021-08-07T07:22:53.627Z</time>
      </trkpt>
      <trkpt lat="46.92285" lon="8.69085">
        <ele>1869</ele>
        <time>2021-08-07T07:22:54.628Z</time>
      </trkpt>
      <trkpt lat="46.92284" lon="8.69085">
        <ele>1869</ele>
        <time>2021-08-07T07:22:55.628Z</time>
      </trkpt>
      <trkpt lat="46.92284" lon="8.69085">
        <ele>1870</ele>
        <time>2021-08-07T07:22:56.628Z</time>
      </trkpt>
      <trkpt lat="46.92285" lon="8.69084">
        <ele>1870</ele>
        <time>2021-08-07T07:22:57.628Z</time>
      </trkpt>
      <trkpt lat="46.92286" lon="8.69083">
        <ele>1871</ele>
        <time>2021-08-07T07:22:58.627Z</time>
      </trkpt>
      <trkpt lat="46.92286" lon="8.69083">
        <ele>1871</ele>
        <time>2021-08-07T07:22:59.627Z</time>
      </trkpt>
      <trkpt lat="46.92286" lon="8.69083">
        <ele>1872</ele>
        <time>2021-08-07T07:23:00.627Z</time>
      </trkpt>
      <trkpt lat="46.92285" lon="8.69082">
        <ele>1872</ele>
        <time>2021-08-07T07:23:01.628Z</time>
      </trkpt>
      <trkpt lat="46.92285" lon="8.69081">
        <ele>1873</ele>
        <time>2021-08-07T07:23:02.628Z</time>
      </trkpt>
      <trkpt lat="46.92284" lon="8.69081">
        <ele>1873</ele>
        <time>2021-08-07T07:23:03.627Z</time>
      </trkpt>
      <trkpt lat="46.92283" lon="8.69082">
        <ele>1873</ele>
        <time>2021-08-07T07:23:04.628Z</time>
      </trkpt>
      <trkpt lat="46.92282" lon="8.69081">
        <ele>1873</ele>
        <time>2021-08-07T07:23:05.627Z</time>
      </trkpt>
      <trkpt lat="46.92282" lon="8.69081">
        <ele>1873</ele>
        <time>2021-08-07T07:23:06.628Z</time>
      </trkpt>
      <trkpt lat="46.92281" lon="8.69081">
        <ele>1873</ele>
        <time>2021-08-07T07:23:07.627Z</time>
      </trkpt>
      <trkpt lat="46.9228" lon="8.69081">
        <ele>1873</ele>
        <time>2021-08-07T07:23:08.627Z</time>
      </trkpt>
      <trkpt lat="46.9228" lon="8.69082">
        <ele>1873</ele>
        <time>2021-08-07T07:23:09.627Z</time>
      </trkpt>
      <trkpt lat="46.92279" lon="8.69082">
        <ele>1873</ele>
        <time>2021-08-07T07:23:10.627Z</time>
      </trkpt>
      <trkpt lat="46.92278" lon="8.69081">
        <ele>1873</ele>
        <time>2021-08-07T07:23:11.628Z</time>
      </trkpt>
      <trkpt lat="46.92278" lon="8.69081">
        <ele>1873</ele>
        <time>2021-08-07T07:23:12.627Z</time>
      </trkpt>
      <trkpt lat="46.92277" lon="8.6908">
        <ele>1873</ele>
        <time>2021-08-07T07:23:13.627Z</time>
      </trkpt>
      <trkpt lat="46.92277" lon="8.69079">
        <ele>1873</ele>
        <time>2021-08-07T07:23:14.627Z</time>
      </trkpt>
      <trkpt lat="46.92276" lon="8.69078">
        <ele>1873</ele>
        <time>2021-08-07T07:23:15.628Z</time>
      </trkpt>
      <trkpt lat="46.92276" lon="8.69078">
        <ele>1873</ele>
        <time>2021-08-07T07:23:16.628Z</time>
      </trkpt>
      <trkpt lat="46.92275" lon="8.69077">
        <ele>1874</ele>
        <time>2021-08-07T07:23:17.627Z</time>
      </trkpt>
      <trkpt lat="46.92275" lon="8.69077">
        <ele>1874</ele>
        <time>2021-08-07T07:23:18.628Z</time>
      </trkpt>
      <trkpt lat="46.92275" lon="8.69076">
        <ele>1874</ele>
        <time>2021-08-07T07:23:19.628Z</time>
      </trkpt>
      <trkpt lat="46.92275" lon="8.69076">
        <ele>1875</ele>
        <time>2021-08-07T07:23:20.628Z</time>
      </trkpt>
      <trkpt lat="46.92274" lon="8.69075">
        <ele>1875</ele>
        <time>2021-08-07T07:23:21.628Z</time>
      </trkpt>
      <trkpt lat="46.92273" lon="8.69075">
        <ele>1876</ele>
        <time>2021-08-07T07:23:22.628Z</time>
      </trkpt>
      <trkpt lat="46.92273" lon="8.69074">
        <ele>1876</ele>
        <time>2021-08-07T07:23:23.628Z</time>
      </trkpt>
      <trkpt lat="46.92272" lon="8.69074">
        <ele>1876</ele>
        <time>2021-08-07T07:23:24.627Z</time>
      </trkpt>
      <trkpt lat="46.92271" lon="8.69073">
        <ele>1877</ele>
        <time>2021-08-07T07:23:25.628Z</time>
      </trkpt>
      <trkpt lat="46.9227" lon="8.69072">
        <ele>1877</ele>
        <time>2021-08-07T07:23:26.628Z</time>
      </trkpt>
      <trkpt lat="46.9227" lon="8.69072">
        <ele>1877</ele>
        <time>2021-08-07T07:23:27.628Z</time>
      </trkpt>
      <trkpt lat="46.92269" lon="8.69071">
        <ele>1878</ele>
        <time>2021-08-07T07:23:28.627Z</time>
      </trkpt>
      <trkpt lat="46.92269" lon="8.69071">
        <ele>1878</ele>
        <time>2021-08-07T07:23:29.627Z</time>
      </trkpt>
      <trkpt lat="46.92268" lon="8.6907">
        <ele>1878</ele>
        <time>2021-08-07T07:23:30.627Z</time>
      </trkpt>
      <trkpt lat="46.92268" lon="8.6907">
        <ele>1878</ele>
        <time>2021-08-07T07:23:31.628Z</time>
      </trkpt>
      <trkpt lat="46.92267" lon="8.6907">
        <ele>1879</ele>
        <time>2021-08-07T07:23:32.628Z</time>
      </trkpt>
      <trkpt lat="46.92266" lon="8.6907">
        <ele>1880</ele>
        <time>2021-08-07T07:23:33.627Z</time>
      </trkpt>
      <trkpt lat="46.92265" lon="8.6907">
        <ele>1881</ele>
        <time>2021-08-07T07:23:34.628Z</time>
      </trkpt>
      <trkpt lat="46.92265" lon="8.6907">
        <ele>1881</ele>
        <time>2021-08-07T07:23:35.628Z</time>
      </trkpt>
      <trkpt lat="46.92264" lon="8.69069">
        <ele>1881</ele>
        <time>2021-08-07T07:23:36.627Z</time>
      </trkpt>
      <trkpt lat="46.92263" lon="8.69069">
        <ele>1882</ele>
        <time>2021-08-07T07:23:37.627Z</time>
      </trkpt>
      <trkpt lat="46.92262" lon="8.69068">
        <ele>1882</ele>
        <time>2021-08-07T07:23:38.628Z</time>
      </trkpt>
      <trkpt lat="46.92261" lon="8.69068">
        <ele>1883</ele>
        <time>2021-08-07T07:23:39.628Z</time>
      </trkpt>
      <trkpt lat="46.9226" lon="8.69068">
        <ele>1883</ele>
        <time>2021-08-07T07:23:40.628Z</time>
      </trkpt>
      <trkpt lat="46.92259" lon="8.69069">
        <ele>1884</ele>
        <time>2021-08-07T07:23:41.628Z</time>
      </trkpt>
      <trkpt lat="46.92259" lon="8.69069">
        <ele>1884</ele>
        <time>2021-08-07T07:23:42.627Z</time>
      </trkpt>
      <trkpt lat="46.92258" lon="8.69068">
        <ele>1884</ele>
        <time>2021-08-07T07:23:43.628Z</time>
      </trkpt>
      <trkpt lat="46.92258" lon="8.69068">
        <ele>1884</ele>
        <time>2021-08-07T07:23:44.628Z</time>
      </trkpt>
      <trkpt lat="46.92258" lon="8.69068">
        <ele>1885</ele>
        <time>2021-08-07T07:23:45.628Z</time>
      </trkpt>
      <trkpt lat="46.92258" lon="8.69068">
        <ele>1885</ele>
        <time>2021-08-07T07:23:46.627Z</time>
      </trkpt>
      <trkpt lat="46.92256" lon="8.69067">
        <ele>1885</ele>
        <time>2021-08-07T07:23:47.628Z</time>
      </trkpt>
      <trkpt lat="46.92256" lon="8.69067">
        <ele>1885</ele>
        <time>2021-08-07T07:23:48.628Z</time>
      </trkpt>
      <trkpt lat="46.92256" lon="8.69068">
        <ele>1885</ele>
        <time>2021-08-07T07:23:49.628Z</time>
      </trkpt>
      <trkpt lat="46.92255" lon="8.69067">
        <ele>1885</ele>
        <time>2021-08-07T07:23:50.628Z</time>
      </trkpt>
      <trkpt lat="46.92254" lon="8.69066">
        <ele>1885</ele>
        <time>2021-08-07T07:23:51.628Z</time>
      </trkpt>
      <trkpt lat="46.92254" lon="8.69066">
        <ele>1885</ele>
        <time>2021-08-07T07:23:52.627Z</time>
      </trkpt>
      <trkpt lat="46.92253" lon="8.69066">
        <ele>1885</ele>
        <time>2021-08-07T07:23:53.628Z</time>
      </trkpt>
      <trkpt lat="46.92253" lon="8.69065">
        <ele>1885</ele>
        <time>2021-08-07T07:23:54.628Z</time>
      </trkpt>
      <trkpt lat="46.92252" lon="8.69064">
        <ele>1886</ele>
        <time>2021-08-07T07:23:55.627Z</time>
      </trkpt>
      <trkpt lat="46.92252" lon="8.69063">
        <ele>1886</ele>
        <time>2021-08-07T07:23:56.627Z</time>
      </trkpt>
      <trkpt lat="46.92253" lon="8.69062">
        <ele>1887</ele>
        <time>2021-08-07T07:23:57.628Z</time>
      </trkpt>
      <trkpt lat="46.92253" lon="8.69062">
        <ele>1888</ele>
        <time>2021-08-07T07:23:58.627Z</time>
      </trkpt>
      <trkpt lat="46.92251" lon="8.69062">
        <ele>1892</ele>
        <time>2021-08-07T07:23:59.629Z</time>
      </trkpt>
      <trkpt lat="46.9225" lon="8.69062">
        <ele>1892</ele>
        <time>2021-08-07T07:24:00.630Z</time>
      </trkpt>
      <trkpt lat="46.92248" lon="8.69062">
        <ele>1891</ele>
        <time>2021-08-07T07:24:01.629Z</time>
      </trkpt>
      <trkpt lat="46.92248" lon="8.69062">
        <ele>1891</ele>
        <time>2021-08-07T07:24:02.630Z</time>
      </trkpt>
      <trkpt lat="46.92247" lon="8.69063">
        <ele>1890</ele>
        <time>2021-08-07T07:24:03.629Z</time>
      </trkpt>
      <trkpt lat="46.92246" lon="8.69063">
        <ele>1890</ele>
        <time>2021-08-07T07:24:04.630Z</time>
      </trkpt>
      <trkpt lat="46.92247" lon="8.69064">
        <ele>1890</ele>
        <time>2021-08-07T07:24:05.630Z</time>
      </trkpt>
      <trkpt lat="46.92247" lon="8.69063">
        <ele>1890</ele>
        <time>2021-08-07T07:24:06.630Z</time>
      </trkpt>
      <trkpt lat="46.92246" lon="8.69062">
        <ele>1889</ele>
        <time>2021-08-07T07:24:07.630Z</time>
      </trkpt>
      <trkpt lat="46.92246" lon="8.69061">
        <ele>1889</ele>
        <time>2021-08-07T07:24:08.629Z</time>
      </trkpt>
      <trkpt lat="46.92245" lon="8.69062">
        <ele>1889</ele>
        <time>2021-08-07T07:24:09.630Z</time>
      </trkpt>
      <trkpt lat="46.92245" lon="8.69062">
        <ele>1889</ele>
        <time>2021-08-07T07:24:10.630Z</time>
      </trkpt>
      <trkpt lat="46.92244" lon="8.69062">
        <ele>1888</ele>
        <time>2021-08-07T07:24:11.630Z</time>
      </trkpt>
      <trkpt lat="46.92243" lon="8.69061">
        <ele>1888</ele>
        <time>2021-08-07T07:24:12.630Z</time>
      </trkpt>
      <trkpt lat="46.92243" lon="8.69061">
        <ele>1887</ele>
        <time>2021-08-07T07:24:13.630Z</time>
      </trkpt>
      <trkpt lat="46.92242" lon="8.6906">
        <ele>1887</ele>
        <time>2021-08-07T07:24:14.630Z</time>
      </trkpt>
      <trkpt lat="46.92242" lon="8.69059">
        <ele>1887</ele>
        <time>2021-08-07T07:24:15.630Z</time>
      </trkpt>
      <trkpt lat="46.92242" lon="8.69059">
        <ele>1887</ele>
        <time>2021-08-07T07:24:16.630Z</time>
      </trkpt>
      <trkpt lat="46.92243" lon="8.69059">
        <ele>1887</ele>
        <time>2021-08-07T07:24:17.630Z</time>
      </trkpt>
      <trkpt lat="46.92243" lon="8.69059">
        <ele>1887</ele>
        <time>2021-08-07T07:24:18.630Z</time>
      </trkpt>
      <trkpt lat="46.92244" lon="8.69058">
        <ele>1887</ele>
        <time>2021-08-07T07:24:19.629Z</time>
      </trkpt>
      <trkpt lat="46.92244" lon="8.69057">
        <ele>1887</ele>
        <time>2021-08-07T07:24:20.629Z</time>
      </trkpt>
      <trkpt lat="46.92244" lon="8.69057">
        <ele>1887</ele>
        <time>2021-08-07T07:24:21.630Z</time>
      </trkpt>
      <trkpt lat="46.92244" lon="8.69056">
        <ele>1888</ele>
        <time>2021-08-07T07:24:22.629Z</time>
      </trkpt>
      <trkpt lat="46.92244" lon="8.69055">
        <ele>1888</ele>
        <time>2021-08-07T07:24:23.629Z</time>
      </trkpt>
      <trkpt lat="46.92245" lon="8.69055">
        <ele>1888</ele>
        <time>2021-08-07T07:24:24.630Z</time>
      </trkpt>
      <trkpt lat="46.92245" lon="8.69054">
        <ele>1888</ele>
        <time>2021-08-07T07:24:25.629Z</time>
      </trkpt>
      <trkpt lat="46.92246" lon="8.69053">
        <ele>1888</ele>
        <time>2021-08-07T07:24:26.630Z</time>
      </trkpt>
      <trkpt lat="46.92246" lon="8.69053">
        <ele>1888</ele>
        <time>2021-08-07T07:24:27.630Z</time>
      </trkpt>
      <trkpt lat="46.92247" lon="8.69052">
        <ele>1887</ele>
        <time>2021-08-07T07:24:28.630Z</time>
      </trkpt>
      <trkpt lat="46.92247" lon="8.69051">
        <ele>1887</ele>
        <time>2021-08-07T07:24:29.630Z</time>
      </trkpt>
      <trkpt lat="46.92248" lon="8.6905">
        <ele>1887</ele>
        <time>2021-08-07T07:24:30.629Z</time>
      </trkpt>
      <trkpt lat="46.92248" lon="8.69049">
        <ele>1887</ele>
        <time>2021-08-07T07:24:31.630Z</time>
      </trkpt>
      <trkpt lat="46.92249" lon="8.69048">
        <ele>1887</ele>
        <time>2021-08-07T07:24:32.630Z</time>
      </trkpt>
      <trkpt lat="46.92249" lon="8.69047">
        <ele>1887</ele>
        <time>2021-08-07T07:24:33.630Z</time>
      </trkpt>
      <trkpt lat="46.92248" lon="8.69045">
        <ele>1888</ele>
        <time>2021-08-07T07:24:34.630Z</time>
      </trkpt>
      <trkpt lat="46.92247" lon="8.69044">
        <ele>1888</ele>
        <time>2021-08-07T07:24:35.630Z</time>
      </trkpt>
      <trkpt lat="46.92246" lon="8.69043">
        <ele>1888</ele>
        <time>2021-08-07T07:24:36.630Z</time>
      </trkpt>
      <trkpt lat="46.92245" lon="8.69043">
        <ele>1888</ele>
        <time>2021-08-07T07:24:37.629Z</time>
      </trkpt>
      <trkpt lat="46.92244" lon="8.69042">
        <ele>1889</ele>
        <time>2021-08-07T07:24:38.630Z</time>
      </trkpt>
      <trkpt lat="46.92243" lon="8.69041">
        <ele>1889</ele>
        <time>2021-08-07T07:24:39.630Z</time>
      </trkpt>
      <trkpt lat="46.92242" lon="8.69039">
        <ele>1889</ele>
        <time>2021-08-07T07:24:40.630Z</time>
      </trkpt>
      <trkpt lat="46.92242" lon="8.69038">
        <ele>1890</ele>
        <time>2021-08-07T07:24:41.630Z</time>
      </trkpt>
      <trkpt lat="46.92242" lon="8.69037">
        <ele>1891</ele>
        <time>2021-08-07T07:24:42.629Z</time>
      </trkpt>
      <trkpt lat="46.92242" lon="8.69037">
        <ele>1891</ele>
        <time>2021-08-07T07:24:43.629Z</time>
      </trkpt>
      <trkpt lat="46.92242" lon="8.69037">
        <ele>1891</ele>
        <time>2021-08-07T07:24:44.630Z</time>
      </trkpt>
      <trkpt lat="46.92241" lon="8.69036">
        <ele>1891</ele>
        <time>2021-08-07T07:24:45.630Z</time>
      </trkpt>
      <trkpt lat="46.92241" lon="8.69035">
        <ele>1891</ele>
        <time>2021-08-07T07:24:46.629Z</time>
      </trkpt>
      <trkpt lat="46.9224" lon="8.69034">
        <ele>1891</ele>
        <time>2021-08-07T07:24:47.629Z</time>
      </trkpt>
      <trkpt lat="46.92239" lon="8.69033">
        <ele>1890</ele>
        <time>2021-08-07T07:24:48.629Z</time>
      </trkpt>
      <trkpt lat="46.92239" lon="8.69032">
        <ele>1890</ele>
        <time>2021-08-07T07:24:49.629Z</time>
      </trkpt>
      <trkpt lat="46.92238" lon="8.69031">
        <ele>1890</ele>
        <time>2021-08-07T07:24:50.630Z</time>
      </trkpt>
      <trkpt lat="46.92237" lon="8.6903">
        <ele>1891</ele>
        <time>2021-08-07T07:24:51.630Z</time>
      </trkpt>
      <trkpt lat="46.92236" lon="8.69029">
        <ele>1891</ele>
        <time>2021-08-07T07:24:52.630Z</time>
      </trkpt>
      <trkpt lat="46.92235" lon="8.69028">
        <ele>1891</ele>
        <time>2021-08-07T07:24:53.630Z</time>
      </trkpt>
      <trkpt lat="46.92234" lon="8.69027">
        <ele>1892</ele>
        <time>2021-08-07T07:24:54.630Z</time>
      </trkpt>
      <trkpt lat="46.92234" lon="8.69027">
        <ele>1892</ele>
        <time>2021-08-07T07:24:55.630Z</time>
      </trkpt>
      <trkpt lat="46.92233" lon="8.69027">
        <ele>1892</ele>
        <time>2021-08-07T07:24:56.630Z</time>
      </trkpt>
      <trkpt lat="46.92233" lon="8.69027">
        <ele>1892</ele>
        <time>2021-08-07T07:24:57.630Z</time>
      </trkpt>
      <trkpt lat="46.92232" lon="8.69027">
        <ele>1892</ele>
        <time>2021-08-07T07:24:58.629Z</time>
      </trkpt>
      <trkpt lat="46.92231" lon="8.69026">
        <ele>1892</ele>
        <time>2021-08-07T07:24:59.629Z</time>
      </trkpt>
      <trkpt lat="46.9223" lon="8.69026">
        <ele>1892</ele>
        <time>2021-08-07T07:25:00.630Z</time>
      </trkpt>
      <trkpt lat="46.9223" lon="8.69025">
        <ele>1892</ele>
        <time>2021-08-07T07:25:01.629Z</time>
      </trkpt>
      <trkpt lat="46.9223" lon="8.69025">
        <ele>1891</ele>
        <time>2021-08-07T07:25:02.629Z</time>
      </trkpt>
      <trkpt lat="46.9223" lon="8.69025">
        <ele>1891</ele>
        <time>2021-08-07T07:25:03.629Z</time>
      </trkpt>
      <trkpt lat="46.92229" lon="8.69024">
        <ele>1891</ele>
        <time>2021-08-07T07:25:04.630Z</time>
      </trkpt>
      <trkpt lat="46.92229" lon="8.69024">
        <ele>1891</ele>
        <time>2021-08-07T07:25:05.630Z</time>
      </trkpt>
      <trkpt lat="46.92228" lon="8.69023">
        <ele>1891</ele>
        <time>2021-08-07T07:25:06.630Z</time>
      </trkpt>
      <trkpt lat="46.92227" lon="8.69022">
        <ele>1891</ele>
        <time>2021-08-07T07:25:07.630Z</time>
      </trkpt>
      <trkpt lat="46.92226" lon="8.69021">
        <ele>1892</ele>
        <time>2021-08-07T07:25:08.629Z</time>
      </trkpt>
      <trkpt lat="46.92225" lon="8.69021">
        <ele>1892</ele>
        <time>2021-08-07T07:25:09.629Z</time>
      </trkpt>
      <trkpt lat="46.92225" lon="8.6902">
        <ele>1893</ele>
        <time>2021-08-07T07:25:10.630Z</time>
      </trkpt>
      <trkpt lat="46.92224" lon="8.69019">
        <ele>1893</ele>
        <time>2021-08-07T07:25:11.629Z</time>
      </trkpt>
      <trkpt lat="46.92223" lon="8.69018">
        <ele>1894</ele>
        <time>2021-08-07T07:25:12.630Z</time>
      </trkpt>
      <trkpt lat="46.92223" lon="8.69017">
        <ele>1895</ele>
        <time>2021-08-07T07:25:13.630Z</time>
      </trkpt>
      <trkpt lat="46.92222" lon="8.69016">
        <ele>1895</ele>
        <time>2021-08-07T07:25:14.630Z</time>
      </trkpt>
      <trkpt lat="46.92222" lon="8.69015">
        <ele>1895</ele>
        <time>2021-08-07T07:25:15.629Z</time>
      </trkpt>
      <trkpt lat="46.92221" lon="8.69015">
        <ele>1895</ele>
        <time>2021-08-07T07:25:16.630Z</time>
      </trkpt>
      <trkpt lat="46.9222" lon="8.69014">
        <ele>1895</ele>
        <time>2021-08-07T07:25:17.630Z</time>
      </trkpt>
      <trkpt lat="46.92219" lon="8.69013">
        <ele>1895</ele>
        <time>2021-08-07T07:25:18.630Z</time>
      </trkpt>
      <trkpt lat="46.92218" lon="8.69012">
        <ele>1896</ele>
        <time>2021-08-07T07:25:19.630Z</time>
      </trkpt>
      <trkpt lat="46.92217" lon="8.69011">
        <ele>1896</ele>
        <time>2021-08-07T07:25:20.629Z</time>
      </trkpt>
      <trkpt lat="46.92216" lon="8.69011">
        <ele>1897</ele>
        <time>2021-08-07T07:25:21.630Z</time>
      </trkpt>
      <trkpt lat="46.92216" lon="8.6901">
        <ele>1897</ele>
        <time>2021-08-07T07:25:22.629Z</time>
      </trkpt>
      <trkpt lat="46.92215" lon="8.69009">
        <ele>1898</ele>
        <time>2021-08-07T07:25:23.629Z</time>
      </trkpt>
      <trkpt lat="46.92214" lon="8.69007">
        <ele>1898</ele>
        <time>2021-08-07T07:25:24.630Z</time>
      </trkpt>
      <trkpt lat="46.92213" lon="8.69006">
        <ele>1899</ele>
        <time>2021-08-07T07:25:25.630Z</time>
      </trkpt>
      <trkpt lat="46.92212" lon="8.69005">
        <ele>1899</ele>
        <time>2021-08-07T07:25:26.630Z</time>
      </trkpt>
      <trkpt lat="46.92212" lon="8.69005">
        <ele>1900</ele>
        <time>2021-08-07T07:25:27.630Z</time>
      </trkpt>
      <trkpt lat="46.92212" lon="8.69004">
        <ele>1900</ele>
        <time>2021-08-07T07:25:28.630Z</time>
      </trkpt>
      <trkpt lat="46.92211" lon="8.69003">
        <ele>1901</ele>
        <time>2021-08-07T07:25:29.630Z</time>
      </trkpt>
      <trkpt lat="46.92211" lon="8.69002">
        <ele>1901</ele>
        <time>2021-08-07T07:25:30.629Z</time>
      </trkpt>
      <trkpt lat="46.9221" lon="8.69002">
        <ele>1901</ele>
        <time>2021-08-07T07:25:31.630Z</time>
      </trkpt>
      <trkpt lat="46.9221" lon="8.69001">
        <ele>1901</ele>
        <time>2021-08-07T07:25:32.630Z</time>
      </trkpt>
      <trkpt lat="46.92209" lon="8.69">
        <ele>1901</ele>
        <time>2021-08-07T07:25:33.629Z</time>
      </trkpt>
      <trkpt lat="46.92207" lon="8.69">
        <ele>1901</ele>
        <time>2021-08-07T07:25:34.629Z</time>
      </trkpt>
      <trkpt lat="46.92207" lon="8.68999">
        <ele>1901</ele>
        <time>2021-08-07T07:25:35.630Z</time>
      </trkpt>
      <trkpt lat="46.92206" lon="8.68999">
        <ele>1901</ele>
        <time>2021-08-07T07:25:36.630Z</time>
      </trkpt>
      <trkpt lat="46.92205" lon="8.68999">
        <ele>1900</ele>
        <time>2021-08-07T07:25:37.630Z</time>
      </trkpt>
      <trkpt lat="46.92204" lon="8.68998">
        <ele>1900</ele>
        <time>2021-08-07T07:25:38.630Z</time>
      </trkpt>
      <trkpt lat="46.92203" lon="8.68998">
        <ele>1900</ele>
        <time>2021-08-07T07:25:39.629Z</time>
      </trkpt>
      <trkpt lat="46.92203" lon="8.68998">
        <ele>1899</ele>
        <time>2021-08-07T07:25:40.630Z</time>
      </trkpt>
      <trkpt lat="46.92202" lon="8.68998">
        <ele>1899</ele>
        <time>2021-08-07T07:25:41.629Z</time>
      </trkpt>
      <trkpt lat="46.92202" lon="8.68998">
        <ele>1898</ele>
        <time>2021-08-07T07:25:42.630Z</time>
      </trkpt>
      <trkpt lat="46.92201" lon="8.68998">
        <ele>1898</ele>
        <time>2021-08-07T07:25:43.629Z</time>
      </trkpt>
      <trkpt lat="46.92201" lon="8.68998">
        <ele>1898</ele>
        <time>2021-08-07T07:25:44.629Z</time>
      </trkpt>
      <trkpt lat="46.92201" lon="8.68997">
        <ele>1898</ele>
        <time>2021-08-07T07:25:45.630Z</time>
      </trkpt>
      <trkpt lat="46.92201" lon="8.68997">
        <ele>1899</ele>
        <time>2021-08-07T07:25:46.629Z</time>
      </trkpt>
      <trkpt lat="46.92201" lon="8.68996">
        <ele>1899</ele>
        <time>2021-08-07T07:25:47.630Z</time>
      </trkpt>
      <trkpt lat="46.92201" lon="8.68995">
        <ele>1899</ele>
        <time>2021-08-07T07:25:48.630Z</time>
      </trkpt>
      <trkpt lat="46.92202" lon="8.68995">
        <ele>1898</ele>
        <time>2021-08-07T07:25:49.630Z</time>
      </trkpt>
      <trkpt lat="46.92202" lon="8.68994">
        <ele>1898</ele>
        <time>2021-08-07T07:25:50.630Z</time>
      </trkpt>
      <trkpt lat="46.92201" lon="8.68993">
        <ele>1899</ele>
        <time>2021-08-07T07:25:51.630Z</time>
      </trkpt>
      <trkpt lat="46.92201" lon="8.68992">
        <ele>1899</ele>
        <time>2021-08-07T07:25:52.630Z</time>
      </trkpt>
      <trkpt lat="46.92201" lon="8.68991">
        <ele>1899</ele>
        <time>2021-08-07T07:25:53.629Z</time>
      </trkpt>
      <trkpt lat="46.922" lon="8.68991">
        <ele>1899</ele>
        <time>2021-08-07T07:25:54.630Z</time>
      </trkpt>
      <trkpt lat="46.92199" lon="8.68991">
        <ele>1900</ele>
        <time>2021-08-07T07:25:55.629Z</time>
      </trkpt>
      <trkpt lat="46.92199" lon="8.68991">
        <ele>1900</ele>
        <time>2021-08-07T07:25:56.629Z</time>
      </trkpt>
      <trkpt lat="46.92198" lon="8.6899">
        <ele>1901</ele>
        <time>2021-08-07T07:25:57.630Z</time>
      </trkpt>
      <trkpt lat="46.92197" lon="8.68989">
        <ele>1901</ele>
        <time>2021-08-07T07:25:58.630Z</time>
      </trkpt>
      <trkpt lat="46.92197" lon="8.68989">
        <ele>1901</ele>
        <time>2021-08-07T07:25:59.629Z</time>
      </trkpt>
      <trkpt lat="46.92196" lon="8.68989">
        <ele>1902</ele>
        <time>2021-08-07T07:26:00.630Z</time>
      </trkpt>
      <trkpt lat="46.92196" lon="8.68988">
        <ele>1902</ele>
        <time>2021-08-07T07:26:01.630Z</time>
      </trkpt>
      <trkpt lat="46.92195" lon="8.68987">
        <ele>1902</ele>
        <time>2021-08-07T07:26:02.629Z</time>
      </trkpt>
      <trkpt lat="46.92195" lon="8.68986">
        <ele>1903</ele>
        <time>2021-08-07T07:26:03.630Z</time>
      </trkpt>
      <trkpt lat="46.92194" lon="8.68986">
        <ele>1903</ele>
        <time>2021-08-07T07:26:04.630Z</time>
      </trkpt>
      <trkpt lat="46.92194" lon="8.68985">
        <ele>1903</ele>
        <time>2021-08-07T07:26:05.629Z</time>
      </trkpt>
      <trkpt lat="46.92194" lon="8.68984">
        <ele>1903</ele>
        <time>2021-08-07T07:26:06.630Z</time>
      </trkpt>
      <trkpt lat="46.92194" lon="8.68984">
        <ele>1904</ele>
        <time>2021-08-07T07:26:07.630Z</time>
      </trkpt>
      <trkpt lat="46.92193" lon="8.68983">
        <ele>1904</ele>
        <time>2021-08-07T07:26:08.630Z</time>
      </trkpt>
      <trkpt lat="46.92192" lon="8.68982">
        <ele>1904</ele>
        <time>2021-08-07T07:26:09.629Z</time>
      </trkpt>
      <trkpt lat="46.92191" lon="8.68981">
        <ele>1904</ele>
        <time>2021-08-07T07:26:10.630Z</time>
      </trkpt>
      <trkpt lat="46.92191" lon="8.6898">
        <ele>1904</ele>
        <time>2021-08-07T07:26:11.630Z</time>
      </trkpt>
      <trkpt lat="46.9219" lon="8.68979">
        <ele>1904</ele>
        <time>2021-08-07T07:26:12.630Z</time>
      </trkpt>
      <trkpt lat="46.92189" lon="8.68978">
        <ele>1903</ele>
        <time>2021-08-07T07:26:13.630Z</time>
      </trkpt>
      <trkpt lat="46.92188" lon="8.68977">
        <ele>1903</ele>
        <time>2021-08-07T07:26:14.630Z</time>
      </trkpt>
      <trkpt lat="46.92187" lon="8.68976">
        <ele>1903</ele>
        <time>2021-08-07T07:26:15.630Z</time>
      </trkpt>
      <trkpt lat="46.92187" lon="8.68976">
        <ele>1903</ele>
        <time>2021-08-07T07:26:16.630Z</time>
      </trkpt>
      <trkpt lat="46.92186" lon="8.68975">
        <ele>1903</ele>
        <time>2021-08-07T07:26:17.630Z</time>
      </trkpt>
      <trkpt lat="46.92186" lon="8.68974">
        <ele>1902</ele>
        <time>2021-08-07T07:26:18.630Z</time>
      </trkpt>
      <trkpt lat="46.92185" lon="8.68973">
        <ele>1903</ele>
        <time>2021-08-07T07:26:19.630Z</time>
      </trkpt>
      <trkpt lat="46.92184" lon="8.68972">
        <ele>1903</ele>
        <time>2021-08-07T07:26:20.630Z</time>
      </trkpt>
      <trkpt lat="46.92184" lon="8.68972">
        <ele>1903</ele>
        <time>2021-08-07T07:26:21.629Z</time>
      </trkpt>
      <trkpt lat="46.92184" lon="8.68971">
        <ele>1903</ele>
        <time>2021-08-07T07:26:22.630Z</time>
      </trkpt>
      <trkpt lat="46.92184" lon="8.68971">
        <ele>1904</ele>
        <time>2021-08-07T07:26:23.630Z</time>
      </trkpt>
      <trkpt lat="46.92184" lon="8.6897">
        <ele>1904</ele>
        <time>2021-08-07T07:26:24.630Z</time>
      </trkpt>
      <trkpt lat="46.92183" lon="8.68969">
        <ele>1904</ele>
        <time>2021-08-07T07:26:25.630Z</time>
      </trkpt>
      <trkpt lat="46.92183" lon="8.68968">
        <ele>1903</ele>
        <time>2021-08-07T07:26:26.630Z</time>
      </trkpt>
      <trkpt lat="46.92183" lon="8.68967">
        <ele>1903</ele>
        <time>2021-08-07T07:26:27.629Z</time>
      </trkpt>
      <trkpt lat="46.92183" lon="8.68967">
        <ele>1903</ele>
        <time>2021-08-07T07:26:28.630Z</time>
      </trkpt>
      <trkpt lat="46.92183" lon="8.68967">
        <ele>1904</ele>
        <time>2021-08-07T07:26:29.630Z</time>
      </trkpt>
      <trkpt lat="46.92183" lon="8.68966">
        <ele>1904</ele>
        <time>2021-08-07T07:26:30.630Z</time>
      </trkpt>
      <trkpt lat="46.92182" lon="8.68965">
        <ele>1904</ele>
        <time>2021-08-07T07:26:31.630Z</time>
      </trkpt>
      <trkpt lat="46.92182" lon="8.68965">
        <ele>1904</ele>
        <time>2021-08-07T07:26:32.629Z</time>
      </trkpt>
      <trkpt lat="46.92182" lon="8.68964">
        <ele>1904</ele>
        <time>2021-08-07T07:26:33.630Z</time>
      </trkpt>
      <trkpt lat="46.92182" lon="8.68964">
        <ele>1903</ele>
        <time>2021-08-07T07:26:34.629Z</time>
      </trkpt>
      <trkpt lat="46.92181" lon="8.68964">
        <ele>1903</ele>
        <time>2021-08-07T07:26:35.629Z</time>
      </trkpt>
      <trkpt lat="46.92181" lon="8.68964">
        <ele>1903</ele>
        <time>2021-08-07T07:26:36.630Z</time>
      </trkpt>
      <trkpt lat="46.92181" lon="8.68963">
        <ele>1903</ele>
        <time>2021-08-07T07:26:37.629Z</time>
      </trkpt>
      <trkpt lat="46.92181" lon="8.68963">
        <ele>1903</ele>
        <time>2021-08-07T07:26:38.630Z</time>
      </trkpt>
      <trkpt lat="46.92181" lon="8.68963">
        <ele>1903</ele>
        <time>2021-08-07T07:26:39.629Z</time>
      </trkpt>
      <trkpt lat="46.92181" lon="8.68962">
        <ele>1903</ele>
        <time>2021-08-07T07:26:40.629Z</time>
      </trkpt>
      <trkpt lat="46.92181" lon="8.68961">
        <ele>1903</ele>
        <time>2021-08-07T07:26:41.630Z</time>
      </trkpt>
      <trkpt lat="46.92181" lon="8.68961">
        <ele>1903</ele>
        <time>2021-08-07T07:26:42.630Z</time>
      </trkpt>
      <trkpt lat="46.92181" lon="8.6896">
        <ele>1903</ele>
        <time>2021-08-07T07:26:43.630Z</time>
      </trkpt>
      <trkpt lat="46.9218" lon="8.6896">
        <ele>1903</ele>
        <time>2021-08-07T07:26:44.630Z</time>
      </trkpt>
      <trkpt lat="46.9218" lon="8.68959">
        <ele>1904</ele>
        <time>2021-08-07T07:26:45.630Z</time>
      </trkpt>
      <trkpt lat="46.9218" lon="8.68958">
        <ele>1905</ele>
        <time>2021-08-07T07:26:46.630Z</time>
      </trkpt>
      <trkpt lat="46.9218" lon="8.68957">
        <ele>1905</ele>
        <time>2021-08-07T07:26:47.629Z</time>
      </trkpt>
      <trkpt lat="46.92179" lon="8.68956">
        <ele>1905</ele>
        <time>2021-08-07T07:26:48.629Z</time>
      </trkpt>
      <trkpt lat="46.92179" lon="8.68956">
        <ele>1905</ele>
        <time>2021-08-07T07:26:49.630Z</time>
      </trkpt>
      <trkpt lat="46.92179" lon="8.68956">
        <ele>1905</ele>
        <time>2021-08-07T07:26:50.630Z</time>
      </trkpt>
      <trkpt lat="46.9218" lon="8.68957">
        <ele>1904</ele>
        <time>2021-08-07T07:26:51.630Z</time>
      </trkpt>
      <trkpt lat="46.9218" lon="8.68957">
        <ele>1904</ele>
        <time>2021-08-07T07:26:52.629Z</time>
      </trkpt>
      <trkpt lat="46.92182" lon="8.68958">
        <ele>1903</ele>
        <time>2021-08-07T07:26:53.630Z</time>
      </trkpt>
      <trkpt lat="46.92182" lon="8.68957">
        <ele>1903</ele>
        <time>2021-08-07T07:26:54.630Z</time>
      </trkpt>
      <trkpt lat="46.92182" lon="8.68957">
        <ele>1903</ele>
        <time>2021-08-07T07:26:55.630Z</time>
      </trkpt>
      <trkpt lat="46.92183" lon="8.68956">
        <ele>1903</ele>
        <time>2021-08-07T07:26:56.630Z</time>
      </trkpt>
      <trkpt lat="46.92183" lon="8.68955">
        <ele>1903</ele>
        <time>2021-08-07T07:26:57.630Z</time>
      </trkpt>
      <trkpt lat="46.92184" lon="8.68954">
        <ele>1904</ele>
        <time>2021-08-07T07:26:58.630Z</time>
      </trkpt>
      <trkpt lat="46.92184" lon="8.68953">
        <ele>1904</ele>
        <time>2021-08-07T07:26:59.630Z</time>
      </trkpt>
      <trkpt lat="46.92184" lon="8.68952">
        <ele>1904</ele>
        <time>2021-08-07T07:27:00.630Z</time>
      </trkpt>
      <trkpt lat="46.92184" lon="8.68951">
        <ele>1905</ele>
        <time>2021-08-07T07:27:01.629Z</time>
      </trkpt>
      <trkpt lat="46.92184" lon="8.6895">
        <ele>1905</ele>
        <time>2021-08-07T07:27:02.629Z</time>
      </trkpt>
      <trkpt lat="46.92183" lon="8.6895">
        <ele>1906</ele>
        <time>2021-08-07T07:27:03.630Z</time>
      </trkpt>
      <trkpt lat="46.92183" lon="8.6895">
        <ele>1906</ele>
        <time>2021-08-07T07:27:04.629Z</time>
      </trkpt>
      <trkpt lat="46.92182" lon="8.68948">
        <ele>1907</ele>
        <time>2021-08-07T07:27:05.630Z</time>
      </trkpt>
      <trkpt lat="46.92182" lon="8.68947">
        <ele>1908</ele>
        <time>2021-08-07T07:27:06.630Z</time>
      </trkpt>
      <trkpt lat="46.92182" lon="8.68946">
        <ele>1909</ele>
        <time>2021-08-07T07:27:07.629Z</time>
      </trkpt>
      <trkpt lat="46.9218" lon="8.68944">
        <ele>1909</ele>
        <time>2021-08-07T07:27:08.629Z</time>
      </trkpt>
      <trkpt lat="46.9218" lon="8.68943">
        <ele>1909</ele>
        <time>2021-08-07T07:27:09.630Z</time>
      </trkpt>
      <trkpt lat="46.92179" lon="8.68943">
        <ele>1910</ele>
        <time>2021-08-07T07:27:10.630Z</time>
      </trkpt>
      <trkpt lat="46.92179" lon="8.68943">
        <ele>1910</ele>
        <time>2021-08-07T07:27:11.630Z</time>
      </trkpt>
      <trkpt lat="46.92179" lon="8.68943">
        <ele>1910</ele>
        <time>2021-08-07T07:27:12.629Z</time>
      </trkpt>
      <trkpt lat="46.92177" lon="8.68941">
        <ele>1909</ele>
        <time>2021-08-07T07:27:13.630Z</time>
      </trkpt>
      <trkpt lat="46.92177" lon="8.68941">
        <ele>1909</ele>
        <time>2021-08-07T07:27:14.630Z</time>
      </trkpt>
      <trkpt lat="46.92177" lon="8.6894">
        <ele>1909</ele>
        <time>2021-08-07T07:27:15.630Z</time>
      </trkpt>
      <trkpt lat="46.92177" lon="8.6894">
        <ele>1909</ele>
        <time>2021-08-07T07:27:16.630Z</time>
      </trkpt>
      <trkpt lat="46.92177" lon="8.68941">
        <ele>1909</ele>
        <time>2021-08-07T07:27:17.630Z</time>
      </trkpt>
      <trkpt lat="46.92178" lon="8.68942">
        <ele>1909</ele>
        <time>2021-08-07T07:27:18.630Z</time>
      </trkpt>
      <trkpt lat="46.92178" lon="8.68942">
        <ele>1908</ele>
        <time>2021-08-07T07:27:19.630Z</time>
      </trkpt>
      <trkpt lat="46.92179" lon="8.68942">
        <ele>1908</ele>
        <time>2021-08-07T07:27:20.629Z</time>
      </trkpt>
      <trkpt lat="46.9218" lon="8.68942">
        <ele>1908</ele>
        <time>2021-08-07T07:27:21.629Z</time>
      </trkpt>
      <trkpt lat="46.92181" lon="8.68941">
        <ele>1909</ele>
        <time>2021-08-07T07:27:22.629Z</time>
      </trkpt>
      <trkpt lat="46.92181" lon="8.68941">
        <ele>1909</ele>
        <time>2021-08-07T07:27:23.629Z</time>
      </trkpt>
      <trkpt lat="46.92181" lon="8.6894">
        <ele>1909</ele>
        <time>2021-08-07T07:27:24.629Z</time>
      </trkpt>
      <trkpt lat="46.92181" lon="8.6894">
        <ele>1909</ele>
        <time>2021-08-07T07:27:25.630Z</time>
      </trkpt>
      <trkpt lat="46.9218" lon="8.68938">
        <ele>1910</ele>
        <time>2021-08-07T07:27:26.629Z</time>
      </trkpt>
      <trkpt lat="46.9218" lon="8.68938">
        <ele>1911</ele>
        <time>2021-08-07T07:27:27.629Z</time>
      </trkpt>
      <trkpt lat="46.92181" lon="8.68938">
        <ele>1911</ele>
        <time>2021-08-07T07:27:28.629Z</time>
      </trkpt>
      <trkpt lat="46.92181" lon="8.68937">
        <ele>1912</ele>
        <time>2021-08-07T07:27:29.631Z</time>
      </trkpt>
      <trkpt lat="46.92182" lon="8.68937">
        <ele>1912</ele>
        <time>2021-08-07T07:27:30.632Z</time>
      </trkpt>
      <trkpt lat="46.92182" lon="8.68937">
        <ele>1912</ele>
        <time>2021-08-07T07:27:31.632Z</time>
      </trkpt>
      <trkpt lat="46.92182" lon="8.68937">
        <ele>1912</ele>
        <time>2021-08-07T07:27:32.632Z</time>
      </trkpt>
      <trkpt lat="46.92182" lon="8.68937">
        <ele>1912</ele>
        <time>2021-08-07T07:27:33.632Z</time>
      </trkpt>
      <trkpt lat="46.92183" lon="8.68937">
        <ele>1912</ele>
        <time>2021-08-07T07:27:34.632Z</time>
      </trkpt>
      <trkpt lat="46.92183" lon="8.68937">
        <ele>1912</ele>
        <time>2021-08-07T07:27:35.631Z</time>
      </trkpt>
      <trkpt lat="46.92184" lon="8.68937">
        <ele>1912</ele>
        <time>2021-08-07T07:27:36.632Z</time>
      </trkpt>
      <trkpt lat="46.92184" lon="8.68936">
        <ele>1911</ele>
        <time>2021-08-07T07:27:37.632Z</time>
      </trkpt>
      <trkpt lat="46.92184" lon="8.68936">
        <ele>1911</ele>
        <time>2021-08-07T07:27:38.633Z</time>
      </trkpt>
      <trkpt lat="46.92185" lon="8.68936">
        <ele>1911</ele>
        <time>2021-08-07T07:27:39.632Z</time>
      </trkpt>
      <trkpt lat="46.92185" lon="8.68935">
        <ele>1911</ele>
        <time>2021-08-07T07:27:40.632Z</time>
      </trkpt>
      <trkpt lat="46.92185" lon="8.68934">
        <ele>1911</ele>
        <time>2021-08-07T07:27:41.632Z</time>
      </trkpt>
      <trkpt lat="46.92184" lon="8.68933">
        <ele>1911</ele>
        <time>2021-08-07T07:27:42.632Z</time>
      </trkpt>
      <trkpt lat="46.92183" lon="8.68933">
        <ele>1911</ele>
        <time>2021-08-07T07:27:43.633Z</time>
      </trkpt>
      <trkpt lat="46.92182" lon="8.68933">
        <ele>1911</ele>
        <time>2021-08-07T07:27:44.633Z</time>
      </trkpt>
      <trkpt lat="46.92182" lon="8.68935">
        <ele>1911</ele>
        <time>2021-08-07T07:27:45.634Z</time>
      </trkpt>
      <trkpt lat="46.92181" lon="8.68935">
        <ele>1911</ele>
        <time>2021-08-07T07:27:46.634Z</time>
      </trkpt>
      <trkpt lat="46.9218" lon="8.68933">
        <ele>1912</ele>
        <time>2021-08-07T07:27:47.635Z</time>
      </trkpt>
      <trkpt lat="46.92181" lon="8.68933">
        <ele>1913</ele>
        <time>2021-08-07T07:27:48.634Z</time>
      </trkpt>
      <trkpt lat="46.92181" lon="8.68933">
        <ele>1913</ele>
        <time>2021-08-07T07:27:49.634Z</time>
      </trkpt>
      <trkpt lat="46.92181" lon="8.68932">
        <ele>1914</ele>
        <time>2021-08-07T07:27:50.635Z</time>
      </trkpt>
      <trkpt lat="46.9218" lon="8.68934">
        <ele>1914</ele>
        <time>2021-08-07T07:27:51.636Z</time>
      </trkpt>
      <trkpt lat="46.92179" lon="8.68934">
        <ele>1915</ele>
        <time>2021-08-07T07:27:52.636Z</time>
      </trkpt>
      <trkpt lat="46.92179" lon="8.68935">
        <ele>1916</ele>
        <time>2021-08-07T07:27:53.635Z</time>
      </trkpt>
      <trkpt lat="46.92178" lon="8.68937">
        <ele>1922</ele>
        <time>2021-08-07T07:27:54.636Z</time>
      </trkpt>
      <trkpt lat="46.92178" lon="8.68936">
        <ele>1921</ele>
        <time>2021-08-07T07:27:55.636Z</time>
      </trkpt>
      <trkpt lat="46.92178" lon="8.68936">
        <ele>1920</ele>
        <time>2021-08-07T07:27:56.635Z</time>
      </trkpt>
      <trkpt lat="46.92177" lon="8.68936">
        <ele>1920</ele>
        <time>2021-08-07T07:27:57.636Z</time>
      </trkpt>
      <trkpt lat="46.92178" lon="8.68937">
        <ele>1919</ele>
        <time>2021-08-07T07:27:58.635Z</time>
      </trkpt>
      <trkpt lat="46.92178" lon="8.68939">
        <ele>1919</ele>
        <time>2021-08-07T07:27:59.636Z</time>
      </trkpt>
      <trkpt lat="46.92178" lon="8.6894">
        <ele>1917</ele>
        <time>2021-08-07T07:28:00.637Z</time>
      </trkpt>
      <trkpt lat="46.92178" lon="8.6894">
        <ele>1917</ele>
        <time>2021-08-07T07:28:01.638Z</time>
      </trkpt>
      <trkpt lat="46.92178" lon="8.6894">
        <ele>1916</ele>
        <time>2021-08-07T07:28:02.638Z</time>
      </trkpt>
      <trkpt lat="46.92181" lon="8.68941">
        <ele>1915</ele>
        <time>2021-08-07T07:28:03.639Z</time>
      </trkpt>
      <trkpt lat="46.92181" lon="8.68941">
        <ele>1917</ele>
        <time>2021-08-07T07:28:04.639Z</time>
      </trkpt>
      <trkpt lat="46.92181" lon="8.68942">
        <ele>1919</ele>
        <time>2021-08-07T07:28:05.638Z</time>
      </trkpt>
      <trkpt lat="46.92181" lon="8.68942">
        <ele>1920</ele>
        <time>2021-08-07T07:28:06.639Z</time>
      </trkpt>
      <trkpt lat="46.92181" lon="8.6894">
        <ele>1927</ele>
        <time>2021-08-07T07:28:07.639Z</time>
      </trkpt>
      <trkpt lat="46.9218" lon="8.6894">
        <ele>1927</ele>
        <time>2021-08-07T07:28:08.639Z</time>
      </trkpt>
      <trkpt lat="46.9218" lon="8.68938">
        <ele>1927</ele>
        <time>2021-08-07T07:28:09.638Z</time>
      </trkpt>
      <trkpt lat="46.92179" lon="8.68937">
        <ele>1927</ele>
        <time>2021-08-07T07:28:10.638Z</time>
      </trkpt>
      <trkpt lat="46.92178" lon="8.68937">
        <ele>1927</ele>
        <time>2021-08-07T07:28:11.639Z</time>
      </trkpt>
      <trkpt lat="46.92177" lon="8.68936">
        <ele>1927</ele>
        <time>2021-08-07T07:28:12.638Z</time>
      </trkpt>
      <trkpt lat="46.92176" lon="8.68936">
        <ele>1927</ele>
        <time>2021-08-07T07:28:13.638Z</time>
      </trkpt>
      <trkpt lat="46.92175" lon="8.68936">
        <ele>1927</ele>
        <time>2021-08-07T07:28:14.638Z</time>
      </trkpt>
      <trkpt lat="46.92174" lon="8.68934">
        <ele>1927</ele>
        <time>2021-08-07T07:28:15.639Z</time>
      </trkpt>
      <trkpt lat="46.92174" lon="8.68934">
        <ele>1927</ele>
        <time>2021-08-07T07:28:16.639Z</time>
      </trkpt>
      <trkpt lat="46.92173" lon="8.68933">
        <ele>1926</ele>
        <time>2021-08-07T07:28:17.639Z</time>
      </trkpt>
      <trkpt lat="46.92173" lon="8.68933">
        <ele>1926</ele>
        <time>2021-08-07T07:28:18.639Z</time>
      </trkpt>
      <trkpt lat="46.92169" lon="8.6893">
        <ele>1925</ele>
        <time>2021-08-07T07:28:19.640Z</time>
      </trkpt>
      <trkpt lat="46.92168" lon="8.68929">
        <ele>1925</ele>
        <time>2021-08-07T07:28:20.639Z</time>
      </trkpt>
      <trkpt lat="46.92167" lon="8.68928">
        <ele>1924</ele>
        <time>2021-08-07T07:28:21.639Z</time>
      </trkpt>
      <trkpt lat="46.92167" lon="8.68928">
        <ele>1923</ele>
        <time>2021-08-07T07:28:22.639Z</time>
      </trkpt>
      <trkpt lat="46.92166" lon="8.68927">
        <ele>1923</ele>
        <time>2021-08-07T07:28:23.639Z</time>
      </trkpt>
      <trkpt lat="46.92165" lon="8.68927">
        <ele>1922</ele>
        <time>2021-08-07T07:28:24.639Z</time>
      </trkpt>
      <trkpt lat="46.92164" lon="8.68926">
        <ele>1921</ele>
        <time>2021-08-07T07:28:25.640Z</time>
      </trkpt>
      <trkpt lat="46.92164" lon="8.68927">
        <ele>1921</ele>
        <time>2021-08-07T07:28:26.640Z</time>
      </trkpt>
      <trkpt lat="46.92164" lon="8.68927">
        <ele>1920</ele>
        <time>2021-08-07T07:28:27.639Z</time>
      </trkpt>
      <trkpt lat="46.92164" lon="8.68928">
        <ele>1920</ele>
        <time>2021-08-07T07:28:28.639Z</time>
      </trkpt>
      <trkpt lat="46.92163" lon="8.68928">
        <ele>1920</ele>
        <time>2021-08-07T07:28:29.639Z</time>
      </trkpt>
      <trkpt lat="46.92163" lon="8.68928">
        <ele>1919</ele>
        <time>2021-08-07T07:28:30.639Z</time>
      </trkpt>
      <trkpt lat="46.92162" lon="8.68928">
        <ele>1919</ele>
        <time>2021-08-07T07:28:31.639Z</time>
      </trkpt>
      <trkpt lat="46.92161" lon="8.68927">
        <ele>1918</ele>
        <time>2021-08-07T07:28:32.640Z</time>
      </trkpt>
      <trkpt lat="46.92161" lon="8.68927">
        <ele>1918</ele>
        <time>2021-08-07T07:28:33.639Z</time>
      </trkpt>
      <trkpt lat="46.9216" lon="8.68927">
        <ele>1917</ele>
        <time>2021-08-07T07:28:34.640Z</time>
      </trkpt>
      <trkpt lat="46.9216" lon="8.68927">
        <ele>1917</ele>
        <time>2021-08-07T07:28:35.639Z</time>
      </trkpt>
      <trkpt lat="46.92159" lon="8.68926">
        <ele>1916</ele>
        <time>2021-08-07T07:28:36.640Z</time>
      </trkpt>
      <trkpt lat="46.92159" lon="8.68926">
        <ele>1915</ele>
        <time>2021-08-07T07:28:37.640Z</time>
      </trkpt>
      <trkpt lat="46.92158" lon="8.68926">
        <ele>1915</ele>
        <time>2021-08-07T07:28:38.639Z</time>
      </trkpt>
      <trkpt lat="46.92158" lon="8.68926">
        <ele>1914</ele>
        <time>2021-08-07T07:28:39.639Z</time>
      </trkpt>
      <trkpt lat="46.92157" lon="8.68926">
        <ele>1914</ele>
        <time>2021-08-07T07:28:40.639Z</time>
      </trkpt>
      <trkpt lat="46.92157" lon="8.68926">
        <ele>1914</ele>
        <time>2021-08-07T07:28:41.639Z</time>
      </trkpt>
      <trkpt lat="46.92156" lon="8.68926">
        <ele>1914</ele>
        <time>2021-08-07T07:28:42.639Z</time>
      </trkpt>
      <trkpt lat="46.92156" lon="8.68925">
        <ele>1914</ele>
        <time>2021-08-07T07:28:43.640Z</time>
      </trkpt>
      <trkpt lat="46.92155" lon="8.68925">
        <ele>1914</ele>
        <time>2021-08-07T07:28:44.640Z</time>
      </trkpt>
      <trkpt lat="46.92155" lon="8.68925">
        <ele>1914</ele>
        <time>2021-08-07T07:28:45.639Z</time>
      </trkpt>
      <trkpt lat="46.92154" lon="8.68925">
        <ele>1914</ele>
        <time>2021-08-07T07:28:46.639Z</time>
      </trkpt>
      <trkpt lat="46.92154" lon="8.68924">
        <ele>1915</ele>
        <time>2021-08-07T07:28:47.639Z</time>
      </trkpt>
      <trkpt lat="46.92153" lon="8.68924">
        <ele>1915</ele>
        <time>2021-08-07T07:28:48.639Z</time>
      </trkpt>
      <trkpt lat="46.92153" lon="8.68924">
        <ele>1915</ele>
        <time>2021-08-07T07:28:49.639Z</time>
      </trkpt>
      <trkpt lat="46.92152" lon="8.68924">
        <ele>1915</ele>
        <time>2021-08-07T07:28:50.640Z</time>
      </trkpt>
      <trkpt lat="46.92152" lon="8.68923">
        <ele>1915</ele>
        <time>2021-08-07T07:28:51.639Z</time>
      </trkpt>
      <trkpt lat="46.92151" lon="8.68923">
        <ele>1916</ele>
        <time>2021-08-07T07:28:52.640Z</time>
      </trkpt>
      <trkpt lat="46.92151" lon="8.68922">
        <ele>1916</ele>
        <time>2021-08-07T07:28:53.640Z</time>
      </trkpt>
      <trkpt lat="46.9215" lon="8.68922">
        <ele>1917</ele>
        <time>2021-08-07T07:28:54.639Z</time>
      </trkpt>
      <trkpt lat="46.92149" lon="8.68921">
        <ele>1917</ele>
        <time>2021-08-07T07:28:55.639Z</time>
      </trkpt>
      <trkpt lat="46.92149" lon="8.68921">
        <ele>1918</ele>
        <time>2021-08-07T07:28:56.640Z</time>
      </trkpt>
      <trkpt lat="46.92148" lon="8.6892">
        <ele>1918</ele>
        <time>2021-08-07T07:28:57.640Z</time>
      </trkpt>
      <trkpt lat="46.92148" lon="8.6892">
        <ele>1918</ele>
        <time>2021-08-07T07:28:58.639Z</time>
      </trkpt>
      <trkpt lat="46.92147" lon="8.6892">
        <ele>1918</ele>
        <time>2021-08-07T07:28:59.639Z</time>
      </trkpt>
      <trkpt lat="46.92147" lon="8.68919">
        <ele>1918</ele>
        <time>2021-08-07T07:29:00.640Z</time>
      </trkpt>
      <trkpt lat="46.92146" lon="8.68919">
        <ele>1918</ele>
        <time>2021-08-07T07:29:01.640Z</time>
      </trkpt>
      <trkpt lat="46.92145" lon="8.68919">
        <ele>1919</ele>
        <time>2021-08-07T07:29:02.639Z</time>
      </trkpt>
      <trkpt lat="46.92145" lon="8.68918">
        <ele>1919</ele>
        <time>2021-08-07T07:29:03.640Z</time>
      </trkpt>
      <trkpt lat="46.92144" lon="8.68918">
        <ele>1920</ele>
        <time>2021-08-07T07:29:04.639Z</time>
      </trkpt>
      <trkpt lat="46.92142" lon="8.68917">
        <ele>1920</ele>
        <time>2021-08-07T07:29:05.639Z</time>
      </trkpt>
      <trkpt lat="46.92142" lon="8.68917">
        <ele>1921</ele>
        <time>2021-08-07T07:29:06.639Z</time>
      </trkpt>
      <trkpt lat="46.92141" lon="8.68916">
        <ele>1921</ele>
        <time>2021-08-07T07:29:07.639Z</time>
      </trkpt>
      <trkpt lat="46.9214" lon="8.68916">
        <ele>1921</ele>
        <time>2021-08-07T07:29:08.639Z</time>
      </trkpt>
      <trkpt lat="46.9214" lon="8.68916">
        <ele>1921</ele>
        <time>2021-08-07T07:29:09.639Z</time>
      </trkpt>
      <trkpt lat="46.92139" lon="8.68916">
        <ele>1922</ele>
        <time>2021-08-07T07:29:10.639Z</time>
      </trkpt>
      <trkpt lat="46.92139" lon="8.68916">
        <ele>1922</ele>
        <time>2021-08-07T07:29:11.639Z</time>
      </trkpt>
      <trkpt lat="46.92138" lon="8.68915">
        <ele>1922</ele>
        <time>2021-08-07T07:29:12.639Z</time>
      </trkpt>
      <trkpt lat="46.92138" lon="8.68914">
        <ele>1922</ele>
        <time>2021-08-07T07:29:13.639Z</time>
      </trkpt>
      <trkpt lat="46.92138" lon="8.68914">
        <ele>1922</ele>
        <time>2021-08-07T07:29:14.639Z</time>
      </trkpt>
      <trkpt lat="46.92137" lon="8.68914">
        <ele>1922</ele>
        <time>2021-08-07T07:29:15.639Z</time>
      </trkpt>
      <trkpt lat="46.92136" lon="8.68913">
        <ele>1922</ele>
        <time>2021-08-07T07:29:16.640Z</time>
      </trkpt>
      <trkpt lat="46.92135" lon="8.68913">
        <ele>1922</ele>
        <time>2021-08-07T07:29:17.639Z</time>
      </trkpt>
      <trkpt lat="46.92135" lon="8.68913">
        <ele>1922</ele>
        <time>2021-08-07T07:29:18.639Z</time>
      </trkpt>
      <trkpt lat="46.92134" lon="8.68913">
        <ele>1922</ele>
        <time>2021-08-07T07:29:19.640Z</time>
      </trkpt>
      <trkpt lat="46.92134" lon="8.68913">
        <ele>1921</ele>
        <time>2021-08-07T07:29:20.639Z</time>
      </trkpt>
      <trkpt lat="46.92133" lon="8.68913">
        <ele>1922</ele>
        <time>2021-08-07T07:29:21.640Z</time>
      </trkpt>
      <trkpt lat="46.92133" lon="8.68913">
        <ele>1922</ele>
        <time>2021-08-07T07:29:22.639Z</time>
      </trkpt>
      <trkpt lat="46.92132" lon="8.68912">
        <ele>1922</ele>
        <time>2021-08-07T07:29:23.640Z</time>
      </trkpt>
      <trkpt lat="46.92132" lon="8.68912">
        <ele>1922</ele>
        <time>2021-08-07T07:29:24.640Z</time>
      </trkpt>
      <trkpt lat="46.92132" lon="8.68912">
        <ele>1922</ele>
        <time>2021-08-07T07:29:25.639Z</time>
      </trkpt>
      <trkpt lat="46.92131" lon="8.68912">
        <ele>1921</ele>
        <time>2021-08-07T07:29:26.639Z</time>
      </trkpt>
      <trkpt lat="46.92131" lon="8.68911">
        <ele>1921</ele>
        <time>2021-08-07T07:29:27.639Z</time>
      </trkpt>
      <trkpt lat="46.9213" lon="8.68911">
        <ele>1921</ele>
        <time>2021-08-07T07:29:28.640Z</time>
      </trkpt>
      <trkpt lat="46.92129" lon="8.68911">
        <ele>1921</ele>
        <time>2021-08-07T07:29:29.639Z</time>
      </trkpt>
      <trkpt lat="46.92128" lon="8.6891">
        <ele>1921</ele>
        <time>2021-08-07T07:29:30.639Z</time>
      </trkpt>
      <trkpt lat="46.92127" lon="8.6891">
        <ele>1922</ele>
        <time>2021-08-07T07:29:31.639Z</time>
      </trkpt>
      <trkpt lat="46.92127" lon="8.68909">
        <ele>1922</ele>
        <time>2021-08-07T07:29:32.639Z</time>
      </trkpt>
      <trkpt lat="46.92126" lon="8.68909">
        <ele>1922</ele>
        <time>2021-08-07T07:29:33.639Z</time>
      </trkpt>
      <trkpt lat="46.92126" lon="8.68909">
        <ele>1923</ele>
        <time>2021-08-07T07:29:34.639Z</time>
      </trkpt>
      <trkpt lat="46.92125" lon="8.68909">
        <ele>1923</ele>
        <time>2021-08-07T07:29:35.639Z</time>
      </trkpt>
      <trkpt lat="46.92125" lon="8.68909">
        <ele>1924</ele>
        <time>2021-08-07T07:29:36.640Z</time>
      </trkpt>
      <trkpt lat="46.92124" lon="8.68909">
        <ele>1924</ele>
        <time>2021-08-07T07:29:37.639Z</time>
      </trkpt>
      <trkpt lat="46.92123" lon="8.68908">
        <ele>1925</ele>
        <time>2021-08-07T07:29:38.639Z</time>
      </trkpt>
      <trkpt lat="46.92123" lon="8.68908">
        <ele>1925</ele>
        <time>2021-08-07T07:29:39.640Z</time>
      </trkpt>
      <trkpt lat="46.92122" lon="8.68908">
        <ele>1925</ele>
        <time>2021-08-07T07:29:40.639Z</time>
      </trkpt>
      <trkpt lat="46.92122" lon="8.68908">
        <ele>1925</ele>
        <time>2021-08-07T07:29:41.639Z</time>
      </trkpt>
      <trkpt lat="46.92121" lon="8.68908">
        <ele>1926</ele>
        <time>2021-08-07T07:29:42.639Z</time>
      </trkpt>
      <trkpt lat="46.9212" lon="8.68908">
        <ele>1926</ele>
        <time>2021-08-07T07:29:43.639Z</time>
      </trkpt>
      <trkpt lat="46.92119" lon="8.68907">
        <ele>1926</ele>
        <time>2021-08-07T07:29:44.639Z</time>
      </trkpt>
      <trkpt lat="46.92119" lon="8.68907">
        <ele>1926</ele>
        <time>2021-08-07T07:29:45.639Z</time>
      </trkpt>
      <trkpt lat="46.92118" lon="8.68907">
        <ele>1926</ele>
        <time>2021-08-07T07:29:46.640Z</time>
      </trkpt>
      <trkpt lat="46.92118" lon="8.68907">
        <ele>1926</ele>
        <time>2021-08-07T07:29:47.639Z</time>
      </trkpt>
      <trkpt lat="46.92117" lon="8.68906">
        <ele>1926</ele>
        <time>2021-08-07T07:29:48.640Z</time>
      </trkpt>
      <trkpt lat="46.92117" lon="8.68906">
        <ele>1926</ele>
        <time>2021-08-07T07:29:49.639Z</time>
      </trkpt>
      <trkpt lat="46.92116" lon="8.68906">
        <ele>1926</ele>
        <time>2021-08-07T07:29:50.640Z</time>
      </trkpt>
      <trkpt lat="46.92116" lon="8.68906">
        <ele>1926</ele>
        <time>2021-08-07T07:29:51.639Z</time>
      </trkpt>
      <trkpt lat="46.92115" lon="8.68906">
        <ele>1926</ele>
        <time>2021-08-07T07:29:52.639Z</time>
      </trkpt>
      <trkpt lat="46.92114" lon="8.68906">
        <ele>1926</ele>
        <time>2021-08-07T07:29:53.639Z</time>
      </trkpt>
      <trkpt lat="46.92114" lon="8.68906">
        <ele>1926</ele>
        <time>2021-08-07T07:29:54.639Z</time>
      </trkpt>
      <trkpt lat="46.92113" lon="8.68905">
        <ele>1926</ele>
        <time>2021-08-07T07:29:55.639Z</time>
      </trkpt>
      <trkpt lat="46.92112" lon="8.68906">
        <ele>1926</ele>
        <time>2021-08-07T07:29:56.639Z</time>
      </trkpt>
      <trkpt lat="46.92112" lon="8.68906">
        <ele>1926</ele>
        <time>2021-08-07T07:29:57.640Z</time>
      </trkpt>
      <trkpt lat="46.92112" lon="8.68906">
        <ele>1926</ele>
        <time>2021-08-07T07:29:58.639Z</time>
      </trkpt>
      <trkpt lat="46.92111" lon="8.68906">
        <ele>1925</ele>
        <time>2021-08-07T07:29:59.639Z</time>
      </trkpt>
      <trkpt lat="46.92111" lon="8.68906">
        <ele>1925</ele>
        <time>2021-08-07T07:30:00.639Z</time>
      </trkpt>
      <trkpt lat="46.92111" lon="8.68906">
        <ele>1925</ele>
        <time>2021-08-07T07:30:01.639Z</time>
      </trkpt>
      <trkpt lat="46.9211" lon="8.68906">
        <ele>1925</ele>
        <time>2021-08-07T07:30:02.639Z</time>
      </trkpt>
      <trkpt lat="46.92109" lon="8.68906">
        <ele>1925</ele>
        <time>2021-08-07T07:30:03.639Z</time>
      </trkpt>
      <trkpt lat="46.92108" lon="8.68905">
        <ele>1925</ele>
        <time>2021-08-07T07:30:04.639Z</time>
      </trkpt>
      <trkpt lat="46.92108" lon="8.68904">
        <ele>1926</ele>
        <time>2021-08-07T07:30:05.639Z</time>
      </trkpt>
      <trkpt lat="46.92107" lon="8.68904">
        <ele>1926</ele>
        <time>2021-08-07T07:30:06.639Z</time>
      </trkpt>
      <trkpt lat="46.92107" lon="8.68903">
        <ele>1927</ele>
        <time>2021-08-07T07:30:07.640Z</time>
      </trkpt>
      <trkpt lat="46.92106" lon="8.68903">
        <ele>1928</ele>
        <time>2021-08-07T07:30:08.639Z</time>
      </trkpt>
      <trkpt lat="46.92106" lon="8.68903">
        <ele>1928</ele>
        <time>2021-08-07T07:30:09.639Z</time>
      </trkpt>
      <trkpt lat="46.92106" lon="8.68903">
        <ele>1929</ele>
        <time>2021-08-07T07:30:10.639Z</time>
      </trkpt>
      <trkpt lat="46.92106" lon="8.68903">
        <ele>1929</ele>
        <time>2021-08-07T07:30:11.639Z</time>
      </trkpt>
      <trkpt lat="46.92106" lon="8.68903">
        <ele>1930</ele>
        <time>2021-08-07T07:30:12.640Z</time>
      </trkpt>
      <trkpt lat="46.92104" lon="8.68902">
        <ele>1930</ele>
        <time>2021-08-07T07:30:13.640Z</time>
      </trkpt>
      <trkpt lat="46.92104" lon="8.68901">
        <ele>1931</ele>
        <time>2021-08-07T07:30:14.639Z</time>
      </trkpt>
      <trkpt lat="46.92103" lon="8.689">
        <ele>1931</ele>
        <time>2021-08-07T07:30:15.639Z</time>
      </trkpt>
      <trkpt lat="46.92102" lon="8.68899">
        <ele>1932</ele>
        <time>2021-08-07T07:30:16.640Z</time>
      </trkpt>
      <trkpt lat="46.92101" lon="8.68898">
        <ele>1932</ele>
        <time>2021-08-07T07:30:17.640Z</time>
      </trkpt>
      <trkpt lat="46.921" lon="8.68897">
        <ele>1933</ele>
        <time>2021-08-07T07:30:18.639Z</time>
      </trkpt>
      <trkpt lat="46.92099" lon="8.68897">
        <ele>1934</ele>
        <time>2021-08-07T07:30:19.639Z</time>
      </trkpt>
      <trkpt lat="46.92098" lon="8.68897">
        <ele>1934</ele>
        <time>2021-08-07T07:30:20.639Z</time>
      </trkpt>
      <trkpt lat="46.92097" lon="8.68897">
        <ele>1934</ele>
        <time>2021-08-07T07:30:21.640Z</time>
      </trkpt>
      <trkpt lat="46.92097" lon="8.68896">
        <ele>1934</ele>
        <time>2021-08-07T07:30:22.639Z</time>
      </trkpt>
      <trkpt lat="46.92096" lon="8.68896">
        <ele>1934</ele>
        <time>2021-08-07T07:30:23.639Z</time>
      </trkpt>
      <trkpt lat="46.92095" lon="8.68896">
        <ele>1935</ele>
        <time>2021-08-07T07:30:24.640Z</time>
      </trkpt>
      <trkpt lat="46.92095" lon="8.68896">
        <ele>1934</ele>
        <time>2021-08-07T07:30:25.640Z</time>
      </trkpt>
      <trkpt lat="46.92095" lon="8.68896">
        <ele>1934</ele>
        <time>2021-08-07T07:30:26.640Z</time>
      </trkpt>
      <trkpt lat="46.92094" lon="8.68897">
        <ele>1934</ele>
        <time>2021-08-07T07:30:27.639Z</time>
      </trkpt>
      <trkpt lat="46.92093" lon="8.68897">
        <ele>1934</ele>
        <time>2021-08-07T07:30:28.639Z</time>
      </trkpt>
      <trkpt lat="46.92093" lon="8.68897">
        <ele>1934</ele>
        <time>2021-08-07T07:30:29.639Z</time>
      </trkpt>
      <trkpt lat="46.92092" lon="8.68896">
        <ele>1933</ele>
        <time>2021-08-07T07:30:30.640Z</time>
      </trkpt>
      <trkpt lat="46.92092" lon="8.68896">
        <ele>1933</ele>
        <time>2021-08-07T07:30:31.640Z</time>
      </trkpt>
      <trkpt lat="46.92091" lon="8.68896">
        <ele>1933</ele>
        <time>2021-08-07T07:30:32.639Z</time>
      </trkpt>
      <trkpt lat="46.92091" lon="8.68896">
        <ele>1933</ele>
        <time>2021-08-07T07:30:33.639Z</time>
      </trkpt>
      <trkpt lat="46.9209" lon="8.68896">
        <ele>1933</ele>
        <time>2021-08-07T07:30:34.640Z</time>
      </trkpt>
      <trkpt lat="46.9209" lon="8.68897">
        <ele>1933</ele>
        <time>2021-08-07T07:30:35.639Z</time>
      </trkpt>
      <trkpt lat="46.9209" lon="8.68897">
        <ele>1933</ele>
        <time>2021-08-07T07:30:36.639Z</time>
      </trkpt>
      <trkpt lat="46.92089" lon="8.68897">
        <ele>1934</ele>
        <time>2021-08-07T07:30:37.640Z</time>
      </trkpt>
      <trkpt lat="46.92088" lon="8.68898">
        <ele>1934</ele>
        <time>2021-08-07T07:30:38.639Z</time>
      </trkpt>
      <trkpt lat="46.92088" lon="8.68898">
        <ele>1934</ele>
        <time>2021-08-07T07:30:39.640Z</time>
      </trkpt>
      <trkpt lat="46.92087" lon="8.68899">
        <ele>1934</ele>
        <time>2021-08-07T07:30:40.640Z</time>
      </trkpt>
      <trkpt lat="46.92087" lon="8.689">
        <ele>1934</ele>
        <time>2021-08-07T07:30:41.640Z</time>
      </trkpt>
      <trkpt lat="46.92087" lon="8.68901">
        <ele>1934</ele>
        <time>2021-08-07T07:30:42.639Z</time>
      </trkpt>
      <trkpt lat="46.92087" lon="8.68901">
        <ele>1934</ele>
        <time>2021-08-07T07:30:43.640Z</time>
      </trkpt>
      <trkpt lat="46.92086" lon="8.68901">
        <ele>1934</ele>
        <time>2021-08-07T07:30:44.640Z</time>
      </trkpt>
      <trkpt lat="46.92085" lon="8.68901">
        <ele>1934</ele>
        <time>2021-08-07T07:30:45.640Z</time>
      </trkpt>
      <trkpt lat="46.92085" lon="8.68901">
        <ele>1934</ele>
        <time>2021-08-07T07:30:46.639Z</time>
      </trkpt>
      <trkpt lat="46.92084" lon="8.68901">
        <ele>1934</ele>
        <time>2021-08-07T07:30:47.639Z</time>
      </trkpt>
      <trkpt lat="46.92084" lon="8.68901">
        <ele>1934</ele>
        <time>2021-08-07T07:30:48.640Z</time>
      </trkpt>
      <trkpt lat="46.92084" lon="8.68902">
        <ele>1935</ele>
        <time>2021-08-07T07:30:49.640Z</time>
      </trkpt>
      <trkpt lat="46.92083" lon="8.68903">
        <ele>1935</ele>
        <time>2021-08-07T07:30:50.639Z</time>
      </trkpt>
      <trkpt lat="46.92083" lon="8.68904">
        <ele>1935</ele>
        <time>2021-08-07T07:30:51.640Z</time>
      </trkpt>
      <trkpt lat="46.92083" lon="8.68904">
        <ele>1935</ele>
        <time>2021-08-07T07:30:52.640Z</time>
      </trkpt>
      <trkpt lat="46.92083" lon="8.68903">
        <ele>1934</ele>
        <time>2021-08-07T07:30:53.640Z</time>
      </trkpt>
      <trkpt lat="46.92082" lon="8.68903">
        <ele>1934</ele>
        <time>2021-08-07T07:30:54.639Z</time>
      </trkpt>
      <trkpt lat="46.92082" lon="8.68902">
        <ele>1935</ele>
        <time>2021-08-07T07:30:55.640Z</time>
      </trkpt>
      <trkpt lat="46.92081" lon="8.68902">
        <ele>1935</ele>
        <time>2021-08-07T07:30:56.640Z</time>
      </trkpt>
      <trkpt lat="46.92081" lon="8.68902">
        <ele>1935</ele>
        <time>2021-08-07T07:30:57.639Z</time>
      </trkpt>
      <trkpt lat="46.92081" lon="8.68902">
        <ele>1936</ele>
        <time>2021-08-07T07:30:58.639Z</time>
      </trkpt>
      <trkpt lat="46.92081" lon="8.68903">
        <ele>1936</ele>
        <time>2021-08-07T07:30:59.639Z</time>
      </trkpt>
      <trkpt lat="46.9208" lon="8.68903">
        <ele>1936</ele>
        <time>2021-08-07T07:31:00.640Z</time>
      </trkpt>
      <trkpt lat="46.92079" lon="8.68904">
        <ele>1937</ele>
        <time>2021-08-07T07:31:01.639Z</time>
      </trkpt>
      <trkpt lat="46.92078" lon="8.68905">
        <ele>1937</ele>
        <time>2021-08-07T07:31:02.640Z</time>
      </trkpt>
      <trkpt lat="46.92078" lon="8.68905">
        <ele>1937</ele>
        <time>2021-08-07T07:31:03.639Z</time>
      </trkpt>
      <trkpt lat="46.92078" lon="8.68906">
        <ele>1938</ele>
        <time>2021-08-07T07:31:04.640Z</time>
      </trkpt>
      <trkpt lat="46.92078" lon="8.68906">
        <ele>1938</ele>
        <time>2021-08-07T07:31:05.640Z</time>
      </trkpt>
      <trkpt lat="46.92077" lon="8.68907">
        <ele>1939</ele>
        <time>2021-08-07T07:31:06.640Z</time>
      </trkpt>
      <trkpt lat="46.92077" lon="8.68907">
        <ele>1939</ele>
        <time>2021-08-07T07:31:07.639Z</time>
      </trkpt>
      <trkpt lat="46.92076" lon="8.68908">
        <ele>1939</ele>
        <time>2021-08-07T07:31:08.639Z</time>
      </trkpt>
      <trkpt lat="46.92075" lon="8.68908">
        <ele>1940</ele>
        <time>2021-08-07T07:31:09.639Z</time>
      </trkpt>
      <trkpt lat="46.92075" lon="8.68909">
        <ele>1941</ele>
        <time>2021-08-07T07:31:10.640Z</time>
      </trkpt>
      <trkpt lat="46.92074" lon="8.6891">
        <ele>1941</ele>
        <time>2021-08-07T07:31:11.640Z</time>
      </trkpt>
      <trkpt lat="46.92074" lon="8.6891">
        <ele>1941</ele>
        <time>2021-08-07T07:31:12.640Z</time>
      </trkpt>
      <trkpt lat="46.92073" lon="8.6891">
        <ele>1941</ele>
        <time>2021-08-07T07:31:13.639Z</time>
      </trkpt>
      <trkpt lat="46.92073" lon="8.68911">
        <ele>1942</ele>
        <time>2021-08-07T07:31:14.640Z</time>
      </trkpt>
      <trkpt lat="46.92072" lon="8.68911">
        <ele>1942</ele>
        <time>2021-08-07T07:31:15.640Z</time>
      </trkpt>
      <trkpt lat="46.92072" lon="8.68911">
        <ele>1942</ele>
        <time>2021-08-07T07:31:16.640Z</time>
      </trkpt>
      <trkpt lat="46.92071" lon="8.6891">
        <ele>1942</ele>
        <time>2021-08-07T07:31:17.639Z</time>
      </trkpt>
      <trkpt lat="46.9207" lon="8.68909">
        <ele>1941</ele>
        <time>2021-08-07T07:31:18.640Z</time>
      </trkpt>
      <trkpt lat="46.92069" lon="8.68908">
        <ele>1941</ele>
        <time>2021-08-07T07:31:19.640Z</time>
      </trkpt>
      <trkpt lat="46.92069" lon="8.68907">
        <ele>1941</ele>
        <time>2021-08-07T07:31:20.639Z</time>
      </trkpt>
      <trkpt lat="46.92069" lon="8.68906">
        <ele>1941</ele>
        <time>2021-08-07T07:31:21.640Z</time>
      </trkpt>
      <trkpt lat="46.92068" lon="8.68905">
        <ele>1940</ele>
        <time>2021-08-07T07:31:22.639Z</time>
      </trkpt>
      <trkpt lat="46.92068" lon="8.68905">
        <ele>1940</ele>
        <time>2021-08-07T07:31:23.640Z</time>
      </trkpt>
      <trkpt lat="46.92067" lon="8.68905">
        <ele>1940</ele>
        <time>2021-08-07T07:31:24.639Z</time>
      </trkpt>
      <trkpt lat="46.92067" lon="8.68904">
        <ele>1939</ele>
        <time>2021-08-07T07:31:25.640Z</time>
      </trkpt>
      <trkpt lat="46.92067" lon="8.68904">
        <ele>1939</ele>
        <time>2021-08-07T07:31:26.640Z</time>
      </trkpt>
      <trkpt lat="46.92067" lon="8.68905">
        <ele>1939</ele>
        <time>2021-08-07T07:31:27.640Z</time>
      </trkpt>
      <trkpt lat="46.92066" lon="8.68904">
        <ele>1939</ele>
        <time>2021-08-07T07:31:28.639Z</time>
      </trkpt>
      <trkpt lat="46.92066" lon="8.68904">
        <ele>1939</ele>
        <time>2021-08-07T07:31:29.640Z</time>
      </trkpt>
      <trkpt lat="46.92066" lon="8.68904">
        <ele>1939</ele>
        <time>2021-08-07T07:31:30.640Z</time>
      </trkpt>
      <trkpt lat="46.92067" lon="8.68903">
        <ele>1939</ele>
        <time>2021-08-07T07:31:31.639Z</time>
      </trkpt>
      <trkpt lat="46.92067" lon="8.68903">
        <ele>1938</ele>
        <time>2021-08-07T07:31:32.640Z</time>
      </trkpt>
      <trkpt lat="46.92066" lon="8.68903">
        <ele>1938</ele>
        <time>2021-08-07T07:31:33.640Z</time>
      </trkpt>
      <trkpt lat="46.92066" lon="8.68904">
        <ele>1938</ele>
        <time>2021-08-07T07:31:34.639Z</time>
      </trkpt>
      <trkpt lat="46.92066" lon="8.68904">
        <ele>1938</ele>
        <time>2021-08-07T07:31:35.639Z</time>
      </trkpt>
      <trkpt lat="46.92066" lon="8.68905">
        <ele>1938</ele>
        <time>2021-08-07T07:31:36.639Z</time>
      </trkpt>
      <trkpt lat="46.92066" lon="8.68905">
        <ele>1938</ele>
        <time>2021-08-07T07:31:37.639Z</time>
      </trkpt>
      <trkpt lat="46.92066" lon="8.68905">
        <ele>1937</ele>
        <time>2021-08-07T07:31:38.639Z</time>
      </trkpt>
      <trkpt lat="46.92067" lon="8.68905">
        <ele>1937</ele>
        <time>2021-08-07T07:31:39.640Z</time>
      </trkpt>
      <trkpt lat="46.92067" lon="8.68905">
        <ele>1937</ele>
        <time>2021-08-07T07:31:40.640Z</time>
      </trkpt>
      <trkpt lat="46.92067" lon="8.68905">
        <ele>1937</ele>
        <time>2021-08-07T07:31:41.639Z</time>
      </trkpt>
      <trkpt lat="46.92068" lon="8.68905">
        <ele>1937</ele>
        <time>2021-08-07T07:31:42.641Z</time>
      </trkpt>
      <trkpt lat="46.92068" lon="8.68905">
        <ele>1937</ele>
        <time>2021-08-07T07:31:43.640Z</time>
      </trkpt>
      <trkpt lat="46.92068" lon="8.68906">
        <ele>1937</ele>
        <time>2021-08-07T07:31:44.640Z</time>
      </trkpt>
      <trkpt lat="46.92069" lon="8.68906">
        <ele>1937</ele>
        <time>2021-08-07T07:31:45.640Z</time>
      </trkpt>
      <trkpt lat="46.9207" lon="8.68907">
        <ele>1937</ele>
        <time>2021-08-07T07:31:46.641Z</time>
      </trkpt>
      <trkpt lat="46.9207" lon="8.68907">
        <ele>1937</ele>
        <time>2021-08-07T07:31:47.641Z</time>
      </trkpt>
      <trkpt lat="46.92071" lon="8.68907">
        <ele>1937</ele>
        <time>2021-08-07T07:31:48.641Z</time>
      </trkpt>
      <trkpt lat="46.9207" lon="8.68907">
        <ele>1938</ele>
        <time>2021-08-07T07:31:49.641Z</time>
      </trkpt>
      <trkpt lat="46.9207" lon="8.68906">
        <ele>1938</ele>
        <time>2021-08-07T07:31:50.641Z</time>
      </trkpt>
      <trkpt lat="46.92069" lon="8.68906">
        <ele>1938</ele>
        <time>2021-08-07T07:31:51.641Z</time>
      </trkpt>
      <trkpt lat="46.92069" lon="8.68906">
        <ele>1939</ele>
        <time>2021-08-07T07:31:52.641Z</time>
      </trkpt>
      <trkpt lat="46.92069" lon="8.68905">
        <ele>1940</ele>
        <time>2021-08-07T07:31:53.641Z</time>
      </trkpt>
      <trkpt lat="46.92069" lon="8.68905">
        <ele>1940</ele>
        <time>2021-08-07T07:31:54.642Z</time>
      </trkpt>
      <trkpt lat="46.92069" lon="8.68906">
        <ele>1940</ele>
        <time>2021-08-07T07:31:55.641Z</time>
      </trkpt>
      <trkpt lat="46.92068" lon="8.68906">
        <ele>1940</ele>
        <time>2021-08-07T07:31:56.642Z</time>
      </trkpt>
      <trkpt lat="46.92067" lon="8.68907">
        <ele>1941</ele>
        <time>2021-08-07T07:31:57.642Z</time>
      </trkpt>
      <trkpt lat="46.92066" lon="8.68907">
        <ele>1941</ele>
        <time>2021-08-07T07:31:58.642Z</time>
      </trkpt>
      <trkpt lat="46.92066" lon="8.68907">
        <ele>1941</ele>
        <time>2021-08-07T07:31:59.642Z</time>
      </trkpt>
      <trkpt lat="46.92067" lon="8.68907">
        <ele>1941</ele>
        <time>2021-08-07T07:32:00.641Z</time>
      </trkpt>
      <trkpt lat="46.92066" lon="8.68905">
        <ele>1941</ele>
        <time>2021-08-07T07:32:01.642Z</time>
      </trkpt>
      <trkpt lat="46.92066" lon="8.68903">
        <ele>1941</ele>
        <time>2021-08-07T07:32:02.641Z</time>
      </trkpt>
      <trkpt lat="46.92065" lon="8.68902">
        <ele>1941</ele>
        <time>2021-08-07T07:32:03.641Z</time>
      </trkpt>
      <trkpt lat="46.92063" lon="8.68902">
        <ele>1941</ele>
        <time>2021-08-07T07:32:04.642Z</time>
      </trkpt>
      <trkpt lat="46.92062" lon="8.68901">
        <ele>1941</ele>
        <time>2021-08-07T07:32:05.641Z</time>
      </trkpt>
      <trkpt lat="46.92061" lon="8.68901">
        <ele>1941</ele>
        <time>2021-08-07T07:32:06.641Z</time>
      </trkpt>
      <trkpt lat="46.9206" lon="8.68901">
        <ele>1941</ele>
        <time>2021-08-07T07:32:07.642Z</time>
      </trkpt>
      <trkpt lat="46.9206" lon="8.68901">
        <ele>1941</ele>
        <time>2021-08-07T07:32:08.641Z</time>
      </trkpt>
      <trkpt lat="46.92061" lon="8.68901">
        <ele>1941</ele>
        <time>2021-08-07T07:32:09.642Z</time>
      </trkpt>
      <trkpt lat="46.92061" lon="8.68902">
        <ele>1941</ele>
        <time>2021-08-07T07:32:10.642Z</time>
      </trkpt>
      <trkpt lat="46.92061" lon="8.68902">
        <ele>1941</ele>
        <time>2021-08-07T07:32:11.641Z</time>
      </trkpt>
      <trkpt lat="46.92061" lon="8.68903">
        <ele>1941</ele>
        <time>2021-08-07T07:32:12.641Z</time>
      </trkpt>
      <trkpt lat="46.92061" lon="8.68903">
        <ele>1941</ele>
        <time>2021-08-07T07:32:13.641Z</time>
      </trkpt>
      <trkpt lat="46.92061" lon="8.68902">
        <ele>1941</ele>
        <time>2021-08-07T07:32:14.642Z</time>
      </trkpt>
      <trkpt lat="46.92061" lon="8.68901">
        <ele>1940</ele>
        <time>2021-08-07T07:32:15.643Z</time>
      </trkpt>
      <trkpt lat="46.92061" lon="8.689">
        <ele>1940</ele>
        <time>2021-08-07T07:32:16.642Z</time>
      </trkpt>
      <trkpt lat="46.92061" lon="8.68901">
        <ele>1940</ele>
        <time>2021-08-07T07:32:17.642Z</time>
      </trkpt>
      <trkpt lat="46.92062" lon="8.68901">
        <ele>1940</ele>
        <time>2021-08-07T07:32:18.642Z</time>
      </trkpt>
      <trkpt lat="46.92061" lon="8.68902">
        <ele>1940</ele>
        <time>2021-08-07T07:32:19.643Z</time>
      </trkpt>
      <trkpt lat="46.92061" lon="8.68902">
        <ele>1940</ele>
        <time>2021-08-07T07:32:20.642Z</time>
      </trkpt>
      <trkpt lat="46.92061" lon="8.68903">
        <ele>1939</ele>
        <time>2021-08-07T07:32:21.643Z</time>
      </trkpt>
      <trkpt lat="46.9206" lon="8.68904">
        <ele>1940</ele>
        <time>2021-08-07T07:32:22.643Z</time>
      </trkpt>
      <trkpt lat="46.9206" lon="8.68904">
        <ele>1940</ele>
        <time>2021-08-07T07:32:23.643Z</time>
      </trkpt>
      <trkpt lat="46.92059" lon="8.68904">
        <ele>1940</ele>
        <time>2021-08-07T07:32:24.643Z</time>
      </trkpt>
      <trkpt lat="46.92058" lon="8.68904">
        <ele>1940</ele>
        <time>2021-08-07T07:32:25.643Z</time>
      </trkpt>
      <trkpt lat="46.92057" lon="8.68903">
        <ele>1941</ele>
        <time>2021-08-07T07:32:26.643Z</time>
      </trkpt>
      <trkpt lat="46.92056" lon="8.68903">
        <ele>1941</ele>
        <time>2021-08-07T07:32:27.643Z</time>
      </trkpt>
      <trkpt lat="46.92055" lon="8.68903">
        <ele>1941</ele>
        <time>2021-08-07T07:32:28.643Z</time>
      </trkpt>
      <trkpt lat="46.92055" lon="8.68903">
        <ele>1941</ele>
        <time>2021-08-07T07:32:29.643Z</time>
      </trkpt>
      <trkpt lat="46.92055" lon="8.68903">
        <ele>1941</ele>
        <time>2021-08-07T07:32:30.642Z</time>
      </trkpt>
      <trkpt lat="46.92054" lon="8.68903">
        <ele>1942</ele>
        <time>2021-08-07T07:32:31.643Z</time>
      </trkpt>
      <trkpt lat="46.92054" lon="8.68903">
        <ele>1942</ele>
        <time>2021-08-07T07:32:32.643Z</time>
      </trkpt>
      <trkpt lat="46.92053" lon="8.68903">
        <ele>1943</ele>
        <time>2021-08-07T07:32:33.642Z</time>
      </trkpt>
      <trkpt lat="46.92053" lon="8.68903">
        <ele>1943</ele>
        <time>2021-08-07T07:32:34.642Z</time>
      </trkpt>
      <trkpt lat="46.92052" lon="8.68903">
        <ele>1943</ele>
        <time>2021-08-07T07:32:35.643Z</time>
      </trkpt>
      <trkpt lat="46.92052" lon="8.68903">
        <ele>1943</ele>
        <time>2021-08-07T07:32:36.642Z</time>
      </trkpt>
      <trkpt lat="46.92051" lon="8.68903">
        <ele>1943</ele>
        <time>2021-08-07T07:32:37.643Z</time>
      </trkpt>
      <trkpt lat="46.9205" lon="8.68903">
        <ele>1943</ele>
        <time>2021-08-07T07:32:38.643Z</time>
      </trkpt>
      <trkpt lat="46.9205" lon="8.68904">
        <ele>1943</ele>
        <time>2021-08-07T07:32:39.643Z</time>
      </trkpt>
      <trkpt lat="46.9205" lon="8.68904">
        <ele>1944</ele>
        <time>2021-08-07T07:32:40.643Z</time>
      </trkpt>
      <trkpt lat="46.92049" lon="8.68904">
        <ele>1944</ele>
        <time>2021-08-07T07:32:41.642Z</time>
      </trkpt>
      <trkpt lat="46.92049" lon="8.68904">
        <ele>1944</ele>
        <time>2021-08-07T07:32:42.643Z</time>
      </trkpt>
      <trkpt lat="46.92048" lon="8.68904">
        <ele>1945</ele>
        <time>2021-08-07T07:32:43.642Z</time>
      </trkpt>
      <trkpt lat="46.92048" lon="8.68904">
        <ele>1945</ele>
        <time>2021-08-07T07:32:44.643Z</time>
      </trkpt>
      <trkpt lat="46.92048" lon="8.68904">
        <ele>1945</ele>
        <time>2021-08-07T07:32:45.643Z</time>
      </trkpt>
      <trkpt lat="46.92048" lon="8.68904">
        <ele>1946</ele>
        <time>2021-08-07T07:32:46.642Z</time>
      </trkpt>
      <trkpt lat="46.92047" lon="8.68904">
        <ele>1947</ele>
        <time>2021-08-07T07:32:47.643Z</time>
      </trkpt>
      <trkpt lat="46.92047" lon="8.68904">
        <ele>1947</ele>
        <time>2021-08-07T07:32:48.642Z</time>
      </trkpt>
      <trkpt lat="46.92046" lon="8.68903">
        <ele>1948</ele>
        <time>2021-08-07T07:32:49.643Z</time>
      </trkpt>
      <trkpt lat="46.92046" lon="8.68903">
        <ele>1948</ele>
        <time>2021-08-07T07:32:50.643Z</time>
      </trkpt>
      <trkpt lat="46.92046" lon="8.68903">
        <ele>1948</ele>
        <time>2021-08-07T07:32:51.643Z</time>
      </trkpt>
      <trkpt lat="46.92045" lon="8.68903">
        <ele>1949</ele>
        <time>2021-08-07T07:32:52.643Z</time>
      </trkpt>
      <trkpt lat="46.92045" lon="8.68903">
        <ele>1949</ele>
        <time>2021-08-07T07:32:53.643Z</time>
      </trkpt>
      <trkpt lat="46.92045" lon="8.68903">
        <ele>1950</ele>
        <time>2021-08-07T07:32:54.642Z</time>
      </trkpt>
      <trkpt lat="46.92044" lon="8.68902">
        <ele>1950</ele>
        <time>2021-08-07T07:32:55.643Z</time>
      </trkpt>
      <trkpt lat="46.92044" lon="8.68902">
        <ele>1950</ele>
        <time>2021-08-07T07:32:56.642Z</time>
      </trkpt>
      <trkpt lat="46.92043" lon="8.68902">
        <ele>1950</ele>
        <time>2021-08-07T07:32:57.642Z</time>
      </trkpt>
      <trkpt lat="46.92043" lon="8.68902">
        <ele>1951</ele>
        <time>2021-08-07T07:32:58.642Z</time>
      </trkpt>
      <trkpt lat="46.92042" lon="8.68902">
        <ele>1951</ele>
        <time>2021-08-07T07:32:59.642Z</time>
      </trkpt>
      <trkpt lat="46.92042" lon="8.68902">
        <ele>1951</ele>
        <time>2021-08-07T07:33:00.642Z</time>
      </trkpt>
      <trkpt lat="46.92041" lon="8.68902">
        <ele>1951</ele>
        <time>2021-08-07T07:33:01.642Z</time>
      </trkpt>
      <trkpt lat="46.92041" lon="8.68901">
        <ele>1951</ele>
        <time>2021-08-07T07:33:02.642Z</time>
      </trkpt>
      <trkpt lat="46.9204" lon="8.68901">
        <ele>1951</ele>
        <time>2021-08-07T07:33:03.642Z</time>
      </trkpt>
      <trkpt lat="46.9204" lon="8.68901">
        <ele>1951</ele>
        <time>2021-08-07T07:33:04.642Z</time>
      </trkpt>
      <trkpt lat="46.92039" lon="8.689">
        <ele>1952</ele>
        <time>2021-08-07T07:33:05.642Z</time>
      </trkpt>
      <trkpt lat="46.92039" lon="8.689">
        <ele>1952</ele>
        <time>2021-08-07T07:33:06.642Z</time>
      </trkpt>
      <trkpt lat="46.92038" lon="8.689">
        <ele>1952</ele>
        <time>2021-08-07T07:33:07.643Z</time>
      </trkpt>
      <trkpt lat="46.92038" lon="8.68899">
        <ele>1952</ele>
        <time>2021-08-07T07:33:08.642Z</time>
      </trkpt>
      <trkpt lat="46.92038" lon="8.68899">
        <ele>1952</ele>
        <time>2021-08-07T07:33:09.643Z</time>
      </trkpt>
      <trkpt lat="46.92037" lon="8.68899">
        <ele>1953</ele>
        <time>2021-08-07T07:33:10.642Z</time>
      </trkpt>
      <trkpt lat="46.92037" lon="8.68898">
        <ele>1953</ele>
        <time>2021-08-07T07:33:11.643Z</time>
      </trkpt>
      <trkpt lat="46.92037" lon="8.68898">
        <ele>1953</ele>
        <time>2021-08-07T07:33:12.642Z</time>
      </trkpt>
      <trkpt lat="46.92036" lon="8.68897">
        <ele>1953</ele>
        <time>2021-08-07T07:33:13.642Z</time>
      </trkpt>
      <trkpt lat="46.92036" lon="8.68897">
        <ele>1952</ele>
        <time>2021-08-07T07:33:14.642Z</time>
      </trkpt>
      <trkpt lat="46.92036" lon="8.68897">
        <ele>1952</ele>
        <time>2021-08-07T07:33:15.642Z</time>
      </trkpt>
      <trkpt lat="46.92035" lon="8.68897">
        <ele>1953</ele>
        <time>2021-08-07T07:33:16.643Z</time>
      </trkpt>
      <trkpt lat="46.92035" lon="8.68896">
        <ele>1953</ele>
        <time>2021-08-07T07:33:17.643Z</time>
      </trkpt>
      <trkpt lat="46.92034" lon="8.68896">
        <ele>1953</ele>
        <time>2021-08-07T07:33:18.642Z</time>
      </trkpt>
      <trkpt lat="46.92034" lon="8.68896">
        <ele>1953</ele>
        <time>2021-08-07T07:33:19.642Z</time>
      </trkpt>
      <trkpt lat="46.92034" lon="8.68896">
        <ele>1954</ele>
        <time>2021-08-07T07:33:20.643Z</time>
      </trkpt>
      <trkpt lat="46.92033" lon="8.68895">
        <ele>1954</ele>
        <time>2021-08-07T07:33:21.643Z</time>
      </trkpt>
      <trkpt lat="46.92032" lon="8.68894">
        <ele>1954</ele>
        <time>2021-08-07T07:33:22.642Z</time>
      </trkpt>
      <trkpt lat="46.92032" lon="8.68894">
        <ele>1954</ele>
        <time>2021-08-07T07:33:23.642Z</time>
      </trkpt>
      <trkpt lat="46.92032" lon="8.68894">
        <ele>1955</ele>
        <time>2021-08-07T07:33:24.643Z</time>
      </trkpt>
      <trkpt lat="46.92032" lon="8.68893">
        <ele>1955</ele>
        <time>2021-08-07T07:33:25.642Z</time>
      </trkpt>
      <trkpt lat="46.92032" lon="8.68893">
        <ele>1956</ele>
        <time>2021-08-07T07:33:26.643Z</time>
      </trkpt>
      <trkpt lat="46.92032" lon="8.68892">
        <ele>1956</ele>
        <time>2021-08-07T07:33:27.642Z</time>
      </trkpt>
      <trkpt lat="46.92031" lon="8.68891">
        <ele>1956</ele>
        <time>2021-08-07T07:33:28.643Z</time>
      </trkpt>
      <trkpt lat="46.9203" lon="8.6889">
        <ele>1956</ele>
        <time>2021-08-07T07:33:29.642Z</time>
      </trkpt>
      <trkpt lat="46.9203" lon="8.6889">
        <ele>1956</ele>
        <time>2021-08-07T07:33:30.642Z</time>
      </trkpt>
      <trkpt lat="46.9203" lon="8.6889">
        <ele>1956</ele>
        <time>2021-08-07T07:33:31.642Z</time>
      </trkpt>
      <trkpt lat="46.9203" lon="8.6889">
        <ele>1955</ele>
        <time>2021-08-07T07:33:32.643Z</time>
      </trkpt>
      <trkpt lat="46.9203" lon="8.6889">
        <ele>1955</ele>
        <time>2021-08-07T07:33:33.644Z</time>
      </trkpt>
      <trkpt lat="46.92029" lon="8.68889">
        <ele>1955</ele>
        <time>2021-08-07T07:33:34.643Z</time>
      </trkpt>
      <trkpt lat="46.92028" lon="8.68887">
        <ele>1955</ele>
        <time>2021-08-07T07:33:35.644Z</time>
      </trkpt>
      <trkpt lat="46.92027" lon="8.68886">
        <ele>1955</ele>
        <time>2021-08-07T07:33:36.644Z</time>
      </trkpt>
      <trkpt lat="46.92026" lon="8.68885">
        <ele>1954</ele>
        <time>2021-08-07T07:33:37.643Z</time>
      </trkpt>
      <trkpt lat="46.92025" lon="8.68884">
        <ele>1954</ele>
        <time>2021-08-07T07:33:38.644Z</time>
      </trkpt>
      <trkpt lat="46.92025" lon="8.68884">
        <ele>1954</ele>
        <time>2021-08-07T07:33:39.643Z</time>
      </trkpt>
      <trkpt lat="46.92025" lon="8.68884">
        <ele>1953</ele>
        <time>2021-08-07T07:33:40.643Z</time>
      </trkpt>
      <trkpt lat="46.92025" lon="8.68885">
        <ele>1951</ele>
        <time>2021-08-07T07:33:41.645Z</time>
      </trkpt>
      <trkpt lat="46.92024" lon="8.68884">
        <ele>1954</ele>
        <time>2021-08-07T07:33:42.646Z</time>
      </trkpt>
      <trkpt lat="46.92023" lon="8.68885">
        <ele>1954</ele>
        <time>2021-08-07T07:33:43.645Z</time>
      </trkpt>
      <trkpt lat="46.92023" lon="8.68885">
        <ele>1953</ele>
        <time>2021-08-07T07:33:44.645Z</time>
      </trkpt>
      <trkpt lat="46.92022" lon="8.68886">
        <ele>1953</ele>
        <time>2021-08-07T07:33:45.646Z</time>
      </trkpt>
      <trkpt lat="46.92022" lon="8.68887">
        <ele>1954</ele>
        <time>2021-08-07T07:33:46.646Z</time>
      </trkpt>
      <trkpt lat="46.92022" lon="8.68887">
        <ele>1954</ele>
        <time>2021-08-07T07:33:47.645Z</time>
      </trkpt>
      <trkpt lat="46.92022" lon="8.68888">
        <ele>1953</ele>
        <time>2021-08-07T07:33:48.645Z</time>
      </trkpt>
      <trkpt lat="46.92021" lon="8.68888">
        <ele>1953</ele>
        <time>2021-08-07T07:33:49.646Z</time>
      </trkpt>
      <trkpt lat="46.92021" lon="8.68887">
        <ele>1953</ele>
        <time>2021-08-07T07:33:50.646Z</time>
      </trkpt>
      <trkpt lat="46.9202" lon="8.68887">
        <ele>1953</ele>
        <time>2021-08-07T07:33:51.646Z</time>
      </trkpt>
      <trkpt lat="46.92019" lon="8.68886">
        <ele>1953</ele>
        <time>2021-08-07T07:33:52.645Z</time>
      </trkpt>
      <trkpt lat="46.92019" lon="8.68885">
        <ele>1953</ele>
        <time>2021-08-07T07:33:53.646Z</time>
      </trkpt>
      <trkpt lat="46.92019" lon="8.68885">
        <ele>1953</ele>
        <time>2021-08-07T07:33:54.645Z</time>
      </trkpt>
      <trkpt lat="46.92017" lon="8.68885">
        <ele>1953</ele>
        <time>2021-08-07T07:33:55.646Z</time>
      </trkpt>
      <trkpt lat="46.92016" lon="8.68885">
        <ele>1953</ele>
        <time>2021-08-07T07:33:56.646Z</time>
      </trkpt>
      <trkpt lat="46.92016" lon="8.68884">
        <ele>1954</ele>
        <time>2021-08-07T07:33:57.646Z</time>
      </trkpt>
      <trkpt lat="46.92015" lon="8.68884">
        <ele>1954</ele>
        <time>2021-08-07T07:33:58.646Z</time>
      </trkpt>
      <trkpt lat="46.92014" lon="8.68884">
        <ele>1955</ele>
        <time>2021-08-07T07:33:59.646Z</time>
      </trkpt>
      <trkpt lat="46.92013" lon="8.68884">
        <ele>1955</ele>
        <time>2021-08-07T07:34:00.646Z</time>
      </trkpt>
      <trkpt lat="46.92013" lon="8.68885">
        <ele>1956</ele>
        <time>2021-08-07T07:34:01.646Z</time>
      </trkpt>
      <trkpt lat="46.92012" lon="8.68885">
        <ele>1956</ele>
        <time>2021-08-07T07:34:02.645Z</time>
      </trkpt>
      <trkpt lat="46.92013" lon="8.68886">
        <ele>1956</ele>
        <time>2021-08-07T07:34:03.645Z</time>
      </trkpt>
      <trkpt lat="46.92011" lon="8.68885">
        <ele>1956</ele>
        <time>2021-08-07T07:34:04.646Z</time>
      </trkpt>
      <trkpt lat="46.9201" lon="8.68885">
        <ele>1957</ele>
        <time>2021-08-07T07:34:05.645Z</time>
      </trkpt>
      <trkpt lat="46.9201" lon="8.68885">
        <ele>1957</ele>
        <time>2021-08-07T07:34:06.646Z</time>
      </trkpt>
      <trkpt lat="46.92009" lon="8.68886">
        <ele>1957</ele>
        <time>2021-08-07T07:34:07.646Z</time>
      </trkpt>
      <trkpt lat="46.92009" lon="8.68886">
        <ele>1957</ele>
        <time>2021-08-07T07:34:08.646Z</time>
      </trkpt>
      <trkpt lat="46.92008" lon="8.68887">
        <ele>1957</ele>
        <time>2021-08-07T07:34:09.645Z</time>
      </trkpt>
      <trkpt lat="46.92008" lon="8.68887">
        <ele>1957</ele>
        <time>2021-08-07T07:34:10.646Z</time>
      </trkpt>
      <trkpt lat="46.92007" lon="8.68886">
        <ele>1958</ele>
        <time>2021-08-07T07:34:11.646Z</time>
      </trkpt>
      <trkpt lat="46.92007" lon="8.68887">
        <ele>1958</ele>
        <time>2021-08-07T07:34:12.646Z</time>
      </trkpt>
      <trkpt lat="46.92006" lon="8.68887">
        <ele>1959</ele>
        <time>2021-08-07T07:34:13.646Z</time>
      </trkpt>
      <trkpt lat="46.92005" lon="8.68887">
        <ele>1959</ele>
        <time>2021-08-07T07:34:14.646Z</time>
      </trkpt>
      <trkpt lat="46.92004" lon="8.68886">
        <ele>1959</ele>
        <time>2021-08-07T07:34:15.645Z</time>
      </trkpt>
      <trkpt lat="46.92003" lon="8.68886">
        <ele>1959</ele>
        <time>2021-08-07T07:34:16.645Z</time>
      </trkpt>
      <trkpt lat="46.92002" lon="8.68885">
        <ele>1960</ele>
        <time>2021-08-07T07:34:17.646Z</time>
      </trkpt>
      <trkpt lat="46.92001" lon="8.68884">
        <ele>1960</ele>
        <time>2021-08-07T07:34:18.645Z</time>
      </trkpt>
      <trkpt lat="46.92" lon="8.68884">
        <ele>1961</ele>
        <time>2021-08-07T07:34:19.645Z</time>
      </trkpt>
      <trkpt lat="46.91999" lon="8.68884">
        <ele>1962</ele>
        <time>2021-08-07T07:34:20.646Z</time>
      </trkpt>
      <trkpt lat="46.91998" lon="8.68884">
        <ele>1962</ele>
        <time>2021-08-07T07:34:21.646Z</time>
      </trkpt>
      <trkpt lat="46.91998" lon="8.68885">
        <ele>1963</ele>
        <time>2021-08-07T07:34:22.646Z</time>
      </trkpt>
      <trkpt lat="46.91997" lon="8.68885">
        <ele>1963</ele>
        <time>2021-08-07T07:34:23.646Z</time>
      </trkpt>
      <trkpt lat="46.91996" lon="8.68885">
        <ele>1963</ele>
        <time>2021-08-07T07:34:24.646Z</time>
      </trkpt>
      <trkpt lat="46.91996" lon="8.68886">
        <ele>1964</ele>
        <time>2021-08-07T07:34:25.646Z</time>
      </trkpt>
      <trkpt lat="46.91995" lon="8.68886">
        <ele>1964</ele>
        <time>2021-08-07T07:34:26.646Z</time>
      </trkpt>
      <trkpt lat="46.91995" lon="8.68886">
        <ele>1964</ele>
        <time>2021-08-07T07:34:27.645Z</time>
      </trkpt>
      <trkpt lat="46.91994" lon="8.68886">
        <ele>1965</ele>
        <time>2021-08-07T07:34:28.646Z</time>
      </trkpt>
      <trkpt lat="46.91993" lon="8.68886">
        <ele>1966</ele>
        <time>2021-08-07T07:34:29.645Z</time>
      </trkpt>
      <trkpt lat="46.91992" lon="8.68886">
        <ele>1966</ele>
        <time>2021-08-07T07:34:30.645Z</time>
      </trkpt>
      <trkpt lat="46.91992" lon="8.68886">
        <ele>1966</ele>
        <time>2021-08-07T07:34:31.645Z</time>
      </trkpt>
      <trkpt lat="46.91991" lon="8.68886">
        <ele>1966</ele>
        <time>2021-08-07T07:34:32.646Z</time>
      </trkpt>
      <trkpt lat="46.9199" lon="8.68886">
        <ele>1966</ele>
        <time>2021-08-07T07:34:33.646Z</time>
      </trkpt>
      <trkpt lat="46.9199" lon="8.68886">
        <ele>1966</ele>
        <time>2021-08-07T07:34:34.646Z</time>
      </trkpt>
      <trkpt lat="46.91989" lon="8.68886">
        <ele>1966</ele>
        <time>2021-08-07T07:34:35.646Z</time>
      </trkpt>
      <trkpt lat="46.91989" lon="8.68886">
        <ele>1966</ele>
        <time>2021-08-07T07:34:36.646Z</time>
      </trkpt>
      <trkpt lat="46.91988" lon="8.68886">
        <ele>1966</ele>
        <time>2021-08-07T07:34:37.646Z</time>
      </trkpt>
      <trkpt lat="46.91987" lon="8.68886">
        <ele>1966</ele>
        <time>2021-08-07T07:34:38.646Z</time>
      </trkpt>
      <trkpt lat="46.91987" lon="8.68886">
        <ele>1967</ele>
        <time>2021-08-07T07:34:39.646Z</time>
      </trkpt>
      <trkpt lat="46.91986" lon="8.68885">
        <ele>1967</ele>
        <time>2021-08-07T07:34:40.645Z</time>
      </trkpt>
      <trkpt lat="46.91985" lon="8.68884">
        <ele>1968</ele>
        <time>2021-08-07T07:34:41.646Z</time>
      </trkpt>
      <trkpt lat="46.91984" lon="8.68884">
        <ele>1968</ele>
        <time>2021-08-07T07:34:42.645Z</time>
      </trkpt>
      <trkpt lat="46.91983" lon="8.68883">
        <ele>1968</ele>
        <time>2021-08-07T07:34:43.646Z</time>
      </trkpt>
      <trkpt lat="46.91982" lon="8.68883">
        <ele>1968</ele>
        <time>2021-08-07T07:34:44.646Z</time>
      </trkpt>
      <trkpt lat="46.91981" lon="8.68883">
        <ele>1968</ele>
        <time>2021-08-07T07:34:45.645Z</time>
      </trkpt>
      <trkpt lat="46.91981" lon="8.68883">
        <ele>1968</ele>
        <time>2021-08-07T07:34:46.645Z</time>
      </trkpt>
      <trkpt lat="46.9198" lon="8.68882">
        <ele>1967</ele>
        <time>2021-08-07T07:34:47.646Z</time>
      </trkpt>
      <trkpt lat="46.91979" lon="8.68882">
        <ele>1967</ele>
        <time>2021-08-07T07:34:48.645Z</time>
      </trkpt>
      <trkpt lat="46.91978" lon="8.68882">
        <ele>1967</ele>
        <time>2021-08-07T07:34:49.646Z</time>
      </trkpt>
      <trkpt lat="46.91979" lon="8.68883">
        <ele>1966</ele>
        <time>2021-08-07T07:34:50.646Z</time>
      </trkpt>
      <trkpt lat="46.91979" lon="8.68882">
        <ele>1966</ele>
        <time>2021-08-07T07:34:51.645Z</time>
      </trkpt>
      <trkpt lat="46.91979" lon="8.68882">
        <ele>1966</ele>
        <time>2021-08-07T07:34:52.646Z</time>
      </trkpt>
      <trkpt lat="46.91978" lon="8.68882">
        <ele>1965</ele>
        <time>2021-08-07T07:34:53.645Z</time>
      </trkpt>
      <trkpt lat="46.91977" lon="8.68881">
        <ele>1965</ele>
        <time>2021-08-07T07:34:54.645Z</time>
      </trkpt>
      <trkpt lat="46.91977" lon="8.68881">
        <ele>1965</ele>
        <time>2021-08-07T07:34:55.646Z</time>
      </trkpt>
      <trkpt lat="46.91975" lon="8.6888">
        <ele>1965</ele>
        <time>2021-08-07T07:34:56.646Z</time>
      </trkpt>
      <trkpt lat="46.91974" lon="8.68879">
        <ele>1965</ele>
        <time>2021-08-07T07:34:57.646Z</time>
      </trkpt>
      <trkpt lat="46.91972" lon="8.68878">
        <ele>1965</ele>
        <time>2021-08-07T07:34:58.646Z</time>
      </trkpt>
      <trkpt lat="46.91972" lon="8.68878">
        <ele>1964</ele>
        <time>2021-08-07T07:34:59.646Z</time>
      </trkpt>
      <trkpt lat="46.91971" lon="8.68878">
        <ele>1964</ele>
        <time>2021-08-07T07:35:00.645Z</time>
      </trkpt>
      <trkpt lat="46.91971" lon="8.68877">
        <ele>1964</ele>
        <time>2021-08-07T07:35:01.645Z</time>
      </trkpt>
      <trkpt lat="46.9197" lon="8.68877">
        <ele>1963</ele>
        <time>2021-08-07T07:35:02.646Z</time>
      </trkpt>
      <trkpt lat="46.9197" lon="8.68878">
        <ele>1963</ele>
        <time>2021-08-07T07:35:03.646Z</time>
      </trkpt>
      <trkpt lat="46.91969" lon="8.68878">
        <ele>1963</ele>
        <time>2021-08-07T07:35:04.646Z</time>
      </trkpt>
      <trkpt lat="46.91968" lon="8.68879">
        <ele>1963</ele>
        <time>2021-08-07T07:35:05.645Z</time>
      </trkpt>
      <trkpt lat="46.91968" lon="8.68879">
        <ele>1963</ele>
        <time>2021-08-07T07:35:06.646Z</time>
      </trkpt>
      <trkpt lat="46.91967" lon="8.6888">
        <ele>1962</ele>
        <time>2021-08-07T07:35:07.646Z</time>
      </trkpt>
      <trkpt lat="46.91966" lon="8.68881">
        <ele>1962</ele>
        <time>2021-08-07T07:35:08.646Z</time>
      </trkpt>
      <trkpt lat="46.91966" lon="8.68882">
        <ele>1962</ele>
        <time>2021-08-07T07:35:09.646Z</time>
      </trkpt>
      <trkpt lat="46.91966" lon="8.68884">
        <ele>1962</ele>
        <time>2021-08-07T07:35:10.645Z</time>
      </trkpt>
      <trkpt lat="46.91966" lon="8.68885">
        <ele>1962</ele>
        <time>2021-08-07T07:35:11.646Z</time>
      </trkpt>
      <trkpt lat="46.91965" lon="8.68886">
        <ele>1962</ele>
        <time>2021-08-07T07:35:12.645Z</time>
      </trkpt>
      <trkpt lat="46.91965" lon="8.68886">
        <ele>1962</ele>
        <time>2021-08-07T07:35:13.645Z</time>
      </trkpt>
      <trkpt lat="46.91965" lon="8.68886">
        <ele>1962</ele>
        <time>2021-08-07T07:35:14.646Z</time>
      </trkpt>
      <trkpt lat="46.91964" lon="8.68886">
        <ele>1962</ele>
        <time>2021-08-07T07:35:15.645Z</time>
      </trkpt>
      <trkpt lat="46.91962" lon="8.68886">
        <ele>1965</ele>
        <time>2021-08-07T07:35:16.646Z</time>
      </trkpt>
      <trkpt lat="46.91962" lon="8.68888">
        <ele>1966</ele>
        <time>2021-08-07T07:35:17.646Z</time>
      </trkpt>
      <trkpt lat="46.91961" lon="8.68888">
        <ele>1966</ele>
        <time>2021-08-07T07:35:18.645Z</time>
      </trkpt>
      <trkpt lat="46.91961" lon="8.68888">
        <ele>1966</ele>
        <time>2021-08-07T07:35:19.646Z</time>
      </trkpt>
      <trkpt lat="46.9196" lon="8.68888">
        <ele>1966</ele>
        <time>2021-08-07T07:35:20.646Z</time>
      </trkpt>
      <trkpt lat="46.91959" lon="8.68888">
        <ele>1965</ele>
        <time>2021-08-07T07:35:21.645Z</time>
      </trkpt>
      <trkpt lat="46.91958" lon="8.68889">
        <ele>1965</ele>
        <time>2021-08-07T07:35:22.645Z</time>
      </trkpt>
      <trkpt lat="46.91957" lon="8.6889">
        <ele>1965</ele>
        <time>2021-08-07T07:35:23.645Z</time>
      </trkpt>
      <trkpt lat="46.91956" lon="8.6889">
        <ele>1965</ele>
        <time>2021-08-07T07:35:24.646Z</time>
      </trkpt>
      <trkpt lat="46.91955" lon="8.6889">
        <ele>1965</ele>
        <time>2021-08-07T07:35:25.646Z</time>
      </trkpt>
      <trkpt lat="46.91955" lon="8.68891">
        <ele>1965</ele>
        <time>2021-08-07T07:35:26.645Z</time>
      </trkpt>
      <trkpt lat="46.91954" lon="8.68892">
        <ele>1966</ele>
        <time>2021-08-07T07:35:27.646Z</time>
      </trkpt>
      <trkpt lat="46.91954" lon="8.68892">
        <ele>1966</ele>
        <time>2021-08-07T07:35:28.646Z</time>
      </trkpt>
      <trkpt lat="46.91953" lon="8.68892">
        <ele>1966</ele>
        <time>2021-08-07T07:35:29.646Z</time>
      </trkpt>
      <trkpt lat="46.91952" lon="8.68892">
        <ele>1967</ele>
        <time>2021-08-07T07:35:30.646Z</time>
      </trkpt>
      <trkpt lat="46.91952" lon="8.68892">
        <ele>1968</ele>
        <time>2021-08-07T07:35:31.645Z</time>
      </trkpt>
      <trkpt lat="46.91952" lon="8.68892">
        <ele>1968</ele>
        <time>2021-08-07T07:35:32.645Z</time>
      </trkpt>
      <trkpt lat="46.91951" lon="8.68892">
        <ele>1969</ele>
        <time>2021-08-07T07:35:33.645Z</time>
      </trkpt>
      <trkpt lat="46.9195" lon="8.68892">
        <ele>1969</ele>
        <time>2021-08-07T07:35:34.646Z</time>
      </trkpt>
      <trkpt lat="46.9195" lon="8.68892">
        <ele>1969</ele>
        <time>2021-08-07T07:35:35.646Z</time>
      </trkpt>
      <trkpt lat="46.91949" lon="8.68892">
        <ele>1969</ele>
        <time>2021-08-07T07:35:36.646Z</time>
      </trkpt>
      <trkpt lat="46.91948" lon="8.68892">
        <ele>1970</ele>
        <time>2021-08-07T07:35:37.645Z</time>
      </trkpt>
      <trkpt lat="46.91947" lon="8.68892">
        <ele>1971</ele>
        <time>2021-08-07T07:35:38.646Z</time>
      </trkpt>
      <trkpt lat="46.91946" lon="8.68892">
        <ele>1971</ele>
        <time>2021-08-07T07:35:39.646Z</time>
      </trkpt>
      <trkpt lat="46.91945" lon="8.68892">
        <ele>1972</ele>
        <time>2021-08-07T07:35:40.646Z</time>
      </trkpt>
      <trkpt lat="46.91944" lon="8.68892">
        <ele>1972</ele>
        <time>2021-08-07T07:35:41.646Z</time>
      </trkpt>
      <trkpt lat="46.91943" lon="8.68893">
        <ele>1972</ele>
        <time>2021-08-07T07:35:42.646Z</time>
      </trkpt>
      <trkpt lat="46.91943" lon="8.68894">
        <ele>1973</ele>
        <time>2021-08-07T07:35:43.646Z</time>
      </trkpt>
      <trkpt lat="46.91942" lon="8.68893">
        <ele>1973</ele>
        <time>2021-08-07T07:35:44.645Z</time>
      </trkpt>
      <trkpt lat="46.91943" lon="8.68894">
        <ele>1973</ele>
        <time>2021-08-07T07:35:45.645Z</time>
      </trkpt>
      <trkpt lat="46.91942" lon="8.68894">
        <ele>1973</ele>
        <time>2021-08-07T07:35:46.646Z</time>
      </trkpt>
      <trkpt lat="46.91941" lon="8.68894">
        <ele>1974</ele>
        <time>2021-08-07T07:35:47.646Z</time>
      </trkpt>
      <trkpt lat="46.9194" lon="8.68894">
        <ele>1974</ele>
        <time>2021-08-07T07:35:48.645Z</time>
      </trkpt>
      <trkpt lat="46.9194" lon="8.68894">
        <ele>1974</ele>
        <time>2021-08-07T07:35:49.646Z</time>
      </trkpt>
      <trkpt lat="46.9194" lon="8.68894">
        <ele>1973</ele>
        <time>2021-08-07T07:35:50.646Z</time>
      </trkpt>
      <trkpt lat="46.91936" lon="8.6889">
        <ele>1970</ele>
        <time>2021-08-07T07:35:51.647Z</time>
      </trkpt>
      <trkpt lat="46.91935" lon="8.68889">
        <ele>1970</ele>
        <time>2021-08-07T07:35:52.647Z</time>
      </trkpt>
      <trkpt lat="46.91935" lon="8.68888">
        <ele>1970</ele>
        <time>2021-08-07T07:35:53.646Z</time>
      </trkpt>
      <trkpt lat="46.91935" lon="8.68887">
        <ele>1970</ele>
        <time>2021-08-07T07:35:54.646Z</time>
      </trkpt>
      <trkpt lat="46.91934" lon="8.68886">
        <ele>1971</ele>
        <time>2021-08-07T07:35:55.647Z</time>
      </trkpt>
      <trkpt lat="46.91935" lon="8.68886">
        <ele>1971</ele>
        <time>2021-08-07T07:35:56.647Z</time>
      </trkpt>
      <trkpt lat="46.91935" lon="8.68885">
        <ele>1971</ele>
        <time>2021-08-07T07:35:57.647Z</time>
      </trkpt>
      <trkpt lat="46.91935" lon="8.68884">
        <ele>1971</ele>
        <time>2021-08-07T07:35:58.647Z</time>
      </trkpt>
      <trkpt lat="46.91935" lon="8.68883">
        <ele>1971</ele>
        <time>2021-08-07T07:35:59.647Z</time>
      </trkpt>
      <trkpt lat="46.91936" lon="8.68882">
        <ele>1971</ele>
        <time>2021-08-07T07:36:00.647Z</time>
      </trkpt>
      <trkpt lat="46.91937" lon="8.68882">
        <ele>1971</ele>
        <time>2021-08-07T07:36:01.647Z</time>
      </trkpt>
      <trkpt lat="46.91937" lon="8.68881">
        <ele>1972</ele>
        <time>2021-08-07T07:36:02.647Z</time>
      </trkpt>
      <trkpt lat="46.91937" lon="8.68879">
        <ele>1972</ele>
        <time>2021-08-07T07:36:03.647Z</time>
      </trkpt>
      <trkpt lat="46.91937" lon="8.68878">
        <ele>1972</ele>
        <time>2021-08-07T07:36:04.646Z</time>
      </trkpt>
      <trkpt lat="46.91937" lon="8.68877">
        <ele>1972</ele>
        <time>2021-08-07T07:36:05.646Z</time>
      </trkpt>
      <trkpt lat="46.91937" lon="8.68876">
        <ele>1973</ele>
        <time>2021-08-07T07:36:06.646Z</time>
      </trkpt>
      <trkpt lat="46.91937" lon="8.68875">
        <ele>1973</ele>
        <time>2021-08-07T07:36:07.647Z</time>
      </trkpt>
      <trkpt lat="46.91937" lon="8.68875">
        <ele>1973</ele>
        <time>2021-08-07T07:36:08.647Z</time>
      </trkpt>
      <trkpt lat="46.91937" lon="8.68875">
        <ele>1973</ele>
        <time>2021-08-07T07:36:09.647Z</time>
      </trkpt>
      <trkpt lat="46.91937" lon="8.68875">
        <ele>1974</ele>
        <time>2021-08-07T07:36:10.646Z</time>
      </trkpt>
      <trkpt lat="46.91936" lon="8.68876">
        <ele>1975</ele>
        <time>2021-08-07T07:36:11.647Z</time>
      </trkpt>
      <trkpt lat="46.91936" lon="8.68877">
        <ele>1976</ele>
        <time>2021-08-07T07:36:12.647Z</time>
      </trkpt>
      <trkpt lat="46.91935" lon="8.68878">
        <ele>1977</ele>
        <time>2021-08-07T07:36:13.647Z</time>
      </trkpt>
      <trkpt lat="46.91935" lon="8.6888">
        <ele>1978</ele>
        <time>2021-08-07T07:36:14.646Z</time>
      </trkpt>
      <trkpt lat="46.91935" lon="8.68881">
        <ele>1979</ele>
        <time>2021-08-07T07:36:15.647Z</time>
      </trkpt>
      <trkpt lat="46.91935" lon="8.68881">
        <ele>1980</ele>
        <time>2021-08-07T07:36:16.646Z</time>
      </trkpt>
      <trkpt lat="46.91937" lon="8.68879">
        <ele>1978</ele>
        <time>2021-08-07T07:36:17.646Z</time>
      </trkpt>
      <trkpt lat="46.91937" lon="8.6888">
        <ele>1977</ele>
        <time>2021-08-07T07:36:18.647Z</time>
      </trkpt>
      <trkpt lat="46.91938" lon="8.68881">
        <ele>1977</ele>
        <time>2021-08-07T07:36:19.647Z</time>
      </trkpt>
      <trkpt lat="46.91938" lon="8.68883">
        <ele>1976</ele>
        <time>2021-08-07T07:36:20.647Z</time>
      </trkpt>
      <trkpt lat="46.91938" lon="8.68885">
        <ele>1976</ele>
        <time>2021-08-07T07:36:21.647Z</time>
      </trkpt>
      <trkpt lat="46.91938" lon="8.68887">
        <ele>1976</ele>
        <time>2021-08-07T07:36:22.647Z</time>
      </trkpt>
      <trkpt lat="46.91938" lon="8.68888">
        <ele>1975</ele>
        <time>2021-08-07T07:36:23.647Z</time>
      </trkpt>
      <trkpt lat="46.91938" lon="8.68889">
        <ele>1975</ele>
        <time>2021-08-07T07:36:24.647Z</time>
      </trkpt>
      <trkpt lat="46.91938" lon="8.68891">
        <ele>1976</ele>
        <time>2021-08-07T07:36:25.647Z</time>
      </trkpt>
      <trkpt lat="46.91938" lon="8.68892">
        <ele>1975</ele>
        <time>2021-08-07T07:36:26.647Z</time>
      </trkpt>
      <trkpt lat="46.91938" lon="8.68893">
        <ele>1975</ele>
        <time>2021-08-07T07:36:27.647Z</time>
      </trkpt>
      <trkpt lat="46.91937" lon="8.68894">
        <ele>1975</ele>
        <time>2021-08-07T07:36:28.647Z</time>
      </trkpt>
      <trkpt lat="46.91937" lon="8.68895">
        <ele>1975</ele>
        <time>2021-08-07T07:36:29.647Z</time>
      </trkpt>
      <trkpt lat="46.91938" lon="8.68896">
        <ele>1975</ele>
        <time>2021-08-07T07:36:30.647Z</time>
      </trkpt>
      <trkpt lat="46.91938" lon="8.68896">
        <ele>1974</ele>
        <time>2021-08-07T07:36:31.646Z</time>
      </trkpt>
      <trkpt lat="46.91939" lon="8.68897">
        <ele>1974</ele>
        <time>2021-08-07T07:36:32.646Z</time>
      </trkpt>
      <trkpt lat="46.91939" lon="8.68897">
        <ele>1974</ele>
        <time>2021-08-07T07:36:33.646Z</time>
      </trkpt>
      <trkpt lat="46.9194" lon="8.68897">
        <ele>1973</ele>
        <time>2021-08-07T07:36:34.646Z</time>
      </trkpt>
      <trkpt lat="46.9194" lon="8.68898">
        <ele>1973</ele>
        <time>2021-08-07T07:36:35.646Z</time>
      </trkpt>
      <trkpt lat="46.91939" lon="8.68893">
        <ele>1969</ele>
        <time>2021-08-07T07:36:36.648Z</time>
      </trkpt>
      <trkpt lat="46.9194" lon="8.68893">
        <ele>1968</ele>
        <time>2021-08-07T07:36:37.648Z</time>
      </trkpt>
      <trkpt lat="46.9194" lon="8.68892">
        <ele>1968</ele>
        <time>2021-08-07T07:36:38.648Z</time>
      </trkpt>
      <trkpt lat="46.9194" lon="8.68892">
        <ele>1968</ele>
        <time>2021-08-07T07:36:39.648Z</time>
      </trkpt>
      <trkpt lat="46.9194" lon="8.68891">
        <ele>1967</ele>
        <time>2021-08-07T07:36:40.647Z</time>
      </trkpt>
      <trkpt lat="46.9194" lon="8.6889">
        <ele>1967</ele>
        <time>2021-08-07T07:36:41.648Z</time>
      </trkpt>
      <trkpt lat="46.9194" lon="8.68888">
        <ele>1967</ele>
        <time>2021-08-07T07:36:42.647Z</time>
      </trkpt>
      <trkpt lat="46.9194" lon="8.68887">
        <ele>1966</ele>
        <time>2021-08-07T07:36:43.647Z</time>
      </trkpt>
      <trkpt lat="46.9194" lon="8.68885">
        <ele>1967</ele>
        <time>2021-08-07T07:36:44.647Z</time>
      </trkpt>
      <trkpt lat="46.91939" lon="8.68884">
        <ele>1967</ele>
        <time>2021-08-07T07:36:45.648Z</time>
      </trkpt>
      <trkpt lat="46.91939" lon="8.68882">
        <ele>1968</ele>
        <time>2021-08-07T07:36:46.647Z</time>
      </trkpt>
      <trkpt lat="46.91939" lon="8.68881">
        <ele>1969</ele>
        <time>2021-08-07T07:36:47.648Z</time>
      </trkpt>
      <trkpt lat="46.91939" lon="8.68879">
        <ele>1969</ele>
        <time>2021-08-07T07:36:48.647Z</time>
      </trkpt>
      <trkpt lat="46.91939" lon="8.68877">
        <ele>1970</ele>
        <time>2021-08-07T07:36:49.647Z</time>
      </trkpt>
      <trkpt lat="46.91939" lon="8.68876">
        <ele>1971</ele>
        <time>2021-08-07T07:36:50.648Z</time>
      </trkpt>
      <trkpt lat="46.9194" lon="8.68874">
        <ele>1972</ele>
        <time>2021-08-07T07:36:51.648Z</time>
      </trkpt>
      <trkpt lat="46.9194" lon="8.68872">
        <ele>1973</ele>
        <time>2021-08-07T07:36:52.648Z</time>
      </trkpt>
      <trkpt lat="46.9194" lon="8.68871">
        <ele>1974</ele>
        <time>2021-08-07T07:36:53.648Z</time>
      </trkpt>
      <trkpt lat="46.9194" lon="8.6887">
        <ele>1974</ele>
        <time>2021-08-07T07:36:54.647Z</time>
      </trkpt>
      <trkpt lat="46.91939" lon="8.68868">
        <ele>1975</ele>
        <time>2021-08-07T07:36:55.648Z</time>
      </trkpt>
      <trkpt lat="46.91939" lon="8.68868">
        <ele>1976</ele>
        <time>2021-08-07T07:36:56.648Z</time>
      </trkpt>
      <trkpt lat="46.9194" lon="8.68866">
        <ele>1976</ele>
        <time>2021-08-07T07:36:57.647Z</time>
      </trkpt>
      <trkpt lat="46.9194" lon="8.68864">
        <ele>1976</ele>
        <time>2021-08-07T07:36:58.647Z</time>
      </trkpt>
      <trkpt lat="46.9194" lon="8.68864">
        <ele>1976</ele>
        <time>2021-08-07T07:36:59.648Z</time>
      </trkpt>
      <trkpt lat="46.91941" lon="8.68863">
        <ele>1976</ele>
        <time>2021-08-07T07:37:00.648Z</time>
      </trkpt>
      <trkpt lat="46.91941" lon="8.68861">
        <ele>1976</ele>
        <time>2021-08-07T07:37:01.648Z</time>
      </trkpt>
      <trkpt lat="46.91941" lon="8.6886">
        <ele>1977</ele>
        <time>2021-08-07T07:37:02.647Z</time>
      </trkpt>
      <trkpt lat="46.91942" lon="8.68859">
        <ele>1977</ele>
        <time>2021-08-07T07:37:03.648Z</time>
      </trkpt>
      <trkpt lat="46.91942" lon="8.68858">
        <ele>1978</ele>
        <time>2021-08-07T07:37:04.648Z</time>
      </trkpt>
      <trkpt lat="46.91942" lon="8.68857">
        <ele>1978</ele>
        <time>2021-08-07T07:37:05.648Z</time>
      </trkpt>
      <trkpt lat="46.91942" lon="8.68855">
        <ele>1978</ele>
        <time>2021-08-07T07:37:06.648Z</time>
      </trkpt>
      <trkpt lat="46.91943" lon="8.68854">
        <ele>1978</ele>
        <time>2021-08-07T07:37:07.648Z</time>
      </trkpt>
      <trkpt lat="46.91943" lon="8.68853">
        <ele>1978</ele>
        <time>2021-08-07T07:37:08.647Z</time>
      </trkpt>
      <trkpt lat="46.91943" lon="8.68851">
        <ele>1978</ele>
        <time>2021-08-07T07:37:09.647Z</time>
      </trkpt>
      <trkpt lat="46.91943" lon="8.6885">
        <ele>1978</ele>
        <time>2021-08-07T07:37:10.648Z</time>
      </trkpt>
      <trkpt lat="46.91944" lon="8.68849">
        <ele>1979</ele>
        <time>2021-08-07T07:37:11.648Z</time>
      </trkpt>
      <trkpt lat="46.91945" lon="8.68848">
        <ele>1979</ele>
        <time>2021-08-07T07:37:12.648Z</time>
      </trkpt>
      <trkpt lat="46.91945" lon="8.68847">
        <ele>1979</ele>
        <time>2021-08-07T07:37:13.648Z</time>
      </trkpt>
      <trkpt lat="46.91946" lon="8.68846">
        <ele>1979</ele>
        <time>2021-08-07T07:37:14.647Z</time>
      </trkpt>
      <trkpt lat="46.91947" lon="8.68844">
        <ele>1979</ele>
        <time>2021-08-07T07:37:15.648Z</time>
      </trkpt>
      <trkpt lat="46.91947" lon="8.68843">
        <ele>1978</ele>
        <time>2021-08-07T07:37:16.648Z</time>
      </trkpt>
      <trkpt lat="46.91948" lon="8.68842">
        <ele>1978</ele>
        <time>2021-08-07T07:37:17.648Z</time>
      </trkpt>
      <trkpt lat="46.91949" lon="8.68841">
        <ele>1978</ele>
        <time>2021-08-07T07:37:18.648Z</time>
      </trkpt>
      <trkpt lat="46.9195" lon="8.68841">
        <ele>1978</ele>
        <time>2021-08-07T07:37:19.647Z</time>
      </trkpt>
      <trkpt lat="46.9195" lon="8.6884">
        <ele>1978</ele>
        <time>2021-08-07T07:37:20.648Z</time>
      </trkpt>
      <trkpt lat="46.91951" lon="8.68839">
        <ele>1979</ele>
        <time>2021-08-07T07:37:21.648Z</time>
      </trkpt>
      <trkpt lat="46.91952" lon="8.68839">
        <ele>1979</ele>
        <time>2021-08-07T07:37:22.647Z</time>
      </trkpt>
      <trkpt lat="46.91952" lon="8.68838">
        <ele>1978</ele>
        <time>2021-08-07T07:37:23.647Z</time>
      </trkpt>
      <trkpt lat="46.91953" lon="8.68838">
        <ele>1978</ele>
        <time>2021-08-07T07:37:24.648Z</time>
      </trkpt>
      <trkpt lat="46.91954" lon="8.68837">
        <ele>1977</ele>
        <time>2021-08-07T07:37:25.648Z</time>
      </trkpt>
      <trkpt lat="46.91955" lon="8.68837">
        <ele>1977</ele>
        <time>2021-08-07T07:37:26.648Z</time>
      </trkpt>
      <trkpt lat="46.91955" lon="8.68836">
        <ele>1977</ele>
        <time>2021-08-07T07:37:27.648Z</time>
      </trkpt>
      <trkpt lat="46.91956" lon="8.68835">
        <ele>1977</ele>
        <time>2021-08-07T07:37:28.647Z</time>
      </trkpt>
      <trkpt lat="46.91957" lon="8.68834">
        <ele>1977</ele>
        <time>2021-08-07T07:37:29.647Z</time>
      </trkpt>
      <trkpt lat="46.91958" lon="8.68834">
        <ele>1977</ele>
        <time>2021-08-07T07:37:30.648Z</time>
      </trkpt>
      <trkpt lat="46.91958" lon="8.68834">
        <ele>1978</ele>
        <time>2021-08-07T07:37:31.647Z</time>
      </trkpt>
      <trkpt lat="46.91959" lon="8.68833">
        <ele>1978</ele>
        <time>2021-08-07T07:37:32.648Z</time>
      </trkpt>
      <trkpt lat="46.9196" lon="8.68832">
        <ele>1978</ele>
        <time>2021-08-07T07:37:33.648Z</time>
      </trkpt>
      <trkpt lat="46.9196" lon="8.68831">
        <ele>1977</ele>
        <time>2021-08-07T07:37:34.648Z</time>
      </trkpt>
      <trkpt lat="46.91961" lon="8.6883">
        <ele>1977</ele>
        <time>2021-08-07T07:37:35.648Z</time>
      </trkpt>
      <trkpt lat="46.91961" lon="8.68829">
        <ele>1977</ele>
        <time>2021-08-07T07:37:36.648Z</time>
      </trkpt>
      <trkpt lat="46.91962" lon="8.68827">
        <ele>1977</ele>
        <time>2021-08-07T07:37:37.647Z</time>
      </trkpt>
      <trkpt lat="46.91962" lon="8.68826">
        <ele>1976</ele>
        <time>2021-08-07T07:37:38.648Z</time>
      </trkpt>
      <trkpt lat="46.91963" lon="8.68825">
        <ele>1976</ele>
        <time>2021-08-07T07:37:39.648Z</time>
      </trkpt>
      <trkpt lat="46.91963" lon="8.68823">
        <ele>1976</ele>
        <time>2021-08-07T07:37:40.647Z</time>
      </trkpt>
      <trkpt lat="46.91963" lon="8.68822">
        <ele>1976</ele>
        <time>2021-08-07T07:37:41.648Z</time>
      </trkpt>
      <trkpt lat="46.91962" lon="8.68821">
        <ele>1976</ele>
        <time>2021-08-07T07:37:42.647Z</time>
      </trkpt>
      <trkpt lat="46.91962" lon="8.68819">
        <ele>1977</ele>
        <time>2021-08-07T07:37:43.648Z</time>
      </trkpt>
      <trkpt lat="46.91962" lon="8.68817">
        <ele>1977</ele>
        <time>2021-08-07T07:37:44.648Z</time>
      </trkpt>
      <trkpt lat="46.91962" lon="8.68816">
        <ele>1977</ele>
        <time>2021-08-07T07:37:45.648Z</time>
      </trkpt>
      <trkpt lat="46.91962" lon="8.68815">
        <ele>1977</ele>
        <time>2021-08-07T07:37:46.648Z</time>
      </trkpt>
      <trkpt lat="46.91962" lon="8.68814">
        <ele>1977</ele>
        <time>2021-08-07T07:37:47.647Z</time>
      </trkpt>
      <trkpt lat="46.91962" lon="8.68812">
        <ele>1977</ele>
        <time>2021-08-07T07:37:48.648Z</time>
      </trkpt>
      <trkpt lat="46.91962" lon="8.68811">
        <ele>1977</ele>
        <time>2021-08-07T07:37:49.648Z</time>
      </trkpt>
      <trkpt lat="46.91962" lon="8.6881">
        <ele>1977</ele>
        <time>2021-08-07T07:37:50.648Z</time>
      </trkpt>
      <trkpt lat="46.91962" lon="8.68809">
        <ele>1976</ele>
        <time>2021-08-07T07:37:51.648Z</time>
      </trkpt>
      <trkpt lat="46.91963" lon="8.68808">
        <ele>1977</ele>
        <time>2021-08-07T07:37:52.648Z</time>
      </trkpt>
      <trkpt lat="46.91963" lon="8.68806">
        <ele>1977</ele>
        <time>2021-08-07T07:37:53.648Z</time>
      </trkpt>
      <trkpt lat="46.91963" lon="8.68805">
        <ele>1978</ele>
        <time>2021-08-07T07:37:54.647Z</time>
      </trkpt>
      <trkpt lat="46.91964" lon="8.68804">
        <ele>1978</ele>
        <time>2021-08-07T07:37:55.647Z</time>
      </trkpt>
      <trkpt lat="46.91964" lon="8.68803">
        <ele>1979</ele>
        <time>2021-08-07T07:37:56.647Z</time>
      </trkpt>
      <trkpt lat="46.91966" lon="8.68801">
        <ele>1979</ele>
        <time>2021-08-07T07:37:57.647Z</time>
      </trkpt>
      <trkpt lat="46.91967" lon="8.688">
        <ele>1979</ele>
        <time>2021-08-07T07:37:58.648Z</time>
      </trkpt>
      <trkpt lat="46.91967" lon="8.68798">
        <ele>1979</ele>
        <time>2021-08-07T07:37:59.647Z</time>
      </trkpt>
      <trkpt lat="46.91968" lon="8.68796">
        <ele>1978</ele>
        <time>2021-08-07T07:38:00.648Z</time>
      </trkpt>
      <trkpt lat="46.91968" lon="8.68794">
        <ele>1979</ele>
        <time>2021-08-07T07:38:01.647Z</time>
      </trkpt>
      <trkpt lat="46.91969" lon="8.68792">
        <ele>1979</ele>
        <time>2021-08-07T07:38:02.648Z</time>
      </trkpt>
      <trkpt lat="46.91969" lon="8.68791">
        <ele>1979</ele>
        <time>2021-08-07T07:38:03.647Z</time>
      </trkpt>
      <trkpt lat="46.9197" lon="8.68789">
        <ele>1980</ele>
        <time>2021-08-07T07:38:04.647Z</time>
      </trkpt>
      <trkpt lat="46.9197" lon="8.68787">
        <ele>1980</ele>
        <time>2021-08-07T07:38:05.647Z</time>
      </trkpt>
      <trkpt lat="46.91969" lon="8.68786">
        <ele>1981</ele>
        <time>2021-08-07T07:38:06.647Z</time>
      </trkpt>
      <trkpt lat="46.91969" lon="8.68784">
        <ele>1981</ele>
        <time>2021-08-07T07:38:07.647Z</time>
      </trkpt>
      <trkpt lat="46.91968" lon="8.68782">
        <ele>1982</ele>
        <time>2021-08-07T07:38:08.647Z</time>
      </trkpt>
      <trkpt lat="46.91967" lon="8.6878">
        <ele>1983</ele>
        <time>2021-08-07T07:38:09.647Z</time>
      </trkpt>
      <trkpt lat="46.91966" lon="8.68779">
        <ele>1983</ele>
        <time>2021-08-07T07:38:10.647Z</time>
      </trkpt>
      <trkpt lat="46.91966" lon="8.68778">
        <ele>1984</ele>
        <time>2021-08-07T07:38:11.647Z</time>
      </trkpt>
      <trkpt lat="46.91965" lon="8.68777">
        <ele>1984</ele>
        <time>2021-08-07T07:38:12.647Z</time>
      </trkpt>
      <trkpt lat="46.91965" lon="8.68775">
        <ele>1984</ele>
        <time>2021-08-07T07:38:13.647Z</time>
      </trkpt>
      <trkpt lat="46.91966" lon="8.68774">
        <ele>1984</ele>
        <time>2021-08-07T07:38:14.647Z</time>
      </trkpt>
      <trkpt lat="46.91966" lon="8.68773">
        <ele>1984</ele>
        <time>2021-08-07T07:38:15.647Z</time>
      </trkpt>
      <trkpt lat="46.91968" lon="8.68771">
        <ele>1983</ele>
        <time>2021-08-07T07:38:16.647Z</time>
      </trkpt>
      <trkpt lat="46.91969" lon="8.68771">
        <ele>1983</ele>
        <time>2021-08-07T07:38:17.647Z</time>
      </trkpt>
      <trkpt lat="46.9197" lon="8.68771">
        <ele>1982</ele>
        <time>2021-08-07T07:38:18.647Z</time>
      </trkpt>
      <trkpt lat="46.91971" lon="8.68771">
        <ele>1982</ele>
        <time>2021-08-07T07:38:19.647Z</time>
      </trkpt>
      <trkpt lat="46.91972" lon="8.6877">
        <ele>1981</ele>
        <time>2021-08-07T07:38:20.648Z</time>
      </trkpt>
      <trkpt lat="46.91973" lon="8.68769">
        <ele>1980</ele>
        <time>2021-08-07T07:38:21.648Z</time>
      </trkpt>
      <trkpt lat="46.91974" lon="8.68768">
        <ele>1980</ele>
        <time>2021-08-07T07:38:22.647Z</time>
      </trkpt>
      <trkpt lat="46.91975" lon="8.68767">
        <ele>1980</ele>
        <time>2021-08-07T07:38:23.648Z</time>
      </trkpt>
      <trkpt lat="46.91976" lon="8.68766">
        <ele>1980</ele>
        <time>2021-08-07T07:38:24.648Z</time>
      </trkpt>
      <trkpt lat="46.91977" lon="8.68765">
        <ele>1980</ele>
        <time>2021-08-07T07:38:25.648Z</time>
      </trkpt>
      <trkpt lat="46.91978" lon="8.68764">
        <ele>1980</ele>
        <time>2021-08-07T07:38:26.647Z</time>
      </trkpt>
      <trkpt lat="46.91979" lon="8.68763">
        <ele>1979</ele>
        <time>2021-08-07T07:38:27.648Z</time>
      </trkpt>
      <trkpt lat="46.9198" lon="8.68763">
        <ele>1979</ele>
        <time>2021-08-07T07:38:28.648Z</time>
      </trkpt>
      <trkpt lat="46.91981" lon="8.68762">
        <ele>1978</ele>
        <time>2021-08-07T07:38:29.648Z</time>
      </trkpt>
      <trkpt lat="46.91981" lon="8.68762">
        <ele>1978</ele>
        <time>2021-08-07T07:38:30.647Z</time>
      </trkpt>
      <trkpt lat="46.91982" lon="8.68761">
        <ele>1978</ele>
        <time>2021-08-07T07:38:31.648Z</time>
      </trkpt>
      <trkpt lat="46.91983" lon="8.68761">
        <ele>1979</ele>
        <time>2021-08-07T07:38:32.648Z</time>
      </trkpt>
      <trkpt lat="46.91984" lon="8.6876">
        <ele>1979</ele>
        <time>2021-08-07T07:38:33.648Z</time>
      </trkpt>
      <trkpt lat="46.91985" lon="8.68759">
        <ele>1980</ele>
        <time>2021-08-07T07:38:34.648Z</time>
      </trkpt>
      <trkpt lat="46.91986" lon="8.68759">
        <ele>1980</ele>
        <time>2021-08-07T07:38:35.648Z</time>
      </trkpt>
      <trkpt lat="46.91986" lon="8.68758">
        <ele>1981</ele>
        <time>2021-08-07T07:38:36.648Z</time>
      </trkpt>
      <trkpt lat="46.91987" lon="8.68757">
        <ele>1981</ele>
        <time>2021-08-07T07:38:37.647Z</time>
      </trkpt>
      <trkpt lat="46.91988" lon="8.68757">
        <ele>1981</ele>
        <time>2021-08-07T07:38:38.648Z</time>
      </trkpt>
      <trkpt lat="46.91989" lon="8.68757">
        <ele>1982</ele>
        <time>2021-08-07T07:38:39.647Z</time>
      </trkpt>
      <trkpt lat="46.9199" lon="8.68757">
        <ele>1982</ele>
        <time>2021-08-07T07:38:40.648Z</time>
      </trkpt>
      <trkpt lat="46.91991" lon="8.68757">
        <ele>1982</ele>
        <time>2021-08-07T07:38:41.647Z</time>
      </trkpt>
      <trkpt lat="46.91992" lon="8.68757">
        <ele>1982</ele>
        <time>2021-08-07T07:38:42.648Z</time>
      </trkpt>
      <trkpt lat="46.91993" lon="8.68757">
        <ele>1982</ele>
        <time>2021-08-07T07:38:43.648Z</time>
      </trkpt>
      <trkpt lat="46.91994" lon="8.68756">
        <ele>1982</ele>
        <time>2021-08-07T07:38:44.647Z</time>
      </trkpt>
      <trkpt lat="46.91994" lon="8.68755">
        <ele>1982</ele>
        <time>2021-08-07T07:38:45.648Z</time>
      </trkpt>
      <trkpt lat="46.91994" lon="8.68754">
        <ele>1982</ele>
        <time>2021-08-07T07:38:46.647Z</time>
      </trkpt>
      <trkpt lat="46.91994" lon="8.68753">
        <ele>1982</ele>
        <time>2021-08-07T07:38:47.648Z</time>
      </trkpt>
      <trkpt lat="46.91994" lon="8.68753">
        <ele>1982</ele>
        <time>2021-08-07T07:38:48.648Z</time>
      </trkpt>
      <trkpt lat="46.91995" lon="8.68752">
        <ele>1982</ele>
        <time>2021-08-07T07:38:49.647Z</time>
      </trkpt>
      <trkpt lat="46.91995" lon="8.68751">
        <ele>1981</ele>
        <time>2021-08-07T07:38:50.648Z</time>
      </trkpt>
      <trkpt lat="46.91995" lon="8.68751">
        <ele>1982</ele>
        <time>2021-08-07T07:38:51.648Z</time>
      </trkpt>
      <trkpt lat="46.91996" lon="8.68751">
        <ele>1982</ele>
        <time>2021-08-07T07:38:52.648Z</time>
      </trkpt>
      <trkpt lat="46.91996" lon="8.68751">
        <ele>1982</ele>
        <time>2021-08-07T07:38:53.647Z</time>
      </trkpt>
      <trkpt lat="46.91997" lon="8.68751">
        <ele>1983</ele>
        <time>2021-08-07T07:38:54.647Z</time>
      </trkpt>
      <trkpt lat="46.91998" lon="8.6875">
        <ele>1982</ele>
        <time>2021-08-07T07:38:55.648Z</time>
      </trkpt>
      <trkpt lat="46.91998" lon="8.6875">
        <ele>1982</ele>
        <time>2021-08-07T07:38:56.647Z</time>
      </trkpt>
      <trkpt lat="46.91998" lon="8.68749">
        <ele>1982</ele>
        <time>2021-08-07T07:38:57.648Z</time>
      </trkpt>
      <trkpt lat="46.91999" lon="8.68748">
        <ele>1981</ele>
        <time>2021-08-07T07:38:58.648Z</time>
      </trkpt>
      <trkpt lat="46.91999" lon="8.68748">
        <ele>1981</ele>
        <time>2021-08-07T07:38:59.648Z</time>
      </trkpt>
      <trkpt lat="46.92" lon="8.68748">
        <ele>1981</ele>
        <time>2021-08-07T07:39:00.648Z</time>
      </trkpt>
      <trkpt lat="46.92001" lon="8.68748">
        <ele>1982</ele>
        <time>2021-08-07T07:39:01.648Z</time>
      </trkpt>
      <trkpt lat="46.92001" lon="8.68747">
        <ele>1982</ele>
        <time>2021-08-07T07:39:02.647Z</time>
      </trkpt>
      <trkpt lat="46.92002" lon="8.68746">
        <ele>1982</ele>
        <time>2021-08-07T07:39:03.648Z</time>
      </trkpt>
      <trkpt lat="46.92003" lon="8.68745">
        <ele>1981</ele>
        <time>2021-08-07T07:39:04.648Z</time>
      </trkpt>
      <trkpt lat="46.92003" lon="8.68744">
        <ele>1981</ele>
        <time>2021-08-07T07:39:05.647Z</time>
      </trkpt>
      <trkpt lat="46.92004" lon="8.68744">
        <ele>1981</ele>
        <time>2021-08-07T07:39:06.647Z</time>
      </trkpt>
      <trkpt lat="46.92004" lon="8.68743">
        <ele>1981</ele>
        <time>2021-08-07T07:39:07.648Z</time>
      </trkpt>
      <trkpt lat="46.92004" lon="8.68742">
        <ele>1980</ele>
        <time>2021-08-07T07:39:08.648Z</time>
      </trkpt>
      <trkpt lat="46.92004" lon="8.68741">
        <ele>1980</ele>
        <time>2021-08-07T07:39:09.647Z</time>
      </trkpt>
      <trkpt lat="46.92005" lon="8.68741">
        <ele>1980</ele>
        <time>2021-08-07T07:39:10.648Z</time>
      </trkpt>
      <trkpt lat="46.92005" lon="8.6874">
        <ele>1980</ele>
        <time>2021-08-07T07:39:11.648Z</time>
      </trkpt>
      <trkpt lat="46.92005" lon="8.6874">
        <ele>1980</ele>
        <time>2021-08-07T07:39:12.648Z</time>
      </trkpt>
      <trkpt lat="46.92006" lon="8.68739">
        <ele>1980</ele>
        <time>2021-08-07T07:39:13.648Z</time>
      </trkpt>
      <trkpt lat="46.92006" lon="8.68738">
        <ele>1980</ele>
        <time>2021-08-07T07:39:14.647Z</time>
      </trkpt>
      <trkpt lat="46.92006" lon="8.68738">
        <ele>1981</ele>
        <time>2021-08-07T07:39:15.648Z</time>
      </trkpt>
      <trkpt lat="46.92006" lon="8.68737">
        <ele>1981</ele>
        <time>2021-08-07T07:39:16.647Z</time>
      </trkpt>
      <trkpt lat="46.92006" lon="8.68736">
        <ele>1981</ele>
        <time>2021-08-07T07:39:17.648Z</time>
      </trkpt>
      <trkpt lat="46.92006" lon="8.68736">
        <ele>1981</ele>
        <time>2021-08-07T07:39:18.648Z</time>
      </trkpt>
      <trkpt lat="46.92004" lon="8.68735">
        <ele>1984</ele>
        <time>2021-08-07T07:39:19.649Z</time>
      </trkpt>
      <trkpt lat="46.92004" lon="8.68734">
        <ele>1984</ele>
        <time>2021-08-07T07:39:20.648Z</time>
      </trkpt>
      <trkpt lat="46.92005" lon="8.68734">
        <ele>1989</ele>
        <time>2021-08-07T07:39:21.650Z</time>
      </trkpt>
      <trkpt lat="46.92005" lon="8.68734">
        <ele>1989</ele>
        <time>2021-08-07T07:39:22.649Z</time>
      </trkpt>
      <trkpt lat="46.92005" lon="8.68734">
        <ele>1990</ele>
        <time>2021-08-07T07:39:23.649Z</time>
      </trkpt>
      <trkpt lat="46.92007" lon="8.68732">
        <ele>1991</ele>
        <time>2021-08-07T07:39:24.649Z</time>
      </trkpt>
      <trkpt lat="46.92007" lon="8.68732">
        <ele>1991</ele>
        <time>2021-08-07T07:39:25.649Z</time>
      </trkpt>
      <trkpt lat="46.92007" lon="8.68731">
        <ele>1991</ele>
        <time>2021-08-07T07:39:26.649Z</time>
      </trkpt>
      <trkpt lat="46.92008" lon="8.6873">
        <ele>1991</ele>
        <time>2021-08-07T07:39:27.650Z</time>
      </trkpt>
      <trkpt lat="46.92008" lon="8.6873">
        <ele>1991</ele>
        <time>2021-08-07T07:39:28.649Z</time>
      </trkpt>
      <trkpt lat="46.92009" lon="8.68729">
        <ele>1991</ele>
        <time>2021-08-07T07:39:29.650Z</time>
      </trkpt>
      <trkpt lat="46.92009" lon="8.68729">
        <ele>1990</ele>
        <time>2021-08-07T07:39:30.649Z</time>
      </trkpt>
      <trkpt lat="46.92009" lon="8.68729">
        <ele>1990</ele>
        <time>2021-08-07T07:39:31.650Z</time>
      </trkpt>
      <trkpt lat="46.9201" lon="8.68728">
        <ele>1991</ele>
        <time>2021-08-07T07:39:32.649Z</time>
      </trkpt>
      <trkpt lat="46.9201" lon="8.68728">
        <ele>1991</ele>
        <time>2021-08-07T07:39:33.650Z</time>
      </trkpt>
      <trkpt lat="46.9201" lon="8.68727">
        <ele>1992</ele>
        <time>2021-08-07T07:39:34.649Z</time>
      </trkpt>
      <trkpt lat="46.92009" lon="8.68727">
        <ele>1993</ele>
        <time>2021-08-07T07:39:35.650Z</time>
      </trkpt>
      <trkpt lat="46.92009" lon="8.68727">
        <ele>1993</ele>
        <time>2021-08-07T07:39:36.650Z</time>
      </trkpt>
      <trkpt lat="46.92009" lon="8.68726">
        <ele>1993</ele>
        <time>2021-08-07T07:39:37.650Z</time>
      </trkpt>
      <trkpt lat="46.92008" lon="8.68726">
        <ele>1994</ele>
        <time>2021-08-07T07:39:38.650Z</time>
      </trkpt>
      <trkpt lat="46.92007" lon="8.68726">
        <ele>1994</ele>
        <time>2021-08-07T07:39:39.650Z</time>
      </trkpt>
      <trkpt lat="46.92007" lon="8.68725">
        <ele>1994</ele>
        <time>2021-08-07T07:39:40.650Z</time>
      </trkpt>
      <trkpt lat="46.92007" lon="8.68726">
        <ele>1993</ele>
        <time>2021-08-07T07:39:41.650Z</time>
      </trkpt>
      <trkpt lat="46.92007" lon="8.68726">
        <ele>1993</ele>
        <time>2021-08-07T07:39:42.650Z</time>
      </trkpt>
      <trkpt lat="46.92005" lon="8.68723">
        <ele>1999</ele>
        <time>2021-08-07T07:39:43.650Z</time>
      </trkpt>
      <trkpt lat="46.92005" lon="8.68723">
        <ele>1999</ele>
        <time>2021-08-07T07:39:44.650Z</time>
      </trkpt>
      <trkpt lat="46.92005" lon="8.68722">
        <ele>1999</ele>
        <time>2021-08-07T07:39:45.650Z</time>
      </trkpt>
      <trkpt lat="46.92005" lon="8.68721">
        <ele>1999</ele>
        <time>2021-08-07T07:39:46.651Z</time>
      </trkpt>
      <trkpt lat="46.92004" lon="8.6872">
        <ele>1998</ele>
        <time>2021-08-07T07:39:47.651Z</time>
      </trkpt>
      <trkpt lat="46.92004" lon="8.6872">
        <ele>1998</ele>
        <time>2021-08-07T07:39:48.650Z</time>
      </trkpt>
      <trkpt lat="46.92003" lon="8.68719">
        <ele>1998</ele>
        <time>2021-08-07T07:39:49.650Z</time>
      </trkpt>
      <trkpt lat="46.92001" lon="8.68718">
        <ele>1997</ele>
        <time>2021-08-07T07:39:50.652Z</time>
      </trkpt>
      <trkpt lat="46.92002" lon="8.68719">
        <ele>1995</ele>
        <time>2021-08-07T07:39:51.652Z</time>
      </trkpt>
      <trkpt lat="46.92003" lon="8.68719">
        <ele>1995</ele>
        <time>2021-08-07T07:39:52.651Z</time>
      </trkpt>
      <trkpt lat="46.92003" lon="8.68719">
        <ele>1995</ele>
        <time>2021-08-07T07:39:53.651Z</time>
      </trkpt>
      <trkpt lat="46.92003" lon="8.68719">
        <ele>1995</ele>
        <time>2021-08-07T07:39:54.652Z</time>
      </trkpt>
      <trkpt lat="46.92004" lon="8.68718">
        <ele>1995</ele>
        <time>2021-08-07T07:39:55.651Z</time>
      </trkpt>
      <trkpt lat="46.92004" lon="8.68718">
        <ele>1996</ele>
        <time>2021-08-07T07:39:56.652Z</time>
      </trkpt>
      <trkpt lat="46.92004" lon="8.68717">
        <ele>1996</ele>
        <time>2021-08-07T07:39:57.651Z</time>
      </trkpt>
      <trkpt lat="46.92004" lon="8.68716">
        <ele>1997</ele>
        <time>2021-08-07T07:39:58.652Z</time>
      </trkpt>
      <trkpt lat="46.92003" lon="8.68716">
        <ele>1997</ele>
        <time>2021-08-07T07:39:59.651Z</time>
      </trkpt>
      <trkpt lat="46.92002" lon="8.68717">
        <ele>1996</ele>
        <time>2021-08-07T07:40:00.652Z</time>
      </trkpt>
      <trkpt lat="46.92005" lon="8.68714">
        <ele>1995</ele>
        <time>2021-08-07T07:40:01.652Z</time>
      </trkpt>
      <trkpt lat="46.92005" lon="8.68714">
        <ele>1991</ele>
        <time>2021-08-07T07:40:02.653Z</time>
      </trkpt>
      <trkpt lat="46.92005" lon="8.68714">
        <ele>1991</ele>
        <time>2021-08-07T07:40:03.653Z</time>
      </trkpt>
      <trkpt lat="46.92004" lon="8.68713">
        <ele>1991</ele>
        <time>2021-08-07T07:40:04.652Z</time>
      </trkpt>
      <trkpt lat="46.92003" lon="8.68712">
        <ele>1991</ele>
        <time>2021-08-07T07:40:05.653Z</time>
      </trkpt>
      <trkpt lat="46.92002" lon="8.68711">
        <ele>1992</ele>
        <time>2021-08-07T07:40:06.653Z</time>
      </trkpt>
      <trkpt lat="46.92001" lon="8.68711">
        <ele>1993</ele>
        <time>2021-08-07T07:40:07.653Z</time>
      </trkpt>
      <trkpt lat="46.92001" lon="8.68711">
        <ele>1994</ele>
        <time>2021-08-07T07:40:08.653Z</time>
      </trkpt>
      <trkpt lat="46.92" lon="8.68711">
        <ele>1995</ele>
        <time>2021-08-07T07:40:09.653Z</time>
      </trkpt>
      <trkpt lat="46.91999" lon="8.6871">
        <ele>1996</ele>
        <time>2021-08-07T07:40:10.652Z</time>
      </trkpt>
      <trkpt lat="46.91999" lon="8.6871">
        <ele>1996</ele>
        <time>2021-08-07T07:40:11.653Z</time>
      </trkpt>
      <trkpt lat="46.91998" lon="8.68709">
        <ele>1997</ele>
        <time>2021-08-07T07:40:12.653Z</time>
      </trkpt>
      <trkpt lat="46.91997" lon="8.68709">
        <ele>1997</ele>
        <time>2021-08-07T07:40:13.653Z</time>
      </trkpt>
      <trkpt lat="46.91997" lon="8.68708">
        <ele>1997</ele>
        <time>2021-08-07T07:40:14.653Z</time>
      </trkpt>
      <trkpt lat="46.91997" lon="8.68708">
        <ele>1998</ele>
        <time>2021-08-07T07:40:15.653Z</time>
      </trkpt>
      <trkpt lat="46.91997" lon="8.68708">
        <ele>1998</ele>
        <time>2021-08-07T07:40:16.653Z</time>
      </trkpt>
      <trkpt lat="46.91997" lon="8.68708">
        <ele>1999</ele>
        <time>2021-08-07T07:40:17.652Z</time>
      </trkpt>
      <trkpt lat="46.91997" lon="8.68707">
        <ele>1999</ele>
        <time>2021-08-07T07:40:18.653Z</time>
      </trkpt>
      <trkpt lat="46.91997" lon="8.68706">
        <ele>1999</ele>
        <time>2021-08-07T07:40:19.652Z</time>
      </trkpt>
      <trkpt lat="46.91996" lon="8.68706">
        <ele>1999</ele>
        <time>2021-08-07T07:40:20.652Z</time>
      </trkpt>
      <trkpt lat="46.91996" lon="8.68706">
        <ele>1998</ele>
        <time>2021-08-07T07:40:21.652Z</time>
      </trkpt>
      <trkpt lat="46.91995" lon="8.68706">
        <ele>1998</ele>
        <time>2021-08-07T07:40:22.652Z</time>
      </trkpt>
      <trkpt lat="46.91995" lon="8.68707">
        <ele>1998</ele>
        <time>2021-08-07T07:40:23.652Z</time>
      </trkpt>
      <trkpt lat="46.91994" lon="8.68707">
        <ele>1998</ele>
        <time>2021-08-07T07:40:24.652Z</time>
      </trkpt>
      <trkpt lat="46.91993" lon="8.68707">
        <ele>1998</ele>
        <time>2021-08-07T07:40:25.653Z</time>
      </trkpt>
      <trkpt lat="46.91993" lon="8.68707">
        <ele>1998</ele>
        <time>2021-08-07T07:40:26.653Z</time>
      </trkpt>
      <trkpt lat="46.91993" lon="8.68706">
        <ele>1998</ele>
        <time>2021-08-07T07:40:27.653Z</time>
      </trkpt>
      <trkpt lat="46.91992" lon="8.68706">
        <ele>1998</ele>
        <time>2021-08-07T07:40:28.652Z</time>
      </trkpt>
      <trkpt lat="46.91991" lon="8.68705">
        <ele>1998</ele>
        <time>2021-08-07T07:40:29.653Z</time>
      </trkpt>
      <trkpt lat="46.91991" lon="8.68704">
        <ele>1998</ele>
        <time>2021-08-07T07:40:30.652Z</time>
      </trkpt>
      <trkpt lat="46.9199" lon="8.68703">
        <ele>1998</ele>
        <time>2021-08-07T07:40:31.652Z</time>
      </trkpt>
      <trkpt lat="46.9199" lon="8.68703">
        <ele>1998</ele>
        <time>2021-08-07T07:40:32.652Z</time>
      </trkpt>
      <trkpt lat="46.9199" lon="8.68702">
        <ele>1997</ele>
        <time>2021-08-07T07:40:33.653Z</time>
      </trkpt>
      <trkpt lat="46.91989" lon="8.68702">
        <ele>1997</ele>
        <time>2021-08-07T07:40:34.652Z</time>
      </trkpt>
      <trkpt lat="46.91989" lon="8.68701">
        <ele>1997</ele>
        <time>2021-08-07T07:40:35.652Z</time>
      </trkpt>
      <trkpt lat="46.91989" lon="8.687">
        <ele>1997</ele>
        <time>2021-08-07T07:40:36.653Z</time>
      </trkpt>
      <trkpt lat="46.91989" lon="8.687">
        <ele>1997</ele>
        <time>2021-08-07T07:40:37.652Z</time>
      </trkpt>
      <trkpt lat="46.91989" lon="8.687">
        <ele>1997</ele>
        <time>2021-08-07T07:40:38.652Z</time>
      </trkpt>
      <trkpt lat="46.91988" lon="8.687">
        <ele>1998</ele>
        <time>2021-08-07T07:40:39.653Z</time>
      </trkpt>
      <trkpt lat="46.91988" lon="8.68701">
        <ele>1998</ele>
        <time>2021-08-07T07:40:40.653Z</time>
      </trkpt>
      <trkpt lat="46.91988" lon="8.68702">
        <ele>1999</ele>
        <time>2021-08-07T07:40:41.653Z</time>
      </trkpt>
      <trkpt lat="46.91988" lon="8.68703">
        <ele>1999</ele>
        <time>2021-08-07T07:40:42.653Z</time>
      </trkpt>
      <trkpt lat="46.91987" lon="8.68702">
        <ele>1999</ele>
        <time>2021-08-07T07:40:43.654Z</time>
      </trkpt>
      <trkpt lat="46.91986" lon="8.68701">
        <ele>2000</ele>
        <time>2021-08-07T07:40:44.653Z</time>
      </trkpt>
      <trkpt lat="46.91985" lon="8.68701">
        <ele>2000</ele>
        <time>2021-08-07T07:40:45.653Z</time>
      </trkpt>
      <trkpt lat="46.91984" lon="8.68701">
        <ele>2000</ele>
        <time>2021-08-07T07:40:46.654Z</time>
      </trkpt>
      <trkpt lat="46.91984" lon="8.68701">
        <ele>2000</ele>
        <time>2021-08-07T07:40:47.653Z</time>
      </trkpt>
      <trkpt lat="46.91982" lon="8.687">
        <ele>2000</ele>
        <time>2021-08-07T07:40:48.653Z</time>
      </trkpt>
      <trkpt lat="46.9198" lon="8.687">
        <ele>2000</ele>
        <time>2021-08-07T07:40:49.654Z</time>
      </trkpt>
      <trkpt lat="46.9198" lon="8.68699">
        <ele>2000</ele>
        <time>2021-08-07T07:40:50.654Z</time>
      </trkpt>
      <trkpt lat="46.9198" lon="8.68699">
        <ele>2000</ele>
        <time>2021-08-07T07:40:51.653Z</time>
      </trkpt>
      <trkpt lat="46.91979" lon="8.68699">
        <ele>2000</ele>
        <time>2021-08-07T07:40:52.654Z</time>
      </trkpt>
      <trkpt lat="46.9198" lon="8.68698">
        <ele>2000</ele>
        <time>2021-08-07T07:40:53.654Z</time>
      </trkpt>
      <trkpt lat="46.9198" lon="8.68697">
        <ele>2000</ele>
        <time>2021-08-07T07:40:54.654Z</time>
      </trkpt>
      <trkpt lat="46.9198" lon="8.68696">
        <ele>2000</ele>
        <time>2021-08-07T07:40:55.654Z</time>
      </trkpt>
      <trkpt lat="46.9198" lon="8.68695">
        <ele>2000</ele>
        <time>2021-08-07T07:40:56.654Z</time>
      </trkpt>
      <trkpt lat="46.9198" lon="8.68694">
        <ele>2001</ele>
        <time>2021-08-07T07:40:57.654Z</time>
      </trkpt>
      <trkpt lat="46.91981" lon="8.68694">
        <ele>2001</ele>
        <time>2021-08-07T07:40:58.654Z</time>
      </trkpt>
      <trkpt lat="46.91981" lon="8.68695">
        <ele>2002</ele>
        <time>2021-08-07T07:40:59.653Z</time>
      </trkpt>
      <trkpt lat="46.91982" lon="8.68694">
        <ele>2002</ele>
        <time>2021-08-07T07:41:00.653Z</time>
      </trkpt>
      <trkpt lat="46.91982" lon="8.68694">
        <ele>2003</ele>
        <time>2021-08-07T07:41:01.653Z</time>
      </trkpt>
      <trkpt lat="46.91981" lon="8.68693">
        <ele>2003</ele>
        <time>2021-08-07T07:41:02.653Z</time>
      </trkpt>
      <trkpt lat="46.91981" lon="8.68693">
        <ele>2004</ele>
        <time>2021-08-07T07:41:03.653Z</time>
      </trkpt>
      <trkpt lat="46.9198" lon="8.68693">
        <ele>2004</ele>
        <time>2021-08-07T07:41:04.653Z</time>
      </trkpt>
      <trkpt lat="46.91979" lon="8.68692">
        <ele>2005</ele>
        <time>2021-08-07T07:41:05.653Z</time>
      </trkpt>
      <trkpt lat="46.91979" lon="8.68691">
        <ele>2005</ele>
        <time>2021-08-07T07:41:06.653Z</time>
      </trkpt>
      <trkpt lat="46.91979" lon="8.68691">
        <ele>2006</ele>
        <time>2021-08-07T07:41:07.653Z</time>
      </trkpt>
      <trkpt lat="46.9198" lon="8.68691">
        <ele>2006</ele>
        <time>2021-08-07T07:41:08.653Z</time>
      </trkpt>
      <trkpt lat="46.9198" lon="8.6869">
        <ele>2007</ele>
        <time>2021-08-07T07:41:09.653Z</time>
      </trkpt>
      <trkpt lat="46.9198" lon="8.6869">
        <ele>2007</ele>
        <time>2021-08-07T07:41:10.653Z</time>
      </trkpt>
      <trkpt lat="46.91979" lon="8.68691">
        <ele>2007</ele>
        <time>2021-08-07T07:41:11.653Z</time>
      </trkpt>
      <trkpt lat="46.91979" lon="8.68691">
        <ele>2008</ele>
        <time>2021-08-07T07:41:12.653Z</time>
      </trkpt>
      <trkpt lat="46.91978" lon="8.68691">
        <ele>2008</ele>
        <time>2021-08-07T07:41:13.654Z</time>
      </trkpt>
      <trkpt lat="46.91978" lon="8.6869">
        <ele>2008</ele>
        <time>2021-08-07T07:41:14.654Z</time>
      </trkpt>
      <trkpt lat="46.91977" lon="8.6869">
        <ele>2009</ele>
        <time>2021-08-07T07:41:15.654Z</time>
      </trkpt>
      <trkpt lat="46.91977" lon="8.68689">
        <ele>2009</ele>
        <time>2021-08-07T07:41:16.653Z</time>
      </trkpt>
      <trkpt lat="46.91977" lon="8.68688">
        <ele>2009</ele>
        <time>2021-08-07T07:41:17.653Z</time>
      </trkpt>
      <trkpt lat="46.91976" lon="8.68686">
        <ele>2010</ele>
        <time>2021-08-07T07:41:18.653Z</time>
      </trkpt>
      <trkpt lat="46.91975" lon="8.68685">
        <ele>2010</ele>
        <time>2021-08-07T07:41:19.653Z</time>
      </trkpt>
      <trkpt lat="46.91975" lon="8.68683">
        <ele>2011</ele>
        <time>2021-08-07T07:41:20.654Z</time>
      </trkpt>
      <trkpt lat="46.91974" lon="8.68682">
        <ele>2011</ele>
        <time>2021-08-07T07:41:21.654Z</time>
      </trkpt>
      <trkpt lat="46.91974" lon="8.68682">
        <ele>2012</ele>
        <time>2021-08-07T07:41:22.653Z</time>
      </trkpt>
      <trkpt lat="46.91974" lon="8.68682">
        <ele>2012</ele>
        <time>2021-08-07T07:41:23.653Z</time>
      </trkpt>
      <trkpt lat="46.91974" lon="8.68681">
        <ele>2012</ele>
        <time>2021-08-07T07:41:24.654Z</time>
      </trkpt>
      <trkpt lat="46.91974" lon="8.6868">
        <ele>2012</ele>
        <time>2021-08-07T07:41:25.653Z</time>
      </trkpt>
      <trkpt lat="46.91974" lon="8.68679">
        <ele>2012</ele>
        <time>2021-08-07T07:41:26.653Z</time>
      </trkpt>
      <trkpt lat="46.91974" lon="8.68679">
        <ele>2011</ele>
        <time>2021-08-07T07:41:27.653Z</time>
      </trkpt>
      <trkpt lat="46.91974" lon="8.68679">
        <ele>2011</ele>
        <time>2021-08-07T07:41:28.654Z</time>
      </trkpt>
      <trkpt lat="46.91973" lon="8.68677">
        <ele>2012</ele>
        <time>2021-08-07T07:41:29.655Z</time>
      </trkpt>
      <trkpt lat="46.91972" lon="8.68676">
        <ele>2013</ele>
        <time>2021-08-07T07:41:30.655Z</time>
      </trkpt>
      <trkpt lat="46.91971" lon="8.68676">
        <ele>2013</ele>
        <time>2021-08-07T07:41:31.654Z</time>
      </trkpt>
      <trkpt lat="46.91971" lon="8.68675">
        <ele>2014</ele>
        <time>2021-08-07T07:41:32.654Z</time>
      </trkpt>
      <trkpt lat="46.9197" lon="8.68675">
        <ele>2014</ele>
        <time>2021-08-07T07:41:33.654Z</time>
      </trkpt>
      <trkpt lat="46.91969" lon="8.68674">
        <ele>2014</ele>
        <time>2021-08-07T07:41:34.654Z</time>
      </trkpt>
      <trkpt lat="46.91969" lon="8.68673">
        <ele>2014</ele>
        <time>2021-08-07T07:41:35.654Z</time>
      </trkpt>
      <trkpt lat="46.91968" lon="8.68673">
        <ele>2014</ele>
        <time>2021-08-07T07:41:36.655Z</time>
      </trkpt>
      <trkpt lat="46.91968" lon="8.68674">
        <ele>2013</ele>
        <time>2021-08-07T07:41:37.654Z</time>
      </trkpt>
      <trkpt lat="46.91967" lon="8.68674">
        <ele>2013</ele>
        <time>2021-08-07T07:41:38.654Z</time>
      </trkpt>
      <trkpt lat="46.91967" lon="8.68674">
        <ele>2013</ele>
        <time>2021-08-07T07:41:39.654Z</time>
      </trkpt>
      <trkpt lat="46.91966" lon="8.68674">
        <ele>2013</ele>
        <time>2021-08-07T07:41:40.655Z</time>
      </trkpt>
      <trkpt lat="46.91966" lon="8.68673">
        <ele>2013</ele>
        <time>2021-08-07T07:41:41.655Z</time>
      </trkpt>
      <trkpt lat="46.91966" lon="8.68674">
        <ele>2013</ele>
        <time>2021-08-07T07:41:42.655Z</time>
      </trkpt>
      <trkpt lat="46.91965" lon="8.68674">
        <ele>2013</ele>
        <time>2021-08-07T07:41:43.655Z</time>
      </trkpt>
      <trkpt lat="46.91965" lon="8.68673">
        <ele>2013</ele>
        <time>2021-08-07T07:41:44.655Z</time>
      </trkpt>
      <trkpt lat="46.91964" lon="8.68673">
        <ele>2013</ele>
        <time>2021-08-07T07:41:45.655Z</time>
      </trkpt>
      <trkpt lat="46.91963" lon="8.68672">
        <ele>2013</ele>
        <time>2021-08-07T07:41:46.654Z</time>
      </trkpt>
      <trkpt lat="46.91962" lon="8.68671">
        <ele>2012</ele>
        <time>2021-08-07T07:41:47.654Z</time>
      </trkpt>
      <trkpt lat="46.91961" lon="8.6867">
        <ele>2012</ele>
        <time>2021-08-07T07:41:48.654Z</time>
      </trkpt>
      <trkpt lat="46.9196" lon="8.68669">
        <ele>2012</ele>
        <time>2021-08-07T07:41:49.655Z</time>
      </trkpt>
      <trkpt lat="46.91959" lon="8.68669">
        <ele>2012</ele>
        <time>2021-08-07T07:41:50.655Z</time>
      </trkpt>
      <trkpt lat="46.91959" lon="8.68668">
        <ele>2012</ele>
        <time>2021-08-07T07:41:51.655Z</time>
      </trkpt>
      <trkpt lat="46.91958" lon="8.68668">
        <ele>2011</ele>
        <time>2021-08-07T07:41:52.655Z</time>
      </trkpt>
      <trkpt lat="46.91958" lon="8.68668">
        <ele>2011</ele>
        <time>2021-08-07T07:41:53.654Z</time>
      </trkpt>
      <trkpt lat="46.91957" lon="8.68668">
        <ele>2011</ele>
        <time>2021-08-07T07:41:54.654Z</time>
      </trkpt>
      <trkpt lat="46.91957" lon="8.68669">
        <ele>2011</ele>
        <time>2021-08-07T07:41:55.655Z</time>
      </trkpt>
      <trkpt lat="46.91956" lon="8.68669">
        <ele>2012</ele>
        <time>2021-08-07T07:41:56.655Z</time>
      </trkpt>
      <trkpt lat="46.91956" lon="8.68671">
        <ele>2012</ele>
        <time>2021-08-07T07:41:57.655Z</time>
      </trkpt>
      <trkpt lat="46.91955" lon="8.68672">
        <ele>2012</ele>
        <time>2021-08-07T07:41:58.654Z</time>
      </trkpt>
      <trkpt lat="46.91955" lon="8.68672">
        <ele>2012</ele>
        <time>2021-08-07T07:41:59.655Z</time>
      </trkpt>
      <trkpt lat="46.91955" lon="8.68672">
        <ele>2013</ele>
        <time>2021-08-07T07:42:00.655Z</time>
      </trkpt>
      <trkpt lat="46.91956" lon="8.68672">
        <ele>2013</ele>
        <time>2021-08-07T07:42:01.655Z</time>
      </trkpt>
      <trkpt lat="46.91956" lon="8.68671">
        <ele>2013</ele>
        <time>2021-08-07T07:42:02.654Z</time>
      </trkpt>
      <trkpt lat="46.91956" lon="8.6867">
        <ele>2013</ele>
        <time>2021-08-07T07:42:03.655Z</time>
      </trkpt>
      <trkpt lat="46.91955" lon="8.68669">
        <ele>2013</ele>
        <time>2021-08-07T07:42:04.655Z</time>
      </trkpt>
      <trkpt lat="46.91955" lon="8.6867">
        <ele>2014</ele>
        <time>2021-08-07T07:42:05.655Z</time>
      </trkpt>
      <trkpt lat="46.91954" lon="8.6867">
        <ele>2014</ele>
        <time>2021-08-07T07:42:06.655Z</time>
      </trkpt>
      <trkpt lat="46.91954" lon="8.6867">
        <ele>2014</ele>
        <time>2021-08-07T07:42:07.655Z</time>
      </trkpt>
      <trkpt lat="46.91953" lon="8.68668">
        <ele>2015</ele>
        <time>2021-08-07T07:42:08.655Z</time>
      </trkpt>
      <trkpt lat="46.91952" lon="8.68667">
        <ele>2015</ele>
        <time>2021-08-07T07:42:09.655Z</time>
      </trkpt>
      <trkpt lat="46.91951" lon="8.68666">
        <ele>2015</ele>
        <time>2021-08-07T07:42:10.655Z</time>
      </trkpt>
      <trkpt lat="46.91952" lon="8.68666">
        <ele>2016</ele>
        <time>2021-08-07T07:42:11.654Z</time>
      </trkpt>
      <trkpt lat="46.91952" lon="8.68666">
        <ele>2016</ele>
        <time>2021-08-07T07:42:12.654Z</time>
      </trkpt>
      <trkpt lat="46.91951" lon="8.68665">
        <ele>2017</ele>
        <time>2021-08-07T07:42:13.655Z</time>
      </trkpt>
      <trkpt lat="46.91951" lon="8.68665">
        <ele>2018</ele>
        <time>2021-08-07T07:42:14.655Z</time>
      </trkpt>
      <trkpt lat="46.91951" lon="8.68664">
        <ele>2019</ele>
        <time>2021-08-07T07:42:15.655Z</time>
      </trkpt>
      <trkpt lat="46.9195" lon="8.68663">
        <ele>2020</ele>
        <time>2021-08-07T07:42:16.655Z</time>
      </trkpt>
      <trkpt lat="46.91949" lon="8.68662">
        <ele>2020</ele>
        <time>2021-08-07T07:42:17.655Z</time>
      </trkpt>
      <trkpt lat="46.91948" lon="8.68661">
        <ele>2021</ele>
        <time>2021-08-07T07:42:18.655Z</time>
      </trkpt>
      <trkpt lat="46.91948" lon="8.68661">
        <ele>2021</ele>
        <time>2021-08-07T07:42:19.655Z</time>
      </trkpt>
      <trkpt lat="46.91947" lon="8.68661">
        <ele>2021</ele>
        <time>2021-08-07T07:42:20.655Z</time>
      </trkpt>
      <trkpt lat="46.91948" lon="8.68662">
        <ele>2021</ele>
        <time>2021-08-07T07:42:21.655Z</time>
      </trkpt>
      <trkpt lat="46.91948" lon="8.68661">
        <ele>2020</ele>
        <time>2021-08-07T07:42:22.654Z</time>
      </trkpt>
      <trkpt lat="46.91947" lon="8.6866">
        <ele>2020</ele>
        <time>2021-08-07T07:42:23.655Z</time>
      </trkpt>
      <trkpt lat="46.91947" lon="8.6866">
        <ele>2020</ele>
        <time>2021-08-07T07:42:24.655Z</time>
      </trkpt>
      <trkpt lat="46.91947" lon="8.68659">
        <ele>2020</ele>
        <time>2021-08-07T07:42:25.654Z</time>
      </trkpt>
      <trkpt lat="46.91947" lon="8.68659">
        <ele>2021</ele>
        <time>2021-08-07T07:42:26.655Z</time>
      </trkpt>
      <trkpt lat="46.91946" lon="8.68659">
        <ele>2021</ele>
        <time>2021-08-07T07:42:27.654Z</time>
      </trkpt>
      <trkpt lat="46.91945" lon="8.68658">
        <ele>2021</ele>
        <time>2021-08-07T07:42:28.654Z</time>
      </trkpt>
      <trkpt lat="46.91945" lon="8.68658">
        <ele>2021</ele>
        <time>2021-08-07T07:42:29.654Z</time>
      </trkpt>
      <trkpt lat="46.91945" lon="8.68657">
        <ele>2021</ele>
        <time>2021-08-07T07:42:30.654Z</time>
      </trkpt>
      <trkpt lat="46.91944" lon="8.68657">
        <ele>2021</ele>
        <time>2021-08-07T07:42:31.656Z</time>
      </trkpt>
      <trkpt lat="46.91944" lon="8.68657">
        <ele>2021</ele>
        <time>2021-08-07T07:42:32.655Z</time>
      </trkpt>
      <trkpt lat="46.91943" lon="8.68657">
        <ele>2021</ele>
        <time>2021-08-07T07:42:33.656Z</time>
      </trkpt>
      <trkpt lat="46.91943" lon="8.68656">
        <ele>2021</ele>
        <time>2021-08-07T07:42:34.656Z</time>
      </trkpt>
      <trkpt lat="46.91943" lon="8.68656">
        <ele>2020</ele>
        <time>2021-08-07T07:42:35.656Z</time>
      </trkpt>
      <trkpt lat="46.91943" lon="8.68656">
        <ele>2019</ele>
        <time>2021-08-07T07:42:36.656Z</time>
      </trkpt>
      <trkpt lat="46.91942" lon="8.68654">
        <ele>2018</ele>
        <time>2021-08-07T07:42:37.656Z</time>
      </trkpt>
      <trkpt lat="46.91941" lon="8.68654">
        <ele>2018</ele>
        <time>2021-08-07T07:42:38.655Z</time>
      </trkpt>
      <trkpt lat="46.9194" lon="8.68654">
        <ele>2018</ele>
        <time>2021-08-07T07:42:39.655Z</time>
      </trkpt>
      <trkpt lat="46.91941" lon="8.68655">
        <ele>2018</ele>
        <time>2021-08-07T07:42:40.656Z</time>
      </trkpt>
      <trkpt lat="46.9194" lon="8.68656">
        <ele>2018</ele>
        <time>2021-08-07T07:42:41.656Z</time>
      </trkpt>
      <trkpt lat="46.9194" lon="8.68656">
        <ele>2018</ele>
        <time>2021-08-07T07:42:42.655Z</time>
      </trkpt>
      <trkpt lat="46.91939" lon="8.68655">
        <ele>2018</ele>
        <time>2021-08-07T07:42:43.656Z</time>
      </trkpt>
      <trkpt lat="46.91939" lon="8.68655">
        <ele>2018</ele>
        <time>2021-08-07T07:42:44.656Z</time>
      </trkpt>
      <trkpt lat="46.91938" lon="8.68654">
        <ele>2017</ele>
        <time>2021-08-07T07:42:45.656Z</time>
      </trkpt>
      <trkpt lat="46.91937" lon="8.68653">
        <ele>2017</ele>
        <time>2021-08-07T07:42:46.655Z</time>
      </trkpt>
      <trkpt lat="46.91937" lon="8.68653">
        <ele>2017</ele>
        <time>2021-08-07T07:42:47.655Z</time>
      </trkpt>
      <trkpt lat="46.91937" lon="8.68653">
        <ele>2017</ele>
        <time>2021-08-07T07:42:48.656Z</time>
      </trkpt>
      <trkpt lat="46.91936" lon="8.68652">
        <ele>2017</ele>
        <time>2021-08-07T07:42:49.655Z</time>
      </trkpt>
      <trkpt lat="46.91936" lon="8.68651">
        <ele>2017</ele>
        <time>2021-08-07T07:42:50.656Z</time>
      </trkpt>
      <trkpt lat="46.91935" lon="8.68651">
        <ele>2017</ele>
        <time>2021-08-07T07:42:51.656Z</time>
      </trkpt>
      <trkpt lat="46.91934" lon="8.68651">
        <ele>2017</ele>
        <time>2021-08-07T07:42:52.656Z</time>
      </trkpt>
      <trkpt lat="46.91934" lon="8.68652">
        <ele>2018</ele>
        <time>2021-08-07T07:42:53.655Z</time>
      </trkpt>
      <trkpt lat="46.91933" lon="8.68652">
        <ele>2018</ele>
        <time>2021-08-07T07:42:54.655Z</time>
      </trkpt>
      <trkpt lat="46.91933" lon="8.68651">
        <ele>2018</ele>
        <time>2021-08-07T07:42:55.656Z</time>
      </trkpt>
      <trkpt lat="46.91932" lon="8.68651">
        <ele>2018</ele>
        <time>2021-08-07T07:42:56.655Z</time>
      </trkpt>
      <trkpt lat="46.91932" lon="8.68651">
        <ele>2018</ele>
        <time>2021-08-07T07:42:57.655Z</time>
      </trkpt>
      <trkpt lat="46.91931" lon="8.68651">
        <ele>2019</ele>
        <time>2021-08-07T07:42:58.655Z</time>
      </trkpt>
      <trkpt lat="46.9193" lon="8.68651">
        <ele>2019</ele>
        <time>2021-08-07T07:42:59.656Z</time>
      </trkpt>
      <trkpt lat="46.9193" lon="8.68651">
        <ele>2020</ele>
        <time>2021-08-07T07:43:00.656Z</time>
      </trkpt>
      <trkpt lat="46.9193" lon="8.68651">
        <ele>2020</ele>
        <time>2021-08-07T07:43:01.655Z</time>
      </trkpt>
      <trkpt lat="46.91929" lon="8.68649">
        <ele>2022</ele>
        <time>2021-08-07T07:43:02.655Z</time>
      </trkpt>
      <trkpt lat="46.91929" lon="8.68649">
        <ele>2022</ele>
        <time>2021-08-07T07:43:03.655Z</time>
      </trkpt>
      <trkpt lat="46.91929" lon="8.68649">
        <ele>2022</ele>
        <time>2021-08-07T07:43:04.655Z</time>
      </trkpt>
      <trkpt lat="46.91928" lon="8.68648">
        <ele>2023</ele>
        <time>2021-08-07T07:43:05.655Z</time>
      </trkpt>
      <trkpt lat="46.91928" lon="8.68648">
        <ele>2024</ele>
        <time>2021-08-07T07:43:06.655Z</time>
      </trkpt>
      <trkpt lat="46.91928" lon="8.68648">
        <ele>2024</ele>
        <time>2021-08-07T07:43:07.655Z</time>
      </trkpt>
      <trkpt lat="46.91929" lon="8.68647">
        <ele>2025</ele>
        <time>2021-08-07T07:43:08.656Z</time>
      </trkpt>
      <trkpt lat="46.9193" lon="8.68647">
        <ele>2025</ele>
        <time>2021-08-07T07:43:09.655Z</time>
      </trkpt>
      <trkpt lat="46.9193" lon="8.68646">
        <ele>2026</ele>
        <time>2021-08-07T07:43:10.655Z</time>
      </trkpt>
      <trkpt lat="46.9193" lon="8.68646">
        <ele>2026</ele>
        <time>2021-08-07T07:43:11.656Z</time>
      </trkpt>
      <trkpt lat="46.91929" lon="8.68645">
        <ele>2026</ele>
        <time>2021-08-07T07:43:12.655Z</time>
      </trkpt>
      <trkpt lat="46.91928" lon="8.68644">
        <ele>2026</ele>
        <time>2021-08-07T07:43:13.655Z</time>
      </trkpt>
      <trkpt lat="46.91928" lon="8.68644">
        <ele>2025</ele>
        <time>2021-08-07T07:43:14.655Z</time>
      </trkpt>
      <trkpt lat="46.91928" lon="8.68643">
        <ele>2025</ele>
        <time>2021-08-07T07:43:15.656Z</time>
      </trkpt>
      <trkpt lat="46.91928" lon="8.68643">
        <ele>2025</ele>
        <time>2021-08-07T07:43:16.656Z</time>
      </trkpt>
      <trkpt lat="46.91929" lon="8.68642">
        <ele>2025</ele>
        <time>2021-08-07T07:43:17.655Z</time>
      </trkpt>
      <trkpt lat="46.91928" lon="8.68642">
        <ele>2026</ele>
        <time>2021-08-07T07:43:18.656Z</time>
      </trkpt>
      <trkpt lat="46.91928" lon="8.68642">
        <ele>2026</ele>
        <time>2021-08-07T07:43:19.655Z</time>
      </trkpt>
      <trkpt lat="46.91928" lon="8.68641">
        <ele>2026</ele>
        <time>2021-08-07T07:43:20.655Z</time>
      </trkpt>
      <trkpt lat="46.91928" lon="8.6864">
        <ele>2026</ele>
        <time>2021-08-07T07:43:21.655Z</time>
      </trkpt>
      <trkpt lat="46.91928" lon="8.68639">
        <ele>2026</ele>
        <time>2021-08-07T07:43:22.655Z</time>
      </trkpt>
      <trkpt lat="46.91928" lon="8.68639">
        <ele>2026</ele>
        <time>2021-08-07T07:43:23.655Z</time>
      </trkpt>
      <trkpt lat="46.91928" lon="8.68638">
        <ele>2027</ele>
        <time>2021-08-07T07:43:24.655Z</time>
      </trkpt>
      <trkpt lat="46.91927" lon="8.68637">
        <ele>2027</ele>
        <time>2021-08-07T07:43:25.655Z</time>
      </trkpt>
      <trkpt lat="46.91927" lon="8.68637">
        <ele>2028</ele>
        <time>2021-08-07T07:43:26.655Z</time>
      </trkpt>
      <trkpt lat="46.91927" lon="8.68637">
        <ele>2029</ele>
        <time>2021-08-07T07:43:27.655Z</time>
      </trkpt>
      <trkpt lat="46.91927" lon="8.68636">
        <ele>2029</ele>
        <time>2021-08-07T07:43:28.656Z</time>
      </trkpt>
      <trkpt lat="46.91927" lon="8.68636">
        <ele>2030</ele>
        <time>2021-08-07T07:43:29.655Z</time>
      </trkpt>
      <trkpt lat="46.91926" lon="8.68635">
        <ele>2030</ele>
        <time>2021-08-07T07:43:30.655Z</time>
      </trkpt>
      <trkpt lat="46.91926" lon="8.68634">
        <ele>2030</ele>
        <time>2021-08-07T07:43:31.656Z</time>
      </trkpt>
      <trkpt lat="46.91925" lon="8.68634">
        <ele>2030</ele>
        <time>2021-08-07T07:43:32.655Z</time>
      </trkpt>
      <trkpt lat="46.91923" lon="8.68632">
        <ele>2030</ele>
        <time>2021-08-07T07:43:33.656Z</time>
      </trkpt>
      <trkpt lat="46.91923" lon="8.68632">
        <ele>2030</ele>
        <time>2021-08-07T07:43:34.656Z</time>
      </trkpt>
      <trkpt lat="46.91922" lon="8.68632">
        <ele>2030</ele>
        <time>2021-08-07T07:43:35.655Z</time>
      </trkpt>
      <trkpt lat="46.91921" lon="8.68632">
        <ele>2030</ele>
        <time>2021-08-07T07:43:36.655Z</time>
      </trkpt>
      <trkpt lat="46.91921" lon="8.68631">
        <ele>2030</ele>
        <time>2021-08-07T07:43:37.656Z</time>
      </trkpt>
      <trkpt lat="46.9192" lon="8.68631">
        <ele>2030</ele>
        <time>2021-08-07T07:43:38.655Z</time>
      </trkpt>
      <trkpt lat="46.91919" lon="8.68631">
        <ele>2030</ele>
        <time>2021-08-07T07:43:39.656Z</time>
      </trkpt>
      <trkpt lat="46.91919" lon="8.68631">
        <ele>2030</ele>
        <time>2021-08-07T07:43:40.655Z</time>
      </trkpt>
      <trkpt lat="46.91918" lon="8.6863">
        <ele>2030</ele>
        <time>2021-08-07T07:43:41.655Z</time>
      </trkpt>
      <trkpt lat="46.91918" lon="8.6863">
        <ele>2030</ele>
        <time>2021-08-07T07:43:42.655Z</time>
      </trkpt>
      <trkpt lat="46.91918" lon="8.68629">
        <ele>2030</ele>
        <time>2021-08-07T07:43:43.655Z</time>
      </trkpt>
      <trkpt lat="46.91917" lon="8.68629">
        <ele>2030</ele>
        <time>2021-08-07T07:43:44.656Z</time>
      </trkpt>
      <trkpt lat="46.91918" lon="8.68628">
        <ele>2029</ele>
        <time>2021-08-07T07:43:45.656Z</time>
      </trkpt>
      <trkpt lat="46.91918" lon="8.68628">
        <ele>2029</ele>
        <time>2021-08-07T07:43:46.656Z</time>
      </trkpt>
      <trkpt lat="46.91918" lon="8.68627">
        <ele>2029</ele>
        <time>2021-08-07T07:43:47.655Z</time>
      </trkpt>
      <trkpt lat="46.91918" lon="8.68626">
        <ele>2029</ele>
        <time>2021-08-07T07:43:48.655Z</time>
      </trkpt>
      <trkpt lat="46.91917" lon="8.68626">
        <ele>2029</ele>
        <time>2021-08-07T07:43:49.655Z</time>
      </trkpt>
      <trkpt lat="46.91917" lon="8.68625">
        <ele>2029</ele>
        <time>2021-08-07T07:43:50.655Z</time>
      </trkpt>
      <trkpt lat="46.91916" lon="8.68625">
        <ele>2029</ele>
        <time>2021-08-07T07:43:51.655Z</time>
      </trkpt>
      <trkpt lat="46.91916" lon="8.68625">
        <ele>2029</ele>
        <time>2021-08-07T07:43:52.656Z</time>
      </trkpt>
      <trkpt lat="46.91915" lon="8.68625">
        <ele>2029</ele>
        <time>2021-08-07T07:43:53.655Z</time>
      </trkpt>
      <trkpt lat="46.91915" lon="8.68626">
        <ele>2029</ele>
        <time>2021-08-07T07:43:54.655Z</time>
      </trkpt>
      <trkpt lat="46.91915" lon="8.68625">
        <ele>2028</ele>
        <time>2021-08-07T07:43:55.656Z</time>
      </trkpt>
      <trkpt lat="46.91915" lon="8.68625">
        <ele>2028</ele>
        <time>2021-08-07T07:43:56.655Z</time>
      </trkpt>
      <trkpt lat="46.91914" lon="8.68624">
        <ele>2028</ele>
        <time>2021-08-07T07:43:57.655Z</time>
      </trkpt>
      <trkpt lat="46.91914" lon="8.68624">
        <ele>2028</ele>
        <time>2021-08-07T07:43:58.656Z</time>
      </trkpt>
      <trkpt lat="46.91914" lon="8.68624">
        <ele>2028</ele>
        <time>2021-08-07T07:43:59.655Z</time>
      </trkpt>
      <trkpt lat="46.91913" lon="8.68623">
        <ele>2028</ele>
        <time>2021-08-07T07:44:00.656Z</time>
      </trkpt>
      <trkpt lat="46.91913" lon="8.68623">
        <ele>2028</ele>
        <time>2021-08-07T07:44:01.655Z</time>
      </trkpt>
      <trkpt lat="46.91913" lon="8.68623">
        <ele>2028</ele>
        <time>2021-08-07T07:44:02.655Z</time>
      </trkpt>
      <trkpt lat="46.91912" lon="8.68622">
        <ele>2028</ele>
        <time>2021-08-07T07:44:03.655Z</time>
      </trkpt>
      <trkpt lat="46.91912" lon="8.68621">
        <ele>2028</ele>
        <time>2021-08-07T07:44:04.656Z</time>
      </trkpt>
      <trkpt lat="46.91911" lon="8.6862">
        <ele>2028</ele>
        <time>2021-08-07T07:44:05.655Z</time>
      </trkpt>
      <trkpt lat="46.91911" lon="8.68619">
        <ele>2028</ele>
        <time>2021-08-07T07:44:06.655Z</time>
      </trkpt>
      <trkpt lat="46.9191" lon="8.68618">
        <ele>2028</ele>
        <time>2021-08-07T07:44:07.655Z</time>
      </trkpt>
      <trkpt lat="46.91909" lon="8.68618">
        <ele>2028</ele>
        <time>2021-08-07T07:44:08.655Z</time>
      </trkpt>
      <trkpt lat="46.91909" lon="8.68617">
        <ele>2028</ele>
        <time>2021-08-07T07:44:09.656Z</time>
      </trkpt>
      <trkpt lat="46.91909" lon="8.68617">
        <ele>2028</ele>
        <time>2021-08-07T07:44:10.655Z</time>
      </trkpt>
      <trkpt lat="46.91908" lon="8.68616">
        <ele>2028</ele>
        <time>2021-08-07T07:44:11.655Z</time>
      </trkpt>
      <trkpt lat="46.91908" lon="8.68616">
        <ele>2029</ele>
        <time>2021-08-07T07:44:12.655Z</time>
      </trkpt>
      <trkpt lat="46.91907" lon="8.68616">
        <ele>2030</ele>
        <time>2021-08-07T07:44:13.656Z</time>
      </trkpt>
      <trkpt lat="46.91907" lon="8.68617">
        <ele>2031</ele>
        <time>2021-08-07T07:44:14.655Z</time>
      </trkpt>
      <trkpt lat="46.91906" lon="8.68617">
        <ele>2031</ele>
        <time>2021-08-07T07:44:15.655Z</time>
      </trkpt>
      <trkpt lat="46.91905" lon="8.68617">
        <ele>2032</ele>
        <time>2021-08-07T07:44:16.655Z</time>
      </trkpt>
      <trkpt lat="46.91904" lon="8.68616">
        <ele>2033</ele>
        <time>2021-08-07T07:44:17.655Z</time>
      </trkpt>
      <trkpt lat="46.91904" lon="8.68616">
        <ele>2034</ele>
        <time>2021-08-07T07:44:18.655Z</time>
      </trkpt>
      <trkpt lat="46.91903" lon="8.68614">
        <ele>2035</ele>
        <time>2021-08-07T07:44:19.655Z</time>
      </trkpt>
      <trkpt lat="46.91902" lon="8.68613">
        <ele>2035</ele>
        <time>2021-08-07T07:44:20.656Z</time>
      </trkpt>
      <trkpt lat="46.91902" lon="8.68613">
        <ele>2036</ele>
        <time>2021-08-07T07:44:21.656Z</time>
      </trkpt>
      <trkpt lat="46.91902" lon="8.68612">
        <ele>2036</ele>
        <time>2021-08-07T07:44:22.655Z</time>
      </trkpt>
      <trkpt lat="46.91901" lon="8.68613">
        <ele>2036</ele>
        <time>2021-08-07T07:44:23.655Z</time>
      </trkpt>
      <trkpt lat="46.91901" lon="8.68613">
        <ele>2036</ele>
        <time>2021-08-07T07:44:24.655Z</time>
      </trkpt>
      <trkpt lat="46.91901" lon="8.68613">
        <ele>2036</ele>
        <time>2021-08-07T07:44:25.655Z</time>
      </trkpt>
      <trkpt lat="46.919" lon="8.68613">
        <ele>2036</ele>
        <time>2021-08-07T07:44:26.655Z</time>
      </trkpt>
      <trkpt lat="46.91899" lon="8.68612">
        <ele>2036</ele>
        <time>2021-08-07T07:44:27.655Z</time>
      </trkpt>
      <trkpt lat="46.91899" lon="8.68612">
        <ele>2036</ele>
        <time>2021-08-07T07:44:28.655Z</time>
      </trkpt>
      <trkpt lat="46.91899" lon="8.68611">
        <ele>2036</ele>
        <time>2021-08-07T07:44:29.656Z</time>
      </trkpt>
      <trkpt lat="46.91898" lon="8.6861">
        <ele>2036</ele>
        <time>2021-08-07T07:44:30.655Z</time>
      </trkpt>
      <trkpt lat="46.91897" lon="8.68609">
        <ele>2036</ele>
        <time>2021-08-07T07:44:31.655Z</time>
      </trkpt>
      <trkpt lat="46.91897" lon="8.68609">
        <ele>2036</ele>
        <time>2021-08-07T07:44:32.655Z</time>
      </trkpt>
      <trkpt lat="46.91896" lon="8.68608">
        <ele>2036</ele>
        <time>2021-08-07T07:44:33.656Z</time>
      </trkpt>
      <trkpt lat="46.91897" lon="8.68609">
        <ele>2036</ele>
        <time>2021-08-07T07:44:34.655Z</time>
      </trkpt>
      <trkpt lat="46.91897" lon="8.6861">
        <ele>2036</ele>
        <time>2021-08-07T07:44:35.655Z</time>
      </trkpt>
      <trkpt lat="46.91897" lon="8.68611">
        <ele>2036</ele>
        <time>2021-08-07T07:44:36.655Z</time>
      </trkpt>
      <trkpt lat="46.91896" lon="8.68611">
        <ele>2036</ele>
        <time>2021-08-07T07:44:37.655Z</time>
      </trkpt>
      <trkpt lat="46.91896" lon="8.68611">
        <ele>2036</ele>
        <time>2021-08-07T07:44:38.656Z</time>
      </trkpt>
      <trkpt lat="46.91895" lon="8.68611">
        <ele>2036</ele>
        <time>2021-08-07T07:44:39.655Z</time>
      </trkpt>
      <trkpt lat="46.91895" lon="8.6861">
        <ele>2036</ele>
        <time>2021-08-07T07:44:40.655Z</time>
      </trkpt>
      <trkpt lat="46.91895" lon="8.6861">
        <ele>2036</ele>
        <time>2021-08-07T07:44:41.655Z</time>
      </trkpt>
      <trkpt lat="46.91895" lon="8.6861">
        <ele>2035</ele>
        <time>2021-08-07T07:44:42.655Z</time>
      </trkpt>
      <trkpt lat="46.91895" lon="8.6861">
        <ele>2036</ele>
        <time>2021-08-07T07:44:43.656Z</time>
      </trkpt>
      <trkpt lat="46.91895" lon="8.68609">
        <ele>2036</ele>
        <time>2021-08-07T07:44:44.656Z</time>
      </trkpt>
      <trkpt lat="46.91895" lon="8.68608">
        <ele>2036</ele>
        <time>2021-08-07T07:44:45.656Z</time>
      </trkpt>
      <trkpt lat="46.91894" lon="8.68607">
        <ele>2036</ele>
        <time>2021-08-07T07:44:46.657Z</time>
      </trkpt>
      <trkpt lat="46.91894" lon="8.68607">
        <ele>2036</ele>
        <time>2021-08-07T07:44:47.656Z</time>
      </trkpt>
      <trkpt lat="46.91894" lon="8.68606">
        <ele>2036</ele>
        <time>2021-08-07T07:44:48.657Z</time>
      </trkpt>
      <trkpt lat="46.91894" lon="8.68606">
        <ele>2036</ele>
        <time>2021-08-07T07:44:49.657Z</time>
      </trkpt>
      <trkpt lat="46.91893" lon="8.68606">
        <ele>2036</ele>
        <time>2021-08-07T07:44:50.656Z</time>
      </trkpt>
      <trkpt lat="46.91893" lon="8.68606">
        <ele>2036</ele>
        <time>2021-08-07T07:44:51.657Z</time>
      </trkpt>
      <trkpt lat="46.91894" lon="8.68606">
        <ele>2037</ele>
        <time>2021-08-07T07:44:52.656Z</time>
      </trkpt>
      <trkpt lat="46.91894" lon="8.68605">
        <ele>2038</ele>
        <time>2021-08-07T07:44:53.656Z</time>
      </trkpt>
      <trkpt lat="46.91893" lon="8.68604">
        <ele>2038</ele>
        <time>2021-08-07T07:44:54.656Z</time>
      </trkpt>
      <trkpt lat="46.91892" lon="8.68604">
        <ele>2039</ele>
        <time>2021-08-07T07:44:55.656Z</time>
      </trkpt>
      <trkpt lat="46.91892" lon="8.68604">
        <ele>2039</ele>
        <time>2021-08-07T07:44:56.656Z</time>
      </trkpt>
      <trkpt lat="46.91891" lon="8.68603">
        <ele>2040</ele>
        <time>2021-08-07T07:44:57.656Z</time>
      </trkpt>
      <trkpt lat="46.9189" lon="8.68603">
        <ele>2040</ele>
        <time>2021-08-07T07:44:58.656Z</time>
      </trkpt>
      <trkpt lat="46.9189" lon="8.68602">
        <ele>2041</ele>
        <time>2021-08-07T07:44:59.656Z</time>
      </trkpt>
      <trkpt lat="46.91889" lon="8.68601">
        <ele>2041</ele>
        <time>2021-08-07T07:45:00.656Z</time>
      </trkpt>
      <trkpt lat="46.91889" lon="8.68601">
        <ele>2041</ele>
        <time>2021-08-07T07:45:01.656Z</time>
      </trkpt>
      <trkpt lat="46.91889" lon="8.686">
        <ele>2040</ele>
        <time>2021-08-07T07:45:02.656Z</time>
      </trkpt>
      <trkpt lat="46.91888" lon="8.686">
        <ele>2040</ele>
        <time>2021-08-07T07:45:03.656Z</time>
      </trkpt>
      <trkpt lat="46.91888" lon="8.68599">
        <ele>2040</ele>
        <time>2021-08-07T07:45:04.656Z</time>
      </trkpt>
      <trkpt lat="46.91887" lon="8.68598">
        <ele>2040</ele>
        <time>2021-08-07T07:45:05.656Z</time>
      </trkpt>
      <trkpt lat="46.91887" lon="8.68598">
        <ele>2040</ele>
        <time>2021-08-07T07:45:06.656Z</time>
      </trkpt>
      <trkpt lat="46.91886" lon="8.68597">
        <ele>2040</ele>
        <time>2021-08-07T07:45:07.656Z</time>
      </trkpt>
      <trkpt lat="46.91886" lon="8.68597">
        <ele>2041</ele>
        <time>2021-08-07T07:45:08.656Z</time>
      </trkpt>
      <trkpt lat="46.91886" lon="8.68596">
        <ele>2041</ele>
        <time>2021-08-07T07:45:09.656Z</time>
      </trkpt>
      <trkpt lat="46.91885" lon="8.68596">
        <ele>2041</ele>
        <time>2021-08-07T07:45:10.656Z</time>
      </trkpt>
      <trkpt lat="46.91884" lon="8.68595">
        <ele>2041</ele>
        <time>2021-08-07T07:45:11.656Z</time>
      </trkpt>
      <trkpt lat="46.91884" lon="8.68594">
        <ele>2041</ele>
        <time>2021-08-07T07:45:12.656Z</time>
      </trkpt>
      <trkpt lat="46.91883" lon="8.68594">
        <ele>2041</ele>
        <time>2021-08-07T07:45:13.656Z</time>
      </trkpt>
      <trkpt lat="46.91883" lon="8.68593">
        <ele>2041</ele>
        <time>2021-08-07T07:45:14.656Z</time>
      </trkpt>
      <trkpt lat="46.91883" lon="8.68593">
        <ele>2041</ele>
        <time>2021-08-07T07:45:15.656Z</time>
      </trkpt>
      <trkpt lat="46.91882" lon="8.68592">
        <ele>2041</ele>
        <time>2021-08-07T07:45:16.656Z</time>
      </trkpt>
      <trkpt lat="46.91882" lon="8.68592">
        <ele>2041</ele>
        <time>2021-08-07T07:45:17.656Z</time>
      </trkpt>
      <trkpt lat="46.91882" lon="8.68592">
        <ele>2041</ele>
        <time>2021-08-07T07:45:18.656Z</time>
      </trkpt>
      <trkpt lat="46.91882" lon="8.68591">
        <ele>2042</ele>
        <time>2021-08-07T07:45:19.656Z</time>
      </trkpt>
      <trkpt lat="46.91882" lon="8.68591">
        <ele>2042</ele>
        <time>2021-08-07T07:45:20.656Z</time>
      </trkpt>
      <trkpt lat="46.91882" lon="8.6859">
        <ele>2042</ele>
        <time>2021-08-07T07:45:21.656Z</time>
      </trkpt>
      <trkpt lat="46.91881" lon="8.6859">
        <ele>2043</ele>
        <time>2021-08-07T07:45:22.656Z</time>
      </trkpt>
      <trkpt lat="46.91882" lon="8.6859">
        <ele>2044</ele>
        <time>2021-08-07T07:45:23.656Z</time>
      </trkpt>
      <trkpt lat="46.91881" lon="8.68588">
        <ele>2045</ele>
        <time>2021-08-07T07:45:24.657Z</time>
      </trkpt>
      <trkpt lat="46.9188" lon="8.68587">
        <ele>2045</ele>
        <time>2021-08-07T07:45:25.657Z</time>
      </trkpt>
      <trkpt lat="46.9188" lon="8.68587">
        <ele>2045</ele>
        <time>2021-08-07T07:45:26.657Z</time>
      </trkpt>
      <trkpt lat="46.9188" lon="8.68587">
        <ele>2044</ele>
        <time>2021-08-07T07:45:27.657Z</time>
      </trkpt>
      <trkpt lat="46.9188" lon="8.68586">
        <ele>2044</ele>
        <time>2021-08-07T07:45:28.656Z</time>
      </trkpt>
      <trkpt lat="46.91879" lon="8.68586">
        <ele>2045</ele>
        <time>2021-08-07T07:45:29.657Z</time>
      </trkpt>
      <trkpt lat="46.91879" lon="8.68586">
        <ele>2045</ele>
        <time>2021-08-07T07:45:30.657Z</time>
      </trkpt>
      <trkpt lat="46.91879" lon="8.68585">
        <ele>2046</ele>
        <time>2021-08-07T07:45:31.657Z</time>
      </trkpt>
      <trkpt lat="46.91878" lon="8.68585">
        <ele>2047</ele>
        <time>2021-08-07T07:45:32.657Z</time>
      </trkpt>
      <trkpt lat="46.91878" lon="8.68585">
        <ele>2047</ele>
        <time>2021-08-07T07:45:33.656Z</time>
      </trkpt>
      <trkpt lat="46.91878" lon="8.68585">
        <ele>2048</ele>
        <time>2021-08-07T07:45:34.656Z</time>
      </trkpt>
      <trkpt lat="46.91877" lon="8.68585">
        <ele>2048</ele>
        <time>2021-08-07T07:45:35.657Z</time>
      </trkpt>
      <trkpt lat="46.91877" lon="8.68584">
        <ele>2048</ele>
        <time>2021-08-07T07:45:36.656Z</time>
      </trkpt>
      <trkpt lat="46.91877" lon="8.68585">
        <ele>2049</ele>
        <time>2021-08-07T07:45:37.657Z</time>
      </trkpt>
      <trkpt lat="46.91877" lon="8.68585">
        <ele>2049</ele>
        <time>2021-08-07T07:45:38.657Z</time>
      </trkpt>
      <trkpt lat="46.91877" lon="8.68585">
        <ele>2049</ele>
        <time>2021-08-07T07:45:39.657Z</time>
      </trkpt>
      <trkpt lat="46.91876" lon="8.68584">
        <ele>2049</ele>
        <time>2021-08-07T07:45:40.657Z</time>
      </trkpt>
      <trkpt lat="46.91876" lon="8.68584">
        <ele>2049</ele>
        <time>2021-08-07T07:45:41.657Z</time>
      </trkpt>
      <trkpt lat="46.91875" lon="8.68584">
        <ele>2049</ele>
        <time>2021-08-07T07:45:42.656Z</time>
      </trkpt>
      <trkpt lat="46.91874" lon="8.68584">
        <ele>2049</ele>
        <time>2021-08-07T07:45:43.656Z</time>
      </trkpt>
      <trkpt lat="46.91874" lon="8.68584">
        <ele>2049</ele>
        <time>2021-08-07T07:45:44.657Z</time>
      </trkpt>
      <trkpt lat="46.91874" lon="8.68585">
        <ele>2049</ele>
        <time>2021-08-07T07:45:45.657Z</time>
      </trkpt>
      <trkpt lat="46.91873" lon="8.68585">
        <ele>2049</ele>
        <time>2021-08-07T07:45:46.657Z</time>
      </trkpt>
      <trkpt lat="46.91873" lon="8.68585">
        <ele>2049</ele>
        <time>2021-08-07T07:45:47.656Z</time>
      </trkpt>
      <trkpt lat="46.91872" lon="8.68586">
        <ele>2050</ele>
        <time>2021-08-07T07:45:48.656Z</time>
      </trkpt>
      <trkpt lat="46.91872" lon="8.68587">
        <ele>2049</ele>
        <time>2021-08-07T07:45:49.657Z</time>
      </trkpt>
      <trkpt lat="46.91871" lon="8.68587">
        <ele>2049</ele>
        <time>2021-08-07T07:45:50.657Z</time>
      </trkpt>
      <trkpt lat="46.91871" lon="8.68588">
        <ele>2050</ele>
        <time>2021-08-07T07:45:51.657Z</time>
      </trkpt>
      <trkpt lat="46.91871" lon="8.68589">
        <ele>2050</ele>
        <time>2021-08-07T07:45:52.656Z</time>
      </trkpt>
      <trkpt lat="46.9187" lon="8.68589">
        <ele>2050</ele>
        <time>2021-08-07T07:45:53.657Z</time>
      </trkpt>
      <trkpt lat="46.9187" lon="8.68589">
        <ele>2050</ele>
        <time>2021-08-07T07:45:54.656Z</time>
      </trkpt>
      <trkpt lat="46.91869" lon="8.68589">
        <ele>2049</ele>
        <time>2021-08-07T07:45:55.657Z</time>
      </trkpt>
      <trkpt lat="46.91869" lon="8.68588">
        <ele>2049</ele>
        <time>2021-08-07T07:45:56.656Z</time>
      </trkpt>
      <trkpt lat="46.91869" lon="8.68587">
        <ele>2049</ele>
        <time>2021-08-07T07:45:57.656Z</time>
      </trkpt>
      <trkpt lat="46.91869" lon="8.68587">
        <ele>2049</ele>
        <time>2021-08-07T07:45:58.656Z</time>
      </trkpt>
      <trkpt lat="46.91869" lon="8.68586">
        <ele>2049</ele>
        <time>2021-08-07T07:45:59.657Z</time>
      </trkpt>
      <trkpt lat="46.91869" lon="8.68586">
        <ele>2050</ele>
        <time>2021-08-07T07:46:00.657Z</time>
      </trkpt>
      <trkpt lat="46.91869" lon="8.68585">
        <ele>2050</ele>
        <time>2021-08-07T07:46:01.656Z</time>
      </trkpt>
      <trkpt lat="46.91868" lon="8.68585">
        <ele>2050</ele>
        <time>2021-08-07T07:46:02.656Z</time>
      </trkpt>
      <trkpt lat="46.91869" lon="8.68584">
        <ele>2051</ele>
        <time>2021-08-07T07:46:03.656Z</time>
      </trkpt>
      <trkpt lat="46.91868" lon="8.68583">
        <ele>2052</ele>
        <time>2021-08-07T07:46:04.656Z</time>
      </trkpt>
      <trkpt lat="46.91868" lon="8.68582">
        <ele>2052</ele>
        <time>2021-08-07T07:46:05.657Z</time>
      </trkpt>
      <trkpt lat="46.91867" lon="8.68582">
        <ele>2052</ele>
        <time>2021-08-07T07:46:06.657Z</time>
      </trkpt>
      <trkpt lat="46.91866" lon="8.68581">
        <ele>2053</ele>
        <time>2021-08-07T07:46:07.657Z</time>
      </trkpt>
      <trkpt lat="46.91866" lon="8.6858">
        <ele>2053</ele>
        <time>2021-08-07T07:46:08.657Z</time>
      </trkpt>
      <trkpt lat="46.91866" lon="8.6858">
        <ele>2053</ele>
        <time>2021-08-07T07:46:09.657Z</time>
      </trkpt>
      <trkpt lat="46.91866" lon="8.6858">
        <ele>2053</ele>
        <time>2021-08-07T07:46:10.656Z</time>
      </trkpt>
      <trkpt lat="46.91866" lon="8.68579">
        <ele>2053</ele>
        <time>2021-08-07T07:46:11.657Z</time>
      </trkpt>
      <trkpt lat="46.91864" lon="8.68577">
        <ele>2056</ele>
        <time>2021-08-07T07:46:12.657Z</time>
      </trkpt>
      <trkpt lat="46.91864" lon="8.68576">
        <ele>2056</ele>
        <time>2021-08-07T07:46:13.657Z</time>
      </trkpt>
      <trkpt lat="46.91864" lon="8.68576">
        <ele>2057</ele>
        <time>2021-08-07T07:46:14.656Z</time>
      </trkpt>
      <trkpt lat="46.91864" lon="8.68573">
        <ele>2058</ele>
        <time>2021-08-07T07:46:15.657Z</time>
      </trkpt>
      <trkpt lat="46.91863" lon="8.68572">
        <ele>2059</ele>
        <time>2021-08-07T07:46:16.657Z</time>
      </trkpt>
      <trkpt lat="46.91863" lon="8.68571">
        <ele>2059</ele>
        <time>2021-08-07T07:46:17.657Z</time>
      </trkpt>
      <trkpt lat="46.91862" lon="8.68571">
        <ele>2059</ele>
        <time>2021-08-07T07:46:18.657Z</time>
      </trkpt>
      <trkpt lat="46.91862" lon="8.6857">
        <ele>2059</ele>
        <time>2021-08-07T07:46:19.656Z</time>
      </trkpt>
      <trkpt lat="46.91862" lon="8.6857">
        <ele>2059</ele>
        <time>2021-08-07T07:46:20.657Z</time>
      </trkpt>
      <trkpt lat="46.91862" lon="8.6857">
        <ele>2059</ele>
        <time>2021-08-07T07:46:21.657Z</time>
      </trkpt>
      <trkpt lat="46.91861" lon="8.68571">
        <ele>2058</ele>
        <time>2021-08-07T07:46:22.659Z</time>
      </trkpt>
      <trkpt lat="46.91861" lon="8.68571">
        <ele>2057</ele>
        <time>2021-08-07T07:46:23.658Z</time>
      </trkpt>
      <trkpt lat="46.91861" lon="8.68571">
        <ele>2057</ele>
        <time>2021-08-07T07:46:24.658Z</time>
      </trkpt>
      <trkpt lat="46.91861" lon="8.6857">
        <ele>2057</ele>
        <time>2021-08-07T07:46:25.659Z</time>
      </trkpt>
      <trkpt lat="46.91861" lon="8.6857">
        <ele>2057</ele>
        <time>2021-08-07T07:46:26.659Z</time>
      </trkpt>
      <trkpt lat="46.91861" lon="8.68569">
        <ele>2057</ele>
        <time>2021-08-07T07:46:27.659Z</time>
      </trkpt>
      <trkpt lat="46.9186" lon="8.68568">
        <ele>2057</ele>
        <time>2021-08-07T07:46:28.659Z</time>
      </trkpt>
      <trkpt lat="46.9186" lon="8.68567">
        <ele>2056</ele>
        <time>2021-08-07T07:46:29.658Z</time>
      </trkpt>
      <trkpt lat="46.91859" lon="8.68567">
        <ele>2056</ele>
        <time>2021-08-07T07:46:30.659Z</time>
      </trkpt>
      <trkpt lat="46.91859" lon="8.68566">
        <ele>2056</ele>
        <time>2021-08-07T07:46:31.658Z</time>
      </trkpt>
      <trkpt lat="46.91858" lon="8.68566">
        <ele>2056</ele>
        <time>2021-08-07T07:46:32.658Z</time>
      </trkpt>
      <trkpt lat="46.91857" lon="8.68565">
        <ele>2055</ele>
        <time>2021-08-07T07:46:33.658Z</time>
      </trkpt>
      <trkpt lat="46.91857" lon="8.68565">
        <ele>2055</ele>
        <time>2021-08-07T07:46:34.659Z</time>
      </trkpt>
      <trkpt lat="46.91856" lon="8.68564">
        <ele>2055</ele>
        <time>2021-08-07T07:46:35.658Z</time>
      </trkpt>
      <trkpt lat="46.91856" lon="8.68563">
        <ele>2055</ele>
        <time>2021-08-07T07:46:36.658Z</time>
      </trkpt>
      <trkpt lat="46.91855" lon="8.68563">
        <ele>2055</ele>
        <time>2021-08-07T07:46:37.658Z</time>
      </trkpt>
      <trkpt lat="46.91855" lon="8.68563">
        <ele>2054</ele>
        <time>2021-08-07T07:46:38.659Z</time>
      </trkpt>
      <trkpt lat="46.91854" lon="8.68563">
        <ele>2054</ele>
        <time>2021-08-07T07:46:39.658Z</time>
      </trkpt>
      <trkpt lat="46.91854" lon="8.68563">
        <ele>2054</ele>
        <time>2021-08-07T07:46:40.659Z</time>
      </trkpt>
      <trkpt lat="46.91854" lon="8.68564">
        <ele>2054</ele>
        <time>2021-08-07T07:46:41.658Z</time>
      </trkpt>
      <trkpt lat="46.91854" lon="8.68564">
        <ele>2054</ele>
        <time>2021-08-07T07:46:42.658Z</time>
      </trkpt>
      <trkpt lat="46.9185" lon="8.68564">
        <ele>2058</ele>
        <time>2021-08-07T07:46:43.660Z</time>
      </trkpt>
      <trkpt lat="46.9185" lon="8.68565">
        <ele>2059</ele>
        <time>2021-08-07T07:46:44.659Z</time>
      </trkpt>
      <trkpt lat="46.9185" lon="8.68566">
        <ele>2059</ele>
        <time>2021-08-07T07:46:45.659Z</time>
      </trkpt>
      <trkpt lat="46.9185" lon="8.68566">
        <ele>2060</ele>
        <time>2021-08-07T07:46:46.659Z</time>
      </trkpt>
      <trkpt lat="46.91851" lon="8.68567">
        <ele>2060</ele>
        <time>2021-08-07T07:46:47.659Z</time>
      </trkpt>
      <trkpt lat="46.91853" lon="8.68568">
        <ele>2060</ele>
        <time>2021-08-07T07:46:48.659Z</time>
      </trkpt>
      <trkpt lat="46.91854" lon="8.68568">
        <ele>2060</ele>
        <time>2021-08-07T07:46:49.660Z</time>
      </trkpt>
      <trkpt lat="46.91854" lon="8.68568">
        <ele>2060</ele>
        <time>2021-08-07T07:46:50.660Z</time>
      </trkpt>
      <trkpt lat="46.91853" lon="8.68566">
        <ele>2062</ele>
        <time>2021-08-07T07:46:51.660Z</time>
      </trkpt>
      <trkpt lat="46.91853" lon="8.68566">
        <ele>2062</ele>
        <time>2021-08-07T07:46:52.659Z</time>
      </trkpt>
      <trkpt lat="46.91853" lon="8.68565">
        <ele>2063</ele>
        <time>2021-08-07T07:46:53.659Z</time>
      </trkpt>
      <trkpt lat="46.91852" lon="8.68565">
        <ele>2063</ele>
        <time>2021-08-07T07:46:54.660Z</time>
      </trkpt>
      <trkpt lat="46.91852" lon="8.68562">
        <ele>2063</ele>
        <time>2021-08-07T07:46:55.661Z</time>
      </trkpt>
      <trkpt lat="46.91851" lon="8.68561">
        <ele>2063</ele>
        <time>2021-08-07T07:46:56.660Z</time>
      </trkpt>
      <trkpt lat="46.91851" lon="8.68561">
        <ele>2063</ele>
        <time>2021-08-07T07:46:57.660Z</time>
      </trkpt>
      <trkpt lat="46.91851" lon="8.68561">
        <ele>2062</ele>
        <time>2021-08-07T07:46:58.661Z</time>
      </trkpt>
      <trkpt lat="46.91852" lon="8.6856">
        <ele>2062</ele>
        <time>2021-08-07T07:46:59.661Z</time>
      </trkpt>
      <trkpt lat="46.91852" lon="8.6856">
        <ele>2062</ele>
        <time>2021-08-07T07:47:00.661Z</time>
      </trkpt>
      <trkpt lat="46.91852" lon="8.68561">
        <ele>2062</ele>
        <time>2021-08-07T07:47:01.660Z</time>
      </trkpt>
      <trkpt lat="46.91851" lon="8.68563">
        <ele>2060</ele>
        <time>2021-08-07T07:47:02.661Z</time>
      </trkpt>
      <trkpt lat="46.91851" lon="8.68563">
        <ele>2060</ele>
        <time>2021-08-07T07:47:03.661Z</time>
      </trkpt>
      <trkpt lat="46.91852" lon="8.68564">
        <ele>2060</ele>
        <time>2021-08-07T07:47:04.660Z</time>
      </trkpt>
      <trkpt lat="46.91852" lon="8.68564">
        <ele>2060</ele>
        <time>2021-08-07T07:47:05.661Z</time>
      </trkpt>
      <trkpt lat="46.91851" lon="8.68564">
        <ele>2061</ele>
        <time>2021-08-07T07:47:06.660Z</time>
      </trkpt>
      <trkpt lat="46.91851" lon="8.68565">
        <ele>2061</ele>
        <time>2021-08-07T07:47:07.661Z</time>
      </trkpt>
      <trkpt lat="46.91851" lon="8.68566">
        <ele>2062</ele>
        <time>2021-08-07T07:47:08.661Z</time>
      </trkpt>
      <trkpt lat="46.91851" lon="8.68568">
        <ele>2062</ele>
        <time>2021-08-07T07:47:09.661Z</time>
      </trkpt>
      <trkpt lat="46.9185" lon="8.68568">
        <ele>2062</ele>
        <time>2021-08-07T07:47:10.661Z</time>
      </trkpt>
      <trkpt lat="46.9185" lon="8.68569">
        <ele>2062</ele>
        <time>2021-08-07T07:47:11.660Z</time>
      </trkpt>
      <trkpt lat="46.91849" lon="8.68569">
        <ele>2062</ele>
        <time>2021-08-07T07:47:12.661Z</time>
      </trkpt>
      <trkpt lat="46.91849" lon="8.6857">
        <ele>2062</ele>
        <time>2021-08-07T07:47:13.661Z</time>
      </trkpt>
      <trkpt lat="46.91848" lon="8.6857">
        <ele>2062</ele>
        <time>2021-08-07T07:47:14.661Z</time>
      </trkpt>
      <trkpt lat="46.91847" lon="8.6857">
        <ele>2062</ele>
        <time>2021-08-07T07:47:15.660Z</time>
      </trkpt>
      <trkpt lat="46.91846" lon="8.68571">
        <ele>2062</ele>
        <time>2021-08-07T07:47:16.661Z</time>
      </trkpt>
      <trkpt lat="46.91845" lon="8.68571">
        <ele>2062</ele>
        <time>2021-08-07T07:47:17.661Z</time>
      </trkpt>
      <trkpt lat="46.91844" lon="8.68571">
        <ele>2062</ele>
        <time>2021-08-07T07:47:18.661Z</time>
      </trkpt>
      <trkpt lat="46.91843" lon="8.68571">
        <ele>2061</ele>
        <time>2021-08-07T07:47:19.661Z</time>
      </trkpt>
      <trkpt lat="46.91842" lon="8.68571">
        <ele>2061</ele>
        <time>2021-08-07T07:47:20.661Z</time>
      </trkpt>
      <trkpt lat="46.91841" lon="8.68571">
        <ele>2061</ele>
        <time>2021-08-07T07:47:21.660Z</time>
      </trkpt>
      <trkpt lat="46.9184" lon="8.68571">
        <ele>2060</ele>
        <time>2021-08-07T07:47:22.660Z</time>
      </trkpt>
      <trkpt lat="46.91839" lon="8.68571">
        <ele>2061</ele>
        <time>2021-08-07T07:47:23.661Z</time>
      </trkpt>
      <trkpt lat="46.91839" lon="8.68572">
        <ele>2061</ele>
        <time>2021-08-07T07:47:24.661Z</time>
      </trkpt>
      <trkpt lat="46.91839" lon="8.68572">
        <ele>2061</ele>
        <time>2021-08-07T07:47:25.660Z</time>
      </trkpt>
      <trkpt lat="46.91838" lon="8.68572">
        <ele>2062</ele>
        <time>2021-08-07T07:47:26.661Z</time>
      </trkpt>
      <trkpt lat="46.91837" lon="8.68572">
        <ele>2062</ele>
        <time>2021-08-07T07:47:27.661Z</time>
      </trkpt>
      <trkpt lat="46.91836" lon="8.68573">
        <ele>2062</ele>
        <time>2021-08-07T07:47:28.661Z</time>
      </trkpt>
      <trkpt lat="46.91835" lon="8.68573">
        <ele>2062</ele>
        <time>2021-08-07T07:47:29.661Z</time>
      </trkpt>
      <trkpt lat="46.91834" lon="8.68574">
        <ele>2062</ele>
        <time>2021-08-07T07:47:30.661Z</time>
      </trkpt>
      <trkpt lat="46.91833" lon="8.68574">
        <ele>2062</ele>
        <time>2021-08-07T07:47:31.660Z</time>
      </trkpt>
      <trkpt lat="46.91832" lon="8.68574">
        <ele>2062</ele>
        <time>2021-08-07T07:47:32.660Z</time>
      </trkpt>
      <trkpt lat="46.91831" lon="8.68574">
        <ele>2061</ele>
        <time>2021-08-07T07:47:33.661Z</time>
      </trkpt>
      <trkpt lat="46.9183" lon="8.68574">
        <ele>2061</ele>
        <time>2021-08-07T07:47:34.661Z</time>
      </trkpt>
      <trkpt lat="46.91829" lon="8.68574">
        <ele>2061</ele>
        <time>2021-08-07T07:47:35.661Z</time>
      </trkpt>
      <trkpt lat="46.91829" lon="8.68574">
        <ele>2060</ele>
        <time>2021-08-07T07:47:36.661Z</time>
      </trkpt>
      <trkpt lat="46.91828" lon="8.68575">
        <ele>2060</ele>
        <time>2021-08-07T07:47:37.660Z</time>
      </trkpt>
      <trkpt lat="46.91827" lon="8.68575">
        <ele>2060</ele>
        <time>2021-08-07T07:47:38.661Z</time>
      </trkpt>
      <trkpt lat="46.91827" lon="8.68576">
        <ele>2060</ele>
        <time>2021-08-07T07:47:39.661Z</time>
      </trkpt>
      <trkpt lat="46.91826" lon="8.68577">
        <ele>2060</ele>
        <time>2021-08-07T07:47:40.661Z</time>
      </trkpt>
      <trkpt lat="46.91826" lon="8.68578">
        <ele>2060</ele>
        <time>2021-08-07T07:47:41.660Z</time>
      </trkpt>
      <trkpt lat="46.91825" lon="8.68578">
        <ele>2060</ele>
        <time>2021-08-07T07:47:42.660Z</time>
      </trkpt>
      <trkpt lat="46.91824" lon="8.68578">
        <ele>2059</ele>
        <time>2021-08-07T07:47:43.661Z</time>
      </trkpt>
      <trkpt lat="46.91823" lon="8.68579">
        <ele>2058</ele>
        <time>2021-08-07T07:47:44.661Z</time>
      </trkpt>
      <trkpt lat="46.91822" lon="8.68579">
        <ele>2058</ele>
        <time>2021-08-07T07:47:45.661Z</time>
      </trkpt>
      <trkpt lat="46.91822" lon="8.6858">
        <ele>2058</ele>
        <time>2021-08-07T07:47:46.661Z</time>
      </trkpt>
      <trkpt lat="46.91821" lon="8.6858">
        <ele>2057</ele>
        <time>2021-08-07T07:47:47.661Z</time>
      </trkpt>
      <trkpt lat="46.91819" lon="8.6858">
        <ele>2058</ele>
        <time>2021-08-07T07:47:48.661Z</time>
      </trkpt>
      <trkpt lat="46.91819" lon="8.68581">
        <ele>2059</ele>
        <time>2021-08-07T07:47:49.661Z</time>
      </trkpt>
      <trkpt lat="46.91818" lon="8.68581">
        <ele>2060</ele>
        <time>2021-08-07T07:47:50.661Z</time>
      </trkpt>
      <trkpt lat="46.91817" lon="8.68581">
        <ele>2061</ele>
        <time>2021-08-07T07:47:51.661Z</time>
      </trkpt>
      <trkpt lat="46.91816" lon="8.68581">
        <ele>2061</ele>
        <time>2021-08-07T07:47:52.661Z</time>
      </trkpt>
      <trkpt lat="46.91816" lon="8.68581">
        <ele>2062</ele>
        <time>2021-08-07T07:47:53.661Z</time>
      </trkpt>
      <trkpt lat="46.91815" lon="8.68581">
        <ele>2063</ele>
        <time>2021-08-07T07:47:54.661Z</time>
      </trkpt>
      <trkpt lat="46.91813" lon="8.68581">
        <ele>2064</ele>
        <time>2021-08-07T07:47:55.660Z</time>
      </trkpt>
      <trkpt lat="46.91812" lon="8.68581">
        <ele>2064</ele>
        <time>2021-08-07T07:47:56.661Z</time>
      </trkpt>
      <trkpt lat="46.91812" lon="8.6858">
        <ele>2065</ele>
        <time>2021-08-07T07:47:57.661Z</time>
      </trkpt>
      <trkpt lat="46.91811" lon="8.68579">
        <ele>2065</ele>
        <time>2021-08-07T07:47:58.661Z</time>
      </trkpt>
      <trkpt lat="46.9181" lon="8.68579">
        <ele>2065</ele>
        <time>2021-08-07T07:47:59.661Z</time>
      </trkpt>
      <trkpt lat="46.91809" lon="8.68579">
        <ele>2066</ele>
        <time>2021-08-07T07:48:00.661Z</time>
      </trkpt>
      <trkpt lat="46.91809" lon="8.68579">
        <ele>2066</ele>
        <time>2021-08-07T07:48:01.661Z</time>
      </trkpt>
      <trkpt lat="46.91809" lon="8.68579">
        <ele>2066</ele>
        <time>2021-08-07T07:48:02.661Z</time>
      </trkpt>
      <trkpt lat="46.91808" lon="8.6858">
        <ele>2066</ele>
        <time>2021-08-07T07:48:03.660Z</time>
      </trkpt>
      <trkpt lat="46.91807" lon="8.6858">
        <ele>2066</ele>
        <time>2021-08-07T07:48:04.660Z</time>
      </trkpt>
      <trkpt lat="46.91807" lon="8.6858">
        <ele>2066</ele>
        <time>2021-08-07T07:48:05.661Z</time>
      </trkpt>
      <trkpt lat="46.91806" lon="8.6858">
        <ele>2066</ele>
        <time>2021-08-07T07:48:06.660Z</time>
      </trkpt>
      <trkpt lat="46.91806" lon="8.6858">
        <ele>2066</ele>
        <time>2021-08-07T07:48:07.661Z</time>
      </trkpt>
      <trkpt lat="46.91805" lon="8.6858">
        <ele>2066</ele>
        <time>2021-08-07T07:48:08.660Z</time>
      </trkpt>
      <trkpt lat="46.91805" lon="8.6858">
        <ele>2066</ele>
        <time>2021-08-07T07:48:09.660Z</time>
      </trkpt>
      <trkpt lat="46.91804" lon="8.6858">
        <ele>2066</ele>
        <time>2021-08-07T07:48:10.660Z</time>
      </trkpt>
      <trkpt lat="46.91804" lon="8.68581">
        <ele>2066</ele>
        <time>2021-08-07T07:48:11.660Z</time>
      </trkpt>
      <trkpt lat="46.91804" lon="8.68581">
        <ele>2066</ele>
        <time>2021-08-07T07:48:12.660Z</time>
      </trkpt>
      <trkpt lat="46.91804" lon="8.68582">
        <ele>2066</ele>
        <time>2021-08-07T07:48:13.661Z</time>
      </trkpt>
      <trkpt lat="46.91804" lon="8.68581">
        <ele>2066</ele>
        <time>2021-08-07T07:48:14.661Z</time>
      </trkpt>
      <trkpt lat="46.91803" lon="8.68579">
        <ele>2065</ele>
        <time>2021-08-07T07:48:15.661Z</time>
      </trkpt>
      <trkpt lat="46.91803" lon="8.68579">
        <ele>2064</ele>
        <time>2021-08-07T07:48:16.660Z</time>
      </trkpt>
      <trkpt lat="46.91802" lon="8.68578">
        <ele>2064</ele>
        <time>2021-08-07T07:48:17.661Z</time>
      </trkpt>
      <trkpt lat="46.91802" lon="8.68578">
        <ele>2064</ele>
        <time>2021-08-07T07:48:18.661Z</time>
      </trkpt>
      <trkpt lat="46.91801" lon="8.68577">
        <ele>2064</ele>
        <time>2021-08-07T07:48:19.661Z</time>
      </trkpt>
      <trkpt lat="46.918" lon="8.68576">
        <ele>2065</ele>
        <time>2021-08-07T07:48:20.661Z</time>
      </trkpt>
      <trkpt lat="46.91799" lon="8.68576">
        <ele>2065</ele>
        <time>2021-08-07T07:48:21.661Z</time>
      </trkpt>
      <trkpt lat="46.91798" lon="8.68576">
        <ele>2065</ele>
        <time>2021-08-07T07:48:22.661Z</time>
      </trkpt>
      <trkpt lat="46.91796" lon="8.68576">
        <ele>2065</ele>
        <time>2021-08-07T07:48:23.661Z</time>
      </trkpt>
      <trkpt lat="46.91796" lon="8.68576">
        <ele>2065</ele>
        <time>2021-08-07T07:48:24.661Z</time>
      </trkpt>
      <trkpt lat="46.91795" lon="8.68575">
        <ele>2066</ele>
        <time>2021-08-07T07:48:25.661Z</time>
      </trkpt>
      <trkpt lat="46.91794" lon="8.68575">
        <ele>2066</ele>
        <time>2021-08-07T07:48:26.661Z</time>
      </trkpt>
      <trkpt lat="46.91793" lon="8.68575">
        <ele>2067</ele>
        <time>2021-08-07T07:48:27.661Z</time>
      </trkpt>
      <trkpt lat="46.91793" lon="8.68573">
        <ele>2067</ele>
        <time>2021-08-07T07:48:28.660Z</time>
      </trkpt>
      <trkpt lat="46.91791" lon="8.68572">
        <ele>2067</ele>
        <time>2021-08-07T07:48:29.660Z</time>
      </trkpt>
      <trkpt lat="46.9179" lon="8.68572">
        <ele>2067</ele>
        <time>2021-08-07T07:48:30.660Z</time>
      </trkpt>
      <trkpt lat="46.91789" lon="8.68571">
        <ele>2068</ele>
        <time>2021-08-07T07:48:31.661Z</time>
      </trkpt>
      <trkpt lat="46.91788" lon="8.6857">
        <ele>2068</ele>
        <time>2021-08-07T07:48:32.661Z</time>
      </trkpt>
      <trkpt lat="46.91787" lon="8.68569">
        <ele>2068</ele>
        <time>2021-08-07T07:48:33.660Z</time>
      </trkpt>
      <trkpt lat="46.91786" lon="8.68568">
        <ele>2068</ele>
        <time>2021-08-07T07:48:34.661Z</time>
      </trkpt>
      <trkpt lat="46.91784" lon="8.68568">
        <ele>2068</ele>
        <time>2021-08-07T07:48:35.661Z</time>
      </trkpt>
      <trkpt lat="46.91784" lon="8.68567">
        <ele>2068</ele>
        <time>2021-08-07T07:48:36.661Z</time>
      </trkpt>
      <trkpt lat="46.91783" lon="8.68567">
        <ele>2068</ele>
        <time>2021-08-07T07:48:37.661Z</time>
      </trkpt>
      <trkpt lat="46.91782" lon="8.68567">
        <ele>2068</ele>
        <time>2021-08-07T07:48:38.661Z</time>
      </trkpt>
      <trkpt lat="46.91781" lon="8.68566">
        <ele>2068</ele>
        <time>2021-08-07T07:48:39.660Z</time>
      </trkpt>
      <trkpt lat="46.9178" lon="8.68565">
        <ele>2068</ele>
        <time>2021-08-07T07:48:40.661Z</time>
      </trkpt>
      <trkpt lat="46.9178" lon="8.68564">
        <ele>2068</ele>
        <time>2021-08-07T07:48:41.661Z</time>
      </trkpt>
      <trkpt lat="46.91779" lon="8.68564">
        <ele>2068</ele>
        <time>2021-08-07T07:48:42.661Z</time>
      </trkpt>
      <trkpt lat="46.91778" lon="8.68563">
        <ele>2069</ele>
        <time>2021-08-07T07:48:43.660Z</time>
      </trkpt>
      <trkpt lat="46.91777" lon="8.68562">
        <ele>2069</ele>
        <time>2021-08-07T07:48:44.661Z</time>
      </trkpt>
      <trkpt lat="46.91776" lon="8.68561">
        <ele>2070</ele>
        <time>2021-08-07T07:48:45.661Z</time>
      </trkpt>
      <trkpt lat="46.91775" lon="8.68561">
        <ele>2070</ele>
        <time>2021-08-07T07:48:46.661Z</time>
      </trkpt>
      <trkpt lat="46.91774" lon="8.68562">
        <ele>2071</ele>
        <time>2021-08-07T07:48:47.660Z</time>
      </trkpt>
      <trkpt lat="46.91774" lon="8.68563">
        <ele>2072</ele>
        <time>2021-08-07T07:48:48.660Z</time>
      </trkpt>
      <trkpt lat="46.91773" lon="8.68563">
        <ele>2072</ele>
        <time>2021-08-07T07:48:49.660Z</time>
      </trkpt>
      <trkpt lat="46.91773" lon="8.68563">
        <ele>2073</ele>
        <time>2021-08-07T07:48:50.661Z</time>
      </trkpt>
      <trkpt lat="46.91771" lon="8.68562">
        <ele>2073</ele>
        <time>2021-08-07T07:48:51.661Z</time>
      </trkpt>
      <trkpt lat="46.9177" lon="8.68562">
        <ele>2073</ele>
        <time>2021-08-07T07:48:52.661Z</time>
      </trkpt>
      <trkpt lat="46.91769" lon="8.68562">
        <ele>2073</ele>
        <time>2021-08-07T07:48:53.661Z</time>
      </trkpt>
      <trkpt lat="46.91769" lon="8.68562">
        <ele>2072</ele>
        <time>2021-08-07T07:48:54.661Z</time>
      </trkpt>
      <trkpt lat="46.91768" lon="8.68561">
        <ele>2072</ele>
        <time>2021-08-07T07:48:55.661Z</time>
      </trkpt>
      <trkpt lat="46.91767" lon="8.68561">
        <ele>2072</ele>
        <time>2021-08-07T07:48:56.660Z</time>
      </trkpt>
      <trkpt lat="46.91767" lon="8.6856">
        <ele>2072</ele>
        <time>2021-08-07T07:48:57.660Z</time>
      </trkpt>
      <trkpt lat="46.91766" lon="8.68559">
        <ele>2073</ele>
        <time>2021-08-07T07:48:58.661Z</time>
      </trkpt>
      <trkpt lat="46.91765" lon="8.68558">
        <ele>2073</ele>
        <time>2021-08-07T07:48:59.660Z</time>
      </trkpt>
      <trkpt lat="46.91764" lon="8.68557">
        <ele>2073</ele>
        <time>2021-08-07T07:49:00.661Z</time>
      </trkpt>
      <trkpt lat="46.91763" lon="8.68556">
        <ele>2073</ele>
        <time>2021-08-07T07:49:01.660Z</time>
      </trkpt>
      <trkpt lat="46.91762" lon="8.68555">
        <ele>2074</ele>
        <time>2021-08-07T07:49:02.661Z</time>
      </trkpt>
      <trkpt lat="46.91762" lon="8.68554">
        <ele>2074</ele>
        <time>2021-08-07T07:49:03.661Z</time>
      </trkpt>
      <trkpt lat="46.9176" lon="8.68554">
        <ele>2074</ele>
        <time>2021-08-07T07:49:04.661Z</time>
      </trkpt>
      <trkpt lat="46.9176" lon="8.68553">
        <ele>2074</ele>
        <time>2021-08-07T07:49:05.661Z</time>
      </trkpt>
      <trkpt lat="46.91759" lon="8.68553">
        <ele>2074</ele>
        <time>2021-08-07T07:49:06.661Z</time>
      </trkpt>
      <trkpt lat="46.91757" lon="8.68552">
        <ele>2074</ele>
        <time>2021-08-07T07:49:07.661Z</time>
      </trkpt>
      <trkpt lat="46.91756" lon="8.68551">
        <ele>2074</ele>
        <time>2021-08-07T07:49:08.661Z</time>
      </trkpt>
      <trkpt lat="46.91755" lon="8.6855">
        <ele>2075</ele>
        <time>2021-08-07T07:49:09.661Z</time>
      </trkpt>
      <trkpt lat="46.91754" lon="8.6855">
        <ele>2075</ele>
        <time>2021-08-07T07:49:10.660Z</time>
      </trkpt>
      <trkpt lat="46.91753" lon="8.68549">
        <ele>2075</ele>
        <time>2021-08-07T07:49:11.660Z</time>
      </trkpt>
      <trkpt lat="46.91752" lon="8.68549">
        <ele>2076</ele>
        <time>2021-08-07T07:49:12.661Z</time>
      </trkpt>
      <trkpt lat="46.91751" lon="8.68548">
        <ele>2076</ele>
        <time>2021-08-07T07:49:13.660Z</time>
      </trkpt>
      <trkpt lat="46.9175" lon="8.68548">
        <ele>2076</ele>
        <time>2021-08-07T07:49:14.661Z</time>
      </trkpt>
      <trkpt lat="46.91749" lon="8.68548">
        <ele>2076</ele>
        <time>2021-08-07T07:49:15.661Z</time>
      </trkpt>
      <trkpt lat="46.91748" lon="8.68547">
        <ele>2076</ele>
        <time>2021-08-07T07:49:16.660Z</time>
      </trkpt>
      <trkpt lat="46.91747" lon="8.68547">
        <ele>2076</ele>
        <time>2021-08-07T07:49:17.660Z</time>
      </trkpt>
      <trkpt lat="46.91746" lon="8.68546">
        <ele>2077</ele>
        <time>2021-08-07T07:49:18.661Z</time>
      </trkpt>
      <trkpt lat="46.91745" lon="8.68545">
        <ele>2077</ele>
        <time>2021-08-07T07:49:19.661Z</time>
      </trkpt>
      <trkpt lat="46.91745" lon="8.68544">
        <ele>2078</ele>
        <time>2021-08-07T07:49:20.661Z</time>
      </trkpt>
      <trkpt lat="46.91744" lon="8.68544">
        <ele>2077</ele>
        <time>2021-08-07T07:49:21.661Z</time>
      </trkpt>
      <trkpt lat="46.91744" lon="8.68544">
        <ele>2077</ele>
        <time>2021-08-07T07:49:22.661Z</time>
      </trkpt>
      <trkpt lat="46.91743" lon="8.68543">
        <ele>2077</ele>
        <time>2021-08-07T07:49:23.661Z</time>
      </trkpt>
      <trkpt lat="46.91742" lon="8.68543">
        <ele>2078</ele>
        <time>2021-08-07T07:49:24.661Z</time>
      </trkpt>
      <trkpt lat="46.91742" lon="8.68543">
        <ele>2078</ele>
        <time>2021-08-07T07:49:25.661Z</time>
      </trkpt>
      <trkpt lat="46.91742" lon="8.68543">
        <ele>2078</ele>
        <time>2021-08-07T07:49:26.661Z</time>
      </trkpt>
      <trkpt lat="46.91742" lon="8.68543">
        <ele>2079</ele>
        <time>2021-08-07T07:49:27.661Z</time>
      </trkpt>
      <trkpt lat="46.91742" lon="8.68544">
        <ele>2079</ele>
        <time>2021-08-07T07:49:28.660Z</time>
      </trkpt>
      <trkpt lat="46.91746" lon="8.68552">
        <ele>2091</ele>
        <time>2021-08-07T07:49:29.661Z</time>
      </trkpt>
      <trkpt lat="46.91746" lon="8.68552">
        <ele>2091</ele>
        <time>2021-08-07T07:49:30.662Z</time>
      </trkpt>
      <trkpt lat="46.91746" lon="8.68552">
        <ele>2090</ele>
        <time>2021-08-07T07:49:31.661Z</time>
      </trkpt>
      <trkpt lat="46.91747" lon="8.68549">
        <ele>2086</ele>
        <time>2021-08-07T07:49:32.663Z</time>
      </trkpt>
      <trkpt lat="46.91746" lon="8.6855">
        <ele>2088</ele>
        <time>2021-08-07T07:49:33.663Z</time>
      </trkpt>
      <trkpt lat="46.91745" lon="8.6855">
        <ele>2088</ele>
        <time>2021-08-07T07:49:34.662Z</time>
      </trkpt>
      <trkpt lat="46.91745" lon="8.68551">
        <ele>2087</ele>
        <time>2021-08-07T07:49:35.662Z</time>
      </trkpt>
      <trkpt lat="46.91744" lon="8.68552">
        <ele>2087</ele>
        <time>2021-08-07T07:49:36.662Z</time>
      </trkpt>
      <trkpt lat="46.91743" lon="8.68554">
        <ele>2088</ele>
        <time>2021-08-07T07:49:37.662Z</time>
      </trkpt>
      <trkpt lat="46.91742" lon="8.68555">
        <ele>2088</ele>
        <time>2021-08-07T07:49:38.662Z</time>
      </trkpt>
      <trkpt lat="46.91742" lon="8.68557">
        <ele>2088</ele>
        <time>2021-08-07T07:49:39.662Z</time>
      </trkpt>
      <trkpt lat="46.91741" lon="8.68558">
        <ele>2088</ele>
        <time>2021-08-07T07:49:40.662Z</time>
      </trkpt>
      <trkpt lat="46.9174" lon="8.68559">
        <ele>2088</ele>
        <time>2021-08-07T07:49:41.662Z</time>
      </trkpt>
      <trkpt lat="46.91739" lon="8.6856">
        <ele>2087</ele>
        <time>2021-08-07T07:49:42.662Z</time>
      </trkpt>
      <trkpt lat="46.91738" lon="8.68561">
        <ele>2087</ele>
        <time>2021-08-07T07:49:43.662Z</time>
      </trkpt>
      <trkpt lat="46.91738" lon="8.68561">
        <ele>2086</ele>
        <time>2021-08-07T07:49:44.663Z</time>
      </trkpt>
      <trkpt lat="46.91737" lon="8.68562">
        <ele>2086</ele>
        <time>2021-08-07T07:49:45.662Z</time>
      </trkpt>
      <trkpt lat="46.91736" lon="8.68563">
        <ele>2086</ele>
        <time>2021-08-07T07:49:46.663Z</time>
      </trkpt>
      <trkpt lat="46.91735" lon="8.68563">
        <ele>2086</ele>
        <time>2021-08-07T07:49:47.663Z</time>
      </trkpt>
      <trkpt lat="46.91734" lon="8.68565">
        <ele>2085</ele>
        <time>2021-08-07T07:49:48.663Z</time>
      </trkpt>
      <trkpt lat="46.91734" lon="8.68566">
        <ele>2085</ele>
        <time>2021-08-07T07:49:49.663Z</time>
      </trkpt>
      <trkpt lat="46.91734" lon="8.68567">
        <ele>2085</ele>
        <time>2021-08-07T07:49:50.663Z</time>
      </trkpt>
      <trkpt lat="46.91733" lon="8.68568">
        <ele>2085</ele>
        <time>2021-08-07T07:49:51.663Z</time>
      </trkpt>
      <trkpt lat="46.91732" lon="8.68569">
        <ele>2085</ele>
        <time>2021-08-07T07:49:52.662Z</time>
      </trkpt>
      <trkpt lat="46.91731" lon="8.6857">
        <ele>2085</ele>
        <time>2021-08-07T07:49:53.663Z</time>
      </trkpt>
      <trkpt lat="46.91731" lon="8.68572">
        <ele>2085</ele>
        <time>2021-08-07T07:49:54.662Z</time>
      </trkpt>
      <trkpt lat="46.9173" lon="8.68574">
        <ele>2085</ele>
        <time>2021-08-07T07:49:55.663Z</time>
      </trkpt>
      <trkpt lat="46.9173" lon="8.68575">
        <ele>2085</ele>
        <time>2021-08-07T07:49:56.662Z</time>
      </trkpt>
      <trkpt lat="46.91729" lon="8.68576">
        <ele>2084</ele>
        <time>2021-08-07T07:49:57.663Z</time>
      </trkpt>
      <trkpt lat="46.91729" lon="8.68577">
        <ele>2084</ele>
        <time>2021-08-07T07:49:58.662Z</time>
      </trkpt>
      <trkpt lat="46.91728" lon="8.68578">
        <ele>2085</ele>
        <time>2021-08-07T07:49:59.663Z</time>
      </trkpt>
      <trkpt lat="46.91728" lon="8.68579">
        <ele>2084</ele>
        <time>2021-08-07T07:50:00.662Z</time>
      </trkpt>
      <trkpt lat="46.91727" lon="8.6858">
        <ele>2084</ele>
        <time>2021-08-07T07:50:01.662Z</time>
      </trkpt>
      <trkpt lat="46.91726" lon="8.68581">
        <ele>2084</ele>
        <time>2021-08-07T07:50:02.663Z</time>
      </trkpt>
      <trkpt lat="46.91725" lon="8.68582">
        <ele>2084</ele>
        <time>2021-08-07T07:50:03.663Z</time>
      </trkpt>
      <trkpt lat="46.91724" lon="8.68583">
        <ele>2085</ele>
        <time>2021-08-07T07:50:04.663Z</time>
      </trkpt>
      <trkpt lat="46.91723" lon="8.68585">
        <ele>2085</ele>
        <time>2021-08-07T07:50:05.662Z</time>
      </trkpt>
      <trkpt lat="46.91722" lon="8.68587">
        <ele>2086</ele>
        <time>2021-08-07T07:50:06.662Z</time>
      </trkpt>
      <trkpt lat="46.91721" lon="8.68588">
        <ele>2086</ele>
        <time>2021-08-07T07:50:07.662Z</time>
      </trkpt>
      <trkpt lat="46.91721" lon="8.68589">
        <ele>2086</ele>
        <time>2021-08-07T07:50:08.663Z</time>
      </trkpt>
      <trkpt lat="46.9172" lon="8.68591">
        <ele>2087</ele>
        <time>2021-08-07T07:50:09.663Z</time>
      </trkpt>
      <trkpt lat="46.9172" lon="8.68591">
        <ele>2087</ele>
        <time>2021-08-07T07:50:10.663Z</time>
      </trkpt>
      <trkpt lat="46.91719" lon="8.68593">
        <ele>2087</ele>
        <time>2021-08-07T07:50:11.663Z</time>
      </trkpt>
      <trkpt lat="46.91718" lon="8.68594">
        <ele>2087</ele>
        <time>2021-08-07T07:50:12.663Z</time>
      </trkpt>
      <trkpt lat="46.91718" lon="8.68595">
        <ele>2087</ele>
        <time>2021-08-07T07:50:13.663Z</time>
      </trkpt>
      <trkpt lat="46.91717" lon="8.68597">
        <ele>2087</ele>
        <time>2021-08-07T07:50:14.663Z</time>
      </trkpt>
      <trkpt lat="46.91717" lon="8.68598">
        <ele>2087</ele>
        <time>2021-08-07T07:50:15.662Z</time>
      </trkpt>
      <trkpt lat="46.91716" lon="8.686">
        <ele>2086</ele>
        <time>2021-08-07T07:50:16.663Z</time>
      </trkpt>
      <trkpt lat="46.91716" lon="8.68602">
        <ele>2086</ele>
        <time>2021-08-07T07:50:17.663Z</time>
      </trkpt>
      <trkpt lat="46.91716" lon="8.68604">
        <ele>2086</ele>
        <time>2021-08-07T07:50:18.662Z</time>
      </trkpt>
      <trkpt lat="46.91716" lon="8.68605">
        <ele>2086</ele>
        <time>2021-08-07T07:50:19.662Z</time>
      </trkpt>
      <trkpt lat="46.91716" lon="8.68606">
        <ele>2086</ele>
        <time>2021-08-07T07:50:20.663Z</time>
      </trkpt>
      <trkpt lat="46.91716" lon="8.68608">
        <ele>2086</ele>
        <time>2021-08-07T07:50:21.662Z</time>
      </trkpt>
      <trkpt lat="46.91716" lon="8.68609">
        <ele>2086</ele>
        <time>2021-08-07T07:50:22.662Z</time>
      </trkpt>
      <trkpt lat="46.91716" lon="8.68611">
        <ele>2086</ele>
        <time>2021-08-07T07:50:23.662Z</time>
      </trkpt>
      <trkpt lat="46.91716" lon="8.68612">
        <ele>2087</ele>
        <time>2021-08-07T07:50:24.663Z</time>
      </trkpt>
      <trkpt lat="46.91716" lon="8.68614">
        <ele>2087</ele>
        <time>2021-08-07T07:50:25.662Z</time>
      </trkpt>
      <trkpt lat="46.91716" lon="8.68615">
        <ele>2087</ele>
        <time>2021-08-07T07:50:26.663Z</time>
      </trkpt>
      <trkpt lat="46.91715" lon="8.68616">
        <ele>2087</ele>
        <time>2021-08-07T07:50:27.662Z</time>
      </trkpt>
      <trkpt lat="46.91716" lon="8.68618">
        <ele>2086</ele>
        <time>2021-08-07T07:50:28.663Z</time>
      </trkpt>
      <trkpt lat="46.91716" lon="8.68619">
        <ele>2086</ele>
        <time>2021-08-07T07:50:29.663Z</time>
      </trkpt>
      <trkpt lat="46.91716" lon="8.68621">
        <ele>2086</ele>
        <time>2021-08-07T07:50:30.662Z</time>
      </trkpt>
      <trkpt lat="46.91715" lon="8.68622">
        <ele>2086</ele>
        <time>2021-08-07T07:50:31.663Z</time>
      </trkpt>
      <trkpt lat="46.91715" lon="8.68623">
        <ele>2086</ele>
        <time>2021-08-07T07:50:32.662Z</time>
      </trkpt>
      <trkpt lat="46.91715" lon="8.68624">
        <ele>2086</ele>
        <time>2021-08-07T07:50:33.663Z</time>
      </trkpt>
      <trkpt lat="46.91715" lon="8.68626">
        <ele>2087</ele>
        <time>2021-08-07T07:50:34.663Z</time>
      </trkpt>
      <trkpt lat="46.91714" lon="8.68627">
        <ele>2087</ele>
        <time>2021-08-07T07:50:35.663Z</time>
      </trkpt>
      <trkpt lat="46.91714" lon="8.68628">
        <ele>2087</ele>
        <time>2021-08-07T07:50:36.662Z</time>
      </trkpt>
      <trkpt lat="46.91714" lon="8.6863">
        <ele>2086</ele>
        <time>2021-08-07T07:50:37.663Z</time>
      </trkpt>
      <trkpt lat="46.91713" lon="8.68631">
        <ele>2086</ele>
        <time>2021-08-07T07:50:38.663Z</time>
      </trkpt>
      <trkpt lat="46.91712" lon="8.68631">
        <ele>2085</ele>
        <time>2021-08-07T07:50:39.663Z</time>
      </trkpt>
      <trkpt lat="46.91711" lon="8.68632">
        <ele>2085</ele>
        <time>2021-08-07T07:50:40.662Z</time>
      </trkpt>
      <trkpt lat="46.9171" lon="8.68633">
        <ele>2085</ele>
        <time>2021-08-07T07:50:41.663Z</time>
      </trkpt>
      <trkpt lat="46.9171" lon="8.68634">
        <ele>2085</ele>
        <time>2021-08-07T07:50:42.662Z</time>
      </trkpt>
      <trkpt lat="46.91709" lon="8.68634">
        <ele>2084</ele>
        <time>2021-08-07T07:50:43.663Z</time>
      </trkpt>
      <trkpt lat="46.91708" lon="8.68634">
        <ele>2084</ele>
        <time>2021-08-07T07:50:44.663Z</time>
      </trkpt>
      <trkpt lat="46.91707" lon="8.68634">
        <ele>2084</ele>
        <time>2021-08-07T07:50:45.663Z</time>
      </trkpt>
      <trkpt lat="46.91706" lon="8.68634">
        <ele>2084</ele>
        <time>2021-08-07T07:50:46.663Z</time>
      </trkpt>
      <trkpt lat="46.91706" lon="8.68633">
        <ele>2084</ele>
        <time>2021-08-07T07:50:47.663Z</time>
      </trkpt>
      <trkpt lat="46.91705" lon="8.68632">
        <ele>2084</ele>
        <time>2021-08-07T07:50:48.663Z</time>
      </trkpt>
      <trkpt lat="46.91705" lon="8.68631">
        <ele>2083</ele>
        <time>2021-08-07T07:50:49.663Z</time>
      </trkpt>
      <trkpt lat="46.91704" lon="8.6863">
        <ele>2084</ele>
        <time>2021-08-07T07:50:50.662Z</time>
      </trkpt>
      <trkpt lat="46.91703" lon="8.68629">
        <ele>2084</ele>
        <time>2021-08-07T07:50:51.663Z</time>
      </trkpt>
      <trkpt lat="46.91702" lon="8.68629">
        <ele>2084</ele>
        <time>2021-08-07T07:50:52.662Z</time>
      </trkpt>
      <trkpt lat="46.91702" lon="8.68629">
        <ele>2084</ele>
        <time>2021-08-07T07:50:53.662Z</time>
      </trkpt>
      <trkpt lat="46.91703" lon="8.68629">
        <ele>2084</ele>
        <time>2021-08-07T07:50:54.663Z</time>
      </trkpt>
      <trkpt lat="46.91703" lon="8.68624">
        <ele>2084</ele>
        <time>2021-08-07T07:50:55.663Z</time>
      </trkpt>
      <trkpt lat="46.91703" lon="8.68625">
        <ele>2084</ele>
        <time>2021-08-07T07:50:56.662Z</time>
      </trkpt>
      <trkpt lat="46.91703" lon="8.68625">
        <ele>2084</ele>
        <time>2021-08-07T07:50:57.663Z</time>
      </trkpt>
      <trkpt lat="46.91703" lon="8.68624">
        <ele>2085</ele>
        <time>2021-08-07T07:50:58.663Z</time>
      </trkpt>
      <trkpt lat="46.91703" lon="8.68625">
        <ele>2085</ele>
        <time>2021-08-07T07:50:59.662Z</time>
      </trkpt>
      <trkpt lat="46.91703" lon="8.68625">
        <ele>2085</ele>
        <time>2021-08-07T07:51:00.663Z</time>
      </trkpt>
      <trkpt lat="46.91702" lon="8.68622">
        <ele>2087</ele>
        <time>2021-08-07T07:51:01.664Z</time>
      </trkpt>
      <trkpt lat="46.91703" lon="8.68622">
        <ele>2087</ele>
        <time>2021-08-07T07:51:02.665Z</time>
      </trkpt>
      <trkpt lat="46.91703" lon="8.68622">
        <ele>2087</ele>
        <time>2021-08-07T07:51:03.665Z</time>
      </trkpt>
      <trkpt lat="46.91703" lon="8.68622">
        <ele>2087</ele>
        <time>2021-08-07T07:51:04.664Z</time>
      </trkpt>
      <trkpt lat="46.91705" lon="8.68625">
        <ele>2086</ele>
        <time>2021-08-07T07:51:05.665Z</time>
      </trkpt>
      <trkpt lat="46.91705" lon="8.68625">
        <ele>2086</ele>
        <time>2021-08-07T07:51:06.664Z</time>
      </trkpt>
      <trkpt lat="46.91705" lon="8.68626">
        <ele>2087</ele>
        <time>2021-08-07T07:51:07.665Z</time>
      </trkpt>
      <trkpt lat="46.91705" lon="8.68626">
        <ele>2087</ele>
        <time>2021-08-07T07:51:08.665Z</time>
      </trkpt>
      <trkpt lat="46.91707" lon="8.68629">
        <ele>2085</ele>
        <time>2021-08-07T07:51:09.665Z</time>
      </trkpt>
      <trkpt lat="46.91707" lon="8.68629">
        <ele>2085</ele>
        <time>2021-08-07T07:51:10.665Z</time>
      </trkpt>
      <trkpt lat="46.91704" lon="8.68629">
        <ele>2086</ele>
        <time>2021-08-07T07:51:11.664Z</time>
      </trkpt>
      <trkpt lat="46.91704" lon="8.68629">
        <ele>2086</ele>
        <time>2021-08-07T07:51:12.664Z</time>
      </trkpt>
      <trkpt lat="46.91705" lon="8.68627">
        <ele>2083</ele>
        <time>2021-08-07T07:51:13.665Z</time>
      </trkpt>
      <trkpt lat="46.91704" lon="8.68626">
        <ele>2082</ele>
        <time>2021-08-07T07:51:14.665Z</time>
      </trkpt>
      <trkpt lat="46.91703" lon="8.68625">
        <ele>2082</ele>
        <time>2021-08-07T07:51:15.664Z</time>
      </trkpt>
      <trkpt lat="46.91702" lon="8.68624">
        <ele>2081</ele>
        <time>2021-08-07T07:51:16.665Z</time>
      </trkpt>
      <trkpt lat="46.91702" lon="8.68624">
        <ele>2080</ele>
        <time>2021-08-07T07:51:17.665Z</time>
      </trkpt>
      <trkpt lat="46.91702" lon="8.68624">
        <ele>2080</ele>
        <time>2021-08-07T07:51:18.665Z</time>
      </trkpt>
      <trkpt lat="46.91702" lon="8.68624">
        <ele>2079</ele>
        <time>2021-08-07T07:51:19.664Z</time>
      </trkpt>
      <trkpt lat="46.91703" lon="8.68624">
        <ele>2079</ele>
        <time>2021-08-07T07:51:20.665Z</time>
      </trkpt>
      <trkpt lat="46.9171" lon="8.68626">
        <ele>2083</ele>
        <time>2021-08-07T07:51:21.664Z</time>
      </trkpt>
      <trkpt lat="46.9171" lon="8.68626">
        <ele>2083</ele>
        <time>2021-08-07T07:51:22.664Z</time>
      </trkpt>
      <trkpt lat="46.91709" lon="8.68625">
        <ele>2083</ele>
        <time>2021-08-07T07:51:23.664Z</time>
      </trkpt>
      <trkpt lat="46.91704" lon="8.68626">
        <ele>2080</ele>
        <time>2021-08-07T07:51:24.665Z</time>
      </trkpt>
      <trkpt lat="46.91704" lon="8.68626">
        <ele>2081</ele>
        <time>2021-08-07T07:51:25.664Z</time>
      </trkpt>
      <trkpt lat="46.91704" lon="8.68622">
        <ele>2080</ele>
        <time>2021-08-07T07:51:26.666Z</time>
      </trkpt>
      <trkpt lat="46.91704" lon="8.68623">
        <ele>2080</ele>
        <time>2021-08-07T07:51:27.666Z</time>
      </trkpt>
      <trkpt lat="46.91705" lon="8.68623">
        <ele>2080</ele>
        <time>2021-08-07T07:51:28.665Z</time>
      </trkpt>
      <trkpt lat="46.91705" lon="8.68624">
        <ele>2080</ele>
        <time>2021-08-07T07:51:29.665Z</time>
      </trkpt>
      <trkpt lat="46.91705" lon="8.68624">
        <ele>2081</ele>
        <time>2021-08-07T07:51:30.666Z</time>
      </trkpt>
      <trkpt lat="46.91705" lon="8.68624">
        <ele>2081</ele>
        <time>2021-08-07T07:51:31.667Z</time>
      </trkpt>
      <trkpt lat="46.91705" lon="8.68624">
        <ele>2081</ele>
        <time>2021-08-07T07:51:32.667Z</time>
      </trkpt>
      <trkpt lat="46.91704" lon="8.68625">
        <ele>2079</ele>
        <time>2021-08-07T07:51:33.667Z</time>
      </trkpt>
      <trkpt lat="46.91704" lon="8.68625">
        <ele>2079</ele>
        <time>2021-08-07T07:51:34.666Z</time>
      </trkpt>
      <trkpt lat="46.91705" lon="8.68625">
        <ele>2078</ele>
        <time>2021-08-07T07:51:35.666Z</time>
      </trkpt>
      <trkpt lat="46.91706" lon="8.68625">
        <ele>2077</ele>
        <time>2021-08-07T07:51:36.668Z</time>
      </trkpt>
      <trkpt lat="46.91706" lon="8.68625">
        <ele>2077</ele>
        <time>2021-08-07T07:51:37.669Z</time>
      </trkpt>
      <trkpt lat="46.91705" lon="8.68624">
        <ele>2079</ele>
        <time>2021-08-07T07:51:38.670Z</time>
      </trkpt>
      <trkpt lat="46.91704" lon="8.68625">
        <ele>2080</ele>
        <time>2021-08-07T07:51:39.670Z</time>
      </trkpt>
      <trkpt lat="46.91704" lon="8.68625">
        <ele>2080</ele>
        <time>2021-08-07T07:51:40.669Z</time>
      </trkpt>
      <trkpt lat="46.91705" lon="8.68625">
        <ele>2080</ele>
        <time>2021-08-07T07:51:41.670Z</time>
      </trkpt>
      <trkpt lat="46.91705" lon="8.68625">
        <ele>2080</ele>
        <time>2021-08-07T07:51:42.670Z</time>
      </trkpt>
      <trkpt lat="46.91705" lon="8.68627">
        <ele>2080</ele>
        <time>2021-08-07T07:51:43.671Z</time>
      </trkpt>
      <trkpt lat="46.91705" lon="8.68627">
        <ele>2079</ele>
        <time>2021-08-07T07:51:44.670Z</time>
      </trkpt>
      <trkpt lat="46.91704" lon="8.68626">
        <ele>2079</ele>
        <time>2021-08-07T07:51:45.671Z</time>
      </trkpt>
      <trkpt lat="46.91705" lon="8.68626">
        <ele>2079</ele>
        <time>2021-08-07T07:51:46.672Z</time>
      </trkpt>
      <trkpt lat="46.91705" lon="8.68626">
        <ele>2079</ele>
        <time>2021-08-07T07:51:47.672Z</time>
      </trkpt>
      <trkpt lat="46.91705" lon="8.68625">
        <ele>2079</ele>
        <time>2021-08-07T07:51:48.671Z</time>
      </trkpt>
      <trkpt lat="46.91705" lon="8.68626">
        <ele>2079</ele>
        <time>2021-08-07T07:51:49.671Z</time>
      </trkpt>
      <trkpt lat="46.91706" lon="8.68626">
        <ele>2079</ele>
        <time>2021-08-07T07:51:50.673Z</time>
      </trkpt>
      <trkpt lat="46.91707" lon="8.68626">
        <ele>2079</ele>
        <time>2021-08-07T07:51:51.673Z</time>
      </trkpt>
      <trkpt lat="46.91708" lon="8.68625">
        <ele>2079</ele>
        <time>2021-08-07T07:51:52.672Z</time>
      </trkpt>
      <trkpt lat="46.91708" lon="8.68623">
        <ele>2079</ele>
        <time>2021-08-07T07:51:53.672Z</time>
      </trkpt>
      <trkpt lat="46.91709" lon="8.68622">
        <ele>2079</ele>
        <time>2021-08-07T07:51:54.672Z</time>
      </trkpt>
      <trkpt lat="46.91709" lon="8.6862">
        <ele>2079</ele>
        <time>2021-08-07T07:51:55.673Z</time>
      </trkpt>
      <trkpt lat="46.91709" lon="8.68618">
        <ele>2079</ele>
        <time>2021-08-07T07:51:56.673Z</time>
      </trkpt>
      <trkpt lat="46.91709" lon="8.68616">
        <ele>2080</ele>
        <time>2021-08-07T07:51:57.672Z</time>
      </trkpt>
      <trkpt lat="46.91709" lon="8.68615">
        <ele>2080</ele>
        <time>2021-08-07T07:51:58.672Z</time>
      </trkpt>
      <trkpt lat="46.91709" lon="8.68614">
        <ele>2080</ele>
        <time>2021-08-07T07:51:59.672Z</time>
      </trkpt>
      <trkpt lat="46.91709" lon="8.68612">
        <ele>2080</ele>
        <time>2021-08-07T07:52:00.672Z</time>
      </trkpt>
      <trkpt lat="46.91709" lon="8.68611">
        <ele>2080</ele>
        <time>2021-08-07T07:52:01.673Z</time>
      </trkpt>
      <trkpt lat="46.91709" lon="8.6861">
        <ele>2080</ele>
        <time>2021-08-07T07:52:02.673Z</time>
      </trkpt>
      <trkpt lat="46.9171" lon="8.68608">
        <ele>2080</ele>
        <time>2021-08-07T07:52:03.673Z</time>
      </trkpt>
      <trkpt lat="46.91711" lon="8.68607">
        <ele>2080</ele>
        <time>2021-08-07T07:52:04.672Z</time>
      </trkpt>
      <trkpt lat="46.91712" lon="8.68605">
        <ele>2080</ele>
        <time>2021-08-07T07:52:05.673Z</time>
      </trkpt>
      <trkpt lat="46.91712" lon="8.68604">
        <ele>2080</ele>
        <time>2021-08-07T07:52:06.672Z</time>
      </trkpt>
      <trkpt lat="46.91713" lon="8.68603">
        <ele>2080</ele>
        <time>2021-08-07T07:52:07.673Z</time>
      </trkpt>
      <trkpt lat="46.91713" lon="8.68601">
        <ele>2080</ele>
        <time>2021-08-07T07:52:08.673Z</time>
      </trkpt>
      <trkpt lat="46.91714" lon="8.686">
        <ele>2079</ele>
        <time>2021-08-07T07:52:09.673Z</time>
      </trkpt>
      <trkpt lat="46.91715" lon="8.68599">
        <ele>2079</ele>
        <time>2021-08-07T07:52:10.672Z</time>
      </trkpt>
      <trkpt lat="46.91715" lon="8.68598">
        <ele>2079</ele>
        <time>2021-08-07T07:52:11.673Z</time>
      </trkpt>
      <trkpt lat="46.91715" lon="8.68597">
        <ele>2079</ele>
        <time>2021-08-07T07:52:12.673Z</time>
      </trkpt>
      <trkpt lat="46.91715" lon="8.68596">
        <ele>2079</ele>
        <time>2021-08-07T07:52:13.672Z</time>
      </trkpt>
      <trkpt lat="46.91715" lon="8.68594">
        <ele>2079</ele>
        <time>2021-08-07T07:52:14.673Z</time>
      </trkpt>
      <trkpt lat="46.91716" lon="8.68593">
        <ele>2079</ele>
        <time>2021-08-07T07:52:15.673Z</time>
      </trkpt>
      <trkpt lat="46.91717" lon="8.68591">
        <ele>2080</ele>
        <time>2021-08-07T07:52:16.672Z</time>
      </trkpt>
      <trkpt lat="46.91717" lon="8.6859">
        <ele>2080</ele>
        <time>2021-08-07T07:52:17.673Z</time>
      </trkpt>
      <trkpt lat="46.91718" lon="8.68589">
        <ele>2080</ele>
        <time>2021-08-07T07:52:18.673Z</time>
      </trkpt>
      <trkpt lat="46.91719" lon="8.68587">
        <ele>2080</ele>
        <time>2021-08-07T07:52:19.673Z</time>
      </trkpt>
      <trkpt lat="46.91719" lon="8.68586">
        <ele>2081</ele>
        <time>2021-08-07T07:52:20.673Z</time>
      </trkpt>
      <trkpt lat="46.9172" lon="8.68584">
        <ele>2081</ele>
        <time>2021-08-07T07:52:21.672Z</time>
      </trkpt>
      <trkpt lat="46.9172" lon="8.68583">
        <ele>2082</ele>
        <time>2021-08-07T07:52:22.673Z</time>
      </trkpt>
      <trkpt lat="46.91721" lon="8.68582">
        <ele>2083</ele>
        <time>2021-08-07T07:52:23.673Z</time>
      </trkpt>
      <trkpt lat="46.91722" lon="8.68581">
        <ele>2084</ele>
        <time>2021-08-07T07:52:24.673Z</time>
      </trkpt>
      <trkpt lat="46.91723" lon="8.68579">
        <ele>2085</ele>
        <time>2021-08-07T07:52:25.672Z</time>
      </trkpt>
      <trkpt lat="46.91724" lon="8.68578">
        <ele>2085</ele>
        <time>2021-08-07T07:52:26.672Z</time>
      </trkpt>
      <trkpt lat="46.91724" lon="8.68578">
        <ele>2085</ele>
        <time>2021-08-07T07:52:27.673Z</time>
      </trkpt>
      <trkpt lat="46.91725" lon="8.68577">
        <ele>2086</ele>
        <time>2021-08-07T07:52:28.673Z</time>
      </trkpt>
      <trkpt lat="46.91726" lon="8.68576">
        <ele>2086</ele>
        <time>2021-08-07T07:52:29.672Z</time>
      </trkpt>
      <trkpt lat="46.91727" lon="8.68575">
        <ele>2086</ele>
        <time>2021-08-07T07:52:30.672Z</time>
      </trkpt>
      <trkpt lat="46.91728" lon="8.68574">
        <ele>2086</ele>
        <time>2021-08-07T07:52:31.673Z</time>
      </trkpt>
      <trkpt lat="46.91728" lon="8.68573">
        <ele>2086</ele>
        <time>2021-08-07T07:52:32.672Z</time>
      </trkpt>
      <trkpt lat="46.91729" lon="8.68572">
        <ele>2086</ele>
        <time>2021-08-07T07:52:33.673Z</time>
      </trkpt>
      <trkpt lat="46.9173" lon="8.68571">
        <ele>2086</ele>
        <time>2021-08-07T07:52:34.672Z</time>
      </trkpt>
      <trkpt lat="46.91731" lon="8.68569">
        <ele>2085</ele>
        <time>2021-08-07T07:52:35.673Z</time>
      </trkpt>
      <trkpt lat="46.91731" lon="8.68568">
        <ele>2085</ele>
        <time>2021-08-07T07:52:36.673Z</time>
      </trkpt>
      <trkpt lat="46.91732" lon="8.68567">
        <ele>2085</ele>
        <time>2021-08-07T07:52:37.673Z</time>
      </trkpt>
      <trkpt lat="46.91732" lon="8.68566">
        <ele>2085</ele>
        <time>2021-08-07T07:52:38.672Z</time>
      </trkpt>
      <trkpt lat="46.91733" lon="8.68564">
        <ele>2085</ele>
        <time>2021-08-07T07:52:39.672Z</time>
      </trkpt>
      <trkpt lat="46.91733" lon="8.68563">
        <ele>2085</ele>
        <time>2021-08-07T07:52:40.673Z</time>
      </trkpt>
      <trkpt lat="46.91734" lon="8.68561">
        <ele>2085</ele>
        <time>2021-08-07T07:52:41.673Z</time>
      </trkpt>
      <trkpt lat="46.91734" lon="8.6856">
        <ele>2085</ele>
        <time>2021-08-07T07:52:42.673Z</time>
      </trkpt>
      <trkpt lat="46.91735" lon="8.68559">
        <ele>2085</ele>
        <time>2021-08-07T07:52:43.673Z</time>
      </trkpt>
      <trkpt lat="46.91735" lon="8.68558">
        <ele>2085</ele>
        <time>2021-08-07T07:52:44.672Z</time>
      </trkpt>
      <trkpt lat="46.91736" lon="8.68556">
        <ele>2085</ele>
        <time>2021-08-07T07:52:45.673Z</time>
      </trkpt>
      <trkpt lat="46.91736" lon="8.68555">
        <ele>2085</ele>
        <time>2021-08-07T07:52:46.672Z</time>
      </trkpt>
      <trkpt lat="46.91737" lon="8.68554">
        <ele>2085</ele>
        <time>2021-08-07T07:52:47.673Z</time>
      </trkpt>
      <trkpt lat="46.91738" lon="8.68553">
        <ele>2085</ele>
        <time>2021-08-07T07:52:48.673Z</time>
      </trkpt>
      <trkpt lat="46.91739" lon="8.68552">
        <ele>2085</ele>
        <time>2021-08-07T07:52:49.673Z</time>
      </trkpt>
      <trkpt lat="46.9174" lon="8.68551">
        <ele>2085</ele>
        <time>2021-08-07T07:52:50.673Z</time>
      </trkpt>
      <trkpt lat="46.91741" lon="8.68551">
        <ele>2085</ele>
        <time>2021-08-07T07:52:51.673Z</time>
      </trkpt>
      <trkpt lat="46.91742" lon="8.6855">
        <ele>2085</ele>
        <time>2021-08-07T07:52:52.672Z</time>
      </trkpt>
      <trkpt lat="46.91743" lon="8.68549">
        <ele>2085</ele>
        <time>2021-08-07T07:52:53.672Z</time>
      </trkpt>
      <trkpt lat="46.91744" lon="8.68548">
        <ele>2085</ele>
        <time>2021-08-07T07:52:54.672Z</time>
      </trkpt>
      <trkpt lat="46.91745" lon="8.68547">
        <ele>2085</ele>
        <time>2021-08-07T07:52:55.673Z</time>
      </trkpt>
      <trkpt lat="46.91746" lon="8.68545">
        <ele>2085</ele>
        <time>2021-08-07T07:52:56.672Z</time>
      </trkpt>
      <trkpt lat="46.91746" lon="8.68543">
        <ele>2085</ele>
        <time>2021-08-07T07:52:57.673Z</time>
      </trkpt>
      <trkpt lat="46.91746" lon="8.68542">
        <ele>2085</ele>
        <time>2021-08-07T07:52:58.673Z</time>
      </trkpt>
      <trkpt lat="46.91746" lon="8.6854">
        <ele>2086</ele>
        <time>2021-08-07T07:52:59.672Z</time>
      </trkpt>
      <trkpt lat="46.91746" lon="8.68538">
        <ele>2086</ele>
        <time>2021-08-07T07:53:00.673Z</time>
      </trkpt>
      <trkpt lat="46.91746" lon="8.68537">
        <ele>2086</ele>
        <time>2021-08-07T07:53:01.673Z</time>
      </trkpt>
      <trkpt lat="46.91746" lon="8.68535">
        <ele>2086</ele>
        <time>2021-08-07T07:53:02.672Z</time>
      </trkpt>
      <trkpt lat="46.91746" lon="8.68534">
        <ele>2086</ele>
        <time>2021-08-07T07:53:03.673Z</time>
      </trkpt>
      <trkpt lat="46.91746" lon="8.68532">
        <ele>2087</ele>
        <time>2021-08-07T07:53:04.673Z</time>
      </trkpt>
      <trkpt lat="46.91746" lon="8.68531">
        <ele>2087</ele>
        <time>2021-08-07T07:53:05.672Z</time>
      </trkpt>
      <trkpt lat="46.91746" lon="8.68529">
        <ele>2088</ele>
        <time>2021-08-07T07:53:06.672Z</time>
      </trkpt>
      <trkpt lat="46.91747" lon="8.68528">
        <ele>2088</ele>
        <time>2021-08-07T07:53:07.673Z</time>
      </trkpt>
      <trkpt lat="46.91747" lon="8.68527">
        <ele>2088</ele>
        <time>2021-08-07T07:53:08.673Z</time>
      </trkpt>
      <trkpt lat="46.91748" lon="8.68526">
        <ele>2088</ele>
        <time>2021-08-07T07:53:09.673Z</time>
      </trkpt>
      <trkpt lat="46.91748" lon="8.68525">
        <ele>2087</ele>
        <time>2021-08-07T07:53:10.673Z</time>
      </trkpt>
      <trkpt lat="46.91748" lon="8.68524">
        <ele>2087</ele>
        <time>2021-08-07T07:53:11.672Z</time>
      </trkpt>
      <trkpt lat="46.91748" lon="8.68522">
        <ele>2087</ele>
        <time>2021-08-07T07:53:12.672Z</time>
      </trkpt>
      <trkpt lat="46.91748" lon="8.68521">
        <ele>2086</ele>
        <time>2021-08-07T07:53:13.673Z</time>
      </trkpt>
      <trkpt lat="46.91748" lon="8.6852">
        <ele>2086</ele>
        <time>2021-08-07T07:53:14.673Z</time>
      </trkpt>
      <trkpt lat="46.91748" lon="8.68519">
        <ele>2085</ele>
        <time>2021-08-07T07:53:15.673Z</time>
      </trkpt>
      <trkpt lat="46.91749" lon="8.68518">
        <ele>2084</ele>
        <time>2021-08-07T07:53:16.672Z</time>
      </trkpt>
      <trkpt lat="46.91749" lon="8.68517">
        <ele>2084</ele>
        <time>2021-08-07T07:53:17.673Z</time>
      </trkpt>
      <trkpt lat="46.91749" lon="8.68516">
        <ele>2083</ele>
        <time>2021-08-07T07:53:18.672Z</time>
      </trkpt>
      <trkpt lat="46.9175" lon="8.68514">
        <ele>2083</ele>
        <time>2021-08-07T07:53:19.672Z</time>
      </trkpt>
      <trkpt lat="46.91751" lon="8.68514">
        <ele>2082</ele>
        <time>2021-08-07T07:53:20.673Z</time>
      </trkpt>
      <trkpt lat="46.91751" lon="8.68512">
        <ele>2082</ele>
        <time>2021-08-07T07:53:21.672Z</time>
      </trkpt>
      <trkpt lat="46.91751" lon="8.68511">
        <ele>2082</ele>
        <time>2021-08-07T07:53:22.672Z</time>
      </trkpt>
      <trkpt lat="46.91752" lon="8.6851">
        <ele>2081</ele>
        <time>2021-08-07T07:53:23.672Z</time>
      </trkpt>
      <trkpt lat="46.91752" lon="8.68508">
        <ele>2080</ele>
        <time>2021-08-07T07:53:24.672Z</time>
      </trkpt>
      <trkpt lat="46.91753" lon="8.68507">
        <ele>2080</ele>
        <time>2021-08-07T07:53:25.672Z</time>
      </trkpt>
      <trkpt lat="46.91753" lon="8.68506">
        <ele>2079</ele>
        <time>2021-08-07T07:53:26.672Z</time>
      </trkpt>
      <trkpt lat="46.91754" lon="8.68505">
        <ele>2079</ele>
        <time>2021-08-07T07:53:27.673Z</time>
      </trkpt>
      <trkpt lat="46.91755" lon="8.68504">
        <ele>2078</ele>
        <time>2021-08-07T07:53:28.672Z</time>
      </trkpt>
      <trkpt lat="46.91755" lon="8.68502">
        <ele>2078</ele>
        <time>2021-08-07T07:53:29.673Z</time>
      </trkpt>
      <trkpt lat="46.91755" lon="8.68501">
        <ele>2078</ele>
        <time>2021-08-07T07:53:30.673Z</time>
      </trkpt>
      <trkpt lat="46.91756" lon="8.685">
        <ele>2079</ele>
        <time>2021-08-07T07:53:31.673Z</time>
      </trkpt>
      <trkpt lat="46.91756" lon="8.68499">
        <ele>2079</ele>
        <time>2021-08-07T07:53:32.672Z</time>
      </trkpt>
      <trkpt lat="46.91757" lon="8.68498">
        <ele>2080</ele>
        <time>2021-08-07T07:53:33.673Z</time>
      </trkpt>
      <trkpt lat="46.91758" lon="8.68496">
        <ele>2080</ele>
        <time>2021-08-07T07:53:34.673Z</time>
      </trkpt>
      <trkpt lat="46.91758" lon="8.68495">
        <ele>2081</ele>
        <time>2021-08-07T07:53:35.673Z</time>
      </trkpt>
      <trkpt lat="46.91758" lon="8.68494">
        <ele>2081</ele>
        <time>2021-08-07T07:53:36.673Z</time>
      </trkpt>
      <trkpt lat="46.91759" lon="8.68493">
        <ele>2082</ele>
        <time>2021-08-07T07:53:37.673Z</time>
      </trkpt>
      <trkpt lat="46.91759" lon="8.68492">
        <ele>2082</ele>
        <time>2021-08-07T07:53:38.673Z</time>
      </trkpt>
      <trkpt lat="46.91759" lon="8.68491">
        <ele>2082</ele>
        <time>2021-08-07T07:53:39.673Z</time>
      </trkpt>
      <trkpt lat="46.91759" lon="8.6849">
        <ele>2082</ele>
        <time>2021-08-07T07:53:40.673Z</time>
      </trkpt>
      <trkpt lat="46.91758" lon="8.68489">
        <ele>2083</ele>
        <time>2021-08-07T07:53:41.672Z</time>
      </trkpt>
      <trkpt lat="46.91758" lon="8.68488">
        <ele>2083</ele>
        <time>2021-08-07T07:53:42.673Z</time>
      </trkpt>
      <trkpt lat="46.91758" lon="8.68487">
        <ele>2083</ele>
        <time>2021-08-07T07:53:43.673Z</time>
      </trkpt>
      <trkpt lat="46.91758" lon="8.68487">
        <ele>2084</ele>
        <time>2021-08-07T07:53:44.673Z</time>
      </trkpt>
      <trkpt lat="46.91759" lon="8.68486">
        <ele>2084</ele>
        <time>2021-08-07T07:53:45.672Z</time>
      </trkpt>
      <trkpt lat="46.91759" lon="8.68485">
        <ele>2084</ele>
        <time>2021-08-07T07:53:46.672Z</time>
      </trkpt>
      <trkpt lat="46.9176" lon="8.68484">
        <ele>2084</ele>
        <time>2021-08-07T07:53:47.672Z</time>
      </trkpt>
      <trkpt lat="46.9176" lon="8.68483">
        <ele>2084</ele>
        <time>2021-08-07T07:53:48.672Z</time>
      </trkpt>
      <trkpt lat="46.91761" lon="8.68482">
        <ele>2083</ele>
        <time>2021-08-07T07:53:49.673Z</time>
      </trkpt>
      <trkpt lat="46.91761" lon="8.68481">
        <ele>2083</ele>
        <time>2021-08-07T07:53:50.673Z</time>
      </trkpt>
      <trkpt lat="46.91761" lon="8.6848">
        <ele>2083</ele>
        <time>2021-08-07T07:53:51.673Z</time>
      </trkpt>
      <trkpt lat="46.91762" lon="8.68479">
        <ele>2082</ele>
        <time>2021-08-07T07:53:52.673Z</time>
      </trkpt>
      <trkpt lat="46.91763" lon="8.68478">
        <ele>2082</ele>
        <time>2021-08-07T07:53:53.673Z</time>
      </trkpt>
      <trkpt lat="46.91763" lon="8.68478">
        <ele>2082</ele>
        <time>2021-08-07T07:53:54.673Z</time>
      </trkpt>
      <trkpt lat="46.91763" lon="8.68476">
        <ele>2081</ele>
        <time>2021-08-07T07:53:55.673Z</time>
      </trkpt>
      <trkpt lat="46.91763" lon="8.68474">
        <ele>2081</ele>
        <time>2021-08-07T07:53:56.673Z</time>
      </trkpt>
      <trkpt lat="46.91764" lon="8.68473">
        <ele>2080</ele>
        <time>2021-08-07T07:53:57.672Z</time>
      </trkpt>
      <trkpt lat="46.91764" lon="8.68472">
        <ele>2080</ele>
        <time>2021-08-07T07:53:58.673Z</time>
      </trkpt>
      <trkpt lat="46.91765" lon="8.68472">
        <ele>2081</ele>
        <time>2021-08-07T07:53:59.673Z</time>
      </trkpt>
      <trkpt lat="46.91765" lon="8.68471">
        <ele>2081</ele>
        <time>2021-08-07T07:54:00.673Z</time>
      </trkpt>
      <trkpt lat="46.91766" lon="8.6847">
        <ele>2082</ele>
        <time>2021-08-07T07:54:01.672Z</time>
      </trkpt>
      <trkpt lat="46.91766" lon="8.68469">
        <ele>2083</ele>
        <time>2021-08-07T07:54:02.672Z</time>
      </trkpt>
      <trkpt lat="46.91767" lon="8.68468">
        <ele>2083</ele>
        <time>2021-08-07T07:54:03.673Z</time>
      </trkpt>
      <trkpt lat="46.91767" lon="8.68467">
        <ele>2084</ele>
        <time>2021-08-07T07:54:04.673Z</time>
      </trkpt>
      <trkpt lat="46.91768" lon="8.68467">
        <ele>2084</ele>
        <time>2021-08-07T07:54:05.673Z</time>
      </trkpt>
      <trkpt lat="46.91768" lon="8.68466">
        <ele>2085</ele>
        <time>2021-08-07T07:54:06.673Z</time>
      </trkpt>
      <trkpt lat="46.91768" lon="8.68466">
        <ele>2085</ele>
        <time>2021-08-07T07:54:07.673Z</time>
      </trkpt>
      <trkpt lat="46.91769" lon="8.68465">
        <ele>2086</ele>
        <time>2021-08-07T07:54:08.673Z</time>
      </trkpt>
      <trkpt lat="46.91769" lon="8.68464">
        <ele>2086</ele>
        <time>2021-08-07T07:54:09.673Z</time>
      </trkpt>
      <trkpt lat="46.91769" lon="8.68463">
        <ele>2086</ele>
        <time>2021-08-07T07:54:10.673Z</time>
      </trkpt>
      <trkpt lat="46.91769" lon="8.68462">
        <ele>2086</ele>
        <time>2021-08-07T07:54:11.673Z</time>
      </trkpt>
      <trkpt lat="46.9177" lon="8.68461">
        <ele>2086</ele>
        <time>2021-08-07T07:54:12.673Z</time>
      </trkpt>
      <trkpt lat="46.9177" lon="8.68461">
        <ele>2086</ele>
        <time>2021-08-07T07:54:13.673Z</time>
      </trkpt>
      <trkpt lat="46.9177" lon="8.6846">
        <ele>2086</ele>
        <time>2021-08-07T07:54:14.673Z</time>
      </trkpt>
      <trkpt lat="46.91771" lon="8.68459">
        <ele>2086</ele>
        <time>2021-08-07T07:54:15.673Z</time>
      </trkpt>
      <trkpt lat="46.91771" lon="8.68459">
        <ele>2086</ele>
        <time>2021-08-07T07:54:16.672Z</time>
      </trkpt>
      <trkpt lat="46.91771" lon="8.68458">
        <ele>2086</ele>
        <time>2021-08-07T07:54:17.673Z</time>
      </trkpt>
      <trkpt lat="46.91771" lon="8.68457">
        <ele>2086</ele>
        <time>2021-08-07T07:54:18.673Z</time>
      </trkpt>
      <trkpt lat="46.91771" lon="8.68457">
        <ele>2086</ele>
        <time>2021-08-07T07:54:19.673Z</time>
      </trkpt>
      <trkpt lat="46.91771" lon="8.68456">
        <ele>2087</ele>
        <time>2021-08-07T07:54:20.673Z</time>
      </trkpt>
      <trkpt lat="46.91772" lon="8.68456">
        <ele>2087</ele>
        <time>2021-08-07T07:54:21.672Z</time>
      </trkpt>
      <trkpt lat="46.91772" lon="8.68455">
        <ele>2088</ele>
        <time>2021-08-07T07:54:22.672Z</time>
      </trkpt>
      <trkpt lat="46.91772" lon="8.68455">
        <ele>2089</ele>
        <time>2021-08-07T07:54:23.672Z</time>
      </trkpt>
      <trkpt lat="46.91773" lon="8.68454">
        <ele>2090</ele>
        <time>2021-08-07T07:54:24.673Z</time>
      </trkpt>
      <trkpt lat="46.91773" lon="8.68453">
        <ele>2091</ele>
        <time>2021-08-07T07:54:25.673Z</time>
      </trkpt>
      <trkpt lat="46.91773" lon="8.68453">
        <ele>2091</ele>
        <time>2021-08-07T07:54:26.673Z</time>
      </trkpt>
      <trkpt lat="46.91773" lon="8.68453">
        <ele>2092</ele>
        <time>2021-08-07T07:54:27.673Z</time>
      </trkpt>
      <trkpt lat="46.91774" lon="8.68452">
        <ele>2092</ele>
        <time>2021-08-07T07:54:28.673Z</time>
      </trkpt>
      <trkpt lat="46.91774" lon="8.68452">
        <ele>2093</ele>
        <time>2021-08-07T07:54:29.673Z</time>
      </trkpt>
      <trkpt lat="46.91774" lon="8.68451">
        <ele>2093</ele>
        <time>2021-08-07T07:54:30.672Z</time>
      </trkpt>
      <trkpt lat="46.91775" lon="8.68451">
        <ele>2093</ele>
        <time>2021-08-07T07:54:31.673Z</time>
      </trkpt>
      <trkpt lat="46.91775" lon="8.68449">
        <ele>2094</ele>
        <time>2021-08-07T07:54:32.672Z</time>
      </trkpt>
      <trkpt lat="46.91775" lon="8.68449">
        <ele>2094</ele>
        <time>2021-08-07T07:54:33.672Z</time>
      </trkpt>
      <trkpt lat="46.91776" lon="8.68449">
        <ele>2095</ele>
        <time>2021-08-07T07:54:34.673Z</time>
      </trkpt>
      <trkpt lat="46.91777" lon="8.6845">
        <ele>2096</ele>
        <time>2021-08-07T07:54:35.673Z</time>
      </trkpt>
      <trkpt lat="46.91777" lon="8.6845">
        <ele>2096</ele>
        <time>2021-08-07T07:54:36.673Z</time>
      </trkpt>
      <trkpt lat="46.91778" lon="8.6845">
        <ele>2097</ele>
        <time>2021-08-07T07:54:37.672Z</time>
      </trkpt>
      <trkpt lat="46.91779" lon="8.6845">
        <ele>2098</ele>
        <time>2021-08-07T07:54:38.673Z</time>
      </trkpt>
      <trkpt lat="46.91779" lon="8.68448">
        <ele>2098</ele>
        <time>2021-08-07T07:54:39.673Z</time>
      </trkpt>
      <trkpt lat="46.9178" lon="8.68447">
        <ele>2099</ele>
        <time>2021-08-07T07:54:40.672Z</time>
      </trkpt>
      <trkpt lat="46.9178" lon="8.68446">
        <ele>2099</ele>
        <time>2021-08-07T07:54:41.673Z</time>
      </trkpt>
      <trkpt lat="46.91781" lon="8.68445">
        <ele>2100</ele>
        <time>2021-08-07T07:54:42.673Z</time>
      </trkpt>
      <trkpt lat="46.91782" lon="8.68445">
        <ele>2100</ele>
        <time>2021-08-07T07:54:43.673Z</time>
      </trkpt>
      <trkpt lat="46.91782" lon="8.68444">
        <ele>2101</ele>
        <time>2021-08-07T07:54:44.672Z</time>
      </trkpt>
      <trkpt lat="46.91783" lon="8.68444">
        <ele>2101</ele>
        <time>2021-08-07T07:54:45.673Z</time>
      </trkpt>
      <trkpt lat="46.91784" lon="8.68443">
        <ele>2101</ele>
        <time>2021-08-07T07:54:46.673Z</time>
      </trkpt>
      <trkpt lat="46.91785" lon="8.68443">
        <ele>2101</ele>
        <time>2021-08-07T07:54:47.673Z</time>
      </trkpt>
      <trkpt lat="46.91786" lon="8.68442">
        <ele>2101</ele>
        <time>2021-08-07T07:54:48.673Z</time>
      </trkpt>
      <trkpt lat="46.91787" lon="8.68442">
        <ele>2101</ele>
        <time>2021-08-07T07:54:49.673Z</time>
      </trkpt>
      <trkpt lat="46.91788" lon="8.68441">
        <ele>2102</ele>
        <time>2021-08-07T07:54:50.672Z</time>
      </trkpt>
      <trkpt lat="46.91789" lon="8.68441">
        <ele>2101</ele>
        <time>2021-08-07T07:54:51.673Z</time>
      </trkpt>
      <trkpt lat="46.91789" lon="8.6844">
        <ele>2101</ele>
        <time>2021-08-07T07:54:52.673Z</time>
      </trkpt>
      <trkpt lat="46.9179" lon="8.6844">
        <ele>2101</ele>
        <time>2021-08-07T07:54:53.673Z</time>
      </trkpt>
      <trkpt lat="46.91791" lon="8.6844">
        <ele>2102</ele>
        <time>2021-08-07T07:54:54.673Z</time>
      </trkpt>
      <trkpt lat="46.91791" lon="8.68439">
        <ele>2101</ele>
        <time>2021-08-07T07:54:55.673Z</time>
      </trkpt>
      <trkpt lat="46.91792" lon="8.68438">
        <ele>2101</ele>
        <time>2021-08-07T07:54:56.672Z</time>
      </trkpt>
      <trkpt lat="46.91793" lon="8.68438">
        <ele>2101</ele>
        <time>2021-08-07T07:54:57.673Z</time>
      </trkpt>
      <trkpt lat="46.91794" lon="8.68437">
        <ele>2101</ele>
        <time>2021-08-07T07:54:58.673Z</time>
      </trkpt>
      <trkpt lat="46.91795" lon="8.68437">
        <ele>2101</ele>
        <time>2021-08-07T07:54:59.672Z</time>
      </trkpt>
      <trkpt lat="46.91796" lon="8.68436">
        <ele>2101</ele>
        <time>2021-08-07T07:55:00.673Z</time>
      </trkpt>
      <trkpt lat="46.91796" lon="8.68436">
        <ele>2100</ele>
        <time>2021-08-07T07:55:01.673Z</time>
      </trkpt>
      <trkpt lat="46.91797" lon="8.68436">
        <ele>2100</ele>
        <time>2021-08-07T07:55:02.673Z</time>
      </trkpt>
      <trkpt lat="46.91798" lon="8.68435">
        <ele>2100</ele>
        <time>2021-08-07T07:55:03.672Z</time>
      </trkpt>
      <trkpt lat="46.91798" lon="8.68434">
        <ele>2099</ele>
        <time>2021-08-07T07:55:04.673Z</time>
      </trkpt>
      <trkpt lat="46.91799" lon="8.68434">
        <ele>2099</ele>
        <time>2021-08-07T07:55:05.672Z</time>
      </trkpt>
      <trkpt lat="46.91799" lon="8.68433">
        <ele>2099</ele>
        <time>2021-08-07T07:55:06.672Z</time>
      </trkpt>
      <trkpt lat="46.918" lon="8.68433">
        <ele>2099</ele>
        <time>2021-08-07T07:55:07.672Z</time>
      </trkpt>
      <trkpt lat="46.918" lon="8.68432">
        <ele>2099</ele>
        <time>2021-08-07T07:55:08.673Z</time>
      </trkpt>
      <trkpt lat="46.918" lon="8.68431">
        <ele>2099</ele>
        <time>2021-08-07T07:55:09.673Z</time>
      </trkpt>
      <trkpt lat="46.91801" lon="8.68431">
        <ele>2099</ele>
        <time>2021-08-07T07:55:10.673Z</time>
      </trkpt>
      <trkpt lat="46.91801" lon="8.6843">
        <ele>2099</ele>
        <time>2021-08-07T07:55:11.673Z</time>
      </trkpt>
      <trkpt lat="46.91802" lon="8.6843">
        <ele>2099</ele>
        <time>2021-08-07T07:55:12.673Z</time>
      </trkpt>
      <trkpt lat="46.91802" lon="8.6843">
        <ele>2099</ele>
        <time>2021-08-07T07:55:13.673Z</time>
      </trkpt>
      <trkpt lat="46.91803" lon="8.68429">
        <ele>2098</ele>
        <time>2021-08-07T07:55:14.673Z</time>
      </trkpt>
      <trkpt lat="46.91803" lon="8.68429">
        <ele>2098</ele>
        <time>2021-08-07T07:55:15.673Z</time>
      </trkpt>
      <trkpt lat="46.91804" lon="8.68428">
        <ele>2098</ele>
        <time>2021-08-07T07:55:16.673Z</time>
      </trkpt>
      <trkpt lat="46.91804" lon="8.68427">
        <ele>2098</ele>
        <time>2021-08-07T07:55:17.673Z</time>
      </trkpt>
      <trkpt lat="46.91805" lon="8.68427">
        <ele>2098</ele>
        <time>2021-08-07T07:55:18.673Z</time>
      </trkpt>
      <trkpt lat="46.91805" lon="8.68426">
        <ele>2098</ele>
        <time>2021-08-07T07:55:19.673Z</time>
      </trkpt>
      <trkpt lat="46.91806" lon="8.68425">
        <ele>2098</ele>
        <time>2021-08-07T07:55:20.672Z</time>
      </trkpt>
      <trkpt lat="46.91806" lon="8.68424">
        <ele>2098</ele>
        <time>2021-08-07T07:55:21.672Z</time>
      </trkpt>
      <trkpt lat="46.91806" lon="8.68424">
        <ele>2098</ele>
        <time>2021-08-07T07:55:22.673Z</time>
      </trkpt>
      <trkpt lat="46.91806" lon="8.68423">
        <ele>2098</ele>
        <time>2021-08-07T07:55:23.672Z</time>
      </trkpt>
      <trkpt lat="46.91807" lon="8.68423">
        <ele>2098</ele>
        <time>2021-08-07T07:55:24.673Z</time>
      </trkpt>
      <trkpt lat="46.91807" lon="8.68423">
        <ele>2099</ele>
        <time>2021-08-07T07:55:25.675Z</time>
      </trkpt>
      <trkpt lat="46.91807" lon="8.68422">
        <ele>2099</ele>
        <time>2021-08-07T07:55:26.675Z</time>
      </trkpt>
      <trkpt lat="46.91808" lon="8.68422">
        <ele>2099</ele>
        <time>2021-08-07T07:55:27.674Z</time>
      </trkpt>
      <trkpt lat="46.91808" lon="8.68421">
        <ele>2099</ele>
        <time>2021-08-07T07:55:28.674Z</time>
      </trkpt>
      <trkpt lat="46.91808" lon="8.6842">
        <ele>2099</ele>
        <time>2021-08-07T07:55:29.674Z</time>
      </trkpt>
      <trkpt lat="46.91809" lon="8.68419">
        <ele>2098</ele>
        <time>2021-08-07T07:55:30.674Z</time>
      </trkpt>
      <trkpt lat="46.91809" lon="8.68418">
        <ele>2098</ele>
        <time>2021-08-07T07:55:31.674Z</time>
      </trkpt>
      <trkpt lat="46.9181" lon="8.68418">
        <ele>2097</ele>
        <time>2021-08-07T07:55:32.674Z</time>
      </trkpt>
      <trkpt lat="46.9181" lon="8.68417">
        <ele>2097</ele>
        <time>2021-08-07T07:55:33.674Z</time>
      </trkpt>
      <trkpt lat="46.91811" lon="8.68416">
        <ele>2097</ele>
        <time>2021-08-07T07:55:34.674Z</time>
      </trkpt>
      <trkpt lat="46.91811" lon="8.68416">
        <ele>2097</ele>
        <time>2021-08-07T07:55:35.675Z</time>
      </trkpt>
      <trkpt lat="46.91812" lon="8.68415">
        <ele>2097</ele>
        <time>2021-08-07T07:55:36.674Z</time>
      </trkpt>
      <trkpt lat="46.91812" lon="8.68414">
        <ele>2097</ele>
        <time>2021-08-07T07:55:37.674Z</time>
      </trkpt>
      <trkpt lat="46.91813" lon="8.68413">
        <ele>2097</ele>
        <time>2021-08-07T07:55:38.674Z</time>
      </trkpt>
      <trkpt lat="46.91813" lon="8.68413">
        <ele>2097</ele>
        <time>2021-08-07T07:55:39.674Z</time>
      </trkpt>
      <trkpt lat="46.91814" lon="8.68412">
        <ele>2098</ele>
        <time>2021-08-07T07:55:40.674Z</time>
      </trkpt>
      <trkpt lat="46.91814" lon="8.68411">
        <ele>2098</ele>
        <time>2021-08-07T07:55:41.675Z</time>
      </trkpt>
      <trkpt lat="46.91815" lon="8.6841">
        <ele>2098</ele>
        <time>2021-08-07T07:55:42.674Z</time>
      </trkpt>
      <trkpt lat="46.91816" lon="8.6841">
        <ele>2098</ele>
        <time>2021-08-07T07:55:43.674Z</time>
      </trkpt>
      <trkpt lat="46.91816" lon="8.68409">
        <ele>2098</ele>
        <time>2021-08-07T07:55:44.674Z</time>
      </trkpt>
      <trkpt lat="46.91817" lon="8.68408">
        <ele>2098</ele>
        <time>2021-08-07T07:55:45.674Z</time>
      </trkpt>
      <trkpt lat="46.91817" lon="8.68408">
        <ele>2098</ele>
        <time>2021-08-07T07:55:46.675Z</time>
      </trkpt>
      <trkpt lat="46.91818" lon="8.68407">
        <ele>2098</ele>
        <time>2021-08-07T07:55:47.674Z</time>
      </trkpt>
      <trkpt lat="46.91818" lon="8.68407">
        <ele>2099</ele>
        <time>2021-08-07T07:55:48.675Z</time>
      </trkpt>
      <trkpt lat="46.91819" lon="8.68406">
        <ele>2099</ele>
        <time>2021-08-07T07:55:49.674Z</time>
      </trkpt>
      <trkpt lat="46.9182" lon="8.68405">
        <ele>2099</ele>
        <time>2021-08-07T07:55:50.675Z</time>
      </trkpt>
      <trkpt lat="46.9182" lon="8.68405">
        <ele>2099</ele>
        <time>2021-08-07T07:55:51.675Z</time>
      </trkpt>
      <trkpt lat="46.91821" lon="8.68405">
        <ele>2098</ele>
        <time>2021-08-07T07:55:52.675Z</time>
      </trkpt>
      <trkpt lat="46.91822" lon="8.68404">
        <ele>2098</ele>
        <time>2021-08-07T07:55:53.674Z</time>
      </trkpt>
      <trkpt lat="46.91822" lon="8.68404">
        <ele>2098</ele>
        <time>2021-08-07T07:55:54.675Z</time>
      </trkpt>
      <trkpt lat="46.91823" lon="8.68404">
        <ele>2098</ele>
        <time>2021-08-07T07:55:55.675Z</time>
      </trkpt>
      <trkpt lat="46.91824" lon="8.68404">
        <ele>2098</ele>
        <time>2021-08-07T07:55:56.675Z</time>
      </trkpt>
      <trkpt lat="46.91824" lon="8.68403">
        <ele>2098</ele>
        <time>2021-08-07T07:55:57.675Z</time>
      </trkpt>
      <trkpt lat="46.91825" lon="8.68402">
        <ele>2098</ele>
        <time>2021-08-07T07:55:58.675Z</time>
      </trkpt>
      <trkpt lat="46.91825" lon="8.68402">
        <ele>2099</ele>
        <time>2021-08-07T07:55:59.675Z</time>
      </trkpt>
      <trkpt lat="46.91826" lon="8.68401">
        <ele>2099</ele>
        <time>2021-08-07T07:56:00.675Z</time>
      </trkpt>
      <trkpt lat="46.91826" lon="8.68401">
        <ele>2100</ele>
        <time>2021-08-07T07:56:01.675Z</time>
      </trkpt>
      <trkpt lat="46.91826" lon="8.684">
        <ele>2101</ele>
        <time>2021-08-07T07:56:02.675Z</time>
      </trkpt>
      <trkpt lat="46.91826" lon="8.684">
        <ele>2101</ele>
        <time>2021-08-07T07:56:03.675Z</time>
      </trkpt>
      <trkpt lat="46.91827" lon="8.684">
        <ele>2102</ele>
        <time>2021-08-07T07:56:04.674Z</time>
      </trkpt>
      <trkpt lat="46.91827" lon="8.68399">
        <ele>2102</ele>
        <time>2021-08-07T07:56:05.675Z</time>
      </trkpt>
      <trkpt lat="46.91828" lon="8.68399">
        <ele>2102</ele>
        <time>2021-08-07T07:56:06.675Z</time>
      </trkpt>
      <trkpt lat="46.91829" lon="8.68398">
        <ele>2103</ele>
        <time>2021-08-07T07:56:07.674Z</time>
      </trkpt>
      <trkpt lat="46.91829" lon="8.68398">
        <ele>2103</ele>
        <time>2021-08-07T07:56:08.675Z</time>
      </trkpt>
      <trkpt lat="46.91829" lon="8.68397">
        <ele>2103</ele>
        <time>2021-08-07T07:56:09.675Z</time>
      </trkpt>
      <trkpt lat="46.9183" lon="8.68397">
        <ele>2103</ele>
        <time>2021-08-07T07:56:10.675Z</time>
      </trkpt>
      <trkpt lat="46.9183" lon="8.68397">
        <ele>2103</ele>
        <time>2021-08-07T07:56:11.674Z</time>
      </trkpt>
      <trkpt lat="46.9183" lon="8.68396">
        <ele>2104</ele>
        <time>2021-08-07T07:56:12.674Z</time>
      </trkpt>
      <trkpt lat="46.91831" lon="8.68396">
        <ele>2104</ele>
        <time>2021-08-07T07:56:13.674Z</time>
      </trkpt>
      <trkpt lat="46.91831" lon="8.68396">
        <ele>2104</ele>
        <time>2021-08-07T07:56:14.675Z</time>
      </trkpt>
      <trkpt lat="46.91831" lon="8.68395">
        <ele>2104</ele>
        <time>2021-08-07T07:56:15.675Z</time>
      </trkpt>
      <trkpt lat="46.91832" lon="8.68395">
        <ele>2104</ele>
        <time>2021-08-07T07:56:16.675Z</time>
      </trkpt>
      <trkpt lat="46.91832" lon="8.68394">
        <ele>2104</ele>
        <time>2021-08-07T07:56:17.675Z</time>
      </trkpt>
      <trkpt lat="46.91833" lon="8.68394">
        <ele>2105</ele>
        <time>2021-08-07T07:56:18.675Z</time>
      </trkpt>
      <trkpt lat="46.91833" lon="8.68394">
        <ele>2105</ele>
        <time>2021-08-07T07:56:19.675Z</time>
      </trkpt>
      <trkpt lat="46.91834" lon="8.68393">
        <ele>2105</ele>
        <time>2021-08-07T07:56:20.675Z</time>
      </trkpt>
      <trkpt lat="46.91834" lon="8.68392">
        <ele>2105</ele>
        <time>2021-08-07T07:56:21.674Z</time>
      </trkpt>
      <trkpt lat="46.91834" lon="8.68392">
        <ele>2106</ele>
        <time>2021-08-07T07:56:22.674Z</time>
      </trkpt>
      <trkpt lat="46.91834" lon="8.68392">
        <ele>2106</ele>
        <time>2021-08-07T07:56:23.675Z</time>
      </trkpt>
      <trkpt lat="46.91834" lon="8.68391">
        <ele>2107</ele>
        <time>2021-08-07T07:56:24.675Z</time>
      </trkpt>
      <trkpt lat="46.91835" lon="8.68391">
        <ele>2107</ele>
        <time>2021-08-07T07:56:25.675Z</time>
      </trkpt>
      <trkpt lat="46.91835" lon="8.6839">
        <ele>2108</ele>
        <time>2021-08-07T07:56:26.674Z</time>
      </trkpt>
      <trkpt lat="46.91835" lon="8.68389">
        <ele>2108</ele>
        <time>2021-08-07T07:56:27.674Z</time>
      </trkpt>
      <trkpt lat="46.91836" lon="8.68389">
        <ele>2108</ele>
        <time>2021-08-07T07:56:28.675Z</time>
      </trkpt>
      <trkpt lat="46.91836" lon="8.68388">
        <ele>2108</ele>
        <time>2021-08-07T07:56:29.675Z</time>
      </trkpt>
      <trkpt lat="46.91836" lon="8.68388">
        <ele>2109</ele>
        <time>2021-08-07T07:56:30.675Z</time>
      </trkpt>
      <trkpt lat="46.91836" lon="8.68387">
        <ele>2109</ele>
        <time>2021-08-07T07:56:31.674Z</time>
      </trkpt>
      <trkpt lat="46.91836" lon="8.68386">
        <ele>2110</ele>
        <time>2021-08-07T07:56:32.675Z</time>
      </trkpt>
      <trkpt lat="46.91835" lon="8.68386">
        <ele>2110</ele>
        <time>2021-08-07T07:56:33.674Z</time>
      </trkpt>
      <trkpt lat="46.91835" lon="8.68385">
        <ele>2110</ele>
        <time>2021-08-07T07:56:34.675Z</time>
      </trkpt>
      <trkpt lat="46.91834" lon="8.68385">
        <ele>2110</ele>
        <time>2021-08-07T07:56:35.675Z</time>
      </trkpt>
      <trkpt lat="46.91833" lon="8.68385">
        <ele>2110</ele>
        <time>2021-08-07T07:56:36.675Z</time>
      </trkpt>
      <trkpt lat="46.91833" lon="8.68385">
        <ele>2111</ele>
        <time>2021-08-07T07:56:37.675Z</time>
      </trkpt>
      <trkpt lat="46.91832" lon="8.68386">
        <ele>2111</ele>
        <time>2021-08-07T07:56:38.675Z</time>
      </trkpt>
      <trkpt lat="46.91832" lon="8.68386">
        <ele>2112</ele>
        <time>2021-08-07T07:56:39.675Z</time>
      </trkpt>
      <trkpt lat="46.91831" lon="8.68386">
        <ele>2112</ele>
        <time>2021-08-07T07:56:40.675Z</time>
      </trkpt>
      <trkpt lat="46.91831" lon="8.68386">
        <ele>2113</ele>
        <time>2021-08-07T07:56:41.674Z</time>
      </trkpt>
      <trkpt lat="46.91832" lon="8.68386">
        <ele>2113</ele>
        <time>2021-08-07T07:56:42.675Z</time>
      </trkpt>
      <trkpt lat="46.91832" lon="8.68386">
        <ele>2114</ele>
        <time>2021-08-07T07:56:43.675Z</time>
      </trkpt>
      <trkpt lat="46.91833" lon="8.68385">
        <ele>2114</ele>
        <time>2021-08-07T07:56:44.674Z</time>
      </trkpt>
      <trkpt lat="46.91833" lon="8.68385">
        <ele>2114</ele>
        <time>2021-08-07T07:56:45.675Z</time>
      </trkpt>
      <trkpt lat="46.91833" lon="8.68384">
        <ele>2114</ele>
        <time>2021-08-07T07:56:46.675Z</time>
      </trkpt>
      <trkpt lat="46.91833" lon="8.68383">
        <ele>2114</ele>
        <time>2021-08-07T07:56:47.675Z</time>
      </trkpt>
      <trkpt lat="46.91834" lon="8.68383">
        <ele>2115</ele>
        <time>2021-08-07T07:56:48.675Z</time>
      </trkpt>
      <trkpt lat="46.91834" lon="8.68383">
        <ele>2115</ele>
        <time>2021-08-07T07:56:49.674Z</time>
      </trkpt>
      <trkpt lat="46.91834" lon="8.68382">
        <ele>2116</ele>
        <time>2021-08-07T07:56:50.674Z</time>
      </trkpt>
      <trkpt lat="46.91834" lon="8.68381">
        <ele>2116</ele>
        <time>2021-08-07T07:56:51.675Z</time>
      </trkpt>
      <trkpt lat="46.91835" lon="8.6838">
        <ele>2117</ele>
        <time>2021-08-07T07:56:52.675Z</time>
      </trkpt>
      <trkpt lat="46.91836" lon="8.68379">
        <ele>2117</ele>
        <time>2021-08-07T07:56:53.675Z</time>
      </trkpt>
      <trkpt lat="46.91836" lon="8.68379">
        <ele>2118</ele>
        <time>2021-08-07T07:56:54.675Z</time>
      </trkpt>
      <trkpt lat="46.91837" lon="8.68378">
        <ele>2118</ele>
        <time>2021-08-07T07:56:55.674Z</time>
      </trkpt>
      <trkpt lat="46.91837" lon="8.68378">
        <ele>2118</ele>
        <time>2021-08-07T07:56:56.675Z</time>
      </trkpt>
      <trkpt lat="46.91837" lon="8.68377">
        <ele>2118</ele>
        <time>2021-08-07T07:56:57.675Z</time>
      </trkpt>
      <trkpt lat="46.91836" lon="8.68377">
        <ele>2118</ele>
        <time>2021-08-07T07:56:58.674Z</time>
      </trkpt>
      <trkpt lat="46.91836" lon="8.68376">
        <ele>2118</ele>
        <time>2021-08-07T07:56:59.675Z</time>
      </trkpt>
      <trkpt lat="46.91836" lon="8.68375">
        <ele>2118</ele>
        <time>2021-08-07T07:57:00.674Z</time>
      </trkpt>
      <trkpt lat="46.91837" lon="8.68375">
        <ele>2119</ele>
        <time>2021-08-07T07:57:01.674Z</time>
      </trkpt>
      <trkpt lat="46.91837" lon="8.68374">
        <ele>2119</ele>
        <time>2021-08-07T07:57:02.674Z</time>
      </trkpt>
      <trkpt lat="46.91837" lon="8.68374">
        <ele>2120</ele>
        <time>2021-08-07T07:57:03.674Z</time>
      </trkpt>
      <trkpt lat="46.91837" lon="8.68373">
        <ele>2121</ele>
        <time>2021-08-07T07:57:04.674Z</time>
      </trkpt>
      <trkpt lat="46.91837" lon="8.68373">
        <ele>2121</ele>
        <time>2021-08-07T07:57:05.674Z</time>
      </trkpt>
      <trkpt lat="46.91837" lon="8.68373">
        <ele>2122</ele>
        <time>2021-08-07T07:57:06.674Z</time>
      </trkpt>
      <trkpt lat="46.91837" lon="8.68373">
        <ele>2122</ele>
        <time>2021-08-07T07:57:07.675Z</time>
      </trkpt>
      <trkpt lat="46.91838" lon="8.68372">
        <ele>2122</ele>
        <time>2021-08-07T07:57:08.675Z</time>
      </trkpt>
      <trkpt lat="46.91838" lon="8.68372">
        <ele>2122</ele>
        <time>2021-08-07T07:57:09.674Z</time>
      </trkpt>
      <trkpt lat="46.91838" lon="8.68372">
        <ele>2122</ele>
        <time>2021-08-07T07:57:10.675Z</time>
      </trkpt>
      <trkpt lat="46.91838" lon="8.68371">
        <ele>2122</ele>
        <time>2021-08-07T07:57:11.675Z</time>
      </trkpt>
      <trkpt lat="46.91839" lon="8.68371">
        <ele>2123</ele>
        <time>2021-08-07T07:57:12.677Z</time>
      </trkpt>
      <trkpt lat="46.91839" lon="8.68371">
        <ele>2123</ele>
        <time>2021-08-07T07:57:13.677Z</time>
      </trkpt>
      <trkpt lat="46.91839" lon="8.6837">
        <ele>2123</ele>
        <time>2021-08-07T07:57:14.676Z</time>
      </trkpt>
      <trkpt lat="46.91839" lon="8.6837">
        <ele>2123</ele>
        <time>2021-08-07T07:57:15.677Z</time>
      </trkpt>
      <trkpt lat="46.91839" lon="8.68371">
        <ele>2123</ele>
        <time>2021-08-07T07:57:16.677Z</time>
      </trkpt>
      <trkpt lat="46.9184" lon="8.6837">
        <ele>2122</ele>
        <time>2021-08-07T07:57:17.678Z</time>
      </trkpt>
      <trkpt lat="46.91841" lon="8.68369">
        <ele>2122</ele>
        <time>2021-08-07T07:57:18.678Z</time>
      </trkpt>
      <trkpt lat="46.91841" lon="8.68369">
        <ele>2122</ele>
        <time>2021-08-07T07:57:19.678Z</time>
      </trkpt>
      <trkpt lat="46.91841" lon="8.68368">
        <ele>2122</ele>
        <time>2021-08-07T07:57:20.677Z</time>
      </trkpt>
      <trkpt lat="46.91842" lon="8.68368">
        <ele>2122</ele>
        <time>2021-08-07T07:57:21.677Z</time>
      </trkpt>
      <trkpt lat="46.91842" lon="8.68367">
        <ele>2122</ele>
        <time>2021-08-07T07:57:22.678Z</time>
      </trkpt>
      <trkpt lat="46.91842" lon="8.68367">
        <ele>2122</ele>
        <time>2021-08-07T07:57:23.678Z</time>
      </trkpt>
      <trkpt lat="46.91842" lon="8.68366">
        <ele>2122</ele>
        <time>2021-08-07T07:57:24.678Z</time>
      </trkpt>
      <trkpt lat="46.91843" lon="8.68365">
        <ele>2122</ele>
        <time>2021-08-07T07:57:25.677Z</time>
      </trkpt>
      <trkpt lat="46.91843" lon="8.68365">
        <ele>2122</ele>
        <time>2021-08-07T07:57:26.677Z</time>
      </trkpt>
      <trkpt lat="46.91843" lon="8.68364">
        <ele>2122</ele>
        <time>2021-08-07T07:57:27.678Z</time>
      </trkpt>
      <trkpt lat="46.91843" lon="8.68363">
        <ele>2123</ele>
        <time>2021-08-07T07:57:28.678Z</time>
      </trkpt>
      <trkpt lat="46.91844" lon="8.68363">
        <ele>2123</ele>
        <time>2021-08-07T07:57:29.678Z</time>
      </trkpt>
      <trkpt lat="46.91844" lon="8.68363">
        <ele>2124</ele>
        <time>2021-08-07T07:57:30.677Z</time>
      </trkpt>
      <trkpt lat="46.91845" lon="8.68363">
        <ele>2124</ele>
        <time>2021-08-07T07:57:31.677Z</time>
      </trkpt>
      <trkpt lat="46.91845" lon="8.68363">
        <ele>2124</ele>
        <time>2021-08-07T07:57:32.677Z</time>
      </trkpt>
      <trkpt lat="46.91846" lon="8.68363">
        <ele>2124</ele>
        <time>2021-08-07T07:57:33.678Z</time>
      </trkpt>
      <trkpt lat="46.91846" lon="8.68363">
        <ele>2125</ele>
        <time>2021-08-07T07:57:34.678Z</time>
      </trkpt>
      <trkpt lat="46.91847" lon="8.68364">
        <ele>2125</ele>
        <time>2021-08-07T07:57:35.678Z</time>
      </trkpt>
      <trkpt lat="46.91848" lon="8.68364">
        <ele>2125</ele>
        <time>2021-08-07T07:57:36.678Z</time>
      </trkpt>
      <trkpt lat="46.91849" lon="8.68364">
        <ele>2125</ele>
        <time>2021-08-07T07:57:37.678Z</time>
      </trkpt>
      <trkpt lat="46.91849" lon="8.68363">
        <ele>2125</ele>
        <time>2021-08-07T07:57:38.678Z</time>
      </trkpt>
      <trkpt lat="46.9185" lon="8.68364">
        <ele>2125</ele>
        <time>2021-08-07T07:57:39.677Z</time>
      </trkpt>
      <trkpt lat="46.9185" lon="8.68364">
        <ele>2125</ele>
        <time>2021-08-07T07:57:40.678Z</time>
      </trkpt>
      <trkpt lat="46.91851" lon="8.68363">
        <ele>2125</ele>
        <time>2021-08-07T07:57:41.677Z</time>
      </trkpt>
      <trkpt lat="46.91852" lon="8.68363">
        <ele>2126</ele>
        <time>2021-08-07T07:57:42.677Z</time>
      </trkpt>
      <trkpt lat="46.91852" lon="8.68363">
        <ele>2126</ele>
        <time>2021-08-07T07:57:43.677Z</time>
      </trkpt>
      <trkpt lat="46.91853" lon="8.68363">
        <ele>2126</ele>
        <time>2021-08-07T07:57:44.677Z</time>
      </trkpt>
      <trkpt lat="46.91853" lon="8.68361">
        <ele>2126</ele>
        <time>2021-08-07T07:57:45.678Z</time>
      </trkpt>
      <trkpt lat="46.91853" lon="8.6836">
        <ele>2126</ele>
        <time>2021-08-07T07:57:46.678Z</time>
      </trkpt>
      <trkpt lat="46.91853" lon="8.68359">
        <ele>2126</ele>
        <time>2021-08-07T07:57:47.678Z</time>
      </trkpt>
      <trkpt lat="46.91853" lon="8.68358">
        <ele>2126</ele>
        <time>2021-08-07T07:57:48.678Z</time>
      </trkpt>
      <trkpt lat="46.91853" lon="8.68357">
        <ele>2125</ele>
        <time>2021-08-07T07:57:49.677Z</time>
      </trkpt>
      <trkpt lat="46.91853" lon="8.68357">
        <ele>2125</ele>
        <time>2021-08-07T07:57:50.677Z</time>
      </trkpt>
      <trkpt lat="46.91852" lon="8.68356">
        <ele>2125</ele>
        <time>2021-08-07T07:57:51.678Z</time>
      </trkpt>
      <trkpt lat="46.91852" lon="8.68355">
        <ele>2125</ele>
        <time>2021-08-07T07:57:52.678Z</time>
      </trkpt>
      <trkpt lat="46.91852" lon="8.68355">
        <ele>2125</ele>
        <time>2021-08-07T07:57:53.677Z</time>
      </trkpt>
      <trkpt lat="46.91852" lon="8.68354">
        <ele>2124</ele>
        <time>2021-08-07T07:57:54.678Z</time>
      </trkpt>
      <trkpt lat="46.91852" lon="8.68354">
        <ele>2124</ele>
        <time>2021-08-07T07:57:55.678Z</time>
      </trkpt>
      <trkpt lat="46.91851" lon="8.68353">
        <ele>2124</ele>
        <time>2021-08-07T07:57:56.677Z</time>
      </trkpt>
      <trkpt lat="46.91851" lon="8.68352">
        <ele>2123</ele>
        <time>2021-08-07T07:57:57.678Z</time>
      </trkpt>
      <trkpt lat="46.91852" lon="8.68351">
        <ele>2123</ele>
        <time>2021-08-07T07:57:58.678Z</time>
      </trkpt>
      <trkpt lat="46.91852" lon="8.6835">
        <ele>2123</ele>
        <time>2021-08-07T07:57:59.677Z</time>
      </trkpt>
      <trkpt lat="46.91852" lon="8.6835">
        <ele>2122</ele>
        <time>2021-08-07T07:58:00.677Z</time>
      </trkpt>
      <trkpt lat="46.91852" lon="8.68349">
        <ele>2123</ele>
        <time>2021-08-07T07:58:01.677Z</time>
      </trkpt>
      <trkpt lat="46.91852" lon="8.68349">
        <ele>2123</ele>
        <time>2021-08-07T07:58:02.678Z</time>
      </trkpt>
      <trkpt lat="46.91852" lon="8.68348">
        <ele>2124</ele>
        <time>2021-08-07T07:58:03.678Z</time>
      </trkpt>
      <trkpt lat="46.91851" lon="8.68347">
        <ele>2125</ele>
        <time>2021-08-07T07:58:04.678Z</time>
      </trkpt>
      <trkpt lat="46.91852" lon="8.68347">
        <ele>2125</ele>
        <time>2021-08-07T07:58:05.678Z</time>
      </trkpt>
      <trkpt lat="46.91852" lon="8.68347">
        <ele>2125</ele>
        <time>2021-08-07T07:58:06.678Z</time>
      </trkpt>
      <trkpt lat="46.91852" lon="8.68346">
        <ele>2126</ele>
        <time>2021-08-07T07:58:07.677Z</time>
      </trkpt>
      <trkpt lat="46.91852" lon="8.68345">
        <ele>2126</ele>
        <time>2021-08-07T07:58:08.677Z</time>
      </trkpt>
      <trkpt lat="46.91852" lon="8.68345">
        <ele>2127</ele>
        <time>2021-08-07T07:58:09.678Z</time>
      </trkpt>
      <trkpt lat="46.91852" lon="8.68344">
        <ele>2127</ele>
        <time>2021-08-07T07:58:10.678Z</time>
      </trkpt>
      <trkpt lat="46.91853" lon="8.68343">
        <ele>2127</ele>
        <time>2021-08-07T07:58:11.677Z</time>
      </trkpt>
      <trkpt lat="46.91852" lon="8.68343">
        <ele>2127</ele>
        <time>2021-08-07T07:58:12.677Z</time>
      </trkpt>
      <trkpt lat="46.91852" lon="8.68342">
        <ele>2127</ele>
        <time>2021-08-07T07:58:13.678Z</time>
      </trkpt>
      <trkpt lat="46.91853" lon="8.68341">
        <ele>2127</ele>
        <time>2021-08-07T07:58:14.677Z</time>
      </trkpt>
      <trkpt lat="46.91853" lon="8.6834">
        <ele>2126</ele>
        <time>2021-08-07T07:58:15.678Z</time>
      </trkpt>
      <trkpt lat="46.91853" lon="8.68339">
        <ele>2126</ele>
        <time>2021-08-07T07:58:16.678Z</time>
      </trkpt>
      <trkpt lat="46.91853" lon="8.68339">
        <ele>2126</ele>
        <time>2021-08-07T07:58:17.678Z</time>
      </trkpt>
      <trkpt lat="46.91853" lon="8.68338">
        <ele>2126</ele>
        <time>2021-08-07T07:58:18.678Z</time>
      </trkpt>
      <trkpt lat="46.91853" lon="8.68338">
        <ele>2126</ele>
        <time>2021-08-07T07:58:19.678Z</time>
      </trkpt>
      <trkpt lat="46.91853" lon="8.68337">
        <ele>2126</ele>
        <time>2021-08-07T07:58:20.678Z</time>
      </trkpt>
      <trkpt lat="46.91854" lon="8.68337">
        <ele>2126</ele>
        <time>2021-08-07T07:58:21.678Z</time>
      </trkpt>
      <trkpt lat="46.91854" lon="8.68336">
        <ele>2126</ele>
        <time>2021-08-07T07:58:22.678Z</time>
      </trkpt>
      <trkpt lat="46.91855" lon="8.68336">
        <ele>2125</ele>
        <time>2021-08-07T07:58:23.678Z</time>
      </trkpt>
      <trkpt lat="46.91855" lon="8.68335">
        <ele>2125</ele>
        <time>2021-08-07T07:58:24.678Z</time>
      </trkpt>
      <trkpt lat="46.91855" lon="8.68334">
        <ele>2125</ele>
        <time>2021-08-07T07:58:25.678Z</time>
      </trkpt>
      <trkpt lat="46.91855" lon="8.68334">
        <ele>2125</ele>
        <time>2021-08-07T07:58:26.678Z</time>
      </trkpt>
      <trkpt lat="46.91855" lon="8.68333">
        <ele>2124</ele>
        <time>2021-08-07T07:58:27.678Z</time>
      </trkpt>
      <trkpt lat="46.91855" lon="8.68333">
        <ele>2125</ele>
        <time>2021-08-07T07:58:28.678Z</time>
      </trkpt>
      <trkpt lat="46.91855" lon="8.68332">
        <ele>2125</ele>
        <time>2021-08-07T07:58:29.678Z</time>
      </trkpt>
      <trkpt lat="46.91855" lon="8.68331">
        <ele>2125</ele>
        <time>2021-08-07T07:58:30.678Z</time>
      </trkpt>
      <trkpt lat="46.91855" lon="8.68331">
        <ele>2126</ele>
        <time>2021-08-07T07:58:31.678Z</time>
      </trkpt>
      <trkpt lat="46.91855" lon="8.6833">
        <ele>2126</ele>
        <time>2021-08-07T07:58:32.678Z</time>
      </trkpt>
      <trkpt lat="46.91855" lon="8.6833">
        <ele>2127</ele>
        <time>2021-08-07T07:58:33.678Z</time>
      </trkpt>
      <trkpt lat="46.91855" lon="8.68329">
        <ele>2127</ele>
        <time>2021-08-07T07:58:34.678Z</time>
      </trkpt>
      <trkpt lat="46.91855" lon="8.68329">
        <ele>2127</ele>
        <time>2021-08-07T07:58:35.677Z</time>
      </trkpt>
      <trkpt lat="46.91856" lon="8.6833">
        <ele>2129</ele>
        <time>2021-08-07T07:58:36.678Z</time>
      </trkpt>
      <trkpt lat="46.91856" lon="8.68329">
        <ele>2130</ele>
        <time>2021-08-07T07:58:37.677Z</time>
      </trkpt>
      <trkpt lat="46.91857" lon="8.68329">
        <ele>2130</ele>
        <time>2021-08-07T07:58:38.677Z</time>
      </trkpt>
      <trkpt lat="46.91857" lon="8.68328">
        <ele>2130</ele>
        <time>2021-08-07T07:58:39.678Z</time>
      </trkpt>
      <trkpt lat="46.91857" lon="8.68328">
        <ele>2130</ele>
        <time>2021-08-07T07:58:40.677Z</time>
      </trkpt>
      <trkpt lat="46.91857" lon="8.68327">
        <ele>2130</ele>
        <time>2021-08-07T07:58:41.678Z</time>
      </trkpt>
      <trkpt lat="46.91858" lon="8.68327">
        <ele>2131</ele>
        <time>2021-08-07T07:58:42.677Z</time>
      </trkpt>
      <trkpt lat="46.91858" lon="8.68326">
        <ele>2131</ele>
        <time>2021-08-07T07:58:43.677Z</time>
      </trkpt>
      <trkpt lat="46.91858" lon="8.68326">
        <ele>2131</ele>
        <time>2021-08-07T07:58:44.677Z</time>
      </trkpt>
      <trkpt lat="46.91859" lon="8.68326">
        <ele>2132</ele>
        <time>2021-08-07T07:58:45.677Z</time>
      </trkpt>
      <trkpt lat="46.91859" lon="8.68325">
        <ele>2132</ele>
        <time>2021-08-07T07:58:46.678Z</time>
      </trkpt>
      <trkpt lat="46.9186" lon="8.68325">
        <ele>2132</ele>
        <time>2021-08-07T07:58:47.678Z</time>
      </trkpt>
      <trkpt lat="46.9186" lon="8.68324">
        <ele>2132</ele>
        <time>2021-08-07T07:58:48.677Z</time>
      </trkpt>
      <trkpt lat="46.9186" lon="8.68323">
        <ele>2133</ele>
        <time>2021-08-07T07:58:49.677Z</time>
      </trkpt>
      <trkpt lat="46.9186" lon="8.68323">
        <ele>2133</ele>
        <time>2021-08-07T07:58:50.677Z</time>
      </trkpt>
      <trkpt lat="46.9186" lon="8.68322">
        <ele>2133</ele>
        <time>2021-08-07T07:58:51.677Z</time>
      </trkpt>
      <trkpt lat="46.9186" lon="8.68321">
        <ele>2134</ele>
        <time>2021-08-07T07:58:52.677Z</time>
      </trkpt>
      <trkpt lat="46.9186" lon="8.68321">
        <ele>2134</ele>
        <time>2021-08-07T07:58:53.677Z</time>
      </trkpt>
      <trkpt lat="46.9186" lon="8.6832">
        <ele>2134</ele>
        <time>2021-08-07T07:58:54.677Z</time>
      </trkpt>
      <trkpt lat="46.9186" lon="8.68319">
        <ele>2134</ele>
        <time>2021-08-07T07:58:55.678Z</time>
      </trkpt>
      <trkpt lat="46.91861" lon="8.68318">
        <ele>2134</ele>
        <time>2021-08-07T07:58:56.678Z</time>
      </trkpt>
      <trkpt lat="46.91861" lon="8.68318">
        <ele>2134</ele>
        <time>2021-08-07T07:58:57.678Z</time>
      </trkpt>
      <trkpt lat="46.91861" lon="8.68317">
        <ele>2134</ele>
        <time>2021-08-07T07:58:58.677Z</time>
      </trkpt>
      <trkpt lat="46.91861" lon="8.68317">
        <ele>2134</ele>
        <time>2021-08-07T07:58:59.677Z</time>
      </trkpt>
      <trkpt lat="46.91861" lon="8.68316">
        <ele>2134</ele>
        <time>2021-08-07T07:59:00.677Z</time>
      </trkpt>
      <trkpt lat="46.91861" lon="8.68315">
        <ele>2133</ele>
        <time>2021-08-07T07:59:01.678Z</time>
      </trkpt>
      <trkpt lat="46.91861" lon="8.68314">
        <ele>2133</ele>
        <time>2021-08-07T07:59:02.677Z</time>
      </trkpt>
      <trkpt lat="46.91861" lon="8.68313">
        <ele>2132</ele>
        <time>2021-08-07T07:59:03.677Z</time>
      </trkpt>
      <trkpt lat="46.91861" lon="8.68313">
        <ele>2133</ele>
        <time>2021-08-07T07:59:04.677Z</time>
      </trkpt>
      <trkpt lat="46.91861" lon="8.68312">
        <ele>2133</ele>
        <time>2021-08-07T07:59:05.678Z</time>
      </trkpt>
      <trkpt lat="46.9186" lon="8.68311">
        <ele>2133</ele>
        <time>2021-08-07T07:59:06.678Z</time>
      </trkpt>
      <trkpt lat="46.9186" lon="8.68311">
        <ele>2133</ele>
        <time>2021-08-07T07:59:07.678Z</time>
      </trkpt>
      <trkpt lat="46.9186" lon="8.6831">
        <ele>2134</ele>
        <time>2021-08-07T07:59:08.678Z</time>
      </trkpt>
      <trkpt lat="46.9186" lon="8.6831">
        <ele>2134</ele>
        <time>2021-08-07T07:59:09.678Z</time>
      </trkpt>
      <trkpt lat="46.9186" lon="8.68309">
        <ele>2135</ele>
        <time>2021-08-07T07:59:10.677Z</time>
      </trkpt>
      <trkpt lat="46.9186" lon="8.68308">
        <ele>2135</ele>
        <time>2021-08-07T07:59:11.677Z</time>
      </trkpt>
      <trkpt lat="46.9186" lon="8.68308">
        <ele>2135</ele>
        <time>2021-08-07T07:59:12.677Z</time>
      </trkpt>
      <trkpt lat="46.91861" lon="8.68307">
        <ele>2135</ele>
        <time>2021-08-07T07:59:13.678Z</time>
      </trkpt>
      <trkpt lat="46.91861" lon="8.68307">
        <ele>2135</ele>
        <time>2021-08-07T07:59:14.678Z</time>
      </trkpt>
      <trkpt lat="46.91861" lon="8.68306">
        <ele>2135</ele>
        <time>2021-08-07T07:59:15.677Z</time>
      </trkpt>
      <trkpt lat="46.91861" lon="8.68306">
        <ele>2136</ele>
        <time>2021-08-07T07:59:16.677Z</time>
      </trkpt>
      <trkpt lat="46.91861" lon="8.68305">
        <ele>2136</ele>
        <time>2021-08-07T07:59:17.677Z</time>
      </trkpt>
      <trkpt lat="46.91861" lon="8.68305">
        <ele>2136</ele>
        <time>2021-08-07T07:59:18.678Z</time>
      </trkpt>
      <trkpt lat="46.91861" lon="8.68305">
        <ele>2136</ele>
        <time>2021-08-07T07:59:19.677Z</time>
      </trkpt>
      <trkpt lat="46.9186" lon="8.68304">
        <ele>2136</ele>
        <time>2021-08-07T07:59:20.677Z</time>
      </trkpt>
      <trkpt lat="46.91861" lon="8.68304">
        <ele>2136</ele>
        <time>2021-08-07T07:59:21.677Z</time>
      </trkpt>
      <trkpt lat="46.91861" lon="8.68303">
        <ele>2136</ele>
        <time>2021-08-07T07:59:22.678Z</time>
      </trkpt>
      <trkpt lat="46.91861" lon="8.68303">
        <ele>2137</ele>
        <time>2021-08-07T07:59:23.677Z</time>
      </trkpt>
      <trkpt lat="46.91861" lon="8.68303">
        <ele>2137</ele>
        <time>2021-08-07T07:59:24.677Z</time>
      </trkpt>
      <trkpt lat="46.91863" lon="8.68302">
        <ele>2138</ele>
        <time>2021-08-07T07:59:25.679Z</time>
      </trkpt>
      <trkpt lat="46.91864" lon="8.68303">
        <ele>2139</ele>
        <time>2021-08-07T07:59:26.678Z</time>
      </trkpt>
      <trkpt lat="46.91864" lon="8.68303">
        <ele>2139</ele>
        <time>2021-08-07T07:59:27.679Z</time>
      </trkpt>
      <trkpt lat="46.91864" lon="8.68302">
        <ele>2140</ele>
        <time>2021-08-07T07:59:28.679Z</time>
      </trkpt>
      <trkpt lat="46.91864" lon="8.68302">
        <ele>2139</ele>
        <time>2021-08-07T07:59:29.679Z</time>
      </trkpt>
      <trkpt lat="46.91864" lon="8.68302">
        <ele>2136</ele>
        <time>2021-08-07T07:59:30.680Z</time>
      </trkpt>
      <trkpt lat="46.91864" lon="8.68302">
        <ele>2136</ele>
        <time>2021-08-07T07:59:31.680Z</time>
      </trkpt>
      <trkpt lat="46.91864" lon="8.68303">
        <ele>2137</ele>
        <time>2021-08-07T07:59:32.680Z</time>
      </trkpt>
      <trkpt lat="46.91862" lon="8.68302">
        <ele>2139</ele>
        <time>2021-08-07T07:59:33.681Z</time>
      </trkpt>
      <trkpt lat="46.91862" lon="8.68302">
        <ele>2139</ele>
        <time>2021-08-07T07:59:34.680Z</time>
      </trkpt>
      <trkpt lat="46.91862" lon="8.68302">
        <ele>2138</ele>
        <time>2021-08-07T07:59:35.681Z</time>
      </trkpt>
      <trkpt lat="46.91863" lon="8.68302">
        <ele>2139</ele>
        <time>2021-08-07T07:59:36.681Z</time>
      </trkpt>
      <trkpt lat="46.91863" lon="8.68301">
        <ele>2139</ele>
        <time>2021-08-07T07:59:37.680Z</time>
      </trkpt>
      <trkpt lat="46.91864" lon="8.683">
        <ele>2138</ele>
        <time>2021-08-07T07:59:38.681Z</time>
      </trkpt>
      <trkpt lat="46.91867" lon="8.68295">
        <ele>2144</ele>
        <time>2021-08-07T07:59:39.682Z</time>
      </trkpt>
      <trkpt lat="46.91867" lon="8.68295">
        <ele>2146</ele>
        <time>2021-08-07T07:59:40.682Z</time>
      </trkpt>
      <trkpt lat="46.91868" lon="8.68294">
        <ele>2156</ele>
        <time>2021-08-07T07:59:41.681Z</time>
      </trkpt>
      <trkpt lat="46.91868" lon="8.68294">
        <ele>2156</ele>
        <time>2021-08-07T07:59:42.682Z</time>
      </trkpt>
      <trkpt lat="46.9187" lon="8.68296">
        <ele>2154</ele>
        <time>2021-08-07T07:59:43.683Z</time>
      </trkpt>
      <trkpt lat="46.9187" lon="8.68297">
        <ele>2154</ele>
        <time>2021-08-07T07:59:44.683Z</time>
      </trkpt>
      <trkpt lat="46.91869" lon="8.68298">
        <ele>2154</ele>
        <time>2021-08-07T07:59:45.682Z</time>
      </trkpt>
      <trkpt lat="46.91867" lon="8.68298">
        <ele>2149</ele>
        <time>2021-08-07T07:59:46.683Z</time>
      </trkpt>
      <trkpt lat="46.91866" lon="8.68298">
        <ele>2148</ele>
        <time>2021-08-07T07:59:47.683Z</time>
      </trkpt>
      <trkpt lat="46.91867" lon="8.68297">
        <ele>2143</ele>
        <time>2021-08-07T07:59:48.683Z</time>
      </trkpt>
      <trkpt lat="46.91868" lon="8.68298">
        <ele>2143</ele>
        <time>2021-08-07T07:59:49.684Z</time>
      </trkpt>
      <trkpt lat="46.91868" lon="8.68299">
        <ele>2144</ele>
        <time>2021-08-07T07:59:50.684Z</time>
      </trkpt>
      <trkpt lat="46.91868" lon="8.68298">
        <ele>2144</ele>
        <time>2021-08-07T07:59:51.683Z</time>
      </trkpt>
      <trkpt lat="46.91868" lon="8.68298">
        <ele>2143</ele>
        <time>2021-08-07T07:59:52.684Z</time>
      </trkpt>
      <trkpt lat="46.91866" lon="8.68299">
        <ele>2138</ele>
        <time>2021-08-07T07:59:53.684Z</time>
      </trkpt>
      <trkpt lat="46.91867" lon="8.68298">
        <ele>2138</ele>
        <time>2021-08-07T07:59:54.684Z</time>
      </trkpt>
      <trkpt lat="46.91867" lon="8.68298">
        <ele>2138</ele>
        <time>2021-08-07T07:59:55.683Z</time>
      </trkpt>
      <trkpt lat="46.91867" lon="8.68298">
        <ele>2138</ele>
        <time>2021-08-07T07:59:56.683Z</time>
      </trkpt>
      <trkpt lat="46.91864" lon="8.68299">
        <ele>2138</ele>
        <time>2021-08-07T07:59:57.685Z</time>
      </trkpt>
      <trkpt lat="46.91864" lon="8.68299">
        <ele>2138</ele>
        <time>2021-08-07T07:59:58.684Z</time>
      </trkpt>
      <trkpt lat="46.91864" lon="8.68299">
        <ele>2138</ele>
        <time>2021-08-07T07:59:59.684Z</time>
      </trkpt>
      <trkpt lat="46.91864" lon="8.68299">
        <ele>2138</ele>
        <time>2021-08-07T08:00:00.684Z</time>
      </trkpt>
      <trkpt lat="46.91864" lon="8.68298">
        <ele>2138</ele>
        <time>2021-08-07T08:00:01.685Z</time>
      </trkpt>
      <trkpt lat="46.91863" lon="8.68298">
        <ele>2138</ele>
        <time>2021-08-07T08:00:02.684Z</time>
      </trkpt>
      <trkpt lat="46.91863" lon="8.68299">
        <ele>2139</ele>
        <time>2021-08-07T08:00:03.684Z</time>
      </trkpt>
      <trkpt lat="46.91863" lon="8.68299">
        <ele>2139</ele>
        <time>2021-08-07T08:00:04.684Z</time>
      </trkpt>
      <trkpt lat="46.91861" lon="8.683">
        <ele>2137</ele>
        <time>2021-08-07T08:00:05.685Z</time>
      </trkpt>
      <trkpt lat="46.91861" lon="8.683">
        <ele>2137</ele>
        <time>2021-08-07T08:00:06.686Z</time>
      </trkpt>
      <trkpt lat="46.9186" lon="8.68302">
        <ele>2137</ele>
        <time>2021-08-07T08:00:07.686Z</time>
      </trkpt>
      <trkpt lat="46.9186" lon="8.68303">
        <ele>2137</ele>
        <time>2021-08-07T08:00:08.686Z</time>
      </trkpt>
      <trkpt lat="46.9186" lon="8.68303">
        <ele>2138</ele>
        <time>2021-08-07T08:00:09.685Z</time>
      </trkpt>
      <trkpt lat="46.9186" lon="8.68304">
        <ele>2138</ele>
        <time>2021-08-07T08:00:10.685Z</time>
      </trkpt>
      <trkpt lat="46.9186" lon="8.68303">
        <ele>2141</ele>
        <time>2021-08-07T08:00:11.687Z</time>
      </trkpt>
      <trkpt lat="46.9186" lon="8.68303">
        <ele>2141</ele>
        <time>2021-08-07T08:00:12.687Z</time>
      </trkpt>
      <trkpt lat="46.91861" lon="8.68303">
        <ele>2141</ele>
        <time>2021-08-07T08:00:13.687Z</time>
      </trkpt>
      <trkpt lat="46.91861" lon="8.68303">
        <ele>2141</ele>
        <time>2021-08-07T08:00:14.687Z</time>
      </trkpt>
      <trkpt lat="46.91861" lon="8.68302">
        <ele>2141</ele>
        <time>2021-08-07T08:00:15.687Z</time>
      </trkpt>
      <trkpt lat="46.91861" lon="8.68302">
        <ele>2141</ele>
        <time>2021-08-07T08:00:16.687Z</time>
      </trkpt>
      <trkpt lat="46.91861" lon="8.68303">
        <ele>2142</ele>
        <time>2021-08-07T08:00:17.687Z</time>
      </trkpt>
      <trkpt lat="46.91861" lon="8.68304">
        <ele>2141</ele>
        <time>2021-08-07T08:00:18.688Z</time>
      </trkpt>
      <trkpt lat="46.91861" lon="8.68304">
        <ele>2141</ele>
        <time>2021-08-07T08:00:19.688Z</time>
      </trkpt>
      <trkpt lat="46.91861" lon="8.68304">
        <ele>2138</ele>
        <time>2021-08-07T08:00:20.688Z</time>
      </trkpt>
      <trkpt lat="46.91861" lon="8.68303">
        <ele>2137</ele>
        <time>2021-08-07T08:00:21.688Z</time>
      </trkpt>
      <trkpt lat="46.9186" lon="8.68303">
        <ele>2137</ele>
        <time>2021-08-07T08:00:22.687Z</time>
      </trkpt>
      <trkpt lat="46.9186" lon="8.68303">
        <ele>2137</ele>
        <time>2021-08-07T08:00:23.688Z</time>
      </trkpt>
      <trkpt lat="46.91861" lon="8.68303">
        <ele>2136</ele>
        <time>2021-08-07T08:00:24.688Z</time>
      </trkpt>
      <trkpt lat="46.91861" lon="8.68303">
        <ele>2136</ele>
        <time>2021-08-07T08:00:25.688Z</time>
      </trkpt>
      <trkpt lat="46.91861" lon="8.68302">
        <ele>2136</ele>
        <time>2021-08-07T08:00:26.688Z</time>
      </trkpt>
      <trkpt lat="46.91864" lon="8.683">
        <ele>2136</ele>
        <time>2021-08-07T08:00:27.689Z</time>
      </trkpt>
      <trkpt lat="46.91866" lon="8.68296">
        <ele>2140</ele>
        <time>2021-08-07T08:00:28.689Z</time>
      </trkpt>
      <trkpt lat="46.91866" lon="8.68295">
        <ele>2141</ele>
        <time>2021-08-07T08:00:29.689Z</time>
      </trkpt>
      <trkpt lat="46.91863" lon="8.68297">
        <ele>2138</ele>
        <time>2021-08-07T08:00:30.690Z</time>
      </trkpt>
      <trkpt lat="46.91864" lon="8.68297">
        <ele>2138</ele>
        <time>2021-08-07T08:00:31.689Z</time>
      </trkpt>
      <trkpt lat="46.91864" lon="8.68297">
        <ele>2138</ele>
        <time>2021-08-07T08:00:32.689Z</time>
      </trkpt>
      <trkpt lat="46.91864" lon="8.68297">
        <ele>2138</ele>
        <time>2021-08-07T08:00:33.689Z</time>
      </trkpt>
      <trkpt lat="46.91864" lon="8.68298">
        <ele>2137</ele>
        <time>2021-08-07T08:00:34.690Z</time>
      </trkpt>
      <trkpt lat="46.91864" lon="8.68298">
        <ele>2137</ele>
        <time>2021-08-07T08:00:35.689Z</time>
      </trkpt>
      <trkpt lat="46.91864" lon="8.68298">
        <ele>2137</ele>
        <time>2021-08-07T08:00:36.689Z</time>
      </trkpt>
      <trkpt lat="46.91864" lon="8.68301">
        <ele>2138</ele>
        <time>2021-08-07T08:00:37.689Z</time>
      </trkpt>
      <trkpt lat="46.91866" lon="8.683">
        <ele>2137</ele>
        <time>2021-08-07T08:00:38.690Z</time>
      </trkpt>
      <trkpt lat="46.91867" lon="8.68299">
        <ele>2134</ele>
        <time>2021-08-07T08:00:39.691Z</time>
      </trkpt>
      <trkpt lat="46.91866" lon="8.68302">
        <ele>2131</ele>
        <time>2021-08-07T08:00:40.691Z</time>
      </trkpt>
      <trkpt lat="46.91866" lon="8.683">
        <ele>2132</ele>
        <time>2021-08-07T08:00:41.690Z</time>
      </trkpt>
      <trkpt lat="46.91866" lon="8.683">
        <ele>2132</ele>
        <time>2021-08-07T08:00:42.690Z</time>
      </trkpt>
      <trkpt lat="46.91866" lon="8.683">
        <ele>2132</ele>
        <time>2021-08-07T08:00:43.690Z</time>
      </trkpt>
      <trkpt lat="46.91863" lon="8.68301">
        <ele>2137</ele>
        <time>2021-08-07T08:00:44.690Z</time>
      </trkpt>
      <trkpt lat="46.91866" lon="8.68304">
        <ele>2135</ele>
        <time>2021-08-07T08:00:45.691Z</time>
      </trkpt>
      <trkpt lat="46.91866" lon="8.68304">
        <ele>2135</ele>
        <time>2021-08-07T08:00:46.690Z</time>
      </trkpt>
      <trkpt lat="46.91864" lon="8.68303">
        <ele>2136</ele>
        <time>2021-08-07T08:00:47.690Z</time>
      </trkpt>
      <trkpt lat="46.91864" lon="8.68303">
        <ele>2136</ele>
        <time>2021-08-07T08:00:48.691Z</time>
      </trkpt>
      <trkpt lat="46.91863" lon="8.68303">
        <ele>2135</ele>
        <time>2021-08-07T08:00:49.690Z</time>
      </trkpt>
      <trkpt lat="46.91863" lon="8.68303">
        <ele>2135</ele>
        <time>2021-08-07T08:00:50.690Z</time>
      </trkpt>
      <trkpt lat="46.91864" lon="8.68302">
        <ele>2135</ele>
        <time>2021-08-07T08:00:51.690Z</time>
      </trkpt>
      <trkpt lat="46.91863" lon="8.68302">
        <ele>2136</ele>
        <time>2021-08-07T08:00:52.690Z</time>
      </trkpt>
      <trkpt lat="46.91863" lon="8.68301">
        <ele>2137</ele>
        <time>2021-08-07T08:00:53.692Z</time>
      </trkpt>
      <trkpt lat="46.91863" lon="8.68301">
        <ele>2137</ele>
        <time>2021-08-07T08:00:54.692Z</time>
      </trkpt>
      <trkpt lat="46.91863" lon="8.68302">
        <ele>2137</ele>
        <time>2021-08-07T08:00:55.692Z</time>
      </trkpt>
      <trkpt lat="46.91863" lon="8.68301">
        <ele>2133</ele>
        <time>2021-08-07T08:00:59.691Z</time>
      </trkpt>
      <trkpt lat="46.91863" lon="8.68302">
        <ele>2133</ele>
        <time>2021-08-07T08:01:00.692Z</time>
      </trkpt>
      <trkpt lat="46.91862" lon="8.68302">
        <ele>2134</ele>
        <time>2021-08-07T08:01:01.691Z</time>
      </trkpt>
      <trkpt lat="46.91862" lon="8.68302">
        <ele>2134</ele>
        <time>2021-08-07T08:01:02.692Z</time>
      </trkpt>
      <trkpt lat="46.91861" lon="8.68301">
        <ele>2135</ele>
        <time>2021-08-07T08:01:03.692Z</time>
      </trkpt>
      <trkpt lat="46.91861" lon="8.68301">
        <ele>2135</ele>
        <time>2021-08-07T08:01:04.692Z</time>
      </trkpt>
      <trkpt lat="46.91861" lon="8.68301">
        <ele>2137</ele>
        <time>2021-08-07T08:01:05.692Z</time>
      </trkpt>
      <trkpt lat="46.9186" lon="8.683">
        <ele>2137</ele>
        <time>2021-08-07T08:01:06.693Z</time>
      </trkpt>
      <trkpt lat="46.91861" lon="8.683">
        <ele>2138</ele>
        <time>2021-08-07T08:01:07.692Z</time>
      </trkpt>
      <trkpt lat="46.91861" lon="8.683">
        <ele>2138</ele>
        <time>2021-08-07T08:01:08.692Z</time>
      </trkpt>
      <trkpt lat="46.91862" lon="8.68299">
        <ele>2138</ele>
        <time>2021-08-07T08:01:09.693Z</time>
      </trkpt>
      <trkpt lat="46.91862" lon="8.683">
        <ele>2138</ele>
        <time>2021-08-07T08:01:10.693Z</time>
      </trkpt>
      <trkpt lat="46.91862" lon="8.683">
        <ele>2137</ele>
        <time>2021-08-07T08:01:11.693Z</time>
      </trkpt>
      <trkpt lat="46.91862" lon="8.683">
        <ele>2137</ele>
        <time>2021-08-07T08:01:12.693Z</time>
      </trkpt>
      <trkpt lat="46.91862" lon="8.68301">
        <ele>2137</ele>
        <time>2021-08-07T08:01:13.693Z</time>
      </trkpt>
      <trkpt lat="46.91862" lon="8.68301">
        <ele>2137</ele>
        <time>2021-08-07T08:01:14.692Z</time>
      </trkpt>
      <trkpt lat="46.91862" lon="8.68301">
        <ele>2137</ele>
        <time>2021-08-07T08:01:15.692Z</time>
      </trkpt>
      <trkpt lat="46.91862" lon="8.68302">
        <ele>2137</ele>
        <time>2021-08-07T08:01:16.692Z</time>
      </trkpt>
      <trkpt lat="46.91862" lon="8.68303">
        <ele>2137</ele>
        <time>2021-08-07T08:01:17.693Z</time>
      </trkpt>
      <trkpt lat="46.91862" lon="8.68304">
        <ele>2137</ele>
        <time>2021-08-07T08:01:18.692Z</time>
      </trkpt>
      <trkpt lat="46.91862" lon="8.68305">
        <ele>2136</ele>
        <time>2021-08-07T08:01:19.693Z</time>
      </trkpt>
      <trkpt lat="46.91861" lon="8.68305">
        <ele>2136</ele>
        <time>2021-08-07T08:01:20.694Z</time>
      </trkpt>
      <trkpt lat="46.91862" lon="8.68304">
        <ele>2133</ele>
        <time>2021-08-07T08:01:21.693Z</time>
      </trkpt>
      <trkpt lat="46.91862" lon="8.68303">
        <ele>2133</ele>
        <time>2021-08-07T08:01:22.693Z</time>
      </trkpt>
      <trkpt lat="46.91863" lon="8.68302">
        <ele>2133</ele>
        <time>2021-08-07T08:01:23.693Z</time>
      </trkpt>
      <trkpt lat="46.91864" lon="8.68299">
        <ele>2138</ele>
        <time>2021-08-07T08:01:24.694Z</time>
      </trkpt>
      <trkpt lat="46.91864" lon="8.683">
        <ele>2138</ele>
        <time>2021-08-07T08:01:25.693Z</time>
      </trkpt>
      <trkpt lat="46.91863" lon="8.68301">
        <ele>2139</ele>
        <time>2021-08-07T08:01:26.694Z</time>
      </trkpt>
      <trkpt lat="46.91863" lon="8.68301">
        <ele>2139</ele>
        <time>2021-08-07T08:01:27.694Z</time>
      </trkpt>
      <trkpt lat="46.91863" lon="8.68301">
        <ele>2139</ele>
        <time>2021-08-07T08:01:28.693Z</time>
      </trkpt>
      <trkpt lat="46.91864" lon="8.68301">
        <ele>2140</ele>
        <time>2021-08-07T08:01:29.693Z</time>
      </trkpt>
      <trkpt lat="46.91864" lon="8.683">
        <ele>2138</ele>
        <time>2021-08-07T08:01:30.694Z</time>
      </trkpt>
      <trkpt lat="46.91863" lon="8.683">
        <ele>2139</ele>
        <time>2021-08-07T08:01:31.694Z</time>
      </trkpt>
      <trkpt lat="46.91863" lon="8.683">
        <ele>2139</ele>
        <time>2021-08-07T08:01:32.694Z</time>
      </trkpt>
      <trkpt lat="46.91862" lon="8.68301">
        <ele>2139</ele>
        <time>2021-08-07T08:01:33.694Z</time>
      </trkpt>
      <trkpt lat="46.91862" lon="8.68301">
        <ele>2139</ele>
        <time>2021-08-07T08:01:34.693Z</time>
      </trkpt>
      <trkpt lat="46.91862" lon="8.68301">
        <ele>2139</ele>
        <time>2021-08-07T08:01:35.693Z</time>
      </trkpt>
      <trkpt lat="46.91862" lon="8.68302">
        <ele>2135</ele>
        <time>2021-08-07T08:01:36.693Z</time>
      </trkpt>
      <trkpt lat="46.91862" lon="8.68302">
        <ele>2136</ele>
        <time>2021-08-07T08:01:37.694Z</time>
      </trkpt>
      <trkpt lat="46.91862" lon="8.68301">
        <ele>2138</ele>
        <time>2021-08-07T08:01:38.695Z</time>
      </trkpt>
      <trkpt lat="46.91862" lon="8.68301">
        <ele>2138</ele>
        <time>2021-08-07T08:01:39.695Z</time>
      </trkpt>
      <trkpt lat="46.91862" lon="8.68301">
        <ele>2139</ele>
        <time>2021-08-07T08:01:40.694Z</time>
      </trkpt>
      <trkpt lat="46.91864" lon="8.68303">
        <ele>2136</ele>
        <time>2021-08-07T08:01:41.694Z</time>
      </trkpt>
      <trkpt lat="46.91864" lon="8.68303">
        <ele>2137</ele>
        <time>2021-08-07T08:01:42.694Z</time>
      </trkpt>
      <trkpt lat="46.9186" lon="8.68302">
        <ele>2136</ele>
        <time>2021-08-07T08:01:43.694Z</time>
      </trkpt>
      <trkpt lat="46.9186" lon="8.68302">
        <ele>2136</ele>
        <time>2021-08-07T08:01:44.695Z</time>
      </trkpt>
      <trkpt lat="46.91863" lon="8.68301">
        <ele>2134</ele>
        <time>2021-08-07T08:01:45.695Z</time>
      </trkpt>
      <trkpt lat="46.91863" lon="8.68302">
        <ele>2139</ele>
        <time>2021-08-07T08:01:46.696Z</time>
      </trkpt>
      <trkpt lat="46.91863" lon="8.68302">
        <ele>2139</ele>
        <time>2021-08-07T08:01:47.695Z</time>
      </trkpt>
      <trkpt lat="46.91862" lon="8.68302">
        <ele>2137</ele>
        <time>2021-08-07T08:01:48.695Z</time>
      </trkpt>
      <trkpt lat="46.91862" lon="8.68302">
        <ele>2137</ele>
        <time>2021-08-07T08:01:49.695Z</time>
      </trkpt>
      <trkpt lat="46.91862" lon="8.68302">
        <ele>2136</ele>
        <time>2021-08-07T08:01:50.695Z</time>
      </trkpt>
      <trkpt lat="46.91862" lon="8.68302">
        <ele>2136</ele>
        <time>2021-08-07T08:01:51.696Z</time>
      </trkpt>
      <trkpt lat="46.91862" lon="8.68302">
        <ele>2136</ele>
        <time>2021-08-07T08:01:52.696Z</time>
      </trkpt>
      <trkpt lat="46.91862" lon="8.68301">
        <ele>2136</ele>
        <time>2021-08-07T08:01:53.695Z</time>
      </trkpt>
      <trkpt lat="46.91863" lon="8.683">
        <ele>2144</ele>
        <time>2021-08-07T08:01:54.696Z</time>
      </trkpt>
      <trkpt lat="46.91863" lon="8.683">
        <ele>2144</ele>
        <time>2021-08-07T08:01:55.695Z</time>
      </trkpt>
      <trkpt lat="46.91865" lon="8.68303">
        <ele>2139</ele>
        <time>2021-08-07T08:01:56.696Z</time>
      </trkpt>
      <trkpt lat="46.91865" lon="8.68303">
        <ele>2139</ele>
        <time>2021-08-07T08:01:57.695Z</time>
      </trkpt>
      <trkpt lat="46.91862" lon="8.68303">
        <ele>2137</ele>
        <time>2021-08-07T08:01:58.696Z</time>
      </trkpt>
      <trkpt lat="46.91863" lon="8.68303">
        <ele>2138</ele>
        <time>2021-08-07T08:01:59.696Z</time>
      </trkpt>
      <trkpt lat="46.91863" lon="8.68302">
        <ele>2138</ele>
        <time>2021-08-07T08:02:00.695Z</time>
      </trkpt>
      <trkpt lat="46.91863" lon="8.68302">
        <ele>2138</ele>
        <time>2021-08-07T08:02:01.695Z</time>
      </trkpt>
      <trkpt lat="46.91863" lon="8.68301">
        <ele>2138</ele>
        <time>2021-08-07T08:02:02.695Z</time>
      </trkpt>
      <trkpt lat="46.91863" lon="8.683">
        <ele>2138</ele>
        <time>2021-08-07T08:02:03.695Z</time>
      </trkpt>
      <trkpt lat="46.91863" lon="8.683">
        <ele>2138</ele>
        <time>2021-08-07T08:02:04.696Z</time>
      </trkpt>
      <trkpt lat="46.91863" lon="8.683">
        <ele>2138</ele>
        <time>2021-08-07T08:02:05.696Z</time>
      </trkpt>
      <trkpt lat="46.91864" lon="8.683">
        <ele>2138</ele>
        <time>2021-08-07T08:02:06.696Z</time>
      </trkpt>
      <trkpt lat="46.91864" lon="8.683">
        <ele>2139</ele>
        <time>2021-08-07T08:02:07.695Z</time>
      </trkpt>
      <trkpt lat="46.91864" lon="8.683">
        <ele>2139</ele>
        <time>2021-08-07T08:02:08.696Z</time>
      </trkpt>
      <trkpt lat="46.91865" lon="8.683">
        <ele>2140</ele>
        <time>2021-08-07T08:02:09.696Z</time>
      </trkpt>
      <trkpt lat="46.91865" lon="8.683">
        <ele>2141</ele>
        <time>2021-08-07T08:02:10.696Z</time>
      </trkpt>
      <trkpt lat="46.91866" lon="8.68299">
        <ele>2141</ele>
        <time>2021-08-07T08:02:11.696Z</time>
      </trkpt>
      <trkpt lat="46.91866" lon="8.68299">
        <ele>2142</ele>
        <time>2021-08-07T08:02:12.696Z</time>
      </trkpt>
      <trkpt lat="46.91866" lon="8.68299">
        <ele>2142</ele>
        <time>2021-08-07T08:02:13.696Z</time>
      </trkpt>
      <trkpt lat="46.91866" lon="8.68299">
        <ele>2141</ele>
        <time>2021-08-07T08:02:14.695Z</time>
      </trkpt>
      <trkpt lat="46.91866" lon="8.68299">
        <ele>2141</ele>
        <time>2021-08-07T08:02:15.696Z</time>
      </trkpt>
      <trkpt lat="46.91866" lon="8.68299">
        <ele>2140</ele>
        <time>2021-08-07T08:02:16.695Z</time>
      </trkpt>
      <trkpt lat="46.91866" lon="8.68299">
        <ele>2139</ele>
        <time>2021-08-07T08:02:17.696Z</time>
      </trkpt>
      <trkpt lat="46.91866" lon="8.68299">
        <ele>2138</ele>
        <time>2021-08-07T08:02:18.696Z</time>
      </trkpt>
      <trkpt lat="46.91866" lon="8.68299">
        <ele>2138</ele>
        <time>2021-08-07T08:02:19.696Z</time>
      </trkpt>
      <trkpt lat="46.91866" lon="8.68299">
        <ele>2138</ele>
        <time>2021-08-07T08:02:20.696Z</time>
      </trkpt>
      <trkpt lat="46.91866" lon="8.68299">
        <ele>2138</ele>
        <time>2021-08-07T08:02:21.695Z</time>
      </trkpt>
      <trkpt lat="46.91866" lon="8.68299">
        <ele>2138</ele>
        <time>2021-08-07T08:02:22.695Z</time>
      </trkpt>
      <trkpt lat="46.91866" lon="8.68299">
        <ele>2138</ele>
        <time>2021-08-07T08:02:23.696Z</time>
      </trkpt>
      <trkpt lat="46.91866" lon="8.683">
        <ele>2138</ele>
        <time>2021-08-07T08:02:24.695Z</time>
      </trkpt>
      <trkpt lat="46.91866" lon="8.683">
        <ele>2138</ele>
        <time>2021-08-07T08:02:25.696Z</time>
      </trkpt>
      <trkpt lat="46.91866" lon="8.683">
        <ele>2139</ele>
        <time>2021-08-07T08:02:26.696Z</time>
      </trkpt>
      <trkpt lat="46.91866" lon="8.683">
        <ele>2139</ele>
        <time>2021-08-07T08:02:27.696Z</time>
      </trkpt>
      <trkpt lat="46.91866" lon="8.683">
        <ele>2138</ele>
        <time>2021-08-07T08:02:28.696Z</time>
      </trkpt>
      <trkpt lat="46.91866" lon="8.683">
        <ele>2138</ele>
        <time>2021-08-07T08:02:29.695Z</time>
      </trkpt>
      <trkpt lat="46.91865" lon="8.683">
        <ele>2138</ele>
        <time>2021-08-07T08:02:30.695Z</time>
      </trkpt>
      <trkpt lat="46.91865" lon="8.683">
        <ele>2137</ele>
        <time>2021-08-07T08:02:31.696Z</time>
      </trkpt>
      <trkpt lat="46.91865" lon="8.683">
        <ele>2137</ele>
        <time>2021-08-07T08:02:32.695Z</time>
      </trkpt>
      <trkpt lat="46.91865" lon="8.683">
        <ele>2137</ele>
        <time>2021-08-07T08:02:33.695Z</time>
      </trkpt>
      <trkpt lat="46.91865" lon="8.683">
        <ele>2137</ele>
        <time>2021-08-07T08:02:34.696Z</time>
      </trkpt>
      <trkpt lat="46.91865" lon="8.683">
        <ele>2137</ele>
        <time>2021-08-07T08:02:35.696Z</time>
      </trkpt>
      <trkpt lat="46.91865" lon="8.683">
        <ele>2137</ele>
        <time>2021-08-07T08:02:36.696Z</time>
      </trkpt>
      <trkpt lat="46.91865" lon="8.683">
        <ele>2138</ele>
        <time>2021-08-07T08:02:37.695Z</time>
      </trkpt>
      <trkpt lat="46.91865" lon="8.68301">
        <ele>2138</ele>
        <time>2021-08-07T08:02:38.695Z</time>
      </trkpt>
      <trkpt lat="46.91866" lon="8.68301">
        <ele>2138</ele>
        <time>2021-08-07T08:02:39.695Z</time>
      </trkpt>
      <trkpt lat="46.91866" lon="8.68301">
        <ele>2138</ele>
        <time>2021-08-07T08:02:40.695Z</time>
      </trkpt>
      <trkpt lat="46.91866" lon="8.683">
        <ele>2137</ele>
        <time>2021-08-07T08:02:41.695Z</time>
      </trkpt>
      <trkpt lat="46.91865" lon="8.683">
        <ele>2137</ele>
        <time>2021-08-07T08:02:42.695Z</time>
      </trkpt>
      <trkpt lat="46.91865" lon="8.683">
        <ele>2138</ele>
        <time>2021-08-07T08:02:43.695Z</time>
      </trkpt>
      <trkpt lat="46.91865" lon="8.68301">
        <ele>2138</ele>
        <time>2021-08-07T08:02:44.696Z</time>
      </trkpt>
      <trkpt lat="46.91864" lon="8.68301">
        <ele>2138</ele>
        <time>2021-08-07T08:02:45.695Z</time>
      </trkpt>
      <trkpt lat="46.91864" lon="8.68302">
        <ele>2138</ele>
        <time>2021-08-07T08:02:46.695Z</time>
      </trkpt>
      <trkpt lat="46.91864" lon="8.68302">
        <ele>2138</ele>
        <time>2021-08-07T08:02:47.695Z</time>
      </trkpt>
      <trkpt lat="46.91864" lon="8.68302">
        <ele>2138</ele>
        <time>2021-08-07T08:02:48.696Z</time>
      </trkpt>
      <trkpt lat="46.91862" lon="8.68301">
        <ele>2138</ele>
        <time>2021-08-07T08:02:49.696Z</time>
      </trkpt>
      <trkpt lat="46.91862" lon="8.68302">
        <ele>2137</ele>
        <time>2021-08-07T08:02:50.696Z</time>
      </trkpt>
      <trkpt lat="46.91862" lon="8.68302">
        <ele>2137</ele>
        <time>2021-08-07T08:02:51.696Z</time>
      </trkpt>
      <trkpt lat="46.91862" lon="8.68302">
        <ele>2137</ele>
        <time>2021-08-07T08:02:52.696Z</time>
      </trkpt>
      <trkpt lat="46.91862" lon="8.68301">
        <ele>2137</ele>
        <time>2021-08-07T08:02:53.695Z</time>
      </trkpt>
      <trkpt lat="46.91862" lon="8.68301">
        <ele>2138</ele>
        <time>2021-08-07T08:02:54.696Z</time>
      </trkpt>
      <trkpt lat="46.91862" lon="8.683">
        <ele>2138</ele>
        <time>2021-08-07T08:02:55.696Z</time>
      </trkpt>
      <trkpt lat="46.91863" lon="8.68301">
        <ele>2138</ele>
        <time>2021-08-07T08:02:56.697Z</time>
      </trkpt>
      <trkpt lat="46.91863" lon="8.68301">
        <ele>2138</ele>
        <time>2021-08-07T08:02:57.697Z</time>
      </trkpt>
      <trkpt lat="46.91863" lon="8.68301">
        <ele>2139</ele>
        <time>2021-08-07T08:02:58.697Z</time>
      </trkpt>
      <trkpt lat="46.91863" lon="8.68301">
        <ele>2137</ele>
        <time>2021-08-07T08:02:59.699Z</time>
      </trkpt>
      <trkpt lat="46.91863" lon="8.68301">
        <ele>2137</ele>
        <time>2021-08-07T08:03:00.698Z</time>
      </trkpt>
      <trkpt lat="46.91863" lon="8.683">
        <ele>2137</ele>
        <time>2021-08-07T08:03:01.698Z</time>
      </trkpt>
      <trkpt lat="46.91864" lon="8.683">
        <ele>2137</ele>
        <time>2021-08-07T08:03:02.699Z</time>
      </trkpt>
      <trkpt lat="46.91864" lon="8.683">
        <ele>2137</ele>
        <time>2021-08-07T08:03:03.698Z</time>
      </trkpt>
      <trkpt lat="46.91864" lon="8.68299">
        <ele>2137</ele>
        <time>2021-08-07T08:03:04.699Z</time>
      </trkpt>
      <trkpt lat="46.91864" lon="8.68299">
        <ele>2138</ele>
        <time>2021-08-07T08:03:05.699Z</time>
      </trkpt>
      <trkpt lat="46.91865" lon="8.683">
        <ele>2138</ele>
        <time>2021-08-07T08:03:06.699Z</time>
      </trkpt>
      <trkpt lat="46.91864" lon="8.683">
        <ele>2138</ele>
        <time>2021-08-07T08:03:07.699Z</time>
      </trkpt>
      <trkpt lat="46.91864" lon="8.683">
        <ele>2138</ele>
        <time>2021-08-07T08:03:08.698Z</time>
      </trkpt>
      <trkpt lat="46.91862" lon="8.68302">
        <ele>2138</ele>
        <time>2021-08-07T08:03:09.699Z</time>
      </trkpt>
      <trkpt lat="46.91862" lon="8.68302">
        <ele>2138</ele>
        <time>2021-08-07T08:03:10.699Z</time>
      </trkpt>
      <trkpt lat="46.91863" lon="8.68301">
        <ele>2139</ele>
        <time>2021-08-07T08:03:11.700Z</time>
      </trkpt>
      <trkpt lat="46.91863" lon="8.68301">
        <ele>2140</ele>
        <time>2021-08-07T08:03:12.700Z</time>
      </trkpt>
      <trkpt lat="46.91862" lon="8.68302">
        <ele>2137</ele>
        <time>2021-08-07T08:03:13.699Z</time>
      </trkpt>
      <trkpt lat="46.91863" lon="8.68302">
        <ele>2137</ele>
        <time>2021-08-07T08:03:14.699Z</time>
      </trkpt>
      <trkpt lat="46.91862" lon="8.683">
        <ele>2134</ele>
        <time>2021-08-07T08:03:15.700Z</time>
      </trkpt>
      <trkpt lat="46.91862" lon="8.68301">
        <ele>2135</ele>
        <time>2021-08-07T08:03:16.699Z</time>
      </trkpt>
      <trkpt lat="46.91863" lon="8.68302">
        <ele>2135</ele>
        <time>2021-08-07T08:03:17.699Z</time>
      </trkpt>
      <trkpt lat="46.91862" lon="8.683">
        <ele>2137</ele>
        <time>2021-08-07T08:03:18.701Z</time>
      </trkpt>
      <trkpt lat="46.91862" lon="8.683">
        <ele>2137</ele>
        <time>2021-08-07T08:03:19.701Z</time>
      </trkpt>
      <trkpt lat="46.91862" lon="8.683">
        <ele>2138</ele>
        <time>2021-08-07T08:03:20.700Z</time>
      </trkpt>
      <trkpt lat="46.91862" lon="8.68298">
        <ele>2138</ele>
        <time>2021-08-07T08:03:21.701Z</time>
      </trkpt>
      <trkpt lat="46.91862" lon="8.68298">
        <ele>2138</ele>
        <time>2021-08-07T08:03:22.701Z</time>
      </trkpt>
      <trkpt lat="46.91862" lon="8.68301">
        <ele>2139</ele>
        <time>2021-08-07T08:03:23.701Z</time>
      </trkpt>
      <trkpt lat="46.91862" lon="8.68301">
        <ele>2140</ele>
        <time>2021-08-07T08:03:24.701Z</time>
      </trkpt>
      <trkpt lat="46.91862" lon="8.68302">
        <ele>2141</ele>
        <time>2021-08-07T08:03:25.700Z</time>
      </trkpt>
      <trkpt lat="46.91862" lon="8.68302">
        <ele>2141</ele>
        <time>2021-08-07T08:03:26.701Z</time>
      </trkpt>
      <trkpt lat="46.91862" lon="8.68303">
        <ele>2140</ele>
        <time>2021-08-07T08:03:27.701Z</time>
      </trkpt>
      <trkpt lat="46.91862" lon="8.68303">
        <ele>2139</ele>
        <time>2021-08-07T08:03:28.701Z</time>
      </trkpt>
      <trkpt lat="46.91862" lon="8.68303">
        <ele>2139</ele>
        <time>2021-08-07T08:03:29.700Z</time>
      </trkpt>
      <trkpt lat="46.91862" lon="8.68303">
        <ele>2139</ele>
        <time>2021-08-07T08:03:30.700Z</time>
      </trkpt>
      <trkpt lat="46.91862" lon="8.68303">
        <ele>2139</ele>
        <time>2021-08-07T08:03:31.701Z</time>
      </trkpt>
      <trkpt lat="46.91862" lon="8.68303">
        <ele>2139</ele>
        <time>2021-08-07T08:03:32.701Z</time>
      </trkpt>
      <trkpt lat="46.91862" lon="8.68303">
        <ele>2139</ele>
        <time>2021-08-07T08:03:33.700Z</time>
      </trkpt>
      <trkpt lat="46.91862" lon="8.68303">
        <ele>2140</ele>
        <time>2021-08-07T08:03:34.701Z</time>
      </trkpt>
      <trkpt lat="46.91862" lon="8.68303">
        <ele>2140</ele>
        <time>2021-08-07T08:03:35.701Z</time>
      </trkpt>
      <trkpt lat="46.91862" lon="8.68303">
        <ele>2140</ele>
        <time>2021-08-07T08:03:36.701Z</time>
      </trkpt>
      <trkpt lat="46.91862" lon="8.68302">
        <ele>2139</ele>
        <time>2021-08-07T08:03:37.702Z</time>
      </trkpt>
      <trkpt lat="46.91862" lon="8.68302">
        <ele>2139</ele>
        <time>2021-08-07T08:03:38.702Z</time>
      </trkpt>
      <trkpt lat="46.91862" lon="8.68303">
        <ele>2141</ele>
        <time>2021-08-07T08:03:39.702Z</time>
      </trkpt>
      <trkpt lat="46.91862" lon="8.68303">
        <ele>2141</ele>
        <time>2021-08-07T08:03:40.701Z</time>
      </trkpt>
      <trkpt lat="46.91861" lon="8.68303">
        <ele>2140</ele>
        <time>2021-08-07T08:03:41.701Z</time>
      </trkpt>
      <trkpt lat="46.91861" lon="8.68303">
        <ele>2139</ele>
        <time>2021-08-07T08:03:42.701Z</time>
      </trkpt>
      <trkpt lat="46.91861" lon="8.68304">
        <ele>2138</ele>
        <time>2021-08-07T08:03:43.701Z</time>
      </trkpt>
      <trkpt lat="46.91861" lon="8.68304">
        <ele>2138</ele>
        <time>2021-08-07T08:03:44.701Z</time>
      </trkpt>
      <trkpt lat="46.91862" lon="8.68304">
        <ele>2140</ele>
        <time>2021-08-07T08:03:45.701Z</time>
      </trkpt>
      <trkpt lat="46.91862" lon="8.68304">
        <ele>2141</ele>
        <time>2021-08-07T08:03:46.701Z</time>
      </trkpt>
      <trkpt lat="46.91862" lon="8.68303">
        <ele>2141</ele>
        <time>2021-08-07T08:03:47.702Z</time>
      </trkpt>
      <trkpt lat="46.91861" lon="8.68303">
        <ele>2141</ele>
        <time>2021-08-07T08:03:48.702Z</time>
      </trkpt>
      <trkpt lat="46.91861" lon="8.68303">
        <ele>2141</ele>
        <time>2021-08-07T08:03:49.701Z</time>
      </trkpt>
      <trkpt lat="46.91862" lon="8.68302">
        <ele>2139</ele>
        <time>2021-08-07T08:03:50.704Z</time>
      </trkpt>
      <trkpt lat="46.91862" lon="8.68302">
        <ele>2139</ele>
        <time>2021-08-07T08:03:51.703Z</time>
      </trkpt>
      <trkpt lat="46.91861" lon="8.68301">
        <ele>2139</ele>
        <time>2021-08-07T08:03:52.704Z</time>
      </trkpt>
      <trkpt lat="46.91861" lon="8.68301">
        <ele>2140</ele>
        <time>2021-08-07T08:03:53.703Z</time>
      </trkpt>
      <trkpt lat="46.9186" lon="8.68301">
        <ele>2140</ele>
        <time>2021-08-07T08:03:54.704Z</time>
      </trkpt>
      <trkpt lat="46.91861" lon="8.68299">
        <ele>2140</ele>
        <time>2021-08-07T08:03:55.704Z</time>
      </trkpt>
      <trkpt lat="46.91862" lon="8.68299">
        <ele>2140</ele>
        <time>2021-08-07T08:03:56.704Z</time>
      </trkpt>
      <trkpt lat="46.91862" lon="8.68298">
        <ele>2141</ele>
        <time>2021-08-07T08:03:57.703Z</time>
      </trkpt>
      <trkpt lat="46.91862" lon="8.68297">
        <ele>2141</ele>
        <time>2021-08-07T08:03:58.704Z</time>
      </trkpt>
      <trkpt lat="46.91862" lon="8.68296">
        <ele>2141</ele>
        <time>2021-08-07T08:03:59.704Z</time>
      </trkpt>
      <trkpt lat="46.91861" lon="8.68294">
        <ele>2141</ele>
        <time>2021-08-07T08:04:00.704Z</time>
      </trkpt>
      <trkpt lat="46.91861" lon="8.68294">
        <ele>2140</ele>
        <time>2021-08-07T08:04:01.704Z</time>
      </trkpt>
      <trkpt lat="46.91861" lon="8.68293">
        <ele>2140</ele>
        <time>2021-08-07T08:04:02.704Z</time>
      </trkpt>
      <trkpt lat="46.9186" lon="8.68291">
        <ele>2139</ele>
        <time>2021-08-07T08:04:03.704Z</time>
      </trkpt>
      <trkpt lat="46.9186" lon="8.6829">
        <ele>2139</ele>
        <time>2021-08-07T08:04:04.704Z</time>
      </trkpt>
      <trkpt lat="46.91859" lon="8.68289">
        <ele>2139</ele>
        <time>2021-08-07T08:04:05.703Z</time>
      </trkpt>
      <trkpt lat="46.91859" lon="8.68288">
        <ele>2139</ele>
        <time>2021-08-07T08:04:06.704Z</time>
      </trkpt>
      <trkpt lat="46.91859" lon="8.68287">
        <ele>2139</ele>
        <time>2021-08-07T08:04:07.704Z</time>
      </trkpt>
      <trkpt lat="46.91859" lon="8.68286">
        <ele>2139</ele>
        <time>2021-08-07T08:04:08.703Z</time>
      </trkpt>
      <trkpt lat="46.91859" lon="8.68285">
        <ele>2139</ele>
        <time>2021-08-07T08:04:09.704Z</time>
      </trkpt>
      <trkpt lat="46.9186" lon="8.68284">
        <ele>2139</ele>
        <time>2021-08-07T08:04:10.703Z</time>
      </trkpt>
      <trkpt lat="46.9186" lon="8.68283">
        <ele>2139</ele>
        <time>2021-08-07T08:04:11.703Z</time>
      </trkpt>
      <trkpt lat="46.91861" lon="8.68282">
        <ele>2140</ele>
        <time>2021-08-07T08:04:12.704Z</time>
      </trkpt>
      <trkpt lat="46.91862" lon="8.68281">
        <ele>2140</ele>
        <time>2021-08-07T08:04:13.703Z</time>
      </trkpt>
      <trkpt lat="46.91862" lon="8.6828">
        <ele>2140</ele>
        <time>2021-08-07T08:04:14.704Z</time>
      </trkpt>
      <trkpt lat="46.91863" lon="8.68279">
        <ele>2141</ele>
        <time>2021-08-07T08:04:15.704Z</time>
      </trkpt>
      <trkpt lat="46.91863" lon="8.68278">
        <ele>2141</ele>
        <time>2021-08-07T08:04:16.703Z</time>
      </trkpt>
      <trkpt lat="46.91863" lon="8.68276">
        <ele>2141</ele>
        <time>2021-08-07T08:04:17.704Z</time>
      </trkpt>
      <trkpt lat="46.91863" lon="8.68275">
        <ele>2141</ele>
        <time>2021-08-07T08:04:18.704Z</time>
      </trkpt>
      <trkpt lat="46.91863" lon="8.68273">
        <ele>2140</ele>
        <time>2021-08-07T08:04:19.704Z</time>
      </trkpt>
      <trkpt lat="46.91864" lon="8.68272">
        <ele>2139</ele>
        <time>2021-08-07T08:04:20.703Z</time>
      </trkpt>
      <trkpt lat="46.91864" lon="8.68271">
        <ele>2139</ele>
        <time>2021-08-07T08:04:21.704Z</time>
      </trkpt>
      <trkpt lat="46.91863" lon="8.68269">
        <ele>2139</ele>
        <time>2021-08-07T08:04:22.703Z</time>
      </trkpt>
      <trkpt lat="46.91862" lon="8.68268">
        <ele>2139</ele>
        <time>2021-08-07T08:04:23.704Z</time>
      </trkpt>
      <trkpt lat="46.91862" lon="8.68266">
        <ele>2139</ele>
        <time>2021-08-07T08:04:24.704Z</time>
      </trkpt>
      <trkpt lat="46.91861" lon="8.68265">
        <ele>2139</ele>
        <time>2021-08-07T08:04:25.704Z</time>
      </trkpt>
      <trkpt lat="46.91861" lon="8.68263">
        <ele>2138</ele>
        <time>2021-08-07T08:04:26.704Z</time>
      </trkpt>
      <trkpt lat="46.9186" lon="8.68262">
        <ele>2137</ele>
        <time>2021-08-07T08:04:27.703Z</time>
      </trkpt>
      <trkpt lat="46.9186" lon="8.68261">
        <ele>2137</ele>
        <time>2021-08-07T08:04:28.704Z</time>
      </trkpt>
      <trkpt lat="46.9186" lon="8.68259">
        <ele>2136</ele>
        <time>2021-08-07T08:04:29.704Z</time>
      </trkpt>
      <trkpt lat="46.91859" lon="8.68258">
        <ele>2136</ele>
        <time>2021-08-07T08:04:30.704Z</time>
      </trkpt>
      <trkpt lat="46.91859" lon="8.68257">
        <ele>2136</ele>
        <time>2021-08-07T08:04:31.703Z</time>
      </trkpt>
      <trkpt lat="46.91858" lon="8.68257">
        <ele>2136</ele>
        <time>2021-08-07T08:04:32.703Z</time>
      </trkpt>
      <trkpt lat="46.91858" lon="8.68255">
        <ele>2136</ele>
        <time>2021-08-07T08:04:33.704Z</time>
      </trkpt>
      <trkpt lat="46.91857" lon="8.68254">
        <ele>2136</ele>
        <time>2021-08-07T08:04:34.704Z</time>
      </trkpt>
      <trkpt lat="46.91856" lon="8.68253">
        <ele>2136</ele>
        <time>2021-08-07T08:04:35.704Z</time>
      </trkpt>
      <trkpt lat="46.91856" lon="8.68252">
        <ele>2136</ele>
        <time>2021-08-07T08:04:36.703Z</time>
      </trkpt>
      <trkpt lat="46.91855" lon="8.68251">
        <ele>2136</ele>
        <time>2021-08-07T08:04:37.704Z</time>
      </trkpt>
      <trkpt lat="46.91854" lon="8.68249">
        <ele>2136</ele>
        <time>2021-08-07T08:04:38.704Z</time>
      </trkpt>
      <trkpt lat="46.91853" lon="8.68248">
        <ele>2135</ele>
        <time>2021-08-07T08:04:39.704Z</time>
      </trkpt>
      <trkpt lat="46.91852" lon="8.68248">
        <ele>2135</ele>
        <time>2021-08-07T08:04:40.703Z</time>
      </trkpt>
      <trkpt lat="46.91851" lon="8.68247">
        <ele>2134</ele>
        <time>2021-08-07T08:04:41.704Z</time>
      </trkpt>
      <trkpt lat="46.9185" lon="8.68247">
        <ele>2134</ele>
        <time>2021-08-07T08:04:42.704Z</time>
      </trkpt>
      <trkpt lat="46.91849" lon="8.68246">
        <ele>2134</ele>
        <time>2021-08-07T08:04:43.703Z</time>
      </trkpt>
      <trkpt lat="46.91848" lon="8.68246">
        <ele>2134</ele>
        <time>2021-08-07T08:04:44.703Z</time>
      </trkpt>
      <trkpt lat="46.91847" lon="8.68245">
        <ele>2134</ele>
        <time>2021-08-07T08:04:45.703Z</time>
      </trkpt>
      <trkpt lat="46.91847" lon="8.68244">
        <ele>2134</ele>
        <time>2021-08-07T08:04:46.704Z</time>
      </trkpt>
      <trkpt lat="46.91846" lon="8.68244">
        <ele>2134</ele>
        <time>2021-08-07T08:04:47.704Z</time>
      </trkpt>
      <trkpt lat="46.91846" lon="8.68243">
        <ele>2135</ele>
        <time>2021-08-07T08:04:48.703Z</time>
      </trkpt>
      <trkpt lat="46.91846" lon="8.68243">
        <ele>2135</ele>
        <time>2021-08-07T08:04:49.704Z</time>
      </trkpt>
      <trkpt lat="46.91845" lon="8.68242">
        <ele>2135</ele>
        <time>2021-08-07T08:04:50.704Z</time>
      </trkpt>
      <trkpt lat="46.91844" lon="8.68242">
        <ele>2135</ele>
        <time>2021-08-07T08:04:51.704Z</time>
      </trkpt>
      <trkpt lat="46.91844" lon="8.68242">
        <ele>2135</ele>
        <time>2021-08-07T08:04:52.704Z</time>
      </trkpt>
      <trkpt lat="46.91843" lon="8.68242">
        <ele>2135</ele>
        <time>2021-08-07T08:04:53.704Z</time>
      </trkpt>
      <trkpt lat="46.91842" lon="8.68241">
        <ele>2135</ele>
        <time>2021-08-07T08:04:54.704Z</time>
      </trkpt>
      <trkpt lat="46.91842" lon="8.68241">
        <ele>2135</ele>
        <time>2021-08-07T08:04:55.703Z</time>
      </trkpt>
      <trkpt lat="46.91841" lon="8.6824">
        <ele>2136</ele>
        <time>2021-08-07T08:04:56.704Z</time>
      </trkpt>
      <trkpt lat="46.9184" lon="8.6824">
        <ele>2136</ele>
        <time>2021-08-07T08:04:57.704Z</time>
      </trkpt>
      <trkpt lat="46.91839" lon="8.68239">
        <ele>2136</ele>
        <time>2021-08-07T08:04:58.704Z</time>
      </trkpt>
      <trkpt lat="46.91839" lon="8.68238">
        <ele>2137</ele>
        <time>2021-08-07T08:04:59.704Z</time>
      </trkpt>
      <trkpt lat="46.91838" lon="8.68238">
        <ele>2137</ele>
        <time>2021-08-07T08:05:00.704Z</time>
      </trkpt>
      <trkpt lat="46.91837" lon="8.68237">
        <ele>2137</ele>
        <time>2021-08-07T08:05:01.703Z</time>
      </trkpt>
      <trkpt lat="46.91837" lon="8.68236">
        <ele>2136</ele>
        <time>2021-08-07T08:05:02.704Z</time>
      </trkpt>
      <trkpt lat="46.91836" lon="8.68235">
        <ele>2136</ele>
        <time>2021-08-07T08:05:03.704Z</time>
      </trkpt>
      <trkpt lat="46.91835" lon="8.68234">
        <ele>2136</ele>
        <time>2021-08-07T08:05:04.704Z</time>
      </trkpt>
      <trkpt lat="46.91834" lon="8.68233">
        <ele>2136</ele>
        <time>2021-08-07T08:05:05.703Z</time>
      </trkpt>
      <trkpt lat="46.91834" lon="8.68233">
        <ele>2136</ele>
        <time>2021-08-07T08:05:06.704Z</time>
      </trkpt>
      <trkpt lat="46.91833" lon="8.68233">
        <ele>2136</ele>
        <time>2021-08-07T08:05:07.703Z</time>
      </trkpt>
      <trkpt lat="46.91832" lon="8.68232">
        <ele>2135</ele>
        <time>2021-08-07T08:05:08.704Z</time>
      </trkpt>
      <trkpt lat="46.91831" lon="8.68232">
        <ele>2135</ele>
        <time>2021-08-07T08:05:09.704Z</time>
      </trkpt>
      <trkpt lat="46.9183" lon="8.68231">
        <ele>2135</ele>
        <time>2021-08-07T08:05:10.704Z</time>
      </trkpt>
      <trkpt lat="46.91829" lon="8.68231">
        <ele>2136</ele>
        <time>2021-08-07T08:05:11.704Z</time>
      </trkpt>
      <trkpt lat="46.91828" lon="8.6823">
        <ele>2136</ele>
        <time>2021-08-07T08:05:12.704Z</time>
      </trkpt>
      <trkpt lat="46.91827" lon="8.68229">
        <ele>2136</ele>
        <time>2021-08-07T08:05:13.704Z</time>
      </trkpt>
      <trkpt lat="46.91826" lon="8.68228">
        <ele>2136</ele>
        <time>2021-08-07T08:05:14.704Z</time>
      </trkpt>
      <trkpt lat="46.91825" lon="8.68227">
        <ele>2136</ele>
        <time>2021-08-07T08:05:15.704Z</time>
      </trkpt>
      <trkpt lat="46.91825" lon="8.68226">
        <ele>2136</ele>
        <time>2021-08-07T08:05:16.704Z</time>
      </trkpt>
      <trkpt lat="46.91824" lon="8.68226">
        <ele>2136</ele>
        <time>2021-08-07T08:05:17.703Z</time>
      </trkpt>
      <trkpt lat="46.91823" lon="8.68225">
        <ele>2136</ele>
        <time>2021-08-07T08:05:18.704Z</time>
      </trkpt>
      <trkpt lat="46.91823" lon="8.68225">
        <ele>2136</ele>
        <time>2021-08-07T08:05:19.704Z</time>
      </trkpt>
      <trkpt lat="46.91822" lon="8.68224">
        <ele>2136</ele>
        <time>2021-08-07T08:05:20.704Z</time>
      </trkpt>
      <trkpt lat="46.91822" lon="8.68224">
        <ele>2136</ele>
        <time>2021-08-07T08:05:21.704Z</time>
      </trkpt>
      <trkpt lat="46.91822" lon="8.68223">
        <ele>2136</ele>
        <time>2021-08-07T08:05:22.703Z</time>
      </trkpt>
      <trkpt lat="46.91821" lon="8.68222">
        <ele>2136</ele>
        <time>2021-08-07T08:05:23.704Z</time>
      </trkpt>
      <trkpt lat="46.91821" lon="8.68222">
        <ele>2137</ele>
        <time>2021-08-07T08:05:24.704Z</time>
      </trkpt>
      <trkpt lat="46.9182" lon="8.68221">
        <ele>2137</ele>
        <time>2021-08-07T08:05:25.704Z</time>
      </trkpt>
      <trkpt lat="46.9182" lon="8.6822">
        <ele>2137</ele>
        <time>2021-08-07T08:05:26.704Z</time>
      </trkpt>
      <trkpt lat="46.9182" lon="8.68219">
        <ele>2137</ele>
        <time>2021-08-07T08:05:27.704Z</time>
      </trkpt>
      <trkpt lat="46.91819" lon="8.68218">
        <ele>2137</ele>
        <time>2021-08-07T08:05:28.704Z</time>
      </trkpt>
      <trkpt lat="46.91818" lon="8.68217">
        <ele>2137</ele>
        <time>2021-08-07T08:05:29.704Z</time>
      </trkpt>
      <trkpt lat="46.91818" lon="8.68217">
        <ele>2137</ele>
        <time>2021-08-07T08:05:30.704Z</time>
      </trkpt>
      <trkpt lat="46.91817" lon="8.68216">
        <ele>2136</ele>
        <time>2021-08-07T08:05:31.704Z</time>
      </trkpt>
      <trkpt lat="46.91817" lon="8.68216">
        <ele>2136</ele>
        <time>2021-08-07T08:05:32.703Z</time>
      </trkpt>
      <trkpt lat="46.91816" lon="8.68215">
        <ele>2135</ele>
        <time>2021-08-07T08:05:33.703Z</time>
      </trkpt>
      <trkpt lat="46.91815" lon="8.68215">
        <ele>2135</ele>
        <time>2021-08-07T08:05:34.703Z</time>
      </trkpt>
      <trkpt lat="46.91815" lon="8.68214">
        <ele>2135</ele>
        <time>2021-08-07T08:05:35.703Z</time>
      </trkpt>
      <trkpt lat="46.91814" lon="8.68214">
        <ele>2135</ele>
        <time>2021-08-07T08:05:36.703Z</time>
      </trkpt>
      <trkpt lat="46.91814" lon="8.68213">
        <ele>2135</ele>
        <time>2021-08-07T08:05:37.704Z</time>
      </trkpt>
      <trkpt lat="46.91813" lon="8.68212">
        <ele>2135</ele>
        <time>2021-08-07T08:05:38.703Z</time>
      </trkpt>
      <trkpt lat="46.91812" lon="8.68211">
        <ele>2134</ele>
        <time>2021-08-07T08:05:39.704Z</time>
      </trkpt>
      <trkpt lat="46.91812" lon="8.68209">
        <ele>2134</ele>
        <time>2021-08-07T08:05:40.703Z</time>
      </trkpt>
      <trkpt lat="46.91811" lon="8.68208">
        <ele>2134</ele>
        <time>2021-08-07T08:05:41.703Z</time>
      </trkpt>
      <trkpt lat="46.9181" lon="8.68207">
        <ele>2133</ele>
        <time>2021-08-07T08:05:42.703Z</time>
      </trkpt>
      <trkpt lat="46.9181" lon="8.68207">
        <ele>2133</ele>
        <time>2021-08-07T08:05:43.703Z</time>
      </trkpt>
      <trkpt lat="46.9181" lon="8.68206">
        <ele>2133</ele>
        <time>2021-08-07T08:05:44.703Z</time>
      </trkpt>
      <trkpt lat="46.9181" lon="8.68205">
        <ele>2133</ele>
        <time>2021-08-07T08:05:45.704Z</time>
      </trkpt>
      <trkpt lat="46.91809" lon="8.68204">
        <ele>2134</ele>
        <time>2021-08-07T08:05:46.703Z</time>
      </trkpt>
      <trkpt lat="46.91809" lon="8.68202">
        <ele>2134</ele>
        <time>2021-08-07T08:05:47.703Z</time>
      </trkpt>
      <trkpt lat="46.91809" lon="8.68201">
        <ele>2135</ele>
        <time>2021-08-07T08:05:48.703Z</time>
      </trkpt>
      <trkpt lat="46.91808" lon="8.682">
        <ele>2135</ele>
        <time>2021-08-07T08:05:49.703Z</time>
      </trkpt>
      <trkpt lat="46.91808" lon="8.68198">
        <ele>2135</ele>
        <time>2021-08-07T08:05:50.703Z</time>
      </trkpt>
      <trkpt lat="46.91807" lon="8.68197">
        <ele>2134</ele>
        <time>2021-08-07T08:05:51.704Z</time>
      </trkpt>
      <trkpt lat="46.91807" lon="8.68196">
        <ele>2134</ele>
        <time>2021-08-07T08:05:52.703Z</time>
      </trkpt>
      <trkpt lat="46.91807" lon="8.68195">
        <ele>2133</ele>
        <time>2021-08-07T08:05:53.703Z</time>
      </trkpt>
      <trkpt lat="46.91806" lon="8.68193">
        <ele>2133</ele>
        <time>2021-08-07T08:05:54.703Z</time>
      </trkpt>
      <trkpt lat="46.91806" lon="8.68193">
        <ele>2132</ele>
        <time>2021-08-07T08:05:55.703Z</time>
      </trkpt>
      <trkpt lat="46.91806" lon="8.68192">
        <ele>2132</ele>
        <time>2021-08-07T08:05:56.703Z</time>
      </trkpt>
      <trkpt lat="46.91806" lon="8.68191">
        <ele>2131</ele>
        <time>2021-08-07T08:05:57.703Z</time>
      </trkpt>
      <trkpt lat="46.91805" lon="8.68189">
        <ele>2131</ele>
        <time>2021-08-07T08:05:58.704Z</time>
      </trkpt>
      <trkpt lat="46.91805" lon="8.68188">
        <ele>2131</ele>
        <time>2021-08-07T08:05:59.703Z</time>
      </trkpt>
      <trkpt lat="46.91805" lon="8.68188">
        <ele>2131</ele>
        <time>2021-08-07T08:06:00.703Z</time>
      </trkpt>
      <trkpt lat="46.91804" lon="8.68187">
        <ele>2131</ele>
        <time>2021-08-07T08:06:01.703Z</time>
      </trkpt>
      <trkpt lat="46.91804" lon="8.68186">
        <ele>2132</ele>
        <time>2021-08-07T08:06:02.704Z</time>
      </trkpt>
      <trkpt lat="46.91804" lon="8.68186">
        <ele>2132</ele>
        <time>2021-08-07T08:06:03.703Z</time>
      </trkpt>
      <trkpt lat="46.91804" lon="8.68186">
        <ele>2132</ele>
        <time>2021-08-07T08:06:04.704Z</time>
      </trkpt>
      <trkpt lat="46.91804" lon="8.68185">
        <ele>2132</ele>
        <time>2021-08-07T08:06:05.704Z</time>
      </trkpt>
      <trkpt lat="46.91804" lon="8.68184">
        <ele>2132</ele>
        <time>2021-08-07T08:06:06.703Z</time>
      </trkpt>
      <trkpt lat="46.91804" lon="8.68183">
        <ele>2131</ele>
        <time>2021-08-07T08:06:07.703Z</time>
      </trkpt>
      <trkpt lat="46.91803" lon="8.68181">
        <ele>2131</ele>
        <time>2021-08-07T08:06:08.703Z</time>
      </trkpt>
      <trkpt lat="46.91802" lon="8.6818">
        <ele>2130</ele>
        <time>2021-08-07T08:06:09.703Z</time>
      </trkpt>
      <trkpt lat="46.91802" lon="8.68179">
        <ele>2130</ele>
        <time>2021-08-07T08:06:10.704Z</time>
      </trkpt>
      <trkpt lat="46.91802" lon="8.68177">
        <ele>2129</ele>
        <time>2021-08-07T08:06:11.704Z</time>
      </trkpt>
      <trkpt lat="46.91801" lon="8.68176">
        <ele>2129</ele>
        <time>2021-08-07T08:06:12.704Z</time>
      </trkpt>
      <trkpt lat="46.91801" lon="8.68175">
        <ele>2128</ele>
        <time>2021-08-07T08:06:13.703Z</time>
      </trkpt>
      <trkpt lat="46.918" lon="8.68174">
        <ele>2128</ele>
        <time>2021-08-07T08:06:14.703Z</time>
      </trkpt>
      <trkpt lat="46.918" lon="8.68172">
        <ele>2127</ele>
        <time>2021-08-07T08:06:15.703Z</time>
      </trkpt>
      <trkpt lat="46.91799" lon="8.68171">
        <ele>2126</ele>
        <time>2021-08-07T08:06:16.704Z</time>
      </trkpt>
      <trkpt lat="46.91799" lon="8.68169">
        <ele>2126</ele>
        <time>2021-08-07T08:06:17.703Z</time>
      </trkpt>
      <trkpt lat="46.91799" lon="8.68168">
        <ele>2126</ele>
        <time>2021-08-07T08:06:18.704Z</time>
      </trkpt>
      <trkpt lat="46.91799" lon="8.68167">
        <ele>2126</ele>
        <time>2021-08-07T08:06:19.704Z</time>
      </trkpt>
      <trkpt lat="46.91799" lon="8.68166">
        <ele>2126</ele>
        <time>2021-08-07T08:06:20.704Z</time>
      </trkpt>
      <trkpt lat="46.91799" lon="8.68164">
        <ele>2125</ele>
        <time>2021-08-07T08:06:21.704Z</time>
      </trkpt>
      <trkpt lat="46.91799" lon="8.68164">
        <ele>2125</ele>
        <time>2021-08-07T08:06:22.703Z</time>
      </trkpt>
      <trkpt lat="46.91798" lon="8.68162">
        <ele>2126</ele>
        <time>2021-08-07T08:06:23.703Z</time>
      </trkpt>
      <trkpt lat="46.91798" lon="8.68161">
        <ele>2125</ele>
        <time>2021-08-07T08:06:24.704Z</time>
      </trkpt>
      <trkpt lat="46.91797" lon="8.6816">
        <ele>2125</ele>
        <time>2021-08-07T08:06:25.703Z</time>
      </trkpt>
      <trkpt lat="46.91797" lon="8.68159">
        <ele>2125</ele>
        <time>2021-08-07T08:06:26.704Z</time>
      </trkpt>
      <trkpt lat="46.91797" lon="8.68159">
        <ele>2125</ele>
        <time>2021-08-07T08:06:27.703Z</time>
      </trkpt>
      <trkpt lat="46.91798" lon="8.68158">
        <ele>2125</ele>
        <time>2021-08-07T08:06:28.703Z</time>
      </trkpt>
      <trkpt lat="46.91798" lon="8.68156">
        <ele>2125</ele>
        <time>2021-08-07T08:06:29.704Z</time>
      </trkpt>
      <trkpt lat="46.91798" lon="8.68155">
        <ele>2125</ele>
        <time>2021-08-07T08:06:30.704Z</time>
      </trkpt>
      <trkpt lat="46.91797" lon="8.68154">
        <ele>2125</ele>
        <time>2021-08-07T08:06:31.704Z</time>
      </trkpt>
      <trkpt lat="46.91797" lon="8.68154">
        <ele>2125</ele>
        <time>2021-08-07T08:06:32.704Z</time>
      </trkpt>
      <trkpt lat="46.91797" lon="8.68154">
        <ele>2126</ele>
        <time>2021-08-07T08:06:33.704Z</time>
      </trkpt>
      <trkpt lat="46.91796" lon="8.68154">
        <ele>2126</ele>
        <time>2021-08-07T08:06:34.703Z</time>
      </trkpt>
      <trkpt lat="46.91796" lon="8.68154">
        <ele>2126</ele>
        <time>2021-08-07T08:06:35.704Z</time>
      </trkpt>
      <trkpt lat="46.91795" lon="8.68153">
        <ele>2126</ele>
        <time>2021-08-07T08:06:36.704Z</time>
      </trkpt>
      <trkpt lat="46.91795" lon="8.68152">
        <ele>2126</ele>
        <time>2021-08-07T08:06:37.704Z</time>
      </trkpt>
      <trkpt lat="46.91795" lon="8.6815">
        <ele>2126</ele>
        <time>2021-08-07T08:06:38.703Z</time>
      </trkpt>
      <trkpt lat="46.91795" lon="8.68149">
        <ele>2125</ele>
        <time>2021-08-07T08:06:39.703Z</time>
      </trkpt>
      <trkpt lat="46.91795" lon="8.68148">
        <ele>2125</ele>
        <time>2021-08-07T08:06:40.703Z</time>
      </trkpt>
      <trkpt lat="46.91795" lon="8.68146">
        <ele>2124</ele>
        <time>2021-08-07T08:06:41.704Z</time>
      </trkpt>
      <trkpt lat="46.91795" lon="8.68145">
        <ele>2124</ele>
        <time>2021-08-07T08:06:42.703Z</time>
      </trkpt>
      <trkpt lat="46.91795" lon="8.68143">
        <ele>2123</ele>
        <time>2021-08-07T08:06:43.703Z</time>
      </trkpt>
      <trkpt lat="46.91795" lon="8.68142">
        <ele>2122</ele>
        <time>2021-08-07T08:06:44.704Z</time>
      </trkpt>
      <trkpt lat="46.91794" lon="8.68141">
        <ele>2121</ele>
        <time>2021-08-07T08:06:45.704Z</time>
      </trkpt>
      <trkpt lat="46.91794" lon="8.68139">
        <ele>2121</ele>
        <time>2021-08-07T08:06:46.704Z</time>
      </trkpt>
      <trkpt lat="46.91793" lon="8.68138">
        <ele>2121</ele>
        <time>2021-08-07T08:06:47.704Z</time>
      </trkpt>
      <trkpt lat="46.91793" lon="8.68136">
        <ele>2120</ele>
        <time>2021-08-07T08:06:48.704Z</time>
      </trkpt>
      <trkpt lat="46.91792" lon="8.68136">
        <ele>2120</ele>
        <time>2021-08-07T08:06:49.704Z</time>
      </trkpt>
      <trkpt lat="46.91791" lon="8.68136">
        <ele>2119</ele>
        <time>2021-08-07T08:06:50.703Z</time>
      </trkpt>
      <trkpt lat="46.91791" lon="8.68136">
        <ele>2119</ele>
        <time>2021-08-07T08:06:51.704Z</time>
      </trkpt>
      <trkpt lat="46.91791" lon="8.68135">
        <ele>2119</ele>
        <time>2021-08-07T08:06:52.703Z</time>
      </trkpt>
      <trkpt lat="46.91791" lon="8.68135">
        <ele>2119</ele>
        <time>2021-08-07T08:06:53.703Z</time>
      </trkpt>
      <trkpt lat="46.91791" lon="8.68134">
        <ele>2119</ele>
        <time>2021-08-07T08:06:54.704Z</time>
      </trkpt>
      <trkpt lat="46.91789" lon="8.68139">
        <ele>2117</ele>
        <time>2021-08-07T08:06:55.703Z</time>
      </trkpt>
      <trkpt lat="46.91789" lon="8.68139">
        <ele>2117</ele>
        <time>2021-08-07T08:06:56.703Z</time>
      </trkpt>
      <trkpt lat="46.91789" lon="8.68139">
        <ele>2117</ele>
        <time>2021-08-07T08:06:57.703Z</time>
      </trkpt>
      <trkpt lat="46.91789" lon="8.6814">
        <ele>2117</ele>
        <time>2021-08-07T08:06:58.704Z</time>
      </trkpt>
      <trkpt lat="46.91784" lon="8.68149">
        <ele>2114</ele>
        <time>2021-08-07T08:06:59.705Z</time>
      </trkpt>
      <trkpt lat="46.91784" lon="8.68146">
        <ele>2114</ele>
        <time>2021-08-07T08:07:00.705Z</time>
      </trkpt>
      <trkpt lat="46.91785" lon="8.68145">
        <ele>2116</ele>
        <time>2021-08-07T08:07:01.705Z</time>
      </trkpt>
      <trkpt lat="46.91785" lon="8.68144">
        <ele>2117</ele>
        <time>2021-08-07T08:07:02.705Z</time>
      </trkpt>
      <trkpt lat="46.91784" lon="8.68143">
        <ele>2118</ele>
        <time>2021-08-07T08:07:03.704Z</time>
      </trkpt>
      <trkpt lat="46.91784" lon="8.68142">
        <ele>2119</ele>
        <time>2021-08-07T08:07:04.705Z</time>
      </trkpt>
      <trkpt lat="46.91784" lon="8.68141">
        <ele>2119</ele>
        <time>2021-08-07T08:07:05.704Z</time>
      </trkpt>
      <trkpt lat="46.91785" lon="8.6814">
        <ele>2120</ele>
        <time>2021-08-07T08:07:06.705Z</time>
      </trkpt>
      <trkpt lat="46.91785" lon="8.68139">
        <ele>2120</ele>
        <time>2021-08-07T08:07:07.704Z</time>
      </trkpt>
      <trkpt lat="46.91785" lon="8.68137">
        <ele>2120</ele>
        <time>2021-08-07T08:07:08.705Z</time>
      </trkpt>
      <trkpt lat="46.91785" lon="8.68136">
        <ele>2121</ele>
        <time>2021-08-07T08:07:09.705Z</time>
      </trkpt>
      <trkpt lat="46.91785" lon="8.68134">
        <ele>2121</ele>
        <time>2021-08-07T08:07:10.704Z</time>
      </trkpt>
      <trkpt lat="46.91786" lon="8.68132">
        <ele>2121</ele>
        <time>2021-08-07T08:07:11.705Z</time>
      </trkpt>
      <trkpt lat="46.91786" lon="8.6813">
        <ele>2121</ele>
        <time>2021-08-07T08:07:12.705Z</time>
      </trkpt>
      <trkpt lat="46.91786" lon="8.68129">
        <ele>2121</ele>
        <time>2021-08-07T08:07:13.704Z</time>
      </trkpt>
      <trkpt lat="46.91787" lon="8.68127">
        <ele>2121</ele>
        <time>2021-08-07T08:07:14.704Z</time>
      </trkpt>
      <trkpt lat="46.91786" lon="8.68125">
        <ele>2120</ele>
        <time>2021-08-07T08:07:15.704Z</time>
      </trkpt>
      <trkpt lat="46.91787" lon="8.68122">
        <ele>2120</ele>
        <time>2021-08-07T08:07:16.705Z</time>
      </trkpt>
      <trkpt lat="46.91787" lon="8.6812">
        <ele>2119</ele>
        <time>2021-08-07T08:07:17.705Z</time>
      </trkpt>
      <trkpt lat="46.91787" lon="8.68119">
        <ele>2119</ele>
        <time>2021-08-07T08:07:18.704Z</time>
      </trkpt>
      <trkpt lat="46.91788" lon="8.68117">
        <ele>2119</ele>
        <time>2021-08-07T08:07:19.705Z</time>
      </trkpt>
      <trkpt lat="46.91788" lon="8.68116">
        <ele>2120</ele>
        <time>2021-08-07T08:07:20.705Z</time>
      </trkpt>
      <trkpt lat="46.91788" lon="8.68114">
        <ele>2120</ele>
        <time>2021-08-07T08:07:21.705Z</time>
      </trkpt>
      <trkpt lat="46.91788" lon="8.68113">
        <ele>2119</ele>
        <time>2021-08-07T08:07:22.705Z</time>
      </trkpt>
      <trkpt lat="46.91788" lon="8.68111">
        <ele>2119</ele>
        <time>2021-08-07T08:07:23.704Z</time>
      </trkpt>
      <trkpt lat="46.91787" lon="8.68109">
        <ele>2119</ele>
        <time>2021-08-07T08:07:24.704Z</time>
      </trkpt>
      <trkpt lat="46.91787" lon="8.68108">
        <ele>2118</ele>
        <time>2021-08-07T08:07:25.705Z</time>
      </trkpt>
      <trkpt lat="46.91787" lon="8.68106">
        <ele>2118</ele>
        <time>2021-08-07T08:07:26.705Z</time>
      </trkpt>
      <trkpt lat="46.91787" lon="8.68104">
        <ele>2118</ele>
        <time>2021-08-07T08:07:27.705Z</time>
      </trkpt>
      <trkpt lat="46.91787" lon="8.68103">
        <ele>2117</ele>
        <time>2021-08-07T08:07:28.705Z</time>
      </trkpt>
      <trkpt lat="46.91788" lon="8.68101">
        <ele>2117</ele>
        <time>2021-08-07T08:07:29.705Z</time>
      </trkpt>
      <trkpt lat="46.91788" lon="8.68099">
        <ele>2117</ele>
        <time>2021-08-07T08:07:30.704Z</time>
      </trkpt>
      <trkpt lat="46.91788" lon="8.68098">
        <ele>2117</ele>
        <time>2021-08-07T08:07:31.705Z</time>
      </trkpt>
      <trkpt lat="46.91787" lon="8.68096">
        <ele>2117</ele>
        <time>2021-08-07T08:07:32.705Z</time>
      </trkpt>
      <trkpt lat="46.91787" lon="8.68094">
        <ele>2117</ele>
        <time>2021-08-07T08:07:33.705Z</time>
      </trkpt>
      <trkpt lat="46.91786" lon="8.68094">
        <ele>2117</ele>
        <time>2021-08-07T08:07:34.705Z</time>
      </trkpt>
      <trkpt lat="46.91786" lon="8.68093">
        <ele>2117</ele>
        <time>2021-08-07T08:07:35.704Z</time>
      </trkpt>
      <trkpt lat="46.91786" lon="8.68093">
        <ele>2117</ele>
        <time>2021-08-07T08:07:36.705Z</time>
      </trkpt>
      <trkpt lat="46.91785" lon="8.6809">
        <ele>2116</ele>
        <time>2021-08-07T08:07:37.706Z</time>
      </trkpt>
      <trkpt lat="46.91785" lon="8.68089">
        <ele>2116</ele>
        <time>2021-08-07T08:07:38.706Z</time>
      </trkpt>
      <trkpt lat="46.91785" lon="8.68088">
        <ele>2116</ele>
        <time>2021-08-07T08:07:39.705Z</time>
      </trkpt>
      <trkpt lat="46.91785" lon="8.68086">
        <ele>2115</ele>
        <time>2021-08-07T08:07:40.706Z</time>
      </trkpt>
      <trkpt lat="46.91785" lon="8.68085">
        <ele>2115</ele>
        <time>2021-08-07T08:07:41.706Z</time>
      </trkpt>
      <trkpt lat="46.91784" lon="8.68083">
        <ele>2115</ele>
        <time>2021-08-07T08:07:42.706Z</time>
      </trkpt>
      <trkpt lat="46.91784" lon="8.68082">
        <ele>2115</ele>
        <time>2021-08-07T08:07:43.706Z</time>
      </trkpt>
      <trkpt lat="46.91784" lon="8.68081">
        <ele>2115</ele>
        <time>2021-08-07T08:07:44.706Z</time>
      </trkpt>
      <trkpt lat="46.91784" lon="8.68079">
        <ele>2115</ele>
        <time>2021-08-07T08:07:45.705Z</time>
      </trkpt>
      <trkpt lat="46.91784" lon="8.68078">
        <ele>2114</ele>
        <time>2021-08-07T08:07:46.706Z</time>
      </trkpt>
      <trkpt lat="46.91783" lon="8.68077">
        <ele>2114</ele>
        <time>2021-08-07T08:07:47.705Z</time>
      </trkpt>
      <trkpt lat="46.91784" lon="8.68075">
        <ele>2115</ele>
        <time>2021-08-07T08:07:48.706Z</time>
      </trkpt>
      <trkpt lat="46.91784" lon="8.68074">
        <ele>2115</ele>
        <time>2021-08-07T08:07:49.706Z</time>
      </trkpt>
      <trkpt lat="46.91784" lon="8.68073">
        <ele>2115</ele>
        <time>2021-08-07T08:07:50.705Z</time>
      </trkpt>
      <trkpt lat="46.91784" lon="8.68071">
        <ele>2115</ele>
        <time>2021-08-07T08:07:51.706Z</time>
      </trkpt>
      <trkpt lat="46.91784" lon="8.6807">
        <ele>2114</ele>
        <time>2021-08-07T08:07:52.705Z</time>
      </trkpt>
      <trkpt lat="46.91783" lon="8.68068">
        <ele>2114</ele>
        <time>2021-08-07T08:07:53.705Z</time>
      </trkpt>
      <trkpt lat="46.91783" lon="8.68067">
        <ele>2114</ele>
        <time>2021-08-07T08:07:54.706Z</time>
      </trkpt>
      <trkpt lat="46.91782" lon="8.68066">
        <ele>2113</ele>
        <time>2021-08-07T08:07:55.705Z</time>
      </trkpt>
      <trkpt lat="46.91781" lon="8.68064">
        <ele>2113</ele>
        <time>2021-08-07T08:07:56.705Z</time>
      </trkpt>
      <trkpt lat="46.9178" lon="8.68063">
        <ele>2113</ele>
        <time>2021-08-07T08:07:57.706Z</time>
      </trkpt>
      <trkpt lat="46.9178" lon="8.68062">
        <ele>2113</ele>
        <time>2021-08-07T08:07:58.706Z</time>
      </trkpt>
      <trkpt lat="46.91779" lon="8.68061">
        <ele>2112</ele>
        <time>2021-08-07T08:07:59.705Z</time>
      </trkpt>
      <trkpt lat="46.91779" lon="8.6806">
        <ele>2112</ele>
        <time>2021-08-07T08:08:00.705Z</time>
      </trkpt>
      <trkpt lat="46.91778" lon="8.68059">
        <ele>2112</ele>
        <time>2021-08-07T08:08:01.706Z</time>
      </trkpt>
      <trkpt lat="46.91778" lon="8.68058">
        <ele>2111</ele>
        <time>2021-08-07T08:08:02.706Z</time>
      </trkpt>
      <trkpt lat="46.91777" lon="8.68057">
        <ele>2111</ele>
        <time>2021-08-07T08:08:03.706Z</time>
      </trkpt>
      <trkpt lat="46.91776" lon="8.68056">
        <ele>2111</ele>
        <time>2021-08-07T08:08:04.706Z</time>
      </trkpt>
      <trkpt lat="46.91775" lon="8.68055">
        <ele>2111</ele>
        <time>2021-08-07T08:08:05.705Z</time>
      </trkpt>
      <trkpt lat="46.91774" lon="8.68053">
        <ele>2111</ele>
        <time>2021-08-07T08:08:06.705Z</time>
      </trkpt>
      <trkpt lat="46.91773" lon="8.68052">
        <ele>2111</ele>
        <time>2021-08-07T08:08:07.705Z</time>
      </trkpt>
      <trkpt lat="46.91772" lon="8.68051">
        <ele>2111</ele>
        <time>2021-08-07T08:08:08.706Z</time>
      </trkpt>
      <trkpt lat="46.91771" lon="8.6805">
        <ele>2111</ele>
        <time>2021-08-07T08:08:09.706Z</time>
      </trkpt>
      <trkpt lat="46.9177" lon="8.68049">
        <ele>2111</ele>
        <time>2021-08-07T08:08:10.706Z</time>
      </trkpt>
      <trkpt lat="46.9177" lon="8.68048">
        <ele>2110</ele>
        <time>2021-08-07T08:08:11.706Z</time>
      </trkpt>
      <trkpt lat="46.91769" lon="8.68048">
        <ele>2110</ele>
        <time>2021-08-07T08:08:12.706Z</time>
      </trkpt>
      <trkpt lat="46.91768" lon="8.68048">
        <ele>2110</ele>
        <time>2021-08-07T08:08:13.706Z</time>
      </trkpt>
      <trkpt lat="46.91768" lon="8.68047">
        <ele>2110</ele>
        <time>2021-08-07T08:08:14.706Z</time>
      </trkpt>
      <trkpt lat="46.91767" lon="8.68046">
        <ele>2110</ele>
        <time>2021-08-07T08:08:15.705Z</time>
      </trkpt>
      <trkpt lat="46.91766" lon="8.68045">
        <ele>2109</ele>
        <time>2021-08-07T08:08:16.706Z</time>
      </trkpt>
      <trkpt lat="46.91765" lon="8.68044">
        <ele>2108</ele>
        <time>2021-08-07T08:08:17.706Z</time>
      </trkpt>
      <trkpt lat="46.91764" lon="8.68043">
        <ele>2108</ele>
        <time>2021-08-07T08:08:18.706Z</time>
      </trkpt>
      <trkpt lat="46.91764" lon="8.68042">
        <ele>2107</ele>
        <time>2021-08-07T08:08:19.706Z</time>
      </trkpt>
      <trkpt lat="46.91763" lon="8.6804">
        <ele>2106</ele>
        <time>2021-08-07T08:08:20.705Z</time>
      </trkpt>
      <trkpt lat="46.91762" lon="8.68039">
        <ele>2106</ele>
        <time>2021-08-07T08:08:21.705Z</time>
      </trkpt>
      <trkpt lat="46.91761" lon="8.68039">
        <ele>2105</ele>
        <time>2021-08-07T08:08:22.706Z</time>
      </trkpt>
      <trkpt lat="46.9176" lon="8.68038">
        <ele>2105</ele>
        <time>2021-08-07T08:08:23.706Z</time>
      </trkpt>
      <trkpt lat="46.91759" lon="8.68036">
        <ele>2104</ele>
        <time>2021-08-07T08:08:24.706Z</time>
      </trkpt>
      <trkpt lat="46.91758" lon="8.68036">
        <ele>2104</ele>
        <time>2021-08-07T08:08:25.706Z</time>
      </trkpt>
      <trkpt lat="46.91757" lon="8.68035">
        <ele>2104</ele>
        <time>2021-08-07T08:08:26.706Z</time>
      </trkpt>
      <trkpt lat="46.91756" lon="8.68034">
        <ele>2104</ele>
        <time>2021-08-07T08:08:27.706Z</time>
      </trkpt>
      <trkpt lat="46.91756" lon="8.68033">
        <ele>2104</ele>
        <time>2021-08-07T08:08:28.706Z</time>
      </trkpt>
      <trkpt lat="46.91755" lon="8.68032">
        <ele>2104</ele>
        <time>2021-08-07T08:08:29.706Z</time>
      </trkpt>
      <trkpt lat="46.91754" lon="8.68031">
        <ele>2105</ele>
        <time>2021-08-07T08:08:30.706Z</time>
      </trkpt>
      <trkpt lat="46.91753" lon="8.68031">
        <ele>2105</ele>
        <time>2021-08-07T08:08:31.705Z</time>
      </trkpt>
      <trkpt lat="46.91752" lon="8.6803">
        <ele>2105</ele>
        <time>2021-08-07T08:08:32.705Z</time>
      </trkpt>
      <trkpt lat="46.91751" lon="8.6803">
        <ele>2105</ele>
        <time>2021-08-07T08:08:33.705Z</time>
      </trkpt>
      <trkpt lat="46.9175" lon="8.68029">
        <ele>2105</ele>
        <time>2021-08-07T08:08:34.705Z</time>
      </trkpt>
      <trkpt lat="46.91749" lon="8.68028">
        <ele>2106</ele>
        <time>2021-08-07T08:08:35.705Z</time>
      </trkpt>
      <trkpt lat="46.91749" lon="8.68028">
        <ele>2106</ele>
        <time>2021-08-07T08:08:36.705Z</time>
      </trkpt>
      <trkpt lat="46.91748" lon="8.68028">
        <ele>2105</ele>
        <time>2021-08-07T08:08:37.705Z</time>
      </trkpt>
      <trkpt lat="46.91747" lon="8.68027">
        <ele>2105</ele>
        <time>2021-08-07T08:08:38.705Z</time>
      </trkpt>
      <trkpt lat="46.91746" lon="8.68026">
        <ele>2104</ele>
        <time>2021-08-07T08:08:39.706Z</time>
      </trkpt>
      <trkpt lat="46.91745" lon="8.68025">
        <ele>2103</ele>
        <time>2021-08-07T08:08:40.706Z</time>
      </trkpt>
      <trkpt lat="46.91744" lon="8.68024">
        <ele>2103</ele>
        <time>2021-08-07T08:08:41.706Z</time>
      </trkpt>
      <trkpt lat="46.91743" lon="8.68024">
        <ele>2102</ele>
        <time>2021-08-07T08:08:42.706Z</time>
      </trkpt>
      <trkpt lat="46.91743" lon="8.68023">
        <ele>2102</ele>
        <time>2021-08-07T08:08:43.706Z</time>
      </trkpt>
      <trkpt lat="46.91742" lon="8.68023">
        <ele>2101</ele>
        <time>2021-08-07T08:08:44.706Z</time>
      </trkpt>
      <trkpt lat="46.91742" lon="8.68022">
        <ele>2101</ele>
        <time>2021-08-07T08:08:45.706Z</time>
      </trkpt>
      <trkpt lat="46.91741" lon="8.68022">
        <ele>2100</ele>
        <time>2021-08-07T08:08:46.705Z</time>
      </trkpt>
      <trkpt lat="46.9174" lon="8.68022">
        <ele>2100</ele>
        <time>2021-08-07T08:08:47.706Z</time>
      </trkpt>
      <trkpt lat="46.91739" lon="8.68021">
        <ele>2100</ele>
        <time>2021-08-07T08:08:48.706Z</time>
      </trkpt>
      <trkpt lat="46.91738" lon="8.6802">
        <ele>2100</ele>
        <time>2021-08-07T08:08:49.706Z</time>
      </trkpt>
      <trkpt lat="46.91737" lon="8.68019">
        <ele>2101</ele>
        <time>2021-08-07T08:08:50.705Z</time>
      </trkpt>
      <trkpt lat="46.91736" lon="8.68019">
        <ele>2101</ele>
        <time>2021-08-07T08:08:51.705Z</time>
      </trkpt>
      <trkpt lat="46.91735" lon="8.68018">
        <ele>2101</ele>
        <time>2021-08-07T08:08:52.705Z</time>
      </trkpt>
      <trkpt lat="46.91734" lon="8.68017">
        <ele>2101</ele>
        <time>2021-08-07T08:08:53.705Z</time>
      </trkpt>
      <trkpt lat="46.91733" lon="8.68016">
        <ele>2101</ele>
        <time>2021-08-07T08:08:54.705Z</time>
      </trkpt>
      <trkpt lat="46.91733" lon="8.68015">
        <ele>2101</ele>
        <time>2021-08-07T08:08:55.705Z</time>
      </trkpt>
      <trkpt lat="46.91732" lon="8.68014">
        <ele>2101</ele>
        <time>2021-08-07T08:08:56.706Z</time>
      </trkpt>
      <trkpt lat="46.91731" lon="8.68013">
        <ele>2101</ele>
        <time>2021-08-07T08:08:57.706Z</time>
      </trkpt>
      <trkpt lat="46.9173" lon="8.68012">
        <ele>2101</ele>
        <time>2021-08-07T08:08:58.706Z</time>
      </trkpt>
      <trkpt lat="46.9173" lon="8.68011">
        <ele>2101</ele>
        <time>2021-08-07T08:08:59.705Z</time>
      </trkpt>
      <trkpt lat="46.91729" lon="8.6801">
        <ele>2101</ele>
        <time>2021-08-07T08:09:00.705Z</time>
      </trkpt>
      <trkpt lat="46.91728" lon="8.68009">
        <ele>2100</ele>
        <time>2021-08-07T08:09:01.706Z</time>
      </trkpt>
      <trkpt lat="46.91728" lon="8.68009">
        <ele>2100</ele>
        <time>2021-08-07T08:09:02.706Z</time>
      </trkpt>
      <trkpt lat="46.91727" lon="8.68008">
        <ele>2100</ele>
        <time>2021-08-07T08:09:03.706Z</time>
      </trkpt>
      <trkpt lat="46.91726" lon="8.68008">
        <ele>2100</ele>
        <time>2021-08-07T08:09:04.706Z</time>
      </trkpt>
      <trkpt lat="46.91725" lon="8.68008">
        <ele>2100</ele>
        <time>2021-08-07T08:09:05.706Z</time>
      </trkpt>
      <trkpt lat="46.91724" lon="8.68008">
        <ele>2100</ele>
        <time>2021-08-07T08:09:06.706Z</time>
      </trkpt>
      <trkpt lat="46.91724" lon="8.68007">
        <ele>2100</ele>
        <time>2021-08-07T08:09:07.706Z</time>
      </trkpt>
      <trkpt lat="46.91723" lon="8.68007">
        <ele>2100</ele>
        <time>2021-08-07T08:09:08.706Z</time>
      </trkpt>
      <trkpt lat="46.91723" lon="8.68007">
        <ele>2100</ele>
        <time>2021-08-07T08:09:09.706Z</time>
      </trkpt>
      <trkpt lat="46.91722" lon="8.68006">
        <ele>2100</ele>
        <time>2021-08-07T08:09:10.706Z</time>
      </trkpt>
      <trkpt lat="46.91722" lon="8.68005">
        <ele>2100</ele>
        <time>2021-08-07T08:09:11.705Z</time>
      </trkpt>
      <trkpt lat="46.91721" lon="8.68004">
        <ele>2100</ele>
        <time>2021-08-07T08:09:12.705Z</time>
      </trkpt>
      <trkpt lat="46.91721" lon="8.68003">
        <ele>2100</ele>
        <time>2021-08-07T08:09:13.706Z</time>
      </trkpt>
      <trkpt lat="46.9172" lon="8.68002">
        <ele>2100</ele>
        <time>2021-08-07T08:09:14.705Z</time>
      </trkpt>
      <trkpt lat="46.91719" lon="8.68001">
        <ele>2100</ele>
        <time>2021-08-07T08:09:15.706Z</time>
      </trkpt>
      <trkpt lat="46.91718" lon="8.68">
        <ele>2101</ele>
        <time>2021-08-07T08:09:16.706Z</time>
      </trkpt>
      <trkpt lat="46.91718" lon="8.67999">
        <ele>2101</ele>
        <time>2021-08-07T08:09:17.706Z</time>
      </trkpt>
      <trkpt lat="46.91718" lon="8.67999">
        <ele>2101</ele>
        <time>2021-08-07T08:09:18.706Z</time>
      </trkpt>
      <trkpt lat="46.91718" lon="8.67998">
        <ele>2101</ele>
        <time>2021-08-07T08:09:19.706Z</time>
      </trkpt>
      <trkpt lat="46.91718" lon="8.67997">
        <ele>2101</ele>
        <time>2021-08-07T08:09:20.706Z</time>
      </trkpt>
      <trkpt lat="46.91717" lon="8.67996">
        <ele>2101</ele>
        <time>2021-08-07T08:09:21.706Z</time>
      </trkpt>
      <trkpt lat="46.91717" lon="8.67995">
        <ele>2101</ele>
        <time>2021-08-07T08:09:22.706Z</time>
      </trkpt>
      <trkpt lat="46.91716" lon="8.67993">
        <ele>2100</ele>
        <time>2021-08-07T08:09:23.705Z</time>
      </trkpt>
      <trkpt lat="46.91716" lon="8.67992">
        <ele>2100</ele>
        <time>2021-08-07T08:09:24.706Z</time>
      </trkpt>
      <trkpt lat="46.91715" lon="8.67991">
        <ele>2100</ele>
        <time>2021-08-07T08:09:25.706Z</time>
      </trkpt>
      <trkpt lat="46.91715" lon="8.6799">
        <ele>2100</ele>
        <time>2021-08-07T08:09:26.705Z</time>
      </trkpt>
      <trkpt lat="46.91714" lon="8.67989">
        <ele>2100</ele>
        <time>2021-08-07T08:09:27.706Z</time>
      </trkpt>
      <trkpt lat="46.91713" lon="8.67988">
        <ele>2100</ele>
        <time>2021-08-07T08:09:28.706Z</time>
      </trkpt>
      <trkpt lat="46.91713" lon="8.67987">
        <ele>2100</ele>
        <time>2021-08-07T08:09:29.706Z</time>
      </trkpt>
      <trkpt lat="46.91712" lon="8.67986">
        <ele>2100</ele>
        <time>2021-08-07T08:09:30.706Z</time>
      </trkpt>
      <trkpt lat="46.91711" lon="8.67985">
        <ele>2099</ele>
        <time>2021-08-07T08:09:31.706Z</time>
      </trkpt>
      <trkpt lat="46.9171" lon="8.67984">
        <ele>2099</ele>
        <time>2021-08-07T08:09:32.706Z</time>
      </trkpt>
      <trkpt lat="46.9171" lon="8.67983">
        <ele>2099</ele>
        <time>2021-08-07T08:09:33.705Z</time>
      </trkpt>
      <trkpt lat="46.9171" lon="8.67982">
        <ele>2099</ele>
        <time>2021-08-07T08:09:34.706Z</time>
      </trkpt>
      <trkpt lat="46.9171" lon="8.67981">
        <ele>2098</ele>
        <time>2021-08-07T08:09:35.706Z</time>
      </trkpt>
      <trkpt lat="46.9171" lon="8.67981">
        <ele>2098</ele>
        <time>2021-08-07T08:09:36.705Z</time>
      </trkpt>
      <trkpt lat="46.9171" lon="8.67981">
        <ele>2097</ele>
        <time>2021-08-07T08:09:37.706Z</time>
      </trkpt>
      <trkpt lat="46.91711" lon="8.67981">
        <ele>2097</ele>
        <time>2021-08-07T08:09:38.706Z</time>
      </trkpt>
      <trkpt lat="46.91711" lon="8.6798">
        <ele>2097</ele>
        <time>2021-08-07T08:09:39.706Z</time>
      </trkpt>
      <trkpt lat="46.91712" lon="8.6798">
        <ele>2097</ele>
        <time>2021-08-07T08:09:40.706Z</time>
      </trkpt>
      <trkpt lat="46.91712" lon="8.67979">
        <ele>2097</ele>
        <time>2021-08-07T08:09:41.706Z</time>
      </trkpt>
      <trkpt lat="46.91712" lon="8.67978">
        <ele>2097</ele>
        <time>2021-08-07T08:09:42.705Z</time>
      </trkpt>
      <trkpt lat="46.91712" lon="8.67976">
        <ele>2096</ele>
        <time>2021-08-07T08:09:43.706Z</time>
      </trkpt>
      <trkpt lat="46.91711" lon="8.67975">
        <ele>2096</ele>
        <time>2021-08-07T08:09:44.706Z</time>
      </trkpt>
      <trkpt lat="46.91711" lon="8.67974">
        <ele>2096</ele>
        <time>2021-08-07T08:09:45.706Z</time>
      </trkpt>
      <trkpt lat="46.9171" lon="8.67973">
        <ele>2096</ele>
        <time>2021-08-07T08:09:46.705Z</time>
      </trkpt>
      <trkpt lat="46.9171" lon="8.67971">
        <ele>2096</ele>
        <time>2021-08-07T08:09:47.706Z</time>
      </trkpt>
      <trkpt lat="46.91709" lon="8.6797">
        <ele>2096</ele>
        <time>2021-08-07T08:09:48.705Z</time>
      </trkpt>
      <trkpt lat="46.91709" lon="8.67969">
        <ele>2095</ele>
        <time>2021-08-07T08:09:49.705Z</time>
      </trkpt>
      <trkpt lat="46.91708" lon="8.67968">
        <ele>2095</ele>
        <time>2021-08-07T08:09:50.705Z</time>
      </trkpt>
      <trkpt lat="46.91707" lon="8.67968">
        <ele>2095</ele>
        <time>2021-08-07T08:09:51.706Z</time>
      </trkpt>
      <trkpt lat="46.91707" lon="8.67967">
        <ele>2094</ele>
        <time>2021-08-07T08:09:52.705Z</time>
      </trkpt>
      <trkpt lat="46.91706" lon="8.67966">
        <ele>2094</ele>
        <time>2021-08-07T08:09:53.706Z</time>
      </trkpt>
      <trkpt lat="46.91705" lon="8.67966">
        <ele>2094</ele>
        <time>2021-08-07T08:09:54.706Z</time>
      </trkpt>
      <trkpt lat="46.91705" lon="8.67965">
        <ele>2093</ele>
        <time>2021-08-07T08:09:55.705Z</time>
      </trkpt>
      <trkpt lat="46.91705" lon="8.67965">
        <ele>2092</ele>
        <time>2021-08-07T08:09:56.706Z</time>
      </trkpt>
      <trkpt lat="46.91704" lon="8.67964">
        <ele>2092</ele>
        <time>2021-08-07T08:09:57.706Z</time>
      </trkpt>
      <trkpt lat="46.91704" lon="8.67964">
        <ele>2091</ele>
        <time>2021-08-07T08:09:58.706Z</time>
      </trkpt>
      <trkpt lat="46.91704" lon="8.67963">
        <ele>2091</ele>
        <time>2021-08-07T08:09:59.706Z</time>
      </trkpt>
      <trkpt lat="46.91704" lon="8.67963">
        <ele>2091</ele>
        <time>2021-08-07T08:10:00.705Z</time>
      </trkpt>
      <trkpt lat="46.91705" lon="8.67964">
        <ele>2091</ele>
        <time>2021-08-07T08:10:01.706Z</time>
      </trkpt>
      <trkpt lat="46.91705" lon="8.67963">
        <ele>2091</ele>
        <time>2021-08-07T08:10:02.706Z</time>
      </trkpt>
      <trkpt lat="46.91705" lon="8.67963">
        <ele>2092</ele>
        <time>2021-08-07T08:10:03.706Z</time>
      </trkpt>
      <trkpt lat="46.91704" lon="8.67962">
        <ele>2092</ele>
        <time>2021-08-07T08:10:04.706Z</time>
      </trkpt>
      <trkpt lat="46.91704" lon="8.67962">
        <ele>2093</ele>
        <time>2021-08-07T08:10:05.706Z</time>
      </trkpt>
      <trkpt lat="46.91703" lon="8.6796">
        <ele>2092</ele>
        <time>2021-08-07T08:10:06.707Z</time>
      </trkpt>
      <trkpt lat="46.91702" lon="8.67959">
        <ele>2092</ele>
        <time>2021-08-07T08:10:07.707Z</time>
      </trkpt>
      <trkpt lat="46.91702" lon="8.67958">
        <ele>2091</ele>
        <time>2021-08-07T08:10:08.706Z</time>
      </trkpt>
      <trkpt lat="46.91702" lon="8.67957">
        <ele>2091</ele>
        <time>2021-08-07T08:10:09.706Z</time>
      </trkpt>
      <trkpt lat="46.91702" lon="8.67957">
        <ele>2091</ele>
        <time>2021-08-07T08:10:10.707Z</time>
      </trkpt>
      <trkpt lat="46.91702" lon="8.67957">
        <ele>2094</ele>
        <time>2021-08-07T08:10:11.707Z</time>
      </trkpt>
      <trkpt lat="46.91702" lon="8.67957">
        <ele>2093</ele>
        <time>2021-08-07T08:10:12.707Z</time>
      </trkpt>
      <trkpt lat="46.91701" lon="8.67956">
        <ele>2093</ele>
        <time>2021-08-07T08:10:13.707Z</time>
      </trkpt>
      <trkpt lat="46.91701" lon="8.67957">
        <ele>2093</ele>
        <time>2021-08-07T08:10:14.708Z</time>
      </trkpt>
      <trkpt lat="46.91701" lon="8.67957">
        <ele>2093</ele>
        <time>2021-08-07T08:10:15.707Z</time>
      </trkpt>
      <trkpt lat="46.91701" lon="8.67957">
        <ele>2093</ele>
        <time>2021-08-07T08:10:16.707Z</time>
      </trkpt>
      <trkpt lat="46.91701" lon="8.67958">
        <ele>2093</ele>
        <time>2021-08-07T08:10:17.708Z</time>
      </trkpt>
      <trkpt lat="46.91701" lon="8.67958">
        <ele>2093</ele>
        <time>2021-08-07T08:10:18.708Z</time>
      </trkpt>
      <trkpt lat="46.91701" lon="8.67958">
        <ele>2093</ele>
        <time>2021-08-07T08:10:19.709Z</time>
      </trkpt>
      <trkpt lat="46.91701" lon="8.67958">
        <ele>2094</ele>
        <time>2021-08-07T08:10:20.709Z</time>
      </trkpt>
      <trkpt lat="46.91701" lon="8.67959">
        <ele>2093</ele>
        <time>2021-08-07T08:10:21.709Z</time>
      </trkpt>
      <trkpt lat="46.91702" lon="8.67959">
        <ele>2093</ele>
        <time>2021-08-07T08:10:22.709Z</time>
      </trkpt>
      <trkpt lat="46.91702" lon="8.67958">
        <ele>2093</ele>
        <time>2021-08-07T08:10:23.709Z</time>
      </trkpt>
      <trkpt lat="46.91702" lon="8.67958">
        <ele>2092</ele>
        <time>2021-08-07T08:10:24.709Z</time>
      </trkpt>
      <trkpt lat="46.91702" lon="8.67957">
        <ele>2092</ele>
        <time>2021-08-07T08:10:25.708Z</time>
      </trkpt>
      <trkpt lat="46.91701" lon="8.67956">
        <ele>2092</ele>
        <time>2021-08-07T08:10:26.709Z</time>
      </trkpt>
      <trkpt lat="46.91701" lon="8.67956">
        <ele>2092</ele>
        <time>2021-08-07T08:10:27.708Z</time>
      </trkpt>
      <trkpt lat="46.91701" lon="8.67955">
        <ele>2092</ele>
        <time>2021-08-07T08:10:28.708Z</time>
      </trkpt>
      <trkpt lat="46.917" lon="8.67954">
        <ele>2092</ele>
        <time>2021-08-07T08:10:29.708Z</time>
      </trkpt>
      <trkpt lat="46.917" lon="8.67953">
        <ele>2092</ele>
        <time>2021-08-07T08:10:30.709Z</time>
      </trkpt>
      <trkpt lat="46.917" lon="8.67953">
        <ele>2093</ele>
        <time>2021-08-07T08:10:31.708Z</time>
      </trkpt>
      <trkpt lat="46.917" lon="8.67952">
        <ele>2092</ele>
        <time>2021-08-07T08:10:32.709Z</time>
      </trkpt>
      <trkpt lat="46.91699" lon="8.67951">
        <ele>2092</ele>
        <time>2021-08-07T08:10:33.708Z</time>
      </trkpt>
      <trkpt lat="46.91698" lon="8.6795">
        <ele>2091</ele>
        <time>2021-08-07T08:10:34.709Z</time>
      </trkpt>
      <trkpt lat="46.91698" lon="8.67949">
        <ele>2090</ele>
        <time>2021-08-07T08:10:35.709Z</time>
      </trkpt>
      <trkpt lat="46.91698" lon="8.67948">
        <ele>2090</ele>
        <time>2021-08-07T08:10:36.709Z</time>
      </trkpt>
      <trkpt lat="46.91697" lon="8.67948">
        <ele>2090</ele>
        <time>2021-08-07T08:10:37.709Z</time>
      </trkpt>
      <trkpt lat="46.91697" lon="8.67947">
        <ele>2089</ele>
        <time>2021-08-07T08:10:38.709Z</time>
      </trkpt>
      <trkpt lat="46.91696" lon="8.67947">
        <ele>2089</ele>
        <time>2021-08-07T08:10:39.708Z</time>
      </trkpt>
      <trkpt lat="46.91696" lon="8.67947">
        <ele>2089</ele>
        <time>2021-08-07T08:10:40.709Z</time>
      </trkpt>
      <trkpt lat="46.91696" lon="8.67946">
        <ele>2088</ele>
        <time>2021-08-07T08:10:41.709Z</time>
      </trkpt>
      <trkpt lat="46.91695" lon="8.67946">
        <ele>2088</ele>
        <time>2021-08-07T08:10:42.708Z</time>
      </trkpt>
      <trkpt lat="46.91695" lon="8.67945">
        <ele>2088</ele>
        <time>2021-08-07T08:10:43.709Z</time>
      </trkpt>
      <trkpt lat="46.91695" lon="8.67945">
        <ele>2087</ele>
        <time>2021-08-07T08:10:44.709Z</time>
      </trkpt>
      <trkpt lat="46.91694" lon="8.67945">
        <ele>2087</ele>
        <time>2021-08-07T08:10:45.708Z</time>
      </trkpt>
      <trkpt lat="46.91694" lon="8.67945">
        <ele>2087</ele>
        <time>2021-08-07T08:10:46.708Z</time>
      </trkpt>
      <trkpt lat="46.91693" lon="8.67944">
        <ele>2087</ele>
        <time>2021-08-07T08:10:47.708Z</time>
      </trkpt>
      <trkpt lat="46.91692" lon="8.67944">
        <ele>2087</ele>
        <time>2021-08-07T08:10:48.708Z</time>
      </trkpt>
      <trkpt lat="46.91692" lon="8.67944">
        <ele>2087</ele>
        <time>2021-08-07T08:10:49.708Z</time>
      </trkpt>
      <trkpt lat="46.91692" lon="8.67943">
        <ele>2087</ele>
        <time>2021-08-07T08:10:50.708Z</time>
      </trkpt>
      <trkpt lat="46.91692" lon="8.67943">
        <ele>2087</ele>
        <time>2021-08-07T08:10:51.709Z</time>
      </trkpt>
      <trkpt lat="46.91692" lon="8.67942">
        <ele>2087</ele>
        <time>2021-08-07T08:10:52.708Z</time>
      </trkpt>
      <trkpt lat="46.91692" lon="8.67941">
        <ele>2086</ele>
        <time>2021-08-07T08:10:53.709Z</time>
      </trkpt>
      <trkpt lat="46.91691" lon="8.6794">
        <ele>2086</ele>
        <time>2021-08-07T08:10:54.709Z</time>
      </trkpt>
      <trkpt lat="46.9169" lon="8.67939">
        <ele>2086</ele>
        <time>2021-08-07T08:10:55.709Z</time>
      </trkpt>
      <trkpt lat="46.91689" lon="8.67938">
        <ele>2086</ele>
        <time>2021-08-07T08:10:56.709Z</time>
      </trkpt>
      <trkpt lat="46.91689" lon="8.67937">
        <ele>2085</ele>
        <time>2021-08-07T08:10:57.708Z</time>
      </trkpt>
      <trkpt lat="46.91688" lon="8.67936">
        <ele>2085</ele>
        <time>2021-08-07T08:10:58.709Z</time>
      </trkpt>
      <trkpt lat="46.91688" lon="8.67935">
        <ele>2085</ele>
        <time>2021-08-07T08:10:59.708Z</time>
      </trkpt>
      <trkpt lat="46.91688" lon="8.67934">
        <ele>2084</ele>
        <time>2021-08-07T08:11:00.709Z</time>
      </trkpt>
      <trkpt lat="46.91688" lon="8.67933">
        <ele>2084</ele>
        <time>2021-08-07T08:11:01.709Z</time>
      </trkpt>
      <trkpt lat="46.91687" lon="8.67932">
        <ele>2084</ele>
        <time>2021-08-07T08:11:02.708Z</time>
      </trkpt>
      <trkpt lat="46.91687" lon="8.67931">
        <ele>2083</ele>
        <time>2021-08-07T08:11:03.709Z</time>
      </trkpt>
      <trkpt lat="46.91686" lon="8.6793">
        <ele>2083</ele>
        <time>2021-08-07T08:11:04.709Z</time>
      </trkpt>
      <trkpt lat="46.91686" lon="8.67929">
        <ele>2082</ele>
        <time>2021-08-07T08:11:05.709Z</time>
      </trkpt>
      <trkpt lat="46.91685" lon="8.67928">
        <ele>2082</ele>
        <time>2021-08-07T08:11:06.709Z</time>
      </trkpt>
      <trkpt lat="46.91685" lon="8.67926">
        <ele>2082</ele>
        <time>2021-08-07T08:11:07.709Z</time>
      </trkpt>
      <trkpt lat="46.91685" lon="8.67925">
        <ele>2082</ele>
        <time>2021-08-07T08:11:08.708Z</time>
      </trkpt>
      <trkpt lat="46.91685" lon="8.67924">
        <ele>2082</ele>
        <time>2021-08-07T08:11:09.709Z</time>
      </trkpt>
      <trkpt lat="46.91685" lon="8.67923">
        <ele>2082</ele>
        <time>2021-08-07T08:11:10.709Z</time>
      </trkpt>
      <trkpt lat="46.91685" lon="8.67922">
        <ele>2082</ele>
        <time>2021-08-07T08:11:11.709Z</time>
      </trkpt>
      <trkpt lat="46.91685" lon="8.67921">
        <ele>2082</ele>
        <time>2021-08-07T08:11:12.709Z</time>
      </trkpt>
      <trkpt lat="46.91685" lon="8.67921">
        <ele>2082</ele>
        <time>2021-08-07T08:11:13.708Z</time>
      </trkpt>
      <trkpt lat="46.91685" lon="8.6792">
        <ele>2083</ele>
        <time>2021-08-07T08:11:14.709Z</time>
      </trkpt>
      <trkpt lat="46.91686" lon="8.6792">
        <ele>2083</ele>
        <time>2021-08-07T08:11:15.708Z</time>
      </trkpt>
      <trkpt lat="46.91686" lon="8.67919">
        <ele>2084</ele>
        <time>2021-08-07T08:11:16.709Z</time>
      </trkpt>
      <trkpt lat="46.91686" lon="8.67918">
        <ele>2084</ele>
        <time>2021-08-07T08:11:17.709Z</time>
      </trkpt>
      <trkpt lat="46.91686" lon="8.67917">
        <ele>2084</ele>
        <time>2021-08-07T08:11:18.709Z</time>
      </trkpt>
      <trkpt lat="46.91686" lon="8.67916">
        <ele>2085</ele>
        <time>2021-08-07T08:11:19.708Z</time>
      </trkpt>
      <trkpt lat="46.91686" lon="8.67915">
        <ele>2085</ele>
        <time>2021-08-07T08:11:20.709Z</time>
      </trkpt>
      <trkpt lat="46.91686" lon="8.67914">
        <ele>2086</ele>
        <time>2021-08-07T08:11:21.708Z</time>
      </trkpt>
      <trkpt lat="46.91685" lon="8.67913">
        <ele>2086</ele>
        <time>2021-08-07T08:11:22.708Z</time>
      </trkpt>
      <trkpt lat="46.91684" lon="8.67912">
        <ele>2086</ele>
        <time>2021-08-07T08:11:23.708Z</time>
      </trkpt>
      <trkpt lat="46.91684" lon="8.6791">
        <ele>2086</ele>
        <time>2021-08-07T08:11:24.708Z</time>
      </trkpt>
      <trkpt lat="46.91683" lon="8.67909">
        <ele>2086</ele>
        <time>2021-08-07T08:11:25.708Z</time>
      </trkpt>
      <trkpt lat="46.91683" lon="8.67908">
        <ele>2086</ele>
        <time>2021-08-07T08:11:26.709Z</time>
      </trkpt>
      <trkpt lat="46.91682" lon="8.67906">
        <ele>2086</ele>
        <time>2021-08-07T08:11:27.708Z</time>
      </trkpt>
      <trkpt lat="46.91681" lon="8.67904">
        <ele>2085</ele>
        <time>2021-08-07T08:11:28.708Z</time>
      </trkpt>
      <trkpt lat="46.9168" lon="8.67903">
        <ele>2085</ele>
        <time>2021-08-07T08:11:29.708Z</time>
      </trkpt>
      <trkpt lat="46.9168" lon="8.67901">
        <ele>2084</ele>
        <time>2021-08-07T08:11:30.708Z</time>
      </trkpt>
      <trkpt lat="46.9168" lon="8.679">
        <ele>2084</ele>
        <time>2021-08-07T08:11:31.708Z</time>
      </trkpt>
      <trkpt lat="46.91679" lon="8.67899">
        <ele>2083</ele>
        <time>2021-08-07T08:11:32.709Z</time>
      </trkpt>
      <trkpt lat="46.91679" lon="8.67897">
        <ele>2082</ele>
        <time>2021-08-07T08:11:33.708Z</time>
      </trkpt>
      <trkpt lat="46.91678" lon="8.67896">
        <ele>2082</ele>
        <time>2021-08-07T08:11:34.708Z</time>
      </trkpt>
      <trkpt lat="46.91678" lon="8.67895">
        <ele>2081</ele>
        <time>2021-08-07T08:11:35.708Z</time>
      </trkpt>
      <trkpt lat="46.91677" lon="8.67894">
        <ele>2081</ele>
        <time>2021-08-07T08:11:36.708Z</time>
      </trkpt>
      <trkpt lat="46.91677" lon="8.67893">
        <ele>2081</ele>
        <time>2021-08-07T08:11:37.709Z</time>
      </trkpt>
      <trkpt lat="46.91677" lon="8.67893">
        <ele>2081</ele>
        <time>2021-08-07T08:11:38.708Z</time>
      </trkpt>
      <trkpt lat="46.91676" lon="8.67892">
        <ele>2081</ele>
        <time>2021-08-07T08:11:39.708Z</time>
      </trkpt>
      <trkpt lat="46.91675" lon="8.67892">
        <ele>2081</ele>
        <time>2021-08-07T08:11:40.708Z</time>
      </trkpt>
      <trkpt lat="46.91675" lon="8.67892">
        <ele>2081</ele>
        <time>2021-08-07T08:11:41.708Z</time>
      </trkpt>
      <trkpt lat="46.91674" lon="8.67891">
        <ele>2082</ele>
        <time>2021-08-07T08:11:42.708Z</time>
      </trkpt>
      <trkpt lat="46.91674" lon="8.6789">
        <ele>2081</ele>
        <time>2021-08-07T08:11:43.708Z</time>
      </trkpt>
      <trkpt lat="46.91674" lon="8.67889">
        <ele>2081</ele>
        <time>2021-08-07T08:11:44.708Z</time>
      </trkpt>
      <trkpt lat="46.91674" lon="8.67888">
        <ele>2081</ele>
        <time>2021-08-07T08:11:45.708Z</time>
      </trkpt>
      <trkpt lat="46.91675" lon="8.67886">
        <ele>2081</ele>
        <time>2021-08-07T08:11:46.708Z</time>
      </trkpt>
      <trkpt lat="46.91674" lon="8.67885">
        <ele>2081</ele>
        <time>2021-08-07T08:11:47.708Z</time>
      </trkpt>
      <trkpt lat="46.91674" lon="8.67884">
        <ele>2081</ele>
        <time>2021-08-07T08:11:48.708Z</time>
      </trkpt>
      <trkpt lat="46.91673" lon="8.67882">
        <ele>2081</ele>
        <time>2021-08-07T08:11:49.708Z</time>
      </trkpt>
      <trkpt lat="46.91673" lon="8.67881">
        <ele>2080</ele>
        <time>2021-08-07T08:11:50.708Z</time>
      </trkpt>
      <trkpt lat="46.91672" lon="8.6788">
        <ele>2080</ele>
        <time>2021-08-07T08:11:51.708Z</time>
      </trkpt>
      <trkpt lat="46.91672" lon="8.67878">
        <ele>2079</ele>
        <time>2021-08-07T08:11:52.708Z</time>
      </trkpt>
      <trkpt lat="46.91671" lon="8.67877">
        <ele>2079</ele>
        <time>2021-08-07T08:11:53.708Z</time>
      </trkpt>
      <trkpt lat="46.91671" lon="8.67876">
        <ele>2078</ele>
        <time>2021-08-07T08:11:54.708Z</time>
      </trkpt>
      <trkpt lat="46.91671" lon="8.67875">
        <ele>2078</ele>
        <time>2021-08-07T08:11:55.708Z</time>
      </trkpt>
      <trkpt lat="46.91671" lon="8.67876">
        <ele>2078</ele>
        <time>2021-08-07T08:11:56.708Z</time>
      </trkpt>
      <trkpt lat="46.91671" lon="8.67873">
        <ele>2075</ele>
        <time>2021-08-07T08:11:57.708Z</time>
      </trkpt>
      <trkpt lat="46.91671" lon="8.67871">
        <ele>2075</ele>
        <time>2021-08-07T08:11:58.709Z</time>
      </trkpt>
      <trkpt lat="46.91671" lon="8.6787">
        <ele>2075</ele>
        <time>2021-08-07T08:11:59.708Z</time>
      </trkpt>
      <trkpt lat="46.91671" lon="8.67869">
        <ele>2075</ele>
        <time>2021-08-07T08:12:00.709Z</time>
      </trkpt>
      <trkpt lat="46.9167" lon="8.67868">
        <ele>2075</ele>
        <time>2021-08-07T08:12:01.709Z</time>
      </trkpt>
      <trkpt lat="46.9167" lon="8.67867">
        <ele>2076</ele>
        <time>2021-08-07T08:12:02.709Z</time>
      </trkpt>
      <trkpt lat="46.91671" lon="8.67865">
        <ele>2076</ele>
        <time>2021-08-07T08:12:03.709Z</time>
      </trkpt>
      <trkpt lat="46.91671" lon="8.67863">
        <ele>2076</ele>
        <time>2021-08-07T08:12:04.709Z</time>
      </trkpt>
      <trkpt lat="46.91671" lon="8.67861">
        <ele>2077</ele>
        <time>2021-08-07T08:12:05.709Z</time>
      </trkpt>
      <trkpt lat="46.91671" lon="8.6786">
        <ele>2077</ele>
        <time>2021-08-07T08:12:06.709Z</time>
      </trkpt>
      <trkpt lat="46.91672" lon="8.67859">
        <ele>2077</ele>
        <time>2021-08-07T08:12:07.709Z</time>
      </trkpt>
      <trkpt lat="46.91672" lon="8.67857">
        <ele>2078</ele>
        <time>2021-08-07T08:12:08.708Z</time>
      </trkpt>
      <trkpt lat="46.91672" lon="8.67856">
        <ele>2078</ele>
        <time>2021-08-07T08:12:09.708Z</time>
      </trkpt>
      <trkpt lat="46.91672" lon="8.67855">
        <ele>2078</ele>
        <time>2021-08-07T08:12:10.709Z</time>
      </trkpt>
      <trkpt lat="46.91671" lon="8.67853">
        <ele>2078</ele>
        <time>2021-08-07T08:12:11.709Z</time>
      </trkpt>
      <trkpt lat="46.91671" lon="8.67852">
        <ele>2079</ele>
        <time>2021-08-07T08:12:12.709Z</time>
      </trkpt>
      <trkpt lat="46.91671" lon="8.6785">
        <ele>2078</ele>
        <time>2021-08-07T08:12:13.709Z</time>
      </trkpt>
      <trkpt lat="46.91671" lon="8.67849">
        <ele>2078</ele>
        <time>2021-08-07T08:12:14.709Z</time>
      </trkpt>
      <trkpt lat="46.91671" lon="8.67847">
        <ele>2077</ele>
        <time>2021-08-07T08:12:15.708Z</time>
      </trkpt>
      <trkpt lat="46.91671" lon="8.67846">
        <ele>2077</ele>
        <time>2021-08-07T08:12:16.709Z</time>
      </trkpt>
      <trkpt lat="46.91671" lon="8.67845">
        <ele>2076</ele>
        <time>2021-08-07T08:12:17.708Z</time>
      </trkpt>
      <trkpt lat="46.91671" lon="8.67844">
        <ele>2075</ele>
        <time>2021-08-07T08:12:18.708Z</time>
      </trkpt>
      <trkpt lat="46.91671" lon="8.67843">
        <ele>2075</ele>
        <time>2021-08-07T08:12:19.708Z</time>
      </trkpt>
      <trkpt lat="46.91672" lon="8.67841">
        <ele>2075</ele>
        <time>2021-08-07T08:12:20.708Z</time>
      </trkpt>
      <trkpt lat="46.91671" lon="8.6784">
        <ele>2074</ele>
        <time>2021-08-07T08:12:21.709Z</time>
      </trkpt>
      <trkpt lat="46.91672" lon="8.67838">
        <ele>2074</ele>
        <time>2021-08-07T08:12:22.709Z</time>
      </trkpt>
      <trkpt lat="46.91672" lon="8.67837">
        <ele>2073</ele>
        <time>2021-08-07T08:12:23.709Z</time>
      </trkpt>
      <trkpt lat="46.91672" lon="8.67836">
        <ele>2073</ele>
        <time>2021-08-07T08:12:24.709Z</time>
      </trkpt>
      <trkpt lat="46.91672" lon="8.67835">
        <ele>2073</ele>
        <time>2021-08-07T08:12:25.709Z</time>
      </trkpt>
      <trkpt lat="46.91672" lon="8.67833">
        <ele>2073</ele>
        <time>2021-08-07T08:12:26.709Z</time>
      </trkpt>
      <trkpt lat="46.91673" lon="8.67832">
        <ele>2073</ele>
        <time>2021-08-07T08:12:27.709Z</time>
      </trkpt>
      <trkpt lat="46.91673" lon="8.67831">
        <ele>2073</ele>
        <time>2021-08-07T08:12:28.709Z</time>
      </trkpt>
      <trkpt lat="46.91673" lon="8.67829">
        <ele>2073</ele>
        <time>2021-08-07T08:12:29.709Z</time>
      </trkpt>
      <trkpt lat="46.91673" lon="8.67827">
        <ele>2073</ele>
        <time>2021-08-07T08:12:30.709Z</time>
      </trkpt>
      <trkpt lat="46.91673" lon="8.67825">
        <ele>2073</ele>
        <time>2021-08-07T08:12:31.708Z</time>
      </trkpt>
      <trkpt lat="46.91673" lon="8.67824">
        <ele>2073</ele>
        <time>2021-08-07T08:12:32.708Z</time>
      </trkpt>
      <trkpt lat="46.91673" lon="8.67822">
        <ele>2073</ele>
        <time>2021-08-07T08:12:33.709Z</time>
      </trkpt>
      <trkpt lat="46.91673" lon="8.67821">
        <ele>2073</ele>
        <time>2021-08-07T08:12:34.709Z</time>
      </trkpt>
      <trkpt lat="46.91672" lon="8.67819">
        <ele>2073</ele>
        <time>2021-08-07T08:12:35.709Z</time>
      </trkpt>
      <trkpt lat="46.91672" lon="8.67818">
        <ele>2074</ele>
        <time>2021-08-07T08:12:36.709Z</time>
      </trkpt>
      <trkpt lat="46.91672" lon="8.67817">
        <ele>2074</ele>
        <time>2021-08-07T08:12:37.708Z</time>
      </trkpt>
      <trkpt lat="46.91672" lon="8.67816">
        <ele>2074</ele>
        <time>2021-08-07T08:12:38.709Z</time>
      </trkpt>
      <trkpt lat="46.91672" lon="8.67815">
        <ele>2073</ele>
        <time>2021-08-07T08:12:39.708Z</time>
      </trkpt>
      <trkpt lat="46.91672" lon="8.67813">
        <ele>2073</ele>
        <time>2021-08-07T08:12:40.708Z</time>
      </trkpt>
      <trkpt lat="46.91672" lon="8.67812">
        <ele>2073</ele>
        <time>2021-08-07T08:12:41.708Z</time>
      </trkpt>
      <trkpt lat="46.91672" lon="8.67811">
        <ele>2072</ele>
        <time>2021-08-07T08:12:42.708Z</time>
      </trkpt>
      <trkpt lat="46.91672" lon="8.6781">
        <ele>2072</ele>
        <time>2021-08-07T08:12:43.708Z</time>
      </trkpt>
      <trkpt lat="46.91672" lon="8.67809">
        <ele>2072</ele>
        <time>2021-08-07T08:12:44.708Z</time>
      </trkpt>
      <trkpt lat="46.91672" lon="8.67809">
        <ele>2072</ele>
        <time>2021-08-07T08:12:45.708Z</time>
      </trkpt>
      <trkpt lat="46.91672" lon="8.67808">
        <ele>2071</ele>
        <time>2021-08-07T08:12:46.710Z</time>
      </trkpt>
      <trkpt lat="46.91672" lon="8.67807">
        <ele>2071</ele>
        <time>2021-08-07T08:12:47.710Z</time>
      </trkpt>
      <trkpt lat="46.91672" lon="8.67806">
        <ele>2072</ele>
        <time>2021-08-07T08:12:48.710Z</time>
      </trkpt>
      <trkpt lat="46.91672" lon="8.67806">
        <ele>2072</ele>
        <time>2021-08-07T08:12:49.710Z</time>
      </trkpt>
      <trkpt lat="46.91672" lon="8.67805">
        <ele>2072</ele>
        <time>2021-08-07T08:12:50.709Z</time>
      </trkpt>
      <trkpt lat="46.91672" lon="8.67804">
        <ele>2072</ele>
        <time>2021-08-07T08:12:51.710Z</time>
      </trkpt>
      <trkpt lat="46.91672" lon="8.67803">
        <ele>2072</ele>
        <time>2021-08-07T08:12:52.710Z</time>
      </trkpt>
      <trkpt lat="46.91673" lon="8.67801">
        <ele>2072</ele>
        <time>2021-08-07T08:12:53.710Z</time>
      </trkpt>
      <trkpt lat="46.91673" lon="8.678">
        <ele>2072</ele>
        <time>2021-08-07T08:12:54.710Z</time>
      </trkpt>
      <trkpt lat="46.91672" lon="8.67799">
        <ele>2072</ele>
        <time>2021-08-07T08:12:55.710Z</time>
      </trkpt>
      <trkpt lat="46.91672" lon="8.67798">
        <ele>2072</ele>
        <time>2021-08-07T08:12:56.710Z</time>
      </trkpt>
      <trkpt lat="46.91672" lon="8.67797">
        <ele>2072</ele>
        <time>2021-08-07T08:12:57.710Z</time>
      </trkpt>
      <trkpt lat="46.91672" lon="8.67796">
        <ele>2071</ele>
        <time>2021-08-07T08:12:58.710Z</time>
      </trkpt>
      <trkpt lat="46.91672" lon="8.67795">
        <ele>2071</ele>
        <time>2021-08-07T08:12:59.710Z</time>
      </trkpt>
      <trkpt lat="46.91673" lon="8.67793">
        <ele>2071</ele>
        <time>2021-08-07T08:13:00.710Z</time>
      </trkpt>
      <trkpt lat="46.91673" lon="8.67792">
        <ele>2070</ele>
        <time>2021-08-07T08:13:01.709Z</time>
      </trkpt>
      <trkpt lat="46.91673" lon="8.67791">
        <ele>2070</ele>
        <time>2021-08-07T08:13:02.710Z</time>
      </trkpt>
      <trkpt lat="46.91673" lon="8.67789">
        <ele>2069</ele>
        <time>2021-08-07T08:13:03.709Z</time>
      </trkpt>
      <trkpt lat="46.91674" lon="8.67788">
        <ele>2069</ele>
        <time>2021-08-07T08:13:04.709Z</time>
      </trkpt>
      <trkpt lat="46.91674" lon="8.67787">
        <ele>2069</ele>
        <time>2021-08-07T08:13:05.710Z</time>
      </trkpt>
      <trkpt lat="46.91674" lon="8.67785">
        <ele>2069</ele>
        <time>2021-08-07T08:13:06.710Z</time>
      </trkpt>
      <trkpt lat="46.91674" lon="8.67785">
        <ele>2069</ele>
        <time>2021-08-07T08:13:07.709Z</time>
      </trkpt>
      <trkpt lat="46.91675" lon="8.67784">
        <ele>2068</ele>
        <time>2021-08-07T08:13:08.709Z</time>
      </trkpt>
      <trkpt lat="46.91674" lon="8.67782">
        <ele>2068</ele>
        <time>2021-08-07T08:13:09.710Z</time>
      </trkpt>
      <trkpt lat="46.91674" lon="8.67781">
        <ele>2068</ele>
        <time>2021-08-07T08:13:10.710Z</time>
      </trkpt>
      <trkpt lat="46.91674" lon="8.67779">
        <ele>2068</ele>
        <time>2021-08-07T08:13:11.710Z</time>
      </trkpt>
      <trkpt lat="46.91674" lon="8.67778">
        <ele>2068</ele>
        <time>2021-08-07T08:13:12.709Z</time>
      </trkpt>
      <trkpt lat="46.91674" lon="8.67777">
        <ele>2068</ele>
        <time>2021-08-07T08:13:13.710Z</time>
      </trkpt>
      <trkpt lat="46.91674" lon="8.67776">
        <ele>2067</ele>
        <time>2021-08-07T08:13:14.709Z</time>
      </trkpt>
      <trkpt lat="46.91673" lon="8.67776">
        <ele>2067</ele>
        <time>2021-08-07T08:13:15.710Z</time>
      </trkpt>
      <trkpt lat="46.91673" lon="8.67775">
        <ele>2067</ele>
        <time>2021-08-07T08:13:16.710Z</time>
      </trkpt>
      <trkpt lat="46.91673" lon="8.67773">
        <ele>2067</ele>
        <time>2021-08-07T08:13:17.710Z</time>
      </trkpt>
      <trkpt lat="46.91673" lon="8.67772">
        <ele>2067</ele>
        <time>2021-08-07T08:13:18.710Z</time>
      </trkpt>
      <trkpt lat="46.91673" lon="8.67771">
        <ele>2067</ele>
        <time>2021-08-07T08:13:19.710Z</time>
      </trkpt>
      <trkpt lat="46.91673" lon="8.6777">
        <ele>2067</ele>
        <time>2021-08-07T08:13:20.710Z</time>
      </trkpt>
      <trkpt lat="46.91673" lon="8.67768">
        <ele>2066</ele>
        <time>2021-08-07T08:13:21.709Z</time>
      </trkpt>
      <trkpt lat="46.91674" lon="8.67767">
        <ele>2066</ele>
        <time>2021-08-07T08:13:22.709Z</time>
      </trkpt>
      <trkpt lat="46.91674" lon="8.67766">
        <ele>2066</ele>
        <time>2021-08-07T08:13:23.709Z</time>
      </trkpt>
      <trkpt lat="46.91674" lon="8.67764">
        <ele>2066</ele>
        <time>2021-08-07T08:13:24.710Z</time>
      </trkpt>
      <trkpt lat="46.91674" lon="8.67763">
        <ele>2065</ele>
        <time>2021-08-07T08:13:25.710Z</time>
      </trkpt>
      <trkpt lat="46.91674" lon="8.67762">
        <ele>2065</ele>
        <time>2021-08-07T08:13:26.709Z</time>
      </trkpt>
      <trkpt lat="46.91674" lon="8.67761">
        <ele>2065</ele>
        <time>2021-08-07T08:13:27.710Z</time>
      </trkpt>
      <trkpt lat="46.91675" lon="8.6776">
        <ele>2065</ele>
        <time>2021-08-07T08:13:28.710Z</time>
      </trkpt>
      <trkpt lat="46.91675" lon="8.67759">
        <ele>2066</ele>
        <time>2021-08-07T08:13:29.709Z</time>
      </trkpt>
      <trkpt lat="46.91675" lon="8.67758">
        <ele>2067</ele>
        <time>2021-08-07T08:13:30.709Z</time>
      </trkpt>
      <trkpt lat="46.91675" lon="8.67756">
        <ele>2067</ele>
        <time>2021-08-07T08:13:31.709Z</time>
      </trkpt>
      <trkpt lat="46.91675" lon="8.67755">
        <ele>2066</ele>
        <time>2021-08-07T08:13:32.710Z</time>
      </trkpt>
      <trkpt lat="46.91675" lon="8.67754">
        <ele>2066</ele>
        <time>2021-08-07T08:13:33.710Z</time>
      </trkpt>
      <trkpt lat="46.91676" lon="8.67753">
        <ele>2065</ele>
        <time>2021-08-07T08:13:34.709Z</time>
      </trkpt>
      <trkpt lat="46.91676" lon="8.67752">
        <ele>2064</ele>
        <time>2021-08-07T08:13:35.710Z</time>
      </trkpt>
      <trkpt lat="46.91676" lon="8.67751">
        <ele>2064</ele>
        <time>2021-08-07T08:13:36.710Z</time>
      </trkpt>
      <trkpt lat="46.91676" lon="8.6775">
        <ele>2064</ele>
        <time>2021-08-07T08:13:37.710Z</time>
      </trkpt>
      <trkpt lat="46.91676" lon="8.6775">
        <ele>2064</ele>
        <time>2021-08-07T08:13:38.710Z</time>
      </trkpt>
      <trkpt lat="46.91676" lon="8.67749">
        <ele>2064</ele>
        <time>2021-08-07T08:13:39.710Z</time>
      </trkpt>
      <trkpt lat="46.91676" lon="8.67749">
        <ele>2064</ele>
        <time>2021-08-07T08:13:40.709Z</time>
      </trkpt>
      <trkpt lat="46.91676" lon="8.67748">
        <ele>2063</ele>
        <time>2021-08-07T08:13:41.710Z</time>
      </trkpt>
      <trkpt lat="46.91676" lon="8.67747">
        <ele>2063</ele>
        <time>2021-08-07T08:13:42.709Z</time>
      </trkpt>
      <trkpt lat="46.91676" lon="8.67746">
        <ele>2063</ele>
        <time>2021-08-07T08:13:43.710Z</time>
      </trkpt>
      <trkpt lat="46.91677" lon="8.67745">
        <ele>2063</ele>
        <time>2021-08-07T08:13:44.710Z</time>
      </trkpt>
      <trkpt lat="46.91677" lon="8.67743">
        <ele>2063</ele>
        <time>2021-08-07T08:13:45.710Z</time>
      </trkpt>
      <trkpt lat="46.91677" lon="8.67742">
        <ele>2062</ele>
        <time>2021-08-07T08:13:46.710Z</time>
      </trkpt>
      <trkpt lat="46.91677" lon="8.6774">
        <ele>2062</ele>
        <time>2021-08-07T08:13:47.709Z</time>
      </trkpt>
      <trkpt lat="46.91678" lon="8.67739">
        <ele>2062</ele>
        <time>2021-08-07T08:13:48.710Z</time>
      </trkpt>
      <trkpt lat="46.91677" lon="8.67737">
        <ele>2062</ele>
        <time>2021-08-07T08:13:49.710Z</time>
      </trkpt>
      <trkpt lat="46.91677" lon="8.67735">
        <ele>2062</ele>
        <time>2021-08-07T08:13:50.709Z</time>
      </trkpt>
      <trkpt lat="46.91677" lon="8.67734">
        <ele>2061</ele>
        <time>2021-08-07T08:13:51.710Z</time>
      </trkpt>
      <trkpt lat="46.91677" lon="8.67733">
        <ele>2061</ele>
        <time>2021-08-07T08:13:52.709Z</time>
      </trkpt>
      <trkpt lat="46.91677" lon="8.67731">
        <ele>2061</ele>
        <time>2021-08-07T08:13:53.710Z</time>
      </trkpt>
      <trkpt lat="46.91677" lon="8.6773">
        <ele>2060</ele>
        <time>2021-08-07T08:13:54.709Z</time>
      </trkpt>
      <trkpt lat="46.91676" lon="8.67728">
        <ele>2060</ele>
        <time>2021-08-07T08:13:55.710Z</time>
      </trkpt>
      <trkpt lat="46.91676" lon="8.67727">
        <ele>2060</ele>
        <time>2021-08-07T08:13:56.710Z</time>
      </trkpt>
      <trkpt lat="46.91676" lon="8.67725">
        <ele>2059</ele>
        <time>2021-08-07T08:13:57.709Z</time>
      </trkpt>
      <trkpt lat="46.91675" lon="8.67724">
        <ele>2059</ele>
        <time>2021-08-07T08:13:58.710Z</time>
      </trkpt>
      <trkpt lat="46.91675" lon="8.67723">
        <ele>2059</ele>
        <time>2021-08-07T08:13:59.710Z</time>
      </trkpt>
      <trkpt lat="46.91675" lon="8.67721">
        <ele>2059</ele>
        <time>2021-08-07T08:14:00.710Z</time>
      </trkpt>
      <trkpt lat="46.91675" lon="8.6772">
        <ele>2059</ele>
        <time>2021-08-07T08:14:01.710Z</time>
      </trkpt>
      <trkpt lat="46.91675" lon="8.67719">
        <ele>2059</ele>
        <time>2021-08-07T08:14:02.710Z</time>
      </trkpt>
      <trkpt lat="46.91675" lon="8.67718">
        <ele>2058</ele>
        <time>2021-08-07T08:14:03.710Z</time>
      </trkpt>
      <trkpt lat="46.91676" lon="8.67717">
        <ele>2059</ele>
        <time>2021-08-07T08:14:04.710Z</time>
      </trkpt>
      <trkpt lat="46.91676" lon="8.67716">
        <ele>2059</ele>
        <time>2021-08-07T08:14:05.710Z</time>
      </trkpt>
      <trkpt lat="46.91677" lon="8.67715">
        <ele>2059</ele>
        <time>2021-08-07T08:14:06.710Z</time>
      </trkpt>
      <trkpt lat="46.91678" lon="8.67714">
        <ele>2059</ele>
        <time>2021-08-07T08:14:07.710Z</time>
      </trkpt>
      <trkpt lat="46.91679" lon="8.67714">
        <ele>2060</ele>
        <time>2021-08-07T08:14:08.710Z</time>
      </trkpt>
      <trkpt lat="46.9168" lon="8.67713">
        <ele>2061</ele>
        <time>2021-08-07T08:14:09.710Z</time>
      </trkpt>
      <trkpt lat="46.91681" lon="8.67713">
        <ele>2061</ele>
        <time>2021-08-07T08:14:10.709Z</time>
      </trkpt>
      <trkpt lat="46.91682" lon="8.67711">
        <ele>2061</ele>
        <time>2021-08-07T08:14:11.710Z</time>
      </trkpt>
      <trkpt lat="46.91682" lon="8.67709">
        <ele>2061</ele>
        <time>2021-08-07T08:14:12.710Z</time>
      </trkpt>
      <trkpt lat="46.91682" lon="8.67707">
        <ele>2061</ele>
        <time>2021-08-07T08:14:13.710Z</time>
      </trkpt>
      <trkpt lat="46.91682" lon="8.67705">
        <ele>2060</ele>
        <time>2021-08-07T08:14:14.710Z</time>
      </trkpt>
      <trkpt lat="46.91682" lon="8.67704">
        <ele>2059</ele>
        <time>2021-08-07T08:14:15.710Z</time>
      </trkpt>
      <trkpt lat="46.91682" lon="8.67704">
        <ele>2058</ele>
        <time>2021-08-07T08:14:16.709Z</time>
      </trkpt>
      <trkpt lat="46.91682" lon="8.67703">
        <ele>2057</ele>
        <time>2021-08-07T08:14:17.709Z</time>
      </trkpt>
      <trkpt lat="46.91682" lon="8.67702">
        <ele>2056</ele>
        <time>2021-08-07T08:14:18.709Z</time>
      </trkpt>
      <trkpt lat="46.91682" lon="8.67702">
        <ele>2056</ele>
        <time>2021-08-07T08:14:19.710Z</time>
      </trkpt>
      <trkpt lat="46.91681" lon="8.677">
        <ele>2052</ele>
        <time>2021-08-07T08:14:20.710Z</time>
      </trkpt>
      <trkpt lat="46.91681" lon="8.67699">
        <ele>2051</ele>
        <time>2021-08-07T08:14:21.710Z</time>
      </trkpt>
      <trkpt lat="46.91681" lon="8.67698">
        <ele>2051</ele>
        <time>2021-08-07T08:14:22.710Z</time>
      </trkpt>
      <trkpt lat="46.91681" lon="8.67697">
        <ele>2051</ele>
        <time>2021-08-07T08:14:23.711Z</time>
      </trkpt>
      <trkpt lat="46.91682" lon="8.67697">
        <ele>2052</ele>
        <time>2021-08-07T08:14:24.711Z</time>
      </trkpt>
      <trkpt lat="46.91682" lon="8.67695">
        <ele>2051</ele>
        <time>2021-08-07T08:14:25.711Z</time>
      </trkpt>
      <trkpt lat="46.91683" lon="8.67694">
        <ele>2052</ele>
        <time>2021-08-07T08:14:26.711Z</time>
      </trkpt>
      <trkpt lat="46.91683" lon="8.67693">
        <ele>2052</ele>
        <time>2021-08-07T08:14:27.710Z</time>
      </trkpt>
      <trkpt lat="46.91683" lon="8.67692">
        <ele>2052</ele>
        <time>2021-08-07T08:14:28.711Z</time>
      </trkpt>
      <trkpt lat="46.91683" lon="8.67691">
        <ele>2052</ele>
        <time>2021-08-07T08:14:29.710Z</time>
      </trkpt>
      <trkpt lat="46.91684" lon="8.6769">
        <ele>2052</ele>
        <time>2021-08-07T08:14:30.711Z</time>
      </trkpt>
      <trkpt lat="46.91684" lon="8.67689">
        <ele>2052</ele>
        <time>2021-08-07T08:14:31.711Z</time>
      </trkpt>
      <trkpt lat="46.91685" lon="8.67688">
        <ele>2052</ele>
        <time>2021-08-07T08:14:32.711Z</time>
      </trkpt>
      <trkpt lat="46.91686" lon="8.67686">
        <ele>2052</ele>
        <time>2021-08-07T08:14:33.710Z</time>
      </trkpt>
      <trkpt lat="46.91686" lon="8.67685">
        <ele>2052</ele>
        <time>2021-08-07T08:14:34.711Z</time>
      </trkpt>
      <trkpt lat="46.91687" lon="8.67684">
        <ele>2052</ele>
        <time>2021-08-07T08:14:35.711Z</time>
      </trkpt>
      <trkpt lat="46.91687" lon="8.67683">
        <ele>2052</ele>
        <time>2021-08-07T08:14:36.710Z</time>
      </trkpt>
      <trkpt lat="46.91687" lon="8.67682">
        <ele>2052</ele>
        <time>2021-08-07T08:14:37.711Z</time>
      </trkpt>
      <trkpt lat="46.91687" lon="8.67681">
        <ele>2051</ele>
        <time>2021-08-07T08:14:38.710Z</time>
      </trkpt>
      <trkpt lat="46.91688" lon="8.6768">
        <ele>2051</ele>
        <time>2021-08-07T08:14:39.710Z</time>
      </trkpt>
      <trkpt lat="46.91688" lon="8.67679">
        <ele>2051</ele>
        <time>2021-08-07T08:14:40.711Z</time>
      </trkpt>
      <trkpt lat="46.91687" lon="8.67678">
        <ele>2050</ele>
        <time>2021-08-07T08:14:41.711Z</time>
      </trkpt>
      <trkpt lat="46.91687" lon="8.67677">
        <ele>2050</ele>
        <time>2021-08-07T08:14:42.710Z</time>
      </trkpt>
      <trkpt lat="46.91687" lon="8.67676">
        <ele>2050</ele>
        <time>2021-08-07T08:14:43.711Z</time>
      </trkpt>
      <trkpt lat="46.91688" lon="8.67674">
        <ele>2049</ele>
        <time>2021-08-07T08:14:44.710Z</time>
      </trkpt>
      <trkpt lat="46.91688" lon="8.67672">
        <ele>2049</ele>
        <time>2021-08-07T08:14:45.711Z</time>
      </trkpt>
      <trkpt lat="46.91688" lon="8.67671">
        <ele>2049</ele>
        <time>2021-08-07T08:14:46.711Z</time>
      </trkpt>
      <trkpt lat="46.91687" lon="8.67669">
        <ele>2049</ele>
        <time>2021-08-07T08:14:47.710Z</time>
      </trkpt>
      <trkpt lat="46.91688" lon="8.67668">
        <ele>2049</ele>
        <time>2021-08-07T08:14:48.711Z</time>
      </trkpt>
      <trkpt lat="46.91687" lon="8.67666">
        <ele>2049</ele>
        <time>2021-08-07T08:14:49.711Z</time>
      </trkpt>
      <trkpt lat="46.91687" lon="8.67665">
        <ele>2049</ele>
        <time>2021-08-07T08:14:50.711Z</time>
      </trkpt>
      <trkpt lat="46.91687" lon="8.67663">
        <ele>2048</ele>
        <time>2021-08-07T08:14:51.710Z</time>
      </trkpt>
      <trkpt lat="46.91687" lon="8.67661">
        <ele>2048</ele>
        <time>2021-08-07T08:14:52.710Z</time>
      </trkpt>
      <trkpt lat="46.91687" lon="8.6766">
        <ele>2048</ele>
        <time>2021-08-07T08:14:53.710Z</time>
      </trkpt>
      <trkpt lat="46.91688" lon="8.67659">
        <ele>2047</ele>
        <time>2021-08-07T08:14:54.710Z</time>
      </trkpt>
      <trkpt lat="46.91689" lon="8.67658">
        <ele>2047</ele>
        <time>2021-08-07T08:14:55.711Z</time>
      </trkpt>
      <trkpt lat="46.9169" lon="8.67657">
        <ele>2046</ele>
        <time>2021-08-07T08:14:56.711Z</time>
      </trkpt>
      <trkpt lat="46.91691" lon="8.67655">
        <ele>2045</ele>
        <time>2021-08-07T08:14:57.711Z</time>
      </trkpt>
      <trkpt lat="46.91691" lon="8.67654">
        <ele>2044</ele>
        <time>2021-08-07T08:14:58.710Z</time>
      </trkpt>
      <trkpt lat="46.91692" lon="8.67653">
        <ele>2044</ele>
        <time>2021-08-07T08:14:59.711Z</time>
      </trkpt>
      <trkpt lat="46.91693" lon="8.67651">
        <ele>2044</ele>
        <time>2021-08-07T08:15:00.711Z</time>
      </trkpt>
      <trkpt lat="46.91694" lon="8.67649">
        <ele>2043</ele>
        <time>2021-08-07T08:15:01.711Z</time>
      </trkpt>
      <trkpt lat="46.91694" lon="8.67648">
        <ele>2043</ele>
        <time>2021-08-07T08:15:02.711Z</time>
      </trkpt>
      <trkpt lat="46.91694" lon="8.67646">
        <ele>2042</ele>
        <time>2021-08-07T08:15:03.711Z</time>
      </trkpt>
      <trkpt lat="46.91695" lon="8.67645">
        <ele>2042</ele>
        <time>2021-08-07T08:15:04.710Z</time>
      </trkpt>
      <trkpt lat="46.91695" lon="8.67644">
        <ele>2042</ele>
        <time>2021-08-07T08:15:05.711Z</time>
      </trkpt>
      <trkpt lat="46.91696" lon="8.67642">
        <ele>2042</ele>
        <time>2021-08-07T08:15:06.711Z</time>
      </trkpt>
      <trkpt lat="46.91696" lon="8.67641">
        <ele>2042</ele>
        <time>2021-08-07T08:15:07.711Z</time>
      </trkpt>
      <trkpt lat="46.91697" lon="8.67639">
        <ele>2042</ele>
        <time>2021-08-07T08:15:08.711Z</time>
      </trkpt>
      <trkpt lat="46.91698" lon="8.67638">
        <ele>2041</ele>
        <time>2021-08-07T08:15:09.711Z</time>
      </trkpt>
      <trkpt lat="46.91698" lon="8.67637">
        <ele>2041</ele>
        <time>2021-08-07T08:15:10.711Z</time>
      </trkpt>
      <trkpt lat="46.91699" lon="8.67636">
        <ele>2041</ele>
        <time>2021-08-07T08:15:11.711Z</time>
      </trkpt>
      <trkpt lat="46.917" lon="8.67635">
        <ele>2041</ele>
        <time>2021-08-07T08:15:12.711Z</time>
      </trkpt>
      <trkpt lat="46.91701" lon="8.67634">
        <ele>2041</ele>
        <time>2021-08-07T08:15:13.710Z</time>
      </trkpt>
      <trkpt lat="46.91701" lon="8.67633">
        <ele>2041</ele>
        <time>2021-08-07T08:15:14.711Z</time>
      </trkpt>
      <trkpt lat="46.91701" lon="8.67632">
        <ele>2041</ele>
        <time>2021-08-07T08:15:15.711Z</time>
      </trkpt>
      <trkpt lat="46.91702" lon="8.67631">
        <ele>2041</ele>
        <time>2021-08-07T08:15:16.710Z</time>
      </trkpt>
      <trkpt lat="46.91702" lon="8.67629">
        <ele>2041</ele>
        <time>2021-08-07T08:15:17.711Z</time>
      </trkpt>
      <trkpt lat="46.91703" lon="8.67628">
        <ele>2041</ele>
        <time>2021-08-07T08:15:18.711Z</time>
      </trkpt>
      <trkpt lat="46.91703" lon="8.67626">
        <ele>2042</ele>
        <time>2021-08-07T08:15:19.710Z</time>
      </trkpt>
      <trkpt lat="46.91704" lon="8.67625">
        <ele>2043</ele>
        <time>2021-08-07T08:15:20.710Z</time>
      </trkpt>
      <trkpt lat="46.91704" lon="8.67622">
        <ele>2043</ele>
        <time>2021-08-07T08:15:21.711Z</time>
      </trkpt>
      <trkpt lat="46.91705" lon="8.67621">
        <ele>2043</ele>
        <time>2021-08-07T08:15:22.711Z</time>
      </trkpt>
      <trkpt lat="46.91706" lon="8.6762">
        <ele>2043</ele>
        <time>2021-08-07T08:15:23.711Z</time>
      </trkpt>
      <trkpt lat="46.91707" lon="8.67618">
        <ele>2042</ele>
        <time>2021-08-07T08:15:24.710Z</time>
      </trkpt>
      <trkpt lat="46.91707" lon="8.67617">
        <ele>2042</ele>
        <time>2021-08-07T08:15:25.711Z</time>
      </trkpt>
      <trkpt lat="46.91708" lon="8.67615">
        <ele>2042</ele>
        <time>2021-08-07T08:15:26.711Z</time>
      </trkpt>
      <trkpt lat="46.91708" lon="8.67614">
        <ele>2042</ele>
        <time>2021-08-07T08:15:27.711Z</time>
      </trkpt>
      <trkpt lat="46.91709" lon="8.67613">
        <ele>2041</ele>
        <time>2021-08-07T08:15:28.710Z</time>
      </trkpt>
      <trkpt lat="46.91709" lon="8.67611">
        <ele>2041</ele>
        <time>2021-08-07T08:15:29.710Z</time>
      </trkpt>
      <trkpt lat="46.9171" lon="8.6761">
        <ele>2041</ele>
        <time>2021-08-07T08:15:30.710Z</time>
      </trkpt>
      <trkpt lat="46.9171" lon="8.67608">
        <ele>2040</ele>
        <time>2021-08-07T08:15:31.710Z</time>
      </trkpt>
      <trkpt lat="46.9171" lon="8.67607">
        <ele>2040</ele>
        <time>2021-08-07T08:15:32.711Z</time>
      </trkpt>
      <trkpt lat="46.9171" lon="8.67606">
        <ele>2039</ele>
        <time>2021-08-07T08:15:33.711Z</time>
      </trkpt>
      <trkpt lat="46.91711" lon="8.67604">
        <ele>2039</ele>
        <time>2021-08-07T08:15:34.711Z</time>
      </trkpt>
      <trkpt lat="46.91711" lon="8.67603">
        <ele>2039</ele>
        <time>2021-08-07T08:15:35.710Z</time>
      </trkpt>
      <trkpt lat="46.91711" lon="8.67603">
        <ele>2040</ele>
        <time>2021-08-07T08:15:36.710Z</time>
      </trkpt>
      <trkpt lat="46.91711" lon="8.67602">
        <ele>2041</ele>
        <time>2021-08-07T08:15:37.711Z</time>
      </trkpt>
      <trkpt lat="46.91711" lon="8.67601">
        <ele>2041</ele>
        <time>2021-08-07T08:15:38.711Z</time>
      </trkpt>
      <trkpt lat="46.91712" lon="8.676">
        <ele>2041</ele>
        <time>2021-08-07T08:15:39.710Z</time>
      </trkpt>
      <trkpt lat="46.91712" lon="8.67599">
        <ele>2041</ele>
        <time>2021-08-07T08:15:40.711Z</time>
      </trkpt>
      <trkpt lat="46.91713" lon="8.67598">
        <ele>2041</ele>
        <time>2021-08-07T08:15:41.710Z</time>
      </trkpt>
      <trkpt lat="46.91713" lon="8.67597">
        <ele>2041</ele>
        <time>2021-08-07T08:15:42.711Z</time>
      </trkpt>
      <trkpt lat="46.91713" lon="8.67597">
        <ele>2042</ele>
        <time>2021-08-07T08:15:43.711Z</time>
      </trkpt>
      <trkpt lat="46.91714" lon="8.67596">
        <ele>2042</ele>
        <time>2021-08-07T08:15:44.710Z</time>
      </trkpt>
      <trkpt lat="46.91715" lon="8.67595">
        <ele>2043</ele>
        <time>2021-08-07T08:15:45.710Z</time>
      </trkpt>
      <trkpt lat="46.91715" lon="8.67594">
        <ele>2043</ele>
        <time>2021-08-07T08:15:46.711Z</time>
      </trkpt>
      <trkpt lat="46.91716" lon="8.67593">
        <ele>2044</ele>
        <time>2021-08-07T08:15:47.711Z</time>
      </trkpt>
      <trkpt lat="46.91716" lon="8.67592">
        <ele>2044</ele>
        <time>2021-08-07T08:15:48.710Z</time>
      </trkpt>
      <trkpt lat="46.91716" lon="8.67591">
        <ele>2044</ele>
        <time>2021-08-07T08:15:49.710Z</time>
      </trkpt>
      <trkpt lat="46.91716" lon="8.6759">
        <ele>2044</ele>
        <time>2021-08-07T08:15:50.711Z</time>
      </trkpt>
      <trkpt lat="46.91716" lon="8.6759">
        <ele>2045</ele>
        <time>2021-08-07T08:15:51.710Z</time>
      </trkpt>
      <trkpt lat="46.91716" lon="8.67589">
        <ele>2045</ele>
        <time>2021-08-07T08:15:52.710Z</time>
      </trkpt>
      <trkpt lat="46.91716" lon="8.67588">
        <ele>2044</ele>
        <time>2021-08-07T08:15:53.710Z</time>
      </trkpt>
      <trkpt lat="46.91716" lon="8.67586">
        <ele>2044</ele>
        <time>2021-08-07T08:15:54.711Z</time>
      </trkpt>
      <trkpt lat="46.91715" lon="8.67585">
        <ele>2044</ele>
        <time>2021-08-07T08:15:55.710Z</time>
      </trkpt>
      <trkpt lat="46.91715" lon="8.67584">
        <ele>2043</ele>
        <time>2021-08-07T08:15:56.710Z</time>
      </trkpt>
      <trkpt lat="46.91715" lon="8.67582">
        <ele>2043</ele>
        <time>2021-08-07T08:15:57.710Z</time>
      </trkpt>
      <trkpt lat="46.91714" lon="8.67581">
        <ele>2043</ele>
        <time>2021-08-07T08:15:58.710Z</time>
      </trkpt>
      <trkpt lat="46.91714" lon="8.67579">
        <ele>2042</ele>
        <time>2021-08-07T08:15:59.710Z</time>
      </trkpt>
      <trkpt lat="46.91713" lon="8.67577">
        <ele>2042</ele>
        <time>2021-08-07T08:16:00.710Z</time>
      </trkpt>
      <trkpt lat="46.91713" lon="8.67576">
        <ele>2041</ele>
        <time>2021-08-07T08:16:01.711Z</time>
      </trkpt>
      <trkpt lat="46.91712" lon="8.67574">
        <ele>2041</ele>
        <time>2021-08-07T08:16:02.710Z</time>
      </trkpt>
      <trkpt lat="46.91712" lon="8.67572">
        <ele>2041</ele>
        <time>2021-08-07T08:16:03.710Z</time>
      </trkpt>
      <trkpt lat="46.91712" lon="8.67571">
        <ele>2040</ele>
        <time>2021-08-07T08:16:04.711Z</time>
      </trkpt>
      <trkpt lat="46.91713" lon="8.6757">
        <ele>2040</ele>
        <time>2021-08-07T08:16:05.710Z</time>
      </trkpt>
      <trkpt lat="46.91713" lon="8.67569">
        <ele>2040</ele>
        <time>2021-08-07T08:16:06.710Z</time>
      </trkpt>
      <trkpt lat="46.91714" lon="8.67567">
        <ele>2040</ele>
        <time>2021-08-07T08:16:07.711Z</time>
      </trkpt>
      <trkpt lat="46.91714" lon="8.67566">
        <ele>2040</ele>
        <time>2021-08-07T08:16:08.710Z</time>
      </trkpt>
      <trkpt lat="46.91714" lon="8.67564">
        <ele>2041</ele>
        <time>2021-08-07T08:16:09.710Z</time>
      </trkpt>
      <trkpt lat="46.91714" lon="8.67563">
        <ele>2041</ele>
        <time>2021-08-07T08:16:10.710Z</time>
      </trkpt>
      <trkpt lat="46.91714" lon="8.67562">
        <ele>2042</ele>
        <time>2021-08-07T08:16:11.711Z</time>
      </trkpt>
      <trkpt lat="46.91714" lon="8.6756">
        <ele>2042</ele>
        <time>2021-08-07T08:16:12.710Z</time>
      </trkpt>
      <trkpt lat="46.91714" lon="8.67559">
        <ele>2042</ele>
        <time>2021-08-07T08:16:13.710Z</time>
      </trkpt>
      <trkpt lat="46.91714" lon="8.67557">
        <ele>2043</ele>
        <time>2021-08-07T08:16:14.710Z</time>
      </trkpt>
      <trkpt lat="46.91715" lon="8.67556">
        <ele>2043</ele>
        <time>2021-08-07T08:16:15.710Z</time>
      </trkpt>
      <trkpt lat="46.91715" lon="8.67554">
        <ele>2043</ele>
        <time>2021-08-07T08:16:16.710Z</time>
      </trkpt>
      <trkpt lat="46.91716" lon="8.67553">
        <ele>2043</ele>
        <time>2021-08-07T08:16:17.710Z</time>
      </trkpt>
      <trkpt lat="46.91717" lon="8.67553">
        <ele>2043</ele>
        <time>2021-08-07T08:16:18.711Z</time>
      </trkpt>
      <trkpt lat="46.91718" lon="8.67552">
        <ele>2043</ele>
        <time>2021-08-07T08:16:19.710Z</time>
      </trkpt>
      <trkpt lat="46.91719" lon="8.67551">
        <ele>2043</ele>
        <time>2021-08-07T08:16:20.711Z</time>
      </trkpt>
      <trkpt lat="46.9172" lon="8.67551">
        <ele>2043</ele>
        <time>2021-08-07T08:16:21.710Z</time>
      </trkpt>
      <trkpt lat="46.91721" lon="8.6755">
        <ele>2044</ele>
        <time>2021-08-07T08:16:22.711Z</time>
      </trkpt>
      <trkpt lat="46.91722" lon="8.67549">
        <ele>2044</ele>
        <time>2021-08-07T08:16:23.711Z</time>
      </trkpt>
      <trkpt lat="46.91723" lon="8.67549">
        <ele>2044</ele>
        <time>2021-08-07T08:16:24.710Z</time>
      </trkpt>
      <trkpt lat="46.91723" lon="8.67548">
        <ele>2044</ele>
        <time>2021-08-07T08:16:25.711Z</time>
      </trkpt>
      <trkpt lat="46.91724" lon="8.67547">
        <ele>2044</ele>
        <time>2021-08-07T08:16:26.711Z</time>
      </trkpt>
      <trkpt lat="46.91724" lon="8.67547">
        <ele>2044</ele>
        <time>2021-08-07T08:16:27.711Z</time>
      </trkpt>
      <trkpt lat="46.91725" lon="8.67547">
        <ele>2044</ele>
        <time>2021-08-07T08:16:28.711Z</time>
      </trkpt>
      <trkpt lat="46.91725" lon="8.67546">
        <ele>2044</ele>
        <time>2021-08-07T08:16:29.711Z</time>
      </trkpt>
      <trkpt lat="46.91726" lon="8.67545">
        <ele>2043</ele>
        <time>2021-08-07T08:16:30.711Z</time>
      </trkpt>
      <trkpt lat="46.91726" lon="8.67545">
        <ele>2043</ele>
        <time>2021-08-07T08:16:31.710Z</time>
      </trkpt>
      <trkpt lat="46.91727" lon="8.67544">
        <ele>2043</ele>
        <time>2021-08-07T08:16:32.711Z</time>
      </trkpt>
      <trkpt lat="46.91727" lon="8.67544">
        <ele>2042</ele>
        <time>2021-08-07T08:16:33.711Z</time>
      </trkpt>
      <trkpt lat="46.91727" lon="8.67543">
        <ele>2042</ele>
        <time>2021-08-07T08:16:34.710Z</time>
      </trkpt>
      <trkpt lat="46.91727" lon="8.67542">
        <ele>2043</ele>
        <time>2021-08-07T08:16:35.711Z</time>
      </trkpt>
      <trkpt lat="46.91726" lon="8.67542">
        <ele>2043</ele>
        <time>2021-08-07T08:16:36.711Z</time>
      </trkpt>
      <trkpt lat="46.91728" lon="8.6754">
        <ele>2042</ele>
        <time>2021-08-07T08:16:37.711Z</time>
      </trkpt>
      <trkpt lat="46.91728" lon="8.67539">
        <ele>2041</ele>
        <time>2021-08-07T08:16:38.710Z</time>
      </trkpt>
      <trkpt lat="46.91728" lon="8.67538">
        <ele>2041</ele>
        <time>2021-08-07T08:16:39.710Z</time>
      </trkpt>
      <trkpt lat="46.91728" lon="8.67537">
        <ele>2041</ele>
        <time>2021-08-07T08:16:40.710Z</time>
      </trkpt>
      <trkpt lat="46.91728" lon="8.67536">
        <ele>2041</ele>
        <time>2021-08-07T08:16:41.711Z</time>
      </trkpt>
      <trkpt lat="46.91728" lon="8.67535">
        <ele>2040</ele>
        <time>2021-08-07T08:16:42.710Z</time>
      </trkpt>
      <trkpt lat="46.91728" lon="8.67534">
        <ele>2040</ele>
        <time>2021-08-07T08:16:43.711Z</time>
      </trkpt>
      <trkpt lat="46.91728" lon="8.67534">
        <ele>2040</ele>
        <time>2021-08-07T08:16:44.710Z</time>
      </trkpt>
      <trkpt lat="46.91729" lon="8.67534">
        <ele>2040</ele>
        <time>2021-08-07T08:16:45.711Z</time>
      </trkpt>
      <trkpt lat="46.91729" lon="8.67533">
        <ele>2041</ele>
        <time>2021-08-07T08:16:46.711Z</time>
      </trkpt>
      <trkpt lat="46.9173" lon="8.67532">
        <ele>2041</ele>
        <time>2021-08-07T08:16:47.711Z</time>
      </trkpt>
      <trkpt lat="46.9173" lon="8.67532">
        <ele>2041</ele>
        <time>2021-08-07T08:16:48.710Z</time>
      </trkpt>
      <trkpt lat="46.91731" lon="8.67532">
        <ele>2040</ele>
        <time>2021-08-07T08:16:49.711Z</time>
      </trkpt>
      <trkpt lat="46.91731" lon="8.67532">
        <ele>2040</ele>
        <time>2021-08-07T08:16:50.711Z</time>
      </trkpt>
      <trkpt lat="46.91732" lon="8.67532">
        <ele>2040</ele>
        <time>2021-08-07T08:16:51.710Z</time>
      </trkpt>
      <trkpt lat="46.91732" lon="8.67533">
        <ele>2040</ele>
        <time>2021-08-07T08:16:52.711Z</time>
      </trkpt>
      <trkpt lat="46.91733" lon="8.67533">
        <ele>2040</ele>
        <time>2021-08-07T08:16:53.711Z</time>
      </trkpt>
      <trkpt lat="46.91733" lon="8.67534">
        <ele>2039</ele>
        <time>2021-08-07T08:16:54.711Z</time>
      </trkpt>
      <trkpt lat="46.91734" lon="8.67534">
        <ele>2039</ele>
        <time>2021-08-07T08:16:55.710Z</time>
      </trkpt>
      <trkpt lat="46.91734" lon="8.67534">
        <ele>2038</ele>
        <time>2021-08-07T08:16:56.710Z</time>
      </trkpt>
      <trkpt lat="46.91735" lon="8.67534">
        <ele>2038</ele>
        <time>2021-08-07T08:16:57.710Z</time>
      </trkpt>
      <trkpt lat="46.91734" lon="8.67534">
        <ele>2037</ele>
        <time>2021-08-07T08:16:58.711Z</time>
      </trkpt>
      <trkpt lat="46.91735" lon="8.67534">
        <ele>2037</ele>
        <time>2021-08-07T08:16:59.711Z</time>
      </trkpt>
      <trkpt lat="46.91735" lon="8.67534">
        <ele>2037</ele>
        <time>2021-08-07T08:17:00.711Z</time>
      </trkpt>
      <trkpt lat="46.91735" lon="8.67534">
        <ele>2036</ele>
        <time>2021-08-07T08:17:01.711Z</time>
      </trkpt>
      <trkpt lat="46.91735" lon="8.67534">
        <ele>2036</ele>
        <time>2021-08-07T08:17:02.711Z</time>
      </trkpt>
      <trkpt lat="46.91735" lon="8.67535">
        <ele>2037</ele>
        <time>2021-08-07T08:17:03.712Z</time>
      </trkpt>
      <trkpt lat="46.91735" lon="8.67535">
        <ele>2038</ele>
        <time>2021-08-07T08:17:04.712Z</time>
      </trkpt>
      <trkpt lat="46.91734" lon="8.67535">
        <ele>2036</ele>
        <time>2021-08-07T08:17:05.713Z</time>
      </trkpt>
      <trkpt lat="46.91734" lon="8.67535">
        <ele>2036</ele>
        <time>2021-08-07T08:17:06.712Z</time>
      </trkpt>
      <trkpt lat="46.91733" lon="8.67532">
        <ele>2040</ele>
        <time>2021-08-07T08:17:07.713Z</time>
      </trkpt>
      <trkpt lat="46.91733" lon="8.67531">
        <ele>2040</ele>
        <time>2021-08-07T08:17:08.713Z</time>
      </trkpt>
      <trkpt lat="46.91732" lon="8.67531">
        <ele>2040</ele>
        <time>2021-08-07T08:17:09.712Z</time>
      </trkpt>
      <trkpt lat="46.91731" lon="8.67531">
        <ele>2040</ele>
        <time>2021-08-07T08:17:10.712Z</time>
      </trkpt>
      <trkpt lat="46.9173" lon="8.6753">
        <ele>2040</ele>
        <time>2021-08-07T08:17:11.712Z</time>
      </trkpt>
      <trkpt lat="46.91731" lon="8.67531">
        <ele>2040</ele>
        <time>2021-08-07T08:17:12.712Z</time>
      </trkpt>
      <trkpt lat="46.91731" lon="8.67532">
        <ele>2040</ele>
        <time>2021-08-07T08:17:13.712Z</time>
      </trkpt>
      <trkpt lat="46.91731" lon="8.67532">
        <ele>2039</ele>
        <time>2021-08-07T08:17:14.714Z</time>
      </trkpt>
      <trkpt lat="46.91731" lon="8.67531">
        <ele>2039</ele>
        <time>2021-08-07T08:17:15.713Z</time>
      </trkpt>
      <trkpt lat="46.91732" lon="8.67531">
        <ele>2039</ele>
        <time>2021-08-07T08:17:16.714Z</time>
      </trkpt>
      <trkpt lat="46.91732" lon="8.67531">
        <ele>2039</ele>
        <time>2021-08-07T08:17:17.714Z</time>
      </trkpt>
      <trkpt lat="46.91732" lon="8.67531">
        <ele>2039</ele>
        <time>2021-08-07T08:17:18.713Z</time>
      </trkpt>
      <trkpt lat="46.91732" lon="8.67531">
        <ele>2038</ele>
        <time>2021-08-07T08:17:19.714Z</time>
      </trkpt>
      <trkpt lat="46.91733" lon="8.67535">
        <ele>2036</ele>
        <time>2021-08-07T08:17:20.714Z</time>
      </trkpt>
      <trkpt lat="46.91733" lon="8.67535">
        <ele>2035</ele>
        <time>2021-08-07T08:17:21.715Z</time>
      </trkpt>
      <trkpt lat="46.91733" lon="8.67535">
        <ele>2035</ele>
        <time>2021-08-07T08:17:22.591Z</time>
      </trkpt>
      <trkpt lat="46.91734" lon="8.67537">
        <ele>2035</ele>
        <time>2021-08-07T08:17:23.591Z</time>
      </trkpt>
      <trkpt lat="46.91734" lon="8.67537">
        <ele>2034</ele>
        <time>2021-08-07T08:17:24.591Z</time>
      </trkpt>
      <trkpt lat="46.91734" lon="8.67536">
        <ele>2036</ele>
        <time>2021-08-07T08:17:25.592Z</time>
      </trkpt>
      <trkpt lat="46.91734" lon="8.67536">
        <ele>2036</ele>
        <time>2021-08-07T08:17:26.591Z</time>
      </trkpt>
      <trkpt lat="46.91733" lon="8.67534">
        <ele>2036</ele>
        <time>2021-08-07T08:17:27.592Z</time>
      </trkpt>
      <trkpt lat="46.91733" lon="8.67534">
        <ele>2036</ele>
        <time>2021-08-07T08:17:28.592Z</time>
      </trkpt>
      <trkpt lat="46.91732" lon="8.67534">
        <ele>2036</ele>
        <time>2021-08-07T08:17:29.591Z</time>
      </trkpt>
      <trkpt lat="46.91734" lon="8.67534">
        <ele>2033</ele>
        <time>2021-08-07T08:17:30.593Z</time>
      </trkpt>
      <trkpt lat="46.91734" lon="8.67534">
        <ele>2033</ele>
        <time>2021-08-07T08:17:31.593Z</time>
      </trkpt>
      <trkpt lat="46.91733" lon="8.67534">
        <ele>2033</ele>
        <time>2021-08-07T08:17:32.593Z</time>
      </trkpt>
      <trkpt lat="46.91734" lon="8.67535">
        <ele>2035</ele>
        <time>2021-08-07T08:17:33.594Z</time>
      </trkpt>
      <trkpt lat="46.91734" lon="8.67535">
        <ele>2035</ele>
        <time>2021-08-07T08:17:34.593Z</time>
      </trkpt>
      <trkpt lat="46.91734" lon="8.67535">
        <ele>2034</ele>
        <time>2021-08-07T08:17:35.593Z</time>
      </trkpt>
      <trkpt lat="46.91735" lon="8.67535">
        <ele>2036</ele>
        <time>2021-08-07T08:17:36.593Z</time>
      </trkpt>
      <trkpt lat="46.91735" lon="8.67535">
        <ele>2036</ele>
        <time>2021-08-07T08:17:37.593Z</time>
      </trkpt>
      <trkpt lat="46.91736" lon="8.67535">
        <ele>2038</ele>
        <time>2021-08-07T08:17:38.594Z</time>
      </trkpt>
      <trkpt lat="46.91736" lon="8.67535">
        <ele>2038</ele>
        <time>2021-08-07T08:17:39.594Z</time>
      </trkpt>
      <trkpt lat="46.91736" lon="8.67534">
        <ele>2038</ele>
        <time>2021-08-07T08:17:40.595Z</time>
      </trkpt>
      <trkpt lat="46.91736" lon="8.67534">
        <ele>2038</ele>
        <time>2021-08-07T08:17:41.594Z</time>
      </trkpt>
      <trkpt lat="46.91734" lon="8.67534">
        <ele>2037</ele>
        <time>2021-08-07T08:17:42.595Z</time>
      </trkpt>
      <trkpt lat="46.91738" lon="8.67532">
        <ele>2036</ele>
        <time>2021-08-07T08:17:43.597Z</time>
      </trkpt>
      <trkpt lat="46.91738" lon="8.6753">
        <ele>2035</ele>
        <time>2021-08-07T08:17:44.598Z</time>
      </trkpt>
      <trkpt lat="46.91738" lon="8.6753">
        <ele>2034</ele>
        <time>2021-08-07T08:17:45.598Z</time>
      </trkpt>
      <trkpt lat="46.91738" lon="8.67529">
        <ele>2034</ele>
        <time>2021-08-07T08:17:46.598Z</time>
      </trkpt>
      <trkpt lat="46.91737" lon="8.67529">
        <ele>2038</ele>
        <time>2021-08-07T08:17:47.598Z</time>
      </trkpt>
      <trkpt lat="46.91737" lon="8.67529">
        <ele>2038</ele>
        <time>2021-08-07T08:17:48.597Z</time>
      </trkpt>
      <trkpt lat="46.91737" lon="8.6753">
        <ele>2038</ele>
        <time>2021-08-07T08:17:49.598Z</time>
      </trkpt>
      <trkpt lat="46.91737" lon="8.6753">
        <ele>2038</ele>
        <time>2021-08-07T08:17:50.598Z</time>
      </trkpt>
      <trkpt lat="46.91737" lon="8.67531">
        <ele>2038</ele>
        <time>2021-08-07T08:17:51.598Z</time>
      </trkpt>
      <trkpt lat="46.91737" lon="8.67531">
        <ele>2037</ele>
        <time>2021-08-07T08:17:52.598Z</time>
      </trkpt>
      <trkpt lat="46.91737" lon="8.67531">
        <ele>2036</ele>
        <time>2021-08-07T08:17:53.598Z</time>
      </trkpt>
      <trkpt lat="46.91737" lon="8.67531">
        <ele>2036</ele>
        <time>2021-08-07T08:17:54.598Z</time>
      </trkpt>
      <trkpt lat="46.91735" lon="8.6753">
        <ele>2032</ele>
        <time>2021-08-07T08:17:55.599Z</time>
      </trkpt>
      <trkpt lat="46.91736" lon="8.6753">
        <ele>2032</ele>
        <time>2021-08-07T08:17:56.599Z</time>
      </trkpt>
      <trkpt lat="46.91736" lon="8.6753">
        <ele>2033</ele>
        <time>2021-08-07T08:17:57.598Z</time>
      </trkpt>
      <trkpt lat="46.91735" lon="8.6753">
        <ele>2034</ele>
        <time>2021-08-07T08:17:58.600Z</time>
      </trkpt>
      <trkpt lat="46.91735" lon="8.6753">
        <ele>2035</ele>
        <time>2021-08-07T08:17:59.600Z</time>
      </trkpt>
      <trkpt lat="46.91735" lon="8.6753">
        <ele>2035</ele>
        <time>2021-08-07T08:18:00.600Z</time>
      </trkpt>
      <trkpt lat="46.91735" lon="8.6753">
        <ele>2035</ele>
        <time>2021-08-07T08:18:01.600Z</time>
      </trkpt>
      <trkpt lat="46.91734" lon="8.6753">
        <ele>2036</ele>
        <time>2021-08-07T08:18:02.599Z</time>
      </trkpt>
      <trkpt lat="46.91734" lon="8.6753">
        <ele>2036</ele>
        <time>2021-08-07T08:18:03.600Z</time>
      </trkpt>
      <trkpt lat="46.91734" lon="8.6753">
        <ele>2036</ele>
        <time>2021-08-07T08:18:04.600Z</time>
      </trkpt>
      <trkpt lat="46.91734" lon="8.6753">
        <ele>2037</ele>
        <time>2021-08-07T08:18:05.600Z</time>
      </trkpt>
      <trkpt lat="46.91734" lon="8.6753">
        <ele>2037</ele>
        <time>2021-08-07T08:18:06.599Z</time>
      </trkpt>
      <trkpt lat="46.91734" lon="8.6753">
        <ele>2037</ele>
        <time>2021-08-07T08:18:07.599Z</time>
      </trkpt>
      <trkpt lat="46.91734" lon="8.67529">
        <ele>2037</ele>
        <time>2021-08-07T08:18:08.600Z</time>
      </trkpt>
      <trkpt lat="46.91733" lon="8.67527">
        <ele>2033</ele>
        <time>2021-08-07T08:18:09.601Z</time>
      </trkpt>
      <trkpt lat="46.91733" lon="8.67527">
        <ele>2033</ele>
        <time>2021-08-07T08:18:10.601Z</time>
      </trkpt>
      <trkpt lat="46.91734" lon="8.67527">
        <ele>2032</ele>
        <time>2021-08-07T08:18:11.601Z</time>
      </trkpt>
      <trkpt lat="46.91734" lon="8.67527">
        <ele>2032</ele>
        <time>2021-08-07T08:18:12.601Z</time>
      </trkpt>
      <trkpt lat="46.91734" lon="8.67527">
        <ele>2032</ele>
        <time>2021-08-07T08:18:13.601Z</time>
      </trkpt>
      <trkpt lat="46.91735" lon="8.67526">
        <ele>2031</ele>
        <time>2021-08-07T08:18:14.601Z</time>
      </trkpt>
      <trkpt lat="46.91735" lon="8.67525">
        <ele>2031</ele>
        <time>2021-08-07T08:18:15.601Z</time>
      </trkpt>
      <trkpt lat="46.91735" lon="8.67525">
        <ele>2031</ele>
        <time>2021-08-07T08:18:16.601Z</time>
      </trkpt>
      <trkpt lat="46.91734" lon="8.67524">
        <ele>2031</ele>
        <time>2021-08-07T08:18:17.600Z</time>
      </trkpt>
      <trkpt lat="46.91734" lon="8.67523">
        <ele>2031</ele>
        <time>2021-08-07T08:18:18.600Z</time>
      </trkpt>
      <trkpt lat="46.91735" lon="8.6752">
        <ele>2031</ele>
        <time>2021-08-07T08:18:19.601Z</time>
      </trkpt>
      <trkpt lat="46.91735" lon="8.67519">
        <ele>2031</ele>
        <time>2021-08-07T08:18:20.601Z</time>
      </trkpt>
      <trkpt lat="46.91735" lon="8.67519">
        <ele>2031</ele>
        <time>2021-08-07T08:18:21.601Z</time>
      </trkpt>
      <trkpt lat="46.91734" lon="8.67518">
        <ele>2032</ele>
        <time>2021-08-07T08:18:22.601Z</time>
      </trkpt>
      <trkpt lat="46.91735" lon="8.67517">
        <ele>2032</ele>
        <time>2021-08-07T08:18:23.601Z</time>
      </trkpt>
      <trkpt lat="46.91735" lon="8.67516">
        <ele>2032</ele>
        <time>2021-08-07T08:18:24.601Z</time>
      </trkpt>
      <trkpt lat="46.91735" lon="8.67515">
        <ele>2032</ele>
        <time>2021-08-07T08:18:25.601Z</time>
      </trkpt>
      <trkpt lat="46.91735" lon="8.67514">
        <ele>2032</ele>
        <time>2021-08-07T08:18:26.600Z</time>
      </trkpt>
      <trkpt lat="46.91735" lon="8.67514">
        <ele>2031</ele>
        <time>2021-08-07T08:18:27.601Z</time>
      </trkpt>
      <trkpt lat="46.91736" lon="8.67513">
        <ele>2031</ele>
        <time>2021-08-07T08:18:28.601Z</time>
      </trkpt>
      <trkpt lat="46.91736" lon="8.67512">
        <ele>2030</ele>
        <time>2021-08-07T08:18:29.601Z</time>
      </trkpt>
      <trkpt lat="46.91736" lon="8.67511">
        <ele>2030</ele>
        <time>2021-08-07T08:18:30.601Z</time>
      </trkpt>
      <trkpt lat="46.91735" lon="8.67511">
        <ele>2029</ele>
        <time>2021-08-07T08:18:31.601Z</time>
      </trkpt>
      <trkpt lat="46.91734" lon="8.67511">
        <ele>2029</ele>
        <time>2021-08-07T08:18:32.601Z</time>
      </trkpt>
      <trkpt lat="46.91734" lon="8.6751">
        <ele>2028</ele>
        <time>2021-08-07T08:18:33.600Z</time>
      </trkpt>
      <trkpt lat="46.91731" lon="8.6751">
        <ele>2024</ele>
        <time>2021-08-07T08:18:34.601Z</time>
      </trkpt>
      <trkpt lat="46.91731" lon="8.67511">
        <ele>2024</ele>
        <time>2021-08-07T08:18:35.601Z</time>
      </trkpt>
      <trkpt lat="46.91731" lon="8.6751">
        <ele>2024</ele>
        <time>2021-08-07T08:18:36.600Z</time>
      </trkpt>
      <trkpt lat="46.9173" lon="8.67511">
        <ele>2024</ele>
        <time>2021-08-07T08:18:37.600Z</time>
      </trkpt>
      <trkpt lat="46.9173" lon="8.67511">
        <ele>2024</ele>
        <time>2021-08-07T08:18:38.600Z</time>
      </trkpt>
      <trkpt lat="46.91731" lon="8.67509">
        <ele>2023</ele>
        <time>2021-08-07T08:18:39.601Z</time>
      </trkpt>
      <trkpt lat="46.91732" lon="8.67508">
        <ele>2023</ele>
        <time>2021-08-07T08:18:40.601Z</time>
      </trkpt>
      <trkpt lat="46.91733" lon="8.67507">
        <ele>2023</ele>
        <time>2021-08-07T08:18:41.601Z</time>
      </trkpt>
      <trkpt lat="46.91733" lon="8.67506">
        <ele>2022</ele>
        <time>2021-08-07T08:18:42.600Z</time>
      </trkpt>
      <trkpt lat="46.91734" lon="8.67505">
        <ele>2022</ele>
        <time>2021-08-07T08:18:43.600Z</time>
      </trkpt>
      <trkpt lat="46.91734" lon="8.67505">
        <ele>2021</ele>
        <time>2021-08-07T08:18:44.601Z</time>
      </trkpt>
      <trkpt lat="46.91734" lon="8.67506">
        <ele>2021</ele>
        <time>2021-08-07T08:18:45.601Z</time>
      </trkpt>
      <trkpt lat="46.91734" lon="8.67506">
        <ele>2021</ele>
        <time>2021-08-07T08:18:46.601Z</time>
      </trkpt>
      <trkpt lat="46.91734" lon="8.67506">
        <ele>2020</ele>
        <time>2021-08-07T08:18:47.601Z</time>
      </trkpt>
      <trkpt lat="46.91734" lon="8.67507">
        <ele>2020</ele>
        <time>2021-08-07T08:18:48.600Z</time>
      </trkpt>
      <trkpt lat="46.91734" lon="8.67507">
        <ele>2019</ele>
        <time>2021-08-07T08:18:49.601Z</time>
      </trkpt>
      <trkpt lat="46.91734" lon="8.67507">
        <ele>2019</ele>
        <time>2021-08-07T08:18:50.601Z</time>
      </trkpt>
      <trkpt lat="46.91734" lon="8.67507">
        <ele>2019</ele>
        <time>2021-08-07T08:18:51.601Z</time>
      </trkpt>
      <trkpt lat="46.91734" lon="8.67507">
        <ele>2020</ele>
        <time>2021-08-07T08:18:52.601Z</time>
      </trkpt>
      <trkpt lat="46.91734" lon="8.67507">
        <ele>2021</ele>
        <time>2021-08-07T08:18:53.600Z</time>
      </trkpt>
      <trkpt lat="46.91735" lon="8.67507">
        <ele>2022</ele>
        <time>2021-08-07T08:18:54.601Z</time>
      </trkpt>
      <trkpt lat="46.91735" lon="8.67507">
        <ele>2023</ele>
        <time>2021-08-07T08:18:55.600Z</time>
      </trkpt>
      <trkpt lat="46.91735" lon="8.67508">
        <ele>2024</ele>
        <time>2021-08-07T08:18:56.601Z</time>
      </trkpt>
      <trkpt lat="46.91735" lon="8.67508">
        <ele>2025</ele>
        <time>2021-08-07T08:18:57.600Z</time>
      </trkpt>
      <trkpt lat="46.91735" lon="8.67507">
        <ele>2026</ele>
        <time>2021-08-07T08:18:58.601Z</time>
      </trkpt>
      <trkpt lat="46.91736" lon="8.67507">
        <ele>2026</ele>
        <time>2021-08-07T08:18:59.601Z</time>
      </trkpt>
      <trkpt lat="46.91736" lon="8.67507">
        <ele>2027</ele>
        <time>2021-08-07T08:19:00.601Z</time>
      </trkpt>
      <trkpt lat="46.91736" lon="8.67506">
        <ele>2027</ele>
        <time>2021-08-07T08:19:01.601Z</time>
      </trkpt>
      <trkpt lat="46.91735" lon="8.67504">
        <ele>2028</ele>
        <time>2021-08-07T08:19:02.600Z</time>
      </trkpt>
      <trkpt lat="46.91734" lon="8.67503">
        <ele>2028</ele>
        <time>2021-08-07T08:19:03.600Z</time>
      </trkpt>
      <trkpt lat="46.91733" lon="8.67501">
        <ele>2028</ele>
        <time>2021-08-07T08:19:04.600Z</time>
      </trkpt>
      <trkpt lat="46.91732" lon="8.675">
        <ele>2029</ele>
        <time>2021-08-07T08:19:05.601Z</time>
      </trkpt>
      <trkpt lat="46.91732" lon="8.67499">
        <ele>2029</ele>
        <time>2021-08-07T08:19:06.601Z</time>
      </trkpt>
      <trkpt lat="46.91732" lon="8.67498">
        <ele>2029</ele>
        <time>2021-08-07T08:19:07.600Z</time>
      </trkpt>
      <trkpt lat="46.91732" lon="8.67497">
        <ele>2030</ele>
        <time>2021-08-07T08:19:08.601Z</time>
      </trkpt>
      <trkpt lat="46.91732" lon="8.67496">
        <ele>2030</ele>
        <time>2021-08-07T08:19:09.601Z</time>
      </trkpt>
      <trkpt lat="46.91731" lon="8.67495">
        <ele>2030</ele>
        <time>2021-08-07T08:19:10.600Z</time>
      </trkpt>
      <trkpt lat="46.91731" lon="8.67494">
        <ele>2030</ele>
        <time>2021-08-07T08:19:11.601Z</time>
      </trkpt>
      <trkpt lat="46.91731" lon="8.67493">
        <ele>2029</ele>
        <time>2021-08-07T08:19:12.600Z</time>
      </trkpt>
      <trkpt lat="46.91731" lon="8.67492">
        <ele>2029</ele>
        <time>2021-08-07T08:19:13.600Z</time>
      </trkpt>
      <trkpt lat="46.91731" lon="8.67491">
        <ele>2029</ele>
        <time>2021-08-07T08:19:14.601Z</time>
      </trkpt>
      <trkpt lat="46.91731" lon="8.67489">
        <ele>2029</ele>
        <time>2021-08-07T08:19:15.601Z</time>
      </trkpt>
      <trkpt lat="46.91731" lon="8.67488">
        <ele>2029</ele>
        <time>2021-08-07T08:19:16.600Z</time>
      </trkpt>
      <trkpt lat="46.91731" lon="8.67487">
        <ele>2028</ele>
        <time>2021-08-07T08:19:17.600Z</time>
      </trkpt>
      <trkpt lat="46.91731" lon="8.67485">
        <ele>2028</ele>
        <time>2021-08-07T08:19:18.601Z</time>
      </trkpt>
      <trkpt lat="46.9173" lon="8.67484">
        <ele>2028</ele>
        <time>2021-08-07T08:19:19.601Z</time>
      </trkpt>
      <trkpt lat="46.91731" lon="8.67483">
        <ele>2028</ele>
        <time>2021-08-07T08:19:20.600Z</time>
      </trkpt>
      <trkpt lat="46.91731" lon="8.67483">
        <ele>2027</ele>
        <time>2021-08-07T08:19:21.600Z</time>
      </trkpt>
      <trkpt lat="46.91731" lon="8.67481">
        <ele>2027</ele>
        <time>2021-08-07T08:19:22.601Z</time>
      </trkpt>
      <trkpt lat="46.91732" lon="8.67479">
        <ele>2027</ele>
        <time>2021-08-07T08:19:23.600Z</time>
      </trkpt>
      <trkpt lat="46.91732" lon="8.67478">
        <ele>2026</ele>
        <time>2021-08-07T08:19:24.600Z</time>
      </trkpt>
      <trkpt lat="46.91731" lon="8.67478">
        <ele>2026</ele>
        <time>2021-08-07T08:19:25.600Z</time>
      </trkpt>
      <trkpt lat="46.91731" lon="8.67477">
        <ele>2026</ele>
        <time>2021-08-07T08:19:26.600Z</time>
      </trkpt>
      <trkpt lat="46.91731" lon="8.67477">
        <ele>2026</ele>
        <time>2021-08-07T08:19:27.600Z</time>
      </trkpt>
      <trkpt lat="46.91731" lon="8.67476">
        <ele>2026</ele>
        <time>2021-08-07T08:19:28.600Z</time>
      </trkpt>
      <trkpt lat="46.91731" lon="8.67475">
        <ele>2026</ele>
        <time>2021-08-07T08:19:29.600Z</time>
      </trkpt>
      <trkpt lat="46.9173" lon="8.67474">
        <ele>2026</ele>
        <time>2021-08-07T08:19:30.600Z</time>
      </trkpt>
      <trkpt lat="46.9173" lon="8.67473">
        <ele>2026</ele>
        <time>2021-08-07T08:19:31.600Z</time>
      </trkpt>
      <trkpt lat="46.91729" lon="8.67473">
        <ele>2026</ele>
        <time>2021-08-07T08:19:32.600Z</time>
      </trkpt>
      <trkpt lat="46.91729" lon="8.67471">
        <ele>2026</ele>
        <time>2021-08-07T08:19:33.600Z</time>
      </trkpt>
      <trkpt lat="46.91729" lon="8.6747">
        <ele>2025</ele>
        <time>2021-08-07T08:19:34.600Z</time>
      </trkpt>
      <trkpt lat="46.9173" lon="8.67469">
        <ele>2025</ele>
        <time>2021-08-07T08:19:35.600Z</time>
      </trkpt>
      <trkpt lat="46.91729" lon="8.67468">
        <ele>2024</ele>
        <time>2021-08-07T08:19:36.600Z</time>
      </trkpt>
      <trkpt lat="46.91729" lon="8.67467">
        <ele>2023</ele>
        <time>2021-08-07T08:19:37.600Z</time>
      </trkpt>
      <trkpt lat="46.91729" lon="8.67466">
        <ele>2023</ele>
        <time>2021-08-07T08:19:38.600Z</time>
      </trkpt>
      <trkpt lat="46.91729" lon="8.67465">
        <ele>2022</ele>
        <time>2021-08-07T08:19:39.600Z</time>
      </trkpt>
      <trkpt lat="46.91729" lon="8.67464">
        <ele>2022</ele>
        <time>2021-08-07T08:19:40.600Z</time>
      </trkpt>
      <trkpt lat="46.91727" lon="8.67464">
        <ele>2021</ele>
        <time>2021-08-07T08:19:41.600Z</time>
      </trkpt>
      <trkpt lat="46.91726" lon="8.67464">
        <ele>2021</ele>
        <time>2021-08-07T08:19:42.601Z</time>
      </trkpt>
      <trkpt lat="46.91725" lon="8.67463">
        <ele>2021</ele>
        <time>2021-08-07T08:19:43.601Z</time>
      </trkpt>
      <trkpt lat="46.91725" lon="8.67462">
        <ele>2021</ele>
        <time>2021-08-07T08:19:44.601Z</time>
      </trkpt>
      <trkpt lat="46.91724" lon="8.67461">
        <ele>2021</ele>
        <time>2021-08-07T08:19:45.601Z</time>
      </trkpt>
      <trkpt lat="46.91724" lon="8.6746">
        <ele>2021</ele>
        <time>2021-08-07T08:19:46.600Z</time>
      </trkpt>
      <trkpt lat="46.91724" lon="8.67458">
        <ele>2020</ele>
        <time>2021-08-07T08:19:47.600Z</time>
      </trkpt>
      <trkpt lat="46.91723" lon="8.67457">
        <ele>2020</ele>
        <time>2021-08-07T08:19:48.601Z</time>
      </trkpt>
      <trkpt lat="46.91723" lon="8.67456">
        <ele>2020</ele>
        <time>2021-08-07T08:19:49.601Z</time>
      </trkpt>
      <trkpt lat="46.91722" lon="8.67455">
        <ele>2020</ele>
        <time>2021-08-07T08:19:50.601Z</time>
      </trkpt>
      <trkpt lat="46.91722" lon="8.67454">
        <ele>2020</ele>
        <time>2021-08-07T08:19:51.601Z</time>
      </trkpt>
      <trkpt lat="46.91721" lon="8.67453">
        <ele>2020</ele>
        <time>2021-08-07T08:19:52.601Z</time>
      </trkpt>
      <trkpt lat="46.91721" lon="8.67452">
        <ele>2020</ele>
        <time>2021-08-07T08:19:53.601Z</time>
      </trkpt>
      <trkpt lat="46.9172" lon="8.67451">
        <ele>2021</ele>
        <time>2021-08-07T08:19:54.600Z</time>
      </trkpt>
      <trkpt lat="46.9172" lon="8.6745">
        <ele>2021</ele>
        <time>2021-08-07T08:19:55.600Z</time>
      </trkpt>
      <trkpt lat="46.91719" lon="8.67448">
        <ele>2021</ele>
        <time>2021-08-07T08:19:56.601Z</time>
      </trkpt>
      <trkpt lat="46.91719" lon="8.67446">
        <ele>2021</ele>
        <time>2021-08-07T08:19:57.600Z</time>
      </trkpt>
      <trkpt lat="46.91719" lon="8.67444">
        <ele>2021</ele>
        <time>2021-08-07T08:19:58.601Z</time>
      </trkpt>
      <trkpt lat="46.91719" lon="8.67442">
        <ele>2020</ele>
        <time>2021-08-07T08:19:59.601Z</time>
      </trkpt>
      <trkpt lat="46.91719" lon="8.67441">
        <ele>2020</ele>
        <time>2021-08-07T08:20:00.600Z</time>
      </trkpt>
      <trkpt lat="46.91719" lon="8.6744">
        <ele>2019</ele>
        <time>2021-08-07T08:20:01.601Z</time>
      </trkpt>
      <trkpt lat="46.91719" lon="8.67439">
        <ele>2018</ele>
        <time>2021-08-07T08:20:02.601Z</time>
      </trkpt>
      <trkpt lat="46.91719" lon="8.67437">
        <ele>2017</ele>
        <time>2021-08-07T08:20:03.601Z</time>
      </trkpt>
      <trkpt lat="46.91719" lon="8.67436">
        <ele>2017</ele>
        <time>2021-08-07T08:20:04.601Z</time>
      </trkpt>
      <trkpt lat="46.91718" lon="8.67434">
        <ele>2016</ele>
        <time>2021-08-07T08:20:05.600Z</time>
      </trkpt>
      <trkpt lat="46.91718" lon="8.67433">
        <ele>2016</ele>
        <time>2021-08-07T08:20:06.601Z</time>
      </trkpt>
      <trkpt lat="46.91718" lon="8.67432">
        <ele>2016</ele>
        <time>2021-08-07T08:20:07.601Z</time>
      </trkpt>
      <trkpt lat="46.91718" lon="8.67431">
        <ele>2016</ele>
        <time>2021-08-07T08:20:08.600Z</time>
      </trkpt>
      <trkpt lat="46.91718" lon="8.67429">
        <ele>2017</ele>
        <time>2021-08-07T08:20:09.600Z</time>
      </trkpt>
      <trkpt lat="46.91718" lon="8.67428">
        <ele>2017</ele>
        <time>2021-08-07T08:20:10.601Z</time>
      </trkpt>
      <trkpt lat="46.91718" lon="8.67427">
        <ele>2018</ele>
        <time>2021-08-07T08:20:11.601Z</time>
      </trkpt>
      <trkpt lat="46.91719" lon="8.67426">
        <ele>2018</ele>
        <time>2021-08-07T08:20:12.601Z</time>
      </trkpt>
      <trkpt lat="46.91719" lon="8.67424">
        <ele>2019</ele>
        <time>2021-08-07T08:20:13.601Z</time>
      </trkpt>
      <trkpt lat="46.91719" lon="8.67423">
        <ele>2019</ele>
        <time>2021-08-07T08:20:14.600Z</time>
      </trkpt>
      <trkpt lat="46.91719" lon="8.67422">
        <ele>2019</ele>
        <time>2021-08-07T08:20:15.601Z</time>
      </trkpt>
      <trkpt lat="46.91719" lon="8.67421">
        <ele>2019</ele>
        <time>2021-08-07T08:20:16.601Z</time>
      </trkpt>
      <trkpt lat="46.91719" lon="8.6742">
        <ele>2019</ele>
        <time>2021-08-07T08:20:17.601Z</time>
      </trkpt>
      <trkpt lat="46.91719" lon="8.67419">
        <ele>2019</ele>
        <time>2021-08-07T08:20:18.601Z</time>
      </trkpt>
      <trkpt lat="46.91719" lon="8.67419">
        <ele>2019</ele>
        <time>2021-08-07T08:20:19.600Z</time>
      </trkpt>
      <trkpt lat="46.91719" lon="8.67419">
        <ele>2019</ele>
        <time>2021-08-07T08:20:20.601Z</time>
      </trkpt>
      <trkpt lat="46.91715" lon="8.67413">
        <ele>2017</ele>
        <time>2021-08-07T08:20:21.601Z</time>
      </trkpt>
      <trkpt lat="46.91715" lon="8.67413">
        <ele>2017</ele>
        <time>2021-08-07T08:20:22.601Z</time>
      </trkpt>
      <trkpt lat="46.91715" lon="8.67414">
        <ele>2017</ele>
        <time>2021-08-07T08:20:23.600Z</time>
      </trkpt>
      <trkpt lat="46.91715" lon="8.67412">
        <ele>2015</ele>
        <time>2021-08-07T08:20:24.600Z</time>
      </trkpt>
      <trkpt lat="46.91715" lon="8.67411">
        <ele>2014</ele>
        <time>2021-08-07T08:20:25.600Z</time>
      </trkpt>
      <trkpt lat="46.91715" lon="8.67411">
        <ele>2015</ele>
        <time>2021-08-07T08:20:26.600Z</time>
      </trkpt>
      <trkpt lat="46.91714" lon="8.6741">
        <ele>2015</ele>
        <time>2021-08-07T08:20:27.600Z</time>
      </trkpt>
      <trkpt lat="46.91714" lon="8.67409">
        <ele>2015</ele>
        <time>2021-08-07T08:20:28.601Z</time>
      </trkpt>
      <trkpt lat="46.91713" lon="8.67409">
        <ele>2015</ele>
        <time>2021-08-07T08:20:29.600Z</time>
      </trkpt>
      <trkpt lat="46.91712" lon="8.67408">
        <ele>2015</ele>
        <time>2021-08-07T08:20:30.601Z</time>
      </trkpt>
      <trkpt lat="46.91712" lon="8.67407">
        <ele>2014</ele>
        <time>2021-08-07T08:20:31.601Z</time>
      </trkpt>
      <trkpt lat="46.91712" lon="8.67406">
        <ele>2014</ele>
        <time>2021-08-07T08:20:32.601Z</time>
      </trkpt>
      <trkpt lat="46.91712" lon="8.67406">
        <ele>2014</ele>
        <time>2021-08-07T08:20:33.600Z</time>
      </trkpt>
      <trkpt lat="46.91712" lon="8.67405">
        <ele>2014</ele>
        <time>2021-08-07T08:20:34.601Z</time>
      </trkpt>
      <trkpt lat="46.91711" lon="8.67404">
        <ele>2015</ele>
        <time>2021-08-07T08:20:35.601Z</time>
      </trkpt>
      <trkpt lat="46.91711" lon="8.67405">
        <ele>2015</ele>
        <time>2021-08-07T08:20:36.601Z</time>
      </trkpt>
      <trkpt lat="46.91711" lon="8.67405">
        <ele>2015</ele>
        <time>2021-08-07T08:20:37.601Z</time>
      </trkpt>
      <trkpt lat="46.9171" lon="8.67405">
        <ele>2015</ele>
        <time>2021-08-07T08:20:38.600Z</time>
      </trkpt>
      <trkpt lat="46.9171" lon="8.67405">
        <ele>2014</ele>
        <time>2021-08-07T08:20:39.601Z</time>
      </trkpt>
      <trkpt lat="46.9171" lon="8.67405">
        <ele>2014</ele>
        <time>2021-08-07T08:20:40.600Z</time>
      </trkpt>
      <trkpt lat="46.9171" lon="8.67405">
        <ele>2014</ele>
        <time>2021-08-07T08:20:41.601Z</time>
      </trkpt>
      <trkpt lat="46.9171" lon="8.67404">
        <ele>2014</ele>
        <time>2021-08-07T08:20:42.600Z</time>
      </trkpt>
      <trkpt lat="46.9171" lon="8.67403">
        <ele>2015</ele>
        <time>2021-08-07T08:20:43.600Z</time>
      </trkpt>
      <trkpt lat="46.91709" lon="8.67402">
        <ele>2015</ele>
        <time>2021-08-07T08:20:44.601Z</time>
      </trkpt>
      <trkpt lat="46.91709" lon="8.67401">
        <ele>2015</ele>
        <time>2021-08-07T08:20:45.601Z</time>
      </trkpt>
      <trkpt lat="46.91709" lon="8.674">
        <ele>2015</ele>
        <time>2021-08-07T08:20:46.601Z</time>
      </trkpt>
      <trkpt lat="46.91709" lon="8.67399">
        <ele>2015</ele>
        <time>2021-08-07T08:20:47.601Z</time>
      </trkpt>
      <trkpt lat="46.91708" lon="8.67398">
        <ele>2015</ele>
        <time>2021-08-07T08:20:48.601Z</time>
      </trkpt>
      <trkpt lat="46.91707" lon="8.67397">
        <ele>2015</ele>
        <time>2021-08-07T08:20:49.600Z</time>
      </trkpt>
      <trkpt lat="46.91706" lon="8.67396">
        <ele>2015</ele>
        <time>2021-08-07T08:20:50.601Z</time>
      </trkpt>
      <trkpt lat="46.91706" lon="8.67396">
        <ele>2015</ele>
        <time>2021-08-07T08:20:51.600Z</time>
      </trkpt>
      <trkpt lat="46.91705" lon="8.67395">
        <ele>2015</ele>
        <time>2021-08-07T08:20:52.601Z</time>
      </trkpt>
      <trkpt lat="46.91704" lon="8.67394">
        <ele>2015</ele>
        <time>2021-08-07T08:20:53.600Z</time>
      </trkpt>
      <trkpt lat="46.91704" lon="8.67393">
        <ele>2015</ele>
        <time>2021-08-07T08:20:54.601Z</time>
      </trkpt>
      <trkpt lat="46.91703" lon="8.67392">
        <ele>2015</ele>
        <time>2021-08-07T08:20:55.601Z</time>
      </trkpt>
      <trkpt lat="46.91702" lon="8.67392">
        <ele>2016</ele>
        <time>2021-08-07T08:20:56.600Z</time>
      </trkpt>
      <trkpt lat="46.91701" lon="8.67391">
        <ele>2016</ele>
        <time>2021-08-07T08:20:57.601Z</time>
      </trkpt>
      <trkpt lat="46.917" lon="8.6739">
        <ele>2016</ele>
        <time>2021-08-07T08:20:58.601Z</time>
      </trkpt>
      <trkpt lat="46.91699" lon="8.6739">
        <ele>2016</ele>
        <time>2021-08-07T08:20:59.601Z</time>
      </trkpt>
      <trkpt lat="46.91698" lon="8.67389">
        <ele>2016</ele>
        <time>2021-08-07T08:21:00.600Z</time>
      </trkpt>
      <trkpt lat="46.91697" lon="8.67389">
        <ele>2016</ele>
        <time>2021-08-07T08:21:01.601Z</time>
      </trkpt>
      <trkpt lat="46.91697" lon="8.67389">
        <ele>2016</ele>
        <time>2021-08-07T08:21:02.600Z</time>
      </trkpt>
      <trkpt lat="46.91697" lon="8.67389">
        <ele>2015</ele>
        <time>2021-08-07T08:21:03.601Z</time>
      </trkpt>
      <trkpt lat="46.91697" lon="8.67389">
        <ele>2015</ele>
        <time>2021-08-07T08:21:04.601Z</time>
      </trkpt>
      <trkpt lat="46.91696" lon="8.67388">
        <ele>2014</ele>
        <time>2021-08-07T08:21:05.603Z</time>
      </trkpt>
      <trkpt lat="46.91696" lon="8.67387">
        <ele>2014</ele>
        <time>2021-08-07T08:21:06.603Z</time>
      </trkpt>
      <trkpt lat="46.91695" lon="8.67386">
        <ele>2014</ele>
        <time>2021-08-07T08:21:07.602Z</time>
      </trkpt>
      <trkpt lat="46.91694" lon="8.67386">
        <ele>2013</ele>
        <time>2021-08-07T08:21:08.603Z</time>
      </trkpt>
      <trkpt lat="46.91693" lon="8.67386">
        <ele>2014</ele>
        <time>2021-08-07T08:21:09.602Z</time>
      </trkpt>
      <trkpt lat="46.91692" lon="8.67386">
        <ele>2014</ele>
        <time>2021-08-07T08:21:10.603Z</time>
      </trkpt>
      <trkpt lat="46.91691" lon="8.67387">
        <ele>2014</ele>
        <time>2021-08-07T08:21:11.603Z</time>
      </trkpt>
      <trkpt lat="46.91691" lon="8.67387">
        <ele>2014</ele>
        <time>2021-08-07T08:21:12.603Z</time>
      </trkpt>
      <trkpt lat="46.9169" lon="8.67387">
        <ele>2014</ele>
        <time>2021-08-07T08:21:13.602Z</time>
      </trkpt>
      <trkpt lat="46.9169" lon="8.67387">
        <ele>2014</ele>
        <time>2021-08-07T08:21:14.603Z</time>
      </trkpt>
      <trkpt lat="46.91689" lon="8.67387">
        <ele>2013</ele>
        <time>2021-08-07T08:21:15.603Z</time>
      </trkpt>
      <trkpt lat="46.91688" lon="8.67388">
        <ele>2013</ele>
        <time>2021-08-07T08:21:16.603Z</time>
      </trkpt>
      <trkpt lat="46.91688" lon="8.67389">
        <ele>2013</ele>
        <time>2021-08-07T08:21:17.603Z</time>
      </trkpt>
      <trkpt lat="46.91688" lon="8.67389">
        <ele>2013</ele>
        <time>2021-08-07T08:21:18.603Z</time>
      </trkpt>
      <trkpt lat="46.91687" lon="8.6739">
        <ele>2013</ele>
        <time>2021-08-07T08:21:19.603Z</time>
      </trkpt>
      <trkpt lat="46.91687" lon="8.6739">
        <ele>2013</ele>
        <time>2021-08-07T08:21:20.603Z</time>
      </trkpt>
      <trkpt lat="46.91687" lon="8.67391">
        <ele>2012</ele>
        <time>2021-08-07T08:21:21.603Z</time>
      </trkpt>
      <trkpt lat="46.91686" lon="8.67391">
        <ele>2012</ele>
        <time>2021-08-07T08:21:22.603Z</time>
      </trkpt>
      <trkpt lat="46.91686" lon="8.67391">
        <ele>2012</ele>
        <time>2021-08-07T08:21:23.602Z</time>
      </trkpt>
      <trkpt lat="46.91686" lon="8.67391">
        <ele>2012</ele>
        <time>2021-08-07T08:21:24.603Z</time>
      </trkpt>
      <trkpt lat="46.91685" lon="8.67391">
        <ele>2012</ele>
        <time>2021-08-07T08:21:25.603Z</time>
      </trkpt>
      <trkpt lat="46.91685" lon="8.67391">
        <ele>2012</ele>
        <time>2021-08-07T08:21:26.603Z</time>
      </trkpt>
      <trkpt lat="46.91684" lon="8.67391">
        <ele>2012</ele>
        <time>2021-08-07T08:21:27.602Z</time>
      </trkpt>
      <trkpt lat="46.91683" lon="8.67391">
        <ele>2012</ele>
        <time>2021-08-07T08:21:28.602Z</time>
      </trkpt>
      <trkpt lat="46.91683" lon="8.67391">
        <ele>2012</ele>
        <time>2021-08-07T08:21:29.602Z</time>
      </trkpt>
      <trkpt lat="46.91683" lon="8.67392">
        <ele>2012</ele>
        <time>2021-08-07T08:21:30.603Z</time>
      </trkpt>
      <trkpt lat="46.91683" lon="8.67392">
        <ele>2012</ele>
        <time>2021-08-07T08:21:31.603Z</time>
      </trkpt>
      <trkpt lat="46.91683" lon="8.67392">
        <ele>2012</ele>
        <time>2021-08-07T08:21:32.603Z</time>
      </trkpt>
      <trkpt lat="46.91682" lon="8.67393">
        <ele>2011</ele>
        <time>2021-08-07T08:21:33.602Z</time>
      </trkpt>
      <trkpt lat="46.91682" lon="8.67393">
        <ele>2011</ele>
        <time>2021-08-07T08:21:34.603Z</time>
      </trkpt>
      <trkpt lat="46.91681" lon="8.67394">
        <ele>2011</ele>
        <time>2021-08-07T08:21:35.603Z</time>
      </trkpt>
      <trkpt lat="46.9168" lon="8.67394">
        <ele>2011</ele>
        <time>2021-08-07T08:21:36.603Z</time>
      </trkpt>
      <trkpt lat="46.91679" lon="8.67394">
        <ele>2011</ele>
        <time>2021-08-07T08:21:37.602Z</time>
      </trkpt>
      <trkpt lat="46.91678" lon="8.67393">
        <ele>2011</ele>
        <time>2021-08-07T08:21:38.603Z</time>
      </trkpt>
      <trkpt lat="46.91677" lon="8.67393">
        <ele>2011</ele>
        <time>2021-08-07T08:21:39.603Z</time>
      </trkpt>
      <trkpt lat="46.91677" lon="8.67393">
        <ele>2011</ele>
        <time>2021-08-07T08:21:40.603Z</time>
      </trkpt>
      <trkpt lat="46.91676" lon="8.67394">
        <ele>2011</ele>
        <time>2021-08-07T08:21:41.603Z</time>
      </trkpt>
      <trkpt lat="46.91676" lon="8.67395">
        <ele>2011</ele>
        <time>2021-08-07T08:21:42.603Z</time>
      </trkpt>
      <trkpt lat="46.91676" lon="8.67396">
        <ele>2010</ele>
        <time>2021-08-07T08:21:43.602Z</time>
      </trkpt>
      <trkpt lat="46.91676" lon="8.67398">
        <ele>2010</ele>
        <time>2021-08-07T08:21:44.603Z</time>
      </trkpt>
      <trkpt lat="46.91677" lon="8.67399">
        <ele>2010</ele>
        <time>2021-08-07T08:21:45.603Z</time>
      </trkpt>
      <trkpt lat="46.91677" lon="8.674">
        <ele>2010</ele>
        <time>2021-08-07T08:21:46.603Z</time>
      </trkpt>
      <trkpt lat="46.91678" lon="8.67401">
        <ele>2010</ele>
        <time>2021-08-07T08:21:47.603Z</time>
      </trkpt>
      <trkpt lat="46.91678" lon="8.67401">
        <ele>2010</ele>
        <time>2021-08-07T08:21:48.603Z</time>
      </trkpt>
      <trkpt lat="46.91678" lon="8.67401">
        <ele>2010</ele>
        <time>2021-08-07T08:21:49.602Z</time>
      </trkpt>
      <trkpt lat="46.91678" lon="8.67402">
        <ele>2011</ele>
        <time>2021-08-07T08:21:50.603Z</time>
      </trkpt>
      <trkpt lat="46.91677" lon="8.67402">
        <ele>2011</ele>
        <time>2021-08-07T08:21:51.603Z</time>
      </trkpt>
      <trkpt lat="46.91677" lon="8.67403">
        <ele>2011</ele>
        <time>2021-08-07T08:21:52.603Z</time>
      </trkpt>
      <trkpt lat="46.91676" lon="8.67403">
        <ele>2011</ele>
        <time>2021-08-07T08:21:53.602Z</time>
      </trkpt>
      <trkpt lat="46.91676" lon="8.67403">
        <ele>2011</ele>
        <time>2021-08-07T08:21:54.603Z</time>
      </trkpt>
      <trkpt lat="46.91676" lon="8.67404">
        <ele>2011</ele>
        <time>2021-08-07T08:21:55.603Z</time>
      </trkpt>
      <trkpt lat="46.91676" lon="8.67405">
        <ele>2010</ele>
        <time>2021-08-07T08:21:56.603Z</time>
      </trkpt>
      <trkpt lat="46.91675" lon="8.67405">
        <ele>2010</ele>
        <time>2021-08-07T08:21:57.602Z</time>
      </trkpt>
      <trkpt lat="46.91675" lon="8.67405">
        <ele>2010</ele>
        <time>2021-08-07T08:21:58.603Z</time>
      </trkpt>
      <trkpt lat="46.91675" lon="8.67406">
        <ele>2009</ele>
        <time>2021-08-07T08:21:59.603Z</time>
      </trkpt>
      <trkpt lat="46.91674" lon="8.67406">
        <ele>2009</ele>
        <time>2021-08-07T08:22:00.603Z</time>
      </trkpt>
      <trkpt lat="46.91675" lon="8.67406">
        <ele>2009</ele>
        <time>2021-08-07T08:22:01.603Z</time>
      </trkpt>
      <trkpt lat="46.91675" lon="8.67406">
        <ele>2009</ele>
        <time>2021-08-07T08:22:02.603Z</time>
      </trkpt>
      <trkpt lat="46.91674" lon="8.67406">
        <ele>2009</ele>
        <time>2021-08-07T08:22:03.603Z</time>
      </trkpt>
      <trkpt lat="46.91674" lon="8.67407">
        <ele>2009</ele>
        <time>2021-08-07T08:22:04.604Z</time>
      </trkpt>
      <trkpt lat="46.91673" lon="8.67407">
        <ele>2009</ele>
        <time>2021-08-07T08:22:05.603Z</time>
      </trkpt>
      <trkpt lat="46.91672" lon="8.67407">
        <ele>2008</ele>
        <time>2021-08-07T08:22:06.604Z</time>
      </trkpt>
      <trkpt lat="46.91672" lon="8.67407">
        <ele>2008</ele>
        <time>2021-08-07T08:22:07.603Z</time>
      </trkpt>
      <trkpt lat="46.91671" lon="8.67407">
        <ele>2008</ele>
        <time>2021-08-07T08:22:08.604Z</time>
      </trkpt>
      <trkpt lat="46.91671" lon="8.67407">
        <ele>2009</ele>
        <time>2021-08-07T08:22:09.604Z</time>
      </trkpt>
      <trkpt lat="46.9167" lon="8.67407">
        <ele>2009</ele>
        <time>2021-08-07T08:22:10.604Z</time>
      </trkpt>
      <trkpt lat="46.9167" lon="8.67407">
        <ele>2009</ele>
        <time>2021-08-07T08:22:11.603Z</time>
      </trkpt>
      <trkpt lat="46.9167" lon="8.67407">
        <ele>2009</ele>
        <time>2021-08-07T08:22:12.603Z</time>
      </trkpt>
      <trkpt lat="46.91669" lon="8.67407">
        <ele>2009</ele>
        <time>2021-08-07T08:22:13.604Z</time>
      </trkpt>
      <trkpt lat="46.91669" lon="8.67407">
        <ele>2009</ele>
        <time>2021-08-07T08:22:14.604Z</time>
      </trkpt>
      <trkpt lat="46.91668" lon="8.67406">
        <ele>2009</ele>
        <time>2021-08-07T08:22:15.604Z</time>
      </trkpt>
      <trkpt lat="46.91668" lon="8.67406">
        <ele>2009</ele>
        <time>2021-08-07T08:22:16.604Z</time>
      </trkpt>
      <trkpt lat="46.91667" lon="8.67405">
        <ele>2008</ele>
        <time>2021-08-07T08:22:17.603Z</time>
      </trkpt>
      <trkpt lat="46.91667" lon="8.67405">
        <ele>2007</ele>
        <time>2021-08-07T08:22:18.603Z</time>
      </trkpt>
      <trkpt lat="46.91667" lon="8.67405">
        <ele>2006</ele>
        <time>2021-08-07T08:22:19.603Z</time>
      </trkpt>
      <trkpt lat="46.91666" lon="8.67404">
        <ele>2005</ele>
        <time>2021-08-07T08:22:20.603Z</time>
      </trkpt>
      <trkpt lat="46.91666" lon="8.67404">
        <ele>2005</ele>
        <time>2021-08-07T08:22:21.604Z</time>
      </trkpt>
      <trkpt lat="46.91666" lon="8.67404">
        <ele>2004</ele>
        <time>2021-08-07T08:22:22.603Z</time>
      </trkpt>
      <trkpt lat="46.91667" lon="8.67402">
        <ele>1998</ele>
        <time>2021-08-07T08:22:23.604Z</time>
      </trkpt>
      <trkpt lat="46.91667" lon="8.67401">
        <ele>1998</ele>
        <time>2021-08-07T08:22:24.604Z</time>
      </trkpt>
      <trkpt lat="46.91668" lon="8.674">
        <ele>1998</ele>
        <time>2021-08-07T08:22:25.604Z</time>
      </trkpt>
      <trkpt lat="46.91668" lon="8.67399">
        <ele>1998</ele>
        <time>2021-08-07T08:22:26.604Z</time>
      </trkpt>
      <trkpt lat="46.91668" lon="8.67398">
        <ele>1999</ele>
        <time>2021-08-07T08:22:27.604Z</time>
      </trkpt>
      <trkpt lat="46.91668" lon="8.67398">
        <ele>1999</ele>
        <time>2021-08-07T08:22:28.604Z</time>
      </trkpt>
      <trkpt lat="46.91668" lon="8.67397">
        <ele>1999</ele>
        <time>2021-08-07T08:22:29.605Z</time>
      </trkpt>
      <trkpt lat="46.91668" lon="8.67396">
        <ele>1999</ele>
        <time>2021-08-07T08:22:30.605Z</time>
      </trkpt>
      <trkpt lat="46.91668" lon="8.67396">
        <ele>1999</ele>
        <time>2021-08-07T08:22:31.604Z</time>
      </trkpt>
      <trkpt lat="46.91668" lon="8.67396">
        <ele>1999</ele>
        <time>2021-08-07T08:22:32.605Z</time>
      </trkpt>
      <trkpt lat="46.91668" lon="8.67396">
        <ele>2000</ele>
        <time>2021-08-07T08:22:33.604Z</time>
      </trkpt>
      <trkpt lat="46.91666" lon="8.67396">
        <ele>2003</ele>
        <time>2021-08-07T08:22:34.605Z</time>
      </trkpt>
      <trkpt lat="46.91666" lon="8.67396">
        <ele>2003</ele>
        <time>2021-08-07T08:22:35.604Z</time>
      </trkpt>
      <trkpt lat="46.91665" lon="8.67397">
        <ele>2003</ele>
        <time>2021-08-07T08:22:36.604Z</time>
      </trkpt>
      <trkpt lat="46.91665" lon="8.67398">
        <ele>2003</ele>
        <time>2021-08-07T08:22:37.605Z</time>
      </trkpt>
      <trkpt lat="46.91665" lon="8.67398">
        <ele>2003</ele>
        <time>2021-08-07T08:22:38.605Z</time>
      </trkpt>
      <trkpt lat="46.91665" lon="8.67399">
        <ele>2003</ele>
        <time>2021-08-07T08:22:39.604Z</time>
      </trkpt>
      <trkpt lat="46.91664" lon="8.674">
        <ele>2004</ele>
        <time>2021-08-07T08:22:40.604Z</time>
      </trkpt>
      <trkpt lat="46.91664" lon="8.674">
        <ele>2003</ele>
        <time>2021-08-07T08:22:41.605Z</time>
      </trkpt>
      <trkpt lat="46.91664" lon="8.674">
        <ele>2003</ele>
        <time>2021-08-07T08:22:42.606Z</time>
      </trkpt>
      <trkpt lat="46.91664" lon="8.67401">
        <ele>2003</ele>
        <time>2021-08-07T08:22:43.606Z</time>
      </trkpt>
      <trkpt lat="46.91663" lon="8.67401">
        <ele>2003</ele>
        <time>2021-08-07T08:22:44.605Z</time>
      </trkpt>
      <trkpt lat="46.91663" lon="8.67401">
        <ele>2002</ele>
        <time>2021-08-07T08:22:45.606Z</time>
      </trkpt>
      <trkpt lat="46.91662" lon="8.67401">
        <ele>2002</ele>
        <time>2021-08-07T08:22:46.606Z</time>
      </trkpt>
      <trkpt lat="46.91661" lon="8.67402">
        <ele>2002</ele>
        <time>2021-08-07T08:22:47.606Z</time>
      </trkpt>
      <trkpt lat="46.9166" lon="8.67402">
        <ele>2002</ele>
        <time>2021-08-07T08:22:48.606Z</time>
      </trkpt>
      <trkpt lat="46.9166" lon="8.67403">
        <ele>2002</ele>
        <time>2021-08-07T08:22:49.606Z</time>
      </trkpt>
      <trkpt lat="46.91659" lon="8.67404">
        <ele>2002</ele>
        <time>2021-08-07T08:22:50.606Z</time>
      </trkpt>
      <trkpt lat="46.91659" lon="8.67406">
        <ele>2001</ele>
        <time>2021-08-07T08:22:51.606Z</time>
      </trkpt>
      <trkpt lat="46.91659" lon="8.67407">
        <ele>2001</ele>
        <time>2021-08-07T08:22:52.606Z</time>
      </trkpt>
      <trkpt lat="46.91659" lon="8.67407">
        <ele>2001</ele>
        <time>2021-08-07T08:22:53.606Z</time>
      </trkpt>
      <trkpt lat="46.91659" lon="8.67408">
        <ele>2001</ele>
        <time>2021-08-07T08:22:54.606Z</time>
      </trkpt>
      <trkpt lat="46.91659" lon="8.67409">
        <ele>2001</ele>
        <time>2021-08-07T08:22:55.606Z</time>
      </trkpt>
      <trkpt lat="46.91659" lon="8.67409">
        <ele>2001</ele>
        <time>2021-08-07T08:22:56.606Z</time>
      </trkpt>
      <trkpt lat="46.9166" lon="8.6741">
        <ele>2001</ele>
        <time>2021-08-07T08:22:57.605Z</time>
      </trkpt>
      <trkpt lat="46.9166" lon="8.67411">
        <ele>2000</ele>
        <time>2021-08-07T08:22:58.606Z</time>
      </trkpt>
      <trkpt lat="46.9166" lon="8.67411">
        <ele>2000</ele>
        <time>2021-08-07T08:22:59.606Z</time>
      </trkpt>
      <trkpt lat="46.9166" lon="8.67412">
        <ele>2000</ele>
        <time>2021-08-07T08:23:00.605Z</time>
      </trkpt>
      <trkpt lat="46.9166" lon="8.67413">
        <ele>1999</ele>
        <time>2021-08-07T08:23:01.606Z</time>
      </trkpt>
      <trkpt lat="46.9166" lon="8.67414">
        <ele>1999</ele>
        <time>2021-08-07T08:23:02.606Z</time>
      </trkpt>
      <trkpt lat="46.91659" lon="8.67415">
        <ele>1999</ele>
        <time>2021-08-07T08:23:03.606Z</time>
      </trkpt>
      <trkpt lat="46.91659" lon="8.67416">
        <ele>1999</ele>
        <time>2021-08-07T08:23:04.605Z</time>
      </trkpt>
      <trkpt lat="46.91659" lon="8.67418">
        <ele>1999</ele>
        <time>2021-08-07T08:23:05.606Z</time>
      </trkpt>
      <trkpt lat="46.91659" lon="8.67419">
        <ele>1999</ele>
        <time>2021-08-07T08:23:06.606Z</time>
      </trkpt>
      <trkpt lat="46.91659" lon="8.6742">
        <ele>1999</ele>
        <time>2021-08-07T08:23:07.605Z</time>
      </trkpt>
      <trkpt lat="46.91659" lon="8.67422">
        <ele>2000</ele>
        <time>2021-08-07T08:23:08.606Z</time>
      </trkpt>
      <trkpt lat="46.91659" lon="8.67422">
        <ele>2000</ele>
        <time>2021-08-07T08:23:09.605Z</time>
      </trkpt>
      <trkpt lat="46.91659" lon="8.67423">
        <ele>2001</ele>
        <time>2021-08-07T08:23:10.606Z</time>
      </trkpt>
      <trkpt lat="46.91659" lon="8.67424">
        <ele>2001</ele>
        <time>2021-08-07T08:23:11.605Z</time>
      </trkpt>
      <trkpt lat="46.91659" lon="8.67426">
        <ele>2001</ele>
        <time>2021-08-07T08:23:12.606Z</time>
      </trkpt>
      <trkpt lat="46.91659" lon="8.67427">
        <ele>2001</ele>
        <time>2021-08-07T08:23:13.606Z</time>
      </trkpt>
      <trkpt lat="46.91659" lon="8.67428">
        <ele>2000</ele>
        <time>2021-08-07T08:23:14.605Z</time>
      </trkpt>
      <trkpt lat="46.91659" lon="8.67428">
        <ele>2000</ele>
        <time>2021-08-07T08:23:15.606Z</time>
      </trkpt>
      <trkpt lat="46.91659" lon="8.67428">
        <ele>2000</ele>
        <time>2021-08-07T08:23:16.605Z</time>
      </trkpt>
      <trkpt lat="46.91658" lon="8.67429">
        <ele>1999</ele>
        <time>2021-08-07T08:23:17.606Z</time>
      </trkpt>
      <trkpt lat="46.91658" lon="8.67429">
        <ele>1999</ele>
        <time>2021-08-07T08:23:18.605Z</time>
      </trkpt>
      <trkpt lat="46.91658" lon="8.6743">
        <ele>1998</ele>
        <time>2021-08-07T08:23:19.606Z</time>
      </trkpt>
      <trkpt lat="46.91657" lon="8.6743">
        <ele>1997</ele>
        <time>2021-08-07T08:23:20.605Z</time>
      </trkpt>
      <trkpt lat="46.91657" lon="8.67431">
        <ele>1997</ele>
        <time>2021-08-07T08:23:21.605Z</time>
      </trkpt>
      <trkpt lat="46.91656" lon="8.67432">
        <ele>1996</ele>
        <time>2021-08-07T08:23:22.606Z</time>
      </trkpt>
      <trkpt lat="46.91656" lon="8.67433">
        <ele>1996</ele>
        <time>2021-08-07T08:23:23.606Z</time>
      </trkpt>
      <trkpt lat="46.91655" lon="8.67434">
        <ele>1996</ele>
        <time>2021-08-07T08:23:24.606Z</time>
      </trkpt>
      <trkpt lat="46.91655" lon="8.67435">
        <ele>1996</ele>
        <time>2021-08-07T08:23:25.606Z</time>
      </trkpt>
      <trkpt lat="46.91655" lon="8.67437">
        <ele>1996</ele>
        <time>2021-08-07T08:23:26.606Z</time>
      </trkpt>
      <trkpt lat="46.91655" lon="8.67437">
        <ele>1996</ele>
        <time>2021-08-07T08:23:27.605Z</time>
      </trkpt>
      <trkpt lat="46.91655" lon="8.67438">
        <ele>1996</ele>
        <time>2021-08-07T08:23:28.606Z</time>
      </trkpt>
      <trkpt lat="46.91655" lon="8.67438">
        <ele>1995</ele>
        <time>2021-08-07T08:23:29.606Z</time>
      </trkpt>
      <trkpt lat="46.91655" lon="8.67438">
        <ele>1995</ele>
        <time>2021-08-07T08:23:30.606Z</time>
      </trkpt>
      <trkpt lat="46.91655" lon="8.6744">
        <ele>1993</ele>
        <time>2021-08-07T08:23:31.606Z</time>
      </trkpt>
      <trkpt lat="46.91654" lon="8.6744">
        <ele>1992</ele>
        <time>2021-08-07T08:23:32.606Z</time>
      </trkpt>
      <trkpt lat="46.91654" lon="8.67439">
        <ele>1991</ele>
        <time>2021-08-07T08:23:33.606Z</time>
      </trkpt>
      <trkpt lat="46.91654" lon="8.67439">
        <ele>1990</ele>
        <time>2021-08-07T08:23:34.605Z</time>
      </trkpt>
      <trkpt lat="46.91653" lon="8.67438">
        <ele>1990</ele>
        <time>2021-08-07T08:23:35.605Z</time>
      </trkpt>
      <trkpt lat="46.91652" lon="8.67438">
        <ele>1989</ele>
        <time>2021-08-07T08:23:36.606Z</time>
      </trkpt>
      <trkpt lat="46.91651" lon="8.67437">
        <ele>1989</ele>
        <time>2021-08-07T08:23:37.606Z</time>
      </trkpt>
      <trkpt lat="46.91651" lon="8.67438">
        <ele>1988</ele>
        <time>2021-08-07T08:23:38.605Z</time>
      </trkpt>
      <trkpt lat="46.9165" lon="8.67439">
        <ele>1988</ele>
        <time>2021-08-07T08:23:39.606Z</time>
      </trkpt>
      <trkpt lat="46.9165" lon="8.6744">
        <ele>1988</ele>
        <time>2021-08-07T08:23:40.605Z</time>
      </trkpt>
      <trkpt lat="46.9165" lon="8.67441">
        <ele>1989</ele>
        <time>2021-08-07T08:23:41.606Z</time>
      </trkpt>
      <trkpt lat="46.9165" lon="8.67441">
        <ele>1989</ele>
        <time>2021-08-07T08:23:42.605Z</time>
      </trkpt>
      <trkpt lat="46.9165" lon="8.67441">
        <ele>1989</ele>
        <time>2021-08-07T08:23:43.606Z</time>
      </trkpt>
      <trkpt lat="46.9165" lon="8.67441">
        <ele>1990</ele>
        <time>2021-08-07T08:23:44.606Z</time>
      </trkpt>
      <trkpt lat="46.91649" lon="8.67441">
        <ele>1990</ele>
        <time>2021-08-07T08:23:45.605Z</time>
      </trkpt>
      <trkpt lat="46.91649" lon="8.67441">
        <ele>1990</ele>
        <time>2021-08-07T08:23:46.606Z</time>
      </trkpt>
      <trkpt lat="46.91649" lon="8.67441">
        <ele>1990</ele>
        <time>2021-08-07T08:23:47.605Z</time>
      </trkpt>
      <trkpt lat="46.91648" lon="8.67441">
        <ele>1990</ele>
        <time>2021-08-07T08:23:48.606Z</time>
      </trkpt>
      <trkpt lat="46.91648" lon="8.67441">
        <ele>1989</ele>
        <time>2021-08-07T08:23:49.605Z</time>
      </trkpt>
      <trkpt lat="46.91648" lon="8.67442">
        <ele>1989</ele>
        <time>2021-08-07T08:23:50.606Z</time>
      </trkpt>
      <trkpt lat="46.91648" lon="8.67443">
        <ele>1989</ele>
        <time>2021-08-07T08:23:51.606Z</time>
      </trkpt>
      <trkpt lat="46.91648" lon="8.67443">
        <ele>1988</ele>
        <time>2021-08-07T08:23:52.605Z</time>
      </trkpt>
      <trkpt lat="46.91648" lon="8.67442">
        <ele>1988</ele>
        <time>2021-08-07T08:23:53.605Z</time>
      </trkpt>
      <trkpt lat="46.91648" lon="8.67441">
        <ele>1988</ele>
        <time>2021-08-07T08:23:54.605Z</time>
      </trkpt>
      <trkpt lat="46.91648" lon="8.67441">
        <ele>1988</ele>
        <time>2021-08-07T08:23:55.605Z</time>
      </trkpt>
      <trkpt lat="46.91648" lon="8.6744">
        <ele>1988</ele>
        <time>2021-08-07T08:23:56.605Z</time>
      </trkpt>
      <trkpt lat="46.91648" lon="8.67439">
        <ele>1987</ele>
        <time>2021-08-07T08:23:57.605Z</time>
      </trkpt>
      <trkpt lat="46.91648" lon="8.67438">
        <ele>1987</ele>
        <time>2021-08-07T08:23:58.605Z</time>
      </trkpt>
      <trkpt lat="46.91647" lon="8.67437">
        <ele>1987</ele>
        <time>2021-08-07T08:23:59.605Z</time>
      </trkpt>
      <trkpt lat="46.91647" lon="8.67437">
        <ele>1986</ele>
        <time>2021-08-07T08:24:00.605Z</time>
      </trkpt>
      <trkpt lat="46.91647" lon="8.67437">
        <ele>1985</ele>
        <time>2021-08-07T08:24:01.606Z</time>
      </trkpt>
      <trkpt lat="46.91647" lon="8.67436">
        <ele>1984</ele>
        <time>2021-08-07T08:24:02.606Z</time>
      </trkpt>
      <trkpt lat="46.91647" lon="8.67435">
        <ele>1984</ele>
        <time>2021-08-07T08:24:03.605Z</time>
      </trkpt>
      <trkpt lat="46.91647" lon="8.67434">
        <ele>1984</ele>
        <time>2021-08-07T08:24:04.606Z</time>
      </trkpt>
      <trkpt lat="46.91647" lon="8.67434">
        <ele>1984</ele>
        <time>2021-08-07T08:24:05.605Z</time>
      </trkpt>
      <trkpt lat="46.91647" lon="8.67433">
        <ele>1984</ele>
        <time>2021-08-07T08:24:06.605Z</time>
      </trkpt>
      <trkpt lat="46.91647" lon="8.67432">
        <ele>1984</ele>
        <time>2021-08-07T08:24:07.606Z</time>
      </trkpt>
      <trkpt lat="46.91648" lon="8.67431">
        <ele>1984</ele>
        <time>2021-08-07T08:24:08.606Z</time>
      </trkpt>
      <trkpt lat="46.91648" lon="8.67431">
        <ele>1985</ele>
        <time>2021-08-07T08:24:09.606Z</time>
      </trkpt>
      <trkpt lat="46.91648" lon="8.6743">
        <ele>1985</ele>
        <time>2021-08-07T08:24:10.606Z</time>
      </trkpt>
      <trkpt lat="46.91647" lon="8.67429">
        <ele>1985</ele>
        <time>2021-08-07T08:24:11.606Z</time>
      </trkpt>
      <trkpt lat="46.91647" lon="8.67428">
        <ele>1985</ele>
        <time>2021-08-07T08:24:12.606Z</time>
      </trkpt>
      <trkpt lat="46.91647" lon="8.67428">
        <ele>1986</ele>
        <time>2021-08-07T08:24:13.605Z</time>
      </trkpt>
      <trkpt lat="46.91646" lon="8.67428">
        <ele>1985</ele>
        <time>2021-08-07T08:24:14.606Z</time>
      </trkpt>
      <trkpt lat="46.91646" lon="8.67427">
        <ele>1985</ele>
        <time>2021-08-07T08:24:15.606Z</time>
      </trkpt>
      <trkpt lat="46.91646" lon="8.67427">
        <ele>1985</ele>
        <time>2021-08-07T08:24:16.606Z</time>
      </trkpt>
      <trkpt lat="46.91645" lon="8.67426">
        <ele>1985</ele>
        <time>2021-08-07T08:24:17.605Z</time>
      </trkpt>
      <trkpt lat="46.91644" lon="8.67425">
        <ele>1985</ele>
        <time>2021-08-07T08:24:18.606Z</time>
      </trkpt>
      <trkpt lat="46.91644" lon="8.67425">
        <ele>1984</ele>
        <time>2021-08-07T08:24:19.606Z</time>
      </trkpt>
      <trkpt lat="46.91643" lon="8.67425">
        <ele>1984</ele>
        <time>2021-08-07T08:24:20.605Z</time>
      </trkpt>
      <trkpt lat="46.91643" lon="8.67425">
        <ele>1984</ele>
        <time>2021-08-07T08:24:21.605Z</time>
      </trkpt>
      <trkpt lat="46.91643" lon="8.67426">
        <ele>1984</ele>
        <time>2021-08-07T08:24:22.605Z</time>
      </trkpt>
      <trkpt lat="46.91642" lon="8.67427">
        <ele>1984</ele>
        <time>2021-08-07T08:24:23.606Z</time>
      </trkpt>
      <trkpt lat="46.91642" lon="8.67427">
        <ele>1983</ele>
        <time>2021-08-07T08:24:24.606Z</time>
      </trkpt>
      <trkpt lat="46.91642" lon="8.67428">
        <ele>1983</ele>
        <time>2021-08-07T08:24:25.606Z</time>
      </trkpt>
      <trkpt lat="46.91641" lon="8.67429">
        <ele>1983</ele>
        <time>2021-08-07T08:24:26.605Z</time>
      </trkpt>
      <trkpt lat="46.91641" lon="8.6743">
        <ele>1983</ele>
        <time>2021-08-07T08:24:27.606Z</time>
      </trkpt>
      <trkpt lat="46.9164" lon="8.67431">
        <ele>1983</ele>
        <time>2021-08-07T08:24:28.605Z</time>
      </trkpt>
      <trkpt lat="46.9164" lon="8.67432">
        <ele>1983</ele>
        <time>2021-08-07T08:24:29.605Z</time>
      </trkpt>
      <trkpt lat="46.91639" lon="8.67432">
        <ele>1982</ele>
        <time>2021-08-07T08:24:30.606Z</time>
      </trkpt>
      <trkpt lat="46.91639" lon="8.67433">
        <ele>1982</ele>
        <time>2021-08-07T08:24:31.606Z</time>
      </trkpt>
      <trkpt lat="46.91639" lon="8.67435">
        <ele>1981</ele>
        <time>2021-08-07T08:24:32.605Z</time>
      </trkpt>
      <trkpt lat="46.91638" lon="8.67435">
        <ele>1980</ele>
        <time>2021-08-07T08:24:33.606Z</time>
      </trkpt>
      <trkpt lat="46.91638" lon="8.67436">
        <ele>1980</ele>
        <time>2021-08-07T08:24:34.606Z</time>
      </trkpt>
      <trkpt lat="46.91637" lon="8.67437">
        <ele>1980</ele>
        <time>2021-08-07T08:24:35.605Z</time>
      </trkpt>
      <trkpt lat="46.91636" lon="8.67438">
        <ele>1979</ele>
        <time>2021-08-07T08:24:36.605Z</time>
      </trkpt>
      <trkpt lat="46.91635" lon="8.67439">
        <ele>1980</ele>
        <time>2021-08-07T08:24:37.606Z</time>
      </trkpt>
      <trkpt lat="46.91635" lon="8.6744">
        <ele>1980</ele>
        <time>2021-08-07T08:24:38.605Z</time>
      </trkpt>
      <trkpt lat="46.91634" lon="8.67441">
        <ele>1980</ele>
        <time>2021-08-07T08:24:39.606Z</time>
      </trkpt>
      <trkpt lat="46.91634" lon="8.67442">
        <ele>1980</ele>
        <time>2021-08-07T08:24:40.605Z</time>
      </trkpt>
      <trkpt lat="46.91634" lon="8.67443">
        <ele>1980</ele>
        <time>2021-08-07T08:24:41.605Z</time>
      </trkpt>
      <trkpt lat="46.91633" lon="8.67444">
        <ele>1980</ele>
        <time>2021-08-07T08:24:42.606Z</time>
      </trkpt>
      <trkpt lat="46.91633" lon="8.67446">
        <ele>1980</ele>
        <time>2021-08-07T08:24:43.606Z</time>
      </trkpt>
      <trkpt lat="46.91633" lon="8.67447">
        <ele>1979</ele>
        <time>2021-08-07T08:24:44.606Z</time>
      </trkpt>
      <trkpt lat="46.91632" lon="8.67448">
        <ele>1979</ele>
        <time>2021-08-07T08:24:45.606Z</time>
      </trkpt>
      <trkpt lat="46.91632" lon="8.6745">
        <ele>1979</ele>
        <time>2021-08-07T08:24:46.605Z</time>
      </trkpt>
      <trkpt lat="46.91632" lon="8.67451">
        <ele>1979</ele>
        <time>2021-08-07T08:24:47.606Z</time>
      </trkpt>
      <trkpt lat="46.91631" lon="8.67453">
        <ele>1978</ele>
        <time>2021-08-07T08:24:48.605Z</time>
      </trkpt>
      <trkpt lat="46.91631" lon="8.67454">
        <ele>1978</ele>
        <time>2021-08-07T08:24:49.605Z</time>
      </trkpt>
      <trkpt lat="46.9163" lon="8.67454">
        <ele>1978</ele>
        <time>2021-08-07T08:24:50.605Z</time>
      </trkpt>
      <trkpt lat="46.9163" lon="8.67455">
        <ele>1977</ele>
        <time>2021-08-07T08:24:51.606Z</time>
      </trkpt>
      <trkpt lat="46.91629" lon="8.67456">
        <ele>1977</ele>
        <time>2021-08-07T08:24:52.606Z</time>
      </trkpt>
      <trkpt lat="46.91629" lon="8.67458">
        <ele>1976</ele>
        <time>2021-08-07T08:24:53.606Z</time>
      </trkpt>
      <trkpt lat="46.91628" lon="8.67459">
        <ele>1976</ele>
        <time>2021-08-07T08:24:54.605Z</time>
      </trkpt>
      <trkpt lat="46.91627" lon="8.6746">
        <ele>1976</ele>
        <time>2021-08-07T08:24:55.605Z</time>
      </trkpt>
      <trkpt lat="46.91627" lon="8.67462">
        <ele>1976</ele>
        <time>2021-08-07T08:24:56.606Z</time>
      </trkpt>
      <trkpt lat="46.91626" lon="8.67464">
        <ele>1976</ele>
        <time>2021-08-07T08:24:57.606Z</time>
      </trkpt>
      <trkpt lat="46.91625" lon="8.67466">
        <ele>1975</ele>
        <time>2021-08-07T08:24:58.606Z</time>
      </trkpt>
      <trkpt lat="46.91625" lon="8.67467">
        <ele>1975</ele>
        <time>2021-08-07T08:24:59.606Z</time>
      </trkpt>
      <trkpt lat="46.91625" lon="8.67468">
        <ele>1975</ele>
        <time>2021-08-07T08:25:00.606Z</time>
      </trkpt>
      <trkpt lat="46.91624" lon="8.6747">
        <ele>1974</ele>
        <time>2021-08-07T08:25:01.606Z</time>
      </trkpt>
      <trkpt lat="46.91624" lon="8.67471">
        <ele>1973</ele>
        <time>2021-08-07T08:25:02.605Z</time>
      </trkpt>
      <trkpt lat="46.91624" lon="8.67472">
        <ele>1973</ele>
        <time>2021-08-07T08:25:03.605Z</time>
      </trkpt>
      <trkpt lat="46.91624" lon="8.67474">
        <ele>1973</ele>
        <time>2021-08-07T08:25:04.606Z</time>
      </trkpt>
      <trkpt lat="46.91623" lon="8.67474">
        <ele>1973</ele>
        <time>2021-08-07T08:25:05.605Z</time>
      </trkpt>
      <trkpt lat="46.91623" lon="8.67474">
        <ele>1973</ele>
        <time>2021-08-07T08:25:06.606Z</time>
      </trkpt>
      <trkpt lat="46.91622" lon="8.67473">
        <ele>1973</ele>
        <time>2021-08-07T08:25:07.605Z</time>
      </trkpt>
      <trkpt lat="46.91621" lon="8.67473">
        <ele>1973</ele>
        <time>2021-08-07T08:25:08.606Z</time>
      </trkpt>
      <trkpt lat="46.91621" lon="8.67473">
        <ele>1973</ele>
        <time>2021-08-07T08:25:09.606Z</time>
      </trkpt>
      <trkpt lat="46.9162" lon="8.67474">
        <ele>1973</ele>
        <time>2021-08-07T08:25:10.606Z</time>
      </trkpt>
      <trkpt lat="46.91619" lon="8.67474">
        <ele>1973</ele>
        <time>2021-08-07T08:25:11.605Z</time>
      </trkpt>
      <trkpt lat="46.91618" lon="8.67475">
        <ele>1972</ele>
        <time>2021-08-07T08:25:12.606Z</time>
      </trkpt>
      <trkpt lat="46.91618" lon="8.67476">
        <ele>1972</ele>
        <time>2021-08-07T08:25:13.606Z</time>
      </trkpt>
      <trkpt lat="46.91617" lon="8.67476">
        <ele>1972</ele>
        <time>2021-08-07T08:25:14.605Z</time>
      </trkpt>
      <trkpt lat="46.91617" lon="8.67477">
        <ele>1971</ele>
        <time>2021-08-07T08:25:15.606Z</time>
      </trkpt>
      <trkpt lat="46.91616" lon="8.67478">
        <ele>1971</ele>
        <time>2021-08-07T08:25:16.606Z</time>
      </trkpt>
      <trkpt lat="46.91616" lon="8.67479">
        <ele>1970</ele>
        <time>2021-08-07T08:25:17.606Z</time>
      </trkpt>
      <trkpt lat="46.91615" lon="8.6748">
        <ele>1970</ele>
        <time>2021-08-07T08:25:18.606Z</time>
      </trkpt>
      <trkpt lat="46.91614" lon="8.6748">
        <ele>1970</ele>
        <time>2021-08-07T08:25:19.605Z</time>
      </trkpt>
      <trkpt lat="46.91614" lon="8.67482">
        <ele>1969</ele>
        <time>2021-08-07T08:25:20.606Z</time>
      </trkpt>
      <trkpt lat="46.91613" lon="8.67483">
        <ele>1968</ele>
        <time>2021-08-07T08:25:21.605Z</time>
      </trkpt>
      <trkpt lat="46.91613" lon="8.67484">
        <ele>1968</ele>
        <time>2021-08-07T08:25:22.606Z</time>
      </trkpt>
      <trkpt lat="46.91612" lon="8.67484">
        <ele>1967</ele>
        <time>2021-08-07T08:25:23.605Z</time>
      </trkpt>
      <trkpt lat="46.91612" lon="8.67485">
        <ele>1966</ele>
        <time>2021-08-07T08:25:24.605Z</time>
      </trkpt>
      <trkpt lat="46.91611" lon="8.67486">
        <ele>1965</ele>
        <time>2021-08-07T08:25:25.605Z</time>
      </trkpt>
      <trkpt lat="46.91611" lon="8.67487">
        <ele>1965</ele>
        <time>2021-08-07T08:25:26.606Z</time>
      </trkpt>
      <trkpt lat="46.91611" lon="8.67488">
        <ele>1964</ele>
        <time>2021-08-07T08:25:27.605Z</time>
      </trkpt>
      <trkpt lat="46.9161" lon="8.6749">
        <ele>1964</ele>
        <time>2021-08-07T08:25:28.605Z</time>
      </trkpt>
      <trkpt lat="46.9161" lon="8.67491">
        <ele>1964</ele>
        <time>2021-08-07T08:25:29.606Z</time>
      </trkpt>
      <trkpt lat="46.91609" lon="8.67492">
        <ele>1964</ele>
        <time>2021-08-07T08:25:30.606Z</time>
      </trkpt>
      <trkpt lat="46.91608" lon="8.67492">
        <ele>1963</ele>
        <time>2021-08-07T08:25:31.606Z</time>
      </trkpt>
      <trkpt lat="46.91607" lon="8.67493">
        <ele>1963</ele>
        <time>2021-08-07T08:25:32.606Z</time>
      </trkpt>
      <trkpt lat="46.91607" lon="8.67495">
        <ele>1963</ele>
        <time>2021-08-07T08:25:33.605Z</time>
      </trkpt>
      <trkpt lat="46.91606" lon="8.67496">
        <ele>1963</ele>
        <time>2021-08-07T08:25:34.606Z</time>
      </trkpt>
      <trkpt lat="46.91605" lon="8.67497">
        <ele>1963</ele>
        <time>2021-08-07T08:25:35.606Z</time>
      </trkpt>
      <trkpt lat="46.91605" lon="8.67499">
        <ele>1963</ele>
        <time>2021-08-07T08:25:36.605Z</time>
      </trkpt>
      <trkpt lat="46.91605" lon="8.675">
        <ele>1963</ele>
        <time>2021-08-07T08:25:37.605Z</time>
      </trkpt>
      <trkpt lat="46.91604" lon="8.67501">
        <ele>1962</ele>
        <time>2021-08-07T08:25:38.606Z</time>
      </trkpt>
      <trkpt lat="46.91604" lon="8.67502">
        <ele>1962</ele>
        <time>2021-08-07T08:25:39.606Z</time>
      </trkpt>
      <trkpt lat="46.91603" lon="8.67503">
        <ele>1961</ele>
        <time>2021-08-07T08:25:40.605Z</time>
      </trkpt>
      <trkpt lat="46.91602" lon="8.67504">
        <ele>1961</ele>
        <time>2021-08-07T08:25:41.605Z</time>
      </trkpt>
      <trkpt lat="46.91602" lon="8.67505">
        <ele>1960</ele>
        <time>2021-08-07T08:25:42.606Z</time>
      </trkpt>
      <trkpt lat="46.91601" lon="8.67506">
        <ele>1960</ele>
        <time>2021-08-07T08:25:43.605Z</time>
      </trkpt>
      <trkpt lat="46.916" lon="8.67507">
        <ele>1960</ele>
        <time>2021-08-07T08:25:44.606Z</time>
      </trkpt>
      <trkpt lat="46.916" lon="8.67507">
        <ele>1959</ele>
        <time>2021-08-07T08:25:45.605Z</time>
      </trkpt>
      <trkpt lat="46.91599" lon="8.67509">
        <ele>1959</ele>
        <time>2021-08-07T08:25:46.606Z</time>
      </trkpt>
      <trkpt lat="46.91598" lon="8.6751">
        <ele>1958</ele>
        <time>2021-08-07T08:25:47.605Z</time>
      </trkpt>
      <trkpt lat="46.91597" lon="8.6751">
        <ele>1958</ele>
        <time>2021-08-07T08:25:48.606Z</time>
      </trkpt>
      <trkpt lat="46.91596" lon="8.67512">
        <ele>1957</ele>
        <time>2021-08-07T08:25:49.606Z</time>
      </trkpt>
      <trkpt lat="46.91595" lon="8.67512">
        <ele>1957</ele>
        <time>2021-08-07T08:25:50.606Z</time>
      </trkpt>
      <trkpt lat="46.91595" lon="8.67513">
        <ele>1956</ele>
        <time>2021-08-07T08:25:51.606Z</time>
      </trkpt>
      <trkpt lat="46.91594" lon="8.67514">
        <ele>1956</ele>
        <time>2021-08-07T08:25:52.606Z</time>
      </trkpt>
      <trkpt lat="46.91593" lon="8.67515">
        <ele>1955</ele>
        <time>2021-08-07T08:25:53.606Z</time>
      </trkpt>
      <trkpt lat="46.91592" lon="8.67516">
        <ele>1955</ele>
        <time>2021-08-07T08:25:54.606Z</time>
      </trkpt>
      <trkpt lat="46.91591" lon="8.67517">
        <ele>1955</ele>
        <time>2021-08-07T08:25:55.606Z</time>
      </trkpt>
      <trkpt lat="46.9159" lon="8.67517">
        <ele>1955</ele>
        <time>2021-08-07T08:25:56.605Z</time>
      </trkpt>
      <trkpt lat="46.91589" lon="8.67518">
        <ele>1955</ele>
        <time>2021-08-07T08:25:57.606Z</time>
      </trkpt>
      <trkpt lat="46.91588" lon="8.67519">
        <ele>1955</ele>
        <time>2021-08-07T08:25:58.605Z</time>
      </trkpt>
      <trkpt lat="46.91587" lon="8.67519">
        <ele>1955</ele>
        <time>2021-08-07T08:25:59.606Z</time>
      </trkpt>
      <trkpt lat="46.91586" lon="8.6752">
        <ele>1955</ele>
        <time>2021-08-07T08:26:00.606Z</time>
      </trkpt>
      <trkpt lat="46.91585" lon="8.67521">
        <ele>1955</ele>
        <time>2021-08-07T08:26:01.605Z</time>
      </trkpt>
      <trkpt lat="46.91585" lon="8.67522">
        <ele>1955</ele>
        <time>2021-08-07T08:26:02.606Z</time>
      </trkpt>
      <trkpt lat="46.91584" lon="8.67523">
        <ele>1955</ele>
        <time>2021-08-07T08:26:03.606Z</time>
      </trkpt>
      <trkpt lat="46.91583" lon="8.67524">
        <ele>1955</ele>
        <time>2021-08-07T08:26:04.606Z</time>
      </trkpt>
      <trkpt lat="46.91582" lon="8.67525">
        <ele>1954</ele>
        <time>2021-08-07T08:26:05.605Z</time>
      </trkpt>
      <trkpt lat="46.91582" lon="8.67526">
        <ele>1954</ele>
        <time>2021-08-07T08:26:06.606Z</time>
      </trkpt>
      <trkpt lat="46.91581" lon="8.67527">
        <ele>1954</ele>
        <time>2021-08-07T08:26:07.605Z</time>
      </trkpt>
      <trkpt lat="46.9158" lon="8.67528">
        <ele>1954</ele>
        <time>2021-08-07T08:26:08.606Z</time>
      </trkpt>
      <trkpt lat="46.9158" lon="8.6753">
        <ele>1954</ele>
        <time>2021-08-07T08:26:09.606Z</time>
      </trkpt>
      <trkpt lat="46.91579" lon="8.67531">
        <ele>1954</ele>
        <time>2021-08-07T08:26:10.606Z</time>
      </trkpt>
      <trkpt lat="46.91579" lon="8.67531">
        <ele>1954</ele>
        <time>2021-08-07T08:26:11.605Z</time>
      </trkpt>
      <trkpt lat="46.91578" lon="8.67532">
        <ele>1954</ele>
        <time>2021-08-07T08:26:12.605Z</time>
      </trkpt>
      <trkpt lat="46.91578" lon="8.67534">
        <ele>1955</ele>
        <time>2021-08-07T08:26:13.606Z</time>
      </trkpt>
      <trkpt lat="46.91578" lon="8.67535">
        <ele>1955</ele>
        <time>2021-08-07T08:26:14.605Z</time>
      </trkpt>
      <trkpt lat="46.91577" lon="8.67536">
        <ele>1954</ele>
        <time>2021-08-07T08:26:15.606Z</time>
      </trkpt>
      <trkpt lat="46.91577" lon="8.67538">
        <ele>1954</ele>
        <time>2021-08-07T08:26:16.606Z</time>
      </trkpt>
      <trkpt lat="46.91576" lon="8.67539">
        <ele>1954</ele>
        <time>2021-08-07T08:26:17.606Z</time>
      </trkpt>
      <trkpt lat="46.91576" lon="8.6754">
        <ele>1954</ele>
        <time>2021-08-07T08:26:18.605Z</time>
      </trkpt>
      <trkpt lat="46.91576" lon="8.67542">
        <ele>1953</ele>
        <time>2021-08-07T08:26:19.606Z</time>
      </trkpt>
      <trkpt lat="46.91575" lon="8.67542">
        <ele>1953</ele>
        <time>2021-08-07T08:26:20.605Z</time>
      </trkpt>
      <trkpt lat="46.91575" lon="8.67544">
        <ele>1953</ele>
        <time>2021-08-07T08:26:21.606Z</time>
      </trkpt>
      <trkpt lat="46.91574" lon="8.67545">
        <ele>1953</ele>
        <time>2021-08-07T08:26:22.606Z</time>
      </trkpt>
      <trkpt lat="46.91574" lon="8.67546">
        <ele>1953</ele>
        <time>2021-08-07T08:26:23.606Z</time>
      </trkpt>
      <trkpt lat="46.91574" lon="8.67547">
        <ele>1952</ele>
        <time>2021-08-07T08:26:24.606Z</time>
      </trkpt>
      <trkpt lat="46.91573" lon="8.67549">
        <ele>1951</ele>
        <time>2021-08-07T08:26:25.605Z</time>
      </trkpt>
      <trkpt lat="46.91572" lon="8.6755">
        <ele>1951</ele>
        <time>2021-08-07T08:26:26.606Z</time>
      </trkpt>
      <trkpt lat="46.91572" lon="8.67551">
        <ele>1951</ele>
        <time>2021-08-07T08:26:27.605Z</time>
      </trkpt>
      <trkpt lat="46.91571" lon="8.67553">
        <ele>1950</ele>
        <time>2021-08-07T08:26:28.606Z</time>
      </trkpt>
      <trkpt lat="46.91571" lon="8.67554">
        <ele>1949</ele>
        <time>2021-08-07T08:26:29.605Z</time>
      </trkpt>
      <trkpt lat="46.9157" lon="8.67555">
        <ele>1949</ele>
        <time>2021-08-07T08:26:30.606Z</time>
      </trkpt>
      <trkpt lat="46.9157" lon="8.67556">
        <ele>1948</ele>
        <time>2021-08-07T08:26:31.605Z</time>
      </trkpt>
      <trkpt lat="46.91569" lon="8.67557">
        <ele>1948</ele>
        <time>2021-08-07T08:26:32.605Z</time>
      </trkpt>
      <trkpt lat="46.91569" lon="8.67558">
        <ele>1947</ele>
        <time>2021-08-07T08:26:33.605Z</time>
      </trkpt>
      <trkpt lat="46.91568" lon="8.67559">
        <ele>1947</ele>
        <time>2021-08-07T08:26:34.606Z</time>
      </trkpt>
      <trkpt lat="46.91567" lon="8.6756">
        <ele>1947</ele>
        <time>2021-08-07T08:26:35.605Z</time>
      </trkpt>
      <trkpt lat="46.91567" lon="8.67562">
        <ele>1947</ele>
        <time>2021-08-07T08:26:36.605Z</time>
      </trkpt>
      <trkpt lat="46.91566" lon="8.67563">
        <ele>1946</ele>
        <time>2021-08-07T08:26:37.605Z</time>
      </trkpt>
      <trkpt lat="46.91566" lon="8.67564">
        <ele>1945</ele>
        <time>2021-08-07T08:26:38.606Z</time>
      </trkpt>
      <trkpt lat="46.91565" lon="8.67565">
        <ele>1944</ele>
        <time>2021-08-07T08:26:39.605Z</time>
      </trkpt>
      <trkpt lat="46.91564" lon="8.67567">
        <ele>1943</ele>
        <time>2021-08-07T08:26:40.606Z</time>
      </trkpt>
      <trkpt lat="46.91564" lon="8.67568">
        <ele>1943</ele>
        <time>2021-08-07T08:26:41.606Z</time>
      </trkpt>
      <trkpt lat="46.91563" lon="8.67568">
        <ele>1942</ele>
        <time>2021-08-07T08:26:42.606Z</time>
      </trkpt>
      <trkpt lat="46.91563" lon="8.67569">
        <ele>1942</ele>
        <time>2021-08-07T08:26:43.606Z</time>
      </trkpt>
      <trkpt lat="46.91561" lon="8.6757">
        <ele>1941</ele>
        <time>2021-08-07T08:26:44.605Z</time>
      </trkpt>
      <trkpt lat="46.91561" lon="8.67571">
        <ele>1941</ele>
        <time>2021-08-07T08:26:45.606Z</time>
      </trkpt>
      <trkpt lat="46.9156" lon="8.67573">
        <ele>1941</ele>
        <time>2021-08-07T08:26:46.606Z</time>
      </trkpt>
      <trkpt lat="46.91559" lon="8.67574">
        <ele>1941</ele>
        <time>2021-08-07T08:26:47.606Z</time>
      </trkpt>
      <trkpt lat="46.91558" lon="8.67575">
        <ele>1942</ele>
        <time>2021-08-07T08:26:48.606Z</time>
      </trkpt>
      <trkpt lat="46.91557" lon="8.67576">
        <ele>1942</ele>
        <time>2021-08-07T08:26:49.605Z</time>
      </trkpt>
      <trkpt lat="46.91557" lon="8.67577">
        <ele>1942</ele>
        <time>2021-08-07T08:26:50.605Z</time>
      </trkpt>
      <trkpt lat="46.91556" lon="8.67578">
        <ele>1942</ele>
        <time>2021-08-07T08:26:51.605Z</time>
      </trkpt>
      <trkpt lat="46.91556" lon="8.6758">
        <ele>1942</ele>
        <time>2021-08-07T08:26:52.606Z</time>
      </trkpt>
      <trkpt lat="46.91555" lon="8.67581">
        <ele>1942</ele>
        <time>2021-08-07T08:26:53.605Z</time>
      </trkpt>
      <trkpt lat="46.91554" lon="8.67582">
        <ele>1942</ele>
        <time>2021-08-07T08:26:54.606Z</time>
      </trkpt>
      <trkpt lat="46.91553" lon="8.67583">
        <ele>1942</ele>
        <time>2021-08-07T08:26:55.605Z</time>
      </trkpt>
      <trkpt lat="46.91552" lon="8.67583">
        <ele>1942</ele>
        <time>2021-08-07T08:26:56.606Z</time>
      </trkpt>
      <trkpt lat="46.91552" lon="8.67584">
        <ele>1942</ele>
        <time>2021-08-07T08:26:57.606Z</time>
      </trkpt>
      <trkpt lat="46.91551" lon="8.67585">
        <ele>1942</ele>
        <time>2021-08-07T08:26:58.606Z</time>
      </trkpt>
      <trkpt lat="46.91551" lon="8.67585">
        <ele>1942</ele>
        <time>2021-08-07T08:26:59.606Z</time>
      </trkpt>
      <trkpt lat="46.91551" lon="8.67586">
        <ele>1942</ele>
        <time>2021-08-07T08:27:00.606Z</time>
      </trkpt>
      <trkpt lat="46.91551" lon="8.67585">
        <ele>1942</ele>
        <time>2021-08-07T08:27:01.605Z</time>
      </trkpt>
      <trkpt lat="46.91556" lon="8.67586">
        <ele>1945</ele>
        <time>2021-08-07T08:27:02.606Z</time>
      </trkpt>
      <trkpt lat="46.91555" lon="8.67586">
        <ele>1945</ele>
        <time>2021-08-07T08:27:03.606Z</time>
      </trkpt>
      <trkpt lat="46.91553" lon="8.67586">
        <ele>1945</ele>
        <time>2021-08-07T08:27:04.605Z</time>
      </trkpt>
      <trkpt lat="46.91552" lon="8.67586">
        <ele>1944</ele>
        <time>2021-08-07T08:27:05.606Z</time>
      </trkpt>
      <trkpt lat="46.91551" lon="8.67587">
        <ele>1944</ele>
        <time>2021-08-07T08:27:06.606Z</time>
      </trkpt>
      <trkpt lat="46.9155" lon="8.67588">
        <ele>1943</ele>
        <time>2021-08-07T08:27:07.606Z</time>
      </trkpt>
      <trkpt lat="46.91549" lon="8.67588">
        <ele>1943</ele>
        <time>2021-08-07T08:27:08.606Z</time>
      </trkpt>
      <trkpt lat="46.91548" lon="8.67589">
        <ele>1942</ele>
        <time>2021-08-07T08:27:09.606Z</time>
      </trkpt>
      <trkpt lat="46.91548" lon="8.67589">
        <ele>1941</ele>
        <time>2021-08-07T08:27:10.605Z</time>
      </trkpt>
      <trkpt lat="46.91547" lon="8.67589">
        <ele>1941</ele>
        <time>2021-08-07T08:27:11.605Z</time>
      </trkpt>
      <trkpt lat="46.91546" lon="8.6759">
        <ele>1940</ele>
        <time>2021-08-07T08:27:12.606Z</time>
      </trkpt>
      <trkpt lat="46.91546" lon="8.6759">
        <ele>1938</ele>
        <time>2021-08-07T08:27:13.605Z</time>
      </trkpt>
      <trkpt lat="46.91545" lon="8.67591">
        <ele>1937</ele>
        <time>2021-08-07T08:27:14.605Z</time>
      </trkpt>
      <trkpt lat="46.91544" lon="8.67592">
        <ele>1936</ele>
        <time>2021-08-07T08:27:15.605Z</time>
      </trkpt>
      <trkpt lat="46.91543" lon="8.67593">
        <ele>1935</ele>
        <time>2021-08-07T08:27:16.605Z</time>
      </trkpt>
      <trkpt lat="46.91542" lon="8.67593">
        <ele>1934</ele>
        <time>2021-08-07T08:27:17.605Z</time>
      </trkpt>
      <trkpt lat="46.91541" lon="8.67595">
        <ele>1933</ele>
        <time>2021-08-07T08:27:18.606Z</time>
      </trkpt>
      <trkpt lat="46.9154" lon="8.67596">
        <ele>1932</ele>
        <time>2021-08-07T08:27:19.605Z</time>
      </trkpt>
      <trkpt lat="46.91538" lon="8.67597">
        <ele>1931</ele>
        <time>2021-08-07T08:27:20.605Z</time>
      </trkpt>
      <trkpt lat="46.91538" lon="8.67599">
        <ele>1931</ele>
        <time>2021-08-07T08:27:21.605Z</time>
      </trkpt>
      <trkpt lat="46.91537" lon="8.67601">
        <ele>1930</ele>
        <time>2021-08-07T08:27:22.606Z</time>
      </trkpt>
      <trkpt lat="46.91536" lon="8.67602">
        <ele>1930</ele>
        <time>2021-08-07T08:27:23.605Z</time>
      </trkpt>
      <trkpt lat="46.91536" lon="8.67604">
        <ele>1930</ele>
        <time>2021-08-07T08:27:24.605Z</time>
      </trkpt>
      <trkpt lat="46.91535" lon="8.67605">
        <ele>1930</ele>
        <time>2021-08-07T08:27:25.605Z</time>
      </trkpt>
      <trkpt lat="46.91535" lon="8.67607">
        <ele>1930</ele>
        <time>2021-08-07T08:27:26.606Z</time>
      </trkpt>
      <trkpt lat="46.91535" lon="8.67609">
        <ele>1930</ele>
        <time>2021-08-07T08:27:27.605Z</time>
      </trkpt>
      <trkpt lat="46.91535" lon="8.6761">
        <ele>1930</ele>
        <time>2021-08-07T08:27:28.605Z</time>
      </trkpt>
      <trkpt lat="46.91534" lon="8.67611">
        <ele>1930</ele>
        <time>2021-08-07T08:27:29.605Z</time>
      </trkpt>
      <trkpt lat="46.91534" lon="8.67612">
        <ele>1931</ele>
        <time>2021-08-07T08:27:30.605Z</time>
      </trkpt>
      <trkpt lat="46.91534" lon="8.67612">
        <ele>1931</ele>
        <time>2021-08-07T08:27:31.605Z</time>
      </trkpt>
      <trkpt lat="46.91534" lon="8.67612">
        <ele>1931</ele>
        <time>2021-08-07T08:27:32.605Z</time>
      </trkpt>
      <trkpt lat="46.91534" lon="8.67615">
        <ele>1932</ele>
        <time>2021-08-07T08:27:33.607Z</time>
      </trkpt>
      <trkpt lat="46.91534" lon="8.67615">
        <ele>1931</ele>
        <time>2021-08-07T08:27:34.607Z</time>
      </trkpt>
      <trkpt lat="46.91534" lon="8.67616">
        <ele>1931</ele>
        <time>2021-08-07T08:27:35.606Z</time>
      </trkpt>
      <trkpt lat="46.91534" lon="8.67617">
        <ele>1931</ele>
        <time>2021-08-07T08:27:36.606Z</time>
      </trkpt>
      <trkpt lat="46.91534" lon="8.67618">
        <ele>1931</ele>
        <time>2021-08-07T08:27:37.607Z</time>
      </trkpt>
      <trkpt lat="46.91534" lon="8.6762">
        <ele>1931</ele>
        <time>2021-08-07T08:27:38.606Z</time>
      </trkpt>
      <trkpt lat="46.91533" lon="8.67621">
        <ele>1930</ele>
        <time>2021-08-07T08:27:39.607Z</time>
      </trkpt>
      <trkpt lat="46.91533" lon="8.67622">
        <ele>1930</ele>
        <time>2021-08-07T08:27:40.606Z</time>
      </trkpt>
      <trkpt lat="46.91532" lon="8.67623">
        <ele>1930</ele>
        <time>2021-08-07T08:27:41.606Z</time>
      </trkpt>
      <trkpt lat="46.91532" lon="8.67624">
        <ele>1930</ele>
        <time>2021-08-07T08:27:42.606Z</time>
      </trkpt>
      <trkpt lat="46.91532" lon="8.67625">
        <ele>1930</ele>
        <time>2021-08-07T08:27:43.606Z</time>
      </trkpt>
      <trkpt lat="46.91531" lon="8.67626">
        <ele>1930</ele>
        <time>2021-08-07T08:27:44.606Z</time>
      </trkpt>
      <trkpt lat="46.91531" lon="8.67628">
        <ele>1930</ele>
        <time>2021-08-07T08:27:45.606Z</time>
      </trkpt>
      <trkpt lat="46.9153" lon="8.6763">
        <ele>1930</ele>
        <time>2021-08-07T08:27:46.606Z</time>
      </trkpt>
      <trkpt lat="46.9153" lon="8.67632">
        <ele>1930</ele>
        <time>2021-08-07T08:27:47.606Z</time>
      </trkpt>
      <trkpt lat="46.9153" lon="8.67634">
        <ele>1930</ele>
        <time>2021-08-07T08:27:48.606Z</time>
      </trkpt>
      <trkpt lat="46.91529" lon="8.67635">
        <ele>1931</ele>
        <time>2021-08-07T08:27:49.606Z</time>
      </trkpt>
      <trkpt lat="46.91529" lon="8.67637">
        <ele>1931</ele>
        <time>2021-08-07T08:27:50.606Z</time>
      </trkpt>
      <trkpt lat="46.91529" lon="8.67638">
        <ele>1932</ele>
        <time>2021-08-07T08:27:51.607Z</time>
      </trkpt>
      <trkpt lat="46.91528" lon="8.6764">
        <ele>1932</ele>
        <time>2021-08-07T08:27:52.606Z</time>
      </trkpt>
      <trkpt lat="46.91528" lon="8.67641">
        <ele>1932</ele>
        <time>2021-08-07T08:27:53.606Z</time>
      </trkpt>
      <trkpt lat="46.91528" lon="8.67643">
        <ele>1932</ele>
        <time>2021-08-07T08:27:54.606Z</time>
      </trkpt>
      <trkpt lat="46.91528" lon="8.67643">
        <ele>1932</ele>
        <time>2021-08-07T08:27:55.606Z</time>
      </trkpt>
      <trkpt lat="46.91527" lon="8.67644">
        <ele>1932</ele>
        <time>2021-08-07T08:27:56.606Z</time>
      </trkpt>
      <trkpt lat="46.91527" lon="8.67644">
        <ele>1931</ele>
        <time>2021-08-07T08:27:57.607Z</time>
      </trkpt>
      <trkpt lat="46.91526" lon="8.67645">
        <ele>1931</ele>
        <time>2021-08-07T08:27:58.607Z</time>
      </trkpt>
      <trkpt lat="46.91526" lon="8.67645">
        <ele>1931</ele>
        <time>2021-08-07T08:27:59.606Z</time>
      </trkpt>
      <trkpt lat="46.91525" lon="8.67646">
        <ele>1931</ele>
        <time>2021-08-07T08:28:00.607Z</time>
      </trkpt>
      <trkpt lat="46.91524" lon="8.67647">
        <ele>1931</ele>
        <time>2021-08-07T08:28:01.607Z</time>
      </trkpt>
      <trkpt lat="46.91524" lon="8.67648">
        <ele>1931</ele>
        <time>2021-08-07T08:28:02.606Z</time>
      </trkpt>
      <trkpt lat="46.91523" lon="8.67649">
        <ele>1931</ele>
        <time>2021-08-07T08:28:03.607Z</time>
      </trkpt>
      <trkpt lat="46.91522" lon="8.67649">
        <ele>1931</ele>
        <time>2021-08-07T08:28:04.607Z</time>
      </trkpt>
      <trkpt lat="46.91522" lon="8.6765">
        <ele>1931</ele>
        <time>2021-08-07T08:28:05.607Z</time>
      </trkpt>
      <trkpt lat="46.91521" lon="8.67651">
        <ele>1931</ele>
        <time>2021-08-07T08:28:06.607Z</time>
      </trkpt>
      <trkpt lat="46.91521" lon="8.67652">
        <ele>1930</ele>
        <time>2021-08-07T08:28:07.607Z</time>
      </trkpt>
      <trkpt lat="46.9152" lon="8.67653">
        <ele>1930</ele>
        <time>2021-08-07T08:28:08.606Z</time>
      </trkpt>
      <trkpt lat="46.9152" lon="8.67654">
        <ele>1929</ele>
        <time>2021-08-07T08:28:09.607Z</time>
      </trkpt>
      <trkpt lat="46.91519" lon="8.67655">
        <ele>1928</ele>
        <time>2021-08-07T08:28:10.607Z</time>
      </trkpt>
      <trkpt lat="46.91518" lon="8.67656">
        <ele>1928</ele>
        <time>2021-08-07T08:28:11.606Z</time>
      </trkpt>
      <trkpt lat="46.91518" lon="8.67657">
        <ele>1927</ele>
        <time>2021-08-07T08:28:12.606Z</time>
      </trkpt>
      <trkpt lat="46.91517" lon="8.67658">
        <ele>1926</ele>
        <time>2021-08-07T08:28:13.607Z</time>
      </trkpt>
      <trkpt lat="46.91517" lon="8.67659">
        <ele>1925</ele>
        <time>2021-08-07T08:28:14.607Z</time>
      </trkpt>
      <trkpt lat="46.91517" lon="8.6766">
        <ele>1925</ele>
        <time>2021-08-07T08:28:15.606Z</time>
      </trkpt>
      <trkpt lat="46.91516" lon="8.67661">
        <ele>1924</ele>
        <time>2021-08-07T08:28:16.607Z</time>
      </trkpt>
      <trkpt lat="46.91516" lon="8.67662">
        <ele>1923</ele>
        <time>2021-08-07T08:28:17.606Z</time>
      </trkpt>
      <trkpt lat="46.91515" lon="8.67663">
        <ele>1922</ele>
        <time>2021-08-07T08:28:18.607Z</time>
      </trkpt>
      <trkpt lat="46.91514" lon="8.67665">
        <ele>1921</ele>
        <time>2021-08-07T08:28:19.607Z</time>
      </trkpt>
      <trkpt lat="46.91513" lon="8.67666">
        <ele>1921</ele>
        <time>2021-08-07T08:28:20.607Z</time>
      </trkpt>
      <trkpt lat="46.91513" lon="8.67668">
        <ele>1920</ele>
        <time>2021-08-07T08:28:21.607Z</time>
      </trkpt>
      <trkpt lat="46.91512" lon="8.67669">
        <ele>1920</ele>
        <time>2021-08-07T08:28:22.606Z</time>
      </trkpt>
      <trkpt lat="46.91512" lon="8.6767">
        <ele>1920</ele>
        <time>2021-08-07T08:28:23.606Z</time>
      </trkpt>
      <trkpt lat="46.91511" lon="8.67672">
        <ele>1920</ele>
        <time>2021-08-07T08:28:24.606Z</time>
      </trkpt>
      <trkpt lat="46.91511" lon="8.67674">
        <ele>1920</ele>
        <time>2021-08-07T08:28:25.607Z</time>
      </trkpt>
      <trkpt lat="46.91511" lon="8.67675">
        <ele>1920</ele>
        <time>2021-08-07T08:28:26.607Z</time>
      </trkpt>
      <trkpt lat="46.9151" lon="8.67677">
        <ele>1919</ele>
        <time>2021-08-07T08:28:27.606Z</time>
      </trkpt>
      <trkpt lat="46.9151" lon="8.67678">
        <ele>1919</ele>
        <time>2021-08-07T08:28:28.606Z</time>
      </trkpt>
      <trkpt lat="46.9151" lon="8.6768">
        <ele>1919</ele>
        <time>2021-08-07T08:28:29.607Z</time>
      </trkpt>
      <trkpt lat="46.91509" lon="8.6768">
        <ele>1918</ele>
        <time>2021-08-07T08:28:30.606Z</time>
      </trkpt>
      <trkpt lat="46.91509" lon="8.6768">
        <ele>1918</ele>
        <time>2021-08-07T08:28:31.607Z</time>
      </trkpt>
      <trkpt lat="46.91509" lon="8.67682">
        <ele>1917</ele>
        <time>2021-08-07T08:28:32.607Z</time>
      </trkpt>
      <trkpt lat="46.91509" lon="8.67684">
        <ele>1916</ele>
        <time>2021-08-07T08:28:33.607Z</time>
      </trkpt>
      <trkpt lat="46.91508" lon="8.67685">
        <ele>1916</ele>
        <time>2021-08-07T08:28:34.607Z</time>
      </trkpt>
      <trkpt lat="46.91508" lon="8.67686">
        <ele>1915</ele>
        <time>2021-08-07T08:28:35.607Z</time>
      </trkpt>
      <trkpt lat="46.91509" lon="8.67687">
        <ele>1914</ele>
        <time>2021-08-07T08:28:36.607Z</time>
      </trkpt>
      <trkpt lat="46.91509" lon="8.67688">
        <ele>1914</ele>
        <time>2021-08-07T08:28:37.606Z</time>
      </trkpt>
      <trkpt lat="46.91509" lon="8.67689">
        <ele>1913</ele>
        <time>2021-08-07T08:28:38.607Z</time>
      </trkpt>
      <trkpt lat="46.91509" lon="8.67689">
        <ele>1913</ele>
        <time>2021-08-07T08:28:39.606Z</time>
      </trkpt>
      <trkpt lat="46.91509" lon="8.6769">
        <ele>1912</ele>
        <time>2021-08-07T08:28:40.607Z</time>
      </trkpt>
      <trkpt lat="46.91509" lon="8.67691">
        <ele>1912</ele>
        <time>2021-08-07T08:28:41.606Z</time>
      </trkpt>
      <trkpt lat="46.91509" lon="8.67692">
        <ele>1912</ele>
        <time>2021-08-07T08:28:42.607Z</time>
      </trkpt>
      <trkpt lat="46.91508" lon="8.67692">
        <ele>1912</ele>
        <time>2021-08-07T08:28:43.607Z</time>
      </trkpt>
      <trkpt lat="46.91508" lon="8.67693">
        <ele>1912</ele>
        <time>2021-08-07T08:28:44.607Z</time>
      </trkpt>
      <trkpt lat="46.91508" lon="8.67694">
        <ele>1912</ele>
        <time>2021-08-07T08:28:45.606Z</time>
      </trkpt>
      <trkpt lat="46.91509" lon="8.67694">
        <ele>1911</ele>
        <time>2021-08-07T08:28:46.606Z</time>
      </trkpt>
      <trkpt lat="46.91509" lon="8.67695">
        <ele>1911</ele>
        <time>2021-08-07T08:28:47.607Z</time>
      </trkpt>
      <trkpt lat="46.91508" lon="8.67697">
        <ele>1910</ele>
        <time>2021-08-07T08:28:48.607Z</time>
      </trkpt>
      <trkpt lat="46.91508" lon="8.67698">
        <ele>1910</ele>
        <time>2021-08-07T08:28:49.607Z</time>
      </trkpt>
      <trkpt lat="46.91507" lon="8.67699">
        <ele>1909</ele>
        <time>2021-08-07T08:28:50.606Z</time>
      </trkpt>
      <trkpt lat="46.91507" lon="8.67699">
        <ele>1909</ele>
        <time>2021-08-07T08:28:51.607Z</time>
      </trkpt>
      <trkpt lat="46.91507" lon="8.677">
        <ele>1909</ele>
        <time>2021-08-07T08:28:52.607Z</time>
      </trkpt>
      <trkpt lat="46.91506" lon="8.67701">
        <ele>1909</ele>
        <time>2021-08-07T08:28:53.606Z</time>
      </trkpt>
      <trkpt lat="46.91506" lon="8.67702">
        <ele>1909</ele>
        <time>2021-08-07T08:28:54.607Z</time>
      </trkpt>
      <trkpt lat="46.91506" lon="8.67702">
        <ele>1909</ele>
        <time>2021-08-07T08:28:55.606Z</time>
      </trkpt>
      <trkpt lat="46.91506" lon="8.67704">
        <ele>1909</ele>
        <time>2021-08-07T08:28:56.606Z</time>
      </trkpt>
      <trkpt lat="46.91506" lon="8.67705">
        <ele>1909</ele>
        <time>2021-08-07T08:28:57.607Z</time>
      </trkpt>
      <trkpt lat="46.91506" lon="8.67705">
        <ele>1909</ele>
        <time>2021-08-07T08:28:58.607Z</time>
      </trkpt>
      <trkpt lat="46.91505" lon="8.67704">
        <ele>1909</ele>
        <time>2021-08-07T08:28:59.607Z</time>
      </trkpt>
      <trkpt lat="46.91505" lon="8.67705">
        <ele>1909</ele>
        <time>2021-08-07T08:29:00.607Z</time>
      </trkpt>
      <trkpt lat="46.91505" lon="8.67707">
        <ele>1909</ele>
        <time>2021-08-07T08:29:01.607Z</time>
      </trkpt>
      <trkpt lat="46.91505" lon="8.67707">
        <ele>1909</ele>
        <time>2021-08-07T08:29:02.607Z</time>
      </trkpt>
      <trkpt lat="46.91505" lon="8.67707">
        <ele>1909</ele>
        <time>2021-08-07T08:29:03.606Z</time>
      </trkpt>
      <trkpt lat="46.91504" lon="8.67707">
        <ele>1910</ele>
        <time>2021-08-07T08:29:04.607Z</time>
      </trkpt>
      <trkpt lat="46.91504" lon="8.67707">
        <ele>1911</ele>
        <time>2021-08-07T08:29:05.606Z</time>
      </trkpt>
      <trkpt lat="46.91504" lon="8.67708">
        <ele>1911</ele>
        <time>2021-08-07T08:29:06.606Z</time>
      </trkpt>
      <trkpt lat="46.91504" lon="8.67708">
        <ele>1911</ele>
        <time>2021-08-07T08:29:07.607Z</time>
      </trkpt>
      <trkpt lat="46.91504" lon="8.67708">
        <ele>1912</ele>
        <time>2021-08-07T08:29:08.607Z</time>
      </trkpt>
      <trkpt lat="46.91503" lon="8.67708">
        <ele>1912</ele>
        <time>2021-08-07T08:29:09.606Z</time>
      </trkpt>
      <trkpt lat="46.91502" lon="8.67707">
        <ele>1913</ele>
        <time>2021-08-07T08:29:10.607Z</time>
      </trkpt>
      <trkpt lat="46.91502" lon="8.67707">
        <ele>1914</ele>
        <time>2021-08-07T08:29:11.606Z</time>
      </trkpt>
      <trkpt lat="46.91501" lon="8.67707">
        <ele>1914</ele>
        <time>2021-08-07T08:29:12.607Z</time>
      </trkpt>
      <trkpt lat="46.915" lon="8.67708">
        <ele>1914</ele>
        <time>2021-08-07T08:29:13.606Z</time>
      </trkpt>
      <trkpt lat="46.915" lon="8.67708">
        <ele>1915</ele>
        <time>2021-08-07T08:29:14.607Z</time>
      </trkpt>
      <trkpt lat="46.91499" lon="8.67708">
        <ele>1915</ele>
        <time>2021-08-07T08:29:15.606Z</time>
      </trkpt>
      <trkpt lat="46.91498" lon="8.67708">
        <ele>1916</ele>
        <time>2021-08-07T08:29:16.607Z</time>
      </trkpt>
      <trkpt lat="46.91497" lon="8.67708">
        <ele>1917</ele>
        <time>2021-08-07T08:29:17.607Z</time>
      </trkpt>
      <trkpt lat="46.91497" lon="8.67707">
        <ele>1917</ele>
        <time>2021-08-07T08:29:18.607Z</time>
      </trkpt>
      <trkpt lat="46.91496" lon="8.67706">
        <ele>1918</ele>
        <time>2021-08-07T08:29:19.606Z</time>
      </trkpt>
      <trkpt lat="46.91495" lon="8.67706">
        <ele>1919</ele>
        <time>2021-08-07T08:29:20.607Z</time>
      </trkpt>
      <trkpt lat="46.91495" lon="8.67706">
        <ele>1919</ele>
        <time>2021-08-07T08:29:21.607Z</time>
      </trkpt>
      <trkpt lat="46.91494" lon="8.67706">
        <ele>1920</ele>
        <time>2021-08-07T08:29:22.606Z</time>
      </trkpt>
      <trkpt lat="46.91493" lon="8.67706">
        <ele>1921</ele>
        <time>2021-08-07T08:29:23.607Z</time>
      </trkpt>
      <trkpt lat="46.91492" lon="8.67706">
        <ele>1921</ele>
        <time>2021-08-07T08:29:24.606Z</time>
      </trkpt>
      <trkpt lat="46.91492" lon="8.67705">
        <ele>1922</ele>
        <time>2021-08-07T08:29:25.607Z</time>
      </trkpt>
      <trkpt lat="46.91491" lon="8.67705">
        <ele>1923</ele>
        <time>2021-08-07T08:29:26.607Z</time>
      </trkpt>
      <trkpt lat="46.9149" lon="8.67705">
        <ele>1924</ele>
        <time>2021-08-07T08:29:27.606Z</time>
      </trkpt>
      <trkpt lat="46.91489" lon="8.67706">
        <ele>1925</ele>
        <time>2021-08-07T08:29:28.607Z</time>
      </trkpt>
      <trkpt lat="46.91488" lon="8.67707">
        <ele>1925</ele>
        <time>2021-08-07T08:29:29.607Z</time>
      </trkpt>
      <trkpt lat="46.91488" lon="8.67708">
        <ele>1925</ele>
        <time>2021-08-07T08:29:30.607Z</time>
      </trkpt>
      <trkpt lat="46.91487" lon="8.67709">
        <ele>1925</ele>
        <time>2021-08-07T08:29:31.607Z</time>
      </trkpt>
      <trkpt lat="46.91487" lon="8.6771">
        <ele>1924</ele>
        <time>2021-08-07T08:29:32.607Z</time>
      </trkpt>
      <trkpt lat="46.91487" lon="8.6771">
        <ele>1923</ele>
        <time>2021-08-07T08:29:33.606Z</time>
      </trkpt>
      <trkpt lat="46.91487" lon="8.6771">
        <ele>1923</ele>
        <time>2021-08-07T08:29:34.606Z</time>
      </trkpt>
      <trkpt lat="46.91486" lon="8.6771">
        <ele>1922</ele>
        <time>2021-08-07T08:29:35.607Z</time>
      </trkpt>
      <trkpt lat="46.91485" lon="8.6771">
        <ele>1922</ele>
        <time>2021-08-07T08:29:36.607Z</time>
      </trkpt>
      <trkpt lat="46.91484" lon="8.67708">
        <ele>1922</ele>
        <time>2021-08-07T08:29:37.607Z</time>
      </trkpt>
      <trkpt lat="46.91484" lon="8.67708">
        <ele>1922</ele>
        <time>2021-08-07T08:29:38.606Z</time>
      </trkpt>
      <trkpt lat="46.91484" lon="8.67707">
        <ele>1922</ele>
        <time>2021-08-07T08:29:39.606Z</time>
      </trkpt>
      <trkpt lat="46.91482" lon="8.67706">
        <ele>1922</ele>
        <time>2021-08-07T08:29:40.607Z</time>
      </trkpt>
      <trkpt lat="46.91481" lon="8.67707">
        <ele>1922</ele>
        <time>2021-08-07T08:29:41.608Z</time>
      </trkpt>
      <trkpt lat="46.9148" lon="8.67707">
        <ele>1921</ele>
        <time>2021-08-07T08:29:42.607Z</time>
      </trkpt>
      <trkpt lat="46.91479" lon="8.67708">
        <ele>1921</ele>
        <time>2021-08-07T08:29:43.607Z</time>
      </trkpt>
      <trkpt lat="46.91478" lon="8.6771">
        <ele>1920</ele>
        <time>2021-08-07T08:29:44.608Z</time>
      </trkpt>
      <trkpt lat="46.91477" lon="8.6771">
        <ele>1920</ele>
        <time>2021-08-07T08:29:45.608Z</time>
      </trkpt>
      <trkpt lat="46.91476" lon="8.67711">
        <ele>1919</ele>
        <time>2021-08-07T08:29:46.607Z</time>
      </trkpt>
      <trkpt lat="46.91475" lon="8.67712">
        <ele>1919</ele>
        <time>2021-08-07T08:29:47.608Z</time>
      </trkpt>
      <trkpt lat="46.91475" lon="8.67713">
        <ele>1919</ele>
        <time>2021-08-07T08:29:48.608Z</time>
      </trkpt>
      <trkpt lat="46.91475" lon="8.67713">
        <ele>1918</ele>
        <time>2021-08-07T08:29:49.608Z</time>
      </trkpt>
      <trkpt lat="46.91475" lon="8.67714">
        <ele>1918</ele>
        <time>2021-08-07T08:29:50.608Z</time>
      </trkpt>
      <trkpt lat="46.91475" lon="8.67714">
        <ele>1918</ele>
        <time>2021-08-07T08:29:51.608Z</time>
      </trkpt>
      <trkpt lat="46.91479" lon="8.67716">
        <ele>1918</ele>
        <time>2021-08-07T08:29:52.608Z</time>
      </trkpt>
      <trkpt lat="46.91479" lon="8.67715">
        <ele>1918</ele>
        <time>2021-08-07T08:29:53.607Z</time>
      </trkpt>
      <trkpt lat="46.91479" lon="8.67717">
        <ele>1917</ele>
        <time>2021-08-07T08:29:54.607Z</time>
      </trkpt>
      <trkpt lat="46.91479" lon="8.67718">
        <ele>1917</ele>
        <time>2021-08-07T08:29:55.607Z</time>
      </trkpt>
      <trkpt lat="46.91478" lon="8.67719">
        <ele>1916</ele>
        <time>2021-08-07T08:29:56.607Z</time>
      </trkpt>
      <trkpt lat="46.91478" lon="8.6772">
        <ele>1915</ele>
        <time>2021-08-07T08:29:57.607Z</time>
      </trkpt>
      <trkpt lat="46.91478" lon="8.67721">
        <ele>1914</ele>
        <time>2021-08-07T08:29:58.607Z</time>
      </trkpt>
      <trkpt lat="46.91477" lon="8.67722">
        <ele>1913</ele>
        <time>2021-08-07T08:29:59.608Z</time>
      </trkpt>
      <trkpt lat="46.91477" lon="8.67723">
        <ele>1912</ele>
        <time>2021-08-07T08:30:00.607Z</time>
      </trkpt>
      <trkpt lat="46.91476" lon="8.67723">
        <ele>1911</ele>
        <time>2021-08-07T08:30:01.607Z</time>
      </trkpt>
      <trkpt lat="46.91476" lon="8.67724">
        <ele>1911</ele>
        <time>2021-08-07T08:30:02.607Z</time>
      </trkpt>
      <trkpt lat="46.91476" lon="8.67725">
        <ele>1911</ele>
        <time>2021-08-07T08:30:03.607Z</time>
      </trkpt>
      <trkpt lat="46.91476" lon="8.67726">
        <ele>1911</ele>
        <time>2021-08-07T08:30:04.607Z</time>
      </trkpt>
      <trkpt lat="46.91475" lon="8.67726">
        <ele>1911</ele>
        <time>2021-08-07T08:30:05.607Z</time>
      </trkpt>
      <trkpt lat="46.91475" lon="8.67727">
        <ele>1911</ele>
        <time>2021-08-07T08:30:06.607Z</time>
      </trkpt>
      <trkpt lat="46.91474" lon="8.67728">
        <ele>1911</ele>
        <time>2021-08-07T08:30:07.607Z</time>
      </trkpt>
      <trkpt lat="46.91474" lon="8.6773">
        <ele>1910</ele>
        <time>2021-08-07T08:30:08.607Z</time>
      </trkpt>
      <trkpt lat="46.91473" lon="8.67732">
        <ele>1910</ele>
        <time>2021-08-07T08:30:09.607Z</time>
      </trkpt>
      <trkpt lat="46.91472" lon="8.67733">
        <ele>1910</ele>
        <time>2021-08-07T08:30:10.607Z</time>
      </trkpt>
      <trkpt lat="46.91472" lon="8.67735">
        <ele>1909</ele>
        <time>2021-08-07T08:30:11.607Z</time>
      </trkpt>
      <trkpt lat="46.91471" lon="8.67737">
        <ele>1909</ele>
        <time>2021-08-07T08:30:12.607Z</time>
      </trkpt>
      <trkpt lat="46.91471" lon="8.67738">
        <ele>1908</ele>
        <time>2021-08-07T08:30:13.607Z</time>
      </trkpt>
      <trkpt lat="46.9147" lon="8.67739">
        <ele>1907</ele>
        <time>2021-08-07T08:30:14.607Z</time>
      </trkpt>
      <trkpt lat="46.9147" lon="8.6774">
        <ele>1906</ele>
        <time>2021-08-07T08:30:15.607Z</time>
      </trkpt>
      <trkpt lat="46.91469" lon="8.67742">
        <ele>1906</ele>
        <time>2021-08-07T08:30:16.607Z</time>
      </trkpt>
      <trkpt lat="46.91468" lon="8.67742">
        <ele>1905</ele>
        <time>2021-08-07T08:30:17.607Z</time>
      </trkpt>
      <trkpt lat="46.91468" lon="8.67743">
        <ele>1905</ele>
        <time>2021-08-07T08:30:18.608Z</time>
      </trkpt>
      <trkpt lat="46.91467" lon="8.67743">
        <ele>1905</ele>
        <time>2021-08-07T08:30:19.607Z</time>
      </trkpt>
      <trkpt lat="46.91466" lon="8.67743">
        <ele>1905</ele>
        <time>2021-08-07T08:30:20.607Z</time>
      </trkpt>
      <trkpt lat="46.91465" lon="8.67744">
        <ele>1905</ele>
        <time>2021-08-07T08:30:21.607Z</time>
      </trkpt>
      <trkpt lat="46.91464" lon="8.67745">
        <ele>1905</ele>
        <time>2021-08-07T08:30:22.607Z</time>
      </trkpt>
      <trkpt lat="46.91464" lon="8.67745">
        <ele>1905</ele>
        <time>2021-08-07T08:30:23.607Z</time>
      </trkpt>
      <trkpt lat="46.91463" lon="8.67746">
        <ele>1905</ele>
        <time>2021-08-07T08:30:24.607Z</time>
      </trkpt>
      <trkpt lat="46.91462" lon="8.67747">
        <ele>1905</ele>
        <time>2021-08-07T08:30:25.607Z</time>
      </trkpt>
      <trkpt lat="46.91461" lon="8.67748">
        <ele>1904</ele>
        <time>2021-08-07T08:30:26.607Z</time>
      </trkpt>
      <trkpt lat="46.91461" lon="8.67748">
        <ele>1904</ele>
        <time>2021-08-07T08:30:27.607Z</time>
      </trkpt>
      <trkpt lat="46.9146" lon="8.67749">
        <ele>1904</ele>
        <time>2021-08-07T08:30:28.607Z</time>
      </trkpt>
      <trkpt lat="46.9146" lon="8.67749">
        <ele>1903</ele>
        <time>2021-08-07T08:30:29.607Z</time>
      </trkpt>
      <trkpt lat="46.91459" lon="8.6775">
        <ele>1903</ele>
        <time>2021-08-07T08:30:30.608Z</time>
      </trkpt>
      <trkpt lat="46.91459" lon="8.6775">
        <ele>1903</ele>
        <time>2021-08-07T08:30:31.608Z</time>
      </trkpt>
      <trkpt lat="46.91458" lon="8.67751">
        <ele>1903</ele>
        <time>2021-08-07T08:30:32.607Z</time>
      </trkpt>
      <trkpt lat="46.91457" lon="8.67751">
        <ele>1904</ele>
        <time>2021-08-07T08:30:33.607Z</time>
      </trkpt>
      <trkpt lat="46.91456" lon="8.67751">
        <ele>1904</ele>
        <time>2021-08-07T08:30:34.608Z</time>
      </trkpt>
      <trkpt lat="46.91456" lon="8.67751">
        <ele>1905</ele>
        <time>2021-08-07T08:30:35.608Z</time>
      </trkpt>
      <trkpt lat="46.91455" lon="8.67751">
        <ele>1906</ele>
        <time>2021-08-07T08:30:36.607Z</time>
      </trkpt>
      <trkpt lat="46.91454" lon="8.6775">
        <ele>1906</ele>
        <time>2021-08-07T08:30:37.607Z</time>
      </trkpt>
      <trkpt lat="46.91453" lon="8.6775">
        <ele>1907</ele>
        <time>2021-08-07T08:30:38.607Z</time>
      </trkpt>
      <trkpt lat="46.91453" lon="8.67751">
        <ele>1907</ele>
        <time>2021-08-07T08:30:39.608Z</time>
      </trkpt>
      <trkpt lat="46.91452" lon="8.67753">
        <ele>1906</ele>
        <time>2021-08-07T08:30:40.608Z</time>
      </trkpt>
      <trkpt lat="46.91451" lon="8.67755">
        <ele>1906</ele>
        <time>2021-08-07T08:30:41.607Z</time>
      </trkpt>
      <trkpt lat="46.91451" lon="8.67757">
        <ele>1905</ele>
        <time>2021-08-07T08:30:42.607Z</time>
      </trkpt>
      <trkpt lat="46.9145" lon="8.67758">
        <ele>1905</ele>
        <time>2021-08-07T08:30:43.607Z</time>
      </trkpt>
      <trkpt lat="46.9145" lon="8.67759">
        <ele>1904</ele>
        <time>2021-08-07T08:30:44.608Z</time>
      </trkpt>
      <trkpt lat="46.91449" lon="8.6776">
        <ele>1903</ele>
        <time>2021-08-07T08:30:45.608Z</time>
      </trkpt>
      <trkpt lat="46.91448" lon="8.67761">
        <ele>1903</ele>
        <time>2021-08-07T08:30:46.607Z</time>
      </trkpt>
      <trkpt lat="46.91448" lon="8.67762">
        <ele>1902</ele>
        <time>2021-08-07T08:30:47.607Z</time>
      </trkpt>
      <trkpt lat="46.91448" lon="8.67764">
        <ele>1901</ele>
        <time>2021-08-07T08:30:48.607Z</time>
      </trkpt>
      <trkpt lat="46.91447" lon="8.67765">
        <ele>1901</ele>
        <time>2021-08-07T08:30:49.607Z</time>
      </trkpt>
      <trkpt lat="46.91446" lon="8.67766">
        <ele>1900</ele>
        <time>2021-08-07T08:30:50.608Z</time>
      </trkpt>
      <trkpt lat="46.91445" lon="8.67768">
        <ele>1899</ele>
        <time>2021-08-07T08:30:51.608Z</time>
      </trkpt>
      <trkpt lat="46.91444" lon="8.67768">
        <ele>1898</ele>
        <time>2021-08-07T08:30:52.608Z</time>
      </trkpt>
      <trkpt lat="46.91443" lon="8.67769">
        <ele>1898</ele>
        <time>2021-08-07T08:30:53.607Z</time>
      </trkpt>
      <trkpt lat="46.91443" lon="8.67769">
        <ele>1898</ele>
        <time>2021-08-07T08:30:54.607Z</time>
      </trkpt>
      <trkpt lat="46.91442" lon="8.67769">
        <ele>1898</ele>
        <time>2021-08-07T08:30:55.607Z</time>
      </trkpt>
      <trkpt lat="46.91442" lon="8.67769">
        <ele>1898</ele>
        <time>2021-08-07T08:30:56.607Z</time>
      </trkpt>
      <trkpt lat="46.91441" lon="8.67769">
        <ele>1898</ele>
        <time>2021-08-07T08:30:57.607Z</time>
      </trkpt>
      <trkpt lat="46.9144" lon="8.6777">
        <ele>1898</ele>
        <time>2021-08-07T08:30:58.607Z</time>
      </trkpt>
      <trkpt lat="46.9144" lon="8.6777">
        <ele>1897</ele>
        <time>2021-08-07T08:30:59.607Z</time>
      </trkpt>
      <trkpt lat="46.91439" lon="8.6777">
        <ele>1896</ele>
        <time>2021-08-07T08:31:00.607Z</time>
      </trkpt>
      <trkpt lat="46.91438" lon="8.6777">
        <ele>1896</ele>
        <time>2021-08-07T08:31:01.608Z</time>
      </trkpt>
      <trkpt lat="46.91437" lon="8.67771">
        <ele>1896</ele>
        <time>2021-08-07T08:31:02.608Z</time>
      </trkpt>
      <trkpt lat="46.91436" lon="8.67771">
        <ele>1896</ele>
        <time>2021-08-07T08:31:03.608Z</time>
      </trkpt>
      <trkpt lat="46.91435" lon="8.67771">
        <ele>1895</ele>
        <time>2021-08-07T08:31:04.608Z</time>
      </trkpt>
      <trkpt lat="46.91435" lon="8.67772">
        <ele>1895</ele>
        <time>2021-08-07T08:31:05.608Z</time>
      </trkpt>
      <trkpt lat="46.91434" lon="8.67773">
        <ele>1894</ele>
        <time>2021-08-07T08:31:06.607Z</time>
      </trkpt>
      <trkpt lat="46.91434" lon="8.67774">
        <ele>1893</ele>
        <time>2021-08-07T08:31:07.607Z</time>
      </trkpt>
      <trkpt lat="46.91433" lon="8.67775">
        <ele>1893</ele>
        <time>2021-08-07T08:31:08.608Z</time>
      </trkpt>
      <trkpt lat="46.91433" lon="8.67775">
        <ele>1892</ele>
        <time>2021-08-07T08:31:09.607Z</time>
      </trkpt>
      <trkpt lat="46.91432" lon="8.67776">
        <ele>1892</ele>
        <time>2021-08-07T08:31:10.608Z</time>
      </trkpt>
      <trkpt lat="46.91431" lon="8.67776">
        <ele>1891</ele>
        <time>2021-08-07T08:31:11.608Z</time>
      </trkpt>
      <trkpt lat="46.9143" lon="8.67776">
        <ele>1891</ele>
        <time>2021-08-07T08:31:12.608Z</time>
      </trkpt>
      <trkpt lat="46.9143" lon="8.67777">
        <ele>1891</ele>
        <time>2021-08-07T08:31:13.608Z</time>
      </trkpt>
      <trkpt lat="46.91429" lon="8.67777">
        <ele>1891</ele>
        <time>2021-08-07T08:31:14.608Z</time>
      </trkpt>
      <trkpt lat="46.91428" lon="8.67778">
        <ele>1890</ele>
        <time>2021-08-07T08:31:15.608Z</time>
      </trkpt>
      <trkpt lat="46.91428" lon="8.67779">
        <ele>1889</ele>
        <time>2021-08-07T08:31:16.608Z</time>
      </trkpt>
      <trkpt lat="46.91428" lon="8.6778">
        <ele>1889</ele>
        <time>2021-08-07T08:31:17.608Z</time>
      </trkpt>
      <trkpt lat="46.91427" lon="8.67781">
        <ele>1888</ele>
        <time>2021-08-07T08:31:18.608Z</time>
      </trkpt>
      <trkpt lat="46.91426" lon="8.67782">
        <ele>1888</ele>
        <time>2021-08-07T08:31:19.607Z</time>
      </trkpt>
      <trkpt lat="46.91426" lon="8.67783">
        <ele>1887</ele>
        <time>2021-08-07T08:31:20.608Z</time>
      </trkpt>
      <trkpt lat="46.91425" lon="8.67783">
        <ele>1887</ele>
        <time>2021-08-07T08:31:21.608Z</time>
      </trkpt>
      <trkpt lat="46.91425" lon="8.67784">
        <ele>1888</ele>
        <time>2021-08-07T08:31:22.608Z</time>
      </trkpt>
      <trkpt lat="46.91425" lon="8.67786">
        <ele>1888</ele>
        <time>2021-08-07T08:31:23.608Z</time>
      </trkpt>
      <trkpt lat="46.91424" lon="8.67787">
        <ele>1888</ele>
        <time>2021-08-07T08:31:24.608Z</time>
      </trkpt>
      <trkpt lat="46.91424" lon="8.67787">
        <ele>1887</ele>
        <time>2021-08-07T08:31:25.607Z</time>
      </trkpt>
      <trkpt lat="46.91423" lon="8.67787">
        <ele>1887</ele>
        <time>2021-08-07T08:31:26.608Z</time>
      </trkpt>
      <trkpt lat="46.91423" lon="8.67786">
        <ele>1887</ele>
        <time>2021-08-07T08:31:27.607Z</time>
      </trkpt>
      <trkpt lat="46.91423" lon="8.67785">
        <ele>1887</ele>
        <time>2021-08-07T08:31:28.608Z</time>
      </trkpt>
      <trkpt lat="46.91423" lon="8.67784">
        <ele>1887</ele>
        <time>2021-08-07T08:31:29.608Z</time>
      </trkpt>
      <trkpt lat="46.91423" lon="8.67783">
        <ele>1887</ele>
        <time>2021-08-07T08:31:30.607Z</time>
      </trkpt>
      <trkpt lat="46.91424" lon="8.67782">
        <ele>1887</ele>
        <time>2021-08-07T08:31:31.607Z</time>
      </trkpt>
      <trkpt lat="46.91423" lon="8.67781">
        <ele>1887</ele>
        <time>2021-08-07T08:31:32.608Z</time>
      </trkpt>
      <trkpt lat="46.91424" lon="8.67779">
        <ele>1887</ele>
        <time>2021-08-07T08:31:33.607Z</time>
      </trkpt>
      <trkpt lat="46.91424" lon="8.67778">
        <ele>1887</ele>
        <time>2021-08-07T08:31:34.608Z</time>
      </trkpt>
      <trkpt lat="46.91424" lon="8.67776">
        <ele>1887</ele>
        <time>2021-08-07T08:31:35.607Z</time>
      </trkpt>
      <trkpt lat="46.91424" lon="8.67775">
        <ele>1887</ele>
        <time>2021-08-07T08:31:36.608Z</time>
      </trkpt>
      <trkpt lat="46.91424" lon="8.67774">
        <ele>1887</ele>
        <time>2021-08-07T08:31:37.607Z</time>
      </trkpt>
      <trkpt lat="46.91424" lon="8.67773">
        <ele>1887</ele>
        <time>2021-08-07T08:31:38.608Z</time>
      </trkpt>
      <trkpt lat="46.91424" lon="8.67772">
        <ele>1887</ele>
        <time>2021-08-07T08:31:39.608Z</time>
      </trkpt>
      <trkpt lat="46.91424" lon="8.6777">
        <ele>1886</ele>
        <time>2021-08-07T08:31:40.607Z</time>
      </trkpt>
      <trkpt lat="46.91425" lon="8.67769">
        <ele>1886</ele>
        <time>2021-08-07T08:31:41.607Z</time>
      </trkpt>
      <trkpt lat="46.91425" lon="8.67768">
        <ele>1887</ele>
        <time>2021-08-07T08:31:42.608Z</time>
      </trkpt>
      <trkpt lat="46.91426" lon="8.67766">
        <ele>1887</ele>
        <time>2021-08-07T08:31:43.607Z</time>
      </trkpt>
      <trkpt lat="46.91426" lon="8.67765">
        <ele>1886</ele>
        <time>2021-08-07T08:31:44.608Z</time>
      </trkpt>
      <trkpt lat="46.91426" lon="8.67764">
        <ele>1886</ele>
        <time>2021-08-07T08:31:45.608Z</time>
      </trkpt>
      <trkpt lat="46.91426" lon="8.67763">
        <ele>1887</ele>
        <time>2021-08-07T08:31:46.608Z</time>
      </trkpt>
      <trkpt lat="46.91425" lon="8.67763">
        <ele>1887</ele>
        <time>2021-08-07T08:31:47.607Z</time>
      </trkpt>
      <trkpt lat="46.91425" lon="8.67762">
        <ele>1887</ele>
        <time>2021-08-07T08:31:48.608Z</time>
      </trkpt>
      <trkpt lat="46.91425" lon="8.67762">
        <ele>1886</ele>
        <time>2021-08-07T08:31:49.607Z</time>
      </trkpt>
      <trkpt lat="46.91424" lon="8.67761">
        <ele>1886</ele>
        <time>2021-08-07T08:31:50.608Z</time>
      </trkpt>
      <trkpt lat="46.91424" lon="8.67761">
        <ele>1886</ele>
        <time>2021-08-07T08:31:51.607Z</time>
      </trkpt>
      <trkpt lat="46.91423" lon="8.6776">
        <ele>1886</ele>
        <time>2021-08-07T08:31:52.608Z</time>
      </trkpt>
      <trkpt lat="46.91423" lon="8.6776">
        <ele>1887</ele>
        <time>2021-08-07T08:31:53.608Z</time>
      </trkpt>
      <trkpt lat="46.91422" lon="8.67759">
        <ele>1888</ele>
        <time>2021-08-07T08:31:54.608Z</time>
      </trkpt>
      <trkpt lat="46.91421" lon="8.67758">
        <ele>1888</ele>
        <time>2021-08-07T08:31:55.608Z</time>
      </trkpt>
      <trkpt lat="46.9142" lon="8.67758">
        <ele>1889</ele>
        <time>2021-08-07T08:31:56.607Z</time>
      </trkpt>
      <trkpt lat="46.91419" lon="8.67758">
        <ele>1889</ele>
        <time>2021-08-07T08:31:57.608Z</time>
      </trkpt>
      <trkpt lat="46.91418" lon="8.67758">
        <ele>1890</ele>
        <time>2021-08-07T08:31:58.608Z</time>
      </trkpt>
      <trkpt lat="46.91417" lon="8.67758">
        <ele>1890</ele>
        <time>2021-08-07T08:31:59.608Z</time>
      </trkpt>
      <trkpt lat="46.91417" lon="8.67759">
        <ele>1890</ele>
        <time>2021-08-07T08:32:00.608Z</time>
      </trkpt>
      <trkpt lat="46.91415" lon="8.6776">
        <ele>1890</ele>
        <time>2021-08-07T08:32:01.607Z</time>
      </trkpt>
      <trkpt lat="46.91414" lon="8.67761">
        <ele>1890</ele>
        <time>2021-08-07T08:32:02.607Z</time>
      </trkpt>
      <trkpt lat="46.91413" lon="8.67762">
        <ele>1890</ele>
        <time>2021-08-07T08:32:03.608Z</time>
      </trkpt>
      <trkpt lat="46.91412" lon="8.67762">
        <ele>1890</ele>
        <time>2021-08-07T08:32:04.608Z</time>
      </trkpt>
      <trkpt lat="46.91412" lon="8.67763">
        <ele>1890</ele>
        <time>2021-08-07T08:32:05.608Z</time>
      </trkpt>
      <trkpt lat="46.91411" lon="8.67764">
        <ele>1890</ele>
        <time>2021-08-07T08:32:06.607Z</time>
      </trkpt>
      <trkpt lat="46.9141" lon="8.67764">
        <ele>1890</ele>
        <time>2021-08-07T08:32:07.608Z</time>
      </trkpt>
      <trkpt lat="46.9141" lon="8.67766">
        <ele>1889</ele>
        <time>2021-08-07T08:32:08.607Z</time>
      </trkpt>
      <trkpt lat="46.91409" lon="8.67767">
        <ele>1889</ele>
        <time>2021-08-07T08:32:09.607Z</time>
      </trkpt>
      <trkpt lat="46.91409" lon="8.67768">
        <ele>1888</ele>
        <time>2021-08-07T08:32:10.608Z</time>
      </trkpt>
      <trkpt lat="46.91408" lon="8.67769">
        <ele>1888</ele>
        <time>2021-08-07T08:32:11.608Z</time>
      </trkpt>
      <trkpt lat="46.91407" lon="8.6777">
        <ele>1888</ele>
        <time>2021-08-07T08:32:12.608Z</time>
      </trkpt>
      <trkpt lat="46.91407" lon="8.67771">
        <ele>1887</ele>
        <time>2021-08-07T08:32:13.608Z</time>
      </trkpt>
      <trkpt lat="46.91406" lon="8.67772">
        <ele>1887</ele>
        <time>2021-08-07T08:32:14.608Z</time>
      </trkpt>
      <trkpt lat="46.91405" lon="8.67773">
        <ele>1886</ele>
        <time>2021-08-07T08:32:15.608Z</time>
      </trkpt>
      <trkpt lat="46.91405" lon="8.67774">
        <ele>1886</ele>
        <time>2021-08-07T08:32:16.608Z</time>
      </trkpt>
      <trkpt lat="46.91404" lon="8.67776">
        <ele>1885</ele>
        <time>2021-08-07T08:32:17.607Z</time>
      </trkpt>
      <trkpt lat="46.91403" lon="8.67777">
        <ele>1885</ele>
        <time>2021-08-07T08:32:18.608Z</time>
      </trkpt>
      <trkpt lat="46.91403" lon="8.67779">
        <ele>1885</ele>
        <time>2021-08-07T08:32:19.607Z</time>
      </trkpt>
      <trkpt lat="46.91403" lon="8.6778">
        <ele>1885</ele>
        <time>2021-08-07T08:32:20.607Z</time>
      </trkpt>
      <trkpt lat="46.91402" lon="8.67782">
        <ele>1884</ele>
        <time>2021-08-07T08:32:21.608Z</time>
      </trkpt>
      <trkpt lat="46.91402" lon="8.67783">
        <ele>1884</ele>
        <time>2021-08-07T08:32:22.607Z</time>
      </trkpt>
      <trkpt lat="46.91401" lon="8.67784">
        <ele>1884</ele>
        <time>2021-08-07T08:32:23.608Z</time>
      </trkpt>
      <trkpt lat="46.91401" lon="8.67785">
        <ele>1883</ele>
        <time>2021-08-07T08:32:24.607Z</time>
      </trkpt>
      <trkpt lat="46.914" lon="8.67786">
        <ele>1882</ele>
        <time>2021-08-07T08:32:25.608Z</time>
      </trkpt>
      <trkpt lat="46.91399" lon="8.67786">
        <ele>1882</ele>
        <time>2021-08-07T08:32:26.608Z</time>
      </trkpt>
      <trkpt lat="46.91398" lon="8.67787">
        <ele>1882</ele>
        <time>2021-08-07T08:32:27.608Z</time>
      </trkpt>
      <trkpt lat="46.91397" lon="8.67787">
        <ele>1882</ele>
        <time>2021-08-07T08:32:28.608Z</time>
      </trkpt>
      <trkpt lat="46.91396" lon="8.67788">
        <ele>1882</ele>
        <time>2021-08-07T08:32:29.607Z</time>
      </trkpt>
      <trkpt lat="46.91396" lon="8.67789">
        <ele>1882</ele>
        <time>2021-08-07T08:32:30.608Z</time>
      </trkpt>
      <trkpt lat="46.91395" lon="8.6779">
        <ele>1882</ele>
        <time>2021-08-07T08:32:31.607Z</time>
      </trkpt>
      <trkpt lat="46.91395" lon="8.67791">
        <ele>1881</ele>
        <time>2021-08-07T08:32:32.608Z</time>
      </trkpt>
      <trkpt lat="46.91395" lon="8.67791">
        <ele>1881</ele>
        <time>2021-08-07T08:32:33.608Z</time>
      </trkpt>
      <trkpt lat="46.91395" lon="8.67791">
        <ele>1880</ele>
        <time>2021-08-07T08:32:34.607Z</time>
      </trkpt>
      <trkpt lat="46.91396" lon="8.67791">
        <ele>1879</ele>
        <time>2021-08-07T08:32:35.609Z</time>
      </trkpt>
      <trkpt lat="46.91396" lon="8.67791">
        <ele>1878</ele>
        <time>2021-08-07T08:32:36.609Z</time>
      </trkpt>
      <trkpt lat="46.91396" lon="8.67791">
        <ele>1877</ele>
        <time>2021-08-07T08:32:37.608Z</time>
      </trkpt>
      <trkpt lat="46.91397" lon="8.67791">
        <ele>1876</ele>
        <time>2021-08-07T08:32:38.608Z</time>
      </trkpt>
      <trkpt lat="46.91397" lon="8.67792">
        <ele>1872</ele>
        <time>2021-08-07T08:32:39.609Z</time>
      </trkpt>
      <trkpt lat="46.91396" lon="8.67795">
        <ele>1871</ele>
        <time>2021-08-07T08:32:40.610Z</time>
      </trkpt>
      <trkpt lat="46.91396" lon="8.67795">
        <ele>1871</ele>
        <time>2021-08-07T08:32:41.610Z</time>
      </trkpt>
      <trkpt lat="46.91395" lon="8.67795">
        <ele>1871</ele>
        <time>2021-08-07T08:32:42.609Z</time>
      </trkpt>
      <trkpt lat="46.91395" lon="8.67795">
        <ele>1870</ele>
        <time>2021-08-07T08:32:43.609Z</time>
      </trkpt>
      <trkpt lat="46.91395" lon="8.67795">
        <ele>1870</ele>
        <time>2021-08-07T08:32:44.609Z</time>
      </trkpt>
      <trkpt lat="46.91394" lon="8.67796">
        <ele>1870</ele>
        <time>2021-08-07T08:32:45.610Z</time>
      </trkpt>
      <trkpt lat="46.91394" lon="8.67796">
        <ele>1870</ele>
        <time>2021-08-07T08:32:46.609Z</time>
      </trkpt>
      <trkpt lat="46.91393" lon="8.67796">
        <ele>1870</ele>
        <time>2021-08-07T08:32:47.610Z</time>
      </trkpt>
      <trkpt lat="46.91393" lon="8.67796">
        <ele>1870</ele>
        <time>2021-08-07T08:32:48.610Z</time>
      </trkpt>
      <trkpt lat="46.91393" lon="8.67796">
        <ele>1869</ele>
        <time>2021-08-07T08:32:49.610Z</time>
      </trkpt>
      <trkpt lat="46.91392" lon="8.67796">
        <ele>1869</ele>
        <time>2021-08-07T08:32:50.610Z</time>
      </trkpt>
      <trkpt lat="46.91392" lon="8.67796">
        <ele>1869</ele>
        <time>2021-08-07T08:32:51.609Z</time>
      </trkpt>
      <trkpt lat="46.9139" lon="8.678">
        <ele>1868</ele>
        <time>2021-08-07T08:32:52.611Z</time>
      </trkpt>
      <trkpt lat="46.91389" lon="8.67799">
        <ele>1868</ele>
        <time>2021-08-07T08:32:53.610Z</time>
      </trkpt>
      <trkpt lat="46.91389" lon="8.67799">
        <ele>1869</ele>
        <time>2021-08-07T08:32:54.610Z</time>
      </trkpt>
      <trkpt lat="46.91389" lon="8.67799">
        <ele>1869</ele>
        <time>2021-08-07T08:32:55.611Z</time>
      </trkpt>
      <trkpt lat="46.91388" lon="8.67799">
        <ele>1870</ele>
        <time>2021-08-07T08:32:56.611Z</time>
      </trkpt>
      <trkpt lat="46.91388" lon="8.678">
        <ele>1870</ele>
        <time>2021-08-07T08:32:57.610Z</time>
      </trkpt>
      <trkpt lat="46.91388" lon="8.67801">
        <ele>1871</ele>
        <time>2021-08-07T08:32:58.611Z</time>
      </trkpt>
      <trkpt lat="46.91387" lon="8.67801">
        <ele>1871</ele>
        <time>2021-08-07T08:32:59.611Z</time>
      </trkpt>
      <trkpt lat="46.91387" lon="8.67801">
        <ele>1871</ele>
        <time>2021-08-07T08:33:00.611Z</time>
      </trkpt>
      <trkpt lat="46.91387" lon="8.67801">
        <ele>1872</ele>
        <time>2021-08-07T08:33:01.610Z</time>
      </trkpt>
      <trkpt lat="46.91387" lon="8.67802">
        <ele>1872</ele>
        <time>2021-08-07T08:33:02.610Z</time>
      </trkpt>
      <trkpt lat="46.91388" lon="8.67804">
        <ele>1872</ele>
        <time>2021-08-07T08:33:03.610Z</time>
      </trkpt>
      <trkpt lat="46.91389" lon="8.67804">
        <ele>1872</ele>
        <time>2021-08-07T08:33:04.611Z</time>
      </trkpt>
      <trkpt lat="46.91389" lon="8.67804">
        <ele>1872</ele>
        <time>2021-08-07T08:33:05.611Z</time>
      </trkpt>
      <trkpt lat="46.91389" lon="8.67804">
        <ele>1872</ele>
        <time>2021-08-07T08:33:06.610Z</time>
      </trkpt>
      <trkpt lat="46.91388" lon="8.67802">
        <ele>1873</ele>
        <time>2021-08-07T08:33:07.611Z</time>
      </trkpt>
      <trkpt lat="46.91388" lon="8.67803">
        <ele>1872</ele>
        <time>2021-08-07T08:33:08.611Z</time>
      </trkpt>
      <trkpt lat="46.91389" lon="8.67803">
        <ele>1871</ele>
        <time>2021-08-07T08:33:09.613Z</time>
      </trkpt>
      <trkpt lat="46.91387" lon="8.67802">
        <ele>1867</ele>
        <time>2021-08-07T08:33:10.613Z</time>
      </trkpt>
      <trkpt lat="46.91388" lon="8.67802">
        <ele>1865</ele>
        <time>2021-08-07T08:33:11.612Z</time>
      </trkpt>
      <trkpt lat="46.91387" lon="8.67802">
        <ele>1865</ele>
        <time>2021-08-07T08:33:12.612Z</time>
      </trkpt>
      <trkpt lat="46.91386" lon="8.67804">
        <ele>1866</ele>
        <time>2021-08-07T08:33:13.613Z</time>
      </trkpt>
      <trkpt lat="46.91386" lon="8.67804">
        <ele>1866</ele>
        <time>2021-08-07T08:33:14.613Z</time>
      </trkpt>
      <trkpt lat="46.91387" lon="8.67804">
        <ele>1866</ele>
        <time>2021-08-07T08:33:15.613Z</time>
      </trkpt>
      <trkpt lat="46.91387" lon="8.67804">
        <ele>1866</ele>
        <time>2021-08-07T08:33:16.613Z</time>
      </trkpt>
      <trkpt lat="46.91387" lon="8.67804">
        <ele>1866</ele>
        <time>2021-08-07T08:33:17.612Z</time>
      </trkpt>
      <trkpt lat="46.91386" lon="8.67804">
        <ele>1866</ele>
        <time>2021-08-07T08:33:18.613Z</time>
      </trkpt>
      <trkpt lat="46.91386" lon="8.67804">
        <ele>1866</ele>
        <time>2021-08-07T08:33:19.614Z</time>
      </trkpt>
      <trkpt lat="46.91387" lon="8.67804">
        <ele>1866</ele>
        <time>2021-08-07T08:33:20.614Z</time>
      </trkpt>
      <trkpt lat="46.91387" lon="8.67804">
        <ele>1866</ele>
        <time>2021-08-07T08:33:21.613Z</time>
      </trkpt>
      <trkpt lat="46.91387" lon="8.67804">
        <ele>1866</ele>
        <time>2021-08-07T08:33:22.614Z</time>
      </trkpt>
      <trkpt lat="46.91387" lon="8.67804">
        <ele>1867</ele>
        <time>2021-08-07T08:33:23.614Z</time>
      </trkpt>
      <trkpt lat="46.91387" lon="8.67804">
        <ele>1867</ele>
        <time>2021-08-07T08:33:24.613Z</time>
      </trkpt>
      <trkpt lat="46.91387" lon="8.67804">
        <ele>1867</ele>
        <time>2021-08-07T08:33:25.614Z</time>
      </trkpt>
      <trkpt lat="46.91387" lon="8.67803">
        <ele>1868</ele>
        <time>2021-08-07T08:33:26.613Z</time>
      </trkpt>
      <trkpt lat="46.91386" lon="8.67803">
        <ele>1868</ele>
        <time>2021-08-07T08:33:27.613Z</time>
      </trkpt>
      <trkpt lat="46.91386" lon="8.67803">
        <ele>1868</ele>
        <time>2021-08-07T08:33:28.614Z</time>
      </trkpt>
      <trkpt lat="46.91387" lon="8.67803">
        <ele>1869</ele>
        <time>2021-08-07T08:33:29.613Z</time>
      </trkpt>
      <trkpt lat="46.91388" lon="8.67801">
        <ele>1865</ele>
        <time>2021-08-07T08:33:30.614Z</time>
      </trkpt>
      <trkpt lat="46.9139" lon="8.67799">
        <ele>1868</ele>
        <time>2021-08-07T08:33:31.615Z</time>
      </trkpt>
      <trkpt lat="46.91391" lon="8.67798">
        <ele>1868</ele>
        <time>2021-08-07T08:33:32.615Z</time>
      </trkpt>
      <trkpt lat="46.91391" lon="8.67798">
        <ele>1868</ele>
        <time>2021-08-07T08:33:33.614Z</time>
      </trkpt>
      <trkpt lat="46.91391" lon="8.67798">
        <ele>1868</ele>
        <time>2021-08-07T08:33:34.615Z</time>
      </trkpt>
      <trkpt lat="46.91391" lon="8.67798">
        <ele>1868</ele>
        <time>2021-08-07T08:33:35.614Z</time>
      </trkpt>
      <trkpt lat="46.91391" lon="8.67799">
        <ele>1868</ele>
        <time>2021-08-07T08:33:36.615Z</time>
      </trkpt>
      <trkpt lat="46.91391" lon="8.67799">
        <ele>1867</ele>
        <time>2021-08-07T08:33:37.615Z</time>
      </trkpt>
      <trkpt lat="46.91391" lon="8.678">
        <ele>1867</ele>
        <time>2021-08-07T08:33:38.615Z</time>
      </trkpt>
      <trkpt lat="46.91392" lon="8.678">
        <ele>1867</ele>
        <time>2021-08-07T08:33:39.615Z</time>
      </trkpt>
      <trkpt lat="46.91392" lon="8.67801">
        <ele>1867</ele>
        <time>2021-08-07T08:33:40.615Z</time>
      </trkpt>
      <trkpt lat="46.91393" lon="8.678">
        <ele>1868</ele>
        <time>2021-08-07T08:33:41.616Z</time>
      </trkpt>
      <trkpt lat="46.91393" lon="8.678">
        <ele>1869</ele>
        <time>2021-08-07T08:33:42.616Z</time>
      </trkpt>
      <trkpt lat="46.91393" lon="8.678">
        <ele>1870</ele>
        <time>2021-08-07T08:33:43.615Z</time>
      </trkpt>
      <trkpt lat="46.91393" lon="8.678">
        <ele>1871</ele>
        <time>2021-08-07T08:33:44.615Z</time>
      </trkpt>
      <trkpt lat="46.91393" lon="8.678">
        <ele>1872</ele>
        <time>2021-08-07T08:33:45.616Z</time>
      </trkpt>
      <trkpt lat="46.91395" lon="8.678">
        <ele>1872</ele>
        <time>2021-08-07T08:33:46.616Z</time>
      </trkpt>
      <trkpt lat="46.91398" lon="8.67799">
        <ele>1873</ele>
        <time>2021-08-07T08:33:47.616Z</time>
      </trkpt>
      <trkpt lat="46.91398" lon="8.67798">
        <ele>1874</ele>
        <time>2021-08-07T08:33:48.616Z</time>
      </trkpt>
      <trkpt lat="46.91397" lon="8.67797">
        <ele>1874</ele>
        <time>2021-08-07T08:33:49.615Z</time>
      </trkpt>
      <trkpt lat="46.91396" lon="8.67797">
        <ele>1875</ele>
        <time>2021-08-07T08:33:50.615Z</time>
      </trkpt>
      <trkpt lat="46.91396" lon="8.67797">
        <ele>1875</ele>
        <time>2021-08-07T08:33:51.616Z</time>
      </trkpt>
      <trkpt lat="46.91396" lon="8.67796">
        <ele>1875</ele>
        <time>2021-08-07T08:33:52.616Z</time>
      </trkpt>
      <trkpt lat="46.91395" lon="8.67795">
        <ele>1873</ele>
        <time>2021-08-07T08:33:53.616Z</time>
      </trkpt>
      <trkpt lat="46.91395" lon="8.67795">
        <ele>1873</ele>
        <time>2021-08-07T08:33:54.615Z</time>
      </trkpt>
      <trkpt lat="46.91395" lon="8.67796">
        <ele>1873</ele>
        <time>2021-08-07T08:33:55.615Z</time>
      </trkpt>
      <trkpt lat="46.91395" lon="8.67797">
        <ele>1870</ele>
        <time>2021-08-07T08:33:56.617Z</time>
      </trkpt>
      <trkpt lat="46.91393" lon="8.67796">
        <ele>1868</ele>
        <time>2021-08-07T08:33:57.618Z</time>
      </trkpt>
      <trkpt lat="46.91393" lon="8.67795">
        <ele>1869</ele>
        <time>2021-08-07T08:33:58.618Z</time>
      </trkpt>
      <trkpt lat="46.91392" lon="8.67795">
        <ele>1869</ele>
        <time>2021-08-07T08:33:59.617Z</time>
      </trkpt>
      <trkpt lat="46.91391" lon="8.67795">
        <ele>1870</ele>
        <time>2021-08-07T08:34:00.617Z</time>
      </trkpt>
      <trkpt lat="46.91391" lon="8.67796">
        <ele>1870</ele>
        <time>2021-08-07T08:34:01.618Z</time>
      </trkpt>
      <trkpt lat="46.9139" lon="8.67797">
        <ele>1871</ele>
        <time>2021-08-07T08:34:02.618Z</time>
      </trkpt>
      <trkpt lat="46.9139" lon="8.67798">
        <ele>1871</ele>
        <time>2021-08-07T08:34:03.618Z</time>
      </trkpt>
      <trkpt lat="46.91389" lon="8.67798">
        <ele>1871</ele>
        <time>2021-08-07T08:34:04.618Z</time>
      </trkpt>
      <trkpt lat="46.91389" lon="8.67799">
        <ele>1872</ele>
        <time>2021-08-07T08:34:05.618Z</time>
      </trkpt>
      <trkpt lat="46.91389" lon="8.67799">
        <ele>1872</ele>
        <time>2021-08-07T08:34:06.618Z</time>
      </trkpt>
      <trkpt lat="46.91389" lon="8.67797">
        <ele>1873</ele>
        <time>2021-08-07T08:34:07.619Z</time>
      </trkpt>
      <trkpt lat="46.91389" lon="8.67797">
        <ele>1873</ele>
        <time>2021-08-07T08:34:08.619Z</time>
      </trkpt>
      <trkpt lat="46.91388" lon="8.67796">
        <ele>1878</ele>
        <time>2021-08-07T08:34:09.618Z</time>
      </trkpt>
      <trkpt lat="46.91387" lon="8.67797">
        <ele>1878</ele>
        <time>2021-08-07T08:34:10.619Z</time>
      </trkpt>
      <trkpt lat="46.91387" lon="8.67798">
        <ele>1878</ele>
        <time>2021-08-07T08:34:11.618Z</time>
      </trkpt>
      <trkpt lat="46.91386" lon="8.67798">
        <ele>1878</ele>
        <time>2021-08-07T08:34:12.619Z</time>
      </trkpt>
      <trkpt lat="46.91385" lon="8.67798">
        <ele>1878</ele>
        <time>2021-08-07T08:34:13.619Z</time>
      </trkpt>
      <trkpt lat="46.91385" lon="8.67798">
        <ele>1878</ele>
        <time>2021-08-07T08:34:14.618Z</time>
      </trkpt>
      <trkpt lat="46.91384" lon="8.67799">
        <ele>1877</ele>
        <time>2021-08-07T08:34:15.618Z</time>
      </trkpt>
      <trkpt lat="46.91383" lon="8.67801">
        <ele>1877</ele>
        <time>2021-08-07T08:34:16.619Z</time>
      </trkpt>
      <trkpt lat="46.91382" lon="8.67802">
        <ele>1876</ele>
        <time>2021-08-07T08:34:17.619Z</time>
      </trkpt>
      <trkpt lat="46.91382" lon="8.67803">
        <ele>1875</ele>
        <time>2021-08-07T08:34:18.618Z</time>
      </trkpt>
      <trkpt lat="46.91382" lon="8.67805">
        <ele>1874</ele>
        <time>2021-08-07T08:34:19.619Z</time>
      </trkpt>
      <trkpt lat="46.91381" lon="8.67805">
        <ele>1873</ele>
        <time>2021-08-07T08:34:20.619Z</time>
      </trkpt>
      <trkpt lat="46.91381" lon="8.67806">
        <ele>1873</ele>
        <time>2021-08-07T08:34:21.619Z</time>
      </trkpt>
      <trkpt lat="46.9138" lon="8.67806">
        <ele>1873</ele>
        <time>2021-08-07T08:34:22.618Z</time>
      </trkpt>
      <trkpt lat="46.9138" lon="8.67807">
        <ele>1873</ele>
        <time>2021-08-07T08:34:23.619Z</time>
      </trkpt>
      <trkpt lat="46.9138" lon="8.67808">
        <ele>1873</ele>
        <time>2021-08-07T08:34:24.619Z</time>
      </trkpt>
      <trkpt lat="46.9138" lon="8.67808">
        <ele>1872</ele>
        <time>2021-08-07T08:34:25.619Z</time>
      </trkpt>
      <trkpt lat="46.91378" lon="8.67809">
        <ele>1869</ele>
        <time>2021-08-07T08:34:26.619Z</time>
      </trkpt>
      <trkpt lat="46.91378" lon="8.6781">
        <ele>1869</ele>
        <time>2021-08-07T08:34:27.619Z</time>
      </trkpt>
      <trkpt lat="46.91377" lon="8.67811">
        <ele>1868</ele>
        <time>2021-08-07T08:34:28.618Z</time>
      </trkpt>
      <trkpt lat="46.91377" lon="8.67811">
        <ele>1867</ele>
        <time>2021-08-07T08:34:29.619Z</time>
      </trkpt>
      <trkpt lat="46.91377" lon="8.67811">
        <ele>1866</ele>
        <time>2021-08-07T08:34:30.618Z</time>
      </trkpt>
      <trkpt lat="46.91376" lon="8.6781">
        <ele>1864</ele>
        <time>2021-08-07T08:34:31.619Z</time>
      </trkpt>
      <trkpt lat="46.91375" lon="8.67811">
        <ele>1864</ele>
        <time>2021-08-07T08:34:32.619Z</time>
      </trkpt>
      <trkpt lat="46.91373" lon="8.67816">
        <ele>1870</ele>
        <time>2021-08-07T08:34:33.619Z</time>
      </trkpt>
      <trkpt lat="46.91373" lon="8.67815">
        <ele>1870</ele>
        <time>2021-08-07T08:34:34.619Z</time>
      </trkpt>
      <trkpt lat="46.91373" lon="8.67814">
        <ele>1871</ele>
        <time>2021-08-07T08:34:35.618Z</time>
      </trkpt>
      <trkpt lat="46.91372" lon="8.67814">
        <ele>1871</ele>
        <time>2021-08-07T08:34:36.619Z</time>
      </trkpt>
      <trkpt lat="46.91372" lon="8.67814">
        <ele>1871</ele>
        <time>2021-08-07T08:34:37.619Z</time>
      </trkpt>
      <trkpt lat="46.91371" lon="8.67813">
        <ele>1872</ele>
        <time>2021-08-07T08:34:38.619Z</time>
      </trkpt>
      <trkpt lat="46.91371" lon="8.67813">
        <ele>1872</ele>
        <time>2021-08-07T08:34:39.619Z</time>
      </trkpt>
      <trkpt lat="46.9137" lon="8.67813">
        <ele>1873</ele>
        <time>2021-08-07T08:34:40.618Z</time>
      </trkpt>
      <trkpt lat="46.9137" lon="8.67812">
        <ele>1874</ele>
        <time>2021-08-07T08:34:41.619Z</time>
      </trkpt>
      <trkpt lat="46.91369" lon="8.67813">
        <ele>1874</ele>
        <time>2021-08-07T08:34:42.619Z</time>
      </trkpt>
      <trkpt lat="46.91369" lon="8.67813">
        <ele>1874</ele>
        <time>2021-08-07T08:34:43.619Z</time>
      </trkpt>
      <trkpt lat="46.91369" lon="8.67814">
        <ele>1874</ele>
        <time>2021-08-07T08:34:44.619Z</time>
      </trkpt>
      <trkpt lat="46.9137" lon="8.67816">
        <ele>1873</ele>
        <time>2021-08-07T08:34:45.619Z</time>
      </trkpt>
      <trkpt lat="46.9137" lon="8.67818">
        <ele>1870</ele>
        <time>2021-08-07T08:34:46.618Z</time>
      </trkpt>
      <trkpt lat="46.9137" lon="8.67818">
        <ele>1868</ele>
        <time>2021-08-07T08:34:47.618Z</time>
      </trkpt>
      <trkpt lat="46.9137" lon="8.67818">
        <ele>1867</ele>
        <time>2021-08-07T08:34:48.618Z</time>
      </trkpt>
      <trkpt lat="46.9137" lon="8.67818">
        <ele>1866</ele>
        <time>2021-08-07T08:34:49.619Z</time>
      </trkpt>
      <trkpt lat="46.9137" lon="8.67819">
        <ele>1866</ele>
        <time>2021-08-07T08:34:50.618Z</time>
      </trkpt>
      <trkpt lat="46.91373" lon="8.67823">
        <ele>1862</ele>
        <time>2021-08-07T08:34:51.618Z</time>
      </trkpt>
      <trkpt lat="46.91372" lon="8.67823">
        <ele>1862</ele>
        <time>2021-08-07T08:34:52.619Z</time>
      </trkpt>
      <trkpt lat="46.91372" lon="8.67823">
        <ele>1862</ele>
        <time>2021-08-07T08:34:53.618Z</time>
      </trkpt>
      <trkpt lat="46.91371" lon="8.67824">
        <ele>1861</ele>
        <time>2021-08-07T08:34:54.619Z</time>
      </trkpt>
      <trkpt lat="46.9137" lon="8.67824">
        <ele>1861</ele>
        <time>2021-08-07T08:34:55.619Z</time>
      </trkpt>
      <trkpt lat="46.9137" lon="8.67824">
        <ele>1861</ele>
        <time>2021-08-07T08:34:56.619Z</time>
      </trkpt>
      <trkpt lat="46.91368" lon="8.67825">
        <ele>1859</ele>
        <time>2021-08-07T08:34:57.619Z</time>
      </trkpt>
      <trkpt lat="46.91368" lon="8.67825">
        <ele>1859</ele>
        <time>2021-08-07T08:34:58.620Z</time>
      </trkpt>
      <trkpt lat="46.91367" lon="8.67826">
        <ele>1859</ele>
        <time>2021-08-07T08:34:59.620Z</time>
      </trkpt>
      <trkpt lat="46.91367" lon="8.67827">
        <ele>1859</ele>
        <time>2021-08-07T08:35:00.620Z</time>
      </trkpt>
      <trkpt lat="46.91367" lon="8.67828">
        <ele>1859</ele>
        <time>2021-08-07T08:35:01.620Z</time>
      </trkpt>
      <trkpt lat="46.91367" lon="8.67829">
        <ele>1859</ele>
        <time>2021-08-07T08:35:02.620Z</time>
      </trkpt>
      <trkpt lat="46.91365" lon="8.67828">
        <ele>1857</ele>
        <time>2021-08-07T08:35:03.619Z</time>
      </trkpt>
      <trkpt lat="46.91364" lon="8.67827">
        <ele>1856</ele>
        <time>2021-08-07T08:35:04.620Z</time>
      </trkpt>
      <trkpt lat="46.91364" lon="8.67827">
        <ele>1856</ele>
        <time>2021-08-07T08:35:05.619Z</time>
      </trkpt>
      <trkpt lat="46.91364" lon="8.67827">
        <ele>1856</ele>
        <time>2021-08-07T08:35:06.619Z</time>
      </trkpt>
      <trkpt lat="46.91365" lon="8.67825">
        <ele>1856</ele>
        <time>2021-08-07T08:35:07.619Z</time>
      </trkpt>
      <trkpt lat="46.91365" lon="8.67824">
        <ele>1856</ele>
        <time>2021-08-07T08:35:08.619Z</time>
      </trkpt>
      <trkpt lat="46.91366" lon="8.67824">
        <ele>1856</ele>
        <time>2021-08-07T08:35:09.619Z</time>
      </trkpt>
      <trkpt lat="46.91366" lon="8.67823">
        <ele>1857</ele>
        <time>2021-08-07T08:35:10.619Z</time>
      </trkpt>
      <trkpt lat="46.91367" lon="8.67823">
        <ele>1857</ele>
        <time>2021-08-07T08:35:11.619Z</time>
      </trkpt>
      <trkpt lat="46.91367" lon="8.67823">
        <ele>1858</ele>
        <time>2021-08-07T08:35:12.619Z</time>
      </trkpt>
      <trkpt lat="46.91367" lon="8.67823">
        <ele>1858</ele>
        <time>2021-08-07T08:35:13.619Z</time>
      </trkpt>
      <trkpt lat="46.91367" lon="8.67825">
        <ele>1859</ele>
        <time>2021-08-07T08:35:14.621Z</time>
      </trkpt>
      <trkpt lat="46.91367" lon="8.67825">
        <ele>1859</ele>
        <time>2021-08-07T08:35:15.620Z</time>
      </trkpt>
      <trkpt lat="46.91367" lon="8.67826">
        <ele>1859</ele>
        <time>2021-08-07T08:35:16.622Z</time>
      </trkpt>
      <trkpt lat="46.91367" lon="8.67826">
        <ele>1860</ele>
        <time>2021-08-07T08:35:17.621Z</time>
      </trkpt>
      <trkpt lat="46.91367" lon="8.67826">
        <ele>1860</ele>
        <time>2021-08-07T08:35:18.621Z</time>
      </trkpt>
      <trkpt lat="46.91366" lon="8.67826">
        <ele>1861</ele>
        <time>2021-08-07T08:35:19.622Z</time>
      </trkpt>
      <trkpt lat="46.91364" lon="8.67828">
        <ele>1862</ele>
        <time>2021-08-07T08:35:20.622Z</time>
      </trkpt>
      <trkpt lat="46.91363" lon="8.67831">
        <ele>1863</ele>
        <time>2021-08-07T08:35:21.622Z</time>
      </trkpt>
      <trkpt lat="46.91362" lon="8.67833">
        <ele>1864</ele>
        <time>2021-08-07T08:35:22.622Z</time>
      </trkpt>
      <trkpt lat="46.91361" lon="8.67834">
        <ele>1865</ele>
        <time>2021-08-07T08:35:23.621Z</time>
      </trkpt>
      <trkpt lat="46.91361" lon="8.67834">
        <ele>1866</ele>
        <time>2021-08-07T08:35:24.622Z</time>
      </trkpt>
      <trkpt lat="46.91361" lon="8.67833">
        <ele>1866</ele>
        <time>2021-08-07T08:35:25.621Z</time>
      </trkpt>
      <trkpt lat="46.91361" lon="8.67835">
        <ele>1871</ele>
        <time>2021-08-07T08:35:26.622Z</time>
      </trkpt>
      <trkpt lat="46.91361" lon="8.67834">
        <ele>1870</ele>
        <time>2021-08-07T08:35:27.622Z</time>
      </trkpt>
      <trkpt lat="46.9136" lon="8.67834">
        <ele>1869</ele>
        <time>2021-08-07T08:35:28.621Z</time>
      </trkpt>
      <trkpt lat="46.9136" lon="8.67834">
        <ele>1868</ele>
        <time>2021-08-07T08:35:29.622Z</time>
      </trkpt>
      <trkpt lat="46.9136" lon="8.67834">
        <ele>1867</ele>
        <time>2021-08-07T08:35:30.622Z</time>
      </trkpt>
      <trkpt lat="46.91359" lon="8.67835">
        <ele>1866</ele>
        <time>2021-08-07T08:35:31.622Z</time>
      </trkpt>
      <trkpt lat="46.91359" lon="8.67835">
        <ele>1866</ele>
        <time>2021-08-07T08:35:32.621Z</time>
      </trkpt>
      <trkpt lat="46.9136" lon="8.67836">
        <ele>1865</ele>
        <time>2021-08-07T08:35:33.622Z</time>
      </trkpt>
      <trkpt lat="46.9136" lon="8.67836">
        <ele>1865</ele>
        <time>2021-08-07T08:35:34.622Z</time>
      </trkpt>
      <trkpt lat="46.91359" lon="8.67835">
        <ele>1865</ele>
        <time>2021-08-07T08:35:35.621Z</time>
      </trkpt>
      <trkpt lat="46.91363" lon="8.67834">
        <ele>1866</ele>
        <time>2021-08-07T08:35:36.622Z</time>
      </trkpt>
      <trkpt lat="46.91362" lon="8.67833">
        <ele>1866</ele>
        <time>2021-08-07T08:35:37.622Z</time>
      </trkpt>
      <trkpt lat="46.91361" lon="8.67831">
        <ele>1866</ele>
        <time>2021-08-07T08:35:38.621Z</time>
      </trkpt>
      <trkpt lat="46.9136" lon="8.67831">
        <ele>1866</ele>
        <time>2021-08-07T08:35:39.622Z</time>
      </trkpt>
      <trkpt lat="46.91359" lon="8.67831">
        <ele>1866</ele>
        <time>2021-08-07T08:35:40.622Z</time>
      </trkpt>
      <trkpt lat="46.91359" lon="8.6783">
        <ele>1867</ele>
        <time>2021-08-07T08:35:41.622Z</time>
      </trkpt>
      <trkpt lat="46.91359" lon="8.6783">
        <ele>1867</ele>
        <time>2021-08-07T08:35:42.621Z</time>
      </trkpt>
      <trkpt lat="46.91359" lon="8.6783">
        <ele>1867</ele>
        <time>2021-08-07T08:35:43.622Z</time>
      </trkpt>
      <trkpt lat="46.91359" lon="8.67829">
        <ele>1868</ele>
        <time>2021-08-07T08:35:44.622Z</time>
      </trkpt>
      <trkpt lat="46.91359" lon="8.67828">
        <ele>1868</ele>
        <time>2021-08-07T08:35:45.622Z</time>
      </trkpt>
      <trkpt lat="46.91358" lon="8.67827">
        <ele>1869</ele>
        <time>2021-08-07T08:35:46.622Z</time>
      </trkpt>
      <trkpt lat="46.91358" lon="8.67826">
        <ele>1869</ele>
        <time>2021-08-07T08:35:47.622Z</time>
      </trkpt>
      <trkpt lat="46.91358" lon="8.67825">
        <ele>1870</ele>
        <time>2021-08-07T08:35:48.621Z</time>
      </trkpt>
      <trkpt lat="46.91358" lon="8.67825">
        <ele>1870</ele>
        <time>2021-08-07T08:35:49.622Z</time>
      </trkpt>
      <trkpt lat="46.91358" lon="8.67826">
        <ele>1870</ele>
        <time>2021-08-07T08:35:50.622Z</time>
      </trkpt>
      <trkpt lat="46.91357" lon="8.67826">
        <ele>1870</ele>
        <time>2021-08-07T08:35:51.621Z</time>
      </trkpt>
      <trkpt lat="46.91357" lon="8.67826">
        <ele>1870</ele>
        <time>2021-08-07T08:35:52.622Z</time>
      </trkpt>
      <trkpt lat="46.91357" lon="8.67825">
        <ele>1871</ele>
        <time>2021-08-07T08:35:53.624Z</time>
      </trkpt>
      <trkpt lat="46.91356" lon="8.67825">
        <ele>1872</ele>
        <time>2021-08-07T08:35:54.624Z</time>
      </trkpt>
      <trkpt lat="46.91356" lon="8.67823">
        <ele>1873</ele>
        <time>2021-08-07T08:35:55.624Z</time>
      </trkpt>
      <trkpt lat="46.91356" lon="8.67823">
        <ele>1872</ele>
        <time>2021-08-07T08:35:56.624Z</time>
      </trkpt>
      <trkpt lat="46.91357" lon="8.67831">
        <ele>1865</ele>
        <time>2021-08-07T08:35:57.624Z</time>
      </trkpt>
      <trkpt lat="46.91358" lon="8.6783">
        <ele>1864</ele>
        <time>2021-08-07T08:35:58.624Z</time>
      </trkpt>
      <trkpt lat="46.91358" lon="8.6783">
        <ele>1863</ele>
        <time>2021-08-07T08:35:59.624Z</time>
      </trkpt>
      <trkpt lat="46.91358" lon="8.67829">
        <ele>1862</ele>
        <time>2021-08-07T08:36:00.624Z</time>
      </trkpt>
      <trkpt lat="46.91358" lon="8.67829">
        <ele>1861</ele>
        <time>2021-08-07T08:36:01.624Z</time>
      </trkpt>
      <trkpt lat="46.91357" lon="8.67828">
        <ele>1861</ele>
        <time>2021-08-07T08:36:02.624Z</time>
      </trkpt>
      <trkpt lat="46.91356" lon="8.67829">
        <ele>1860</ele>
        <time>2021-08-07T08:36:03.624Z</time>
      </trkpt>
      <trkpt lat="46.91356" lon="8.67829">
        <ele>1860</ele>
        <time>2021-08-07T08:36:04.624Z</time>
      </trkpt>
      <trkpt lat="46.91356" lon="8.6783">
        <ele>1859</ele>
        <time>2021-08-07T08:36:05.624Z</time>
      </trkpt>
      <trkpt lat="46.91355" lon="8.67831">
        <ele>1859</ele>
        <time>2021-08-07T08:36:06.624Z</time>
      </trkpt>
      <trkpt lat="46.91354" lon="8.67831">
        <ele>1859</ele>
        <time>2021-08-07T08:36:07.624Z</time>
      </trkpt>
      <trkpt lat="46.91354" lon="8.6783">
        <ele>1860</ele>
        <time>2021-08-07T08:36:08.624Z</time>
      </trkpt>
      <trkpt lat="46.91354" lon="8.6783">
        <ele>1861</ele>
        <time>2021-08-07T08:36:09.625Z</time>
      </trkpt>
      <trkpt lat="46.91353" lon="8.67829">
        <ele>1862</ele>
        <time>2021-08-07T08:36:10.625Z</time>
      </trkpt>
      <trkpt lat="46.91352" lon="8.67829">
        <ele>1863</ele>
        <time>2021-08-07T08:36:11.625Z</time>
      </trkpt>
      <trkpt lat="46.91352" lon="8.6783">
        <ele>1863</ele>
        <time>2021-08-07T08:36:12.625Z</time>
      </trkpt>
      <trkpt lat="46.91353" lon="8.67831">
        <ele>1863</ele>
        <time>2021-08-07T08:36:13.624Z</time>
      </trkpt>
      <trkpt lat="46.91353" lon="8.67832">
        <ele>1863</ele>
        <time>2021-08-07T08:36:14.624Z</time>
      </trkpt>
      <trkpt lat="46.91352" lon="8.67833">
        <ele>1862</ele>
        <time>2021-08-07T08:36:15.625Z</time>
      </trkpt>
      <trkpt lat="46.91352" lon="8.67834">
        <ele>1861</ele>
        <time>2021-08-07T08:36:16.625Z</time>
      </trkpt>
      <trkpt lat="46.91351" lon="8.67834">
        <ele>1860</ele>
        <time>2021-08-07T08:36:17.624Z</time>
      </trkpt>
      <trkpt lat="46.91351" lon="8.67834">
        <ele>1860</ele>
        <time>2021-08-07T08:36:18.625Z</time>
      </trkpt>
      <trkpt lat="46.9135" lon="8.67835">
        <ele>1859</ele>
        <time>2021-08-07T08:36:19.624Z</time>
      </trkpt>
      <trkpt lat="46.9135" lon="8.67835">
        <ele>1859</ele>
        <time>2021-08-07T08:36:20.625Z</time>
      </trkpt>
      <trkpt lat="46.9135" lon="8.67835">
        <ele>1859</ele>
        <time>2021-08-07T08:36:21.625Z</time>
      </trkpt>
      <trkpt lat="46.91349" lon="8.67835">
        <ele>1859</ele>
        <time>2021-08-07T08:36:22.624Z</time>
      </trkpt>
      <trkpt lat="46.91349" lon="8.67836">
        <ele>1859</ele>
        <time>2021-08-07T08:36:23.625Z</time>
      </trkpt>
      <trkpt lat="46.91349" lon="8.67837">
        <ele>1859</ele>
        <time>2021-08-07T08:36:24.624Z</time>
      </trkpt>
      <trkpt lat="46.91351" lon="8.67836">
        <ele>1857</ele>
        <time>2021-08-07T08:36:25.626Z</time>
      </trkpt>
      <trkpt lat="46.91351" lon="8.67836">
        <ele>1857</ele>
        <time>2021-08-07T08:36:26.626Z</time>
      </trkpt>
      <trkpt lat="46.9135" lon="8.67836">
        <ele>1856</ele>
        <time>2021-08-07T08:36:27.626Z</time>
      </trkpt>
      <trkpt lat="46.9135" lon="8.67836">
        <ele>1856</ele>
        <time>2021-08-07T08:36:28.626Z</time>
      </trkpt>
      <trkpt lat="46.9135" lon="8.67836">
        <ele>1856</ele>
        <time>2021-08-07T08:36:29.625Z</time>
      </trkpt>
      <trkpt lat="46.91349" lon="8.67836">
        <ele>1856</ele>
        <time>2021-08-07T08:36:30.626Z</time>
      </trkpt>
      <trkpt lat="46.91349" lon="8.67837">
        <ele>1855</ele>
        <time>2021-08-07T08:36:31.626Z</time>
      </trkpt>
      <trkpt lat="46.91348" lon="8.67837">
        <ele>1855</ele>
        <time>2021-08-07T08:36:32.626Z</time>
      </trkpt>
      <trkpt lat="46.91348" lon="8.67838">
        <ele>1854</ele>
        <time>2021-08-07T08:36:33.626Z</time>
      </trkpt>
      <trkpt lat="46.91347" lon="8.6784">
        <ele>1854</ele>
        <time>2021-08-07T08:36:34.626Z</time>
      </trkpt>
      <trkpt lat="46.91346" lon="8.67841">
        <ele>1853</ele>
        <time>2021-08-07T08:36:35.626Z</time>
      </trkpt>
      <trkpt lat="46.91346" lon="8.67842">
        <ele>1852</ele>
        <time>2021-08-07T08:36:36.626Z</time>
      </trkpt>
      <trkpt lat="46.91345" lon="8.67843">
        <ele>1852</ele>
        <time>2021-08-07T08:36:37.626Z</time>
      </trkpt>
      <trkpt lat="46.91345" lon="8.67845">
        <ele>1851</ele>
        <time>2021-08-07T08:36:38.625Z</time>
      </trkpt>
      <trkpt lat="46.91344" lon="8.67846">
        <ele>1850</ele>
        <time>2021-08-07T08:36:39.625Z</time>
      </trkpt>
      <trkpt lat="46.91344" lon="8.67847">
        <ele>1850</ele>
        <time>2021-08-07T08:36:40.626Z</time>
      </trkpt>
      <trkpt lat="46.91343" lon="8.67847">
        <ele>1849</ele>
        <time>2021-08-07T08:36:41.626Z</time>
      </trkpt>
      <trkpt lat="46.91343" lon="8.67848">
        <ele>1849</ele>
        <time>2021-08-07T08:36:42.626Z</time>
      </trkpt>
      <trkpt lat="46.91342" lon="8.67848">
        <ele>1848</ele>
        <time>2021-08-07T08:36:43.626Z</time>
      </trkpt>
      <trkpt lat="46.91342" lon="8.67849">
        <ele>1848</ele>
        <time>2021-08-07T08:36:44.626Z</time>
      </trkpt>
      <trkpt lat="46.91341" lon="8.6785">
        <ele>1848</ele>
        <time>2021-08-07T08:36:45.625Z</time>
      </trkpt>
      <trkpt lat="46.91341" lon="8.67851">
        <ele>1848</ele>
        <time>2021-08-07T08:36:46.625Z</time>
      </trkpt>
      <trkpt lat="46.9134" lon="8.67851">
        <ele>1849</ele>
        <time>2021-08-07T08:36:47.626Z</time>
      </trkpt>
      <trkpt lat="46.91339" lon="8.67852">
        <ele>1849</ele>
        <time>2021-08-07T08:36:48.626Z</time>
      </trkpt>
      <trkpt lat="46.91338" lon="8.67852">
        <ele>1849</ele>
        <time>2021-08-07T08:36:49.625Z</time>
      </trkpt>
      <trkpt lat="46.91337" lon="8.67853">
        <ele>1850</ele>
        <time>2021-08-07T08:36:50.625Z</time>
      </trkpt>
      <trkpt lat="46.91336" lon="8.67853">
        <ele>1851</ele>
        <time>2021-08-07T08:36:51.626Z</time>
      </trkpt>
      <trkpt lat="46.91335" lon="8.67854">
        <ele>1851</ele>
        <time>2021-08-07T08:36:52.625Z</time>
      </trkpt>
      <trkpt lat="46.91334" lon="8.67855">
        <ele>1851</ele>
        <time>2021-08-07T08:36:53.625Z</time>
      </trkpt>
      <trkpt lat="46.91333" lon="8.67855">
        <ele>1851</ele>
        <time>2021-08-07T08:36:54.626Z</time>
      </trkpt>
      <trkpt lat="46.91333" lon="8.67856">
        <ele>1851</ele>
        <time>2021-08-07T08:36:55.626Z</time>
      </trkpt>
      <trkpt lat="46.91333" lon="8.67856">
        <ele>1850</ele>
        <time>2021-08-07T08:36:56.625Z</time>
      </trkpt>
      <trkpt lat="46.91333" lon="8.67856">
        <ele>1850</ele>
        <time>2021-08-07T08:36:57.626Z</time>
      </trkpt>
      <trkpt lat="46.91333" lon="8.67857">
        <ele>1849</ele>
        <time>2021-08-07T08:36:58.626Z</time>
      </trkpt>
      <trkpt lat="46.91338" lon="8.67856">
        <ele>1848</ele>
        <time>2021-08-07T08:36:59.626Z</time>
      </trkpt>
      <trkpt lat="46.91339" lon="8.67854">
        <ele>1849</ele>
        <time>2021-08-07T08:37:00.625Z</time>
      </trkpt>
      <trkpt lat="46.91336" lon="8.67855">
        <ele>1848</ele>
        <time>2021-08-07T08:37:01.625Z</time>
      </trkpt>
      <trkpt lat="46.91335" lon="8.67856">
        <ele>1848</ele>
        <time>2021-08-07T08:37:02.625Z</time>
      </trkpt>
      <trkpt lat="46.91335" lon="8.67857">
        <ele>1848</ele>
        <time>2021-08-07T08:37:03.625Z</time>
      </trkpt>
      <trkpt lat="46.91334" lon="8.67857">
        <ele>1848</ele>
        <time>2021-08-07T08:37:04.625Z</time>
      </trkpt>
      <trkpt lat="46.91333" lon="8.67857">
        <ele>1848</ele>
        <time>2021-08-07T08:37:05.625Z</time>
      </trkpt>
      <trkpt lat="46.91333" lon="8.67857">
        <ele>1848</ele>
        <time>2021-08-07T08:37:06.625Z</time>
      </trkpt>
      <trkpt lat="46.91332" lon="8.67857">
        <ele>1847</ele>
        <time>2021-08-07T08:37:07.625Z</time>
      </trkpt>
      <trkpt lat="46.91332" lon="8.67858">
        <ele>1847</ele>
        <time>2021-08-07T08:37:08.625Z</time>
      </trkpt>
      <trkpt lat="46.91332" lon="8.67858">
        <ele>1846</ele>
        <time>2021-08-07T08:37:09.625Z</time>
      </trkpt>
      <trkpt lat="46.91332" lon="8.67859">
        <ele>1846</ele>
        <time>2021-08-07T08:37:10.625Z</time>
      </trkpt>
      <trkpt lat="46.91332" lon="8.67859">
        <ele>1845</ele>
        <time>2021-08-07T08:37:11.625Z</time>
      </trkpt>
      <trkpt lat="46.91331" lon="8.67859">
        <ele>1844</ele>
        <time>2021-08-07T08:37:12.625Z</time>
      </trkpt>
      <trkpt lat="46.91331" lon="8.67859">
        <ele>1844</ele>
        <time>2021-08-07T08:37:13.625Z</time>
      </trkpt>
      <trkpt lat="46.9133" lon="8.67859">
        <ele>1844</ele>
        <time>2021-08-07T08:37:14.625Z</time>
      </trkpt>
      <trkpt lat="46.91326" lon="8.67857">
        <ele>1850</ele>
        <time>2021-08-07T08:37:15.626Z</time>
      </trkpt>
      <trkpt lat="46.91326" lon="8.67857">
        <ele>1850</ele>
        <time>2021-08-07T08:37:16.625Z</time>
      </trkpt>
      <trkpt lat="46.91326" lon="8.67856">
        <ele>1849</ele>
        <time>2021-08-07T08:37:17.625Z</time>
      </trkpt>
      <trkpt lat="46.91326" lon="8.67855">
        <ele>1849</ele>
        <time>2021-08-07T08:37:18.626Z</time>
      </trkpt>
      <trkpt lat="46.91326" lon="8.67854">
        <ele>1848</ele>
        <time>2021-08-07T08:37:19.626Z</time>
      </trkpt>
      <trkpt lat="46.91326" lon="8.67854">
        <ele>1847</ele>
        <time>2021-08-07T08:37:20.626Z</time>
      </trkpt>
      <trkpt lat="46.91327" lon="8.67853">
        <ele>1846</ele>
        <time>2021-08-07T08:37:21.626Z</time>
      </trkpt>
      <trkpt lat="46.91328" lon="8.67853">
        <ele>1845</ele>
        <time>2021-08-07T08:37:22.626Z</time>
      </trkpt>
      <trkpt lat="46.9133" lon="8.67852">
        <ele>1842</ele>
        <time>2021-08-07T08:37:23.625Z</time>
      </trkpt>
      <trkpt lat="46.9133" lon="8.6785">
        <ele>1841</ele>
        <time>2021-08-07T08:37:24.626Z</time>
      </trkpt>
      <trkpt lat="46.9133" lon="8.67848">
        <ele>1841</ele>
        <time>2021-08-07T08:37:25.625Z</time>
      </trkpt>
      <trkpt lat="46.9133" lon="8.67847">
        <ele>1840</ele>
        <time>2021-08-07T08:37:26.626Z</time>
      </trkpt>
      <trkpt lat="46.91329" lon="8.67845">
        <ele>1840</ele>
        <time>2021-08-07T08:37:27.626Z</time>
      </trkpt>
      <trkpt lat="46.91329" lon="8.67843">
        <ele>1840</ele>
        <time>2021-08-07T08:37:28.626Z</time>
      </trkpt>
      <trkpt lat="46.91328" lon="8.67842">
        <ele>1840</ele>
        <time>2021-08-07T08:37:29.626Z</time>
      </trkpt>
      <trkpt lat="46.91329" lon="8.67841">
        <ele>1840</ele>
        <time>2021-08-07T08:37:30.626Z</time>
      </trkpt>
      <trkpt lat="46.91329" lon="8.6784">
        <ele>1841</ele>
        <time>2021-08-07T08:37:31.626Z</time>
      </trkpt>
      <trkpt lat="46.9133" lon="8.6784">
        <ele>1841</ele>
        <time>2021-08-07T08:37:32.625Z</time>
      </trkpt>
      <trkpt lat="46.91331" lon="8.67838">
        <ele>1841</ele>
        <time>2021-08-07T08:37:33.626Z</time>
      </trkpt>
      <trkpt lat="46.91332" lon="8.67837">
        <ele>1841</ele>
        <time>2021-08-07T08:37:34.626Z</time>
      </trkpt>
      <trkpt lat="46.91332" lon="8.67835">
        <ele>1841</ele>
        <time>2021-08-07T08:37:35.626Z</time>
      </trkpt>
      <trkpt lat="46.91332" lon="8.67834">
        <ele>1841</ele>
        <time>2021-08-07T08:37:36.626Z</time>
      </trkpt>
      <trkpt lat="46.91333" lon="8.67832">
        <ele>1841</ele>
        <time>2021-08-07T08:37:37.625Z</time>
      </trkpt>
      <trkpt lat="46.91333" lon="8.67831">
        <ele>1841</ele>
        <time>2021-08-07T08:37:38.625Z</time>
      </trkpt>
      <trkpt lat="46.91333" lon="8.6783">
        <ele>1840</ele>
        <time>2021-08-07T08:37:39.626Z</time>
      </trkpt>
      <trkpt lat="46.91332" lon="8.67829">
        <ele>1840</ele>
        <time>2021-08-07T08:37:40.625Z</time>
      </trkpt>
      <trkpt lat="46.91331" lon="8.67829">
        <ele>1840</ele>
        <time>2021-08-07T08:37:41.626Z</time>
      </trkpt>
      <trkpt lat="46.9133" lon="8.67829">
        <ele>1840</ele>
        <time>2021-08-07T08:37:42.626Z</time>
      </trkpt>
      <trkpt lat="46.91329" lon="8.67829">
        <ele>1840</ele>
        <time>2021-08-07T08:37:43.626Z</time>
      </trkpt>
      <trkpt lat="46.91328" lon="8.6783">
        <ele>1840</ele>
        <time>2021-08-07T08:37:44.625Z</time>
      </trkpt>
      <trkpt lat="46.91327" lon="8.67832">
        <ele>1840</ele>
        <time>2021-08-07T08:37:45.625Z</time>
      </trkpt>
      <trkpt lat="46.91326" lon="8.67832">
        <ele>1840</ele>
        <time>2021-08-07T08:37:46.626Z</time>
      </trkpt>
      <trkpt lat="46.91325" lon="8.67832">
        <ele>1840</ele>
        <time>2021-08-07T08:37:47.626Z</time>
      </trkpt>
      <trkpt lat="46.91324" lon="8.67831">
        <ele>1841</ele>
        <time>2021-08-07T08:37:48.626Z</time>
      </trkpt>
      <trkpt lat="46.91324" lon="8.6783">
        <ele>1841</ele>
        <time>2021-08-07T08:37:49.626Z</time>
      </trkpt>
      <trkpt lat="46.91324" lon="8.67829">
        <ele>1841</ele>
        <time>2021-08-07T08:37:50.625Z</time>
      </trkpt>
      <trkpt lat="46.91323" lon="8.67828">
        <ele>1842</ele>
        <time>2021-08-07T08:37:51.626Z</time>
      </trkpt>
      <trkpt lat="46.91321" lon="8.67827">
        <ele>1843</ele>
        <time>2021-08-07T08:37:52.626Z</time>
      </trkpt>
      <trkpt lat="46.9132" lon="8.67826">
        <ele>1843</ele>
        <time>2021-08-07T08:37:53.626Z</time>
      </trkpt>
      <trkpt lat="46.9132" lon="8.67826">
        <ele>1844</ele>
        <time>2021-08-07T08:37:54.626Z</time>
      </trkpt>
      <trkpt lat="46.91319" lon="8.67825">
        <ele>1845</ele>
        <time>2021-08-07T08:37:55.625Z</time>
      </trkpt>
      <trkpt lat="46.91317" lon="8.67825">
        <ele>1846</ele>
        <time>2021-08-07T08:37:56.626Z</time>
      </trkpt>
      <trkpt lat="46.91317" lon="8.67825">
        <ele>1846</ele>
        <time>2021-08-07T08:37:57.625Z</time>
      </trkpt>
      <trkpt lat="46.91317" lon="8.67824">
        <ele>1847</ele>
        <time>2021-08-07T08:37:58.625Z</time>
      </trkpt>
      <trkpt lat="46.91317" lon="8.67824">
        <ele>1847</ele>
        <time>2021-08-07T08:37:59.626Z</time>
      </trkpt>
      <trkpt lat="46.91316" lon="8.67824">
        <ele>1850</ele>
        <time>2021-08-07T08:38:00.627Z</time>
      </trkpt>
      <trkpt lat="46.91318" lon="8.67822">
        <ele>1844</ele>
        <time>2021-08-07T08:38:01.627Z</time>
      </trkpt>
      <trkpt lat="46.91318" lon="8.67821">
        <ele>1843</ele>
        <time>2021-08-07T08:38:02.627Z</time>
      </trkpt>
      <trkpt lat="46.91318" lon="8.6782">
        <ele>1842</ele>
        <time>2021-08-07T08:38:03.626Z</time>
      </trkpt>
      <trkpt lat="46.91318" lon="8.6782">
        <ele>1842</ele>
        <time>2021-08-07T08:38:04.627Z</time>
      </trkpt>
      <trkpt lat="46.91318" lon="8.67819">
        <ele>1842</ele>
        <time>2021-08-07T08:38:05.627Z</time>
      </trkpt>
      <trkpt lat="46.91317" lon="8.67818">
        <ele>1841</ele>
        <time>2021-08-07T08:38:06.627Z</time>
      </trkpt>
      <trkpt lat="46.91317" lon="8.67818">
        <ele>1841</ele>
        <time>2021-08-07T08:38:07.626Z</time>
      </trkpt>
      <trkpt lat="46.91317" lon="8.67817">
        <ele>1841</ele>
        <time>2021-08-07T08:38:08.627Z</time>
      </trkpt>
      <trkpt lat="46.91316" lon="8.67817">
        <ele>1840</ele>
        <time>2021-08-07T08:38:09.627Z</time>
      </trkpt>
      <trkpt lat="46.91315" lon="8.67818">
        <ele>1839</ele>
        <time>2021-08-07T08:38:10.627Z</time>
      </trkpt>
      <trkpt lat="46.91315" lon="8.67818">
        <ele>1837</ele>
        <time>2021-08-07T08:38:11.626Z</time>
      </trkpt>
      <trkpt lat="46.91315" lon="8.67819">
        <ele>1836</ele>
        <time>2021-08-07T08:38:12.627Z</time>
      </trkpt>
      <trkpt lat="46.91314" lon="8.67819">
        <ele>1836</ele>
        <time>2021-08-07T08:38:13.626Z</time>
      </trkpt>
      <trkpt lat="46.91313" lon="8.67819">
        <ele>1835</ele>
        <time>2021-08-07T08:38:14.627Z</time>
      </trkpt>
      <trkpt lat="46.91312" lon="8.67819">
        <ele>1835</ele>
        <time>2021-08-07T08:38:15.627Z</time>
      </trkpt>
      <trkpt lat="46.91311" lon="8.6782">
        <ele>1835</ele>
        <time>2021-08-07T08:38:16.626Z</time>
      </trkpt>
      <trkpt lat="46.9131" lon="8.67821">
        <ele>1835</ele>
        <time>2021-08-07T08:38:17.627Z</time>
      </trkpt>
      <trkpt lat="46.9131" lon="8.67821">
        <ele>1835</ele>
        <time>2021-08-07T08:38:18.627Z</time>
      </trkpt>
      <trkpt lat="46.91309" lon="8.67823">
        <ele>1835</ele>
        <time>2021-08-07T08:38:19.627Z</time>
      </trkpt>
      <trkpt lat="46.91309" lon="8.67824">
        <ele>1835</ele>
        <time>2021-08-07T08:38:20.627Z</time>
      </trkpt>
      <trkpt lat="46.91309" lon="8.67824">
        <ele>1835</ele>
        <time>2021-08-07T08:38:21.627Z</time>
      </trkpt>
      <trkpt lat="46.91308" lon="8.67825">
        <ele>1835</ele>
        <time>2021-08-07T08:38:22.627Z</time>
      </trkpt>
      <trkpt lat="46.91308" lon="8.67826">
        <ele>1835</ele>
        <time>2021-08-07T08:38:23.626Z</time>
      </trkpt>
      <trkpt lat="46.91307" lon="8.67826">
        <ele>1835</ele>
        <time>2021-08-07T08:38:24.627Z</time>
      </trkpt>
      <trkpt lat="46.91306" lon="8.67827">
        <ele>1836</ele>
        <time>2021-08-07T08:38:25.626Z</time>
      </trkpt>
      <trkpt lat="46.91305" lon="8.67827">
        <ele>1836</ele>
        <time>2021-08-07T08:38:26.627Z</time>
      </trkpt>
      <trkpt lat="46.91304" lon="8.67827">
        <ele>1836</ele>
        <time>2021-08-07T08:38:27.627Z</time>
      </trkpt>
      <trkpt lat="46.91304" lon="8.67828">
        <ele>1836</ele>
        <time>2021-08-07T08:38:28.626Z</time>
      </trkpt>
      <trkpt lat="46.91303" lon="8.67828">
        <ele>1836</ele>
        <time>2021-08-07T08:38:29.627Z</time>
      </trkpt>
      <trkpt lat="46.91302" lon="8.67828">
        <ele>1837</ele>
        <time>2021-08-07T08:38:30.626Z</time>
      </trkpt>
      <trkpt lat="46.91301" lon="8.67827">
        <ele>1837</ele>
        <time>2021-08-07T08:38:31.627Z</time>
      </trkpt>
      <trkpt lat="46.913" lon="8.67826">
        <ele>1837</ele>
        <time>2021-08-07T08:38:32.627Z</time>
      </trkpt>
      <trkpt lat="46.91299" lon="8.67827">
        <ele>1837</ele>
        <time>2021-08-07T08:38:33.626Z</time>
      </trkpt>
      <trkpt lat="46.91298" lon="8.67827">
        <ele>1838</ele>
        <time>2021-08-07T08:38:34.627Z</time>
      </trkpt>
      <trkpt lat="46.91297" lon="8.67827">
        <ele>1838</ele>
        <time>2021-08-07T08:38:35.626Z</time>
      </trkpt>
      <trkpt lat="46.91296" lon="8.67828">
        <ele>1838</ele>
        <time>2021-08-07T08:38:36.627Z</time>
      </trkpt>
      <trkpt lat="46.91295" lon="8.67828">
        <ele>1839</ele>
        <time>2021-08-07T08:38:37.627Z</time>
      </trkpt>
      <trkpt lat="46.91294" lon="8.67829">
        <ele>1839</ele>
        <time>2021-08-07T08:38:38.627Z</time>
      </trkpt>
      <trkpt lat="46.91293" lon="8.6783">
        <ele>1839</ele>
        <time>2021-08-07T08:38:39.626Z</time>
      </trkpt>
      <trkpt lat="46.91292" lon="8.67831">
        <ele>1839</ele>
        <time>2021-08-07T08:38:40.627Z</time>
      </trkpt>
      <trkpt lat="46.91291" lon="8.67831">
        <ele>1839</ele>
        <time>2021-08-07T08:38:41.627Z</time>
      </trkpt>
      <trkpt lat="46.9129" lon="8.67831">
        <ele>1840</ele>
        <time>2021-08-07T08:38:42.626Z</time>
      </trkpt>
      <trkpt lat="46.91289" lon="8.6783">
        <ele>1840</ele>
        <time>2021-08-07T08:38:43.627Z</time>
      </trkpt>
      <trkpt lat="46.91289" lon="8.6783">
        <ele>1840</ele>
        <time>2021-08-07T08:38:44.627Z</time>
      </trkpt>
      <trkpt lat="46.91288" lon="8.67829">
        <ele>1840</ele>
        <time>2021-08-07T08:38:45.626Z</time>
      </trkpt>
      <trkpt lat="46.91287" lon="8.67827">
        <ele>1840</ele>
        <time>2021-08-07T08:38:46.627Z</time>
      </trkpt>
      <trkpt lat="46.91287" lon="8.67827">
        <ele>1841</ele>
        <time>2021-08-07T08:38:47.627Z</time>
      </trkpt>
      <trkpt lat="46.91286" lon="8.67827">
        <ele>1841</ele>
        <time>2021-08-07T08:38:48.627Z</time>
      </trkpt>
      <trkpt lat="46.91285" lon="8.67826">
        <ele>1841</ele>
        <time>2021-08-07T08:38:49.626Z</time>
      </trkpt>
      <trkpt lat="46.91285" lon="8.67826">
        <ele>1841</ele>
        <time>2021-08-07T08:38:50.627Z</time>
      </trkpt>
      <trkpt lat="46.91285" lon="8.67825">
        <ele>1841</ele>
        <time>2021-08-07T08:38:51.627Z</time>
      </trkpt>
      <trkpt lat="46.91285" lon="8.67824">
        <ele>1841</ele>
        <time>2021-08-07T08:38:52.627Z</time>
      </trkpt>
      <trkpt lat="46.91284" lon="8.67824">
        <ele>1841</ele>
        <time>2021-08-07T08:38:53.626Z</time>
      </trkpt>
      <trkpt lat="46.91284" lon="8.67824">
        <ele>1841</ele>
        <time>2021-08-07T08:38:54.627Z</time>
      </trkpt>
      <trkpt lat="46.91284" lon="8.67823">
        <ele>1840</ele>
        <time>2021-08-07T08:38:55.626Z</time>
      </trkpt>
      <trkpt lat="46.91283" lon="8.67822">
        <ele>1840</ele>
        <time>2021-08-07T08:38:56.626Z</time>
      </trkpt>
      <trkpt lat="46.91283" lon="8.67821">
        <ele>1840</ele>
        <time>2021-08-07T08:38:57.627Z</time>
      </trkpt>
      <trkpt lat="46.91283" lon="8.67819">
        <ele>1840</ele>
        <time>2021-08-07T08:38:58.627Z</time>
      </trkpt>
      <trkpt lat="46.91281" lon="8.67819">
        <ele>1840</ele>
        <time>2021-08-07T08:38:59.627Z</time>
      </trkpt>
      <trkpt lat="46.9128" lon="8.67819">
        <ele>1840</ele>
        <time>2021-08-07T08:39:00.627Z</time>
      </trkpt>
      <trkpt lat="46.9128" lon="8.6782">
        <ele>1840</ele>
        <time>2021-08-07T08:39:01.627Z</time>
      </trkpt>
      <trkpt lat="46.9128" lon="8.67821">
        <ele>1839</ele>
        <time>2021-08-07T08:39:02.627Z</time>
      </trkpt>
      <trkpt lat="46.91279" lon="8.67821">
        <ele>1839</ele>
        <time>2021-08-07T08:39:03.627Z</time>
      </trkpt>
      <trkpt lat="46.91278" lon="8.67822">
        <ele>1839</ele>
        <time>2021-08-07T08:39:04.627Z</time>
      </trkpt>
      <trkpt lat="46.91277" lon="8.67822">
        <ele>1839</ele>
        <time>2021-08-07T08:39:05.626Z</time>
      </trkpt>
      <trkpt lat="46.91276" lon="8.67821">
        <ele>1838</ele>
        <time>2021-08-07T08:39:06.627Z</time>
      </trkpt>
      <trkpt lat="46.91276" lon="8.67821">
        <ele>1838</ele>
        <time>2021-08-07T08:39:07.627Z</time>
      </trkpt>
      <trkpt lat="46.91275" lon="8.67821">
        <ele>1838</ele>
        <time>2021-08-07T08:39:08.627Z</time>
      </trkpt>
      <trkpt lat="46.91274" lon="8.67821">
        <ele>1838</ele>
        <time>2021-08-07T08:39:09.627Z</time>
      </trkpt>
      <trkpt lat="46.91273" lon="8.67821">
        <ele>1837</ele>
        <time>2021-08-07T08:39:10.627Z</time>
      </trkpt>
      <trkpt lat="46.91272" lon="8.67821">
        <ele>1837</ele>
        <time>2021-08-07T08:39:11.627Z</time>
      </trkpt>
      <trkpt lat="46.91271" lon="8.67822">
        <ele>1836</ele>
        <time>2021-08-07T08:39:12.627Z</time>
      </trkpt>
      <trkpt lat="46.9127" lon="8.67822">
        <ele>1836</ele>
        <time>2021-08-07T08:39:13.627Z</time>
      </trkpt>
      <trkpt lat="46.91269" lon="8.67822">
        <ele>1836</ele>
        <time>2021-08-07T08:39:14.626Z</time>
      </trkpt>
      <trkpt lat="46.91267" lon="8.67822">
        <ele>1835</ele>
        <time>2021-08-07T08:39:15.626Z</time>
      </trkpt>
      <trkpt lat="46.91266" lon="8.67822">
        <ele>1836</ele>
        <time>2021-08-07T08:39:16.627Z</time>
      </trkpt>
      <trkpt lat="46.91265" lon="8.67823">
        <ele>1835</ele>
        <time>2021-08-07T08:39:17.626Z</time>
      </trkpt>
      <trkpt lat="46.91265" lon="8.67824">
        <ele>1835</ele>
        <time>2021-08-07T08:39:18.627Z</time>
      </trkpt>
      <trkpt lat="46.91264" lon="8.67825">
        <ele>1835</ele>
        <time>2021-08-07T08:39:19.627Z</time>
      </trkpt>
      <trkpt lat="46.91263" lon="8.67826">
        <ele>1834</ele>
        <time>2021-08-07T08:39:20.627Z</time>
      </trkpt>
      <trkpt lat="46.91262" lon="8.67827">
        <ele>1834</ele>
        <time>2021-08-07T08:39:21.627Z</time>
      </trkpt>
      <trkpt lat="46.91261" lon="8.67828">
        <ele>1833</ele>
        <time>2021-08-07T08:39:22.626Z</time>
      </trkpt>
      <trkpt lat="46.9126" lon="8.67828">
        <ele>1832</ele>
        <time>2021-08-07T08:39:23.626Z</time>
      </trkpt>
      <trkpt lat="46.91259" lon="8.6783">
        <ele>1831</ele>
        <time>2021-08-07T08:39:24.627Z</time>
      </trkpt>
      <trkpt lat="46.9126" lon="8.67831">
        <ele>1829</ele>
        <time>2021-08-07T08:39:25.627Z</time>
      </trkpt>
      <trkpt lat="46.91259" lon="8.67832">
        <ele>1828</ele>
        <time>2021-08-07T08:39:26.627Z</time>
      </trkpt>
      <trkpt lat="46.91258" lon="8.67832">
        <ele>1827</ele>
        <time>2021-08-07T08:39:27.627Z</time>
      </trkpt>
      <trkpt lat="46.91257" lon="8.67832">
        <ele>1827</ele>
        <time>2021-08-07T08:39:28.626Z</time>
      </trkpt>
      <trkpt lat="46.91257" lon="8.67831">
        <ele>1826</ele>
        <time>2021-08-07T08:39:29.627Z</time>
      </trkpt>
      <trkpt lat="46.91256" lon="8.67831">
        <ele>1826</ele>
        <time>2021-08-07T08:39:30.627Z</time>
      </trkpt>
      <trkpt lat="46.91255" lon="8.67831">
        <ele>1826</ele>
        <time>2021-08-07T08:39:31.627Z</time>
      </trkpt>
      <trkpt lat="46.91254" lon="8.67831">
        <ele>1826</ele>
        <time>2021-08-07T08:39:32.626Z</time>
      </trkpt>
      <trkpt lat="46.91252" lon="8.67831">
        <ele>1826</ele>
        <time>2021-08-07T08:39:33.627Z</time>
      </trkpt>
      <trkpt lat="46.91251" lon="8.67831">
        <ele>1826</ele>
        <time>2021-08-07T08:39:34.627Z</time>
      </trkpt>
      <trkpt lat="46.91249" lon="8.67831">
        <ele>1825</ele>
        <time>2021-08-07T08:39:35.627Z</time>
      </trkpt>
      <trkpt lat="46.91248" lon="8.67831">
        <ele>1824</ele>
        <time>2021-08-07T08:39:36.627Z</time>
      </trkpt>
      <trkpt lat="46.91247" lon="8.67831">
        <ele>1824</ele>
        <time>2021-08-07T08:39:37.627Z</time>
      </trkpt>
      <trkpt lat="46.91245" lon="8.6783">
        <ele>1824</ele>
        <time>2021-08-07T08:39:38.627Z</time>
      </trkpt>
      <trkpt lat="46.91244" lon="8.6783">
        <ele>1823</ele>
        <time>2021-08-07T08:39:39.627Z</time>
      </trkpt>
      <trkpt lat="46.91243" lon="8.6783">
        <ele>1823</ele>
        <time>2021-08-07T08:39:40.626Z</time>
      </trkpt>
      <trkpt lat="46.91243" lon="8.6783">
        <ele>1822</ele>
        <time>2021-08-07T08:39:41.627Z</time>
      </trkpt>
      <trkpt lat="46.91242" lon="8.6783">
        <ele>1821</ele>
        <time>2021-08-07T08:39:42.627Z</time>
      </trkpt>
      <trkpt lat="46.91241" lon="8.67829">
        <ele>1820</ele>
        <time>2021-08-07T08:39:43.627Z</time>
      </trkpt>
      <trkpt lat="46.9124" lon="8.67829">
        <ele>1819</ele>
        <time>2021-08-07T08:39:44.627Z</time>
      </trkpt>
      <trkpt lat="46.91239" lon="8.67828">
        <ele>1819</ele>
        <time>2021-08-07T08:39:45.627Z</time>
      </trkpt>
      <trkpt lat="46.91238" lon="8.67828">
        <ele>1819</ele>
        <time>2021-08-07T08:39:46.627Z</time>
      </trkpt>
      <trkpt lat="46.91237" lon="8.67828">
        <ele>1818</ele>
        <time>2021-08-07T08:39:47.626Z</time>
      </trkpt>
      <trkpt lat="46.91236" lon="8.67827">
        <ele>1818</ele>
        <time>2021-08-07T08:39:48.626Z</time>
      </trkpt>
      <trkpt lat="46.91236" lon="8.67828">
        <ele>1818</ele>
        <time>2021-08-07T08:39:49.627Z</time>
      </trkpt>
      <trkpt lat="46.91235" lon="8.67828">
        <ele>1818</ele>
        <time>2021-08-07T08:39:50.627Z</time>
      </trkpt>
      <trkpt lat="46.91234" lon="8.67828">
        <ele>1817</ele>
        <time>2021-08-07T08:39:51.626Z</time>
      </trkpt>
      <trkpt lat="46.91232" lon="8.67827">
        <ele>1817</ele>
        <time>2021-08-07T08:39:52.627Z</time>
      </trkpt>
      <trkpt lat="46.91232" lon="8.67827">
        <ele>1818</ele>
        <time>2021-08-07T08:39:53.626Z</time>
      </trkpt>
      <trkpt lat="46.91231" lon="8.67827">
        <ele>1818</ele>
        <time>2021-08-07T08:39:54.627Z</time>
      </trkpt>
      <trkpt lat="46.9123" lon="8.67826">
        <ele>1819</ele>
        <time>2021-08-07T08:39:55.627Z</time>
      </trkpt>
      <trkpt lat="46.91229" lon="8.67826">
        <ele>1820</ele>
        <time>2021-08-07T08:39:56.627Z</time>
      </trkpt>
      <trkpt lat="46.91228" lon="8.67826">
        <ele>1821</ele>
        <time>2021-08-07T08:39:57.626Z</time>
      </trkpt>
      <trkpt lat="46.91227" lon="8.67826">
        <ele>1821</ele>
        <time>2021-08-07T08:39:58.627Z</time>
      </trkpt>
      <trkpt lat="46.91226" lon="8.67825">
        <ele>1822</ele>
        <time>2021-08-07T08:39:59.627Z</time>
      </trkpt>
      <trkpt lat="46.91225" lon="8.67825">
        <ele>1822</ele>
        <time>2021-08-07T08:40:00.627Z</time>
      </trkpt>
      <trkpt lat="46.91224" lon="8.67825">
        <ele>1823</ele>
        <time>2021-08-07T08:40:01.627Z</time>
      </trkpt>
      <trkpt lat="46.91223" lon="8.67825">
        <ele>1824</ele>
        <time>2021-08-07T08:40:02.627Z</time>
      </trkpt>
      <trkpt lat="46.91222" lon="8.67826">
        <ele>1824</ele>
        <time>2021-08-07T08:40:03.626Z</time>
      </trkpt>
      <trkpt lat="46.91221" lon="8.67826">
        <ele>1824</ele>
        <time>2021-08-07T08:40:04.627Z</time>
      </trkpt>
      <trkpt lat="46.9122" lon="8.67826">
        <ele>1823</ele>
        <time>2021-08-07T08:40:05.627Z</time>
      </trkpt>
      <trkpt lat="46.9122" lon="8.67826">
        <ele>1823</ele>
        <time>2021-08-07T08:40:06.627Z</time>
      </trkpt>
      <trkpt lat="46.91219" lon="8.67826">
        <ele>1823</ele>
        <time>2021-08-07T08:40:07.627Z</time>
      </trkpt>
      <trkpt lat="46.91217" lon="8.67825">
        <ele>1823</ele>
        <time>2021-08-07T08:40:08.626Z</time>
      </trkpt>
      <trkpt lat="46.91216" lon="8.67824">
        <ele>1823</ele>
        <time>2021-08-07T08:40:09.626Z</time>
      </trkpt>
      <trkpt lat="46.91215" lon="8.67822">
        <ele>1823</ele>
        <time>2021-08-07T08:40:10.626Z</time>
      </trkpt>
      <trkpt lat="46.91214" lon="8.67821">
        <ele>1824</ele>
        <time>2021-08-07T08:40:11.627Z</time>
      </trkpt>
      <trkpt lat="46.91213" lon="8.67821">
        <ele>1824</ele>
        <time>2021-08-07T08:40:12.627Z</time>
      </trkpt>
      <trkpt lat="46.91213" lon="8.67821">
        <ele>1823</ele>
        <time>2021-08-07T08:40:13.626Z</time>
      </trkpt>
      <trkpt lat="46.91212" lon="8.6782">
        <ele>1822</ele>
        <time>2021-08-07T08:40:14.626Z</time>
      </trkpt>
      <trkpt lat="46.91211" lon="8.6782">
        <ele>1821</ele>
        <time>2021-08-07T08:40:15.627Z</time>
      </trkpt>
      <trkpt lat="46.9121" lon="8.67819">
        <ele>1820</ele>
        <time>2021-08-07T08:40:16.627Z</time>
      </trkpt>
      <trkpt lat="46.91209" lon="8.67819">
        <ele>1819</ele>
        <time>2021-08-07T08:40:17.627Z</time>
      </trkpt>
      <trkpt lat="46.91208" lon="8.67818">
        <ele>1818</ele>
        <time>2021-08-07T08:40:18.627Z</time>
      </trkpt>
      <trkpt lat="46.91208" lon="8.67818">
        <ele>1817</ele>
        <time>2021-08-07T08:40:19.626Z</time>
      </trkpt>
      <trkpt lat="46.91207" lon="8.67818">
        <ele>1816</ele>
        <time>2021-08-07T08:40:20.626Z</time>
      </trkpt>
      <trkpt lat="46.91206" lon="8.67817">
        <ele>1815</ele>
        <time>2021-08-07T08:40:21.627Z</time>
      </trkpt>
      <trkpt lat="46.91206" lon="8.67817">
        <ele>1815</ele>
        <time>2021-08-07T08:40:22.626Z</time>
      </trkpt>
      <trkpt lat="46.91205" lon="8.67816">
        <ele>1815</ele>
        <time>2021-08-07T08:40:23.626Z</time>
      </trkpt>
      <trkpt lat="46.91204" lon="8.67815">
        <ele>1815</ele>
        <time>2021-08-07T08:40:24.627Z</time>
      </trkpt>
      <trkpt lat="46.91202" lon="8.67814">
        <ele>1815</ele>
        <time>2021-08-07T08:40:25.627Z</time>
      </trkpt>
      <trkpt lat="46.91201" lon="8.67814">
        <ele>1815</ele>
        <time>2021-08-07T08:40:26.626Z</time>
      </trkpt>
      <trkpt lat="46.912" lon="8.67814">
        <ele>1816</ele>
        <time>2021-08-07T08:40:27.626Z</time>
      </trkpt>
      <trkpt lat="46.91199" lon="8.67814">
        <ele>1816</ele>
        <time>2021-08-07T08:40:28.627Z</time>
      </trkpt>
      <trkpt lat="46.91197" lon="8.67814">
        <ele>1817</ele>
        <time>2021-08-07T08:40:29.627Z</time>
      </trkpt>
      <trkpt lat="46.91196" lon="8.67814">
        <ele>1817</ele>
        <time>2021-08-07T08:40:30.626Z</time>
      </trkpt>
      <trkpt lat="46.91194" lon="8.67814">
        <ele>1818</ele>
        <time>2021-08-07T08:40:31.626Z</time>
      </trkpt>
      <trkpt lat="46.91194" lon="8.67814">
        <ele>1819</ele>
        <time>2021-08-07T08:40:32.626Z</time>
      </trkpt>
      <trkpt lat="46.91192" lon="8.67813">
        <ele>1819</ele>
        <time>2021-08-07T08:40:33.626Z</time>
      </trkpt>
      <trkpt lat="46.91191" lon="8.67813">
        <ele>1820</ele>
        <time>2021-08-07T08:40:34.626Z</time>
      </trkpt>
      <trkpt lat="46.9119" lon="8.67812">
        <ele>1820</ele>
        <time>2021-08-07T08:40:35.626Z</time>
      </trkpt>
      <trkpt lat="46.91188" lon="8.67811">
        <ele>1821</ele>
        <time>2021-08-07T08:40:36.626Z</time>
      </trkpt>
      <trkpt lat="46.91187" lon="8.67811">
        <ele>1821</ele>
        <time>2021-08-07T08:40:37.626Z</time>
      </trkpt>
      <trkpt lat="46.91185" lon="8.6781">
        <ele>1821</ele>
        <time>2021-08-07T08:40:38.626Z</time>
      </trkpt>
      <trkpt lat="46.91185" lon="8.6781">
        <ele>1822</ele>
        <time>2021-08-07T08:40:39.626Z</time>
      </trkpt>
      <trkpt lat="46.91184" lon="8.67811">
        <ele>1821</ele>
        <time>2021-08-07T08:40:40.626Z</time>
      </trkpt>
      <trkpt lat="46.91183" lon="8.67811">
        <ele>1821</ele>
        <time>2021-08-07T08:40:41.626Z</time>
      </trkpt>
      <trkpt lat="46.91182" lon="8.67811">
        <ele>1821</ele>
        <time>2021-08-07T08:40:42.626Z</time>
      </trkpt>
      <trkpt lat="46.9118" lon="8.6781">
        <ele>1821</ele>
        <time>2021-08-07T08:40:43.626Z</time>
      </trkpt>
      <trkpt lat="46.91179" lon="8.6781">
        <ele>1821</ele>
        <time>2021-08-07T08:40:44.626Z</time>
      </trkpt>
      <trkpt lat="46.91178" lon="8.6781">
        <ele>1820</ele>
        <time>2021-08-07T08:40:45.627Z</time>
      </trkpt>
      <trkpt lat="46.91178" lon="8.6781">
        <ele>1820</ele>
        <time>2021-08-07T08:40:46.626Z</time>
      </trkpt>
      <trkpt lat="46.91177" lon="8.6781">
        <ele>1820</ele>
        <time>2021-08-07T08:40:47.626Z</time>
      </trkpt>
      <trkpt lat="46.91176" lon="8.67809">
        <ele>1820</ele>
        <time>2021-08-07T08:40:48.627Z</time>
      </trkpt>
      <trkpt lat="46.91176" lon="8.67808">
        <ele>1819</ele>
        <time>2021-08-07T08:40:49.626Z</time>
      </trkpt>
      <trkpt lat="46.91175" lon="8.67808">
        <ele>1819</ele>
        <time>2021-08-07T08:40:50.627Z</time>
      </trkpt>
      <trkpt lat="46.91174" lon="8.67808">
        <ele>1819</ele>
        <time>2021-08-07T08:40:51.626Z</time>
      </trkpt>
      <trkpt lat="46.91174" lon="8.67807">
        <ele>1818</ele>
        <time>2021-08-07T08:40:52.627Z</time>
      </trkpt>
      <trkpt lat="46.91173" lon="8.67807">
        <ele>1818</ele>
        <time>2021-08-07T08:40:53.626Z</time>
      </trkpt>
      <trkpt lat="46.91172" lon="8.67806">
        <ele>1817</ele>
        <time>2021-08-07T08:40:54.626Z</time>
      </trkpt>
      <trkpt lat="46.91171" lon="8.67805">
        <ele>1816</ele>
        <time>2021-08-07T08:40:55.627Z</time>
      </trkpt>
      <trkpt lat="46.9117" lon="8.67804">
        <ele>1815</ele>
        <time>2021-08-07T08:40:56.626Z</time>
      </trkpt>
      <trkpt lat="46.91169" lon="8.67804">
        <ele>1814</ele>
        <time>2021-08-07T08:40:57.626Z</time>
      </trkpt>
      <trkpt lat="46.91168" lon="8.67804">
        <ele>1814</ele>
        <time>2021-08-07T08:40:58.626Z</time>
      </trkpt>
      <trkpt lat="46.91167" lon="8.67803">
        <ele>1813</ele>
        <time>2021-08-07T08:40:59.626Z</time>
      </trkpt>
      <trkpt lat="46.91166" lon="8.67803">
        <ele>1813</ele>
        <time>2021-08-07T08:41:00.626Z</time>
      </trkpt>
      <trkpt lat="46.91165" lon="8.67803">
        <ele>1813</ele>
        <time>2021-08-07T08:41:01.627Z</time>
      </trkpt>
      <trkpt lat="46.91164" lon="8.67802">
        <ele>1814</ele>
        <time>2021-08-07T08:41:02.627Z</time>
      </trkpt>
      <trkpt lat="46.91163" lon="8.67802">
        <ele>1814</ele>
        <time>2021-08-07T08:41:03.627Z</time>
      </trkpt>
      <trkpt lat="46.91162" lon="8.67802">
        <ele>1814</ele>
        <time>2021-08-07T08:41:04.627Z</time>
      </trkpt>
      <trkpt lat="46.9116" lon="8.67802">
        <ele>1814</ele>
        <time>2021-08-07T08:41:05.627Z</time>
      </trkpt>
      <trkpt lat="46.91159" lon="8.67801">
        <ele>1814</ele>
        <time>2021-08-07T08:41:06.626Z</time>
      </trkpt>
      <trkpt lat="46.91158" lon="8.678">
        <ele>1815</ele>
        <time>2021-08-07T08:41:07.627Z</time>
      </trkpt>
      <trkpt lat="46.91157" lon="8.67799">
        <ele>1815</ele>
        <time>2021-08-07T08:41:08.627Z</time>
      </trkpt>
      <trkpt lat="46.91156" lon="8.67799">
        <ele>1816</ele>
        <time>2021-08-07T08:41:09.626Z</time>
      </trkpt>
      <trkpt lat="46.91155" lon="8.67799">
        <ele>1816</ele>
        <time>2021-08-07T08:41:10.627Z</time>
      </trkpt>
      <trkpt lat="46.91154" lon="8.67798">
        <ele>1816</ele>
        <time>2021-08-07T08:41:11.627Z</time>
      </trkpt>
      <trkpt lat="46.91153" lon="8.67799">
        <ele>1816</ele>
        <time>2021-08-07T08:41:12.626Z</time>
      </trkpt>
      <trkpt lat="46.91152" lon="8.67799">
        <ele>1817</ele>
        <time>2021-08-07T08:41:13.626Z</time>
      </trkpt>
      <trkpt lat="46.91151" lon="8.67799">
        <ele>1817</ele>
        <time>2021-08-07T08:41:14.626Z</time>
      </trkpt>
      <trkpt lat="46.9115" lon="8.67798">
        <ele>1818</ele>
        <time>2021-08-07T08:41:15.627Z</time>
      </trkpt>
      <trkpt lat="46.91148" lon="8.67796">
        <ele>1818</ele>
        <time>2021-08-07T08:41:16.626Z</time>
      </trkpt>
      <trkpt lat="46.91147" lon="8.67794">
        <ele>1819</ele>
        <time>2021-08-07T08:41:17.626Z</time>
      </trkpt>
      <trkpt lat="46.91146" lon="8.67793">
        <ele>1820</ele>
        <time>2021-08-07T08:41:18.626Z</time>
      </trkpt>
      <trkpt lat="46.91145" lon="8.67793">
        <ele>1820</ele>
        <time>2021-08-07T08:41:19.627Z</time>
      </trkpt>
      <trkpt lat="46.91144" lon="8.67792">
        <ele>1821</ele>
        <time>2021-08-07T08:41:20.626Z</time>
      </trkpt>
      <trkpt lat="46.91143" lon="8.67791">
        <ele>1822</ele>
        <time>2021-08-07T08:41:21.626Z</time>
      </trkpt>
      <trkpt lat="46.91141" lon="8.6779">
        <ele>1822</ele>
        <time>2021-08-07T08:41:22.626Z</time>
      </trkpt>
      <trkpt lat="46.9114" lon="8.6779">
        <ele>1822</ele>
        <time>2021-08-07T08:41:23.626Z</time>
      </trkpt>
      <trkpt lat="46.91139" lon="8.67789">
        <ele>1822</ele>
        <time>2021-08-07T08:41:24.627Z</time>
      </trkpt>
      <trkpt lat="46.91138" lon="8.67789">
        <ele>1822</ele>
        <time>2021-08-07T08:41:25.626Z</time>
      </trkpt>
      <trkpt lat="46.91137" lon="8.67788">
        <ele>1822</ele>
        <time>2021-08-07T08:41:26.626Z</time>
      </trkpt>
      <trkpt lat="46.91136" lon="8.67788">
        <ele>1822</ele>
        <time>2021-08-07T08:41:27.626Z</time>
      </trkpt>
      <trkpt lat="46.91135" lon="8.67787">
        <ele>1822</ele>
        <time>2021-08-07T08:41:28.627Z</time>
      </trkpt>
      <trkpt lat="46.91134" lon="8.67786">
        <ele>1823</ele>
        <time>2021-08-07T08:41:29.627Z</time>
      </trkpt>
      <trkpt lat="46.91133" lon="8.67785">
        <ele>1823</ele>
        <time>2021-08-07T08:41:30.626Z</time>
      </trkpt>
      <trkpt lat="46.91132" lon="8.67785">
        <ele>1823</ele>
        <time>2021-08-07T08:41:31.626Z</time>
      </trkpt>
      <trkpt lat="46.91131" lon="8.67785">
        <ele>1822</ele>
        <time>2021-08-07T08:41:32.626Z</time>
      </trkpt>
      <trkpt lat="46.9113" lon="8.67784">
        <ele>1822</ele>
        <time>2021-08-07T08:41:33.626Z</time>
      </trkpt>
      <trkpt lat="46.9113" lon="8.67784">
        <ele>1821</ele>
        <time>2021-08-07T08:41:34.627Z</time>
      </trkpt>
      <trkpt lat="46.91129" lon="8.67783">
        <ele>1821</ele>
        <time>2021-08-07T08:41:35.626Z</time>
      </trkpt>
      <trkpt lat="46.91128" lon="8.67782">
        <ele>1820</ele>
        <time>2021-08-07T08:41:36.626Z</time>
      </trkpt>
      <trkpt lat="46.91126" lon="8.67782">
        <ele>1820</ele>
        <time>2021-08-07T08:41:37.626Z</time>
      </trkpt>
      <trkpt lat="46.91125" lon="8.67781">
        <ele>1820</ele>
        <time>2021-08-07T08:41:38.627Z</time>
      </trkpt>
      <trkpt lat="46.91123" lon="8.67781">
        <ele>1820</ele>
        <time>2021-08-07T08:41:39.626Z</time>
      </trkpt>
      <trkpt lat="46.91123" lon="8.6778">
        <ele>1820</ele>
        <time>2021-08-07T08:41:40.626Z</time>
      </trkpt>
      <trkpt lat="46.91122" lon="8.6778">
        <ele>1821</ele>
        <time>2021-08-07T08:41:41.626Z</time>
      </trkpt>
      <trkpt lat="46.91121" lon="8.67779">
        <ele>1821</ele>
        <time>2021-08-07T08:41:42.626Z</time>
      </trkpt>
      <trkpt lat="46.9112" lon="8.67778">
        <ele>1822</ele>
        <time>2021-08-07T08:41:43.626Z</time>
      </trkpt>
      <trkpt lat="46.91119" lon="8.67777">
        <ele>1822</ele>
        <time>2021-08-07T08:41:44.627Z</time>
      </trkpt>
      <trkpt lat="46.91117" lon="8.67777">
        <ele>1822</ele>
        <time>2021-08-07T08:41:45.626Z</time>
      </trkpt>
      <trkpt lat="46.91117" lon="8.67777">
        <ele>1822</ele>
        <time>2021-08-07T08:41:46.626Z</time>
      </trkpt>
      <trkpt lat="46.91116" lon="8.67776">
        <ele>1823</ele>
        <time>2021-08-07T08:41:47.626Z</time>
      </trkpt>
      <trkpt lat="46.91115" lon="8.67777">
        <ele>1823</ele>
        <time>2021-08-07T08:41:48.627Z</time>
      </trkpt>
      <trkpt lat="46.91114" lon="8.67777">
        <ele>1823</ele>
        <time>2021-08-07T08:41:49.627Z</time>
      </trkpt>
      <trkpt lat="46.91114" lon="8.67778">
        <ele>1823</ele>
        <time>2021-08-07T08:41:50.626Z</time>
      </trkpt>
      <trkpt lat="46.91113" lon="8.67779">
        <ele>1822</ele>
        <time>2021-08-07T08:41:51.627Z</time>
      </trkpt>
      <trkpt lat="46.91112" lon="8.6778">
        <ele>1822</ele>
        <time>2021-08-07T08:41:52.626Z</time>
      </trkpt>
      <trkpt lat="46.91112" lon="8.67781">
        <ele>1821</ele>
        <time>2021-08-07T08:41:53.627Z</time>
      </trkpt>
      <trkpt lat="46.91111" lon="8.67784">
        <ele>1820</ele>
        <time>2021-08-07T08:41:54.626Z</time>
      </trkpt>
      <trkpt lat="46.91111" lon="8.67786">
        <ele>1820</ele>
        <time>2021-08-07T08:41:55.627Z</time>
      </trkpt>
      <trkpt lat="46.91111" lon="8.67788">
        <ele>1820</ele>
        <time>2021-08-07T08:41:56.627Z</time>
      </trkpt>
      <trkpt lat="46.91111" lon="8.6779">
        <ele>1819</ele>
        <time>2021-08-07T08:41:57.627Z</time>
      </trkpt>
      <trkpt lat="46.91111" lon="8.67792">
        <ele>1818</ele>
        <time>2021-08-07T08:41:58.627Z</time>
      </trkpt>
      <trkpt lat="46.91111" lon="8.67793">
        <ele>1818</ele>
        <time>2021-08-07T08:41:59.627Z</time>
      </trkpt>
      <trkpt lat="46.91111" lon="8.67795">
        <ele>1817</ele>
        <time>2021-08-07T08:42:00.627Z</time>
      </trkpt>
      <trkpt lat="46.91111" lon="8.67796">
        <ele>1817</ele>
        <time>2021-08-07T08:42:01.626Z</time>
      </trkpt>
      <trkpt lat="46.9111" lon="8.67796">
        <ele>1816</ele>
        <time>2021-08-07T08:42:02.627Z</time>
      </trkpt>
      <trkpt lat="46.9111" lon="8.67797">
        <ele>1815</ele>
        <time>2021-08-07T08:42:03.626Z</time>
      </trkpt>
      <trkpt lat="46.9111" lon="8.67797">
        <ele>1815</ele>
        <time>2021-08-07T08:42:04.627Z</time>
      </trkpt>
      <trkpt lat="46.91109" lon="8.67798">
        <ele>1814</ele>
        <time>2021-08-07T08:42:05.626Z</time>
      </trkpt>
      <trkpt lat="46.91109" lon="8.67798">
        <ele>1814</ele>
        <time>2021-08-07T08:42:06.627Z</time>
      </trkpt>
      <trkpt lat="46.91109" lon="8.67799">
        <ele>1813</ele>
        <time>2021-08-07T08:42:07.627Z</time>
      </trkpt>
      <trkpt lat="46.91109" lon="8.67799">
        <ele>1813</ele>
        <time>2021-08-07T08:42:08.626Z</time>
      </trkpt>
      <trkpt lat="46.91109" lon="8.67801">
        <ele>1808</ele>
        <time>2021-08-07T08:42:09.627Z</time>
      </trkpt>
      <trkpt lat="46.91109" lon="8.67801">
        <ele>1808</ele>
        <time>2021-08-07T08:42:10.627Z</time>
      </trkpt>
      <trkpt lat="46.91111" lon="8.678">
        <ele>1803</ele>
        <time>2021-08-07T08:42:11.628Z</time>
      </trkpt>
      <trkpt lat="46.91111" lon="8.67801">
        <ele>1803</ele>
        <time>2021-08-07T08:42:12.627Z</time>
      </trkpt>
      <trkpt lat="46.91111" lon="8.67801">
        <ele>1804</ele>
        <time>2021-08-07T08:42:13.628Z</time>
      </trkpt>
      <trkpt lat="46.91111" lon="8.67801">
        <ele>1804</ele>
        <time>2021-08-07T08:42:14.628Z</time>
      </trkpt>
      <trkpt lat="46.9111" lon="8.67804">
        <ele>1805</ele>
        <time>2021-08-07T08:42:15.629Z</time>
      </trkpt>
      <trkpt lat="46.91111" lon="8.67803">
        <ele>1805</ele>
        <time>2021-08-07T08:42:16.629Z</time>
      </trkpt>
      <trkpt lat="46.91111" lon="8.67803">
        <ele>1805</ele>
        <time>2021-08-07T08:42:17.629Z</time>
      </trkpt>
      <trkpt lat="46.91111" lon="8.67803">
        <ele>1808</ele>
        <time>2021-08-07T08:42:18.630Z</time>
      </trkpt>
      <trkpt lat="46.91111" lon="8.67803">
        <ele>1808</ele>
        <time>2021-08-07T08:42:19.629Z</time>
      </trkpt>
      <trkpt lat="46.9111" lon="8.67804">
        <ele>1809</ele>
        <time>2021-08-07T08:42:20.630Z</time>
      </trkpt>
      <trkpt lat="46.91109" lon="8.67804">
        <ele>1809</ele>
        <time>2021-08-07T08:42:21.630Z</time>
      </trkpt>
      <trkpt lat="46.91109" lon="8.67805">
        <ele>1809</ele>
        <time>2021-08-07T08:42:22.629Z</time>
      </trkpt>
      <trkpt lat="46.91109" lon="8.67805">
        <ele>1810</ele>
        <time>2021-08-07T08:42:23.631Z</time>
      </trkpt>
      <trkpt lat="46.91109" lon="8.67804">
        <ele>1810</ele>
        <time>2021-08-07T08:42:24.631Z</time>
      </trkpt>
      <trkpt lat="46.91109" lon="8.67804">
        <ele>1811</ele>
        <time>2021-08-07T08:42:25.630Z</time>
      </trkpt>
      <trkpt lat="46.91107" lon="8.67803">
        <ele>1812</ele>
        <time>2021-08-07T08:42:26.631Z</time>
      </trkpt>
      <trkpt lat="46.91106" lon="8.67803">
        <ele>1812</ele>
        <time>2021-08-07T08:42:27.631Z</time>
      </trkpt>
      <trkpt lat="46.91105" lon="8.67804">
        <ele>1813</ele>
        <time>2021-08-07T08:42:28.630Z</time>
      </trkpt>
      <trkpt lat="46.91104" lon="8.67805">
        <ele>1813</ele>
        <time>2021-08-07T08:42:29.631Z</time>
      </trkpt>
      <trkpt lat="46.91103" lon="8.67806">
        <ele>1813</ele>
        <time>2021-08-07T08:42:30.631Z</time>
      </trkpt>
      <trkpt lat="46.91103" lon="8.67807">
        <ele>1812</ele>
        <time>2021-08-07T08:42:31.630Z</time>
      </trkpt>
      <trkpt lat="46.91102" lon="8.67808">
        <ele>1812</ele>
        <time>2021-08-07T08:42:32.631Z</time>
      </trkpt>
      <trkpt lat="46.91102" lon="8.6781">
        <ele>1811</ele>
        <time>2021-08-07T08:42:33.630Z</time>
      </trkpt>
      <trkpt lat="46.91102" lon="8.67811">
        <ele>1810</ele>
        <time>2021-08-07T08:42:34.631Z</time>
      </trkpt>
      <trkpt lat="46.91101" lon="8.67812">
        <ele>1810</ele>
        <time>2021-08-07T08:42:35.630Z</time>
      </trkpt>
      <trkpt lat="46.91101" lon="8.67813">
        <ele>1809</ele>
        <time>2021-08-07T08:42:36.630Z</time>
      </trkpt>
      <trkpt lat="46.91101" lon="8.67814">
        <ele>1809</ele>
        <time>2021-08-07T08:42:37.630Z</time>
      </trkpt>
      <trkpt lat="46.911" lon="8.67816">
        <ele>1808</ele>
        <time>2021-08-07T08:42:38.631Z</time>
      </trkpt>
      <trkpt lat="46.91099" lon="8.67817">
        <ele>1808</ele>
        <time>2021-08-07T08:42:39.630Z</time>
      </trkpt>
      <trkpt lat="46.91099" lon="8.67818">
        <ele>1809</ele>
        <time>2021-08-07T08:42:40.631Z</time>
      </trkpt>
      <trkpt lat="46.91099" lon="8.67818">
        <ele>1809</ele>
        <time>2021-08-07T08:42:41.631Z</time>
      </trkpt>
      <trkpt lat="46.91099" lon="8.67819">
        <ele>1809</ele>
        <time>2021-08-07T08:42:42.631Z</time>
      </trkpt>
      <trkpt lat="46.91098" lon="8.6782">
        <ele>1808</ele>
        <time>2021-08-07T08:42:43.631Z</time>
      </trkpt>
      <trkpt lat="46.91097" lon="8.6782">
        <ele>1809</ele>
        <time>2021-08-07T08:42:44.632Z</time>
      </trkpt>
      <trkpt lat="46.91097" lon="8.67821">
        <ele>1809</ele>
        <time>2021-08-07T08:42:45.632Z</time>
      </trkpt>
      <trkpt lat="46.91096" lon="8.67821">
        <ele>1809</ele>
        <time>2021-08-07T08:42:46.632Z</time>
      </trkpt>
      <trkpt lat="46.91095" lon="8.67821">
        <ele>1809</ele>
        <time>2021-08-07T08:42:47.633Z</time>
      </trkpt>
      <trkpt lat="46.91094" lon="8.67821">
        <ele>1809</ele>
        <time>2021-08-07T08:42:48.632Z</time>
      </trkpt>
      <trkpt lat="46.91093" lon="8.67821">
        <ele>1810</ele>
        <time>2021-08-07T08:42:49.633Z</time>
      </trkpt>
      <trkpt lat="46.91092" lon="8.6782">
        <ele>1810</ele>
        <time>2021-08-07T08:42:50.632Z</time>
      </trkpt>
      <trkpt lat="46.91091" lon="8.6782">
        <ele>1810</ele>
        <time>2021-08-07T08:42:51.633Z</time>
      </trkpt>
      <trkpt lat="46.9109" lon="8.67821">
        <ele>1810</ele>
        <time>2021-08-07T08:42:52.633Z</time>
      </trkpt>
      <trkpt lat="46.91089" lon="8.67821">
        <ele>1811</ele>
        <time>2021-08-07T08:42:53.633Z</time>
      </trkpt>
      <trkpt lat="46.91087" lon="8.67822">
        <ele>1811</ele>
        <time>2021-08-07T08:42:54.632Z</time>
      </trkpt>
      <trkpt lat="46.91086" lon="8.67822">
        <ele>1812</ele>
        <time>2021-08-07T08:42:55.633Z</time>
      </trkpt>
      <trkpt lat="46.91084" lon="8.67822">
        <ele>1812</ele>
        <time>2021-08-07T08:42:56.633Z</time>
      </trkpt>
      <trkpt lat="46.91083" lon="8.67823">
        <ele>1812</ele>
        <time>2021-08-07T08:42:57.633Z</time>
      </trkpt>
      <trkpt lat="46.91082" lon="8.67823">
        <ele>1812</ele>
        <time>2021-08-07T08:42:58.633Z</time>
      </trkpt>
      <trkpt lat="46.91081" lon="8.67824">
        <ele>1812</ele>
        <time>2021-08-07T08:42:59.632Z</time>
      </trkpt>
      <trkpt lat="46.9108" lon="8.67824">
        <ele>1812</ele>
        <time>2021-08-07T08:43:00.633Z</time>
      </trkpt>
      <trkpt lat="46.91079" lon="8.67824">
        <ele>1812</ele>
        <time>2021-08-07T08:43:01.632Z</time>
      </trkpt>
      <trkpt lat="46.91078" lon="8.67825">
        <ele>1811</ele>
        <time>2021-08-07T08:43:02.633Z</time>
      </trkpt>
      <trkpt lat="46.91077" lon="8.67825">
        <ele>1811</ele>
        <time>2021-08-07T08:43:03.633Z</time>
      </trkpt>
      <trkpt lat="46.91076" lon="8.67825">
        <ele>1811</ele>
        <time>2021-08-07T08:43:04.633Z</time>
      </trkpt>
      <trkpt lat="46.91075" lon="8.67825">
        <ele>1811</ele>
        <time>2021-08-07T08:43:05.633Z</time>
      </trkpt>
      <trkpt lat="46.91074" lon="8.67825">
        <ele>1811</ele>
        <time>2021-08-07T08:43:06.632Z</time>
      </trkpt>
      <trkpt lat="46.91074" lon="8.67825">
        <ele>1811</ele>
        <time>2021-08-07T08:43:07.633Z</time>
      </trkpt>
      <trkpt lat="46.91073" lon="8.67826">
        <ele>1811</ele>
        <time>2021-08-07T08:43:08.632Z</time>
      </trkpt>
      <trkpt lat="46.91072" lon="8.67826">
        <ele>1811</ele>
        <time>2021-08-07T08:43:09.633Z</time>
      </trkpt>
      <trkpt lat="46.91072" lon="8.67827">
        <ele>1811</ele>
        <time>2021-08-07T08:43:10.632Z</time>
      </trkpt>
      <trkpt lat="46.91071" lon="8.67828">
        <ele>1811</ele>
        <time>2021-08-07T08:43:11.633Z</time>
      </trkpt>
      <trkpt lat="46.9107" lon="8.67828">
        <ele>1810</ele>
        <time>2021-08-07T08:43:12.633Z</time>
      </trkpt>
      <trkpt lat="46.91069" lon="8.67829">
        <ele>1810</ele>
        <time>2021-08-07T08:43:13.633Z</time>
      </trkpt>
      <trkpt lat="46.91068" lon="8.6783">
        <ele>1811</ele>
        <time>2021-08-07T08:43:14.633Z</time>
      </trkpt>
      <trkpt lat="46.91068" lon="8.6783">
        <ele>1811</ele>
        <time>2021-08-07T08:43:15.633Z</time>
      </trkpt>
      <trkpt lat="46.91067" lon="8.67831">
        <ele>1811</ele>
        <time>2021-08-07T08:43:16.632Z</time>
      </trkpt>
      <trkpt lat="46.91067" lon="8.67831">
        <ele>1812</ele>
        <time>2021-08-07T08:43:17.633Z</time>
      </trkpt>
      <trkpt lat="46.91067" lon="8.67832">
        <ele>1813</ele>
        <time>2021-08-07T08:43:18.633Z</time>
      </trkpt>
      <trkpt lat="46.91067" lon="8.67832">
        <ele>1813</ele>
        <time>2021-08-07T08:43:19.633Z</time>
      </trkpt>
      <trkpt lat="46.91066" lon="8.67832">
        <ele>1813</ele>
        <time>2021-08-07T08:43:20.632Z</time>
      </trkpt>
      <trkpt lat="46.91066" lon="8.67833">
        <ele>1814</ele>
        <time>2021-08-07T08:43:21.633Z</time>
      </trkpt>
      <trkpt lat="46.91066" lon="8.67833">
        <ele>1814</ele>
        <time>2021-08-07T08:43:22.633Z</time>
      </trkpt>
      <trkpt lat="46.91066" lon="8.67835">
        <ele>1814</ele>
        <time>2021-08-07T08:43:23.632Z</time>
      </trkpt>
      <trkpt lat="46.91066" lon="8.67836">
        <ele>1815</ele>
        <time>2021-08-07T08:43:24.633Z</time>
      </trkpt>
      <trkpt lat="46.91067" lon="8.67838">
        <ele>1815</ele>
        <time>2021-08-07T08:43:25.633Z</time>
      </trkpt>
      <trkpt lat="46.91068" lon="8.67839">
        <ele>1815</ele>
        <time>2021-08-07T08:43:26.633Z</time>
      </trkpt>
      <trkpt lat="46.91068" lon="8.6784">
        <ele>1815</ele>
        <time>2021-08-07T08:43:27.632Z</time>
      </trkpt>
      <trkpt lat="46.91069" lon="8.67841">
        <ele>1815</ele>
        <time>2021-08-07T08:43:28.633Z</time>
      </trkpt>
      <trkpt lat="46.9107" lon="8.6784">
        <ele>1815</ele>
        <time>2021-08-07T08:43:29.633Z</time>
      </trkpt>
      <trkpt lat="46.91071" lon="8.67841">
        <ele>1815</ele>
        <time>2021-08-07T08:43:30.632Z</time>
      </trkpt>
      <trkpt lat="46.91072" lon="8.67841">
        <ele>1816</ele>
        <time>2021-08-07T08:43:31.632Z</time>
      </trkpt>
      <trkpt lat="46.91073" lon="8.67841">
        <ele>1816</ele>
        <time>2021-08-07T08:43:32.632Z</time>
      </trkpt>
      <trkpt lat="46.91073" lon="8.67842">
        <ele>1816</ele>
        <time>2021-08-07T08:43:33.632Z</time>
      </trkpt>
      <trkpt lat="46.91074" lon="8.67842">
        <ele>1816</ele>
        <time>2021-08-07T08:43:34.633Z</time>
      </trkpt>
      <trkpt lat="46.91075" lon="8.67843">
        <ele>1816</ele>
        <time>2021-08-07T08:43:35.632Z</time>
      </trkpt>
      <trkpt lat="46.91075" lon="8.67844">
        <ele>1817</ele>
        <time>2021-08-07T08:43:36.632Z</time>
      </trkpt>
      <trkpt lat="46.91076" lon="8.67844">
        <ele>1817</ele>
        <time>2021-08-07T08:43:37.633Z</time>
      </trkpt>
      <trkpt lat="46.91077" lon="8.67844">
        <ele>1817</ele>
        <time>2021-08-07T08:43:38.633Z</time>
      </trkpt>
      <trkpt lat="46.91077" lon="8.67845">
        <ele>1817</ele>
        <time>2021-08-07T08:43:39.633Z</time>
      </trkpt>
      <trkpt lat="46.91077" lon="8.67846">
        <ele>1817</ele>
        <time>2021-08-07T08:43:40.633Z</time>
      </trkpt>
      <trkpt lat="46.91077" lon="8.67846">
        <ele>1817</ele>
        <time>2021-08-07T08:43:41.633Z</time>
      </trkpt>
      <trkpt lat="46.91077" lon="8.67847">
        <ele>1818</ele>
        <time>2021-08-07T08:43:42.633Z</time>
      </trkpt>
      <trkpt lat="46.91077" lon="8.67848">
        <ele>1818</ele>
        <time>2021-08-07T08:43:43.633Z</time>
      </trkpt>
      <trkpt lat="46.91077" lon="8.67849">
        <ele>1818</ele>
        <time>2021-08-07T08:43:44.632Z</time>
      </trkpt>
      <trkpt lat="46.91077" lon="8.6785">
        <ele>1818</ele>
        <time>2021-08-07T08:43:45.633Z</time>
      </trkpt>
      <trkpt lat="46.91077" lon="8.67851">
        <ele>1818</ele>
        <time>2021-08-07T08:43:46.633Z</time>
      </trkpt>
      <trkpt lat="46.91077" lon="8.67852">
        <ele>1818</ele>
        <time>2021-08-07T08:43:47.633Z</time>
      </trkpt>
      <trkpt lat="46.91077" lon="8.67853">
        <ele>1818</ele>
        <time>2021-08-07T08:43:48.633Z</time>
      </trkpt>
      <trkpt lat="46.91076" lon="8.67853">
        <ele>1818</ele>
        <time>2021-08-07T08:43:49.633Z</time>
      </trkpt>
      <trkpt lat="46.91076" lon="8.67854">
        <ele>1818</ele>
        <time>2021-08-07T08:43:50.633Z</time>
      </trkpt>
      <trkpt lat="46.91076" lon="8.67855">
        <ele>1819</ele>
        <time>2021-08-07T08:43:51.632Z</time>
      </trkpt>
      <trkpt lat="46.91076" lon="8.67855">
        <ele>1819</ele>
        <time>2021-08-07T08:43:52.632Z</time>
      </trkpt>
      <trkpt lat="46.91076" lon="8.67855">
        <ele>1819</ele>
        <time>2021-08-07T08:43:53.634Z</time>
      </trkpt>
      <trkpt lat="46.91075" lon="8.67856">
        <ele>1819</ele>
        <time>2021-08-07T08:43:54.634Z</time>
      </trkpt>
      <trkpt lat="46.91075" lon="8.67856">
        <ele>1819</ele>
        <time>2021-08-07T08:43:55.633Z</time>
      </trkpt>
      <trkpt lat="46.91075" lon="8.67851">
        <ele>1820</ele>
        <time>2021-08-07T08:43:57.635Z</time>
      </trkpt>
      <trkpt lat="46.91076" lon="8.67849">
        <ele>1819</ele>
        <time>2021-08-07T08:43:58.635Z</time>
      </trkpt>
      <trkpt lat="46.91076" lon="8.67848">
        <ele>1818</ele>
        <time>2021-08-07T08:43:59.635Z</time>
      </trkpt>
      <trkpt lat="46.91076" lon="8.67847">
        <ele>1818</ele>
        <time>2021-08-07T08:44:00.636Z</time>
      </trkpt>
      <trkpt lat="46.91076" lon="8.67846">
        <ele>1817</ele>
        <time>2021-08-07T08:44:01.635Z</time>
      </trkpt>
      <trkpt lat="46.91077" lon="8.67846">
        <ele>1816</ele>
        <time>2021-08-07T08:44:02.636Z</time>
      </trkpt>
      <trkpt lat="46.91077" lon="8.67846">
        <ele>1815</ele>
        <time>2021-08-07T08:44:03.636Z</time>
      </trkpt>
      <trkpt lat="46.91077" lon="8.67844">
        <ele>1813</ele>
        <time>2021-08-07T08:44:04.637Z</time>
      </trkpt>
      <trkpt lat="46.91077" lon="8.67843">
        <ele>1813</ele>
        <time>2021-08-07T08:44:05.638Z</time>
      </trkpt>
      <trkpt lat="46.91077" lon="8.67843">
        <ele>1813</ele>
        <time>2021-08-07T08:44:06.637Z</time>
      </trkpt>
      <trkpt lat="46.91077" lon="8.67843">
        <ele>1813</ele>
        <time>2021-08-07T08:44:07.638Z</time>
      </trkpt>
      <trkpt lat="46.91078" lon="8.67842">
        <ele>1814</ele>
        <time>2021-08-07T08:44:08.638Z</time>
      </trkpt>
      <trkpt lat="46.91078" lon="8.67842">
        <ele>1814</ele>
        <time>2021-08-07T08:44:09.637Z</time>
      </trkpt>
      <trkpt lat="46.91078" lon="8.67841">
        <ele>1815</ele>
        <time>2021-08-07T08:44:10.638Z</time>
      </trkpt>
      <trkpt lat="46.91077" lon="8.67842">
        <ele>1818</ele>
        <time>2021-08-07T08:44:11.638Z</time>
      </trkpt>
      <trkpt lat="46.91076" lon="8.67841">
        <ele>1819</ele>
        <time>2021-08-07T08:44:12.637Z</time>
      </trkpt>
      <trkpt lat="46.91075" lon="8.67838">
        <ele>1823</ele>
        <time>2021-08-07T08:44:13.637Z</time>
      </trkpt>
      <trkpt lat="46.91075" lon="8.6784">
        <ele>1825</ele>
        <time>2021-08-07T08:44:14.637Z</time>
      </trkpt>
      <trkpt lat="46.91079" lon="8.67842">
        <ele>1815</ele>
        <time>2021-08-07T08:44:15.638Z</time>
      </trkpt>
      <trkpt lat="46.91078" lon="8.67843">
        <ele>1814</ele>
        <time>2021-08-07T08:44:16.639Z</time>
      </trkpt>
      <trkpt lat="46.91079" lon="8.67844">
        <ele>1814</ele>
        <time>2021-08-07T08:44:17.639Z</time>
      </trkpt>
      <trkpt lat="46.91077" lon="8.67843">
        <ele>1812</ele>
        <time>2021-08-07T08:44:18.640Z</time>
      </trkpt>
      <trkpt lat="46.91077" lon="8.67842">
        <ele>1812</ele>
        <time>2021-08-07T08:44:19.640Z</time>
      </trkpt>
      <trkpt lat="46.91076" lon="8.67841">
        <ele>1812</ele>
        <time>2021-08-07T08:44:20.639Z</time>
      </trkpt>
      <trkpt lat="46.91076" lon="8.6784">
        <ele>1812</ele>
        <time>2021-08-07T08:44:21.639Z</time>
      </trkpt>
      <trkpt lat="46.91075" lon="8.6784">
        <ele>1813</ele>
        <time>2021-08-07T08:44:22.640Z</time>
      </trkpt>
      <trkpt lat="46.91074" lon="8.67839">
        <ele>1813</ele>
        <time>2021-08-07T08:44:23.640Z</time>
      </trkpt>
      <trkpt lat="46.91074" lon="8.67839">
        <ele>1814</ele>
        <time>2021-08-07T08:44:24.640Z</time>
      </trkpt>
      <trkpt lat="46.91073" lon="8.67838">
        <ele>1814</ele>
        <time>2021-08-07T08:44:25.639Z</time>
      </trkpt>
      <trkpt lat="46.91072" lon="8.67837">
        <ele>1815</ele>
        <time>2021-08-07T08:44:26.640Z</time>
      </trkpt>
      <trkpt lat="46.91071" lon="8.67837">
        <ele>1815</ele>
        <time>2021-08-07T08:44:27.640Z</time>
      </trkpt>
      <trkpt lat="46.91071" lon="8.67837">
        <ele>1816</ele>
        <time>2021-08-07T08:44:28.639Z</time>
      </trkpt>
      <trkpt lat="46.91071" lon="8.67837">
        <ele>1816</ele>
        <time>2021-08-07T08:44:29.640Z</time>
      </trkpt>
      <trkpt lat="46.91071" lon="8.67837">
        <ele>1816</ele>
        <time>2021-08-07T08:44:30.640Z</time>
      </trkpt>
      <trkpt lat="46.9107" lon="8.67836">
        <ele>1817</ele>
        <time>2021-08-07T08:44:31.640Z</time>
      </trkpt>
      <trkpt lat="46.9107" lon="8.67836">
        <ele>1818</ele>
        <time>2021-08-07T08:44:32.640Z</time>
      </trkpt>
      <trkpt lat="46.91069" lon="8.67836">
        <ele>1818</ele>
        <time>2021-08-07T08:44:33.640Z</time>
      </trkpt>
      <trkpt lat="46.91069" lon="8.67835">
        <ele>1818</ele>
        <time>2021-08-07T08:44:34.640Z</time>
      </trkpt>
      <trkpt lat="46.91069" lon="8.67834">
        <ele>1818</ele>
        <time>2021-08-07T08:44:35.640Z</time>
      </trkpt>
      <trkpt lat="46.91069" lon="8.67833">
        <ele>1817</ele>
        <time>2021-08-07T08:44:36.640Z</time>
      </trkpt>
      <trkpt lat="46.91069" lon="8.67832">
        <ele>1817</ele>
        <time>2021-08-07T08:44:37.641Z</time>
      </trkpt>
      <trkpt lat="46.91069" lon="8.67831">
        <ele>1816</ele>
        <time>2021-08-07T08:44:38.640Z</time>
      </trkpt>
      <trkpt lat="46.91068" lon="8.6783">
        <ele>1815</ele>
        <time>2021-08-07T08:44:39.641Z</time>
      </trkpt>
      <trkpt lat="46.91067" lon="8.6783">
        <ele>1814</ele>
        <time>2021-08-07T08:44:40.641Z</time>
      </trkpt>
      <trkpt lat="46.91069" lon="8.67831">
        <ele>1821</ele>
        <time>2021-08-07T08:44:41.641Z</time>
      </trkpt>
      <trkpt lat="46.91069" lon="8.6783">
        <ele>1821</ele>
        <time>2021-08-07T08:44:42.642Z</time>
      </trkpt>
      <trkpt lat="46.9107" lon="8.67829">
        <ele>1820</ele>
        <time>2021-08-07T08:44:43.641Z</time>
      </trkpt>
      <trkpt lat="46.91071" lon="8.67828">
        <ele>1820</ele>
        <time>2021-08-07T08:44:44.641Z</time>
      </trkpt>
      <trkpt lat="46.91072" lon="8.67827">
        <ele>1820</ele>
        <time>2021-08-07T08:44:45.641Z</time>
      </trkpt>
      <trkpt lat="46.91072" lon="8.67826">
        <ele>1820</ele>
        <time>2021-08-07T08:44:46.641Z</time>
      </trkpt>
      <trkpt lat="46.91072" lon="8.67825">
        <ele>1820</ele>
        <time>2021-08-07T08:44:47.641Z</time>
      </trkpt>
      <trkpt lat="46.91072" lon="8.67824">
        <ele>1821</ele>
        <time>2021-08-07T08:44:48.642Z</time>
      </trkpt>
      <trkpt lat="46.91071" lon="8.67823">
        <ele>1821</ele>
        <time>2021-08-07T08:44:49.642Z</time>
      </trkpt>
      <trkpt lat="46.91071" lon="8.67821">
        <ele>1821</ele>
        <time>2021-08-07T08:44:50.642Z</time>
      </trkpt>
      <trkpt lat="46.91071" lon="8.6782">
        <ele>1821</ele>
        <time>2021-08-07T08:44:51.641Z</time>
      </trkpt>
      <trkpt lat="46.9107" lon="8.67819">
        <ele>1821</ele>
        <time>2021-08-07T08:44:52.641Z</time>
      </trkpt>
      <trkpt lat="46.9107" lon="8.67818">
        <ele>1821</ele>
        <time>2021-08-07T08:44:53.641Z</time>
      </trkpt>
      <trkpt lat="46.9107" lon="8.67817">
        <ele>1821</ele>
        <time>2021-08-07T08:44:54.642Z</time>
      </trkpt>
      <trkpt lat="46.9107" lon="8.67816">
        <ele>1821</ele>
        <time>2021-08-07T08:44:55.642Z</time>
      </trkpt>
      <trkpt lat="46.9107" lon="8.67815">
        <ele>1821</ele>
        <time>2021-08-07T08:44:56.641Z</time>
      </trkpt>
      <trkpt lat="46.91071" lon="8.67813">
        <ele>1822</ele>
        <time>2021-08-07T08:44:57.641Z</time>
      </trkpt>
      <trkpt lat="46.91071" lon="8.67812">
        <ele>1822</ele>
        <time>2021-08-07T08:44:58.642Z</time>
      </trkpt>
      <trkpt lat="46.91071" lon="8.6781">
        <ele>1822</ele>
        <time>2021-08-07T08:44:59.642Z</time>
      </trkpt>
      <trkpt lat="46.9107" lon="8.67809">
        <ele>1822</ele>
        <time>2021-08-07T08:45:00.641Z</time>
      </trkpt>
      <trkpt lat="46.9107" lon="8.67808">
        <ele>1821</ele>
        <time>2021-08-07T08:45:01.641Z</time>
      </trkpt>
      <trkpt lat="46.9107" lon="8.67806">
        <ele>1821</ele>
        <time>2021-08-07T08:45:02.641Z</time>
      </trkpt>
      <trkpt lat="46.9107" lon="8.67805">
        <ele>1820</ele>
        <time>2021-08-07T08:45:03.642Z</time>
      </trkpt>
      <trkpt lat="46.9107" lon="8.67804">
        <ele>1820</ele>
        <time>2021-08-07T08:45:04.642Z</time>
      </trkpt>
      <trkpt lat="46.9107" lon="8.67803">
        <ele>1819</ele>
        <time>2021-08-07T08:45:05.641Z</time>
      </trkpt>
      <trkpt lat="46.9107" lon="8.67802">
        <ele>1818</ele>
        <time>2021-08-07T08:45:06.641Z</time>
      </trkpt>
      <trkpt lat="46.9107" lon="8.67801">
        <ele>1818</ele>
        <time>2021-08-07T08:45:07.641Z</time>
      </trkpt>
      <trkpt lat="46.91071" lon="8.67799">
        <ele>1817</ele>
        <time>2021-08-07T08:45:08.642Z</time>
      </trkpt>
      <trkpt lat="46.9107" lon="8.67799">
        <ele>1817</ele>
        <time>2021-08-07T08:45:09.641Z</time>
      </trkpt>
      <trkpt lat="46.91071" lon="8.67798">
        <ele>1817</ele>
        <time>2021-08-07T08:45:10.641Z</time>
      </trkpt>
      <trkpt lat="46.91071" lon="8.67797">
        <ele>1816</ele>
        <time>2021-08-07T08:45:11.641Z</time>
      </trkpt>
      <trkpt lat="46.91071" lon="8.67796">
        <ele>1816</ele>
        <time>2021-08-07T08:45:12.642Z</time>
      </trkpt>
      <trkpt lat="46.91072" lon="8.67795">
        <ele>1816</ele>
        <time>2021-08-07T08:45:13.641Z</time>
      </trkpt>
      <trkpt lat="46.91073" lon="8.67794">
        <ele>1815</ele>
        <time>2021-08-07T08:45:14.642Z</time>
      </trkpt>
      <trkpt lat="46.91074" lon="8.67793">
        <ele>1815</ele>
        <time>2021-08-07T08:45:15.641Z</time>
      </trkpt>
      <trkpt lat="46.91075" lon="8.67792">
        <ele>1815</ele>
        <time>2021-08-07T08:45:16.641Z</time>
      </trkpt>
      <trkpt lat="46.91077" lon="8.6779">
        <ele>1815</ele>
        <time>2021-08-07T08:45:17.641Z</time>
      </trkpt>
      <trkpt lat="46.91077" lon="8.6779">
        <ele>1814</ele>
        <time>2021-08-07T08:45:18.642Z</time>
      </trkpt>
      <trkpt lat="46.91078" lon="8.67789">
        <ele>1814</ele>
        <time>2021-08-07T08:45:19.642Z</time>
      </trkpt>
      <trkpt lat="46.91078" lon="8.67788">
        <ele>1814</ele>
        <time>2021-08-07T08:45:20.641Z</time>
      </trkpt>
      <trkpt lat="46.91079" lon="8.67788">
        <ele>1814</ele>
        <time>2021-08-07T08:45:21.641Z</time>
      </trkpt>
      <trkpt lat="46.9108" lon="8.67787">
        <ele>1814</ele>
        <time>2021-08-07T08:45:22.641Z</time>
      </trkpt>
      <trkpt lat="46.9108" lon="8.67787">
        <ele>1814</ele>
        <time>2021-08-07T08:45:23.641Z</time>
      </trkpt>
      <trkpt lat="46.91081" lon="8.67785">
        <ele>1813</ele>
        <time>2021-08-07T08:45:24.641Z</time>
      </trkpt>
      <trkpt lat="46.91082" lon="8.67784">
        <ele>1813</ele>
        <time>2021-08-07T08:45:25.641Z</time>
      </trkpt>
      <trkpt lat="46.91082" lon="8.67784">
        <ele>1813</ele>
        <time>2021-08-07T08:45:26.641Z</time>
      </trkpt>
      <trkpt lat="46.91082" lon="8.67782">
        <ele>1812</ele>
        <time>2021-08-07T08:45:27.641Z</time>
      </trkpt>
      <trkpt lat="46.91083" lon="8.67782">
        <ele>1812</ele>
        <time>2021-08-07T08:45:28.641Z</time>
      </trkpt>
      <trkpt lat="46.91082" lon="8.67781">
        <ele>1812</ele>
        <time>2021-08-07T08:45:29.641Z</time>
      </trkpt>
      <trkpt lat="46.91082" lon="8.6778">
        <ele>1812</ele>
        <time>2021-08-07T08:45:30.642Z</time>
      </trkpt>
      <trkpt lat="46.91082" lon="8.67779">
        <ele>1811</ele>
        <time>2021-08-07T08:45:31.642Z</time>
      </trkpt>
      <trkpt lat="46.91083" lon="8.67778">
        <ele>1811</ele>
        <time>2021-08-07T08:45:32.642Z</time>
      </trkpt>
      <trkpt lat="46.91083" lon="8.67776">
        <ele>1811</ele>
        <time>2021-08-07T08:45:33.641Z</time>
      </trkpt>
      <trkpt lat="46.91083" lon="8.67774">
        <ele>1811</ele>
        <time>2021-08-07T08:45:34.641Z</time>
      </trkpt>
      <trkpt lat="46.91084" lon="8.67773">
        <ele>1810</ele>
        <time>2021-08-07T08:45:35.642Z</time>
      </trkpt>
      <trkpt lat="46.91083" lon="8.67771">
        <ele>1810</ele>
        <time>2021-08-07T08:45:36.641Z</time>
      </trkpt>
      <trkpt lat="46.91083" lon="8.67769">
        <ele>1809</ele>
        <time>2021-08-07T08:45:37.642Z</time>
      </trkpt>
      <trkpt lat="46.91083" lon="8.67767">
        <ele>1809</ele>
        <time>2021-08-07T08:45:38.641Z</time>
      </trkpt>
      <trkpt lat="46.91083" lon="8.67766">
        <ele>1809</ele>
        <time>2021-08-07T08:45:39.641Z</time>
      </trkpt>
      <trkpt lat="46.91083" lon="8.67764">
        <ele>1809</ele>
        <time>2021-08-07T08:45:40.642Z</time>
      </trkpt>
      <trkpt lat="46.91083" lon="8.67762">
        <ele>1809</ele>
        <time>2021-08-07T08:45:41.641Z</time>
      </trkpt>
      <trkpt lat="46.91083" lon="8.67761">
        <ele>1809</ele>
        <time>2021-08-07T08:45:42.642Z</time>
      </trkpt>
      <trkpt lat="46.91082" lon="8.67759">
        <ele>1809</ele>
        <time>2021-08-07T08:45:43.642Z</time>
      </trkpt>
      <trkpt lat="46.91082" lon="8.67757">
        <ele>1809</ele>
        <time>2021-08-07T08:45:44.642Z</time>
      </trkpt>
      <trkpt lat="46.91082" lon="8.67756">
        <ele>1810</ele>
        <time>2021-08-07T08:45:45.642Z</time>
      </trkpt>
      <trkpt lat="46.91082" lon="8.67754">
        <ele>1810</ele>
        <time>2021-08-07T08:45:46.641Z</time>
      </trkpt>
      <trkpt lat="46.91082" lon="8.67753">
        <ele>1810</ele>
        <time>2021-08-07T08:45:47.642Z</time>
      </trkpt>
      <trkpt lat="46.91082" lon="8.67753">
        <ele>1810</ele>
        <time>2021-08-07T08:45:48.641Z</time>
      </trkpt>
      <trkpt lat="46.91083" lon="8.67755">
        <ele>1810</ele>
        <time>2021-08-07T08:45:49.642Z</time>
      </trkpt>
      <trkpt lat="46.91083" lon="8.67756">
        <ele>1811</ele>
        <time>2021-08-07T08:45:50.643Z</time>
      </trkpt>
      <trkpt lat="46.91083" lon="8.67756">
        <ele>1811</ele>
        <time>2021-08-07T08:45:51.643Z</time>
      </trkpt>
      <trkpt lat="46.91083" lon="8.67755">
        <ele>1812</ele>
        <time>2021-08-07T08:45:52.642Z</time>
      </trkpt>
      <trkpt lat="46.91084" lon="8.67749">
        <ele>1810</ele>
        <time>2021-08-07T08:45:53.643Z</time>
      </trkpt>
      <trkpt lat="46.91085" lon="8.67748">
        <ele>1810</ele>
        <time>2021-08-07T08:45:54.643Z</time>
      </trkpt>
      <trkpt lat="46.91084" lon="8.67747">
        <ele>1809</ele>
        <time>2021-08-07T08:45:55.643Z</time>
      </trkpt>
      <trkpt lat="46.91084" lon="8.67746">
        <ele>1809</ele>
        <time>2021-08-07T08:45:56.644Z</time>
      </trkpt>
      <trkpt lat="46.91084" lon="8.67745">
        <ele>1808</ele>
        <time>2021-08-07T08:45:57.643Z</time>
      </trkpt>
      <trkpt lat="46.91083" lon="8.67743">
        <ele>1808</ele>
        <time>2021-08-07T08:45:58.644Z</time>
      </trkpt>
      <trkpt lat="46.91083" lon="8.67742">
        <ele>1807</ele>
        <time>2021-08-07T08:45:59.643Z</time>
      </trkpt>
      <trkpt lat="46.91082" lon="8.6774">
        <ele>1807</ele>
        <time>2021-08-07T08:46:00.643Z</time>
      </trkpt>
      <trkpt lat="46.91082" lon="8.67739">
        <ele>1807</ele>
        <time>2021-08-07T08:46:01.643Z</time>
      </trkpt>
      <trkpt lat="46.91082" lon="8.67737">
        <ele>1807</ele>
        <time>2021-08-07T08:46:02.644Z</time>
      </trkpt>
      <trkpt lat="46.91081" lon="8.67735">
        <ele>1807</ele>
        <time>2021-08-07T08:46:03.644Z</time>
      </trkpt>
      <trkpt lat="46.91081" lon="8.67734">
        <ele>1806</ele>
        <time>2021-08-07T08:46:04.644Z</time>
      </trkpt>
      <trkpt lat="46.91081" lon="8.67733">
        <ele>1806</ele>
        <time>2021-08-07T08:46:05.643Z</time>
      </trkpt>
      <trkpt lat="46.91081" lon="8.67731">
        <ele>1806</ele>
        <time>2021-08-07T08:46:06.644Z</time>
      </trkpt>
      <trkpt lat="46.91081" lon="8.6773">
        <ele>1805</ele>
        <time>2021-08-07T08:46:07.643Z</time>
      </trkpt>
      <trkpt lat="46.91082" lon="8.67728">
        <ele>1805</ele>
        <time>2021-08-07T08:46:08.644Z</time>
      </trkpt>
      <trkpt lat="46.91083" lon="8.67726">
        <ele>1805</ele>
        <time>2021-08-07T08:46:09.644Z</time>
      </trkpt>
      <trkpt lat="46.91084" lon="8.67724">
        <ele>1805</ele>
        <time>2021-08-07T08:46:10.644Z</time>
      </trkpt>
      <trkpt lat="46.91084" lon="8.67723">
        <ele>1805</ele>
        <time>2021-08-07T08:46:11.643Z</time>
      </trkpt>
      <trkpt lat="46.91084" lon="8.6772">
        <ele>1804</ele>
        <time>2021-08-07T08:46:12.644Z</time>
      </trkpt>
      <trkpt lat="46.91085" lon="8.67718">
        <ele>1804</ele>
        <time>2021-08-07T08:46:13.643Z</time>
      </trkpt>
      <trkpt lat="46.91085" lon="8.67717">
        <ele>1803</ele>
        <time>2021-08-07T08:46:14.644Z</time>
      </trkpt>
      <trkpt lat="46.91085" lon="8.67716">
        <ele>1803</ele>
        <time>2021-08-07T08:46:15.643Z</time>
      </trkpt>
      <trkpt lat="46.91084" lon="8.67715">
        <ele>1802</ele>
        <time>2021-08-07T08:46:16.643Z</time>
      </trkpt>
      <trkpt lat="46.91083" lon="8.67714">
        <ele>1801</ele>
        <time>2021-08-07T08:46:17.644Z</time>
      </trkpt>
      <trkpt lat="46.91083" lon="8.67713">
        <ele>1800</ele>
        <time>2021-08-07T08:46:18.643Z</time>
      </trkpt>
      <trkpt lat="46.91083" lon="8.67712">
        <ele>1799</ele>
        <time>2021-08-07T08:46:19.644Z</time>
      </trkpt>
      <trkpt lat="46.91083" lon="8.67711">
        <ele>1798</ele>
        <time>2021-08-07T08:46:20.643Z</time>
      </trkpt>
      <trkpt lat="46.91083" lon="8.6771">
        <ele>1798</ele>
        <time>2021-08-07T08:46:21.643Z</time>
      </trkpt>
      <trkpt lat="46.91083" lon="8.67709">
        <ele>1797</ele>
        <time>2021-08-07T08:46:22.644Z</time>
      </trkpt>
      <trkpt lat="46.91083" lon="8.67708">
        <ele>1797</ele>
        <time>2021-08-07T08:46:23.643Z</time>
      </trkpt>
      <trkpt lat="46.91082" lon="8.67707">
        <ele>1797</ele>
        <time>2021-08-07T08:46:24.643Z</time>
      </trkpt>
      <trkpt lat="46.91083" lon="8.67706">
        <ele>1797</ele>
        <time>2021-08-07T08:46:25.644Z</time>
      </trkpt>
      <trkpt lat="46.91082" lon="8.67705">
        <ele>1797</ele>
        <time>2021-08-07T08:46:26.644Z</time>
      </trkpt>
      <trkpt lat="46.91082" lon="8.67705">
        <ele>1797</ele>
        <time>2021-08-07T08:46:27.644Z</time>
      </trkpt>
      <trkpt lat="46.91082" lon="8.67704">
        <ele>1797</ele>
        <time>2021-08-07T08:46:28.644Z</time>
      </trkpt>
      <trkpt lat="46.91082" lon="8.67703">
        <ele>1797</ele>
        <time>2021-08-07T08:46:29.643Z</time>
      </trkpt>
      <trkpt lat="46.91081" lon="8.67703">
        <ele>1796</ele>
        <time>2021-08-07T08:46:30.644Z</time>
      </trkpt>
      <trkpt lat="46.9108" lon="8.67703">
        <ele>1796</ele>
        <time>2021-08-07T08:46:31.644Z</time>
      </trkpt>
      <trkpt lat="46.91079" lon="8.67702">
        <ele>1796</ele>
        <time>2021-08-07T08:46:32.643Z</time>
      </trkpt>
      <trkpt lat="46.91079" lon="8.67701">
        <ele>1795</ele>
        <time>2021-08-07T08:46:33.643Z</time>
      </trkpt>
      <trkpt lat="46.91078" lon="8.677">
        <ele>1795</ele>
        <time>2021-08-07T08:46:34.644Z</time>
      </trkpt>
      <trkpt lat="46.91078" lon="8.67699">
        <ele>1795</ele>
        <time>2021-08-07T08:46:35.644Z</time>
      </trkpt>
      <trkpt lat="46.91079" lon="8.67698">
        <ele>1795</ele>
        <time>2021-08-07T08:46:36.643Z</time>
      </trkpt>
      <trkpt lat="46.91079" lon="8.67698">
        <ele>1795</ele>
        <time>2021-08-07T08:46:37.643Z</time>
      </trkpt>
      <trkpt lat="46.91078" lon="8.67698">
        <ele>1795</ele>
        <time>2021-08-07T08:46:38.643Z</time>
      </trkpt>
      <trkpt lat="46.91078" lon="8.67697">
        <ele>1795</ele>
        <time>2021-08-07T08:46:39.644Z</time>
      </trkpt>
      <trkpt lat="46.91077" lon="8.67696">
        <ele>1795</ele>
        <time>2021-08-07T08:46:40.643Z</time>
      </trkpt>
      <trkpt lat="46.91076" lon="8.67696">
        <ele>1795</ele>
        <time>2021-08-07T08:46:41.644Z</time>
      </trkpt>
      <trkpt lat="46.91076" lon="8.67695">
        <ele>1796</ele>
        <time>2021-08-07T08:46:42.643Z</time>
      </trkpt>
      <trkpt lat="46.91075" lon="8.67695">
        <ele>1796</ele>
        <time>2021-08-07T08:46:43.643Z</time>
      </trkpt>
      <trkpt lat="46.91075" lon="8.67693">
        <ele>1797</ele>
        <time>2021-08-07T08:46:44.644Z</time>
      </trkpt>
      <trkpt lat="46.91075" lon="8.67692">
        <ele>1797</ele>
        <time>2021-08-07T08:46:45.643Z</time>
      </trkpt>
      <trkpt lat="46.91075" lon="8.67692">
        <ele>1797</ele>
        <time>2021-08-07T08:46:46.643Z</time>
      </trkpt>
      <trkpt lat="46.91075" lon="8.67691">
        <ele>1797</ele>
        <time>2021-08-07T08:46:47.644Z</time>
      </trkpt>
      <trkpt lat="46.91075" lon="8.67691">
        <ele>1797</ele>
        <time>2021-08-07T08:46:48.644Z</time>
      </trkpt>
      <trkpt lat="46.91074" lon="8.6769">
        <ele>1796</ele>
        <time>2021-08-07T08:46:49.643Z</time>
      </trkpt>
      <trkpt lat="46.91074" lon="8.67689">
        <ele>1795</ele>
        <time>2021-08-07T08:46:50.644Z</time>
      </trkpt>
      <trkpt lat="46.91074" lon="8.67688">
        <ele>1795</ele>
        <time>2021-08-07T08:46:51.643Z</time>
      </trkpt>
      <trkpt lat="46.91073" lon="8.67686">
        <ele>1794</ele>
        <time>2021-08-07T08:46:52.643Z</time>
      </trkpt>
      <trkpt lat="46.91073" lon="8.67685">
        <ele>1793</ele>
        <time>2021-08-07T08:46:53.643Z</time>
      </trkpt>
      <trkpt lat="46.91072" lon="8.67684">
        <ele>1792</ele>
        <time>2021-08-07T08:46:54.644Z</time>
      </trkpt>
      <trkpt lat="46.91072" lon="8.67683">
        <ele>1792</ele>
        <time>2021-08-07T08:46:55.643Z</time>
      </trkpt>
      <trkpt lat="46.91071" lon="8.67682">
        <ele>1791</ele>
        <time>2021-08-07T08:46:56.643Z</time>
      </trkpt>
      <trkpt lat="46.9107" lon="8.67681">
        <ele>1791</ele>
        <time>2021-08-07T08:46:57.643Z</time>
      </trkpt>
      <trkpt lat="46.9107" lon="8.6768">
        <ele>1791</ele>
        <time>2021-08-07T08:46:58.643Z</time>
      </trkpt>
      <trkpt lat="46.9107" lon="8.67679">
        <ele>1791</ele>
        <time>2021-08-07T08:46:59.643Z</time>
      </trkpt>
      <trkpt lat="46.9107" lon="8.67678">
        <ele>1791</ele>
        <time>2021-08-07T08:47:00.643Z</time>
      </trkpt>
      <trkpt lat="46.91069" lon="8.67677">
        <ele>1791</ele>
        <time>2021-08-07T08:47:01.643Z</time>
      </trkpt>
      <trkpt lat="46.91069" lon="8.67676">
        <ele>1791</ele>
        <time>2021-08-07T08:47:02.643Z</time>
      </trkpt>
      <trkpt lat="46.91069" lon="8.67676">
        <ele>1791</ele>
        <time>2021-08-07T08:47:03.643Z</time>
      </trkpt>
      <trkpt lat="46.91069" lon="8.67674">
        <ele>1791</ele>
        <time>2021-08-07T08:47:04.643Z</time>
      </trkpt>
      <trkpt lat="46.91069" lon="8.67674">
        <ele>1790</ele>
        <time>2021-08-07T08:47:05.643Z</time>
      </trkpt>
      <trkpt lat="46.9107" lon="8.67674">
        <ele>1790</ele>
        <time>2021-08-07T08:47:06.643Z</time>
      </trkpt>
      <trkpt lat="46.9107" lon="8.67674">
        <ele>1789</ele>
        <time>2021-08-07T08:47:07.643Z</time>
      </trkpt>
      <trkpt lat="46.9107" lon="8.67674">
        <ele>1788</ele>
        <time>2021-08-07T08:47:08.644Z</time>
      </trkpt>
      <trkpt lat="46.9107" lon="8.67674">
        <ele>1787</ele>
        <time>2021-08-07T08:47:09.643Z</time>
      </trkpt>
      <trkpt lat="46.91071" lon="8.67674">
        <ele>1785</ele>
        <time>2021-08-07T08:47:10.644Z</time>
      </trkpt>
      <trkpt lat="46.91071" lon="8.67673">
        <ele>1785</ele>
        <time>2021-08-07T08:47:11.643Z</time>
      </trkpt>
      <trkpt lat="46.91071" lon="8.67672">
        <ele>1785</ele>
        <time>2021-08-07T08:47:12.644Z</time>
      </trkpt>
      <trkpt lat="46.91071" lon="8.67671">
        <ele>1785</ele>
        <time>2021-08-07T08:47:13.643Z</time>
      </trkpt>
      <trkpt lat="46.91072" lon="8.6767">
        <ele>1785</ele>
        <time>2021-08-07T08:47:22.743Z</time>
      </trkpt>
      <trkpt lat="46.91072" lon="8.67669">
        <ele>1785</ele>
        <time>2021-08-07T08:47:23.744Z</time>
      </trkpt>
      <trkpt lat="46.91072" lon="8.67667">
        <ele>1785</ele>
        <time>2021-08-07T08:47:24.743Z</time>
      </trkpt>
      <trkpt lat="46.91072" lon="8.67666">
        <ele>1785</ele>
        <time>2021-08-07T08:47:25.743Z</time>
      </trkpt>
      <trkpt lat="46.91071" lon="8.67665">
        <ele>1784</ele>
        <time>2021-08-07T08:47:26.743Z</time>
      </trkpt>
      <trkpt lat="46.91071" lon="8.67664">
        <ele>1784</ele>
        <time>2021-08-07T08:47:27.743Z</time>
      </trkpt>
      <trkpt lat="46.9107" lon="8.67663">
        <ele>1783</ele>
        <time>2021-08-07T08:47:28.743Z</time>
      </trkpt>
      <trkpt lat="46.9107" lon="8.67662">
        <ele>1783</ele>
        <time>2021-08-07T08:47:29.743Z</time>
      </trkpt>
      <trkpt lat="46.9107" lon="8.67662">
        <ele>1784</ele>
        <time>2021-08-07T08:47:30.743Z</time>
      </trkpt>
      <trkpt lat="46.9107" lon="8.67662">
        <ele>1785</ele>
        <time>2021-08-07T08:47:31.743Z</time>
      </trkpt>
      <trkpt lat="46.91071" lon="8.67661">
        <ele>1785</ele>
        <time>2021-08-07T08:47:32.744Z</time>
      </trkpt>
      <trkpt lat="46.91071" lon="8.67661">
        <ele>1786</ele>
        <time>2021-08-07T08:47:33.743Z</time>
      </trkpt>
      <trkpt lat="46.91072" lon="8.6766">
        <ele>1787</ele>
        <time>2021-08-07T08:47:34.743Z</time>
      </trkpt>
      <trkpt lat="46.91072" lon="8.67658">
        <ele>1788</ele>
        <time>2021-08-07T08:47:35.743Z</time>
      </trkpt>
      <trkpt lat="46.91072" lon="8.67657">
        <ele>1788</ele>
        <time>2021-08-07T08:47:36.744Z</time>
      </trkpt>
      <trkpt lat="46.91072" lon="8.67656">
        <ele>1789</ele>
        <time>2021-08-07T08:47:37.743Z</time>
      </trkpt>
      <trkpt lat="46.91072" lon="8.67655">
        <ele>1788</ele>
        <time>2021-08-07T08:47:38.744Z</time>
      </trkpt>
      <trkpt lat="46.91072" lon="8.67654">
        <ele>1788</ele>
        <time>2021-08-07T08:47:49.842Z</time>
      </trkpt>
      <trkpt lat="46.91071" lon="8.67653">
        <ele>1788</ele>
        <time>2021-08-07T08:47:50.842Z</time>
      </trkpt>
      <trkpt lat="46.9107" lon="8.67652">
        <ele>1788</ele>
        <time>2021-08-07T08:47:56.594Z</time>
      </trkpt>
      <trkpt lat="46.91069" lon="8.67651">
        <ele>1788</ele>
        <time>2021-08-07T08:47:57.593Z</time>
      </trkpt>
      <trkpt lat="46.91069" lon="8.67651">
        <ele>1787</ele>
        <time>2021-08-07T08:47:58.593Z</time>
      </trkpt>
      <trkpt lat="46.91069" lon="8.67651">
        <ele>1786</ele>
        <time>2021-08-07T08:47:59.593Z</time>
      </trkpt>
      <trkpt lat="46.91069" lon="8.6765">
        <ele>1785</ele>
        <time>2021-08-07T08:48:00.593Z</time>
      </trkpt>
      <trkpt lat="46.91068" lon="8.67649">
        <ele>1784</ele>
        <time>2021-08-07T08:48:01.593Z</time>
      </trkpt>
      <trkpt lat="46.91068" lon="8.67647">
        <ele>1784</ele>
        <time>2021-08-07T08:48:02.593Z</time>
      </trkpt>
      <trkpt lat="46.91067" lon="8.67646">
        <ele>1784</ele>
        <time>2021-08-07T08:48:03.594Z</time>
      </trkpt>
      <trkpt lat="46.91065" lon="8.67644">
        <ele>1784</ele>
        <time>2021-08-07T08:48:04.593Z</time>
      </trkpt>
      <trkpt lat="46.91063" lon="8.67642">
        <ele>1784</ele>
        <time>2021-08-07T08:48:05.593Z</time>
      </trkpt>
      <trkpt lat="46.91062" lon="8.6764">
        <ele>1784</ele>
        <time>2021-08-07T08:48:06.593Z</time>
      </trkpt>
      <trkpt lat="46.91061" lon="8.67639">
        <ele>1785</ele>
        <time>2021-08-07T08:48:07.593Z</time>
      </trkpt>
      <trkpt lat="46.9106" lon="8.67637">
        <ele>1785</ele>
        <time>2021-08-07T08:48:08.593Z</time>
      </trkpt>
      <trkpt lat="46.91059" lon="8.67636">
        <ele>1785</ele>
        <time>2021-08-07T08:48:09.593Z</time>
      </trkpt>
      <trkpt lat="46.91059" lon="8.67635">
        <ele>1784</ele>
        <time>2021-08-07T08:48:10.593Z</time>
      </trkpt>
      <trkpt lat="46.91058" lon="8.67635">
        <ele>1784</ele>
        <time>2021-08-07T08:48:11.593Z</time>
      </trkpt>
      <trkpt lat="46.91058" lon="8.67634">
        <ele>1784</ele>
        <time>2021-08-07T08:48:12.593Z</time>
      </trkpt>
      <trkpt lat="46.91058" lon="8.67633">
        <ele>1784</ele>
        <time>2021-08-07T08:48:13.593Z</time>
      </trkpt>
      <trkpt lat="46.91057" lon="8.67633">
        <ele>1784</ele>
        <time>2021-08-07T08:48:14.593Z</time>
      </trkpt>
      <trkpt lat="46.91057" lon="8.67633">
        <ele>1783</ele>
        <time>2021-08-07T08:48:15.594Z</time>
      </trkpt>
      <trkpt lat="46.91057" lon="8.67632">
        <ele>1783</ele>
        <time>2021-08-07T08:48:16.593Z</time>
      </trkpt>
      <trkpt lat="46.91058" lon="8.67631">
        <ele>1783</ele>
        <time>2021-08-07T08:48:17.594Z</time>
      </trkpt>
      <trkpt lat="46.91057" lon="8.6763">
        <ele>1783</ele>
        <time>2021-08-07T08:48:18.593Z</time>
      </trkpt>
      <trkpt lat="46.91057" lon="8.67629">
        <ele>1783</ele>
        <time>2021-08-07T08:48:19.594Z</time>
      </trkpt>
      <trkpt lat="46.91057" lon="8.67628">
        <ele>1782</ele>
        <time>2021-08-07T08:48:20.593Z</time>
      </trkpt>
      <trkpt lat="46.91057" lon="8.67628">
        <ele>1782</ele>
        <time>2021-08-07T08:48:21.594Z</time>
      </trkpt>
      <trkpt lat="46.91056" lon="8.67627">
        <ele>1782</ele>
        <time>2021-08-07T08:48:22.593Z</time>
      </trkpt>
      <trkpt lat="46.91057" lon="8.67626">
        <ele>1782</ele>
        <time>2021-08-07T08:48:23.593Z</time>
      </trkpt>
      <trkpt lat="46.91057" lon="8.67626">
        <ele>1782</ele>
        <time>2021-08-07T08:48:24.593Z</time>
      </trkpt>
      <trkpt lat="46.91057" lon="8.67626">
        <ele>1783</ele>
        <time>2021-08-07T08:48:25.593Z</time>
      </trkpt>
      <trkpt lat="46.91057" lon="8.67626">
        <ele>1783</ele>
        <time>2021-08-07T08:48:26.593Z</time>
      </trkpt>
      <trkpt lat="46.91056" lon="8.67626">
        <ele>1783</ele>
        <time>2021-08-07T08:48:27.594Z</time>
      </trkpt>
      <trkpt lat="46.91056" lon="8.67626">
        <ele>1783</ele>
        <time>2021-08-07T08:48:28.594Z</time>
      </trkpt>
      <trkpt lat="46.91055" lon="8.67624">
        <ele>1784</ele>
        <time>2021-08-07T08:48:29.594Z</time>
      </trkpt>
      <trkpt lat="46.91055" lon="8.67623">
        <ele>1784</ele>
        <time>2021-08-07T08:48:30.593Z</time>
      </trkpt>
      <trkpt lat="46.91055" lon="8.67621">
        <ele>1784</ele>
        <time>2021-08-07T08:48:31.593Z</time>
      </trkpt>
      <trkpt lat="46.91055" lon="8.67621">
        <ele>1785</ele>
        <time>2021-08-07T08:48:32.593Z</time>
      </trkpt>
      <trkpt lat="46.91055" lon="8.6762">
        <ele>1785</ele>
        <time>2021-08-07T08:48:33.593Z</time>
      </trkpt>
      <trkpt lat="46.91054" lon="8.6762">
        <ele>1785</ele>
        <time>2021-08-07T08:48:34.593Z</time>
      </trkpt>
      <trkpt lat="46.91054" lon="8.67618">
        <ele>1785</ele>
        <time>2021-08-07T08:48:35.593Z</time>
      </trkpt>
      <trkpt lat="46.91054" lon="8.67618">
        <ele>1785</ele>
        <time>2021-08-07T08:48:36.593Z</time>
      </trkpt>
      <trkpt lat="46.91055" lon="8.67618">
        <ele>1785</ele>
        <time>2021-08-07T08:48:37.594Z</time>
      </trkpt>
      <trkpt lat="46.91055" lon="8.67618">
        <ele>1785</ele>
        <time>2021-08-07T08:48:38.593Z</time>
      </trkpt>
      <trkpt lat="46.91055" lon="8.67618">
        <ele>1785</ele>
        <time>2021-08-07T08:48:39.593Z</time>
      </trkpt>
      <trkpt lat="46.91055" lon="8.6762">
        <ele>1783</ele>
        <time>2021-08-07T08:48:40.594Z</time>
      </trkpt>
      <trkpt lat="46.91055" lon="8.67621">
        <ele>1783</ele>
        <time>2021-08-07T08:48:41.593Z</time>
      </trkpt>
      <trkpt lat="46.91055" lon="8.67622">
        <ele>1782</ele>
        <time>2021-08-07T08:48:42.594Z</time>
      </trkpt>
      <trkpt lat="46.91055" lon="8.67622">
        <ele>1782</ele>
        <time>2021-08-07T08:48:43.594Z</time>
      </trkpt>
      <trkpt lat="46.91056" lon="8.67625">
        <ele>1780</ele>
        <time>2021-08-07T08:48:44.595Z</time>
      </trkpt>
      <trkpt lat="46.91056" lon="8.67625">
        <ele>1780</ele>
        <time>2021-08-07T08:48:45.595Z</time>
      </trkpt>
      <trkpt lat="46.91056" lon="8.67625">
        <ele>1780</ele>
        <time>2021-08-07T08:48:46.594Z</time>
      </trkpt>
      <trkpt lat="46.91054" lon="8.67624">
        <ele>1787</ele>
        <time>2021-08-07T08:48:47.595Z</time>
      </trkpt>
      <trkpt lat="46.91054" lon="8.67624">
        <ele>1787</ele>
        <time>2021-08-07T08:48:48.594Z</time>
      </trkpt>
      <trkpt lat="46.91053" lon="8.67624">
        <ele>1787</ele>
        <time>2021-08-07T08:48:49.595Z</time>
      </trkpt>
      <trkpt lat="46.91053" lon="8.67624">
        <ele>1787</ele>
        <time>2021-08-07T08:48:50.594Z</time>
      </trkpt>
      <trkpt lat="46.91055" lon="8.67623">
        <ele>1787</ele>
        <time>2021-08-07T08:48:51.595Z</time>
      </trkpt>
      <trkpt lat="46.91055" lon="8.67624">
        <ele>1787</ele>
        <time>2021-08-07T08:48:52.595Z</time>
      </trkpt>
      <trkpt lat="46.91056" lon="8.67624">
        <ele>1788</ele>
        <time>2021-08-07T08:48:53.594Z</time>
      </trkpt>
      <trkpt lat="46.91056" lon="8.67624">
        <ele>1789</ele>
        <time>2021-08-07T08:48:54.595Z</time>
      </trkpt>
      <trkpt lat="46.91056" lon="8.67624">
        <ele>1790</ele>
        <time>2021-08-07T08:48:55.594Z</time>
      </trkpt>
      <trkpt lat="46.91055" lon="8.67624">
        <ele>1792</ele>
        <time>2021-08-07T08:48:56.595Z</time>
      </trkpt>
      <trkpt lat="46.91055" lon="8.67623">
        <ele>1793</ele>
        <time>2021-08-07T08:48:57.595Z</time>
      </trkpt>
      <trkpt lat="46.91055" lon="8.67623">
        <ele>1794</ele>
        <time>2021-08-07T08:48:58.594Z</time>
      </trkpt>
      <trkpt lat="46.91054" lon="8.67623">
        <ele>1795</ele>
        <time>2021-08-07T08:48:59.594Z</time>
      </trkpt>
      <trkpt lat="46.91054" lon="8.67623">
        <ele>1796</ele>
        <time>2021-08-07T08:49:00.595Z</time>
      </trkpt>
      <trkpt lat="46.91055" lon="8.67622">
        <ele>1796</ele>
        <time>2021-08-07T08:49:01.594Z</time>
      </trkpt>
      <trkpt lat="46.91056" lon="8.67622">
        <ele>1795</ele>
        <time>2021-08-07T08:49:02.594Z</time>
      </trkpt>
      <trkpt lat="46.91056" lon="8.67628">
        <ele>1788</ele>
        <time>2021-08-07T08:49:03.594Z</time>
      </trkpt>
      <trkpt lat="46.9106" lon="8.67622">
        <ele>1785</ele>
        <time>2021-08-07T08:49:04.595Z</time>
      </trkpt>
      <trkpt lat="46.9106" lon="8.67621">
        <ele>1784</ele>
        <time>2021-08-07T08:49:05.594Z</time>
      </trkpt>
      <trkpt lat="46.91059" lon="8.6762">
        <ele>1781</ele>
        <time>2021-08-07T08:49:06.595Z</time>
      </trkpt>
      <trkpt lat="46.91059" lon="8.6762">
        <ele>1780</ele>
        <time>2021-08-07T08:49:07.595Z</time>
      </trkpt>
      <trkpt lat="46.91058" lon="8.6762">
        <ele>1780</ele>
        <time>2021-08-07T08:49:08.594Z</time>
      </trkpt>
      <trkpt lat="46.91055" lon="8.67616">
        <ele>1776</ele>
        <time>2021-08-07T08:49:09.595Z</time>
      </trkpt>
      <trkpt lat="46.91055" lon="8.67616">
        <ele>1775</ele>
        <time>2021-08-07T08:49:10.595Z</time>
      </trkpt>
      <trkpt lat="46.91055" lon="8.67616">
        <ele>1772</ele>
        <time>2021-08-07T08:49:11.595Z</time>
      </trkpt>
      <trkpt lat="46.91053" lon="8.67616">
        <ele>1771</ele>
        <time>2021-08-07T08:49:12.596Z</time>
      </trkpt>
      <trkpt lat="46.91054" lon="8.67617">
        <ele>1771</ele>
        <time>2021-08-07T08:49:13.597Z</time>
      </trkpt>
      <trkpt lat="46.91054" lon="8.67617">
        <ele>1771</ele>
        <time>2021-08-07T08:49:14.596Z</time>
      </trkpt>
      <trkpt lat="46.91054" lon="8.67617">
        <ele>1771</ele>
        <time>2021-08-07T08:49:15.596Z</time>
      </trkpt>
      <trkpt lat="46.91054" lon="8.67618">
        <ele>1771</ele>
        <time>2021-08-07T08:49:16.596Z</time>
      </trkpt>
      <trkpt lat="46.91055" lon="8.67617">
        <ele>1771</ele>
        <time>2021-08-07T08:49:17.596Z</time>
      </trkpt>
      <trkpt lat="46.91055" lon="8.67618">
        <ele>1773</ele>
        <time>2021-08-07T08:49:18.597Z</time>
      </trkpt>
      <trkpt lat="46.91055" lon="8.67618">
        <ele>1774</ele>
        <time>2021-08-07T08:49:19.597Z</time>
      </trkpt>
      <trkpt lat="46.91054" lon="8.67618">
        <ele>1774</ele>
        <time>2021-08-07T08:49:20.597Z</time>
      </trkpt>
      <trkpt lat="46.91054" lon="8.67618">
        <ele>1777</ele>
        <time>2021-08-07T08:49:21.597Z</time>
      </trkpt>
      <trkpt lat="46.91054" lon="8.67619">
        <ele>1778</ele>
        <time>2021-08-07T08:49:22.597Z</time>
      </trkpt>
      <trkpt lat="46.91051" lon="8.67614">
        <ele>1784</ele>
        <time>2021-08-07T08:49:23.597Z</time>
      </trkpt>
      <trkpt lat="46.91051" lon="8.67614">
        <ele>1784</ele>
        <time>2021-08-07T08:49:24.598Z</time>
      </trkpt>
      <trkpt lat="46.91049" lon="8.67614">
        <ele>1785</ele>
        <time>2021-08-07T08:49:25.600Z</time>
      </trkpt>
      <trkpt lat="46.91048" lon="8.67614">
        <ele>1784</ele>
        <time>2021-08-07T08:49:26.599Z</time>
      </trkpt>
      <trkpt lat="46.91048" lon="8.67613">
        <ele>1783</ele>
        <time>2021-08-07T08:49:27.599Z</time>
      </trkpt>
      <trkpt lat="46.91048" lon="8.67612">
        <ele>1783</ele>
        <time>2021-08-07T08:49:28.600Z</time>
      </trkpt>
      <trkpt lat="46.91047" lon="8.67611">
        <ele>1782</ele>
        <time>2021-08-07T08:49:32.753Z</time>
      </trkpt>
      <trkpt lat="46.91047" lon="8.6761">
        <ele>1782</ele>
        <time>2021-08-07T08:49:33.753Z</time>
      </trkpt>
      <trkpt lat="46.91047" lon="8.67609">
        <ele>1781</ele>
        <time>2021-08-07T08:49:51.519Z</time>
      </trkpt>
      <trkpt lat="46.91047" lon="8.67608">
        <ele>1781</ele>
        <time>2021-08-07T08:49:52.519Z</time>
      </trkpt>
      <trkpt lat="46.91047" lon="8.67607">
        <ele>1780</ele>
        <time>2021-08-07T08:49:53.518Z</time>
      </trkpt>
      <trkpt lat="46.91047" lon="8.67605">
        <ele>1780</ele>
        <time>2021-08-07T08:49:54.519Z</time>
      </trkpt>
      <trkpt lat="46.91047" lon="8.67604">
        <ele>1780</ele>
        <time>2021-08-07T08:49:55.519Z</time>
      </trkpt>
      <trkpt lat="46.91047" lon="8.67602">
        <ele>1780</ele>
        <time>2021-08-07T08:49:56.518Z</time>
      </trkpt>
      <trkpt lat="46.91047" lon="8.67601">
        <ele>1781</ele>
        <time>2021-08-07T08:49:57.519Z</time>
      </trkpt>
      <trkpt lat="46.91048" lon="8.67599">
        <ele>1781</ele>
        <time>2021-08-07T08:49:58.520Z</time>
      </trkpt>
      <trkpt lat="46.91048" lon="8.67598">
        <ele>1782</ele>
        <time>2021-08-07T08:49:59.519Z</time>
      </trkpt>
      <trkpt lat="46.91048" lon="8.67597">
        <ele>1783</ele>
        <time>2021-08-07T08:50:00.519Z</time>
      </trkpt>
      <trkpt lat="46.91048" lon="8.67596">
        <ele>1783</ele>
        <time>2021-08-07T08:50:01.520Z</time>
      </trkpt>
      <trkpt lat="46.91049" lon="8.67595">
        <ele>1783</ele>
        <time>2021-08-07T08:50:02.520Z</time>
      </trkpt>
      <trkpt lat="46.91049" lon="8.67594">
        <ele>1783</ele>
        <time>2021-08-07T08:50:03.520Z</time>
      </trkpt>
      <trkpt lat="46.91048" lon="8.67593">
        <ele>1782</ele>
        <time>2021-08-07T08:50:04.520Z</time>
      </trkpt>
      <trkpt lat="46.91047" lon="8.67592">
        <ele>1783</ele>
        <time>2021-08-07T08:50:05.520Z</time>
      </trkpt>
      <trkpt lat="46.91045" lon="8.67591">
        <ele>1783</ele>
        <time>2021-08-07T08:50:06.520Z</time>
      </trkpt>
      <trkpt lat="46.91044" lon="8.6759">
        <ele>1783</ele>
        <time>2021-08-07T08:50:07.520Z</time>
      </trkpt>
      <trkpt lat="46.91043" lon="8.67589">
        <ele>1784</ele>
        <time>2021-08-07T08:50:08.520Z</time>
      </trkpt>
      <trkpt lat="46.91042" lon="8.67588">
        <ele>1784</ele>
        <time>2021-08-07T08:50:09.519Z</time>
      </trkpt>
      <trkpt lat="46.91041" lon="8.67588">
        <ele>1784</ele>
        <time>2021-08-07T08:50:10.520Z</time>
      </trkpt>
      <trkpt lat="46.9104" lon="8.67587">
        <ele>1784</ele>
        <time>2021-08-07T08:50:11.519Z</time>
      </trkpt>
      <trkpt lat="46.9104" lon="8.67587">
        <ele>1784</ele>
        <time>2021-08-07T08:50:12.520Z</time>
      </trkpt>
      <trkpt lat="46.91039" lon="8.67586">
        <ele>1784</ele>
        <time>2021-08-07T08:50:13.520Z</time>
      </trkpt>
      <trkpt lat="46.91039" lon="8.67586">
        <ele>1783</ele>
        <time>2021-08-07T08:50:14.519Z</time>
      </trkpt>
      <trkpt lat="46.91038" lon="8.67585">
        <ele>1783</ele>
        <time>2021-08-07T08:50:15.519Z</time>
      </trkpt>
      <trkpt lat="46.91037" lon="8.67584">
        <ele>1782</ele>
        <time>2021-08-07T08:50:16.520Z</time>
      </trkpt>
      <trkpt lat="46.91036" lon="8.67582">
        <ele>1782</ele>
        <time>2021-08-07T08:50:17.520Z</time>
      </trkpt>
      <trkpt lat="46.91036" lon="8.67581">
        <ele>1781</ele>
        <time>2021-08-07T08:50:18.520Z</time>
      </trkpt>
      <trkpt lat="46.91035" lon="8.6758">
        <ele>1782</ele>
        <time>2021-08-07T08:50:19.519Z</time>
      </trkpt>
      <trkpt lat="46.91034" lon="8.67578">
        <ele>1782</ele>
        <time>2021-08-07T08:50:20.520Z</time>
      </trkpt>
      <trkpt lat="46.91033" lon="8.67576">
        <ele>1782</ele>
        <time>2021-08-07T08:50:21.519Z</time>
      </trkpt>
      <trkpt lat="46.91032" lon="8.67575">
        <ele>1782</ele>
        <time>2021-08-07T08:50:22.520Z</time>
      </trkpt>
      <trkpt lat="46.91031" lon="8.67572">
        <ele>1781</ele>
        <time>2021-08-07T08:50:23.520Z</time>
      </trkpt>
      <trkpt lat="46.91031" lon="8.67571">
        <ele>1780</ele>
        <time>2021-08-07T08:50:24.520Z</time>
      </trkpt>
      <trkpt lat="46.91029" lon="8.67569">
        <ele>1779</ele>
        <time>2021-08-07T08:50:25.520Z</time>
      </trkpt>
      <trkpt lat="46.91029" lon="8.67568">
        <ele>1778</ele>
        <time>2021-08-07T08:50:26.520Z</time>
      </trkpt>
      <trkpt lat="46.91028" lon="8.67567">
        <ele>1777</ele>
        <time>2021-08-07T08:50:27.520Z</time>
      </trkpt>
      <trkpt lat="46.91027" lon="8.67566">
        <ele>1776</ele>
        <time>2021-08-07T08:50:28.520Z</time>
      </trkpt>
      <trkpt lat="46.91027" lon="8.67565">
        <ele>1774</ele>
        <time>2021-08-07T08:50:29.520Z</time>
      </trkpt>
      <trkpt lat="46.91027" lon="8.67564">
        <ele>1773</ele>
        <time>2021-08-07T08:50:30.520Z</time>
      </trkpt>
      <trkpt lat="46.91026" lon="8.67562">
        <ele>1772</ele>
        <time>2021-08-07T08:50:31.519Z</time>
      </trkpt>
      <trkpt lat="46.91026" lon="8.67561">
        <ele>1771</ele>
        <time>2021-08-07T08:50:32.520Z</time>
      </trkpt>
      <trkpt lat="46.91026" lon="8.6756">
        <ele>1771</ele>
        <time>2021-08-07T08:50:33.519Z</time>
      </trkpt>
      <trkpt lat="46.91025" lon="8.67559">
        <ele>1770</ele>
        <time>2021-08-07T08:50:34.520Z</time>
      </trkpt>
      <trkpt lat="46.91025" lon="8.67558">
        <ele>1770</ele>
        <time>2021-08-07T08:50:35.520Z</time>
      </trkpt>
      <trkpt lat="46.91024" lon="8.67557">
        <ele>1770</ele>
        <time>2021-08-07T08:50:36.520Z</time>
      </trkpt>
      <trkpt lat="46.91024" lon="8.67556">
        <ele>1770</ele>
        <time>2021-08-07T08:50:37.520Z</time>
      </trkpt>
      <trkpt lat="46.91025" lon="8.67555">
        <ele>1769</ele>
        <time>2021-08-07T08:50:38.520Z</time>
      </trkpt>
      <trkpt lat="46.91024" lon="8.67554">
        <ele>1769</ele>
        <time>2021-08-07T08:50:39.519Z</time>
      </trkpt>
      <trkpt lat="46.91024" lon="8.67553">
        <ele>1768</ele>
        <time>2021-08-07T08:50:40.520Z</time>
      </trkpt>
      <trkpt lat="46.91024" lon="8.67553">
        <ele>1768</ele>
        <time>2021-08-07T08:50:41.520Z</time>
      </trkpt>
      <trkpt lat="46.91024" lon="8.67552">
        <ele>1768</ele>
        <time>2021-08-07T08:50:42.520Z</time>
      </trkpt>
      <trkpt lat="46.91023" lon="8.67551">
        <ele>1768</ele>
        <time>2021-08-07T08:50:43.520Z</time>
      </trkpt>
      <trkpt lat="46.91023" lon="8.6755">
        <ele>1768</ele>
        <time>2021-08-07T08:50:44.519Z</time>
      </trkpt>
      <trkpt lat="46.91022" lon="8.67549">
        <ele>1768</ele>
        <time>2021-08-07T08:50:45.519Z</time>
      </trkpt>
      <trkpt lat="46.91022" lon="8.67548">
        <ele>1768</ele>
        <time>2021-08-07T08:50:46.520Z</time>
      </trkpt>
      <trkpt lat="46.91021" lon="8.67547">
        <ele>1767</ele>
        <time>2021-08-07T08:50:47.519Z</time>
      </trkpt>
      <trkpt lat="46.91021" lon="8.67546">
        <ele>1767</ele>
        <time>2021-08-07T08:50:48.519Z</time>
      </trkpt>
      <trkpt lat="46.91021" lon="8.67544">
        <ele>1767</ele>
        <time>2021-08-07T08:50:49.520Z</time>
      </trkpt>
      <trkpt lat="46.91021" lon="8.67542">
        <ele>1767</ele>
        <time>2021-08-07T08:50:50.520Z</time>
      </trkpt>
      <trkpt lat="46.91022" lon="8.6754">
        <ele>1767</ele>
        <time>2021-08-07T08:50:51.520Z</time>
      </trkpt>
      <trkpt lat="46.91021" lon="8.67539">
        <ele>1767</ele>
        <time>2021-08-07T08:50:52.520Z</time>
      </trkpt>
      <trkpt lat="46.91021" lon="8.67538">
        <ele>1767</ele>
        <time>2021-08-07T08:50:53.520Z</time>
      </trkpt>
      <trkpt lat="46.91021" lon="8.67536">
        <ele>1767</ele>
        <time>2021-08-07T08:50:54.520Z</time>
      </trkpt>
      <trkpt lat="46.91021" lon="8.67535">
        <ele>1767</ele>
        <time>2021-08-07T08:50:55.520Z</time>
      </trkpt>
      <trkpt lat="46.91021" lon="8.67534">
        <ele>1768</ele>
        <time>2021-08-07T08:50:56.520Z</time>
      </trkpt>
      <trkpt lat="46.91022" lon="8.67532">
        <ele>1768</ele>
        <time>2021-08-07T08:50:57.520Z</time>
      </trkpt>
      <trkpt lat="46.91022" lon="8.67531">
        <ele>1768</ele>
        <time>2021-08-07T08:50:58.520Z</time>
      </trkpt>
      <trkpt lat="46.91022" lon="8.67529">
        <ele>1768</ele>
        <time>2021-08-07T08:50:59.519Z</time>
      </trkpt>
      <trkpt lat="46.91022" lon="8.67528">
        <ele>1768</ele>
        <time>2021-08-07T08:51:00.520Z</time>
      </trkpt>
      <trkpt lat="46.91022" lon="8.67526">
        <ele>1768</ele>
        <time>2021-08-07T08:51:01.519Z</time>
      </trkpt>
      <trkpt lat="46.91022" lon="8.67525">
        <ele>1768</ele>
        <time>2021-08-07T08:51:02.520Z</time>
      </trkpt>
      <trkpt lat="46.91023" lon="8.67524">
        <ele>1768</ele>
        <time>2021-08-07T08:51:03.520Z</time>
      </trkpt>
      <trkpt lat="46.91024" lon="8.67523">
        <ele>1769</ele>
        <time>2021-08-07T08:51:04.520Z</time>
      </trkpt>
      <trkpt lat="46.91024" lon="8.67523">
        <ele>1769</ele>
        <time>2021-08-07T08:51:05.520Z</time>
      </trkpt>
      <trkpt lat="46.91024" lon="8.67521">
        <ele>1769</ele>
        <time>2021-08-07T08:51:06.520Z</time>
      </trkpt>
      <trkpt lat="46.91024" lon="8.6752">
        <ele>1769</ele>
        <time>2021-08-07T08:51:07.520Z</time>
      </trkpt>
      <trkpt lat="46.91024" lon="8.67519">
        <ele>1769</ele>
        <time>2021-08-07T08:51:08.519Z</time>
      </trkpt>
      <trkpt lat="46.91024" lon="8.67517">
        <ele>1769</ele>
        <time>2021-08-07T08:51:09.520Z</time>
      </trkpt>
      <trkpt lat="46.91024" lon="8.67516">
        <ele>1769</ele>
        <time>2021-08-07T08:51:10.520Z</time>
      </trkpt>
      <trkpt lat="46.91025" lon="8.67515">
        <ele>1769</ele>
        <time>2021-08-07T08:51:11.520Z</time>
      </trkpt>
      <trkpt lat="46.91026" lon="8.67514">
        <ele>1768</ele>
        <time>2021-08-07T08:51:12.520Z</time>
      </trkpt>
      <trkpt lat="46.91025" lon="8.67513">
        <ele>1768</ele>
        <time>2021-08-07T08:51:13.520Z</time>
      </trkpt>
      <trkpt lat="46.91024" lon="8.67512">
        <ele>1768</ele>
        <time>2021-08-07T08:51:14.519Z</time>
      </trkpt>
      <trkpt lat="46.91024" lon="8.67511">
        <ele>1767</ele>
        <time>2021-08-07T08:51:15.519Z</time>
      </trkpt>
      <trkpt lat="46.91023" lon="8.6751">
        <ele>1767</ele>
        <time>2021-08-07T08:51:16.519Z</time>
      </trkpt>
      <trkpt lat="46.91023" lon="8.67509">
        <ele>1766</ele>
        <time>2021-08-07T08:51:17.520Z</time>
      </trkpt>
      <trkpt lat="46.91023" lon="8.67508">
        <ele>1766</ele>
        <time>2021-08-07T08:51:18.520Z</time>
      </trkpt>
      <trkpt lat="46.91023" lon="8.67507">
        <ele>1765</ele>
        <time>2021-08-07T08:51:19.520Z</time>
      </trkpt>
      <trkpt lat="46.91022" lon="8.67505">
        <ele>1764</ele>
        <time>2021-08-07T08:51:20.520Z</time>
      </trkpt>
      <trkpt lat="46.91022" lon="8.67504">
        <ele>1763</ele>
        <time>2021-08-07T08:51:21.519Z</time>
      </trkpt>
      <trkpt lat="46.91022" lon="8.67503">
        <ele>1762</ele>
        <time>2021-08-07T08:51:22.520Z</time>
      </trkpt>
      <trkpt lat="46.91021" lon="8.67501">
        <ele>1761</ele>
        <time>2021-08-07T08:51:23.519Z</time>
      </trkpt>
      <trkpt lat="46.91021" lon="8.675">
        <ele>1761</ele>
        <time>2021-08-07T08:51:24.520Z</time>
      </trkpt>
      <trkpt lat="46.91021" lon="8.67498">
        <ele>1760</ele>
        <time>2021-08-07T08:51:25.520Z</time>
      </trkpt>
      <trkpt lat="46.91021" lon="8.67497">
        <ele>1759</ele>
        <time>2021-08-07T08:51:26.520Z</time>
      </trkpt>
      <trkpt lat="46.9102" lon="8.67495">
        <ele>1759</ele>
        <time>2021-08-07T08:51:27.519Z</time>
      </trkpt>
      <trkpt lat="46.91021" lon="8.67493">
        <ele>1759</ele>
        <time>2021-08-07T08:51:28.520Z</time>
      </trkpt>
      <trkpt lat="46.91021" lon="8.67492">
        <ele>1758</ele>
        <time>2021-08-07T08:51:29.520Z</time>
      </trkpt>
      <trkpt lat="46.91021" lon="8.67491">
        <ele>1758</ele>
        <time>2021-08-07T08:51:30.520Z</time>
      </trkpt>
      <trkpt lat="46.9102" lon="8.67489">
        <ele>1758</ele>
        <time>2021-08-07T08:51:31.519Z</time>
      </trkpt>
      <trkpt lat="46.91019" lon="8.67488">
        <ele>1758</ele>
        <time>2021-08-07T08:51:32.519Z</time>
      </trkpt>
      <trkpt lat="46.91019" lon="8.67487">
        <ele>1758</ele>
        <time>2021-08-07T08:51:33.520Z</time>
      </trkpt>
      <trkpt lat="46.91018" lon="8.67486">
        <ele>1758</ele>
        <time>2021-08-07T08:51:34.520Z</time>
      </trkpt>
      <trkpt lat="46.91018" lon="8.67487">
        <ele>1758</ele>
        <time>2021-08-07T08:51:35.520Z</time>
      </trkpt>
      <trkpt lat="46.91018" lon="8.67487">
        <ele>1758</ele>
        <time>2021-08-07T08:51:36.520Z</time>
      </trkpt>
      <trkpt lat="46.91018" lon="8.67484">
        <ele>1758</ele>
        <time>2021-08-07T08:51:37.520Z</time>
      </trkpt>
      <trkpt lat="46.91017" lon="8.67483">
        <ele>1758</ele>
        <time>2021-08-07T08:51:38.520Z</time>
      </trkpt>
      <trkpt lat="46.91017" lon="8.67482">
        <ele>1758</ele>
        <time>2021-08-07T08:51:39.521Z</time>
      </trkpt>
      <trkpt lat="46.91017" lon="8.67482">
        <ele>1757</ele>
        <time>2021-08-07T08:51:40.521Z</time>
      </trkpt>
      <trkpt lat="46.91017" lon="8.67481">
        <ele>1757</ele>
        <time>2021-08-07T08:51:41.521Z</time>
      </trkpt>
      <trkpt lat="46.91018" lon="8.67485">
        <ele>1741</ele>
        <time>2021-08-07T08:51:42.521Z</time>
      </trkpt>
      <trkpt lat="46.91021" lon="8.67479">
        <ele>1751</ele>
        <time>2021-08-07T08:51:43.521Z</time>
      </trkpt>
      <trkpt lat="46.91022" lon="8.67478">
        <ele>1752</ele>
        <time>2021-08-07T08:51:44.521Z</time>
      </trkpt>
      <trkpt lat="46.91022" lon="8.67477">
        <ele>1752</ele>
        <time>2021-08-07T08:51:45.520Z</time>
      </trkpt>
      <trkpt lat="46.91022" lon="8.67475">
        <ele>1753</ele>
        <time>2021-08-07T08:51:46.521Z</time>
      </trkpt>
      <trkpt lat="46.91021" lon="8.67474">
        <ele>1753</ele>
        <time>2021-08-07T08:51:47.521Z</time>
      </trkpt>
      <trkpt lat="46.9102" lon="8.67474">
        <ele>1752</ele>
        <time>2021-08-07T08:51:48.521Z</time>
      </trkpt>
      <trkpt lat="46.91019" lon="8.67473">
        <ele>1752</ele>
        <time>2021-08-07T08:51:49.521Z</time>
      </trkpt>
      <trkpt lat="46.91018" lon="8.67472">
        <ele>1752</ele>
        <time>2021-08-07T08:51:50.520Z</time>
      </trkpt>
      <trkpt lat="46.91018" lon="8.67471">
        <ele>1752</ele>
        <time>2021-08-07T08:51:51.521Z</time>
      </trkpt>
      <trkpt lat="46.91017" lon="8.67469">
        <ele>1752</ele>
        <time>2021-08-07T08:51:52.520Z</time>
      </trkpt>
      <trkpt lat="46.91017" lon="8.67467">
        <ele>1752</ele>
        <time>2021-08-07T08:51:53.521Z</time>
      </trkpt>
      <trkpt lat="46.91017" lon="8.67466">
        <ele>1752</ele>
        <time>2021-08-07T08:51:54.520Z</time>
      </trkpt>
      <trkpt lat="46.91016" lon="8.67464">
        <ele>1752</ele>
        <time>2021-08-07T08:51:55.521Z</time>
      </trkpt>
      <trkpt lat="46.91015" lon="8.67463">
        <ele>1752</ele>
        <time>2021-08-07T08:51:56.521Z</time>
      </trkpt>
      <trkpt lat="46.91015" lon="8.67461">
        <ele>1752</ele>
        <time>2021-08-07T08:51:57.521Z</time>
      </trkpt>
      <trkpt lat="46.91014" lon="8.6746">
        <ele>1752</ele>
        <time>2021-08-07T08:51:58.521Z</time>
      </trkpt>
      <trkpt lat="46.91013" lon="8.67458">
        <ele>1752</ele>
        <time>2021-08-07T08:51:59.521Z</time>
      </trkpt>
      <trkpt lat="46.91014" lon="8.67457">
        <ele>1752</ele>
        <time>2021-08-07T08:52:00.520Z</time>
      </trkpt>
      <trkpt lat="46.91013" lon="8.67455">
        <ele>1752</ele>
        <time>2021-08-07T08:52:01.521Z</time>
      </trkpt>
      <trkpt lat="46.91013" lon="8.67454">
        <ele>1752</ele>
        <time>2021-08-07T08:52:02.521Z</time>
      </trkpt>
      <trkpt lat="46.91013" lon="8.67452">
        <ele>1752</ele>
        <time>2021-08-07T08:52:03.520Z</time>
      </trkpt>
      <trkpt lat="46.91012" lon="8.6745">
        <ele>1753</ele>
        <time>2021-08-07T08:52:04.521Z</time>
      </trkpt>
      <trkpt lat="46.91012" lon="8.67449">
        <ele>1753</ele>
        <time>2021-08-07T08:52:05.521Z</time>
      </trkpt>
      <trkpt lat="46.9101" lon="8.67448">
        <ele>1753</ele>
        <time>2021-08-07T08:52:06.521Z</time>
      </trkpt>
      <trkpt lat="46.91009" lon="8.67447">
        <ele>1753</ele>
        <time>2021-08-07T08:52:07.520Z</time>
      </trkpt>
      <trkpt lat="46.91008" lon="8.67447">
        <ele>1753</ele>
        <time>2021-08-07T08:52:08.521Z</time>
      </trkpt>
      <trkpt lat="46.91007" lon="8.67446">
        <ele>1753</ele>
        <time>2021-08-07T08:52:09.521Z</time>
      </trkpt>
      <trkpt lat="46.91006" lon="8.67445">
        <ele>1753</ele>
        <time>2021-08-07T08:52:10.521Z</time>
      </trkpt>
      <trkpt lat="46.91006" lon="8.67444">
        <ele>1753</ele>
        <time>2021-08-07T08:52:11.521Z</time>
      </trkpt>
      <trkpt lat="46.91006" lon="8.67443">
        <ele>1753</ele>
        <time>2021-08-07T08:52:12.521Z</time>
      </trkpt>
      <trkpt lat="46.91006" lon="8.67442">
        <ele>1752</ele>
        <time>2021-08-07T08:52:13.521Z</time>
      </trkpt>
      <trkpt lat="46.91005" lon="8.6744">
        <ele>1752</ele>
        <time>2021-08-07T08:52:14.521Z</time>
      </trkpt>
      <trkpt lat="46.91005" lon="8.67439">
        <ele>1752</ele>
        <time>2021-08-07T08:52:15.521Z</time>
      </trkpt>
      <trkpt lat="46.91004" lon="8.67438">
        <ele>1752</ele>
        <time>2021-08-07T08:52:16.521Z</time>
      </trkpt>
      <trkpt lat="46.91003" lon="8.67437">
        <ele>1752</ele>
        <time>2021-08-07T08:52:17.520Z</time>
      </trkpt>
      <trkpt lat="46.91002" lon="8.67435">
        <ele>1752</ele>
        <time>2021-08-07T08:52:18.521Z</time>
      </trkpt>
      <trkpt lat="46.91002" lon="8.67434">
        <ele>1752</ele>
        <time>2021-08-07T08:52:19.520Z</time>
      </trkpt>
      <trkpt lat="46.91001" lon="8.67433">
        <ele>1752</ele>
        <time>2021-08-07T08:52:20.520Z</time>
      </trkpt>
      <trkpt lat="46.91" lon="8.67431">
        <ele>1752</ele>
        <time>2021-08-07T08:52:21.521Z</time>
      </trkpt>
      <trkpt lat="46.90999" lon="8.6743">
        <ele>1752</ele>
        <time>2021-08-07T08:52:22.521Z</time>
      </trkpt>
      <trkpt lat="46.90999" lon="8.67428">
        <ele>1752</ele>
        <time>2021-08-07T08:52:23.521Z</time>
      </trkpt>
      <trkpt lat="46.90999" lon="8.67427">
        <ele>1752</ele>
        <time>2021-08-07T08:52:24.521Z</time>
      </trkpt>
      <trkpt lat="46.90999" lon="8.67425">
        <ele>1752</ele>
        <time>2021-08-07T08:52:25.521Z</time>
      </trkpt>
      <trkpt lat="46.90998" lon="8.67424">
        <ele>1752</ele>
        <time>2021-08-07T08:52:26.521Z</time>
      </trkpt>
      <trkpt lat="46.90997" lon="8.67423">
        <ele>1752</ele>
        <time>2021-08-07T08:52:27.521Z</time>
      </trkpt>
      <trkpt lat="46.90996" lon="8.67422">
        <ele>1752</ele>
        <time>2021-08-07T08:52:28.520Z</time>
      </trkpt>
      <trkpt lat="46.90995" lon="8.67421">
        <ele>1752</ele>
        <time>2021-08-07T08:52:29.520Z</time>
      </trkpt>
      <trkpt lat="46.90995" lon="8.6742">
        <ele>1752</ele>
        <time>2021-08-07T08:52:30.521Z</time>
      </trkpt>
      <trkpt lat="46.90994" lon="8.67419">
        <ele>1752</ele>
        <time>2021-08-07T08:52:31.521Z</time>
      </trkpt>
      <trkpt lat="46.90993" lon="8.67419">
        <ele>1753</ele>
        <time>2021-08-07T08:52:32.520Z</time>
      </trkpt>
      <trkpt lat="46.90992" lon="8.67418">
        <ele>1752</ele>
        <time>2021-08-07T08:52:33.520Z</time>
      </trkpt>
      <trkpt lat="46.9099" lon="8.67418">
        <ele>1752</ele>
        <time>2021-08-07T08:52:34.520Z</time>
      </trkpt>
      <trkpt lat="46.90989" lon="8.67417">
        <ele>1752</ele>
        <time>2021-08-07T08:52:35.520Z</time>
      </trkpt>
      <trkpt lat="46.90988" lon="8.67417">
        <ele>1753</ele>
        <time>2021-08-07T08:52:36.520Z</time>
      </trkpt>
      <trkpt lat="46.90987" lon="8.67417">
        <ele>1753</ele>
        <time>2021-08-07T08:52:37.521Z</time>
      </trkpt>
      <trkpt lat="46.90986" lon="8.67416">
        <ele>1753</ele>
        <time>2021-08-07T08:52:38.520Z</time>
      </trkpt>
      <trkpt lat="46.90985" lon="8.67416">
        <ele>1753</ele>
        <time>2021-08-07T08:52:39.521Z</time>
      </trkpt>
      <trkpt lat="46.90984" lon="8.67415">
        <ele>1754</ele>
        <time>2021-08-07T08:52:40.520Z</time>
      </trkpt>
      <trkpt lat="46.90983" lon="8.67414">
        <ele>1753</ele>
        <time>2021-08-07T08:52:41.521Z</time>
      </trkpt>
      <trkpt lat="46.90982" lon="8.67413">
        <ele>1753</ele>
        <time>2021-08-07T08:52:42.521Z</time>
      </trkpt>
      <trkpt lat="46.90981" lon="8.67412">
        <ele>1753</ele>
        <time>2021-08-07T08:52:43.521Z</time>
      </trkpt>
      <trkpt lat="46.9098" lon="8.67412">
        <ele>1753</ele>
        <time>2021-08-07T08:52:44.521Z</time>
      </trkpt>
      <trkpt lat="46.90979" lon="8.67411">
        <ele>1752</ele>
        <time>2021-08-07T08:52:45.521Z</time>
      </trkpt>
      <trkpt lat="46.90979" lon="8.67411">
        <ele>1752</ele>
        <time>2021-08-07T08:52:46.521Z</time>
      </trkpt>
      <trkpt lat="46.90978" lon="8.6741">
        <ele>1751</ele>
        <time>2021-08-07T08:52:47.521Z</time>
      </trkpt>
      <trkpt lat="46.90978" lon="8.6741">
        <ele>1751</ele>
        <time>2021-08-07T08:52:48.521Z</time>
      </trkpt>
      <trkpt lat="46.90977" lon="8.67409">
        <ele>1750</ele>
        <time>2021-08-07T08:52:49.521Z</time>
      </trkpt>
      <trkpt lat="46.90977" lon="8.6741">
        <ele>1749</ele>
        <time>2021-08-07T08:52:50.520Z</time>
      </trkpt>
      <trkpt lat="46.90977" lon="8.67408">
        <ele>1745</ele>
        <time>2021-08-07T08:52:51.523Z</time>
      </trkpt>
      <trkpt lat="46.90977" lon="8.67407">
        <ele>1744</ele>
        <time>2021-08-07T08:52:52.523Z</time>
      </trkpt>
      <trkpt lat="46.90977" lon="8.67407">
        <ele>1744</ele>
        <time>2021-08-07T08:52:53.523Z</time>
      </trkpt>
      <trkpt lat="46.90976" lon="8.67405">
        <ele>1744</ele>
        <time>2021-08-07T08:52:54.523Z</time>
      </trkpt>
      <trkpt lat="46.90975" lon="8.67405">
        <ele>1744</ele>
        <time>2021-08-07T08:52:55.522Z</time>
      </trkpt>
      <trkpt lat="46.90975" lon="8.67404">
        <ele>1744</ele>
        <time>2021-08-07T08:52:56.523Z</time>
      </trkpt>
      <trkpt lat="46.90975" lon="8.67403">
        <ele>1745</ele>
        <time>2021-08-07T08:52:57.522Z</time>
      </trkpt>
      <trkpt lat="46.90974" lon="8.67402">
        <ele>1745</ele>
        <time>2021-08-07T08:52:58.523Z</time>
      </trkpt>
      <trkpt lat="46.90973" lon="8.67401">
        <ele>1745</ele>
        <time>2021-08-07T08:52:59.523Z</time>
      </trkpt>
      <trkpt lat="46.90972" lon="8.67401">
        <ele>1746</ele>
        <time>2021-08-07T08:53:00.523Z</time>
      </trkpt>
      <trkpt lat="46.90971" lon="8.67399">
        <ele>1746</ele>
        <time>2021-08-07T08:53:01.523Z</time>
      </trkpt>
      <trkpt lat="46.9097" lon="8.67399">
        <ele>1746</ele>
        <time>2021-08-07T08:53:02.523Z</time>
      </trkpt>
      <trkpt lat="46.90968" lon="8.67398">
        <ele>1746</ele>
        <time>2021-08-07T08:53:03.522Z</time>
      </trkpt>
      <trkpt lat="46.90966" lon="8.67396">
        <ele>1746</ele>
        <time>2021-08-07T08:53:04.523Z</time>
      </trkpt>
      <trkpt lat="46.90965" lon="8.67395">
        <ele>1747</ele>
        <time>2021-08-07T08:53:05.522Z</time>
      </trkpt>
      <trkpt lat="46.90964" lon="8.67393">
        <ele>1747</ele>
        <time>2021-08-07T08:53:06.522Z</time>
      </trkpt>
      <trkpt lat="46.90964" lon="8.67392">
        <ele>1748</ele>
        <time>2021-08-07T08:53:07.522Z</time>
      </trkpt>
      <trkpt lat="46.90963" lon="8.67391">
        <ele>1748</ele>
        <time>2021-08-07T08:53:08.523Z</time>
      </trkpt>
      <trkpt lat="46.90961" lon="8.6739">
        <ele>1748</ele>
        <time>2021-08-07T08:53:09.522Z</time>
      </trkpt>
      <trkpt lat="46.90961" lon="8.67388">
        <ele>1748</ele>
        <time>2021-08-07T08:53:10.523Z</time>
      </trkpt>
      <trkpt lat="46.90959" lon="8.67387">
        <ele>1748</ele>
        <time>2021-08-07T08:53:11.523Z</time>
      </trkpt>
      <trkpt lat="46.90958" lon="8.67386">
        <ele>1747</ele>
        <time>2021-08-07T08:53:12.522Z</time>
      </trkpt>
      <trkpt lat="46.90958" lon="8.67384">
        <ele>1747</ele>
        <time>2021-08-07T08:53:13.523Z</time>
      </trkpt>
      <trkpt lat="46.90957" lon="8.67383">
        <ele>1747</ele>
        <time>2021-08-07T08:53:14.522Z</time>
      </trkpt>
      <trkpt lat="46.90957" lon="8.67381">
        <ele>1747</ele>
        <time>2021-08-07T08:53:15.522Z</time>
      </trkpt>
      <trkpt lat="46.90957" lon="8.6738">
        <ele>1747</ele>
        <time>2021-08-07T08:53:16.522Z</time>
      </trkpt>
      <trkpt lat="46.90957" lon="8.67379">
        <ele>1747</ele>
        <time>2021-08-07T08:53:17.522Z</time>
      </trkpt>
      <trkpt lat="46.90956" lon="8.67378">
        <ele>1747</ele>
        <time>2021-08-07T08:53:18.522Z</time>
      </trkpt>
      <trkpt lat="46.90956" lon="8.67378">
        <ele>1747</ele>
        <time>2021-08-07T08:53:19.523Z</time>
      </trkpt>
      <trkpt lat="46.90955" lon="8.67377">
        <ele>1747</ele>
        <time>2021-08-07T08:53:20.522Z</time>
      </trkpt>
      <trkpt lat="46.90954" lon="8.67376">
        <ele>1746</ele>
        <time>2021-08-07T08:53:21.522Z</time>
      </trkpt>
      <trkpt lat="46.90953" lon="8.67376">
        <ele>1746</ele>
        <time>2021-08-07T08:53:22.522Z</time>
      </trkpt>
      <trkpt lat="46.90953" lon="8.67375">
        <ele>1746</ele>
        <time>2021-08-07T08:53:23.522Z</time>
      </trkpt>
      <trkpt lat="46.90952" lon="8.67374">
        <ele>1746</ele>
        <time>2021-08-07T08:53:24.522Z</time>
      </trkpt>
      <trkpt lat="46.90951" lon="8.67374">
        <ele>1746</ele>
        <time>2021-08-07T08:53:25.522Z</time>
      </trkpt>
      <trkpt lat="46.90949" lon="8.67372">
        <ele>1747</ele>
        <time>2021-08-07T08:53:26.522Z</time>
      </trkpt>
      <trkpt lat="46.90948" lon="8.67371">
        <ele>1747</ele>
        <time>2021-08-07T08:53:27.522Z</time>
      </trkpt>
      <trkpt lat="46.90946" lon="8.6737">
        <ele>1748</ele>
        <time>2021-08-07T08:53:28.522Z</time>
      </trkpt>
      <trkpt lat="46.90944" lon="8.67369">
        <ele>1748</ele>
        <time>2021-08-07T08:53:29.522Z</time>
      </trkpt>
      <trkpt lat="46.90943" lon="8.67369">
        <ele>1749</ele>
        <time>2021-08-07T08:53:30.522Z</time>
      </trkpt>
      <trkpt lat="46.90942" lon="8.67368">
        <ele>1750</ele>
        <time>2021-08-07T08:53:31.522Z</time>
      </trkpt>
      <trkpt lat="46.90941" lon="8.67368">
        <ele>1750</ele>
        <time>2021-08-07T08:53:32.522Z</time>
      </trkpt>
      <trkpt lat="46.9094" lon="8.67367">
        <ele>1751</ele>
        <time>2021-08-07T08:53:33.522Z</time>
      </trkpt>
      <trkpt lat="46.90939" lon="8.67366">
        <ele>1751</ele>
        <time>2021-08-07T08:53:34.522Z</time>
      </trkpt>
      <trkpt lat="46.90939" lon="8.67365">
        <ele>1752</ele>
        <time>2021-08-07T08:53:35.522Z</time>
      </trkpt>
      <trkpt lat="46.90938" lon="8.67365">
        <ele>1752</ele>
        <time>2021-08-07T08:53:36.522Z</time>
      </trkpt>
      <trkpt lat="46.90937" lon="8.67364">
        <ele>1752</ele>
        <time>2021-08-07T08:53:37.522Z</time>
      </trkpt>
      <trkpt lat="46.90936" lon="8.67364">
        <ele>1752</ele>
        <time>2021-08-07T08:53:38.523Z</time>
      </trkpt>
      <trkpt lat="46.90935" lon="8.67363">
        <ele>1751</ele>
        <time>2021-08-07T08:53:39.522Z</time>
      </trkpt>
      <trkpt lat="46.90935" lon="8.67362">
        <ele>1751</ele>
        <time>2021-08-07T08:53:40.523Z</time>
      </trkpt>
      <trkpt lat="46.90935" lon="8.67363">
        <ele>1751</ele>
        <time>2021-08-07T08:53:41.522Z</time>
      </trkpt>
      <trkpt lat="46.90934" lon="8.67365">
        <ele>1751</ele>
        <time>2021-08-07T08:53:42.523Z</time>
      </trkpt>
      <trkpt lat="46.90933" lon="8.67366">
        <ele>1751</ele>
        <time>2021-08-07T08:53:43.523Z</time>
      </trkpt>
      <trkpt lat="46.90932" lon="8.67366">
        <ele>1751</ele>
        <time>2021-08-07T08:53:44.523Z</time>
      </trkpt>
      <trkpt lat="46.90931" lon="8.67366">
        <ele>1752</ele>
        <time>2021-08-07T08:53:45.523Z</time>
      </trkpt>
      <trkpt lat="46.9093" lon="8.67366">
        <ele>1752</ele>
        <time>2021-08-07T08:53:46.523Z</time>
      </trkpt>
      <trkpt lat="46.9093" lon="8.67365">
        <ele>1752</ele>
        <time>2021-08-07T08:53:47.522Z</time>
      </trkpt>
      <trkpt lat="46.90928" lon="8.67365">
        <ele>1752</ele>
        <time>2021-08-07T08:53:48.523Z</time>
      </trkpt>
      <trkpt lat="46.90927" lon="8.67365">
        <ele>1752</ele>
        <time>2021-08-07T08:53:49.522Z</time>
      </trkpt>
      <trkpt lat="46.90927" lon="8.67365">
        <ele>1752</ele>
        <time>2021-08-07T08:53:50.523Z</time>
      </trkpt>
      <trkpt lat="46.90926" lon="8.67364">
        <ele>1751</ele>
        <time>2021-08-07T08:53:51.523Z</time>
      </trkpt>
      <trkpt lat="46.90925" lon="8.67364">
        <ele>1750</ele>
        <time>2021-08-07T08:53:52.523Z</time>
      </trkpt>
      <trkpt lat="46.90924" lon="8.67364">
        <ele>1750</ele>
        <time>2021-08-07T08:53:53.523Z</time>
      </trkpt>
      <trkpt lat="46.90923" lon="8.67364">
        <ele>1749</ele>
        <time>2021-08-07T08:53:54.523Z</time>
      </trkpt>
      <trkpt lat="46.90922" lon="8.67364">
        <ele>1748</ele>
        <time>2021-08-07T08:53:55.523Z</time>
      </trkpt>
      <trkpt lat="46.90922" lon="8.67363">
        <ele>1748</ele>
        <time>2021-08-07T08:53:56.523Z</time>
      </trkpt>
      <trkpt lat="46.90921" lon="8.67363">
        <ele>1747</ele>
        <time>2021-08-07T08:53:57.523Z</time>
      </trkpt>
      <trkpt lat="46.90922" lon="8.67362">
        <ele>1747</ele>
        <time>2021-08-07T08:53:58.522Z</time>
      </trkpt>
      <trkpt lat="46.90922" lon="8.67361">
        <ele>1746</ele>
        <time>2021-08-07T08:53:59.522Z</time>
      </trkpt>
      <trkpt lat="46.90922" lon="8.67361">
        <ele>1746</ele>
        <time>2021-08-07T08:54:00.523Z</time>
      </trkpt>
      <trkpt lat="46.90922" lon="8.67362">
        <ele>1745</ele>
        <time>2021-08-07T08:54:01.523Z</time>
      </trkpt>
      <trkpt lat="46.90923" lon="8.67362">
        <ele>1744</ele>
        <time>2021-08-07T08:54:02.522Z</time>
      </trkpt>
      <trkpt lat="46.90923" lon="8.67362">
        <ele>1743</ele>
        <time>2021-08-07T08:54:03.522Z</time>
      </trkpt>
      <trkpt lat="46.90923" lon="8.67362">
        <ele>1743</ele>
        <time>2021-08-07T08:54:04.523Z</time>
      </trkpt>
      <trkpt lat="46.90922" lon="8.67361">
        <ele>1742</ele>
        <time>2021-08-07T08:54:05.523Z</time>
      </trkpt>
      <trkpt lat="46.90922" lon="8.67361">
        <ele>1741</ele>
        <time>2021-08-07T08:54:06.522Z</time>
      </trkpt>
      <trkpt lat="46.90922" lon="8.6736">
        <ele>1740</ele>
        <time>2021-08-07T08:54:07.523Z</time>
      </trkpt>
      <trkpt lat="46.90922" lon="8.6736">
        <ele>1739</ele>
        <time>2021-08-07T08:54:08.522Z</time>
      </trkpt>
      <trkpt lat="46.90921" lon="8.6736">
        <ele>1739</ele>
        <time>2021-08-07T08:54:09.523Z</time>
      </trkpt>
      <trkpt lat="46.90921" lon="8.6736">
        <ele>1738</ele>
        <time>2021-08-07T08:54:10.523Z</time>
      </trkpt>
      <trkpt lat="46.90919" lon="8.6736">
        <ele>1738</ele>
        <time>2021-08-07T08:54:11.523Z</time>
      </trkpt>
      <trkpt lat="46.90918" lon="8.6736">
        <ele>1737</ele>
        <time>2021-08-07T08:54:12.522Z</time>
      </trkpt>
      <trkpt lat="46.90918" lon="8.6736">
        <ele>1737</ele>
        <time>2021-08-07T08:54:13.523Z</time>
      </trkpt>
      <trkpt lat="46.90917" lon="8.6736">
        <ele>1737</ele>
        <time>2021-08-07T08:54:14.522Z</time>
      </trkpt>
      <trkpt lat="46.90916" lon="8.67359">
        <ele>1736</ele>
        <time>2021-08-07T08:54:15.523Z</time>
      </trkpt>
      <trkpt lat="46.90915" lon="8.67358">
        <ele>1736</ele>
        <time>2021-08-07T08:54:16.522Z</time>
      </trkpt>
      <trkpt lat="46.90915" lon="8.67358">
        <ele>1736</ele>
        <time>2021-08-07T08:54:17.522Z</time>
      </trkpt>
      <trkpt lat="46.90915" lon="8.67358">
        <ele>1735</ele>
        <time>2021-08-07T08:54:18.523Z</time>
      </trkpt>
      <trkpt lat="46.90917" lon="8.6736">
        <ele>1734</ele>
        <time>2021-08-07T08:54:19.523Z</time>
      </trkpt>
      <trkpt lat="46.90917" lon="8.67361">
        <ele>1732</ele>
        <time>2021-08-07T08:54:20.524Z</time>
      </trkpt>
      <trkpt lat="46.90917" lon="8.67361">
        <ele>1730</ele>
        <time>2021-08-07T08:54:21.524Z</time>
      </trkpt>
      <trkpt lat="46.90916" lon="8.67361">
        <ele>1729</ele>
        <time>2021-08-07T08:54:22.523Z</time>
      </trkpt>
      <trkpt lat="46.90917" lon="8.67359">
        <ele>1724</ele>
        <time>2021-08-07T08:54:23.523Z</time>
      </trkpt>
      <trkpt lat="46.90916" lon="8.6736">
        <ele>1724</ele>
        <time>2021-08-07T08:54:24.523Z</time>
      </trkpt>
      <trkpt lat="46.90916" lon="8.67359">
        <ele>1724</ele>
        <time>2021-08-07T08:54:25.523Z</time>
      </trkpt>
      <trkpt lat="46.90918" lon="8.6736">
        <ele>1725</ele>
        <time>2021-08-07T08:54:26.525Z</time>
      </trkpt>
      <trkpt lat="46.90918" lon="8.67361">
        <ele>1725</ele>
        <time>2021-08-07T08:54:27.525Z</time>
      </trkpt>
      <trkpt lat="46.90919" lon="8.67362">
        <ele>1726</ele>
        <time>2021-08-07T08:54:28.525Z</time>
      </trkpt>
      <trkpt lat="46.90919" lon="8.67363">
        <ele>1726</ele>
        <time>2021-08-07T08:54:29.525Z</time>
      </trkpt>
      <trkpt lat="46.90919" lon="8.67363">
        <ele>1727</ele>
        <time>2021-08-07T08:54:30.525Z</time>
      </trkpt>
      <trkpt lat="46.9092" lon="8.67363">
        <ele>1727</ele>
        <time>2021-08-07T08:54:31.525Z</time>
      </trkpt>
      <trkpt lat="46.90921" lon="8.67363">
        <ele>1728</ele>
        <time>2021-08-07T08:54:32.524Z</time>
      </trkpt>
      <trkpt lat="46.90921" lon="8.67363">
        <ele>1729</ele>
        <time>2021-08-07T08:54:33.525Z</time>
      </trkpt>
      <trkpt lat="46.90921" lon="8.67363">
        <ele>1730</ele>
        <time>2021-08-07T08:54:34.525Z</time>
      </trkpt>
      <trkpt lat="46.90922" lon="8.67363">
        <ele>1731</ele>
        <time>2021-08-07T08:54:35.524Z</time>
      </trkpt>
      <trkpt lat="46.90923" lon="8.67363">
        <ele>1732</ele>
        <time>2021-08-07T08:54:36.525Z</time>
      </trkpt>
      <trkpt lat="46.90924" lon="8.67363">
        <ele>1733</ele>
        <time>2021-08-07T08:54:37.525Z</time>
      </trkpt>
      <trkpt lat="46.90925" lon="8.67362">
        <ele>1733</ele>
        <time>2021-08-07T08:54:38.524Z</time>
      </trkpt>
      <trkpt lat="46.90925" lon="8.67362">
        <ele>1734</ele>
        <time>2021-08-07T08:54:39.524Z</time>
      </trkpt>
      <trkpt lat="46.90926" lon="8.67361">
        <ele>1735</ele>
        <time>2021-08-07T08:54:40.525Z</time>
      </trkpt>
      <trkpt lat="46.90927" lon="8.6736">
        <ele>1735</ele>
        <time>2021-08-07T08:54:41.525Z</time>
      </trkpt>
      <trkpt lat="46.90928" lon="8.67358">
        <ele>1736</ele>
        <time>2021-08-07T08:54:42.525Z</time>
      </trkpt>
      <trkpt lat="46.90928" lon="8.67357">
        <ele>1736</ele>
        <time>2021-08-07T08:54:43.525Z</time>
      </trkpt>
      <trkpt lat="46.90929" lon="8.67356">
        <ele>1737</ele>
        <time>2021-08-07T08:54:44.525Z</time>
      </trkpt>
      <trkpt lat="46.9093" lon="8.67355">
        <ele>1737</ele>
        <time>2021-08-07T08:54:45.524Z</time>
      </trkpt>
      <trkpt lat="46.90931" lon="8.67354">
        <ele>1737</ele>
        <time>2021-08-07T08:54:46.525Z</time>
      </trkpt>
      <trkpt lat="46.90932" lon="8.67352">
        <ele>1737</ele>
        <time>2021-08-07T08:54:47.524Z</time>
      </trkpt>
      <trkpt lat="46.90933" lon="8.67351">
        <ele>1737</ele>
        <time>2021-08-07T08:54:48.525Z</time>
      </trkpt>
      <trkpt lat="46.90933" lon="8.6735">
        <ele>1738</ele>
        <time>2021-08-07T08:54:49.525Z</time>
      </trkpt>
      <trkpt lat="46.90933" lon="8.6735">
        <ele>1738</ele>
        <time>2021-08-07T08:54:50.525Z</time>
      </trkpt>
      <trkpt lat="46.90934" lon="8.67349">
        <ele>1738</ele>
        <time>2021-08-07T08:54:51.525Z</time>
      </trkpt>
      <trkpt lat="46.90935" lon="8.67348">
        <ele>1739</ele>
        <time>2021-08-07T08:54:52.525Z</time>
      </trkpt>
      <trkpt lat="46.90935" lon="8.67348">
        <ele>1739</ele>
        <time>2021-08-07T08:54:53.524Z</time>
      </trkpt>
      <trkpt lat="46.90935" lon="8.67348">
        <ele>1739</ele>
        <time>2021-08-07T08:54:54.525Z</time>
      </trkpt>
      <trkpt lat="46.90936" lon="8.67348">
        <ele>1739</ele>
        <time>2021-08-07T08:54:55.525Z</time>
      </trkpt>
      <trkpt lat="46.90936" lon="8.67347">
        <ele>1739</ele>
        <time>2021-08-07T08:54:56.526Z</time>
      </trkpt>
      <trkpt lat="46.90936" lon="8.67347">
        <ele>1740</ele>
        <time>2021-08-07T08:54:57.525Z</time>
      </trkpt>
      <trkpt lat="46.90936" lon="8.67348">
        <ele>1740</ele>
        <time>2021-08-07T08:54:58.526Z</time>
      </trkpt>
      <trkpt lat="46.90936" lon="8.67347">
        <ele>1741</ele>
        <time>2021-08-07T08:54:59.526Z</time>
      </trkpt>
      <trkpt lat="46.90936" lon="8.67347">
        <ele>1741</ele>
        <time>2021-08-07T08:55:00.526Z</time>
      </trkpt>
      <trkpt lat="46.90936" lon="8.67346">
        <ele>1742</ele>
        <time>2021-08-07T08:55:01.526Z</time>
      </trkpt>
      <trkpt lat="46.90936" lon="8.67346">
        <ele>1742</ele>
        <time>2021-08-07T08:55:02.526Z</time>
      </trkpt>
      <trkpt lat="46.90937" lon="8.67347">
        <ele>1742</ele>
        <time>2021-08-07T08:55:03.527Z</time>
      </trkpt>
      <trkpt lat="46.90937" lon="8.67347">
        <ele>1742</ele>
        <time>2021-08-07T08:55:04.526Z</time>
      </trkpt>
      <trkpt lat="46.90938" lon="8.67347">
        <ele>1742</ele>
        <time>2021-08-07T08:55:05.526Z</time>
      </trkpt>
      <trkpt lat="46.90939" lon="8.67346">
        <ele>1742</ele>
        <time>2021-08-07T08:55:06.527Z</time>
      </trkpt>
      <trkpt lat="46.9094" lon="8.67344">
        <ele>1743</ele>
        <time>2021-08-07T08:55:07.527Z</time>
      </trkpt>
      <trkpt lat="46.9094" lon="8.67342">
        <ele>1743</ele>
        <time>2021-08-07T08:55:08.527Z</time>
      </trkpt>
      <trkpt lat="46.9094" lon="8.6734">
        <ele>1743</ele>
        <time>2021-08-07T08:55:09.527Z</time>
      </trkpt>
      <trkpt lat="46.90939" lon="8.67338">
        <ele>1743</ele>
        <time>2021-08-07T08:55:15.636Z</time>
      </trkpt>
      <trkpt lat="46.90939" lon="8.67337">
        <ele>1743</ele>
        <time>2021-08-07T08:55:16.637Z</time>
      </trkpt>
      <trkpt lat="46.90939" lon="8.67335">
        <ele>1743</ele>
        <time>2021-08-07T08:55:17.637Z</time>
      </trkpt>
      <trkpt lat="46.9094" lon="8.67334">
        <ele>1743</ele>
        <time>2021-08-07T08:55:18.637Z</time>
      </trkpt>
      <trkpt lat="46.90939" lon="8.67333">
        <ele>1744</ele>
        <time>2021-08-07T08:55:19.637Z</time>
      </trkpt>
      <trkpt lat="46.90939" lon="8.67332">
        <ele>1744</ele>
        <time>2021-08-07T08:55:20.637Z</time>
      </trkpt>
      <trkpt lat="46.90938" lon="8.67331">
        <ele>1744</ele>
        <time>2021-08-07T08:55:21.637Z</time>
      </trkpt>
      <trkpt lat="46.90938" lon="8.6733">
        <ele>1744</ele>
        <time>2021-08-07T08:55:22.637Z</time>
      </trkpt>
      <trkpt lat="46.90937" lon="8.67329">
        <ele>1744</ele>
        <time>2021-08-07T08:55:23.637Z</time>
      </trkpt>
      <trkpt lat="46.90936" lon="8.67328">
        <ele>1744</ele>
        <time>2021-08-07T08:55:24.637Z</time>
      </trkpt>
      <trkpt lat="46.90936" lon="8.67327">
        <ele>1743</ele>
        <time>2021-08-07T08:55:25.637Z</time>
      </trkpt>
      <trkpt lat="46.90935" lon="8.67325">
        <ele>1743</ele>
        <time>2021-08-07T08:55:26.637Z</time>
      </trkpt>
      <trkpt lat="46.90935" lon="8.67325">
        <ele>1743</ele>
        <time>2021-08-07T08:55:27.637Z</time>
      </trkpt>
      <trkpt lat="46.90934" lon="8.67323">
        <ele>1742</ele>
        <time>2021-08-07T08:55:28.637Z</time>
      </trkpt>
      <trkpt lat="46.90932" lon="8.67323">
        <ele>1742</ele>
        <time>2021-08-07T08:55:29.637Z</time>
      </trkpt>
      <trkpt lat="46.90931" lon="8.67322">
        <ele>1741</ele>
        <time>2021-08-07T08:55:30.637Z</time>
      </trkpt>
      <trkpt lat="46.9093" lon="8.67322">
        <ele>1742</ele>
        <time>2021-08-07T08:55:31.636Z</time>
      </trkpt>
      <trkpt lat="46.9093" lon="8.67321">
        <ele>1742</ele>
        <time>2021-08-07T08:55:32.637Z</time>
      </trkpt>
      <trkpt lat="46.9093" lon="8.6732">
        <ele>1742</ele>
        <time>2021-08-07T08:55:33.637Z</time>
      </trkpt>
      <trkpt lat="46.9093" lon="8.67318">
        <ele>1742</ele>
        <time>2021-08-07T08:55:34.637Z</time>
      </trkpt>
      <trkpt lat="46.9093" lon="8.67317">
        <ele>1742</ele>
        <time>2021-08-07T08:55:35.636Z</time>
      </trkpt>
      <trkpt lat="46.9093" lon="8.67315">
        <ele>1742</ele>
        <time>2021-08-07T08:55:36.637Z</time>
      </trkpt>
      <trkpt lat="46.9093" lon="8.67314">
        <ele>1741</ele>
        <time>2021-08-07T08:55:37.637Z</time>
      </trkpt>
      <trkpt lat="46.90931" lon="8.67312">
        <ele>1741</ele>
        <time>2021-08-07T08:55:38.637Z</time>
      </trkpt>
      <trkpt lat="46.90931" lon="8.6731">
        <ele>1740</ele>
        <time>2021-08-07T08:55:39.637Z</time>
      </trkpt>
      <trkpt lat="46.90931" lon="8.67308">
        <ele>1740</ele>
        <time>2021-08-07T08:55:40.637Z</time>
      </trkpt>
      <trkpt lat="46.90931" lon="8.67308">
        <ele>1740</ele>
        <time>2021-08-07T08:55:41.637Z</time>
      </trkpt>
      <trkpt lat="46.90932" lon="8.67307">
        <ele>1739</ele>
        <time>2021-08-07T08:55:42.637Z</time>
      </trkpt>
      <trkpt lat="46.90932" lon="8.67305">
        <ele>1739</ele>
        <time>2021-08-07T08:55:43.637Z</time>
      </trkpt>
      <trkpt lat="46.90933" lon="8.67304">
        <ele>1738</ele>
        <time>2021-08-07T08:55:44.636Z</time>
      </trkpt>
      <trkpt lat="46.90933" lon="8.67303">
        <ele>1738</ele>
        <time>2021-08-07T08:55:45.637Z</time>
      </trkpt>
      <trkpt lat="46.90932" lon="8.67302">
        <ele>1738</ele>
        <time>2021-08-07T08:55:46.637Z</time>
      </trkpt>
      <trkpt lat="46.90932" lon="8.67301">
        <ele>1737</ele>
        <time>2021-08-07T08:55:47.637Z</time>
      </trkpt>
      <trkpt lat="46.90933" lon="8.673">
        <ele>1737</ele>
        <time>2021-08-07T08:55:48.637Z</time>
      </trkpt>
      <trkpt lat="46.90933" lon="8.67298">
        <ele>1736</ele>
        <time>2021-08-07T08:55:49.637Z</time>
      </trkpt>
      <trkpt lat="46.90934" lon="8.67297">
        <ele>1736</ele>
        <time>2021-08-07T08:55:50.637Z</time>
      </trkpt>
      <trkpt lat="46.90934" lon="8.67296">
        <ele>1736</ele>
        <time>2021-08-07T08:55:51.637Z</time>
      </trkpt>
      <trkpt lat="46.90934" lon="8.67295">
        <ele>1736</ele>
        <time>2021-08-07T08:55:52.636Z</time>
      </trkpt>
      <trkpt lat="46.90934" lon="8.67295">
        <ele>1735</ele>
        <time>2021-08-07T08:55:53.637Z</time>
      </trkpt>
      <trkpt lat="46.90933" lon="8.67295">
        <ele>1735</ele>
        <time>2021-08-07T08:55:54.637Z</time>
      </trkpt>
      <trkpt lat="46.90932" lon="8.67295">
        <ele>1735</ele>
        <time>2021-08-07T08:55:55.638Z</time>
      </trkpt>
      <trkpt lat="46.90932" lon="8.67295">
        <ele>1735</ele>
        <time>2021-08-07T08:55:56.637Z</time>
      </trkpt>
      <trkpt lat="46.90931" lon="8.67296">
        <ele>1734</ele>
        <time>2021-08-07T08:55:57.637Z</time>
      </trkpt>
      <trkpt lat="46.9093" lon="8.67297">
        <ele>1731</ele>
        <time>2021-08-07T08:55:58.638Z</time>
      </trkpt>
      <trkpt lat="46.9093" lon="8.67298">
        <ele>1732</ele>
        <time>2021-08-07T08:55:59.637Z</time>
      </trkpt>
      <trkpt lat="46.9093" lon="8.67299">
        <ele>1732</ele>
        <time>2021-08-07T08:56:00.637Z</time>
      </trkpt>
      <trkpt lat="46.9093" lon="8.67299">
        <ele>1733</ele>
        <time>2021-08-07T08:56:01.637Z</time>
      </trkpt>
      <trkpt lat="46.90931" lon="8.67299">
        <ele>1734</ele>
        <time>2021-08-07T08:56:02.637Z</time>
      </trkpt>
      <trkpt lat="46.90932" lon="8.67299">
        <ele>1734</ele>
        <time>2021-08-07T08:56:03.638Z</time>
      </trkpt>
      <trkpt lat="46.90932" lon="8.67298">
        <ele>1734</ele>
        <time>2021-08-07T08:56:05.762Z</time>
      </trkpt>
      <trkpt lat="46.90932" lon="8.67298">
        <ele>1733</ele>
        <time>2021-08-07T08:56:06.763Z</time>
      </trkpt>
      <trkpt lat="46.90933" lon="8.67302">
        <ele>1728</ele>
        <time>2021-08-07T08:56:07.762Z</time>
      </trkpt>
      <trkpt lat="46.90933" lon="8.67303">
        <ele>1728</ele>
        <time>2021-08-07T08:56:08.762Z</time>
      </trkpt>
      <trkpt lat="46.90933" lon="8.67303">
        <ele>1728</ele>
        <time>2021-08-07T08:56:09.762Z</time>
      </trkpt>
      <trkpt lat="46.90931" lon="8.67304">
        <ele>1732</ele>
        <time>2021-08-07T08:56:10.762Z</time>
      </trkpt>
      <trkpt lat="46.90931" lon="8.67304">
        <ele>1732</ele>
        <time>2021-08-07T08:56:13.893Z</time>
      </trkpt>
      <trkpt lat="46.90929" lon="8.67304">
        <ele>1732</ele>
        <time>2021-08-07T08:56:14.894Z</time>
      </trkpt>
      <trkpt lat="46.9093" lon="8.67302">
        <ele>1731</ele>
        <time>2021-08-07T08:56:15.894Z</time>
      </trkpt>
      <trkpt lat="46.90933" lon="8.67297">
        <ele>1730</ele>
        <time>2021-08-07T08:56:16.895Z</time>
      </trkpt>
      <trkpt lat="46.90933" lon="8.67296">
        <ele>1730</ele>
        <time>2021-08-07T08:56:17.895Z</time>
      </trkpt>
      <trkpt lat="46.90934" lon="8.67294">
        <ele>1730</ele>
        <time>2021-08-07T08:56:18.895Z</time>
      </trkpt>
      <trkpt lat="46.90934" lon="8.67293">
        <ele>1731</ele>
        <time>2021-08-07T08:56:19.895Z</time>
      </trkpt>
      <trkpt lat="46.90935" lon="8.67292">
        <ele>1731</ele>
        <time>2021-08-07T08:56:20.895Z</time>
      </trkpt>
      <trkpt lat="46.90936" lon="8.67291">
        <ele>1732</ele>
        <time>2021-08-07T08:56:21.894Z</time>
      </trkpt>
      <trkpt lat="46.90937" lon="8.67291">
        <ele>1733</ele>
        <time>2021-08-07T08:56:22.895Z</time>
      </trkpt>
      <trkpt lat="46.90938" lon="8.6729">
        <ele>1734</ele>
        <time>2021-08-07T08:56:23.894Z</time>
      </trkpt>
      <trkpt lat="46.90939" lon="8.67289">
        <ele>1734</ele>
        <time>2021-08-07T08:56:24.894Z</time>
      </trkpt>
      <trkpt lat="46.90939" lon="8.67287">
        <ele>1734</ele>
        <time>2021-08-07T08:56:25.895Z</time>
      </trkpt>
      <trkpt lat="46.9094" lon="8.67285">
        <ele>1734</ele>
        <time>2021-08-07T08:56:26.894Z</time>
      </trkpt>
      <trkpt lat="46.9094" lon="8.67283">
        <ele>1734</ele>
        <time>2021-08-07T08:56:27.895Z</time>
      </trkpt>
      <trkpt lat="46.90941" lon="8.67282">
        <ele>1735</ele>
        <time>2021-08-07T08:56:28.895Z</time>
      </trkpt>
      <trkpt lat="46.90941" lon="8.6728">
        <ele>1735</ele>
        <time>2021-08-07T08:56:29.894Z</time>
      </trkpt>
      <trkpt lat="46.90942" lon="8.67279">
        <ele>1735</ele>
        <time>2021-08-07T08:56:30.894Z</time>
      </trkpt>
      <trkpt lat="46.90942" lon="8.67278">
        <ele>1735</ele>
        <time>2021-08-07T08:56:31.894Z</time>
      </trkpt>
      <trkpt lat="46.90943" lon="8.67277">
        <ele>1735</ele>
        <time>2021-08-07T08:56:32.895Z</time>
      </trkpt>
      <trkpt lat="46.90943" lon="8.67276">
        <ele>1735</ele>
        <time>2021-08-07T08:56:33.895Z</time>
      </trkpt>
      <trkpt lat="46.90944" lon="8.67274">
        <ele>1735</ele>
        <time>2021-08-07T08:56:34.895Z</time>
      </trkpt>
      <trkpt lat="46.90944" lon="8.67273">
        <ele>1735</ele>
        <time>2021-08-07T08:56:35.895Z</time>
      </trkpt>
      <trkpt lat="46.90944" lon="8.67272">
        <ele>1735</ele>
        <time>2021-08-07T08:56:36.895Z</time>
      </trkpt>
      <trkpt lat="46.90944" lon="8.67271">
        <ele>1735</ele>
        <time>2021-08-07T08:56:37.894Z</time>
      </trkpt>
      <trkpt lat="46.90944" lon="8.6727">
        <ele>1735</ele>
        <time>2021-08-07T08:56:38.894Z</time>
      </trkpt>
      <trkpt lat="46.90944" lon="8.67269">
        <ele>1735</ele>
        <time>2021-08-07T08:56:39.894Z</time>
      </trkpt>
      <trkpt lat="46.90944" lon="8.67269">
        <ele>1735</ele>
        <time>2021-08-07T08:56:40.894Z</time>
      </trkpt>
      <trkpt lat="46.90944" lon="8.67267">
        <ele>1737</ele>
        <time>2021-08-07T08:56:41.895Z</time>
      </trkpt>
      <trkpt lat="46.90944" lon="8.67266">
        <ele>1737</ele>
        <time>2021-08-07T08:56:42.895Z</time>
      </trkpt>
      <trkpt lat="46.90944" lon="8.67265">
        <ele>1737</ele>
        <time>2021-08-07T08:56:43.895Z</time>
      </trkpt>
      <trkpt lat="46.90944" lon="8.67264">
        <ele>1737</ele>
        <time>2021-08-07T08:56:44.894Z</time>
      </trkpt>
      <trkpt lat="46.90945" lon="8.67262">
        <ele>1737</ele>
        <time>2021-08-07T08:56:45.894Z</time>
      </trkpt>
      <trkpt lat="46.90945" lon="8.67262">
        <ele>1737</ele>
        <time>2021-08-07T08:56:46.895Z</time>
      </trkpt>
      <trkpt lat="46.90945" lon="8.67261">
        <ele>1736</ele>
        <time>2021-08-07T08:56:47.894Z</time>
      </trkpt>
      <trkpt lat="46.90945" lon="8.6726">
        <ele>1736</ele>
        <time>2021-08-07T08:56:48.895Z</time>
      </trkpt>
      <trkpt lat="46.90944" lon="8.67259">
        <ele>1735</ele>
        <time>2021-08-07T08:56:49.895Z</time>
      </trkpt>
      <trkpt lat="46.90944" lon="8.67258">
        <ele>1735</ele>
        <time>2021-08-07T08:56:50.895Z</time>
      </trkpt>
      <trkpt lat="46.90944" lon="8.67257">
        <ele>1734</ele>
        <time>2021-08-07T08:56:51.894Z</time>
      </trkpt>
      <trkpt lat="46.90943" lon="8.67256">
        <ele>1734</ele>
        <time>2021-08-07T08:56:52.894Z</time>
      </trkpt>
      <trkpt lat="46.90943" lon="8.67256">
        <ele>1734</ele>
        <time>2021-08-07T08:56:53.895Z</time>
      </trkpt>
      <trkpt lat="46.90943" lon="8.67256">
        <ele>1734</ele>
        <time>2021-08-07T08:56:54.894Z</time>
      </trkpt>
      <trkpt lat="46.90943" lon="8.67255">
        <ele>1734</ele>
        <time>2021-08-07T08:56:55.895Z</time>
      </trkpt>
      <trkpt lat="46.90942" lon="8.67253">
        <ele>1733</ele>
        <time>2021-08-07T08:56:56.895Z</time>
      </trkpt>
      <trkpt lat="46.90941" lon="8.67253">
        <ele>1733</ele>
        <time>2021-08-07T08:56:57.895Z</time>
      </trkpt>
      <trkpt lat="46.90941" lon="8.67252">
        <ele>1732</ele>
        <time>2021-08-07T08:56:58.895Z</time>
      </trkpt>
      <trkpt lat="46.90941" lon="8.6725">
        <ele>1731</ele>
        <time>2021-08-07T08:56:59.895Z</time>
      </trkpt>
      <trkpt lat="46.9094" lon="8.6725">
        <ele>1731</ele>
        <time>2021-08-07T08:57:00.895Z</time>
      </trkpt>
      <trkpt lat="46.9094" lon="8.67249">
        <ele>1731</ele>
        <time>2021-08-07T08:57:01.895Z</time>
      </trkpt>
      <trkpt lat="46.9094" lon="8.67248">
        <ele>1731</ele>
        <time>2021-08-07T08:57:02.894Z</time>
      </trkpt>
      <trkpt lat="46.9094" lon="8.67247">
        <ele>1730</ele>
        <time>2021-08-07T08:57:03.895Z</time>
      </trkpt>
      <trkpt lat="46.90939" lon="8.67247">
        <ele>1730</ele>
        <time>2021-08-07T08:57:04.895Z</time>
      </trkpt>
      <trkpt lat="46.9094" lon="8.67245">
        <ele>1730</ele>
        <time>2021-08-07T08:57:05.895Z</time>
      </trkpt>
      <trkpt lat="46.90939" lon="8.67244">
        <ele>1730</ele>
        <time>2021-08-07T08:57:06.895Z</time>
      </trkpt>
      <trkpt lat="46.90939" lon="8.67243">
        <ele>1730</ele>
        <time>2021-08-07T08:57:07.895Z</time>
      </trkpt>
      <trkpt lat="46.90938" lon="8.67242">
        <ele>1730</ele>
        <time>2021-08-07T08:57:08.895Z</time>
      </trkpt>
      <trkpt lat="46.90937" lon="8.67242">
        <ele>1730</ele>
        <time>2021-08-07T08:57:09.895Z</time>
      </trkpt>
      <trkpt lat="46.90937" lon="8.67241">
        <ele>1729</ele>
        <time>2021-08-07T08:57:10.895Z</time>
      </trkpt>
      <trkpt lat="46.90938" lon="8.67241">
        <ele>1729</ele>
        <time>2021-08-07T08:57:11.894Z</time>
      </trkpt>
      <trkpt lat="46.90938" lon="8.67241">
        <ele>1729</ele>
        <time>2021-08-07T08:57:12.894Z</time>
      </trkpt>
      <trkpt lat="46.90939" lon="8.67241">
        <ele>1729</ele>
        <time>2021-08-07T08:57:13.895Z</time>
      </trkpt>
      <trkpt lat="46.9094" lon="8.67241">
        <ele>1729</ele>
        <time>2021-08-07T08:57:14.895Z</time>
      </trkpt>
      <trkpt lat="46.9094" lon="8.67241">
        <ele>1729</ele>
        <time>2021-08-07T08:57:15.894Z</time>
      </trkpt>
      <trkpt lat="46.90941" lon="8.67241">
        <ele>1729</ele>
        <time>2021-08-07T08:57:16.895Z</time>
      </trkpt>
      <trkpt lat="46.90942" lon="8.6724">
        <ele>1729</ele>
        <time>2021-08-07T08:57:17.895Z</time>
      </trkpt>
      <trkpt lat="46.90943" lon="8.67239">
        <ele>1729</ele>
        <time>2021-08-07T08:57:18.895Z</time>
      </trkpt>
      <trkpt lat="46.90944" lon="8.67239">
        <ele>1729</ele>
        <time>2021-08-07T08:57:19.895Z</time>
      </trkpt>
      <trkpt lat="46.90945" lon="8.67239">
        <ele>1729</ele>
        <time>2021-08-07T08:57:20.895Z</time>
      </trkpt>
      <trkpt lat="46.90947" lon="8.67238">
        <ele>1730</ele>
        <time>2021-08-07T08:57:21.894Z</time>
      </trkpt>
      <trkpt lat="46.90948" lon="8.67238">
        <ele>1730</ele>
        <time>2021-08-07T08:57:22.895Z</time>
      </trkpt>
      <trkpt lat="46.90949" lon="8.67238">
        <ele>1730</ele>
        <time>2021-08-07T08:57:23.895Z</time>
      </trkpt>
      <trkpt lat="46.9095" lon="8.67238">
        <ele>1731</ele>
        <time>2021-08-07T08:57:24.895Z</time>
      </trkpt>
      <trkpt lat="46.90951" lon="8.67236">
        <ele>1730</ele>
        <time>2021-08-07T08:57:25.894Z</time>
      </trkpt>
      <trkpt lat="46.90952" lon="8.67235">
        <ele>1730</ele>
        <time>2021-08-07T08:57:26.894Z</time>
      </trkpt>
      <trkpt lat="46.90953" lon="8.67233">
        <ele>1730</ele>
        <time>2021-08-07T08:57:27.895Z</time>
      </trkpt>
      <trkpt lat="46.90953" lon="8.67232">
        <ele>1729</ele>
        <time>2021-08-07T08:57:28.895Z</time>
      </trkpt>
      <trkpt lat="46.90954" lon="8.6723">
        <ele>1729</ele>
        <time>2021-08-07T08:57:29.895Z</time>
      </trkpt>
      <trkpt lat="46.90955" lon="8.67229">
        <ele>1730</ele>
        <time>2021-08-07T08:57:30.895Z</time>
      </trkpt>
      <trkpt lat="46.90955" lon="8.67228">
        <ele>1730</ele>
        <time>2021-08-07T08:57:31.894Z</time>
      </trkpt>
      <trkpt lat="46.90956" lon="8.67226">
        <ele>1730</ele>
        <time>2021-08-07T08:57:32.895Z</time>
      </trkpt>
      <trkpt lat="46.90956" lon="8.67225">
        <ele>1729</ele>
        <time>2021-08-07T08:57:33.895Z</time>
      </trkpt>
      <trkpt lat="46.90957" lon="8.67224">
        <ele>1729</ele>
        <time>2021-08-07T08:57:34.894Z</time>
      </trkpt>
      <trkpt lat="46.90958" lon="8.67222">
        <ele>1728</ele>
        <time>2021-08-07T08:57:35.894Z</time>
      </trkpt>
      <trkpt lat="46.90959" lon="8.6722">
        <ele>1728</ele>
        <time>2021-08-07T08:57:36.894Z</time>
      </trkpt>
      <trkpt lat="46.9096" lon="8.67219">
        <ele>1727</ele>
        <time>2021-08-07T08:57:37.894Z</time>
      </trkpt>
      <trkpt lat="46.9096" lon="8.67218">
        <ele>1727</ele>
        <time>2021-08-07T08:57:38.894Z</time>
      </trkpt>
      <trkpt lat="46.90961" lon="8.67218">
        <ele>1727</ele>
        <time>2021-08-07T08:57:39.894Z</time>
      </trkpt>
      <trkpt lat="46.90962" lon="8.67217">
        <ele>1727</ele>
        <time>2021-08-07T08:57:40.894Z</time>
      </trkpt>
      <trkpt lat="46.90962" lon="8.67216">
        <ele>1727</ele>
        <time>2021-08-07T08:57:41.894Z</time>
      </trkpt>
      <trkpt lat="46.90962" lon="8.67214">
        <ele>1727</ele>
        <time>2021-08-07T08:57:42.894Z</time>
      </trkpt>
      <trkpt lat="46.90961" lon="8.67213">
        <ele>1726</ele>
        <time>2021-08-07T08:57:43.894Z</time>
      </trkpt>
      <trkpt lat="46.9096" lon="8.67212">
        <ele>1725</ele>
        <time>2021-08-07T08:57:44.894Z</time>
      </trkpt>
      <trkpt lat="46.90959" lon="8.6721">
        <ele>1724</ele>
        <time>2021-08-07T08:57:45.894Z</time>
      </trkpt>
      <trkpt lat="46.90958" lon="8.67209">
        <ele>1723</ele>
        <time>2021-08-07T08:57:46.894Z</time>
      </trkpt>
      <trkpt lat="46.90957" lon="8.67207">
        <ele>1721</ele>
        <time>2021-08-07T08:57:47.894Z</time>
      </trkpt>
      <trkpt lat="46.90956" lon="8.67206">
        <ele>1720</ele>
        <time>2021-08-07T08:57:48.895Z</time>
      </trkpt>
      <trkpt lat="46.90955" lon="8.67205">
        <ele>1719</ele>
        <time>2021-08-07T08:57:49.894Z</time>
      </trkpt>
      <trkpt lat="46.90953" lon="8.67204">
        <ele>1718</ele>
        <time>2021-08-07T08:57:50.894Z</time>
      </trkpt>
      <trkpt lat="46.90951" lon="8.67203">
        <ele>1716</ele>
        <time>2021-08-07T08:57:51.895Z</time>
      </trkpt>
      <trkpt lat="46.9095" lon="8.67203">
        <ele>1715</ele>
        <time>2021-08-07T08:57:52.894Z</time>
      </trkpt>
      <trkpt lat="46.90949" lon="8.67202">
        <ele>1714</ele>
        <time>2021-08-07T08:57:53.894Z</time>
      </trkpt>
      <trkpt lat="46.90949" lon="8.67201">
        <ele>1714</ele>
        <time>2021-08-07T08:57:54.894Z</time>
      </trkpt>
      <trkpt lat="46.90949" lon="8.672">
        <ele>1713</ele>
        <time>2021-08-07T08:57:55.895Z</time>
      </trkpt>
      <trkpt lat="46.90949" lon="8.67198">
        <ele>1713</ele>
        <time>2021-08-07T08:57:56.895Z</time>
      </trkpt>
      <trkpt lat="46.90947" lon="8.67197">
        <ele>1712</ele>
        <time>2021-08-07T08:57:57.895Z</time>
      </trkpt>
      <trkpt lat="46.90946" lon="8.67196">
        <ele>1712</ele>
        <time>2021-08-07T08:57:58.895Z</time>
      </trkpt>
      <trkpt lat="46.90945" lon="8.67195">
        <ele>1711</ele>
        <time>2021-08-07T08:57:59.895Z</time>
      </trkpt>
      <trkpt lat="46.90945" lon="8.67194">
        <ele>1711</ele>
        <time>2021-08-07T08:58:00.894Z</time>
      </trkpt>
      <trkpt lat="46.90944" lon="8.67193">
        <ele>1710</ele>
        <time>2021-08-07T08:58:01.894Z</time>
      </trkpt>
      <trkpt lat="46.90943" lon="8.67191">
        <ele>1709</ele>
        <time>2021-08-07T08:58:02.895Z</time>
      </trkpt>
      <trkpt lat="46.90943" lon="8.6719">
        <ele>1708</ele>
        <time>2021-08-07T08:58:10.038Z</time>
      </trkpt>
      <trkpt lat="46.90942" lon="8.67189">
        <ele>1708</ele>
        <time>2021-08-07T08:58:11.037Z</time>
      </trkpt>
      <trkpt lat="46.90942" lon="8.67188">
        <ele>1707</ele>
        <time>2021-08-07T08:58:12.037Z</time>
      </trkpt>
      <trkpt lat="46.90941" lon="8.67187">
        <ele>1707</ele>
        <time>2021-08-07T08:58:13.038Z</time>
      </trkpt>
      <trkpt lat="46.9094" lon="8.67186">
        <ele>1707</ele>
        <time>2021-08-07T08:58:14.037Z</time>
      </trkpt>
      <trkpt lat="46.90939" lon="8.67185">
        <ele>1707</ele>
        <time>2021-08-07T08:58:15.037Z</time>
      </trkpt>
      <trkpt lat="46.90939" lon="8.67184">
        <ele>1707</ele>
        <time>2021-08-07T08:58:16.037Z</time>
      </trkpt>
      <trkpt lat="46.90938" lon="8.67183">
        <ele>1707</ele>
        <time>2021-08-07T08:58:17.037Z</time>
      </trkpt>
      <trkpt lat="46.90938" lon="8.67182">
        <ele>1706</ele>
        <time>2021-08-07T08:58:27.153Z</time>
      </trkpt>
      <trkpt lat="46.90937" lon="8.67181">
        <ele>1707</ele>
        <time>2021-08-07T08:58:28.154Z</time>
      </trkpt>
      <trkpt lat="46.90936" lon="8.6718">
        <ele>1706</ele>
        <time>2021-08-07T08:58:29.153Z</time>
      </trkpt>
      <trkpt lat="46.90935" lon="8.6718">
        <ele>1706</ele>
        <time>2021-08-07T08:58:30.153Z</time>
      </trkpt>
      <trkpt lat="46.90935" lon="8.67179">
        <ele>1705</ele>
        <time>2021-08-07T08:58:31.154Z</time>
      </trkpt>
      <trkpt lat="46.90935" lon="8.67177">
        <ele>1704</ele>
        <time>2021-08-07T08:58:32.153Z</time>
      </trkpt>
      <trkpt lat="46.90934" lon="8.67175">
        <ele>1704</ele>
        <time>2021-08-07T08:58:33.153Z</time>
      </trkpt>
      <trkpt lat="46.90933" lon="8.67174">
        <ele>1704</ele>
        <time>2021-08-07T08:58:34.154Z</time>
      </trkpt>
      <trkpt lat="46.90932" lon="8.67174">
        <ele>1703</ele>
        <time>2021-08-07T08:58:35.154Z</time>
      </trkpt>
      <trkpt lat="46.90931" lon="8.67173">
        <ele>1703</ele>
        <time>2021-08-07T08:58:36.154Z</time>
      </trkpt>
      <trkpt lat="46.90929" lon="8.67173">
        <ele>1702</ele>
        <time>2021-08-07T08:58:37.154Z</time>
      </trkpt>
      <trkpt lat="46.90928" lon="8.67173">
        <ele>1702</ele>
        <time>2021-08-07T08:58:38.154Z</time>
      </trkpt>
      <trkpt lat="46.90926" lon="8.67171">
        <ele>1702</ele>
        <time>2021-08-07T08:58:39.154Z</time>
      </trkpt>
      <trkpt lat="46.90925" lon="8.6717">
        <ele>1702</ele>
        <time>2021-08-07T08:58:40.154Z</time>
      </trkpt>
      <trkpt lat="46.90923" lon="8.6717">
        <ele>1702</ele>
        <time>2021-08-07T08:58:41.154Z</time>
      </trkpt>
      <trkpt lat="46.90922" lon="8.6717">
        <ele>1701</ele>
        <time>2021-08-07T08:58:42.153Z</time>
      </trkpt>
      <trkpt lat="46.90921" lon="8.67169">
        <ele>1701</ele>
        <time>2021-08-07T08:58:43.154Z</time>
      </trkpt>
      <trkpt lat="46.9092" lon="8.67169">
        <ele>1701</ele>
        <time>2021-08-07T08:58:44.154Z</time>
      </trkpt>
      <trkpt lat="46.90918" lon="8.67168">
        <ele>1701</ele>
        <time>2021-08-07T08:58:45.153Z</time>
      </trkpt>
      <trkpt lat="46.90917" lon="8.67169">
        <ele>1701</ele>
        <time>2021-08-07T08:58:46.154Z</time>
      </trkpt>
      <trkpt lat="46.90916" lon="8.67169">
        <ele>1701</ele>
        <time>2021-08-07T08:58:47.154Z</time>
      </trkpt>
      <trkpt lat="46.90915" lon="8.67169">
        <ele>1701</ele>
        <time>2021-08-07T08:58:48.154Z</time>
      </trkpt>
      <trkpt lat="46.90914" lon="8.67168">
        <ele>1701</ele>
        <time>2021-08-07T08:58:49.154Z</time>
      </trkpt>
      <trkpt lat="46.90913" lon="8.67168">
        <ele>1701</ele>
        <time>2021-08-07T08:58:50.154Z</time>
      </trkpt>
      <trkpt lat="46.90912" lon="8.67167">
        <ele>1701</ele>
        <time>2021-08-07T08:58:51.154Z</time>
      </trkpt>
      <trkpt lat="46.90911" lon="8.67166">
        <ele>1700</ele>
        <time>2021-08-07T08:58:52.154Z</time>
      </trkpt>
      <trkpt lat="46.9091" lon="8.67166">
        <ele>1700</ele>
        <time>2021-08-07T08:58:53.153Z</time>
      </trkpt>
      <trkpt lat="46.90909" lon="8.67165">
        <ele>1700</ele>
        <time>2021-08-07T08:58:54.154Z</time>
      </trkpt>
      <trkpt lat="46.90909" lon="8.67165">
        <ele>1700</ele>
        <time>2021-08-07T08:58:55.153Z</time>
      </trkpt>
      <trkpt lat="46.90908" lon="8.67164">
        <ele>1700</ele>
        <time>2021-08-07T08:58:56.153Z</time>
      </trkpt>
      <trkpt lat="46.90907" lon="8.67163">
        <ele>1700</ele>
        <time>2021-08-07T08:58:57.153Z</time>
      </trkpt>
      <trkpt lat="46.90906" lon="8.67162">
        <ele>1699</ele>
        <time>2021-08-07T08:58:58.154Z</time>
      </trkpt>
      <trkpt lat="46.90905" lon="8.67161">
        <ele>1699</ele>
        <time>2021-08-07T08:58:59.154Z</time>
      </trkpt>
      <trkpt lat="46.90905" lon="8.6716">
        <ele>1699</ele>
        <time>2021-08-07T08:59:00.154Z</time>
      </trkpt>
      <trkpt lat="46.90904" lon="8.67159">
        <ele>1699</ele>
        <time>2021-08-07T08:59:01.154Z</time>
      </trkpt>
      <trkpt lat="46.90904" lon="8.67157">
        <ele>1699</ele>
        <time>2021-08-07T08:59:02.154Z</time>
      </trkpt>
      <trkpt lat="46.90903" lon="8.67157">
        <ele>1699</ele>
        <time>2021-08-07T08:59:03.154Z</time>
      </trkpt>
      <trkpt lat="46.90902" lon="8.67156">
        <ele>1699</ele>
        <time>2021-08-07T08:59:04.154Z</time>
      </trkpt>
      <trkpt lat="46.90902" lon="8.67154">
        <ele>1699</ele>
        <time>2021-08-07T08:59:05.153Z</time>
      </trkpt>
      <trkpt lat="46.90901" lon="8.67153">
        <ele>1699</ele>
        <time>2021-08-07T08:59:06.154Z</time>
      </trkpt>
      <trkpt lat="46.909" lon="8.67152">
        <ele>1699</ele>
        <time>2021-08-07T08:59:07.154Z</time>
      </trkpt>
      <trkpt lat="46.909" lon="8.67151">
        <ele>1699</ele>
        <time>2021-08-07T08:59:08.154Z</time>
      </trkpt>
      <trkpt lat="46.90899" lon="8.67151">
        <ele>1698</ele>
        <time>2021-08-07T08:59:09.154Z</time>
      </trkpt>
      <trkpt lat="46.90898" lon="8.6715">
        <ele>1698</ele>
        <time>2021-08-07T08:59:10.154Z</time>
      </trkpt>
      <trkpt lat="46.90898" lon="8.67148">
        <ele>1698</ele>
        <time>2021-08-07T08:59:11.154Z</time>
      </trkpt>
      <trkpt lat="46.90897" lon="8.67146">
        <ele>1698</ele>
        <time>2021-08-07T08:59:12.154Z</time>
      </trkpt>
      <trkpt lat="46.90897" lon="8.67145">
        <ele>1697</ele>
        <time>2021-08-07T08:59:13.154Z</time>
      </trkpt>
      <trkpt lat="46.90897" lon="8.67143">
        <ele>1697</ele>
        <time>2021-08-07T08:59:14.153Z</time>
      </trkpt>
      <trkpt lat="46.90896" lon="8.67142">
        <ele>1696</ele>
        <time>2021-08-07T08:59:15.154Z</time>
      </trkpt>
      <trkpt lat="46.90896" lon="8.67142">
        <ele>1695</ele>
        <time>2021-08-07T08:59:16.154Z</time>
      </trkpt>
      <trkpt lat="46.90895" lon="8.67141">
        <ele>1694</ele>
        <time>2021-08-07T08:59:17.154Z</time>
      </trkpt>
      <trkpt lat="46.90894" lon="8.6714">
        <ele>1694</ele>
        <time>2021-08-07T08:59:18.154Z</time>
      </trkpt>
      <trkpt lat="46.90893" lon="8.6714">
        <ele>1694</ele>
        <time>2021-08-07T08:59:19.153Z</time>
      </trkpt>
      <trkpt lat="46.90892" lon="8.67139">
        <ele>1693</ele>
        <time>2021-08-07T08:59:20.154Z</time>
      </trkpt>
      <trkpt lat="46.90891" lon="8.67137">
        <ele>1693</ele>
        <time>2021-08-07T08:59:21.153Z</time>
      </trkpt>
      <trkpt lat="46.9089" lon="8.67136">
        <ele>1693</ele>
        <time>2021-08-07T08:59:22.154Z</time>
      </trkpt>
      <trkpt lat="46.90889" lon="8.67135">
        <ele>1692</ele>
        <time>2021-08-07T08:59:23.154Z</time>
      </trkpt>
      <trkpt lat="46.90888" lon="8.67133">
        <ele>1692</ele>
        <time>2021-08-07T08:59:24.154Z</time>
      </trkpt>
      <trkpt lat="46.90887" lon="8.67132">
        <ele>1692</ele>
        <time>2021-08-07T08:59:25.154Z</time>
      </trkpt>
      <trkpt lat="46.90886" lon="8.67131">
        <ele>1691</ele>
        <time>2021-08-07T08:59:26.154Z</time>
      </trkpt>
      <trkpt lat="46.90886" lon="8.6713">
        <ele>1690</ele>
        <time>2021-08-07T08:59:27.154Z</time>
      </trkpt>
      <trkpt lat="46.90885" lon="8.67129">
        <ele>1690</ele>
        <time>2021-08-07T08:59:28.154Z</time>
      </trkpt>
      <trkpt lat="46.90884" lon="8.67128">
        <ele>1690</ele>
        <time>2021-08-07T08:59:29.153Z</time>
      </trkpt>
      <trkpt lat="46.90883" lon="8.67126">
        <ele>1689</ele>
        <time>2021-08-07T08:59:30.154Z</time>
      </trkpt>
      <trkpt lat="46.90883" lon="8.67125">
        <ele>1689</ele>
        <time>2021-08-07T08:59:31.154Z</time>
      </trkpt>
      <trkpt lat="46.90882" lon="8.67124">
        <ele>1689</ele>
        <time>2021-08-07T08:59:32.154Z</time>
      </trkpt>
      <trkpt lat="46.90881" lon="8.67123">
        <ele>1689</ele>
        <time>2021-08-07T08:59:33.154Z</time>
      </trkpt>
      <trkpt lat="46.90881" lon="8.67122">
        <ele>1688</ele>
        <time>2021-08-07T08:59:34.154Z</time>
      </trkpt>
      <trkpt lat="46.9088" lon="8.67121">
        <ele>1687</ele>
        <time>2021-08-07T08:59:35.154Z</time>
      </trkpt>
      <trkpt lat="46.9088" lon="8.6712">
        <ele>1687</ele>
        <time>2021-08-07T08:59:36.154Z</time>
      </trkpt>
      <trkpt lat="46.90879" lon="8.67119">
        <ele>1688</ele>
        <time>2021-08-07T08:59:37.154Z</time>
      </trkpt>
      <trkpt lat="46.90879" lon="8.67118">
        <ele>1688</ele>
        <time>2021-08-07T08:59:38.154Z</time>
      </trkpt>
      <trkpt lat="46.90878" lon="8.67118">
        <ele>1688</ele>
        <time>2021-08-07T08:59:39.154Z</time>
      </trkpt>
      <trkpt lat="46.90878" lon="8.67118">
        <ele>1688</ele>
        <time>2021-08-07T08:59:40.153Z</time>
      </trkpt>
      <trkpt lat="46.90878" lon="8.67116">
        <ele>1685</ele>
        <time>2021-08-07T08:59:41.155Z</time>
      </trkpt>
      <trkpt lat="46.90879" lon="8.67115">
        <ele>1685</ele>
        <time>2021-08-07T08:59:42.155Z</time>
      </trkpt>
      <trkpt lat="46.90876" lon="8.67121">
        <ele>1688</ele>
        <time>2021-08-07T08:59:43.155Z</time>
      </trkpt>
      <trkpt lat="46.90875" lon="8.67121">
        <ele>1689</ele>
        <time>2021-08-07T08:59:44.155Z</time>
      </trkpt>
      <trkpt lat="46.90875" lon="8.67121">
        <ele>1689</ele>
        <time>2021-08-07T08:59:45.156Z</time>
      </trkpt>
      <trkpt lat="46.90875" lon="8.67122">
        <ele>1690</ele>
        <time>2021-08-07T08:59:46.157Z</time>
      </trkpt>
      <trkpt lat="46.90875" lon="8.67122">
        <ele>1689</ele>
        <time>2021-08-07T08:59:47.157Z</time>
      </trkpt>
      <trkpt lat="46.90875" lon="8.67121">
        <ele>1689</ele>
        <time>2021-08-07T08:59:48.156Z</time>
      </trkpt>
      <trkpt lat="46.90875" lon="8.67122">
        <ele>1688</ele>
        <time>2021-08-07T08:59:49.157Z</time>
      </trkpt>
      <trkpt lat="46.90874" lon="8.67122">
        <ele>1687</ele>
        <time>2021-08-07T08:59:50.156Z</time>
      </trkpt>
      <trkpt lat="46.90873" lon="8.67123">
        <ele>1687</ele>
        <time>2021-08-07T08:59:51.157Z</time>
      </trkpt>
      <trkpt lat="46.90873" lon="8.67124">
        <ele>1687</ele>
        <time>2021-08-07T08:59:52.157Z</time>
      </trkpt>
      <trkpt lat="46.90873" lon="8.67124">
        <ele>1691</ele>
        <time>2021-08-07T08:59:53.158Z</time>
      </trkpt>
      <trkpt lat="46.90872" lon="8.67121">
        <ele>1691</ele>
        <time>2021-08-07T08:59:54.157Z</time>
      </trkpt>
      <trkpt lat="46.90872" lon="8.67119">
        <ele>1692</ele>
        <time>2021-08-07T08:59:55.157Z</time>
      </trkpt>
      <trkpt lat="46.90872" lon="8.67116">
        <ele>1692</ele>
        <time>2021-08-07T08:59:56.157Z</time>
      </trkpt>
      <trkpt lat="46.90872" lon="8.67115">
        <ele>1692</ele>
        <time>2021-08-07T08:59:57.158Z</time>
      </trkpt>
      <trkpt lat="46.90871" lon="8.67113">
        <ele>1692</ele>
        <time>2021-08-07T08:59:58.157Z</time>
      </trkpt>
      <trkpt lat="46.90871" lon="8.67111">
        <ele>1692</ele>
        <time>2021-08-07T08:59:59.157Z</time>
      </trkpt>
      <trkpt lat="46.9087" lon="8.67109">
        <ele>1692</ele>
        <time>2021-08-07T09:00:00.157Z</time>
      </trkpt>
      <trkpt lat="46.9087" lon="8.67108">
        <ele>1692</ele>
        <time>2021-08-07T09:00:01.157Z</time>
      </trkpt>
      <trkpt lat="46.90869" lon="8.67106">
        <ele>1692</ele>
        <time>2021-08-07T09:00:02.157Z</time>
      </trkpt>
      <trkpt lat="46.90869" lon="8.67104">
        <ele>1692</ele>
        <time>2021-08-07T09:00:03.157Z</time>
      </trkpt>
      <trkpt lat="46.90869" lon="8.67103">
        <ele>1692</ele>
        <time>2021-08-07T09:00:04.157Z</time>
      </trkpt>
      <trkpt lat="46.90869" lon="8.67102">
        <ele>1692</ele>
        <time>2021-08-07T09:00:05.157Z</time>
      </trkpt>
      <trkpt lat="46.90869" lon="8.671">
        <ele>1692</ele>
        <time>2021-08-07T09:00:06.157Z</time>
      </trkpt>
      <trkpt lat="46.90868" lon="8.67098">
        <ele>1692</ele>
        <time>2021-08-07T09:00:07.157Z</time>
      </trkpt>
      <trkpt lat="46.90868" lon="8.67096">
        <ele>1692</ele>
        <time>2021-08-07T09:00:08.157Z</time>
      </trkpt>
      <trkpt lat="46.90867" lon="8.67095">
        <ele>1692</ele>
        <time>2021-08-07T09:00:14.250Z</time>
      </trkpt>
      <trkpt lat="46.90867" lon="8.67093">
        <ele>1691</ele>
        <time>2021-08-07T09:00:18.019Z</time>
      </trkpt>
      <trkpt lat="46.90866" lon="8.67092">
        <ele>1691</ele>
        <time>2021-08-07T09:00:19.019Z</time>
      </trkpt>
      <trkpt lat="46.90866" lon="8.67091">
        <ele>1691</ele>
        <time>2021-08-07T09:00:20.019Z</time>
      </trkpt>
      <trkpt lat="46.90865" lon="8.6709">
        <ele>1691</ele>
        <time>2021-08-07T09:00:28.141Z</time>
      </trkpt>
      <trkpt lat="46.90865" lon="8.67088">
        <ele>1690</ele>
        <time>2021-08-07T09:00:29.140Z</time>
      </trkpt>
      <trkpt lat="46.90864" lon="8.67087">
        <ele>1690</ele>
        <time>2021-08-07T09:00:30.140Z</time>
      </trkpt>
      <trkpt lat="46.90863" lon="8.67085">
        <ele>1690</ele>
        <time>2021-08-07T09:00:31.140Z</time>
      </trkpt>
      <trkpt lat="46.90863" lon="8.67083">
        <ele>1690</ele>
        <time>2021-08-07T09:00:32.140Z</time>
      </trkpt>
      <trkpt lat="46.90863" lon="8.67082">
        <ele>1690</ele>
        <time>2021-08-07T09:00:39.288Z</time>
      </trkpt>
      <trkpt lat="46.90863" lon="8.6708">
        <ele>1690</ele>
        <time>2021-08-07T09:00:40.289Z</time>
      </trkpt>
      <trkpt lat="46.90863" lon="8.67078">
        <ele>1690</ele>
        <time>2021-08-07T09:00:41.289Z</time>
      </trkpt>
      <trkpt lat="46.90862" lon="8.67077">
        <ele>1690</ele>
        <time>2021-08-07T09:00:42.289Z</time>
      </trkpt>
      <trkpt lat="46.9086" lon="8.67076">
        <ele>1689</ele>
        <time>2021-08-07T09:00:43.288Z</time>
      </trkpt>
      <trkpt lat="46.90859" lon="8.67074">
        <ele>1689</ele>
        <time>2021-08-07T09:00:44.288Z</time>
      </trkpt>
      <trkpt lat="46.90857" lon="8.67073">
        <ele>1689</ele>
        <time>2021-08-07T09:00:45.289Z</time>
      </trkpt>
      <trkpt lat="46.90856" lon="8.67071">
        <ele>1690</ele>
        <time>2021-08-07T09:00:46.288Z</time>
      </trkpt>
      <trkpt lat="46.90855" lon="8.6707">
        <ele>1690</ele>
        <time>2021-08-07T09:00:47.289Z</time>
      </trkpt>
      <trkpt lat="46.90855" lon="8.67068">
        <ele>1690</ele>
        <time>2021-08-07T09:00:48.289Z</time>
      </trkpt>
      <trkpt lat="46.90854" lon="8.67067">
        <ele>1690</ele>
        <time>2021-08-07T09:00:49.289Z</time>
      </trkpt>
      <trkpt lat="46.90854" lon="8.67066">
        <ele>1691</ele>
        <time>2021-08-07T09:00:50.289Z</time>
      </trkpt>
      <trkpt lat="46.90853" lon="8.67065">
        <ele>1691</ele>
        <time>2021-08-07T09:00:51.288Z</time>
      </trkpt>
      <trkpt lat="46.90853" lon="8.67064">
        <ele>1692</ele>
        <time>2021-08-07T09:00:52.288Z</time>
      </trkpt>
      <trkpt lat="46.90853" lon="8.67063">
        <ele>1692</ele>
        <time>2021-08-07T09:00:53.288Z</time>
      </trkpt>
      <trkpt lat="46.90852" lon="8.67062">
        <ele>1692</ele>
        <time>2021-08-07T09:00:54.288Z</time>
      </trkpt>
      <trkpt lat="46.90851" lon="8.6706">
        <ele>1692</ele>
        <time>2021-08-07T09:00:55.288Z</time>
      </trkpt>
      <trkpt lat="46.9085" lon="8.6706">
        <ele>1692</ele>
        <time>2021-08-07T09:00:56.288Z</time>
      </trkpt>
      <trkpt lat="46.9085" lon="8.67062">
        <ele>1692</ele>
        <time>2021-08-07T09:00:57.289Z</time>
      </trkpt>
      <trkpt lat="46.9085" lon="8.67063">
        <ele>1692</ele>
        <time>2021-08-07T09:00:58.289Z</time>
      </trkpt>
      <trkpt lat="46.9085" lon="8.67063">
        <ele>1693</ele>
        <time>2021-08-07T09:00:59.288Z</time>
      </trkpt>
      <trkpt lat="46.9085" lon="8.67063">
        <ele>1693</ele>
        <time>2021-08-07T09:01:00.288Z</time>
      </trkpt>
      <trkpt lat="46.90849" lon="8.67063">
        <ele>1693</ele>
        <time>2021-08-07T09:01:01.288Z</time>
      </trkpt>
      <trkpt lat="46.90848" lon="8.67058">
        <ele>1697</ele>
        <time>2021-08-07T09:01:05.289Z</time>
      </trkpt>
      <trkpt lat="46.90848" lon="8.67057">
        <ele>1697</ele>
        <time>2021-08-07T09:01:06.288Z</time>
      </trkpt>
      <trkpt lat="46.90848" lon="8.67057">
        <ele>1697</ele>
        <time>2021-08-07T09:01:07.288Z</time>
      </trkpt>
      <trkpt lat="46.90847" lon="8.67056">
        <ele>1696</ele>
        <time>2021-08-07T09:01:08.288Z</time>
      </trkpt>
      <trkpt lat="46.90847" lon="8.67055">
        <ele>1696</ele>
        <time>2021-08-07T09:01:09.288Z</time>
      </trkpt>
      <trkpt lat="46.90846" lon="8.67053">
        <ele>1695</ele>
        <time>2021-08-07T09:01:10.288Z</time>
      </trkpt>
      <trkpt lat="46.90846" lon="8.67052">
        <ele>1694</ele>
        <time>2021-08-07T09:01:11.289Z</time>
      </trkpt>
      <trkpt lat="46.90846" lon="8.67052">
        <ele>1694</ele>
        <time>2021-08-07T09:01:12.288Z</time>
      </trkpt>
      <trkpt lat="46.90845" lon="8.67051">
        <ele>1693</ele>
        <time>2021-08-07T09:01:13.288Z</time>
      </trkpt>
      <trkpt lat="46.90845" lon="8.6705">
        <ele>1692</ele>
        <time>2021-08-07T09:01:14.289Z</time>
      </trkpt>
      <trkpt lat="46.90844" lon="8.6705">
        <ele>1691</ele>
        <time>2021-08-07T09:01:15.288Z</time>
      </trkpt>
      <trkpt lat="46.90844" lon="8.6705">
        <ele>1691</ele>
        <time>2021-08-07T09:01:16.288Z</time>
      </trkpt>
      <trkpt lat="46.90843" lon="8.6705">
        <ele>1690</ele>
        <time>2021-08-07T09:01:17.288Z</time>
      </trkpt>
      <trkpt lat="46.90842" lon="8.6705">
        <ele>1689</ele>
        <time>2021-08-07T09:01:18.289Z</time>
      </trkpt>
      <trkpt lat="46.90842" lon="8.6705">
        <ele>1689</ele>
        <time>2021-08-07T09:01:19.288Z</time>
      </trkpt>
      <trkpt lat="46.90841" lon="8.67052">
        <ele>1688</ele>
        <time>2021-08-07T09:01:20.289Z</time>
      </trkpt>
      <trkpt lat="46.90841" lon="8.67052">
        <ele>1688</ele>
        <time>2021-08-07T09:01:21.288Z</time>
      </trkpt>
      <trkpt lat="46.90841" lon="8.67052">
        <ele>1687</ele>
        <time>2021-08-07T09:01:22.288Z</time>
      </trkpt>
      <trkpt lat="46.90841" lon="8.67052">
        <ele>1686</ele>
        <time>2021-08-07T09:01:23.289Z</time>
      </trkpt>
      <trkpt lat="46.90841" lon="8.67052">
        <ele>1684</ele>
        <time>2021-08-07T09:01:24.290Z</time>
      </trkpt>
      <trkpt lat="46.90841" lon="8.67053">
        <ele>1684</ele>
        <time>2021-08-07T09:01:25.290Z</time>
      </trkpt>
      <trkpt lat="46.90841" lon="8.67053">
        <ele>1685</ele>
        <time>2021-08-07T09:01:26.289Z</time>
      </trkpt>
      <trkpt lat="46.90841" lon="8.67053">
        <ele>1685</ele>
        <time>2021-08-07T09:01:27.289Z</time>
      </trkpt>
      <trkpt lat="46.90841" lon="8.67054">
        <ele>1685</ele>
        <time>2021-08-07T09:01:28.290Z</time>
      </trkpt>
      <trkpt lat="46.90838" lon="8.6706">
        <ele>1686</ele>
        <time>2021-08-07T09:01:29.289Z</time>
      </trkpt>
      <trkpt lat="46.90838" lon="8.67059">
        <ele>1686</ele>
        <time>2021-08-07T09:01:30.290Z</time>
      </trkpt>
      <trkpt lat="46.90838" lon="8.67058">
        <ele>1686</ele>
        <time>2021-08-07T09:01:31.289Z</time>
      </trkpt>
      <trkpt lat="46.90838" lon="8.67057">
        <ele>1685</ele>
        <time>2021-08-07T09:01:32.290Z</time>
      </trkpt>
      <trkpt lat="46.90838" lon="8.67056">
        <ele>1684</ele>
        <time>2021-08-07T09:01:33.289Z</time>
      </trkpt>
      <trkpt lat="46.90838" lon="8.67055">
        <ele>1684</ele>
        <time>2021-08-07T09:01:34.290Z</time>
      </trkpt>
      <trkpt lat="46.90837" lon="8.67054">
        <ele>1683</ele>
        <time>2021-08-07T09:01:35.290Z</time>
      </trkpt>
      <trkpt lat="46.90836" lon="8.67053">
        <ele>1683</ele>
        <time>2021-08-07T09:01:36.289Z</time>
      </trkpt>
      <trkpt lat="46.90836" lon="8.67052">
        <ele>1682</ele>
        <time>2021-08-07T09:01:37.290Z</time>
      </trkpt>
      <trkpt lat="46.90835" lon="8.67052">
        <ele>1682</ele>
        <time>2021-08-07T09:01:38.290Z</time>
      </trkpt>
      <trkpt lat="46.90835" lon="8.67051">
        <ele>1682</ele>
        <time>2021-08-07T09:01:39.290Z</time>
      </trkpt>
      <trkpt lat="46.90835" lon="8.67049">
        <ele>1681</ele>
        <time>2021-08-07T09:01:46.374Z</time>
      </trkpt>
      <trkpt lat="46.90834" lon="8.67048">
        <ele>1681</ele>
        <time>2021-08-07T09:01:47.374Z</time>
      </trkpt>
      <trkpt lat="46.90834" lon="8.67047">
        <ele>1680</ele>
        <time>2021-08-07T09:01:58.156Z</time>
      </trkpt>
      <trkpt lat="46.90834" lon="8.67046">
        <ele>1680</ele>
        <time>2021-08-07T09:01:59.156Z</time>
      </trkpt>
      <trkpt lat="46.90833" lon="8.67045">
        <ele>1679</ele>
        <time>2021-08-07T09:02:00.156Z</time>
      </trkpt>
      <trkpt lat="46.90832" lon="8.67043">
        <ele>1679</ele>
        <time>2021-08-07T09:02:01.155Z</time>
      </trkpt>
      <trkpt lat="46.90832" lon="8.67042">
        <ele>1678</ele>
        <time>2021-08-07T09:02:02.156Z</time>
      </trkpt>
      <trkpt lat="46.90832" lon="8.6704">
        <ele>1678</ele>
        <time>2021-08-07T09:02:03.156Z</time>
      </trkpt>
      <trkpt lat="46.90831" lon="8.67037">
        <ele>1678</ele>
        <time>2021-08-07T09:02:04.156Z</time>
      </trkpt>
      <trkpt lat="46.90831" lon="8.67035">
        <ele>1678</ele>
        <time>2021-08-07T09:02:05.155Z</time>
      </trkpt>
      <trkpt lat="46.90831" lon="8.67033">
        <ele>1677</ele>
        <time>2021-08-07T09:02:06.156Z</time>
      </trkpt>
      <trkpt lat="46.90832" lon="8.6703">
        <ele>1677</ele>
        <time>2021-08-07T09:02:07.156Z</time>
      </trkpt>
      <trkpt lat="46.90832" lon="8.67029">
        <ele>1677</ele>
        <time>2021-08-07T09:02:08.155Z</time>
      </trkpt>
      <trkpt lat="46.90832" lon="8.67027">
        <ele>1677</ele>
        <time>2021-08-07T09:02:09.155Z</time>
      </trkpt>
      <trkpt lat="46.90832" lon="8.67026">
        <ele>1678</ele>
        <time>2021-08-07T09:02:10.156Z</time>
      </trkpt>
      <trkpt lat="46.90832" lon="8.67024">
        <ele>1678</ele>
        <time>2021-08-07T09:02:11.156Z</time>
      </trkpt>
      <trkpt lat="46.90833" lon="8.67022">
        <ele>1678</ele>
        <time>2021-08-07T09:02:12.156Z</time>
      </trkpt>
      <trkpt lat="46.90832" lon="8.67021">
        <ele>1679</ele>
        <time>2021-08-07T09:02:13.155Z</time>
      </trkpt>
      <trkpt lat="46.90832" lon="8.67019">
        <ele>1679</ele>
        <time>2021-08-07T09:02:14.156Z</time>
      </trkpt>
      <trkpt lat="46.90832" lon="8.67017">
        <ele>1680</ele>
        <time>2021-08-07T09:02:15.156Z</time>
      </trkpt>
      <trkpt lat="46.90831" lon="8.67016">
        <ele>1680</ele>
        <time>2021-08-07T09:02:16.155Z</time>
      </trkpt>
      <trkpt lat="46.90831" lon="8.67014">
        <ele>1681</ele>
        <time>2021-08-07T09:02:17.156Z</time>
      </trkpt>
      <trkpt lat="46.90831" lon="8.67012">
        <ele>1681</ele>
        <time>2021-08-07T09:02:18.155Z</time>
      </trkpt>
      <trkpt lat="46.90831" lon="8.6701">
        <ele>1681</ele>
        <time>2021-08-07T09:02:19.155Z</time>
      </trkpt>
      <trkpt lat="46.90832" lon="8.67008">
        <ele>1681</ele>
        <time>2021-08-07T09:02:20.155Z</time>
      </trkpt>
      <trkpt lat="46.90832" lon="8.67007">
        <ele>1681</ele>
        <time>2021-08-07T09:02:21.156Z</time>
      </trkpt>
      <trkpt lat="46.90833" lon="8.67005">
        <ele>1681</ele>
        <time>2021-08-07T09:02:22.156Z</time>
      </trkpt>
      <trkpt lat="46.90833" lon="8.67004">
        <ele>1681</ele>
        <time>2021-08-07T09:02:23.156Z</time>
      </trkpt>
      <trkpt lat="46.90834" lon="8.67002">
        <ele>1681</ele>
        <time>2021-08-07T09:02:24.156Z</time>
      </trkpt>
      <trkpt lat="46.90835" lon="8.67">
        <ele>1681</ele>
        <time>2021-08-07T09:02:25.156Z</time>
      </trkpt>
      <trkpt lat="46.90835" lon="8.66998">
        <ele>1681</ele>
        <time>2021-08-07T09:02:26.156Z</time>
      </trkpt>
      <trkpt lat="46.90836" lon="8.66997">
        <ele>1681</ele>
        <time>2021-08-07T09:02:27.155Z</time>
      </trkpt>
      <trkpt lat="46.90836" lon="8.66996">
        <ele>1682</ele>
        <time>2021-08-07T09:02:28.156Z</time>
      </trkpt>
      <trkpt lat="46.90837" lon="8.66995">
        <ele>1682</ele>
        <time>2021-08-07T09:02:29.155Z</time>
      </trkpt>
      <trkpt lat="46.90838" lon="8.66994">
        <ele>1682</ele>
        <time>2021-08-07T09:02:30.155Z</time>
      </trkpt>
      <trkpt lat="46.90838" lon="8.66993">
        <ele>1682</ele>
        <time>2021-08-07T09:02:31.155Z</time>
      </trkpt>
      <trkpt lat="46.90838" lon="8.66992">
        <ele>1682</ele>
        <time>2021-08-07T09:02:32.156Z</time>
      </trkpt>
      <trkpt lat="46.90839" lon="8.66991">
        <ele>1682</ele>
        <time>2021-08-07T09:02:33.156Z</time>
      </trkpt>
      <trkpt lat="46.90839" lon="8.66989">
        <ele>1682</ele>
        <time>2021-08-07T09:02:34.155Z</time>
      </trkpt>
      <trkpt lat="46.9084" lon="8.66988">
        <ele>1682</ele>
        <time>2021-08-07T09:02:35.156Z</time>
      </trkpt>
      <trkpt lat="46.90841" lon="8.66987">
        <ele>1682</ele>
        <time>2021-08-07T09:02:36.156Z</time>
      </trkpt>
      <trkpt lat="46.90842" lon="8.66987">
        <ele>1682</ele>
        <time>2021-08-07T09:02:37.155Z</time>
      </trkpt>
      <trkpt lat="46.90842" lon="8.66986">
        <ele>1682</ele>
        <time>2021-08-07T09:02:38.156Z</time>
      </trkpt>
      <trkpt lat="46.90843" lon="8.66984">
        <ele>1681</ele>
        <time>2021-08-07T09:02:39.156Z</time>
      </trkpt>
      <trkpt lat="46.90843" lon="8.66983">
        <ele>1681</ele>
        <time>2021-08-07T09:02:40.155Z</time>
      </trkpt>
      <trkpt lat="46.90843" lon="8.66981">
        <ele>1681</ele>
        <time>2021-08-07T09:02:41.156Z</time>
      </trkpt>
      <trkpt lat="46.90843" lon="8.66979">
        <ele>1681</ele>
        <time>2021-08-07T09:02:42.156Z</time>
      </trkpt>
      <trkpt lat="46.90842" lon="8.66978">
        <ele>1681</ele>
        <time>2021-08-07T09:02:43.156Z</time>
      </trkpt>
      <trkpt lat="46.90841" lon="8.66977">
        <ele>1681</ele>
        <time>2021-08-07T09:02:44.156Z</time>
      </trkpt>
      <trkpt lat="46.90841" lon="8.66975">
        <ele>1680</ele>
        <time>2021-08-07T09:02:45.156Z</time>
      </trkpt>
      <trkpt lat="46.90839" lon="8.66974">
        <ele>1680</ele>
        <time>2021-08-07T09:02:46.156Z</time>
      </trkpt>
      <trkpt lat="46.90839" lon="8.66972">
        <ele>1680</ele>
        <time>2021-08-07T09:02:47.155Z</time>
      </trkpt>
      <trkpt lat="46.90839" lon="8.66971">
        <ele>1680</ele>
        <time>2021-08-07T09:02:48.155Z</time>
      </trkpt>
      <trkpt lat="46.90837" lon="8.66969">
        <ele>1680</ele>
        <time>2021-08-07T09:02:49.155Z</time>
      </trkpt>
      <trkpt lat="46.90836" lon="8.66967">
        <ele>1680</ele>
        <time>2021-08-07T09:02:50.156Z</time>
      </trkpt>
      <trkpt lat="46.90834" lon="8.66966">
        <ele>1680</ele>
        <time>2021-08-07T09:02:51.155Z</time>
      </trkpt>
      <trkpt lat="46.90832" lon="8.66965">
        <ele>1680</ele>
        <time>2021-08-07T09:02:52.156Z</time>
      </trkpt>
      <trkpt lat="46.90832" lon="8.66964">
        <ele>1680</ele>
        <time>2021-08-07T09:02:53.156Z</time>
      </trkpt>
      <trkpt lat="46.90832" lon="8.66963">
        <ele>1680</ele>
        <time>2021-08-07T09:02:54.156Z</time>
      </trkpt>
      <trkpt lat="46.90832" lon="8.66962">
        <ele>1681</ele>
        <time>2021-08-07T09:02:55.156Z</time>
      </trkpt>
      <trkpt lat="46.90832" lon="8.6696">
        <ele>1681</ele>
        <time>2021-08-07T09:02:56.155Z</time>
      </trkpt>
      <trkpt lat="46.90831" lon="8.66959">
        <ele>1681</ele>
        <time>2021-08-07T09:02:57.156Z</time>
      </trkpt>
      <trkpt lat="46.90831" lon="8.66958">
        <ele>1681</ele>
        <time>2021-08-07T09:02:58.156Z</time>
      </trkpt>
      <trkpt lat="46.90831" lon="8.66957">
        <ele>1681</ele>
        <time>2021-08-07T09:02:59.156Z</time>
      </trkpt>
      <trkpt lat="46.90832" lon="8.66956">
        <ele>1681</ele>
        <time>2021-08-07T09:03:00.156Z</time>
      </trkpt>
      <trkpt lat="46.90833" lon="8.66954">
        <ele>1681</ele>
        <time>2021-08-07T09:03:01.155Z</time>
      </trkpt>
      <trkpt lat="46.90834" lon="8.66954">
        <ele>1681</ele>
        <time>2021-08-07T09:03:02.156Z</time>
      </trkpt>
      <trkpt lat="46.90834" lon="8.66953">
        <ele>1681</ele>
        <time>2021-08-07T09:03:03.155Z</time>
      </trkpt>
      <trkpt lat="46.90834" lon="8.66953">
        <ele>1680</ele>
        <time>2021-08-07T09:03:04.155Z</time>
      </trkpt>
      <trkpt lat="46.90834" lon="8.66951">
        <ele>1680</ele>
        <time>2021-08-07T09:03:05.156Z</time>
      </trkpt>
      <trkpt lat="46.90834" lon="8.6695">
        <ele>1680</ele>
        <time>2021-08-07T09:03:06.155Z</time>
      </trkpt>
      <trkpt lat="46.90834" lon="8.66949">
        <ele>1680</ele>
        <time>2021-08-07T09:03:07.155Z</time>
      </trkpt>
      <trkpt lat="46.90833" lon="8.66946">
        <ele>1680</ele>
        <time>2021-08-07T09:03:08.157Z</time>
      </trkpt>
      <trkpt lat="46.90832" lon="8.66945">
        <ele>1681</ele>
        <time>2021-08-07T09:03:09.157Z</time>
      </trkpt>
      <trkpt lat="46.9083" lon="8.66943">
        <ele>1681</ele>
        <time>2021-08-07T09:03:10.156Z</time>
      </trkpt>
      <trkpt lat="46.90829" lon="8.6694">
        <ele>1682</ele>
        <time>2021-08-07T09:03:11.156Z</time>
      </trkpt>
      <trkpt lat="46.90828" lon="8.66938">
        <ele>1682</ele>
        <time>2021-08-07T09:03:12.157Z</time>
      </trkpt>
      <trkpt lat="46.90828" lon="8.66936">
        <ele>1682</ele>
        <time>2021-08-07T09:03:13.157Z</time>
      </trkpt>
      <trkpt lat="46.90828" lon="8.66934">
        <ele>1683</ele>
        <time>2021-08-07T09:03:14.157Z</time>
      </trkpt>
      <trkpt lat="46.90828" lon="8.66931">
        <ele>1683</ele>
        <time>2021-08-07T09:03:15.157Z</time>
      </trkpt>
      <trkpt lat="46.90828" lon="8.6693">
        <ele>1683</ele>
        <time>2021-08-07T09:03:16.156Z</time>
      </trkpt>
      <trkpt lat="46.90829" lon="8.66928">
        <ele>1683</ele>
        <time>2021-08-07T09:03:17.156Z</time>
      </trkpt>
      <trkpt lat="46.9083" lon="8.66926">
        <ele>1683</ele>
        <time>2021-08-07T09:03:18.157Z</time>
      </trkpt>
      <trkpt lat="46.9083" lon="8.66925">
        <ele>1683</ele>
        <time>2021-08-07T09:03:19.157Z</time>
      </trkpt>
      <trkpt lat="46.90831" lon="8.66924">
        <ele>1684</ele>
        <time>2021-08-07T09:03:20.156Z</time>
      </trkpt>
      <trkpt lat="46.90832" lon="8.66923">
        <ele>1684</ele>
        <time>2021-08-07T09:03:21.157Z</time>
      </trkpt>
      <trkpt lat="46.90833" lon="8.66922">
        <ele>1684</ele>
        <time>2021-08-07T09:03:22.157Z</time>
      </trkpt>
      <trkpt lat="46.90833" lon="8.66921">
        <ele>1684</ele>
        <time>2021-08-07T09:03:23.157Z</time>
      </trkpt>
      <trkpt lat="46.90834" lon="8.66919">
        <ele>1684</ele>
        <time>2021-08-07T09:03:24.157Z</time>
      </trkpt>
      <trkpt lat="46.90834" lon="8.66916">
        <ele>1685</ele>
        <time>2021-08-07T09:03:25.156Z</time>
      </trkpt>
      <trkpt lat="46.90835" lon="8.66914">
        <ele>1685</ele>
        <time>2021-08-07T09:03:26.157Z</time>
      </trkpt>
      <trkpt lat="46.90835" lon="8.66912">
        <ele>1685</ele>
        <time>2021-08-07T09:03:27.157Z</time>
      </trkpt>
      <trkpt lat="46.90835" lon="8.66909">
        <ele>1685</ele>
        <time>2021-08-07T09:03:28.157Z</time>
      </trkpt>
      <trkpt lat="46.90836" lon="8.66908">
        <ele>1686</ele>
        <time>2021-08-07T09:03:29.156Z</time>
      </trkpt>
      <trkpt lat="46.90836" lon="8.66907">
        <ele>1686</ele>
        <time>2021-08-07T09:03:30.157Z</time>
      </trkpt>
      <trkpt lat="46.90837" lon="8.66906">
        <ele>1686</ele>
        <time>2021-08-07T09:03:31.157Z</time>
      </trkpt>
      <trkpt lat="46.90837" lon="8.66904">
        <ele>1686</ele>
        <time>2021-08-07T09:03:32.157Z</time>
      </trkpt>
      <trkpt lat="46.90838" lon="8.66903">
        <ele>1686</ele>
        <time>2021-08-07T09:03:33.156Z</time>
      </trkpt>
      <trkpt lat="46.90838" lon="8.66901">
        <ele>1686</ele>
        <time>2021-08-07T09:03:34.156Z</time>
      </trkpt>
      <trkpt lat="46.90839" lon="8.669">
        <ele>1686</ele>
        <time>2021-08-07T09:03:36.249Z</time>
      </trkpt>
      <trkpt lat="46.90839" lon="8.66899">
        <ele>1686</ele>
        <time>2021-08-07T09:03:37.249Z</time>
      </trkpt>
      <trkpt lat="46.90839" lon="8.66898">
        <ele>1686</ele>
        <time>2021-08-07T09:03:38.249Z</time>
      </trkpt>
      <trkpt lat="46.9084" lon="8.66897">
        <ele>1686</ele>
        <time>2021-08-07T09:03:39.249Z</time>
      </trkpt>
      <trkpt lat="46.9084" lon="8.66895">
        <ele>1686</ele>
        <time>2021-08-07T09:03:40.250Z</time>
      </trkpt>
      <trkpt lat="46.90841" lon="8.66894">
        <ele>1687</ele>
        <time>2021-08-07T09:03:41.250Z</time>
      </trkpt>
      <trkpt lat="46.90842" lon="8.66894">
        <ele>1687</ele>
        <time>2021-08-07T09:03:42.250Z</time>
      </trkpt>
      <trkpt lat="46.90843" lon="8.66893">
        <ele>1686</ele>
        <time>2021-08-07T09:03:43.249Z</time>
      </trkpt>
      <trkpt lat="46.90843" lon="8.66892">
        <ele>1686</ele>
        <time>2021-08-07T09:03:44.250Z</time>
      </trkpt>
      <trkpt lat="46.90843" lon="8.66891">
        <ele>1686</ele>
        <time>2021-08-07T09:03:45.249Z</time>
      </trkpt>
      <trkpt lat="46.90843" lon="8.66889">
        <ele>1685</ele>
        <time>2021-08-07T09:03:46.249Z</time>
      </trkpt>
      <trkpt lat="46.90844" lon="8.66887">
        <ele>1684</ele>
        <time>2021-08-07T09:03:47.250Z</time>
      </trkpt>
      <trkpt lat="46.90844" lon="8.66886">
        <ele>1683</ele>
        <time>2021-08-07T09:03:48.250Z</time>
      </trkpt>
      <trkpt lat="46.90845" lon="8.66884">
        <ele>1683</ele>
        <time>2021-08-07T09:03:49.250Z</time>
      </trkpt>
      <trkpt lat="46.90845" lon="8.66883">
        <ele>1683</ele>
        <time>2021-08-07T09:03:50.250Z</time>
      </trkpt>
      <trkpt lat="46.90845" lon="8.66881">
        <ele>1683</ele>
        <time>2021-08-07T09:03:51.250Z</time>
      </trkpt>
      <trkpt lat="46.90844" lon="8.66879">
        <ele>1682</ele>
        <time>2021-08-07T09:03:52.250Z</time>
      </trkpt>
      <trkpt lat="46.90844" lon="8.66877">
        <ele>1682</ele>
        <time>2021-08-07T09:03:53.249Z</time>
      </trkpt>
      <trkpt lat="46.90843" lon="8.66875">
        <ele>1681</ele>
        <time>2021-08-07T09:03:54.250Z</time>
      </trkpt>
      <trkpt lat="46.90843" lon="8.66874">
        <ele>1681</ele>
        <time>2021-08-07T09:03:55.249Z</time>
      </trkpt>
      <trkpt lat="46.90844" lon="8.66872">
        <ele>1681</ele>
        <time>2021-08-07T09:03:56.250Z</time>
      </trkpt>
      <trkpt lat="46.90844" lon="8.66871">
        <ele>1680</ele>
        <time>2021-08-07T09:03:57.250Z</time>
      </trkpt>
      <trkpt lat="46.90845" lon="8.66869">
        <ele>1680</ele>
        <time>2021-08-07T09:03:58.250Z</time>
      </trkpt>
      <trkpt lat="46.90846" lon="8.66869">
        <ele>1680</ele>
        <time>2021-08-07T09:03:59.250Z</time>
      </trkpt>
      <trkpt lat="46.90846" lon="8.66868">
        <ele>1681</ele>
        <time>2021-08-07T09:04:00.250Z</time>
      </trkpt>
      <trkpt lat="46.90847" lon="8.66867">
        <ele>1681</ele>
        <time>2021-08-07T09:04:01.249Z</time>
      </trkpt>
      <trkpt lat="46.90847" lon="8.66865">
        <ele>1681</ele>
        <time>2021-08-07T09:04:02.249Z</time>
      </trkpt>
      <trkpt lat="46.90847" lon="8.66864">
        <ele>1681</ele>
        <time>2021-08-07T09:04:03.249Z</time>
      </trkpt>
      <trkpt lat="46.90848" lon="8.66862">
        <ele>1681</ele>
        <time>2021-08-07T09:04:04.250Z</time>
      </trkpt>
      <trkpt lat="46.90848" lon="8.66861">
        <ele>1682</ele>
        <time>2021-08-07T09:04:05.249Z</time>
      </trkpt>
      <trkpt lat="46.90849" lon="8.66859">
        <ele>1682</ele>
        <time>2021-08-07T09:04:06.250Z</time>
      </trkpt>
      <trkpt lat="46.90849" lon="8.66858">
        <ele>1682</ele>
        <time>2021-08-07T09:04:07.250Z</time>
      </trkpt>
      <trkpt lat="46.90849" lon="8.66856">
        <ele>1682</ele>
        <time>2021-08-07T09:04:08.250Z</time>
      </trkpt>
      <trkpt lat="46.90849" lon="8.66854">
        <ele>1682</ele>
        <time>2021-08-07T09:04:09.249Z</time>
      </trkpt>
      <trkpt lat="46.90849" lon="8.66852">
        <ele>1682</ele>
        <time>2021-08-07T09:04:10.249Z</time>
      </trkpt>
      <trkpt lat="46.90849" lon="8.66851">
        <ele>1682</ele>
        <time>2021-08-07T09:04:11.250Z</time>
      </trkpt>
      <trkpt lat="46.90849" lon="8.6685">
        <ele>1682</ele>
        <time>2021-08-07T09:04:12.250Z</time>
      </trkpt>
      <trkpt lat="46.9085" lon="8.66848">
        <ele>1682</ele>
        <time>2021-08-07T09:04:13.250Z</time>
      </trkpt>
      <trkpt lat="46.9085" lon="8.66847">
        <ele>1682</ele>
        <time>2021-08-07T09:04:14.250Z</time>
      </trkpt>
      <trkpt lat="46.9085" lon="8.66846">
        <ele>1682</ele>
        <time>2021-08-07T09:04:15.250Z</time>
      </trkpt>
      <trkpt lat="46.90851" lon="8.66845">
        <ele>1681</ele>
        <time>2021-08-07T09:04:16.250Z</time>
      </trkpt>
      <trkpt lat="46.90851" lon="8.66843">
        <ele>1681</ele>
        <time>2021-08-07T09:04:17.250Z</time>
      </trkpt>
      <trkpt lat="46.90853" lon="8.66842">
        <ele>1681</ele>
        <time>2021-08-07T09:04:18.250Z</time>
      </trkpt>
      <trkpt lat="46.90854" lon="8.6684">
        <ele>1681</ele>
        <time>2021-08-07T09:04:19.249Z</time>
      </trkpt>
      <trkpt lat="46.90855" lon="8.66838">
        <ele>1681</ele>
        <time>2021-08-07T09:04:20.249Z</time>
      </trkpt>
      <trkpt lat="46.90855" lon="8.66837">
        <ele>1681</ele>
        <time>2021-08-07T09:04:21.250Z</time>
      </trkpt>
      <trkpt lat="46.90855" lon="8.66836">
        <ele>1681</ele>
        <time>2021-08-07T09:04:22.250Z</time>
      </trkpt>
      <trkpt lat="46.90855" lon="8.66835">
        <ele>1681</ele>
        <time>2021-08-07T09:04:23.249Z</time>
      </trkpt>
      <trkpt lat="46.90856" lon="8.66834">
        <ele>1680</ele>
        <time>2021-08-07T09:04:24.250Z</time>
      </trkpt>
      <trkpt lat="46.90856" lon="8.66833">
        <ele>1679</ele>
        <time>2021-08-07T09:04:25.250Z</time>
      </trkpt>
      <trkpt lat="46.90856" lon="8.66832">
        <ele>1678</ele>
        <time>2021-08-07T09:04:26.249Z</time>
      </trkpt>
      <trkpt lat="46.90856" lon="8.66831">
        <ele>1678</ele>
        <time>2021-08-07T09:04:27.250Z</time>
      </trkpt>
      <trkpt lat="46.90857" lon="8.66829">
        <ele>1677</ele>
        <time>2021-08-07T09:04:28.250Z</time>
      </trkpt>
      <trkpt lat="46.90857" lon="8.66828">
        <ele>1677</ele>
        <time>2021-08-07T09:04:29.250Z</time>
      </trkpt>
      <trkpt lat="46.90857" lon="8.66828">
        <ele>1676</ele>
        <time>2021-08-07T09:04:30.250Z</time>
      </trkpt>
      <trkpt lat="46.90857" lon="8.66827">
        <ele>1676</ele>
        <time>2021-08-07T09:04:31.250Z</time>
      </trkpt>
      <trkpt lat="46.90857" lon="8.66827">
        <ele>1676</ele>
        <time>2021-08-07T09:04:32.250Z</time>
      </trkpt>
      <trkpt lat="46.90858" lon="8.66826">
        <ele>1676</ele>
        <time>2021-08-07T09:04:33.250Z</time>
      </trkpt>
      <trkpt lat="46.90858" lon="8.66825">
        <ele>1676</ele>
        <time>2021-08-07T09:04:34.250Z</time>
      </trkpt>
      <trkpt lat="46.9086" lon="8.66823">
        <ele>1676</ele>
        <time>2021-08-07T09:04:35.250Z</time>
      </trkpt>
      <trkpt lat="46.9086" lon="8.66822">
        <ele>1676</ele>
        <time>2021-08-07T09:04:36.249Z</time>
      </trkpt>
      <trkpt lat="46.9086" lon="8.66821">
        <ele>1675</ele>
        <time>2021-08-07T09:04:37.249Z</time>
      </trkpt>
      <trkpt lat="46.9086" lon="8.6682">
        <ele>1675</ele>
        <time>2021-08-07T09:04:38.250Z</time>
      </trkpt>
      <trkpt lat="46.9086" lon="8.66818">
        <ele>1676</ele>
        <time>2021-08-07T09:04:39.250Z</time>
      </trkpt>
      <trkpt lat="46.9086" lon="8.66817">
        <ele>1676</ele>
        <time>2021-08-07T09:04:40.250Z</time>
      </trkpt>
      <trkpt lat="46.9086" lon="8.66815">
        <ele>1675</ele>
        <time>2021-08-07T09:04:41.249Z</time>
      </trkpt>
      <trkpt lat="46.9086" lon="8.66813">
        <ele>1675</ele>
        <time>2021-08-07T09:04:42.250Z</time>
      </trkpt>
      <trkpt lat="46.9086" lon="8.66812">
        <ele>1675</ele>
        <time>2021-08-07T09:04:43.250Z</time>
      </trkpt>
      <trkpt lat="46.90859" lon="8.6681">
        <ele>1674</ele>
        <time>2021-08-07T09:04:44.250Z</time>
      </trkpt>
      <trkpt lat="46.90859" lon="8.66809">
        <ele>1674</ele>
        <time>2021-08-07T09:04:45.250Z</time>
      </trkpt>
      <trkpt lat="46.90859" lon="8.66808">
        <ele>1674</ele>
        <time>2021-08-07T09:04:46.250Z</time>
      </trkpt>
      <trkpt lat="46.90859" lon="8.66806">
        <ele>1673</ele>
        <time>2021-08-07T09:04:47.250Z</time>
      </trkpt>
      <trkpt lat="46.90859" lon="8.66805">
        <ele>1673</ele>
        <time>2021-08-07T09:04:48.250Z</time>
      </trkpt>
      <trkpt lat="46.90859" lon="8.66804">
        <ele>1673</ele>
        <time>2021-08-07T09:04:49.249Z</time>
      </trkpt>
      <trkpt lat="46.90859" lon="8.66802">
        <ele>1672</ele>
        <time>2021-08-07T09:04:50.249Z</time>
      </trkpt>
      <trkpt lat="46.90859" lon="8.66801">
        <ele>1672</ele>
        <time>2021-08-07T09:04:51.250Z</time>
      </trkpt>
      <trkpt lat="46.90859" lon="8.66799">
        <ele>1671</ele>
        <time>2021-08-07T09:04:52.250Z</time>
      </trkpt>
      <trkpt lat="46.90859" lon="8.66797">
        <ele>1671</ele>
        <time>2021-08-07T09:04:54.249Z</time>
      </trkpt>
      <trkpt lat="46.90859" lon="8.66796">
        <ele>1670</ele>
        <time>2021-08-07T09:04:55.248Z</time>
      </trkpt>
      <trkpt lat="46.9086" lon="8.66795">
        <ele>1670</ele>
        <time>2021-08-07T09:04:56.249Z</time>
      </trkpt>
      <trkpt lat="46.9086" lon="8.66793">
        <ele>1669</ele>
        <time>2021-08-07T09:04:57.248Z</time>
      </trkpt>
      <trkpt lat="46.9086" lon="8.66792">
        <ele>1669</ele>
        <time>2021-08-07T09:04:58.248Z</time>
      </trkpt>
      <trkpt lat="46.9086" lon="8.6679">
        <ele>1668</ele>
        <time>2021-08-07T09:04:59.249Z</time>
      </trkpt>
      <trkpt lat="46.9086" lon="8.66789">
        <ele>1667</ele>
        <time>2021-08-07T09:05:00.248Z</time>
      </trkpt>
      <trkpt lat="46.9086" lon="8.66788">
        <ele>1667</ele>
        <time>2021-08-07T09:05:01.249Z</time>
      </trkpt>
      <trkpt lat="46.9086" lon="8.66787">
        <ele>1666</ele>
        <time>2021-08-07T09:05:02.248Z</time>
      </trkpt>
      <trkpt lat="46.9086" lon="8.66785">
        <ele>1666</ele>
        <time>2021-08-07T09:05:03.249Z</time>
      </trkpt>
      <trkpt lat="46.9086" lon="8.66784">
        <ele>1666</ele>
        <time>2021-08-07T09:05:04.249Z</time>
      </trkpt>
      <trkpt lat="46.9086" lon="8.66782">
        <ele>1665</ele>
        <time>2021-08-07T09:05:05.249Z</time>
      </trkpt>
      <trkpt lat="46.90859" lon="8.66781">
        <ele>1665</ele>
        <time>2021-08-07T09:05:06.249Z</time>
      </trkpt>
      <trkpt lat="46.90858" lon="8.6678">
        <ele>1665</ele>
        <time>2021-08-07T09:05:07.249Z</time>
      </trkpt>
      <trkpt lat="46.90857" lon="8.66778">
        <ele>1665</ele>
        <time>2021-08-07T09:05:08.248Z</time>
      </trkpt>
      <trkpt lat="46.90855" lon="8.66776">
        <ele>1665</ele>
        <time>2021-08-07T09:05:09.249Z</time>
      </trkpt>
      <trkpt lat="46.90855" lon="8.66773">
        <ele>1665</ele>
        <time>2021-08-07T09:05:10.248Z</time>
      </trkpt>
      <trkpt lat="46.90853" lon="8.66771">
        <ele>1665</ele>
        <time>2021-08-07T09:05:11.249Z</time>
      </trkpt>
      <trkpt lat="46.90852" lon="8.6677">
        <ele>1665</ele>
        <time>2021-08-07T09:05:12.248Z</time>
      </trkpt>
      <trkpt lat="46.90852" lon="8.66768">
        <ele>1665</ele>
        <time>2021-08-07T09:05:13.249Z</time>
      </trkpt>
      <trkpt lat="46.90853" lon="8.66767">
        <ele>1665</ele>
        <time>2021-08-07T09:05:14.249Z</time>
      </trkpt>
      <trkpt lat="46.90853" lon="8.66766">
        <ele>1665</ele>
        <time>2021-08-07T09:05:15.249Z</time>
      </trkpt>
      <trkpt lat="46.90853" lon="8.66765">
        <ele>1665</ele>
        <time>2021-08-07T09:05:16.249Z</time>
      </trkpt>
      <trkpt lat="46.90852" lon="8.66764">
        <ele>1665</ele>
        <time>2021-08-07T09:05:17.249Z</time>
      </trkpt>
      <trkpt lat="46.90853" lon="8.66763">
        <ele>1665</ele>
        <time>2021-08-07T09:05:18.249Z</time>
      </trkpt>
      <trkpt lat="46.90853" lon="8.66763">
        <ele>1664</ele>
        <time>2021-08-07T09:05:19.248Z</time>
      </trkpt>
      <trkpt lat="46.90854" lon="8.66762">
        <ele>1664</ele>
        <time>2021-08-07T09:05:20.249Z</time>
      </trkpt>
      <trkpt lat="46.90854" lon="8.66762">
        <ele>1663</ele>
        <time>2021-08-07T09:05:21.249Z</time>
      </trkpt>
      <trkpt lat="46.90855" lon="8.66762">
        <ele>1663</ele>
        <time>2021-08-07T09:05:22.249Z</time>
      </trkpt>
      <trkpt lat="46.90856" lon="8.66761">
        <ele>1662</ele>
        <time>2021-08-07T09:05:23.248Z</time>
      </trkpt>
      <trkpt lat="46.90858" lon="8.6676">
        <ele>1662</ele>
        <time>2021-08-07T09:05:24.249Z</time>
      </trkpt>
      <trkpt lat="46.90858" lon="8.6676">
        <ele>1661</ele>
        <time>2021-08-07T09:05:25.249Z</time>
      </trkpt>
      <trkpt lat="46.9086" lon="8.66758">
        <ele>1661</ele>
        <time>2021-08-07T09:05:26.249Z</time>
      </trkpt>
      <trkpt lat="46.90861" lon="8.66757">
        <ele>1661</ele>
        <time>2021-08-07T09:05:27.249Z</time>
      </trkpt>
      <trkpt lat="46.90862" lon="8.66755">
        <ele>1660</ele>
        <time>2021-08-07T09:05:28.248Z</time>
      </trkpt>
      <trkpt lat="46.90862" lon="8.66754">
        <ele>1660</ele>
        <time>2021-08-07T09:05:29.249Z</time>
      </trkpt>
      <trkpt lat="46.90863" lon="8.66753">
        <ele>1659</ele>
        <time>2021-08-07T09:05:30.249Z</time>
      </trkpt>
      <trkpt lat="46.90864" lon="8.66752">
        <ele>1659</ele>
        <time>2021-08-07T09:05:31.249Z</time>
      </trkpt>
      <trkpt lat="46.90865" lon="8.6675">
        <ele>1659</ele>
        <time>2021-08-07T09:05:32.249Z</time>
      </trkpt>
      <trkpt lat="46.90866" lon="8.66749">
        <ele>1659</ele>
        <time>2021-08-07T09:05:33.248Z</time>
      </trkpt>
      <trkpt lat="46.90866" lon="8.66749">
        <ele>1659</ele>
        <time>2021-08-07T09:05:34.248Z</time>
      </trkpt>
      <trkpt lat="46.90867" lon="8.66748">
        <ele>1660</ele>
        <time>2021-08-07T09:05:35.249Z</time>
      </trkpt>
      <trkpt lat="46.90868" lon="8.66748">
        <ele>1659</ele>
        <time>2021-08-07T09:05:36.249Z</time>
      </trkpt>
      <trkpt lat="46.90869" lon="8.66748">
        <ele>1659</ele>
        <time>2021-08-07T09:05:37.249Z</time>
      </trkpt>
      <trkpt lat="46.9087" lon="8.66748">
        <ele>1659</ele>
        <time>2021-08-07T09:05:38.249Z</time>
      </trkpt>
      <trkpt lat="46.9087" lon="8.66748">
        <ele>1658</ele>
        <time>2021-08-07T09:05:39.249Z</time>
      </trkpt>
      <trkpt lat="46.90871" lon="8.66748">
        <ele>1657</ele>
        <time>2021-08-07T09:05:40.249Z</time>
      </trkpt>
      <trkpt lat="46.90871" lon="8.66748">
        <ele>1657</ele>
        <time>2021-08-07T09:05:41.248Z</time>
      </trkpt>
      <trkpt lat="46.90872" lon="8.66749">
        <ele>1656</ele>
        <time>2021-08-07T09:05:42.249Z</time>
      </trkpt>
      <trkpt lat="46.90873" lon="8.66748">
        <ele>1655</ele>
        <time>2021-08-07T09:05:43.249Z</time>
      </trkpt>
      <trkpt lat="46.90874" lon="8.66748">
        <ele>1655</ele>
        <time>2021-08-07T09:05:44.249Z</time>
      </trkpt>
      <trkpt lat="46.90875" lon="8.66748">
        <ele>1655</ele>
        <time>2021-08-07T09:05:45.249Z</time>
      </trkpt>
      <trkpt lat="46.90876" lon="8.66748">
        <ele>1654</ele>
        <time>2021-08-07T09:05:46.248Z</time>
      </trkpt>
      <trkpt lat="46.90877" lon="8.66748">
        <ele>1654</ele>
        <time>2021-08-07T09:05:47.249Z</time>
      </trkpt>
      <trkpt lat="46.90877" lon="8.66748">
        <ele>1654</ele>
        <time>2021-08-07T09:05:48.249Z</time>
      </trkpt>
      <trkpt lat="46.90878" lon="8.66748">
        <ele>1653</ele>
        <time>2021-08-07T09:05:49.249Z</time>
      </trkpt>
      <trkpt lat="46.90879" lon="8.66748">
        <ele>1653</ele>
        <time>2021-08-07T09:05:50.248Z</time>
      </trkpt>
      <trkpt lat="46.90879" lon="8.66748">
        <ele>1653</ele>
        <time>2021-08-07T09:05:51.249Z</time>
      </trkpt>
      <trkpt lat="46.9088" lon="8.66747">
        <ele>1653</ele>
        <time>2021-08-07T09:05:52.248Z</time>
      </trkpt>
      <trkpt lat="46.90881" lon="8.66746">
        <ele>1653</ele>
        <time>2021-08-07T09:05:53.248Z</time>
      </trkpt>
      <trkpt lat="46.90881" lon="8.66745">
        <ele>1653</ele>
        <time>2021-08-07T09:05:54.248Z</time>
      </trkpt>
      <trkpt lat="46.90883" lon="8.66744">
        <ele>1653</ele>
        <time>2021-08-07T09:05:55.248Z</time>
      </trkpt>
      <trkpt lat="46.90883" lon="8.66743">
        <ele>1653</ele>
        <time>2021-08-07T09:05:56.249Z</time>
      </trkpt>
      <trkpt lat="46.90884" lon="8.66743">
        <ele>1653</ele>
        <time>2021-08-07T09:05:57.249Z</time>
      </trkpt>
      <trkpt lat="46.90884" lon="8.66743">
        <ele>1653</ele>
        <time>2021-08-07T09:05:58.249Z</time>
      </trkpt>
      <trkpt lat="46.90885" lon="8.66742">
        <ele>1653</ele>
        <time>2021-08-07T09:05:59.251Z</time>
      </trkpt>
      <trkpt lat="46.90885" lon="8.66742">
        <ele>1653</ele>
        <time>2021-08-07T09:06:00.250Z</time>
      </trkpt>
      <trkpt lat="46.90885" lon="8.66742">
        <ele>1653</ele>
        <time>2021-08-07T09:06:01.250Z</time>
      </trkpt>
      <trkpt lat="46.90885" lon="8.66743">
        <ele>1653</ele>
        <time>2021-08-07T09:06:02.250Z</time>
      </trkpt>
      <trkpt lat="46.90886" lon="8.66743">
        <ele>1652</ele>
        <time>2021-08-07T09:06:03.251Z</time>
      </trkpt>
      <trkpt lat="46.90886" lon="8.66743">
        <ele>1652</ele>
        <time>2021-08-07T09:06:04.250Z</time>
      </trkpt>
      <trkpt lat="46.90887" lon="8.66738">
        <ele>1653</ele>
        <time>2021-08-07T09:06:05.250Z</time>
      </trkpt>
      <trkpt lat="46.90888" lon="8.66737">
        <ele>1656</ele>
        <time>2021-08-07T09:06:06.251Z</time>
      </trkpt>
      <trkpt lat="46.90888" lon="8.66737">
        <ele>1657</ele>
        <time>2021-08-07T09:06:07.251Z</time>
      </trkpt>
      <trkpt lat="46.90888" lon="8.66737">
        <ele>1658</ele>
        <time>2021-08-07T09:06:08.251Z</time>
      </trkpt>
      <trkpt lat="46.90889" lon="8.66736">
        <ele>1659</ele>
        <time>2021-08-07T09:06:09.251Z</time>
      </trkpt>
      <trkpt lat="46.90889" lon="8.66736">
        <ele>1660</ele>
        <time>2021-08-07T09:06:10.251Z</time>
      </trkpt>
      <trkpt lat="46.90889" lon="8.66735">
        <ele>1661</ele>
        <time>2021-08-07T09:06:11.251Z</time>
      </trkpt>
      <trkpt lat="46.90889" lon="8.66735">
        <ele>1662</ele>
        <time>2021-08-07T09:06:12.250Z</time>
      </trkpt>
      <trkpt lat="46.90888" lon="8.66735">
        <ele>1663</ele>
        <time>2021-08-07T09:06:13.251Z</time>
      </trkpt>
      <trkpt lat="46.90888" lon="8.66734">
        <ele>1664</ele>
        <time>2021-08-07T09:06:14.250Z</time>
      </trkpt>
      <trkpt lat="46.90893" lon="8.66735">
        <ele>1668</ele>
        <time>2021-08-07T09:06:15.252Z</time>
      </trkpt>
      <trkpt lat="46.90893" lon="8.66735">
        <ele>1669</ele>
        <time>2021-08-07T09:06:16.252Z</time>
      </trkpt>
      <trkpt lat="46.90892" lon="8.66736">
        <ele>1669</ele>
        <time>2021-08-07T09:06:17.253Z</time>
      </trkpt>
      <trkpt lat="46.90892" lon="8.66735">
        <ele>1668</ele>
        <time>2021-08-07T09:06:18.252Z</time>
      </trkpt>
      <trkpt lat="46.90889" lon="8.66737">
        <ele>1666</ele>
        <time>2021-08-07T09:06:19.252Z</time>
      </trkpt>
      <trkpt lat="46.90888" lon="8.66738">
        <ele>1666</ele>
        <time>2021-08-07T09:06:20.253Z</time>
      </trkpt>
      <trkpt lat="46.90887" lon="8.66739">
        <ele>1666</ele>
        <time>2021-08-07T09:06:21.252Z</time>
      </trkpt>
      <trkpt lat="46.90887" lon="8.6674">
        <ele>1665</ele>
        <time>2021-08-07T09:06:22.252Z</time>
      </trkpt>
      <trkpt lat="46.90888" lon="8.6674">
        <ele>1665</ele>
        <time>2021-08-07T09:06:23.252Z</time>
      </trkpt>
      <trkpt lat="46.90888" lon="8.6674">
        <ele>1665</ele>
        <time>2021-08-07T09:06:24.252Z</time>
      </trkpt>
      <trkpt lat="46.90888" lon="8.66741">
        <ele>1654</ele>
        <time>2021-08-07T09:06:25.254Z</time>
      </trkpt>
      <trkpt lat="46.90888" lon="8.6674">
        <ele>1654</ele>
        <time>2021-08-07T09:06:26.253Z</time>
      </trkpt>
      <trkpt lat="46.90888" lon="8.66739">
        <ele>1653</ele>
        <time>2021-08-07T09:06:27.253Z</time>
      </trkpt>
      <trkpt lat="46.90888" lon="8.66738">
        <ele>1653</ele>
        <time>2021-08-07T09:06:28.254Z</time>
      </trkpt>
      <trkpt lat="46.90888" lon="8.66737">
        <ele>1652</ele>
        <time>2021-08-07T09:06:29.254Z</time>
      </trkpt>
      <trkpt lat="46.90888" lon="8.66735">
        <ele>1652</ele>
        <time>2021-08-07T09:06:30.254Z</time>
      </trkpt>
      <trkpt lat="46.90888" lon="8.66734">
        <ele>1652</ele>
        <time>2021-08-07T09:06:31.254Z</time>
      </trkpt>
      <trkpt lat="46.90889" lon="8.66733">
        <ele>1652</ele>
        <time>2021-08-07T09:06:32.253Z</time>
      </trkpt>
      <trkpt lat="46.90889" lon="8.66731">
        <ele>1651</ele>
        <time>2021-08-07T09:06:33.254Z</time>
      </trkpt>
      <trkpt lat="46.90889" lon="8.6673">
        <ele>1651</ele>
        <time>2021-08-07T09:06:34.254Z</time>
      </trkpt>
      <trkpt lat="46.90889" lon="8.66729">
        <ele>1651</ele>
        <time>2021-08-07T09:06:35.253Z</time>
      </trkpt>
      <trkpt lat="46.90889" lon="8.66727">
        <ele>1650</ele>
        <time>2021-08-07T09:06:36.253Z</time>
      </trkpt>
      <trkpt lat="46.90889" lon="8.66726">
        <ele>1650</ele>
        <time>2021-08-07T09:06:37.254Z</time>
      </trkpt>
      <trkpt lat="46.90889" lon="8.66724">
        <ele>1649</ele>
        <time>2021-08-07T09:06:38.254Z</time>
      </trkpt>
      <trkpt lat="46.9089" lon="8.66722">
        <ele>1649</ele>
        <time>2021-08-07T09:06:39.254Z</time>
      </trkpt>
      <trkpt lat="46.9089" lon="8.6672">
        <ele>1649</ele>
        <time>2021-08-07T09:06:40.254Z</time>
      </trkpt>
      <trkpt lat="46.90891" lon="8.66718">
        <ele>1649</ele>
        <time>2021-08-07T09:06:41.254Z</time>
      </trkpt>
      <trkpt lat="46.90891" lon="8.66714">
        <ele>1648</ele>
        <time>2021-08-07T09:06:42.254Z</time>
      </trkpt>
      <trkpt lat="46.90891" lon="8.66713">
        <ele>1648</ele>
        <time>2021-08-07T09:06:43.253Z</time>
      </trkpt>
      <trkpt lat="46.90891" lon="8.66711">
        <ele>1647</ele>
        <time>2021-08-07T09:06:44.253Z</time>
      </trkpt>
      <trkpt lat="46.90892" lon="8.6671">
        <ele>1647</ele>
        <time>2021-08-07T09:06:45.254Z</time>
      </trkpt>
      <trkpt lat="46.90892" lon="8.66708">
        <ele>1647</ele>
        <time>2021-08-07T09:06:46.253Z</time>
      </trkpt>
      <trkpt lat="46.90893" lon="8.66707">
        <ele>1647</ele>
        <time>2021-08-07T09:06:47.254Z</time>
      </trkpt>
      <trkpt lat="46.90893" lon="8.66705">
        <ele>1647</ele>
        <time>2021-08-07T09:06:48.254Z</time>
      </trkpt>
      <trkpt lat="46.90894" lon="8.66703">
        <ele>1647</ele>
        <time>2021-08-07T09:06:49.254Z</time>
      </trkpt>
      <trkpt lat="46.90894" lon="8.66702">
        <ele>1647</ele>
        <time>2021-08-07T09:06:50.254Z</time>
      </trkpt>
      <trkpt lat="46.90894" lon="8.667">
        <ele>1647</ele>
        <time>2021-08-07T09:06:51.253Z</time>
      </trkpt>
      <trkpt lat="46.90894" lon="8.66699">
        <ele>1646</ele>
        <time>2021-08-07T09:06:52.254Z</time>
      </trkpt>
      <trkpt lat="46.90895" lon="8.66697">
        <ele>1647</ele>
        <time>2021-08-07T09:06:53.254Z</time>
      </trkpt>
      <trkpt lat="46.90896" lon="8.66695">
        <ele>1647</ele>
        <time>2021-08-07T09:06:54.254Z</time>
      </trkpt>
      <trkpt lat="46.90897" lon="8.66693">
        <ele>1646</ele>
        <time>2021-08-07T09:06:55.253Z</time>
      </trkpt>
      <trkpt lat="46.90898" lon="8.66691">
        <ele>1646</ele>
        <time>2021-08-07T09:06:56.254Z</time>
      </trkpt>
      <trkpt lat="46.90898" lon="8.66689">
        <ele>1646</ele>
        <time>2021-08-07T09:06:57.253Z</time>
      </trkpt>
      <trkpt lat="46.90898" lon="8.66687">
        <ele>1646</ele>
        <time>2021-08-07T09:06:58.254Z</time>
      </trkpt>
      <trkpt lat="46.90898" lon="8.66686">
        <ele>1646</ele>
        <time>2021-08-07T09:06:59.254Z</time>
      </trkpt>
      <trkpt lat="46.90898" lon="8.66684">
        <ele>1646</ele>
        <time>2021-08-07T09:07:00.254Z</time>
      </trkpt>
      <trkpt lat="46.90899" lon="8.66683">
        <ele>1646</ele>
        <time>2021-08-07T09:07:01.254Z</time>
      </trkpt>
      <trkpt lat="46.90901" lon="8.66681">
        <ele>1645</ele>
        <time>2021-08-07T09:07:02.253Z</time>
      </trkpt>
      <trkpt lat="46.90902" lon="8.6668">
        <ele>1645</ele>
        <time>2021-08-07T09:07:03.253Z</time>
      </trkpt>
      <trkpt lat="46.90902" lon="8.66679">
        <ele>1645</ele>
        <time>2021-08-07T09:07:04.254Z</time>
      </trkpt>
      <trkpt lat="46.90902" lon="8.66677">
        <ele>1645</ele>
        <time>2021-08-07T09:07:05.254Z</time>
      </trkpt>
      <trkpt lat="46.90902" lon="8.66676">
        <ele>1645</ele>
        <time>2021-08-07T09:07:06.254Z</time>
      </trkpt>
      <trkpt lat="46.90902" lon="8.66674">
        <ele>1645</ele>
        <time>2021-08-07T09:07:07.253Z</time>
      </trkpt>
      <trkpt lat="46.90902" lon="8.66672">
        <ele>1645</ele>
        <time>2021-08-07T09:07:08.253Z</time>
      </trkpt>
      <trkpt lat="46.90903" lon="8.66671">
        <ele>1645</ele>
        <time>2021-08-07T09:07:10.355Z</time>
      </trkpt>
      <trkpt lat="46.90903" lon="8.66668">
        <ele>1645</ele>
        <time>2021-08-07T09:07:11.354Z</time>
      </trkpt>
      <trkpt lat="46.90903" lon="8.66667">
        <ele>1645</ele>
        <time>2021-08-07T09:07:12.354Z</time>
      </trkpt>
      <trkpt lat="46.90902" lon="8.66666">
        <ele>1645</ele>
        <time>2021-08-07T09:07:13.355Z</time>
      </trkpt>
      <trkpt lat="46.909" lon="8.66666">
        <ele>1646</ele>
        <time>2021-08-07T09:07:14.355Z</time>
      </trkpt>
      <trkpt lat="46.90899" lon="8.66666">
        <ele>1646</ele>
        <time>2021-08-07T09:07:15.354Z</time>
      </trkpt>
      <trkpt lat="46.90898" lon="8.66665">
        <ele>1646</ele>
        <time>2021-08-07T09:07:16.355Z</time>
      </trkpt>
      <trkpt lat="46.90897" lon="8.66664">
        <ele>1647</ele>
        <time>2021-08-07T09:07:17.355Z</time>
      </trkpt>
      <trkpt lat="46.90896" lon="8.66663">
        <ele>1647</ele>
        <time>2021-08-07T09:07:18.355Z</time>
      </trkpt>
      <trkpt lat="46.90895" lon="8.66662">
        <ele>1647</ele>
        <time>2021-08-07T09:07:19.355Z</time>
      </trkpt>
      <trkpt lat="46.90895" lon="8.66661">
        <ele>1647</ele>
        <time>2021-08-07T09:07:20.354Z</time>
      </trkpt>
      <trkpt lat="46.90895" lon="8.6666">
        <ele>1647</ele>
        <time>2021-08-07T09:07:21.354Z</time>
      </trkpt>
      <trkpt lat="46.90894" lon="8.66659">
        <ele>1648</ele>
        <time>2021-08-07T09:07:22.355Z</time>
      </trkpt>
      <trkpt lat="46.90894" lon="8.66659">
        <ele>1648</ele>
        <time>2021-08-07T09:07:23.355Z</time>
      </trkpt>
      <trkpt lat="46.90893" lon="8.66659">
        <ele>1648</ele>
        <time>2021-08-07T09:07:24.354Z</time>
      </trkpt>
      <trkpt lat="46.90891" lon="8.66658">
        <ele>1648</ele>
        <time>2021-08-07T09:07:25.355Z</time>
      </trkpt>
      <trkpt lat="46.90891" lon="8.66658">
        <ele>1648</ele>
        <time>2021-08-07T09:07:26.355Z</time>
      </trkpt>
      <trkpt lat="46.90889" lon="8.66657">
        <ele>1648</ele>
        <time>2021-08-07T09:07:27.354Z</time>
      </trkpt>
      <trkpt lat="46.90887" lon="8.66656">
        <ele>1648</ele>
        <time>2021-08-07T09:07:28.355Z</time>
      </trkpt>
      <trkpt lat="46.90886" lon="8.66655">
        <ele>1647</ele>
        <time>2021-08-07T09:07:29.354Z</time>
      </trkpt>
      <trkpt lat="46.90886" lon="8.66654">
        <ele>1647</ele>
        <time>2021-08-07T09:07:30.355Z</time>
      </trkpt>
      <trkpt lat="46.90885" lon="8.66654">
        <ele>1646</ele>
        <time>2021-08-07T09:07:31.354Z</time>
      </trkpt>
      <trkpt lat="46.90884" lon="8.66654">
        <ele>1646</ele>
        <time>2021-08-07T09:07:32.354Z</time>
      </trkpt>
      <trkpt lat="46.90883" lon="8.66654">
        <ele>1646</ele>
        <time>2021-08-07T09:07:33.355Z</time>
      </trkpt>
      <trkpt lat="46.90882" lon="8.66654">
        <ele>1646</ele>
        <time>2021-08-07T09:07:34.355Z</time>
      </trkpt>
      <trkpt lat="46.90881" lon="8.66653">
        <ele>1646</ele>
        <time>2021-08-07T09:07:35.354Z</time>
      </trkpt>
      <trkpt lat="46.9088" lon="8.66653">
        <ele>1646</ele>
        <time>2021-08-07T09:07:36.355Z</time>
      </trkpt>
      <trkpt lat="46.90879" lon="8.66653">
        <ele>1646</ele>
        <time>2021-08-07T09:07:37.354Z</time>
      </trkpt>
      <trkpt lat="46.90879" lon="8.66653">
        <ele>1645</ele>
        <time>2021-08-07T09:07:38.355Z</time>
      </trkpt>
      <trkpt lat="46.90878" lon="8.66653">
        <ele>1645</ele>
        <time>2021-08-07T09:07:39.355Z</time>
      </trkpt>
      <trkpt lat="46.90877" lon="8.66652">
        <ele>1645</ele>
        <time>2021-08-07T09:07:40.354Z</time>
      </trkpt>
      <trkpt lat="46.90877" lon="8.66651">
        <ele>1645</ele>
        <time>2021-08-07T09:07:41.355Z</time>
      </trkpt>
      <trkpt lat="46.90877" lon="8.66652">
        <ele>1645</ele>
        <time>2021-08-07T09:07:42.354Z</time>
      </trkpt>
      <trkpt lat="46.90876" lon="8.66653">
        <ele>1644</ele>
        <time>2021-08-07T09:07:43.354Z</time>
      </trkpt>
      <trkpt lat="46.90876" lon="8.66653">
        <ele>1644</ele>
        <time>2021-08-07T09:07:44.355Z</time>
      </trkpt>
      <trkpt lat="46.90875" lon="8.66654">
        <ele>1644</ele>
        <time>2021-08-07T09:07:45.355Z</time>
      </trkpt>
      <trkpt lat="46.90876" lon="8.66655">
        <ele>1644</ele>
        <time>2021-08-07T09:07:46.355Z</time>
      </trkpt>
      <trkpt lat="46.90876" lon="8.66655">
        <ele>1644</ele>
        <time>2021-08-07T09:07:47.354Z</time>
      </trkpt>
      <trkpt lat="46.90878" lon="8.66652">
        <ele>1643</ele>
        <time>2021-08-07T09:07:53.444Z</time>
      </trkpt>
      <trkpt lat="46.90879" lon="8.66649">
        <ele>1643</ele>
        <time>2021-08-07T09:07:54.444Z</time>
      </trkpt>
      <trkpt lat="46.9088" lon="8.66647">
        <ele>1643</ele>
        <time>2021-08-07T09:07:55.445Z</time>
      </trkpt>
      <trkpt lat="46.9088" lon="8.66647">
        <ele>1643</ele>
        <time>2021-08-07T09:07:56.445Z</time>
      </trkpt>
      <trkpt lat="46.90881" lon="8.66647">
        <ele>1643</ele>
        <time>2021-08-07T09:07:57.445Z</time>
      </trkpt>
      <trkpt lat="46.90881" lon="8.66647">
        <ele>1642</ele>
        <time>2021-08-07T09:07:58.444Z</time>
      </trkpt>
      <trkpt lat="46.90881" lon="8.66648">
        <ele>1642</ele>
        <time>2021-08-07T09:07:59.445Z</time>
      </trkpt>
      <trkpt lat="46.90882" lon="8.66648">
        <ele>1642</ele>
        <time>2021-08-07T09:08:00.445Z</time>
      </trkpt>
      <trkpt lat="46.90883" lon="8.66648">
        <ele>1641</ele>
        <time>2021-08-07T09:08:01.444Z</time>
      </trkpt>
      <trkpt lat="46.90884" lon="8.66648">
        <ele>1641</ele>
        <time>2021-08-07T09:08:02.445Z</time>
      </trkpt>
      <trkpt lat="46.90886" lon="8.66648">
        <ele>1640</ele>
        <time>2021-08-07T09:08:03.444Z</time>
      </trkpt>
      <trkpt lat="46.90887" lon="8.66648">
        <ele>1639</ele>
        <time>2021-08-07T09:08:04.444Z</time>
      </trkpt>
      <trkpt lat="46.90887" lon="8.66648">
        <ele>1639</ele>
        <time>2021-08-07T09:08:05.445Z</time>
      </trkpt>
      <trkpt lat="46.90888" lon="8.66647">
        <ele>1639</ele>
        <time>2021-08-07T09:08:06.445Z</time>
      </trkpt>
      <trkpt lat="46.90889" lon="8.66646">
        <ele>1639</ele>
        <time>2021-08-07T09:08:07.445Z</time>
      </trkpt>
      <trkpt lat="46.9089" lon="8.66645">
        <ele>1638</ele>
        <time>2021-08-07T09:08:08.445Z</time>
      </trkpt>
      <trkpt lat="46.90891" lon="8.66645">
        <ele>1638</ele>
        <time>2021-08-07T09:08:09.445Z</time>
      </trkpt>
      <trkpt lat="46.90891" lon="8.66645">
        <ele>1638</ele>
        <time>2021-08-07T09:08:10.445Z</time>
      </trkpt>
      <trkpt lat="46.90892" lon="8.66645">
        <ele>1638</ele>
        <time>2021-08-07T09:08:12.515Z</time>
      </trkpt>
      <trkpt lat="46.90894" lon="8.66644">
        <ele>1638</ele>
        <time>2021-08-07T09:08:13.516Z</time>
      </trkpt>
      <trkpt lat="46.90894" lon="8.66644">
        <ele>1638</ele>
        <time>2021-08-07T09:08:14.515Z</time>
      </trkpt>
      <trkpt lat="46.90895" lon="8.66644">
        <ele>1638</ele>
        <time>2021-08-07T09:08:15.516Z</time>
      </trkpt>
      <trkpt lat="46.90896" lon="8.66644">
        <ele>1639</ele>
        <time>2021-08-07T09:08:16.515Z</time>
      </trkpt>
      <trkpt lat="46.90897" lon="8.66644">
        <ele>1639</ele>
        <time>2021-08-07T09:08:17.516Z</time>
      </trkpt>
      <trkpt lat="46.90899" lon="8.66644">
        <ele>1639</ele>
        <time>2021-08-07T09:08:18.516Z</time>
      </trkpt>
      <trkpt lat="46.909" lon="8.66644">
        <ele>1639</ele>
        <time>2021-08-07T09:08:19.515Z</time>
      </trkpt>
      <trkpt lat="46.90901" lon="8.66644">
        <ele>1640</ele>
        <time>2021-08-07T09:08:20.516Z</time>
      </trkpt>
      <trkpt lat="46.90903" lon="8.66644">
        <ele>1640</ele>
        <time>2021-08-07T09:08:21.516Z</time>
      </trkpt>
      <trkpt lat="46.90904" lon="8.66645">
        <ele>1640</ele>
        <time>2021-08-07T09:08:22.516Z</time>
      </trkpt>
      <trkpt lat="46.90905" lon="8.66645">
        <ele>1640</ele>
        <time>2021-08-07T09:08:23.515Z</time>
      </trkpt>
      <trkpt lat="46.90905" lon="8.66646">
        <ele>1640</ele>
        <time>2021-08-07T09:08:24.516Z</time>
      </trkpt>
      <trkpt lat="46.90905" lon="8.66646">
        <ele>1640</ele>
        <time>2021-08-07T09:08:25.515Z</time>
      </trkpt>
      <trkpt lat="46.90906" lon="8.66646">
        <ele>1640</ele>
        <time>2021-08-07T09:08:26.515Z</time>
      </trkpt>
      <trkpt lat="46.90907" lon="8.66646">
        <ele>1640</ele>
        <time>2021-08-07T09:08:27.516Z</time>
      </trkpt>
      <trkpt lat="46.90908" lon="8.66647">
        <ele>1639</ele>
        <time>2021-08-07T09:08:28.515Z</time>
      </trkpt>
      <trkpt lat="46.90908" lon="8.66648">
        <ele>1638</ele>
        <time>2021-08-07T09:08:29.515Z</time>
      </trkpt>
      <trkpt lat="46.90909" lon="8.66649">
        <ele>1638</ele>
        <time>2021-08-07T09:08:30.516Z</time>
      </trkpt>
      <trkpt lat="46.9091" lon="8.6665">
        <ele>1637</ele>
        <time>2021-08-07T09:08:31.515Z</time>
      </trkpt>
      <trkpt lat="46.90912" lon="8.6665">
        <ele>1636</ele>
        <time>2021-08-07T09:08:32.516Z</time>
      </trkpt>
      <trkpt lat="46.90914" lon="8.6665">
        <ele>1636</ele>
        <time>2021-08-07T09:08:33.516Z</time>
      </trkpt>
      <trkpt lat="46.90915" lon="8.66651">
        <ele>1636</ele>
        <time>2021-08-07T09:08:34.516Z</time>
      </trkpt>
      <trkpt lat="46.90916" lon="8.66652">
        <ele>1636</ele>
        <time>2021-08-07T09:08:35.516Z</time>
      </trkpt>
      <trkpt lat="46.90916" lon="8.66653">
        <ele>1636</ele>
        <time>2021-08-07T09:08:36.515Z</time>
      </trkpt>
      <trkpt lat="46.90917" lon="8.66654">
        <ele>1636</ele>
        <time>2021-08-07T09:08:37.515Z</time>
      </trkpt>
      <trkpt lat="46.90918" lon="8.66654">
        <ele>1636</ele>
        <time>2021-08-07T09:08:38.516Z</time>
      </trkpt>
      <trkpt lat="46.90919" lon="8.66654">
        <ele>1636</ele>
        <time>2021-08-07T09:08:39.516Z</time>
      </trkpt>
      <trkpt lat="46.9092" lon="8.66655">
        <ele>1636</ele>
        <time>2021-08-07T09:08:40.515Z</time>
      </trkpt>
      <trkpt lat="46.90921" lon="8.66655">
        <ele>1636</ele>
        <time>2021-08-07T09:08:41.515Z</time>
      </trkpt>
      <trkpt lat="46.90921" lon="8.66656">
        <ele>1635</ele>
        <time>2021-08-07T09:08:42.516Z</time>
      </trkpt>
      <trkpt lat="46.90922" lon="8.66656">
        <ele>1636</ele>
        <time>2021-08-07T09:08:43.516Z</time>
      </trkpt>
      <trkpt lat="46.90923" lon="8.66656">
        <ele>1636</ele>
        <time>2021-08-07T09:08:44.516Z</time>
      </trkpt>
      <trkpt lat="46.90924" lon="8.66656">
        <ele>1636</ele>
        <time>2021-08-07T09:08:45.515Z</time>
      </trkpt>
      <trkpt lat="46.90925" lon="8.66656">
        <ele>1636</ele>
        <time>2021-08-07T09:08:46.516Z</time>
      </trkpt>
      <trkpt lat="46.90926" lon="8.66656">
        <ele>1636</ele>
        <time>2021-08-07T09:08:47.515Z</time>
      </trkpt>
      <trkpt lat="46.90926" lon="8.66656">
        <ele>1635</ele>
        <time>2021-08-07T09:08:48.515Z</time>
      </trkpt>
      <trkpt lat="46.90927" lon="8.66656">
        <ele>1635</ele>
        <time>2021-08-07T09:08:49.516Z</time>
      </trkpt>
      <trkpt lat="46.90928" lon="8.66655">
        <ele>1635</ele>
        <time>2021-08-07T09:08:50.515Z</time>
      </trkpt>
      <trkpt lat="46.90929" lon="8.66655">
        <ele>1634</ele>
        <time>2021-08-07T09:08:51.515Z</time>
      </trkpt>
      <trkpt lat="46.9093" lon="8.66655">
        <ele>1634</ele>
        <time>2021-08-07T09:08:52.515Z</time>
      </trkpt>
      <trkpt lat="46.90931" lon="8.66655">
        <ele>1633</ele>
        <time>2021-08-07T09:08:53.515Z</time>
      </trkpt>
      <trkpt lat="46.90932" lon="8.66656">
        <ele>1633</ele>
        <time>2021-08-07T09:08:54.516Z</time>
      </trkpt>
      <trkpt lat="46.90932" lon="8.66657">
        <ele>1633</ele>
        <time>2021-08-07T09:08:55.515Z</time>
      </trkpt>
      <trkpt lat="46.90933" lon="8.66658">
        <ele>1632</ele>
        <time>2021-08-07T09:08:56.515Z</time>
      </trkpt>
      <trkpt lat="46.90934" lon="8.66659">
        <ele>1632</ele>
        <time>2021-08-07T09:08:57.516Z</time>
      </trkpt>
      <trkpt lat="46.90935" lon="8.6666">
        <ele>1631</ele>
        <time>2021-08-07T09:08:58.515Z</time>
      </trkpt>
      <trkpt lat="46.90936" lon="8.6666">
        <ele>1631</ele>
        <time>2021-08-07T09:08:59.516Z</time>
      </trkpt>
      <trkpt lat="46.90937" lon="8.66661">
        <ele>1631</ele>
        <time>2021-08-07T09:09:00.516Z</time>
      </trkpt>
      <trkpt lat="46.90938" lon="8.66661">
        <ele>1631</ele>
        <time>2021-08-07T09:09:01.515Z</time>
      </trkpt>
      <trkpt lat="46.90939" lon="8.66662">
        <ele>1631</ele>
        <time>2021-08-07T09:09:02.516Z</time>
      </trkpt>
      <trkpt lat="46.90939" lon="8.66663">
        <ele>1631</ele>
        <time>2021-08-07T09:09:03.516Z</time>
      </trkpt>
      <trkpt lat="46.9094" lon="8.66663">
        <ele>1631</ele>
        <time>2021-08-07T09:09:04.516Z</time>
      </trkpt>
      <trkpt lat="46.90941" lon="8.66664">
        <ele>1631</ele>
        <time>2021-08-07T09:09:05.515Z</time>
      </trkpt>
      <trkpt lat="46.90941" lon="8.66664">
        <ele>1631</ele>
        <time>2021-08-07T09:09:06.515Z</time>
      </trkpt>
      <trkpt lat="46.90942" lon="8.66664">
        <ele>1631</ele>
        <time>2021-08-07T09:09:07.516Z</time>
      </trkpt>
      <trkpt lat="46.90942" lon="8.66664">
        <ele>1632</ele>
        <time>2021-08-07T09:09:08.515Z</time>
      </trkpt>
      <trkpt lat="46.90943" lon="8.66663">
        <ele>1632</ele>
        <time>2021-08-07T09:09:09.515Z</time>
      </trkpt>
      <trkpt lat="46.90944" lon="8.66662">
        <ele>1636</ele>
        <time>2021-08-07T09:09:10.517Z</time>
      </trkpt>
      <trkpt lat="46.90946" lon="8.66662">
        <ele>1642</ele>
        <time>2021-08-07T09:09:11.517Z</time>
      </trkpt>
      <trkpt lat="46.90947" lon="8.66663">
        <ele>1643</ele>
        <time>2021-08-07T09:09:12.518Z</time>
      </trkpt>
      <trkpt lat="46.90948" lon="8.66663">
        <ele>1644</ele>
        <time>2021-08-07T09:09:13.517Z</time>
      </trkpt>
      <trkpt lat="46.90948" lon="8.66664">
        <ele>1645</ele>
        <time>2021-08-07T09:09:14.517Z</time>
      </trkpt>
      <trkpt lat="46.90949" lon="8.66665">
        <ele>1646</ele>
        <time>2021-08-07T09:09:15.518Z</time>
      </trkpt>
      <trkpt lat="46.90949" lon="8.66666">
        <ele>1647</ele>
        <time>2021-08-07T09:09:16.518Z</time>
      </trkpt>
      <trkpt lat="46.90949" lon="8.66668">
        <ele>1648</ele>
        <time>2021-08-07T09:09:17.518Z</time>
      </trkpt>
      <trkpt lat="46.9095" lon="8.66669">
        <ele>1648</ele>
        <time>2021-08-07T09:09:18.518Z</time>
      </trkpt>
      <trkpt lat="46.9095" lon="8.66669">
        <ele>1649</ele>
        <time>2021-08-07T09:09:19.517Z</time>
      </trkpt>
      <trkpt lat="46.90951" lon="8.6667">
        <ele>1649</ele>
        <time>2021-08-07T09:09:20.518Z</time>
      </trkpt>
      <trkpt lat="46.90951" lon="8.66671">
        <ele>1649</ele>
        <time>2021-08-07T09:09:21.518Z</time>
      </trkpt>
      <trkpt lat="46.90951" lon="8.66672">
        <ele>1650</ele>
        <time>2021-08-07T09:09:22.517Z</time>
      </trkpt>
      <trkpt lat="46.90952" lon="8.66675">
        <ele>1650</ele>
        <time>2021-08-07T09:09:23.517Z</time>
      </trkpt>
      <trkpt lat="46.90952" lon="8.66676">
        <ele>1650</ele>
        <time>2021-08-07T09:09:24.518Z</time>
      </trkpt>
      <trkpt lat="46.90953" lon="8.66677">
        <ele>1650</ele>
        <time>2021-08-07T09:09:25.517Z</time>
      </trkpt>
      <trkpt lat="46.90954" lon="8.66678">
        <ele>1650</ele>
        <time>2021-08-07T09:09:26.517Z</time>
      </trkpt>
      <trkpt lat="46.90955" lon="8.66677">
        <ele>1650</ele>
        <time>2021-08-07T09:09:27.518Z</time>
      </trkpt>
      <trkpt lat="46.90957" lon="8.66676">
        <ele>1650</ele>
        <time>2021-08-07T09:09:28.518Z</time>
      </trkpt>
      <trkpt lat="46.90958" lon="8.66676">
        <ele>1650</ele>
        <time>2021-08-07T09:09:29.518Z</time>
      </trkpt>
      <trkpt lat="46.9096" lon="8.66677">
        <ele>1651</ele>
        <time>2021-08-07T09:09:30.518Z</time>
      </trkpt>
      <trkpt lat="46.90961" lon="8.66677">
        <ele>1651</ele>
        <time>2021-08-07T09:09:31.518Z</time>
      </trkpt>
      <trkpt lat="46.90963" lon="8.66677">
        <ele>1650</ele>
        <time>2021-08-07T09:09:32.518Z</time>
      </trkpt>
      <trkpt lat="46.90963" lon="8.66677">
        <ele>1650</ele>
        <time>2021-08-07T09:09:33.517Z</time>
      </trkpt>
      <trkpt lat="46.90965" lon="8.66677">
        <ele>1650</ele>
        <time>2021-08-07T09:09:34.518Z</time>
      </trkpt>
      <trkpt lat="46.90965" lon="8.66677">
        <ele>1649</ele>
        <time>2021-08-07T09:09:37.656Z</time>
      </trkpt>
      <trkpt lat="46.90966" lon="8.66677">
        <ele>1649</ele>
        <time>2021-08-07T09:09:38.655Z</time>
      </trkpt>
      <trkpt lat="46.90967" lon="8.66678">
        <ele>1648</ele>
        <time>2021-08-07T09:09:39.656Z</time>
      </trkpt>
      <trkpt lat="46.90968" lon="8.66678">
        <ele>1648</ele>
        <time>2021-08-07T09:09:40.656Z</time>
      </trkpt>
      <trkpt lat="46.90969" lon="8.66678">
        <ele>1647</ele>
        <time>2021-08-07T09:09:41.655Z</time>
      </trkpt>
      <trkpt lat="46.9097" lon="8.66679">
        <ele>1647</ele>
        <time>2021-08-07T09:09:42.655Z</time>
      </trkpt>
      <trkpt lat="46.9097" lon="8.66679">
        <ele>1647</ele>
        <time>2021-08-07T09:09:43.656Z</time>
      </trkpt>
      <trkpt lat="46.90971" lon="8.6668">
        <ele>1647</ele>
        <time>2021-08-07T09:09:44.655Z</time>
      </trkpt>
      <trkpt lat="46.90973" lon="8.66681">
        <ele>1647</ele>
        <time>2021-08-07T09:09:45.656Z</time>
      </trkpt>
      <trkpt lat="46.90975" lon="8.66681">
        <ele>1647</ele>
        <time>2021-08-07T09:09:46.655Z</time>
      </trkpt>
      <trkpt lat="46.90976" lon="8.66681">
        <ele>1647</ele>
        <time>2021-08-07T09:09:47.656Z</time>
      </trkpt>
      <trkpt lat="46.90977" lon="8.66681">
        <ele>1648</ele>
        <time>2021-08-07T09:09:48.655Z</time>
      </trkpt>
      <trkpt lat="46.90978" lon="8.66682">
        <ele>1648</ele>
        <time>2021-08-07T09:09:49.656Z</time>
      </trkpt>
      <trkpt lat="46.90978" lon="8.66682">
        <ele>1649</ele>
        <time>2021-08-07T09:09:50.656Z</time>
      </trkpt>
      <trkpt lat="46.90978" lon="8.66682">
        <ele>1649</ele>
        <time>2021-08-07T09:09:51.656Z</time>
      </trkpt>
      <trkpt lat="46.9098" lon="8.66682">
        <ele>1650</ele>
        <time>2021-08-07T09:09:52.656Z</time>
      </trkpt>
      <trkpt lat="46.90981" lon="8.66683">
        <ele>1650</ele>
        <time>2021-08-07T09:09:53.656Z</time>
      </trkpt>
      <trkpt lat="46.90983" lon="8.66683">
        <ele>1650</ele>
        <time>2021-08-07T09:09:54.656Z</time>
      </trkpt>
      <trkpt lat="46.90984" lon="8.66683">
        <ele>1650</ele>
        <time>2021-08-07T09:09:55.656Z</time>
      </trkpt>
      <trkpt lat="46.90985" lon="8.66682">
        <ele>1650</ele>
        <time>2021-08-07T09:09:56.655Z</time>
      </trkpt>
      <trkpt lat="46.90986" lon="8.66681">
        <ele>1650</ele>
        <time>2021-08-07T09:09:57.656Z</time>
      </trkpt>
      <trkpt lat="46.90987" lon="8.66679">
        <ele>1651</ele>
        <time>2021-08-07T09:09:58.656Z</time>
      </trkpt>
      <trkpt lat="46.90988" lon="8.66678">
        <ele>1651</ele>
        <time>2021-08-07T09:09:59.656Z</time>
      </trkpt>
      <trkpt lat="46.90989" lon="8.66677">
        <ele>1651</ele>
        <time>2021-08-07T09:10:00.656Z</time>
      </trkpt>
      <trkpt lat="46.9099" lon="8.66675">
        <ele>1651</ele>
        <time>2021-08-07T09:10:01.655Z</time>
      </trkpt>
      <trkpt lat="46.90991" lon="8.66675">
        <ele>1650</ele>
        <time>2021-08-07T09:10:02.656Z</time>
      </trkpt>
      <trkpt lat="46.90993" lon="8.66674">
        <ele>1650</ele>
        <time>2021-08-07T09:10:03.655Z</time>
      </trkpt>
      <trkpt lat="46.90994" lon="8.66673">
        <ele>1650</ele>
        <time>2021-08-07T09:10:04.656Z</time>
      </trkpt>
      <trkpt lat="46.90995" lon="8.66672">
        <ele>1650</ele>
        <time>2021-08-07T09:10:05.655Z</time>
      </trkpt>
      <trkpt lat="46.90996" lon="8.66671">
        <ele>1650</ele>
        <time>2021-08-07T09:10:06.655Z</time>
      </trkpt>
      <trkpt lat="46.90998" lon="8.6667">
        <ele>1650</ele>
        <time>2021-08-07T09:10:07.655Z</time>
      </trkpt>
      <trkpt lat="46.90999" lon="8.66668">
        <ele>1650</ele>
        <time>2021-08-07T09:10:08.655Z</time>
      </trkpt>
      <trkpt lat="46.91" lon="8.66667">
        <ele>1649</ele>
        <time>2021-08-07T09:10:09.656Z</time>
      </trkpt>
      <trkpt lat="46.91002" lon="8.66667">
        <ele>1649</ele>
        <time>2021-08-07T09:10:10.655Z</time>
      </trkpt>
      <trkpt lat="46.91003" lon="8.66666">
        <ele>1649</ele>
        <time>2021-08-07T09:10:11.656Z</time>
      </trkpt>
      <trkpt lat="46.91004" lon="8.66666">
        <ele>1649</ele>
        <time>2021-08-07T09:10:12.655Z</time>
      </trkpt>
      <trkpt lat="46.91005" lon="8.66665">
        <ele>1649</ele>
        <time>2021-08-07T09:10:13.655Z</time>
      </trkpt>
      <trkpt lat="46.91006" lon="8.66664">
        <ele>1650</ele>
        <time>2021-08-07T09:10:14.655Z</time>
      </trkpt>
      <trkpt lat="46.91007" lon="8.66663">
        <ele>1650</ele>
        <time>2021-08-07T09:10:15.655Z</time>
      </trkpt>
      <trkpt lat="46.91008" lon="8.66663">
        <ele>1650</ele>
        <time>2021-08-07T09:10:16.656Z</time>
      </trkpt>
      <trkpt lat="46.9101" lon="8.66662">
        <ele>1650</ele>
        <time>2021-08-07T09:10:17.656Z</time>
      </trkpt>
      <trkpt lat="46.9101" lon="8.66662">
        <ele>1650</ele>
        <time>2021-08-07T09:10:18.655Z</time>
      </trkpt>
      <trkpt lat="46.91011" lon="8.66661">
        <ele>1650</ele>
        <time>2021-08-07T09:10:19.656Z</time>
      </trkpt>
      <trkpt lat="46.91012" lon="8.66661">
        <ele>1650</ele>
        <time>2021-08-07T09:10:20.655Z</time>
      </trkpt>
      <trkpt lat="46.91013" lon="8.66661">
        <ele>1650</ele>
        <time>2021-08-07T09:10:21.655Z</time>
      </trkpt>
      <trkpt lat="46.91013" lon="8.6666">
        <ele>1650</ele>
        <time>2021-08-07T09:10:22.656Z</time>
      </trkpt>
      <trkpt lat="46.91014" lon="8.66661">
        <ele>1649</ele>
        <time>2021-08-07T09:10:23.656Z</time>
      </trkpt>
      <trkpt lat="46.91015" lon="8.6666">
        <ele>1649</ele>
        <time>2021-08-07T09:10:24.656Z</time>
      </trkpt>
      <trkpt lat="46.91016" lon="8.66659">
        <ele>1649</ele>
        <time>2021-08-07T09:10:25.656Z</time>
      </trkpt>
      <trkpt lat="46.91016" lon="8.66658">
        <ele>1649</ele>
        <time>2021-08-07T09:10:26.656Z</time>
      </trkpt>
      <trkpt lat="46.91016" lon="8.66657">
        <ele>1648</ele>
        <time>2021-08-07T09:10:27.656Z</time>
      </trkpt>
      <trkpt lat="46.91017" lon="8.66655">
        <ele>1646</ele>
        <time>2021-08-07T09:10:28.657Z</time>
      </trkpt>
      <trkpt lat="46.91018" lon="8.66655">
        <ele>1645</ele>
        <time>2021-08-07T09:10:29.657Z</time>
      </trkpt>
      <trkpt lat="46.91018" lon="8.66654">
        <ele>1645</ele>
        <time>2021-08-07T09:10:30.656Z</time>
      </trkpt>
      <trkpt lat="46.91018" lon="8.66654">
        <ele>1645</ele>
        <time>2021-08-07T09:10:31.657Z</time>
      </trkpt>
      <trkpt lat="46.91019" lon="8.66654">
        <ele>1645</ele>
        <time>2021-08-07T09:10:32.657Z</time>
      </trkpt>
      <trkpt lat="46.9102" lon="8.66654">
        <ele>1645</ele>
        <time>2021-08-07T09:10:33.657Z</time>
      </trkpt>
      <trkpt lat="46.9102" lon="8.66654">
        <ele>1644</ele>
        <time>2021-08-07T09:10:34.657Z</time>
      </trkpt>
      <trkpt lat="46.9102" lon="8.66654">
        <ele>1644</ele>
        <time>2021-08-07T09:10:35.657Z</time>
      </trkpt>
      <trkpt lat="46.91021" lon="8.66654">
        <ele>1644</ele>
        <time>2021-08-07T09:10:36.657Z</time>
      </trkpt>
      <trkpt lat="46.91022" lon="8.66655">
        <ele>1645</ele>
        <time>2021-08-07T09:10:37.657Z</time>
      </trkpt>
      <trkpt lat="46.91023" lon="8.66655">
        <ele>1645</ele>
        <time>2021-08-07T09:10:38.656Z</time>
      </trkpt>
      <trkpt lat="46.91024" lon="8.66655">
        <ele>1645</ele>
        <time>2021-08-07T09:10:39.657Z</time>
      </trkpt>
      <trkpt lat="46.91025" lon="8.66656">
        <ele>1645</ele>
        <time>2021-08-07T09:10:40.657Z</time>
      </trkpt>
      <trkpt lat="46.91027" lon="8.66656">
        <ele>1646</ele>
        <time>2021-08-07T09:10:41.656Z</time>
      </trkpt>
      <trkpt lat="46.91027" lon="8.66657">
        <ele>1646</ele>
        <time>2021-08-07T09:10:42.657Z</time>
      </trkpt>
      <trkpt lat="46.91028" lon="8.66658">
        <ele>1646</ele>
        <time>2021-08-07T09:10:43.656Z</time>
      </trkpt>
      <trkpt lat="46.91028" lon="8.66659">
        <ele>1646</ele>
        <time>2021-08-07T09:10:44.657Z</time>
      </trkpt>
      <trkpt lat="46.91029" lon="8.66659">
        <ele>1646</ele>
        <time>2021-08-07T09:10:45.657Z</time>
      </trkpt>
      <trkpt lat="46.9103" lon="8.66659">
        <ele>1646</ele>
        <time>2021-08-07T09:10:46.656Z</time>
      </trkpt>
      <trkpt lat="46.91031" lon="8.66659">
        <ele>1646</ele>
        <time>2021-08-07T09:10:47.657Z</time>
      </trkpt>
      <trkpt lat="46.91031" lon="8.66659">
        <ele>1645</ele>
        <time>2021-08-07T09:10:48.657Z</time>
      </trkpt>
      <trkpt lat="46.91032" lon="8.66659">
        <ele>1645</ele>
        <time>2021-08-07T09:10:49.656Z</time>
      </trkpt>
      <trkpt lat="46.91032" lon="8.6666">
        <ele>1644</ele>
        <time>2021-08-07T09:10:50.656Z</time>
      </trkpt>
      <trkpt lat="46.91032" lon="8.66661">
        <ele>1644</ele>
        <time>2021-08-07T09:10:51.657Z</time>
      </trkpt>
      <trkpt lat="46.91032" lon="8.66661">
        <ele>1643</ele>
        <time>2021-08-07T09:10:52.657Z</time>
      </trkpt>
      <trkpt lat="46.91033" lon="8.66661">
        <ele>1643</ele>
        <time>2021-08-07T09:10:53.657Z</time>
      </trkpt>
      <trkpt lat="46.91034" lon="8.66662">
        <ele>1643</ele>
        <time>2021-08-07T09:10:54.657Z</time>
      </trkpt>
      <trkpt lat="46.91036" lon="8.66662">
        <ele>1644</ele>
        <time>2021-08-07T09:10:55.657Z</time>
      </trkpt>
      <trkpt lat="46.91037" lon="8.66663">
        <ele>1644</ele>
        <time>2021-08-07T09:10:56.657Z</time>
      </trkpt>
      <trkpt lat="46.91039" lon="8.66662">
        <ele>1644</ele>
        <time>2021-08-07T09:10:57.657Z</time>
      </trkpt>
      <trkpt lat="46.91039" lon="8.66662">
        <ele>1644</ele>
        <time>2021-08-07T09:10:58.656Z</time>
      </trkpt>
      <trkpt lat="46.9104" lon="8.66662">
        <ele>1644</ele>
        <time>2021-08-07T09:10:59.656Z</time>
      </trkpt>
      <trkpt lat="46.91041" lon="8.66662">
        <ele>1644</ele>
        <time>2021-08-07T09:11:00.657Z</time>
      </trkpt>
      <trkpt lat="46.91042" lon="8.66662">
        <ele>1644</ele>
        <time>2021-08-07T09:11:01.656Z</time>
      </trkpt>
      <trkpt lat="46.91042" lon="8.66662">
        <ele>1643</ele>
        <time>2021-08-07T09:11:02.657Z</time>
      </trkpt>
      <trkpt lat="46.91043" lon="8.66662">
        <ele>1643</ele>
        <time>2021-08-07T09:11:03.656Z</time>
      </trkpt>
      <trkpt lat="46.91044" lon="8.66661">
        <ele>1642</ele>
        <time>2021-08-07T09:11:04.656Z</time>
      </trkpt>
      <trkpt lat="46.91045" lon="8.66661">
        <ele>1642</ele>
        <time>2021-08-07T09:11:05.657Z</time>
      </trkpt>
      <trkpt lat="46.91045" lon="8.66661">
        <ele>1641</ele>
        <time>2021-08-07T09:11:06.657Z</time>
      </trkpt>
      <trkpt lat="46.91046" lon="8.6666">
        <ele>1641</ele>
        <time>2021-08-07T09:11:07.657Z</time>
      </trkpt>
      <trkpt lat="46.91047" lon="8.6666">
        <ele>1641</ele>
        <time>2021-08-07T09:11:08.657Z</time>
      </trkpt>
      <trkpt lat="46.91048" lon="8.66659">
        <ele>1641</ele>
        <time>2021-08-07T09:11:09.657Z</time>
      </trkpt>
      <trkpt lat="46.91049" lon="8.66658">
        <ele>1641</ele>
        <time>2021-08-07T09:11:10.657Z</time>
      </trkpt>
      <trkpt lat="46.9105" lon="8.66658">
        <ele>1641</ele>
        <time>2021-08-07T09:11:11.657Z</time>
      </trkpt>
      <trkpt lat="46.91049" lon="8.66658">
        <ele>1640</ele>
        <time>2021-08-07T09:11:12.656Z</time>
      </trkpt>
      <trkpt lat="46.9105" lon="8.66658">
        <ele>1640</ele>
        <time>2021-08-07T09:11:13.656Z</time>
      </trkpt>
      <trkpt lat="46.9105" lon="8.66657">
        <ele>1640</ele>
        <time>2021-08-07T09:11:14.656Z</time>
      </trkpt>
      <trkpt lat="46.9105" lon="8.66657">
        <ele>1640</ele>
        <time>2021-08-07T09:11:15.657Z</time>
      </trkpt>
      <trkpt lat="46.91051" lon="8.66656">
        <ele>1640</ele>
        <time>2021-08-07T09:11:16.656Z</time>
      </trkpt>
      <trkpt lat="46.91054" lon="8.66659">
        <ele>1640</ele>
        <time>2021-08-07T09:11:17.656Z</time>
      </trkpt>
      <trkpt lat="46.91054" lon="8.6666">
        <ele>1640</ele>
        <time>2021-08-07T09:11:18.657Z</time>
      </trkpt>
      <trkpt lat="46.91055" lon="8.6666">
        <ele>1640</ele>
        <time>2021-08-07T09:11:19.656Z</time>
      </trkpt>
      <trkpt lat="46.91055" lon="8.6666">
        <ele>1640</ele>
        <time>2021-08-07T09:11:20.657Z</time>
      </trkpt>
      <trkpt lat="46.91059" lon="8.66656">
        <ele>1644</ele>
        <time>2021-08-07T09:11:21.657Z</time>
      </trkpt>
      <trkpt lat="46.9106" lon="8.66655">
        <ele>1644</ele>
        <time>2021-08-07T09:11:22.657Z</time>
      </trkpt>
      <trkpt lat="46.91059" lon="8.66653">
        <ele>1644</ele>
        <time>2021-08-07T09:11:23.656Z</time>
      </trkpt>
      <trkpt lat="46.91059" lon="8.66651">
        <ele>1644</ele>
        <time>2021-08-07T09:11:24.658Z</time>
      </trkpt>
      <trkpt lat="46.91059" lon="8.66651">
        <ele>1643</ele>
        <time>2021-08-07T09:11:25.658Z</time>
      </trkpt>
      <trkpt lat="46.91059" lon="8.6665">
        <ele>1643</ele>
        <time>2021-08-07T09:11:26.657Z</time>
      </trkpt>
      <trkpt lat="46.91059" lon="8.66649">
        <ele>1643</ele>
        <time>2021-08-07T09:11:27.658Z</time>
      </trkpt>
      <trkpt lat="46.91058" lon="8.66648">
        <ele>1643</ele>
        <time>2021-08-07T09:11:28.658Z</time>
      </trkpt>
      <trkpt lat="46.91058" lon="8.66647">
        <ele>1643</ele>
        <time>2021-08-07T09:11:29.657Z</time>
      </trkpt>
      <trkpt lat="46.91058" lon="8.66646">
        <ele>1643</ele>
        <time>2021-08-07T09:11:30.657Z</time>
      </trkpt>
      <trkpt lat="46.91057" lon="8.66641">
        <ele>1645</ele>
        <time>2021-08-07T09:11:31.658Z</time>
      </trkpt>
      <trkpt lat="46.91057" lon="8.66642">
        <ele>1645</ele>
        <time>2021-08-07T09:11:32.658Z</time>
      </trkpt>
      <trkpt lat="46.91058" lon="8.66642">
        <ele>1644</ele>
        <time>2021-08-07T09:11:33.658Z</time>
      </trkpt>
      <trkpt lat="46.91058" lon="8.66643">
        <ele>1644</ele>
        <time>2021-08-07T09:11:34.658Z</time>
      </trkpt>
      <trkpt lat="46.91059" lon="8.66645">
        <ele>1643</ele>
        <time>2021-08-07T09:11:35.660Z</time>
      </trkpt>
      <trkpt lat="46.91059" lon="8.66646">
        <ele>1643</ele>
        <time>2021-08-07T09:11:36.660Z</time>
      </trkpt>
      <trkpt lat="46.9106" lon="8.66646">
        <ele>1643</ele>
        <time>2021-08-07T09:11:37.660Z</time>
      </trkpt>
      <trkpt lat="46.91061" lon="8.66647">
        <ele>1643</ele>
        <time>2021-08-07T09:11:38.661Z</time>
      </trkpt>
      <trkpt lat="46.91061" lon="8.66647">
        <ele>1642</ele>
        <time>2021-08-07T09:11:39.660Z</time>
      </trkpt>
      <trkpt lat="46.91063" lon="8.66647">
        <ele>1642</ele>
        <time>2021-08-07T09:11:40.660Z</time>
      </trkpt>
      <trkpt lat="46.91065" lon="8.66648">
        <ele>1642</ele>
        <time>2021-08-07T09:11:41.661Z</time>
      </trkpt>
      <trkpt lat="46.91065" lon="8.66647">
        <ele>1641</ele>
        <time>2021-08-07T09:11:42.660Z</time>
      </trkpt>
      <trkpt lat="46.91066" lon="8.66647">
        <ele>1641</ele>
        <time>2021-08-07T09:11:43.661Z</time>
      </trkpt>
      <trkpt lat="46.91066" lon="8.66647">
        <ele>1641</ele>
        <time>2021-08-07T09:11:44.660Z</time>
      </trkpt>
      <trkpt lat="46.91066" lon="8.66647">
        <ele>1640</ele>
        <time>2021-08-07T09:11:45.661Z</time>
      </trkpt>
      <trkpt lat="46.91067" lon="8.66647">
        <ele>1640</ele>
        <time>2021-08-07T09:11:46.661Z</time>
      </trkpt>
      <trkpt lat="46.91068" lon="8.66647">
        <ele>1640</ele>
        <time>2021-08-07T09:11:47.661Z</time>
      </trkpt>
      <trkpt lat="46.9107" lon="8.66648">
        <ele>1639</ele>
        <time>2021-08-07T09:11:48.661Z</time>
      </trkpt>
      <trkpt lat="46.91071" lon="8.66648">
        <ele>1638</ele>
        <time>2021-08-07T09:11:49.660Z</time>
      </trkpt>
      <trkpt lat="46.91073" lon="8.66648">
        <ele>1638</ele>
        <time>2021-08-07T09:11:50.661Z</time>
      </trkpt>
      <trkpt lat="46.91074" lon="8.66648">
        <ele>1637</ele>
        <time>2021-08-07T09:11:51.661Z</time>
      </trkpt>
      <trkpt lat="46.91075" lon="8.66648">
        <ele>1637</ele>
        <time>2021-08-07T09:11:52.660Z</time>
      </trkpt>
      <trkpt lat="46.91076" lon="8.66649">
        <ele>1636</ele>
        <time>2021-08-07T09:11:53.660Z</time>
      </trkpt>
      <trkpt lat="46.91077" lon="8.66649">
        <ele>1636</ele>
        <time>2021-08-07T09:11:54.661Z</time>
      </trkpt>
      <trkpt lat="46.91078" lon="8.66649">
        <ele>1636</ele>
        <time>2021-08-07T09:11:55.661Z</time>
      </trkpt>
      <trkpt lat="46.91079" lon="8.66649">
        <ele>1635</ele>
        <time>2021-08-07T09:11:56.660Z</time>
      </trkpt>
      <trkpt lat="46.9108" lon="8.66649">
        <ele>1635</ele>
        <time>2021-08-07T09:11:57.661Z</time>
      </trkpt>
      <trkpt lat="46.91082" lon="8.6665">
        <ele>1635</ele>
        <time>2021-08-07T09:11:58.661Z</time>
      </trkpt>
      <trkpt lat="46.91083" lon="8.6665">
        <ele>1635</ele>
        <time>2021-08-07T09:11:59.660Z</time>
      </trkpt>
      <trkpt lat="46.91085" lon="8.66651">
        <ele>1634</ele>
        <time>2021-08-07T09:12:00.661Z</time>
      </trkpt>
      <trkpt lat="46.91085" lon="8.66651">
        <ele>1634</ele>
        <time>2021-08-07T09:12:13.706Z</time>
      </trkpt>
      <trkpt lat="46.91086" lon="8.66651">
        <ele>1634</ele>
        <time>2021-08-07T09:12:19.508Z</time>
      </trkpt>
      <trkpt lat="46.91086" lon="8.66651">
        <ele>1634</ele>
        <time>2021-08-07T09:12:20.508Z</time>
      </trkpt>
      <trkpt lat="46.91086" lon="8.66651">
        <ele>1634</ele>
        <time>2021-08-07T09:12:21.508Z</time>
      </trkpt>
      <trkpt lat="46.91087" lon="8.66651">
        <ele>1634</ele>
        <time>2021-08-07T09:12:22.508Z</time>
      </trkpt>
      <trkpt lat="46.91088" lon="8.66651">
        <ele>1634</ele>
        <time>2021-08-07T09:12:23.509Z</time>
      </trkpt>
      <trkpt lat="46.91089" lon="8.6665">
        <ele>1633</ele>
        <time>2021-08-07T09:12:35.662Z</time>
      </trkpt>
      <trkpt lat="46.91089" lon="8.6665">
        <ele>1633</ele>
        <time>2021-08-07T09:12:36.662Z</time>
      </trkpt>
      <trkpt lat="46.9109" lon="8.6665">
        <ele>1633</ele>
        <time>2021-08-07T09:12:51.505Z</time>
      </trkpt>
      <trkpt lat="46.91091" lon="8.66649">
        <ele>1633</ele>
        <time>2021-08-07T09:12:52.504Z</time>
      </trkpt>
      <trkpt lat="46.91092" lon="8.66649">
        <ele>1633</ele>
        <time>2021-08-07T09:12:53.505Z</time>
      </trkpt>
      <trkpt lat="46.91093" lon="8.66649">
        <ele>1633</ele>
        <time>2021-08-07T09:12:54.504Z</time>
      </trkpt>
      <trkpt lat="46.91094" lon="8.66649">
        <ele>1633</ele>
        <time>2021-08-07T09:13:01.549Z</time>
      </trkpt>
      <trkpt lat="46.91095" lon="8.66649">
        <ele>1633</ele>
        <time>2021-08-07T09:13:02.549Z</time>
      </trkpt>
      <trkpt lat="46.91095" lon="8.66648">
        <ele>1633</ele>
        <time>2021-08-07T09:13:03.549Z</time>
      </trkpt>
      <trkpt lat="46.91095" lon="8.66648">
        <ele>1633</ele>
        <time>2021-08-07T09:13:04.549Z</time>
      </trkpt>
      <trkpt lat="46.91096" lon="8.66648">
        <ele>1633</ele>
        <time>2021-08-07T09:13:05.548Z</time>
      </trkpt>
      <trkpt lat="46.91097" lon="8.66648">
        <ele>1633</ele>
        <time>2021-08-07T09:13:10.650Z</time>
      </trkpt>
      <trkpt lat="46.91098" lon="8.66648">
        <ele>1632</ele>
        <time>2021-08-07T09:13:16.499Z</time>
      </trkpt>
      <trkpt lat="46.91099" lon="8.66648">
        <ele>1632</ele>
        <time>2021-08-07T09:13:17.500Z</time>
      </trkpt>
      <trkpt lat="46.911" lon="8.66648">
        <ele>1632</ele>
        <time>2021-08-07T09:13:22.374Z</time>
      </trkpt>
      <trkpt lat="46.911" lon="8.66649">
        <ele>1632</ele>
        <time>2021-08-07T09:13:23.374Z</time>
      </trkpt>
      <trkpt lat="46.91102" lon="8.66649">
        <ele>1632</ele>
        <time>2021-08-07T09:13:33.161Z</time>
      </trkpt>
      <trkpt lat="46.91103" lon="8.66648">
        <ele>1632</ele>
        <time>2021-08-07T09:13:36.004Z</time>
      </trkpt>
      <trkpt lat="46.91104" lon="8.66648">
        <ele>1632</ele>
        <time>2021-08-07T09:13:37.003Z</time>
      </trkpt>
      <trkpt lat="46.91105" lon="8.66647">
        <ele>1632</ele>
        <time>2021-08-07T09:13:38.003Z</time>
      </trkpt>
      <trkpt lat="46.91106" lon="8.66647">
        <ele>1632</ele>
        <time>2021-08-07T09:13:39.003Z</time>
      </trkpt>
      <trkpt lat="46.91107" lon="8.66647">
        <ele>1632</ele>
        <time>2021-08-07T09:13:40.003Z</time>
      </trkpt>
      <trkpt lat="46.91109" lon="8.66647">
        <ele>1632</ele>
        <time>2021-08-07T09:13:41.004Z</time>
      </trkpt>
      <trkpt lat="46.9111" lon="8.66647">
        <ele>1631</ele>
        <time>2021-08-07T09:13:42.004Z</time>
      </trkpt>
      <trkpt lat="46.91111" lon="8.66647">
        <ele>1631</ele>
        <time>2021-08-07T09:13:43.003Z</time>
      </trkpt>
      <trkpt lat="46.91112" lon="8.66646">
        <ele>1631</ele>
        <time>2021-08-07T09:13:44.004Z</time>
      </trkpt>
      <trkpt lat="46.91113" lon="8.66646">
        <ele>1631</ele>
        <time>2021-08-07T09:13:45.004Z</time>
      </trkpt>
      <trkpt lat="46.91114" lon="8.66645">
        <ele>1631</ele>
        <time>2021-08-07T09:13:46.004Z</time>
      </trkpt>
      <trkpt lat="46.91115" lon="8.66645">
        <ele>1631</ele>
        <time>2021-08-07T09:13:47.004Z</time>
      </trkpt>
      <trkpt lat="46.91116" lon="8.66645">
        <ele>1630</ele>
        <time>2021-08-07T09:13:48.003Z</time>
      </trkpt>
      <trkpt lat="46.91117" lon="8.66644">
        <ele>1630</ele>
        <time>2021-08-07T09:13:49.004Z</time>
      </trkpt>
      <trkpt lat="46.91118" lon="8.66643">
        <ele>1630</ele>
        <time>2021-08-07T09:13:50.003Z</time>
      </trkpt>
      <trkpt lat="46.91119" lon="8.66642">
        <ele>1629</ele>
        <time>2021-08-07T09:13:51.004Z</time>
      </trkpt>
      <trkpt lat="46.91119" lon="8.66642">
        <ele>1629</ele>
        <time>2021-08-07T09:13:52.004Z</time>
      </trkpt>
      <trkpt lat="46.91119" lon="8.6664">
        <ele>1629</ele>
        <time>2021-08-07T09:13:53.004Z</time>
      </trkpt>
      <trkpt lat="46.91119" lon="8.66639">
        <ele>1628</ele>
        <time>2021-08-07T09:13:54.003Z</time>
      </trkpt>
      <trkpt lat="46.91119" lon="8.66637">
        <ele>1628</ele>
        <time>2021-08-07T09:13:55.004Z</time>
      </trkpt>
      <trkpt lat="46.91119" lon="8.66636">
        <ele>1628</ele>
        <time>2021-08-07T09:13:56.004Z</time>
      </trkpt>
      <trkpt lat="46.9112" lon="8.66634">
        <ele>1628</ele>
        <time>2021-08-07T09:13:57.003Z</time>
      </trkpt>
      <trkpt lat="46.9112" lon="8.66634">
        <ele>1628</ele>
        <time>2021-08-07T09:13:58.003Z</time>
      </trkpt>
      <trkpt lat="46.91121" lon="8.66633">
        <ele>1628</ele>
        <time>2021-08-07T09:13:59.003Z</time>
      </trkpt>
      <trkpt lat="46.9112" lon="8.66633">
        <ele>1628</ele>
        <time>2021-08-07T09:14:00.004Z</time>
      </trkpt>
      <trkpt lat="46.9112" lon="8.66632">
        <ele>1628</ele>
        <time>2021-08-07T09:14:01.004Z</time>
      </trkpt>
      <trkpt lat="46.9112" lon="8.66631">
        <ele>1629</ele>
        <time>2021-08-07T09:14:02.004Z</time>
      </trkpt>
      <trkpt lat="46.91121" lon="8.66631">
        <ele>1629</ele>
        <time>2021-08-07T09:14:03.003Z</time>
      </trkpt>
      <trkpt lat="46.91121" lon="8.6663">
        <ele>1629</ele>
        <time>2021-08-07T09:14:04.004Z</time>
      </trkpt>
      <trkpt lat="46.91122" lon="8.66629">
        <ele>1629</ele>
        <time>2021-08-07T09:14:05.004Z</time>
      </trkpt>
      <trkpt lat="46.91123" lon="8.66628">
        <ele>1629</ele>
        <time>2021-08-07T09:14:06.004Z</time>
      </trkpt>
      <trkpt lat="46.91123" lon="8.66628">
        <ele>1630</ele>
        <time>2021-08-07T09:14:07.004Z</time>
      </trkpt>
      <trkpt lat="46.91123" lon="8.66627">
        <ele>1630</ele>
        <time>2021-08-07T09:14:08.004Z</time>
      </trkpt>
      <trkpt lat="46.91124" lon="8.66627">
        <ele>1629</ele>
        <time>2021-08-07T09:14:09.004Z</time>
      </trkpt>
      <trkpt lat="46.91125" lon="8.66627">
        <ele>1629</ele>
        <time>2021-08-07T09:14:10.004Z</time>
      </trkpt>
      <trkpt lat="46.91126" lon="8.66628">
        <ele>1629</ele>
        <time>2021-08-07T09:14:11.004Z</time>
      </trkpt>
      <trkpt lat="46.91126" lon="8.66628">
        <ele>1629</ele>
        <time>2021-08-07T09:14:12.004Z</time>
      </trkpt>
      <trkpt lat="46.91127" lon="8.66628">
        <ele>1629</ele>
        <time>2021-08-07T09:14:13.003Z</time>
      </trkpt>
      <trkpt lat="46.91127" lon="8.66627">
        <ele>1629</ele>
        <time>2021-08-07T09:14:14.004Z</time>
      </trkpt>
      <trkpt lat="46.91128" lon="8.66627">
        <ele>1629</ele>
        <time>2021-08-07T09:14:15.003Z</time>
      </trkpt>
      <trkpt lat="46.91129" lon="8.66627">
        <ele>1629</ele>
        <time>2021-08-07T09:14:16.003Z</time>
      </trkpt>
      <trkpt lat="46.9113" lon="8.66628">
        <ele>1629</ele>
        <time>2021-08-07T09:14:17.004Z</time>
      </trkpt>
      <trkpt lat="46.91131" lon="8.66626">
        <ele>1629</ele>
        <time>2021-08-07T09:14:18.003Z</time>
      </trkpt>
      <trkpt lat="46.91133" lon="8.66625">
        <ele>1629</ele>
        <time>2021-08-07T09:14:19.004Z</time>
      </trkpt>
      <trkpt lat="46.91134" lon="8.66625">
        <ele>1629</ele>
        <time>2021-08-07T09:14:20.003Z</time>
      </trkpt>
      <trkpt lat="46.91134" lon="8.66625">
        <ele>1629</ele>
        <time>2021-08-07T09:14:21.004Z</time>
      </trkpt>
      <trkpt lat="46.91134" lon="8.66625">
        <ele>1629</ele>
        <time>2021-08-07T09:14:22.003Z</time>
      </trkpt>
      <trkpt lat="46.91135" lon="8.66624">
        <ele>1629</ele>
        <time>2021-08-07T09:14:23.003Z</time>
      </trkpt>
      <trkpt lat="46.91135" lon="8.66622">
        <ele>1629</ele>
        <time>2021-08-07T09:14:24.004Z</time>
      </trkpt>
      <trkpt lat="46.91134" lon="8.66621">
        <ele>1629</ele>
        <time>2021-08-07T09:14:25.003Z</time>
      </trkpt>
      <trkpt lat="46.91134" lon="8.6662">
        <ele>1630</ele>
        <time>2021-08-07T09:14:26.003Z</time>
      </trkpt>
      <trkpt lat="46.91135" lon="8.66618">
        <ele>1630</ele>
        <time>2021-08-07T09:14:27.003Z</time>
      </trkpt>
      <trkpt lat="46.91136" lon="8.66617">
        <ele>1630</ele>
        <time>2021-08-07T09:14:28.003Z</time>
      </trkpt>
      <trkpt lat="46.91137" lon="8.66617">
        <ele>1630</ele>
        <time>2021-08-07T09:14:29.003Z</time>
      </trkpt>
      <trkpt lat="46.91138" lon="8.66616">
        <ele>1630</ele>
        <time>2021-08-07T09:14:30.004Z</time>
      </trkpt>
      <trkpt lat="46.91139" lon="8.66616">
        <ele>1630</ele>
        <time>2021-08-07T09:14:31.003Z</time>
      </trkpt>
      <trkpt lat="46.91139" lon="8.66616">
        <ele>1630</ele>
        <time>2021-08-07T09:14:32.004Z</time>
      </trkpt>
      <trkpt lat="46.9114" lon="8.66616">
        <ele>1631</ele>
        <time>2021-08-07T09:14:33.003Z</time>
      </trkpt>
      <trkpt lat="46.91141" lon="8.66616">
        <ele>1631</ele>
        <time>2021-08-07T09:14:34.004Z</time>
      </trkpt>
      <trkpt lat="46.91142" lon="8.66616">
        <ele>1631</ele>
        <time>2021-08-07T09:14:35.004Z</time>
      </trkpt>
      <trkpt lat="46.91143" lon="8.66616">
        <ele>1631</ele>
        <time>2021-08-07T09:14:36.003Z</time>
      </trkpt>
      <trkpt lat="46.91144" lon="8.66616">
        <ele>1632</ele>
        <time>2021-08-07T09:14:37.004Z</time>
      </trkpt>
      <trkpt lat="46.91145" lon="8.66616">
        <ele>1632</ele>
        <time>2021-08-07T09:14:38.003Z</time>
      </trkpt>
      <trkpt lat="46.91146" lon="8.66616">
        <ele>1632</ele>
        <time>2021-08-07T09:14:39.004Z</time>
      </trkpt>
      <trkpt lat="46.91147" lon="8.66616">
        <ele>1632</ele>
        <time>2021-08-07T09:14:40.004Z</time>
      </trkpt>
      <trkpt lat="46.91149" lon="8.66616">
        <ele>1632</ele>
        <time>2021-08-07T09:14:41.004Z</time>
      </trkpt>
      <trkpt lat="46.9115" lon="8.66615">
        <ele>1632</ele>
        <time>2021-08-07T09:14:42.004Z</time>
      </trkpt>
      <trkpt lat="46.91151" lon="8.66615">
        <ele>1632</ele>
        <time>2021-08-07T09:14:43.003Z</time>
      </trkpt>
      <trkpt lat="46.91152" lon="8.66615">
        <ele>1632</ele>
        <time>2021-08-07T09:14:44.003Z</time>
      </trkpt>
      <trkpt lat="46.91153" lon="8.66614">
        <ele>1632</ele>
        <time>2021-08-07T09:14:45.004Z</time>
      </trkpt>
      <trkpt lat="46.91153" lon="8.66614">
        <ele>1632</ele>
        <time>2021-08-07T09:14:46.003Z</time>
      </trkpt>
      <trkpt lat="46.91154" lon="8.66614">
        <ele>1632</ele>
        <time>2021-08-07T09:14:47.004Z</time>
      </trkpt>
      <trkpt lat="46.91155" lon="8.66614">
        <ele>1632</ele>
        <time>2021-08-07T09:14:48.003Z</time>
      </trkpt>
      <trkpt lat="46.91156" lon="8.66614">
        <ele>1631</ele>
        <time>2021-08-07T09:14:49.004Z</time>
      </trkpt>
      <trkpt lat="46.91157" lon="8.66615">
        <ele>1631</ele>
        <time>2021-08-07T09:14:50.004Z</time>
      </trkpt>
      <trkpt lat="46.91158" lon="8.66613">
        <ele>1631</ele>
        <time>2021-08-07T09:14:51.003Z</time>
      </trkpt>
      <trkpt lat="46.91158" lon="8.66612">
        <ele>1631</ele>
        <time>2021-08-07T09:14:52.004Z</time>
      </trkpt>
      <trkpt lat="46.91158" lon="8.66611">
        <ele>1631</ele>
        <time>2021-08-07T09:14:53.003Z</time>
      </trkpt>
      <trkpt lat="46.91154" lon="8.6661">
        <ele>1632</ele>
        <time>2021-08-07T09:14:54.004Z</time>
      </trkpt>
      <trkpt lat="46.91154" lon="8.66608">
        <ele>1632</ele>
        <time>2021-08-07T09:14:55.004Z</time>
      </trkpt>
      <trkpt lat="46.91154" lon="8.66607">
        <ele>1632</ele>
        <time>2021-08-07T09:14:56.003Z</time>
      </trkpt>
      <trkpt lat="46.91154" lon="8.66606">
        <ele>1633</ele>
        <time>2021-08-07T09:14:57.003Z</time>
      </trkpt>
      <trkpt lat="46.91155" lon="8.66606">
        <ele>1633</ele>
        <time>2021-08-07T09:14:58.003Z</time>
      </trkpt>
      <trkpt lat="46.91156" lon="8.66607">
        <ele>1634</ele>
        <time>2021-08-07T09:14:59.003Z</time>
      </trkpt>
      <trkpt lat="46.91157" lon="8.66607">
        <ele>1634</ele>
        <time>2021-08-07T09:15:00.003Z</time>
      </trkpt>
      <trkpt lat="46.91158" lon="8.66608">
        <ele>1635</ele>
        <time>2021-08-07T09:15:01.003Z</time>
      </trkpt>
      <trkpt lat="46.91159" lon="8.66608">
        <ele>1635</ele>
        <time>2021-08-07T09:15:02.003Z</time>
      </trkpt>
      <trkpt lat="46.91159" lon="8.66609">
        <ele>1636</ele>
        <time>2021-08-07T09:15:03.003Z</time>
      </trkpt>
      <trkpt lat="46.9116" lon="8.66609">
        <ele>1636</ele>
        <time>2021-08-07T09:15:04.003Z</time>
      </trkpt>
      <trkpt lat="46.91161" lon="8.66609">
        <ele>1636</ele>
        <time>2021-08-07T09:15:05.003Z</time>
      </trkpt>
      <trkpt lat="46.91163" lon="8.66609">
        <ele>1637</ele>
        <time>2021-08-07T09:15:06.003Z</time>
      </trkpt>
      <trkpt lat="46.91164" lon="8.6661">
        <ele>1637</ele>
        <time>2021-08-07T09:15:07.003Z</time>
      </trkpt>
      <trkpt lat="46.91165" lon="8.6661">
        <ele>1637</ele>
        <time>2021-08-07T09:15:08.004Z</time>
      </trkpt>
      <trkpt lat="46.91166" lon="8.66611">
        <ele>1637</ele>
        <time>2021-08-07T09:15:09.003Z</time>
      </trkpt>
      <trkpt lat="46.91167" lon="8.66612">
        <ele>1638</ele>
        <time>2021-08-07T09:15:10.003Z</time>
      </trkpt>
      <trkpt lat="46.91168" lon="8.66612">
        <ele>1638</ele>
        <time>2021-08-07T09:15:11.004Z</time>
      </trkpt>
      <trkpt lat="46.91169" lon="8.66613">
        <ele>1638</ele>
        <time>2021-08-07T09:15:12.004Z</time>
      </trkpt>
      <trkpt lat="46.9117" lon="8.66615">
        <ele>1638</ele>
        <time>2021-08-07T09:15:13.003Z</time>
      </trkpt>
      <trkpt lat="46.9117" lon="8.66617">
        <ele>1639</ele>
        <time>2021-08-07T09:15:14.004Z</time>
      </trkpt>
      <trkpt lat="46.91172" lon="8.66619">
        <ele>1639</ele>
        <time>2021-08-07T09:15:15.003Z</time>
      </trkpt>
      <trkpt lat="46.91174" lon="8.66621">
        <ele>1639</ele>
        <time>2021-08-07T09:15:16.003Z</time>
      </trkpt>
      <trkpt lat="46.91175" lon="8.66623">
        <ele>1639</ele>
        <time>2021-08-07T09:15:17.004Z</time>
      </trkpt>
      <trkpt lat="46.91177" lon="8.66624">
        <ele>1638</ele>
        <time>2021-08-07T09:15:18.003Z</time>
      </trkpt>
      <trkpt lat="46.91178" lon="8.66624">
        <ele>1638</ele>
        <time>2021-08-07T09:15:19.003Z</time>
      </trkpt>
      <trkpt lat="46.9118" lon="8.66624">
        <ele>1638</ele>
        <time>2021-08-07T09:15:20.003Z</time>
      </trkpt>
      <trkpt lat="46.9118" lon="8.66624">
        <ele>1637</ele>
        <time>2021-08-07T09:15:21.004Z</time>
      </trkpt>
      <trkpt lat="46.91181" lon="8.66623">
        <ele>1637</ele>
        <time>2021-08-07T09:15:22.004Z</time>
      </trkpt>
      <trkpt lat="46.91182" lon="8.66623">
        <ele>1637</ele>
        <time>2021-08-07T09:15:23.004Z</time>
      </trkpt>
      <trkpt lat="46.91183" lon="8.66623">
        <ele>1636</ele>
        <time>2021-08-07T09:15:24.003Z</time>
      </trkpt>
      <trkpt lat="46.91184" lon="8.66623">
        <ele>1636</ele>
        <time>2021-08-07T09:15:25.003Z</time>
      </trkpt>
      <trkpt lat="46.91185" lon="8.66623">
        <ele>1636</ele>
        <time>2021-08-07T09:15:26.003Z</time>
      </trkpt>
      <trkpt lat="46.91185" lon="8.66622">
        <ele>1636</ele>
        <time>2021-08-07T09:15:27.004Z</time>
      </trkpt>
      <trkpt lat="46.91186" lon="8.66622">
        <ele>1636</ele>
        <time>2021-08-07T09:15:28.003Z</time>
      </trkpt>
      <trkpt lat="46.91187" lon="8.66622">
        <ele>1636</ele>
        <time>2021-08-07T09:15:29.003Z</time>
      </trkpt>
      <trkpt lat="46.91188" lon="8.66621">
        <ele>1636</ele>
        <time>2021-08-07T09:15:30.003Z</time>
      </trkpt>
      <trkpt lat="46.9119" lon="8.66621">
        <ele>1636</ele>
        <time>2021-08-07T09:15:31.003Z</time>
      </trkpt>
      <trkpt lat="46.91191" lon="8.66621">
        <ele>1635</ele>
        <time>2021-08-07T09:15:32.004Z</time>
      </trkpt>
      <trkpt lat="46.91193" lon="8.66621">
        <ele>1635</ele>
        <time>2021-08-07T09:15:33.003Z</time>
      </trkpt>
      <trkpt lat="46.91195" lon="8.66621">
        <ele>1635</ele>
        <time>2021-08-07T09:15:34.003Z</time>
      </trkpt>
      <trkpt lat="46.91196" lon="8.66621">
        <ele>1635</ele>
        <time>2021-08-07T09:15:35.003Z</time>
      </trkpt>
      <trkpt lat="46.91197" lon="8.66621">
        <ele>1635</ele>
        <time>2021-08-07T09:15:36.004Z</time>
      </trkpt>
      <trkpt lat="46.91198" lon="8.66621">
        <ele>1635</ele>
        <time>2021-08-07T09:15:37.003Z</time>
      </trkpt>
      <trkpt lat="46.91199" lon="8.66621">
        <ele>1635</ele>
        <time>2021-08-07T09:15:38.003Z</time>
      </trkpt>
      <trkpt lat="46.91199" lon="8.6662">
        <ele>1635</ele>
        <time>2021-08-07T09:15:39.003Z</time>
      </trkpt>
      <trkpt lat="46.91199" lon="8.66619">
        <ele>1634</ele>
        <time>2021-08-07T09:15:40.003Z</time>
      </trkpt>
      <trkpt lat="46.91199" lon="8.66619">
        <ele>1634</ele>
        <time>2021-08-07T09:15:41.003Z</time>
      </trkpt>
      <trkpt lat="46.912" lon="8.66618">
        <ele>1634</ele>
        <time>2021-08-07T09:15:42.003Z</time>
      </trkpt>
      <trkpt lat="46.912" lon="8.66617">
        <ele>1634</ele>
        <time>2021-08-07T09:15:43.004Z</time>
      </trkpt>
      <trkpt lat="46.91201" lon="8.66617">
        <ele>1634</ele>
        <time>2021-08-07T09:15:44.003Z</time>
      </trkpt>
      <trkpt lat="46.91202" lon="8.66617">
        <ele>1634</ele>
        <time>2021-08-07T09:15:45.003Z</time>
      </trkpt>
      <trkpt lat="46.91203" lon="8.66617">
        <ele>1634</ele>
        <time>2021-08-07T09:15:46.004Z</time>
      </trkpt>
      <trkpt lat="46.91204" lon="8.66617">
        <ele>1633</ele>
        <time>2021-08-07T09:15:47.004Z</time>
      </trkpt>
      <trkpt lat="46.91205" lon="8.66617">
        <ele>1633</ele>
        <time>2021-08-07T09:15:48.003Z</time>
      </trkpt>
      <trkpt lat="46.91206" lon="8.66616">
        <ele>1633</ele>
        <time>2021-08-07T09:15:49.003Z</time>
      </trkpt>
      <trkpt lat="46.91207" lon="8.66616">
        <ele>1633</ele>
        <time>2021-08-07T09:15:50.003Z</time>
      </trkpt>
      <trkpt lat="46.91207" lon="8.66616">
        <ele>1633</ele>
        <time>2021-08-07T09:15:51.003Z</time>
      </trkpt>
      <trkpt lat="46.91208" lon="8.66617">
        <ele>1633</ele>
        <time>2021-08-07T09:15:52.003Z</time>
      </trkpt>
      <trkpt lat="46.91209" lon="8.66617">
        <ele>1633</ele>
        <time>2021-08-07T09:15:53.003Z</time>
      </trkpt>
      <trkpt lat="46.9121" lon="8.66617">
        <ele>1633</ele>
        <time>2021-08-07T09:15:54.003Z</time>
      </trkpt>
      <trkpt lat="46.91211" lon="8.66617">
        <ele>1633</ele>
        <time>2021-08-07T09:15:55.004Z</time>
      </trkpt>
      <trkpt lat="46.91212" lon="8.66618">
        <ele>1633</ele>
        <time>2021-08-07T09:15:56.004Z</time>
      </trkpt>
      <trkpt lat="46.91213" lon="8.66618">
        <ele>1633</ele>
        <time>2021-08-07T09:15:57.004Z</time>
      </trkpt>
      <trkpt lat="46.91214" lon="8.66617">
        <ele>1633</ele>
        <time>2021-08-07T09:15:58.004Z</time>
      </trkpt>
      <trkpt lat="46.91215" lon="8.66616">
        <ele>1634</ele>
        <time>2021-08-07T09:15:59.003Z</time>
      </trkpt>
      <trkpt lat="46.91216" lon="8.66614">
        <ele>1634</ele>
        <time>2021-08-07T09:16:00.003Z</time>
      </trkpt>
      <trkpt lat="46.91218" lon="8.66612">
        <ele>1634</ele>
        <time>2021-08-07T09:16:01.004Z</time>
      </trkpt>
      <trkpt lat="46.91219" lon="8.66611">
        <ele>1634</ele>
        <time>2021-08-07T09:16:02.004Z</time>
      </trkpt>
      <trkpt lat="46.9122" lon="8.6661">
        <ele>1634</ele>
        <time>2021-08-07T09:16:03.004Z</time>
      </trkpt>
      <trkpt lat="46.9122" lon="8.66609">
        <ele>1634</ele>
        <time>2021-08-07T09:16:04.004Z</time>
      </trkpt>
      <trkpt lat="46.91221" lon="8.66608">
        <ele>1634</ele>
        <time>2021-08-07T09:16:05.004Z</time>
      </trkpt>
      <trkpt lat="46.91222" lon="8.66607">
        <ele>1633</ele>
        <time>2021-08-07T09:16:06.004Z</time>
      </trkpt>
      <trkpt lat="46.91223" lon="8.66606">
        <ele>1633</ele>
        <time>2021-08-07T09:16:07.004Z</time>
      </trkpt>
      <trkpt lat="46.91223" lon="8.66606">
        <ele>1633</ele>
        <time>2021-08-07T09:16:08.003Z</time>
      </trkpt>
      <trkpt lat="46.91224" lon="8.66605">
        <ele>1634</ele>
        <time>2021-08-07T09:16:09.004Z</time>
      </trkpt>
      <trkpt lat="46.91224" lon="8.66604">
        <ele>1634</ele>
        <time>2021-08-07T09:16:10.004Z</time>
      </trkpt>
      <trkpt lat="46.91225" lon="8.66603">
        <ele>1634</ele>
        <time>2021-08-07T09:16:11.004Z</time>
      </trkpt>
      <trkpt lat="46.91226" lon="8.66602">
        <ele>1635</ele>
        <time>2021-08-07T09:16:12.004Z</time>
      </trkpt>
      <trkpt lat="46.91227" lon="8.66601">
        <ele>1636</ele>
        <time>2021-08-07T09:16:13.003Z</time>
      </trkpt>
      <trkpt lat="46.91228" lon="8.666">
        <ele>1636</ele>
        <time>2021-08-07T09:16:14.004Z</time>
      </trkpt>
      <trkpt lat="46.91229" lon="8.66599">
        <ele>1637</ele>
        <time>2021-08-07T09:16:15.004Z</time>
      </trkpt>
      <trkpt lat="46.91231" lon="8.66598">
        <ele>1637</ele>
        <time>2021-08-07T09:16:16.004Z</time>
      </trkpt>
      <trkpt lat="46.91232" lon="8.66597">
        <ele>1637</ele>
        <time>2021-08-07T09:16:17.004Z</time>
      </trkpt>
      <trkpt lat="46.91232" lon="8.66597">
        <ele>1637</ele>
        <time>2021-08-07T09:16:18.003Z</time>
      </trkpt>
      <trkpt lat="46.91233" lon="8.66596">
        <ele>1638</ele>
        <time>2021-08-07T09:16:19.004Z</time>
      </trkpt>
      <trkpt lat="46.91234" lon="8.66595">
        <ele>1638</ele>
        <time>2021-08-07T09:16:20.004Z</time>
      </trkpt>
      <trkpt lat="46.91235" lon="8.66595">
        <ele>1638</ele>
        <time>2021-08-07T09:16:21.003Z</time>
      </trkpt>
      <trkpt lat="46.91236" lon="8.66594">
        <ele>1639</ele>
        <time>2021-08-07T09:16:22.003Z</time>
      </trkpt>
      <trkpt lat="46.91237" lon="8.66593">
        <ele>1639</ele>
        <time>2021-08-07T09:16:23.004Z</time>
      </trkpt>
      <trkpt lat="46.91238" lon="8.66592">
        <ele>1639</ele>
        <time>2021-08-07T09:16:24.003Z</time>
      </trkpt>
      <trkpt lat="46.91239" lon="8.66592">
        <ele>1639</ele>
        <time>2021-08-07T09:16:25.004Z</time>
      </trkpt>
      <trkpt lat="46.9124" lon="8.66592">
        <ele>1639</ele>
        <time>2021-08-07T09:16:26.004Z</time>
      </trkpt>
      <trkpt lat="46.91241" lon="8.66592">
        <ele>1639</ele>
        <time>2021-08-07T09:16:27.004Z</time>
      </trkpt>
      <trkpt lat="46.91242" lon="8.66592">
        <ele>1638</ele>
        <time>2021-08-07T09:16:28.004Z</time>
      </trkpt>
      <trkpt lat="46.91243" lon="8.66592">
        <ele>1638</ele>
        <time>2021-08-07T09:16:29.004Z</time>
      </trkpt>
      <trkpt lat="46.91244" lon="8.66592">
        <ele>1638</ele>
        <time>2021-08-07T09:16:30.004Z</time>
      </trkpt>
      <trkpt lat="46.91246" lon="8.66591">
        <ele>1638</ele>
        <time>2021-08-07T09:16:31.004Z</time>
      </trkpt>
      <trkpt lat="46.91246" lon="8.6659">
        <ele>1637</ele>
        <time>2021-08-07T09:16:32.003Z</time>
      </trkpt>
      <trkpt lat="46.91247" lon="8.6659">
        <ele>1637</ele>
        <time>2021-08-07T09:16:33.004Z</time>
      </trkpt>
      <trkpt lat="46.91248" lon="8.66589">
        <ele>1637</ele>
        <time>2021-08-07T09:16:34.003Z</time>
      </trkpt>
      <trkpt lat="46.91249" lon="8.6659">
        <ele>1637</ele>
        <time>2021-08-07T09:16:35.003Z</time>
      </trkpt>
      <trkpt lat="46.9125" lon="8.6659">
        <ele>1636</ele>
        <time>2021-08-07T09:16:36.004Z</time>
      </trkpt>
      <trkpt lat="46.91251" lon="8.66591">
        <ele>1636</ele>
        <time>2021-08-07T09:16:37.003Z</time>
      </trkpt>
      <trkpt lat="46.91251" lon="8.66592">
        <ele>1636</ele>
        <time>2021-08-07T09:16:38.004Z</time>
      </trkpt>
      <trkpt lat="46.91252" lon="8.66593">
        <ele>1635</ele>
        <time>2021-08-07T09:16:39.004Z</time>
      </trkpt>
      <trkpt lat="46.91253" lon="8.66593">
        <ele>1635</ele>
        <time>2021-08-07T09:16:40.004Z</time>
      </trkpt>
      <trkpt lat="46.91254" lon="8.66592">
        <ele>1635</ele>
        <time>2021-08-07T09:16:41.004Z</time>
      </trkpt>
      <trkpt lat="46.91256" lon="8.66591">
        <ele>1635</ele>
        <time>2021-08-07T09:16:42.004Z</time>
      </trkpt>
      <trkpt lat="46.91257" lon="8.66591">
        <ele>1635</ele>
        <time>2021-08-07T09:16:43.004Z</time>
      </trkpt>
      <trkpt lat="46.91258" lon="8.6659">
        <ele>1634</ele>
        <time>2021-08-07T09:16:44.004Z</time>
      </trkpt>
      <trkpt lat="46.91259" lon="8.6659">
        <ele>1634</ele>
        <time>2021-08-07T09:16:45.004Z</time>
      </trkpt>
      <trkpt lat="46.9126" lon="8.6659">
        <ele>1633</ele>
        <time>2021-08-07T09:16:46.004Z</time>
      </trkpt>
      <trkpt lat="46.91261" lon="8.66589">
        <ele>1633</ele>
        <time>2021-08-07T09:16:47.003Z</time>
      </trkpt>
      <trkpt lat="46.91262" lon="8.66589">
        <ele>1632</ele>
        <time>2021-08-07T09:16:48.004Z</time>
      </trkpt>
      <trkpt lat="46.91263" lon="8.66589">
        <ele>1632</ele>
        <time>2021-08-07T09:16:49.004Z</time>
      </trkpt>
      <trkpt lat="46.91265" lon="8.66589">
        <ele>1632</ele>
        <time>2021-08-07T09:16:50.004Z</time>
      </trkpt>
      <trkpt lat="46.91266" lon="8.66588">
        <ele>1631</ele>
        <time>2021-08-07T09:16:51.004Z</time>
      </trkpt>
      <trkpt lat="46.91267" lon="8.66588">
        <ele>1631</ele>
        <time>2021-08-07T09:16:52.004Z</time>
      </trkpt>
      <trkpt lat="46.91267" lon="8.66588">
        <ele>1631</ele>
        <time>2021-08-07T09:16:53.004Z</time>
      </trkpt>
      <trkpt lat="46.91269" lon="8.66588">
        <ele>1631</ele>
        <time>2021-08-07T09:16:54.004Z</time>
      </trkpt>
      <trkpt lat="46.9127" lon="8.66588">
        <ele>1630</ele>
        <time>2021-08-07T09:16:55.004Z</time>
      </trkpt>
      <trkpt lat="46.91271" lon="8.66588">
        <ele>1630</ele>
        <time>2021-08-07T09:16:56.003Z</time>
      </trkpt>
      <trkpt lat="46.91272" lon="8.66588">
        <ele>1630</ele>
        <time>2021-08-07T09:16:57.003Z</time>
      </trkpt>
      <trkpt lat="46.91273" lon="8.66588">
        <ele>1630</ele>
        <time>2021-08-07T09:16:58.004Z</time>
      </trkpt>
      <trkpt lat="46.91274" lon="8.66588">
        <ele>1630</ele>
        <time>2021-08-07T09:16:59.003Z</time>
      </trkpt>
      <trkpt lat="46.91275" lon="8.66588">
        <ele>1630</ele>
        <time>2021-08-07T09:17:00.003Z</time>
      </trkpt>
      <trkpt lat="46.91276" lon="8.66588">
        <ele>1630</ele>
        <time>2021-08-07T09:17:01.004Z</time>
      </trkpt>
      <trkpt lat="46.91278" lon="8.66588">
        <ele>1630</ele>
        <time>2021-08-07T09:17:02.004Z</time>
      </trkpt>
      <trkpt lat="46.91279" lon="8.66587">
        <ele>1630</ele>
        <time>2021-08-07T09:17:03.003Z</time>
      </trkpt>
      <trkpt lat="46.9128" lon="8.66587">
        <ele>1631</ele>
        <time>2021-08-07T09:17:04.004Z</time>
      </trkpt>
      <trkpt lat="46.91282" lon="8.66586">
        <ele>1631</ele>
        <time>2021-08-07T09:17:05.004Z</time>
      </trkpt>
      <trkpt lat="46.91283" lon="8.66585">
        <ele>1631</ele>
        <time>2021-08-07T09:17:06.004Z</time>
      </trkpt>
      <trkpt lat="46.91285" lon="8.66584">
        <ele>1631</ele>
        <time>2021-08-07T09:17:07.004Z</time>
      </trkpt>
      <trkpt lat="46.91287" lon="8.66582">
        <ele>1630</ele>
        <time>2021-08-07T09:17:08.003Z</time>
      </trkpt>
      <trkpt lat="46.91288" lon="8.66582">
        <ele>1630</ele>
        <time>2021-08-07T09:17:09.003Z</time>
      </trkpt>
      <trkpt lat="46.91289" lon="8.66581">
        <ele>1630</ele>
        <time>2021-08-07T09:17:10.003Z</time>
      </trkpt>
      <trkpt lat="46.91291" lon="8.6658">
        <ele>1630</ele>
        <time>2021-08-07T09:17:11.004Z</time>
      </trkpt>
      <trkpt lat="46.91291" lon="8.6658">
        <ele>1630</ele>
        <time>2021-08-07T09:17:12.004Z</time>
      </trkpt>
      <trkpt lat="46.91292" lon="8.66579">
        <ele>1630</ele>
        <time>2021-08-07T09:17:13.004Z</time>
      </trkpt>
      <trkpt lat="46.91293" lon="8.66577">
        <ele>1630</ele>
        <time>2021-08-07T09:17:14.003Z</time>
      </trkpt>
      <trkpt lat="46.91294" lon="8.66577">
        <ele>1630</ele>
        <time>2021-08-07T09:17:15.004Z</time>
      </trkpt>
      <trkpt lat="46.91295" lon="8.66576">
        <ele>1630</ele>
        <time>2021-08-07T09:17:16.003Z</time>
      </trkpt>
      <trkpt lat="46.91297" lon="8.66576">
        <ele>1630</ele>
        <time>2021-08-07T09:17:17.004Z</time>
      </trkpt>
      <trkpt lat="46.91298" lon="8.66575">
        <ele>1629</ele>
        <time>2021-08-07T09:17:18.004Z</time>
      </trkpt>
      <trkpt lat="46.913" lon="8.66574">
        <ele>1629</ele>
        <time>2021-08-07T09:17:19.004Z</time>
      </trkpt>
      <trkpt lat="46.91301" lon="8.66574">
        <ele>1629</ele>
        <time>2021-08-07T09:17:20.004Z</time>
      </trkpt>
      <trkpt lat="46.91302" lon="8.66573">
        <ele>1629</ele>
        <time>2021-08-07T09:17:21.003Z</time>
      </trkpt>
      <trkpt lat="46.91304" lon="8.66572">
        <ele>1628</ele>
        <time>2021-08-07T09:17:22.003Z</time>
      </trkpt>
      <trkpt lat="46.91305" lon="8.66572">
        <ele>1628</ele>
        <time>2021-08-07T09:17:23.004Z</time>
      </trkpt>
      <trkpt lat="46.91306" lon="8.66572">
        <ele>1629</ele>
        <time>2021-08-07T09:17:24.004Z</time>
      </trkpt>
      <trkpt lat="46.91307" lon="8.66571">
        <ele>1629</ele>
        <time>2021-08-07T09:17:25.004Z</time>
      </trkpt>
      <trkpt lat="46.91308" lon="8.6657">
        <ele>1630</ele>
        <time>2021-08-07T09:17:26.004Z</time>
      </trkpt>
      <trkpt lat="46.91309" lon="8.6657">
        <ele>1630</ele>
        <time>2021-08-07T09:17:27.004Z</time>
      </trkpt>
      <trkpt lat="46.9131" lon="8.66569">
        <ele>1631</ele>
        <time>2021-08-07T09:17:28.003Z</time>
      </trkpt>
      <trkpt lat="46.91312" lon="8.66568">
        <ele>1631</ele>
        <time>2021-08-07T09:17:29.004Z</time>
      </trkpt>
      <trkpt lat="46.91313" lon="8.66568">
        <ele>1631</ele>
        <time>2021-08-07T09:17:30.004Z</time>
      </trkpt>
      <trkpt lat="46.91314" lon="8.66567">
        <ele>1631</ele>
        <time>2021-08-07T09:17:31.004Z</time>
      </trkpt>
      <trkpt lat="46.91315" lon="8.66566">
        <ele>1630</ele>
        <time>2021-08-07T09:17:32.004Z</time>
      </trkpt>
      <trkpt lat="46.91316" lon="8.66566">
        <ele>1630</ele>
        <time>2021-08-07T09:17:33.004Z</time>
      </trkpt>
      <trkpt lat="46.91317" lon="8.66566">
        <ele>1629</ele>
        <time>2021-08-07T09:17:34.003Z</time>
      </trkpt>
      <trkpt lat="46.91318" lon="8.66565">
        <ele>1629</ele>
        <time>2021-08-07T09:17:35.003Z</time>
      </trkpt>
      <trkpt lat="46.91319" lon="8.66565">
        <ele>1628</ele>
        <time>2021-08-07T09:17:36.003Z</time>
      </trkpt>
      <trkpt lat="46.9132" lon="8.66564">
        <ele>1628</ele>
        <time>2021-08-07T09:17:37.004Z</time>
      </trkpt>
      <trkpt lat="46.91321" lon="8.66563">
        <ele>1627</ele>
        <time>2021-08-07T09:17:38.004Z</time>
      </trkpt>
      <trkpt lat="46.91322" lon="8.66563">
        <ele>1627</ele>
        <time>2021-08-07T09:17:39.004Z</time>
      </trkpt>
      <trkpt lat="46.91323" lon="8.66562">
        <ele>1626</ele>
        <time>2021-08-07T09:17:40.003Z</time>
      </trkpt>
      <trkpt lat="46.91324" lon="8.66562">
        <ele>1626</ele>
        <time>2021-08-07T09:17:41.004Z</time>
      </trkpt>
      <trkpt lat="46.91326" lon="8.66562">
        <ele>1625</ele>
        <time>2021-08-07T09:17:42.004Z</time>
      </trkpt>
      <trkpt lat="46.91327" lon="8.66561">
        <ele>1625</ele>
        <time>2021-08-07T09:17:43.003Z</time>
      </trkpt>
      <trkpt lat="46.91328" lon="8.66561">
        <ele>1624</ele>
        <time>2021-08-07T09:17:44.003Z</time>
      </trkpt>
      <trkpt lat="46.91328" lon="8.66561">
        <ele>1624</ele>
        <time>2021-08-07T09:17:45.003Z</time>
      </trkpt>
      <trkpt lat="46.91329" lon="8.6656">
        <ele>1624</ele>
        <time>2021-08-07T09:17:46.003Z</time>
      </trkpt>
      <trkpt lat="46.9133" lon="8.66559">
        <ele>1623</ele>
        <time>2021-08-07T09:17:47.004Z</time>
      </trkpt>
      <trkpt lat="46.91331" lon="8.66559">
        <ele>1623</ele>
        <time>2021-08-07T09:17:48.004Z</time>
      </trkpt>
      <trkpt lat="46.91332" lon="8.66558">
        <ele>1622</ele>
        <time>2021-08-07T09:17:49.004Z</time>
      </trkpt>
      <trkpt lat="46.91332" lon="8.66558">
        <ele>1622</ele>
        <time>2021-08-07T09:17:50.004Z</time>
      </trkpt>
      <trkpt lat="46.91332" lon="8.66558">
        <ele>1621</ele>
        <time>2021-08-07T09:17:51.003Z</time>
      </trkpt>
      <trkpt lat="46.91333" lon="8.66558">
        <ele>1621</ele>
        <time>2021-08-07T09:17:52.004Z</time>
      </trkpt>
      <trkpt lat="46.91333" lon="8.66558">
        <ele>1620</ele>
        <time>2021-08-07T09:17:53.004Z</time>
      </trkpt>
      <trkpt lat="46.91334" lon="8.66559">
        <ele>1620</ele>
        <time>2021-08-07T09:17:54.005Z</time>
      </trkpt>
      <trkpt lat="46.91334" lon="8.66559">
        <ele>1625</ele>
        <time>2021-08-07T09:17:55.005Z</time>
      </trkpt>
      <trkpt lat="46.91335" lon="8.6656">
        <ele>1625</ele>
        <time>2021-08-07T09:17:56.004Z</time>
      </trkpt>
      <trkpt lat="46.91335" lon="8.6656">
        <ele>1625</ele>
        <time>2021-08-07T09:17:57.004Z</time>
      </trkpt>
      <trkpt lat="46.91335" lon="8.6656">
        <ele>1625</ele>
        <time>2021-08-07T09:17:58.005Z</time>
      </trkpt>
      <trkpt lat="46.91335" lon="8.6656">
        <ele>1624</ele>
        <time>2021-08-07T09:17:59.005Z</time>
      </trkpt>
      <trkpt lat="46.91334" lon="8.6656">
        <ele>1624</ele>
        <time>2021-08-07T09:18:00.004Z</time>
      </trkpt>
      <trkpt lat="46.91334" lon="8.6656">
        <ele>1624</ele>
        <time>2021-08-07T09:18:01.004Z</time>
      </trkpt>
      <trkpt lat="46.91334" lon="8.6656">
        <ele>1624</ele>
        <time>2021-08-07T09:18:03.000Z</time>
      </trkpt>
      <trkpt lat="46.91334" lon="8.6656">
        <ele>1623</ele>
        <time>2021-08-07T09:18:04.000Z</time>
      </trkpt>
      <trkpt lat="46.91334" lon="8.6656">
        <ele>1623</ele>
        <time>2021-08-07T09:18:04.999Z</time>
      </trkpt>
      <trkpt lat="46.91335" lon="8.66558">
        <ele>1622</ele>
        <time>2021-08-07T09:18:06.000Z</time>
      </trkpt>
      <trkpt lat="46.91336" lon="8.66557">
        <ele>1622</ele>
        <time>2021-08-07T09:18:07.000Z</time>
      </trkpt>
      <trkpt lat="46.91336" lon="8.66557">
        <ele>1621</ele>
        <time>2021-08-07T09:18:08.000Z</time>
      </trkpt>
      <trkpt lat="46.91336" lon="8.66556">
        <ele>1621</ele>
        <time>2021-08-07T09:18:09.001Z</time>
      </trkpt>
      <trkpt lat="46.91336" lon="8.66556">
        <ele>1621</ele>
        <time>2021-08-07T09:18:10.001Z</time>
      </trkpt>
      <trkpt lat="46.91337" lon="8.66555">
        <ele>1620</ele>
        <time>2021-08-07T09:18:11.000Z</time>
      </trkpt>
      <trkpt lat="46.91336" lon="8.66554">
        <ele>1620</ele>
        <time>2021-08-07T09:18:12.000Z</time>
      </trkpt>
      <trkpt lat="46.91336" lon="8.66553">
        <ele>1620</ele>
        <time>2021-08-07T09:18:13.000Z</time>
      </trkpt>
      <trkpt lat="46.91336" lon="8.66553">
        <ele>1620</ele>
        <time>2021-08-07T09:18:14.001Z</time>
      </trkpt>
      <trkpt lat="46.91335" lon="8.66552">
        <ele>1619</ele>
        <time>2021-08-07T09:18:15.001Z</time>
      </trkpt>
      <trkpt lat="46.91335" lon="8.66551">
        <ele>1619</ele>
        <time>2021-08-07T09:18:16.001Z</time>
      </trkpt>
      <trkpt lat="46.91334" lon="8.66551">
        <ele>1619</ele>
        <time>2021-08-07T09:18:17.000Z</time>
      </trkpt>
      <trkpt lat="46.91335" lon="8.66547">
        <ele>1619</ele>
        <time>2021-08-07T09:18:18.001Z</time>
      </trkpt>
      <trkpt lat="46.91336" lon="8.66546">
        <ele>1618</ele>
        <time>2021-08-07T09:18:19.001Z</time>
      </trkpt>
      <trkpt lat="46.91336" lon="8.66545">
        <ele>1618</ele>
        <time>2021-08-07T09:18:21.148Z</time>
      </trkpt>
      <trkpt lat="46.91336" lon="8.66544">
        <ele>1617</ele>
        <time>2021-08-07T09:18:22.987Z</time>
      </trkpt>
      <trkpt lat="46.91336" lon="8.66542">
        <ele>1617</ele>
        <time>2021-08-07T09:18:23.987Z</time>
      </trkpt>
      <trkpt lat="46.91337" lon="8.66541">
        <ele>1616</ele>
        <time>2021-08-07T09:18:24.987Z</time>
      </trkpt>
      <trkpt lat="46.91337" lon="8.66539">
        <ele>1616</ele>
        <time>2021-08-07T09:18:52.068Z</time>
      </trkpt>
      <trkpt lat="46.91338" lon="8.66537">
        <ele>1616</ele>
        <time>2021-08-07T09:18:53.068Z</time>
      </trkpt>
      <trkpt lat="46.91338" lon="8.66535">
        <ele>1616</ele>
        <time>2021-08-07T09:18:54.067Z</time>
      </trkpt>
      <trkpt lat="46.91338" lon="8.66534">
        <ele>1616</ele>
        <time>2021-08-07T09:18:55.068Z</time>
      </trkpt>
      <trkpt lat="46.91339" lon="8.66532">
        <ele>1616</ele>
        <time>2021-08-07T09:18:56.067Z</time>
      </trkpt>
      <trkpt lat="46.91339" lon="8.66531">
        <ele>1616</ele>
        <time>2021-08-07T09:18:57.067Z</time>
      </trkpt>
      <trkpt lat="46.91338" lon="8.66529">
        <ele>1615</ele>
        <time>2021-08-07T09:18:58.068Z</time>
      </trkpt>
      <trkpt lat="46.91338" lon="8.66527">
        <ele>1615</ele>
        <time>2021-08-07T09:18:59.067Z</time>
      </trkpt>
      <trkpt lat="46.91337" lon="8.66526">
        <ele>1614</ele>
        <time>2021-08-07T09:19:00.068Z</time>
      </trkpt>
      <trkpt lat="46.91336" lon="8.66524">
        <ele>1614</ele>
        <time>2021-08-07T09:19:01.068Z</time>
      </trkpt>
      <trkpt lat="46.91337" lon="8.66522">
        <ele>1613</ele>
        <time>2021-08-07T09:19:02.068Z</time>
      </trkpt>
      <trkpt lat="46.91337" lon="8.66521">
        <ele>1613</ele>
        <time>2021-08-07T09:19:09.146Z</time>
      </trkpt>
      <trkpt lat="46.91337" lon="8.66519">
        <ele>1613</ele>
        <time>2021-08-07T09:19:10.146Z</time>
      </trkpt>
      <trkpt lat="46.91337" lon="8.66517">
        <ele>1613</ele>
        <time>2021-08-07T09:19:24.006Z</time>
      </trkpt>
      <trkpt lat="46.91337" lon="8.66516">
        <ele>1613</ele>
        <time>2021-08-07T09:19:25.006Z</time>
      </trkpt>
      <trkpt lat="46.91337" lon="8.66516">
        <ele>1613</ele>
        <time>2021-08-07T09:19:26.007Z</time>
      </trkpt>
      <trkpt lat="46.91336" lon="8.66516">
        <ele>1613</ele>
        <time>2021-08-07T09:19:27.007Z</time>
      </trkpt>
      <trkpt lat="46.91337" lon="8.66516">
        <ele>1613</ele>
        <time>2021-08-07T09:19:28.007Z</time>
      </trkpt>
      <trkpt lat="46.91335" lon="8.66515">
        <ele>1612</ele>
        <time>2021-08-07T09:19:30.046Z</time>
      </trkpt>
      <trkpt lat="46.91335" lon="8.66515">
        <ele>1612</ele>
        <time>2021-08-07T09:19:31.046Z</time>
      </trkpt>
      <trkpt lat="46.91335" lon="8.66515">
        <ele>1612</ele>
        <time>2021-08-07T09:19:32.045Z</time>
      </trkpt>
      <trkpt lat="46.91334" lon="8.66513">
        <ele>1614</ele>
        <time>2021-08-07T09:19:33.048Z</time>
      </trkpt>
      <trkpt lat="46.91335" lon="8.66512">
        <ele>1614</ele>
        <time>2021-08-07T09:19:34.048Z</time>
      </trkpt>
      <trkpt lat="46.91335" lon="8.66511">
        <ele>1614</ele>
        <time>2021-08-07T09:19:35.047Z</time>
      </trkpt>
      <trkpt lat="46.91336" lon="8.6651">
        <ele>1613</ele>
        <time>2021-08-07T09:19:36.048Z</time>
      </trkpt>
      <trkpt lat="46.91335" lon="8.66508">
        <ele>1613</ele>
        <time>2021-08-07T09:19:37.048Z</time>
      </trkpt>
      <trkpt lat="46.91335" lon="8.66507">
        <ele>1613</ele>
        <time>2021-08-07T09:19:38.047Z</time>
      </trkpt>
      <trkpt lat="46.91334" lon="8.66506">
        <ele>1613</ele>
        <time>2021-08-07T09:19:39.047Z</time>
      </trkpt>
      <trkpt lat="46.91334" lon="8.66505">
        <ele>1613</ele>
        <time>2021-08-07T09:19:40.048Z</time>
      </trkpt>
      <trkpt lat="46.91335" lon="8.66504">
        <ele>1613</ele>
        <time>2021-08-07T09:19:41.048Z</time>
      </trkpt>
      <trkpt lat="46.91336" lon="8.66503">
        <ele>1613</ele>
        <time>2021-08-07T09:19:42.048Z</time>
      </trkpt>
      <trkpt lat="46.91336" lon="8.66503">
        <ele>1612</ele>
        <time>2021-08-07T09:19:43.048Z</time>
      </trkpt>
      <trkpt lat="46.91336" lon="8.66502">
        <ele>1612</ele>
        <time>2021-08-07T09:19:44.048Z</time>
      </trkpt>
      <trkpt lat="46.91336" lon="8.66501">
        <ele>1612</ele>
        <time>2021-08-07T09:19:45.048Z</time>
      </trkpt>
      <trkpt lat="46.91336" lon="8.66499">
        <ele>1612</ele>
        <time>2021-08-07T09:19:46.048Z</time>
      </trkpt>
      <trkpt lat="46.91336" lon="8.66498">
        <ele>1611</ele>
        <time>2021-08-07T09:19:47.048Z</time>
      </trkpt>
      <trkpt lat="46.91336" lon="8.66497">
        <ele>1611</ele>
        <time>2021-08-07T09:19:48.048Z</time>
      </trkpt>
      <trkpt lat="46.91336" lon="8.66496">
        <ele>1610</ele>
        <time>2021-08-07T09:19:49.048Z</time>
      </trkpt>
      <trkpt lat="46.91336" lon="8.66495">
        <ele>1610</ele>
        <time>2021-08-07T09:19:50.048Z</time>
      </trkpt>
      <trkpt lat="46.91336" lon="8.66495">
        <ele>1610</ele>
        <time>2021-08-07T09:19:51.047Z</time>
      </trkpt>
      <trkpt lat="46.91333" lon="8.66494">
        <ele>1611</ele>
        <time>2021-08-07T09:19:52.049Z</time>
      </trkpt>
      <trkpt lat="46.91333" lon="8.66494">
        <ele>1612</ele>
        <time>2021-08-07T09:19:53.049Z</time>
      </trkpt>
      <trkpt lat="46.91332" lon="8.66494">
        <ele>1613</ele>
        <time>2021-08-07T09:19:54.048Z</time>
      </trkpt>
      <trkpt lat="46.91331" lon="8.66494">
        <ele>1613</ele>
        <time>2021-08-07T09:19:55.049Z</time>
      </trkpt>
      <trkpt lat="46.91331" lon="8.66494">
        <ele>1614</ele>
        <time>2021-08-07T09:19:56.048Z</time>
      </trkpt>
      <trkpt lat="46.9133" lon="8.66493">
        <ele>1614</ele>
        <time>2021-08-07T09:19:57.049Z</time>
      </trkpt>
      <trkpt lat="46.91333" lon="8.6649">
        <ele>1612</ele>
        <time>2021-08-07T09:19:58.049Z</time>
      </trkpt>
      <trkpt lat="46.91334" lon="8.6649">
        <ele>1612</ele>
        <time>2021-08-07T09:19:59.048Z</time>
      </trkpt>
      <trkpt lat="46.91334" lon="8.66488">
        <ele>1614</ele>
        <time>2021-08-07T09:20:00.048Z</time>
      </trkpt>
      <trkpt lat="46.91334" lon="8.66488">
        <ele>1614</ele>
        <time>2021-08-07T09:20:01.048Z</time>
      </trkpt>
      <trkpt lat="46.91335" lon="8.66488">
        <ele>1614</ele>
        <time>2021-08-07T09:20:02.048Z</time>
      </trkpt>
      <trkpt lat="46.91335" lon="8.66488">
        <ele>1614</ele>
        <time>2021-08-07T09:20:03.048Z</time>
      </trkpt>
      <trkpt lat="46.91335" lon="8.66489">
        <ele>1614</ele>
        <time>2021-08-07T09:20:04.048Z</time>
      </trkpt>
      <trkpt lat="46.91334" lon="8.6649">
        <ele>1614</ele>
        <time>2021-08-07T09:20:05.048Z</time>
      </trkpt>
      <trkpt lat="46.91331" lon="8.66487">
        <ele>1610</ele>
        <time>2021-08-07T09:20:06.048Z</time>
      </trkpt>
      <trkpt lat="46.91329" lon="8.66487">
        <ele>1610</ele>
        <time>2021-08-07T09:20:07.049Z</time>
      </trkpt>
      <trkpt lat="46.91329" lon="8.66487">
        <ele>1610</ele>
        <time>2021-08-07T09:20:08.048Z</time>
      </trkpt>
      <trkpt lat="46.91329" lon="8.66487">
        <ele>1610</ele>
        <time>2021-08-07T09:20:09.049Z</time>
      </trkpt>
      <trkpt lat="46.9133" lon="8.66489">
        <ele>1611</ele>
        <time>2021-08-07T09:20:10.050Z</time>
      </trkpt>
      <trkpt lat="46.91329" lon="8.66489">
        <ele>1611</ele>
        <time>2021-08-07T09:20:11.050Z</time>
      </trkpt>
      <trkpt lat="46.91329" lon="8.66489">
        <ele>1611</ele>
        <time>2021-08-07T09:20:12.050Z</time>
      </trkpt>
      <trkpt lat="46.91328" lon="8.66489">
        <ele>1612</ele>
        <time>2021-08-07T09:20:13.049Z</time>
      </trkpt>
      <trkpt lat="46.91328" lon="8.66489">
        <ele>1612</ele>
        <time>2021-08-07T09:20:14.050Z</time>
      </trkpt>
      <trkpt lat="46.91327" lon="8.66491">
        <ele>1613</ele>
        <time>2021-08-07T09:20:15.051Z</time>
      </trkpt>
      <trkpt lat="46.91326" lon="8.66492">
        <ele>1613</ele>
        <time>2021-08-07T09:20:16.051Z</time>
      </trkpt>
      <trkpt lat="46.91326" lon="8.66492">
        <ele>1613</ele>
        <time>2021-08-07T09:20:17.051Z</time>
      </trkpt>
      <trkpt lat="46.91325" lon="8.66493">
        <ele>1613</ele>
        <time>2021-08-07T09:20:18.051Z</time>
      </trkpt>
      <trkpt lat="46.91324" lon="8.66493">
        <ele>1613</ele>
        <time>2021-08-07T09:20:19.051Z</time>
      </trkpt>
      <trkpt lat="46.91323" lon="8.66493">
        <ele>1613</ele>
        <time>2021-08-07T09:20:20.051Z</time>
      </trkpt>
      <trkpt lat="46.91322" lon="8.66494">
        <ele>1613</ele>
        <time>2021-08-07T09:20:21.051Z</time>
      </trkpt>
      <trkpt lat="46.91321" lon="8.66495">
        <ele>1612</ele>
        <time>2021-08-07T09:20:22.051Z</time>
      </trkpt>
      <trkpt lat="46.91319" lon="8.66495">
        <ele>1612</ele>
        <time>2021-08-07T09:20:23.051Z</time>
      </trkpt>
      <trkpt lat="46.91318" lon="8.66495">
        <ele>1612</ele>
        <time>2021-08-07T09:20:24.050Z</time>
      </trkpt>
      <trkpt lat="46.91317" lon="8.66495">
        <ele>1612</ele>
        <time>2021-08-07T09:20:25.051Z</time>
      </trkpt>
      <trkpt lat="46.91316" lon="8.66494">
        <ele>1612</ele>
        <time>2021-08-07T09:20:26.050Z</time>
      </trkpt>
      <trkpt lat="46.91314" lon="8.66493">
        <ele>1612</ele>
        <time>2021-08-07T09:20:27.050Z</time>
      </trkpt>
      <trkpt lat="46.91313" lon="8.66492">
        <ele>1612</ele>
        <time>2021-08-07T09:20:28.051Z</time>
      </trkpt>
      <trkpt lat="46.91312" lon="8.66492">
        <ele>1612</ele>
        <time>2021-08-07T09:20:29.051Z</time>
      </trkpt>
      <trkpt lat="46.91311" lon="8.66492">
        <ele>1611</ele>
        <time>2021-08-07T09:20:30.051Z</time>
      </trkpt>
      <trkpt lat="46.9131" lon="8.66493">
        <ele>1611</ele>
        <time>2021-08-07T09:20:31.050Z</time>
      </trkpt>
      <trkpt lat="46.91309" lon="8.66492">
        <ele>1611</ele>
        <time>2021-08-07T09:20:32.050Z</time>
      </trkpt>
      <trkpt lat="46.91308" lon="8.66492">
        <ele>1610</ele>
        <time>2021-08-07T09:20:33.050Z</time>
      </trkpt>
      <trkpt lat="46.91308" lon="8.66493">
        <ele>1610</ele>
        <time>2021-08-07T09:20:34.051Z</time>
      </trkpt>
      <trkpt lat="46.91309" lon="8.66493">
        <ele>1610</ele>
        <time>2021-08-07T09:20:35.050Z</time>
      </trkpt>
      <trkpt lat="46.91309" lon="8.66493">
        <ele>1610</ele>
        <time>2021-08-07T09:20:36.050Z</time>
      </trkpt>
      <trkpt lat="46.91309" lon="8.66492">
        <ele>1610</ele>
        <time>2021-08-07T09:20:37.050Z</time>
      </trkpt>
      <trkpt lat="46.91308" lon="8.66492">
        <ele>1610</ele>
        <time>2021-08-07T09:20:38.051Z</time>
      </trkpt>
      <trkpt lat="46.91308" lon="8.66492">
        <ele>1610</ele>
        <time>2021-08-07T09:20:39.050Z</time>
      </trkpt>
      <trkpt lat="46.91307" lon="8.66492">
        <ele>1610</ele>
        <time>2021-08-07T09:20:40.051Z</time>
      </trkpt>
      <trkpt lat="46.91306" lon="8.66492">
        <ele>1610</ele>
        <time>2021-08-07T09:20:41.051Z</time>
      </trkpt>
      <trkpt lat="46.91306" lon="8.66492">
        <ele>1610</ele>
        <time>2021-08-07T09:20:42.050Z</time>
      </trkpt>
      <trkpt lat="46.91306" lon="8.66492">
        <ele>1610</ele>
        <time>2021-08-07T09:20:43.051Z</time>
      </trkpt>
      <trkpt lat="46.91306" lon="8.66493">
        <ele>1609</ele>
        <time>2021-08-07T09:20:44.051Z</time>
      </trkpt>
      <trkpt lat="46.91305" lon="8.66493">
        <ele>1609</ele>
        <time>2021-08-07T09:20:45.051Z</time>
      </trkpt>
      <trkpt lat="46.91304" lon="8.66493">
        <ele>1609</ele>
        <time>2021-08-07T09:20:46.051Z</time>
      </trkpt>
      <trkpt lat="46.91304" lon="8.66493">
        <ele>1609</ele>
        <time>2021-08-07T09:20:47.050Z</time>
      </trkpt>
      <trkpt lat="46.91303" lon="8.66492">
        <ele>1609</ele>
        <time>2021-08-07T09:20:48.050Z</time>
      </trkpt>
      <trkpt lat="46.91302" lon="8.66491">
        <ele>1609</ele>
        <time>2021-08-07T09:20:49.050Z</time>
      </trkpt>
      <trkpt lat="46.913" lon="8.66491">
        <ele>1609</ele>
        <time>2021-08-07T09:20:50.050Z</time>
      </trkpt>
      <trkpt lat="46.91299" lon="8.66491">
        <ele>1609</ele>
        <time>2021-08-07T09:20:51.051Z</time>
      </trkpt>
      <trkpt lat="46.91297" lon="8.66491">
        <ele>1609</ele>
        <time>2021-08-07T09:20:52.051Z</time>
      </trkpt>
      <trkpt lat="46.91296" lon="8.66491">
        <ele>1609</ele>
        <time>2021-08-07T09:20:53.050Z</time>
      </trkpt>
      <trkpt lat="46.91295" lon="8.66491">
        <ele>1609</ele>
        <time>2021-08-07T09:20:54.050Z</time>
      </trkpt>
      <trkpt lat="46.91294" lon="8.66491">
        <ele>1609</ele>
        <time>2021-08-07T09:20:55.051Z</time>
      </trkpt>
      <trkpt lat="46.91293" lon="8.66491">
        <ele>1609</ele>
        <time>2021-08-07T09:20:56.050Z</time>
      </trkpt>
      <trkpt lat="46.91293" lon="8.66491">
        <ele>1610</ele>
        <time>2021-08-07T09:20:57.051Z</time>
      </trkpt>
      <trkpt lat="46.91293" lon="8.6649">
        <ele>1610</ele>
        <time>2021-08-07T09:20:58.050Z</time>
      </trkpt>
      <trkpt lat="46.91293" lon="8.66491">
        <ele>1611</ele>
        <time>2021-08-07T09:20:59.052Z</time>
      </trkpt>
      <trkpt lat="46.91293" lon="8.66492">
        <ele>1611</ele>
        <time>2021-08-07T09:21:00.052Z</time>
      </trkpt>
      <trkpt lat="46.91293" lon="8.66492">
        <ele>1611</ele>
        <time>2021-08-07T09:21:01.051Z</time>
      </trkpt>
      <trkpt lat="46.91292" lon="8.66492">
        <ele>1611</ele>
        <time>2021-08-07T09:21:02.051Z</time>
      </trkpt>
      <trkpt lat="46.91291" lon="8.66492">
        <ele>1612</ele>
        <time>2021-08-07T09:21:03.052Z</time>
      </trkpt>
      <trkpt lat="46.9129" lon="8.66491">
        <ele>1612</ele>
        <time>2021-08-07T09:21:04.052Z</time>
      </trkpt>
      <trkpt lat="46.9129" lon="8.66491">
        <ele>1612</ele>
        <time>2021-08-07T09:21:05.052Z</time>
      </trkpt>
      <trkpt lat="46.9129" lon="8.66491">
        <ele>1612</ele>
        <time>2021-08-07T09:21:06.051Z</time>
      </trkpt>
      <trkpt lat="46.9129" lon="8.66492">
        <ele>1612</ele>
        <time>2021-08-07T09:21:07.052Z</time>
      </trkpt>
      <trkpt lat="46.91291" lon="8.66492">
        <ele>1612</ele>
        <time>2021-08-07T09:21:08.052Z</time>
      </trkpt>
      <trkpt lat="46.91291" lon="8.66493">
        <ele>1612</ele>
        <time>2021-08-07T09:21:09.052Z</time>
      </trkpt>
      <trkpt lat="46.91292" lon="8.66494">
        <ele>1612</ele>
        <time>2021-08-07T09:21:10.051Z</time>
      </trkpt>
      <trkpt lat="46.91293" lon="8.66495">
        <ele>1613</ele>
        <time>2021-08-07T09:21:11.052Z</time>
      </trkpt>
      <trkpt lat="46.91293" lon="8.66495">
        <ele>1613</ele>
        <time>2021-08-07T09:21:12.051Z</time>
      </trkpt>
      <trkpt lat="46.91293" lon="8.66494">
        <ele>1614</ele>
        <time>2021-08-07T09:21:13.051Z</time>
      </trkpt>
      <trkpt lat="46.91293" lon="8.66494">
        <ele>1614</ele>
        <time>2021-08-07T09:21:14.051Z</time>
      </trkpt>
      <trkpt lat="46.91295" lon="8.66496">
        <ele>1614</ele>
        <time>2021-08-07T09:21:15.051Z</time>
      </trkpt>
      <trkpt lat="46.91295" lon="8.66499">
        <ele>1614</ele>
        <time>2021-08-07T09:21:16.053Z</time>
      </trkpt>
      <trkpt lat="46.91295" lon="8.66499">
        <ele>1614</ele>
        <time>2021-08-07T09:21:17.053Z</time>
      </trkpt>
      <trkpt lat="46.91295" lon="8.66499">
        <ele>1614</ele>
        <time>2021-08-07T09:21:18.053Z</time>
      </trkpt>
      <trkpt lat="46.91293" lon="8.66496">
        <ele>1615</ele>
        <time>2021-08-07T09:21:19.054Z</time>
      </trkpt>
      <trkpt lat="46.91295" lon="8.66496">
        <ele>1616</ele>
        <time>2021-08-07T09:21:20.054Z</time>
      </trkpt>
      <trkpt lat="46.91295" lon="8.66496">
        <ele>1616</ele>
        <time>2021-08-07T09:21:21.054Z</time>
      </trkpt>
      <trkpt lat="46.91295" lon="8.66496">
        <ele>1617</ele>
        <time>2021-08-07T09:21:22.053Z</time>
      </trkpt>
      <trkpt lat="46.91293" lon="8.66494">
        <ele>1617</ele>
        <time>2021-08-07T09:21:23.054Z</time>
      </trkpt>
      <trkpt lat="46.91292" lon="8.66494">
        <ele>1617</ele>
        <time>2021-08-07T09:21:24.055Z</time>
      </trkpt>
      <trkpt lat="46.91293" lon="8.66494">
        <ele>1616</ele>
        <time>2021-08-07T09:21:25.054Z</time>
      </trkpt>
      <trkpt lat="46.91293" lon="8.66494">
        <ele>1616</ele>
        <time>2021-08-07T09:21:26.055Z</time>
      </trkpt>
      <trkpt lat="46.91293" lon="8.66494">
        <ele>1617</ele>
        <time>2021-08-07T09:21:27.054Z</time>
      </trkpt>
      <trkpt lat="46.91293" lon="8.66494">
        <ele>1617</ele>
        <time>2021-08-07T09:21:28.055Z</time>
      </trkpt>
      <trkpt lat="46.91298" lon="8.66496">
        <ele>1617</ele>
        <time>2021-08-07T09:21:29.055Z</time>
      </trkpt>
      <trkpt lat="46.91298" lon="8.66496">
        <ele>1617</ele>
        <time>2021-08-07T09:21:30.056Z</time>
      </trkpt>
      <trkpt lat="46.91298" lon="8.66495">
        <ele>1617</ele>
        <time>2021-08-07T09:21:31.055Z</time>
      </trkpt>
      <trkpt lat="46.91298" lon="8.66495">
        <ele>1617</ele>
        <time>2021-08-07T09:21:40.139Z</time>
      </trkpt>
      <trkpt lat="46.91298" lon="8.66495">
        <ele>1616</ele>
        <time>2021-08-07T09:21:41.138Z</time>
      </trkpt>
      <trkpt lat="46.91299" lon="8.66496">
        <ele>1616</ele>
        <time>2021-08-07T09:22:04.015Z</time>
      </trkpt>
      <trkpt lat="46.91299" lon="8.66496">
        <ele>1616</ele>
        <time>2021-08-07T09:22:05.014Z</time>
      </trkpt>
      <trkpt lat="46.91298" lon="8.66497">
        <ele>1616</ele>
        <time>2021-08-07T09:22:06.014Z</time>
      </trkpt>
      <trkpt lat="46.91298" lon="8.66497">
        <ele>1616</ele>
        <time>2021-08-07T09:22:07.015Z</time>
      </trkpt>
      <trkpt lat="46.91297" lon="8.66498">
        <ele>1616</ele>
        <time>2021-08-07T09:22:08.015Z</time>
      </trkpt>
      <trkpt lat="46.91297" lon="8.66499">
        <ele>1616</ele>
        <time>2021-08-07T09:22:09.015Z</time>
      </trkpt>
      <trkpt lat="46.91296" lon="8.665">
        <ele>1616</ele>
        <time>2021-08-07T09:22:10.015Z</time>
      </trkpt>
      <trkpt lat="46.91296" lon="8.66501">
        <ele>1616</ele>
        <time>2021-08-07T09:22:11.015Z</time>
      </trkpt>
      <trkpt lat="46.91296" lon="8.66502">
        <ele>1617</ele>
        <time>2021-08-07T09:22:15.172Z</time>
      </trkpt>
      <trkpt lat="46.91296" lon="8.66503">
        <ele>1617</ele>
        <time>2021-08-07T09:22:16.173Z</time>
      </trkpt>
      <trkpt lat="46.91296" lon="8.66503">
        <ele>1617</ele>
        <time>2021-08-07T09:22:17.172Z</time>
      </trkpt>
      <trkpt lat="46.91295" lon="8.66504">
        <ele>1617</ele>
        <time>2021-08-07T09:22:18.172Z</time>
      </trkpt>
      <trkpt lat="46.91295" lon="8.66505">
        <ele>1616</ele>
        <time>2021-08-07T09:22:19.173Z</time>
      </trkpt>
      <trkpt lat="46.91295" lon="8.66506">
        <ele>1616</ele>
        <time>2021-08-07T09:22:20.173Z</time>
      </trkpt>
      <trkpt lat="46.91295" lon="8.66507">
        <ele>1616</ele>
        <time>2021-08-07T09:22:21.173Z</time>
      </trkpt>
      <trkpt lat="46.91295" lon="8.66508">
        <ele>1616</ele>
        <time>2021-08-07T09:22:22.173Z</time>
      </trkpt>
      <trkpt lat="46.91295" lon="8.66509">
        <ele>1616</ele>
        <time>2021-08-07T09:22:23.173Z</time>
      </trkpt>
      <trkpt lat="46.91295" lon="8.66509">
        <ele>1617</ele>
        <time>2021-08-07T09:22:25.178Z</time>
      </trkpt>
      <trkpt lat="46.91294" lon="8.6651">
        <ele>1617</ele>
        <time>2021-08-07T09:22:26.178Z</time>
      </trkpt>
      <trkpt lat="46.91294" lon="8.66511">
        <ele>1617</ele>
        <time>2021-08-07T09:22:27.178Z</time>
      </trkpt>
      <trkpt lat="46.91294" lon="8.66513">
        <ele>1617</ele>
        <time>2021-08-07T09:22:28.178Z</time>
      </trkpt>
      <trkpt lat="46.91294" lon="8.66514">
        <ele>1618</ele>
        <time>2021-08-07T09:22:29.179Z</time>
      </trkpt>
      <trkpt lat="46.91294" lon="8.66515">
        <ele>1618</ele>
        <time>2021-08-07T09:22:30.178Z</time>
      </trkpt>
      <trkpt lat="46.91294" lon="8.66515">
        <ele>1618</ele>
        <time>2021-08-07T09:22:31.178Z</time>
      </trkpt>
      <trkpt lat="46.91295" lon="8.66516">
        <ele>1619</ele>
        <time>2021-08-07T09:22:32.179Z</time>
      </trkpt>
      <trkpt lat="46.91295" lon="8.66516">
        <ele>1619</ele>
        <time>2021-08-07T09:22:33.178Z</time>
      </trkpt>
      <trkpt lat="46.91295" lon="8.66517">
        <ele>1619</ele>
        <time>2021-08-07T09:22:34.179Z</time>
      </trkpt>
      <trkpt lat="46.91295" lon="8.66517">
        <ele>1619</ele>
        <time>2021-08-07T09:22:35.178Z</time>
      </trkpt>
      <trkpt lat="46.91292" lon="8.66517">
        <ele>1618</ele>
        <time>2021-08-07T09:22:36.179Z</time>
      </trkpt>
      <trkpt lat="46.91293" lon="8.66517">
        <ele>1618</ele>
        <time>2021-08-07T09:22:37.179Z</time>
      </trkpt>
      <trkpt lat="46.91295" lon="8.66516">
        <ele>1618</ele>
        <time>2021-08-07T09:22:38.179Z</time>
      </trkpt>
      <trkpt lat="46.91295" lon="8.66516">
        <ele>1617</ele>
        <time>2021-08-07T09:22:39.179Z</time>
      </trkpt>
      <trkpt lat="46.91295" lon="8.66516">
        <ele>1617</ele>
        <time>2021-08-07T09:22:40.178Z</time>
      </trkpt>
      <trkpt lat="46.91296" lon="8.66516">
        <ele>1617</ele>
        <time>2021-08-07T09:22:41.178Z</time>
      </trkpt>
      <trkpt lat="46.91293" lon="8.66519">
        <ele>1611</ele>
        <time>2021-08-07T09:22:42.179Z</time>
      </trkpt>
      <trkpt lat="46.91292" lon="8.66519">
        <ele>1611</ele>
        <time>2021-08-07T09:22:43.178Z</time>
      </trkpt>
      <trkpt lat="46.91292" lon="8.66519">
        <ele>1611</ele>
        <time>2021-08-07T09:22:44.178Z</time>
      </trkpt>
      <trkpt lat="46.91294" lon="8.66516">
        <ele>1621</ele>
        <time>2021-08-07T09:22:45.178Z</time>
      </trkpt>
      <trkpt lat="46.91294" lon="8.66516">
        <ele>1621</ele>
        <time>2021-08-07T09:22:46.178Z</time>
      </trkpt>
      <trkpt lat="46.91294" lon="8.66516">
        <ele>1621</ele>
        <time>2021-08-07T09:22:47.180Z</time>
      </trkpt>
      <trkpt lat="46.91295" lon="8.66516">
        <ele>1622</ele>
        <time>2021-08-07T09:22:48.180Z</time>
      </trkpt>
      <trkpt lat="46.91295" lon="8.66516">
        <ele>1622</ele>
        <time>2021-08-07T09:22:49.179Z</time>
      </trkpt>
      <trkpt lat="46.91295" lon="8.66517">
        <ele>1623</ele>
        <time>2021-08-07T09:22:50.180Z</time>
      </trkpt>
      <trkpt lat="46.91294" lon="8.66517">
        <ele>1623</ele>
        <time>2021-08-07T09:22:51.180Z</time>
      </trkpt>
      <trkpt lat="46.91295" lon="8.66515">
        <ele>1621</ele>
        <time>2021-08-07T09:22:52.179Z</time>
      </trkpt>
      <trkpt lat="46.91296" lon="8.66515">
        <ele>1621</ele>
        <time>2021-08-07T09:22:53.179Z</time>
      </trkpt>
      <trkpt lat="46.91296" lon="8.66515">
        <ele>1621</ele>
        <time>2021-08-07T09:22:54.179Z</time>
      </trkpt>
      <trkpt lat="46.91296" lon="8.66515">
        <ele>1620</ele>
        <time>2021-08-07T09:22:55.179Z</time>
      </trkpt>
      <trkpt lat="46.91294" lon="8.66514">
        <ele>1618</ele>
        <time>2021-08-07T09:22:56.180Z</time>
      </trkpt>
      <trkpt lat="46.91294" lon="8.66514">
        <ele>1618</ele>
        <time>2021-08-07T09:22:57.181Z</time>
      </trkpt>
      <trkpt lat="46.91294" lon="8.66514">
        <ele>1618</ele>
        <time>2021-08-07T09:22:58.180Z</time>
      </trkpt>
      <trkpt lat="46.91295" lon="8.66514">
        <ele>1618</ele>
        <time>2021-08-07T09:22:59.180Z</time>
      </trkpt>
      <trkpt lat="46.91295" lon="8.66515">
        <ele>1618</ele>
        <time>2021-08-07T09:23:00.180Z</time>
      </trkpt>
      <trkpt lat="46.91295" lon="8.66515">
        <ele>1618</ele>
        <time>2021-08-07T09:23:01.180Z</time>
      </trkpt>
      <trkpt lat="46.91293" lon="8.66514">
        <ele>1621</ele>
        <time>2021-08-07T09:23:02.182Z</time>
      </trkpt>
      <trkpt lat="46.91293" lon="8.66514">
        <ele>1621</ele>
        <time>2021-08-07T09:23:03.181Z</time>
      </trkpt>
      <trkpt lat="46.91293" lon="8.66514">
        <ele>1622</ele>
        <time>2021-08-07T09:23:04.181Z</time>
      </trkpt>
      <trkpt lat="46.91293" lon="8.66514">
        <ele>1622</ele>
        <time>2021-08-07T09:23:05.181Z</time>
      </trkpt>
      <trkpt lat="46.91294" lon="8.66514">
        <ele>1622</ele>
        <time>2021-08-07T09:23:06.181Z</time>
      </trkpt>
      <trkpt lat="46.91295" lon="8.66515">
        <ele>1622</ele>
        <time>2021-08-07T09:23:09.280Z</time>
      </trkpt>
      <trkpt lat="46.91295" lon="8.66516">
        <ele>1621</ele>
        <time>2021-08-07T09:23:10.280Z</time>
      </trkpt>
      <trkpt lat="46.913" lon="8.66515">
        <ele>1613</ele>
        <time>2021-08-07T09:23:11.280Z</time>
      </trkpt>
      <trkpt lat="46.913" lon="8.66515">
        <ele>1613</ele>
        <time>2021-08-07T09:23:12.281Z</time>
      </trkpt>
      <trkpt lat="46.91299" lon="8.66515">
        <ele>1613</ele>
        <time>2021-08-07T09:23:13.280Z</time>
      </trkpt>
      <trkpt lat="46.91301" lon="8.66515">
        <ele>1615</ele>
        <time>2021-08-07T09:23:14.281Z</time>
      </trkpt>
      <trkpt lat="46.913" lon="8.66515">
        <ele>1615</ele>
        <time>2021-08-07T09:23:15.281Z</time>
      </trkpt>
      <trkpt lat="46.913" lon="8.66515">
        <ele>1616</ele>
        <time>2021-08-07T09:23:16.281Z</time>
      </trkpt>
      <trkpt lat="46.91299" lon="8.66515">
        <ele>1616</ele>
        <time>2021-08-07T09:23:17.281Z</time>
      </trkpt>
      <trkpt lat="46.913" lon="8.66515">
        <ele>1616</ele>
        <time>2021-08-07T09:23:18.281Z</time>
      </trkpt>
      <trkpt lat="46.913" lon="8.66515">
        <ele>1616</ele>
        <time>2021-08-07T09:23:19.280Z</time>
      </trkpt>
      <trkpt lat="46.913" lon="8.66515">
        <ele>1617</ele>
        <time>2021-08-07T09:23:20.281Z</time>
      </trkpt>
      <trkpt lat="46.913" lon="8.66515">
        <ele>1618</ele>
        <time>2021-08-07T09:23:21.281Z</time>
      </trkpt>
      <trkpt lat="46.913" lon="8.66515">
        <ele>1619</ele>
        <time>2021-08-07T09:23:22.281Z</time>
      </trkpt>
      <trkpt lat="46.91298" lon="8.66513">
        <ele>1622</ele>
        <time>2021-08-07T09:23:23.281Z</time>
      </trkpt>
      <trkpt lat="46.91299" lon="8.66512">
        <ele>1622</ele>
        <time>2021-08-07T09:23:24.280Z</time>
      </trkpt>
      <trkpt lat="46.91299" lon="8.66512">
        <ele>1622</ele>
        <time>2021-08-07T09:23:25.280Z</time>
      </trkpt>
      <trkpt lat="46.913" lon="8.66513">
        <ele>1622</ele>
        <time>2021-08-07T09:23:26.281Z</time>
      </trkpt>
      <trkpt lat="46.913" lon="8.66514">
        <ele>1623</ele>
        <time>2021-08-07T09:23:27.280Z</time>
      </trkpt>
      <trkpt lat="46.913" lon="8.66514">
        <ele>1623</ele>
        <time>2021-08-07T09:23:28.281Z</time>
      </trkpt>
      <trkpt lat="46.91299" lon="8.66515">
        <ele>1621</ele>
        <time>2021-08-07T09:23:29.280Z</time>
      </trkpt>
      <trkpt lat="46.91299" lon="8.66515">
        <ele>1621</ele>
        <time>2021-08-07T09:23:30.280Z</time>
      </trkpt>
      <trkpt lat="46.91296" lon="8.66517">
        <ele>1618</ele>
        <time>2021-08-07T09:23:31.280Z</time>
      </trkpt>
      <trkpt lat="46.91297" lon="8.66517">
        <ele>1617</ele>
        <time>2021-08-07T09:23:32.280Z</time>
      </trkpt>
      <trkpt lat="46.91296" lon="8.66517">
        <ele>1617</ele>
        <time>2021-08-07T09:23:33.280Z</time>
      </trkpt>
      <trkpt lat="46.91295" lon="8.66516">
        <ele>1617</ele>
        <time>2021-08-07T09:23:34.281Z</time>
      </trkpt>
      <trkpt lat="46.91294" lon="8.66516">
        <ele>1617</ele>
        <time>2021-08-07T09:23:35.280Z</time>
      </trkpt>
      <trkpt lat="46.91294" lon="8.66515">
        <ele>1618</ele>
        <time>2021-08-07T09:23:36.281Z</time>
      </trkpt>
      <trkpt lat="46.91294" lon="8.66515">
        <ele>1618</ele>
        <time>2021-08-07T09:23:37.281Z</time>
      </trkpt>
      <trkpt lat="46.91294" lon="8.66517">
        <ele>1616</ele>
        <time>2021-08-07T09:23:38.283Z</time>
      </trkpt>
      <trkpt lat="46.91295" lon="8.66517">
        <ele>1616</ele>
        <time>2021-08-07T09:23:39.283Z</time>
      </trkpt>
      <trkpt lat="46.91295" lon="8.66517">
        <ele>1616</ele>
        <time>2021-08-07T09:23:40.282Z</time>
      </trkpt>
      <trkpt lat="46.91295" lon="8.66517">
        <ele>1617</ele>
        <time>2021-08-07T09:23:41.284Z</time>
      </trkpt>
      <trkpt lat="46.91295" lon="8.66516">
        <ele>1617</ele>
        <time>2021-08-07T09:23:42.284Z</time>
      </trkpt>
      <trkpt lat="46.91295" lon="8.66516">
        <ele>1616</ele>
        <time>2021-08-07T09:23:43.283Z</time>
      </trkpt>
      <trkpt lat="46.91297" lon="8.66517">
        <ele>1614</ele>
        <time>2021-08-07T09:23:44.285Z</time>
      </trkpt>
      <trkpt lat="46.91297" lon="8.66517">
        <ele>1614</ele>
        <time>2021-08-07T09:23:45.285Z</time>
      </trkpt>
      <trkpt lat="46.91297" lon="8.66517">
        <ele>1614</ele>
        <time>2021-08-07T09:23:46.284Z</time>
      </trkpt>
      <trkpt lat="46.91297" lon="8.66516">
        <ele>1614</ele>
        <time>2021-08-07T09:23:47.284Z</time>
      </trkpt>
      <trkpt lat="46.91296" lon="8.66516">
        <ele>1616</ele>
        <time>2021-08-07T09:23:48.287Z</time>
      </trkpt>
      <trkpt lat="46.91296" lon="8.66516">
        <ele>1616</ele>
        <time>2021-08-07T09:23:49.287Z</time>
      </trkpt>
      <trkpt lat="46.91297" lon="8.66517">
        <ele>1616</ele>
        <time>2021-08-07T09:23:50.287Z</time>
      </trkpt>
      <trkpt lat="46.91295" lon="8.66518">
        <ele>1618</ele>
        <time>2021-08-07T09:23:51.288Z</time>
      </trkpt>
      <trkpt lat="46.91297" lon="8.66518">
        <ele>1618</ele>
        <time>2021-08-07T09:23:52.287Z</time>
      </trkpt>
      <trkpt lat="46.91298" lon="8.66518">
        <ele>1618</ele>
        <time>2021-08-07T09:23:53.287Z</time>
      </trkpt>
      <trkpt lat="46.91298" lon="8.66519">
        <ele>1619</ele>
        <time>2021-08-07T09:23:58.420Z</time>
      </trkpt>
      <trkpt lat="46.91299" lon="8.66519">
        <ele>1619</ele>
        <time>2021-08-07T09:23:59.421Z</time>
      </trkpt>
      <trkpt lat="46.913" lon="8.66519">
        <ele>1619</ele>
        <time>2021-08-07T09:24:00.421Z</time>
      </trkpt>
      <trkpt lat="46.913" lon="8.66519">
        <ele>1619</ele>
        <time>2021-08-07T09:24:01.421Z</time>
      </trkpt>
      <trkpt lat="46.91299" lon="8.66519">
        <ele>1620</ele>
        <time>2021-08-07T09:24:02.420Z</time>
      </trkpt>
      <trkpt lat="46.91299" lon="8.66519">
        <ele>1620</ele>
        <time>2021-08-07T09:24:03.421Z</time>
      </trkpt>
      <trkpt lat="46.91299" lon="8.6652">
        <ele>1620</ele>
        <time>2021-08-07T09:24:12.562Z</time>
      </trkpt>
      <trkpt lat="46.91299" lon="8.6652">
        <ele>1620</ele>
        <time>2021-08-07T09:24:13.563Z</time>
      </trkpt>
      <trkpt lat="46.91298" lon="8.6652">
        <ele>1620</ele>
        <time>2021-08-07T09:24:14.562Z</time>
      </trkpt>
      <trkpt lat="46.91298" lon="8.6652">
        <ele>1622</ele>
        <time>2021-08-07T09:24:15.562Z</time>
      </trkpt>
      <trkpt lat="46.91296" lon="8.66516">
        <ele>1618</ele>
        <time>2021-08-07T09:24:21.652Z</time>
      </trkpt>
      <trkpt lat="46.91296" lon="8.66516">
        <ele>1618</ele>
        <time>2021-08-07T09:24:22.652Z</time>
      </trkpt>
      <trkpt lat="46.91296" lon="8.66516">
        <ele>1618</ele>
        <time>2021-08-07T09:24:23.652Z</time>
      </trkpt>
      <trkpt lat="46.91296" lon="8.66515">
        <ele>1622</ele>
        <time>2021-08-07T09:24:38.671Z</time>
      </trkpt>
      <trkpt lat="46.91296" lon="8.66515">
        <ele>1622</ele>
        <time>2021-08-07T09:24:39.670Z</time>
      </trkpt>
      <trkpt lat="46.91296" lon="8.66515">
        <ele>1622</ele>
        <time>2021-08-07T09:24:40.670Z</time>
      </trkpt>
      <trkpt lat="46.91296" lon="8.66515">
        <ele>1621</ele>
        <time>2021-08-07T09:24:41.671Z</time>
      </trkpt>
      <trkpt lat="46.91296" lon="8.66515">
        <ele>1621</ele>
        <time>2021-08-07T09:24:42.671Z</time>
      </trkpt>
      <trkpt lat="46.91296" lon="8.66516">
        <ele>1619</ele>
        <time>2021-08-07T09:24:43.672Z</time>
      </trkpt>
      <trkpt lat="46.91296" lon="8.66515">
        <ele>1619</ele>
        <time>2021-08-07T09:24:44.671Z</time>
      </trkpt>
      <trkpt lat="46.91296" lon="8.66515">
        <ele>1622</ele>
        <time>2021-08-07T09:24:45.673Z</time>
      </trkpt>
      <trkpt lat="46.91296" lon="8.66515">
        <ele>1622</ele>
        <time>2021-08-07T09:24:46.672Z</time>
      </trkpt>
      <trkpt lat="46.91296" lon="8.66515">
        <ele>1622</ele>
        <time>2021-08-07T09:24:48.814Z</time>
      </trkpt>
      <trkpt lat="46.91295" lon="8.66514">
        <ele>1619</ele>
        <time>2021-08-07T09:24:49.815Z</time>
      </trkpt>
      <trkpt lat="46.91295" lon="8.66514">
        <ele>1619</ele>
        <time>2021-08-07T09:24:50.814Z</time>
      </trkpt>
      <trkpt lat="46.91296" lon="8.66514">
        <ele>1619</ele>
        <time>2021-08-07T09:24:51.814Z</time>
      </trkpt>
      <trkpt lat="46.91295" lon="8.66514">
        <ele>1618</ele>
        <time>2021-08-07T09:24:52.814Z</time>
      </trkpt>
      <trkpt lat="46.91295" lon="8.66514">
        <ele>1618</ele>
        <time>2021-08-07T09:24:53.814Z</time>
      </trkpt>
      <trkpt lat="46.91295" lon="8.66513">
        <ele>1621</ele>
        <time>2021-08-07T09:24:54.815Z</time>
      </trkpt>
      <trkpt lat="46.91295" lon="8.66513">
        <ele>1621</ele>
        <time>2021-08-07T09:24:55.815Z</time>
      </trkpt>
      <trkpt lat="46.91294" lon="8.66512">
        <ele>1621</ele>
        <time>2021-08-07T09:24:56.814Z</time>
      </trkpt>
      <trkpt lat="46.91293" lon="8.66512">
        <ele>1623</ele>
        <time>2021-08-07T09:24:57.817Z</time>
      </trkpt>
      <trkpt lat="46.91293" lon="8.66512">
        <ele>1623</ele>
        <time>2021-08-07T09:24:58.816Z</time>
      </trkpt>
      <trkpt lat="46.91295" lon="8.66512">
        <ele>1623</ele>
        <time>2021-08-07T09:24:59.817Z</time>
      </trkpt>
      <trkpt lat="46.91296" lon="8.66512">
        <ele>1623</ele>
        <time>2021-08-07T09:25:00.816Z</time>
      </trkpt>
      <trkpt lat="46.91295" lon="8.66511">
        <ele>1624</ele>
        <time>2021-08-07T09:25:01.817Z</time>
      </trkpt>
      <trkpt lat="46.91295" lon="8.66511">
        <ele>1624</ele>
        <time>2021-08-07T09:25:02.817Z</time>
      </trkpt>
      <trkpt lat="46.91295" lon="8.66511">
        <ele>1624</ele>
        <time>2021-08-07T09:25:03.817Z</time>
      </trkpt>
      <trkpt lat="46.91294" lon="8.66513">
        <ele>1622</ele>
        <time>2021-08-07T09:25:07.915Z</time>
      </trkpt>
      <trkpt lat="46.91294" lon="8.66514">
        <ele>1622</ele>
        <time>2021-08-07T09:25:08.914Z</time>
      </trkpt>
      <trkpt lat="46.91295" lon="8.66514">
        <ele>1622</ele>
        <time>2021-08-07T09:25:09.914Z</time>
      </trkpt>
      <trkpt lat="46.91295" lon="8.66514">
        <ele>1623</ele>
        <time>2021-08-07T09:25:10.915Z</time>
      </trkpt>
      <trkpt lat="46.91295" lon="8.66514">
        <ele>1623</ele>
        <time>2021-08-07T09:25:11.914Z</time>
      </trkpt>
      <trkpt lat="46.91295" lon="8.66514">
        <ele>1624</ele>
        <time>2021-08-07T09:25:12.914Z</time>
      </trkpt>
      <trkpt lat="46.91296" lon="8.66514">
        <ele>1625</ele>
        <time>2021-08-07T09:25:13.915Z</time>
      </trkpt>
      <trkpt lat="46.91296" lon="8.66514">
        <ele>1625</ele>
        <time>2021-08-07T09:25:14.914Z</time>
      </trkpt>
      <trkpt lat="46.91296" lon="8.66514">
        <ele>1626</ele>
        <time>2021-08-07T09:25:15.915Z</time>
      </trkpt>
      <trkpt lat="46.91294" lon="8.66517">
        <ele>1618</ele>
        <time>2021-08-07T09:25:16.915Z</time>
      </trkpt>
      <trkpt lat="46.91294" lon="8.66516">
        <ele>1618</ele>
        <time>2021-08-07T09:25:17.915Z</time>
      </trkpt>
      <trkpt lat="46.91294" lon="8.66516">
        <ele>1618</ele>
        <time>2021-08-07T09:25:18.915Z</time>
      </trkpt>
      <trkpt lat="46.91294" lon="8.66516">
        <ele>1621</ele>
        <time>2021-08-07T09:25:19.916Z</time>
      </trkpt>
      <trkpt lat="46.91294" lon="8.66516">
        <ele>1621</ele>
        <time>2021-08-07T09:25:20.916Z</time>
      </trkpt>
      <trkpt lat="46.91294" lon="8.66516">
        <ele>1621</ele>
        <time>2021-08-07T09:25:21.916Z</time>
      </trkpt>
      <trkpt lat="46.91294" lon="8.66515">
        <ele>1620</ele>
        <time>2021-08-07T09:25:22.916Z</time>
      </trkpt>
      <trkpt lat="46.91293" lon="8.66515">
        <ele>1620</ele>
        <time>2021-08-07T09:25:23.917Z</time>
      </trkpt>
      <trkpt lat="46.91292" lon="8.66515">
        <ele>1620</ele>
        <time>2021-08-07T09:25:24.916Z</time>
      </trkpt>
      <trkpt lat="46.91293" lon="8.66515">
        <ele>1620</ele>
        <time>2021-08-07T09:25:25.916Z</time>
      </trkpt>
      <trkpt lat="46.91293" lon="8.66516">
        <ele>1620</ele>
        <time>2021-08-07T09:25:26.916Z</time>
      </trkpt>
      <trkpt lat="46.91295" lon="8.66515">
        <ele>1623</ele>
        <time>2021-08-07T09:25:27.916Z</time>
      </trkpt>
      <trkpt lat="46.91295" lon="8.66515">
        <ele>1624</ele>
        <time>2021-08-07T09:25:28.916Z</time>
      </trkpt>
      <trkpt lat="46.91295" lon="8.66515">
        <ele>1624</ele>
        <time>2021-08-07T09:25:29.917Z</time>
      </trkpt>
      <trkpt lat="46.91294" lon="8.66516">
        <ele>1618</ele>
        <time>2021-08-07T09:25:30.917Z</time>
      </trkpt>
      <trkpt lat="46.91292" lon="8.66517">
        <ele>1617</ele>
        <time>2021-08-07T09:25:31.918Z</time>
      </trkpt>
      <trkpt lat="46.91292" lon="8.66517">
        <ele>1617</ele>
        <time>2021-08-07T09:25:32.917Z</time>
      </trkpt>
      <trkpt lat="46.91291" lon="8.66516">
        <ele>1617</ele>
        <time>2021-08-07T09:25:33.917Z</time>
      </trkpt>
      <trkpt lat="46.9129" lon="8.66516">
        <ele>1618</ele>
        <time>2021-08-07T09:25:34.918Z</time>
      </trkpt>
      <trkpt lat="46.9129" lon="8.66515">
        <ele>1618</ele>
        <time>2021-08-07T09:25:35.918Z</time>
      </trkpt>
      <trkpt lat="46.91289" lon="8.66515">
        <ele>1619</ele>
        <time>2021-08-07T09:25:36.918Z</time>
      </trkpt>
      <trkpt lat="46.91289" lon="8.66514">
        <ele>1620</ele>
        <time>2021-08-07T09:25:37.918Z</time>
      </trkpt>
      <trkpt lat="46.91289" lon="8.66514">
        <ele>1620</ele>
        <time>2021-08-07T09:25:38.917Z</time>
      </trkpt>
      <trkpt lat="46.9129" lon="8.66514">
        <ele>1621</ele>
        <time>2021-08-07T09:25:39.917Z</time>
      </trkpt>
      <trkpt lat="46.9129" lon="8.66514">
        <ele>1621</ele>
        <time>2021-08-07T09:25:49.041Z</time>
      </trkpt>
      <trkpt lat="46.91291" lon="8.66514">
        <ele>1621</ele>
        <time>2021-08-07T09:25:50.040Z</time>
      </trkpt>
      <trkpt lat="46.91291" lon="8.66513">
        <ele>1621</ele>
        <time>2021-08-07T09:25:51.041Z</time>
      </trkpt>
      <trkpt lat="46.91294" lon="8.66515">
        <ele>1620</ele>
        <time>2021-08-07T09:25:52.042Z</time>
      </trkpt>
      <trkpt lat="46.91294" lon="8.66515">
        <ele>1620</ele>
        <time>2021-08-07T09:25:53.042Z</time>
      </trkpt>
      <trkpt lat="46.91294" lon="8.66516">
        <ele>1618</ele>
        <time>2021-08-07T09:25:54.042Z</time>
      </trkpt>
      <trkpt lat="46.91295" lon="8.66515">
        <ele>1616</ele>
        <time>2021-08-07T09:25:56.171Z</time>
      </trkpt>
      <trkpt lat="46.91294" lon="8.66515">
        <ele>1620</ele>
        <time>2021-08-07T09:25:57.170Z</time>
      </trkpt>
      <trkpt lat="46.91298" lon="8.66516">
        <ele>1619</ele>
        <time>2021-08-07T09:25:58.171Z</time>
      </trkpt>
      <trkpt lat="46.91298" lon="8.66516">
        <ele>1619</ele>
        <time>2021-08-07T09:25:59.171Z</time>
      </trkpt>
      <trkpt lat="46.91298" lon="8.66516">
        <ele>1619</ele>
        <time>2021-08-07T09:26:07.289Z</time>
      </trkpt>
      <trkpt lat="46.91292" lon="8.66517">
        <ele>1618</ele>
        <time>2021-08-07T09:26:08.289Z</time>
      </trkpt>
      <trkpt lat="46.91292" lon="8.66517">
        <ele>1619</ele>
        <time>2021-08-07T09:26:09.290Z</time>
      </trkpt>
      <trkpt lat="46.91291" lon="8.66517">
        <ele>1619</ele>
        <time>2021-08-07T09:26:11.402Z</time>
      </trkpt>
      <trkpt lat="46.91291" lon="8.66517">
        <ele>1619</ele>
        <time>2021-08-07T09:26:12.402Z</time>
      </trkpt>
      <trkpt lat="46.91291" lon="8.66517">
        <ele>1619</ele>
        <time>2021-08-07T09:26:13.403Z</time>
      </trkpt>
      <trkpt lat="46.91292" lon="8.66517">
        <ele>1619</ele>
        <time>2021-08-07T09:26:14.403Z</time>
      </trkpt>
      <trkpt lat="46.91291" lon="8.66517">
        <ele>1620</ele>
        <time>2021-08-07T09:26:15.403Z</time>
      </trkpt>
      <trkpt lat="46.91291" lon="8.66517">
        <ele>1620</ele>
        <time>2021-08-07T09:26:16.402Z</time>
      </trkpt>
      <trkpt lat="46.91295" lon="8.66521">
        <ele>1615</ele>
        <time>2021-08-07T09:26:17.403Z</time>
      </trkpt>
      <trkpt lat="46.91295" lon="8.66521">
        <ele>1614</ele>
        <time>2021-08-07T09:26:18.403Z</time>
      </trkpt>
      <trkpt lat="46.91296" lon="8.66519">
        <ele>1612</ele>
        <time>2021-08-07T09:26:19.403Z</time>
      </trkpt>
      <trkpt lat="46.91296" lon="8.66518">
        <ele>1612</ele>
        <time>2021-08-07T09:26:20.403Z</time>
      </trkpt>
      <trkpt lat="46.91296" lon="8.66518">
        <ele>1613</ele>
        <time>2021-08-07T09:26:21.279Z</time>
      </trkpt>
      <trkpt lat="46.91293" lon="8.66518">
        <ele>1618</ele>
        <time>2021-08-07T09:26:22.280Z</time>
      </trkpt>
      <trkpt lat="46.91292" lon="8.66518">
        <ele>1618</ele>
        <time>2021-08-07T09:26:23.279Z</time>
      </trkpt>
      <trkpt lat="46.91292" lon="8.66518">
        <ele>1618</ele>
        <time>2021-08-07T09:26:24.279Z</time>
      </trkpt>
      <trkpt lat="46.91294" lon="8.66519">
        <ele>1617</ele>
        <time>2021-08-07T09:26:25.280Z</time>
      </trkpt>
      <trkpt lat="46.91295" lon="8.66519">
        <ele>1620</ele>
        <time>2021-08-07T09:26:26.279Z</time>
      </trkpt>
      <trkpt lat="46.91298" lon="8.66518">
        <ele>1619</ele>
        <time>2021-08-07T09:26:27.281Z</time>
      </trkpt>
      <trkpt lat="46.91297" lon="8.66519">
        <ele>1618</ele>
        <time>2021-08-07T09:26:28.282Z</time>
      </trkpt>
      <trkpt lat="46.91297" lon="8.6652">
        <ele>1618</ele>
        <time>2021-08-07T09:26:29.282Z</time>
      </trkpt>
      <trkpt lat="46.91297" lon="8.6652">
        <ele>1618</ele>
        <time>2021-08-07T09:26:30.282Z</time>
      </trkpt>
      <trkpt lat="46.91297" lon="8.6652">
        <ele>1618</ele>
        <time>2021-08-07T09:26:31.282Z</time>
      </trkpt>
      <trkpt lat="46.91296" lon="8.66519">
        <ele>1618</ele>
        <time>2021-08-07T09:26:32.282Z</time>
      </trkpt>
      <trkpt lat="46.91296" lon="8.66518">
        <ele>1621</ele>
        <time>2021-08-07T09:26:33.283Z</time>
      </trkpt>
      <trkpt lat="46.91296" lon="8.66518">
        <ele>1621</ele>
        <time>2021-08-07T09:26:34.283Z</time>
      </trkpt>
      <trkpt lat="46.91294" lon="8.66516">
        <ele>1624</ele>
        <time>2021-08-07T09:26:35.282Z</time>
      </trkpt>
      <trkpt lat="46.91294" lon="8.66515">
        <ele>1624</ele>
        <time>2021-08-07T09:26:36.282Z</time>
      </trkpt>
      <trkpt lat="46.91294" lon="8.66515">
        <ele>1625</ele>
        <time>2021-08-07T09:26:37.283Z</time>
      </trkpt>
      <trkpt lat="46.91293" lon="8.66515">
        <ele>1625</ele>
        <time>2021-08-07T09:26:38.284Z</time>
      </trkpt>
      <trkpt lat="46.91293" lon="8.66515">
        <ele>1625</ele>
        <time>2021-08-07T09:26:39.284Z</time>
      </trkpt>
      <trkpt lat="46.91293" lon="8.66515">
        <ele>1625</ele>
        <time>2021-08-07T09:26:40.283Z</time>
      </trkpt>
      <trkpt lat="46.91294" lon="8.66516">
        <ele>1625</ele>
        <time>2021-08-07T09:26:41.283Z</time>
      </trkpt>
      <trkpt lat="46.91294" lon="8.66514">
        <ele>1621</ele>
        <time>2021-08-07T09:26:42.285Z</time>
      </trkpt>
      <trkpt lat="46.91294" lon="8.66514">
        <ele>1621</ele>
        <time>2021-08-07T09:26:44.429Z</time>
      </trkpt>
      <trkpt lat="46.91294" lon="8.66514">
        <ele>1622</ele>
        <time>2021-08-07T09:26:45.428Z</time>
      </trkpt>
      <trkpt lat="46.91293" lon="8.66515">
        <ele>1622</ele>
        <time>2021-08-07T09:26:46.429Z</time>
      </trkpt>
      <trkpt lat="46.91293" lon="8.66514">
        <ele>1623</ele>
        <time>2021-08-07T09:26:47.428Z</time>
      </trkpt>
      <trkpt lat="46.91293" lon="8.66515">
        <ele>1623</ele>
        <time>2021-08-07T09:26:48.428Z</time>
      </trkpt>
      <trkpt lat="46.91293" lon="8.66515">
        <ele>1624</ele>
        <time>2021-08-07T09:26:49.429Z</time>
      </trkpt>
      <trkpt lat="46.91292" lon="8.66515">
        <ele>1624</ele>
        <time>2021-08-07T09:26:50.429Z</time>
      </trkpt>
      <trkpt lat="46.91293" lon="8.66515">
        <ele>1625</ele>
        <time>2021-08-07T09:26:51.430Z</time>
      </trkpt>
      <trkpt lat="46.91294" lon="8.66516">
        <ele>1624</ele>
        <time>2021-08-07T09:26:52.429Z</time>
      </trkpt>
      <trkpt lat="46.91295" lon="8.66516">
        <ele>1624</ele>
        <time>2021-08-07T09:26:53.430Z</time>
      </trkpt>
      <trkpt lat="46.91295" lon="8.66517">
        <ele>1623</ele>
        <time>2021-08-07T09:26:54.429Z</time>
      </trkpt>
      <trkpt lat="46.91295" lon="8.66517">
        <ele>1623</ele>
        <time>2021-08-07T09:26:55.430Z</time>
      </trkpt>
      <trkpt lat="46.91295" lon="8.66517">
        <ele>1623</ele>
        <time>2021-08-07T09:26:56.430Z</time>
      </trkpt>
      <trkpt lat="46.91295" lon="8.66518">
        <ele>1619</ele>
        <time>2021-08-07T09:26:57.429Z</time>
      </trkpt>
      <trkpt lat="46.91296" lon="8.66518">
        <ele>1619</ele>
        <time>2021-08-07T09:26:58.430Z</time>
      </trkpt>
      <trkpt lat="46.91296" lon="8.66518">
        <ele>1619</ele>
        <time>2021-08-07T09:26:59.429Z</time>
      </trkpt>
      <trkpt lat="46.91296" lon="8.66518">
        <ele>1619</ele>
        <time>2021-08-07T09:27:00.429Z</time>
      </trkpt>
      <trkpt lat="46.91295" lon="8.66516">
        <ele>1616</ele>
        <time>2021-08-07T09:27:01.431Z</time>
      </trkpt>
      <trkpt lat="46.91295" lon="8.66516">
        <ele>1616</ele>
        <time>2021-08-07T09:27:02.431Z</time>
      </trkpt>
      <trkpt lat="46.91295" lon="8.66517">
        <ele>1615</ele>
        <time>2021-08-07T09:27:03.430Z</time>
      </trkpt>
      <trkpt lat="46.91297" lon="8.66516">
        <ele>1620</ele>
        <time>2021-08-07T09:27:04.433Z</time>
      </trkpt>
      <trkpt lat="46.91297" lon="8.66517">
        <ele>1620</ele>
        <time>2021-08-07T09:27:05.434Z</time>
      </trkpt>
      <trkpt lat="46.91296" lon="8.66517">
        <ele>1620</ele>
        <time>2021-08-07T09:27:06.434Z</time>
      </trkpt>
      <trkpt lat="46.91296" lon="8.66517">
        <ele>1620</ele>
        <time>2021-08-07T09:27:07.434Z</time>
      </trkpt>
      <trkpt lat="46.91296" lon="8.66517">
        <ele>1620</ele>
        <time>2021-08-07T09:27:08.433Z</time>
      </trkpt>
      <trkpt lat="46.91296" lon="8.66517">
        <ele>1620</ele>
        <time>2021-08-07T09:27:09.433Z</time>
      </trkpt>
      <trkpt lat="46.91295" lon="8.66516">
        <ele>1620</ele>
        <time>2021-08-07T09:27:10.433Z</time>
      </trkpt>
      <trkpt lat="46.91295" lon="8.66515">
        <ele>1620</ele>
        <time>2021-08-07T09:27:11.433Z</time>
      </trkpt>
      <trkpt lat="46.91295" lon="8.66515">
        <ele>1621</ele>
        <time>2021-08-07T09:27:12.433Z</time>
      </trkpt>
      <trkpt lat="46.91295" lon="8.66515">
        <ele>1621</ele>
        <time>2021-08-07T09:27:13.433Z</time>
      </trkpt>
      <trkpt lat="46.91296" lon="8.66515">
        <ele>1620</ele>
        <time>2021-08-07T09:27:14.434Z</time>
      </trkpt>
      <trkpt lat="46.91296" lon="8.66515">
        <ele>1620</ele>
        <time>2021-08-07T09:27:15.434Z</time>
      </trkpt>
      <trkpt lat="46.91296" lon="8.66515">
        <ele>1620</ele>
        <time>2021-08-07T09:27:16.435Z</time>
      </trkpt>
      <trkpt lat="46.91295" lon="8.66516">
        <ele>1622</ele>
        <time>2021-08-07T09:27:17.436Z</time>
      </trkpt>
      <trkpt lat="46.91295" lon="8.66516">
        <ele>1622</ele>
        <time>2021-08-07T09:27:18.435Z</time>
      </trkpt>
      <trkpt lat="46.91296" lon="8.66515">
        <ele>1621</ele>
        <time>2021-08-07T09:27:19.436Z</time>
      </trkpt>
      <trkpt lat="46.91296" lon="8.66515">
        <ele>1621</ele>
        <time>2021-08-07T09:27:20.436Z</time>
      </trkpt>
      <trkpt lat="46.91297" lon="8.66514">
        <ele>1622</ele>
        <time>2021-08-07T09:27:21.435Z</time>
      </trkpt>
      <trkpt lat="46.91297" lon="8.66514">
        <ele>1622</ele>
        <time>2021-08-07T09:27:22.436Z</time>
      </trkpt>
      <trkpt lat="46.91298" lon="8.66515">
        <ele>1622</ele>
        <time>2021-08-07T09:27:23.437Z</time>
      </trkpt>
      <trkpt lat="46.91298" lon="8.66515">
        <ele>1622</ele>
        <time>2021-08-07T09:27:24.437Z</time>
      </trkpt>
      <trkpt lat="46.91298" lon="8.66516">
        <ele>1617</ele>
        <time>2021-08-07T09:27:25.438Z</time>
      </trkpt>
      <trkpt lat="46.91298" lon="8.66517">
        <ele>1617</ele>
        <time>2021-08-07T09:27:26.437Z</time>
      </trkpt>
      <trkpt lat="46.91298" lon="8.66517">
        <ele>1616</ele>
        <time>2021-08-07T09:27:27.437Z</time>
      </trkpt>
      <trkpt lat="46.91298" lon="8.66517">
        <ele>1615</ele>
        <time>2021-08-07T09:27:28.437Z</time>
      </trkpt>
      <trkpt lat="46.91297" lon="8.66517">
        <ele>1615</ele>
        <time>2021-08-07T09:27:29.439Z</time>
      </trkpt>
      <trkpt lat="46.91296" lon="8.66516">
        <ele>1616</ele>
        <time>2021-08-07T09:27:30.439Z</time>
      </trkpt>
      <trkpt lat="46.91296" lon="8.66517">
        <ele>1617</ele>
        <time>2021-08-07T09:27:31.438Z</time>
      </trkpt>
      <trkpt lat="46.91297" lon="8.66518">
        <ele>1617</ele>
        <time>2021-08-07T09:27:32.439Z</time>
      </trkpt>
      <trkpt lat="46.91297" lon="8.66518">
        <ele>1617</ele>
        <time>2021-08-07T09:27:50.562Z</time>
      </trkpt>
      <trkpt lat="46.91298" lon="8.66518">
        <ele>1616</ele>
        <time>2021-08-07T09:27:51.562Z</time>
      </trkpt>
      <trkpt lat="46.91297" lon="8.66517">
        <ele>1618</ele>
        <time>2021-08-07T09:27:52.564Z</time>
      </trkpt>
      <trkpt lat="46.91294" lon="8.66516">
        <ele>1623</ele>
        <time>2021-08-07T09:28:06.710Z</time>
      </trkpt>
      <trkpt lat="46.91294" lon="8.66516">
        <ele>1623</ele>
        <time>2021-08-07T09:28:07.710Z</time>
      </trkpt>
      <trkpt lat="46.91295" lon="8.66516">
        <ele>1623</ele>
        <time>2021-08-07T09:28:08.709Z</time>
      </trkpt>
      <trkpt lat="46.91296" lon="8.66517">
        <ele>1619</ele>
        <time>2021-08-07T09:28:09.712Z</time>
      </trkpt>
      <trkpt lat="46.91296" lon="8.66517">
        <ele>1619</ele>
        <time>2021-08-07T09:28:34.811Z</time>
      </trkpt>
      <trkpt lat="46.91296" lon="8.66516">
        <ele>1618</ele>
        <time>2021-08-07T09:28:35.811Z</time>
      </trkpt>
      <trkpt lat="46.91296" lon="8.66516">
        <ele>1618</ele>
        <time>2021-08-07T09:28:36.811Z</time>
      </trkpt>
      <trkpt lat="46.91296" lon="8.66516">
        <ele>1618</ele>
        <time>2021-08-07T09:28:37.811Z</time>
      </trkpt>
      <trkpt lat="46.91296" lon="8.66515">
        <ele>1618</ele>
        <time>2021-08-07T09:28:38.811Z</time>
      </trkpt>
      <trkpt lat="46.91296" lon="8.66515">
        <ele>1618</ele>
        <time>2021-08-07T09:28:42.937Z</time>
      </trkpt>
      <trkpt lat="46.91297" lon="8.66515">
        <ele>1618</ele>
        <time>2021-08-07T09:28:43.937Z</time>
      </trkpt>
      <trkpt lat="46.91297" lon="8.66515">
        <ele>1618</ele>
        <time>2021-08-07T09:29:06.796Z</time>
      </trkpt>
      <trkpt lat="46.91297" lon="8.66515">
        <ele>1618</ele>
        <time>2021-08-07T09:29:07.796Z</time>
      </trkpt>
      <trkpt lat="46.91297" lon="8.66515">
        <ele>1618</ele>
        <time>2021-08-07T09:29:08.796Z</time>
      </trkpt>
      <trkpt lat="46.91297" lon="8.66515">
        <ele>1618</ele>
        <time>2021-08-07T09:29:09.796Z</time>
      </trkpt>
      <trkpt lat="46.91296" lon="8.66516">
        <ele>1618</ele>
        <time>2021-08-07T09:29:10.796Z</time>
      </trkpt>
      <trkpt lat="46.91296" lon="8.66516">
        <ele>1618</ele>
        <time>2021-08-07T09:29:11.796Z</time>
      </trkpt>
      <trkpt lat="46.91296" lon="8.66516">
        <ele>1618</ele>
        <time>2021-08-07T09:29:15.949Z</time>
      </trkpt>
      <trkpt lat="46.91295" lon="8.66514">
        <ele>1618</ele>
        <time>2021-08-07T09:29:25.794Z</time>
      </trkpt>
      <trkpt lat="46.91295" lon="8.66514">
        <ele>1618</ele>
        <time>2021-08-07T09:29:26.795Z</time>
      </trkpt>
      <trkpt lat="46.91295" lon="8.66515">
        <ele>1618</ele>
        <time>2021-08-07T09:29:27.795Z</time>
      </trkpt>
      <trkpt lat="46.91294" lon="8.66517">
        <ele>1620</ele>
        <time>2021-08-07T09:29:28.795Z</time>
      </trkpt>
      <trkpt lat="46.91294" lon="8.66517">
        <ele>1619</ele>
        <time>2021-08-07T09:29:29.796Z</time>
      </trkpt>
      <trkpt lat="46.91296" lon="8.66519">
        <ele>1616</ele>
        <time>2021-08-07T09:29:30.797Z</time>
      </trkpt>
      <trkpt lat="46.91296" lon="8.66519">
        <ele>1616</ele>
        <time>2021-08-07T09:29:31.797Z</time>
      </trkpt>
      <trkpt lat="46.91296" lon="8.66519">
        <ele>1616</ele>
        <time>2021-08-07T09:29:32.796Z</time>
      </trkpt>
      <trkpt lat="46.91295" lon="8.66519">
        <ele>1616</ele>
        <time>2021-08-07T09:29:33.796Z</time>
      </trkpt>
      <trkpt lat="46.91295" lon="8.66514">
        <ele>1626</ele>
        <time>2021-08-07T09:29:34.796Z</time>
      </trkpt>
      <trkpt lat="46.91293" lon="8.66516">
        <ele>1618</ele>
        <time>2021-08-07T09:29:35.798Z</time>
      </trkpt>
      <trkpt lat="46.91294" lon="8.66516">
        <ele>1618</ele>
        <time>2021-08-07T09:29:36.797Z</time>
      </trkpt>
      <trkpt lat="46.91294" lon="8.66517">
        <ele>1622</ele>
        <time>2021-08-07T09:29:41.811Z</time>
      </trkpt>
      <trkpt lat="46.91294" lon="8.66517">
        <ele>1621</ele>
        <time>2021-08-07T09:29:42.810Z</time>
      </trkpt>
      <trkpt lat="46.91294" lon="8.66517">
        <ele>1621</ele>
        <time>2021-08-07T09:29:43.810Z</time>
      </trkpt>
      <trkpt lat="46.91292" lon="8.66516">
        <ele>1621</ele>
        <time>2021-08-07T09:29:44.812Z</time>
      </trkpt>
      <trkpt lat="46.91292" lon="8.66516">
        <ele>1621</ele>
        <time>2021-08-07T09:29:45.813Z</time>
      </trkpt>
      <trkpt lat="46.91292" lon="8.66517">
        <ele>1621</ele>
        <time>2021-08-07T09:29:46.812Z</time>
      </trkpt>
      <trkpt lat="46.91293" lon="8.66516">
        <ele>1622</ele>
        <time>2021-08-07T09:29:47.814Z</time>
      </trkpt>
      <trkpt lat="46.91293" lon="8.66515">
        <ele>1622</ele>
        <time>2021-08-07T09:29:48.814Z</time>
      </trkpt>
      <trkpt lat="46.91293" lon="8.66515">
        <ele>1622</ele>
        <time>2021-08-07T09:29:49.814Z</time>
      </trkpt>
      <trkpt lat="46.91293" lon="8.66514">
        <ele>1622</ele>
        <time>2021-08-07T09:29:50.815Z</time>
      </trkpt>
      <trkpt lat="46.91293" lon="8.66514">
        <ele>1622</ele>
        <time>2021-08-07T09:29:51.814Z</time>
      </trkpt>
      <trkpt lat="46.91293" lon="8.66513">
        <ele>1622</ele>
        <time>2021-08-07T09:29:52.814Z</time>
      </trkpt>
      <trkpt lat="46.9129" lon="8.66514">
        <ele>1620</ele>
        <time>2021-08-07T09:29:53.814Z</time>
      </trkpt>
      <trkpt lat="46.9129" lon="8.66514">
        <ele>1621</ele>
        <time>2021-08-07T09:29:54.815Z</time>
      </trkpt>
      <trkpt lat="46.91291" lon="8.66514">
        <ele>1621</ele>
        <time>2021-08-07T09:29:55.815Z</time>
      </trkpt>
      <trkpt lat="46.91291" lon="8.66515">
        <ele>1621</ele>
        <time>2021-08-07T09:29:56.814Z</time>
      </trkpt>
      <trkpt lat="46.91291" lon="8.66515">
        <ele>1621</ele>
        <time>2021-08-07T09:29:57.815Z</time>
      </trkpt>
      <trkpt lat="46.91291" lon="8.66515">
        <ele>1621</ele>
        <time>2021-08-07T09:29:58.815Z</time>
      </trkpt>
      <trkpt lat="46.91291" lon="8.66515">
        <ele>1620</ele>
        <time>2021-08-07T09:29:59.815Z</time>
      </trkpt>
      <trkpt lat="46.91291" lon="8.66515">
        <ele>1620</ele>
        <time>2021-08-07T09:30:00.815Z</time>
      </trkpt>
      <trkpt lat="46.91292" lon="8.66515">
        <ele>1620</ele>
        <time>2021-08-07T09:30:01.815Z</time>
      </trkpt>
      <trkpt lat="46.91292" lon="8.66514">
        <ele>1619</ele>
        <time>2021-08-07T09:30:02.815Z</time>
      </trkpt>
      <trkpt lat="46.91292" lon="8.66514">
        <ele>1619</ele>
        <time>2021-08-07T09:30:03.815Z</time>
      </trkpt>
      <trkpt lat="46.91292" lon="8.66514">
        <ele>1620</ele>
        <time>2021-08-07T09:30:04.815Z</time>
      </trkpt>
      <trkpt lat="46.91294" lon="8.66515">
        <ele>1620</ele>
        <time>2021-08-07T09:30:05.815Z</time>
      </trkpt>
      <trkpt lat="46.91295" lon="8.66516">
        <ele>1620</ele>
        <time>2021-08-07T09:30:06.814Z</time>
      </trkpt>
      <trkpt lat="46.91296" lon="8.66515">
        <ele>1620</ele>
        <time>2021-08-07T09:30:07.815Z</time>
      </trkpt>
      <trkpt lat="46.91296" lon="8.66514">
        <ele>1621</ele>
        <time>2021-08-07T09:30:08.815Z</time>
      </trkpt>
      <trkpt lat="46.91297" lon="8.66514">
        <ele>1621</ele>
        <time>2021-08-07T09:30:09.815Z</time>
      </trkpt>
      <trkpt lat="46.91294" lon="8.66516">
        <ele>1619</ele>
        <time>2021-08-07T09:30:10.815Z</time>
      </trkpt>
      <trkpt lat="46.91294" lon="8.66517">
        <ele>1619</ele>
        <time>2021-08-07T09:30:11.815Z</time>
      </trkpt>
      <trkpt lat="46.91294" lon="8.66517">
        <ele>1619</ele>
        <time>2021-08-07T09:30:12.815Z</time>
      </trkpt>
      <trkpt lat="46.91295" lon="8.66517">
        <ele>1620</ele>
        <time>2021-08-07T09:30:13.816Z</time>
      </trkpt>
      <trkpt lat="46.91292" lon="8.66511">
        <ele>1618</ele>
        <time>2021-08-07T09:30:14.817Z</time>
      </trkpt>
      <trkpt lat="46.91291" lon="8.66511">
        <ele>1619</ele>
        <time>2021-08-07T09:30:15.817Z</time>
      </trkpt>
      <trkpt lat="46.91291" lon="8.66511">
        <ele>1619</ele>
        <time>2021-08-07T09:30:16.817Z</time>
      </trkpt>
      <trkpt lat="46.91291" lon="8.66511">
        <ele>1619</ele>
        <time>2021-08-07T09:30:17.817Z</time>
      </trkpt>
      <trkpt lat="46.91291" lon="8.6651">
        <ele>1620</ele>
        <time>2021-08-07T09:30:18.818Z</time>
      </trkpt>
      <trkpt lat="46.91291" lon="8.66509">
        <ele>1620</ele>
        <time>2021-08-07T09:30:19.817Z</time>
      </trkpt>
      <trkpt lat="46.91291" lon="8.66509">
        <ele>1621</ele>
        <time>2021-08-07T09:30:20.817Z</time>
      </trkpt>
      <trkpt lat="46.9129" lon="8.66509">
        <ele>1621</ele>
        <time>2021-08-07T09:30:21.817Z</time>
      </trkpt>
      <trkpt lat="46.9129" lon="8.66509">
        <ele>1621</ele>
        <time>2021-08-07T09:30:22.818Z</time>
      </trkpt>
      <trkpt lat="46.91291" lon="8.66509">
        <ele>1620</ele>
        <time>2021-08-07T09:30:23.818Z</time>
      </trkpt>
      <trkpt lat="46.91294" lon="8.66511">
        <ele>1618</ele>
        <time>2021-08-07T09:30:24.818Z</time>
      </trkpt>
      <trkpt lat="46.91293" lon="8.66511">
        <ele>1619</ele>
        <time>2021-08-07T09:30:25.819Z</time>
      </trkpt>
      <trkpt lat="46.91294" lon="8.66516">
        <ele>1619</ele>
        <time>2021-08-07T09:30:26.818Z</time>
      </trkpt>
      <trkpt lat="46.91294" lon="8.66516">
        <ele>1619</ele>
        <time>2021-08-07T09:30:27.819Z</time>
      </trkpt>
      <trkpt lat="46.91293" lon="8.66516">
        <ele>1621</ele>
        <time>2021-08-07T09:30:28.818Z</time>
      </trkpt>
      <trkpt lat="46.91293" lon="8.66516">
        <ele>1621</ele>
        <time>2021-08-07T09:30:29.818Z</time>
      </trkpt>
      <trkpt lat="46.91295" lon="8.66516">
        <ele>1621</ele>
        <time>2021-08-07T09:30:30.818Z</time>
      </trkpt>
      <trkpt lat="46.913" lon="8.66517">
        <ele>1619</ele>
        <time>2021-08-07T09:30:31.819Z</time>
      </trkpt>
      <trkpt lat="46.91299" lon="8.66516">
        <ele>1616</ele>
        <time>2021-08-07T09:30:32.819Z</time>
      </trkpt>
      <trkpt lat="46.91299" lon="8.66516">
        <ele>1617</ele>
        <time>2021-08-07T09:30:33.819Z</time>
      </trkpt>
      <trkpt lat="46.913" lon="8.66516">
        <ele>1617</ele>
        <time>2021-08-07T09:30:34.818Z</time>
      </trkpt>
      <trkpt lat="46.91296" lon="8.66516">
        <ele>1620</ele>
        <time>2021-08-07T09:30:35.818Z</time>
      </trkpt>
      <trkpt lat="46.91296" lon="8.66516">
        <ele>1620</ele>
        <time>2021-08-07T09:30:36.818Z</time>
      </trkpt>
      <trkpt lat="46.91296" lon="8.66516">
        <ele>1621</ele>
        <time>2021-08-07T09:30:37.819Z</time>
      </trkpt>
      <trkpt lat="46.91296" lon="8.66516">
        <ele>1621</ele>
        <time>2021-08-07T09:30:38.819Z</time>
      </trkpt>
      <trkpt lat="46.91296" lon="8.66516">
        <ele>1621</ele>
        <time>2021-08-07T09:30:39.819Z</time>
      </trkpt>
      <trkpt lat="46.91296" lon="8.66516">
        <ele>1621</ele>
        <time>2021-08-07T09:30:40.819Z</time>
      </trkpt>
      <trkpt lat="46.91295" lon="8.66515">
        <ele>1625</ele>
        <time>2021-08-07T09:30:41.820Z</time>
      </trkpt>
      <trkpt lat="46.91295" lon="8.66514">
        <ele>1625</ele>
        <time>2021-08-07T09:30:42.819Z</time>
      </trkpt>
      <trkpt lat="46.91296" lon="8.66515">
        <ele>1620</ele>
        <time>2021-08-07T09:30:43.822Z</time>
      </trkpt>
      <trkpt lat="46.91296" lon="8.66514">
        <ele>1619</ele>
        <time>2021-08-07T09:30:44.821Z</time>
      </trkpt>
      <trkpt lat="46.91295" lon="8.66515">
        <ele>1620</ele>
        <time>2021-08-07T09:30:45.821Z</time>
      </trkpt>
      <trkpt lat="46.91295" lon="8.66516">
        <ele>1620</ele>
        <time>2021-08-07T09:30:46.822Z</time>
      </trkpt>
      <trkpt lat="46.91295" lon="8.66516">
        <ele>1621</ele>
        <time>2021-08-07T09:30:47.822Z</time>
      </trkpt>
      <trkpt lat="46.91296" lon="8.66516">
        <ele>1622</ele>
        <time>2021-08-07T09:30:48.821Z</time>
      </trkpt>
      <trkpt lat="46.91296" lon="8.66516">
        <ele>1623</ele>
        <time>2021-08-07T09:30:49.822Z</time>
      </trkpt>
      <trkpt lat="46.91296" lon="8.66515">
        <ele>1623</ele>
        <time>2021-08-07T09:30:50.822Z</time>
      </trkpt>
      <trkpt lat="46.91296" lon="8.66515">
        <ele>1624</ele>
        <time>2021-08-07T09:30:57.936Z</time>
      </trkpt>
      <trkpt lat="46.91294" lon="8.66513">
        <ele>1624</ele>
        <time>2021-08-07T09:30:58.936Z</time>
      </trkpt>
      <trkpt lat="46.91294" lon="8.66514">
        <ele>1624</ele>
        <time>2021-08-07T09:30:59.936Z</time>
      </trkpt>
      <trkpt lat="46.91294" lon="8.66514">
        <ele>1624</ele>
        <time>2021-08-07T09:31:00.936Z</time>
      </trkpt>
      <trkpt lat="46.91294" lon="8.66514">
        <ele>1624</ele>
        <time>2021-08-07T09:31:01.937Z</time>
      </trkpt>
      <trkpt lat="46.91294" lon="8.66515">
        <ele>1622</ele>
        <time>2021-08-07T09:31:02.936Z</time>
      </trkpt>
      <trkpt lat="46.91294" lon="8.66515">
        <ele>1622</ele>
        <time>2021-08-07T09:31:03.936Z</time>
      </trkpt>
      <trkpt lat="46.91294" lon="8.66514">
        <ele>1621</ele>
        <time>2021-08-07T09:31:04.936Z</time>
      </trkpt>
      <trkpt lat="46.91294" lon="8.66517">
        <ele>1619</ele>
        <time>2021-08-07T09:31:05.937Z</time>
      </trkpt>
      <trkpt lat="46.91293" lon="8.66516">
        <ele>1619</ele>
        <time>2021-08-07T09:31:10.094Z</time>
      </trkpt>
      <trkpt lat="46.91293" lon="8.66516">
        <ele>1619</ele>
        <time>2021-08-07T09:31:11.094Z</time>
      </trkpt>
      <trkpt lat="46.91293" lon="8.66516">
        <ele>1618</ele>
        <time>2021-08-07T09:31:12.095Z</time>
      </trkpt>
      <trkpt lat="46.91293" lon="8.66516">
        <ele>1618</ele>
        <time>2021-08-07T09:31:13.094Z</time>
      </trkpt>
      <trkpt lat="46.91293" lon="8.66516">
        <ele>1618</ele>
        <time>2021-08-07T09:31:14.094Z</time>
      </trkpt>
      <trkpt lat="46.91293" lon="8.66516">
        <ele>1618</ele>
        <time>2021-08-07T09:31:15.095Z</time>
      </trkpt>
      <trkpt lat="46.91294" lon="8.66516">
        <ele>1618</ele>
        <time>2021-08-07T09:31:16.095Z</time>
      </trkpt>
      <trkpt lat="46.91294" lon="8.66515">
        <ele>1617</ele>
        <time>2021-08-07T09:31:17.095Z</time>
      </trkpt>
      <trkpt lat="46.91294" lon="8.66515">
        <ele>1617</ele>
        <time>2021-08-07T09:31:18.095Z</time>
      </trkpt>
      <trkpt lat="46.91295" lon="8.66515">
        <ele>1616</ele>
        <time>2021-08-07T09:31:19.095Z</time>
      </trkpt>
      <trkpt lat="46.91295" lon="8.66516">
        <ele>1616</ele>
        <time>2021-08-07T09:31:20.094Z</time>
      </trkpt>
      <trkpt lat="46.91298" lon="8.66515">
        <ele>1612</ele>
        <time>2021-08-07T09:31:21.095Z</time>
      </trkpt>
      <trkpt lat="46.91298" lon="8.66515">
        <ele>1612</ele>
        <time>2021-08-07T09:31:22.096Z</time>
      </trkpt>
      <trkpt lat="46.91298" lon="8.66515">
        <ele>1612</ele>
        <time>2021-08-07T09:31:23.095Z</time>
      </trkpt>
      <trkpt lat="46.91299" lon="8.66515">
        <ele>1612</ele>
        <time>2021-08-07T09:31:24.096Z</time>
      </trkpt>
      <trkpt lat="46.91299" lon="8.66515">
        <ele>1612</ele>
        <time>2021-08-07T09:31:25.095Z</time>
      </trkpt>
      <trkpt lat="46.91298" lon="8.66515">
        <ele>1613</ele>
        <time>2021-08-07T09:31:26.095Z</time>
      </trkpt>
      <trkpt lat="46.91298" lon="8.66514">
        <ele>1614</ele>
        <time>2021-08-07T09:31:27.096Z</time>
      </trkpt>
      <trkpt lat="46.91297" lon="8.66513">
        <ele>1619</ele>
        <time>2021-08-07T09:31:28.096Z</time>
      </trkpt>
      <trkpt lat="46.91297" lon="8.66516">
        <ele>1617</ele>
        <time>2021-08-07T09:31:29.096Z</time>
      </trkpt>
      <trkpt lat="46.91297" lon="8.66517">
        <ele>1616</ele>
        <time>2021-08-07T09:31:30.096Z</time>
      </trkpt>
      <trkpt lat="46.91297" lon="8.66517">
        <ele>1616</ele>
        <time>2021-08-07T09:31:31.096Z</time>
      </trkpt>
      <trkpt lat="46.91296" lon="8.66517">
        <ele>1616</ele>
        <time>2021-08-07T09:31:32.095Z</time>
      </trkpt>
      <trkpt lat="46.91296" lon="8.66517">
        <ele>1616</ele>
        <time>2021-08-07T09:31:33.096Z</time>
      </trkpt>
      <trkpt lat="46.91296" lon="8.66517">
        <ele>1616</ele>
        <time>2021-08-07T09:31:34.096Z</time>
      </trkpt>
      <trkpt lat="46.91296" lon="8.66516">
        <ele>1617</ele>
        <time>2021-08-07T09:31:35.096Z</time>
      </trkpt>
      <trkpt lat="46.91296" lon="8.66516">
        <ele>1617</ele>
        <time>2021-08-07T09:31:36.095Z</time>
      </trkpt>
      <trkpt lat="46.91296" lon="8.66516">
        <ele>1617</ele>
        <time>2021-08-07T09:31:37.096Z</time>
      </trkpt>
      <trkpt lat="46.91296" lon="8.66516">
        <ele>1617</ele>
        <time>2021-08-07T09:31:38.096Z</time>
      </trkpt>
      <trkpt lat="46.91296" lon="8.66515">
        <ele>1617</ele>
        <time>2021-08-07T09:31:39.096Z</time>
      </trkpt>
      <trkpt lat="46.91296" lon="8.66516">
        <ele>1617</ele>
        <time>2021-08-07T09:31:40.095Z</time>
      </trkpt>
      <trkpt lat="46.91296" lon="8.66516">
        <ele>1617</ele>
        <time>2021-08-07T09:31:41.096Z</time>
      </trkpt>
      <trkpt lat="46.91296" lon="8.66515">
        <ele>1617</ele>
        <time>2021-08-07T09:31:42.095Z</time>
      </trkpt>
      <trkpt lat="46.91292" lon="8.66512">
        <ele>1622</ele>
        <time>2021-08-07T09:31:43.096Z</time>
      </trkpt>
      <trkpt lat="46.91292" lon="8.66512">
        <ele>1623</ele>
        <time>2021-08-07T09:31:44.096Z</time>
      </trkpt>
      <trkpt lat="46.91292" lon="8.66512">
        <ele>1624</ele>
        <time>2021-08-07T09:31:45.096Z</time>
      </trkpt>
      <trkpt lat="46.91292" lon="8.66512">
        <ele>1624</ele>
        <time>2021-08-07T09:31:46.097Z</time>
      </trkpt>
      <trkpt lat="46.91293" lon="8.66512">
        <ele>1624</ele>
        <time>2021-08-07T09:31:47.097Z</time>
      </trkpt>
      <trkpt lat="46.91293" lon="8.66512">
        <ele>1624</ele>
        <time>2021-08-07T09:31:48.096Z</time>
      </trkpt>
      <trkpt lat="46.91293" lon="8.66512">
        <ele>1623</ele>
        <time>2021-08-07T09:31:49.096Z</time>
      </trkpt>
      <trkpt lat="46.91293" lon="8.66512">
        <ele>1623</ele>
        <time>2021-08-07T09:31:50.097Z</time>
      </trkpt>
      <trkpt lat="46.91293" lon="8.66512">
        <ele>1623</ele>
        <time>2021-08-07T09:31:51.096Z</time>
      </trkpt>
      <trkpt lat="46.91294" lon="8.66511">
        <ele>1623</ele>
        <time>2021-08-07T09:31:52.097Z</time>
      </trkpt>
      <trkpt lat="46.91294" lon="8.66511">
        <ele>1624</ele>
        <time>2021-08-07T09:31:53.096Z</time>
      </trkpt>
      <trkpt lat="46.91295" lon="8.6651">
        <ele>1624</ele>
        <time>2021-08-07T09:31:54.096Z</time>
      </trkpt>
      <trkpt lat="46.91295" lon="8.66509">
        <ele>1624</ele>
        <time>2021-08-07T09:31:55.096Z</time>
      </trkpt>
      <trkpt lat="46.91295" lon="8.66508">
        <ele>1624</ele>
        <time>2021-08-07T09:31:56.097Z</time>
      </trkpt>
      <trkpt lat="46.91296" lon="8.66507">
        <ele>1623</ele>
        <time>2021-08-07T09:31:57.097Z</time>
      </trkpt>
      <trkpt lat="46.91296" lon="8.66506">
        <ele>1623</ele>
        <time>2021-08-07T09:31:58.097Z</time>
      </trkpt>
      <trkpt lat="46.91296" lon="8.66505">
        <ele>1622</ele>
        <time>2021-08-07T09:31:59.096Z</time>
      </trkpt>
      <trkpt lat="46.91297" lon="8.66504">
        <ele>1622</ele>
        <time>2021-08-07T09:32:00.097Z</time>
      </trkpt>
      <trkpt lat="46.91297" lon="8.66504">
        <ele>1621</ele>
        <time>2021-08-07T09:32:01.096Z</time>
      </trkpt>
      <trkpt lat="46.91297" lon="8.66503">
        <ele>1621</ele>
        <time>2021-08-07T09:32:02.096Z</time>
      </trkpt>
      <trkpt lat="46.91297" lon="8.66502">
        <ele>1620</ele>
        <time>2021-08-07T09:32:03.096Z</time>
      </trkpt>
      <trkpt lat="46.91297" lon="8.66501">
        <ele>1620</ele>
        <time>2021-08-07T09:32:04.097Z</time>
      </trkpt>
      <trkpt lat="46.91297" lon="8.66501">
        <ele>1620</ele>
        <time>2021-08-07T09:32:05.097Z</time>
      </trkpt>
      <trkpt lat="46.91297" lon="8.66501">
        <ele>1619</ele>
        <time>2021-08-07T09:32:06.097Z</time>
      </trkpt>
      <trkpt lat="46.91298" lon="8.66499">
        <ele>1619</ele>
        <time>2021-08-07T09:32:07.097Z</time>
      </trkpt>
      <trkpt lat="46.91298" lon="8.66499">
        <ele>1618</ele>
        <time>2021-08-07T09:32:08.096Z</time>
      </trkpt>
      <trkpt lat="46.91298" lon="8.66498">
        <ele>1618</ele>
        <time>2021-08-07T09:32:09.096Z</time>
      </trkpt>
      <trkpt lat="46.91298" lon="8.66498">
        <ele>1618</ele>
        <time>2021-08-07T09:32:10.096Z</time>
      </trkpt>
      <trkpt lat="46.91298" lon="8.66497">
        <ele>1618</ele>
        <time>2021-08-07T09:32:11.096Z</time>
      </trkpt>
      <trkpt lat="46.91298" lon="8.66497">
        <ele>1618</ele>
        <time>2021-08-07T09:32:12.097Z</time>
      </trkpt>
      <trkpt lat="46.91297" lon="8.66496">
        <ele>1617</ele>
        <time>2021-08-07T09:32:13.097Z</time>
      </trkpt>
      <trkpt lat="46.91297" lon="8.66496">
        <ele>1617</ele>
        <time>2021-08-07T09:32:14.097Z</time>
      </trkpt>
      <trkpt lat="46.91296" lon="8.66496">
        <ele>1616</ele>
        <time>2021-08-07T09:32:15.098Z</time>
      </trkpt>
      <trkpt lat="46.91296" lon="8.66496">
        <ele>1616</ele>
        <time>2021-08-07T09:32:16.097Z</time>
      </trkpt>
      <trkpt lat="46.91296" lon="8.66496">
        <ele>1617</ele>
        <time>2021-08-07T09:32:17.097Z</time>
      </trkpt>
      <trkpt lat="46.91295" lon="8.66496">
        <ele>1617</ele>
        <time>2021-08-07T09:32:18.098Z</time>
      </trkpt>
      <trkpt lat="46.91295" lon="8.66496">
        <ele>1617</ele>
        <time>2021-08-07T09:32:19.099Z</time>
      </trkpt>
      <trkpt lat="46.91295" lon="8.66496">
        <ele>1617</ele>
        <time>2021-08-07T09:32:20.099Z</time>
      </trkpt>
      <trkpt lat="46.91296" lon="8.66496">
        <ele>1617</ele>
        <time>2021-08-07T09:32:21.099Z</time>
      </trkpt>
      <trkpt lat="46.91296" lon="8.66495">
        <ele>1617</ele>
        <time>2021-08-07T09:32:22.099Z</time>
      </trkpt>
      <trkpt lat="46.91296" lon="8.66495">
        <ele>1617</ele>
        <time>2021-08-07T09:32:23.099Z</time>
      </trkpt>
      <trkpt lat="46.91297" lon="8.66494">
        <ele>1618</ele>
        <time>2021-08-07T09:32:24.099Z</time>
      </trkpt>
      <trkpt lat="46.91297" lon="8.66494">
        <ele>1618</ele>
        <time>2021-08-07T09:32:25.099Z</time>
      </trkpt>
      <trkpt lat="46.91297" lon="8.66493">
        <ele>1618</ele>
        <time>2021-08-07T09:32:26.099Z</time>
      </trkpt>
      <trkpt lat="46.91297" lon="8.66493">
        <ele>1618</ele>
        <time>2021-08-07T09:32:27.100Z</time>
      </trkpt>
      <trkpt lat="46.91296" lon="8.66492">
        <ele>1619</ele>
        <time>2021-08-07T09:32:28.100Z</time>
      </trkpt>
      <trkpt lat="46.91296" lon="8.66492">
        <ele>1619</ele>
        <time>2021-08-07T09:32:29.100Z</time>
      </trkpt>
      <trkpt lat="46.91296" lon="8.66493">
        <ele>1609</ele>
        <time>2021-08-07T09:32:30.100Z</time>
      </trkpt>
      <trkpt lat="46.91296" lon="8.66493">
        <ele>1609</ele>
        <time>2021-08-07T09:32:31.101Z</time>
      </trkpt>
      <trkpt lat="46.91296" lon="8.66493">
        <ele>1609</ele>
        <time>2021-08-07T09:32:32.100Z</time>
      </trkpt>
      <trkpt lat="46.91297" lon="8.66493">
        <ele>1611</ele>
        <time>2021-08-07T09:32:33.101Z</time>
      </trkpt>
      <trkpt lat="46.91297" lon="8.66493">
        <ele>1612</ele>
        <time>2021-08-07T09:32:34.100Z</time>
      </trkpt>
      <trkpt lat="46.91297" lon="8.66493">
        <ele>1612</ele>
        <time>2021-08-07T09:32:35.100Z</time>
      </trkpt>
      <trkpt lat="46.91297" lon="8.66493">
        <ele>1613</ele>
        <time>2021-08-07T09:32:36.101Z</time>
      </trkpt>
      <trkpt lat="46.91297" lon="8.66493">
        <ele>1614</ele>
        <time>2021-08-07T09:32:37.100Z</time>
      </trkpt>
      <trkpt lat="46.91296" lon="8.66493">
        <ele>1616</ele>
        <time>2021-08-07T09:32:38.102Z</time>
      </trkpt>
      <trkpt lat="46.91297" lon="8.66493">
        <ele>1616</ele>
        <time>2021-08-07T09:32:39.102Z</time>
      </trkpt>
      <trkpt lat="46.91297" lon="8.66494">
        <ele>1617</ele>
        <time>2021-08-07T09:32:40.102Z</time>
      </trkpt>
      <trkpt lat="46.91295" lon="8.66491">
        <ele>1623</ele>
        <time>2021-08-07T09:32:41.102Z</time>
      </trkpt>
      <trkpt lat="46.91295" lon="8.66492">
        <ele>1623</ele>
        <time>2021-08-07T09:32:42.102Z</time>
      </trkpt>
      <trkpt lat="46.91296" lon="8.66491">
        <ele>1623</ele>
        <time>2021-08-07T09:32:43.101Z</time>
      </trkpt>
      <trkpt lat="46.91296" lon="8.66491">
        <ele>1623</ele>
        <time>2021-08-07T09:32:44.102Z</time>
      </trkpt>
      <trkpt lat="46.91296" lon="8.6649">
        <ele>1623</ele>
        <time>2021-08-07T09:32:45.102Z</time>
      </trkpt>
      <trkpt lat="46.91295" lon="8.6649">
        <ele>1624</ele>
        <time>2021-08-07T09:32:46.102Z</time>
      </trkpt>
      <trkpt lat="46.91294" lon="8.66491">
        <ele>1624</ele>
        <time>2021-08-07T09:32:47.102Z</time>
      </trkpt>
      <trkpt lat="46.91294" lon="8.66491">
        <ele>1624</ele>
        <time>2021-08-07T09:32:48.102Z</time>
      </trkpt>
      <trkpt lat="46.91295" lon="8.66492">
        <ele>1623</ele>
        <time>2021-08-07T09:32:49.102Z</time>
      </trkpt>
      <trkpt lat="46.91296" lon="8.66493">
        <ele>1618</ele>
        <time>2021-08-07T09:32:50.102Z</time>
      </trkpt>
      <trkpt lat="46.91296" lon="8.66493">
        <ele>1617</ele>
        <time>2021-08-07T09:32:51.101Z</time>
      </trkpt>
      <trkpt lat="46.91296" lon="8.66493">
        <ele>1617</ele>
        <time>2021-08-07T09:32:52.101Z</time>
      </trkpt>
      <trkpt lat="46.91296" lon="8.66494">
        <ele>1617</ele>
        <time>2021-08-07T09:32:53.102Z</time>
      </trkpt>
      <trkpt lat="46.91296" lon="8.66494">
        <ele>1617</ele>
        <time>2021-08-07T09:32:54.101Z</time>
      </trkpt>
      <trkpt lat="46.91296" lon="8.66494">
        <ele>1618</ele>
        <time>2021-08-07T09:32:55.101Z</time>
      </trkpt>
      <trkpt lat="46.91295" lon="8.66496">
        <ele>1619</ele>
        <time>2021-08-07T09:32:56.102Z</time>
      </trkpt>
      <trkpt lat="46.91295" lon="8.66495">
        <ele>1619</ele>
        <time>2021-08-07T09:32:57.101Z</time>
      </trkpt>
      <trkpt lat="46.91298" lon="8.66494">
        <ele>1614</ele>
        <time>2021-08-07T09:32:58.101Z</time>
      </trkpt>
      <trkpt lat="46.91299" lon="8.66494">
        <ele>1614</ele>
        <time>2021-08-07T09:32:59.101Z</time>
      </trkpt>
      <trkpt lat="46.913" lon="8.66493">
        <ele>1614</ele>
        <time>2021-08-07T09:33:00.102Z</time>
      </trkpt>
      <trkpt lat="46.91301" lon="8.66493">
        <ele>1614</ele>
        <time>2021-08-07T09:33:01.101Z</time>
      </trkpt>
      <trkpt lat="46.91302" lon="8.66493">
        <ele>1614</ele>
        <time>2021-08-07T09:33:02.102Z</time>
      </trkpt>
      <trkpt lat="46.91302" lon="8.66493">
        <ele>1614</ele>
        <time>2021-08-07T09:33:03.101Z</time>
      </trkpt>
      <trkpt lat="46.91303" lon="8.66492">
        <ele>1614</ele>
        <time>2021-08-07T09:33:04.102Z</time>
      </trkpt>
      <trkpt lat="46.91304" lon="8.66492">
        <ele>1614</ele>
        <time>2021-08-07T09:33:05.101Z</time>
      </trkpt>
      <trkpt lat="46.91304" lon="8.66492">
        <ele>1614</ele>
        <time>2021-08-07T09:33:06.101Z</time>
      </trkpt>
      <trkpt lat="46.91304" lon="8.66491">
        <ele>1614</ele>
        <time>2021-08-07T09:33:07.102Z</time>
      </trkpt>
      <trkpt lat="46.91305" lon="8.66492">
        <ele>1614</ele>
        <time>2021-08-07T09:33:08.102Z</time>
      </trkpt>
      <trkpt lat="46.91306" lon="8.66492">
        <ele>1614</ele>
        <time>2021-08-07T09:33:09.101Z</time>
      </trkpt>
      <trkpt lat="46.91307" lon="8.66493">
        <ele>1615</ele>
        <time>2021-08-07T09:33:10.101Z</time>
      </trkpt>
      <trkpt lat="46.91307" lon="8.66493">
        <ele>1615</ele>
        <time>2021-08-07T09:33:11.101Z</time>
      </trkpt>
      <trkpt lat="46.91308" lon="8.66494">
        <ele>1616</ele>
        <time>2021-08-07T09:33:12.101Z</time>
      </trkpt>
      <trkpt lat="46.91308" lon="8.66494">
        <ele>1616</ele>
        <time>2021-08-07T09:33:13.102Z</time>
      </trkpt>
      <trkpt lat="46.91309" lon="8.66494">
        <ele>1617</ele>
        <time>2021-08-07T09:33:14.102Z</time>
      </trkpt>
      <trkpt lat="46.91309" lon="8.66494">
        <ele>1617</ele>
        <time>2021-08-07T09:33:15.101Z</time>
      </trkpt>
      <trkpt lat="46.9131" lon="8.66494">
        <ele>1617</ele>
        <time>2021-08-07T09:33:16.101Z</time>
      </trkpt>
      <trkpt lat="46.9131" lon="8.66493">
        <ele>1616</ele>
        <time>2021-08-07T09:33:17.102Z</time>
      </trkpt>
      <trkpt lat="46.91311" lon="8.66493">
        <ele>1616</ele>
        <time>2021-08-07T09:33:18.101Z</time>
      </trkpt>
      <trkpt lat="46.91312" lon="8.66492">
        <ele>1615</ele>
        <time>2021-08-07T09:33:19.102Z</time>
      </trkpt>
      <trkpt lat="46.91312" lon="8.66491">
        <ele>1614</ele>
        <time>2021-08-07T09:33:20.101Z</time>
      </trkpt>
      <trkpt lat="46.91313" lon="8.6649">
        <ele>1613</ele>
        <time>2021-08-07T09:33:21.101Z</time>
      </trkpt>
      <trkpt lat="46.91313" lon="8.66489">
        <ele>1613</ele>
        <time>2021-08-07T09:33:22.101Z</time>
      </trkpt>
      <trkpt lat="46.91313" lon="8.66487">
        <ele>1613</ele>
        <time>2021-08-07T09:33:23.102Z</time>
      </trkpt>
      <trkpt lat="46.91313" lon="8.66487">
        <ele>1613</ele>
        <time>2021-08-07T09:33:24.102Z</time>
      </trkpt>
      <trkpt lat="46.91313" lon="8.66486">
        <ele>1613</ele>
        <time>2021-08-07T09:33:25.101Z</time>
      </trkpt>
      <trkpt lat="46.91314" lon="8.66486">
        <ele>1612</ele>
        <time>2021-08-07T09:33:26.102Z</time>
      </trkpt>
      <trkpt lat="46.91314" lon="8.66485">
        <ele>1612</ele>
        <time>2021-08-07T09:33:27.101Z</time>
      </trkpt>
      <trkpt lat="46.91314" lon="8.66485">
        <ele>1612</ele>
        <time>2021-08-07T09:33:28.101Z</time>
      </trkpt>
      <trkpt lat="46.91315" lon="8.66485">
        <ele>1612</ele>
        <time>2021-08-07T09:33:29.101Z</time>
      </trkpt>
      <trkpt lat="46.91316" lon="8.66486">
        <ele>1612</ele>
        <time>2021-08-07T09:33:30.102Z</time>
      </trkpt>
      <trkpt lat="46.91317" lon="8.66486">
        <ele>1612</ele>
        <time>2021-08-07T09:33:31.102Z</time>
      </trkpt>
      <trkpt lat="46.91318" lon="8.66487">
        <ele>1612</ele>
        <time>2021-08-07T09:33:32.101Z</time>
      </trkpt>
      <trkpt lat="46.91319" lon="8.66487">
        <ele>1612</ele>
        <time>2021-08-07T09:33:33.101Z</time>
      </trkpt>
      <trkpt lat="46.9132" lon="8.66487">
        <ele>1612</ele>
        <time>2021-08-07T09:33:34.101Z</time>
      </trkpt>
      <trkpt lat="46.91321" lon="8.66487">
        <ele>1612</ele>
        <time>2021-08-07T09:33:35.101Z</time>
      </trkpt>
      <trkpt lat="46.91322" lon="8.66487">
        <ele>1613</ele>
        <time>2021-08-07T09:33:36.102Z</time>
      </trkpt>
      <trkpt lat="46.91323" lon="8.66488">
        <ele>1613</ele>
        <time>2021-08-07T09:33:37.101Z</time>
      </trkpt>
      <trkpt lat="46.91324" lon="8.66488">
        <ele>1613</ele>
        <time>2021-08-07T09:33:38.101Z</time>
      </trkpt>
      <trkpt lat="46.91325" lon="8.66487">
        <ele>1613</ele>
        <time>2021-08-07T09:33:39.101Z</time>
      </trkpt>
      <trkpt lat="46.91326" lon="8.66487">
        <ele>1612</ele>
        <time>2021-08-07T09:33:40.101Z</time>
      </trkpt>
      <trkpt lat="46.91326" lon="8.66487">
        <ele>1612</ele>
        <time>2021-08-07T09:33:41.101Z</time>
      </trkpt>
      <trkpt lat="46.91327" lon="8.66486">
        <ele>1612</ele>
        <time>2021-08-07T09:33:42.102Z</time>
      </trkpt>
      <trkpt lat="46.91328" lon="8.66485">
        <ele>1613</ele>
        <time>2021-08-07T09:33:43.101Z</time>
      </trkpt>
      <trkpt lat="46.91328" lon="8.66485">
        <ele>1613</ele>
        <time>2021-08-07T09:33:44.102Z</time>
      </trkpt>
      <trkpt lat="46.91329" lon="8.66483">
        <ele>1613</ele>
        <time>2021-08-07T09:33:45.101Z</time>
      </trkpt>
      <trkpt lat="46.9133" lon="8.66482">
        <ele>1612</ele>
        <time>2021-08-07T09:33:46.102Z</time>
      </trkpt>
      <trkpt lat="46.9133" lon="8.66482">
        <ele>1612</ele>
        <time>2021-08-07T09:33:47.101Z</time>
      </trkpt>
      <trkpt lat="46.9133" lon="8.66481">
        <ele>1612</ele>
        <time>2021-08-07T09:33:48.101Z</time>
      </trkpt>
      <trkpt lat="46.91329" lon="8.6648">
        <ele>1611</ele>
        <time>2021-08-07T09:33:49.101Z</time>
      </trkpt>
      <trkpt lat="46.9133" lon="8.6648">
        <ele>1611</ele>
        <time>2021-08-07T09:33:50.101Z</time>
      </trkpt>
      <trkpt lat="46.9133" lon="8.6648">
        <ele>1611</ele>
        <time>2021-08-07T09:33:51.101Z</time>
      </trkpt>
      <trkpt lat="46.91331" lon="8.66479">
        <ele>1611</ele>
        <time>2021-08-07T09:33:52.102Z</time>
      </trkpt>
      <trkpt lat="46.91332" lon="8.66479">
        <ele>1610</ele>
        <time>2021-08-07T09:33:53.101Z</time>
      </trkpt>
      <trkpt lat="46.91332" lon="8.66479">
        <ele>1610</ele>
        <time>2021-08-07T09:33:54.101Z</time>
      </trkpt>
      <trkpt lat="46.91333" lon="8.66479">
        <ele>1610</ele>
        <time>2021-08-07T09:33:55.101Z</time>
      </trkpt>
      <trkpt lat="46.91333" lon="8.66479">
        <ele>1609</ele>
        <time>2021-08-07T09:33:56.101Z</time>
      </trkpt>
      <trkpt lat="46.91334" lon="8.66479">
        <ele>1609</ele>
        <time>2021-08-07T09:33:57.101Z</time>
      </trkpt>
      <trkpt lat="46.91335" lon="8.66478">
        <ele>1609</ele>
        <time>2021-08-07T09:33:58.101Z</time>
      </trkpt>
      <trkpt lat="46.91336" lon="8.66478">
        <ele>1609</ele>
        <time>2021-08-07T09:33:59.102Z</time>
      </trkpt>
      <trkpt lat="46.91336" lon="8.66477">
        <ele>1609</ele>
        <time>2021-08-07T09:34:00.101Z</time>
      </trkpt>
      <trkpt lat="46.91337" lon="8.66477">
        <ele>1609</ele>
        <time>2021-08-07T09:34:01.101Z</time>
      </trkpt>
      <trkpt lat="46.91338" lon="8.66477">
        <ele>1609</ele>
        <time>2021-08-07T09:34:02.101Z</time>
      </trkpt>
      <trkpt lat="46.91338" lon="8.66476">
        <ele>1610</ele>
        <time>2021-08-07T09:34:03.101Z</time>
      </trkpt>
      <trkpt lat="46.91339" lon="8.66475">
        <ele>1609</ele>
        <time>2021-08-07T09:34:04.101Z</time>
      </trkpt>
      <trkpt lat="46.9134" lon="8.66474">
        <ele>1609</ele>
        <time>2021-08-07T09:34:05.102Z</time>
      </trkpt>
      <trkpt lat="46.9134" lon="8.66473">
        <ele>1609</ele>
        <time>2021-08-07T09:34:06.101Z</time>
      </trkpt>
      <trkpt lat="46.91341" lon="8.66472">
        <ele>1608</ele>
        <time>2021-08-07T09:34:07.101Z</time>
      </trkpt>
      <trkpt lat="46.91342" lon="8.66471">
        <ele>1607</ele>
        <time>2021-08-07T09:34:08.102Z</time>
      </trkpt>
      <trkpt lat="46.91342" lon="8.6647">
        <ele>1607</ele>
        <time>2021-08-07T09:34:09.101Z</time>
      </trkpt>
      <trkpt lat="46.91343" lon="8.66469">
        <ele>1606</ele>
        <time>2021-08-07T09:34:10.101Z</time>
      </trkpt>
      <trkpt lat="46.91344" lon="8.66469">
        <ele>1606</ele>
        <time>2021-08-07T09:34:11.101Z</time>
      </trkpt>
      <trkpt lat="46.91344" lon="8.66468">
        <ele>1605</ele>
        <time>2021-08-07T09:34:12.101Z</time>
      </trkpt>
      <trkpt lat="46.91345" lon="8.66467">
        <ele>1605</ele>
        <time>2021-08-07T09:34:13.101Z</time>
      </trkpt>
      <trkpt lat="46.91345" lon="8.66467">
        <ele>1605</ele>
        <time>2021-08-07T09:34:14.101Z</time>
      </trkpt>
      <trkpt lat="46.91345" lon="8.66466">
        <ele>1605</ele>
        <time>2021-08-07T09:34:15.101Z</time>
      </trkpt>
      <trkpt lat="46.91345" lon="8.66465">
        <ele>1605</ele>
        <time>2021-08-07T09:34:17.209Z</time>
      </trkpt>
      <trkpt lat="46.91346" lon="8.66464">
        <ele>1605</ele>
        <time>2021-08-07T09:34:18.210Z</time>
      </trkpt>
      <trkpt lat="46.91346" lon="8.66463">
        <ele>1605</ele>
        <time>2021-08-07T09:34:19.209Z</time>
      </trkpt>
      <trkpt lat="46.91347" lon="8.66462">
        <ele>1605</ele>
        <time>2021-08-07T09:34:20.210Z</time>
      </trkpt>
      <trkpt lat="46.91347" lon="8.66462">
        <ele>1605</ele>
        <time>2021-08-07T09:34:21.209Z</time>
      </trkpt>
      <trkpt lat="46.91348" lon="8.66461">
        <ele>1605</ele>
        <time>2021-08-07T09:34:22.209Z</time>
      </trkpt>
      <trkpt lat="46.91349" lon="8.6646">
        <ele>1606</ele>
        <time>2021-08-07T09:34:23.209Z</time>
      </trkpt>
      <trkpt lat="46.91349" lon="8.66459">
        <ele>1606</ele>
        <time>2021-08-07T09:34:24.209Z</time>
      </trkpt>
      <trkpt lat="46.9135" lon="8.66458">
        <ele>1606</ele>
        <time>2021-08-07T09:34:31.337Z</time>
      </trkpt>
      <trkpt lat="46.91351" lon="8.66457">
        <ele>1606</ele>
        <time>2021-08-07T09:34:32.337Z</time>
      </trkpt>
      <trkpt lat="46.91351" lon="8.66456">
        <ele>1607</ele>
        <time>2021-08-07T09:34:33.337Z</time>
      </trkpt>
      <trkpt lat="46.91352" lon="8.66455">
        <ele>1606</ele>
        <time>2021-08-07T09:34:34.337Z</time>
      </trkpt>
      <trkpt lat="46.91353" lon="8.66454">
        <ele>1606</ele>
        <time>2021-08-07T09:34:35.338Z</time>
      </trkpt>
      <trkpt lat="46.91353" lon="8.66454">
        <ele>1605</ele>
        <time>2021-08-07T09:34:36.338Z</time>
      </trkpt>
      <trkpt lat="46.91354" lon="8.66453">
        <ele>1605</ele>
        <time>2021-08-07T09:34:37.337Z</time>
      </trkpt>
      <trkpt lat="46.91354" lon="8.66452">
        <ele>1605</ele>
        <time>2021-08-07T09:34:38.337Z</time>
      </trkpt>
      <trkpt lat="46.91355" lon="8.66452">
        <ele>1605</ele>
        <time>2021-08-07T09:34:39.337Z</time>
      </trkpt>
      <trkpt lat="46.91355" lon="8.66451">
        <ele>1605</ele>
        <time>2021-08-07T09:34:40.337Z</time>
      </trkpt>
      <trkpt lat="46.91355" lon="8.6645">
        <ele>1604</ele>
        <time>2021-08-07T09:34:41.337Z</time>
      </trkpt>
      <trkpt lat="46.91356" lon="8.66449">
        <ele>1604</ele>
        <time>2021-08-07T09:34:42.337Z</time>
      </trkpt>
      <trkpt lat="46.91356" lon="8.66448">
        <ele>1604</ele>
        <time>2021-08-07T09:34:43.337Z</time>
      </trkpt>
      <trkpt lat="46.91357" lon="8.66447">
        <ele>1604</ele>
        <time>2021-08-07T09:34:44.338Z</time>
      </trkpt>
      <trkpt lat="46.91357" lon="8.66446">
        <ele>1604</ele>
        <time>2021-08-07T09:34:45.337Z</time>
      </trkpt>
      <trkpt lat="46.91357" lon="8.66445">
        <ele>1603</ele>
        <time>2021-08-07T09:34:46.337Z</time>
      </trkpt>
      <trkpt lat="46.91357" lon="8.66444">
        <ele>1603</ele>
        <time>2021-08-07T09:34:50.461Z</time>
      </trkpt>
      <trkpt lat="46.91358" lon="8.66443">
        <ele>1602</ele>
        <time>2021-08-07T09:34:51.461Z</time>
      </trkpt>
      <trkpt lat="46.91358" lon="8.66443">
        <ele>1601</ele>
        <time>2021-08-07T09:34:52.462Z</time>
      </trkpt>
      <trkpt lat="46.91359" lon="8.6644">
        <ele>1595</ele>
        <time>2021-08-07T09:34:53.462Z</time>
      </trkpt>
      <trkpt lat="46.91359" lon="8.66439">
        <ele>1595</ele>
        <time>2021-08-07T09:34:54.462Z</time>
      </trkpt>
      <trkpt lat="46.9136" lon="8.66438">
        <ele>1594</ele>
        <time>2021-08-07T09:34:55.462Z</time>
      </trkpt>
      <trkpt lat="46.91361" lon="8.66438">
        <ele>1594</ele>
        <time>2021-08-07T09:34:56.463Z</time>
      </trkpt>
      <trkpt lat="46.91361" lon="8.66436">
        <ele>1594</ele>
        <time>2021-08-07T09:34:57.462Z</time>
      </trkpt>
      <trkpt lat="46.91361" lon="8.66435">
        <ele>1593</ele>
        <time>2021-08-07T09:34:59.563Z</time>
      </trkpt>
      <trkpt lat="46.91361" lon="8.66434">
        <ele>1593</ele>
        <time>2021-08-07T09:35:00.563Z</time>
      </trkpt>
      <trkpt lat="46.91361" lon="8.66433">
        <ele>1593</ele>
        <time>2021-08-07T09:35:01.563Z</time>
      </trkpt>
      <trkpt lat="46.91362" lon="8.66432">
        <ele>1592</ele>
        <time>2021-08-07T09:35:02.564Z</time>
      </trkpt>
      <trkpt lat="46.91362" lon="8.66431">
        <ele>1592</ele>
        <time>2021-08-07T09:35:03.564Z</time>
      </trkpt>
      <trkpt lat="46.91363" lon="8.66429">
        <ele>1592</ele>
        <time>2021-08-07T09:35:04.564Z</time>
      </trkpt>
      <trkpt lat="46.91363" lon="8.66428">
        <ele>1592</ele>
        <time>2021-08-07T09:35:05.563Z</time>
      </trkpt>
      <trkpt lat="46.91364" lon="8.66427">
        <ele>1591</ele>
        <time>2021-08-07T09:35:06.563Z</time>
      </trkpt>
      <trkpt lat="46.91364" lon="8.66426">
        <ele>1591</ele>
        <time>2021-08-07T09:35:18.708Z</time>
      </trkpt>
      <trkpt lat="46.91364" lon="8.66425">
        <ele>1591</ele>
        <time>2021-08-07T09:35:19.708Z</time>
      </trkpt>
      <trkpt lat="46.91364" lon="8.66425">
        <ele>1590</ele>
        <time>2021-08-07T09:35:25.825Z</time>
      </trkpt>
      <trkpt lat="46.91364" lon="8.66424">
        <ele>1590</ele>
        <time>2021-08-07T09:35:26.824Z</time>
      </trkpt>
      <trkpt lat="46.91365" lon="8.66423">
        <ele>1588</ele>
        <time>2021-08-07T09:35:27.825Z</time>
      </trkpt>
      <trkpt lat="46.91365" lon="8.66422">
        <ele>1588</ele>
        <time>2021-08-07T09:35:28.826Z</time>
      </trkpt>
      <trkpt lat="46.91365" lon="8.66421">
        <ele>1588</ele>
        <time>2021-08-07T09:35:48.968Z</time>
      </trkpt>
      <trkpt lat="46.91366" lon="8.6642">
        <ele>1588</ele>
        <time>2021-08-07T09:35:49.969Z</time>
      </trkpt>
      <trkpt lat="46.91366" lon="8.66419">
        <ele>1589</ele>
        <time>2021-08-07T09:35:50.968Z</time>
      </trkpt>
      <trkpt lat="46.91366" lon="8.66418">
        <ele>1589</ele>
        <time>2021-08-07T09:36:04.081Z</time>
      </trkpt>
      <trkpt lat="46.91366" lon="8.66416">
        <ele>1589</ele>
        <time>2021-08-07T09:36:05.080Z</time>
      </trkpt>
      <trkpt lat="46.91366" lon="8.66415">
        <ele>1588</ele>
        <time>2021-08-07T09:36:06.081Z</time>
      </trkpt>
      <trkpt lat="46.91366" lon="8.66413">
        <ele>1588</ele>
        <time>2021-08-07T09:36:07.081Z</time>
      </trkpt>
      <trkpt lat="46.91366" lon="8.66411">
        <ele>1588</ele>
        <time>2021-08-07T09:36:08.080Z</time>
      </trkpt>
      <trkpt lat="46.91366" lon="8.6641">
        <ele>1588</ele>
        <time>2021-08-07T09:36:09.081Z</time>
      </trkpt>
      <trkpt lat="46.91366" lon="8.66408">
        <ele>1588</ele>
        <time>2021-08-07T09:36:11.172Z</time>
      </trkpt>
      <trkpt lat="46.91366" lon="8.66407">
        <ele>1587</ele>
        <time>2021-08-07T09:36:12.172Z</time>
      </trkpt>
      <trkpt lat="46.91366" lon="8.66405">
        <ele>1587</ele>
        <time>2021-08-07T09:36:13.171Z</time>
      </trkpt>
      <trkpt lat="46.91367" lon="8.66404">
        <ele>1587</ele>
        <time>2021-08-07T09:36:38.216Z</time>
      </trkpt>
      <trkpt lat="46.91367" lon="8.66402">
        <ele>1587</ele>
        <time>2021-08-07T09:36:39.216Z</time>
      </trkpt>
      <trkpt lat="46.91367" lon="8.66401">
        <ele>1587</ele>
        <time>2021-08-07T09:36:40.216Z</time>
      </trkpt>
      <trkpt lat="46.91366" lon="8.66399">
        <ele>1587</ele>
        <time>2021-08-07T09:36:41.216Z</time>
      </trkpt>
      <trkpt lat="46.91366" lon="8.66398">
        <ele>1587</ele>
        <time>2021-08-07T09:36:48.330Z</time>
      </trkpt>
      <trkpt lat="46.91366" lon="8.66396">
        <ele>1587</ele>
        <time>2021-08-07T09:36:49.330Z</time>
      </trkpt>
      <trkpt lat="46.91366" lon="8.66394">
        <ele>1587</ele>
        <time>2021-08-07T09:36:50.330Z</time>
      </trkpt>
      <trkpt lat="46.91366" lon="8.66393">
        <ele>1588</ele>
        <time>2021-08-07T09:36:51.329Z</time>
      </trkpt>
      <trkpt lat="46.91366" lon="8.66391">
        <ele>1587</ele>
        <time>2021-08-07T09:36:52.330Z</time>
      </trkpt>
      <trkpt lat="46.91366" lon="8.6639">
        <ele>1587</ele>
        <time>2021-08-07T09:36:53.330Z</time>
      </trkpt>
      <trkpt lat="46.91366" lon="8.66388">
        <ele>1587</ele>
        <time>2021-08-07T09:36:54.330Z</time>
      </trkpt>
      <trkpt lat="46.91366" lon="8.66387">
        <ele>1587</ele>
        <time>2021-08-07T09:36:55.330Z</time>
      </trkpt>
      <trkpt lat="46.91366" lon="8.66385">
        <ele>1586</ele>
        <time>2021-08-07T09:36:57.462Z</time>
      </trkpt>
      <trkpt lat="46.91365" lon="8.66384">
        <ele>1586</ele>
        <time>2021-08-07T09:36:58.462Z</time>
      </trkpt>
      <trkpt lat="46.91365" lon="8.66382">
        <ele>1585</ele>
        <time>2021-08-07T09:36:59.462Z</time>
      </trkpt>
      <trkpt lat="46.91365" lon="8.66381">
        <ele>1585</ele>
        <time>2021-08-07T09:37:00.462Z</time>
      </trkpt>
      <trkpt lat="46.91365" lon="8.6638">
        <ele>1584</ele>
        <time>2021-08-07T09:37:08.596Z</time>
      </trkpt>
      <trkpt lat="46.91365" lon="8.66378">
        <ele>1584</ele>
        <time>2021-08-07T09:37:09.596Z</time>
      </trkpt>
      <trkpt lat="46.91365" lon="8.66377">
        <ele>1583</ele>
        <time>2021-08-07T09:37:10.596Z</time>
      </trkpt>
      <trkpt lat="46.91365" lon="8.66376">
        <ele>1583</ele>
        <time>2021-08-07T09:37:11.596Z</time>
      </trkpt>
      <trkpt lat="46.91365" lon="8.66376">
        <ele>1583</ele>
        <time>2021-08-07T09:37:12.596Z</time>
      </trkpt>
      <trkpt lat="46.91365" lon="8.66375">
        <ele>1584</ele>
        <time>2021-08-07T09:37:13.596Z</time>
      </trkpt>
      <trkpt lat="46.91365" lon="8.66375">
        <ele>1585</ele>
        <time>2021-08-07T09:37:14.596Z</time>
      </trkpt>
      <trkpt lat="46.91365" lon="8.66375">
        <ele>1585</ele>
        <time>2021-08-07T09:37:15.596Z</time>
      </trkpt>
      <trkpt lat="46.91365" lon="8.66376">
        <ele>1584</ele>
        <time>2021-08-07T09:37:16.595Z</time>
      </trkpt>
      <trkpt lat="46.91366" lon="8.66375">
        <ele>1582</ele>
        <time>2021-08-07T09:37:17.596Z</time>
      </trkpt>
      <trkpt lat="46.91366" lon="8.66374">
        <ele>1582</ele>
        <time>2021-08-07T09:37:18.596Z</time>
      </trkpt>
      <trkpt lat="46.91365" lon="8.66373">
        <ele>1582</ele>
        <time>2021-08-07T09:37:19.595Z</time>
      </trkpt>
      <trkpt lat="46.91365" lon="8.66372">
        <ele>1582</ele>
        <time>2021-08-07T09:37:20.596Z</time>
      </trkpt>
      <trkpt lat="46.91365" lon="8.66371">
        <ele>1583</ele>
        <time>2021-08-07T09:37:21.596Z</time>
      </trkpt>
      <trkpt lat="46.91365" lon="8.6637">
        <ele>1583</ele>
        <time>2021-08-07T09:37:22.596Z</time>
      </trkpt>
      <trkpt lat="46.91364" lon="8.66369">
        <ele>1583</ele>
        <time>2021-08-07T09:37:23.596Z</time>
      </trkpt>
      <trkpt lat="46.91364" lon="8.66368">
        <ele>1583</ele>
        <time>2021-08-07T09:37:24.596Z</time>
      </trkpt>
      <trkpt lat="46.91364" lon="8.66367">
        <ele>1583</ele>
        <time>2021-08-07T09:37:25.595Z</time>
      </trkpt>
      <trkpt lat="46.91364" lon="8.66366">
        <ele>1583</ele>
        <time>2021-08-07T09:37:26.595Z</time>
      </trkpt>
      <trkpt lat="46.91364" lon="8.66365">
        <ele>1584</ele>
        <time>2021-08-07T09:37:27.595Z</time>
      </trkpt>
      <trkpt lat="46.91364" lon="8.66364">
        <ele>1584</ele>
        <time>2021-08-07T09:37:28.595Z</time>
      </trkpt>
      <trkpt lat="46.91364" lon="8.66364">
        <ele>1584</ele>
        <time>2021-08-07T09:37:29.595Z</time>
      </trkpt>
      <trkpt lat="46.91364" lon="8.66363">
        <ele>1584</ele>
        <time>2021-08-07T09:37:30.595Z</time>
      </trkpt>
      <trkpt lat="46.91364" lon="8.66362">
        <ele>1584</ele>
        <time>2021-08-07T09:37:31.596Z</time>
      </trkpt>
      <trkpt lat="46.91364" lon="8.66361">
        <ele>1584</ele>
        <time>2021-08-07T09:37:32.596Z</time>
      </trkpt>
      <trkpt lat="46.91363" lon="8.6636">
        <ele>1583</ele>
        <time>2021-08-07T09:37:33.596Z</time>
      </trkpt>
      <trkpt lat="46.91363" lon="8.66359">
        <ele>1583</ele>
        <time>2021-08-07T09:37:34.596Z</time>
      </trkpt>
      <trkpt lat="46.91363" lon="8.66357">
        <ele>1583</ele>
        <time>2021-08-07T09:37:35.596Z</time>
      </trkpt>
      <trkpt lat="46.91363" lon="8.66356">
        <ele>1583</ele>
        <time>2021-08-07T09:37:36.595Z</time>
      </trkpt>
      <trkpt lat="46.91363" lon="8.66355">
        <ele>1582</ele>
        <time>2021-08-07T09:37:37.596Z</time>
      </trkpt>
      <trkpt lat="46.91363" lon="8.66354">
        <ele>1582</ele>
        <time>2021-08-07T09:37:38.595Z</time>
      </trkpt>
      <trkpt lat="46.91363" lon="8.66353">
        <ele>1582</ele>
        <time>2021-08-07T09:37:39.596Z</time>
      </trkpt>
      <trkpt lat="46.91362" lon="8.66353">
        <ele>1581</ele>
        <time>2021-08-07T09:37:40.596Z</time>
      </trkpt>
      <trkpt lat="46.91362" lon="8.66352">
        <ele>1581</ele>
        <time>2021-08-07T09:37:41.595Z</time>
      </trkpt>
      <trkpt lat="46.91362" lon="8.66351">
        <ele>1581</ele>
        <time>2021-08-07T09:37:42.595Z</time>
      </trkpt>
      <trkpt lat="46.91362" lon="8.6635">
        <ele>1580</ele>
        <time>2021-08-07T09:37:43.595Z</time>
      </trkpt>
      <trkpt lat="46.91362" lon="8.66349">
        <ele>1580</ele>
        <time>2021-08-07T09:37:44.596Z</time>
      </trkpt>
      <trkpt lat="46.91361" lon="8.66348">
        <ele>1579</ele>
        <time>2021-08-07T09:37:45.596Z</time>
      </trkpt>
      <trkpt lat="46.91361" lon="8.66346">
        <ele>1579</ele>
        <time>2021-08-07T09:37:46.596Z</time>
      </trkpt>
      <trkpt lat="46.91361" lon="8.66345">
        <ele>1578</ele>
        <time>2021-08-07T09:37:47.596Z</time>
      </trkpt>
      <trkpt lat="46.91361" lon="8.66344">
        <ele>1578</ele>
        <time>2021-08-07T09:37:48.596Z</time>
      </trkpt>
      <trkpt lat="46.91361" lon="8.66343">
        <ele>1578</ele>
        <time>2021-08-07T09:37:49.596Z</time>
      </trkpt>
      <trkpt lat="46.91362" lon="8.66342">
        <ele>1578</ele>
        <time>2021-08-07T09:37:50.596Z</time>
      </trkpt>
      <trkpt lat="46.91361" lon="8.66341">
        <ele>1578</ele>
        <time>2021-08-07T09:37:51.596Z</time>
      </trkpt>
      <trkpt lat="46.91361" lon="8.6634">
        <ele>1578</ele>
        <time>2021-08-07T09:37:52.596Z</time>
      </trkpt>
      <trkpt lat="46.91361" lon="8.66339">
        <ele>1578</ele>
        <time>2021-08-07T09:37:53.596Z</time>
      </trkpt>
      <trkpt lat="46.91361" lon="8.66338">
        <ele>1577</ele>
        <time>2021-08-07T09:37:54.595Z</time>
      </trkpt>
      <trkpt lat="46.91361" lon="8.66337">
        <ele>1576</ele>
        <time>2021-08-07T09:37:55.596Z</time>
      </trkpt>
      <trkpt lat="46.91361" lon="8.66335">
        <ele>1576</ele>
        <time>2021-08-07T09:37:56.595Z</time>
      </trkpt>
      <trkpt lat="46.91361" lon="8.66334">
        <ele>1576</ele>
        <time>2021-08-07T09:37:57.595Z</time>
      </trkpt>
      <trkpt lat="46.9136" lon="8.66332">
        <ele>1576</ele>
        <time>2021-08-07T09:37:58.596Z</time>
      </trkpt>
      <trkpt lat="46.9136" lon="8.66331">
        <ele>1576</ele>
        <time>2021-08-07T09:37:59.596Z</time>
      </trkpt>
      <trkpt lat="46.9136" lon="8.66329">
        <ele>1576</ele>
        <time>2021-08-07T09:38:00.596Z</time>
      </trkpt>
      <trkpt lat="46.9136" lon="8.66327">
        <ele>1576</ele>
        <time>2021-08-07T09:38:01.596Z</time>
      </trkpt>
      <trkpt lat="46.9136" lon="8.66326">
        <ele>1576</ele>
        <time>2021-08-07T09:38:02.595Z</time>
      </trkpt>
      <trkpt lat="46.9136" lon="8.66324">
        <ele>1576</ele>
        <time>2021-08-07T09:38:03.596Z</time>
      </trkpt>
      <trkpt lat="46.91359" lon="8.66323">
        <ele>1575</ele>
        <time>2021-08-07T09:38:04.596Z</time>
      </trkpt>
      <trkpt lat="46.91359" lon="8.66322">
        <ele>1575</ele>
        <time>2021-08-07T09:38:05.595Z</time>
      </trkpt>
      <trkpt lat="46.91359" lon="8.66321">
        <ele>1575</ele>
        <time>2021-08-07T09:38:06.596Z</time>
      </trkpt>
      <trkpt lat="46.91359" lon="8.66321">
        <ele>1575</ele>
        <time>2021-08-07T09:38:07.596Z</time>
      </trkpt>
      <trkpt lat="46.91358" lon="8.66321">
        <ele>1575</ele>
        <time>2021-08-07T09:38:08.596Z</time>
      </trkpt>
      <trkpt lat="46.91358" lon="8.6632">
        <ele>1575</ele>
        <time>2021-08-07T09:38:09.596Z</time>
      </trkpt>
      <trkpt lat="46.91357" lon="8.6632">
        <ele>1575</ele>
        <time>2021-08-07T09:38:10.596Z</time>
      </trkpt>
      <trkpt lat="46.91357" lon="8.6632">
        <ele>1574</ele>
        <time>2021-08-07T09:38:11.595Z</time>
      </trkpt>
      <trkpt lat="46.91357" lon="8.66319">
        <ele>1575</ele>
        <time>2021-08-07T09:38:12.595Z</time>
      </trkpt>
      <trkpt lat="46.91357" lon="8.66319">
        <ele>1574</ele>
        <time>2021-08-07T09:38:13.595Z</time>
      </trkpt>
      <trkpt lat="46.91356" lon="8.66319">
        <ele>1574</ele>
        <time>2021-08-07T09:38:14.595Z</time>
      </trkpt>
      <trkpt lat="46.91356" lon="8.66319">
        <ele>1574</ele>
        <time>2021-08-07T09:38:15.595Z</time>
      </trkpt>
      <trkpt lat="46.91356" lon="8.66319">
        <ele>1572</ele>
        <time>2021-08-07T09:38:16.596Z</time>
      </trkpt>
      <trkpt lat="46.91355" lon="8.66319">
        <ele>1572</ele>
        <time>2021-08-07T09:38:17.596Z</time>
      </trkpt>
      <trkpt lat="46.91354" lon="8.66319">
        <ele>1572</ele>
        <time>2021-08-07T09:38:18.595Z</time>
      </trkpt>
      <trkpt lat="46.91353" lon="8.66319">
        <ele>1572</ele>
        <time>2021-08-07T09:38:19.596Z</time>
      </trkpt>
      <trkpt lat="46.91352" lon="8.66319">
        <ele>1572</ele>
        <time>2021-08-07T09:38:20.596Z</time>
      </trkpt>
      <trkpt lat="46.91351" lon="8.66319">
        <ele>1572</ele>
        <time>2021-08-07T09:38:21.596Z</time>
      </trkpt>
      <trkpt lat="46.9135" lon="8.66319">
        <ele>1572</ele>
        <time>2021-08-07T09:38:22.596Z</time>
      </trkpt>
      <trkpt lat="46.91349" lon="8.66319">
        <ele>1573</ele>
        <time>2021-08-07T09:38:23.595Z</time>
      </trkpt>
      <trkpt lat="46.91349" lon="8.66319">
        <ele>1573</ele>
        <time>2021-08-07T09:38:24.596Z</time>
      </trkpt>
      <trkpt lat="46.91348" lon="8.66319">
        <ele>1574</ele>
        <time>2021-08-07T09:38:25.595Z</time>
      </trkpt>
      <trkpt lat="46.91347" lon="8.66319">
        <ele>1574</ele>
        <time>2021-08-07T09:38:26.596Z</time>
      </trkpt>
      <trkpt lat="46.91346" lon="8.66318">
        <ele>1574</ele>
        <time>2021-08-07T09:38:27.595Z</time>
      </trkpt>
      <trkpt lat="46.91345" lon="8.66318">
        <ele>1574</ele>
        <time>2021-08-07T09:38:28.596Z</time>
      </trkpt>
      <trkpt lat="46.91344" lon="8.66318">
        <ele>1574</ele>
        <time>2021-08-07T09:38:29.596Z</time>
      </trkpt>
      <trkpt lat="46.91343" lon="8.66317">
        <ele>1574</ele>
        <time>2021-08-07T09:38:30.596Z</time>
      </trkpt>
      <trkpt lat="46.91342" lon="8.66316">
        <ele>1574</ele>
        <time>2021-08-07T09:38:31.596Z</time>
      </trkpt>
      <trkpt lat="46.91341" lon="8.66315">
        <ele>1575</ele>
        <time>2021-08-07T09:38:32.595Z</time>
      </trkpt>
      <trkpt lat="46.91341" lon="8.66315">
        <ele>1574</ele>
        <time>2021-08-07T09:38:33.596Z</time>
      </trkpt>
      <trkpt lat="46.9134" lon="8.66315">
        <ele>1574</ele>
        <time>2021-08-07T09:38:34.596Z</time>
      </trkpt>
      <trkpt lat="46.9134" lon="8.66315">
        <ele>1573</ele>
        <time>2021-08-07T09:38:35.596Z</time>
      </trkpt>
      <trkpt lat="46.91339" lon="8.66314">
        <ele>1573</ele>
        <time>2021-08-07T09:38:36.595Z</time>
      </trkpt>
      <trkpt lat="46.91338" lon="8.66314">
        <ele>1572</ele>
        <time>2021-08-07T09:38:37.595Z</time>
      </trkpt>
      <trkpt lat="46.91338" lon="8.66313">
        <ele>1572</ele>
        <time>2021-08-07T09:38:38.596Z</time>
      </trkpt>
      <trkpt lat="46.91337" lon="8.66313">
        <ele>1571</ele>
        <time>2021-08-07T09:38:39.596Z</time>
      </trkpt>
      <trkpt lat="46.91337" lon="8.66312">
        <ele>1571</ele>
        <time>2021-08-07T09:38:40.596Z</time>
      </trkpt>
      <trkpt lat="46.91336" lon="8.66312">
        <ele>1571</ele>
        <time>2021-08-07T09:38:41.595Z</time>
      </trkpt>
      <trkpt lat="46.91335" lon="8.66311">
        <ele>1570</ele>
        <time>2021-08-07T09:38:42.596Z</time>
      </trkpt>
      <trkpt lat="46.91335" lon="8.66311">
        <ele>1570</ele>
        <time>2021-08-07T09:38:43.596Z</time>
      </trkpt>
      <trkpt lat="46.91334" lon="8.66311">
        <ele>1569</ele>
        <time>2021-08-07T09:38:44.595Z</time>
      </trkpt>
      <trkpt lat="46.91333" lon="8.66311">
        <ele>1569</ele>
        <time>2021-08-07T09:38:45.596Z</time>
      </trkpt>
      <trkpt lat="46.91333" lon="8.6631">
        <ele>1568</ele>
        <time>2021-08-07T09:38:46.596Z</time>
      </trkpt>
      <trkpt lat="46.91332" lon="8.66309">
        <ele>1567</ele>
        <time>2021-08-07T09:38:47.596Z</time>
      </trkpt>
      <trkpt lat="46.91331" lon="8.66308">
        <ele>1567</ele>
        <time>2021-08-07T09:38:48.596Z</time>
      </trkpt>
      <trkpt lat="46.91331" lon="8.66307">
        <ele>1566</ele>
        <time>2021-08-07T09:38:49.595Z</time>
      </trkpt>
      <trkpt lat="46.9133" lon="8.66306">
        <ele>1565</ele>
        <time>2021-08-07T09:38:50.596Z</time>
      </trkpt>
      <trkpt lat="46.91329" lon="8.66305">
        <ele>1565</ele>
        <time>2021-08-07T09:38:51.595Z</time>
      </trkpt>
      <trkpt lat="46.91329" lon="8.66304">
        <ele>1565</ele>
        <time>2021-08-07T09:38:52.596Z</time>
      </trkpt>
      <trkpt lat="46.91328" lon="8.66303">
        <ele>1565</ele>
        <time>2021-08-07T09:38:53.596Z</time>
      </trkpt>
      <trkpt lat="46.91328" lon="8.66302">
        <ele>1565</ele>
        <time>2021-08-07T09:38:54.596Z</time>
      </trkpt>
      <trkpt lat="46.91328" lon="8.66301">
        <ele>1566</ele>
        <time>2021-08-07T09:38:55.596Z</time>
      </trkpt>
      <trkpt lat="46.91328" lon="8.663">
        <ele>1566</ele>
        <time>2021-08-07T09:38:56.595Z</time>
      </trkpt>
      <trkpt lat="46.91327" lon="8.66299">
        <ele>1566</ele>
        <time>2021-08-07T09:38:57.596Z</time>
      </trkpt>
      <trkpt lat="46.91327" lon="8.66298">
        <ele>1566</ele>
        <time>2021-08-07T09:38:58.595Z</time>
      </trkpt>
      <trkpt lat="46.91327" lon="8.66297">
        <ele>1566</ele>
        <time>2021-08-07T09:38:59.596Z</time>
      </trkpt>
      <trkpt lat="46.91326" lon="8.66296">
        <ele>1566</ele>
        <time>2021-08-07T09:39:00.595Z</time>
      </trkpt>
      <trkpt lat="46.91326" lon="8.66296">
        <ele>1565</ele>
        <time>2021-08-07T09:39:01.596Z</time>
      </trkpt>
      <trkpt lat="46.91327" lon="8.66296">
        <ele>1565</ele>
        <time>2021-08-07T09:39:02.596Z</time>
      </trkpt>
      <trkpt lat="46.91327" lon="8.66295">
        <ele>1565</ele>
        <time>2021-08-07T09:39:03.596Z</time>
      </trkpt>
      <trkpt lat="46.91327" lon="8.66295">
        <ele>1564</ele>
        <time>2021-08-07T09:39:04.596Z</time>
      </trkpt>
      <trkpt lat="46.91327" lon="8.66295">
        <ele>1564</ele>
        <time>2021-08-07T09:39:05.595Z</time>
      </trkpt>
      <trkpt lat="46.91326" lon="8.66292">
        <ele>1565</ele>
        <time>2021-08-07T09:39:06.596Z</time>
      </trkpt>
      <trkpt lat="46.91326" lon="8.66291">
        <ele>1565</ele>
        <time>2021-08-07T09:39:07.595Z</time>
      </trkpt>
      <trkpt lat="46.91327" lon="8.6629">
        <ele>1565</ele>
        <time>2021-08-07T09:39:08.595Z</time>
      </trkpt>
      <trkpt lat="46.91327" lon="8.6629">
        <ele>1564</ele>
        <time>2021-08-07T09:39:09.596Z</time>
      </trkpt>
      <trkpt lat="46.91327" lon="8.66289">
        <ele>1564</ele>
        <time>2021-08-07T09:39:10.596Z</time>
      </trkpt>
      <trkpt lat="46.91327" lon="8.66288">
        <ele>1563</ele>
        <time>2021-08-07T09:39:11.596Z</time>
      </trkpt>
      <trkpt lat="46.91327" lon="8.66287">
        <ele>1564</ele>
        <time>2021-08-07T09:39:12.595Z</time>
      </trkpt>
      <trkpt lat="46.91327" lon="8.66287">
        <ele>1564</ele>
        <time>2021-08-07T09:39:13.595Z</time>
      </trkpt>
      <trkpt lat="46.91327" lon="8.66286">
        <ele>1564</ele>
        <time>2021-08-07T09:39:14.595Z</time>
      </trkpt>
      <trkpt lat="46.91326" lon="8.66286">
        <ele>1564</ele>
        <time>2021-08-07T09:39:15.596Z</time>
      </trkpt>
      <trkpt lat="46.91326" lon="8.66285">
        <ele>1564</ele>
        <time>2021-08-07T09:39:16.596Z</time>
      </trkpt>
      <trkpt lat="46.91326" lon="8.66285">
        <ele>1564</ele>
        <time>2021-08-07T09:39:17.596Z</time>
      </trkpt>
      <trkpt lat="46.91326" lon="8.66285">
        <ele>1563</ele>
        <time>2021-08-07T09:39:18.596Z</time>
      </trkpt>
      <trkpt lat="46.91326" lon="8.66284">
        <ele>1563</ele>
        <time>2021-08-07T09:39:19.595Z</time>
      </trkpt>
      <trkpt lat="46.91326" lon="8.66284">
        <ele>1563</ele>
        <time>2021-08-07T09:39:20.596Z</time>
      </trkpt>
      <trkpt lat="46.91325" lon="8.66283">
        <ele>1563</ele>
        <time>2021-08-07T09:39:21.596Z</time>
      </trkpt>
      <trkpt lat="46.91325" lon="8.66282">
        <ele>1563</ele>
        <time>2021-08-07T09:39:22.595Z</time>
      </trkpt>
      <trkpt lat="46.91325" lon="8.66282">
        <ele>1562</ele>
        <time>2021-08-07T09:39:23.596Z</time>
      </trkpt>
      <trkpt lat="46.91325" lon="8.66282">
        <ele>1562</ele>
        <time>2021-08-07T09:39:24.595Z</time>
      </trkpt>
      <trkpt lat="46.91325" lon="8.66281">
        <ele>1562</ele>
        <time>2021-08-07T09:39:25.596Z</time>
      </trkpt>
      <trkpt lat="46.91325" lon="8.66281">
        <ele>1562</ele>
        <time>2021-08-07T09:39:29.745Z</time>
      </trkpt>
      <trkpt lat="46.91325" lon="8.6628">
        <ele>1561</ele>
        <time>2021-08-07T09:39:30.745Z</time>
      </trkpt>
      <trkpt lat="46.91325" lon="8.6628">
        <ele>1561</ele>
        <time>2021-08-07T09:39:31.745Z</time>
      </trkpt>
      <trkpt lat="46.91325" lon="8.66279">
        <ele>1561</ele>
        <time>2021-08-07T09:39:32.745Z</time>
      </trkpt>
      <trkpt lat="46.91325" lon="8.66279">
        <ele>1561</ele>
        <time>2021-08-07T09:39:33.745Z</time>
      </trkpt>
      <trkpt lat="46.91325" lon="8.66278">
        <ele>1560</ele>
        <time>2021-08-07T09:39:34.745Z</time>
      </trkpt>
      <trkpt lat="46.91325" lon="8.66277">
        <ele>1559</ele>
        <time>2021-08-07T09:39:35.745Z</time>
      </trkpt>
      <trkpt lat="46.91325" lon="8.66276">
        <ele>1559</ele>
        <time>2021-08-07T09:39:36.745Z</time>
      </trkpt>
      <trkpt lat="46.91325" lon="8.66276">
        <ele>1558</ele>
        <time>2021-08-07T09:39:37.745Z</time>
      </trkpt>
      <trkpt lat="46.91325" lon="8.66275">
        <ele>1558</ele>
        <time>2021-08-07T09:39:38.745Z</time>
      </trkpt>
      <trkpt lat="46.91325" lon="8.66275">
        <ele>1558</ele>
        <time>2021-08-07T09:39:39.745Z</time>
      </trkpt>
      <trkpt lat="46.91325" lon="8.66275">
        <ele>1558</ele>
        <time>2021-08-07T09:39:40.745Z</time>
      </trkpt>
      <trkpt lat="46.91324" lon="8.66275">
        <ele>1558</ele>
        <time>2021-08-07T09:39:41.745Z</time>
      </trkpt>
      <trkpt lat="46.91324" lon="8.66274">
        <ele>1558</ele>
        <time>2021-08-07T09:39:42.745Z</time>
      </trkpt>
      <trkpt lat="46.91324" lon="8.66274">
        <ele>1558</ele>
        <time>2021-08-07T09:39:43.745Z</time>
      </trkpt>
      <trkpt lat="46.91324" lon="8.66274">
        <ele>1558</ele>
        <time>2021-08-07T09:39:44.744Z</time>
      </trkpt>
      <trkpt lat="46.91324" lon="8.66274">
        <ele>1558</ele>
        <time>2021-08-07T09:39:45.745Z</time>
      </trkpt>
      <trkpt lat="46.91324" lon="8.66274">
        <ele>1558</ele>
        <time>2021-08-07T09:39:46.745Z</time>
      </trkpt>
      <trkpt lat="46.91325" lon="8.66273">
        <ele>1558</ele>
        <time>2021-08-07T09:39:47.744Z</time>
      </trkpt>
      <trkpt lat="46.91325" lon="8.66272">
        <ele>1558</ele>
        <time>2021-08-07T09:39:48.745Z</time>
      </trkpt>
      <trkpt lat="46.91325" lon="8.66271">
        <ele>1559</ele>
        <time>2021-08-07T09:39:49.744Z</time>
      </trkpt>
      <trkpt lat="46.91325" lon="8.6627">
        <ele>1559</ele>
        <time>2021-08-07T09:39:50.744Z</time>
      </trkpt>
      <trkpt lat="46.91325" lon="8.66269">
        <ele>1560</ele>
        <time>2021-08-07T09:39:51.745Z</time>
      </trkpt>
      <trkpt lat="46.91325" lon="8.66269">
        <ele>1560</ele>
        <time>2021-08-07T09:39:52.745Z</time>
      </trkpt>
      <trkpt lat="46.91325" lon="8.66268">
        <ele>1560</ele>
        <time>2021-08-07T09:39:53.745Z</time>
      </trkpt>
      <trkpt lat="46.91325" lon="8.66267">
        <ele>1560</ele>
        <time>2021-08-07T09:39:54.745Z</time>
      </trkpt>
      <trkpt lat="46.91325" lon="8.66266">
        <ele>1560</ele>
        <time>2021-08-07T09:39:55.744Z</time>
      </trkpt>
      <trkpt lat="46.91325" lon="8.66265">
        <ele>1560</ele>
        <time>2021-08-07T09:39:56.744Z</time>
      </trkpt>
      <trkpt lat="46.91325" lon="8.66265">
        <ele>1559</ele>
        <time>2021-08-07T09:39:57.745Z</time>
      </trkpt>
      <trkpt lat="46.91325" lon="8.66264">
        <ele>1559</ele>
        <time>2021-08-07T09:39:58.745Z</time>
      </trkpt>
      <trkpt lat="46.91325" lon="8.66262">
        <ele>1558</ele>
        <time>2021-08-07T09:39:59.745Z</time>
      </trkpt>
      <trkpt lat="46.91325" lon="8.66261">
        <ele>1557</ele>
        <time>2021-08-07T09:40:00.745Z</time>
      </trkpt>
      <trkpt lat="46.91325" lon="8.6626">
        <ele>1557</ele>
        <time>2021-08-07T09:40:01.744Z</time>
      </trkpt>
      <trkpt lat="46.91325" lon="8.6626">
        <ele>1556</ele>
        <time>2021-08-07T09:40:02.745Z</time>
      </trkpt>
      <trkpt lat="46.91324" lon="8.66259">
        <ele>1555</ele>
        <time>2021-08-07T09:40:03.745Z</time>
      </trkpt>
      <trkpt lat="46.91325" lon="8.66258">
        <ele>1554</ele>
        <time>2021-08-07T09:40:04.745Z</time>
      </trkpt>
      <trkpt lat="46.91325" lon="8.66256">
        <ele>1553</ele>
        <time>2021-08-07T09:40:05.745Z</time>
      </trkpt>
      <trkpt lat="46.91326" lon="8.66255">
        <ele>1552</ele>
        <time>2021-08-07T09:40:06.745Z</time>
      </trkpt>
      <trkpt lat="46.91326" lon="8.66253">
        <ele>1552</ele>
        <time>2021-08-07T09:40:07.745Z</time>
      </trkpt>
      <trkpt lat="46.91326" lon="8.66252">
        <ele>1551</ele>
        <time>2021-08-07T09:40:08.745Z</time>
      </trkpt>
      <trkpt lat="46.91327" lon="8.66251">
        <ele>1551</ele>
        <time>2021-08-07T09:40:09.744Z</time>
      </trkpt>
      <trkpt lat="46.91326" lon="8.66249">
        <ele>1551</ele>
        <time>2021-08-07T09:40:10.745Z</time>
      </trkpt>
      <trkpt lat="46.91326" lon="8.66248">
        <ele>1551</ele>
        <time>2021-08-07T09:40:11.744Z</time>
      </trkpt>
      <trkpt lat="46.91325" lon="8.66247">
        <ele>1551</ele>
        <time>2021-08-07T09:40:12.745Z</time>
      </trkpt>
      <trkpt lat="46.91325" lon="8.66247">
        <ele>1551</ele>
        <time>2021-08-07T09:40:13.745Z</time>
      </trkpt>
      <trkpt lat="46.91325" lon="8.66246">
        <ele>1551</ele>
        <time>2021-08-07T09:40:14.745Z</time>
      </trkpt>
      <trkpt lat="46.91324" lon="8.66246">
        <ele>1551</ele>
        <time>2021-08-07T09:40:15.745Z</time>
      </trkpt>
      <trkpt lat="46.91324" lon="8.66246">
        <ele>1551</ele>
        <time>2021-08-07T09:40:16.745Z</time>
      </trkpt>
      <trkpt lat="46.91324" lon="8.66245">
        <ele>1551</ele>
        <time>2021-08-07T09:40:17.745Z</time>
      </trkpt>
      <trkpt lat="46.91324" lon="8.66244">
        <ele>1551</ele>
        <time>2021-08-07T09:40:18.745Z</time>
      </trkpt>
      <trkpt lat="46.91324" lon="8.66243">
        <ele>1550</ele>
        <time>2021-08-07T09:40:19.744Z</time>
      </trkpt>
      <trkpt lat="46.91324" lon="8.66243">
        <ele>1550</ele>
        <time>2021-08-07T09:40:20.745Z</time>
      </trkpt>
      <trkpt lat="46.91325" lon="8.66244">
        <ele>1552</ele>
        <time>2021-08-07T09:40:21.745Z</time>
      </trkpt>
      <trkpt lat="46.91326" lon="8.66244">
        <ele>1552</ele>
        <time>2021-08-07T09:40:22.744Z</time>
      </trkpt>
      <trkpt lat="46.91326" lon="8.66243">
        <ele>1552</ele>
        <time>2021-08-07T09:40:23.745Z</time>
      </trkpt>
      <trkpt lat="46.91326" lon="8.66243">
        <ele>1552</ele>
        <time>2021-08-07T09:40:24.745Z</time>
      </trkpt>
      <trkpt lat="46.91327" lon="8.66242">
        <ele>1553</ele>
        <time>2021-08-07T09:40:25.745Z</time>
      </trkpt>
      <trkpt lat="46.91327" lon="8.66242">
        <ele>1553</ele>
        <time>2021-08-07T09:40:26.745Z</time>
      </trkpt>
      <trkpt lat="46.91328" lon="8.6624">
        <ele>1553</ele>
        <time>2021-08-07T09:40:27.744Z</time>
      </trkpt>
      <trkpt lat="46.91328" lon="8.66239">
        <ele>1553</ele>
        <time>2021-08-07T09:40:28.745Z</time>
      </trkpt>
      <trkpt lat="46.91328" lon="8.66238">
        <ele>1553</ele>
        <time>2021-08-07T09:40:29.744Z</time>
      </trkpt>
      <trkpt lat="46.91328" lon="8.66237">
        <ele>1552</ele>
        <time>2021-08-07T09:40:30.744Z</time>
      </trkpt>
      <trkpt lat="46.91328" lon="8.66236">
        <ele>1552</ele>
        <time>2021-08-07T09:40:31.745Z</time>
      </trkpt>
      <trkpt lat="46.91329" lon="8.66235">
        <ele>1552</ele>
        <time>2021-08-07T09:40:32.745Z</time>
      </trkpt>
      <trkpt lat="46.91329" lon="8.66234">
        <ele>1551</ele>
        <time>2021-08-07T09:40:33.745Z</time>
      </trkpt>
      <trkpt lat="46.91329" lon="8.66233">
        <ele>1551</ele>
        <time>2021-08-07T09:40:37.851Z</time>
      </trkpt>
      <trkpt lat="46.9133" lon="8.66232">
        <ele>1550</ele>
        <time>2021-08-07T09:40:38.851Z</time>
      </trkpt>
      <trkpt lat="46.9133" lon="8.66231">
        <ele>1550</ele>
        <time>2021-08-07T09:40:39.850Z</time>
      </trkpt>
      <trkpt lat="46.91331" lon="8.6623">
        <ele>1550</ele>
        <time>2021-08-07T09:40:40.851Z</time>
      </trkpt>
      <trkpt lat="46.91332" lon="8.6623">
        <ele>1550</ele>
        <time>2021-08-07T09:40:41.850Z</time>
      </trkpt>
      <trkpt lat="46.91332" lon="8.66229">
        <ele>1549</ele>
        <time>2021-08-07T09:40:42.850Z</time>
      </trkpt>
      <trkpt lat="46.91333" lon="8.66228">
        <ele>1549</ele>
        <time>2021-08-07T09:40:43.850Z</time>
      </trkpt>
      <trkpt lat="46.91333" lon="8.66227">
        <ele>1549</ele>
        <time>2021-08-07T09:40:44.850Z</time>
      </trkpt>
      <trkpt lat="46.91334" lon="8.66226">
        <ele>1549</ele>
        <time>2021-08-07T09:40:45.851Z</time>
      </trkpt>
      <trkpt lat="46.91334" lon="8.66225">
        <ele>1549</ele>
        <time>2021-08-07T09:40:46.850Z</time>
      </trkpt>
      <trkpt lat="46.91334" lon="8.66224">
        <ele>1548</ele>
        <time>2021-08-07T09:40:47.850Z</time>
      </trkpt>
      <trkpt lat="46.91334" lon="8.66224">
        <ele>1548</ele>
        <time>2021-08-07T09:40:50.923Z</time>
      </trkpt>
      <trkpt lat="46.91335" lon="8.66223">
        <ele>1548</ele>
        <time>2021-08-07T09:40:51.922Z</time>
      </trkpt>
      <trkpt lat="46.91335" lon="8.66223">
        <ele>1547</ele>
        <time>2021-08-07T09:40:52.922Z</time>
      </trkpt>
      <trkpt lat="46.91335" lon="8.66222">
        <ele>1547</ele>
        <time>2021-08-07T09:40:53.922Z</time>
      </trkpt>
      <trkpt lat="46.91337" lon="8.6622">
        <ele>1553</ele>
        <time>2021-08-07T09:40:54.923Z</time>
      </trkpt>
      <trkpt lat="46.91337" lon="8.66219">
        <ele>1553</ele>
        <time>2021-08-07T09:40:55.924Z</time>
      </trkpt>
      <trkpt lat="46.91337" lon="8.66217">
        <ele>1552</ele>
        <time>2021-08-07T09:40:56.924Z</time>
      </trkpt>
      <trkpt lat="46.91337" lon="8.66216">
        <ele>1552</ele>
        <time>2021-08-07T09:40:57.924Z</time>
      </trkpt>
      <trkpt lat="46.91336" lon="8.66214">
        <ele>1551</ele>
        <time>2021-08-07T09:40:58.924Z</time>
      </trkpt>
      <trkpt lat="46.91336" lon="8.66213">
        <ele>1551</ele>
        <time>2021-08-07T09:40:59.923Z</time>
      </trkpt>
      <trkpt lat="46.91336" lon="8.66211">
        <ele>1550</ele>
        <time>2021-08-07T09:41:00.924Z</time>
      </trkpt>
      <trkpt lat="46.91337" lon="8.66209">
        <ele>1550</ele>
        <time>2021-08-07T09:41:01.923Z</time>
      </trkpt>
      <trkpt lat="46.91337" lon="8.66208">
        <ele>1549</ele>
        <time>2021-08-07T09:41:02.924Z</time>
      </trkpt>
      <trkpt lat="46.91337" lon="8.66207">
        <ele>1549</ele>
        <time>2021-08-07T09:41:03.924Z</time>
      </trkpt>
      <trkpt lat="46.91337" lon="8.66206">
        <ele>1549</ele>
        <time>2021-08-07T09:41:04.923Z</time>
      </trkpt>
      <trkpt lat="46.91337" lon="8.66204">
        <ele>1549</ele>
        <time>2021-08-07T09:41:05.924Z</time>
      </trkpt>
      <trkpt lat="46.91338" lon="8.66203">
        <ele>1549</ele>
        <time>2021-08-07T09:41:06.924Z</time>
      </trkpt>
      <trkpt lat="46.91338" lon="8.66203">
        <ele>1548</ele>
        <time>2021-08-07T09:41:07.924Z</time>
      </trkpt>
      <trkpt lat="46.91338" lon="8.66202">
        <ele>1547</ele>
        <time>2021-08-07T09:41:08.923Z</time>
      </trkpt>
      <trkpt lat="46.91338" lon="8.66202">
        <ele>1546</ele>
        <time>2021-08-07T09:41:09.923Z</time>
      </trkpt>
      <trkpt lat="46.91338" lon="8.66201">
        <ele>1546</ele>
        <time>2021-08-07T09:41:10.923Z</time>
      </trkpt>
      <trkpt lat="46.91338" lon="8.662">
        <ele>1545</ele>
        <time>2021-08-07T09:41:11.923Z</time>
      </trkpt>
      <trkpt lat="46.91338" lon="8.66199">
        <ele>1544</ele>
        <time>2021-08-07T09:41:15.936Z</time>
      </trkpt>
      <trkpt lat="46.91338" lon="8.66198">
        <ele>1544</ele>
        <time>2021-08-07T09:41:16.937Z</time>
      </trkpt>
      <trkpt lat="46.91339" lon="8.66198">
        <ele>1543</ele>
        <time>2021-08-07T09:41:17.936Z</time>
      </trkpt>
      <trkpt lat="46.91339" lon="8.66197">
        <ele>1543</ele>
        <time>2021-08-07T09:41:18.937Z</time>
      </trkpt>
      <trkpt lat="46.91339" lon="8.66197">
        <ele>1543</ele>
        <time>2021-08-07T09:41:19.937Z</time>
      </trkpt>
      <trkpt lat="46.91339" lon="8.66197">
        <ele>1543</ele>
        <time>2021-08-07T09:41:20.937Z</time>
      </trkpt>
      <trkpt lat="46.91339" lon="8.66196">
        <ele>1543</ele>
        <time>2021-08-07T09:41:21.936Z</time>
      </trkpt>
      <trkpt lat="46.91339" lon="8.66196">
        <ele>1543</ele>
        <time>2021-08-07T09:41:22.936Z</time>
      </trkpt>
      <trkpt lat="46.91339" lon="8.66195">
        <ele>1543</ele>
        <time>2021-08-07T09:41:23.937Z</time>
      </trkpt>
      <trkpt lat="46.91339" lon="8.66195">
        <ele>1543</ele>
        <time>2021-08-07T09:41:24.937Z</time>
      </trkpt>
      <trkpt lat="46.9134" lon="8.66194">
        <ele>1543</ele>
        <time>2021-08-07T09:41:25.936Z</time>
      </trkpt>
      <trkpt lat="46.9134" lon="8.66194">
        <ele>1542</ele>
        <time>2021-08-07T09:41:26.937Z</time>
      </trkpt>
      <trkpt lat="46.9134" lon="8.66193">
        <ele>1542</ele>
        <time>2021-08-07T09:41:27.937Z</time>
      </trkpt>
      <trkpt lat="46.9134" lon="8.66192">
        <ele>1541</ele>
        <time>2021-08-07T09:41:28.937Z</time>
      </trkpt>
      <trkpt lat="46.91341" lon="8.6619">
        <ele>1541</ele>
        <time>2021-08-07T09:41:29.937Z</time>
      </trkpt>
      <trkpt lat="46.91341" lon="8.66189">
        <ele>1540</ele>
        <time>2021-08-07T09:41:30.936Z</time>
      </trkpt>
      <trkpt lat="46.91342" lon="8.66188">
        <ele>1540</ele>
        <time>2021-08-07T09:41:31.937Z</time>
      </trkpt>
      <trkpt lat="46.91342" lon="8.66186">
        <ele>1541</ele>
        <time>2021-08-07T09:41:32.936Z</time>
      </trkpt>
      <trkpt lat="46.91342" lon="8.66185">
        <ele>1542</ele>
        <time>2021-08-07T09:41:33.937Z</time>
      </trkpt>
      <trkpt lat="46.91342" lon="8.66184">
        <ele>1542</ele>
        <time>2021-08-07T09:41:34.937Z</time>
      </trkpt>
      <trkpt lat="46.91342" lon="8.66183">
        <ele>1542</ele>
        <time>2021-08-07T09:41:35.937Z</time>
      </trkpt>
      <trkpt lat="46.91342" lon="8.66181">
        <ele>1542</ele>
        <time>2021-08-07T09:41:36.937Z</time>
      </trkpt>
      <trkpt lat="46.91342" lon="8.6618">
        <ele>1541</ele>
        <time>2021-08-07T09:41:37.937Z</time>
      </trkpt>
      <trkpt lat="46.91343" lon="8.66178">
        <ele>1541</ele>
        <time>2021-08-07T09:41:38.937Z</time>
      </trkpt>
      <trkpt lat="46.91343" lon="8.66177">
        <ele>1541</ele>
        <time>2021-08-07T09:41:39.937Z</time>
      </trkpt>
      <trkpt lat="46.91343" lon="8.66176">
        <ele>1540</ele>
        <time>2021-08-07T09:41:40.936Z</time>
      </trkpt>
      <trkpt lat="46.91343" lon="8.66174">
        <ele>1540</ele>
        <time>2021-08-07T09:41:41.936Z</time>
      </trkpt>
      <trkpt lat="46.91343" lon="8.66173">
        <ele>1540</ele>
        <time>2021-08-07T09:41:42.937Z</time>
      </trkpt>
      <trkpt lat="46.91343" lon="8.66172">
        <ele>1539</ele>
        <time>2021-08-07T09:41:43.937Z</time>
      </trkpt>
      <trkpt lat="46.91343" lon="8.66171">
        <ele>1538</ele>
        <time>2021-08-07T09:41:44.936Z</time>
      </trkpt>
      <trkpt lat="46.91344" lon="8.66169">
        <ele>1538</ele>
        <time>2021-08-07T09:41:45.937Z</time>
      </trkpt>
      <trkpt lat="46.91344" lon="8.66168">
        <ele>1538</ele>
        <time>2021-08-07T09:41:46.937Z</time>
      </trkpt>
      <trkpt lat="46.91344" lon="8.66166">
        <ele>1538</ele>
        <time>2021-08-07T09:41:47.936Z</time>
      </trkpt>
      <trkpt lat="46.91344" lon="8.66165">
        <ele>1538</ele>
        <time>2021-08-07T09:41:48.937Z</time>
      </trkpt>
      <trkpt lat="46.91344" lon="8.66164">
        <ele>1537</ele>
        <time>2021-08-07T09:41:49.937Z</time>
      </trkpt>
      <trkpt lat="46.91344" lon="8.66163">
        <ele>1536</ele>
        <time>2021-08-07T09:41:50.936Z</time>
      </trkpt>
      <trkpt lat="46.91344" lon="8.66162">
        <ele>1535</ele>
        <time>2021-08-07T09:41:51.936Z</time>
      </trkpt>
      <trkpt lat="46.91344" lon="8.66161">
        <ele>1535</ele>
        <time>2021-08-07T09:41:52.937Z</time>
      </trkpt>
      <trkpt lat="46.91345" lon="8.6616">
        <ele>1534</ele>
        <time>2021-08-07T09:41:53.937Z</time>
      </trkpt>
      <trkpt lat="46.91346" lon="8.66158">
        <ele>1534</ele>
        <time>2021-08-07T09:41:54.937Z</time>
      </trkpt>
      <trkpt lat="46.91346" lon="8.66157">
        <ele>1534</ele>
        <time>2021-08-07T09:41:55.936Z</time>
      </trkpt>
      <trkpt lat="46.91347" lon="8.66156">
        <ele>1533</ele>
        <time>2021-08-07T09:41:56.936Z</time>
      </trkpt>
      <trkpt lat="46.91347" lon="8.66156">
        <ele>1533</ele>
        <time>2021-08-07T09:41:57.937Z</time>
      </trkpt>
      <trkpt lat="46.91348" lon="8.66155">
        <ele>1533</ele>
        <time>2021-08-07T09:41:58.937Z</time>
      </trkpt>
      <trkpt lat="46.91348" lon="8.66154">
        <ele>1532</ele>
        <time>2021-08-07T09:41:59.936Z</time>
      </trkpt>
      <trkpt lat="46.91349" lon="8.66153">
        <ele>1532</ele>
        <time>2021-08-07T09:42:00.937Z</time>
      </trkpt>
      <trkpt lat="46.91349" lon="8.66152">
        <ele>1531</ele>
        <time>2021-08-07T09:42:01.937Z</time>
      </trkpt>
      <trkpt lat="46.91349" lon="8.66151">
        <ele>1531</ele>
        <time>2021-08-07T09:42:02.936Z</time>
      </trkpt>
      <trkpt lat="46.91349" lon="8.6615">
        <ele>1531</ele>
        <time>2021-08-07T09:42:03.936Z</time>
      </trkpt>
      <trkpt lat="46.9135" lon="8.66149">
        <ele>1531</ele>
        <time>2021-08-07T09:42:04.936Z</time>
      </trkpt>
      <trkpt lat="46.9135" lon="8.66148">
        <ele>1531</ele>
        <time>2021-08-07T09:42:05.937Z</time>
      </trkpt>
      <trkpt lat="46.9135" lon="8.66146">
        <ele>1532</ele>
        <time>2021-08-07T09:42:06.936Z</time>
      </trkpt>
      <trkpt lat="46.9135" lon="8.66145">
        <ele>1532</ele>
        <time>2021-08-07T09:42:07.936Z</time>
      </trkpt>
      <trkpt lat="46.9135" lon="8.66143">
        <ele>1532</ele>
        <time>2021-08-07T09:42:08.936Z</time>
      </trkpt>
      <trkpt lat="46.9135" lon="8.66142">
        <ele>1532</ele>
        <time>2021-08-07T09:42:09.936Z</time>
      </trkpt>
      <trkpt lat="46.91351" lon="8.6614">
        <ele>1532</ele>
        <time>2021-08-07T09:42:10.936Z</time>
      </trkpt>
      <trkpt lat="46.91351" lon="8.66138">
        <ele>1531</ele>
        <time>2021-08-07T09:42:11.936Z</time>
      </trkpt>
      <trkpt lat="46.91352" lon="8.66137">
        <ele>1531</ele>
        <time>2021-08-07T09:42:12.936Z</time>
      </trkpt>
      <trkpt lat="46.91352" lon="8.66136">
        <ele>1531</ele>
        <time>2021-08-07T09:42:13.936Z</time>
      </trkpt>
      <trkpt lat="46.91352" lon="8.66135">
        <ele>1530</ele>
        <time>2021-08-07T09:42:14.936Z</time>
      </trkpt>
      <trkpt lat="46.91353" lon="8.66134">
        <ele>1529</ele>
        <time>2021-08-07T09:42:15.936Z</time>
      </trkpt>
      <trkpt lat="46.91353" lon="8.66133">
        <ele>1529</ele>
        <time>2021-08-07T09:42:16.936Z</time>
      </trkpt>
      <trkpt lat="46.91353" lon="8.66133">
        <ele>1529</ele>
        <time>2021-08-07T09:42:17.936Z</time>
      </trkpt>
      <trkpt lat="46.91354" lon="8.66133">
        <ele>1532</ele>
        <time>2021-08-07T09:42:18.936Z</time>
      </trkpt>
      <trkpt lat="46.91352" lon="8.66136">
        <ele>1531</ele>
        <time>2021-08-07T09:42:19.937Z</time>
      </trkpt>
      <trkpt lat="46.91351" lon="8.66136">
        <ele>1531</ele>
        <time>2021-08-07T09:42:20.936Z</time>
      </trkpt>
      <trkpt lat="46.91351" lon="8.66135">
        <ele>1530</ele>
        <time>2021-08-07T09:42:21.936Z</time>
      </trkpt>
      <trkpt lat="46.91351" lon="8.66135">
        <ele>1530</ele>
        <time>2021-08-07T09:42:22.936Z</time>
      </trkpt>
      <trkpt lat="46.91352" lon="8.66134">
        <ele>1530</ele>
        <time>2021-08-07T09:42:23.936Z</time>
      </trkpt>
      <trkpt lat="46.91352" lon="8.66135">
        <ele>1530</ele>
        <time>2021-08-07T09:42:24.937Z</time>
      </trkpt>
      <trkpt lat="46.91354" lon="8.66135">
        <ele>1530</ele>
        <time>2021-08-07T09:42:25.937Z</time>
      </trkpt>
      <trkpt lat="46.91353" lon="8.66135">
        <ele>1530</ele>
        <time>2021-08-07T09:42:26.938Z</time>
      </trkpt>
      <trkpt lat="46.91353" lon="8.66134">
        <ele>1531</ele>
        <time>2021-08-07T09:42:27.938Z</time>
      </trkpt>
      <trkpt lat="46.91354" lon="8.66135">
        <ele>1536</ele>
        <time>2021-08-07T09:42:28.939Z</time>
      </trkpt>
      <trkpt lat="46.91354" lon="8.66135">
        <ele>1537</ele>
        <time>2021-08-07T09:42:29.939Z</time>
      </trkpt>
      <trkpt lat="46.91353" lon="8.66134">
        <ele>1545</ele>
        <time>2021-08-07T09:42:30.940Z</time>
      </trkpt>
      <trkpt lat="46.91352" lon="8.66135">
        <ele>1545</ele>
        <time>2021-08-07T09:42:31.940Z</time>
      </trkpt>
      <trkpt lat="46.91352" lon="8.66135">
        <ele>1545</ele>
        <time>2021-08-07T09:42:34.079Z</time>
      </trkpt>
      <trkpt lat="46.91352" lon="8.66135">
        <ele>1546</ele>
        <time>2021-08-07T09:42:35.079Z</time>
      </trkpt>
      <trkpt lat="46.91351" lon="8.66135">
        <ele>1546</ele>
        <time>2021-08-07T09:42:36.079Z</time>
      </trkpt>
      <trkpt lat="46.91351" lon="8.66135">
        <ele>1545</ele>
        <time>2021-08-07T09:42:37.080Z</time>
      </trkpt>
      <trkpt lat="46.91352" lon="8.66134">
        <ele>1545</ele>
        <time>2021-08-07T09:42:38.080Z</time>
      </trkpt>
      <trkpt lat="46.91352" lon="8.66133">
        <ele>1544</ele>
        <time>2021-08-07T09:42:39.080Z</time>
      </trkpt>
      <trkpt lat="46.91353" lon="8.66131">
        <ele>1543</ele>
        <time>2021-08-07T09:42:40.080Z</time>
      </trkpt>
      <trkpt lat="46.91353" lon="8.6613">
        <ele>1543</ele>
        <time>2021-08-07T09:42:41.079Z</time>
      </trkpt>
      <trkpt lat="46.91354" lon="8.6613">
        <ele>1542</ele>
        <time>2021-08-07T09:42:42.080Z</time>
      </trkpt>
      <trkpt lat="46.91354" lon="8.66129">
        <ele>1542</ele>
        <time>2021-08-07T09:42:51.204Z</time>
      </trkpt>
      <trkpt lat="46.91354" lon="8.66129">
        <ele>1541</ele>
        <time>2021-08-07T09:42:59.061Z</time>
      </trkpt>
      <trkpt lat="46.91354" lon="8.66129">
        <ele>1541</ele>
        <time>2021-08-07T09:43:00.061Z</time>
      </trkpt>
      <trkpt lat="46.91353" lon="8.66128">
        <ele>1537</ele>
        <time>2021-08-07T09:43:01.061Z</time>
      </trkpt>
      <trkpt lat="46.91353" lon="8.66127">
        <ele>1536</ele>
        <time>2021-08-07T09:43:02.061Z</time>
      </trkpt>
      <trkpt lat="46.91353" lon="8.66126">
        <ele>1536</ele>
        <time>2021-08-07T09:43:03.062Z</time>
      </trkpt>
      <trkpt lat="46.91353" lon="8.66125">
        <ele>1535</ele>
        <time>2021-08-07T09:43:04.061Z</time>
      </trkpt>
      <trkpt lat="46.91353" lon="8.66124">
        <ele>1534</ele>
        <time>2021-08-07T09:43:05.061Z</time>
      </trkpt>
      <trkpt lat="46.91353" lon="8.66123">
        <ele>1534</ele>
        <time>2021-08-07T09:43:06.061Z</time>
      </trkpt>
      <trkpt lat="46.91354" lon="8.66122">
        <ele>1533</ele>
        <time>2021-08-07T09:43:07.062Z</time>
      </trkpt>
      <trkpt lat="46.91354" lon="8.66121">
        <ele>1532</ele>
        <time>2021-08-07T09:43:08.061Z</time>
      </trkpt>
      <trkpt lat="46.91354" lon="8.6612">
        <ele>1532</ele>
        <time>2021-08-07T09:43:09.061Z</time>
      </trkpt>
      <trkpt lat="46.91354" lon="8.66119">
        <ele>1531</ele>
        <time>2021-08-07T09:43:10.062Z</time>
      </trkpt>
      <trkpt lat="46.91353" lon="8.66119">
        <ele>1531</ele>
        <time>2021-08-07T09:43:11.062Z</time>
      </trkpt>
      <trkpt lat="46.91354" lon="8.66117">
        <ele>1529</ele>
        <time>2021-08-07T09:43:12.062Z</time>
      </trkpt>
      <trkpt lat="46.91354" lon="8.66116">
        <ele>1528</ele>
        <time>2021-08-07T09:43:13.062Z</time>
      </trkpt>
      <trkpt lat="46.91356" lon="8.66114">
        <ele>1528</ele>
        <time>2021-08-07T09:43:14.063Z</time>
      </trkpt>
      <trkpt lat="46.91357" lon="8.66112">
        <ele>1528</ele>
        <time>2021-08-07T09:43:15.063Z</time>
      </trkpt>
      <trkpt lat="46.91356" lon="8.66111">
        <ele>1528</ele>
        <time>2021-08-07T09:43:16.062Z</time>
      </trkpt>
      <trkpt lat="46.91357" lon="8.66109">
        <ele>1528</ele>
        <time>2021-08-07T09:43:17.062Z</time>
      </trkpt>
      <trkpt lat="46.91357" lon="8.66108">
        <ele>1527</ele>
        <time>2021-08-07T09:43:18.062Z</time>
      </trkpt>
      <trkpt lat="46.91357" lon="8.66107">
        <ele>1527</ele>
        <time>2021-08-07T09:43:19.062Z</time>
      </trkpt>
      <trkpt lat="46.91358" lon="8.66105">
        <ele>1527</ele>
        <time>2021-08-07T09:43:20.062Z</time>
      </trkpt>
      <trkpt lat="46.91358" lon="8.66104">
        <ele>1527</ele>
        <time>2021-08-07T09:43:21.063Z</time>
      </trkpt>
      <trkpt lat="46.91358" lon="8.66103">
        <ele>1527</ele>
        <time>2021-08-07T09:43:22.063Z</time>
      </trkpt>
      <trkpt lat="46.91359" lon="8.66102">
        <ele>1527</ele>
        <time>2021-08-07T09:43:23.063Z</time>
      </trkpt>
      <trkpt lat="46.91359" lon="8.66101">
        <ele>1527</ele>
        <time>2021-08-07T09:43:24.063Z</time>
      </trkpt>
      <trkpt lat="46.91359" lon="8.66099">
        <ele>1526</ele>
        <time>2021-08-07T09:43:25.063Z</time>
      </trkpt>
      <trkpt lat="46.91359" lon="8.66098">
        <ele>1526</ele>
        <time>2021-08-07T09:43:26.063Z</time>
      </trkpt>
      <trkpt lat="46.9136" lon="8.66096">
        <ele>1526</ele>
        <time>2021-08-07T09:43:27.063Z</time>
      </trkpt>
      <trkpt lat="46.9136" lon="8.66095">
        <ele>1525</ele>
        <time>2021-08-07T09:43:28.063Z</time>
      </trkpt>
      <trkpt lat="46.9136" lon="8.66094">
        <ele>1525</ele>
        <time>2021-08-07T09:43:29.063Z</time>
      </trkpt>
      <trkpt lat="46.9136" lon="8.66093">
        <ele>1525</ele>
        <time>2021-08-07T09:43:30.062Z</time>
      </trkpt>
      <trkpt lat="46.91361" lon="8.66091">
        <ele>1524</ele>
        <time>2021-08-07T09:43:31.063Z</time>
      </trkpt>
      <trkpt lat="46.91361" lon="8.6609">
        <ele>1524</ele>
        <time>2021-08-07T09:43:32.063Z</time>
      </trkpt>
      <trkpt lat="46.91361" lon="8.66088">
        <ele>1523</ele>
        <time>2021-08-07T09:43:33.063Z</time>
      </trkpt>
      <trkpt lat="46.91361" lon="8.66087">
        <ele>1523</ele>
        <time>2021-08-07T09:43:34.063Z</time>
      </trkpt>
      <trkpt lat="46.91361" lon="8.66086">
        <ele>1523</ele>
        <time>2021-08-07T09:43:35.063Z</time>
      </trkpt>
      <trkpt lat="46.91361" lon="8.66085">
        <ele>1523</ele>
        <time>2021-08-07T09:43:36.063Z</time>
      </trkpt>
      <trkpt lat="46.91362" lon="8.66085">
        <ele>1523</ele>
        <time>2021-08-07T09:43:37.062Z</time>
      </trkpt>
      <trkpt lat="46.91362" lon="8.66084">
        <ele>1522</ele>
        <time>2021-08-07T09:43:38.062Z</time>
      </trkpt>
      <trkpt lat="46.91362" lon="8.66083">
        <ele>1521</ele>
        <time>2021-08-07T09:43:39.063Z</time>
      </trkpt>
      <trkpt lat="46.91362" lon="8.66081">
        <ele>1521</ele>
        <time>2021-08-07T09:43:40.063Z</time>
      </trkpt>
      <trkpt lat="46.91362" lon="8.6608">
        <ele>1521</ele>
        <time>2021-08-07T09:43:41.063Z</time>
      </trkpt>
      <trkpt lat="46.91362" lon="8.66079">
        <ele>1520</ele>
        <time>2021-08-07T09:43:42.062Z</time>
      </trkpt>
      <trkpt lat="46.91362" lon="8.66078">
        <ele>1520</ele>
        <time>2021-08-07T09:43:43.063Z</time>
      </trkpt>
      <trkpt lat="46.91363" lon="8.66076">
        <ele>1519</ele>
        <time>2021-08-07T09:43:44.063Z</time>
      </trkpt>
      <trkpt lat="46.91363" lon="8.66075">
        <ele>1518</ele>
        <time>2021-08-07T09:43:45.063Z</time>
      </trkpt>
      <trkpt lat="46.91363" lon="8.66074">
        <ele>1517</ele>
        <time>2021-08-07T09:43:46.063Z</time>
      </trkpt>
      <trkpt lat="46.91364" lon="8.66073">
        <ele>1517</ele>
        <time>2021-08-07T09:43:47.063Z</time>
      </trkpt>
      <trkpt lat="46.91364" lon="8.66072">
        <ele>1517</ele>
        <time>2021-08-07T09:43:48.063Z</time>
      </trkpt>
      <trkpt lat="46.91364" lon="8.66071">
        <ele>1516</ele>
        <time>2021-08-07T09:43:49.063Z</time>
      </trkpt>
      <trkpt lat="46.91364" lon="8.6607">
        <ele>1516</ele>
        <time>2021-08-07T09:43:50.062Z</time>
      </trkpt>
      <trkpt lat="46.91364" lon="8.66069">
        <ele>1516</ele>
        <time>2021-08-07T09:43:51.062Z</time>
      </trkpt>
      <trkpt lat="46.91364" lon="8.66068">
        <ele>1515</ele>
        <time>2021-08-07T09:43:52.063Z</time>
      </trkpt>
      <trkpt lat="46.91365" lon="8.66067">
        <ele>1515</ele>
        <time>2021-08-07T09:43:53.063Z</time>
      </trkpt>
      <trkpt lat="46.91365" lon="8.66066">
        <ele>1515</ele>
        <time>2021-08-07T09:43:54.062Z</time>
      </trkpt>
      <trkpt lat="46.91365" lon="8.66064">
        <ele>1515</ele>
        <time>2021-08-07T09:43:55.063Z</time>
      </trkpt>
      <trkpt lat="46.91364" lon="8.66063">
        <ele>1514</ele>
        <time>2021-08-07T09:43:56.063Z</time>
      </trkpt>
      <trkpt lat="46.91364" lon="8.66061">
        <ele>1514</ele>
        <time>2021-08-07T09:43:57.063Z</time>
      </trkpt>
      <trkpt lat="46.91364" lon="8.6606">
        <ele>1514</ele>
        <time>2021-08-07T09:43:58.063Z</time>
      </trkpt>
      <trkpt lat="46.91364" lon="8.66059">
        <ele>1514</ele>
        <time>2021-08-07T09:43:59.062Z</time>
      </trkpt>
      <trkpt lat="46.91364" lon="8.66058">
        <ele>1514</ele>
        <time>2021-08-07T09:44:00.063Z</time>
      </trkpt>
      <trkpt lat="46.91364" lon="8.66056">
        <ele>1514</ele>
        <time>2021-08-07T09:44:01.062Z</time>
      </trkpt>
      <trkpt lat="46.91363" lon="8.66055">
        <ele>1514</ele>
        <time>2021-08-07T09:44:02.063Z</time>
      </trkpt>
      <trkpt lat="46.91363" lon="8.66054">
        <ele>1515</ele>
        <time>2021-08-07T09:44:03.063Z</time>
      </trkpt>
      <trkpt lat="46.91363" lon="8.66052">
        <ele>1515</ele>
        <time>2021-08-07T09:44:04.063Z</time>
      </trkpt>
      <trkpt lat="46.91362" lon="8.66051">
        <ele>1515</ele>
        <time>2021-08-07T09:44:05.063Z</time>
      </trkpt>
      <trkpt lat="46.91362" lon="8.66051">
        <ele>1515</ele>
        <time>2021-08-07T09:44:06.063Z</time>
      </trkpt>
      <trkpt lat="46.91362" lon="8.6605">
        <ele>1515</ele>
        <time>2021-08-07T09:44:07.063Z</time>
      </trkpt>
      <trkpt lat="46.91363" lon="8.6605">
        <ele>1515</ele>
        <time>2021-08-07T09:44:08.062Z</time>
      </trkpt>
      <trkpt lat="46.91364" lon="8.66051">
        <ele>1517</ele>
        <time>2021-08-07T09:44:09.062Z</time>
      </trkpt>
      <trkpt lat="46.91364" lon="8.6605">
        <ele>1518</ele>
        <time>2021-08-07T09:44:10.063Z</time>
      </trkpt>
      <trkpt lat="46.91364" lon="8.66049">
        <ele>1518</ele>
        <time>2021-08-07T09:44:11.062Z</time>
      </trkpt>
      <trkpt lat="46.91365" lon="8.66048">
        <ele>1518</ele>
        <time>2021-08-07T09:44:12.062Z</time>
      </trkpt>
      <trkpt lat="46.91365" lon="8.66047">
        <ele>1518</ele>
        <time>2021-08-07T09:44:13.063Z</time>
      </trkpt>
      <trkpt lat="46.91366" lon="8.66046">
        <ele>1517</ele>
        <time>2021-08-07T09:44:14.062Z</time>
      </trkpt>
      <trkpt lat="46.91366" lon="8.66046">
        <ele>1517</ele>
        <time>2021-08-07T09:44:15.063Z</time>
      </trkpt>
      <trkpt lat="46.91366" lon="8.66045">
        <ele>1517</ele>
        <time>2021-08-07T09:44:16.062Z</time>
      </trkpt>
      <trkpt lat="46.91366" lon="8.66045">
        <ele>1516</ele>
        <time>2021-08-07T09:44:17.062Z</time>
      </trkpt>
      <trkpt lat="46.91367" lon="8.66043">
        <ele>1517</ele>
        <time>2021-08-07T09:44:18.063Z</time>
      </trkpt>
      <trkpt lat="46.91367" lon="8.66041">
        <ele>1516</ele>
        <time>2021-08-07T09:44:19.063Z</time>
      </trkpt>
      <trkpt lat="46.91368" lon="8.66041">
        <ele>1516</ele>
        <time>2021-08-07T09:44:20.063Z</time>
      </trkpt>
      <trkpt lat="46.91368" lon="8.6604">
        <ele>1516</ele>
        <time>2021-08-07T09:44:21.063Z</time>
      </trkpt>
      <trkpt lat="46.91368" lon="8.66039">
        <ele>1515</ele>
        <time>2021-08-07T09:44:22.062Z</time>
      </trkpt>
      <trkpt lat="46.91369" lon="8.66038">
        <ele>1515</ele>
        <time>2021-08-07T09:44:23.063Z</time>
      </trkpt>
      <trkpt lat="46.91369" lon="8.66037">
        <ele>1515</ele>
        <time>2021-08-07T09:44:24.063Z</time>
      </trkpt>
      <trkpt lat="46.9137" lon="8.66036">
        <ele>1514</ele>
        <time>2021-08-07T09:44:25.063Z</time>
      </trkpt>
      <trkpt lat="46.91371" lon="8.66035">
        <ele>1514</ele>
        <time>2021-08-07T09:44:26.062Z</time>
      </trkpt>
      <trkpt lat="46.91372" lon="8.66034">
        <ele>1514</ele>
        <time>2021-08-07T09:44:27.062Z</time>
      </trkpt>
      <trkpt lat="46.91372" lon="8.66033">
        <ele>1514</ele>
        <time>2021-08-07T09:44:28.063Z</time>
      </trkpt>
      <trkpt lat="46.91373" lon="8.66032">
        <ele>1514</ele>
        <time>2021-08-07T09:44:29.063Z</time>
      </trkpt>
      <trkpt lat="46.91374" lon="8.66032">
        <ele>1514</ele>
        <time>2021-08-07T09:44:30.063Z</time>
      </trkpt>
      <trkpt lat="46.91375" lon="8.66032">
        <ele>1514</ele>
        <time>2021-08-07T09:44:31.063Z</time>
      </trkpt>
      <trkpt lat="46.91375" lon="8.66032">
        <ele>1514</ele>
        <time>2021-08-07T09:44:32.062Z</time>
      </trkpt>
      <trkpt lat="46.91376" lon="8.66032">
        <ele>1514</ele>
        <time>2021-08-07T09:44:39.074Z</time>
      </trkpt>
      <trkpt lat="46.91377" lon="8.66032">
        <ele>1513</ele>
        <time>2021-08-07T09:44:40.073Z</time>
      </trkpt>
      <trkpt lat="46.91378" lon="8.66032">
        <ele>1513</ele>
        <time>2021-08-07T09:44:41.074Z</time>
      </trkpt>
      <trkpt lat="46.9138" lon="8.66032">
        <ele>1513</ele>
        <time>2021-08-07T09:44:42.073Z</time>
      </trkpt>
      <trkpt lat="46.91381" lon="8.66032">
        <ele>1513</ele>
        <time>2021-08-07T09:44:43.074Z</time>
      </trkpt>
      <trkpt lat="46.91382" lon="8.66032">
        <ele>1513</ele>
        <time>2021-08-07T09:44:44.073Z</time>
      </trkpt>
      <trkpt lat="46.91383" lon="8.66032">
        <ele>1513</ele>
        <time>2021-08-07T09:44:45.074Z</time>
      </trkpt>
      <trkpt lat="46.91384" lon="8.66031">
        <ele>1513</ele>
        <time>2021-08-07T09:44:46.074Z</time>
      </trkpt>
      <trkpt lat="46.91385" lon="8.66031">
        <ele>1512</ele>
        <time>2021-08-07T09:44:47.074Z</time>
      </trkpt>
      <trkpt lat="46.91386" lon="8.66031">
        <ele>1512</ele>
        <time>2021-08-07T09:44:48.073Z</time>
      </trkpt>
      <trkpt lat="46.91387" lon="8.66032">
        <ele>1512</ele>
        <time>2021-08-07T09:44:49.074Z</time>
      </trkpt>
      <trkpt lat="46.91388" lon="8.66032">
        <ele>1511</ele>
        <time>2021-08-07T09:44:50.074Z</time>
      </trkpt>
      <trkpt lat="46.9139" lon="8.66031">
        <ele>1511</ele>
        <time>2021-08-07T09:44:51.073Z</time>
      </trkpt>
      <trkpt lat="46.91391" lon="8.66031">
        <ele>1510</ele>
        <time>2021-08-07T09:44:52.074Z</time>
      </trkpt>
      <trkpt lat="46.91392" lon="8.66031">
        <ele>1510</ele>
        <time>2021-08-07T09:44:53.074Z</time>
      </trkpt>
      <trkpt lat="46.91393" lon="8.66031">
        <ele>1510</ele>
        <time>2021-08-07T09:44:54.074Z</time>
      </trkpt>
      <trkpt lat="46.91394" lon="8.66031">
        <ele>1509</ele>
        <time>2021-08-07T09:44:55.074Z</time>
      </trkpt>
      <trkpt lat="46.91396" lon="8.66031">
        <ele>1509</ele>
        <time>2021-08-07T09:44:56.074Z</time>
      </trkpt>
      <trkpt lat="46.91397" lon="8.66031">
        <ele>1509</ele>
        <time>2021-08-07T09:44:57.074Z</time>
      </trkpt>
      <trkpt lat="46.91398" lon="8.6603">
        <ele>1509</ele>
        <time>2021-08-07T09:44:58.074Z</time>
      </trkpt>
      <trkpt lat="46.91399" lon="8.6603">
        <ele>1509</ele>
        <time>2021-08-07T09:44:59.074Z</time>
      </trkpt>
      <trkpt lat="46.914" lon="8.6603">
        <ele>1508</ele>
        <time>2021-08-07T09:45:00.074Z</time>
      </trkpt>
      <trkpt lat="46.914" lon="8.6603">
        <ele>1508</ele>
        <time>2021-08-07T09:45:01.074Z</time>
      </trkpt>
      <trkpt lat="46.91401" lon="8.6603">
        <ele>1508</ele>
        <time>2021-08-07T09:45:02.074Z</time>
      </trkpt>
      <trkpt lat="46.91402" lon="8.66031">
        <ele>1509</ele>
        <time>2021-08-07T09:45:03.074Z</time>
      </trkpt>
      <trkpt lat="46.91403" lon="8.66031">
        <ele>1509</ele>
        <time>2021-08-07T09:45:04.073Z</time>
      </trkpt>
      <trkpt lat="46.91404" lon="8.66031">
        <ele>1509</ele>
        <time>2021-08-07T09:45:05.073Z</time>
      </trkpt>
      <trkpt lat="46.91405" lon="8.6603">
        <ele>1509</ele>
        <time>2021-08-07T09:45:06.074Z</time>
      </trkpt>
      <trkpt lat="46.91406" lon="8.66029">
        <ele>1509</ele>
        <time>2021-08-07T09:45:07.073Z</time>
      </trkpt>
      <trkpt lat="46.91407" lon="8.66029">
        <ele>1509</ele>
        <time>2021-08-07T09:45:08.074Z</time>
      </trkpt>
      <trkpt lat="46.91409" lon="8.66029">
        <ele>1509</ele>
        <time>2021-08-07T09:45:09.074Z</time>
      </trkpt>
      <trkpt lat="46.9141" lon="8.66029">
        <ele>1508</ele>
        <time>2021-08-07T09:45:10.074Z</time>
      </trkpt>
      <trkpt lat="46.91411" lon="8.66029">
        <ele>1509</ele>
        <time>2021-08-07T09:45:11.074Z</time>
      </trkpt>
      <trkpt lat="46.91412" lon="8.66028">
        <ele>1509</ele>
        <time>2021-08-07T09:45:12.074Z</time>
      </trkpt>
      <trkpt lat="46.91413" lon="8.66028">
        <ele>1510</ele>
        <time>2021-08-07T09:45:13.074Z</time>
      </trkpt>
      <trkpt lat="46.91414" lon="8.66028">
        <ele>1510</ele>
        <time>2021-08-07T09:45:25.194Z</time>
      </trkpt>
      <trkpt lat="46.91415" lon="8.66028">
        <ele>1510</ele>
        <time>2021-08-07T09:45:26.194Z</time>
      </trkpt>
      <trkpt lat="46.91416" lon="8.66027">
        <ele>1510</ele>
        <time>2021-08-07T09:45:27.194Z</time>
      </trkpt>
      <trkpt lat="46.91417" lon="8.66027">
        <ele>1510</ele>
        <time>2021-08-07T09:45:28.194Z</time>
      </trkpt>
      <trkpt lat="46.91417" lon="8.66026">
        <ele>1509</ele>
        <time>2021-08-07T09:45:29.194Z</time>
      </trkpt>
      <trkpt lat="46.91418" lon="8.66026">
        <ele>1508</ele>
        <time>2021-08-07T09:45:30.194Z</time>
      </trkpt>
      <trkpt lat="46.91419" lon="8.66026">
        <ele>1508</ele>
        <time>2021-08-07T09:45:31.194Z</time>
      </trkpt>
      <trkpt lat="46.9142" lon="8.66026">
        <ele>1508</ele>
        <time>2021-08-07T09:45:32.193Z</time>
      </trkpt>
      <trkpt lat="46.9142" lon="8.66026">
        <ele>1508</ele>
        <time>2021-08-07T09:45:33.193Z</time>
      </trkpt>
      <trkpt lat="46.9142" lon="8.66025">
        <ele>1508</ele>
        <time>2021-08-07T09:45:34.194Z</time>
      </trkpt>
      <trkpt lat="46.91421" lon="8.66025">
        <ele>1508</ele>
        <time>2021-08-07T09:45:35.194Z</time>
      </trkpt>
      <trkpt lat="46.9142" lon="8.6603">
        <ele>1506</ele>
        <time>2021-08-07T09:45:36.195Z</time>
      </trkpt>
      <trkpt lat="46.9142" lon="8.6603">
        <ele>1507</ele>
        <time>2021-08-07T09:45:37.195Z</time>
      </trkpt>
      <trkpt lat="46.91419" lon="8.6603">
        <ele>1508</ele>
        <time>2021-08-07T09:45:38.194Z</time>
      </trkpt>
      <trkpt lat="46.91419" lon="8.6603">
        <ele>1508</ele>
        <time>2021-08-07T09:45:39.195Z</time>
      </trkpt>
      <trkpt lat="46.91419" lon="8.6603">
        <ele>1509</ele>
        <time>2021-08-07T09:45:40.194Z</time>
      </trkpt>
      <trkpt lat="46.9142" lon="8.66029">
        <ele>1509</ele>
        <time>2021-08-07T09:45:41.195Z</time>
      </trkpt>
      <trkpt lat="46.9142" lon="8.66029">
        <ele>1510</ele>
        <time>2021-08-07T09:45:42.195Z</time>
      </trkpt>
      <trkpt lat="46.91419" lon="8.6603">
        <ele>1510</ele>
        <time>2021-08-07T09:45:43.195Z</time>
      </trkpt>
      <trkpt lat="46.91419" lon="8.66031">
        <ele>1510</ele>
        <time>2021-08-07T09:45:44.195Z</time>
      </trkpt>
      <trkpt lat="46.91419" lon="8.66031">
        <ele>1510</ele>
        <time>2021-08-07T09:45:53.369Z</time>
      </trkpt>
      <trkpt lat="46.9142" lon="8.66032">
        <ele>1510</ele>
        <time>2021-08-07T09:45:54.369Z</time>
      </trkpt>
      <trkpt lat="46.91421" lon="8.66032">
        <ele>1510</ele>
        <time>2021-08-07T09:45:55.369Z</time>
      </trkpt>
      <trkpt lat="46.91422" lon="8.66031">
        <ele>1510</ele>
        <time>2021-08-07T09:45:56.369Z</time>
      </trkpt>
      <trkpt lat="46.91422" lon="8.66031">
        <ele>1510</ele>
        <time>2021-08-07T09:45:57.368Z</time>
      </trkpt>
      <trkpt lat="46.91423" lon="8.66032">
        <ele>1511</ele>
        <time>2021-08-07T09:45:58.368Z</time>
      </trkpt>
      <trkpt lat="46.91424" lon="8.66032">
        <ele>1511</ele>
        <time>2021-08-07T09:46:22.445Z</time>
      </trkpt>
      <trkpt lat="46.91425" lon="8.66032">
        <ele>1511</ele>
        <time>2021-08-07T09:46:23.445Z</time>
      </trkpt>
      <trkpt lat="46.91425" lon="8.66032">
        <ele>1511</ele>
        <time>2021-08-07T09:46:24.445Z</time>
      </trkpt>
      <trkpt lat="46.91426" lon="8.66032">
        <ele>1511</ele>
        <time>2021-08-07T09:46:25.444Z</time>
      </trkpt>
      <trkpt lat="46.91427" lon="8.66032">
        <ele>1511</ele>
        <time>2021-08-07T09:46:26.445Z</time>
      </trkpt>
      <trkpt lat="46.91429" lon="8.66032">
        <ele>1511</ele>
        <time>2021-08-07T09:46:27.445Z</time>
      </trkpt>
      <trkpt lat="46.91429" lon="8.66032">
        <ele>1511</ele>
        <time>2021-08-07T09:46:28.445Z</time>
      </trkpt>
      <trkpt lat="46.9143" lon="8.66032">
        <ele>1511</ele>
        <time>2021-08-07T09:46:29.444Z</time>
      </trkpt>
      <trkpt lat="46.91431" lon="8.66032">
        <ele>1511</ele>
        <time>2021-08-07T09:46:30.444Z</time>
      </trkpt>
      <trkpt lat="46.91432" lon="8.66033">
        <ele>1511</ele>
        <time>2021-08-07T09:46:31.445Z</time>
      </trkpt>
      <trkpt lat="46.91433" lon="8.66033">
        <ele>1510</ele>
        <time>2021-08-07T09:46:32.444Z</time>
      </trkpt>
      <trkpt lat="46.91433" lon="8.66033">
        <ele>1510</ele>
        <time>2021-08-07T09:46:33.445Z</time>
      </trkpt>
      <trkpt lat="46.91434" lon="8.66034">
        <ele>1510</ele>
        <time>2021-08-07T09:46:34.445Z</time>
      </trkpt>
      <trkpt lat="46.91436" lon="8.66034">
        <ele>1510</ele>
        <time>2021-08-07T09:46:35.445Z</time>
      </trkpt>
      <trkpt lat="46.91437" lon="8.66034">
        <ele>1510</ele>
        <time>2021-08-07T09:46:36.444Z</time>
      </trkpt>
      <trkpt lat="46.91438" lon="8.66034">
        <ele>1510</ele>
        <time>2021-08-07T09:46:37.445Z</time>
      </trkpt>
      <trkpt lat="46.91439" lon="8.66034">
        <ele>1509</ele>
        <time>2021-08-07T09:46:38.445Z</time>
      </trkpt>
      <trkpt lat="46.9144" lon="8.66034">
        <ele>1509</ele>
        <time>2021-08-07T09:46:39.445Z</time>
      </trkpt>
      <trkpt lat="46.91441" lon="8.66034">
        <ele>1509</ele>
        <time>2021-08-07T09:46:40.445Z</time>
      </trkpt>
      <trkpt lat="46.91442" lon="8.66034">
        <ele>1509</ele>
        <time>2021-08-07T09:46:55.574Z</time>
      </trkpt>
      <trkpt lat="46.91444" lon="8.66034">
        <ele>1510</ele>
        <time>2021-08-07T09:46:56.574Z</time>
      </trkpt>
      <trkpt lat="46.91445" lon="8.66035">
        <ele>1510</ele>
        <time>2021-08-07T09:46:57.574Z</time>
      </trkpt>
      <trkpt lat="46.91445" lon="8.66035">
        <ele>1510</ele>
        <time>2021-08-07T09:46:58.573Z</time>
      </trkpt>
      <trkpt lat="46.91446" lon="8.66035">
        <ele>1510</ele>
        <time>2021-08-07T09:46:59.573Z</time>
      </trkpt>
      <trkpt lat="46.91447" lon="8.66035">
        <ele>1510</ele>
        <time>2021-08-07T09:47:00.573Z</time>
      </trkpt>
      <trkpt lat="46.91448" lon="8.66035">
        <ele>1510</ele>
        <time>2021-08-07T09:47:01.573Z</time>
      </trkpt>
      <trkpt lat="46.91449" lon="8.66035">
        <ele>1509</ele>
        <time>2021-08-07T09:47:02.573Z</time>
      </trkpt>
      <trkpt lat="46.9145" lon="8.66035">
        <ele>1509</ele>
        <time>2021-08-07T09:47:03.574Z</time>
      </trkpt>
      <trkpt lat="46.91451" lon="8.66035">
        <ele>1509</ele>
        <time>2021-08-07T09:47:04.574Z</time>
      </trkpt>
      <trkpt lat="46.91451" lon="8.66035">
        <ele>1508</ele>
        <time>2021-08-07T09:47:05.574Z</time>
      </trkpt>
      <trkpt lat="46.91453" lon="8.66035">
        <ele>1508</ele>
        <time>2021-08-07T09:47:06.574Z</time>
      </trkpt>
      <trkpt lat="46.91454" lon="8.66034">
        <ele>1508</ele>
        <time>2021-08-07T09:47:07.574Z</time>
      </trkpt>
      <trkpt lat="46.91455" lon="8.66034">
        <ele>1508</ele>
        <time>2021-08-07T09:47:08.573Z</time>
      </trkpt>
      <trkpt lat="46.91456" lon="8.66034">
        <ele>1508</ele>
        <time>2021-08-07T09:47:09.574Z</time>
      </trkpt>
      <trkpt lat="46.91457" lon="8.66034">
        <ele>1507</ele>
        <time>2021-08-07T09:47:10.574Z</time>
      </trkpt>
      <trkpt lat="46.91458" lon="8.66034">
        <ele>1507</ele>
        <time>2021-08-07T09:47:11.574Z</time>
      </trkpt>
      <trkpt lat="46.91459" lon="8.66034">
        <ele>1507</ele>
        <time>2021-08-07T09:47:12.574Z</time>
      </trkpt>
      <trkpt lat="46.9146" lon="8.66034">
        <ele>1507</ele>
        <time>2021-08-07T09:47:13.574Z</time>
      </trkpt>
      <trkpt lat="46.91461" lon="8.66034">
        <ele>1507</ele>
        <time>2021-08-07T09:47:14.573Z</time>
      </trkpt>
      <trkpt lat="46.91463" lon="8.66033">
        <ele>1506</ele>
        <time>2021-08-07T09:47:15.574Z</time>
      </trkpt>
      <trkpt lat="46.91464" lon="8.66032">
        <ele>1506</ele>
        <time>2021-08-07T09:47:16.574Z</time>
      </trkpt>
      <trkpt lat="46.91465" lon="8.66032">
        <ele>1505</ele>
        <time>2021-08-07T09:47:17.573Z</time>
      </trkpt>
      <trkpt lat="46.91466" lon="8.66031">
        <ele>1505</ele>
        <time>2021-08-07T09:47:18.573Z</time>
      </trkpt>
      <trkpt lat="46.91467" lon="8.66031">
        <ele>1505</ele>
        <time>2021-08-07T09:47:19.574Z</time>
      </trkpt>
      <trkpt lat="46.91469" lon="8.6603">
        <ele>1506</ele>
        <time>2021-08-07T09:47:20.574Z</time>
      </trkpt>
      <trkpt lat="46.9147" lon="8.6603">
        <ele>1506</ele>
        <time>2021-08-07T09:47:21.574Z</time>
      </trkpt>
      <trkpt lat="46.91472" lon="8.66029">
        <ele>1506</ele>
        <time>2021-08-07T09:47:22.574Z</time>
      </trkpt>
      <trkpt lat="46.91473" lon="8.66029">
        <ele>1507</ele>
        <time>2021-08-07T09:47:23.574Z</time>
      </trkpt>
      <trkpt lat="46.91474" lon="8.66028">
        <ele>1507</ele>
        <time>2021-08-07T09:47:24.574Z</time>
      </trkpt>
      <trkpt lat="46.91475" lon="8.66028">
        <ele>1507</ele>
        <time>2021-08-07T09:47:25.574Z</time>
      </trkpt>
      <trkpt lat="46.91475" lon="8.66028">
        <ele>1507</ele>
        <time>2021-08-07T09:47:26.574Z</time>
      </trkpt>
      <trkpt lat="46.91477" lon="8.66027">
        <ele>1507</ele>
        <time>2021-08-07T09:47:27.574Z</time>
      </trkpt>
      <trkpt lat="46.91477" lon="8.66026">
        <ele>1508</ele>
        <time>2021-08-07T09:47:28.574Z</time>
      </trkpt>
      <trkpt lat="46.91478" lon="8.66025">
        <ele>1508</ele>
        <time>2021-08-07T09:47:29.574Z</time>
      </trkpt>
      <trkpt lat="46.91479" lon="8.66024">
        <ele>1508</ele>
        <time>2021-08-07T09:47:30.573Z</time>
      </trkpt>
      <trkpt lat="46.9148" lon="8.66024">
        <ele>1507</ele>
        <time>2021-08-07T09:47:31.574Z</time>
      </trkpt>
      <trkpt lat="46.9148" lon="8.66023">
        <ele>1507</ele>
        <time>2021-08-07T09:47:32.573Z</time>
      </trkpt>
      <trkpt lat="46.91482" lon="8.66022">
        <ele>1507</ele>
        <time>2021-08-07T09:47:33.574Z</time>
      </trkpt>
      <trkpt lat="46.91483" lon="8.66021">
        <ele>1507</ele>
        <time>2021-08-07T09:47:34.574Z</time>
      </trkpt>
      <trkpt lat="46.91484" lon="8.66021">
        <ele>1507</ele>
        <time>2021-08-07T09:47:35.573Z</time>
      </trkpt>
      <trkpt lat="46.91485" lon="8.6602">
        <ele>1507</ele>
        <time>2021-08-07T09:47:36.573Z</time>
      </trkpt>
      <trkpt lat="46.91486" lon="8.6602">
        <ele>1508</ele>
        <time>2021-08-07T09:47:37.574Z</time>
      </trkpt>
      <trkpt lat="46.91488" lon="8.6602">
        <ele>1508</ele>
        <time>2021-08-07T09:47:38.574Z</time>
      </trkpt>
      <trkpt lat="46.91488" lon="8.66019">
        <ele>1508</ele>
        <time>2021-08-07T09:47:39.574Z</time>
      </trkpt>
      <trkpt lat="46.91489" lon="8.66019">
        <ele>1507</ele>
        <time>2021-08-07T09:47:40.574Z</time>
      </trkpt>
      <trkpt lat="46.9149" lon="8.66018">
        <ele>1507</ele>
        <time>2021-08-07T09:47:41.574Z</time>
      </trkpt>
      <trkpt lat="46.91491" lon="8.66018">
        <ele>1507</ele>
        <time>2021-08-07T09:47:42.573Z</time>
      </trkpt>
      <trkpt lat="46.91492" lon="8.66018">
        <ele>1506</ele>
        <time>2021-08-07T09:47:43.573Z</time>
      </trkpt>
      <trkpt lat="46.91493" lon="8.66017">
        <ele>1505</ele>
        <time>2021-08-07T09:47:44.574Z</time>
      </trkpt>
      <trkpt lat="46.91494" lon="8.66016">
        <ele>1505</ele>
        <time>2021-08-07T09:47:45.573Z</time>
      </trkpt>
      <trkpt lat="46.91495" lon="8.66016">
        <ele>1505</ele>
        <time>2021-08-07T09:47:46.573Z</time>
      </trkpt>
      <trkpt lat="46.91496" lon="8.66016">
        <ele>1505</ele>
        <time>2021-08-07T09:47:47.573Z</time>
      </trkpt>
      <trkpt lat="46.91497" lon="8.66016">
        <ele>1505</ele>
        <time>2021-08-07T09:47:48.573Z</time>
      </trkpt>
      <trkpt lat="46.91498" lon="8.66016">
        <ele>1505</ele>
        <time>2021-08-07T09:47:49.574Z</time>
      </trkpt>
      <trkpt lat="46.91499" lon="8.66016">
        <ele>1505</ele>
        <time>2021-08-07T09:47:50.574Z</time>
      </trkpt>
      <trkpt lat="46.915" lon="8.66016">
        <ele>1505</ele>
        <time>2021-08-07T09:47:51.574Z</time>
      </trkpt>
      <trkpt lat="46.91501" lon="8.66016">
        <ele>1505</ele>
        <time>2021-08-07T09:47:52.573Z</time>
      </trkpt>
      <trkpt lat="46.91502" lon="8.66016">
        <ele>1505</ele>
        <time>2021-08-07T09:47:53.574Z</time>
      </trkpt>
      <trkpt lat="46.91502" lon="8.66016">
        <ele>1506</ele>
        <time>2021-08-07T09:47:54.574Z</time>
      </trkpt>
      <trkpt lat="46.91503" lon="8.66016">
        <ele>1506</ele>
        <time>2021-08-07T09:47:55.574Z</time>
      </trkpt>
      <trkpt lat="46.91503" lon="8.66016">
        <ele>1506</ele>
        <time>2021-08-07T09:47:56.573Z</time>
      </trkpt>
      <trkpt lat="46.91503" lon="8.66017">
        <ele>1506</ele>
        <time>2021-08-07T09:47:57.574Z</time>
      </trkpt>
      <trkpt lat="46.91505" lon="8.66017">
        <ele>1506</ele>
        <time>2021-08-07T09:47:58.574Z</time>
      </trkpt>
      <trkpt lat="46.91506" lon="8.66016">
        <ele>1506</ele>
        <time>2021-08-07T09:47:59.573Z</time>
      </trkpt>
      <trkpt lat="46.91506" lon="8.66016">
        <ele>1506</ele>
        <time>2021-08-07T09:48:00.573Z</time>
      </trkpt>
      <trkpt lat="46.91507" lon="8.66015">
        <ele>1505</ele>
        <time>2021-08-07T09:48:01.573Z</time>
      </trkpt>
      <trkpt lat="46.91507" lon="8.66014">
        <ele>1504</ele>
        <time>2021-08-07T09:48:02.574Z</time>
      </trkpt>
      <trkpt lat="46.91508" lon="8.66013">
        <ele>1504</ele>
        <time>2021-08-07T09:48:03.573Z</time>
      </trkpt>
      <trkpt lat="46.91508" lon="8.66012">
        <ele>1504</ele>
        <time>2021-08-07T09:48:04.574Z</time>
      </trkpt>
      <trkpt lat="46.91508" lon="8.66012">
        <ele>1503</ele>
        <time>2021-08-07T09:48:05.574Z</time>
      </trkpt>
      <trkpt lat="46.91508" lon="8.66011">
        <ele>1503</ele>
        <time>2021-08-07T09:48:06.573Z</time>
      </trkpt>
      <trkpt lat="46.91509" lon="8.66011">
        <ele>1502</ele>
        <time>2021-08-07T09:48:07.574Z</time>
      </trkpt>
      <trkpt lat="46.91509" lon="8.6601">
        <ele>1502</ele>
        <time>2021-08-07T09:48:08.574Z</time>
      </trkpt>
      <trkpt lat="46.9151" lon="8.6601">
        <ele>1502</ele>
        <time>2021-08-07T09:48:09.574Z</time>
      </trkpt>
      <trkpt lat="46.9151" lon="8.66008">
        <ele>1502</ele>
        <time>2021-08-07T09:48:10.573Z</time>
      </trkpt>
      <trkpt lat="46.91511" lon="8.66007">
        <ele>1502</ele>
        <time>2021-08-07T09:48:11.574Z</time>
      </trkpt>
      <trkpt lat="46.91511" lon="8.66006">
        <ele>1502</ele>
        <time>2021-08-07T09:48:12.574Z</time>
      </trkpt>
      <trkpt lat="46.91511" lon="8.66005">
        <ele>1502</ele>
        <time>2021-08-07T09:48:13.574Z</time>
      </trkpt>
      <trkpt lat="46.91512" lon="8.66004">
        <ele>1502</ele>
        <time>2021-08-07T09:48:14.574Z</time>
      </trkpt>
      <trkpt lat="46.91513" lon="8.66003">
        <ele>1501</ele>
        <time>2021-08-07T09:48:15.574Z</time>
      </trkpt>
      <trkpt lat="46.91513" lon="8.66001">
        <ele>1500</ele>
        <time>2021-08-07T09:48:16.574Z</time>
      </trkpt>
      <trkpt lat="46.91512" lon="8.65999">
        <ele>1500</ele>
        <time>2021-08-07T09:48:17.574Z</time>
      </trkpt>
      <trkpt lat="46.91512" lon="8.65997">
        <ele>1500</ele>
        <time>2021-08-07T09:48:18.574Z</time>
      </trkpt>
      <trkpt lat="46.91513" lon="8.65996">
        <ele>1500</ele>
        <time>2021-08-07T09:48:19.574Z</time>
      </trkpt>
      <trkpt lat="46.91513" lon="8.65994">
        <ele>1500</ele>
        <time>2021-08-07T09:48:20.574Z</time>
      </trkpt>
      <trkpt lat="46.91513" lon="8.65993">
        <ele>1500</ele>
        <time>2021-08-07T09:48:21.574Z</time>
      </trkpt>
      <trkpt lat="46.91513" lon="8.65991">
        <ele>1500</ele>
        <time>2021-08-07T09:48:22.573Z</time>
      </trkpt>
      <trkpt lat="46.91513" lon="8.6599">
        <ele>1500</ele>
        <time>2021-08-07T09:48:23.573Z</time>
      </trkpt>
      <trkpt lat="46.91514" lon="8.65989">
        <ele>1500</ele>
        <time>2021-08-07T09:48:24.573Z</time>
      </trkpt>
      <trkpt lat="46.91513" lon="8.65987">
        <ele>1500</ele>
        <time>2021-08-07T09:48:25.574Z</time>
      </trkpt>
      <trkpt lat="46.91513" lon="8.65986">
        <ele>1500</ele>
        <time>2021-08-07T09:48:26.573Z</time>
      </trkpt>
      <trkpt lat="46.91513" lon="8.65986">
        <ele>1500</ele>
        <time>2021-08-07T09:48:27.574Z</time>
      </trkpt>
      <trkpt lat="46.91513" lon="8.65986">
        <ele>1501</ele>
        <time>2021-08-07T09:48:28.573Z</time>
      </trkpt>
      <trkpt lat="46.91512" lon="8.65986">
        <ele>1503</ele>
        <time>2021-08-07T09:48:29.575Z</time>
      </trkpt>
      <trkpt lat="46.91511" lon="8.65987">
        <ele>1503</ele>
        <time>2021-08-07T09:48:30.574Z</time>
      </trkpt>
      <trkpt lat="46.91511" lon="8.65988">
        <ele>1503</ele>
        <time>2021-08-07T09:48:31.574Z</time>
      </trkpt>
      <trkpt lat="46.9151" lon="8.6599">
        <ele>1504</ele>
        <time>2021-08-07T09:48:32.574Z</time>
      </trkpt>
      <trkpt lat="46.9151" lon="8.65991">
        <ele>1504</ele>
        <time>2021-08-07T09:48:33.575Z</time>
      </trkpt>
      <trkpt lat="46.91509" lon="8.65992">
        <ele>1504</ele>
        <time>2021-08-07T09:48:34.575Z</time>
      </trkpt>
      <trkpt lat="46.91508" lon="8.65994">
        <ele>1504</ele>
        <time>2021-08-07T09:48:35.575Z</time>
      </trkpt>
      <trkpt lat="46.91508" lon="8.65995">
        <ele>1504</ele>
        <time>2021-08-07T09:48:36.574Z</time>
      </trkpt>
      <trkpt lat="46.91508" lon="8.65996">
        <ele>1505</ele>
        <time>2021-08-07T09:48:37.575Z</time>
      </trkpt>
      <trkpt lat="46.91507" lon="8.65997">
        <ele>1505</ele>
        <time>2021-08-07T09:48:38.575Z</time>
      </trkpt>
      <trkpt lat="46.91507" lon="8.65999">
        <ele>1505</ele>
        <time>2021-08-07T09:48:39.574Z</time>
      </trkpt>
      <trkpt lat="46.91506" lon="8.66">
        <ele>1505</ele>
        <time>2021-08-07T09:48:40.574Z</time>
      </trkpt>
      <trkpt lat="46.91506" lon="8.66001">
        <ele>1505</ele>
        <time>2021-08-07T09:48:41.575Z</time>
      </trkpt>
      <trkpt lat="46.91506" lon="8.66002">
        <ele>1505</ele>
        <time>2021-08-07T09:48:42.575Z</time>
      </trkpt>
      <trkpt lat="46.91506" lon="8.66003">
        <ele>1505</ele>
        <time>2021-08-07T09:48:43.575Z</time>
      </trkpt>
      <trkpt lat="46.91506" lon="8.66005">
        <ele>1505</ele>
        <time>2021-08-07T09:48:44.575Z</time>
      </trkpt>
      <trkpt lat="46.91506" lon="8.66006">
        <ele>1506</ele>
        <time>2021-08-07T09:48:45.575Z</time>
      </trkpt>
      <trkpt lat="46.91506" lon="8.66007">
        <ele>1506</ele>
        <time>2021-08-07T09:48:46.575Z</time>
      </trkpt>
      <trkpt lat="46.91506" lon="8.66008">
        <ele>1506</ele>
        <time>2021-08-07T09:48:47.575Z</time>
      </trkpt>
      <trkpt lat="46.91506" lon="8.66009">
        <ele>1506</ele>
        <time>2021-08-07T09:48:48.575Z</time>
      </trkpt>
      <trkpt lat="46.91506" lon="8.6601">
        <ele>1506</ele>
        <time>2021-08-07T09:48:49.575Z</time>
      </trkpt>
      <trkpt lat="46.91505" lon="8.66012">
        <ele>1507</ele>
        <time>2021-08-07T09:48:50.575Z</time>
      </trkpt>
      <trkpt lat="46.91505" lon="8.66013">
        <ele>1507</ele>
        <time>2021-08-07T09:48:51.574Z</time>
      </trkpt>
      <trkpt lat="46.91504" lon="8.66013">
        <ele>1507</ele>
        <time>2021-08-07T09:48:52.575Z</time>
      </trkpt>
      <trkpt lat="46.91504" lon="8.66013">
        <ele>1507</ele>
        <time>2021-08-07T09:48:53.575Z</time>
      </trkpt>
      <trkpt lat="46.91503" lon="8.66013">
        <ele>1508</ele>
        <time>2021-08-07T09:48:54.574Z</time>
      </trkpt>
      <trkpt lat="46.91502" lon="8.66013">
        <ele>1509</ele>
        <time>2021-08-07T09:48:55.575Z</time>
      </trkpt>
      <trkpt lat="46.91502" lon="8.66013">
        <ele>1509</ele>
        <time>2021-08-07T09:48:56.574Z</time>
      </trkpt>
      <trkpt lat="46.91502" lon="8.66013">
        <ele>1509</ele>
        <time>2021-08-07T09:48:57.575Z</time>
      </trkpt>
      <trkpt lat="46.91502" lon="8.66012">
        <ele>1509</ele>
        <time>2021-08-07T09:48:58.575Z</time>
      </trkpt>
      <trkpt lat="46.91501" lon="8.66012">
        <ele>1508</ele>
        <time>2021-08-07T09:48:59.575Z</time>
      </trkpt>
      <trkpt lat="46.915" lon="8.66012">
        <ele>1507</ele>
        <time>2021-08-07T09:49:00.575Z</time>
      </trkpt>
      <trkpt lat="46.91499" lon="8.66011">
        <ele>1507</ele>
        <time>2021-08-07T09:49:01.575Z</time>
      </trkpt>
      <trkpt lat="46.91498" lon="8.66011">
        <ele>1506</ele>
        <time>2021-08-07T09:49:02.574Z</time>
      </trkpt>
      <trkpt lat="46.91497" lon="8.6601">
        <ele>1506</ele>
        <time>2021-08-07T09:49:03.575Z</time>
      </trkpt>
      <trkpt lat="46.91496" lon="8.6601">
        <ele>1506</ele>
        <time>2021-08-07T09:49:04.574Z</time>
      </trkpt>
      <trkpt lat="46.91496" lon="8.6601">
        <ele>1506</ele>
        <time>2021-08-07T09:49:05.575Z</time>
      </trkpt>
      <trkpt lat="46.91496" lon="8.6601">
        <ele>1506</ele>
        <time>2021-08-07T09:49:06.575Z</time>
      </trkpt>
      <trkpt lat="46.91496" lon="8.6601">
        <ele>1507</ele>
        <time>2021-08-07T09:49:07.575Z</time>
      </trkpt>
      <trkpt lat="46.91498" lon="8.66009">
        <ele>1505</ele>
        <time>2021-08-07T09:49:08.576Z</time>
      </trkpt>
      <trkpt lat="46.91498" lon="8.66009">
        <ele>1504</ele>
        <time>2021-08-07T09:49:09.575Z</time>
      </trkpt>
      <trkpt lat="46.91498" lon="8.66008">
        <ele>1504</ele>
        <time>2021-08-07T09:49:10.575Z</time>
      </trkpt>
      <trkpt lat="46.91499" lon="8.66007">
        <ele>1503</ele>
        <time>2021-08-07T09:49:11.576Z</time>
      </trkpt>
      <trkpt lat="46.91499" lon="8.66005">
        <ele>1503</ele>
        <time>2021-08-07T09:49:12.576Z</time>
      </trkpt>
      <trkpt lat="46.91499" lon="8.66003">
        <ele>1502</ele>
        <time>2021-08-07T09:49:13.576Z</time>
      </trkpt>
      <trkpt lat="46.91499" lon="8.66001">
        <ele>1501</ele>
        <time>2021-08-07T09:49:14.576Z</time>
      </trkpt>
      <trkpt lat="46.91499" lon="8.65999">
        <ele>1500</ele>
        <time>2021-08-07T09:49:15.576Z</time>
      </trkpt>
      <trkpt lat="46.91499" lon="8.65997">
        <ele>1500</ele>
        <time>2021-08-07T09:49:16.576Z</time>
      </trkpt>
      <trkpt lat="46.91499" lon="8.65995">
        <ele>1499</ele>
        <time>2021-08-07T09:49:17.576Z</time>
      </trkpt>
      <trkpt lat="46.91499" lon="8.65993">
        <ele>1499</ele>
        <time>2021-08-07T09:49:18.575Z</time>
      </trkpt>
      <trkpt lat="46.91499" lon="8.65991">
        <ele>1499</ele>
        <time>2021-08-07T09:49:19.575Z</time>
      </trkpt>
      <trkpt lat="46.915" lon="8.65989">
        <ele>1499</ele>
        <time>2021-08-07T09:49:20.576Z</time>
      </trkpt>
      <trkpt lat="46.915" lon="8.65988">
        <ele>1499</ele>
        <time>2021-08-07T09:49:21.576Z</time>
      </trkpt>
      <trkpt lat="46.915" lon="8.65985">
        <ele>1499</ele>
        <time>2021-08-07T09:49:22.576Z</time>
      </trkpt>
      <trkpt lat="46.915" lon="8.65982">
        <ele>1498</ele>
        <time>2021-08-07T09:49:23.576Z</time>
      </trkpt>
      <trkpt lat="46.915" lon="8.6598">
        <ele>1498</ele>
        <time>2021-08-07T09:49:24.576Z</time>
      </trkpt>
      <trkpt lat="46.915" lon="8.65979">
        <ele>1498</ele>
        <time>2021-08-07T09:49:25.576Z</time>
      </trkpt>
      <trkpt lat="46.915" lon="8.65977">
        <ele>1499</ele>
        <time>2021-08-07T09:49:26.576Z</time>
      </trkpt>
      <trkpt lat="46.915" lon="8.65975">
        <ele>1499</ele>
        <time>2021-08-07T09:49:27.576Z</time>
      </trkpt>
      <trkpt lat="46.91501" lon="8.65973">
        <ele>1499</ele>
        <time>2021-08-07T09:49:28.576Z</time>
      </trkpt>
      <trkpt lat="46.91501" lon="8.65971">
        <ele>1499</ele>
        <time>2021-08-07T09:49:29.576Z</time>
      </trkpt>
      <trkpt lat="46.91501" lon="8.6597">
        <ele>1498</ele>
        <time>2021-08-07T09:49:30.575Z</time>
      </trkpt>
      <trkpt lat="46.91501" lon="8.65968">
        <ele>1498</ele>
        <time>2021-08-07T09:49:31.576Z</time>
      </trkpt>
      <trkpt lat="46.91501" lon="8.65965">
        <ele>1498</ele>
        <time>2021-08-07T09:49:32.576Z</time>
      </trkpt>
      <trkpt lat="46.91501" lon="8.65963">
        <ele>1498</ele>
        <time>2021-08-07T09:49:33.576Z</time>
      </trkpt>
      <trkpt lat="46.91501" lon="8.65961">
        <ele>1498</ele>
        <time>2021-08-07T09:49:34.575Z</time>
      </trkpt>
      <trkpt lat="46.91501" lon="8.6596">
        <ele>1498</ele>
        <time>2021-08-07T09:49:35.576Z</time>
      </trkpt>
      <trkpt lat="46.91501" lon="8.65959">
        <ele>1498</ele>
        <time>2021-08-07T09:49:36.576Z</time>
      </trkpt>
      <trkpt lat="46.91501" lon="8.65958">
        <ele>1498</ele>
        <time>2021-08-07T09:49:37.576Z</time>
      </trkpt>
      <trkpt lat="46.91501" lon="8.65957">
        <ele>1498</ele>
        <time>2021-08-07T09:49:40.706Z</time>
      </trkpt>
      <trkpt lat="46.91502" lon="8.65955">
        <ele>1498</ele>
        <time>2021-08-07T09:49:41.705Z</time>
      </trkpt>
      <trkpt lat="46.91502" lon="8.65955">
        <ele>1497</ele>
        <time>2021-08-07T09:49:50.845Z</time>
      </trkpt>
      <trkpt lat="46.91502" lon="8.65954">
        <ele>1497</ele>
        <time>2021-08-07T09:49:51.846Z</time>
      </trkpt>
      <trkpt lat="46.91502" lon="8.65953">
        <ele>1496</ele>
        <time>2021-08-07T09:49:52.845Z</time>
      </trkpt>
      <trkpt lat="46.91502" lon="8.65952">
        <ele>1496</ele>
        <time>2021-08-07T09:49:58.971Z</time>
      </trkpt>
      <trkpt lat="46.91502" lon="8.65951">
        <ele>1496</ele>
        <time>2021-08-07T09:49:59.971Z</time>
      </trkpt>
      <trkpt lat="46.91502" lon="8.65949">
        <ele>1496</ele>
        <time>2021-08-07T09:50:00.971Z</time>
      </trkpt>
      <trkpt lat="46.91502" lon="8.65947">
        <ele>1495</ele>
        <time>2021-08-07T09:50:01.970Z</time>
      </trkpt>
      <trkpt lat="46.91503" lon="8.65945">
        <ele>1495</ele>
        <time>2021-08-07T09:50:02.971Z</time>
      </trkpt>
      <trkpt lat="46.91503" lon="8.65943">
        <ele>1496</ele>
        <time>2021-08-07T09:50:03.971Z</time>
      </trkpt>
      <trkpt lat="46.91504" lon="8.65942">
        <ele>1496</ele>
        <time>2021-08-07T09:50:04.970Z</time>
      </trkpt>
      <trkpt lat="46.91504" lon="8.65943">
        <ele>1496</ele>
        <time>2021-08-07T09:50:05.970Z</time>
      </trkpt>
      <trkpt lat="46.91504" lon="8.65943">
        <ele>1495</ele>
        <time>2021-08-07T09:50:06.971Z</time>
      </trkpt>
      <trkpt lat="46.91503" lon="8.65944">
        <ele>1490</ele>
        <time>2021-08-07T09:50:07.972Z</time>
      </trkpt>
      <trkpt lat="46.91503" lon="8.65944">
        <ele>1490</ele>
        <time>2021-08-07T09:50:08.972Z</time>
      </trkpt>
      <trkpt lat="46.91503" lon="8.65943">
        <ele>1489</ele>
        <time>2021-08-07T09:50:09.971Z</time>
      </trkpt>
      <trkpt lat="46.91503" lon="8.65943">
        <ele>1489</ele>
        <time>2021-08-07T09:50:10.971Z</time>
      </trkpt>
      <trkpt lat="46.91503" lon="8.65942">
        <ele>1488</ele>
        <time>2021-08-07T09:50:11.972Z</time>
      </trkpt>
      <trkpt lat="46.91503" lon="8.65941">
        <ele>1488</ele>
        <time>2021-08-07T09:50:12.971Z</time>
      </trkpt>
      <trkpt lat="46.91504" lon="8.6594">
        <ele>1487</ele>
        <time>2021-08-07T09:50:13.971Z</time>
      </trkpt>
      <trkpt lat="46.91504" lon="8.65938">
        <ele>1487</ele>
        <time>2021-08-07T09:50:14.971Z</time>
      </trkpt>
      <trkpt lat="46.91504" lon="8.65936">
        <ele>1487</ele>
        <time>2021-08-07T09:50:15.972Z</time>
      </trkpt>
      <trkpt lat="46.91505" lon="8.65934">
        <ele>1487</ele>
        <time>2021-08-07T09:50:16.972Z</time>
      </trkpt>
      <trkpt lat="46.91506" lon="8.65932">
        <ele>1487</ele>
        <time>2021-08-07T09:50:27.057Z</time>
      </trkpt>
      <trkpt lat="46.91507" lon="8.6593">
        <ele>1486</ele>
        <time>2021-08-07T09:50:28.057Z</time>
      </trkpt>
      <trkpt lat="46.91507" lon="8.65928">
        <ele>1486</ele>
        <time>2021-08-07T09:50:29.057Z</time>
      </trkpt>
      <trkpt lat="46.91508" lon="8.65926">
        <ele>1486</ele>
        <time>2021-08-07T09:50:30.057Z</time>
      </trkpt>
      <trkpt lat="46.91507" lon="8.65923">
        <ele>1486</ele>
        <time>2021-08-07T09:50:31.057Z</time>
      </trkpt>
      <trkpt lat="46.91507" lon="8.65921">
        <ele>1485</ele>
        <time>2021-08-07T09:50:32.057Z</time>
      </trkpt>
      <trkpt lat="46.91507" lon="8.65918">
        <ele>1485</ele>
        <time>2021-08-07T09:50:33.057Z</time>
      </trkpt>
      <trkpt lat="46.91507" lon="8.65917">
        <ele>1485</ele>
        <time>2021-08-07T09:50:38.182Z</time>
      </trkpt>
      <trkpt lat="46.91508" lon="8.65915">
        <ele>1485</ele>
        <time>2021-08-07T09:50:46.119Z</time>
      </trkpt>
      <trkpt lat="46.91507" lon="8.65914">
        <ele>1484</ele>
        <time>2021-08-07T09:50:47.119Z</time>
      </trkpt>
      <trkpt lat="46.91507" lon="8.65913">
        <ele>1484</ele>
        <time>2021-08-07T09:50:48.119Z</time>
      </trkpt>
      <trkpt lat="46.91507" lon="8.65911">
        <ele>1484</ele>
        <time>2021-08-07T09:50:49.120Z</time>
      </trkpt>
      <trkpt lat="46.91507" lon="8.6591">
        <ele>1484</ele>
        <time>2021-08-07T09:50:50.119Z</time>
      </trkpt>
      <trkpt lat="46.91507" lon="8.6591">
        <ele>1484</ele>
        <time>2021-08-07T09:50:51.119Z</time>
      </trkpt>
      <trkpt lat="46.91508" lon="8.65909">
        <ele>1485</ele>
        <time>2021-08-07T09:50:59.219Z</time>
      </trkpt>
      <trkpt lat="46.91507" lon="8.65908">
        <ele>1485</ele>
        <time>2021-08-07T09:51:00.220Z</time>
      </trkpt>
      <trkpt lat="46.91507" lon="8.65907">
        <ele>1485</ele>
        <time>2021-08-07T09:51:01.219Z</time>
      </trkpt>
      <trkpt lat="46.91507" lon="8.65906">
        <ele>1486</ele>
        <time>2021-08-07T09:51:07.343Z</time>
      </trkpt>
      <trkpt lat="46.91507" lon="8.65905">
        <ele>1486</ele>
        <time>2021-08-07T09:51:23.180Z</time>
      </trkpt>
      <trkpt lat="46.91507" lon="8.65905">
        <ele>1487</ele>
        <time>2021-08-07T09:51:30.072Z</time>
      </trkpt>
      <trkpt lat="46.91508" lon="8.65905">
        <ele>1487</ele>
        <time>2021-08-07T09:51:31.073Z</time>
      </trkpt>
      <trkpt lat="46.91508" lon="8.65904">
        <ele>1487</ele>
        <time>2021-08-07T09:51:32.073Z</time>
      </trkpt>
      <trkpt lat="46.91508" lon="8.65903">
        <ele>1487</ele>
        <time>2021-08-07T09:51:33.073Z</time>
      </trkpt>
      <trkpt lat="46.91508" lon="8.65903">
        <ele>1487</ele>
        <time>2021-08-07T09:51:34.073Z</time>
      </trkpt>
      <trkpt lat="46.91507" lon="8.65902">
        <ele>1487</ele>
        <time>2021-08-07T09:51:35.072Z</time>
      </trkpt>
      <trkpt lat="46.91507" lon="8.65901">
        <ele>1488</ele>
        <time>2021-08-07T09:51:36.073Z</time>
      </trkpt>
      <trkpt lat="46.91506" lon="8.659">
        <ele>1488</ele>
        <time>2021-08-07T09:51:37.073Z</time>
      </trkpt>
      <trkpt lat="46.91505" lon="8.659">
        <ele>1488</ele>
        <time>2021-08-07T09:51:38.073Z</time>
      </trkpt>
      <trkpt lat="46.91505" lon="8.65898">
        <ele>1488</ele>
        <time>2021-08-07T09:51:39.073Z</time>
      </trkpt>
      <trkpt lat="46.91505" lon="8.65897">
        <ele>1487</ele>
        <time>2021-08-07T09:51:40.073Z</time>
      </trkpt>
      <trkpt lat="46.91504" lon="8.65896">
        <ele>1487</ele>
        <time>2021-08-07T09:51:41.073Z</time>
      </trkpt>
      <trkpt lat="46.91504" lon="8.65895">
        <ele>1487</ele>
        <time>2021-08-07T09:51:42.073Z</time>
      </trkpt>
      <trkpt lat="46.91505" lon="8.65893">
        <ele>1486</ele>
        <time>2021-08-07T09:51:43.073Z</time>
      </trkpt>
      <trkpt lat="46.91506" lon="8.65891">
        <ele>1485</ele>
        <time>2021-08-07T09:51:44.072Z</time>
      </trkpt>
      <trkpt lat="46.91506" lon="8.6589">
        <ele>1485</ele>
        <time>2021-08-07T09:51:45.073Z</time>
      </trkpt>
      <trkpt lat="46.91507" lon="8.65889">
        <ele>1485</ele>
        <time>2021-08-07T09:51:46.073Z</time>
      </trkpt>
      <trkpt lat="46.91507" lon="8.65888">
        <ele>1484</ele>
        <time>2021-08-07T09:51:47.073Z</time>
      </trkpt>
      <trkpt lat="46.91507" lon="8.65887">
        <ele>1484</ele>
        <time>2021-08-07T09:51:48.072Z</time>
      </trkpt>
      <trkpt lat="46.91508" lon="8.65887">
        <ele>1485</ele>
        <time>2021-08-07T09:51:49.073Z</time>
      </trkpt>
      <trkpt lat="46.91508" lon="8.65886">
        <ele>1485</ele>
        <time>2021-08-07T09:51:50.073Z</time>
      </trkpt>
      <trkpt lat="46.91508" lon="8.65885">
        <ele>1485</ele>
        <time>2021-08-07T09:51:51.072Z</time>
      </trkpt>
      <trkpt lat="46.91508" lon="8.65885">
        <ele>1486</ele>
        <time>2021-08-07T09:51:52.072Z</time>
      </trkpt>
      <trkpt lat="46.91508" lon="8.65884">
        <ele>1486</ele>
        <time>2021-08-07T09:51:53.072Z</time>
      </trkpt>
      <trkpt lat="46.91508" lon="8.65883">
        <ele>1487</ele>
        <time>2021-08-07T09:51:54.073Z</time>
      </trkpt>
      <trkpt lat="46.91508" lon="8.65882">
        <ele>1488</ele>
        <time>2021-08-07T09:51:55.073Z</time>
      </trkpt>
      <trkpt lat="46.91508" lon="8.6588">
        <ele>1488</ele>
        <time>2021-08-07T09:51:56.073Z</time>
      </trkpt>
      <trkpt lat="46.91508" lon="8.65879">
        <ele>1488</ele>
        <time>2021-08-07T09:51:57.072Z</time>
      </trkpt>
      <trkpt lat="46.91509" lon="8.65877">
        <ele>1489</ele>
        <time>2021-08-07T09:51:58.073Z</time>
      </trkpt>
      <trkpt lat="46.91509" lon="8.65875">
        <ele>1489</ele>
        <time>2021-08-07T09:51:59.072Z</time>
      </trkpt>
      <trkpt lat="46.91509" lon="8.65874">
        <ele>1489</ele>
        <time>2021-08-07T09:52:00.073Z</time>
      </trkpt>
      <trkpt lat="46.91509" lon="8.65873">
        <ele>1489</ele>
        <time>2021-08-07T09:52:01.073Z</time>
      </trkpt>
      <trkpt lat="46.91509" lon="8.65872">
        <ele>1489</ele>
        <time>2021-08-07T09:52:02.072Z</time>
      </trkpt>
      <trkpt lat="46.91509" lon="8.65871">
        <ele>1488</ele>
        <time>2021-08-07T09:52:03.072Z</time>
      </trkpt>
      <trkpt lat="46.91509" lon="8.65871">
        <ele>1488</ele>
        <time>2021-08-07T09:52:04.073Z</time>
      </trkpt>
      <trkpt lat="46.91509" lon="8.65873">
        <ele>1485</ele>
        <time>2021-08-07T09:52:05.073Z</time>
      </trkpt>
      <trkpt lat="46.9151" lon="8.65873">
        <ele>1485</ele>
        <time>2021-08-07T09:52:06.074Z</time>
      </trkpt>
      <trkpt lat="46.9151" lon="8.65873">
        <ele>1486</ele>
        <time>2021-08-07T09:52:07.073Z</time>
      </trkpt>
      <trkpt lat="46.91508" lon="8.65871">
        <ele>1487</ele>
        <time>2021-08-07T09:52:08.074Z</time>
      </trkpt>
      <trkpt lat="46.91509" lon="8.65869">
        <ele>1487</ele>
        <time>2021-08-07T09:52:09.076Z</time>
      </trkpt>
      <trkpt lat="46.9151" lon="8.65868">
        <ele>1488</ele>
        <time>2021-08-07T09:52:12.169Z</time>
      </trkpt>
      <trkpt lat="46.9151" lon="8.65867">
        <ele>1488</ele>
        <time>2021-08-07T09:52:13.169Z</time>
      </trkpt>
      <trkpt lat="46.9151" lon="8.65867">
        <ele>1488</ele>
        <time>2021-08-07T09:52:14.168Z</time>
      </trkpt>
      <trkpt lat="46.9151" lon="8.65866">
        <ele>1488</ele>
        <time>2021-08-07T09:52:15.169Z</time>
      </trkpt>
      <trkpt lat="46.91511" lon="8.65866">
        <ele>1488</ele>
        <time>2021-08-07T09:52:16.169Z</time>
      </trkpt>
      <trkpt lat="46.91512" lon="8.65865">
        <ele>1488</ele>
        <time>2021-08-07T09:52:17.168Z</time>
      </trkpt>
      <trkpt lat="46.91513" lon="8.65864">
        <ele>1487</ele>
        <time>2021-08-07T09:52:18.168Z</time>
      </trkpt>
      <trkpt lat="46.91514" lon="8.65864">
        <ele>1487</ele>
        <time>2021-08-07T09:52:19.168Z</time>
      </trkpt>
      <trkpt lat="46.91514" lon="8.65863">
        <ele>1486</ele>
        <time>2021-08-07T09:52:20.169Z</time>
      </trkpt>
      <trkpt lat="46.91514" lon="8.65862">
        <ele>1486</ele>
        <time>2021-08-07T09:52:21.169Z</time>
      </trkpt>
      <trkpt lat="46.91513" lon="8.65862">
        <ele>1487</ele>
        <time>2021-08-07T09:52:22.168Z</time>
      </trkpt>
      <trkpt lat="46.91512" lon="8.65863">
        <ele>1488</ele>
        <time>2021-08-07T09:52:23.168Z</time>
      </trkpt>
      <trkpt lat="46.91512" lon="8.65864">
        <ele>1488</ele>
        <time>2021-08-07T09:52:24.168Z</time>
      </trkpt>
      <trkpt lat="46.91513" lon="8.65862">
        <ele>1488</ele>
        <time>2021-08-07T09:52:25.169Z</time>
      </trkpt>
      <trkpt lat="46.91512" lon="8.65862">
        <ele>1488</ele>
        <time>2021-08-07T09:52:26.168Z</time>
      </trkpt>
      <trkpt lat="46.91511" lon="8.65863">
        <ele>1488</ele>
        <time>2021-08-07T09:52:27.168Z</time>
      </trkpt>
      <trkpt lat="46.9151" lon="8.65863">
        <ele>1488</ele>
        <time>2021-08-07T09:52:28.168Z</time>
      </trkpt>
      <trkpt lat="46.9151" lon="8.65865">
        <ele>1488</ele>
        <time>2021-08-07T09:52:29.168Z</time>
      </trkpt>
      <trkpt lat="46.9151" lon="8.65865">
        <ele>1487</ele>
        <time>2021-08-07T09:52:30.168Z</time>
      </trkpt>
      <trkpt lat="46.9151" lon="8.65866">
        <ele>1487</ele>
        <time>2021-08-07T09:52:31.168Z</time>
      </trkpt>
      <trkpt lat="46.91509" lon="8.65866">
        <ele>1487</ele>
        <time>2021-08-07T09:52:32.168Z</time>
      </trkpt>
      <trkpt lat="46.91509" lon="8.65867">
        <ele>1486</ele>
        <time>2021-08-07T09:52:33.168Z</time>
      </trkpt>
      <trkpt lat="46.91508" lon="8.65867">
        <ele>1486</ele>
        <time>2021-08-07T09:52:34.169Z</time>
      </trkpt>
      <trkpt lat="46.91508" lon="8.65868">
        <ele>1487</ele>
        <time>2021-08-07T09:52:35.168Z</time>
      </trkpt>
      <trkpt lat="46.91508" lon="8.65869">
        <ele>1487</ele>
        <time>2021-08-07T09:52:36.168Z</time>
      </trkpt>
      <trkpt lat="46.91507" lon="8.65869">
        <ele>1487</ele>
        <time>2021-08-07T09:52:37.168Z</time>
      </trkpt>
      <trkpt lat="46.91507" lon="8.6587">
        <ele>1487</ele>
        <time>2021-08-07T09:52:38.168Z</time>
      </trkpt>
      <trkpt lat="46.91506" lon="8.6587">
        <ele>1488</ele>
        <time>2021-08-07T09:52:39.168Z</time>
      </trkpt>
      <trkpt lat="46.91506" lon="8.65871">
        <ele>1488</ele>
        <time>2021-08-07T09:52:40.168Z</time>
      </trkpt>
      <trkpt lat="46.91506" lon="8.65871">
        <ele>1488</ele>
        <time>2021-08-07T09:52:41.168Z</time>
      </trkpt>
      <trkpt lat="46.91506" lon="8.65872">
        <ele>1488</ele>
        <time>2021-08-07T09:52:42.168Z</time>
      </trkpt>
      <trkpt lat="46.91506" lon="8.65872">
        <ele>1488</ele>
        <time>2021-08-07T09:52:43.169Z</time>
      </trkpt>
      <trkpt lat="46.91507" lon="8.65872">
        <ele>1488</ele>
        <time>2021-08-07T09:52:44.168Z</time>
      </trkpt>
      <trkpt lat="46.91511" lon="8.65872">
        <ele>1489</ele>
        <time>2021-08-07T09:52:45.169Z</time>
      </trkpt>
      <trkpt lat="46.91511" lon="8.65872">
        <ele>1489</ele>
        <time>2021-08-07T09:52:46.169Z</time>
      </trkpt>
      <trkpt lat="46.91511" lon="8.65873">
        <ele>1490</ele>
        <time>2021-08-07T09:52:47.169Z</time>
      </trkpt>
      <trkpt lat="46.91512" lon="8.65873">
        <ele>1490</ele>
        <time>2021-08-07T09:52:48.169Z</time>
      </trkpt>
      <trkpt lat="46.91512" lon="8.65873">
        <ele>1491</ele>
        <time>2021-08-07T09:52:49.169Z</time>
      </trkpt>
      <trkpt lat="46.91512" lon="8.65874">
        <ele>1491</ele>
        <time>2021-08-07T09:52:50.168Z</time>
      </trkpt>
      <trkpt lat="46.91512" lon="8.65874">
        <ele>1492</ele>
        <time>2021-08-07T09:52:51.169Z</time>
      </trkpt>
      <trkpt lat="46.91513" lon="8.65875">
        <ele>1492</ele>
        <time>2021-08-07T09:52:52.168Z</time>
      </trkpt>
      <trkpt lat="46.91513" lon="8.65876">
        <ele>1492</ele>
        <time>2021-08-07T09:52:53.168Z</time>
      </trkpt>
      <trkpt lat="46.91511" lon="8.65874">
        <ele>1499</ele>
        <time>2021-08-07T09:52:57.190Z</time>
      </trkpt>
      <trkpt lat="46.91511" lon="8.65874">
        <ele>1500</ele>
        <time>2021-08-07T09:52:58.189Z</time>
      </trkpt>
      <trkpt lat="46.91511" lon="8.65873">
        <ele>1500</ele>
        <time>2021-08-07T09:52:59.190Z</time>
      </trkpt>
      <trkpt lat="46.91512" lon="8.65873">
        <ele>1500</ele>
        <time>2021-08-07T09:53:00.190Z</time>
      </trkpt>
      <trkpt lat="46.91512" lon="8.65873">
        <ele>1500</ele>
        <time>2021-08-07T09:53:01.190Z</time>
      </trkpt>
      <trkpt lat="46.91514" lon="8.65873">
        <ele>1500</ele>
        <time>2021-08-07T09:53:04.307Z</time>
      </trkpt>
      <trkpt lat="46.91514" lon="8.65876">
        <ele>1500</ele>
        <time>2021-08-07T09:53:05.308Z</time>
      </trkpt>
      <trkpt lat="46.91515" lon="8.65875">
        <ele>1507</ele>
        <time>2021-08-07T09:53:06.308Z</time>
      </trkpt>
      <trkpt lat="46.91514" lon="8.65874">
        <ele>1507</ele>
        <time>2021-08-07T09:53:07.308Z</time>
      </trkpt>
      <trkpt lat="46.91507" lon="8.65866">
        <ele>1509</ele>
        <time>2021-08-07T09:53:08.309Z</time>
      </trkpt>
      <trkpt lat="46.91507" lon="8.65865">
        <ele>1509</ele>
        <time>2021-08-07T09:53:09.308Z</time>
      </trkpt>
      <trkpt lat="46.91507" lon="8.65863">
        <ele>1508</ele>
        <time>2021-08-07T09:53:10.308Z</time>
      </trkpt>
      <trkpt lat="46.91506" lon="8.65865">
        <ele>1501</ele>
        <time>2021-08-07T09:53:11.309Z</time>
      </trkpt>
      <trkpt lat="46.91506" lon="8.65866">
        <ele>1500</ele>
        <time>2021-08-07T09:53:12.309Z</time>
      </trkpt>
      <trkpt lat="46.91506" lon="8.65867">
        <ele>1500</ele>
        <time>2021-08-07T09:53:13.309Z</time>
      </trkpt>
      <trkpt lat="46.91507" lon="8.65867">
        <ele>1499</ele>
        <time>2021-08-07T09:53:14.308Z</time>
      </trkpt>
      <trkpt lat="46.91508" lon="8.65866">
        <ele>1498</ele>
        <time>2021-08-07T09:53:15.309Z</time>
      </trkpt>
      <trkpt lat="46.91506" lon="8.65863">
        <ele>1494</ele>
        <time>2021-08-07T09:53:16.309Z</time>
      </trkpt>
      <trkpt lat="46.91509" lon="8.65865">
        <ele>1486</ele>
        <time>2021-08-07T09:53:17.309Z</time>
      </trkpt>
      <trkpt lat="46.9151" lon="8.65864">
        <ele>1486</ele>
        <time>2021-08-07T09:53:18.310Z</time>
      </trkpt>
      <trkpt lat="46.9151" lon="8.65863">
        <ele>1486</ele>
        <time>2021-08-07T09:53:19.310Z</time>
      </trkpt>
      <trkpt lat="46.9151" lon="8.65862">
        <ele>1486</ele>
        <time>2021-08-07T09:53:20.309Z</time>
      </trkpt>
      <trkpt lat="46.91509" lon="8.65861">
        <ele>1487</ele>
        <time>2021-08-07T09:53:21.309Z</time>
      </trkpt>
      <trkpt lat="46.91509" lon="8.65861">
        <ele>1488</ele>
        <time>2021-08-07T09:53:22.309Z</time>
      </trkpt>
      <trkpt lat="46.91509" lon="8.65861">
        <ele>1488</ele>
        <time>2021-08-07T09:53:23.309Z</time>
      </trkpt>
      <trkpt lat="46.91509" lon="8.65861">
        <ele>1489</ele>
        <time>2021-08-07T09:53:24.311Z</time>
      </trkpt>
      <trkpt lat="46.91512" lon="8.65862">
        <ele>1490</ele>
        <time>2021-08-07T09:53:25.311Z</time>
      </trkpt>
      <trkpt lat="46.91513" lon="8.65864">
        <ele>1490</ele>
        <time>2021-08-07T09:53:26.311Z</time>
      </trkpt>
      <trkpt lat="46.91514" lon="8.65865">
        <ele>1490</ele>
        <time>2021-08-07T09:53:27.311Z</time>
      </trkpt>
      <trkpt lat="46.91515" lon="8.65866">
        <ele>1490</ele>
        <time>2021-08-07T09:53:28.310Z</time>
      </trkpt>
      <trkpt lat="46.91515" lon="8.65865">
        <ele>1490</ele>
        <time>2021-08-07T09:53:29.310Z</time>
      </trkpt>
      <trkpt lat="46.91515" lon="8.65863">
        <ele>1489</ele>
        <time>2021-08-07T09:53:30.311Z</time>
      </trkpt>
      <trkpt lat="46.91514" lon="8.65861">
        <ele>1489</ele>
        <time>2021-08-07T09:53:31.310Z</time>
      </trkpt>
      <trkpt lat="46.91515" lon="8.65861">
        <ele>1488</ele>
        <time>2021-08-07T09:53:32.310Z</time>
      </trkpt>
      <trkpt lat="46.91516" lon="8.65861">
        <ele>1488</ele>
        <time>2021-08-07T09:53:33.311Z</time>
      </trkpt>
      <trkpt lat="46.91517" lon="8.65861">
        <ele>1487</ele>
        <time>2021-08-07T09:53:34.311Z</time>
      </trkpt>
      <trkpt lat="46.91517" lon="8.6586">
        <ele>1487</ele>
        <time>2021-08-07T09:53:35.311Z</time>
      </trkpt>
      <trkpt lat="46.91517" lon="8.65859">
        <ele>1486</ele>
        <time>2021-08-07T09:53:36.311Z</time>
      </trkpt>
      <trkpt lat="46.91517" lon="8.65858">
        <ele>1486</ele>
        <time>2021-08-07T09:53:37.311Z</time>
      </trkpt>
      <trkpt lat="46.91516" lon="8.65857">
        <ele>1486</ele>
        <time>2021-08-07T09:53:38.311Z</time>
      </trkpt>
      <trkpt lat="46.91516" lon="8.65855">
        <ele>1486</ele>
        <time>2021-08-07T09:53:39.310Z</time>
      </trkpt>
      <trkpt lat="46.91516" lon="8.65854">
        <ele>1486</ele>
        <time>2021-08-07T09:53:40.311Z</time>
      </trkpt>
      <trkpt lat="46.91516" lon="8.65853">
        <ele>1486</ele>
        <time>2021-08-07T09:53:41.311Z</time>
      </trkpt>
      <trkpt lat="46.91517" lon="8.65853">
        <ele>1485</ele>
        <time>2021-08-07T09:53:42.310Z</time>
      </trkpt>
      <trkpt lat="46.91517" lon="8.65852">
        <ele>1485</ele>
        <time>2021-08-07T09:53:43.311Z</time>
      </trkpt>
      <trkpt lat="46.91517" lon="8.65851">
        <ele>1485</ele>
        <time>2021-08-07T09:53:44.310Z</time>
      </trkpt>
      <trkpt lat="46.91518" lon="8.6585">
        <ele>1485</ele>
        <time>2021-08-07T09:53:45.310Z</time>
      </trkpt>
      <trkpt lat="46.91518" lon="8.65849">
        <ele>1485</ele>
        <time>2021-08-07T09:53:46.311Z</time>
      </trkpt>
      <trkpt lat="46.91519" lon="8.65847">
        <ele>1485</ele>
        <time>2021-08-07T09:53:47.311Z</time>
      </trkpt>
      <trkpt lat="46.9152" lon="8.65846">
        <ele>1485</ele>
        <time>2021-08-07T09:53:48.310Z</time>
      </trkpt>
      <trkpt lat="46.9152" lon="8.65845">
        <ele>1484</ele>
        <time>2021-08-07T09:53:49.310Z</time>
      </trkpt>
      <trkpt lat="46.9152" lon="8.65844">
        <ele>1484</ele>
        <time>2021-08-07T09:53:50.310Z</time>
      </trkpt>
      <trkpt lat="46.9152" lon="8.65843">
        <ele>1484</ele>
        <time>2021-08-07T09:53:51.311Z</time>
      </trkpt>
      <trkpt lat="46.91521" lon="8.65842">
        <ele>1483</ele>
        <time>2021-08-07T09:53:52.310Z</time>
      </trkpt>
      <trkpt lat="46.91522" lon="8.65841">
        <ele>1483</ele>
        <time>2021-08-07T09:53:53.311Z</time>
      </trkpt>
      <trkpt lat="46.91524" lon="8.65841">
        <ele>1483</ele>
        <time>2021-08-07T09:53:54.311Z</time>
      </trkpt>
      <trkpt lat="46.91525" lon="8.6584">
        <ele>1483</ele>
        <time>2021-08-07T09:53:55.311Z</time>
      </trkpt>
      <trkpt lat="46.91526" lon="8.6584">
        <ele>1482</ele>
        <time>2021-08-07T09:53:56.311Z</time>
      </trkpt>
      <trkpt lat="46.91528" lon="8.65839">
        <ele>1482</ele>
        <time>2021-08-07T09:53:57.311Z</time>
      </trkpt>
      <trkpt lat="46.91529" lon="8.65838">
        <ele>1481</ele>
        <time>2021-08-07T09:53:58.311Z</time>
      </trkpt>
      <trkpt lat="46.91531" lon="8.65836">
        <ele>1481</ele>
        <time>2021-08-07T09:53:59.311Z</time>
      </trkpt>
      <trkpt lat="46.91532" lon="8.65835">
        <ele>1480</ele>
        <time>2021-08-07T09:54:00.311Z</time>
      </trkpt>
      <trkpt lat="46.91535" lon="8.65834">
        <ele>1479</ele>
        <time>2021-08-07T09:54:01.310Z</time>
      </trkpt>
      <trkpt lat="46.91537" lon="8.65833">
        <ele>1478</ele>
        <time>2021-08-07T09:54:02.310Z</time>
      </trkpt>
      <trkpt lat="46.91539" lon="8.65832">
        <ele>1478</ele>
        <time>2021-08-07T09:54:03.310Z</time>
      </trkpt>
      <trkpt lat="46.9154" lon="8.65831">
        <ele>1477</ele>
        <time>2021-08-07T09:54:04.310Z</time>
      </trkpt>
      <trkpt lat="46.91541" lon="8.6583">
        <ele>1476</ele>
        <time>2021-08-07T09:54:05.310Z</time>
      </trkpt>
      <trkpt lat="46.91542" lon="8.65829">
        <ele>1476</ele>
        <time>2021-08-07T09:54:07.436Z</time>
      </trkpt>
      <trkpt lat="46.91543" lon="8.65827">
        <ele>1475</ele>
        <time>2021-08-07T09:54:08.436Z</time>
      </trkpt>
      <trkpt lat="46.91543" lon="8.65826">
        <ele>1475</ele>
        <time>2021-08-07T09:54:09.436Z</time>
      </trkpt>
      <trkpt lat="46.91543" lon="8.65824">
        <ele>1475</ele>
        <time>2021-08-07T09:54:10.436Z</time>
      </trkpt>
      <trkpt lat="46.91543" lon="8.65822">
        <ele>1475</ele>
        <time>2021-08-07T09:54:11.436Z</time>
      </trkpt>
      <trkpt lat="46.91543" lon="8.65821">
        <ele>1475</ele>
        <time>2021-08-07T09:54:12.436Z</time>
      </trkpt>
      <trkpt lat="46.91543" lon="8.65819">
        <ele>1475</ele>
        <time>2021-08-07T09:54:20.449Z</time>
      </trkpt>
      <trkpt lat="46.91543" lon="8.65818">
        <ele>1474</ele>
        <time>2021-08-07T09:54:21.449Z</time>
      </trkpt>
      <trkpt lat="46.91543" lon="8.65816">
        <ele>1473</ele>
        <time>2021-08-07T09:54:22.449Z</time>
      </trkpt>
      <trkpt lat="46.91543" lon="8.65815">
        <ele>1473</ele>
        <time>2021-08-07T09:54:23.449Z</time>
      </trkpt>
      <trkpt lat="46.91543" lon="8.65814">
        <ele>1472</ele>
        <time>2021-08-07T09:54:24.449Z</time>
      </trkpt>
      <trkpt lat="46.91543" lon="8.65812">
        <ele>1472</ele>
        <time>2021-08-07T09:54:25.449Z</time>
      </trkpt>
      <trkpt lat="46.91544" lon="8.65811">
        <ele>1471</ele>
        <time>2021-08-07T09:54:26.449Z</time>
      </trkpt>
      <trkpt lat="46.91545" lon="8.65811">
        <ele>1470</ele>
        <time>2021-08-07T09:54:27.449Z</time>
      </trkpt>
      <trkpt lat="46.91546" lon="8.65809">
        <ele>1470</ele>
        <time>2021-08-07T09:54:28.449Z</time>
      </trkpt>
      <trkpt lat="46.91546" lon="8.65807">
        <ele>1470</ele>
        <time>2021-08-07T09:54:29.448Z</time>
      </trkpt>
      <trkpt lat="46.91546" lon="8.65805">
        <ele>1470</ele>
        <time>2021-08-07T09:54:30.449Z</time>
      </trkpt>
      <trkpt lat="46.91546" lon="8.65804">
        <ele>1470</ele>
        <time>2021-08-07T09:54:31.449Z</time>
      </trkpt>
      <trkpt lat="46.91546" lon="8.65802">
        <ele>1469</ele>
        <time>2021-08-07T09:54:32.449Z</time>
      </trkpt>
      <trkpt lat="46.91546" lon="8.658">
        <ele>1468</ele>
        <time>2021-08-07T09:54:33.449Z</time>
      </trkpt>
      <trkpt lat="46.91546" lon="8.658">
        <ele>1468</ele>
        <time>2021-08-07T09:54:34.449Z</time>
      </trkpt>
      <trkpt lat="46.91547" lon="8.65798">
        <ele>1468</ele>
        <time>2021-08-07T09:54:35.449Z</time>
      </trkpt>
      <trkpt lat="46.91547" lon="8.65797">
        <ele>1468</ele>
        <time>2021-08-07T09:54:36.449Z</time>
      </trkpt>
      <trkpt lat="46.91548" lon="8.65796">
        <ele>1467</ele>
        <time>2021-08-07T09:54:37.449Z</time>
      </trkpt>
      <trkpt lat="46.91547" lon="8.65796">
        <ele>1467</ele>
        <time>2021-08-07T09:54:38.449Z</time>
      </trkpt>
      <trkpt lat="46.91547" lon="8.65795">
        <ele>1467</ele>
        <time>2021-08-07T09:54:39.448Z</time>
      </trkpt>
      <trkpt lat="46.91546" lon="8.65794">
        <ele>1468</ele>
        <time>2021-08-07T09:54:40.448Z</time>
      </trkpt>
      <trkpt lat="46.91546" lon="8.65793">
        <ele>1468</ele>
        <time>2021-08-07T09:54:41.449Z</time>
      </trkpt>
      <trkpt lat="46.91546" lon="8.65792">
        <ele>1468</ele>
        <time>2021-08-07T09:54:42.449Z</time>
      </trkpt>
      <trkpt lat="46.91546" lon="8.65791">
        <ele>1469</ele>
        <time>2021-08-07T09:54:43.448Z</time>
      </trkpt>
      <trkpt lat="46.91546" lon="8.6579">
        <ele>1469</ele>
        <time>2021-08-07T09:54:44.449Z</time>
      </trkpt>
      <trkpt lat="46.91546" lon="8.65789">
        <ele>1470</ele>
        <time>2021-08-07T09:54:48.588Z</time>
      </trkpt>
      <trkpt lat="46.91546" lon="8.65789">
        <ele>1470</ele>
        <time>2021-08-07T09:54:49.589Z</time>
      </trkpt>
      <trkpt lat="46.91547" lon="8.65788">
        <ele>1471</ele>
        <time>2021-08-07T09:54:50.589Z</time>
      </trkpt>
      <trkpt lat="46.91547" lon="8.65788">
        <ele>1471</ele>
        <time>2021-08-07T09:54:51.589Z</time>
      </trkpt>
      <trkpt lat="46.91547" lon="8.65787">
        <ele>1472</ele>
        <time>2021-08-07T09:54:52.589Z</time>
      </trkpt>
      <trkpt lat="46.91548" lon="8.65785">
        <ele>1472</ele>
        <time>2021-08-07T09:54:53.588Z</time>
      </trkpt>
      <trkpt lat="46.91548" lon="8.65784">
        <ele>1472</ele>
        <time>2021-08-07T09:54:56.691Z</time>
      </trkpt>
      <trkpt lat="46.91549" lon="8.65783">
        <ele>1472</ele>
        <time>2021-08-07T09:54:57.691Z</time>
      </trkpt>
      <trkpt lat="46.91548" lon="8.65782">
        <ele>1472</ele>
        <time>2021-08-07T09:54:58.691Z</time>
      </trkpt>
      <trkpt lat="46.91547" lon="8.6578">
        <ele>1472</ele>
        <time>2021-08-07T09:54:59.691Z</time>
      </trkpt>
      <trkpt lat="46.91547" lon="8.65779">
        <ele>1472</ele>
        <time>2021-08-07T09:55:00.691Z</time>
      </trkpt>
      <trkpt lat="46.91547" lon="8.65778">
        <ele>1472</ele>
        <time>2021-08-07T09:55:01.691Z</time>
      </trkpt>
      <trkpt lat="46.91548" lon="8.65776">
        <ele>1471</ele>
        <time>2021-08-07T09:55:02.691Z</time>
      </trkpt>
      <trkpt lat="46.91548" lon="8.65774">
        <ele>1471</ele>
        <time>2021-08-07T09:55:03.691Z</time>
      </trkpt>
      <trkpt lat="46.91547" lon="8.65772">
        <ele>1470</ele>
        <time>2021-08-07T09:55:04.691Z</time>
      </trkpt>
      <trkpt lat="46.91547" lon="8.65771">
        <ele>1470</ele>
        <time>2021-08-07T09:55:05.691Z</time>
      </trkpt>
      <trkpt lat="46.91547" lon="8.6577">
        <ele>1469</ele>
        <time>2021-08-07T09:55:06.691Z</time>
      </trkpt>
      <trkpt lat="46.91546" lon="8.65769">
        <ele>1468</ele>
        <time>2021-08-07T09:55:07.691Z</time>
      </trkpt>
      <trkpt lat="46.91546" lon="8.65769">
        <ele>1467</ele>
        <time>2021-08-07T09:55:08.691Z</time>
      </trkpt>
      <trkpt lat="46.91546" lon="8.65768">
        <ele>1466</ele>
        <time>2021-08-07T09:55:09.691Z</time>
      </trkpt>
      <trkpt lat="46.91546" lon="8.65767">
        <ele>1465</ele>
        <time>2021-08-07T09:55:10.691Z</time>
      </trkpt>
      <trkpt lat="46.91547" lon="8.65766">
        <ele>1464</ele>
        <time>2021-08-07T09:55:11.691Z</time>
      </trkpt>
      <trkpt lat="46.91547" lon="8.65765">
        <ele>1463</ele>
        <time>2021-08-07T09:55:12.690Z</time>
      </trkpt>
      <trkpt lat="46.91547" lon="8.65763">
        <ele>1463</ele>
        <time>2021-08-07T09:55:13.691Z</time>
      </trkpt>
      <trkpt lat="46.91546" lon="8.65761">
        <ele>1463</ele>
        <time>2021-08-07T09:55:14.691Z</time>
      </trkpt>
      <trkpt lat="46.91546" lon="8.6576">
        <ele>1463</ele>
        <time>2021-08-07T09:55:15.691Z</time>
      </trkpt>
      <trkpt lat="46.91545" lon="8.65759">
        <ele>1463</ele>
        <time>2021-08-07T09:55:16.692Z</time>
      </trkpt>
      <trkpt lat="46.91542" lon="8.65757">
        <ele>1464</ele>
        <time>2021-08-07T09:55:17.691Z</time>
      </trkpt>
      <trkpt lat="46.91542" lon="8.65757">
        <ele>1464</ele>
        <time>2021-08-07T09:55:18.692Z</time>
      </trkpt>
      <trkpt lat="46.91541" lon="8.65757">
        <ele>1464</ele>
        <time>2021-08-07T09:55:19.691Z</time>
      </trkpt>
      <trkpt lat="46.9154" lon="8.65757">
        <ele>1465</ele>
        <time>2021-08-07T09:55:20.691Z</time>
      </trkpt>
      <trkpt lat="46.9154" lon="8.65757">
        <ele>1465</ele>
        <time>2021-08-07T09:55:21.692Z</time>
      </trkpt>
      <trkpt lat="46.91541" lon="8.65756">
        <ele>1463</ele>
        <time>2021-08-07T09:55:22.692Z</time>
      </trkpt>
      <trkpt lat="46.9154" lon="8.65755">
        <ele>1462</ele>
        <time>2021-08-07T09:55:23.691Z</time>
      </trkpt>
      <trkpt lat="46.91539" lon="8.65755">
        <ele>1461</ele>
        <time>2021-08-07T09:55:24.692Z</time>
      </trkpt>
      <trkpt lat="46.91538" lon="8.65754">
        <ele>1461</ele>
        <time>2021-08-07T09:55:25.691Z</time>
      </trkpt>
      <trkpt lat="46.91538" lon="8.65754">
        <ele>1460</ele>
        <time>2021-08-07T09:55:26.692Z</time>
      </trkpt>
      <trkpt lat="46.91538" lon="8.65754">
        <ele>1460</ele>
        <time>2021-08-07T09:55:27.691Z</time>
      </trkpt>
      <trkpt lat="46.91537" lon="8.65752">
        <ele>1460</ele>
        <time>2021-08-07T09:55:28.692Z</time>
      </trkpt>
      <trkpt lat="46.91538" lon="8.65753">
        <ele>1460</ele>
        <time>2021-08-07T09:55:29.691Z</time>
      </trkpt>
      <trkpt lat="46.91541" lon="8.65757">
        <ele>1458</ele>
        <time>2021-08-07T09:55:30.692Z</time>
      </trkpt>
      <trkpt lat="46.91542" lon="8.65756">
        <ele>1458</ele>
        <time>2021-08-07T09:55:31.691Z</time>
      </trkpt>
      <trkpt lat="46.9154" lon="8.65753">
        <ele>1458</ele>
        <time>2021-08-07T09:55:32.692Z</time>
      </trkpt>
      <trkpt lat="46.91539" lon="8.65753">
        <ele>1457</ele>
        <time>2021-08-07T09:55:33.691Z</time>
      </trkpt>
      <trkpt lat="46.91539" lon="8.65753">
        <ele>1457</ele>
        <time>2021-08-07T09:55:34.692Z</time>
      </trkpt>
      <trkpt lat="46.91538" lon="8.65752">
        <ele>1457</ele>
        <time>2021-08-07T09:55:35.691Z</time>
      </trkpt>
      <trkpt lat="46.91538" lon="8.65751">
        <ele>1456</ele>
        <time>2021-08-07T09:55:36.691Z</time>
      </trkpt>
      <trkpt lat="46.91538" lon="8.6575">
        <ele>1456</ele>
        <time>2021-08-07T09:55:37.691Z</time>
      </trkpt>
      <trkpt lat="46.91537" lon="8.6575">
        <ele>1456</ele>
        <time>2021-08-07T09:55:38.691Z</time>
      </trkpt>
      <trkpt lat="46.91537" lon="8.6575">
        <ele>1456</ele>
        <time>2021-08-07T09:55:39.691Z</time>
      </trkpt>
      <trkpt lat="46.91537" lon="8.65749">
        <ele>1456</ele>
        <time>2021-08-07T09:55:40.691Z</time>
      </trkpt>
      <trkpt lat="46.91536" lon="8.65748">
        <ele>1456</ele>
        <time>2021-08-07T09:55:41.691Z</time>
      </trkpt>
      <trkpt lat="46.91535" lon="8.65747">
        <ele>1456</ele>
        <time>2021-08-07T09:55:42.692Z</time>
      </trkpt>
      <trkpt lat="46.91534" lon="8.65746">
        <ele>1457</ele>
        <time>2021-08-07T09:55:43.692Z</time>
      </trkpt>
      <trkpt lat="46.91534" lon="8.65745">
        <ele>1457</ele>
        <time>2021-08-07T09:55:44.691Z</time>
      </trkpt>
      <trkpt lat="46.91535" lon="8.65745">
        <ele>1457</ele>
        <time>2021-08-07T09:55:45.691Z</time>
      </trkpt>
      <trkpt lat="46.91535" lon="8.65744">
        <ele>1458</ele>
        <time>2021-08-07T09:55:46.691Z</time>
      </trkpt>
      <trkpt lat="46.91536" lon="8.65744">
        <ele>1458</ele>
        <time>2021-08-07T09:55:47.691Z</time>
      </trkpt>
      <trkpt lat="46.91536" lon="8.65743">
        <ele>1458</ele>
        <time>2021-08-07T09:55:48.691Z</time>
      </trkpt>
      <trkpt lat="46.91536" lon="8.65743">
        <ele>1459</ele>
        <time>2021-08-07T09:55:49.691Z</time>
      </trkpt>
      <trkpt lat="46.91536" lon="8.65742">
        <ele>1459</ele>
        <time>2021-08-07T09:55:50.691Z</time>
      </trkpt>
      <trkpt lat="46.91536" lon="8.65741">
        <ele>1459</ele>
        <time>2021-08-07T09:55:51.691Z</time>
      </trkpt>
      <trkpt lat="46.91537" lon="8.65741">
        <ele>1458</ele>
        <time>2021-08-07T09:55:52.691Z</time>
      </trkpt>
      <trkpt lat="46.91537" lon="8.6574">
        <ele>1458</ele>
        <time>2021-08-07T09:55:53.691Z</time>
      </trkpt>
      <trkpt lat="46.91536" lon="8.65739">
        <ele>1457</ele>
        <time>2021-08-07T09:55:54.691Z</time>
      </trkpt>
      <trkpt lat="46.91537" lon="8.65738">
        <ele>1457</ele>
        <time>2021-08-07T09:55:55.691Z</time>
      </trkpt>
      <trkpt lat="46.91537" lon="8.65737">
        <ele>1457</ele>
        <time>2021-08-07T09:55:56.691Z</time>
      </trkpt>
      <trkpt lat="46.91537" lon="8.65736">
        <ele>1457</ele>
        <time>2021-08-07T09:55:57.691Z</time>
      </trkpt>
      <trkpt lat="46.91537" lon="8.65735">
        <ele>1457</ele>
        <time>2021-08-07T09:55:58.691Z</time>
      </trkpt>
      <trkpt lat="46.91537" lon="8.65735">
        <ele>1457</ele>
        <time>2021-08-07T09:55:59.691Z</time>
      </trkpt>
      <trkpt lat="46.91536" lon="8.65736">
        <ele>1457</ele>
        <time>2021-08-07T09:56:00.691Z</time>
      </trkpt>
      <trkpt lat="46.91536" lon="8.65735">
        <ele>1457</ele>
        <time>2021-08-07T09:56:01.691Z</time>
      </trkpt>
      <trkpt lat="46.91535" lon="8.65733">
        <ele>1457</ele>
        <time>2021-08-07T09:56:02.691Z</time>
      </trkpt>
      <trkpt lat="46.91534" lon="8.65732">
        <ele>1457</ele>
        <time>2021-08-07T09:56:03.692Z</time>
      </trkpt>
      <trkpt lat="46.91533" lon="8.6573">
        <ele>1458</ele>
        <time>2021-08-07T09:56:04.691Z</time>
      </trkpt>
      <trkpt lat="46.91532" lon="8.65729">
        <ele>1458</ele>
        <time>2021-08-07T09:56:05.692Z</time>
      </trkpt>
      <trkpt lat="46.91532" lon="8.65728">
        <ele>1458</ele>
        <time>2021-08-07T09:56:06.691Z</time>
      </trkpt>
      <trkpt lat="46.91533" lon="8.65728">
        <ele>1458</ele>
        <time>2021-08-07T09:56:07.691Z</time>
      </trkpt>
      <trkpt lat="46.91533" lon="8.65728">
        <ele>1459</ele>
        <time>2021-08-07T09:56:08.692Z</time>
      </trkpt>
      <trkpt lat="46.91533" lon="8.65728">
        <ele>1459</ele>
        <time>2021-08-07T09:56:09.691Z</time>
      </trkpt>
      <trkpt lat="46.91533" lon="8.65728">
        <ele>1458</ele>
        <time>2021-08-07T09:56:10.692Z</time>
      </trkpt>
      <trkpt lat="46.91533" lon="8.65729">
        <ele>1458</ele>
        <time>2021-08-07T09:56:11.692Z</time>
      </trkpt>
      <trkpt lat="46.91533" lon="8.6573">
        <ele>1458</ele>
        <time>2021-08-07T09:56:12.692Z</time>
      </trkpt>
      <trkpt lat="46.91534" lon="8.65731">
        <ele>1458</ele>
        <time>2021-08-07T09:56:13.692Z</time>
      </trkpt>
      <trkpt lat="46.91534" lon="8.65732">
        <ele>1458</ele>
        <time>2021-08-07T09:56:14.692Z</time>
      </trkpt>
      <trkpt lat="46.91535" lon="8.65732">
        <ele>1458</ele>
        <time>2021-08-07T09:56:15.692Z</time>
      </trkpt>
      <trkpt lat="46.91536" lon="8.65732">
        <ele>1458</ele>
        <time>2021-08-07T09:56:16.692Z</time>
      </trkpt>
      <trkpt lat="46.91536" lon="8.65733">
        <ele>1458</ele>
        <time>2021-08-07T09:56:17.692Z</time>
      </trkpt>
      <trkpt lat="46.91537" lon="8.65736">
        <ele>1458</ele>
        <time>2021-08-07T09:56:18.693Z</time>
      </trkpt>
      <trkpt lat="46.91537" lon="8.65737">
        <ele>1458</ele>
        <time>2021-08-07T09:56:19.692Z</time>
      </trkpt>
      <trkpt lat="46.91538" lon="8.65737">
        <ele>1458</ele>
        <time>2021-08-07T09:56:20.693Z</time>
      </trkpt>
      <trkpt lat="46.91538" lon="8.65737">
        <ele>1458</ele>
        <time>2021-08-07T09:56:21.692Z</time>
      </trkpt>
      <trkpt lat="46.91538" lon="8.65737">
        <ele>1458</ele>
        <time>2021-08-07T09:56:22.692Z</time>
      </trkpt>
      <trkpt lat="46.91539" lon="8.65743">
        <ele>1456</ele>
        <time>2021-08-07T09:56:25.688Z</time>
      </trkpt>
      <trkpt lat="46.91539" lon="8.65743">
        <ele>1456</ele>
        <time>2021-08-07T09:56:26.688Z</time>
      </trkpt>
      <trkpt lat="46.91539" lon="8.65743">
        <ele>1456</ele>
        <time>2021-08-07T09:56:27.689Z</time>
      </trkpt>
      <trkpt lat="46.91541" lon="8.65742">
        <ele>1457</ele>
        <time>2021-08-07T09:56:28.689Z</time>
      </trkpt>
      <trkpt lat="46.91542" lon="8.65742">
        <ele>1457</ele>
        <time>2021-08-07T09:56:29.689Z</time>
      </trkpt>
      <trkpt lat="46.91544" lon="8.65743">
        <ele>1457</ele>
        <time>2021-08-07T09:56:30.689Z</time>
      </trkpt>
      <trkpt lat="46.91545" lon="8.65744">
        <ele>1457</ele>
        <time>2021-08-07T09:56:31.688Z</time>
      </trkpt>
      <trkpt lat="46.91546" lon="8.65745">
        <ele>1458</ele>
        <time>2021-08-07T09:56:32.688Z</time>
      </trkpt>
      <trkpt lat="46.91546" lon="8.65745">
        <ele>1458</ele>
        <time>2021-08-07T09:56:34.809Z</time>
      </trkpt>
      <trkpt lat="46.91547" lon="8.65745">
        <ele>1458</ele>
        <time>2021-08-07T09:56:35.810Z</time>
      </trkpt>
      <trkpt lat="46.91548" lon="8.65746">
        <ele>1459</ele>
        <time>2021-08-07T09:56:36.810Z</time>
      </trkpt>
      <trkpt lat="46.91549" lon="8.65746">
        <ele>1459</ele>
        <time>2021-08-07T09:56:37.809Z</time>
      </trkpt>
      <trkpt lat="46.9155" lon="8.65746">
        <ele>1459</ele>
        <time>2021-08-07T09:56:38.810Z</time>
      </trkpt>
      <trkpt lat="46.91551" lon="8.65746">
        <ele>1460</ele>
        <time>2021-08-07T09:56:39.809Z</time>
      </trkpt>
      <trkpt lat="46.91551" lon="8.65746">
        <ele>1460</ele>
        <time>2021-08-07T09:56:40.809Z</time>
      </trkpt>
      <trkpt lat="46.91552" lon="8.65746">
        <ele>1461</ele>
        <time>2021-08-07T09:56:41.809Z</time>
      </trkpt>
      <trkpt lat="46.91553" lon="8.65746">
        <ele>1461</ele>
        <time>2021-08-07T09:56:42.810Z</time>
      </trkpt>
      <trkpt lat="46.91553" lon="8.65745">
        <ele>1462</ele>
        <time>2021-08-07T09:56:46.840Z</time>
      </trkpt>
      <trkpt lat="46.91554" lon="8.65745">
        <ele>1462</ele>
        <time>2021-08-07T09:56:47.840Z</time>
      </trkpt>
      <trkpt lat="46.91553" lon="8.65744">
        <ele>1462</ele>
        <time>2021-08-07T09:56:48.840Z</time>
      </trkpt>
      <trkpt lat="46.91554" lon="8.65741">
        <ele>1463</ele>
        <time>2021-08-07T09:56:49.841Z</time>
      </trkpt>
      <trkpt lat="46.91553" lon="8.65741">
        <ele>1463</ele>
        <time>2021-08-07T09:56:50.840Z</time>
      </trkpt>
      <trkpt lat="46.91553" lon="8.6574">
        <ele>1462</ele>
        <time>2021-08-07T09:56:51.840Z</time>
      </trkpt>
      <trkpt lat="46.91553" lon="8.65739">
        <ele>1462</ele>
        <time>2021-08-07T09:56:52.841Z</time>
      </trkpt>
      <trkpt lat="46.91553" lon="8.65738">
        <ele>1462</ele>
        <time>2021-08-07T09:56:53.841Z</time>
      </trkpt>
      <trkpt lat="46.91553" lon="8.65737">
        <ele>1461</ele>
        <time>2021-08-07T09:56:54.841Z</time>
      </trkpt>
      <trkpt lat="46.91554" lon="8.65736">
        <ele>1461</ele>
        <time>2021-08-07T09:56:55.840Z</time>
      </trkpt>
      <trkpt lat="46.91554" lon="8.65735">
        <ele>1461</ele>
        <time>2021-08-07T09:56:56.841Z</time>
      </trkpt>
      <trkpt lat="46.91555" lon="8.65732">
        <ele>1460</ele>
        <time>2021-08-07T09:56:57.841Z</time>
      </trkpt>
      <trkpt lat="46.91555" lon="8.6573">
        <ele>1459</ele>
        <time>2021-08-07T09:56:58.840Z</time>
      </trkpt>
      <trkpt lat="46.91554" lon="8.65728">
        <ele>1459</ele>
        <time>2021-08-07T09:56:59.841Z</time>
      </trkpt>
      <trkpt lat="46.91554" lon="8.65726">
        <ele>1459</ele>
        <time>2021-08-07T09:57:00.841Z</time>
      </trkpt>
      <trkpt lat="46.91553" lon="8.65725">
        <ele>1458</ele>
        <time>2021-08-07T09:57:01.841Z</time>
      </trkpt>
      <trkpt lat="46.91552" lon="8.65724">
        <ele>1458</ele>
        <time>2021-08-07T09:57:02.841Z</time>
      </trkpt>
      <trkpt lat="46.91551" lon="8.65723">
        <ele>1457</ele>
        <time>2021-08-07T09:57:03.841Z</time>
      </trkpt>
      <trkpt lat="46.91551" lon="8.65721">
        <ele>1457</ele>
        <time>2021-08-07T09:57:04.840Z</time>
      </trkpt>
      <trkpt lat="46.91551" lon="8.6572">
        <ele>1456</ele>
        <time>2021-08-07T09:57:05.840Z</time>
      </trkpt>
      <trkpt lat="46.91551" lon="8.65719">
        <ele>1456</ele>
        <time>2021-08-07T09:57:06.841Z</time>
      </trkpt>
      <trkpt lat="46.91551" lon="8.65717">
        <ele>1456</ele>
        <time>2021-08-07T09:57:07.840Z</time>
      </trkpt>
      <trkpt lat="46.91552" lon="8.65716">
        <ele>1456</ele>
        <time>2021-08-07T09:57:08.841Z</time>
      </trkpt>
      <trkpt lat="46.91552" lon="8.65715">
        <ele>1455</ele>
        <time>2021-08-07T09:57:09.841Z</time>
      </trkpt>
      <trkpt lat="46.91553" lon="8.65714">
        <ele>1455</ele>
        <time>2021-08-07T09:57:10.841Z</time>
      </trkpt>
      <trkpt lat="46.91552" lon="8.65713">
        <ele>1455</ele>
        <time>2021-08-07T09:57:11.840Z</time>
      </trkpt>
      <trkpt lat="46.91552" lon="8.65712">
        <ele>1455</ele>
        <time>2021-08-07T09:57:12.841Z</time>
      </trkpt>
      <trkpt lat="46.91551" lon="8.65711">
        <ele>1455</ele>
        <time>2021-08-07T09:57:13.840Z</time>
      </trkpt>
      <trkpt lat="46.9155" lon="8.6571">
        <ele>1455</ele>
        <time>2021-08-07T09:57:14.841Z</time>
      </trkpt>
      <trkpt lat="46.9155" lon="8.65709">
        <ele>1455</ele>
        <time>2021-08-07T09:57:15.841Z</time>
      </trkpt>
      <trkpt lat="46.9155" lon="8.65708">
        <ele>1455</ele>
        <time>2021-08-07T09:57:16.841Z</time>
      </trkpt>
      <trkpt lat="46.91549" lon="8.65707">
        <ele>1455</ele>
        <time>2021-08-07T09:57:17.841Z</time>
      </trkpt>
      <trkpt lat="46.91549" lon="8.65707">
        <ele>1455</ele>
        <time>2021-08-07T09:57:23.948Z</time>
      </trkpt>
      <trkpt lat="46.9155" lon="8.65707">
        <ele>1455</ele>
        <time>2021-08-07T09:57:24.947Z</time>
      </trkpt>
      <trkpt lat="46.9155" lon="8.65707">
        <ele>1455</ele>
        <time>2021-08-07T09:57:25.948Z</time>
      </trkpt>
      <trkpt lat="46.9155" lon="8.65707">
        <ele>1455</ele>
        <time>2021-08-07T09:57:26.947Z</time>
      </trkpt>
      <trkpt lat="46.91551" lon="8.65706">
        <ele>1456</ele>
        <time>2021-08-07T09:57:27.950Z</time>
      </trkpt>
      <trkpt lat="46.91551" lon="8.65706">
        <ele>1455</ele>
        <time>2021-08-07T09:57:28.949Z</time>
      </trkpt>
      <trkpt lat="46.91551" lon="8.65706">
        <ele>1455</ele>
        <time>2021-08-07T09:57:29.949Z</time>
      </trkpt>
      <trkpt lat="46.91553" lon="8.65707">
        <ele>1455</ele>
        <time>2021-08-07T09:57:31.800Z</time>
      </trkpt>
      <trkpt lat="46.91553" lon="8.65707">
        <ele>1455</ele>
        <time>2021-08-07T09:57:32.800Z</time>
      </trkpt>
      <trkpt lat="46.91554" lon="8.65707">
        <ele>1454</ele>
        <time>2021-08-07T09:57:33.799Z</time>
      </trkpt>
      <trkpt lat="46.91553" lon="8.65707">
        <ele>1454</ele>
        <time>2021-08-07T09:57:34.799Z</time>
      </trkpt>
      <trkpt lat="46.91553" lon="8.65706">
        <ele>1453</ele>
        <time>2021-08-07T09:57:35.800Z</time>
      </trkpt>
      <trkpt lat="46.91552" lon="8.65704">
        <ele>1453</ele>
        <time>2021-08-07T09:57:36.799Z</time>
      </trkpt>
      <trkpt lat="46.91552" lon="8.65703">
        <ele>1453</ele>
        <time>2021-08-07T09:57:37.800Z</time>
      </trkpt>
      <trkpt lat="46.91551" lon="8.65702">
        <ele>1452</ele>
        <time>2021-08-07T09:57:38.800Z</time>
      </trkpt>
      <trkpt lat="46.91551" lon="8.65701">
        <ele>1452</ele>
        <time>2021-08-07T09:57:39.799Z</time>
      </trkpt>
      <trkpt lat="46.91552" lon="8.65701">
        <ele>1451</ele>
        <time>2021-08-07T09:57:40.800Z</time>
      </trkpt>
      <trkpt lat="46.91553" lon="8.65702">
        <ele>1451</ele>
        <time>2021-08-07T09:57:41.799Z</time>
      </trkpt>
      <trkpt lat="46.91554" lon="8.65703">
        <ele>1450</ele>
        <time>2021-08-07T09:57:42.799Z</time>
      </trkpt>
      <trkpt lat="46.91556" lon="8.65704">
        <ele>1450</ele>
        <time>2021-08-07T09:57:43.800Z</time>
      </trkpt>
      <trkpt lat="46.91557" lon="8.65705">
        <ele>1449</ele>
        <time>2021-08-07T09:57:44.800Z</time>
      </trkpt>
      <trkpt lat="46.91557" lon="8.65705">
        <ele>1449</ele>
        <time>2021-08-07T09:57:45.800Z</time>
      </trkpt>
      <trkpt lat="46.91557" lon="8.65705">
        <ele>1449</ele>
        <time>2021-08-07T09:57:46.799Z</time>
      </trkpt>
      <trkpt lat="46.91558" lon="8.65705">
        <ele>1448</ele>
        <time>2021-08-07T09:57:47.800Z</time>
      </trkpt>
      <trkpt lat="46.91558" lon="8.65705">
        <ele>1448</ele>
        <time>2021-08-07T09:57:48.800Z</time>
      </trkpt>
      <trkpt lat="46.91559" lon="8.65704">
        <ele>1447</ele>
        <time>2021-08-07T09:57:49.799Z</time>
      </trkpt>
      <trkpt lat="46.91559" lon="8.65702">
        <ele>1446</ele>
        <time>2021-08-07T09:57:50.799Z</time>
      </trkpt>
      <trkpt lat="46.91558" lon="8.657">
        <ele>1446</ele>
        <time>2021-08-07T09:57:51.800Z</time>
      </trkpt>
      <trkpt lat="46.91558" lon="8.65699">
        <ele>1445</ele>
        <time>2021-08-07T09:57:52.800Z</time>
      </trkpt>
      <trkpt lat="46.91557" lon="8.65698">
        <ele>1445</ele>
        <time>2021-08-07T09:57:53.799Z</time>
      </trkpt>
      <trkpt lat="46.91557" lon="8.65697">
        <ele>1445</ele>
        <time>2021-08-07T09:57:54.800Z</time>
      </trkpt>
      <trkpt lat="46.91556" lon="8.65697">
        <ele>1444</ele>
        <time>2021-08-07T09:57:57.799Z</time>
      </trkpt>
      <trkpt lat="46.91556" lon="8.65695">
        <ele>1444</ele>
        <time>2021-08-07T09:57:58.800Z</time>
      </trkpt>
      <trkpt lat="46.91556" lon="8.65694">
        <ele>1444</ele>
        <time>2021-08-07T09:57:59.800Z</time>
      </trkpt>
      <trkpt lat="46.91556" lon="8.65693">
        <ele>1444</ele>
        <time>2021-08-07T09:58:00.800Z</time>
      </trkpt>
      <trkpt lat="46.91556" lon="8.65692">
        <ele>1443</ele>
        <time>2021-08-07T09:58:01.800Z</time>
      </trkpt>
      <trkpt lat="46.91556" lon="8.65691">
        <ele>1443</ele>
        <time>2021-08-07T09:58:02.799Z</time>
      </trkpt>
      <trkpt lat="46.91556" lon="8.6569">
        <ele>1443</ele>
        <time>2021-08-07T09:58:03.800Z</time>
      </trkpt>
      <trkpt lat="46.91556" lon="8.6569">
        <ele>1443</ele>
        <time>2021-08-07T09:58:04.800Z</time>
      </trkpt>
      <trkpt lat="46.91555" lon="8.65689">
        <ele>1442</ele>
        <time>2021-08-07T09:58:05.800Z</time>
      </trkpt>
      <trkpt lat="46.91555" lon="8.65688">
        <ele>1442</ele>
        <time>2021-08-07T09:58:06.800Z</time>
      </trkpt>
      <trkpt lat="46.91555" lon="8.65686">
        <ele>1442</ele>
        <time>2021-08-07T09:58:07.800Z</time>
      </trkpt>
      <trkpt lat="46.91554" lon="8.65686">
        <ele>1441</ele>
        <time>2021-08-07T09:58:08.800Z</time>
      </trkpt>
      <trkpt lat="46.91553" lon="8.65685">
        <ele>1440</ele>
        <time>2021-08-07T09:58:09.800Z</time>
      </trkpt>
      <trkpt lat="46.91553" lon="8.65685">
        <ele>1439</ele>
        <time>2021-08-07T09:58:10.799Z</time>
      </trkpt>
      <trkpt lat="46.91552" lon="8.65684">
        <ele>1439</ele>
        <time>2021-08-07T09:58:11.800Z</time>
      </trkpt>
      <trkpt lat="46.91551" lon="8.65683">
        <ele>1438</ele>
        <time>2021-08-07T09:58:12.800Z</time>
      </trkpt>
      <trkpt lat="46.91552" lon="8.65682">
        <ele>1438</ele>
        <time>2021-08-07T09:58:13.800Z</time>
      </trkpt>
      <trkpt lat="46.91551" lon="8.6568">
        <ele>1437</ele>
        <time>2021-08-07T09:58:21.820Z</time>
      </trkpt>
      <trkpt lat="46.9155" lon="8.65679">
        <ele>1437</ele>
        <time>2021-08-07T09:58:22.820Z</time>
      </trkpt>
      <trkpt lat="46.91548" lon="8.65677">
        <ele>1437</ele>
        <time>2021-08-07T09:58:23.820Z</time>
      </trkpt>
      <trkpt lat="46.91547" lon="8.65676">
        <ele>1436</ele>
        <time>2021-08-07T09:58:30.734Z</time>
      </trkpt>
      <trkpt lat="46.91548" lon="8.65676">
        <ele>1436</ele>
        <time>2021-08-07T09:58:31.735Z</time>
      </trkpt>
      <trkpt lat="46.91549" lon="8.65675">
        <ele>1435</ele>
        <time>2021-08-07T09:58:32.735Z</time>
      </trkpt>
      <trkpt lat="46.91549" lon="8.65675">
        <ele>1435</ele>
        <time>2021-08-07T09:58:33.734Z</time>
      </trkpt>
      <trkpt lat="46.91549" lon="8.65674">
        <ele>1434</ele>
        <time>2021-08-07T09:58:34.734Z</time>
      </trkpt>
      <trkpt lat="46.9155" lon="8.65673">
        <ele>1429</ele>
        <time>2021-08-07T09:58:35.735Z</time>
      </trkpt>
      <trkpt lat="46.91551" lon="8.65673">
        <ele>1429</ele>
        <time>2021-08-07T09:58:36.735Z</time>
      </trkpt>
      <trkpt lat="46.91551" lon="8.65672">
        <ele>1428</ele>
        <time>2021-08-07T09:58:39.811Z</time>
      </trkpt>
      <trkpt lat="46.91551" lon="8.65672">
        <ele>1428</ele>
        <time>2021-08-07T09:58:40.812Z</time>
      </trkpt>
      <trkpt lat="46.91551" lon="8.65671">
        <ele>1428</ele>
        <time>2021-08-07T09:58:41.812Z</time>
      </trkpt>
      <trkpt lat="46.9155" lon="8.65669">
        <ele>1428</ele>
        <time>2021-08-07T09:58:42.811Z</time>
      </trkpt>
      <trkpt lat="46.91549" lon="8.65667">
        <ele>1427</ele>
        <time>2021-08-07T09:58:43.812Z</time>
      </trkpt>
      <trkpt lat="46.91549" lon="8.65667">
        <ele>1427</ele>
        <time>2021-08-07T09:58:44.811Z</time>
      </trkpt>
      <trkpt lat="46.91548" lon="8.65665">
        <ele>1427</ele>
        <time>2021-08-07T09:58:45.812Z</time>
      </trkpt>
      <trkpt lat="46.91547" lon="8.65664">
        <ele>1426</ele>
        <time>2021-08-07T09:58:46.812Z</time>
      </trkpt>
      <trkpt lat="46.91546" lon="8.65663">
        <ele>1426</ele>
        <time>2021-08-07T09:58:47.811Z</time>
      </trkpt>
      <trkpt lat="46.91546" lon="8.65661">
        <ele>1425</ele>
        <time>2021-08-07T09:58:48.812Z</time>
      </trkpt>
      <trkpt lat="46.91545" lon="8.65659">
        <ele>1424</ele>
        <time>2021-08-07T09:58:49.812Z</time>
      </trkpt>
      <trkpt lat="46.91545" lon="8.65657">
        <ele>1424</ele>
        <time>2021-08-07T09:58:50.812Z</time>
      </trkpt>
      <trkpt lat="46.91544" lon="8.65655">
        <ele>1424</ele>
        <time>2021-08-07T09:58:51.812Z</time>
      </trkpt>
      <trkpt lat="46.91544" lon="8.65653">
        <ele>1424</ele>
        <time>2021-08-07T09:58:52.812Z</time>
      </trkpt>
      <trkpt lat="46.91544" lon="8.65651">
        <ele>1424</ele>
        <time>2021-08-07T09:58:53.812Z</time>
      </trkpt>
      <trkpt lat="46.91544" lon="8.65649">
        <ele>1424</ele>
        <time>2021-08-07T09:58:54.811Z</time>
      </trkpt>
      <trkpt lat="46.91543" lon="8.65649">
        <ele>1424</ele>
        <time>2021-08-07T09:58:55.812Z</time>
      </trkpt>
      <trkpt lat="46.91543" lon="8.65648">
        <ele>1424</ele>
        <time>2021-08-07T09:58:56.811Z</time>
      </trkpt>
      <trkpt lat="46.91542" lon="8.65648">
        <ele>1424</ele>
        <time>2021-08-07T09:58:57.812Z</time>
      </trkpt>
      <trkpt lat="46.91541" lon="8.65647">
        <ele>1425</ele>
        <time>2021-08-07T09:58:58.811Z</time>
      </trkpt>
      <trkpt lat="46.9154" lon="8.65646">
        <ele>1425</ele>
        <time>2021-08-07T09:58:59.812Z</time>
      </trkpt>
      <trkpt lat="46.91539" lon="8.65645">
        <ele>1424</ele>
        <time>2021-08-07T09:59:06.960Z</time>
      </trkpt>
      <trkpt lat="46.91537" lon="8.65645">
        <ele>1424</ele>
        <time>2021-08-07T09:59:07.960Z</time>
      </trkpt>
      <trkpt lat="46.91536" lon="8.65645">
        <ele>1424</ele>
        <time>2021-08-07T09:59:08.959Z</time>
      </trkpt>
      <trkpt lat="46.91535" lon="8.65645">
        <ele>1424</ele>
        <time>2021-08-07T09:59:14.982Z</time>
      </trkpt>
      <trkpt lat="46.91535" lon="8.65644">
        <ele>1423</ele>
        <time>2021-08-07T09:59:15.983Z</time>
      </trkpt>
      <trkpt lat="46.91534" lon="8.65643">
        <ele>1423</ele>
        <time>2021-08-07T09:59:16.983Z</time>
      </trkpt>
      <trkpt lat="46.91533" lon="8.65643">
        <ele>1422</ele>
        <time>2021-08-07T09:59:17.983Z</time>
      </trkpt>
      <trkpt lat="46.91533" lon="8.65643">
        <ele>1422</ele>
        <time>2021-08-07T09:59:18.983Z</time>
      </trkpt>
      <trkpt lat="46.91533" lon="8.65642">
        <ele>1421</ele>
        <time>2021-08-07T09:59:23.077Z</time>
      </trkpt>
      <trkpt lat="46.91533" lon="8.65642">
        <ele>1420</ele>
        <time>2021-08-07T09:59:24.078Z</time>
      </trkpt>
      <trkpt lat="46.91535" lon="8.65643">
        <ele>1419</ele>
        <time>2021-08-07T09:59:25.079Z</time>
      </trkpt>
      <trkpt lat="46.91535" lon="8.65641">
        <ele>1419</ele>
        <time>2021-08-07T09:59:29.225Z</time>
      </trkpt>
      <trkpt lat="46.91535" lon="8.6564">
        <ele>1418</ele>
        <time>2021-08-07T09:59:33.063Z</time>
      </trkpt>
      <trkpt lat="46.91534" lon="8.65639">
        <ele>1418</ele>
        <time>2021-08-07T09:59:34.064Z</time>
      </trkpt>
      <trkpt lat="46.91534" lon="8.65638">
        <ele>1418</ele>
        <time>2021-08-07T09:59:35.064Z</time>
      </trkpt>
      <trkpt lat="46.91534" lon="8.65637">
        <ele>1418</ele>
        <time>2021-08-07T09:59:36.063Z</time>
      </trkpt>
      <trkpt lat="46.91535" lon="8.65634">
        <ele>1419</ele>
        <time>2021-08-07T09:59:37.065Z</time>
      </trkpt>
      <trkpt lat="46.91536" lon="8.65634">
        <ele>1419</ele>
        <time>2021-08-07T09:59:38.065Z</time>
      </trkpt>
      <trkpt lat="46.91536" lon="8.65635">
        <ele>1419</ele>
        <time>2021-08-07T09:59:39.064Z</time>
      </trkpt>
      <trkpt lat="46.91537" lon="8.65635">
        <ele>1419</ele>
        <time>2021-08-07T09:59:59.205Z</time>
      </trkpt>
      <trkpt lat="46.91537" lon="8.65635">
        <ele>1419</ele>
        <time>2021-08-07T10:00:00.206Z</time>
      </trkpt>
      <trkpt lat="46.91538" lon="8.65635">
        <ele>1420</ele>
        <time>2021-08-07T10:00:01.205Z</time>
      </trkpt>
      <trkpt lat="46.91538" lon="8.65635">
        <ele>1420</ele>
        <time>2021-08-07T10:00:02.206Z</time>
      </trkpt>
      <trkpt lat="46.91539" lon="8.65634">
        <ele>1420</ele>
        <time>2021-08-07T10:00:03.206Z</time>
      </trkpt>
      <trkpt lat="46.9154" lon="8.65633">
        <ele>1420</ele>
        <time>2021-08-07T10:00:04.205Z</time>
      </trkpt>
      <trkpt lat="46.91539" lon="8.65631">
        <ele>1420</ele>
        <time>2021-08-07T10:00:05.206Z</time>
      </trkpt>
      <trkpt lat="46.91539" lon="8.65629">
        <ele>1420</ele>
        <time>2021-08-07T10:00:06.206Z</time>
      </trkpt>
      <trkpt lat="46.91539" lon="8.65628">
        <ele>1420</ele>
        <time>2021-08-07T10:00:07.206Z</time>
      </trkpt>
      <trkpt lat="46.91539" lon="8.65626">
        <ele>1420</ele>
        <time>2021-08-07T10:00:08.206Z</time>
      </trkpt>
      <trkpt lat="46.91538" lon="8.65625">
        <ele>1420</ele>
        <time>2021-08-07T10:00:09.206Z</time>
      </trkpt>
      <trkpt lat="46.91538" lon="8.65623">
        <ele>1420</ele>
        <time>2021-08-07T10:00:10.205Z</time>
      </trkpt>
      <trkpt lat="46.91538" lon="8.65622">
        <ele>1420</ele>
        <time>2021-08-07T10:00:11.206Z</time>
      </trkpt>
      <trkpt lat="46.91537" lon="8.65622">
        <ele>1420</ele>
        <time>2021-08-07T10:00:12.206Z</time>
      </trkpt>
      <trkpt lat="46.91536" lon="8.6562">
        <ele>1419</ele>
        <time>2021-08-07T10:00:13.205Z</time>
      </trkpt>
      <trkpt lat="46.91535" lon="8.65619">
        <ele>1419</ele>
        <time>2021-08-07T10:00:14.205Z</time>
      </trkpt>
      <trkpt lat="46.91535" lon="8.65618">
        <ele>1419</ele>
        <time>2021-08-07T10:00:15.206Z</time>
      </trkpt>
      <trkpt lat="46.91535" lon="8.65617">
        <ele>1419</ele>
        <time>2021-08-07T10:00:16.206Z</time>
      </trkpt>
      <trkpt lat="46.91535" lon="8.65616">
        <ele>1418</ele>
        <time>2021-08-07T10:00:17.206Z</time>
      </trkpt>
      <trkpt lat="46.91535" lon="8.65616">
        <ele>1418</ele>
        <time>2021-08-07T10:00:18.207Z</time>
      </trkpt>
      <trkpt lat="46.91536" lon="8.65617">
        <ele>1418</ele>
        <time>2021-08-07T10:00:19.206Z</time>
      </trkpt>
      <trkpt lat="46.91536" lon="8.65617">
        <ele>1418</ele>
        <time>2021-08-07T10:00:20.206Z</time>
      </trkpt>
      <trkpt lat="46.91537" lon="8.65617">
        <ele>1419</ele>
        <time>2021-08-07T10:00:21.206Z</time>
      </trkpt>
      <trkpt lat="46.91537" lon="8.65616">
        <ele>1419</ele>
        <time>2021-08-07T10:00:22.206Z</time>
      </trkpt>
      <trkpt lat="46.91537" lon="8.65615">
        <ele>1419</ele>
        <time>2021-08-07T10:00:23.206Z</time>
      </trkpt>
      <trkpt lat="46.91537" lon="8.65614">
        <ele>1419</ele>
        <time>2021-08-07T10:00:24.206Z</time>
      </trkpt>
      <trkpt lat="46.91537" lon="8.65614">
        <ele>1419</ele>
        <time>2021-08-07T10:00:25.206Z</time>
      </trkpt>
      <trkpt lat="46.91538" lon="8.65614">
        <ele>1419</ele>
        <time>2021-08-07T10:00:26.206Z</time>
      </trkpt>
      <trkpt lat="46.91538" lon="8.65614">
        <ele>1419</ele>
        <time>2021-08-07T10:00:27.207Z</time>
      </trkpt>
      <trkpt lat="46.91539" lon="8.65613">
        <ele>1418</ele>
        <time>2021-08-07T10:00:28.207Z</time>
      </trkpt>
      <trkpt lat="46.9154" lon="8.65613">
        <ele>1418</ele>
        <time>2021-08-07T10:00:29.206Z</time>
      </trkpt>
      <trkpt lat="46.9154" lon="8.65613">
        <ele>1418</ele>
        <time>2021-08-07T10:00:30.206Z</time>
      </trkpt>
      <trkpt lat="46.91539" lon="8.65613">
        <ele>1417</ele>
        <time>2021-08-07T10:00:31.206Z</time>
      </trkpt>
      <trkpt lat="46.9154" lon="8.65613">
        <ele>1417</ele>
        <time>2021-08-07T10:00:32.206Z</time>
      </trkpt>
      <trkpt lat="46.9154" lon="8.65612">
        <ele>1416</ele>
        <time>2021-08-07T10:00:33.207Z</time>
      </trkpt>
      <trkpt lat="46.91541" lon="8.65612">
        <ele>1416</ele>
        <time>2021-08-07T10:00:34.206Z</time>
      </trkpt>
      <trkpt lat="46.91542" lon="8.65611">
        <ele>1415</ele>
        <time>2021-08-07T10:00:35.206Z</time>
      </trkpt>
      <trkpt lat="46.91543" lon="8.65611">
        <ele>1414</ele>
        <time>2021-08-07T10:00:36.206Z</time>
      </trkpt>
      <trkpt lat="46.91544" lon="8.6561">
        <ele>1414</ele>
        <time>2021-08-07T10:00:37.206Z</time>
      </trkpt>
      <trkpt lat="46.91545" lon="8.6561">
        <ele>1414</ele>
        <time>2021-08-07T10:00:38.207Z</time>
      </trkpt>
      <trkpt lat="46.91546" lon="8.6561">
        <ele>1413</ele>
        <time>2021-08-07T10:00:39.206Z</time>
      </trkpt>
      <trkpt lat="46.91547" lon="8.65609">
        <ele>1413</ele>
        <time>2021-08-07T10:00:40.206Z</time>
      </trkpt>
      <trkpt lat="46.91547" lon="8.65609">
        <ele>1413</ele>
        <time>2021-08-07T10:00:41.206Z</time>
      </trkpt>
      <trkpt lat="46.91548" lon="8.65609">
        <ele>1413</ele>
        <time>2021-08-07T10:00:42.206Z</time>
      </trkpt>
      <trkpt lat="46.91549" lon="8.65609">
        <ele>1412</ele>
        <time>2021-08-07T10:00:43.207Z</time>
      </trkpt>
      <trkpt lat="46.91549" lon="8.65609">
        <ele>1412</ele>
        <time>2021-08-07T10:00:44.207Z</time>
      </trkpt>
      <trkpt lat="46.91548" lon="8.6561">
        <ele>1413</ele>
        <time>2021-08-07T10:00:45.207Z</time>
      </trkpt>
      <trkpt lat="46.91548" lon="8.65611">
        <ele>1413</ele>
        <time>2021-08-07T10:00:46.206Z</time>
      </trkpt>
      <trkpt lat="46.91549" lon="8.65611">
        <ele>1413</ele>
        <time>2021-08-07T10:00:47.207Z</time>
      </trkpt>
      <trkpt lat="46.91551" lon="8.65611">
        <ele>1413</ele>
        <time>2021-08-07T10:00:48.206Z</time>
      </trkpt>
      <trkpt lat="46.91552" lon="8.6561">
        <ele>1413</ele>
        <time>2021-08-07T10:00:49.206Z</time>
      </trkpt>
      <trkpt lat="46.91553" lon="8.65608">
        <ele>1413</ele>
        <time>2021-08-07T10:00:50.206Z</time>
      </trkpt>
      <trkpt lat="46.91553" lon="8.65606">
        <ele>1413</ele>
        <time>2021-08-07T10:00:51.206Z</time>
      </trkpt>
      <trkpt lat="46.91553" lon="8.65605">
        <ele>1413</ele>
        <time>2021-08-07T10:00:52.206Z</time>
      </trkpt>
      <trkpt lat="46.91553" lon="8.65603">
        <ele>1413</ele>
        <time>2021-08-07T10:00:53.206Z</time>
      </trkpt>
      <trkpt lat="46.91553" lon="8.65602">
        <ele>1413</ele>
        <time>2021-08-07T10:00:54.206Z</time>
      </trkpt>
      <trkpt lat="46.91553" lon="8.65601">
        <ele>1413</ele>
        <time>2021-08-07T10:00:55.206Z</time>
      </trkpt>
      <trkpt lat="46.91553" lon="8.656">
        <ele>1413</ele>
        <time>2021-08-07T10:00:56.206Z</time>
      </trkpt>
      <trkpt lat="46.91553" lon="8.65599">
        <ele>1413</ele>
        <time>2021-08-07T10:00:57.207Z</time>
      </trkpt>
      <trkpt lat="46.91553" lon="8.65599">
        <ele>1413</ele>
        <time>2021-08-07T10:00:58.207Z</time>
      </trkpt>
      <trkpt lat="46.91553" lon="8.65598">
        <ele>1412</ele>
        <time>2021-08-07T10:00:59.206Z</time>
      </trkpt>
      <trkpt lat="46.91553" lon="8.65596">
        <ele>1412</ele>
        <time>2021-08-07T10:01:00.206Z</time>
      </trkpt>
      <trkpt lat="46.91553" lon="8.65595">
        <ele>1412</ele>
        <time>2021-08-07T10:01:01.206Z</time>
      </trkpt>
      <trkpt lat="46.91554" lon="8.65594">
        <ele>1411</ele>
        <time>2021-08-07T10:01:02.206Z</time>
      </trkpt>
      <trkpt lat="46.91554" lon="8.65593">
        <ele>1411</ele>
        <time>2021-08-07T10:01:03.207Z</time>
      </trkpt>
      <trkpt lat="46.91554" lon="8.65592">
        <ele>1411</ele>
        <time>2021-08-07T10:01:04.206Z</time>
      </trkpt>
      <trkpt lat="46.91555" lon="8.65591">
        <ele>1411</ele>
        <time>2021-08-07T10:01:05.206Z</time>
      </trkpt>
      <trkpt lat="46.91555" lon="8.6559">
        <ele>1410</ele>
        <time>2021-08-07T10:01:06.206Z</time>
      </trkpt>
      <trkpt lat="46.91556" lon="8.65589">
        <ele>1410</ele>
        <time>2021-08-07T10:01:07.206Z</time>
      </trkpt>
      <trkpt lat="46.91556" lon="8.65588">
        <ele>1409</ele>
        <time>2021-08-07T10:01:08.207Z</time>
      </trkpt>
      <trkpt lat="46.91556" lon="8.65587">
        <ele>1408</ele>
        <time>2021-08-07T10:01:09.206Z</time>
      </trkpt>
      <trkpt lat="46.91556" lon="8.65587">
        <ele>1408</ele>
        <time>2021-08-07T10:01:10.206Z</time>
      </trkpt>
      <trkpt lat="46.91556" lon="8.65586">
        <ele>1407</ele>
        <time>2021-08-07T10:01:11.206Z</time>
      </trkpt>
      <trkpt lat="46.91555" lon="8.65577">
        <ele>1406</ele>
        <time>2021-08-07T10:01:12.208Z</time>
      </trkpt>
      <trkpt lat="46.91555" lon="8.65577">
        <ele>1406</ele>
        <time>2021-08-07T10:01:13.207Z</time>
      </trkpt>
      <trkpt lat="46.91555" lon="8.65577">
        <ele>1406</ele>
        <time>2021-08-07T10:01:14.208Z</time>
      </trkpt>
      <trkpt lat="46.91555" lon="8.65578">
        <ele>1406</ele>
        <time>2021-08-07T10:01:15.207Z</time>
      </trkpt>
      <trkpt lat="46.91555" lon="8.65579">
        <ele>1406</ele>
        <time>2021-08-07T10:01:16.207Z</time>
      </trkpt>
      <trkpt lat="46.91555" lon="8.65579">
        <ele>1406</ele>
        <time>2021-08-07T10:01:17.207Z</time>
      </trkpt>
      <trkpt lat="46.91555" lon="8.6558">
        <ele>1405</ele>
        <time>2021-08-07T10:01:18.208Z</time>
      </trkpt>
      <trkpt lat="46.91555" lon="8.65581">
        <ele>1405</ele>
        <time>2021-08-07T10:01:19.207Z</time>
      </trkpt>
      <trkpt lat="46.91555" lon="8.65581">
        <ele>1404</ele>
        <time>2021-08-07T10:01:20.208Z</time>
      </trkpt>
      <trkpt lat="46.91555" lon="8.65581">
        <ele>1404</ele>
        <time>2021-08-07T10:01:21.208Z</time>
      </trkpt>
      <trkpt lat="46.91555" lon="8.6558">
        <ele>1403</ele>
        <time>2021-08-07T10:01:22.208Z</time>
      </trkpt>
      <trkpt lat="46.91554" lon="8.65581">
        <ele>1403</ele>
        <time>2021-08-07T10:01:23.208Z</time>
      </trkpt>
      <trkpt lat="46.91553" lon="8.65579">
        <ele>1399</ele>
        <time>2021-08-07T10:01:24.208Z</time>
      </trkpt>
      <trkpt lat="46.91553" lon="8.65579">
        <ele>1399</ele>
        <time>2021-08-07T10:01:25.208Z</time>
      </trkpt>
      <trkpt lat="46.91553" lon="8.65579">
        <ele>1398</ele>
        <time>2021-08-07T10:01:26.208Z</time>
      </trkpt>
      <trkpt lat="46.91553" lon="8.65578">
        <ele>1398</ele>
        <time>2021-08-07T10:01:27.208Z</time>
      </trkpt>
      <trkpt lat="46.91553" lon="8.65578">
        <ele>1397</ele>
        <time>2021-08-07T10:01:28.208Z</time>
      </trkpt>
      <trkpt lat="46.91553" lon="8.65576">
        <ele>1397</ele>
        <time>2021-08-07T10:01:29.208Z</time>
      </trkpt>
      <trkpt lat="46.91554" lon="8.65576">
        <ele>1397</ele>
        <time>2021-08-07T10:01:30.208Z</time>
      </trkpt>
      <trkpt lat="46.91554" lon="8.65573">
        <ele>1396</ele>
        <time>2021-08-07T10:01:31.208Z</time>
      </trkpt>
      <trkpt lat="46.91553" lon="8.65572">
        <ele>1396</ele>
        <time>2021-08-07T10:01:32.208Z</time>
      </trkpt>
      <trkpt lat="46.91552" lon="8.65572">
        <ele>1396</ele>
        <time>2021-08-07T10:01:33.208Z</time>
      </trkpt>
      <trkpt lat="46.91551" lon="8.65571">
        <ele>1397</ele>
        <time>2021-08-07T10:01:34.208Z</time>
      </trkpt>
      <trkpt lat="46.91549" lon="8.65572">
        <ele>1397</ele>
        <time>2021-08-07T10:01:35.208Z</time>
      </trkpt>
      <trkpt lat="46.91548" lon="8.65572">
        <ele>1397</ele>
        <time>2021-08-07T10:01:36.208Z</time>
      </trkpt>
      <trkpt lat="46.91546" lon="8.65573">
        <ele>1398</ele>
        <time>2021-08-07T10:01:37.208Z</time>
      </trkpt>
      <trkpt lat="46.91545" lon="8.65573">
        <ele>1398</ele>
        <time>2021-08-07T10:01:38.208Z</time>
      </trkpt>
      <trkpt lat="46.91544" lon="8.65572">
        <ele>1398</ele>
        <time>2021-08-07T10:01:39.208Z</time>
      </trkpt>
      <trkpt lat="46.91545" lon="8.65571">
        <ele>1398</ele>
        <time>2021-08-07T10:01:40.208Z</time>
      </trkpt>
      <trkpt lat="46.91546" lon="8.65571">
        <ele>1398</ele>
        <time>2021-08-07T10:01:41.208Z</time>
      </trkpt>
      <trkpt lat="46.91547" lon="8.65571">
        <ele>1399</ele>
        <time>2021-08-07T10:01:42.208Z</time>
      </trkpt>
      <trkpt lat="46.91548" lon="8.65571">
        <ele>1399</ele>
        <time>2021-08-07T10:01:43.208Z</time>
      </trkpt>
      <trkpt lat="46.91547" lon="8.65571">
        <ele>1399</ele>
        <time>2021-08-07T10:01:44.208Z</time>
      </trkpt>
      <trkpt lat="46.91547" lon="8.6557">
        <ele>1399</ele>
        <time>2021-08-07T10:01:45.208Z</time>
      </trkpt>
      <trkpt lat="46.91547" lon="8.6557">
        <ele>1399</ele>
        <time>2021-08-07T10:01:46.208Z</time>
      </trkpt>
      <trkpt lat="46.91547" lon="8.6557">
        <ele>1398</ele>
        <time>2021-08-07T10:01:47.208Z</time>
      </trkpt>
      <trkpt lat="46.91549" lon="8.65569">
        <ele>1399</ele>
        <time>2021-08-07T10:01:48.208Z</time>
      </trkpt>
      <trkpt lat="46.91549" lon="8.65569">
        <ele>1399</ele>
        <time>2021-08-07T10:01:49.208Z</time>
      </trkpt>
      <trkpt lat="46.9155" lon="8.6557">
        <ele>1399</ele>
        <time>2021-08-07T10:01:50.208Z</time>
      </trkpt>
      <trkpt lat="46.9155" lon="8.6557">
        <ele>1399</ele>
        <time>2021-08-07T10:01:51.209Z</time>
      </trkpt>
      <trkpt lat="46.91549" lon="8.65571">
        <ele>1399</ele>
        <time>2021-08-07T10:01:52.208Z</time>
      </trkpt>
      <trkpt lat="46.91549" lon="8.65571">
        <ele>1399</ele>
        <time>2021-08-07T10:01:53.208Z</time>
      </trkpt>
      <trkpt lat="46.91548" lon="8.65571">
        <ele>1399</ele>
        <time>2021-08-07T10:01:54.209Z</time>
      </trkpt>
      <trkpt lat="46.91547" lon="8.65571">
        <ele>1399</ele>
        <time>2021-08-07T10:01:55.209Z</time>
      </trkpt>
      <trkpt lat="46.91547" lon="8.65572">
        <ele>1398</ele>
        <time>2021-08-07T10:01:56.208Z</time>
      </trkpt>
      <trkpt lat="46.91546" lon="8.65572">
        <ele>1398</ele>
        <time>2021-08-07T10:01:57.208Z</time>
      </trkpt>
      <trkpt lat="46.91546" lon="8.65573">
        <ele>1398</ele>
        <time>2021-08-07T10:01:58.209Z</time>
      </trkpt>
      <trkpt lat="46.91547" lon="8.65573">
        <ele>1397</ele>
        <time>2021-08-07T10:01:59.209Z</time>
      </trkpt>
      <trkpt lat="46.91547" lon="8.65574">
        <ele>1397</ele>
        <time>2021-08-07T10:02:00.209Z</time>
      </trkpt>
      <trkpt lat="46.91547" lon="8.65573">
        <ele>1397</ele>
        <time>2021-08-07T10:02:01.208Z</time>
      </trkpt>
      <trkpt lat="46.91546" lon="8.65574">
        <ele>1396</ele>
        <time>2021-08-07T10:02:02.208Z</time>
      </trkpt>
      <trkpt lat="46.91546" lon="8.65574">
        <ele>1396</ele>
        <time>2021-08-07T10:02:03.209Z</time>
      </trkpt>
      <trkpt lat="46.91547" lon="8.65574">
        <ele>1396</ele>
        <time>2021-08-07T10:02:04.208Z</time>
      </trkpt>
      <trkpt lat="46.91547" lon="8.65574">
        <ele>1396</ele>
        <time>2021-08-07T10:02:05.208Z</time>
      </trkpt>
      <trkpt lat="46.91548" lon="8.65575">
        <ele>1395</ele>
        <time>2021-08-07T10:02:06.208Z</time>
      </trkpt>
      <trkpt lat="46.91548" lon="8.65575">
        <ele>1395</ele>
        <time>2021-08-07T10:02:07.209Z</time>
      </trkpt>
      <trkpt lat="46.91548" lon="8.65575">
        <ele>1395</ele>
        <time>2021-08-07T10:02:08.208Z</time>
      </trkpt>
      <trkpt lat="46.91548" lon="8.65576">
        <ele>1395</ele>
        <time>2021-08-07T10:02:09.209Z</time>
      </trkpt>
      <trkpt lat="46.91548" lon="8.65576">
        <ele>1394</ele>
        <time>2021-08-07T10:02:10.208Z</time>
      </trkpt>
      <trkpt lat="46.91549" lon="8.65576">
        <ele>1394</ele>
        <time>2021-08-07T10:02:11.208Z</time>
      </trkpt>
      <trkpt lat="46.91549" lon="8.65575">
        <ele>1394</ele>
        <time>2021-08-07T10:02:12.208Z</time>
      </trkpt>
      <trkpt lat="46.91549" lon="8.65581">
        <ele>1398</ele>
        <time>2021-08-07T10:02:13.209Z</time>
      </trkpt>
      <trkpt lat="46.91548" lon="8.65581">
        <ele>1399</ele>
        <time>2021-08-07T10:02:14.209Z</time>
      </trkpt>
      <trkpt lat="46.91548" lon="8.65581">
        <ele>1399</ele>
        <time>2021-08-07T10:02:15.208Z</time>
      </trkpt>
      <trkpt lat="46.91548" lon="8.65581">
        <ele>1399</ele>
        <time>2021-08-07T10:02:16.208Z</time>
      </trkpt>
      <trkpt lat="46.91547" lon="8.65581">
        <ele>1400</ele>
        <time>2021-08-07T10:02:17.209Z</time>
      </trkpt>
      <trkpt lat="46.91547" lon="8.65583">
        <ele>1398</ele>
        <time>2021-08-07T10:02:18.208Z</time>
      </trkpt>
      <trkpt lat="46.91547" lon="8.65583">
        <ele>1397</ele>
        <time>2021-08-07T10:02:19.208Z</time>
      </trkpt>
      <trkpt lat="46.91547" lon="8.65583">
        <ele>1396</ele>
        <time>2021-08-07T10:02:20.209Z</time>
      </trkpt>
      <trkpt lat="46.91547" lon="8.65583">
        <ele>1395</ele>
        <time>2021-08-07T10:02:21.209Z</time>
      </trkpt>
      <trkpt lat="46.91548" lon="8.65581">
        <ele>1396</ele>
        <time>2021-08-07T10:02:22.210Z</time>
      </trkpt>
      <trkpt lat="46.91548" lon="8.6558">
        <ele>1396</ele>
        <time>2021-08-07T10:02:23.210Z</time>
      </trkpt>
      <trkpt lat="46.9155" lon="8.65577">
        <ele>1399</ele>
        <time>2021-08-07T10:02:24.211Z</time>
      </trkpt>
      <trkpt lat="46.9155" lon="8.65576">
        <ele>1400</ele>
        <time>2021-08-07T10:02:25.210Z</time>
      </trkpt>
      <trkpt lat="46.9155" lon="8.65575">
        <ele>1400</ele>
        <time>2021-08-07T10:02:49.201Z</time>
      </trkpt>
      <trkpt lat="46.91546" lon="8.6557">
        <ele>1402</ele>
        <time>2021-08-07T10:02:50.202Z</time>
      </trkpt>
      <trkpt lat="46.91545" lon="8.6557">
        <ele>1403</ele>
        <time>2021-08-07T10:02:51.201Z</time>
      </trkpt>
      <trkpt lat="46.91544" lon="8.65569">
        <ele>1403</ele>
        <time>2021-08-07T10:03:08.198Z</time>
      </trkpt>
      <trkpt lat="46.91543" lon="8.6557">
        <ele>1403</ele>
        <time>2021-08-07T10:03:15.092Z</time>
      </trkpt>
      <trkpt lat="46.91543" lon="8.6557">
        <ele>1403</ele>
        <time>2021-08-07T10:03:16.092Z</time>
      </trkpt>
      <trkpt lat="46.91542" lon="8.6557">
        <ele>1403</ele>
        <time>2021-08-07T10:03:17.092Z</time>
      </trkpt>
      <trkpt lat="46.91542" lon="8.6557">
        <ele>1403</ele>
        <time>2021-08-07T10:03:18.091Z</time>
      </trkpt>
      <trkpt lat="46.91542" lon="8.65571">
        <ele>1403</ele>
        <time>2021-08-07T10:03:19.091Z</time>
      </trkpt>
      <trkpt lat="46.91541" lon="8.65571">
        <ele>1402</ele>
        <time>2021-08-07T10:03:20.091Z</time>
      </trkpt>
      <trkpt lat="46.9154" lon="8.65571">
        <ele>1402</ele>
        <time>2021-08-07T10:03:21.091Z</time>
      </trkpt>
      <trkpt lat="46.9154" lon="8.6557">
        <ele>1402</ele>
        <time>2021-08-07T10:03:22.091Z</time>
      </trkpt>
      <trkpt lat="46.9154" lon="8.6557">
        <ele>1402</ele>
        <time>2021-08-07T10:03:23.092Z</time>
      </trkpt>
      <trkpt lat="46.9154" lon="8.65569">
        <ele>1401</ele>
        <time>2021-08-07T10:03:24.091Z</time>
      </trkpt>
      <trkpt lat="46.91539" lon="8.65568">
        <ele>1401</ele>
        <time>2021-08-07T10:03:25.091Z</time>
      </trkpt>
      <trkpt lat="46.91539" lon="8.65568">
        <ele>1401</ele>
        <time>2021-08-07T10:03:26.091Z</time>
      </trkpt>
      <trkpt lat="46.9154" lon="8.65567">
        <ele>1401</ele>
        <time>2021-08-07T10:03:27.091Z</time>
      </trkpt>
      <trkpt lat="46.9154" lon="8.65566">
        <ele>1400</ele>
        <time>2021-08-07T10:03:28.091Z</time>
      </trkpt>
      <trkpt lat="46.91541" lon="8.65564">
        <ele>1400</ele>
        <time>2021-08-07T10:03:29.091Z</time>
      </trkpt>
      <trkpt lat="46.91543" lon="8.65563">
        <ele>1400</ele>
        <time>2021-08-07T10:03:30.091Z</time>
      </trkpt>
      <trkpt lat="46.91543" lon="8.65563">
        <ele>1400</ele>
        <time>2021-08-07T10:03:31.091Z</time>
      </trkpt>
      <trkpt lat="46.91544" lon="8.65562">
        <ele>1400</ele>
        <time>2021-08-07T10:03:32.092Z</time>
      </trkpt>
      <trkpt lat="46.91544" lon="8.65562">
        <ele>1399</ele>
        <time>2021-08-07T10:03:33.091Z</time>
      </trkpt>
      <trkpt lat="46.91545" lon="8.65562">
        <ele>1399</ele>
        <time>2021-08-07T10:03:34.091Z</time>
      </trkpt>
      <trkpt lat="46.91545" lon="8.65561">
        <ele>1398</ele>
        <time>2021-08-07T10:03:35.091Z</time>
      </trkpt>
      <trkpt lat="46.91546" lon="8.65561">
        <ele>1398</ele>
        <time>2021-08-07T10:03:36.091Z</time>
      </trkpt>
      <trkpt lat="46.91547" lon="8.6556">
        <ele>1398</ele>
        <time>2021-08-07T10:03:37.091Z</time>
      </trkpt>
      <trkpt lat="46.91548" lon="8.6556">
        <ele>1397</ele>
        <time>2021-08-07T10:03:38.091Z</time>
      </trkpt>
      <trkpt lat="46.91548" lon="8.65558">
        <ele>1397</ele>
        <time>2021-08-07T10:03:39.092Z</time>
      </trkpt>
      <trkpt lat="46.91548" lon="8.65557">
        <ele>1397</ele>
        <time>2021-08-07T10:03:40.091Z</time>
      </trkpt>
      <trkpt lat="46.91548" lon="8.65556">
        <ele>1396</ele>
        <time>2021-08-07T10:03:41.091Z</time>
      </trkpt>
      <trkpt lat="46.91547" lon="8.65554">
        <ele>1396</ele>
        <time>2021-08-07T10:03:42.091Z</time>
      </trkpt>
      <trkpt lat="46.91548" lon="8.65553">
        <ele>1396</ele>
        <time>2021-08-07T10:03:43.091Z</time>
      </trkpt>
      <trkpt lat="46.91548" lon="8.65552">
        <ele>1396</ele>
        <time>2021-08-07T10:03:44.091Z</time>
      </trkpt>
      <trkpt lat="46.91549" lon="8.65551">
        <ele>1396</ele>
        <time>2021-08-07T10:03:45.091Z</time>
      </trkpt>
      <trkpt lat="46.9155" lon="8.65552">
        <ele>1396</ele>
        <time>2021-08-07T10:03:46.091Z</time>
      </trkpt>
      <trkpt lat="46.91551" lon="8.65552">
        <ele>1396</ele>
        <time>2021-08-07T10:03:47.091Z</time>
      </trkpt>
      <trkpt lat="46.91552" lon="8.65553">
        <ele>1396</ele>
        <time>2021-08-07T10:03:48.092Z</time>
      </trkpt>
      <trkpt lat="46.91552" lon="8.65552">
        <ele>1396</ele>
        <time>2021-08-07T10:03:49.092Z</time>
      </trkpt>
      <trkpt lat="46.91552" lon="8.65551">
        <ele>1395</ele>
        <time>2021-08-07T10:03:50.091Z</time>
      </trkpt>
      <trkpt lat="46.91553" lon="8.6555">
        <ele>1395</ele>
        <time>2021-08-07T10:03:51.092Z</time>
      </trkpt>
      <trkpt lat="46.91554" lon="8.65549">
        <ele>1394</ele>
        <time>2021-08-07T10:03:52.092Z</time>
      </trkpt>
      <trkpt lat="46.91554" lon="8.65548">
        <ele>1394</ele>
        <time>2021-08-07T10:03:53.091Z</time>
      </trkpt>
      <trkpt lat="46.91555" lon="8.65547">
        <ele>1394</ele>
        <time>2021-08-07T10:03:54.092Z</time>
      </trkpt>
      <trkpt lat="46.91555" lon="8.65546">
        <ele>1394</ele>
        <time>2021-08-07T10:03:55.092Z</time>
      </trkpt>
      <trkpt lat="46.91556" lon="8.65546">
        <ele>1394</ele>
        <time>2021-08-07T10:03:56.092Z</time>
      </trkpt>
      <trkpt lat="46.91557" lon="8.65545">
        <ele>1394</ele>
        <time>2021-08-07T10:03:57.091Z</time>
      </trkpt>
      <trkpt lat="46.91557" lon="8.65544">
        <ele>1394</ele>
        <time>2021-08-07T10:03:58.092Z</time>
      </trkpt>
      <trkpt lat="46.91558" lon="8.65543">
        <ele>1394</ele>
        <time>2021-08-07T10:03:59.092Z</time>
      </trkpt>
      <trkpt lat="46.91559" lon="8.65542">
        <ele>1394</ele>
        <time>2021-08-07T10:04:00.091Z</time>
      </trkpt>
      <trkpt lat="46.9156" lon="8.65541">
        <ele>1394</ele>
        <time>2021-08-07T10:04:01.091Z</time>
      </trkpt>
      <trkpt lat="46.9156" lon="8.65541">
        <ele>1395</ele>
        <time>2021-08-07T10:04:02.092Z</time>
      </trkpt>
      <trkpt lat="46.91561" lon="8.65541">
        <ele>1395</ele>
        <time>2021-08-07T10:04:03.091Z</time>
      </trkpt>
      <trkpt lat="46.91563" lon="8.65542">
        <ele>1395</ele>
        <time>2021-08-07T10:04:04.092Z</time>
      </trkpt>
      <trkpt lat="46.91564" lon="8.65542">
        <ele>1396</ele>
        <time>2021-08-07T10:04:05.092Z</time>
      </trkpt>
      <trkpt lat="46.91565" lon="8.65543">
        <ele>1397</ele>
        <time>2021-08-07T10:04:06.092Z</time>
      </trkpt>
      <trkpt lat="46.91566" lon="8.65545">
        <ele>1398</ele>
        <time>2021-08-07T10:04:07.091Z</time>
      </trkpt>
      <trkpt lat="46.91567" lon="8.65545">
        <ele>1398</ele>
        <time>2021-08-07T10:04:08.092Z</time>
      </trkpt>
      <trkpt lat="46.91568" lon="8.65543">
        <ele>1399</ele>
        <time>2021-08-07T10:04:09.092Z</time>
      </trkpt>
      <trkpt lat="46.91567" lon="8.65542">
        <ele>1399</ele>
        <time>2021-08-07T10:04:10.092Z</time>
      </trkpt>
      <trkpt lat="46.91567" lon="8.65541">
        <ele>1399</ele>
        <time>2021-08-07T10:04:11.092Z</time>
      </trkpt>
      <trkpt lat="46.91566" lon="8.65539">
        <ele>1399</ele>
        <time>2021-08-07T10:04:12.091Z</time>
      </trkpt>
      <trkpt lat="46.91565" lon="8.65538">
        <ele>1399</ele>
        <time>2021-08-07T10:04:13.092Z</time>
      </trkpt>
      <trkpt lat="46.91565" lon="8.65538">
        <ele>1398</ele>
        <time>2021-08-07T10:04:14.092Z</time>
      </trkpt>
      <trkpt lat="46.91564" lon="8.65537">
        <ele>1398</ele>
        <time>2021-08-07T10:04:15.092Z</time>
      </trkpt>
      <trkpt lat="46.91564" lon="8.65537">
        <ele>1398</ele>
        <time>2021-08-07T10:04:16.092Z</time>
      </trkpt>
      <trkpt lat="46.91563" lon="8.65536">
        <ele>1397</ele>
        <time>2021-08-07T10:04:17.092Z</time>
      </trkpt>
      <trkpt lat="46.91563" lon="8.65536">
        <ele>1397</ele>
        <time>2021-08-07T10:04:18.092Z</time>
      </trkpt>
      <trkpt lat="46.91563" lon="8.65536">
        <ele>1397</ele>
        <time>2021-08-07T10:04:19.091Z</time>
      </trkpt>
      <trkpt lat="46.91563" lon="8.65535">
        <ele>1397</ele>
        <time>2021-08-07T10:04:20.092Z</time>
      </trkpt>
      <trkpt lat="46.91563" lon="8.65535">
        <ele>1396</ele>
        <time>2021-08-07T10:04:21.092Z</time>
      </trkpt>
      <trkpt lat="46.91564" lon="8.65534">
        <ele>1394</ele>
        <time>2021-08-07T10:04:22.093Z</time>
      </trkpt>
      <trkpt lat="46.91566" lon="8.65522">
        <ele>1381</ele>
        <time>2021-08-07T10:04:23.092Z</time>
      </trkpt>
      <trkpt lat="46.91566" lon="8.65521">
        <ele>1381</ele>
        <time>2021-08-07T10:04:24.093Z</time>
      </trkpt>
      <trkpt lat="46.91565" lon="8.65519">
        <ele>1380</ele>
        <time>2021-08-07T10:04:25.092Z</time>
      </trkpt>
      <trkpt lat="46.91564" lon="8.65518">
        <ele>1380</ele>
        <time>2021-08-07T10:04:26.092Z</time>
      </trkpt>
      <trkpt lat="46.91563" lon="8.65517">
        <ele>1380</ele>
        <time>2021-08-07T10:04:27.092Z</time>
      </trkpt>
      <trkpt lat="46.91562" lon="8.65517">
        <ele>1380</ele>
        <time>2021-08-07T10:04:28.092Z</time>
      </trkpt>
      <trkpt lat="46.91561" lon="8.65516">
        <ele>1379</ele>
        <time>2021-08-07T10:04:29.092Z</time>
      </trkpt>
      <trkpt lat="46.9156" lon="8.65516">
        <ele>1379</ele>
        <time>2021-08-07T10:04:30.092Z</time>
      </trkpt>
      <trkpt lat="46.9156" lon="8.65516">
        <ele>1379</ele>
        <time>2021-08-07T10:04:31.093Z</time>
      </trkpt>
      <trkpt lat="46.91559" lon="8.65516">
        <ele>1378</ele>
        <time>2021-08-07T10:04:32.092Z</time>
      </trkpt>
      <trkpt lat="46.91559" lon="8.65516">
        <ele>1378</ele>
        <time>2021-08-07T10:04:36.109Z</time>
      </trkpt>
      <trkpt lat="46.91559" lon="8.65516">
        <ele>1378</ele>
        <time>2021-08-07T10:04:37.109Z</time>
      </trkpt>
      <trkpt lat="46.91557" lon="8.65516">
        <ele>1378</ele>
        <time>2021-08-07T10:04:38.109Z</time>
      </trkpt>
      <trkpt lat="46.91556" lon="8.65516">
        <ele>1378</ele>
        <time>2021-08-07T10:04:39.109Z</time>
      </trkpt>
      <trkpt lat="46.91555" lon="8.65516">
        <ele>1377</ele>
        <time>2021-08-07T10:04:58.088Z</time>
      </trkpt>
      <trkpt lat="46.91555" lon="8.65516">
        <ele>1377</ele>
        <time>2021-08-07T10:04:59.088Z</time>
      </trkpt>
      <trkpt lat="46.91555" lon="8.65516">
        <ele>1377</ele>
        <time>2021-08-07T10:05:01.957Z</time>
      </trkpt>
      <trkpt lat="46.91555" lon="8.65515">
        <ele>1377</ele>
        <time>2021-08-07T10:05:02.957Z</time>
      </trkpt>
      <trkpt lat="46.91555" lon="8.65515">
        <ele>1377</ele>
        <time>2021-08-07T10:05:03.957Z</time>
      </trkpt>
      <trkpt lat="46.91555" lon="8.65515">
        <ele>1377</ele>
        <time>2021-08-07T10:05:04.957Z</time>
      </trkpt>
      <trkpt lat="46.91555" lon="8.65514">
        <ele>1378</ele>
        <time>2021-08-07T10:05:13.096Z</time>
      </trkpt>
      <trkpt lat="46.91554" lon="8.65515">
        <ele>1378</ele>
        <time>2021-08-07T10:05:14.967Z</time>
      </trkpt>
      <trkpt lat="46.91554" lon="8.65515">
        <ele>1377</ele>
        <time>2021-08-07T10:05:15.967Z</time>
      </trkpt>
      <trkpt lat="46.91553" lon="8.65516">
        <ele>1377</ele>
        <time>2021-08-07T10:05:16.967Z</time>
      </trkpt>
      <trkpt lat="46.91553" lon="8.65515">
        <ele>1377</ele>
        <time>2021-08-07T10:05:31.089Z</time>
      </trkpt>
      <trkpt lat="46.91552" lon="8.65514">
        <ele>1377</ele>
        <time>2021-08-07T10:05:32.088Z</time>
      </trkpt>
      <trkpt lat="46.9155" lon="8.6551">
        <ele>1377</ele>
        <time>2021-08-07T10:05:37.970Z</time>
      </trkpt>
      <trkpt lat="46.91549" lon="8.6551">
        <ele>1377</ele>
        <time>2021-08-07T10:05:38.969Z</time>
      </trkpt>
      <trkpt lat="46.91549" lon="8.65509">
        <ele>1377</ele>
        <time>2021-08-07T10:05:48.839Z</time>
      </trkpt>
      <trkpt lat="46.91549" lon="8.65509">
        <ele>1377</ele>
        <time>2021-08-07T10:05:49.839Z</time>
      </trkpt>
      <trkpt lat="46.9155" lon="8.65509">
        <ele>1377</ele>
        <time>2021-08-07T10:05:58.616Z</time>
      </trkpt>
      <trkpt lat="46.9155" lon="8.65508">
        <ele>1378</ele>
        <time>2021-08-07T10:05:59.616Z</time>
      </trkpt>
      <trkpt lat="46.9155" lon="8.65507">
        <ele>1377</ele>
        <time>2021-08-07T10:06:35.505Z</time>
      </trkpt>
      <trkpt lat="46.91549" lon="8.65506">
        <ele>1377</ele>
        <time>2021-08-07T10:06:36.506Z</time>
      </trkpt>
      <trkpt lat="46.91549" lon="8.65504">
        <ele>1377</ele>
        <time>2021-08-07T10:06:37.506Z</time>
      </trkpt>
      <trkpt lat="46.91548" lon="8.65503">
        <ele>1377</ele>
        <time>2021-08-07T10:06:38.505Z</time>
      </trkpt>
      <trkpt lat="46.91548" lon="8.65503">
        <ele>1376</ele>
        <time>2021-08-07T10:06:39.505Z</time>
      </trkpt>
      <trkpt lat="46.91547" lon="8.65502">
        <ele>1376</ele>
        <time>2021-08-07T10:06:40.505Z</time>
      </trkpt>
      <trkpt lat="46.91546" lon="8.65502">
        <ele>1376</ele>
        <time>2021-08-07T10:06:41.506Z</time>
      </trkpt>
      <trkpt lat="46.91546" lon="8.65503">
        <ele>1375</ele>
        <time>2021-08-07T10:06:42.505Z</time>
      </trkpt>
      <trkpt lat="46.91546" lon="8.65505">
        <ele>1375</ele>
        <time>2021-08-07T10:07:05.621Z</time>
      </trkpt>
      <trkpt lat="46.91546" lon="8.65505">
        <ele>1375</ele>
        <time>2021-08-07T10:07:06.621Z</time>
      </trkpt>
      <trkpt lat="46.91543" lon="8.65511">
        <ele>1372</ele>
        <time>2021-08-07T10:07:31.749Z</time>
      </trkpt>
      <trkpt lat="46.91543" lon="8.65511">
        <ele>1372</ele>
        <time>2021-08-07T10:07:32.750Z</time>
      </trkpt>
      <trkpt lat="46.91542" lon="8.65509">
        <ele>1364</ele>
        <time>2021-08-07T10:07:33.750Z</time>
      </trkpt>
      <trkpt lat="46.91541" lon="8.65509">
        <ele>1364</ele>
        <time>2021-08-07T10:07:43.876Z</time>
      </trkpt>
      <trkpt lat="46.91541" lon="8.65509">
        <ele>1364</ele>
        <time>2021-08-07T10:07:44.876Z</time>
      </trkpt>
      <trkpt lat="46.91541" lon="8.65509">
        <ele>1364</ele>
        <time>2021-08-07T10:07:45.876Z</time>
      </trkpt>
      <trkpt lat="46.9154" lon="8.6551">
        <ele>1363</ele>
        <time>2021-08-07T10:07:46.876Z</time>
      </trkpt>
      <trkpt lat="46.9154" lon="8.6551">
        <ele>1364</ele>
        <time>2021-08-07T10:07:47.876Z</time>
      </trkpt>
      <trkpt lat="46.91534" lon="8.65508">
        <ele>1374</ele>
        <time>2021-08-07T10:07:49.994Z</time>
      </trkpt>
      <trkpt lat="46.91534" lon="8.65509">
        <ele>1375</ele>
        <time>2021-08-07T10:07:50.993Z</time>
      </trkpt>
      <trkpt lat="46.91534" lon="8.65509">
        <ele>1376</ele>
        <time>2021-08-07T10:07:58.849Z</time>
      </trkpt>
      <trkpt lat="46.91534" lon="8.65509">
        <ele>1376</ele>
        <time>2021-08-07T10:07:59.849Z</time>
      </trkpt>
      <trkpt lat="46.91533" lon="8.65494">
        <ele>1376</ele>
        <time>2021-08-07T10:08:00.850Z</time>
      </trkpt>
      <trkpt lat="46.91534" lon="8.65494">
        <ele>1376</ele>
        <time>2021-08-07T10:08:15.952Z</time>
      </trkpt>
      <trkpt lat="46.91535" lon="8.65494">
        <ele>1375</ele>
        <time>2021-08-07T10:08:16.953Z</time>
      </trkpt>
      <trkpt lat="46.91536" lon="8.65492">
        <ele>1372</ele>
        <time>2021-08-07T10:08:22.875Z</time>
      </trkpt>
      <trkpt lat="46.91536" lon="8.65493">
        <ele>1372</ele>
        <time>2021-08-07T10:08:23.874Z</time>
      </trkpt>
      <trkpt lat="46.91535" lon="8.65496">
        <ele>1364</ele>
        <time>2021-08-07T10:08:24.875Z</time>
      </trkpt>
      <trkpt lat="46.91535" lon="8.65497">
        <ele>1364</ele>
        <time>2021-08-07T10:08:25.875Z</time>
      </trkpt>
      <trkpt lat="46.91535" lon="8.65496">
        <ele>1364</ele>
        <time>2021-08-07T10:08:26.874Z</time>
      </trkpt>
      <trkpt lat="46.91535" lon="8.65496">
        <ele>1364</ele>
        <time>2021-08-07T10:08:50.951Z</time>
      </trkpt>
      <trkpt lat="46.91535" lon="8.65496">
        <ele>1364</ele>
        <time>2021-08-07T10:08:51.951Z</time>
      </trkpt>
      <trkpt lat="46.91535" lon="8.65497">
        <ele>1364</ele>
        <time>2021-08-07T10:08:52.951Z</time>
      </trkpt>
      <trkpt lat="46.91535" lon="8.65498">
        <ele>1364</ele>
        <time>2021-08-07T10:09:02.141Z</time>
      </trkpt>
      <trkpt lat="46.91535" lon="8.65498">
        <ele>1364</ele>
        <time>2021-08-07T10:09:03.140Z</time>
      </trkpt>
      <trkpt lat="46.91528" lon="8.65502">
        <ele>1373</ele>
        <time>2021-08-07T10:09:04.140Z</time>
      </trkpt>
      <trkpt lat="46.91528" lon="8.65502">
        <ele>1374</ele>
        <time>2021-08-07T10:09:05.141Z</time>
      </trkpt>
      <trkpt lat="46.91528" lon="8.65501">
        <ele>1375</ele>
        <time>2021-08-07T10:09:09.228Z</time>
      </trkpt>
      <trkpt lat="46.91528" lon="8.65501">
        <ele>1375</ele>
        <time>2021-08-07T10:09:10.229Z</time>
      </trkpt>
      <trkpt lat="46.91527" lon="8.655">
        <ele>1377</ele>
        <time>2021-08-07T10:09:11.228Z</time>
      </trkpt>
      <trkpt lat="46.91527" lon="8.65499">
        <ele>1377</ele>
        <time>2021-08-07T10:09:12.228Z</time>
      </trkpt>
      <trkpt lat="46.91529" lon="8.65497">
        <ele>1376</ele>
        <time>2021-08-07T10:09:13.228Z</time>
      </trkpt>
      <trkpt lat="46.9153" lon="8.65497">
        <ele>1375</ele>
        <time>2021-08-07T10:09:14.228Z</time>
      </trkpt>
      <trkpt lat="46.9153" lon="8.65491">
        <ele>1369</ele>
        <time>2021-08-07T10:09:15.228Z</time>
      </trkpt>
      <trkpt lat="46.9153" lon="8.6549">
        <ele>1370</ele>
        <time>2021-08-07T10:09:16.228Z</time>
      </trkpt>
      <trkpt lat="46.91535" lon="8.65499">
        <ele>1348</ele>
        <time>2021-08-07T10:09:17.228Z</time>
      </trkpt>
      <trkpt lat="46.91536" lon="8.65499">
        <ele>1348</ele>
        <time>2021-08-07T10:09:18.229Z</time>
      </trkpt>
      <trkpt lat="46.91536" lon="8.655">
        <ele>1348</ele>
        <time>2021-08-07T10:09:19.229Z</time>
      </trkpt>
      <trkpt lat="46.91536" lon="8.655">
        <ele>1348</ele>
        <time>2021-08-07T10:09:20.229Z</time>
      </trkpt>
      <trkpt lat="46.91536" lon="8.655">
        <ele>1348</ele>
        <time>2021-08-07T10:09:21.229Z</time>
      </trkpt>
      <trkpt lat="46.91536" lon="8.655">
        <ele>1365</ele>
        <time>2021-08-07T10:09:22.229Z</time>
      </trkpt>
      <trkpt lat="46.91536" lon="8.65499">
        <ele>1366</ele>
        <time>2021-08-07T10:09:23.229Z</time>
      </trkpt>
      <trkpt lat="46.91538" lon="8.65496">
        <ele>1369</ele>
        <time>2021-08-07T10:09:24.230Z</time>
      </trkpt>
      <trkpt lat="46.91538" lon="8.65496">
        <ele>1369</ele>
        <time>2021-08-07T10:09:25.230Z</time>
      </trkpt>
      <trkpt lat="46.91538" lon="8.65495">
        <ele>1370</ele>
        <time>2021-08-07T10:09:26.229Z</time>
      </trkpt>
      <trkpt lat="46.91537" lon="8.65494">
        <ele>1370</ele>
        <time>2021-08-07T10:09:27.230Z</time>
      </trkpt>
      <trkpt lat="46.91537" lon="8.65493">
        <ele>1370</ele>
        <time>2021-08-07T10:09:28.230Z</time>
      </trkpt>
      <trkpt lat="46.91536" lon="8.65493">
        <ele>1370</ele>
        <time>2021-08-07T10:09:29.229Z</time>
      </trkpt>
      <trkpt lat="46.91536" lon="8.65493">
        <ele>1371</ele>
        <time>2021-08-07T10:09:30.229Z</time>
      </trkpt>
      <trkpt lat="46.91536" lon="8.65493">
        <ele>1371</ele>
        <time>2021-08-07T10:09:31.230Z</time>
      </trkpt>
      <trkpt lat="46.91536" lon="8.65494">
        <ele>1371</ele>
        <time>2021-08-07T10:09:32.230Z</time>
      </trkpt>
      <trkpt lat="46.91535" lon="8.65495">
        <ele>1371</ele>
        <time>2021-08-07T10:09:33.230Z</time>
      </trkpt>
      <trkpt lat="46.91535" lon="8.65495">
        <ele>1372</ele>
        <time>2021-08-07T10:09:34.230Z</time>
      </trkpt>
      <trkpt lat="46.91535" lon="8.65495">
        <ele>1372</ele>
        <time>2021-08-07T10:09:35.230Z</time>
      </trkpt>
      <trkpt lat="46.91535" lon="8.65496">
        <ele>1372</ele>
        <time>2021-08-07T10:09:36.231Z</time>
      </trkpt>
      <trkpt lat="46.91534" lon="8.65496">
        <ele>1373</ele>
        <time>2021-08-07T10:09:37.231Z</time>
      </trkpt>
      <trkpt lat="46.91534" lon="8.65496">
        <ele>1373</ele>
        <time>2021-08-07T10:09:38.230Z</time>
      </trkpt>
      <trkpt lat="46.91533" lon="8.65497">
        <ele>1373</ele>
        <time>2021-08-07T10:09:39.230Z</time>
      </trkpt>
      <trkpt lat="46.91533" lon="8.65498">
        <ele>1374</ele>
        <time>2021-08-07T10:09:40.231Z</time>
      </trkpt>
      <trkpt lat="46.91532" lon="8.65499">
        <ele>1374</ele>
        <time>2021-08-07T10:09:41.231Z</time>
      </trkpt>
      <trkpt lat="46.91532" lon="8.65499">
        <ele>1374</ele>
        <time>2021-08-07T10:09:42.231Z</time>
      </trkpt>
      <trkpt lat="46.91533" lon="8.65499">
        <ele>1374</ele>
        <time>2021-08-07T10:09:43.231Z</time>
      </trkpt>
      <trkpt lat="46.91533" lon="8.655">
        <ele>1374</ele>
        <time>2021-08-07T10:09:44.230Z</time>
      </trkpt>
      <trkpt lat="46.91534" lon="8.655">
        <ele>1375</ele>
        <time>2021-08-07T10:09:45.230Z</time>
      </trkpt>
      <trkpt lat="46.91534" lon="8.655">
        <ele>1375</ele>
        <time>2021-08-07T10:09:46.231Z</time>
      </trkpt>
      <trkpt lat="46.91535" lon="8.65501">
        <ele>1375</ele>
        <time>2021-08-07T10:09:47.231Z</time>
      </trkpt>
      <trkpt lat="46.91534" lon="8.655">
        <ele>1375</ele>
        <time>2021-08-07T10:09:48.230Z</time>
      </trkpt>
      <trkpt lat="46.91534" lon="8.65498">
        <ele>1376</ele>
        <time>2021-08-07T10:09:49.230Z</time>
      </trkpt>
      <trkpt lat="46.91535" lon="8.65495">
        <ele>1376</ele>
        <time>2021-08-07T10:09:50.231Z</time>
      </trkpt>
      <trkpt lat="46.91535" lon="8.65495">
        <ele>1376</ele>
        <time>2021-08-07T10:09:51.230Z</time>
      </trkpt>
      <trkpt lat="46.91536" lon="8.65494">
        <ele>1376</ele>
        <time>2021-08-07T10:09:52.230Z</time>
      </trkpt>
      <trkpt lat="46.91536" lon="8.65494">
        <ele>1377</ele>
        <time>2021-08-07T10:09:53.230Z</time>
      </trkpt>
      <trkpt lat="46.91537" lon="8.65494">
        <ele>1377</ele>
        <time>2021-08-07T10:09:54.231Z</time>
      </trkpt>
      <trkpt lat="46.91538" lon="8.65493">
        <ele>1377</ele>
        <time>2021-08-07T10:09:55.230Z</time>
      </trkpt>
      <trkpt lat="46.91538" lon="8.65492">
        <ele>1377</ele>
        <time>2021-08-07T10:09:56.231Z</time>
      </trkpt>
      <trkpt lat="46.91539" lon="8.65492">
        <ele>1377</ele>
        <time>2021-08-07T10:09:57.231Z</time>
      </trkpt>
      <trkpt lat="46.91539" lon="8.65491">
        <ele>1377</ele>
        <time>2021-08-07T10:09:58.231Z</time>
      </trkpt>
      <trkpt lat="46.91538" lon="8.65491">
        <ele>1377</ele>
        <time>2021-08-07T10:09:59.230Z</time>
      </trkpt>
      <trkpt lat="46.91538" lon="8.6549">
        <ele>1377</ele>
        <time>2021-08-07T10:10:00.231Z</time>
      </trkpt>
      <trkpt lat="46.91537" lon="8.6549">
        <ele>1377</ele>
        <time>2021-08-07T10:10:01.230Z</time>
      </trkpt>
      <trkpt lat="46.91538" lon="8.6549">
        <ele>1377</ele>
        <time>2021-08-07T10:10:02.231Z</time>
      </trkpt>
      <trkpt lat="46.91538" lon="8.65489">
        <ele>1377</ele>
        <time>2021-08-07T10:10:03.230Z</time>
      </trkpt>
      <trkpt lat="46.91539" lon="8.65488">
        <ele>1377</ele>
        <time>2021-08-07T10:10:04.231Z</time>
      </trkpt>
      <trkpt lat="46.91539" lon="8.65487">
        <ele>1377</ele>
        <time>2021-08-07T10:10:05.231Z</time>
      </trkpt>
      <trkpt lat="46.91539" lon="8.65486">
        <ele>1376</ele>
        <time>2021-08-07T10:10:06.231Z</time>
      </trkpt>
      <trkpt lat="46.91538" lon="8.65486">
        <ele>1376</ele>
        <time>2021-08-07T10:10:07.230Z</time>
      </trkpt>
      <trkpt lat="46.91538" lon="8.65487">
        <ele>1375</ele>
        <time>2021-08-07T10:10:08.231Z</time>
      </trkpt>
      <trkpt lat="46.91537" lon="8.65488">
        <ele>1375</ele>
        <time>2021-08-07T10:10:09.231Z</time>
      </trkpt>
      <trkpt lat="46.91537" lon="8.65489">
        <ele>1374</ele>
        <time>2021-08-07T10:10:10.231Z</time>
      </trkpt>
      <trkpt lat="46.91536" lon="8.6549">
        <ele>1374</ele>
        <time>2021-08-07T10:10:11.230Z</time>
      </trkpt>
      <trkpt lat="46.91536" lon="8.6549">
        <ele>1373</ele>
        <time>2021-08-07T10:10:12.231Z</time>
      </trkpt>
      <trkpt lat="46.91534" lon="8.6549">
        <ele>1370</ele>
        <time>2021-08-07T10:10:13.230Z</time>
      </trkpt>
      <trkpt lat="46.91533" lon="8.65489">
        <ele>1370</ele>
        <time>2021-08-07T10:10:14.231Z</time>
      </trkpt>
      <trkpt lat="46.91532" lon="8.6549">
        <ele>1369</ele>
        <time>2021-08-07T10:10:15.230Z</time>
      </trkpt>
      <trkpt lat="46.91531" lon="8.6549">
        <ele>1369</ele>
        <time>2021-08-07T10:10:16.231Z</time>
      </trkpt>
      <trkpt lat="46.91531" lon="8.6549">
        <ele>1368</ele>
        <time>2021-08-07T10:10:17.230Z</time>
      </trkpt>
      <trkpt lat="46.91531" lon="8.65491">
        <ele>1367</ele>
        <time>2021-08-07T10:10:18.230Z</time>
      </trkpt>
      <trkpt lat="46.9153" lon="8.65491">
        <ele>1366</ele>
        <time>2021-08-07T10:10:19.230Z</time>
      </trkpt>
      <trkpt lat="46.9153" lon="8.65492">
        <ele>1365</ele>
        <time>2021-08-07T10:10:20.231Z</time>
      </trkpt>
      <trkpt lat="46.91529" lon="8.65492">
        <ele>1364</ele>
        <time>2021-08-07T10:10:21.231Z</time>
      </trkpt>
      <trkpt lat="46.91528" lon="8.65492">
        <ele>1364</ele>
        <time>2021-08-07T10:10:22.230Z</time>
      </trkpt>
      <trkpt lat="46.91527" lon="8.65493">
        <ele>1363</ele>
        <time>2021-08-07T10:10:23.231Z</time>
      </trkpt>
      <trkpt lat="46.91527" lon="8.65494">
        <ele>1363</ele>
        <time>2021-08-07T10:10:24.231Z</time>
      </trkpt>
      <trkpt lat="46.91527" lon="8.65494">
        <ele>1362</ele>
        <time>2021-08-07T10:10:25.230Z</time>
      </trkpt>
      <trkpt lat="46.91526" lon="8.65495">
        <ele>1362</ele>
        <time>2021-08-07T10:10:26.231Z</time>
      </trkpt>
      <trkpt lat="46.91525" lon="8.65496">
        <ele>1361</ele>
        <time>2021-08-07T10:10:27.231Z</time>
      </trkpt>
      <trkpt lat="46.91524" lon="8.65495">
        <ele>1361</ele>
        <time>2021-08-07T10:10:28.231Z</time>
      </trkpt>
      <trkpt lat="46.91524" lon="8.65495">
        <ele>1360</ele>
        <time>2021-08-07T10:10:29.230Z</time>
      </trkpt>
      <trkpt lat="46.91523" lon="8.65495">
        <ele>1360</ele>
        <time>2021-08-07T10:10:30.231Z</time>
      </trkpt>
      <trkpt lat="46.91522" lon="8.65495">
        <ele>1359</ele>
        <time>2021-08-07T10:10:31.231Z</time>
      </trkpt>
      <trkpt lat="46.91523" lon="8.65495">
        <ele>1358</ele>
        <time>2021-08-07T10:10:32.230Z</time>
      </trkpt>
      <trkpt lat="46.91523" lon="8.65494">
        <ele>1357</ele>
        <time>2021-08-07T10:10:33.231Z</time>
      </trkpt>
      <trkpt lat="46.91524" lon="8.65494">
        <ele>1357</ele>
        <time>2021-08-07T10:10:34.231Z</time>
      </trkpt>
      <trkpt lat="46.91525" lon="8.65494">
        <ele>1356</ele>
        <time>2021-08-07T10:10:35.231Z</time>
      </trkpt>
      <trkpt lat="46.91525" lon="8.65493">
        <ele>1356</ele>
        <time>2021-08-07T10:10:36.230Z</time>
      </trkpt>
      <trkpt lat="46.91525" lon="8.65492">
        <ele>1355</ele>
        <time>2021-08-07T10:10:37.230Z</time>
      </trkpt>
      <trkpt lat="46.91525" lon="8.6549">
        <ele>1355</ele>
        <time>2021-08-07T10:10:38.231Z</time>
      </trkpt>
      <trkpt lat="46.91525" lon="8.6549">
        <ele>1354</ele>
        <time>2021-08-07T10:10:39.230Z</time>
      </trkpt>
      <trkpt lat="46.91526" lon="8.65488">
        <ele>1354</ele>
        <time>2021-08-07T10:10:40.232Z</time>
      </trkpt>
      <trkpt lat="46.91526" lon="8.65487">
        <ele>1354</ele>
        <time>2021-08-07T10:10:41.232Z</time>
      </trkpt>
      <trkpt lat="46.91526" lon="8.65486">
        <ele>1354</ele>
        <time>2021-08-07T10:10:42.231Z</time>
      </trkpt>
      <trkpt lat="46.91526" lon="8.65485">
        <ele>1354</ele>
        <time>2021-08-07T10:10:43.232Z</time>
      </trkpt>
      <trkpt lat="46.91528" lon="8.65482">
        <ele>1354</ele>
        <time>2021-08-07T10:10:44.232Z</time>
      </trkpt>
      <trkpt lat="46.91528" lon="8.65481">
        <ele>1354</ele>
        <time>2021-08-07T10:10:45.232Z</time>
      </trkpt>
      <trkpt lat="46.91528" lon="8.6548">
        <ele>1354</ele>
        <time>2021-08-07T10:10:46.232Z</time>
      </trkpt>
      <trkpt lat="46.91527" lon="8.6547">
        <ele>1351</ele>
        <time>2021-08-07T10:10:47.232Z</time>
      </trkpt>
      <trkpt lat="46.91527" lon="8.6547">
        <ele>1350</ele>
        <time>2021-08-07T10:10:48.232Z</time>
      </trkpt>
      <trkpt lat="46.91527" lon="8.65469">
        <ele>1349</ele>
        <time>2021-08-07T10:10:49.231Z</time>
      </trkpt>
      <trkpt lat="46.91527" lon="8.65468">
        <ele>1348</ele>
        <time>2021-08-07T10:10:50.232Z</time>
      </trkpt>
      <trkpt lat="46.91527" lon="8.65466">
        <ele>1348</ele>
        <time>2021-08-07T10:10:51.232Z</time>
      </trkpt>
      <trkpt lat="46.91527" lon="8.65465">
        <ele>1347</ele>
        <time>2021-08-07T10:10:52.232Z</time>
      </trkpt>
      <trkpt lat="46.91526" lon="8.65464">
        <ele>1347</ele>
        <time>2021-08-07T10:10:53.232Z</time>
      </trkpt>
      <trkpt lat="46.91526" lon="8.65463">
        <ele>1347</ele>
        <time>2021-08-07T10:10:54.231Z</time>
      </trkpt>
      <trkpt lat="46.91527" lon="8.65461">
        <ele>1347</ele>
        <time>2021-08-07T10:10:55.231Z</time>
      </trkpt>
      <trkpt lat="46.91527" lon="8.65459">
        <ele>1348</ele>
        <time>2021-08-07T10:10:56.232Z</time>
      </trkpt>
      <trkpt lat="46.91527" lon="8.65457">
        <ele>1348</ele>
        <time>2021-08-07T10:10:57.232Z</time>
      </trkpt>
      <trkpt lat="46.91526" lon="8.65457">
        <ele>1348</ele>
        <time>2021-08-07T10:10:58.232Z</time>
      </trkpt>
      <trkpt lat="46.91526" lon="8.65456">
        <ele>1347</ele>
        <time>2021-08-07T10:10:59.232Z</time>
      </trkpt>
      <trkpt lat="46.91526" lon="8.65456">
        <ele>1347</ele>
        <time>2021-08-07T10:11:00.232Z</time>
      </trkpt>
      <trkpt lat="46.91526" lon="8.65456">
        <ele>1346</ele>
        <time>2021-08-07T10:11:01.232Z</time>
      </trkpt>
      <trkpt lat="46.91526" lon="8.65454">
        <ele>1346</ele>
        <time>2021-08-07T10:11:02.232Z</time>
      </trkpt>
      <trkpt lat="46.91526" lon="8.65452">
        <ele>1345</ele>
        <time>2021-08-07T10:11:03.231Z</time>
      </trkpt>
      <trkpt lat="46.91526" lon="8.6545">
        <ele>1344</ele>
        <time>2021-08-07T10:11:04.231Z</time>
      </trkpt>
      <trkpt lat="46.91527" lon="8.6545">
        <ele>1344</ele>
        <time>2021-08-07T10:11:05.232Z</time>
      </trkpt>
      <trkpt lat="46.91527" lon="8.6545">
        <ele>1343</ele>
        <time>2021-08-07T10:11:06.232Z</time>
      </trkpt>
      <trkpt lat="46.91528" lon="8.6545">
        <ele>1343</ele>
        <time>2021-08-07T10:11:07.231Z</time>
      </trkpt>
      <trkpt lat="46.91528" lon="8.65449">
        <ele>1342</ele>
        <time>2021-08-07T10:11:08.232Z</time>
      </trkpt>
      <trkpt lat="46.91528" lon="8.65448">
        <ele>1342</ele>
        <time>2021-08-07T10:11:09.232Z</time>
      </trkpt>
      <trkpt lat="46.91528" lon="8.65446">
        <ele>1342</ele>
        <time>2021-08-07T10:11:10.231Z</time>
      </trkpt>
      <trkpt lat="46.91529" lon="8.65444">
        <ele>1342</ele>
        <time>2021-08-07T10:11:11.232Z</time>
      </trkpt>
      <trkpt lat="46.91529" lon="8.65443">
        <ele>1342</ele>
        <time>2021-08-07T10:11:12.231Z</time>
      </trkpt>
      <trkpt lat="46.9153" lon="8.65442">
        <ele>1342</ele>
        <time>2021-08-07T10:11:13.232Z</time>
      </trkpt>
      <trkpt lat="46.91531" lon="8.65441">
        <ele>1342</ele>
        <time>2021-08-07T10:11:14.232Z</time>
      </trkpt>
      <trkpt lat="46.91531" lon="8.65441">
        <ele>1342</ele>
        <time>2021-08-07T10:11:15.231Z</time>
      </trkpt>
      <trkpt lat="46.91532" lon="8.6544">
        <ele>1342</ele>
        <time>2021-08-07T10:11:16.232Z</time>
      </trkpt>
      <trkpt lat="46.91533" lon="8.65439">
        <ele>1342</ele>
        <time>2021-08-07T10:11:17.232Z</time>
      </trkpt>
      <trkpt lat="46.91534" lon="8.65438">
        <ele>1342</ele>
        <time>2021-08-07T10:11:18.232Z</time>
      </trkpt>
      <trkpt lat="46.91535" lon="8.65438">
        <ele>1342</ele>
        <time>2021-08-07T10:11:19.232Z</time>
      </trkpt>
      <trkpt lat="46.91535" lon="8.65437">
        <ele>1342</ele>
        <time>2021-08-07T10:11:20.231Z</time>
      </trkpt>
      <trkpt lat="46.91536" lon="8.65436">
        <ele>1342</ele>
        <time>2021-08-07T10:11:21.232Z</time>
      </trkpt>
      <trkpt lat="46.91536" lon="8.65436">
        <ele>1342</ele>
        <time>2021-08-07T10:11:22.232Z</time>
      </trkpt>
      <trkpt lat="46.91536" lon="8.65436">
        <ele>1342</ele>
        <time>2021-08-07T10:11:23.231Z</time>
      </trkpt>
      <trkpt lat="46.91537" lon="8.65435">
        <ele>1342</ele>
        <time>2021-08-07T10:11:24.232Z</time>
      </trkpt>
      <trkpt lat="46.91539" lon="8.65432">
        <ele>1342</ele>
        <time>2021-08-07T10:11:25.231Z</time>
      </trkpt>
      <trkpt lat="46.9154" lon="8.65431">
        <ele>1341</ele>
        <time>2021-08-07T10:11:26.231Z</time>
      </trkpt>
      <trkpt lat="46.91541" lon="8.65429">
        <ele>1341</ele>
        <time>2021-08-07T10:11:27.231Z</time>
      </trkpt>
      <trkpt lat="46.91541" lon="8.65427">
        <ele>1341</ele>
        <time>2021-08-07T10:11:28.231Z</time>
      </trkpt>
      <trkpt lat="46.91542" lon="8.65426">
        <ele>1341</ele>
        <time>2021-08-07T10:11:29.231Z</time>
      </trkpt>
      <trkpt lat="46.91542" lon="8.65426">
        <ele>1341</ele>
        <time>2021-08-07T10:11:30.231Z</time>
      </trkpt>
      <trkpt lat="46.91543" lon="8.65425">
        <ele>1341</ele>
        <time>2021-08-07T10:11:31.231Z</time>
      </trkpt>
      <trkpt lat="46.91543" lon="8.65424">
        <ele>1341</ele>
        <time>2021-08-07T10:11:32.231Z</time>
      </trkpt>
      <trkpt lat="46.91542" lon="8.65423">
        <ele>1340</ele>
        <time>2021-08-07T10:11:33.231Z</time>
      </trkpt>
      <trkpt lat="46.91542" lon="8.65423">
        <ele>1340</ele>
        <time>2021-08-07T10:11:34.231Z</time>
      </trkpt>
      <trkpt lat="46.91542" lon="8.65422">
        <ele>1340</ele>
        <time>2021-08-07T10:11:35.231Z</time>
      </trkpt>
      <trkpt lat="46.91544" lon="8.65424">
        <ele>1339</ele>
        <time>2021-08-07T10:11:36.233Z</time>
      </trkpt>
      <trkpt lat="46.91545" lon="8.65424">
        <ele>1339</ele>
        <time>2021-08-07T10:11:37.232Z</time>
      </trkpt>
      <trkpt lat="46.91545" lon="8.65423">
        <ele>1338</ele>
        <time>2021-08-07T10:11:38.232Z</time>
      </trkpt>
      <trkpt lat="46.91546" lon="8.65423">
        <ele>1338</ele>
        <time>2021-08-07T10:11:39.232Z</time>
      </trkpt>
      <trkpt lat="46.91548" lon="8.65423">
        <ele>1338</ele>
        <time>2021-08-07T10:11:40.233Z</time>
      </trkpt>
      <trkpt lat="46.91549" lon="8.65422">
        <ele>1338</ele>
        <time>2021-08-07T10:11:41.233Z</time>
      </trkpt>
      <trkpt lat="46.9155" lon="8.65422">
        <ele>1338</ele>
        <time>2021-08-07T10:11:42.232Z</time>
      </trkpt>
      <trkpt lat="46.91551" lon="8.65421">
        <ele>1338</ele>
        <time>2021-08-07T10:11:43.232Z</time>
      </trkpt>
      <trkpt lat="46.91552" lon="8.6542">
        <ele>1338</ele>
        <time>2021-08-07T10:11:44.233Z</time>
      </trkpt>
      <trkpt lat="46.91553" lon="8.65419">
        <ele>1338</ele>
        <time>2021-08-07T10:11:45.233Z</time>
      </trkpt>
      <trkpt lat="46.91554" lon="8.65417">
        <ele>1338</ele>
        <time>2021-08-07T10:11:46.232Z</time>
      </trkpt>
      <trkpt lat="46.91554" lon="8.65416">
        <ele>1338</ele>
        <time>2021-08-07T10:11:47.232Z</time>
      </trkpt>
      <trkpt lat="46.91555" lon="8.65414">
        <ele>1339</ele>
        <time>2021-08-07T10:11:48.232Z</time>
      </trkpt>
      <trkpt lat="46.91557" lon="8.65412">
        <ele>1339</ele>
        <time>2021-08-07T10:11:49.233Z</time>
      </trkpt>
      <trkpt lat="46.91557" lon="8.65411">
        <ele>1340</ele>
        <time>2021-08-07T10:11:50.233Z</time>
      </trkpt>
      <trkpt lat="46.91558" lon="8.6541">
        <ele>1340</ele>
        <time>2021-08-07T10:11:51.232Z</time>
      </trkpt>
      <trkpt lat="46.91558" lon="8.65408">
        <ele>1340</ele>
        <time>2021-08-07T10:11:52.232Z</time>
      </trkpt>
      <trkpt lat="46.91558" lon="8.65406">
        <ele>1340</ele>
        <time>2021-08-07T10:11:53.233Z</time>
      </trkpt>
      <trkpt lat="46.91558" lon="8.65406">
        <ele>1340</ele>
        <time>2021-08-07T10:11:54.233Z</time>
      </trkpt>
      <trkpt lat="46.91558" lon="8.65405">
        <ele>1340</ele>
        <time>2021-08-07T10:11:55.233Z</time>
      </trkpt>
      <trkpt lat="46.91559" lon="8.65403">
        <ele>1340</ele>
        <time>2021-08-07T10:11:56.232Z</time>
      </trkpt>
      <trkpt lat="46.91559" lon="8.65402">
        <ele>1340</ele>
        <time>2021-08-07T10:11:57.233Z</time>
      </trkpt>
      <trkpt lat="46.91559" lon="8.65402">
        <ele>1340</ele>
        <time>2021-08-07T10:11:58.233Z</time>
      </trkpt>
      <trkpt lat="46.9156" lon="8.65402">
        <ele>1340</ele>
        <time>2021-08-07T10:11:59.232Z</time>
      </trkpt>
      <trkpt lat="46.9156" lon="8.65402">
        <ele>1340</ele>
        <time>2021-08-07T10:12:00.233Z</time>
      </trkpt>
      <trkpt lat="46.91561" lon="8.65402">
        <ele>1340</ele>
        <time>2021-08-07T10:12:01.233Z</time>
      </trkpt>
      <trkpt lat="46.91561" lon="8.65401">
        <ele>1340</ele>
        <time>2021-08-07T10:12:02.232Z</time>
      </trkpt>
      <trkpt lat="46.91561" lon="8.654">
        <ele>1340</ele>
        <time>2021-08-07T10:12:03.233Z</time>
      </trkpt>
      <trkpt lat="46.91562" lon="8.65399">
        <ele>1340</ele>
        <time>2021-08-07T10:12:04.233Z</time>
      </trkpt>
      <trkpt lat="46.91562" lon="8.65398">
        <ele>1339</ele>
        <time>2021-08-07T10:12:05.233Z</time>
      </trkpt>
      <trkpt lat="46.91563" lon="8.65397">
        <ele>1338</ele>
        <time>2021-08-07T10:12:06.232Z</time>
      </trkpt>
      <trkpt lat="46.91564" lon="8.65395">
        <ele>1338</ele>
        <time>2021-08-07T10:12:07.233Z</time>
      </trkpt>
      <trkpt lat="46.91564" lon="8.65394">
        <ele>1337</ele>
        <time>2021-08-07T10:12:08.233Z</time>
      </trkpt>
      <trkpt lat="46.91565" lon="8.65394">
        <ele>1336</ele>
        <time>2021-08-07T10:12:09.232Z</time>
      </trkpt>
      <trkpt lat="46.91565" lon="8.65394">
        <ele>1336</ele>
        <time>2021-08-07T10:12:10.233Z</time>
      </trkpt>
      <trkpt lat="46.91565" lon="8.65393">
        <ele>1335</ele>
        <time>2021-08-07T10:12:11.232Z</time>
      </trkpt>
      <trkpt lat="46.91565" lon="8.65393">
        <ele>1335</ele>
        <time>2021-08-07T10:12:12.233Z</time>
      </trkpt>
      <trkpt lat="46.91566" lon="8.65392">
        <ele>1334</ele>
        <time>2021-08-07T10:12:13.233Z</time>
      </trkpt>
      <trkpt lat="46.91567" lon="8.65391">
        <ele>1334</ele>
        <time>2021-08-07T10:12:14.233Z</time>
      </trkpt>
      <trkpt lat="46.91567" lon="8.65389">
        <ele>1333</ele>
        <time>2021-08-07T10:12:15.233Z</time>
      </trkpt>
      <trkpt lat="46.91567" lon="8.65388">
        <ele>1333</ele>
        <time>2021-08-07T10:12:16.232Z</time>
      </trkpt>
      <trkpt lat="46.91567" lon="8.65387">
        <ele>1332</ele>
        <time>2021-08-07T10:12:17.232Z</time>
      </trkpt>
      <trkpt lat="46.91567" lon="8.65386">
        <ele>1331</ele>
        <time>2021-08-07T10:12:18.232Z</time>
      </trkpt>
      <trkpt lat="46.91568" lon="8.65386">
        <ele>1331</ele>
        <time>2021-08-07T10:12:19.233Z</time>
      </trkpt>
      <trkpt lat="46.91568" lon="8.65385">
        <ele>1331</ele>
        <time>2021-08-07T10:12:20.232Z</time>
      </trkpt>
      <trkpt lat="46.91568" lon="8.65385">
        <ele>1331</ele>
        <time>2021-08-07T10:12:21.233Z</time>
      </trkpt>
      <trkpt lat="46.91568" lon="8.65385">
        <ele>1331</ele>
        <time>2021-08-07T10:12:22.232Z</time>
      </trkpt>
      <trkpt lat="46.91568" lon="8.65384">
        <ele>1331</ele>
        <time>2021-08-07T10:12:23.233Z</time>
      </trkpt>
      <trkpt lat="46.91569" lon="8.65384">
        <ele>1331</ele>
        <time>2021-08-07T10:12:24.232Z</time>
      </trkpt>
      <trkpt lat="46.91569" lon="8.65384">
        <ele>1331</ele>
        <time>2021-08-07T10:12:25.233Z</time>
      </trkpt>
      <trkpt lat="46.9157" lon="8.65384">
        <ele>1331</ele>
        <time>2021-08-07T10:12:26.233Z</time>
      </trkpt>
      <trkpt lat="46.9157" lon="8.65383">
        <ele>1330</ele>
        <time>2021-08-07T10:12:27.233Z</time>
      </trkpt>
      <trkpt lat="46.91571" lon="8.65383">
        <ele>1330</ele>
        <time>2021-08-07T10:12:28.232Z</time>
      </trkpt>
      <trkpt lat="46.91571" lon="8.65383">
        <ele>1330</ele>
        <time>2021-08-07T10:12:29.233Z</time>
      </trkpt>
      <trkpt lat="46.91571" lon="8.65383">
        <ele>1330</ele>
        <time>2021-08-07T10:12:30.232Z</time>
      </trkpt>
      <trkpt lat="46.91571" lon="8.65383">
        <ele>1330</ele>
        <time>2021-08-07T10:12:31.232Z</time>
      </trkpt>
      <trkpt lat="46.91571" lon="8.65383">
        <ele>1330</ele>
        <time>2021-08-07T10:12:32.232Z</time>
      </trkpt>
      <trkpt lat="46.91572" lon="8.65382">
        <ele>1329</ele>
        <time>2021-08-07T10:12:33.233Z</time>
      </trkpt>
      <trkpt lat="46.91572" lon="8.65382">
        <ele>1329</ele>
        <time>2021-08-07T10:12:34.232Z</time>
      </trkpt>
      <trkpt lat="46.91572" lon="8.65383">
        <ele>1330</ele>
        <time>2021-08-07T10:12:35.232Z</time>
      </trkpt>
      <trkpt lat="46.91572" lon="8.65383">
        <ele>1330</ele>
        <time>2021-08-07T10:12:36.232Z</time>
      </trkpt>
      <trkpt lat="46.91572" lon="8.65383">
        <ele>1330</ele>
        <time>2021-08-07T10:12:37.233Z</time>
      </trkpt>
      <trkpt lat="46.91573" lon="8.65384">
        <ele>1330</ele>
        <time>2021-08-07T10:12:38.233Z</time>
      </trkpt>
      <trkpt lat="46.91574" lon="8.65384">
        <ele>1330</ele>
        <time>2021-08-07T10:12:39.232Z</time>
      </trkpt>
      <trkpt lat="46.91574" lon="8.65384">
        <ele>1330</ele>
        <time>2021-08-07T10:12:40.233Z</time>
      </trkpt>
      <trkpt lat="46.91574" lon="8.65384">
        <ele>1330</ele>
        <time>2021-08-07T10:12:41.232Z</time>
      </trkpt>
      <trkpt lat="46.91573" lon="8.65383">
        <ele>1330</ele>
        <time>2021-08-07T10:12:42.233Z</time>
      </trkpt>
      <trkpt lat="46.91574" lon="8.65383">
        <ele>1329</ele>
        <time>2021-08-07T10:12:43.233Z</time>
      </trkpt>
      <trkpt lat="46.91574" lon="8.65384">
        <ele>1330</ele>
        <time>2021-08-07T10:12:45.365Z</time>
      </trkpt>
      <trkpt lat="46.91575" lon="8.65384">
        <ele>1330</ele>
        <time>2021-08-07T10:12:46.366Z</time>
      </trkpt>
      <trkpt lat="46.91575" lon="8.65384">
        <ele>1331</ele>
        <time>2021-08-07T10:12:47.365Z</time>
      </trkpt>
      <trkpt lat="46.91575" lon="8.65385">
        <ele>1331</ele>
        <time>2021-08-07T10:12:48.366Z</time>
      </trkpt>
      <trkpt lat="46.91575" lon="8.65385">
        <ele>1332</ele>
        <time>2021-08-07T10:12:49.365Z</time>
      </trkpt>
      <trkpt lat="46.91576" lon="8.65384">
        <ele>1332</ele>
        <time>2021-08-07T10:12:50.366Z</time>
      </trkpt>
      <trkpt lat="46.91577" lon="8.65382">
        <ele>1331</ele>
        <time>2021-08-07T10:12:51.365Z</time>
      </trkpt>
      <trkpt lat="46.91578" lon="8.65382">
        <ele>1331</ele>
        <time>2021-08-07T10:12:52.366Z</time>
      </trkpt>
      <trkpt lat="46.91579" lon="8.65382">
        <ele>1331</ele>
        <time>2021-08-07T10:12:53.365Z</time>
      </trkpt>
      <trkpt lat="46.91579" lon="8.65382">
        <ele>1331</ele>
        <time>2021-08-07T10:12:54.366Z</time>
      </trkpt>
      <trkpt lat="46.9158" lon="8.65381">
        <ele>1331</ele>
        <time>2021-08-07T10:12:55.366Z</time>
      </trkpt>
      <trkpt lat="46.91579" lon="8.65381">
        <ele>1331</ele>
        <time>2021-08-07T10:12:56.365Z</time>
      </trkpt>
      <trkpt lat="46.9158" lon="8.65381">
        <ele>1331</ele>
        <time>2021-08-07T10:12:57.366Z</time>
      </trkpt>
      <trkpt lat="46.9158" lon="8.65381">
        <ele>1331</ele>
        <time>2021-08-07T10:12:58.366Z</time>
      </trkpt>
      <trkpt lat="46.91581" lon="8.65381">
        <ele>1331</ele>
        <time>2021-08-07T10:12:59.365Z</time>
      </trkpt>
      <trkpt lat="46.91581" lon="8.65381">
        <ele>1331</ele>
        <time>2021-08-07T10:13:00.366Z</time>
      </trkpt>
      <trkpt lat="46.91581" lon="8.6538">
        <ele>1330</ele>
        <time>2021-08-07T10:13:01.365Z</time>
      </trkpt>
      <trkpt lat="46.91582" lon="8.65379">
        <ele>1329</ele>
        <time>2021-08-07T10:13:02.366Z</time>
      </trkpt>
      <trkpt lat="46.91583" lon="8.65378">
        <ele>1328</ele>
        <time>2021-08-07T10:13:03.366Z</time>
      </trkpt>
      <trkpt lat="46.91583" lon="8.65377">
        <ele>1327</ele>
        <time>2021-08-07T10:13:04.366Z</time>
      </trkpt>
      <trkpt lat="46.91584" lon="8.65376">
        <ele>1326</ele>
        <time>2021-08-07T10:13:05.366Z</time>
      </trkpt>
      <trkpt lat="46.91585" lon="8.65376">
        <ele>1325</ele>
        <time>2021-08-07T10:13:06.366Z</time>
      </trkpt>
      <trkpt lat="46.91585" lon="8.65376">
        <ele>1325</ele>
        <time>2021-08-07T10:13:07.366Z</time>
      </trkpt>
      <trkpt lat="46.91586" lon="8.65376">
        <ele>1324</ele>
        <time>2021-08-07T10:13:08.366Z</time>
      </trkpt>
      <trkpt lat="46.91585" lon="8.65375">
        <ele>1323</ele>
        <time>2021-08-07T10:13:09.365Z</time>
      </trkpt>
      <trkpt lat="46.91585" lon="8.65374">
        <ele>1323</ele>
        <time>2021-08-07T10:13:10.366Z</time>
      </trkpt>
      <trkpt lat="46.91585" lon="8.65369">
        <ele>1321</ele>
        <time>2021-08-07T10:13:11.366Z</time>
      </trkpt>
      <trkpt lat="46.91585" lon="8.65369">
        <ele>1320</ele>
        <time>2021-08-07T10:13:12.365Z</time>
      </trkpt>
      <trkpt lat="46.91584" lon="8.65362">
        <ele>1304</ele>
        <time>2021-08-07T10:13:13.365Z</time>
      </trkpt>
      <trkpt lat="46.91583" lon="8.65362">
        <ele>1303</ele>
        <time>2021-08-07T10:13:14.365Z</time>
      </trkpt>
      <trkpt lat="46.91581" lon="8.65362">
        <ele>1307</ele>
        <time>2021-08-07T10:13:15.366Z</time>
      </trkpt>
      <trkpt lat="46.9158" lon="8.65361">
        <ele>1307</ele>
        <time>2021-08-07T10:13:16.365Z</time>
      </trkpt>
      <trkpt lat="46.9158" lon="8.65362">
        <ele>1307</ele>
        <time>2021-08-07T10:13:17.365Z</time>
      </trkpt>
      <trkpt lat="46.91581" lon="8.65362">
        <ele>1307</ele>
        <time>2021-08-07T10:13:18.366Z</time>
      </trkpt>
      <trkpt lat="46.91579" lon="8.65354">
        <ele>1326</ele>
        <time>2021-08-07T10:13:19.365Z</time>
      </trkpt>
      <trkpt lat="46.91579" lon="8.65354">
        <ele>1327</ele>
        <time>2021-08-07T10:13:20.365Z</time>
      </trkpt>
      <trkpt lat="46.91579" lon="8.65354">
        <ele>1328</ele>
        <time>2021-08-07T10:13:21.366Z</time>
      </trkpt>
      <trkpt lat="46.91579" lon="8.65351">
        <ele>1321</ele>
        <time>2021-08-07T10:13:22.366Z</time>
      </trkpt>
      <trkpt lat="46.91579" lon="8.65351">
        <ele>1320</ele>
        <time>2021-08-07T10:13:23.366Z</time>
      </trkpt>
      <trkpt lat="46.91581" lon="8.65351">
        <ele>1318</ele>
        <time>2021-08-07T10:13:24.365Z</time>
      </trkpt>
      <trkpt lat="46.91581" lon="8.65351">
        <ele>1318</ele>
        <time>2021-08-07T10:13:25.365Z</time>
      </trkpt>
      <trkpt lat="46.91582" lon="8.65351">
        <ele>1318</ele>
        <time>2021-08-07T10:13:26.365Z</time>
      </trkpt>
      <trkpt lat="46.91583" lon="8.65351">
        <ele>1318</ele>
        <time>2021-08-07T10:13:27.366Z</time>
      </trkpt>
      <trkpt lat="46.91584" lon="8.65351">
        <ele>1317</ele>
        <time>2021-08-07T10:13:28.366Z</time>
      </trkpt>
      <trkpt lat="46.91585" lon="8.65352">
        <ele>1317</ele>
        <time>2021-08-07T10:13:29.366Z</time>
      </trkpt>
      <trkpt lat="46.91586" lon="8.65353">
        <ele>1317</ele>
        <time>2021-08-07T10:13:30.365Z</time>
      </trkpt>
      <trkpt lat="46.91591" lon="8.65359">
        <ele>1318</ele>
        <time>2021-08-07T10:13:31.366Z</time>
      </trkpt>
      <trkpt lat="46.91591" lon="8.6536">
        <ele>1318</ele>
        <time>2021-08-07T10:13:32.366Z</time>
      </trkpt>
      <trkpt lat="46.91592" lon="8.65361">
        <ele>1317</ele>
        <time>2021-08-07T10:13:33.365Z</time>
      </trkpt>
      <trkpt lat="46.91593" lon="8.65362">
        <ele>1317</ele>
        <time>2021-08-07T10:13:34.365Z</time>
      </trkpt>
      <trkpt lat="46.91594" lon="8.65363">
        <ele>1317</ele>
        <time>2021-08-07T10:13:35.366Z</time>
      </trkpt>
      <trkpt lat="46.91595" lon="8.65364">
        <ele>1317</ele>
        <time>2021-08-07T10:13:36.365Z</time>
      </trkpt>
      <trkpt lat="46.91605" lon="8.65369">
        <ele>1316</ele>
        <time>2021-08-07T10:13:37.367Z</time>
      </trkpt>
      <trkpt lat="46.91606" lon="8.65368">
        <ele>1315</ele>
        <time>2021-08-07T10:13:38.367Z</time>
      </trkpt>
      <trkpt lat="46.91606" lon="8.65367">
        <ele>1315</ele>
        <time>2021-08-07T10:13:39.367Z</time>
      </trkpt>
      <trkpt lat="46.91607" lon="8.65367">
        <ele>1314</ele>
        <time>2021-08-07T10:13:40.367Z</time>
      </trkpt>
      <trkpt lat="46.91608" lon="8.65367">
        <ele>1313</ele>
        <time>2021-08-07T10:13:41.367Z</time>
      </trkpt>
      <trkpt lat="46.91608" lon="8.65367">
        <ele>1313</ele>
        <time>2021-08-07T10:13:42.367Z</time>
      </trkpt>
      <trkpt lat="46.91608" lon="8.6537">
        <ele>1311</ele>
        <time>2021-08-07T10:13:43.367Z</time>
      </trkpt>
      <trkpt lat="46.91608" lon="8.65371">
        <ele>1311</ele>
        <time>2021-08-07T10:13:44.368Z</time>
      </trkpt>
      <trkpt lat="46.91609" lon="8.65371">
        <ele>1310</ele>
        <time>2021-08-07T10:13:45.368Z</time>
      </trkpt>
      <trkpt lat="46.91609" lon="8.65371">
        <ele>1310</ele>
        <time>2021-08-07T10:13:46.367Z</time>
      </trkpt>
      <trkpt lat="46.91609" lon="8.65371">
        <ele>1310</ele>
        <time>2021-08-07T10:13:47.367Z</time>
      </trkpt>
      <trkpt lat="46.91609" lon="8.6537">
        <ele>1309</ele>
        <time>2021-08-07T10:13:48.368Z</time>
      </trkpt>
      <trkpt lat="46.91609" lon="8.65369">
        <ele>1309</ele>
        <time>2021-08-07T10:13:49.368Z</time>
      </trkpt>
      <trkpt lat="46.91608" lon="8.65367">
        <ele>1309</ele>
        <time>2021-08-07T10:13:50.368Z</time>
      </trkpt>
      <trkpt lat="46.91608" lon="8.65366">
        <ele>1309</ele>
        <time>2021-08-07T10:13:51.367Z</time>
      </trkpt>
      <trkpt lat="46.91608" lon="8.65365">
        <ele>1309</ele>
        <time>2021-08-07T10:13:52.367Z</time>
      </trkpt>
      <trkpt lat="46.91607" lon="8.65364">
        <ele>1309</ele>
        <time>2021-08-07T10:13:53.367Z</time>
      </trkpt>
      <trkpt lat="46.91607" lon="8.65362">
        <ele>1310</ele>
        <time>2021-08-07T10:13:54.368Z</time>
      </trkpt>
      <trkpt lat="46.91606" lon="8.65362">
        <ele>1310</ele>
        <time>2021-08-07T10:13:55.367Z</time>
      </trkpt>
      <trkpt lat="46.91605" lon="8.65361">
        <ele>1311</ele>
        <time>2021-08-07T10:13:56.367Z</time>
      </trkpt>
      <trkpt lat="46.91604" lon="8.6536">
        <ele>1310</ele>
        <time>2021-08-07T10:13:57.367Z</time>
      </trkpt>
      <trkpt lat="46.91604" lon="8.65358">
        <ele>1310</ele>
        <time>2021-08-07T10:13:58.367Z</time>
      </trkpt>
      <trkpt lat="46.91603" lon="8.65358">
        <ele>1310</ele>
        <time>2021-08-07T10:13:59.368Z</time>
      </trkpt>
      <trkpt lat="46.91603" lon="8.65358">
        <ele>1310</ele>
        <time>2021-08-07T10:14:00.367Z</time>
      </trkpt>
      <trkpt lat="46.91603" lon="8.65359">
        <ele>1310</ele>
        <time>2021-08-07T10:14:01.368Z</time>
      </trkpt>
      <trkpt lat="46.91604" lon="8.65361">
        <ele>1310</ele>
        <time>2021-08-07T10:14:02.369Z</time>
      </trkpt>
      <trkpt lat="46.91603" lon="8.65362">
        <ele>1310</ele>
        <time>2021-08-07T10:14:03.369Z</time>
      </trkpt>
      <trkpt lat="46.91603" lon="8.65362">
        <ele>1310</ele>
        <time>2021-08-07T10:14:04.368Z</time>
      </trkpt>
      <trkpt lat="46.91604" lon="8.65361">
        <ele>1309</ele>
        <time>2021-08-07T10:14:05.369Z</time>
      </trkpt>
      <trkpt lat="46.91604" lon="8.65361">
        <ele>1309</ele>
        <time>2021-08-07T10:14:06.369Z</time>
      </trkpt>
      <trkpt lat="46.91605" lon="8.65362">
        <ele>1309</ele>
        <time>2021-08-07T10:14:07.368Z</time>
      </trkpt>
      <trkpt lat="46.91606" lon="8.65362">
        <ele>1309</ele>
        <time>2021-08-07T10:14:08.368Z</time>
      </trkpt>
      <trkpt lat="46.91606" lon="8.65362">
        <ele>1309</ele>
        <time>2021-08-07T10:14:09.369Z</time>
      </trkpt>
      <trkpt lat="46.91606" lon="8.65362">
        <ele>1309</ele>
        <time>2021-08-07T10:14:10.369Z</time>
      </trkpt>
      <trkpt lat="46.91607" lon="8.65362">
        <ele>1308</ele>
        <time>2021-08-07T10:14:11.369Z</time>
      </trkpt>
      <trkpt lat="46.91607" lon="8.65362">
        <ele>1308</ele>
        <time>2021-08-07T10:14:12.369Z</time>
      </trkpt>
      <trkpt lat="46.91607" lon="8.65362">
        <ele>1308</ele>
        <time>2021-08-07T10:14:13.369Z</time>
      </trkpt>
      <trkpt lat="46.91608" lon="8.65363">
        <ele>1309</ele>
        <time>2021-08-07T10:14:14.369Z</time>
      </trkpt>
      <trkpt lat="46.91609" lon="8.65364">
        <ele>1309</ele>
        <time>2021-08-07T10:14:15.369Z</time>
      </trkpt>
      <trkpt lat="46.9161" lon="8.65363">
        <ele>1309</ele>
        <time>2021-08-07T10:14:16.369Z</time>
      </trkpt>
      <trkpt lat="46.9161" lon="8.65364">
        <ele>1309</ele>
        <time>2021-08-07T10:14:17.369Z</time>
      </trkpt>
      <trkpt lat="46.9161" lon="8.65364">
        <ele>1309</ele>
        <time>2021-08-07T10:14:18.369Z</time>
      </trkpt>
      <trkpt lat="46.9161" lon="8.65365">
        <ele>1309</ele>
        <time>2021-08-07T10:14:19.369Z</time>
      </trkpt>
      <trkpt lat="46.9161" lon="8.65365">
        <ele>1309</ele>
        <time>2021-08-07T10:14:20.369Z</time>
      </trkpt>
      <trkpt lat="46.9161" lon="8.65365">
        <ele>1308</ele>
        <time>2021-08-07T10:14:21.369Z</time>
      </trkpt>
      <trkpt lat="46.9161" lon="8.65366">
        <ele>1307</ele>
        <time>2021-08-07T10:14:22.370Z</time>
      </trkpt>
      <trkpt lat="46.9161" lon="8.65366">
        <ele>1307</ele>
        <time>2021-08-07T10:14:23.369Z</time>
      </trkpt>
      <trkpt lat="46.9161" lon="8.65367">
        <ele>1306</ele>
        <time>2021-08-07T10:14:24.369Z</time>
      </trkpt>
      <trkpt lat="46.9161" lon="8.65368">
        <ele>1306</ele>
        <time>2021-08-07T10:14:25.369Z</time>
      </trkpt>
      <trkpt lat="46.91611" lon="8.65368">
        <ele>1305</ele>
        <time>2021-08-07T10:14:26.369Z</time>
      </trkpt>
      <trkpt lat="46.91612" lon="8.65369">
        <ele>1305</ele>
        <time>2021-08-07T10:14:27.369Z</time>
      </trkpt>
      <trkpt lat="46.91613" lon="8.65371">
        <ele>1304</ele>
        <time>2021-08-07T10:14:28.370Z</time>
      </trkpt>
      <trkpt lat="46.91614" lon="8.65371">
        <ele>1304</ele>
        <time>2021-08-07T10:14:29.369Z</time>
      </trkpt>
      <trkpt lat="46.91614" lon="8.65372">
        <ele>1303</ele>
        <time>2021-08-07T10:14:30.369Z</time>
      </trkpt>
      <trkpt lat="46.91615" lon="8.65373">
        <ele>1303</ele>
        <time>2021-08-07T10:14:31.370Z</time>
      </trkpt>
      <trkpt lat="46.91617" lon="8.65373">
        <ele>1303</ele>
        <time>2021-08-07T10:14:34.459Z</time>
      </trkpt>
      <trkpt lat="46.91618" lon="8.65374">
        <ele>1302</ele>
        <time>2021-08-07T10:14:35.460Z</time>
      </trkpt>
      <trkpt lat="46.9162" lon="8.65374">
        <ele>1302</ele>
        <time>2021-08-07T10:14:36.459Z</time>
      </trkpt>
      <trkpt lat="46.9162" lon="8.65374">
        <ele>1302</ele>
        <time>2021-08-07T10:14:37.460Z</time>
      </trkpt>
      <trkpt lat="46.9162" lon="8.65374">
        <ele>1302</ele>
        <time>2021-08-07T10:14:38.460Z</time>
      </trkpt>
      <trkpt lat="46.91619" lon="8.65373">
        <ele>1301</ele>
        <time>2021-08-07T10:14:43.580Z</time>
      </trkpt>
      <trkpt lat="46.91617" lon="8.65374">
        <ele>1301</ele>
        <time>2021-08-07T10:14:44.581Z</time>
      </trkpt>
      <trkpt lat="46.91617" lon="8.65374">
        <ele>1301</ele>
        <time>2021-08-07T10:14:45.580Z</time>
      </trkpt>
      <trkpt lat="46.91617" lon="8.65374">
        <ele>1301</ele>
        <time>2021-08-07T10:14:46.580Z</time>
      </trkpt>
      <trkpt lat="46.91618" lon="8.65373">
        <ele>1301</ele>
        <time>2021-08-07T10:14:47.581Z</time>
      </trkpt>
      <trkpt lat="46.91619" lon="8.65373">
        <ele>1301</ele>
        <time>2021-08-07T10:14:48.580Z</time>
      </trkpt>
      <trkpt lat="46.91619" lon="8.65373">
        <ele>1300</ele>
        <time>2021-08-07T10:14:49.580Z</time>
      </trkpt>
      <trkpt lat="46.91618" lon="8.65374">
        <ele>1300</ele>
        <time>2021-08-07T10:14:50.580Z</time>
      </trkpt>
      <trkpt lat="46.91617" lon="8.65374">
        <ele>1300</ele>
        <time>2021-08-07T10:14:51.581Z</time>
      </trkpt>
      <trkpt lat="46.91617" lon="8.65374">
        <ele>1300</ele>
        <time>2021-08-07T10:14:52.581Z</time>
      </trkpt>
      <trkpt lat="46.91618" lon="8.65373">
        <ele>1300</ele>
        <time>2021-08-07T10:14:53.581Z</time>
      </trkpt>
      <trkpt lat="46.91621" lon="8.65372">
        <ele>1300</ele>
        <time>2021-08-07T10:14:54.580Z</time>
      </trkpt>
      <trkpt lat="46.91621" lon="8.65372">
        <ele>1300</ele>
        <time>2021-08-07T10:14:55.581Z</time>
      </trkpt>
      <trkpt lat="46.9162" lon="8.65374">
        <ele>1300</ele>
        <time>2021-08-07T10:14:56.580Z</time>
      </trkpt>
      <trkpt lat="46.91621" lon="8.65374">
        <ele>1300</ele>
        <time>2021-08-07T10:14:57.580Z</time>
      </trkpt>
      <trkpt lat="46.9162" lon="8.65373">
        <ele>1300</ele>
        <time>2021-08-07T10:14:58.580Z</time>
      </trkpt>
      <trkpt lat="46.91619" lon="8.65372">
        <ele>1300</ele>
        <time>2021-08-07T10:14:59.580Z</time>
      </trkpt>
      <trkpt lat="46.91619" lon="8.65372">
        <ele>1300</ele>
        <time>2021-08-07T10:15:00.581Z</time>
      </trkpt>
      <trkpt lat="46.91618" lon="8.65371">
        <ele>1300</ele>
        <time>2021-08-07T10:15:01.581Z</time>
      </trkpt>
      <trkpt lat="46.91618" lon="8.65371">
        <ele>1300</ele>
        <time>2021-08-07T10:15:02.580Z</time>
      </trkpt>
      <trkpt lat="46.91617" lon="8.65372">
        <ele>1300</ele>
        <time>2021-08-07T10:15:03.580Z</time>
      </trkpt>
      <trkpt lat="46.91616" lon="8.65374">
        <ele>1299</ele>
        <time>2021-08-07T10:15:04.581Z</time>
      </trkpt>
      <trkpt lat="46.91616" lon="8.65375">
        <ele>1299</ele>
        <time>2021-08-07T10:15:05.581Z</time>
      </trkpt>
      <trkpt lat="46.91616" lon="8.65377">
        <ele>1299</ele>
        <time>2021-08-07T10:15:06.581Z</time>
      </trkpt>
      <trkpt lat="46.91616" lon="8.65377">
        <ele>1298</ele>
        <time>2021-08-07T10:15:07.580Z</time>
      </trkpt>
      <trkpt lat="46.91615" lon="8.65378">
        <ele>1298</ele>
        <time>2021-08-07T10:15:08.580Z</time>
      </trkpt>
      <trkpt lat="46.91616" lon="8.65378">
        <ele>1298</ele>
        <time>2021-08-07T10:15:09.581Z</time>
      </trkpt>
      <trkpt lat="46.91616" lon="8.65377">
        <ele>1297</ele>
        <time>2021-08-07T10:15:10.582Z</time>
      </trkpt>
      <trkpt lat="46.91617" lon="8.65377">
        <ele>1297</ele>
        <time>2021-08-07T10:15:11.581Z</time>
      </trkpt>
      <trkpt lat="46.91616" lon="8.65377">
        <ele>1297</ele>
        <time>2021-08-07T10:15:12.582Z</time>
      </trkpt>
      <trkpt lat="46.91614" lon="8.65377">
        <ele>1297</ele>
        <time>2021-08-07T10:15:13.582Z</time>
      </trkpt>
      <trkpt lat="46.91613" lon="8.65377">
        <ele>1297</ele>
        <time>2021-08-07T10:15:14.581Z</time>
      </trkpt>
      <trkpt lat="46.91611" lon="8.65377">
        <ele>1297</ele>
        <time>2021-08-07T10:15:15.581Z</time>
      </trkpt>
      <trkpt lat="46.91611" lon="8.65376">
        <ele>1297</ele>
        <time>2021-08-07T10:15:16.582Z</time>
      </trkpt>
      <trkpt lat="46.9161" lon="8.65377">
        <ele>1297</ele>
        <time>2021-08-07T10:15:17.582Z</time>
      </trkpt>
      <trkpt lat="46.91611" lon="8.65376">
        <ele>1297</ele>
        <time>2021-08-07T10:15:18.582Z</time>
      </trkpt>
      <trkpt lat="46.91612" lon="8.65376">
        <ele>1298</ele>
        <time>2021-08-07T10:15:19.582Z</time>
      </trkpt>
      <trkpt lat="46.91612" lon="8.65376">
        <ele>1298</ele>
        <time>2021-08-07T10:15:20.582Z</time>
      </trkpt>
      <trkpt lat="46.91613" lon="8.65376">
        <ele>1299</ele>
        <time>2021-08-07T10:15:21.581Z</time>
      </trkpt>
      <trkpt lat="46.91613" lon="8.65377">
        <ele>1299</ele>
        <time>2021-08-07T10:15:22.581Z</time>
      </trkpt>
      <trkpt lat="46.91614" lon="8.65377">
        <ele>1299</ele>
        <time>2021-08-07T10:15:23.582Z</time>
      </trkpt>
      <trkpt lat="46.91616" lon="8.65379">
        <ele>1300</ele>
        <time>2021-08-07T10:15:24.582Z</time>
      </trkpt>
      <trkpt lat="46.91618" lon="8.65379">
        <ele>1300</ele>
        <time>2021-08-07T10:15:25.582Z</time>
      </trkpt>
      <trkpt lat="46.91618" lon="8.65379">
        <ele>1301</ele>
        <time>2021-08-07T10:15:26.581Z</time>
      </trkpt>
      <trkpt lat="46.91618" lon="8.65379">
        <ele>1301</ele>
        <time>2021-08-07T10:15:27.581Z</time>
      </trkpt>
      <trkpt lat="46.91618" lon="8.6538">
        <ele>1301</ele>
        <time>2021-08-07T10:15:28.582Z</time>
      </trkpt>
      <trkpt lat="46.91619" lon="8.65382">
        <ele>1301</ele>
        <time>2021-08-07T10:15:29.582Z</time>
      </trkpt>
      <trkpt lat="46.91618" lon="8.65382">
        <ele>1301</ele>
        <time>2021-08-07T10:15:30.582Z</time>
      </trkpt>
      <trkpt lat="46.91617" lon="8.65383">
        <ele>1301</ele>
        <time>2021-08-07T10:15:31.582Z</time>
      </trkpt>
      <trkpt lat="46.91617" lon="8.65386">
        <ele>1301</ele>
        <time>2021-08-07T10:15:32.581Z</time>
      </trkpt>
      <trkpt lat="46.91616" lon="8.65388">
        <ele>1301</ele>
        <time>2021-08-07T10:15:33.582Z</time>
      </trkpt>
      <trkpt lat="46.91614" lon="8.6539">
        <ele>1301</ele>
        <time>2021-08-07T10:15:34.582Z</time>
      </trkpt>
      <trkpt lat="46.91614" lon="8.65392">
        <ele>1301</ele>
        <time>2021-08-07T10:15:35.582Z</time>
      </trkpt>
      <trkpt lat="46.91615" lon="8.65394">
        <ele>1302</ele>
        <time>2021-08-07T10:15:36.582Z</time>
      </trkpt>
      <trkpt lat="46.91614" lon="8.65394">
        <ele>1302</ele>
        <time>2021-08-07T10:15:37.581Z</time>
      </trkpt>
      <trkpt lat="46.91615" lon="8.65395">
        <ele>1302</ele>
        <time>2021-08-07T10:15:38.582Z</time>
      </trkpt>
      <trkpt lat="46.91615" lon="8.65396">
        <ele>1302</ele>
        <time>2021-08-07T10:15:39.581Z</time>
      </trkpt>
      <trkpt lat="46.91617" lon="8.65396">
        <ele>1302</ele>
        <time>2021-08-07T10:15:40.582Z</time>
      </trkpt>
      <trkpt lat="46.91619" lon="8.65396">
        <ele>1302</ele>
        <time>2021-08-07T10:15:41.582Z</time>
      </trkpt>
      <trkpt lat="46.91621" lon="8.65396">
        <ele>1303</ele>
        <time>2021-08-07T10:15:42.581Z</time>
      </trkpt>
      <trkpt lat="46.91622" lon="8.65396">
        <ele>1303</ele>
        <time>2021-08-07T10:15:43.582Z</time>
      </trkpt>
      <trkpt lat="46.91624" lon="8.65395">
        <ele>1303</ele>
        <time>2021-08-07T10:15:44.582Z</time>
      </trkpt>
      <trkpt lat="46.91624" lon="8.65394">
        <ele>1303</ele>
        <time>2021-08-07T10:15:45.582Z</time>
      </trkpt>
      <trkpt lat="46.91626" lon="8.65394">
        <ele>1303</ele>
        <time>2021-08-07T10:15:46.582Z</time>
      </trkpt>
      <trkpt lat="46.91626" lon="8.65397">
        <ele>1303</ele>
        <time>2021-08-07T10:15:47.582Z</time>
      </trkpt>
      <trkpt lat="46.91625" lon="8.654">
        <ele>1303</ele>
        <time>2021-08-07T10:15:48.582Z</time>
      </trkpt>
      <trkpt lat="46.91626" lon="8.65401">
        <ele>1303</ele>
        <time>2021-08-07T10:15:49.582Z</time>
      </trkpt>
      <trkpt lat="46.91626" lon="8.65401">
        <ele>1303</ele>
        <time>2021-08-07T10:15:50.582Z</time>
      </trkpt>
      <trkpt lat="46.91627" lon="8.654">
        <ele>1303</ele>
        <time>2021-08-07T10:15:51.582Z</time>
      </trkpt>
      <trkpt lat="46.91627" lon="8.65399">
        <ele>1303</ele>
        <time>2021-08-07T10:15:52.582Z</time>
      </trkpt>
      <trkpt lat="46.91627" lon="8.65398">
        <ele>1303</ele>
        <time>2021-08-07T10:15:53.582Z</time>
      </trkpt>
      <trkpt lat="46.91628" lon="8.65398">
        <ele>1303</ele>
        <time>2021-08-07T10:15:54.582Z</time>
      </trkpt>
      <trkpt lat="46.91629" lon="8.65397">
        <ele>1303</ele>
        <time>2021-08-07T10:15:55.581Z</time>
      </trkpt>
      <trkpt lat="46.9163" lon="8.65398">
        <ele>1303</ele>
        <time>2021-08-07T10:15:56.581Z</time>
      </trkpt>
      <trkpt lat="46.9163" lon="8.65397">
        <ele>1303</ele>
        <time>2021-08-07T10:15:57.581Z</time>
      </trkpt>
      <trkpt lat="46.91631" lon="8.65396">
        <ele>1303</ele>
        <time>2021-08-07T10:15:58.582Z</time>
      </trkpt>
      <trkpt lat="46.91631" lon="8.65395">
        <ele>1303</ele>
        <time>2021-08-07T10:15:59.582Z</time>
      </trkpt>
      <trkpt lat="46.91633" lon="8.65393">
        <ele>1304</ele>
        <time>2021-08-07T10:16:00.581Z</time>
      </trkpt>
      <trkpt lat="46.91635" lon="8.65392">
        <ele>1304</ele>
        <time>2021-08-07T10:16:03.693Z</time>
      </trkpt>
      <trkpt lat="46.91635" lon="8.65393">
        <ele>1304</ele>
        <time>2021-08-07T10:16:04.693Z</time>
      </trkpt>
      <trkpt lat="46.91636" lon="8.65395">
        <ele>1304</ele>
        <time>2021-08-07T10:16:05.692Z</time>
      </trkpt>
      <trkpt lat="46.91637" lon="8.65398">
        <ele>1304</ele>
        <time>2021-08-07T10:16:06.693Z</time>
      </trkpt>
      <trkpt lat="46.91637" lon="8.65399">
        <ele>1304</ele>
        <time>2021-08-07T10:16:07.692Z</time>
      </trkpt>
      <trkpt lat="46.91637" lon="8.65401">
        <ele>1304</ele>
        <time>2021-08-07T10:16:08.692Z</time>
      </trkpt>
      <trkpt lat="46.91637" lon="8.65402">
        <ele>1304</ele>
        <time>2021-08-07T10:16:09.693Z</time>
      </trkpt>
      <trkpt lat="46.91637" lon="8.65402">
        <ele>1305</ele>
        <time>2021-08-07T10:16:10.692Z</time>
      </trkpt>
      <trkpt lat="46.91636" lon="8.65403">
        <ele>1306</ele>
        <time>2021-08-07T10:16:11.693Z</time>
      </trkpt>
      <trkpt lat="46.91636" lon="8.65403">
        <ele>1306</ele>
        <time>2021-08-07T10:16:12.693Z</time>
      </trkpt>
      <trkpt lat="46.91636" lon="8.65403">
        <ele>1306</ele>
        <time>2021-08-07T10:16:13.693Z</time>
      </trkpt>
      <trkpt lat="46.91636" lon="8.65404">
        <ele>1306</ele>
        <time>2021-08-07T10:16:14.696Z</time>
      </trkpt>
      <trkpt lat="46.91636" lon="8.65405">
        <ele>1306</ele>
        <time>2021-08-07T10:16:15.696Z</time>
      </trkpt>
      <trkpt lat="46.91636" lon="8.65406">
        <ele>1305</ele>
        <time>2021-08-07T10:16:16.695Z</time>
      </trkpt>
      <trkpt lat="46.91636" lon="8.65407">
        <ele>1305</ele>
        <time>2021-08-07T10:16:17.696Z</time>
      </trkpt>
      <trkpt lat="46.91637" lon="8.65408">
        <ele>1305</ele>
        <time>2021-08-07T10:16:18.695Z</time>
      </trkpt>
      <trkpt lat="46.91636" lon="8.65409">
        <ele>1305</ele>
        <time>2021-08-07T10:16:19.695Z</time>
      </trkpt>
      <trkpt lat="46.91636" lon="8.65409">
        <ele>1305</ele>
        <time>2021-08-07T10:16:20.696Z</time>
      </trkpt>
      <trkpt lat="46.91635" lon="8.6541">
        <ele>1304</ele>
        <time>2021-08-07T10:16:21.696Z</time>
      </trkpt>
      <trkpt lat="46.91634" lon="8.6541">
        <ele>1304</ele>
        <time>2021-08-07T10:16:22.695Z</time>
      </trkpt>
      <trkpt lat="46.91634" lon="8.65411">
        <ele>1304</ele>
        <time>2021-08-07T10:16:23.696Z</time>
      </trkpt>
      <trkpt lat="46.91634" lon="8.65412">
        <ele>1304</ele>
        <time>2021-08-07T10:16:24.696Z</time>
      </trkpt>
      <trkpt lat="46.91635" lon="8.65413">
        <ele>1303</ele>
        <time>2021-08-07T10:16:25.696Z</time>
      </trkpt>
      <trkpt lat="46.91636" lon="8.65414">
        <ele>1303</ele>
        <time>2021-08-07T10:16:26.695Z</time>
      </trkpt>
      <trkpt lat="46.91638" lon="8.65415">
        <ele>1303</ele>
        <time>2021-08-07T10:16:27.695Z</time>
      </trkpt>
      <trkpt lat="46.91639" lon="8.65415">
        <ele>1303</ele>
        <time>2021-08-07T10:16:28.695Z</time>
      </trkpt>
      <trkpt lat="46.9164" lon="8.65415">
        <ele>1303</ele>
        <time>2021-08-07T10:16:29.695Z</time>
      </trkpt>
      <trkpt lat="46.91641" lon="8.65415">
        <ele>1303</ele>
        <time>2021-08-07T10:16:30.696Z</time>
      </trkpt>
      <trkpt lat="46.9164" lon="8.65415">
        <ele>1303</ele>
        <time>2021-08-07T10:16:31.696Z</time>
      </trkpt>
      <trkpt lat="46.9164" lon="8.65416">
        <ele>1303</ele>
        <time>2021-08-07T10:16:32.696Z</time>
      </trkpt>
      <trkpt lat="46.9164" lon="8.65416">
        <ele>1303</ele>
        <time>2021-08-07T10:16:33.695Z</time>
      </trkpt>
      <trkpt lat="46.91639" lon="8.65416">
        <ele>1303</ele>
        <time>2021-08-07T10:16:34.696Z</time>
      </trkpt>
      <trkpt lat="46.91639" lon="8.65416">
        <ele>1304</ele>
        <time>2021-08-07T10:16:35.696Z</time>
      </trkpt>
      <trkpt lat="46.91639" lon="8.65416">
        <ele>1304</ele>
        <time>2021-08-07T10:16:36.696Z</time>
      </trkpt>
      <trkpt lat="46.9164" lon="8.65415">
        <ele>1304</ele>
        <time>2021-08-07T10:16:37.695Z</time>
      </trkpt>
      <trkpt lat="46.91641" lon="8.65415">
        <ele>1304</ele>
        <time>2021-08-07T10:16:38.696Z</time>
      </trkpt>
      <trkpt lat="46.91641" lon="8.65416">
        <ele>1304</ele>
        <time>2021-08-07T10:16:39.696Z</time>
      </trkpt>
      <trkpt lat="46.91641" lon="8.65416">
        <ele>1304</ele>
        <time>2021-08-07T10:16:40.695Z</time>
      </trkpt>
      <trkpt lat="46.91642" lon="8.65416">
        <ele>1304</ele>
        <time>2021-08-07T10:16:41.696Z</time>
      </trkpt>
      <trkpt lat="46.91642" lon="8.65416">
        <ele>1304</ele>
        <time>2021-08-07T10:16:42.695Z</time>
      </trkpt>
      <trkpt lat="46.91641" lon="8.65416">
        <ele>1305</ele>
        <time>2021-08-07T10:16:43.696Z</time>
      </trkpt>
      <trkpt lat="46.91643" lon="8.65416">
        <ele>1305</ele>
        <time>2021-08-07T10:16:44.695Z</time>
      </trkpt>
      <trkpt lat="46.91645" lon="8.65415">
        <ele>1305</ele>
        <time>2021-08-07T10:16:45.696Z</time>
      </trkpt>
      <trkpt lat="46.91648" lon="8.65416">
        <ele>1305</ele>
        <time>2021-08-07T10:16:46.696Z</time>
      </trkpt>
      <trkpt lat="46.9165" lon="8.65416">
        <ele>1306</ele>
        <time>2021-08-07T10:16:47.695Z</time>
      </trkpt>
      <trkpt lat="46.91651" lon="8.65416">
        <ele>1306</ele>
        <time>2021-08-07T10:16:48.696Z</time>
      </trkpt>
      <trkpt lat="46.91651" lon="8.65416">
        <ele>1307</ele>
        <time>2021-08-07T10:16:49.696Z</time>
      </trkpt>
      <trkpt lat="46.91651" lon="8.65416">
        <ele>1307</ele>
        <time>2021-08-07T10:16:50.695Z</time>
      </trkpt>
      <trkpt lat="46.9165" lon="8.65416">
        <ele>1307</ele>
        <time>2021-08-07T10:16:51.696Z</time>
      </trkpt>
      <trkpt lat="46.91651" lon="8.65417">
        <ele>1308</ele>
        <time>2021-08-07T10:16:55.722Z</time>
      </trkpt>
      <trkpt lat="46.91651" lon="8.65416">
        <ele>1308</ele>
        <time>2021-08-07T10:16:56.722Z</time>
      </trkpt>
      <trkpt lat="46.91651" lon="8.65416">
        <ele>1308</ele>
        <time>2021-08-07T10:16:57.722Z</time>
      </trkpt>
      <trkpt lat="46.91651" lon="8.65415">
        <ele>1308</ele>
        <time>2021-08-07T10:16:58.721Z</time>
      </trkpt>
      <trkpt lat="46.91651" lon="8.65415">
        <ele>1308</ele>
        <time>2021-08-07T10:17:11.846Z</time>
      </trkpt>
      <trkpt lat="46.91651" lon="8.65415">
        <ele>1308</ele>
        <time>2021-08-07T10:17:21.723Z</time>
      </trkpt>
      <trkpt lat="46.91651" lon="8.65415">
        <ele>1308</ele>
        <time>2021-08-07T10:17:22.723Z</time>
      </trkpt>
      <trkpt lat="46.91651" lon="8.65416">
        <ele>1308</ele>
        <time>2021-08-07T10:17:23.723Z</time>
      </trkpt>
      <trkpt lat="46.9165" lon="8.65417">
        <ele>1308</ele>
        <time>2021-08-07T10:17:33.582Z</time>
      </trkpt>
      <trkpt lat="46.9165" lon="8.65417">
        <ele>1308</ele>
        <time>2021-08-07T10:17:41.490Z</time>
      </trkpt>
      <trkpt lat="46.91649" lon="8.65418">
        <ele>1308</ele>
        <time>2021-08-07T10:17:42.491Z</time>
      </trkpt>
      <trkpt lat="46.91649" lon="8.65419">
        <ele>1309</ele>
        <time>2021-08-07T10:17:43.491Z</time>
      </trkpt>
      <trkpt lat="46.91649" lon="8.6542">
        <ele>1309</ele>
        <time>2021-08-07T10:17:44.491Z</time>
      </trkpt>
      <trkpt lat="46.91649" lon="8.6542">
        <ele>1309</ele>
        <time>2021-08-07T10:17:45.490Z</time>
      </trkpt>
      <trkpt lat="46.91649" lon="8.65421">
        <ele>1309</ele>
        <time>2021-08-07T10:17:46.491Z</time>
      </trkpt>
      <trkpt lat="46.9165" lon="8.65422">
        <ele>1309</ele>
        <time>2021-08-07T10:18:09.604Z</time>
      </trkpt>
      <trkpt lat="46.9165" lon="8.65422">
        <ele>1309</ele>
        <time>2021-08-07T10:18:10.604Z</time>
      </trkpt>
      <trkpt lat="46.9165" lon="8.65423">
        <ele>1309</ele>
        <time>2021-08-07T10:18:29.465Z</time>
      </trkpt>
      <trkpt lat="46.91651" lon="8.65424">
        <ele>1310</ele>
        <time>2021-08-07T10:18:30.466Z</time>
      </trkpt>
      <trkpt lat="46.91652" lon="8.65424">
        <ele>1310</ele>
        <time>2021-08-07T10:18:37.365Z</time>
      </trkpt>
      <trkpt lat="46.91654" lon="8.65424">
        <ele>1310</ele>
        <time>2021-08-07T10:18:38.366Z</time>
      </trkpt>
      <trkpt lat="46.91655" lon="8.65423">
        <ele>1310</ele>
        <time>2021-08-07T10:18:39.365Z</time>
      </trkpt>
      <trkpt lat="46.91655" lon="8.65424">
        <ele>1309</ele>
        <time>2021-08-07T10:18:45.492Z</time>
      </trkpt>
      <trkpt lat="46.91658" lon="8.65424">
        <ele>1304</ele>
        <time>2021-08-07T10:18:46.492Z</time>
      </trkpt>
      <trkpt lat="46.91658" lon="8.65424">
        <ele>1303</ele>
        <time>2021-08-07T10:19:08.331Z</time>
      </trkpt>
      <trkpt lat="46.91658" lon="8.65425">
        <ele>1302</ele>
        <time>2021-08-07T10:19:10.212Z</time>
      </trkpt>
      <trkpt lat="46.91658" lon="8.65425">
        <ele>1301</ele>
        <time>2021-08-07T10:19:11.213Z</time>
      </trkpt>
      <trkpt lat="46.91656" lon="8.65426">
        <ele>1300</ele>
        <time>2021-08-07T10:19:12.212Z</time>
      </trkpt>
      <trkpt lat="46.91655" lon="8.65426">
        <ele>1300</ele>
        <time>2021-08-07T10:19:13.212Z</time>
      </trkpt>
      <trkpt lat="46.91655" lon="8.65426">
        <ele>1299</ele>
        <time>2021-08-07T10:19:28.341Z</time>
      </trkpt>
      <trkpt lat="46.91655" lon="8.65426">
        <ele>1299</ele>
        <time>2021-08-07T10:19:29.341Z</time>
      </trkpt>
      <trkpt lat="46.91655" lon="8.65427">
        <ele>1298</ele>
        <time>2021-08-07T10:19:30.341Z</time>
      </trkpt>
      <trkpt lat="46.91656" lon="8.65428">
        <ele>1298</ele>
        <time>2021-08-07T10:19:31.341Z</time>
      </trkpt>
      <trkpt lat="46.91655" lon="8.65429">
        <ele>1297</ele>
        <time>2021-08-07T10:19:41.328Z</time>
      </trkpt>
      <trkpt lat="46.91655" lon="8.6543">
        <ele>1297</ele>
        <time>2021-08-07T10:19:42.328Z</time>
      </trkpt>
      <trkpt lat="46.91654" lon="8.65432">
        <ele>1297</ele>
        <time>2021-08-07T10:19:43.328Z</time>
      </trkpt>
      <trkpt lat="46.91654" lon="8.65432">
        <ele>1296</ele>
        <time>2021-08-07T10:19:44.328Z</time>
      </trkpt>
      <trkpt lat="46.91654" lon="8.65432">
        <ele>1296</ele>
        <time>2021-08-07T10:19:45.328Z</time>
      </trkpt>
      <trkpt lat="46.91655" lon="8.65431">
        <ele>1296</ele>
        <time>2021-08-07T10:19:46.329Z</time>
      </trkpt>
      <trkpt lat="46.91655" lon="8.6543">
        <ele>1296</ele>
        <time>2021-08-07T10:19:47.328Z</time>
      </trkpt>
      <trkpt lat="46.91656" lon="8.6543">
        <ele>1296</ele>
        <time>2021-08-07T10:19:48.328Z</time>
      </trkpt>
      <trkpt lat="46.91657" lon="8.65431">
        <ele>1296</ele>
        <time>2021-08-07T10:20:07.460Z</time>
      </trkpt>
      <trkpt lat="46.91657" lon="8.65432">
        <ele>1296</ele>
        <time>2021-08-07T10:20:08.460Z</time>
      </trkpt>
      <trkpt lat="46.91658" lon="8.65432">
        <ele>1296</ele>
        <time>2021-08-07T10:20:10.323Z</time>
      </trkpt>
      <trkpt lat="46.91658" lon="8.65433">
        <ele>1296</ele>
        <time>2021-08-07T10:20:11.323Z</time>
      </trkpt>
      <trkpt lat="46.91658" lon="8.65433">
        <ele>1296</ele>
        <time>2021-08-07T10:20:12.324Z</time>
      </trkpt>
      <trkpt lat="46.91658" lon="8.65433">
        <ele>1296</ele>
        <time>2021-08-07T10:20:13.324Z</time>
      </trkpt>
      <trkpt lat="46.91659" lon="8.65433">
        <ele>1296</ele>
        <time>2021-08-07T10:20:21.457Z</time>
      </trkpt>
      <trkpt lat="46.91658" lon="8.65434">
        <ele>1295</ele>
        <time>2021-08-07T10:20:22.457Z</time>
      </trkpt>
      <trkpt lat="46.91658" lon="8.65436">
        <ele>1295</ele>
        <time>2021-08-07T10:20:23.457Z</time>
      </trkpt>
      <trkpt lat="46.91658" lon="8.65437">
        <ele>1295</ele>
        <time>2021-08-07T10:20:24.457Z</time>
      </trkpt>
      <trkpt lat="46.91658" lon="8.65437">
        <ele>1295</ele>
        <time>2021-08-07T10:20:25.457Z</time>
      </trkpt>
      <trkpt lat="46.91658" lon="8.65438">
        <ele>1294</ele>
        <time>2021-08-07T10:20:26.457Z</time>
      </trkpt>
      <trkpt lat="46.91658" lon="8.65439">
        <ele>1294</ele>
        <time>2021-08-07T10:20:27.457Z</time>
      </trkpt>
      <trkpt lat="46.91658" lon="8.65439">
        <ele>1294</ele>
        <time>2021-08-07T10:20:53.590Z</time>
      </trkpt>
      <trkpt lat="46.91658" lon="8.6544">
        <ele>1293</ele>
        <time>2021-08-07T10:20:54.590Z</time>
      </trkpt>
      <trkpt lat="46.91657" lon="8.6544">
        <ele>1293</ele>
        <time>2021-08-07T10:21:00.486Z</time>
      </trkpt>
      <trkpt lat="46.91657" lon="8.6544">
        <ele>1292</ele>
        <time>2021-08-07T10:21:01.486Z</time>
      </trkpt>
      <trkpt lat="46.91657" lon="8.65441">
        <ele>1292</ele>
        <time>2021-08-07T10:21:02.486Z</time>
      </trkpt>
      <trkpt lat="46.91658" lon="8.65442">
        <ele>1291</ele>
        <time>2021-08-07T10:21:03.486Z</time>
      </trkpt>
      <trkpt lat="46.91658" lon="8.65443">
        <ele>1291</ele>
        <time>2021-08-07T10:21:04.486Z</time>
      </trkpt>
      <trkpt lat="46.91659" lon="8.65444">
        <ele>1290</ele>
        <time>2021-08-07T10:21:05.486Z</time>
      </trkpt>
      <trkpt lat="46.9166" lon="8.65444">
        <ele>1290</ele>
        <time>2021-08-07T10:21:06.486Z</time>
      </trkpt>
      <trkpt lat="46.91662" lon="8.65444">
        <ele>1289</ele>
        <time>2021-08-07T10:21:24.611Z</time>
      </trkpt>
      <trkpt lat="46.91664" lon="8.65445">
        <ele>1289</ele>
        <time>2021-08-07T10:21:42.465Z</time>
      </trkpt>
      <trkpt lat="46.91666" lon="8.65445">
        <ele>1288</ele>
        <time>2021-08-07T10:21:43.465Z</time>
      </trkpt>
      <trkpt lat="46.91667" lon="8.65445">
        <ele>1288</ele>
        <time>2021-08-07T10:22:05.323Z</time>
      </trkpt>
      <trkpt lat="46.91667" lon="8.65446">
        <ele>1287</ele>
        <time>2021-08-07T10:22:06.323Z</time>
      </trkpt>
      <trkpt lat="46.91667" lon="8.65446">
        <ele>1287</ele>
        <time>2021-08-07T10:22:07.323Z</time>
      </trkpt>
      <trkpt lat="46.91668" lon="8.65446">
        <ele>1286</ele>
        <time>2021-08-07T10:22:08.323Z</time>
      </trkpt>
      <trkpt lat="46.91668" lon="8.65447">
        <ele>1286</ele>
        <time>2021-08-07T10:22:09.323Z</time>
      </trkpt>
      <trkpt lat="46.91669" lon="8.65446">
        <ele>1286</ele>
        <time>2021-08-07T10:22:10.323Z</time>
      </trkpt>
      <trkpt lat="46.91669" lon="8.65446">
        <ele>1286</ele>
        <time>2021-08-07T10:22:11.323Z</time>
      </trkpt>
      <trkpt lat="46.91671" lon="8.65445">
        <ele>1286</ele>
        <time>2021-08-07T10:22:31.363Z</time>
      </trkpt>
      <trkpt lat="46.91671" lon="8.65445">
        <ele>1286</ele>
        <time>2021-08-07T10:22:32.363Z</time>
      </trkpt>
      <trkpt lat="46.91671" lon="8.65446">
        <ele>1286</ele>
        <time>2021-08-07T10:22:41.198Z</time>
      </trkpt>
      <trkpt lat="46.91672" lon="8.65446">
        <ele>1286</ele>
        <time>2021-08-07T10:22:48.008Z</time>
      </trkpt>
      <trkpt lat="46.91672" lon="8.65446">
        <ele>1286</ele>
        <time>2021-08-07T10:23:01.838Z</time>
      </trkpt>
      <trkpt lat="46.91673" lon="8.65446">
        <ele>1286</ele>
        <time>2021-08-07T10:23:02.838Z</time>
      </trkpt>
      <trkpt lat="46.91673" lon="8.65445">
        <ele>1285</ele>
        <time>2021-08-07T10:23:03.838Z</time>
      </trkpt>
      <trkpt lat="46.91672" lon="8.65445">
        <ele>1285</ele>
        <time>2021-08-07T10:23:28.734Z</time>
      </trkpt>
      <trkpt lat="46.91673" lon="8.65444">
        <ele>1285</ele>
        <time>2021-08-07T10:23:37.593Z</time>
      </trkpt>
      <trkpt lat="46.91673" lon="8.65444">
        <ele>1285</ele>
        <time>2021-08-07T10:23:38.593Z</time>
      </trkpt>
      <trkpt lat="46.91672" lon="8.65445">
        <ele>1284</ele>
        <time>2021-08-07T10:23:51.323Z</time>
      </trkpt>
      <trkpt lat="46.91672" lon="8.65445">
        <ele>1284</ele>
        <time>2021-08-07T10:23:52.322Z</time>
      </trkpt>
      <trkpt lat="46.91672" lon="8.65445">
        <ele>1284</ele>
        <time>2021-08-07T10:23:53.322Z</time>
      </trkpt>
      <trkpt lat="46.91673" lon="8.65444">
        <ele>1283</ele>
        <time>2021-08-07T10:23:54.323Z</time>
      </trkpt>
      <trkpt lat="46.91674" lon="8.65443">
        <ele>1283</ele>
        <time>2021-08-07T10:23:55.322Z</time>
      </trkpt>
      <trkpt lat="46.91674" lon="8.65443">
        <ele>1282</ele>
        <time>2021-08-07T10:23:56.323Z</time>
      </trkpt>
      <trkpt lat="46.91674" lon="8.65443">
        <ele>1282</ele>
        <time>2021-08-07T10:24:20.446Z</time>
      </trkpt>
      <trkpt lat="46.91673" lon="8.65442">
        <ele>1281</ele>
        <time>2021-08-07T10:24:21.446Z</time>
      </trkpt>
      <trkpt lat="46.91673" lon="8.65442">
        <ele>1280</ele>
        <time>2021-08-07T10:24:22.445Z</time>
      </trkpt>
      <trkpt lat="46.91674" lon="8.65442">
        <ele>1280</ele>
        <time>2021-08-07T10:24:37.598Z</time>
      </trkpt>
      <trkpt lat="46.91674" lon="8.65441">
        <ele>1279</ele>
        <time>2021-08-07T10:24:38.598Z</time>
      </trkpt>
      <trkpt lat="46.91675" lon="8.65441">
        <ele>1279</ele>
        <time>2021-08-07T10:24:39.598Z</time>
      </trkpt>
      <trkpt lat="46.91675" lon="8.6544">
        <ele>1278</ele>
        <time>2021-08-07T10:24:40.597Z</time>
      </trkpt>
      <trkpt lat="46.91674" lon="8.6544">
        <ele>1278</ele>
        <time>2021-08-07T10:24:41.598Z</time>
      </trkpt>
      <trkpt lat="46.91674" lon="8.65439">
        <ele>1277</ele>
        <time>2021-08-07T10:24:42.598Z</time>
      </trkpt>
      <trkpt lat="46.91673" lon="8.65439">
        <ele>1277</ele>
        <time>2021-08-07T10:24:43.597Z</time>
      </trkpt>
      <trkpt lat="46.91673" lon="8.65438">
        <ele>1277</ele>
        <time>2021-08-07T10:24:44.597Z</time>
      </trkpt>
      <trkpt lat="46.91673" lon="8.65438">
        <ele>1277</ele>
        <time>2021-08-07T10:24:45.597Z</time>
      </trkpt>
      <trkpt lat="46.91673" lon="8.65438">
        <ele>1277</ele>
        <time>2021-08-07T10:24:49.711Z</time>
      </trkpt>
      <trkpt lat="46.91674" lon="8.65438">
        <ele>1276</ele>
        <time>2021-08-07T10:24:50.712Z</time>
      </trkpt>
      <trkpt lat="46.91674" lon="8.65438">
        <ele>1276</ele>
        <time>2021-08-07T10:24:51.712Z</time>
      </trkpt>
      <trkpt lat="46.91674" lon="8.65438">
        <ele>1276</ele>
        <time>2021-08-07T10:24:52.712Z</time>
      </trkpt>
      <trkpt lat="46.91677" lon="8.65438">
        <ele>1276</ele>
        <time>2021-08-07T10:24:53.712Z</time>
      </trkpt>
      <trkpt lat="46.91678" lon="8.65438">
        <ele>1276</ele>
        <time>2021-08-07T10:24:54.712Z</time>
      </trkpt>
      <trkpt lat="46.91679" lon="8.65437">
        <ele>1276</ele>
        <time>2021-08-07T10:24:55.711Z</time>
      </trkpt>
      <trkpt lat="46.91681" lon="8.65436">
        <ele>1276</ele>
        <time>2021-08-07T10:24:56.712Z</time>
      </trkpt>
      <trkpt lat="46.91682" lon="8.65436">
        <ele>1276</ele>
        <time>2021-08-07T10:24:57.712Z</time>
      </trkpt>
      <trkpt lat="46.9168" lon="8.65435">
        <ele>1276</ele>
        <time>2021-08-07T10:24:58.711Z</time>
      </trkpt>
      <trkpt lat="46.91681" lon="8.65434">
        <ele>1276</ele>
        <time>2021-08-07T10:24:59.712Z</time>
      </trkpt>
      <trkpt lat="46.91681" lon="8.65434">
        <ele>1276</ele>
        <time>2021-08-07T10:25:00.711Z</time>
      </trkpt>
      <trkpt lat="46.9168" lon="8.65434">
        <ele>1277</ele>
        <time>2021-08-07T10:25:01.712Z</time>
      </trkpt>
      <trkpt lat="46.9168" lon="8.65434">
        <ele>1277</ele>
        <time>2021-08-07T10:25:02.711Z</time>
      </trkpt>
      <trkpt lat="46.91679" lon="8.65434">
        <ele>1277</ele>
        <time>2021-08-07T10:25:05.805Z</time>
      </trkpt>
      <trkpt lat="46.91679" lon="8.65435">
        <ele>1278</ele>
        <time>2021-08-07T10:25:06.804Z</time>
      </trkpt>
      <trkpt lat="46.91679" lon="8.65436">
        <ele>1278</ele>
        <time>2021-08-07T10:25:13.587Z</time>
      </trkpt>
      <trkpt lat="46.9168" lon="8.65437">
        <ele>1278</ele>
        <time>2021-08-07T10:25:14.586Z</time>
      </trkpt>
      <trkpt lat="46.91681" lon="8.65437">
        <ele>1279</ele>
        <time>2021-08-07T10:25:15.587Z</time>
      </trkpt>
      <trkpt lat="46.91683" lon="8.65438">
        <ele>1279</ele>
        <time>2021-08-07T10:25:29.732Z</time>
      </trkpt>
      <trkpt lat="46.91685" lon="8.65438">
        <ele>1279</ele>
        <time>2021-08-07T10:25:30.732Z</time>
      </trkpt>
      <trkpt lat="46.91686" lon="8.65438">
        <ele>1279</ele>
        <time>2021-08-07T10:26:16.588Z</time>
      </trkpt>
      <trkpt lat="46.91687" lon="8.65438">
        <ele>1279</ele>
        <time>2021-08-07T10:26:17.588Z</time>
      </trkpt>
      <trkpt lat="46.9169" lon="8.65437">
        <ele>1278</ele>
        <time>2021-08-07T10:26:18.587Z</time>
      </trkpt>
      <trkpt lat="46.91695" lon="8.65439">
        <ele>1278</ele>
        <time>2021-08-07T10:26:19.588Z</time>
      </trkpt>
      <trkpt lat="46.91698" lon="8.65439">
        <ele>1277</ele>
        <time>2021-08-07T10:26:49.694Z</time>
      </trkpt>
      <trkpt lat="46.917" lon="8.65438">
        <ele>1276</ele>
        <time>2021-08-07T10:26:50.693Z</time>
      </trkpt>
      <trkpt lat="46.91702" lon="8.65436">
        <ele>1276</ele>
        <time>2021-08-07T10:26:51.693Z</time>
      </trkpt>
      <trkpt lat="46.91703" lon="8.65435">
        <ele>1275</ele>
        <time>2021-08-07T10:28:02.826Z</time>
      </trkpt>
      <trkpt lat="46.91702" lon="8.65432">
        <ele>1274</ele>
        <time>2021-08-07T10:28:03.825Z</time>
      </trkpt>
      <trkpt lat="46.91701" lon="8.6543">
        <ele>1273</ele>
        <time>2021-08-07T10:28:05.695Z</time>
      </trkpt>
      <trkpt lat="46.91701" lon="8.65429">
        <ele>1273</ele>
        <time>2021-08-07T10:28:49.444Z</time>
      </trkpt>
      <trkpt lat="46.91701" lon="8.65429">
        <ele>1272</ele>
        <time>2021-08-07T10:28:50.444Z</time>
      </trkpt>
      <trkpt lat="46.91701" lon="8.6543">
        <ele>1272</ele>
        <time>2021-08-07T10:29:19.237Z</time>
      </trkpt>
      <trkpt lat="46.91701" lon="8.6543">
        <ele>1272</ele>
        <time>2021-08-07T10:29:20.236Z</time>
      </trkpt>
      <trkpt lat="46.91701" lon="8.65431">
        <ele>1271</ele>
        <time>2021-08-07T10:29:21.237Z</time>
      </trkpt>
      <trkpt lat="46.91701" lon="8.65432">
        <ele>1271</ele>
        <time>2021-08-07T10:30:26.336Z</time>
      </trkpt>
      <trkpt lat="46.917" lon="8.65432">
        <ele>1271</ele>
        <time>2021-08-07T10:30:27.336Z</time>
      </trkpt>
      <trkpt lat="46.91699" lon="8.65433">
        <ele>1271</ele>
        <time>2021-08-07T10:31:00.210Z</time>
      </trkpt>
      <trkpt lat="46.91696" lon="8.65433">
        <ele>1271</ele>
        <time>2021-08-07T10:31:01.211Z</time>
      </trkpt>
      <trkpt lat="46.91699" lon="8.65434">
        <ele>1270</ele>
        <time>2021-08-07T10:31:31.121Z</time>
      </trkpt>
      <trkpt lat="46.91695" lon="8.65434">
        <ele>1270</ele>
        <time>2021-08-07T10:31:59.964Z</time>
      </trkpt>
      <trkpt lat="46.91697" lon="8.65435">
        <ele>1270</ele>
        <time>2021-08-07T10:32:00.963Z</time>
      </trkpt>
      <trkpt lat="46.91698" lon="8.65435">
        <ele>1270</ele>
        <time>2021-08-07T10:32:03.833Z</time>
      </trkpt>
      <trkpt lat="46.91702" lon="8.65434">
        <ele>1271</ele>
        <time>2021-08-07T10:32:04.832Z</time>
      </trkpt>
      <trkpt lat="46.91706" lon="8.65433">
        <ele>1271</ele>
        <time>2021-08-07T10:32:05.832Z</time>
      </trkpt>
      <trkpt lat="46.91708" lon="8.65433">
        <ele>1271</ele>
        <time>2021-08-07T10:32:07.556Z</time>
      </trkpt>
      <trkpt lat="46.91709" lon="8.65432">
        <ele>1271</ele>
        <time>2021-08-07T10:32:08.555Z</time>
      </trkpt>
      <trkpt lat="46.91711" lon="8.65431">
        <ele>1271</ele>
        <time>2021-08-07T10:32:09.555Z</time>
      </trkpt>
      <trkpt lat="46.91712" lon="8.65431">
        <ele>1271</ele>
        <time>2021-08-07T10:32:52.609Z</time>
      </trkpt>
      <trkpt lat="46.91712" lon="8.65431">
        <ele>1271</ele>
        <time>2021-08-07T10:32:53.610Z</time>
      </trkpt>
      <trkpt lat="46.91713" lon="8.6543">
        <ele>1272</ele>
        <time>2021-08-07T10:35:01.508Z</time>
      </trkpt>
      <trkpt lat="46.91712" lon="8.6543">
        <ele>1272</ele>
        <time>2021-08-07T10:35:02.508Z</time>
      </trkpt>
      <trkpt lat="46.91714" lon="8.65429">
        <ele>1272</ele>
        <time>2021-08-07T10:35:30.374Z</time>
      </trkpt>
      <trkpt lat="46.91715" lon="8.65429">
        <ele>1272</ele>
        <time>2021-08-07T10:35:31.373Z</time>
      </trkpt>
      <trkpt lat="46.91715" lon="8.65429">
        <ele>1271</ele>
        <time>2021-08-07T10:35:32.373Z</time>
      </trkpt>
      <trkpt lat="46.91715" lon="8.65429">
        <ele>1271</ele>
        <time>2021-08-07T10:35:33.373Z</time>
      </trkpt>
      <trkpt lat="46.91716" lon="8.65429">
        <ele>1271</ele>
        <time>2021-08-07T10:35:34.373Z</time>
      </trkpt>
      <trkpt lat="46.91716" lon="8.65429">
        <ele>1270</ele>
        <time>2021-08-07T10:35:35.373Z</time>
      </trkpt>
      <trkpt lat="46.91716" lon="8.65429">
        <ele>1270</ele>
        <time>2021-08-07T10:35:36.373Z</time>
      </trkpt>
      <trkpt lat="46.91717" lon="8.6543">
        <ele>1270</ele>
        <time>2021-08-07T10:35:37.373Z</time>
      </trkpt>
      <trkpt lat="46.91716" lon="8.6543">
        <ele>1270</ele>
        <time>2021-08-07T10:35:38.373Z</time>
      </trkpt>
      <trkpt lat="46.91717" lon="8.6543">
        <ele>1270</ele>
        <time>2021-08-07T10:35:39.373Z</time>
      </trkpt>
      <trkpt lat="46.91716" lon="8.65429">
        <ele>1270</ele>
        <time>2021-08-07T10:35:40.373Z</time>
      </trkpt>
      <trkpt lat="46.91714" lon="8.65429">
        <ele>1270</ele>
        <time>2021-08-07T10:35:41.373Z</time>
      </trkpt>
      <trkpt lat="46.91713" lon="8.6543">
        <ele>1270</ele>
        <time>2021-08-07T10:35:42.373Z</time>
      </trkpt>
      <trkpt lat="46.91711" lon="8.6543">
        <ele>1270</ele>
        <time>2021-08-07T10:35:43.373Z</time>
      </trkpt>
      <trkpt lat="46.91712" lon="8.65432">
        <ele>1270</ele>
        <time>2021-08-07T10:35:44.373Z</time>
      </trkpt>
      <trkpt lat="46.9171" lon="8.65433">
        <ele>1270</ele>
        <time>2021-08-07T10:35:45.373Z</time>
      </trkpt>
      <trkpt lat="46.91713" lon="8.65432">
        <ele>1270</ele>
        <time>2021-08-07T10:35:46.373Z</time>
      </trkpt>
      <trkpt lat="46.91714" lon="8.6543">
        <ele>1270</ele>
        <time>2021-08-07T10:35:47.373Z</time>
      </trkpt>
      <trkpt lat="46.91714" lon="8.65428">
        <ele>1270</ele>
        <time>2021-08-07T10:35:48.373Z</time>
      </trkpt>
      <trkpt lat="46.91712" lon="8.65426">
        <ele>1270</ele>
        <time>2021-08-07T10:35:49.374Z</time>
      </trkpt>
      <trkpt lat="46.91712" lon="8.65424">
        <ele>1270</ele>
        <time>2021-08-07T10:35:50.373Z</time>
      </trkpt>
      <trkpt lat="46.9171" lon="8.65422">
        <ele>1270</ele>
        <time>2021-08-07T10:35:51.373Z</time>
      </trkpt>
      <trkpt lat="46.91709" lon="8.6542">
        <ele>1269</ele>
        <time>2021-08-07T10:35:52.374Z</time>
      </trkpt>
      <trkpt lat="46.91709" lon="8.65419">
        <ele>1269</ele>
        <time>2021-08-07T10:35:53.373Z</time>
      </trkpt>
      <trkpt lat="46.91709" lon="8.65419">
        <ele>1269</ele>
        <time>2021-08-07T10:35:54.373Z</time>
      </trkpt>
      <trkpt lat="46.91709" lon="8.65419">
        <ele>1268</ele>
        <time>2021-08-07T10:35:55.373Z</time>
      </trkpt>
      <trkpt lat="46.91709" lon="8.65419">
        <ele>1268</ele>
        <time>2021-08-07T10:35:56.373Z</time>
      </trkpt>
      <trkpt lat="46.91709" lon="8.6542">
        <ele>1267</ele>
        <time>2021-08-07T10:35:57.374Z</time>
      </trkpt>
      <trkpt lat="46.91708" lon="8.6542">
        <ele>1267</ele>
        <time>2021-08-07T10:35:58.374Z</time>
      </trkpt>
      <trkpt lat="46.91708" lon="8.6542">
        <ele>1267</ele>
        <time>2021-08-07T10:35:59.374Z</time>
      </trkpt>
      <trkpt lat="46.91708" lon="8.6542">
        <ele>1266</ele>
        <time>2021-08-07T10:36:00.373Z</time>
      </trkpt>
      <trkpt lat="46.91708" lon="8.65419">
        <ele>1266</ele>
        <time>2021-08-07T10:36:01.374Z</time>
      </trkpt>
      <trkpt lat="46.91708" lon="8.65417">
        <ele>1266</ele>
        <time>2021-08-07T10:36:02.373Z</time>
      </trkpt>
      <trkpt lat="46.91708" lon="8.65415">
        <ele>1266</ele>
        <time>2021-08-07T10:36:03.374Z</time>
      </trkpt>
      <trkpt lat="46.91707" lon="8.65414">
        <ele>1266</ele>
        <time>2021-08-07T10:36:04.374Z</time>
      </trkpt>
      <trkpt lat="46.91706" lon="8.65411">
        <ele>1266</ele>
        <time>2021-08-07T10:36:05.374Z</time>
      </trkpt>
      <trkpt lat="46.91705" lon="8.65409">
        <ele>1266</ele>
        <time>2021-08-07T10:36:06.374Z</time>
      </trkpt>
      <trkpt lat="46.91705" lon="8.65409">
        <ele>1266</ele>
        <time>2021-08-07T10:36:07.374Z</time>
      </trkpt>
      <trkpt lat="46.91704" lon="8.65407">
        <ele>1266</ele>
        <time>2021-08-07T10:36:08.374Z</time>
      </trkpt>
      <trkpt lat="46.91703" lon="8.65407">
        <ele>1266</ele>
        <time>2021-08-07T10:36:09.373Z</time>
      </trkpt>
      <trkpt lat="46.91703" lon="8.65407">
        <ele>1266</ele>
        <time>2021-08-07T10:36:10.374Z</time>
      </trkpt>
      <trkpt lat="46.91704" lon="8.65407">
        <ele>1267</ele>
        <time>2021-08-07T10:36:11.373Z</time>
      </trkpt>
      <trkpt lat="46.91704" lon="8.65407">
        <ele>1267</ele>
        <time>2021-08-07T10:36:12.374Z</time>
      </trkpt>
      <trkpt lat="46.91704" lon="8.65406">
        <ele>1267</ele>
        <time>2021-08-07T10:36:13.374Z</time>
      </trkpt>
      <trkpt lat="46.91704" lon="8.65404">
        <ele>1267</ele>
        <time>2021-08-07T10:36:14.374Z</time>
      </trkpt>
      <trkpt lat="46.91704" lon="8.65403">
        <ele>1268</ele>
        <time>2021-08-07T10:36:15.373Z</time>
      </trkpt>
      <trkpt lat="46.91704" lon="8.65402">
        <ele>1268</ele>
        <time>2021-08-07T10:36:16.374Z</time>
      </trkpt>
      <trkpt lat="46.91703" lon="8.654">
        <ele>1268</ele>
        <time>2021-08-07T10:36:17.374Z</time>
      </trkpt>
      <trkpt lat="46.91702" lon="8.65399">
        <ele>1269</ele>
        <time>2021-08-07T10:36:18.374Z</time>
      </trkpt>
      <trkpt lat="46.91702" lon="8.65398">
        <ele>1269</ele>
        <time>2021-08-07T10:36:19.374Z</time>
      </trkpt>
      <trkpt lat="46.91701" lon="8.65398">
        <ele>1269</ele>
        <time>2021-08-07T10:36:20.374Z</time>
      </trkpt>
      <trkpt lat="46.91701" lon="8.65396">
        <ele>1269</ele>
        <time>2021-08-07T10:36:33.470Z</time>
      </trkpt>
      <trkpt lat="46.91702" lon="8.65395">
        <ele>1269</ele>
        <time>2021-08-07T10:36:34.470Z</time>
      </trkpt>
      <trkpt lat="46.91703" lon="8.65394">
        <ele>1269</ele>
        <time>2021-08-07T10:36:35.470Z</time>
      </trkpt>
      <trkpt lat="46.91703" lon="8.65393">
        <ele>1270</ele>
        <time>2021-08-07T10:36:36.471Z</time>
      </trkpt>
      <trkpt lat="46.91704" lon="8.65393">
        <ele>1270</ele>
        <time>2021-08-07T10:36:37.471Z</time>
      </trkpt>
      <trkpt lat="46.91705" lon="8.65393">
        <ele>1270</ele>
        <time>2021-08-07T10:36:38.471Z</time>
      </trkpt>
      <trkpt lat="46.91706" lon="8.65393">
        <ele>1270</ele>
        <time>2021-08-07T10:36:39.470Z</time>
      </trkpt>
      <trkpt lat="46.91707" lon="8.65392">
        <ele>1271</ele>
        <time>2021-08-07T10:36:45.592Z</time>
      </trkpt>
      <trkpt lat="46.91709" lon="8.65392">
        <ele>1271</ele>
        <time>2021-08-07T10:36:46.592Z</time>
      </trkpt>
      <trkpt lat="46.91709" lon="8.65392">
        <ele>1271</ele>
        <time>2021-08-07T10:36:47.592Z</time>
      </trkpt>
      <trkpt lat="46.91708" lon="8.65392">
        <ele>1271</ele>
        <time>2021-08-07T10:37:19.692Z</time>
      </trkpt>
      <trkpt lat="46.91707" lon="8.65392">
        <ele>1271</ele>
        <time>2021-08-07T10:37:20.692Z</time>
      </trkpt>
      <trkpt lat="46.91706" lon="8.65393">
        <ele>1271</ele>
        <time>2021-08-07T10:37:21.691Z</time>
      </trkpt>
      <trkpt lat="46.91705" lon="8.65393">
        <ele>1270</ele>
        <time>2021-08-07T10:37:22.691Z</time>
      </trkpt>
      <trkpt lat="46.91705" lon="8.65392">
        <ele>1270</ele>
        <time>2021-08-07T10:37:23.692Z</time>
      </trkpt>
      <trkpt lat="46.91704" lon="8.65391">
        <ele>1270</ele>
        <time>2021-08-07T10:37:24.691Z</time>
      </trkpt>
      <trkpt lat="46.91704" lon="8.6539">
        <ele>1270</ele>
        <time>2021-08-07T10:37:25.691Z</time>
      </trkpt>
      <trkpt lat="46.91704" lon="8.65388">
        <ele>1269</ele>
        <time>2021-08-07T10:37:26.691Z</time>
      </trkpt>
      <trkpt lat="46.91704" lon="8.65385">
        <ele>1269</ele>
        <time>2021-08-07T10:37:27.692Z</time>
      </trkpt>
      <trkpt lat="46.91703" lon="8.65384">
        <ele>1269</ele>
        <time>2021-08-07T10:37:28.692Z</time>
      </trkpt>
      <trkpt lat="46.91703" lon="8.65382">
        <ele>1268</ele>
        <time>2021-08-07T10:38:45.711Z</time>
      </trkpt>
      <trkpt lat="46.91702" lon="8.65381">
        <ele>1268</ele>
        <time>2021-08-07T10:38:46.710Z</time>
      </trkpt>
      <trkpt lat="46.91702" lon="8.65382">
        <ele>1268</ele>
        <time>2021-08-07T10:38:56.462Z</time>
      </trkpt>
      <trkpt lat="46.91701" lon="8.65383">
        <ele>1268</ele>
        <time>2021-08-07T10:38:57.462Z</time>
      </trkpt>
      <trkpt lat="46.91701" lon="8.65384">
        <ele>1268</ele>
        <time>2021-08-07T10:39:08.206Z</time>
      </trkpt>
      <trkpt lat="46.917" lon="8.65384">
        <ele>1268</ele>
        <time>2021-08-07T10:39:09.205Z</time>
      </trkpt>
      <trkpt lat="46.91699" lon="8.65385">
        <ele>1268</ele>
        <time>2021-08-07T10:39:23.958Z</time>
      </trkpt>
      <trkpt lat="46.91698" lon="8.65385">
        <ele>1268</ele>
        <time>2021-08-07T10:39:24.958Z</time>
      </trkpt>
      <trkpt lat="46.91698" lon="8.65386">
        <ele>1268</ele>
        <time>2021-08-07T10:39:25.957Z</time>
      </trkpt>
      <trkpt lat="46.91698" lon="8.65387">
        <ele>1268</ele>
        <time>2021-08-07T10:39:33.063Z</time>
      </trkpt>
      <trkpt lat="46.91698" lon="8.65389">
        <ele>1267</ele>
        <time>2021-08-07T10:39:34.064Z</time>
      </trkpt>
      <trkpt lat="46.91698" lon="8.6539">
        <ele>1267</ele>
        <time>2021-08-07T10:39:35.063Z</time>
      </trkpt>
      <trkpt lat="46.91698" lon="8.65391">
        <ele>1267</ele>
        <time>2021-08-07T10:39:36.064Z</time>
      </trkpt>
      <trkpt lat="46.91698" lon="8.65392">
        <ele>1267</ele>
        <time>2021-08-07T10:39:37.064Z</time>
      </trkpt>
      <trkpt lat="46.91698" lon="8.65393">
        <ele>1266</ele>
        <time>2021-08-07T10:39:54.193Z</time>
      </trkpt>
      <trkpt lat="46.91697" lon="8.65392">
        <ele>1266</ele>
        <time>2021-08-07T10:39:55.193Z</time>
      </trkpt>
      <trkpt lat="46.91696" lon="8.65392">
        <ele>1266</ele>
        <time>2021-08-07T10:40:41.993Z</time>
      </trkpt>
      <trkpt lat="46.91694" lon="8.65392">
        <ele>1265</ele>
        <time>2021-08-07T10:40:42.992Z</time>
      </trkpt>
      <trkpt lat="46.91694" lon="8.65394">
        <ele>1265</ele>
        <time>2021-08-07T10:40:48.831Z</time>
      </trkpt>
      <trkpt lat="46.91693" lon="8.65395">
        <ele>1265</ele>
        <time>2021-08-07T10:40:49.831Z</time>
      </trkpt>
      <trkpt lat="46.91693" lon="8.65395">
        <ele>1265</ele>
        <time>2021-08-07T10:40:50.831Z</time>
      </trkpt>
      <trkpt lat="46.91693" lon="8.65395">
        <ele>1264</ele>
        <time>2021-08-07T10:40:51.831Z</time>
      </trkpt>
      <trkpt lat="46.91692" lon="8.65395">
        <ele>1264</ele>
        <time>2021-08-07T10:40:52.830Z</time>
      </trkpt>
      <trkpt lat="46.91692" lon="8.65397">
        <ele>1264</ele>
        <time>2021-08-07T10:40:53.830Z</time>
      </trkpt>
      <trkpt lat="46.91691" lon="8.65398">
        <ele>1263</ele>
        <time>2021-08-07T10:40:54.831Z</time>
      </trkpt>
      <trkpt lat="46.91691" lon="8.65397">
        <ele>1263</ele>
        <time>2021-08-07T10:40:55.831Z</time>
      </trkpt>
      <trkpt lat="46.9169" lon="8.65396">
        <ele>1263</ele>
        <time>2021-08-07T10:40:56.830Z</time>
      </trkpt>
      <trkpt lat="46.91689" lon="8.65396">
        <ele>1262</ele>
        <time>2021-08-07T10:40:57.830Z</time>
      </trkpt>
      <trkpt lat="46.91688" lon="8.65396">
        <ele>1262</ele>
        <time>2021-08-07T10:41:25.953Z</time>
      </trkpt>
      <trkpt lat="46.91687" lon="8.65396">
        <ele>1262</ele>
        <time>2021-08-07T10:41:26.953Z</time>
      </trkpt>
      <trkpt lat="46.91687" lon="8.65396">
        <ele>1261</ele>
        <time>2021-08-07T10:41:55.838Z</time>
      </trkpt>
      <trkpt lat="46.91686" lon="8.65397">
        <ele>1261</ele>
        <time>2021-08-07T10:41:56.837Z</time>
      </trkpt>
      <trkpt lat="46.91686" lon="8.65398">
        <ele>1261</ele>
        <time>2021-08-07T10:42:04.696Z</time>
      </trkpt>
      <trkpt lat="46.91686" lon="8.654">
        <ele>1260</ele>
        <time>2021-08-07T10:42:05.695Z</time>
      </trkpt>
      <trkpt lat="46.91687" lon="8.65402">
        <ele>1260</ele>
        <time>2021-08-07T10:42:06.696Z</time>
      </trkpt>
      <trkpt lat="46.91687" lon="8.65403">
        <ele>1260</ele>
        <time>2021-08-07T10:42:07.695Z</time>
      </trkpt>
      <trkpt lat="46.91687" lon="8.65404">
        <ele>1260</ele>
        <time>2021-08-07T10:42:18.713Z</time>
      </trkpt>
      <trkpt lat="46.91688" lon="8.65404">
        <ele>1260</ele>
        <time>2021-08-07T10:42:19.713Z</time>
      </trkpt>
      <trkpt lat="46.91688" lon="8.65404">
        <ele>1260</ele>
        <time>2021-08-07T10:42:20.714Z</time>
      </trkpt>
      <trkpt lat="46.91688" lon="8.65403">
        <ele>1259</ele>
        <time>2021-08-07T10:42:21.714Z</time>
      </trkpt>
      <trkpt lat="46.91689" lon="8.65403">
        <ele>1259</ele>
        <time>2021-08-07T10:42:22.713Z</time>
      </trkpt>
      <trkpt lat="46.9169" lon="8.65403">
        <ele>1259</ele>
        <time>2021-08-07T10:42:30.818Z</time>
      </trkpt>
      <trkpt lat="46.9169" lon="8.65403">
        <ele>1259</ele>
        <time>2021-08-07T10:42:31.819Z</time>
      </trkpt>
      <trkpt lat="46.9169" lon="8.65404">
        <ele>1259</ele>
        <time>2021-08-07T10:42:33.718Z</time>
      </trkpt>
      <trkpt lat="46.9169" lon="8.65404">
        <ele>1259</ele>
        <time>2021-08-07T10:42:34.718Z</time>
      </trkpt>
      <trkpt lat="46.9169" lon="8.65404">
        <ele>1259</ele>
        <time>2021-08-07T10:42:35.718Z</time>
      </trkpt>
      <trkpt lat="46.91691" lon="8.65404">
        <ele>1259</ele>
        <time>2021-08-07T10:42:39.850Z</time>
      </trkpt>
      <trkpt lat="46.91691" lon="8.65404">
        <ele>1260</ele>
        <time>2021-08-07T10:42:40.849Z</time>
      </trkpt>
      <trkpt lat="46.91691" lon="8.65405">
        <ele>1262</ele>
        <time>2021-08-07T10:42:41.850Z</time>
      </trkpt>
      <trkpt lat="46.91691" lon="8.65405">
        <ele>1262</ele>
        <time>2021-08-07T10:42:42.850Z</time>
      </trkpt>
      <trkpt lat="46.91691" lon="8.65405">
        <ele>1262</ele>
        <time>2021-08-07T10:42:43.850Z</time>
      </trkpt>
      <trkpt lat="46.91692" lon="8.65404">
        <ele>1262</ele>
        <time>2021-08-07T10:42:44.850Z</time>
      </trkpt>
      <trkpt lat="46.91692" lon="8.65404">
        <ele>1263</ele>
        <time>2021-08-07T10:42:45.850Z</time>
      </trkpt>
      <trkpt lat="46.91692" lon="8.65403">
        <ele>1263</ele>
        <time>2021-08-07T10:42:46.850Z</time>
      </trkpt>
      <trkpt lat="46.91691" lon="8.65403">
        <ele>1263</ele>
        <time>2021-08-07T10:42:47.850Z</time>
      </trkpt>
      <trkpt lat="46.91691" lon="8.65403">
        <ele>1264</ele>
        <time>2021-08-07T10:42:48.850Z</time>
      </trkpt>
      <trkpt lat="46.9169" lon="8.65403">
        <ele>1264</ele>
        <time>2021-08-07T10:42:49.850Z</time>
      </trkpt>
      <trkpt lat="46.91691" lon="8.65404">
        <ele>1263</ele>
        <time>2021-08-07T10:42:50.850Z</time>
      </trkpt>
      <trkpt lat="46.91689" lon="8.65404">
        <ele>1263</ele>
        <time>2021-08-07T10:42:51.850Z</time>
      </trkpt>
      <trkpt lat="46.91686" lon="8.65405">
        <ele>1262</ele>
        <time>2021-08-07T10:42:52.850Z</time>
      </trkpt>
      <trkpt lat="46.91684" lon="8.65404">
        <ele>1262</ele>
        <time>2021-08-07T10:42:53.851Z</time>
      </trkpt>
      <trkpt lat="46.91683" lon="8.65404">
        <ele>1262</ele>
        <time>2021-08-07T10:42:54.850Z</time>
      </trkpt>
      <trkpt lat="46.91684" lon="8.65404">
        <ele>1262</ele>
        <time>2021-08-07T10:42:55.851Z</time>
      </trkpt>
      <trkpt lat="46.91685" lon="8.65402">
        <ele>1261</ele>
        <time>2021-08-07T10:42:56.851Z</time>
      </trkpt>
      <trkpt lat="46.91686" lon="8.654">
        <ele>1261</ele>
        <time>2021-08-07T10:42:57.851Z</time>
      </trkpt>
      <trkpt lat="46.91687" lon="8.65401">
        <ele>1261</ele>
        <time>2021-08-07T10:42:58.851Z</time>
      </trkpt>
      <trkpt lat="46.91688" lon="8.65401">
        <ele>1261</ele>
        <time>2021-08-07T10:42:59.851Z</time>
      </trkpt>
      <trkpt lat="46.9169" lon="8.65401">
        <ele>1260</ele>
        <time>2021-08-07T10:43:00.850Z</time>
      </trkpt>
      <trkpt lat="46.91692" lon="8.65401">
        <ele>1260</ele>
        <time>2021-08-07T10:43:01.851Z</time>
      </trkpt>
      <trkpt lat="46.91693" lon="8.65401">
        <ele>1260</ele>
        <time>2021-08-07T10:43:02.850Z</time>
      </trkpt>
      <trkpt lat="46.91695" lon="8.65401">
        <ele>1260</ele>
        <time>2021-08-07T10:43:03.850Z</time>
      </trkpt>
      <trkpt lat="46.91695" lon="8.65401">
        <ele>1260</ele>
        <time>2021-08-07T10:43:04.851Z</time>
      </trkpt>
      <trkpt lat="46.91696" lon="8.65401">
        <ele>1260</ele>
        <time>2021-08-07T10:43:05.851Z</time>
      </trkpt>
      <trkpt lat="46.91696" lon="8.65401">
        <ele>1260</ele>
        <time>2021-08-07T10:43:06.850Z</time>
      </trkpt>
      <trkpt lat="46.91697" lon="8.65402">
        <ele>1260</ele>
        <time>2021-08-07T10:43:07.851Z</time>
      </trkpt>
      <trkpt lat="46.91697" lon="8.65403">
        <ele>1260</ele>
        <time>2021-08-07T10:43:08.851Z</time>
      </trkpt>
      <trkpt lat="46.91697" lon="8.65404">
        <ele>1260</ele>
        <time>2021-08-07T10:43:09.851Z</time>
      </trkpt>
      <trkpt lat="46.91699" lon="8.65404">
        <ele>1260</ele>
        <time>2021-08-07T10:43:10.850Z</time>
      </trkpt>
      <trkpt lat="46.91699" lon="8.65404">
        <ele>1260</ele>
        <time>2021-08-07T10:43:11.851Z</time>
      </trkpt>
      <trkpt lat="46.91699" lon="8.65402">
        <ele>1260</ele>
        <time>2021-08-07T10:43:12.851Z</time>
      </trkpt>
      <trkpt lat="46.917" lon="8.65402">
        <ele>1260</ele>
        <time>2021-08-07T10:43:13.850Z</time>
      </trkpt>
      <trkpt lat="46.91701" lon="8.65402">
        <ele>1261</ele>
        <time>2021-08-07T10:43:14.851Z</time>
      </trkpt>
      <trkpt lat="46.91701" lon="8.65402">
        <ele>1261</ele>
        <time>2021-08-07T10:43:15.850Z</time>
      </trkpt>
      <trkpt lat="46.91701" lon="8.65401">
        <ele>1261</ele>
        <time>2021-08-07T10:43:16.850Z</time>
      </trkpt>
      <trkpt lat="46.91702" lon="8.65401">
        <ele>1261</ele>
        <time>2021-08-07T10:43:17.851Z</time>
      </trkpt>
      <trkpt lat="46.91703" lon="8.654">
        <ele>1261</ele>
        <time>2021-08-07T10:43:18.851Z</time>
      </trkpt>
      <trkpt lat="46.91705" lon="8.65399">
        <ele>1261</ele>
        <time>2021-08-07T10:43:19.850Z</time>
      </trkpt>
      <trkpt lat="46.91705" lon="8.65399">
        <ele>1260</ele>
        <time>2021-08-07T10:43:20.850Z</time>
      </trkpt>
      <trkpt lat="46.91703" lon="8.65399">
        <ele>1260</ele>
        <time>2021-08-07T10:43:21.850Z</time>
      </trkpt>
      <trkpt lat="46.91703" lon="8.65399">
        <ele>1260</ele>
        <time>2021-08-07T10:43:22.851Z</time>
      </trkpt>
      <trkpt lat="46.91704" lon="8.65399">
        <ele>1260</ele>
        <time>2021-08-07T10:43:23.851Z</time>
      </trkpt>
      <trkpt lat="46.91706" lon="8.65398">
        <ele>1260</ele>
        <time>2021-08-07T10:43:24.851Z</time>
      </trkpt>
      <trkpt lat="46.91706" lon="8.65394">
        <ele>1259</ele>
        <time>2021-08-07T10:43:25.851Z</time>
      </trkpt>
      <trkpt lat="46.91706" lon="8.6539">
        <ele>1259</ele>
        <time>2021-08-07T10:43:26.850Z</time>
      </trkpt>
      <trkpt lat="46.91705" lon="8.65388">
        <ele>1259</ele>
        <time>2021-08-07T10:43:27.851Z</time>
      </trkpt>
      <trkpt lat="46.91702" lon="8.65384">
        <ele>1259</ele>
        <time>2021-08-07T10:43:28.851Z</time>
      </trkpt>
      <trkpt lat="46.917" lon="8.6538">
        <ele>1259</ele>
        <time>2021-08-07T10:43:29.850Z</time>
      </trkpt>
      <trkpt lat="46.91698" lon="8.65379">
        <ele>1259</ele>
        <time>2021-08-07T10:43:30.850Z</time>
      </trkpt>
      <trkpt lat="46.91698" lon="8.65378">
        <ele>1259</ele>
        <time>2021-08-07T10:43:31.851Z</time>
      </trkpt>
      <trkpt lat="46.91699" lon="8.65379">
        <ele>1259</ele>
        <time>2021-08-07T10:43:32.851Z</time>
      </trkpt>
      <trkpt lat="46.91699" lon="8.65378">
        <ele>1259</ele>
        <time>2021-08-07T10:43:33.851Z</time>
      </trkpt>
      <trkpt lat="46.917" lon="8.65378">
        <ele>1259</ele>
        <time>2021-08-07T10:43:34.851Z</time>
      </trkpt>
      <trkpt lat="46.91699" lon="8.6538">
        <ele>1260</ele>
        <time>2021-08-07T10:43:35.850Z</time>
      </trkpt>
      <trkpt lat="46.91699" lon="8.65379">
        <ele>1260</ele>
        <time>2021-08-07T10:43:36.850Z</time>
      </trkpt>
      <trkpt lat="46.91699" lon="8.65377">
        <ele>1260</ele>
        <time>2021-08-07T10:43:37.851Z</time>
      </trkpt>
      <trkpt lat="46.91699" lon="8.65377">
        <ele>1260</ele>
        <time>2021-08-07T10:43:38.850Z</time>
      </trkpt>
      <trkpt lat="46.91699" lon="8.65375">
        <ele>1260</ele>
        <time>2021-08-07T10:43:39.850Z</time>
      </trkpt>
      <trkpt lat="46.91699" lon="8.65374">
        <ele>1260</ele>
        <time>2021-08-07T10:43:40.850Z</time>
      </trkpt>
      <trkpt lat="46.91698" lon="8.65374">
        <ele>1260</ele>
        <time>2021-08-07T10:43:41.850Z</time>
      </trkpt>
      <trkpt lat="46.91696" lon="8.65374">
        <ele>1260</ele>
        <time>2021-08-07T10:43:42.850Z</time>
      </trkpt>
      <trkpt lat="46.91696" lon="8.65374">
        <ele>1260</ele>
        <time>2021-08-07T10:43:43.851Z</time>
      </trkpt>
      <trkpt lat="46.91695" lon="8.65375">
        <ele>1261</ele>
        <time>2021-08-07T10:43:44.850Z</time>
      </trkpt>
      <trkpt lat="46.91696" lon="8.65375">
        <ele>1261</ele>
        <time>2021-08-07T10:43:45.851Z</time>
      </trkpt>
      <trkpt lat="46.91696" lon="8.65376">
        <ele>1261</ele>
        <time>2021-08-07T10:43:46.850Z</time>
      </trkpt>
      <trkpt lat="46.91697" lon="8.65375">
        <ele>1261</ele>
        <time>2021-08-07T10:43:47.850Z</time>
      </trkpt>
      <trkpt lat="46.91698" lon="8.65373">
        <ele>1261</ele>
        <time>2021-08-07T10:43:48.850Z</time>
      </trkpt>
      <trkpt lat="46.917" lon="8.65372">
        <ele>1260</ele>
        <time>2021-08-07T10:43:49.850Z</time>
      </trkpt>
      <trkpt lat="46.91702" lon="8.65371">
        <ele>1260</ele>
        <time>2021-08-07T10:43:50.850Z</time>
      </trkpt>
      <trkpt lat="46.91704" lon="8.65371">
        <ele>1260</ele>
        <time>2021-08-07T10:43:51.850Z</time>
      </trkpt>
      <trkpt lat="46.91706" lon="8.65372">
        <ele>1260</ele>
        <time>2021-08-07T10:43:52.850Z</time>
      </trkpt>
      <trkpt lat="46.91707" lon="8.65372">
        <ele>1260</ele>
        <time>2021-08-07T10:43:53.850Z</time>
      </trkpt>
      <trkpt lat="46.91706" lon="8.65371">
        <ele>1260</ele>
        <time>2021-08-07T10:43:54.851Z</time>
      </trkpt>
      <trkpt lat="46.91705" lon="8.65369">
        <ele>1260</ele>
        <time>2021-08-07T10:43:55.851Z</time>
      </trkpt>
      <trkpt lat="46.91702" lon="8.6537">
        <ele>1260</ele>
        <time>2021-08-07T10:43:56.851Z</time>
      </trkpt>
      <trkpt lat="46.91699" lon="8.65371">
        <ele>1260</ele>
        <time>2021-08-07T10:43:57.850Z</time>
      </trkpt>
      <trkpt lat="46.91695" lon="8.6537">
        <ele>1260</ele>
        <time>2021-08-07T10:43:58.850Z</time>
      </trkpt>
      <trkpt lat="46.91692" lon="8.6537">
        <ele>1260</ele>
        <time>2021-08-07T10:43:59.850Z</time>
      </trkpt>
      <trkpt lat="46.91691" lon="8.65372">
        <ele>1260</ele>
        <time>2021-08-07T10:44:00.850Z</time>
      </trkpt>
      <trkpt lat="46.91691" lon="8.65373">
        <ele>1260</ele>
        <time>2021-08-07T10:44:01.851Z</time>
      </trkpt>
      <trkpt lat="46.91691" lon="8.65374">
        <ele>1261</ele>
        <time>2021-08-07T10:44:02.850Z</time>
      </trkpt>
      <trkpt lat="46.91692" lon="8.65375">
        <ele>1261</ele>
        <time>2021-08-07T10:44:03.851Z</time>
      </trkpt>
      <trkpt lat="46.91692" lon="8.65375">
        <ele>1261</ele>
        <time>2021-08-07T10:44:04.851Z</time>
      </trkpt>
      <trkpt lat="46.91692" lon="8.65377">
        <ele>1261</ele>
        <time>2021-08-07T10:44:05.851Z</time>
      </trkpt>
      <trkpt lat="46.91692" lon="8.65378">
        <ele>1261</ele>
        <time>2021-08-07T10:44:06.851Z</time>
      </trkpt>
      <trkpt lat="46.91692" lon="8.6538">
        <ele>1261</ele>
        <time>2021-08-07T10:44:07.850Z</time>
      </trkpt>
      <trkpt lat="46.91691" lon="8.65381">
        <ele>1261</ele>
        <time>2021-08-07T10:44:08.850Z</time>
      </trkpt>
      <trkpt lat="46.91692" lon="8.65381">
        <ele>1262</ele>
        <time>2021-08-07T10:44:09.851Z</time>
      </trkpt>
      <trkpt lat="46.91693" lon="8.65381">
        <ele>1262</ele>
        <time>2021-08-07T10:44:10.851Z</time>
      </trkpt>
      <trkpt lat="46.91698" lon="8.65378">
        <ele>1262</ele>
        <time>2021-08-07T10:44:11.851Z</time>
      </trkpt>
      <trkpt lat="46.91701" lon="8.65375">
        <ele>1262</ele>
        <time>2021-08-07T10:44:12.850Z</time>
      </trkpt>
      <trkpt lat="46.91703" lon="8.65373">
        <ele>1262</ele>
        <time>2021-08-07T10:44:13.851Z</time>
      </trkpt>
      <trkpt lat="46.91704" lon="8.65372">
        <ele>1262</ele>
        <time>2021-08-07T10:44:14.851Z</time>
      </trkpt>
      <trkpt lat="46.91707" lon="8.65378">
        <ele>1262</ele>
        <time>2021-08-07T10:44:15.851Z</time>
      </trkpt>
      <trkpt lat="46.91711" lon="8.65384">
        <ele>1262</ele>
        <time>2021-08-07T10:44:16.850Z</time>
      </trkpt>
      <trkpt lat="46.91716" lon="8.65394">
        <ele>1262</ele>
        <time>2021-08-07T10:44:17.850Z</time>
      </trkpt>
      <trkpt lat="46.91719" lon="8.65402">
        <ele>1263</ele>
        <time>2021-08-07T10:44:18.850Z</time>
      </trkpt>
      <trkpt lat="46.91722" lon="8.65408">
        <ele>1263</ele>
        <time>2021-08-07T10:44:19.851Z</time>
      </trkpt>
      <trkpt lat="46.91727" lon="8.65418">
        <ele>1263</ele>
        <time>2021-08-07T10:44:20.851Z</time>
      </trkpt>
      <trkpt lat="46.9173" lon="8.65425">
        <ele>1263</ele>
        <time>2021-08-07T10:44:21.851Z</time>
      </trkpt>
      <trkpt lat="46.91734" lon="8.65432">
        <ele>1262</ele>
        <time>2021-08-07T10:44:22.850Z</time>
      </trkpt>
      <trkpt lat="46.91731" lon="8.65432">
        <ele>1262</ele>
        <time>2021-08-07T10:44:23.850Z</time>
      </trkpt>
      <trkpt lat="46.91727" lon="8.6543">
        <ele>1262</ele>
        <time>2021-08-07T10:44:24.851Z</time>
      </trkpt>
      <trkpt lat="46.91724" lon="8.65428">
        <ele>1262</ele>
        <time>2021-08-07T10:44:25.851Z</time>
      </trkpt>
      <trkpt lat="46.9172" lon="8.65424">
        <ele>1262</ele>
        <time>2021-08-07T10:44:26.850Z</time>
      </trkpt>
      <trkpt lat="46.91717" lon="8.65422">
        <ele>1262</ele>
        <time>2021-08-07T10:44:27.850Z</time>
      </trkpt>
      <trkpt lat="46.91713" lon="8.65419">
        <ele>1262</ele>
        <time>2021-08-07T10:44:28.850Z</time>
      </trkpt>
      <trkpt lat="46.91712" lon="8.65416">
        <ele>1262</ele>
        <time>2021-08-07T10:44:29.850Z</time>
      </trkpt>
      <trkpt lat="46.91712" lon="8.65411">
        <ele>1262</ele>
        <time>2021-08-07T10:44:30.850Z</time>
      </trkpt>
      <trkpt lat="46.91715" lon="8.65407">
        <ele>1262</ele>
        <time>2021-08-07T10:44:31.850Z</time>
      </trkpt>
      <trkpt lat="46.91719" lon="8.65402">
        <ele>1263</ele>
        <time>2021-08-07T10:44:32.850Z</time>
      </trkpt>
      <trkpt lat="46.91721" lon="8.65398">
        <ele>1263</ele>
        <time>2021-08-07T10:44:33.850Z</time>
      </trkpt>
      <trkpt lat="46.91722" lon="8.65394">
        <ele>1263</ele>
        <time>2021-08-07T10:44:34.850Z</time>
      </trkpt>
      <trkpt lat="46.91725" lon="8.6539">
        <ele>1263</ele>
        <time>2021-08-07T10:44:35.851Z</time>
      </trkpt>
      <trkpt lat="46.91725" lon="8.65388">
        <ele>1263</ele>
        <time>2021-08-07T10:44:36.850Z</time>
      </trkpt>
      <trkpt lat="46.91726" lon="8.65385">
        <ele>1263</ele>
        <time>2021-08-07T10:44:37.850Z</time>
      </trkpt>
      <trkpt lat="46.91726" lon="8.65383">
        <ele>1263</ele>
        <time>2021-08-07T10:44:38.851Z</time>
      </trkpt>
      <trkpt lat="46.91727" lon="8.65381">
        <ele>1262</ele>
        <time>2021-08-07T10:44:39.850Z</time>
      </trkpt>
      <trkpt lat="46.91728" lon="8.6538">
        <ele>1262</ele>
        <time>2021-08-07T10:44:40.851Z</time>
      </trkpt>
      <trkpt lat="46.9173" lon="8.65379">
        <ele>1262</ele>
        <time>2021-08-07T10:44:41.851Z</time>
      </trkpt>
      <trkpt lat="46.91733" lon="8.65379">
        <ele>1262</ele>
        <time>2021-08-07T10:44:42.850Z</time>
      </trkpt>
      <trkpt lat="46.91735" lon="8.65378">
        <ele>1261</ele>
        <time>2021-08-07T10:44:43.851Z</time>
      </trkpt>
      <trkpt lat="46.91736" lon="8.65377">
        <ele>1261</ele>
        <time>2021-08-07T10:44:44.850Z</time>
      </trkpt>
      <trkpt lat="46.91738" lon="8.65376">
        <ele>1261</ele>
        <time>2021-08-07T10:44:45.850Z</time>
      </trkpt>
      <trkpt lat="46.91738" lon="8.65375">
        <ele>1260</ele>
        <time>2021-08-07T10:44:46.850Z</time>
      </trkpt>
      <trkpt lat="46.91737" lon="8.65374">
        <ele>1260</ele>
        <time>2021-08-07T10:44:47.851Z</time>
      </trkpt>
      <trkpt lat="46.91736" lon="8.65374">
        <ele>1260</ele>
        <time>2021-08-07T10:44:48.851Z</time>
      </trkpt>
      <trkpt lat="46.91734" lon="8.65374">
        <ele>1260</ele>
        <time>2021-08-07T10:44:49.850Z</time>
      </trkpt>
      <trkpt lat="46.91734" lon="8.65373">
        <ele>1260</ele>
        <time>2021-08-07T10:44:50.851Z</time>
      </trkpt>
      <trkpt lat="46.91733" lon="8.65373">
        <ele>1260</ele>
        <time>2021-08-07T10:44:51.851Z</time>
      </trkpt>
      <trkpt lat="46.91732" lon="8.65372">
        <ele>1259</ele>
        <time>2021-08-07T10:44:52.851Z</time>
      </trkpt>
      <trkpt lat="46.91732" lon="8.65371">
        <ele>1259</ele>
        <time>2021-08-07T10:44:53.850Z</time>
      </trkpt>
      <trkpt lat="46.91731" lon="8.6537">
        <ele>1258</ele>
        <time>2021-08-07T10:44:54.850Z</time>
      </trkpt>
      <trkpt lat="46.91731" lon="8.6537">
        <ele>1258</ele>
        <time>2021-08-07T10:44:55.850Z</time>
      </trkpt>
      <trkpt lat="46.91729" lon="8.6537">
        <ele>1257</ele>
        <time>2021-08-07T10:44:56.850Z</time>
      </trkpt>
      <trkpt lat="46.91729" lon="8.6537">
        <ele>1256</ele>
        <time>2021-08-07T10:44:57.850Z</time>
      </trkpt>
      <trkpt lat="46.91729" lon="8.6537">
        <ele>1255</ele>
        <time>2021-08-07T10:44:58.850Z</time>
      </trkpt>
      <trkpt lat="46.91729" lon="8.6537">
        <ele>1254</ele>
        <time>2021-08-07T10:44:59.850Z</time>
      </trkpt>
      <trkpt lat="46.91729" lon="8.65371">
        <ele>1254</ele>
        <time>2021-08-07T10:45:00.851Z</time>
      </trkpt>
      <trkpt lat="46.91729" lon="8.65372">
        <ele>1253</ele>
        <time>2021-08-07T10:45:01.850Z</time>
      </trkpt>
      <trkpt lat="46.9173" lon="8.65372">
        <ele>1252</ele>
        <time>2021-08-07T10:45:02.851Z</time>
      </trkpt>
      <trkpt lat="46.9173" lon="8.65373">
        <ele>1252</ele>
        <time>2021-08-07T10:45:03.850Z</time>
      </trkpt>
      <trkpt lat="46.91731" lon="8.65373">
        <ele>1251</ele>
        <time>2021-08-07T10:45:04.850Z</time>
      </trkpt>
      <trkpt lat="46.91732" lon="8.65373">
        <ele>1251</ele>
        <time>2021-08-07T10:45:05.850Z</time>
      </trkpt>
      <trkpt lat="46.91733" lon="8.65373">
        <ele>1250</ele>
        <time>2021-08-07T10:45:06.850Z</time>
      </trkpt>
      <trkpt lat="46.91735" lon="8.65372">
        <ele>1249</ele>
        <time>2021-08-07T10:45:07.850Z</time>
      </trkpt>
      <trkpt lat="46.91736" lon="8.65372">
        <ele>1249</ele>
        <time>2021-08-07T10:45:08.850Z</time>
      </trkpt>
      <trkpt lat="46.91737" lon="8.65372">
        <ele>1248</ele>
        <time>2021-08-07T10:45:09.850Z</time>
      </trkpt>
      <trkpt lat="46.91738" lon="8.65372">
        <ele>1248</ele>
        <time>2021-08-07T10:45:10.850Z</time>
      </trkpt>
      <trkpt lat="46.91739" lon="8.65372">
        <ele>1247</ele>
        <time>2021-08-07T10:45:11.851Z</time>
      </trkpt>
      <trkpt lat="46.9174" lon="8.65372">
        <ele>1247</ele>
        <time>2021-08-07T10:45:12.850Z</time>
      </trkpt>
      <trkpt lat="46.91741" lon="8.65371">
        <ele>1247</ele>
        <time>2021-08-07T10:45:13.850Z</time>
      </trkpt>
      <trkpt lat="46.91741" lon="8.65371">
        <ele>1246</ele>
        <time>2021-08-07T10:45:14.850Z</time>
      </trkpt>
      <trkpt lat="46.91742" lon="8.65371">
        <ele>1246</ele>
        <time>2021-08-07T10:45:15.850Z</time>
      </trkpt>
      <trkpt lat="46.91747" lon="8.65372">
        <ele>1246</ele>
        <time>2021-08-07T10:45:16.850Z</time>
      </trkpt>
      <trkpt lat="46.91752" lon="8.65372">
        <ele>1246</ele>
        <time>2021-08-07T10:45:17.850Z</time>
      </trkpt>
      <trkpt lat="46.91757" lon="8.65371">
        <ele>1245</ele>
        <time>2021-08-07T10:45:18.850Z</time>
      </trkpt>
      <trkpt lat="46.91762" lon="8.65371">
        <ele>1245</ele>
        <time>2021-08-07T10:45:19.850Z</time>
      </trkpt>
      <trkpt lat="46.91767" lon="8.65371">
        <ele>1245</ele>
        <time>2021-08-07T10:45:20.850Z</time>
      </trkpt>
      <trkpt lat="46.91771" lon="8.65371">
        <ele>1245</ele>
        <time>2021-08-07T10:45:21.850Z</time>
      </trkpt>
      <trkpt lat="46.91776" lon="8.65371">
        <ele>1245</ele>
        <time>2021-08-07T10:45:22.850Z</time>
      </trkpt>
      <trkpt lat="46.9178" lon="8.6537">
        <ele>1245</ele>
        <time>2021-08-07T10:45:23.850Z</time>
      </trkpt>
      <trkpt lat="46.91785" lon="8.6537">
        <ele>1244</ele>
        <time>2021-08-07T10:45:24.850Z</time>
      </trkpt>
      <trkpt lat="46.91787" lon="8.65369">
        <ele>1244</ele>
        <time>2021-08-07T10:45:25.850Z</time>
      </trkpt>
      <trkpt lat="46.91788" lon="8.65368">
        <ele>1244</ele>
        <time>2021-08-07T10:45:26.850Z</time>
      </trkpt>
      <trkpt lat="46.91785" lon="8.65368">
        <ele>1245</ele>
        <time>2021-08-07T10:45:27.850Z</time>
      </trkpt>
      <trkpt lat="46.91784" lon="8.65368">
        <ele>1245</ele>
        <time>2021-08-07T10:45:28.851Z</time>
      </trkpt>
      <trkpt lat="46.91782" lon="8.65368">
        <ele>1245</ele>
        <time>2021-08-07T10:45:29.850Z</time>
      </trkpt>
      <trkpt lat="46.9178" lon="8.65369">
        <ele>1245</ele>
        <time>2021-08-07T10:45:30.850Z</time>
      </trkpt>
      <trkpt lat="46.91776" lon="8.6537">
        <ele>1245</ele>
        <time>2021-08-07T10:45:31.850Z</time>
      </trkpt>
      <trkpt lat="46.91772" lon="8.6537">
        <ele>1246</ele>
        <time>2021-08-07T10:45:32.851Z</time>
      </trkpt>
      <trkpt lat="46.9177" lon="8.65369">
        <ele>1246</ele>
        <time>2021-08-07T10:45:33.851Z</time>
      </trkpt>
      <trkpt lat="46.91767" lon="8.65369">
        <ele>1246</ele>
        <time>2021-08-07T10:45:34.851Z</time>
      </trkpt>
      <trkpt lat="46.91765" lon="8.65369">
        <ele>1246</ele>
        <time>2021-08-07T10:45:35.851Z</time>
      </trkpt>
      <trkpt lat="46.91763" lon="8.65369">
        <ele>1246</ele>
        <time>2021-08-07T10:45:36.850Z</time>
      </trkpt>
      <trkpt lat="46.91759" lon="8.6537">
        <ele>1246</ele>
        <time>2021-08-07T10:45:37.850Z</time>
      </trkpt>
      <trkpt lat="46.91754" lon="8.6537">
        <ele>1247</ele>
        <time>2021-08-07T10:45:38.851Z</time>
      </trkpt>
      <trkpt lat="46.91753" lon="8.6537">
        <ele>1247</ele>
        <time>2021-08-07T10:45:49.960Z</time>
      </trkpt>
      <trkpt lat="46.91751" lon="8.6537">
        <ele>1247</ele>
        <time>2021-08-07T10:45:50.960Z</time>
      </trkpt>
      <trkpt lat="46.91749" lon="8.6537">
        <ele>1248</ele>
        <time>2021-08-07T10:45:51.961Z</time>
      </trkpt>
      <trkpt lat="46.91747" lon="8.6537">
        <ele>1248</ele>
        <time>2021-08-07T10:45:52.960Z</time>
      </trkpt>
      <trkpt lat="46.91745" lon="8.65371">
        <ele>1248</ele>
        <time>2021-08-07T10:46:02.074Z</time>
      </trkpt>
      <trkpt lat="46.91744" lon="8.65371">
        <ele>1248</ele>
        <time>2021-08-07T10:46:13.968Z</time>
      </trkpt>
      <trkpt lat="46.91744" lon="8.65371">
        <ele>1248</ele>
        <time>2021-08-07T10:46:14.968Z</time>
      </trkpt>
      <trkpt lat="46.91746" lon="8.65372">
        <ele>1247</ele>
        <time>2021-08-07T10:46:15.967Z</time>
      </trkpt>
      <trkpt lat="46.91747" lon="8.65372">
        <ele>1247</ele>
        <time>2021-08-07T10:46:16.967Z</time>
      </trkpt>
      <trkpt lat="46.91748" lon="8.65372">
        <ele>1247</ele>
        <time>2021-08-07T10:46:17.968Z</time>
      </trkpt>
      <trkpt lat="46.91748" lon="8.65372">
        <ele>1247</ele>
        <time>2021-08-07T10:46:18.967Z</time>
      </trkpt>
      <trkpt lat="46.91748" lon="8.65373">
        <ele>1246</ele>
        <time>2021-08-07T10:46:19.968Z</time>
      </trkpt>
      <trkpt lat="46.91748" lon="8.65374">
        <ele>1246</ele>
        <time>2021-08-07T10:46:20.967Z</time>
      </trkpt>
      <trkpt lat="46.9175" lon="8.65374">
        <ele>1246</ele>
        <time>2021-08-07T10:46:21.968Z</time>
      </trkpt>
      <trkpt lat="46.91748" lon="8.65374">
        <ele>1245</ele>
        <time>2021-08-07T10:46:22.968Z</time>
      </trkpt>
      <trkpt lat="46.91746" lon="8.65375">
        <ele>1245</ele>
        <time>2021-08-07T10:46:23.967Z</time>
      </trkpt>
      <trkpt lat="46.91745" lon="8.65376">
        <ele>1245</ele>
        <time>2021-08-07T10:46:24.967Z</time>
      </trkpt>
      <trkpt lat="46.91744" lon="8.65376">
        <ele>1245</ele>
        <time>2021-08-07T10:46:25.967Z</time>
      </trkpt>
      <trkpt lat="46.91743" lon="8.65376">
        <ele>1245</ele>
        <time>2021-08-07T10:46:26.967Z</time>
      </trkpt>
      <trkpt lat="46.91744" lon="8.65376">
        <ele>1244</ele>
        <time>2021-08-07T10:46:27.967Z</time>
      </trkpt>
      <trkpt lat="46.91743" lon="8.65376">
        <ele>1244</ele>
        <time>2021-08-07T10:46:28.968Z</time>
      </trkpt>
      <trkpt lat="46.91742" lon="8.65376">
        <ele>1244</ele>
        <time>2021-08-07T10:46:29.968Z</time>
      </trkpt>
      <trkpt lat="46.91742" lon="8.65378">
        <ele>1243</ele>
        <time>2021-08-07T10:46:30.967Z</time>
      </trkpt>
      <trkpt lat="46.91742" lon="8.65379">
        <ele>1243</ele>
        <time>2021-08-07T10:46:31.967Z</time>
      </trkpt>
      <trkpt lat="46.91742" lon="8.6538">
        <ele>1243</ele>
        <time>2021-08-07T10:46:32.967Z</time>
      </trkpt>
      <trkpt lat="46.91742" lon="8.65382">
        <ele>1242</ele>
        <time>2021-08-07T10:46:33.967Z</time>
      </trkpt>
      <trkpt lat="46.91742" lon="8.65382">
        <ele>1242</ele>
        <time>2021-08-07T10:46:34.967Z</time>
      </trkpt>
      <trkpt lat="46.91742" lon="8.65383">
        <ele>1241</ele>
        <time>2021-08-07T10:46:35.968Z</time>
      </trkpt>
      <trkpt lat="46.91742" lon="8.65383">
        <ele>1241</ele>
        <time>2021-08-07T10:46:36.968Z</time>
      </trkpt>
      <trkpt lat="46.91743" lon="8.65384">
        <ele>1241</ele>
        <time>2021-08-07T10:46:37.967Z</time>
      </trkpt>
      <trkpt lat="46.91744" lon="8.65384">
        <ele>1240</ele>
        <time>2021-08-07T10:46:38.968Z</time>
      </trkpt>
      <trkpt lat="46.91746" lon="8.65384">
        <ele>1240</ele>
        <time>2021-08-07T10:46:39.967Z</time>
      </trkpt>
      <trkpt lat="46.91747" lon="8.65384">
        <ele>1240</ele>
        <time>2021-08-07T10:46:40.968Z</time>
      </trkpt>
      <trkpt lat="46.91748" lon="8.65384">
        <ele>1240</ele>
        <time>2021-08-07T10:46:41.967Z</time>
      </trkpt>
      <trkpt lat="46.91748" lon="8.65384">
        <ele>1240</ele>
        <time>2021-08-07T10:46:42.967Z</time>
      </trkpt>
      <trkpt lat="46.91746" lon="8.65386">
        <ele>1239</ele>
        <time>2021-08-07T10:46:43.968Z</time>
      </trkpt>
      <trkpt lat="46.91744" lon="8.65387">
        <ele>1239</ele>
        <time>2021-08-07T10:46:44.968Z</time>
      </trkpt>
      <trkpt lat="46.91742" lon="8.65387">
        <ele>1239</ele>
        <time>2021-08-07T10:46:45.967Z</time>
      </trkpt>
      <trkpt lat="46.9174" lon="8.65387">
        <ele>1239</ele>
        <time>2021-08-07T10:46:46.967Z</time>
      </trkpt>
      <trkpt lat="46.91738" lon="8.65389">
        <ele>1238</ele>
        <time>2021-08-07T10:46:47.967Z</time>
      </trkpt>
      <trkpt lat="46.91737" lon="8.6539">
        <ele>1238</ele>
        <time>2021-08-07T10:46:48.968Z</time>
      </trkpt>
      <trkpt lat="46.91736" lon="8.65391">
        <ele>1238</ele>
        <time>2021-08-07T10:46:49.967Z</time>
      </trkpt>
      <trkpt lat="46.91734" lon="8.65392">
        <ele>1238</ele>
        <time>2021-08-07T10:46:55.100Z</time>
      </trkpt>
      <trkpt lat="46.91734" lon="8.65393">
        <ele>1238</ele>
        <time>2021-08-07T10:46:56.100Z</time>
      </trkpt>
      <trkpt lat="46.91734" lon="8.65394">
        <ele>1238</ele>
        <time>2021-08-07T10:46:57.099Z</time>
      </trkpt>
      <trkpt lat="46.91735" lon="8.65395">
        <ele>1237</ele>
        <time>2021-08-07T10:46:58.099Z</time>
      </trkpt>
      <trkpt lat="46.91735" lon="8.65396">
        <ele>1237</ele>
        <time>2021-08-07T10:46:59.099Z</time>
      </trkpt>
      <trkpt lat="46.91736" lon="8.65396">
        <ele>1237</ele>
        <time>2021-08-07T10:47:00.099Z</time>
      </trkpt>
      <trkpt lat="46.91738" lon="8.65396">
        <ele>1237</ele>
        <time>2021-08-07T10:47:01.100Z</time>
      </trkpt>
      <trkpt lat="46.9174" lon="8.65396">
        <ele>1237</ele>
        <time>2021-08-07T10:47:02.100Z</time>
      </trkpt>
      <trkpt lat="46.91742" lon="8.65397">
        <ele>1237</ele>
        <time>2021-08-07T10:47:03.099Z</time>
      </trkpt>
      <trkpt lat="46.91744" lon="8.65397">
        <ele>1236</ele>
        <time>2021-08-07T10:47:04.099Z</time>
      </trkpt>
      <trkpt lat="46.91746" lon="8.65398">
        <ele>1236</ele>
        <time>2021-08-07T10:47:05.099Z</time>
      </trkpt>
      <trkpt lat="46.91747" lon="8.65399">
        <ele>1236</ele>
        <time>2021-08-07T10:47:06.099Z</time>
      </trkpt>
      <trkpt lat="46.91749" lon="8.654">
        <ele>1236</ele>
        <time>2021-08-07T10:47:07.099Z</time>
      </trkpt>
      <trkpt lat="46.91752" lon="8.654">
        <ele>1236</ele>
        <time>2021-08-07T10:47:08.099Z</time>
      </trkpt>
      <trkpt lat="46.91754" lon="8.65399">
        <ele>1236</ele>
        <time>2021-08-07T10:47:09.100Z</time>
      </trkpt>
      <trkpt lat="46.91754" lon="8.65397">
        <ele>1236</ele>
        <time>2021-08-07T10:47:10.100Z</time>
      </trkpt>
      <trkpt lat="46.91754" lon="8.65395">
        <ele>1236</ele>
        <time>2021-08-07T10:47:11.099Z</time>
      </trkpt>
      <trkpt lat="46.91754" lon="8.65394">
        <ele>1236</ele>
        <time>2021-08-07T10:47:12.100Z</time>
      </trkpt>
      <trkpt lat="46.91755" lon="8.65392">
        <ele>1235</ele>
        <time>2021-08-07T10:47:13.100Z</time>
      </trkpt>
      <trkpt lat="46.91757" lon="8.65391">
        <ele>1235</ele>
        <time>2021-08-07T10:47:14.099Z</time>
      </trkpt>
      <trkpt lat="46.91758" lon="8.65391">
        <ele>1235</ele>
        <time>2021-08-07T10:47:15.099Z</time>
      </trkpt>
      <trkpt lat="46.9176" lon="8.65391">
        <ele>1235</ele>
        <time>2021-08-07T10:47:16.099Z</time>
      </trkpt>
      <trkpt lat="46.9176" lon="8.65392">
        <ele>1234</ele>
        <time>2021-08-07T10:47:17.099Z</time>
      </trkpt>
      <trkpt lat="46.9176" lon="8.65393">
        <ele>1234</ele>
        <time>2021-08-07T10:47:18.099Z</time>
      </trkpt>
      <trkpt lat="46.91761" lon="8.65393">
        <ele>1234</ele>
        <time>2021-08-07T10:47:19.099Z</time>
      </trkpt>
      <trkpt lat="46.91761" lon="8.65392">
        <ele>1234</ele>
        <time>2021-08-07T10:47:20.100Z</time>
      </trkpt>
      <trkpt lat="46.91761" lon="8.65391">
        <ele>1234</ele>
        <time>2021-08-07T10:47:21.100Z</time>
      </trkpt>
      <trkpt lat="46.91762" lon="8.65391">
        <ele>1233</ele>
        <time>2021-08-07T10:47:22.099Z</time>
      </trkpt>
      <trkpt lat="46.91763" lon="8.65391">
        <ele>1233</ele>
        <time>2021-08-07T10:47:23.099Z</time>
      </trkpt>
      <trkpt lat="46.91763" lon="8.65391">
        <ele>1233</ele>
        <time>2021-08-07T10:47:24.100Z</time>
      </trkpt>
      <trkpt lat="46.91766" lon="8.65391">
        <ele>1233</ele>
        <time>2021-08-07T10:47:25.099Z</time>
      </trkpt>
      <trkpt lat="46.91768" lon="8.65391">
        <ele>1233</ele>
        <time>2021-08-07T10:47:26.100Z</time>
      </trkpt>
      <trkpt lat="46.91768" lon="8.65393">
        <ele>1233</ele>
        <time>2021-08-07T10:47:27.099Z</time>
      </trkpt>
      <trkpt lat="46.91768" lon="8.65394">
        <ele>1233</ele>
        <time>2021-08-07T10:47:28.099Z</time>
      </trkpt>
      <trkpt lat="46.9177" lon="8.65395">
        <ele>1233</ele>
        <time>2021-08-07T10:47:29.099Z</time>
      </trkpt>
      <trkpt lat="46.9177" lon="8.65395">
        <ele>1233</ele>
        <time>2021-08-07T10:47:30.100Z</time>
      </trkpt>
      <trkpt lat="46.91769" lon="8.65395">
        <ele>1233</ele>
        <time>2021-08-07T10:47:31.099Z</time>
      </trkpt>
      <trkpt lat="46.91768" lon="8.65396">
        <ele>1233</ele>
        <time>2021-08-07T10:47:32.099Z</time>
      </trkpt>
      <trkpt lat="46.91768" lon="8.65396">
        <ele>1233</ele>
        <time>2021-08-07T10:47:33.100Z</time>
      </trkpt>
      <trkpt lat="46.91768" lon="8.65396">
        <ele>1233</ele>
        <time>2021-08-07T10:47:34.100Z</time>
      </trkpt>
      <trkpt lat="46.91769" lon="8.65396">
        <ele>1233</ele>
        <time>2021-08-07T10:47:35.100Z</time>
      </trkpt>
      <trkpt lat="46.9177" lon="8.65396">
        <ele>1233</ele>
        <time>2021-08-07T10:47:36.099Z</time>
      </trkpt>
      <trkpt lat="46.91769" lon="8.65397">
        <ele>1233</ele>
        <time>2021-08-07T10:47:37.099Z</time>
      </trkpt>
      <trkpt lat="46.91767" lon="8.65397">
        <ele>1233</ele>
        <time>2021-08-07T10:47:38.099Z</time>
      </trkpt>
      <trkpt lat="46.91766" lon="8.65397">
        <ele>1233</ele>
        <time>2021-08-07T10:47:39.100Z</time>
      </trkpt>
      <trkpt lat="46.91765" lon="8.65396">
        <ele>1233</ele>
        <time>2021-08-07T10:47:40.099Z</time>
      </trkpt>
      <trkpt lat="46.91764" lon="8.65396">
        <ele>1233</ele>
        <time>2021-08-07T10:47:41.099Z</time>
      </trkpt>
      <trkpt lat="46.91763" lon="8.65396">
        <ele>1233</ele>
        <time>2021-08-07T10:47:42.100Z</time>
      </trkpt>
      <trkpt lat="46.91764" lon="8.65396">
        <ele>1234</ele>
        <time>2021-08-07T10:47:43.100Z</time>
      </trkpt>
      <trkpt lat="46.91765" lon="8.65396">
        <ele>1234</ele>
        <time>2021-08-07T10:47:44.099Z</time>
      </trkpt>
      <trkpt lat="46.91765" lon="8.65397">
        <ele>1234</ele>
        <time>2021-08-07T10:47:45.099Z</time>
      </trkpt>
      <trkpt lat="46.91766" lon="8.65398">
        <ele>1234</ele>
        <time>2021-08-07T10:47:46.099Z</time>
      </trkpt>
      <trkpt lat="46.91766" lon="8.65398">
        <ele>1234</ele>
        <time>2021-08-07T10:47:47.099Z</time>
      </trkpt>
      <trkpt lat="46.91766" lon="8.65398">
        <ele>1234</ele>
        <time>2021-08-07T10:47:48.100Z</time>
      </trkpt>
      <trkpt lat="46.91767" lon="8.65398">
        <ele>1234</ele>
        <time>2021-08-07T10:47:49.099Z</time>
      </trkpt>
      <trkpt lat="46.91767" lon="8.65397">
        <ele>1233</ele>
        <time>2021-08-07T10:47:50.099Z</time>
      </trkpt>
      <trkpt lat="46.91768" lon="8.65395">
        <ele>1233</ele>
        <time>2021-08-07T10:47:51.099Z</time>
      </trkpt>
      <trkpt lat="46.91768" lon="8.65394">
        <ele>1232</ele>
        <time>2021-08-07T10:47:52.099Z</time>
      </trkpt>
      <trkpt lat="46.91768" lon="8.65395">
        <ele>1232</ele>
        <time>2021-08-07T10:47:53.099Z</time>
      </trkpt>
      <trkpt lat="46.91768" lon="8.65395">
        <ele>1231</ele>
        <time>2021-08-07T10:47:54.100Z</time>
      </trkpt>
      <trkpt lat="46.91767" lon="8.65395">
        <ele>1230</ele>
        <time>2021-08-07T10:47:55.099Z</time>
      </trkpt>
      <trkpt lat="46.91766" lon="8.65394">
        <ele>1229</ele>
        <time>2021-08-07T10:47:56.099Z</time>
      </trkpt>
      <trkpt lat="46.91765" lon="8.65394">
        <ele>1228</ele>
        <time>2021-08-07T10:47:57.100Z</time>
      </trkpt>
      <trkpt lat="46.91765" lon="8.65394">
        <ele>1226</ele>
        <time>2021-08-07T10:47:58.099Z</time>
      </trkpt>
      <trkpt lat="46.91765" lon="8.65394">
        <ele>1225</ele>
        <time>2021-08-07T10:47:59.100Z</time>
      </trkpt>
      <trkpt lat="46.91764" lon="8.65394">
        <ele>1224</ele>
        <time>2021-08-07T10:48:00.100Z</time>
      </trkpt>
      <trkpt lat="46.91764" lon="8.65394">
        <ele>1224</ele>
        <time>2021-08-07T10:48:01.099Z</time>
      </trkpt>
      <trkpt lat="46.91765" lon="8.65393">
        <ele>1220</ele>
        <time>2021-08-07T10:48:02.101Z</time>
      </trkpt>
      <trkpt lat="46.91765" lon="8.65393">
        <ele>1220</ele>
        <time>2021-08-07T10:48:03.100Z</time>
      </trkpt>
      <trkpt lat="46.91765" lon="8.65393">
        <ele>1219</ele>
        <time>2021-08-07T10:48:04.100Z</time>
      </trkpt>
      <trkpt lat="46.91765" lon="8.65392">
        <ele>1219</ele>
        <time>2021-08-07T10:48:05.101Z</time>
      </trkpt>
      <trkpt lat="46.91764" lon="8.65392">
        <ele>1218</ele>
        <time>2021-08-07T10:48:06.101Z</time>
      </trkpt>
      <trkpt lat="46.91763" lon="8.65392">
        <ele>1218</ele>
        <time>2021-08-07T10:48:07.100Z</time>
      </trkpt>
      <trkpt lat="46.91765" lon="8.6539">
        <ele>1215</ele>
        <time>2021-08-07T10:48:08.101Z</time>
      </trkpt>
      <trkpt lat="46.91765" lon="8.65389">
        <ele>1215</ele>
        <time>2021-08-07T10:48:09.101Z</time>
      </trkpt>
      <trkpt lat="46.91765" lon="8.65389">
        <ele>1215</ele>
        <time>2021-08-07T10:48:10.101Z</time>
      </trkpt>
      <trkpt lat="46.91764" lon="8.65388">
        <ele>1215</ele>
        <time>2021-08-07T10:48:11.101Z</time>
      </trkpt>
      <trkpt lat="46.91764" lon="8.65388">
        <ele>1215</ele>
        <time>2021-08-07T10:48:12.101Z</time>
      </trkpt>
      <trkpt lat="46.91763" lon="8.65387">
        <ele>1214</ele>
        <time>2021-08-07T10:48:13.102Z</time>
      </trkpt>
      <trkpt lat="46.91763" lon="8.65387">
        <ele>1213</ele>
        <time>2021-08-07T10:48:14.102Z</time>
      </trkpt>
      <trkpt lat="46.91763" lon="8.65387">
        <ele>1213</ele>
        <time>2021-08-07T10:48:15.102Z</time>
      </trkpt>
      <trkpt lat="46.91763" lon="8.65386">
        <ele>1213</ele>
        <time>2021-08-07T10:48:16.102Z</time>
      </trkpt>
      <trkpt lat="46.91763" lon="8.65386">
        <ele>1213</ele>
        <time>2021-08-07T10:48:17.103Z</time>
      </trkpt>
      <trkpt lat="46.91764" lon="8.65386">
        <ele>1213</ele>
        <time>2021-08-07T10:48:18.103Z</time>
      </trkpt>
      <trkpt lat="46.91765" lon="8.65386">
        <ele>1213</ele>
        <time>2021-08-07T10:48:19.102Z</time>
      </trkpt>
      <trkpt lat="46.91766" lon="8.65386">
        <ele>1213</ele>
        <time>2021-08-07T10:48:20.103Z</time>
      </trkpt>
      <trkpt lat="46.91766" lon="8.65386">
        <ele>1213</ele>
        <time>2021-08-07T10:48:21.103Z</time>
      </trkpt>
      <trkpt lat="46.91767" lon="8.65385">
        <ele>1213</ele>
        <time>2021-08-07T10:48:22.103Z</time>
      </trkpt>
      <trkpt lat="46.91768" lon="8.65384">
        <ele>1213</ele>
        <time>2021-08-07T10:48:23.102Z</time>
      </trkpt>
      <trkpt lat="46.91769" lon="8.65384">
        <ele>1213</ele>
        <time>2021-08-07T10:48:24.102Z</time>
      </trkpt>
      <trkpt lat="46.9177" lon="8.65384">
        <ele>1213</ele>
        <time>2021-08-07T10:48:25.103Z</time>
      </trkpt>
      <trkpt lat="46.91769" lon="8.65384">
        <ele>1213</ele>
        <time>2021-08-07T10:48:26.103Z</time>
      </trkpt>
      <trkpt lat="46.91769" lon="8.65384">
        <ele>1213</ele>
        <time>2021-08-07T10:48:27.103Z</time>
      </trkpt>
      <trkpt lat="46.91769" lon="8.65384">
        <ele>1213</ele>
        <time>2021-08-07T10:48:28.103Z</time>
      </trkpt>
      <trkpt lat="46.91773" lon="8.65381">
        <ele>1214</ele>
        <time>2021-08-07T10:48:29.103Z</time>
      </trkpt>
      <trkpt lat="46.91775" lon="8.65381">
        <ele>1214</ele>
        <time>2021-08-07T10:48:30.103Z</time>
      </trkpt>
      <trkpt lat="46.91773" lon="8.65381">
        <ele>1214</ele>
        <time>2021-08-07T10:48:31.103Z</time>
      </trkpt>
      <trkpt lat="46.91774" lon="8.65381">
        <ele>1215</ele>
        <time>2021-08-07T10:48:32.103Z</time>
      </trkpt>
      <trkpt lat="46.91775" lon="8.65381">
        <ele>1215</ele>
        <time>2021-08-07T10:48:33.103Z</time>
      </trkpt>
      <trkpt lat="46.91776" lon="8.6538">
        <ele>1215</ele>
        <time>2021-08-07T10:48:34.103Z</time>
      </trkpt>
      <trkpt lat="46.91776" lon="8.6538">
        <ele>1215</ele>
        <time>2021-08-07T10:48:35.103Z</time>
      </trkpt>
      <trkpt lat="46.91776" lon="8.65379">
        <ele>1215</ele>
        <time>2021-08-07T10:48:36.102Z</time>
      </trkpt>
      <trkpt lat="46.91776" lon="8.65378">
        <ele>1216</ele>
        <time>2021-08-07T10:48:37.102Z</time>
      </trkpt>
      <trkpt lat="46.91776" lon="8.65377">
        <ele>1216</ele>
        <time>2021-08-07T10:48:38.102Z</time>
      </trkpt>
      <trkpt lat="46.91775" lon="8.65377">
        <ele>1216</ele>
        <time>2021-08-07T10:48:39.103Z</time>
      </trkpt>
      <trkpt lat="46.91773" lon="8.65376">
        <ele>1217</ele>
        <time>2021-08-07T10:48:40.103Z</time>
      </trkpt>
      <trkpt lat="46.91772" lon="8.65376">
        <ele>1217</ele>
        <time>2021-08-07T10:48:41.103Z</time>
      </trkpt>
      <trkpt lat="46.91771" lon="8.65375">
        <ele>1217</ele>
        <time>2021-08-07T10:48:42.103Z</time>
      </trkpt>
      <trkpt lat="46.91771" lon="8.65375">
        <ele>1217</ele>
        <time>2021-08-07T10:48:43.102Z</time>
      </trkpt>
      <trkpt lat="46.91771" lon="8.65375">
        <ele>1217</ele>
        <time>2021-08-07T10:48:44.102Z</time>
      </trkpt>
      <trkpt lat="46.9177" lon="8.65374">
        <ele>1217</ele>
        <time>2021-08-07T10:48:45.103Z</time>
      </trkpt>
      <trkpt lat="46.9177" lon="8.65374">
        <ele>1217</ele>
        <time>2021-08-07T10:48:46.103Z</time>
      </trkpt>
      <trkpt lat="46.91769" lon="8.65373">
        <ele>1217</ele>
        <time>2021-08-07T10:48:47.103Z</time>
      </trkpt>
      <trkpt lat="46.91769" lon="8.65373">
        <ele>1216</ele>
        <time>2021-08-07T10:48:48.102Z</time>
      </trkpt>
      <trkpt lat="46.91768" lon="8.65373">
        <ele>1216</ele>
        <time>2021-08-07T10:48:49.103Z</time>
      </trkpt>
      <trkpt lat="46.91768" lon="8.65372">
        <ele>1216</ele>
        <time>2021-08-07T10:48:50.103Z</time>
      </trkpt>
      <trkpt lat="46.91769" lon="8.65373">
        <ele>1218</ele>
        <time>2021-08-07T10:48:51.105Z</time>
      </trkpt>
      <trkpt lat="46.91769" lon="8.65373">
        <ele>1218</ele>
        <time>2021-08-07T10:48:52.105Z</time>
      </trkpt>
      <trkpt lat="46.91769" lon="8.65372">
        <ele>1218</ele>
        <time>2021-08-07T10:48:53.104Z</time>
      </trkpt>
      <trkpt lat="46.91768" lon="8.65372">
        <ele>1218</ele>
        <time>2021-08-07T10:48:54.105Z</time>
      </trkpt>
      <trkpt lat="46.91768" lon="8.65371">
        <ele>1218</ele>
        <time>2021-08-07T10:48:55.105Z</time>
      </trkpt>
      <trkpt lat="46.91768" lon="8.65371">
        <ele>1219</ele>
        <time>2021-08-07T10:48:56.105Z</time>
      </trkpt>
      <trkpt lat="46.91769" lon="8.6537">
        <ele>1219</ele>
        <time>2021-08-07T10:48:57.105Z</time>
      </trkpt>
      <trkpt lat="46.91771" lon="8.6537">
        <ele>1219</ele>
        <time>2021-08-07T10:48:58.105Z</time>
      </trkpt>
      <trkpt lat="46.91772" lon="8.65369">
        <ele>1219</ele>
        <time>2021-08-07T10:48:59.104Z</time>
      </trkpt>
      <trkpt lat="46.91781" lon="8.65368">
        <ele>1221</ele>
        <time>2021-08-07T10:49:00.105Z</time>
      </trkpt>
      <trkpt lat="46.91782" lon="8.65367">
        <ele>1222</ele>
        <time>2021-08-07T10:49:01.104Z</time>
      </trkpt>
      <trkpt lat="46.91781" lon="8.65366">
        <ele>1222</ele>
        <time>2021-08-07T10:49:02.104Z</time>
      </trkpt>
      <trkpt lat="46.91782" lon="8.65365">
        <ele>1222</ele>
        <time>2021-08-07T10:49:03.105Z</time>
      </trkpt>
      <trkpt lat="46.91784" lon="8.65363">
        <ele>1223</ele>
        <time>2021-08-07T10:49:04.105Z</time>
      </trkpt>
      <trkpt lat="46.91786" lon="8.65362">
        <ele>1223</ele>
        <time>2021-08-07T10:49:05.104Z</time>
      </trkpt>
      <trkpt lat="46.91788" lon="8.65361">
        <ele>1224</ele>
        <time>2021-08-07T10:49:06.105Z</time>
      </trkpt>
      <trkpt lat="46.91787" lon="8.65359">
        <ele>1224</ele>
        <time>2021-08-07T10:49:07.105Z</time>
      </trkpt>
      <trkpt lat="46.91783" lon="8.65357">
        <ele>1224</ele>
        <time>2021-08-07T10:49:08.105Z</time>
      </trkpt>
      <trkpt lat="46.9178" lon="8.65355">
        <ele>1223</ele>
        <time>2021-08-07T10:49:09.104Z</time>
      </trkpt>
      <trkpt lat="46.91777" lon="8.65353">
        <ele>1222</ele>
        <time>2021-08-07T10:49:10.104Z</time>
      </trkpt>
      <trkpt lat="46.91776" lon="8.65352">
        <ele>1221</ele>
        <time>2021-08-07T10:49:11.105Z</time>
      </trkpt>
      <trkpt lat="46.91776" lon="8.6535">
        <ele>1220</ele>
        <time>2021-08-07T10:49:12.105Z</time>
      </trkpt>
      <trkpt lat="46.91775" lon="8.65349">
        <ele>1219</ele>
        <time>2021-08-07T10:49:13.104Z</time>
      </trkpt>
      <trkpt lat="46.91775" lon="8.65347">
        <ele>1219</ele>
        <time>2021-08-07T10:49:14.105Z</time>
      </trkpt>
      <trkpt lat="46.91775" lon="8.65345">
        <ele>1219</ele>
        <time>2021-08-07T10:49:15.105Z</time>
      </trkpt>
      <trkpt lat="46.91775" lon="8.65344">
        <ele>1218</ele>
        <time>2021-08-07T10:49:16.105Z</time>
      </trkpt>
      <trkpt lat="46.91774" lon="8.65342">
        <ele>1218</ele>
        <time>2021-08-07T10:49:17.104Z</time>
      </trkpt>
      <trkpt lat="46.91774" lon="8.6534">
        <ele>1217</ele>
        <time>2021-08-07T10:49:18.105Z</time>
      </trkpt>
      <trkpt lat="46.91774" lon="8.65339">
        <ele>1217</ele>
        <time>2021-08-07T10:49:22.205Z</time>
      </trkpt>
      <trkpt lat="46.91775" lon="8.65338">
        <ele>1217</ele>
        <time>2021-08-07T10:49:23.205Z</time>
      </trkpt>
      <trkpt lat="46.91775" lon="8.65336">
        <ele>1216</ele>
        <time>2021-08-07T10:49:24.204Z</time>
      </trkpt>
      <trkpt lat="46.91774" lon="8.65335">
        <ele>1216</ele>
        <time>2021-08-07T10:49:25.204Z</time>
      </trkpt>
      <trkpt lat="46.91773" lon="8.65332">
        <ele>1216</ele>
        <time>2021-08-07T10:49:26.204Z</time>
      </trkpt>
      <trkpt lat="46.91773" lon="8.65329">
        <ele>1215</ele>
        <time>2021-08-07T10:49:34.230Z</time>
      </trkpt>
      <trkpt lat="46.91772" lon="8.65327">
        <ele>1215</ele>
        <time>2021-08-07T10:49:35.230Z</time>
      </trkpt>
      <trkpt lat="46.91772" lon="8.65325">
        <ele>1215</ele>
        <time>2021-08-07T10:49:36.230Z</time>
      </trkpt>
      <trkpt lat="46.91771" lon="8.65323">
        <ele>1214</ele>
        <time>2021-08-07T10:49:37.229Z</time>
      </trkpt>
      <trkpt lat="46.91771" lon="8.65321">
        <ele>1214</ele>
        <time>2021-08-07T10:49:38.230Z</time>
      </trkpt>
      <trkpt lat="46.91769" lon="8.6532">
        <ele>1213</ele>
        <time>2021-08-07T10:49:45.354Z</time>
      </trkpt>
      <trkpt lat="46.91769" lon="8.6532">
        <ele>1213</ele>
        <time>2021-08-07T10:49:46.354Z</time>
      </trkpt>
      <trkpt lat="46.9177" lon="8.65318">
        <ele>1211</ele>
        <time>2021-08-07T10:49:49.178Z</time>
      </trkpt>
      <trkpt lat="46.91769" lon="8.65317">
        <ele>1211</ele>
        <time>2021-08-07T10:49:50.178Z</time>
      </trkpt>
      <trkpt lat="46.91769" lon="8.65315">
        <ele>1211</ele>
        <time>2021-08-07T10:49:51.177Z</time>
      </trkpt>
      <trkpt lat="46.91771" lon="8.65312">
        <ele>1212</ele>
        <time>2021-08-07T10:49:52.178Z</time>
      </trkpt>
      <trkpt lat="46.91772" lon="8.65312">
        <ele>1212</ele>
        <time>2021-08-07T10:49:53.178Z</time>
      </trkpt>
      <trkpt lat="46.91773" lon="8.65311">
        <ele>1213</ele>
        <time>2021-08-07T10:50:03.331Z</time>
      </trkpt>
      <trkpt lat="46.91774" lon="8.6531">
        <ele>1213</ele>
        <time>2021-08-07T10:50:04.331Z</time>
      </trkpt>
      <trkpt lat="46.91774" lon="8.65308">
        <ele>1213</ele>
        <time>2021-08-07T10:50:05.331Z</time>
      </trkpt>
      <trkpt lat="46.91775" lon="8.65307">
        <ele>1212</ele>
        <time>2021-08-07T10:50:12.470Z</time>
      </trkpt>
      <trkpt lat="46.91775" lon="8.65306">
        <ele>1212</ele>
        <time>2021-08-07T10:50:13.470Z</time>
      </trkpt>
      <trkpt lat="46.91776" lon="8.65305">
        <ele>1211</ele>
        <time>2021-08-07T10:50:14.469Z</time>
      </trkpt>
      <trkpt lat="46.91776" lon="8.65304">
        <ele>1211</ele>
        <time>2021-08-07T10:50:15.469Z</time>
      </trkpt>
      <trkpt lat="46.91776" lon="8.65303">
        <ele>1210</ele>
        <time>2021-08-07T10:50:16.469Z</time>
      </trkpt>
      <trkpt lat="46.91776" lon="8.65302">
        <ele>1210</ele>
        <time>2021-08-07T10:50:17.470Z</time>
      </trkpt>
      <trkpt lat="46.91776" lon="8.65301">
        <ele>1210</ele>
        <time>2021-08-07T10:50:18.470Z</time>
      </trkpt>
      <trkpt lat="46.91776" lon="8.653">
        <ele>1210</ele>
        <time>2021-08-07T10:50:19.469Z</time>
      </trkpt>
      <trkpt lat="46.91777" lon="8.65299">
        <ele>1210</ele>
        <time>2021-08-07T10:50:20.470Z</time>
      </trkpt>
      <trkpt lat="46.91777" lon="8.65297">
        <ele>1210</ele>
        <time>2021-08-07T10:50:21.469Z</time>
      </trkpt>
      <trkpt lat="46.91777" lon="8.65295">
        <ele>1210</ele>
        <time>2021-08-07T10:50:22.469Z</time>
      </trkpt>
      <trkpt lat="46.91777" lon="8.65293">
        <ele>1210</ele>
        <time>2021-08-07T10:50:23.469Z</time>
      </trkpt>
      <trkpt lat="46.91776" lon="8.65292">
        <ele>1209</ele>
        <time>2021-08-07T10:50:24.469Z</time>
      </trkpt>
      <trkpt lat="46.91776" lon="8.6529">
        <ele>1209</ele>
        <time>2021-08-07T10:50:25.469Z</time>
      </trkpt>
      <trkpt lat="46.91775" lon="8.65288">
        <ele>1208</ele>
        <time>2021-08-07T10:50:26.469Z</time>
      </trkpt>
      <trkpt lat="46.91774" lon="8.65286">
        <ele>1208</ele>
        <time>2021-08-07T10:50:27.469Z</time>
      </trkpt>
      <trkpt lat="46.91773" lon="8.65285">
        <ele>1207</ele>
        <time>2021-08-07T10:50:28.469Z</time>
      </trkpt>
      <trkpt lat="46.91772" lon="8.65283">
        <ele>1207</ele>
        <time>2021-08-07T10:50:29.469Z</time>
      </trkpt>
      <trkpt lat="46.91772" lon="8.65281">
        <ele>1207</ele>
        <time>2021-08-07T10:50:30.470Z</time>
      </trkpt>
      <trkpt lat="46.91771" lon="8.65279">
        <ele>1208</ele>
        <time>2021-08-07T10:50:31.469Z</time>
      </trkpt>
      <trkpt lat="46.9177" lon="8.65278">
        <ele>1208</ele>
        <time>2021-08-07T10:50:32.469Z</time>
      </trkpt>
      <trkpt lat="46.9177" lon="8.65277">
        <ele>1208</ele>
        <time>2021-08-07T10:50:33.469Z</time>
      </trkpt>
      <trkpt lat="46.91769" lon="8.65276">
        <ele>1208</ele>
        <time>2021-08-07T10:50:34.469Z</time>
      </trkpt>
      <trkpt lat="46.91768" lon="8.65274">
        <ele>1208</ele>
        <time>2021-08-07T10:50:35.469Z</time>
      </trkpt>
      <trkpt lat="46.91767" lon="8.65273">
        <ele>1208</ele>
        <time>2021-08-07T10:50:36.469Z</time>
      </trkpt>
      <trkpt lat="46.91766" lon="8.65272">
        <ele>1208</ele>
        <time>2021-08-07T10:50:37.469Z</time>
      </trkpt>
      <trkpt lat="46.91765" lon="8.65271">
        <ele>1208</ele>
        <time>2021-08-07T10:50:38.469Z</time>
      </trkpt>
      <trkpt lat="46.91763" lon="8.65269">
        <ele>1208</ele>
        <time>2021-08-07T10:50:39.469Z</time>
      </trkpt>
      <trkpt lat="46.91762" lon="8.65268">
        <ele>1208</ele>
        <time>2021-08-07T10:50:40.469Z</time>
      </trkpt>
      <trkpt lat="46.91761" lon="8.65267">
        <ele>1208</ele>
        <time>2021-08-07T10:50:41.469Z</time>
      </trkpt>
      <trkpt lat="46.9176" lon="8.65266">
        <ele>1209</ele>
        <time>2021-08-07T10:50:42.469Z</time>
      </trkpt>
      <trkpt lat="46.91759" lon="8.65265">
        <ele>1209</ele>
        <time>2021-08-07T10:50:45.437Z</time>
      </trkpt>
      <trkpt lat="46.91758" lon="8.65264">
        <ele>1209</ele>
        <time>2021-08-07T10:50:46.437Z</time>
      </trkpt>
      <trkpt lat="46.91757" lon="8.65263">
        <ele>1209</ele>
        <time>2021-08-07T10:50:47.438Z</time>
      </trkpt>
      <trkpt lat="46.91756" lon="8.65262">
        <ele>1208</ele>
        <time>2021-08-07T10:50:48.437Z</time>
      </trkpt>
      <trkpt lat="46.91755" lon="8.65261">
        <ele>1208</ele>
        <time>2021-08-07T10:50:49.437Z</time>
      </trkpt>
      <trkpt lat="46.91755" lon="8.6526">
        <ele>1208</ele>
        <time>2021-08-07T10:50:50.437Z</time>
      </trkpt>
      <trkpt lat="46.91754" lon="8.65259">
        <ele>1208</ele>
        <time>2021-08-07T10:50:51.437Z</time>
      </trkpt>
      <trkpt lat="46.91754" lon="8.65258">
        <ele>1208</ele>
        <time>2021-08-07T10:50:52.438Z</time>
      </trkpt>
      <trkpt lat="46.91753" lon="8.65256">
        <ele>1208</ele>
        <time>2021-08-07T10:50:53.437Z</time>
      </trkpt>
      <trkpt lat="46.91753" lon="8.65255">
        <ele>1208</ele>
        <time>2021-08-07T10:50:54.438Z</time>
      </trkpt>
      <trkpt lat="46.91752" lon="8.65254">
        <ele>1208</ele>
        <time>2021-08-07T10:50:55.437Z</time>
      </trkpt>
      <trkpt lat="46.91752" lon="8.65252">
        <ele>1208</ele>
        <time>2021-08-07T10:50:56.438Z</time>
      </trkpt>
      <trkpt lat="46.91752" lon="8.6525">
        <ele>1208</ele>
        <time>2021-08-07T10:50:57.437Z</time>
      </trkpt>
      <trkpt lat="46.91752" lon="8.65248">
        <ele>1207</ele>
        <time>2021-08-07T10:50:58.438Z</time>
      </trkpt>
      <trkpt lat="46.91752" lon="8.65246">
        <ele>1206</ele>
        <time>2021-08-07T10:50:59.438Z</time>
      </trkpt>
      <trkpt lat="46.91752" lon="8.65244">
        <ele>1206</ele>
        <time>2021-08-07T10:51:00.438Z</time>
      </trkpt>
      <trkpt lat="46.91752" lon="8.65243">
        <ele>1205</ele>
        <time>2021-08-07T10:51:01.437Z</time>
      </trkpt>
      <trkpt lat="46.91752" lon="8.65241">
        <ele>1205</ele>
        <time>2021-08-07T10:51:02.438Z</time>
      </trkpt>
      <trkpt lat="46.91752" lon="8.65238">
        <ele>1204</ele>
        <time>2021-08-07T10:51:03.437Z</time>
      </trkpt>
      <trkpt lat="46.91752" lon="8.65237">
        <ele>1204</ele>
        <time>2021-08-07T10:51:04.437Z</time>
      </trkpt>
      <trkpt lat="46.91752" lon="8.65235">
        <ele>1203</ele>
        <time>2021-08-07T10:51:05.438Z</time>
      </trkpt>
      <trkpt lat="46.91753" lon="8.65233">
        <ele>1203</ele>
        <time>2021-08-07T10:51:06.438Z</time>
      </trkpt>
      <trkpt lat="46.91753" lon="8.65231">
        <ele>1203</ele>
        <time>2021-08-07T10:51:07.437Z</time>
      </trkpt>
      <trkpt lat="46.91752" lon="8.65229">
        <ele>1202</ele>
        <time>2021-08-07T10:51:08.437Z</time>
      </trkpt>
      <trkpt lat="46.91752" lon="8.65228">
        <ele>1202</ele>
        <time>2021-08-07T10:51:09.437Z</time>
      </trkpt>
      <trkpt lat="46.91752" lon="8.65226">
        <ele>1201</ele>
        <time>2021-08-07T10:51:10.437Z</time>
      </trkpt>
      <trkpt lat="46.91751" lon="8.65225">
        <ele>1201</ele>
        <time>2021-08-07T10:51:11.437Z</time>
      </trkpt>
      <trkpt lat="46.9175" lon="8.65223">
        <ele>1200</ele>
        <time>2021-08-07T10:51:12.437Z</time>
      </trkpt>
      <trkpt lat="46.91749" lon="8.65221">
        <ele>1199</ele>
        <time>2021-08-07T10:51:13.437Z</time>
      </trkpt>
      <trkpt lat="46.91748" lon="8.6522">
        <ele>1199</ele>
        <time>2021-08-07T10:51:14.437Z</time>
      </trkpt>
      <trkpt lat="46.91748" lon="8.65218">
        <ele>1198</ele>
        <time>2021-08-07T10:51:15.437Z</time>
      </trkpt>
      <trkpt lat="46.91747" lon="8.65217">
        <ele>1198</ele>
        <time>2021-08-07T10:51:16.437Z</time>
      </trkpt>
      <trkpt lat="46.91746" lon="8.65216">
        <ele>1198</ele>
        <time>2021-08-07T10:51:17.437Z</time>
      </trkpt>
      <trkpt lat="46.91745" lon="8.65215">
        <ele>1198</ele>
        <time>2021-08-07T10:51:18.437Z</time>
      </trkpt>
      <trkpt lat="46.91744" lon="8.65214">
        <ele>1198</ele>
        <time>2021-08-07T10:51:19.438Z</time>
      </trkpt>
      <trkpt lat="46.91743" lon="8.65213">
        <ele>1198</ele>
        <time>2021-08-07T10:51:20.437Z</time>
      </trkpt>
      <trkpt lat="46.91742" lon="8.65212">
        <ele>1198</ele>
        <time>2021-08-07T10:51:21.437Z</time>
      </trkpt>
      <trkpt lat="46.91741" lon="8.65211">
        <ele>1198</ele>
        <time>2021-08-07T10:51:22.437Z</time>
      </trkpt>
      <trkpt lat="46.9174" lon="8.65211">
        <ele>1198</ele>
        <time>2021-08-07T10:51:23.437Z</time>
      </trkpt>
      <trkpt lat="46.91739" lon="8.6521">
        <ele>1198</ele>
        <time>2021-08-07T10:51:24.437Z</time>
      </trkpt>
      <trkpt lat="46.91738" lon="8.6521">
        <ele>1197</ele>
        <time>2021-08-07T10:51:25.438Z</time>
      </trkpt>
      <trkpt lat="46.91737" lon="8.6521">
        <ele>1197</ele>
        <time>2021-08-07T10:51:26.437Z</time>
      </trkpt>
      <trkpt lat="46.91736" lon="8.65209">
        <ele>1197</ele>
        <time>2021-08-07T10:51:27.437Z</time>
      </trkpt>
      <trkpt lat="46.91735" lon="8.65208">
        <ele>1198</ele>
        <time>2021-08-07T10:51:28.437Z</time>
      </trkpt>
      <trkpt lat="46.91734" lon="8.65207">
        <ele>1199</ele>
        <time>2021-08-07T10:51:29.438Z</time>
      </trkpt>
      <trkpt lat="46.91733" lon="8.65206">
        <ele>1199</ele>
        <time>2021-08-07T10:51:30.438Z</time>
      </trkpt>
      <trkpt lat="46.91732" lon="8.65205">
        <ele>1199</ele>
        <time>2021-08-07T10:51:31.437Z</time>
      </trkpt>
      <trkpt lat="46.91731" lon="8.65202">
        <ele>1199</ele>
        <time>2021-08-07T10:51:32.437Z</time>
      </trkpt>
      <trkpt lat="46.91731" lon="8.652">
        <ele>1199</ele>
        <time>2021-08-07T10:51:33.437Z</time>
      </trkpt>
      <trkpt lat="46.91731" lon="8.65199">
        <ele>1199</ele>
        <time>2021-08-07T10:51:34.438Z</time>
      </trkpt>
      <trkpt lat="46.91731" lon="8.65199">
        <ele>1199</ele>
        <time>2021-08-07T10:51:35.438Z</time>
      </trkpt>
      <trkpt lat="46.91731" lon="8.65198">
        <ele>1199</ele>
        <time>2021-08-07T10:51:36.437Z</time>
      </trkpt>
      <trkpt lat="46.9173" lon="8.65196">
        <ele>1199</ele>
        <time>2021-08-07T10:51:37.437Z</time>
      </trkpt>
      <trkpt lat="46.9173" lon="8.65194">
        <ele>1199</ele>
        <time>2021-08-07T10:51:38.437Z</time>
      </trkpt>
      <trkpt lat="46.9173" lon="8.65194">
        <ele>1199</ele>
        <time>2021-08-07T10:51:39.438Z</time>
      </trkpt>
      <trkpt lat="46.91731" lon="8.65194">
        <ele>1199</ele>
        <time>2021-08-07T10:51:40.437Z</time>
      </trkpt>
      <trkpt lat="46.91728" lon="8.65193">
        <ele>1198</ele>
        <time>2021-08-07T10:51:41.438Z</time>
      </trkpt>
      <trkpt lat="46.91728" lon="8.65192">
        <ele>1198</ele>
        <time>2021-08-07T10:51:42.438Z</time>
      </trkpt>
      <trkpt lat="46.91727" lon="8.65191">
        <ele>1197</ele>
        <time>2021-08-07T10:51:43.438Z</time>
      </trkpt>
      <trkpt lat="46.91726" lon="8.6519">
        <ele>1197</ele>
        <time>2021-08-07T10:51:44.438Z</time>
      </trkpt>
      <trkpt lat="46.91725" lon="8.65188">
        <ele>1197</ele>
        <time>2021-08-07T10:51:45.437Z</time>
      </trkpt>
      <trkpt lat="46.91725" lon="8.65186">
        <ele>1197</ele>
        <time>2021-08-07T10:51:46.438Z</time>
      </trkpt>
      <trkpt lat="46.91724" lon="8.65184">
        <ele>1197</ele>
        <time>2021-08-07T10:51:47.438Z</time>
      </trkpt>
      <trkpt lat="46.91724" lon="8.65183">
        <ele>1197</ele>
        <time>2021-08-07T10:51:48.437Z</time>
      </trkpt>
      <trkpt lat="46.91723" lon="8.65181">
        <ele>1196</ele>
        <time>2021-08-07T10:51:49.437Z</time>
      </trkpt>
      <trkpt lat="46.91722" lon="8.6518">
        <ele>1196</ele>
        <time>2021-08-07T10:51:58.469Z</time>
      </trkpt>
      <trkpt lat="46.91722" lon="8.6518">
        <ele>1196</ele>
        <time>2021-08-07T10:51:59.469Z</time>
      </trkpt>
      <trkpt lat="46.91725" lon="8.6518">
        <ele>1194</ele>
        <time>2021-08-07T10:52:00.469Z</time>
      </trkpt>
      <trkpt lat="46.91725" lon="8.6518">
        <ele>1194</ele>
        <time>2021-08-07T10:52:01.470Z</time>
      </trkpt>
      <trkpt lat="46.91726" lon="8.6518">
        <ele>1194</ele>
        <time>2021-08-07T10:52:02.470Z</time>
      </trkpt>
      <trkpt lat="46.91725" lon="8.6518">
        <ele>1194</ele>
        <time>2021-08-07T10:52:03.471Z</time>
      </trkpt>
      <trkpt lat="46.91725" lon="8.65179">
        <ele>1194</ele>
        <time>2021-08-07T10:52:04.472Z</time>
      </trkpt>
      <trkpt lat="46.91724" lon="8.65177">
        <ele>1194</ele>
        <time>2021-08-07T10:52:05.472Z</time>
      </trkpt>
      <trkpt lat="46.91723" lon="8.65176">
        <ele>1195</ele>
        <time>2021-08-07T10:52:06.471Z</time>
      </trkpt>
      <trkpt lat="46.91723" lon="8.65174">
        <ele>1195</ele>
        <time>2021-08-07T10:52:07.471Z</time>
      </trkpt>
      <trkpt lat="46.91722" lon="8.65172">
        <ele>1195</ele>
        <time>2021-08-07T10:52:08.471Z</time>
      </trkpt>
      <trkpt lat="46.91721" lon="8.6517">
        <ele>1195</ele>
        <time>2021-08-07T10:52:09.472Z</time>
      </trkpt>
      <trkpt lat="46.91721" lon="8.65169">
        <ele>1195</ele>
        <time>2021-08-07T10:52:10.471Z</time>
      </trkpt>
      <trkpt lat="46.9172" lon="8.65167">
        <ele>1195</ele>
        <time>2021-08-07T10:52:11.471Z</time>
      </trkpt>
      <trkpt lat="46.9172" lon="8.65165">
        <ele>1196</ele>
        <time>2021-08-07T10:52:12.471Z</time>
      </trkpt>
      <trkpt lat="46.91719" lon="8.65164">
        <ele>1196</ele>
        <time>2021-08-07T10:52:13.471Z</time>
      </trkpt>
      <trkpt lat="46.91718" lon="8.65162">
        <ele>1196</ele>
        <time>2021-08-07T10:52:14.471Z</time>
      </trkpt>
      <trkpt lat="46.91717" lon="8.6516">
        <ele>1196</ele>
        <time>2021-08-07T10:52:15.471Z</time>
      </trkpt>
      <trkpt lat="46.91717" lon="8.65158">
        <ele>1197</ele>
        <time>2021-08-07T10:52:16.471Z</time>
      </trkpt>
      <trkpt lat="46.91716" lon="8.65157">
        <ele>1197</ele>
        <time>2021-08-07T10:52:17.471Z</time>
      </trkpt>
      <trkpt lat="46.91715" lon="8.65154">
        <ele>1197</ele>
        <time>2021-08-07T10:52:18.472Z</time>
      </trkpt>
      <trkpt lat="46.91715" lon="8.65153">
        <ele>1197</ele>
        <time>2021-08-07T10:52:19.471Z</time>
      </trkpt>
      <trkpt lat="46.91714" lon="8.65152">
        <ele>1197</ele>
        <time>2021-08-07T10:52:20.471Z</time>
      </trkpt>
      <trkpt lat="46.91713" lon="8.65151">
        <ele>1196</ele>
        <time>2021-08-07T10:52:21.472Z</time>
      </trkpt>
      <trkpt lat="46.91713" lon="8.65151">
        <ele>1196</ele>
        <time>2021-08-07T10:52:22.471Z</time>
      </trkpt>
      <trkpt lat="46.91712" lon="8.6515">
        <ele>1196</ele>
        <time>2021-08-07T10:52:23.471Z</time>
      </trkpt>
      <trkpt lat="46.91712" lon="8.65149">
        <ele>1196</ele>
        <time>2021-08-07T10:52:24.471Z</time>
      </trkpt>
      <trkpt lat="46.91711" lon="8.65148">
        <ele>1195</ele>
        <time>2021-08-07T10:52:25.471Z</time>
      </trkpt>
      <trkpt lat="46.9171" lon="8.65147">
        <ele>1195</ele>
        <time>2021-08-07T10:52:26.471Z</time>
      </trkpt>
      <trkpt lat="46.91709" lon="8.65146">
        <ele>1195</ele>
        <time>2021-08-07T10:52:27.471Z</time>
      </trkpt>
      <trkpt lat="46.91709" lon="8.65144">
        <ele>1194</ele>
        <time>2021-08-07T10:52:28.471Z</time>
      </trkpt>
      <trkpt lat="46.91708" lon="8.65143">
        <ele>1194</ele>
        <time>2021-08-07T10:52:29.471Z</time>
      </trkpt>
      <trkpt lat="46.91707" lon="8.65142">
        <ele>1194</ele>
        <time>2021-08-07T10:52:30.471Z</time>
      </trkpt>
      <trkpt lat="46.91706" lon="8.65141">
        <ele>1194</ele>
        <time>2021-08-07T10:52:31.471Z</time>
      </trkpt>
      <trkpt lat="46.91705" lon="8.6514">
        <ele>1194</ele>
        <time>2021-08-07T10:52:32.471Z</time>
      </trkpt>
      <trkpt lat="46.91704" lon="8.65138">
        <ele>1194</ele>
        <time>2021-08-07T10:52:33.471Z</time>
      </trkpt>
      <trkpt lat="46.91704" lon="8.65137">
        <ele>1194</ele>
        <time>2021-08-07T10:52:34.471Z</time>
      </trkpt>
      <trkpt lat="46.91703" lon="8.65136">
        <ele>1194</ele>
        <time>2021-08-07T10:52:35.471Z</time>
      </trkpt>
      <trkpt lat="46.91702" lon="8.65134">
        <ele>1194</ele>
        <time>2021-08-07T10:52:36.471Z</time>
      </trkpt>
      <trkpt lat="46.91701" lon="8.65132">
        <ele>1194</ele>
        <time>2021-08-07T10:52:37.471Z</time>
      </trkpt>
      <trkpt lat="46.91701" lon="8.65131">
        <ele>1195</ele>
        <time>2021-08-07T10:52:38.471Z</time>
      </trkpt>
      <trkpt lat="46.917" lon="8.6513">
        <ele>1195</ele>
        <time>2021-08-07T10:52:39.471Z</time>
      </trkpt>
      <trkpt lat="46.917" lon="8.65129">
        <ele>1195</ele>
        <time>2021-08-07T10:52:40.472Z</time>
      </trkpt>
      <trkpt lat="46.917" lon="8.65129">
        <ele>1195</ele>
        <time>2021-08-07T10:52:41.471Z</time>
      </trkpt>
      <trkpt lat="46.91699" lon="8.65129">
        <ele>1194</ele>
        <time>2021-08-07T10:52:42.471Z</time>
      </trkpt>
      <trkpt lat="46.91699" lon="8.65126">
        <ele>1193</ele>
        <time>2021-08-07T10:52:43.471Z</time>
      </trkpt>
      <trkpt lat="46.91698" lon="8.65125">
        <ele>1193</ele>
        <time>2021-08-07T10:52:44.472Z</time>
      </trkpt>
      <trkpt lat="46.91697" lon="8.65124">
        <ele>1193</ele>
        <time>2021-08-07T10:52:45.471Z</time>
      </trkpt>
      <trkpt lat="46.91697" lon="8.65122">
        <ele>1194</ele>
        <time>2021-08-07T10:52:46.471Z</time>
      </trkpt>
      <trkpt lat="46.91696" lon="8.6512">
        <ele>1194</ele>
        <time>2021-08-07T10:52:48.552Z</time>
      </trkpt>
      <trkpt lat="46.91695" lon="8.65118">
        <ele>1194</ele>
        <time>2021-08-07T10:52:49.552Z</time>
      </trkpt>
      <trkpt lat="46.91694" lon="8.65116">
        <ele>1194</ele>
        <time>2021-08-07T10:52:50.553Z</time>
      </trkpt>
      <trkpt lat="46.91693" lon="8.65115">
        <ele>1194</ele>
        <time>2021-08-07T10:52:51.553Z</time>
      </trkpt>
      <trkpt lat="46.91692" lon="8.65113">
        <ele>1193</ele>
        <time>2021-08-07T10:52:52.552Z</time>
      </trkpt>
      <trkpt lat="46.91692" lon="8.65112">
        <ele>1193</ele>
        <time>2021-08-07T10:52:53.552Z</time>
      </trkpt>
      <trkpt lat="46.91691" lon="8.65111">
        <ele>1193</ele>
        <time>2021-08-07T10:52:54.552Z</time>
      </trkpt>
      <trkpt lat="46.91691" lon="8.6511">
        <ele>1192</ele>
        <time>2021-08-07T10:52:55.552Z</time>
      </trkpt>
      <trkpt lat="46.91692" lon="8.65111">
        <ele>1192</ele>
        <time>2021-08-07T10:52:56.552Z</time>
      </trkpt>
      <trkpt lat="46.91692" lon="8.65111">
        <ele>1192</ele>
        <time>2021-08-07T10:52:57.553Z</time>
      </trkpt>
      <trkpt lat="46.91692" lon="8.65111">
        <ele>1192</ele>
        <time>2021-08-07T10:52:58.552Z</time>
      </trkpt>
      <trkpt lat="46.91692" lon="8.65111">
        <ele>1192</ele>
        <time>2021-08-07T10:52:59.552Z</time>
      </trkpt>
      <trkpt lat="46.91692" lon="8.65109">
        <ele>1192</ele>
        <time>2021-08-07T10:53:00.552Z</time>
      </trkpt>
      <trkpt lat="46.91691" lon="8.65108">
        <ele>1192</ele>
        <time>2021-08-07T10:53:01.552Z</time>
      </trkpt>
      <trkpt lat="46.91691" lon="8.65107">
        <ele>1191</ele>
        <time>2021-08-07T10:53:02.552Z</time>
      </trkpt>
      <trkpt lat="46.9169" lon="8.65106">
        <ele>1190</ele>
        <time>2021-08-07T10:53:03.552Z</time>
      </trkpt>
      <trkpt lat="46.91689" lon="8.65105">
        <ele>1189</ele>
        <time>2021-08-07T10:53:04.552Z</time>
      </trkpt>
      <trkpt lat="46.91689" lon="8.65104">
        <ele>1189</ele>
        <time>2021-08-07T10:53:05.552Z</time>
      </trkpt>
      <trkpt lat="46.91689" lon="8.65102">
        <ele>1189</ele>
        <time>2021-08-07T10:53:06.552Z</time>
      </trkpt>
      <trkpt lat="46.91688" lon="8.65101">
        <ele>1188</ele>
        <time>2021-08-07T10:53:07.552Z</time>
      </trkpt>
      <trkpt lat="46.91687" lon="8.651">
        <ele>1188</ele>
        <time>2021-08-07T10:53:08.552Z</time>
      </trkpt>
      <trkpt lat="46.91687" lon="8.651">
        <ele>1188</ele>
        <time>2021-08-07T10:53:09.552Z</time>
      </trkpt>
      <trkpt lat="46.91686" lon="8.651">
        <ele>1188</ele>
        <time>2021-08-07T10:53:10.552Z</time>
      </trkpt>
      <trkpt lat="46.91687" lon="8.65099">
        <ele>1188</ele>
        <time>2021-08-07T10:53:11.552Z</time>
      </trkpt>
      <trkpt lat="46.91686" lon="8.651">
        <ele>1187</ele>
        <time>2021-08-07T10:53:12.552Z</time>
      </trkpt>
      <trkpt lat="46.91687" lon="8.65102">
        <ele>1186</ele>
        <time>2021-08-07T10:53:13.552Z</time>
      </trkpt>
      <trkpt lat="46.91686" lon="8.65102">
        <ele>1186</ele>
        <time>2021-08-07T10:53:14.552Z</time>
      </trkpt>
      <trkpt lat="46.91687" lon="8.65103">
        <ele>1186</ele>
        <time>2021-08-07T10:53:15.552Z</time>
      </trkpt>
      <trkpt lat="46.91688" lon="8.65102">
        <ele>1186</ele>
        <time>2021-08-07T10:53:16.552Z</time>
      </trkpt>
      <trkpt lat="46.91689" lon="8.65102">
        <ele>1186</ele>
        <time>2021-08-07T10:53:17.552Z</time>
      </trkpt>
      <trkpt lat="46.9169" lon="8.65102">
        <ele>1185</ele>
        <time>2021-08-07T10:53:18.552Z</time>
      </trkpt>
      <trkpt lat="46.9169" lon="8.65101">
        <ele>1185</ele>
        <time>2021-08-07T10:53:19.552Z</time>
      </trkpt>
      <trkpt lat="46.91691" lon="8.65102">
        <ele>1186</ele>
        <time>2021-08-07T10:53:20.553Z</time>
      </trkpt>
      <trkpt lat="46.91692" lon="8.65101">
        <ele>1186</ele>
        <time>2021-08-07T10:53:21.552Z</time>
      </trkpt>
      <trkpt lat="46.91693" lon="8.65101">
        <ele>1186</ele>
        <time>2021-08-07T10:53:22.552Z</time>
      </trkpt>
      <trkpt lat="46.91692" lon="8.65102">
        <ele>1186</ele>
        <time>2021-08-07T10:53:23.552Z</time>
      </trkpt>
      <trkpt lat="46.91692" lon="8.65102">
        <ele>1186</ele>
        <time>2021-08-07T10:53:24.552Z</time>
      </trkpt>
      <trkpt lat="46.91691" lon="8.65101">
        <ele>1185</ele>
        <time>2021-08-07T10:53:25.553Z</time>
      </trkpt>
      <trkpt lat="46.9169" lon="8.651">
        <ele>1185</ele>
        <time>2021-08-07T10:53:26.552Z</time>
      </trkpt>
      <trkpt lat="46.91689" lon="8.65099">
        <ele>1185</ele>
        <time>2021-08-07T10:53:27.553Z</time>
      </trkpt>
      <trkpt lat="46.91689" lon="8.65098">
        <ele>1185</ele>
        <time>2021-08-07T10:53:28.552Z</time>
      </trkpt>
      <trkpt lat="46.91688" lon="8.65097">
        <ele>1185</ele>
        <time>2021-08-07T10:53:29.553Z</time>
      </trkpt>
      <trkpt lat="46.91688" lon="8.65097">
        <ele>1185</ele>
        <time>2021-08-07T10:53:30.553Z</time>
      </trkpt>
      <trkpt lat="46.91688" lon="8.65097">
        <ele>1185</ele>
        <time>2021-08-07T10:53:31.553Z</time>
      </trkpt>
      <trkpt lat="46.91688" lon="8.65098">
        <ele>1185</ele>
        <time>2021-08-07T10:53:32.553Z</time>
      </trkpt>
      <trkpt lat="46.91687" lon="8.65098">
        <ele>1185</ele>
        <time>2021-08-07T10:53:33.553Z</time>
      </trkpt>
      <trkpt lat="46.91687" lon="8.65098">
        <ele>1185</ele>
        <time>2021-08-07T10:53:34.553Z</time>
      </trkpt>
      <trkpt lat="46.91686" lon="8.65098">
        <ele>1185</ele>
        <time>2021-08-07T10:53:35.553Z</time>
      </trkpt>
      <trkpt lat="46.91686" lon="8.65098">
        <ele>1184</ele>
        <time>2021-08-07T10:53:36.552Z</time>
      </trkpt>
      <trkpt lat="46.91686" lon="8.65098">
        <ele>1184</ele>
        <time>2021-08-07T10:53:37.553Z</time>
      </trkpt>
      <trkpt lat="46.91685" lon="8.65098">
        <ele>1183</ele>
        <time>2021-08-07T10:53:38.553Z</time>
      </trkpt>
      <trkpt lat="46.91684" lon="8.65097">
        <ele>1183</ele>
        <time>2021-08-07T10:53:39.553Z</time>
      </trkpt>
      <trkpt lat="46.91684" lon="8.65096">
        <ele>1183</ele>
        <time>2021-08-07T10:53:40.553Z</time>
      </trkpt>
      <trkpt lat="46.91683" lon="8.65095">
        <ele>1183</ele>
        <time>2021-08-07T10:53:41.552Z</time>
      </trkpt>
      <trkpt lat="46.91683" lon="8.65095">
        <ele>1183</ele>
        <time>2021-08-07T10:53:42.553Z</time>
      </trkpt>
      <trkpt lat="46.9168" lon="8.65093">
        <ele>1183</ele>
        <time>2021-08-07T10:53:43.553Z</time>
      </trkpt>
      <trkpt lat="46.91678" lon="8.65092">
        <ele>1183</ele>
        <time>2021-08-07T10:53:44.553Z</time>
      </trkpt>
      <trkpt lat="46.91677" lon="8.65091">
        <ele>1183</ele>
        <time>2021-08-07T10:53:45.552Z</time>
      </trkpt>
      <trkpt lat="46.91676" lon="8.6509">
        <ele>1183</ele>
        <time>2021-08-07T10:53:46.552Z</time>
      </trkpt>
      <trkpt lat="46.91675" lon="8.65089">
        <ele>1183</ele>
        <time>2021-08-07T10:53:47.553Z</time>
      </trkpt>
      <trkpt lat="46.91673" lon="8.65089">
        <ele>1182</ele>
        <time>2021-08-07T10:53:48.553Z</time>
      </trkpt>
      <trkpt lat="46.91672" lon="8.65088">
        <ele>1182</ele>
        <time>2021-08-07T10:53:49.553Z</time>
      </trkpt>
      <trkpt lat="46.9167" lon="8.65088">
        <ele>1182</ele>
        <time>2021-08-07T10:53:50.553Z</time>
      </trkpt>
      <trkpt lat="46.91669" lon="8.65088">
        <ele>1182</ele>
        <time>2021-08-07T10:53:51.553Z</time>
      </trkpt>
      <trkpt lat="46.91668" lon="8.65087">
        <ele>1182</ele>
        <time>2021-08-07T10:53:52.552Z</time>
      </trkpt>
      <trkpt lat="46.91668" lon="8.65086">
        <ele>1182</ele>
        <time>2021-08-07T10:53:53.553Z</time>
      </trkpt>
      <trkpt lat="46.91668" lon="8.65086">
        <ele>1182</ele>
        <time>2021-08-07T10:53:54.553Z</time>
      </trkpt>
      <trkpt lat="46.91668" lon="8.65085">
        <ele>1182</ele>
        <time>2021-08-07T10:53:55.552Z</time>
      </trkpt>
      <trkpt lat="46.91667" lon="8.65085">
        <ele>1182</ele>
        <time>2021-08-07T10:53:56.553Z</time>
      </trkpt>
      <trkpt lat="46.91666" lon="8.65085">
        <ele>1182</ele>
        <time>2021-08-07T10:53:57.553Z</time>
      </trkpt>
      <trkpt lat="46.91665" lon="8.65085">
        <ele>1182</ele>
        <time>2021-08-07T10:53:58.553Z</time>
      </trkpt>
      <trkpt lat="46.91663" lon="8.65084">
        <ele>1182</ele>
        <time>2021-08-07T10:53:59.552Z</time>
      </trkpt>
      <trkpt lat="46.91662" lon="8.65083">
        <ele>1181</ele>
        <time>2021-08-07T10:54:00.553Z</time>
      </trkpt>
      <trkpt lat="46.91661" lon="8.65084">
        <ele>1181</ele>
        <time>2021-08-07T10:54:01.553Z</time>
      </trkpt>
      <trkpt lat="46.9166" lon="8.65084">
        <ele>1181</ele>
        <time>2021-08-07T10:54:02.553Z</time>
      </trkpt>
      <trkpt lat="46.91659" lon="8.65085">
        <ele>1180</ele>
        <time>2021-08-07T10:54:03.553Z</time>
      </trkpt>
      <trkpt lat="46.91658" lon="8.65085">
        <ele>1180</ele>
        <time>2021-08-07T10:54:04.552Z</time>
      </trkpt>
      <trkpt lat="46.91658" lon="8.65085">
        <ele>1179</ele>
        <time>2021-08-07T10:54:05.552Z</time>
      </trkpt>
      <trkpt lat="46.91658" lon="8.65085">
        <ele>1179</ele>
        <time>2021-08-07T10:54:06.552Z</time>
      </trkpt>
      <trkpt lat="46.91658" lon="8.65085">
        <ele>1179</ele>
        <time>2021-08-07T10:54:07.552Z</time>
      </trkpt>
      <trkpt lat="46.91658" lon="8.65084">
        <ele>1179</ele>
        <time>2021-08-07T10:54:08.552Z</time>
      </trkpt>
      <trkpt lat="46.91657" lon="8.65085">
        <ele>1179</ele>
        <time>2021-08-07T10:54:09.553Z</time>
      </trkpt>
      <trkpt lat="46.91657" lon="8.65085">
        <ele>1178</ele>
        <time>2021-08-07T10:54:10.552Z</time>
      </trkpt>
      <trkpt lat="46.91656" lon="8.65085">
        <ele>1178</ele>
        <time>2021-08-07T10:54:11.552Z</time>
      </trkpt>
      <trkpt lat="46.91655" lon="8.65085">
        <ele>1177</ele>
        <time>2021-08-07T10:54:12.552Z</time>
      </trkpt>
      <trkpt lat="46.91653" lon="8.65086">
        <ele>1177</ele>
        <time>2021-08-07T10:54:13.552Z</time>
      </trkpt>
      <trkpt lat="46.91652" lon="8.65086">
        <ele>1177</ele>
        <time>2021-08-07T10:54:14.552Z</time>
      </trkpt>
      <trkpt lat="46.91651" lon="8.65086">
        <ele>1177</ele>
        <time>2021-08-07T10:54:15.553Z</time>
      </trkpt>
      <trkpt lat="46.9165" lon="8.65086">
        <ele>1177</ele>
        <time>2021-08-07T10:54:16.553Z</time>
      </trkpt>
      <trkpt lat="46.91649" lon="8.65086">
        <ele>1177</ele>
        <time>2021-08-07T10:54:17.553Z</time>
      </trkpt>
      <trkpt lat="46.91648" lon="8.65086">
        <ele>1177</ele>
        <time>2021-08-07T10:54:18.552Z</time>
      </trkpt>
      <trkpt lat="46.91648" lon="8.65086">
        <ele>1176</ele>
        <time>2021-08-07T10:54:19.553Z</time>
      </trkpt>
      <trkpt lat="46.91647" lon="8.65085">
        <ele>1177</ele>
        <time>2021-08-07T10:54:20.553Z</time>
      </trkpt>
      <trkpt lat="46.91646" lon="8.65085">
        <ele>1176</ele>
        <time>2021-08-07T10:54:21.553Z</time>
      </trkpt>
      <trkpt lat="46.91645" lon="8.65086">
        <ele>1176</ele>
        <time>2021-08-07T10:54:32.755Z</time>
      </trkpt>
      <trkpt lat="46.91644" lon="8.65086">
        <ele>1176</ele>
        <time>2021-08-07T10:54:33.755Z</time>
      </trkpt>
      <trkpt lat="46.91643" lon="8.65086">
        <ele>1176</ele>
        <time>2021-08-07T10:54:34.756Z</time>
      </trkpt>
      <trkpt lat="46.91643" lon="8.65086">
        <ele>1176</ele>
        <time>2021-08-07T10:54:35.756Z</time>
      </trkpt>
      <trkpt lat="46.91642" lon="8.65086">
        <ele>1176</ele>
        <time>2021-08-07T10:54:36.755Z</time>
      </trkpt>
      <trkpt lat="46.91642" lon="8.65086">
        <ele>1176</ele>
        <time>2021-08-07T10:54:37.756Z</time>
      </trkpt>
      <trkpt lat="46.91641" lon="8.65086">
        <ele>1177</ele>
        <time>2021-08-07T10:54:38.756Z</time>
      </trkpt>
      <trkpt lat="46.9164" lon="8.65087">
        <ele>1177</ele>
        <time>2021-08-07T10:54:39.756Z</time>
      </trkpt>
      <trkpt lat="46.91639" lon="8.65088">
        <ele>1177</ele>
        <time>2021-08-07T10:54:40.755Z</time>
      </trkpt>
      <trkpt lat="46.91637" lon="8.65088">
        <ele>1177</ele>
        <time>2021-08-07T10:54:41.755Z</time>
      </trkpt>
      <trkpt lat="46.91636" lon="8.65088">
        <ele>1177</ele>
        <time>2021-08-07T10:54:42.755Z</time>
      </trkpt>
      <trkpt lat="46.91635" lon="8.65087">
        <ele>1177</ele>
        <time>2021-08-07T10:54:43.756Z</time>
      </trkpt>
      <trkpt lat="46.91634" lon="8.65087">
        <ele>1178</ele>
        <time>2021-08-07T10:54:44.756Z</time>
      </trkpt>
      <trkpt lat="46.91633" lon="8.65086">
        <ele>1178</ele>
        <time>2021-08-07T10:54:45.755Z</time>
      </trkpt>
      <trkpt lat="46.91631" lon="8.65086">
        <ele>1178</ele>
        <time>2021-08-07T10:54:46.755Z</time>
      </trkpt>
      <trkpt lat="46.9163" lon="8.65087">
        <ele>1178</ele>
        <time>2021-08-07T10:54:47.755Z</time>
      </trkpt>
      <trkpt lat="46.91628" lon="8.65087">
        <ele>1178</ele>
        <time>2021-08-07T10:54:48.756Z</time>
      </trkpt>
      <trkpt lat="46.91627" lon="8.65087">
        <ele>1177</ele>
        <time>2021-08-07T10:54:49.755Z</time>
      </trkpt>
      <trkpt lat="46.91626" lon="8.65086">
        <ele>1177</ele>
        <time>2021-08-07T10:54:50.756Z</time>
      </trkpt>
      <trkpt lat="46.91625" lon="8.65085">
        <ele>1177</ele>
        <time>2021-08-07T10:54:51.756Z</time>
      </trkpt>
      <trkpt lat="46.91624" lon="8.65084">
        <ele>1177</ele>
        <time>2021-08-07T10:54:52.756Z</time>
      </trkpt>
      <trkpt lat="46.91623" lon="8.65084">
        <ele>1176</ele>
        <time>2021-08-07T10:54:53.756Z</time>
      </trkpt>
      <trkpt lat="46.91622" lon="8.65084">
        <ele>1176</ele>
        <time>2021-08-07T10:54:54.756Z</time>
      </trkpt>
      <trkpt lat="46.91621" lon="8.65084">
        <ele>1175</ele>
        <time>2021-08-07T10:54:55.756Z</time>
      </trkpt>
      <trkpt lat="46.91621" lon="8.65085">
        <ele>1175</ele>
        <time>2021-08-07T10:54:56.756Z</time>
      </trkpt>
      <trkpt lat="46.9162" lon="8.65085">
        <ele>1174</ele>
        <time>2021-08-07T10:54:57.755Z</time>
      </trkpt>
      <trkpt lat="46.91619" lon="8.65085">
        <ele>1174</ele>
        <time>2021-08-07T10:54:58.756Z</time>
      </trkpt>
      <trkpt lat="46.91619" lon="8.65085">
        <ele>1173</ele>
        <time>2021-08-07T10:54:59.755Z</time>
      </trkpt>
      <trkpt lat="46.91618" lon="8.65085">
        <ele>1173</ele>
        <time>2021-08-07T10:55:00.756Z</time>
      </trkpt>
      <trkpt lat="46.91616" lon="8.65084">
        <ele>1173</ele>
        <time>2021-08-07T10:55:01.755Z</time>
      </trkpt>
      <trkpt lat="46.91615" lon="8.65083">
        <ele>1173</ele>
        <time>2021-08-07T10:55:02.756Z</time>
      </trkpt>
      <trkpt lat="46.91614" lon="8.65083">
        <ele>1174</ele>
        <time>2021-08-07T10:55:03.755Z</time>
      </trkpt>
      <trkpt lat="46.91612" lon="8.65083">
        <ele>1174</ele>
        <time>2021-08-07T10:55:04.755Z</time>
      </trkpt>
      <trkpt lat="46.91612" lon="8.65083">
        <ele>1174</ele>
        <time>2021-08-07T10:55:05.756Z</time>
      </trkpt>
      <trkpt lat="46.91611" lon="8.65084">
        <ele>1173</ele>
        <time>2021-08-07T10:55:06.756Z</time>
      </trkpt>
      <trkpt lat="46.9161" lon="8.65084">
        <ele>1173</ele>
        <time>2021-08-07T10:55:07.756Z</time>
      </trkpt>
      <trkpt lat="46.91609" lon="8.65084">
        <ele>1173</ele>
        <time>2021-08-07T10:55:08.755Z</time>
      </trkpt>
      <trkpt lat="46.91608" lon="8.65084">
        <ele>1173</ele>
        <time>2021-08-07T10:55:09.756Z</time>
      </trkpt>
      <trkpt lat="46.91606" lon="8.65083">
        <ele>1173</ele>
        <time>2021-08-07T10:55:10.756Z</time>
      </trkpt>
      <trkpt lat="46.91605" lon="8.65083">
        <ele>1173</ele>
        <time>2021-08-07T10:55:11.755Z</time>
      </trkpt>
      <trkpt lat="46.91603" lon="8.65083">
        <ele>1173</ele>
        <time>2021-08-07T10:55:12.755Z</time>
      </trkpt>
      <trkpt lat="46.91601" lon="8.65083">
        <ele>1173</ele>
        <time>2021-08-07T10:55:13.756Z</time>
      </trkpt>
      <trkpt lat="46.916" lon="8.65084">
        <ele>1172</ele>
        <time>2021-08-07T10:55:14.756Z</time>
      </trkpt>
      <trkpt lat="46.91599" lon="8.65084">
        <ele>1172</ele>
        <time>2021-08-07T10:55:15.756Z</time>
      </trkpt>
      <trkpt lat="46.91597" lon="8.65085">
        <ele>1172</ele>
        <time>2021-08-07T10:55:16.756Z</time>
      </trkpt>
      <trkpt lat="46.91596" lon="8.65085">
        <ele>1172</ele>
        <time>2021-08-07T10:55:17.756Z</time>
      </trkpt>
      <trkpt lat="46.91595" lon="8.65086">
        <ele>1172</ele>
        <time>2021-08-07T10:55:18.756Z</time>
      </trkpt>
      <trkpt lat="46.91594" lon="8.65087">
        <ele>1172</ele>
        <time>2021-08-07T10:55:19.756Z</time>
      </trkpt>
      <trkpt lat="46.91593" lon="8.65087">
        <ele>1172</ele>
        <time>2021-08-07T10:55:20.755Z</time>
      </trkpt>
      <trkpt lat="46.91592" lon="8.65086">
        <ele>1172</ele>
        <time>2021-08-07T10:55:21.756Z</time>
      </trkpt>
      <trkpt lat="46.91591" lon="8.65086">
        <ele>1172</ele>
        <time>2021-08-07T10:55:22.756Z</time>
      </trkpt>
      <trkpt lat="46.9159" lon="8.65086">
        <ele>1172</ele>
        <time>2021-08-07T10:55:23.755Z</time>
      </trkpt>
      <trkpt lat="46.91589" lon="8.65087">
        <ele>1172</ele>
        <time>2021-08-07T10:55:24.755Z</time>
      </trkpt>
      <trkpt lat="46.91588" lon="8.65087">
        <ele>1172</ele>
        <time>2021-08-07T10:55:25.755Z</time>
      </trkpt>
      <trkpt lat="46.91586" lon="8.65088">
        <ele>1172</ele>
        <time>2021-08-07T10:55:26.756Z</time>
      </trkpt>
      <trkpt lat="46.91585" lon="8.65088">
        <ele>1171</ele>
        <time>2021-08-07T10:55:27.756Z</time>
      </trkpt>
      <trkpt lat="46.91584" lon="8.65089">
        <ele>1170</ele>
        <time>2021-08-07T10:55:28.755Z</time>
      </trkpt>
      <trkpt lat="46.91584" lon="8.65089">
        <ele>1170</ele>
        <time>2021-08-07T10:55:29.756Z</time>
      </trkpt>
      <trkpt lat="46.91582" lon="8.6509">
        <ele>1169</ele>
        <time>2021-08-07T10:55:30.755Z</time>
      </trkpt>
      <trkpt lat="46.91581" lon="8.6509">
        <ele>1169</ele>
        <time>2021-08-07T10:55:31.756Z</time>
      </trkpt>
      <trkpt lat="46.9158" lon="8.65091">
        <ele>1168</ele>
        <time>2021-08-07T10:55:32.756Z</time>
      </trkpt>
      <trkpt lat="46.91579" lon="8.65092">
        <ele>1168</ele>
        <time>2021-08-07T10:55:33.756Z</time>
      </trkpt>
      <trkpt lat="46.91578" lon="8.65092">
        <ele>1168</ele>
        <time>2021-08-07T10:55:34.756Z</time>
      </trkpt>
      <trkpt lat="46.91577" lon="8.65093">
        <ele>1167</ele>
        <time>2021-08-07T10:55:35.756Z</time>
      </trkpt>
      <trkpt lat="46.91576" lon="8.65094">
        <ele>1167</ele>
        <time>2021-08-07T10:55:36.756Z</time>
      </trkpt>
      <trkpt lat="46.91575" lon="8.65094">
        <ele>1167</ele>
        <time>2021-08-07T10:55:37.755Z</time>
      </trkpt>
      <trkpt lat="46.91574" lon="8.65095">
        <ele>1167</ele>
        <time>2021-08-07T10:55:38.756Z</time>
      </trkpt>
      <trkpt lat="46.91573" lon="8.65095">
        <ele>1167</ele>
        <time>2021-08-07T10:55:39.756Z</time>
      </trkpt>
      <trkpt lat="46.91572" lon="8.65096">
        <ele>1166</ele>
        <time>2021-08-07T10:55:40.756Z</time>
      </trkpt>
      <trkpt lat="46.91572" lon="8.65095">
        <ele>1166</ele>
        <time>2021-08-07T10:55:41.756Z</time>
      </trkpt>
      <trkpt lat="46.91571" lon="8.65095">
        <ele>1166</ele>
        <time>2021-08-07T10:55:42.756Z</time>
      </trkpt>
      <trkpt lat="46.91569" lon="8.65094">
        <ele>1167</ele>
        <time>2021-08-07T10:55:43.755Z</time>
      </trkpt>
      <trkpt lat="46.91568" lon="8.65094">
        <ele>1167</ele>
        <time>2021-08-07T10:55:44.756Z</time>
      </trkpt>
      <trkpt lat="46.91567" lon="8.65094">
        <ele>1167</ele>
        <time>2021-08-07T10:55:45.755Z</time>
      </trkpt>
      <trkpt lat="46.91566" lon="8.65095">
        <ele>1167</ele>
        <time>2021-08-07T10:55:46.755Z</time>
      </trkpt>
      <trkpt lat="46.91565" lon="8.65096">
        <ele>1167</ele>
        <time>2021-08-07T10:55:47.755Z</time>
      </trkpt>
      <trkpt lat="46.91564" lon="8.65096">
        <ele>1167</ele>
        <time>2021-08-07T10:55:48.755Z</time>
      </trkpt>
      <trkpt lat="46.91563" lon="8.65096">
        <ele>1167</ele>
        <time>2021-08-07T10:55:49.756Z</time>
      </trkpt>
      <trkpt lat="46.91562" lon="8.65097">
        <ele>1166</ele>
        <time>2021-08-07T10:55:50.755Z</time>
      </trkpt>
      <trkpt lat="46.91561" lon="8.65097">
        <ele>1165</ele>
        <time>2021-08-07T10:55:51.756Z</time>
      </trkpt>
      <trkpt lat="46.91559" lon="8.65097">
        <ele>1165</ele>
        <time>2021-08-07T10:55:52.756Z</time>
      </trkpt>
      <trkpt lat="46.91558" lon="8.65097">
        <ele>1165</ele>
        <time>2021-08-07T10:55:53.756Z</time>
      </trkpt>
      <trkpt lat="46.91557" lon="8.65097">
        <ele>1164</ele>
        <time>2021-08-07T10:55:54.756Z</time>
      </trkpt>
      <trkpt lat="46.91556" lon="8.65096">
        <ele>1164</ele>
        <time>2021-08-07T10:55:55.755Z</time>
      </trkpt>
      <trkpt lat="46.91555" lon="8.65097">
        <ele>1164</ele>
        <time>2021-08-07T10:55:56.755Z</time>
      </trkpt>
      <trkpt lat="46.91554" lon="8.65097">
        <ele>1164</ele>
        <time>2021-08-07T10:55:57.755Z</time>
      </trkpt>
      <trkpt lat="46.91552" lon="8.65096">
        <ele>1164</ele>
        <time>2021-08-07T10:55:58.756Z</time>
      </trkpt>
      <trkpt lat="46.91551" lon="8.65096">
        <ele>1164</ele>
        <time>2021-08-07T10:55:59.756Z</time>
      </trkpt>
      <trkpt lat="46.9155" lon="8.65097">
        <ele>1164</ele>
        <time>2021-08-07T10:56:00.755Z</time>
      </trkpt>
      <trkpt lat="46.9155" lon="8.65098">
        <ele>1164</ele>
        <time>2021-08-07T10:56:01.756Z</time>
      </trkpt>
      <trkpt lat="46.91549" lon="8.65099">
        <ele>1164</ele>
        <time>2021-08-07T10:56:02.756Z</time>
      </trkpt>
      <trkpt lat="46.91549" lon="8.65101">
        <ele>1164</ele>
        <time>2021-08-07T10:56:03.755Z</time>
      </trkpt>
      <trkpt lat="46.91548" lon="8.65101">
        <ele>1163</ele>
        <time>2021-08-07T10:56:04.756Z</time>
      </trkpt>
      <trkpt lat="46.91547" lon="8.65102">
        <ele>1163</ele>
        <time>2021-08-07T10:56:05.756Z</time>
      </trkpt>
      <trkpt lat="46.91545" lon="8.65102">
        <ele>1163</ele>
        <time>2021-08-07T10:56:06.755Z</time>
      </trkpt>
      <trkpt lat="46.91544" lon="8.65103">
        <ele>1163</ele>
        <time>2021-08-07T10:56:07.755Z</time>
      </trkpt>
      <trkpt lat="46.91543" lon="8.65103">
        <ele>1163</ele>
        <time>2021-08-07T10:56:08.756Z</time>
      </trkpt>
      <trkpt lat="46.91542" lon="8.65103">
        <ele>1162</ele>
        <time>2021-08-07T10:56:09.756Z</time>
      </trkpt>
      <trkpt lat="46.91541" lon="8.65104">
        <ele>1162</ele>
        <time>2021-08-07T10:56:10.755Z</time>
      </trkpt>
      <trkpt lat="46.91539" lon="8.65104">
        <ele>1161</ele>
        <time>2021-08-07T10:56:11.756Z</time>
      </trkpt>
      <trkpt lat="46.91538" lon="8.65103">
        <ele>1160</ele>
        <time>2021-08-07T10:56:12.756Z</time>
      </trkpt>
      <trkpt lat="46.91537" lon="8.65104">
        <ele>1160</ele>
        <time>2021-08-07T10:56:13.755Z</time>
      </trkpt>
      <trkpt lat="46.91536" lon="8.65104">
        <ele>1159</ele>
        <time>2021-08-07T10:56:14.756Z</time>
      </trkpt>
      <trkpt lat="46.91535" lon="8.65104">
        <ele>1159</ele>
        <time>2021-08-07T10:56:15.756Z</time>
      </trkpt>
      <trkpt lat="46.91533" lon="8.65104">
        <ele>1159</ele>
        <time>2021-08-07T10:56:16.755Z</time>
      </trkpt>
      <trkpt lat="46.91532" lon="8.65104">
        <ele>1159</ele>
        <time>2021-08-07T10:56:17.755Z</time>
      </trkpt>
      <trkpt lat="46.91531" lon="8.65104">
        <ele>1158</ele>
        <time>2021-08-07T10:56:18.755Z</time>
      </trkpt>
      <trkpt lat="46.9153" lon="8.65105">
        <ele>1158</ele>
        <time>2021-08-07T10:56:19.755Z</time>
      </trkpt>
      <trkpt lat="46.91529" lon="8.65105">
        <ele>1157</ele>
        <time>2021-08-07T10:56:20.755Z</time>
      </trkpt>
      <trkpt lat="46.91528" lon="8.65104">
        <ele>1157</ele>
        <time>2021-08-07T10:56:21.755Z</time>
      </trkpt>
      <trkpt lat="46.91527" lon="8.65105">
        <ele>1157</ele>
        <time>2021-08-07T10:56:22.755Z</time>
      </trkpt>
      <trkpt lat="46.91526" lon="8.65106">
        <ele>1156</ele>
        <time>2021-08-07T10:56:23.756Z</time>
      </trkpt>
      <trkpt lat="46.91525" lon="8.65106">
        <ele>1156</ele>
        <time>2021-08-07T10:56:24.755Z</time>
      </trkpt>
      <trkpt lat="46.91524" lon="8.65106">
        <ele>1157</ele>
        <time>2021-08-07T10:56:25.755Z</time>
      </trkpt>
      <trkpt lat="46.91523" lon="8.65107">
        <ele>1157</ele>
        <time>2021-08-07T10:56:26.755Z</time>
      </trkpt>
      <trkpt lat="46.91521" lon="8.65107">
        <ele>1157</ele>
        <time>2021-08-07T10:56:27.756Z</time>
      </trkpt>
      <trkpt lat="46.9152" lon="8.65107">
        <ele>1157</ele>
        <time>2021-08-07T10:56:28.755Z</time>
      </trkpt>
      <trkpt lat="46.91519" lon="8.65107">
        <ele>1157</ele>
        <time>2021-08-07T10:56:29.755Z</time>
      </trkpt>
      <trkpt lat="46.91518" lon="8.65107">
        <ele>1157</ele>
        <time>2021-08-07T10:56:30.755Z</time>
      </trkpt>
      <trkpt lat="46.91517" lon="8.65107">
        <ele>1157</ele>
        <time>2021-08-07T10:56:31.756Z</time>
      </trkpt>
      <trkpt lat="46.91515" lon="8.65107">
        <ele>1157</ele>
        <time>2021-08-07T10:56:32.756Z</time>
      </trkpt>
      <trkpt lat="46.91514" lon="8.65107">
        <ele>1156</ele>
        <time>2021-08-07T10:56:33.755Z</time>
      </trkpt>
      <trkpt lat="46.91513" lon="8.65106">
        <ele>1156</ele>
        <time>2021-08-07T10:56:34.756Z</time>
      </trkpt>
      <trkpt lat="46.91512" lon="8.65106">
        <ele>1156</ele>
        <time>2021-08-07T10:56:35.755Z</time>
      </trkpt>
      <trkpt lat="46.91511" lon="8.65106">
        <ele>1156</ele>
        <time>2021-08-07T10:56:36.755Z</time>
      </trkpt>
      <trkpt lat="46.9151" lon="8.65106">
        <ele>1155</ele>
        <time>2021-08-07T10:56:37.755Z</time>
      </trkpt>
      <trkpt lat="46.91509" lon="8.65105">
        <ele>1155</ele>
        <time>2021-08-07T10:56:38.755Z</time>
      </trkpt>
      <trkpt lat="46.91508" lon="8.65104">
        <ele>1155</ele>
        <time>2021-08-07T10:56:39.755Z</time>
      </trkpt>
      <trkpt lat="46.91507" lon="8.65104">
        <ele>1155</ele>
        <time>2021-08-07T10:56:40.756Z</time>
      </trkpt>
      <trkpt lat="46.91506" lon="8.65104">
        <ele>1154</ele>
        <time>2021-08-07T10:56:41.756Z</time>
      </trkpt>
      <trkpt lat="46.91505" lon="8.65103">
        <ele>1154</ele>
        <time>2021-08-07T10:56:42.756Z</time>
      </trkpt>
      <trkpt lat="46.91503" lon="8.65103">
        <ele>1154</ele>
        <time>2021-08-07T10:56:43.756Z</time>
      </trkpt>
      <trkpt lat="46.91502" lon="8.65102">
        <ele>1155</ele>
        <time>2021-08-07T10:56:44.756Z</time>
      </trkpt>
      <trkpt lat="46.91501" lon="8.65102">
        <ele>1154</ele>
        <time>2021-08-07T10:56:45.755Z</time>
      </trkpt>
      <trkpt lat="46.91499" lon="8.65102">
        <ele>1154</ele>
        <time>2021-08-07T10:56:46.755Z</time>
      </trkpt>
      <trkpt lat="46.91498" lon="8.65102">
        <ele>1154</ele>
        <time>2021-08-07T10:56:47.755Z</time>
      </trkpt>
      <trkpt lat="46.91497" lon="8.65101">
        <ele>1153</ele>
        <time>2021-08-07T10:56:48.755Z</time>
      </trkpt>
      <trkpt lat="46.91495" lon="8.651">
        <ele>1153</ele>
        <time>2021-08-07T10:56:53.820Z</time>
      </trkpt>
      <trkpt lat="46.91494" lon="8.651">
        <ele>1153</ele>
        <time>2021-08-07T10:56:54.819Z</time>
      </trkpt>
      <trkpt lat="46.91493" lon="8.651">
        <ele>1152</ele>
        <time>2021-08-07T10:56:55.819Z</time>
      </trkpt>
      <trkpt lat="46.91492" lon="8.651">
        <ele>1152</ele>
        <time>2021-08-07T10:56:56.819Z</time>
      </trkpt>
      <trkpt lat="46.9149" lon="8.65101">
        <ele>1152</ele>
        <time>2021-08-07T10:56:57.820Z</time>
      </trkpt>
      <trkpt lat="46.91489" lon="8.65101">
        <ele>1152</ele>
        <time>2021-08-07T10:56:58.820Z</time>
      </trkpt>
      <trkpt lat="46.91487" lon="8.651">
        <ele>1152</ele>
        <time>2021-08-07T10:56:59.820Z</time>
      </trkpt>
      <trkpt lat="46.91486" lon="8.65099">
        <ele>1152</ele>
        <time>2021-08-07T10:57:00.819Z</time>
      </trkpt>
      <trkpt lat="46.91484" lon="8.65099">
        <ele>1152</ele>
        <time>2021-08-07T10:57:01.820Z</time>
      </trkpt>
      <trkpt lat="46.91483" lon="8.65098">
        <ele>1152</ele>
        <time>2021-08-07T10:57:03.962Z</time>
      </trkpt>
      <trkpt lat="46.91481" lon="8.65097">
        <ele>1152</ele>
        <time>2021-08-07T10:57:04.962Z</time>
      </trkpt>
      <trkpt lat="46.9148" lon="8.65096">
        <ele>1153</ele>
        <time>2021-08-07T10:57:05.962Z</time>
      </trkpt>
      <trkpt lat="46.91479" lon="8.65095">
        <ele>1152</ele>
        <time>2021-08-07T10:57:06.962Z</time>
      </trkpt>
      <trkpt lat="46.91478" lon="8.65094">
        <ele>1152</ele>
        <time>2021-08-07T10:57:07.962Z</time>
      </trkpt>
      <trkpt lat="46.91477" lon="8.65094">
        <ele>1152</ele>
        <time>2021-08-07T10:57:08.962Z</time>
      </trkpt>
      <trkpt lat="46.91476" lon="8.65092">
        <ele>1152</ele>
        <time>2021-08-07T10:57:09.962Z</time>
      </trkpt>
      <trkpt lat="46.91474" lon="8.65091">
        <ele>1153</ele>
        <time>2021-08-07T10:57:10.962Z</time>
      </trkpt>
      <trkpt lat="46.91473" lon="8.65091">
        <ele>1153</ele>
        <time>2021-08-07T10:57:11.962Z</time>
      </trkpt>
      <trkpt lat="46.91472" lon="8.65091">
        <ele>1153</ele>
        <time>2021-08-07T10:57:12.962Z</time>
      </trkpt>
      <trkpt lat="46.9147" lon="8.6509">
        <ele>1154</ele>
        <time>2021-08-07T10:57:13.962Z</time>
      </trkpt>
      <trkpt lat="46.91469" lon="8.6509">
        <ele>1155</ele>
        <time>2021-08-07T10:57:14.962Z</time>
      </trkpt>
      <trkpt lat="46.91467" lon="8.6509">
        <ele>1156</ele>
        <time>2021-08-07T10:57:15.962Z</time>
      </trkpt>
      <trkpt lat="46.91466" lon="8.65088">
        <ele>1156</ele>
        <time>2021-08-07T10:57:23.234Z</time>
      </trkpt>
      <trkpt lat="46.91464" lon="8.65088">
        <ele>1157</ele>
        <time>2021-08-07T10:57:25.078Z</time>
      </trkpt>
      <trkpt lat="46.91462" lon="8.65088">
        <ele>1157</ele>
        <time>2021-08-07T10:57:26.079Z</time>
      </trkpt>
      <trkpt lat="46.91461" lon="8.65088">
        <ele>1157</ele>
        <time>2021-08-07T10:57:27.078Z</time>
      </trkpt>
      <trkpt lat="46.9146" lon="8.65088">
        <ele>1158</ele>
        <time>2021-08-07T10:57:33.199Z</time>
      </trkpt>
      <trkpt lat="46.91458" lon="8.65088">
        <ele>1157</ele>
        <time>2021-08-07T10:57:35.049Z</time>
      </trkpt>
      <trkpt lat="46.91457" lon="8.65087">
        <ele>1157</ele>
        <time>2021-08-07T10:58:09.840Z</time>
      </trkpt>
      <trkpt lat="46.91455" lon="8.65087">
        <ele>1157</ele>
        <time>2021-08-07T10:58:10.841Z</time>
      </trkpt>
      <trkpt lat="46.91453" lon="8.65086">
        <ele>1157</ele>
        <time>2021-08-07T10:58:37.712Z</time>
      </trkpt>
      <trkpt lat="46.91452" lon="8.65087">
        <ele>1158</ele>
        <time>2021-08-07T10:58:38.713Z</time>
      </trkpt>
      <trkpt lat="46.91451" lon="8.65087">
        <ele>1158</ele>
        <time>2021-08-07T10:58:39.712Z</time>
      </trkpt>
      <trkpt lat="46.9145" lon="8.65087">
        <ele>1158</ele>
        <time>2021-08-07T10:58:40.713Z</time>
      </trkpt>
      <trkpt lat="46.91449" lon="8.65088">
        <ele>1158</ele>
        <time>2021-08-07T10:58:41.713Z</time>
      </trkpt>
      <trkpt lat="46.91447" lon="8.65089">
        <ele>1158</ele>
        <time>2021-08-07T10:58:42.713Z</time>
      </trkpt>
      <trkpt lat="46.91446" lon="8.65088">
        <ele>1158</ele>
        <time>2021-08-07T10:58:43.712Z</time>
      </trkpt>
      <trkpt lat="46.91444" lon="8.65088">
        <ele>1158</ele>
        <time>2021-08-07T10:58:54.710Z</time>
      </trkpt>
      <trkpt lat="46.91442" lon="8.65089">
        <ele>1158</ele>
        <time>2021-08-07T10:58:55.710Z</time>
      </trkpt>
      <trkpt lat="46.91441" lon="8.6509">
        <ele>1158</ele>
        <time>2021-08-07T10:59:11.463Z</time>
      </trkpt>
      <trkpt lat="46.91439" lon="8.6509">
        <ele>1158</ele>
        <time>2021-08-07T10:59:12.463Z</time>
      </trkpt>
      <trkpt lat="46.91438" lon="8.6509">
        <ele>1158</ele>
        <time>2021-08-07T10:59:13.463Z</time>
      </trkpt>
      <trkpt lat="46.91436" lon="8.6509">
        <ele>1159</ele>
        <time>2021-08-07T10:59:15.553Z</time>
      </trkpt>
      <trkpt lat="46.91435" lon="8.6509">
        <ele>1159</ele>
        <time>2021-08-07T10:59:28.335Z</time>
      </trkpt>
      <trkpt lat="46.91433" lon="8.65091">
        <ele>1159</ele>
        <time>2021-08-07T10:59:29.335Z</time>
      </trkpt>
      <trkpt lat="46.91432" lon="8.65091">
        <ele>1160</ele>
        <time>2021-08-07T10:59:35.215Z</time>
      </trkpt>
      <trkpt lat="46.9143" lon="8.65091">
        <ele>1160</ele>
        <time>2021-08-07T10:59:46.086Z</time>
      </trkpt>
      <trkpt lat="46.91428" lon="8.65091">
        <ele>1161</ele>
        <time>2021-08-07T11:00:32.857Z</time>
      </trkpt>
      <trkpt lat="46.91427" lon="8.6509">
        <ele>1162</ele>
        <time>2021-08-07T11:00:33.857Z</time>
      </trkpt>
      <trkpt lat="46.91425" lon="8.65089">
        <ele>1162</ele>
        <time>2021-08-07T11:00:34.857Z</time>
      </trkpt>
      <trkpt lat="46.91423" lon="8.65088">
        <ele>1163</ele>
        <time>2021-08-07T11:00:38.977Z</time>
      </trkpt>
      <trkpt lat="46.91422" lon="8.65087">
        <ele>1163</ele>
        <time>2021-08-07T11:00:39.976Z</time>
      </trkpt>
      <trkpt lat="46.9142" lon="8.65085">
        <ele>1163</ele>
        <time>2021-08-07T11:00:40.977Z</time>
      </trkpt>
      <trkpt lat="46.91418" lon="8.65084">
        <ele>1163</ele>
        <time>2021-08-07T11:00:57.099Z</time>
      </trkpt>
      <trkpt lat="46.91417" lon="8.65084">
        <ele>1163</ele>
        <time>2021-08-07T11:00:58.100Z</time>
      </trkpt>
      <trkpt lat="46.91416" lon="8.65083">
        <ele>1163</ele>
        <time>2021-08-07T11:01:08.830Z</time>
      </trkpt>
      <trkpt lat="46.91415" lon="8.65082">
        <ele>1163</ele>
        <time>2021-08-07T11:01:09.830Z</time>
      </trkpt>
      <trkpt lat="46.91414" lon="8.65082">
        <ele>1162</ele>
        <time>2021-08-07T11:01:10.829Z</time>
      </trkpt>
      <trkpt lat="46.91413" lon="8.65082">
        <ele>1162</ele>
        <time>2021-08-07T11:01:23.861Z</time>
      </trkpt>
      <trkpt lat="46.91412" lon="8.65081">
        <ele>1162</ele>
        <time>2021-08-07T11:01:24.861Z</time>
      </trkpt>
      <trkpt lat="46.9141" lon="8.65081">
        <ele>1161</ele>
        <time>2021-08-07T11:01:25.861Z</time>
      </trkpt>
      <trkpt lat="46.91409" lon="8.6508">
        <ele>1161</ele>
        <time>2021-08-07T11:01:30.587Z</time>
      </trkpt>
      <trkpt lat="46.91408" lon="8.65079">
        <ele>1160</ele>
        <time>2021-08-07T11:01:31.587Z</time>
      </trkpt>
      <trkpt lat="46.91407" lon="8.65079">
        <ele>1160</ele>
        <time>2021-08-07T11:01:32.587Z</time>
      </trkpt>
      <trkpt lat="46.91406" lon="8.65078">
        <ele>1159</ele>
        <time>2021-08-07T11:01:33.586Z</time>
      </trkpt>
      <trkpt lat="46.91405" lon="8.65078">
        <ele>1158</ele>
        <time>2021-08-07T11:01:46.714Z</time>
      </trkpt>
      <trkpt lat="46.91404" lon="8.65077">
        <ele>1158</ele>
        <time>2021-08-07T11:02:43.451Z</time>
      </trkpt>
      <trkpt lat="46.91403" lon="8.65077">
        <ele>1157</ele>
        <time>2021-08-07T11:02:45.212Z</time>
      </trkpt>
      <trkpt lat="46.91402" lon="8.65077">
        <ele>1157</ele>
        <time>2021-08-07T11:02:46.213Z</time>
      </trkpt>
      <trkpt lat="46.91401" lon="8.65076">
        <ele>1156</ele>
        <time>2021-08-07T11:02:47.213Z</time>
      </trkpt>
      <trkpt lat="46.914" lon="8.65076">
        <ele>1155</ele>
        <time>2021-08-07T11:02:58.359Z</time>
      </trkpt>
      <trkpt lat="46.91399" lon="8.65076">
        <ele>1155</ele>
        <time>2021-08-07T11:02:59.358Z</time>
      </trkpt>
      <trkpt lat="46.91398" lon="8.65076">
        <ele>1155</ele>
        <time>2021-08-07T11:03:00.358Z</time>
      </trkpt>
      <trkpt lat="46.91396" lon="8.65076">
        <ele>1154</ele>
        <time>2021-08-07T11:03:01.358Z</time>
      </trkpt>
      <trkpt lat="46.91395" lon="8.65075">
        <ele>1154</ele>
        <time>2021-08-07T11:03:02.358Z</time>
      </trkpt>
      <trkpt lat="46.91393" lon="8.65074">
        <ele>1154</ele>
        <time>2021-08-07T11:03:03.358Z</time>
      </trkpt>
      <trkpt lat="46.91392" lon="8.65073">
        <ele>1154</ele>
        <time>2021-08-07T11:03:04.358Z</time>
      </trkpt>
      <trkpt lat="46.9139" lon="8.65072">
        <ele>1153</ele>
        <time>2021-08-07T11:03:05.359Z</time>
      </trkpt>
      <trkpt lat="46.91389" lon="8.65072">
        <ele>1153</ele>
        <time>2021-08-07T11:03:11.494Z</time>
      </trkpt>
      <trkpt lat="46.91388" lon="8.65072">
        <ele>1153</ele>
        <time>2021-08-07T11:03:12.493Z</time>
      </trkpt>
      <trkpt lat="46.91387" lon="8.65071">
        <ele>1152</ele>
        <time>2021-08-07T11:03:13.494Z</time>
      </trkpt>
      <trkpt lat="46.91386" lon="8.6507">
        <ele>1152</ele>
        <time>2021-08-07T11:03:19.572Z</time>
      </trkpt>
      <trkpt lat="46.91384" lon="8.65071">
        <ele>1152</ele>
        <time>2021-08-07T11:03:20.571Z</time>
      </trkpt>
      <trkpt lat="46.91383" lon="8.65072">
        <ele>1152</ele>
        <time>2021-08-07T11:03:21.572Z</time>
      </trkpt>
      <trkpt lat="46.91381" lon="8.65073">
        <ele>1152</ele>
        <time>2021-08-07T11:03:22.572Z</time>
      </trkpt>
      <trkpt lat="46.91379" lon="8.65073">
        <ele>1152</ele>
        <time>2021-08-07T11:03:23.572Z</time>
      </trkpt>
      <trkpt lat="46.91376" lon="8.65075">
        <ele>1152</ele>
        <time>2021-08-07T11:03:24.572Z</time>
      </trkpt>
      <trkpt lat="46.91375" lon="8.65074">
        <ele>1152</ele>
        <time>2021-08-07T11:03:25.571Z</time>
      </trkpt>
      <trkpt lat="46.91374" lon="8.65073">
        <ele>1152</ele>
        <time>2021-08-07T11:03:26.572Z</time>
      </trkpt>
      <trkpt lat="46.91373" lon="8.65073">
        <ele>1151</ele>
        <time>2021-08-07T11:03:27.572Z</time>
      </trkpt>
      <trkpt lat="46.91372" lon="8.65072">
        <ele>1151</ele>
        <time>2021-08-07T11:03:50.681Z</time>
      </trkpt>
      <trkpt lat="46.91371" lon="8.65071">
        <ele>1151</ele>
        <time>2021-08-07T11:03:51.681Z</time>
      </trkpt>
      <trkpt lat="46.9137" lon="8.65071">
        <ele>1151</ele>
        <time>2021-08-07T11:04:15.443Z</time>
      </trkpt>
      <trkpt lat="46.91369" lon="8.65071">
        <ele>1150</ele>
        <time>2021-08-07T11:04:16.443Z</time>
      </trkpt>
      <trkpt lat="46.91367" lon="8.65071">
        <ele>1150</ele>
        <time>2021-08-07T11:04:22.188Z</time>
      </trkpt>
      <trkpt lat="46.91366" lon="8.65071">
        <ele>1150</ele>
        <time>2021-08-07T11:04:23.187Z</time>
      </trkpt>
      <trkpt lat="46.91365" lon="8.65071">
        <ele>1150</ele>
        <time>2021-08-07T11:04:24.188Z</time>
      </trkpt>
      <trkpt lat="46.91363" lon="8.65071">
        <ele>1150</ele>
        <time>2021-08-07T11:04:54.343Z</time>
      </trkpt>
      <trkpt lat="46.91362" lon="8.65071">
        <ele>1150</ele>
        <time>2021-08-07T11:04:55.342Z</time>
      </trkpt>
      <trkpt lat="46.9136" lon="8.65071">
        <ele>1150</ele>
        <time>2021-08-07T11:04:58.042Z</time>
      </trkpt>
      <trkpt lat="46.91359" lon="8.65071">
        <ele>1151</ele>
        <time>2021-08-07T11:04:59.826Z</time>
      </trkpt>
      <trkpt lat="46.91357" lon="8.65071">
        <ele>1151</ele>
        <time>2021-08-07T11:05:00.826Z</time>
      </trkpt>
      <trkpt lat="46.91355" lon="8.65071">
        <ele>1152</ele>
        <time>2021-08-07T11:05:09.561Z</time>
      </trkpt>
      <trkpt lat="46.91354" lon="8.65071">
        <ele>1152</ele>
        <time>2021-08-07T11:05:10.561Z</time>
      </trkpt>
      <trkpt lat="46.91353" lon="8.65071">
        <ele>1152</ele>
        <time>2021-08-07T11:05:11.561Z</time>
      </trkpt>
      <trkpt lat="46.91353" lon="8.65071">
        <ele>1152</ele>
        <time>2021-08-07T11:05:12.561Z</time>
      </trkpt>
      <trkpt lat="46.91353" lon="8.65071">
        <ele>1152</ele>
        <time>2021-08-07T11:05:13.561Z</time>
      </trkpt>
      <trkpt lat="46.91352" lon="8.65071">
        <ele>1152</ele>
        <time>2021-08-07T11:05:14.561Z</time>
      </trkpt>
      <trkpt lat="46.91352" lon="8.65072">
        <ele>1154</ele>
        <time>2021-08-07T11:05:15.562Z</time>
      </trkpt>
      <trkpt lat="46.91349" lon="8.65069">
        <ele>1155</ele>
        <time>2021-08-07T11:05:16.562Z</time>
      </trkpt>
      <trkpt lat="46.91349" lon="8.6507">
        <ele>1155</ele>
        <time>2021-08-07T11:05:17.562Z</time>
      </trkpt>
      <trkpt lat="46.91348" lon="8.6507">
        <ele>1155</ele>
        <time>2021-08-07T11:05:18.562Z</time>
      </trkpt>
      <trkpt lat="46.91348" lon="8.6507">
        <ele>1156</ele>
        <time>2021-08-07T11:05:19.563Z</time>
      </trkpt>
      <trkpt lat="46.91346" lon="8.6507">
        <ele>1156</ele>
        <time>2021-08-07T11:05:20.562Z</time>
      </trkpt>
      <trkpt lat="46.91345" lon="8.65071">
        <ele>1157</ele>
        <time>2021-08-07T11:05:21.563Z</time>
      </trkpt>
      <trkpt lat="46.91345" lon="8.65071">
        <ele>1158</ele>
        <time>2021-08-07T11:05:22.562Z</time>
      </trkpt>
      <trkpt lat="46.91344" lon="8.65071">
        <ele>1158</ele>
        <time>2021-08-07T11:05:23.563Z</time>
      </trkpt>
      <trkpt lat="46.91343" lon="8.65072">
        <ele>1159</ele>
        <time>2021-08-07T11:05:31.682Z</time>
      </trkpt>
      <trkpt lat="46.91342" lon="8.65072">
        <ele>1159</ele>
        <time>2021-08-07T11:05:32.681Z</time>
      </trkpt>
      <trkpt lat="46.91341" lon="8.65074">
        <ele>1160</ele>
        <time>2021-08-07T11:05:33.682Z</time>
      </trkpt>
      <trkpt lat="46.9134" lon="8.65074">
        <ele>1160</ele>
        <time>2021-08-07T11:05:34.682Z</time>
      </trkpt>
      <trkpt lat="46.91339" lon="8.65073">
        <ele>1161</ele>
        <time>2021-08-07T11:05:35.681Z</time>
      </trkpt>
      <trkpt lat="46.91339" lon="8.65073">
        <ele>1162</ele>
        <time>2021-08-07T11:05:36.682Z</time>
      </trkpt>
      <trkpt lat="46.91338" lon="8.65072">
        <ele>1162</ele>
        <time>2021-08-07T11:05:37.682Z</time>
      </trkpt>
      <trkpt lat="46.91338" lon="8.65071">
        <ele>1162</ele>
        <time>2021-08-07T11:05:38.681Z</time>
      </trkpt>
      <trkpt lat="46.91337" lon="8.6507">
        <ele>1162</ele>
        <time>2021-08-07T11:05:39.681Z</time>
      </trkpt>
      <trkpt lat="46.91336" lon="8.6507">
        <ele>1162</ele>
        <time>2021-08-07T11:05:40.682Z</time>
      </trkpt>
      <trkpt lat="46.91335" lon="8.6507">
        <ele>1162</ele>
        <time>2021-08-07T11:05:41.682Z</time>
      </trkpt>
      <trkpt lat="46.91335" lon="8.6507">
        <ele>1162</ele>
        <time>2021-08-07T11:05:42.682Z</time>
      </trkpt>
      <trkpt lat="46.91334" lon="8.65069">
        <ele>1162</ele>
        <time>2021-08-07T11:05:43.681Z</time>
      </trkpt>
      <trkpt lat="46.91334" lon="8.65067">
        <ele>1162</ele>
        <time>2021-08-07T11:05:44.682Z</time>
      </trkpt>
      <trkpt lat="46.91333" lon="8.65066">
        <ele>1162</ele>
        <time>2021-08-07T11:05:45.682Z</time>
      </trkpt>
      <trkpt lat="46.91332" lon="8.65065">
        <ele>1163</ele>
        <time>2021-08-07T11:05:46.682Z</time>
      </trkpt>
      <trkpt lat="46.91332" lon="8.65063">
        <ele>1163</ele>
        <time>2021-08-07T11:05:47.681Z</time>
      </trkpt>
      <trkpt lat="46.91331" lon="8.65062">
        <ele>1163</ele>
        <time>2021-08-07T11:05:48.681Z</time>
      </trkpt>
      <trkpt lat="46.91331" lon="8.6506">
        <ele>1164</ele>
        <time>2021-08-07T11:05:49.682Z</time>
      </trkpt>
      <trkpt lat="46.9133" lon="8.65059">
        <ele>1164</ele>
        <time>2021-08-07T11:05:50.682Z</time>
      </trkpt>
      <trkpt lat="46.91329" lon="8.65058">
        <ele>1164</ele>
        <time>2021-08-07T11:05:51.682Z</time>
      </trkpt>
      <trkpt lat="46.91328" lon="8.65057">
        <ele>1164</ele>
        <time>2021-08-07T11:05:52.681Z</time>
      </trkpt>
      <trkpt lat="46.91327" lon="8.65057">
        <ele>1164</ele>
        <time>2021-08-07T11:05:53.682Z</time>
      </trkpt>
      <trkpt lat="46.91326" lon="8.65054">
        <ele>1164</ele>
        <time>2021-08-07T11:05:54.681Z</time>
      </trkpt>
      <trkpt lat="46.91325" lon="8.65053">
        <ele>1164</ele>
        <time>2021-08-07T11:05:55.681Z</time>
      </trkpt>
      <trkpt lat="46.91324" lon="8.65052">
        <ele>1163</ele>
        <time>2021-08-07T11:05:56.682Z</time>
      </trkpt>
      <trkpt lat="46.91323" lon="8.6505">
        <ele>1162</ele>
        <time>2021-08-07T11:05:57.682Z</time>
      </trkpt>
      <trkpt lat="46.91322" lon="8.65049">
        <ele>1162</ele>
        <time>2021-08-07T11:05:58.681Z</time>
      </trkpt>
      <trkpt lat="46.91321" lon="8.65049">
        <ele>1161</ele>
        <time>2021-08-07T11:05:59.681Z</time>
      </trkpt>
      <trkpt lat="46.9132" lon="8.65047">
        <ele>1161</ele>
        <time>2021-08-07T11:06:00.682Z</time>
      </trkpt>
      <trkpt lat="46.9132" lon="8.65046">
        <ele>1160</ele>
        <time>2021-08-07T11:06:01.682Z</time>
      </trkpt>
      <trkpt lat="46.9132" lon="8.65045">
        <ele>1160</ele>
        <time>2021-08-07T11:06:02.682Z</time>
      </trkpt>
      <trkpt lat="46.91319" lon="8.65043">
        <ele>1159</ele>
        <time>2021-08-07T11:06:03.681Z</time>
      </trkpt>
      <trkpt lat="46.91319" lon="8.65042">
        <ele>1158</ele>
        <time>2021-08-07T11:06:04.682Z</time>
      </trkpt>
      <trkpt lat="46.91319" lon="8.6504">
        <ele>1157</ele>
        <time>2021-08-07T11:06:05.682Z</time>
      </trkpt>
      <trkpt lat="46.9132" lon="8.65038">
        <ele>1157</ele>
        <time>2021-08-07T11:06:06.682Z</time>
      </trkpt>
      <trkpt lat="46.9132" lon="8.65036">
        <ele>1156</ele>
        <time>2021-08-07T11:06:07.681Z</time>
      </trkpt>
      <trkpt lat="46.9132" lon="8.65035">
        <ele>1156</ele>
        <time>2021-08-07T11:06:08.682Z</time>
      </trkpt>
      <trkpt lat="46.91319" lon="8.65034">
        <ele>1155</ele>
        <time>2021-08-07T11:06:09.682Z</time>
      </trkpt>
      <trkpt lat="46.91318" lon="8.65033">
        <ele>1154</ele>
        <time>2021-08-07T11:06:10.682Z</time>
      </trkpt>
      <trkpt lat="46.91318" lon="8.65032">
        <ele>1154</ele>
        <time>2021-08-07T11:06:11.681Z</time>
      </trkpt>
      <trkpt lat="46.91317" lon="8.6503">
        <ele>1153</ele>
        <time>2021-08-07T11:06:12.682Z</time>
      </trkpt>
      <trkpt lat="46.91317" lon="8.65029">
        <ele>1153</ele>
        <time>2021-08-07T11:06:13.681Z</time>
      </trkpt>
      <trkpt lat="46.91317" lon="8.65028">
        <ele>1152</ele>
        <time>2021-08-07T11:06:14.682Z</time>
      </trkpt>
      <trkpt lat="46.91317" lon="8.65026">
        <ele>1152</ele>
        <time>2021-08-07T11:06:15.681Z</time>
      </trkpt>
      <trkpt lat="46.91317" lon="8.65025">
        <ele>1152</ele>
        <time>2021-08-07T11:06:16.682Z</time>
      </trkpt>
      <trkpt lat="46.91316" lon="8.65023">
        <ele>1152</ele>
        <time>2021-08-07T11:06:17.682Z</time>
      </trkpt>
      <trkpt lat="46.91316" lon="8.65022">
        <ele>1151</ele>
        <time>2021-08-07T11:06:18.682Z</time>
      </trkpt>
      <trkpt lat="46.91316" lon="8.65021">
        <ele>1151</ele>
        <time>2021-08-07T11:06:19.682Z</time>
      </trkpt>
      <trkpt lat="46.91315" lon="8.6502">
        <ele>1151</ele>
        <time>2021-08-07T11:06:20.682Z</time>
      </trkpt>
      <trkpt lat="46.91315" lon="8.65019">
        <ele>1150</ele>
        <time>2021-08-07T11:06:21.682Z</time>
      </trkpt>
      <trkpt lat="46.91315" lon="8.65017">
        <ele>1150</ele>
        <time>2021-08-07T11:06:22.682Z</time>
      </trkpt>
      <trkpt lat="46.91315" lon="8.65016">
        <ele>1150</ele>
        <time>2021-08-07T11:06:23.681Z</time>
      </trkpt>
      <trkpt lat="46.91315" lon="8.65014">
        <ele>1149</ele>
        <time>2021-08-07T11:06:24.682Z</time>
      </trkpt>
      <trkpt lat="46.91315" lon="8.65012">
        <ele>1148</ele>
        <time>2021-08-07T11:06:25.682Z</time>
      </trkpt>
      <trkpt lat="46.91315" lon="8.65009">
        <ele>1148</ele>
        <time>2021-08-07T11:06:26.682Z</time>
      </trkpt>
      <trkpt lat="46.91314" lon="8.65008">
        <ele>1147</ele>
        <time>2021-08-07T11:06:27.682Z</time>
      </trkpt>
      <trkpt lat="46.91312" lon="8.65006">
        <ele>1147</ele>
        <time>2021-08-07T11:06:28.681Z</time>
      </trkpt>
      <trkpt lat="46.91312" lon="8.65005">
        <ele>1147</ele>
        <time>2021-08-07T11:06:29.682Z</time>
      </trkpt>
      <trkpt lat="46.91311" lon="8.65002">
        <ele>1147</ele>
        <time>2021-08-07T11:06:30.681Z</time>
      </trkpt>
      <trkpt lat="46.91311" lon="8.65">
        <ele>1147</ele>
        <time>2021-08-07T11:06:31.682Z</time>
      </trkpt>
      <trkpt lat="46.91311" lon="8.64998">
        <ele>1147</ele>
        <time>2021-08-07T11:06:32.682Z</time>
      </trkpt>
      <trkpt lat="46.9131" lon="8.64996">
        <ele>1147</ele>
        <time>2021-08-07T11:06:33.682Z</time>
      </trkpt>
      <trkpt lat="46.91309" lon="8.64994">
        <ele>1147</ele>
        <time>2021-08-07T11:06:34.682Z</time>
      </trkpt>
      <trkpt lat="46.91309" lon="8.64993">
        <ele>1148</ele>
        <time>2021-08-07T11:06:35.682Z</time>
      </trkpt>
      <trkpt lat="46.91308" lon="8.64991">
        <ele>1148</ele>
        <time>2021-08-07T11:06:36.682Z</time>
      </trkpt>
      <trkpt lat="46.91308" lon="8.6499">
        <ele>1148</ele>
        <time>2021-08-07T11:06:37.682Z</time>
      </trkpt>
      <trkpt lat="46.91307" lon="8.64989">
        <ele>1148</ele>
        <time>2021-08-07T11:06:38.681Z</time>
      </trkpt>
      <trkpt lat="46.91307" lon="8.64987">
        <ele>1148</ele>
        <time>2021-08-07T11:06:39.682Z</time>
      </trkpt>
      <trkpt lat="46.91307" lon="8.64986">
        <ele>1149</ele>
        <time>2021-08-07T11:06:40.682Z</time>
      </trkpt>
      <trkpt lat="46.91307" lon="8.64985">
        <ele>1149</ele>
        <time>2021-08-07T11:06:41.682Z</time>
      </trkpt>
      <trkpt lat="46.91307" lon="8.64983">
        <ele>1150</ele>
        <time>2021-08-07T11:06:42.681Z</time>
      </trkpt>
      <trkpt lat="46.91308" lon="8.64981">
        <ele>1151</ele>
        <time>2021-08-07T11:06:43.681Z</time>
      </trkpt>
      <trkpt lat="46.91307" lon="8.64979">
        <ele>1151</ele>
        <time>2021-08-07T11:06:44.682Z</time>
      </trkpt>
      <trkpt lat="46.91307" lon="8.64977">
        <ele>1152</ele>
        <time>2021-08-07T11:06:45.682Z</time>
      </trkpt>
      <trkpt lat="46.91306" lon="8.64976">
        <ele>1152</ele>
        <time>2021-08-07T11:06:46.681Z</time>
      </trkpt>
      <trkpt lat="46.91304" lon="8.64975">
        <ele>1151</ele>
        <time>2021-08-07T11:06:47.682Z</time>
      </trkpt>
      <trkpt lat="46.91304" lon="8.64973">
        <ele>1151</ele>
        <time>2021-08-07T11:06:48.681Z</time>
      </trkpt>
      <trkpt lat="46.91303" lon="8.64972">
        <ele>1150</ele>
        <time>2021-08-07T11:06:49.681Z</time>
      </trkpt>
      <trkpt lat="46.91303" lon="8.6497">
        <ele>1149</ele>
        <time>2021-08-07T11:06:50.682Z</time>
      </trkpt>
      <trkpt lat="46.91302" lon="8.64969">
        <ele>1148</ele>
        <time>2021-08-07T11:06:51.681Z</time>
      </trkpt>
      <trkpt lat="46.91302" lon="8.64967">
        <ele>1148</ele>
        <time>2021-08-07T11:06:52.681Z</time>
      </trkpt>
      <trkpt lat="46.91302" lon="8.64965">
        <ele>1147</ele>
        <time>2021-08-07T11:06:53.682Z</time>
      </trkpt>
      <trkpt lat="46.91302" lon="8.64964">
        <ele>1146</ele>
        <time>2021-08-07T11:06:54.682Z</time>
      </trkpt>
      <trkpt lat="46.91303" lon="8.64963">
        <ele>1146</ele>
        <time>2021-08-07T11:06:55.682Z</time>
      </trkpt>
      <trkpt lat="46.91304" lon="8.64962">
        <ele>1146</ele>
        <time>2021-08-07T11:06:56.681Z</time>
      </trkpt>
      <trkpt lat="46.91304" lon="8.64961">
        <ele>1145</ele>
        <time>2021-08-07T11:06:57.682Z</time>
      </trkpt>
      <trkpt lat="46.91304" lon="8.64961">
        <ele>1145</ele>
        <time>2021-08-07T11:06:58.681Z</time>
      </trkpt>
      <trkpt lat="46.91303" lon="8.64962">
        <ele>1144</ele>
        <time>2021-08-07T11:06:59.681Z</time>
      </trkpt>
      <trkpt lat="46.91301" lon="8.64963">
        <ele>1144</ele>
        <time>2021-08-07T11:07:00.682Z</time>
      </trkpt>
      <trkpt lat="46.91298" lon="8.64964">
        <ele>1144</ele>
        <time>2021-08-07T11:07:01.681Z</time>
      </trkpt>
      <trkpt lat="46.91296" lon="8.64966">
        <ele>1143</ele>
        <time>2021-08-07T11:07:02.682Z</time>
      </trkpt>
      <trkpt lat="46.91297" lon="8.64966">
        <ele>1143</ele>
        <time>2021-08-07T11:07:03.682Z</time>
      </trkpt>
      <trkpt lat="46.91298" lon="8.64966">
        <ele>1143</ele>
        <time>2021-08-07T11:07:04.682Z</time>
      </trkpt>
      <trkpt lat="46.91299" lon="8.64965">
        <ele>1142</ele>
        <time>2021-08-07T11:07:05.681Z</time>
      </trkpt>
      <trkpt lat="46.91299" lon="8.64965">
        <ele>1142</ele>
        <time>2021-08-07T11:07:06.681Z</time>
      </trkpt>
      <trkpt lat="46.91299" lon="8.64965">
        <ele>1142</ele>
        <time>2021-08-07T11:07:07.682Z</time>
      </trkpt>
      <trkpt lat="46.913" lon="8.64965">
        <ele>1143</ele>
        <time>2021-08-07T11:07:08.682Z</time>
      </trkpt>
      <trkpt lat="46.913" lon="8.64965">
        <ele>1143</ele>
        <time>2021-08-07T11:07:09.683Z</time>
      </trkpt>
      <trkpt lat="46.913" lon="8.64965">
        <ele>1143</ele>
        <time>2021-08-07T11:07:10.682Z</time>
      </trkpt>
      <trkpt lat="46.913" lon="8.64964">
        <ele>1143</ele>
        <time>2021-08-07T11:07:11.685Z</time>
      </trkpt>
      <trkpt lat="46.91299" lon="8.64964">
        <ele>1143</ele>
        <time>2021-08-07T11:07:12.685Z</time>
      </trkpt>
      <trkpt lat="46.913" lon="8.64963">
        <ele>1143</ele>
        <time>2021-08-07T11:07:13.684Z</time>
      </trkpt>
      <trkpt lat="46.91299" lon="8.64962">
        <ele>1142</ele>
        <time>2021-08-07T11:07:14.684Z</time>
      </trkpt>
      <trkpt lat="46.91299" lon="8.64963">
        <ele>1142</ele>
        <time>2021-08-07T11:07:15.684Z</time>
      </trkpt>
      <trkpt lat="46.91298" lon="8.64968">
        <ele>1141</ele>
        <time>2021-08-07T11:07:16.685Z</time>
      </trkpt>
      <trkpt lat="46.91301" lon="8.64971">
        <ele>1144</ele>
        <time>2021-08-07T11:07:17.684Z</time>
      </trkpt>
      <trkpt lat="46.91301" lon="8.64971">
        <ele>1144</ele>
        <time>2021-08-07T11:07:24.787Z</time>
      </trkpt>
      <trkpt lat="46.91302" lon="8.64971">
        <ele>1144</ele>
        <time>2021-08-07T11:07:25.786Z</time>
      </trkpt>
      <trkpt lat="46.91303" lon="8.64971">
        <ele>1144</ele>
        <time>2021-08-07T11:07:37.848Z</time>
      </trkpt>
      <trkpt lat="46.91303" lon="8.64971">
        <ele>1144</ele>
        <time>2021-08-07T11:07:38.848Z</time>
      </trkpt>
      <trkpt lat="46.91304" lon="8.64971">
        <ele>1144</ele>
        <time>2021-08-07T11:07:39.848Z</time>
      </trkpt>
      <trkpt lat="46.91304" lon="8.64972">
        <ele>1144</ele>
        <time>2021-08-07T11:07:40.848Z</time>
      </trkpt>
      <trkpt lat="46.91304" lon="8.64972">
        <ele>1144</ele>
        <time>2021-08-07T11:07:41.847Z</time>
      </trkpt>
      <trkpt lat="46.91304" lon="8.64973">
        <ele>1144</ele>
        <time>2021-08-07T11:07:42.848Z</time>
      </trkpt>
      <trkpt lat="46.91304" lon="8.64974">
        <ele>1144</ele>
        <time>2021-08-07T11:07:43.848Z</time>
      </trkpt>
      <trkpt lat="46.91305" lon="8.64975">
        <ele>1145</ele>
        <time>2021-08-07T11:07:44.848Z</time>
      </trkpt>
      <trkpt lat="46.91306" lon="8.64975">
        <ele>1145</ele>
        <time>2021-08-07T11:07:45.847Z</time>
      </trkpt>
      <trkpt lat="46.91307" lon="8.64976">
        <ele>1145</ele>
        <time>2021-08-07T11:07:46.847Z</time>
      </trkpt>
      <trkpt lat="46.91308" lon="8.64977">
        <ele>1145</ele>
        <time>2021-08-07T11:07:47.848Z</time>
      </trkpt>
      <trkpt lat="46.91309" lon="8.64978">
        <ele>1145</ele>
        <time>2021-08-07T11:07:48.848Z</time>
      </trkpt>
      <trkpt lat="46.91309" lon="8.64978">
        <ele>1145</ele>
        <time>2021-08-07T11:07:49.847Z</time>
      </trkpt>
      <trkpt lat="46.9131" lon="8.64978">
        <ele>1146</ele>
        <time>2021-08-07T11:07:50.847Z</time>
      </trkpt>
      <trkpt lat="46.91311" lon="8.64979">
        <ele>1146</ele>
        <time>2021-08-07T11:07:51.848Z</time>
      </trkpt>
      <trkpt lat="46.91312" lon="8.64979">
        <ele>1145</ele>
        <time>2021-08-07T11:07:52.848Z</time>
      </trkpt>
      <trkpt lat="46.91312" lon="8.6498">
        <ele>1145</ele>
        <time>2021-08-07T11:07:53.848Z</time>
      </trkpt>
      <trkpt lat="46.91312" lon="8.6498">
        <ele>1145</ele>
        <time>2021-08-07T11:07:54.847Z</time>
      </trkpt>
      <trkpt lat="46.91313" lon="8.64982">
        <ele>1145</ele>
        <time>2021-08-07T11:07:56.919Z</time>
      </trkpt>
      <trkpt lat="46.91314" lon="8.64983">
        <ele>1146</ele>
        <time>2021-08-07T11:07:57.918Z</time>
      </trkpt>
      <trkpt lat="46.91314" lon="8.64984">
        <ele>1146</ele>
        <time>2021-08-07T11:07:58.918Z</time>
      </trkpt>
      <trkpt lat="46.91315" lon="8.64984">
        <ele>1147</ele>
        <time>2021-08-07T11:07:59.919Z</time>
      </trkpt>
      <trkpt lat="46.91315" lon="8.64984">
        <ele>1147</ele>
        <time>2021-08-07T11:08:00.919Z</time>
      </trkpt>
      <trkpt lat="46.91315" lon="8.64985">
        <ele>1148</ele>
        <time>2021-08-07T11:08:01.919Z</time>
      </trkpt>
      <trkpt lat="46.91316" lon="8.64986">
        <ele>1148</ele>
        <time>2021-08-07T11:08:02.918Z</time>
      </trkpt>
      <trkpt lat="46.91316" lon="8.64987">
        <ele>1149</ele>
        <time>2021-08-07T11:08:03.919Z</time>
      </trkpt>
      <trkpt lat="46.91317" lon="8.64988">
        <ele>1150</ele>
        <time>2021-08-07T11:08:04.918Z</time>
      </trkpt>
      <trkpt lat="46.91317" lon="8.6499">
        <ele>1150</ele>
        <time>2021-08-07T11:08:05.919Z</time>
      </trkpt>
      <trkpt lat="46.91317" lon="8.64992">
        <ele>1151</ele>
        <time>2021-08-07T11:08:06.919Z</time>
      </trkpt>
      <trkpt lat="46.91318" lon="8.64993">
        <ele>1151</ele>
        <time>2021-08-07T11:08:07.919Z</time>
      </trkpt>
      <trkpt lat="46.91319" lon="8.64994">
        <ele>1151</ele>
        <time>2021-08-07T11:08:08.919Z</time>
      </trkpt>
      <trkpt lat="46.9132" lon="8.64995">
        <ele>1152</ele>
        <time>2021-08-07T11:08:09.918Z</time>
      </trkpt>
      <trkpt lat="46.91321" lon="8.64996">
        <ele>1152</ele>
        <time>2021-08-07T11:08:10.919Z</time>
      </trkpt>
      <trkpt lat="46.91322" lon="8.64997">
        <ele>1152</ele>
        <time>2021-08-07T11:08:11.919Z</time>
      </trkpt>
      <trkpt lat="46.91323" lon="8.64999">
        <ele>1153</ele>
        <time>2021-08-07T11:08:12.919Z</time>
      </trkpt>
      <trkpt lat="46.91324" lon="8.64999">
        <ele>1153</ele>
        <time>2021-08-07T11:08:13.918Z</time>
      </trkpt>
      <trkpt lat="46.91325" lon="8.65001">
        <ele>1153</ele>
        <time>2021-08-07T11:08:14.919Z</time>
      </trkpt>
      <trkpt lat="46.91325" lon="8.65002">
        <ele>1152</ele>
        <time>2021-08-07T11:08:15.919Z</time>
      </trkpt>
      <trkpt lat="46.91326" lon="8.65004">
        <ele>1152</ele>
        <time>2021-08-07T11:08:16.919Z</time>
      </trkpt>
      <trkpt lat="46.91328" lon="8.65006">
        <ele>1152</ele>
        <time>2021-08-07T11:08:17.918Z</time>
      </trkpt>
      <trkpt lat="46.91329" lon="8.65007">
        <ele>1152</ele>
        <time>2021-08-07T11:08:18.919Z</time>
      </trkpt>
      <trkpt lat="46.91329" lon="8.65008">
        <ele>1151</ele>
        <time>2021-08-07T11:08:19.919Z</time>
      </trkpt>
      <trkpt lat="46.91331" lon="8.65009">
        <ele>1151</ele>
        <time>2021-08-07T11:08:25.955Z</time>
      </trkpt>
      <trkpt lat="46.91332" lon="8.65009">
        <ele>1150</ele>
        <time>2021-08-07T11:08:26.956Z</time>
      </trkpt>
      <trkpt lat="46.91333" lon="8.6501">
        <ele>1150</ele>
        <time>2021-08-07T11:08:27.955Z</time>
      </trkpt>
      <trkpt lat="46.91334" lon="8.6501">
        <ele>1150</ele>
        <time>2021-08-07T11:08:28.955Z</time>
      </trkpt>
      <trkpt lat="46.91335" lon="8.6501">
        <ele>1150</ele>
        <time>2021-08-07T11:08:29.956Z</time>
      </trkpt>
      <trkpt lat="46.91336" lon="8.6501">
        <ele>1150</ele>
        <time>2021-08-07T11:08:30.956Z</time>
      </trkpt>
      <trkpt lat="46.91337" lon="8.6501">
        <ele>1149</ele>
        <time>2021-08-07T11:08:31.956Z</time>
      </trkpt>
      <trkpt lat="46.91338" lon="8.65011">
        <ele>1149</ele>
        <time>2021-08-07T11:08:32.955Z</time>
      </trkpt>
      <trkpt lat="46.9134" lon="8.6501">
        <ele>1149</ele>
        <time>2021-08-07T11:08:33.955Z</time>
      </trkpt>
      <trkpt lat="46.91341" lon="8.6501">
        <ele>1148</ele>
        <time>2021-08-07T11:08:34.956Z</time>
      </trkpt>
      <trkpt lat="46.91339" lon="8.65008">
        <ele>1147</ele>
        <time>2021-08-07T11:08:35.956Z</time>
      </trkpt>
      <trkpt lat="46.91339" lon="8.65008">
        <ele>1146</ele>
        <time>2021-08-07T11:08:36.955Z</time>
      </trkpt>
      <trkpt lat="46.91339" lon="8.65008">
        <ele>1146</ele>
        <time>2021-08-07T11:08:37.956Z</time>
      </trkpt>
      <trkpt lat="46.9134" lon="8.65007">
        <ele>1145</ele>
        <time>2021-08-07T11:08:38.957Z</time>
      </trkpt>
      <trkpt lat="46.91341" lon="8.65008">
        <ele>1145</ele>
        <time>2021-08-07T11:08:39.957Z</time>
      </trkpt>
      <trkpt lat="46.91341" lon="8.65008">
        <ele>1146</ele>
        <time>2021-08-07T11:08:40.956Z</time>
      </trkpt>
      <trkpt lat="46.91341" lon="8.65008">
        <ele>1146</ele>
        <time>2021-08-07T11:08:41.957Z</time>
      </trkpt>
      <trkpt lat="46.9134" lon="8.65007">
        <ele>1148</ele>
        <time>2021-08-07T11:08:42.958Z</time>
      </trkpt>
      <trkpt lat="46.91339" lon="8.65007">
        <ele>1149</ele>
        <time>2021-08-07T11:08:43.957Z</time>
      </trkpt>
      <trkpt lat="46.91339" lon="8.65007">
        <ele>1146</ele>
        <time>2021-08-07T11:08:44.959Z</time>
      </trkpt>
      <trkpt lat="46.91339" lon="8.65007">
        <ele>1145</ele>
        <time>2021-08-07T11:08:45.958Z</time>
      </trkpt>
      <trkpt lat="46.91339" lon="8.65007">
        <ele>1145</ele>
        <time>2021-08-07T11:08:46.958Z</time>
      </trkpt>
      <trkpt lat="46.91341" lon="8.65009">
        <ele>1154</ele>
        <time>2021-08-07T11:08:47.959Z</time>
      </trkpt>
      <trkpt lat="46.91341" lon="8.65009">
        <ele>1154</ele>
        <time>2021-08-07T11:08:48.959Z</time>
      </trkpt>
      <trkpt lat="46.9134" lon="8.65008">
        <ele>1154</ele>
        <time>2021-08-07T11:08:49.958Z</time>
      </trkpt>
      <trkpt lat="46.91342" lon="8.65004">
        <ele>1136</ele>
        <time>2021-08-07T11:08:50.960Z</time>
      </trkpt>
      <trkpt lat="46.91342" lon="8.65005">
        <ele>1134</ele>
        <time>2021-08-07T11:08:51.960Z</time>
      </trkpt>
      <trkpt lat="46.91343" lon="8.65008">
        <ele>1130</ele>
        <time>2021-08-07T11:08:52.959Z</time>
      </trkpt>
      <trkpt lat="46.91344" lon="8.65008">
        <ele>1130</ele>
        <time>2021-08-07T11:08:53.960Z</time>
      </trkpt>
      <trkpt lat="46.91345" lon="8.65008">
        <ele>1131</ele>
        <time>2021-08-07T11:08:54.959Z</time>
      </trkpt>
      <trkpt lat="46.91346" lon="8.65007">
        <ele>1131</ele>
        <time>2021-08-07T11:08:55.960Z</time>
      </trkpt>
      <trkpt lat="46.91347" lon="8.65007">
        <ele>1131</ele>
        <time>2021-08-07T11:08:56.959Z</time>
      </trkpt>
      <trkpt lat="46.91347" lon="8.65006">
        <ele>1132</ele>
        <time>2021-08-07T11:08:57.959Z</time>
      </trkpt>
      <trkpt lat="46.91348" lon="8.65005">
        <ele>1132</ele>
        <time>2021-08-07T11:08:58.960Z</time>
      </trkpt>
      <trkpt lat="46.91349" lon="8.65004">
        <ele>1133</ele>
        <time>2021-08-07T11:08:59.959Z</time>
      </trkpt>
      <trkpt lat="46.91351" lon="8.65003">
        <ele>1134</ele>
        <time>2021-08-07T11:09:00.960Z</time>
      </trkpt>
      <trkpt lat="46.91352" lon="8.65003">
        <ele>1135</ele>
        <time>2021-08-07T11:09:01.960Z</time>
      </trkpt>
      <trkpt lat="46.91353" lon="8.65002">
        <ele>1136</ele>
        <time>2021-08-07T11:09:02.959Z</time>
      </trkpt>
      <trkpt lat="46.91354" lon="8.65001">
        <ele>1137</ele>
        <time>2021-08-07T11:09:03.959Z</time>
      </trkpt>
      <trkpt lat="46.91355" lon="8.65002">
        <ele>1138</ele>
        <time>2021-08-07T11:09:04.960Z</time>
      </trkpt>
      <trkpt lat="46.91356" lon="8.65003">
        <ele>1139</ele>
        <time>2021-08-07T11:09:05.960Z</time>
      </trkpt>
      <trkpt lat="46.91357" lon="8.65004">
        <ele>1140</ele>
        <time>2021-08-07T11:09:06.960Z</time>
      </trkpt>
      <trkpt lat="46.91358" lon="8.65004">
        <ele>1141</ele>
        <time>2021-08-07T11:09:07.959Z</time>
      </trkpt>
      <trkpt lat="46.9136" lon="8.65003">
        <ele>1141</ele>
        <time>2021-08-07T11:09:08.959Z</time>
      </trkpt>
      <trkpt lat="46.91361" lon="8.65003">
        <ele>1141</ele>
        <time>2021-08-07T11:09:09.960Z</time>
      </trkpt>
      <trkpt lat="46.91362" lon="8.65002">
        <ele>1142</ele>
        <time>2021-08-07T11:09:10.960Z</time>
      </trkpt>
      <trkpt lat="46.91364" lon="8.65001">
        <ele>1142</ele>
        <time>2021-08-07T11:09:11.960Z</time>
      </trkpt>
      <trkpt lat="46.91365" lon="8.64999">
        <ele>1143</ele>
        <time>2021-08-07T11:09:12.959Z</time>
      </trkpt>
      <trkpt lat="46.91365" lon="8.64997">
        <ele>1143</ele>
        <time>2021-08-07T11:09:13.960Z</time>
      </trkpt>
      <trkpt lat="46.91366" lon="8.64996">
        <ele>1143</ele>
        <time>2021-08-07T11:09:14.960Z</time>
      </trkpt>
      <trkpt lat="46.91368" lon="8.64995">
        <ele>1144</ele>
        <time>2021-08-07T11:09:15.960Z</time>
      </trkpt>
      <trkpt lat="46.91369" lon="8.64994">
        <ele>1144</ele>
        <time>2021-08-07T11:09:16.960Z</time>
      </trkpt>
      <trkpt lat="46.91369" lon="8.64993">
        <ele>1145</ele>
        <time>2021-08-07T11:09:17.960Z</time>
      </trkpt>
      <trkpt lat="46.9137" lon="8.64993">
        <ele>1145</ele>
        <time>2021-08-07T11:09:18.960Z</time>
      </trkpt>
      <trkpt lat="46.91371" lon="8.64992">
        <ele>1146</ele>
        <time>2021-08-07T11:09:19.960Z</time>
      </trkpt>
      <trkpt lat="46.91371" lon="8.64991">
        <ele>1146</ele>
        <time>2021-08-07T11:09:20.960Z</time>
      </trkpt>
      <trkpt lat="46.91371" lon="8.64991">
        <ele>1146</ele>
        <time>2021-08-07T11:09:21.960Z</time>
      </trkpt>
      <trkpt lat="46.91372" lon="8.6499">
        <ele>1147</ele>
        <time>2021-08-07T11:09:22.960Z</time>
      </trkpt>
      <trkpt lat="46.91374" lon="8.6499">
        <ele>1147</ele>
        <time>2021-08-07T11:09:25.041Z</time>
      </trkpt>
      <trkpt lat="46.91375" lon="8.6499">
        <ele>1147</ele>
        <time>2021-08-07T11:09:26.042Z</time>
      </trkpt>
      <trkpt lat="46.91375" lon="8.6499">
        <ele>1147</ele>
        <time>2021-08-07T11:09:27.042Z</time>
      </trkpt>
      <trkpt lat="46.91375" lon="8.6499">
        <ele>1147</ele>
        <time>2021-08-07T11:09:28.042Z</time>
      </trkpt>
      <trkpt lat="46.91376" lon="8.6499">
        <ele>1147</ele>
        <time>2021-08-07T11:09:29.042Z</time>
      </trkpt>
      <trkpt lat="46.91377" lon="8.64989">
        <ele>1147</ele>
        <time>2021-08-07T11:09:30.041Z</time>
      </trkpt>
      <trkpt lat="46.91378" lon="8.64988">
        <ele>1147</ele>
        <time>2021-08-07T11:09:31.042Z</time>
      </trkpt>
      <trkpt lat="46.91379" lon="8.64987">
        <ele>1147</ele>
        <time>2021-08-07T11:09:32.042Z</time>
      </trkpt>
      <trkpt lat="46.9138" lon="8.64987">
        <ele>1147</ele>
        <time>2021-08-07T11:09:33.041Z</time>
      </trkpt>
      <trkpt lat="46.91381" lon="8.64986">
        <ele>1147</ele>
        <time>2021-08-07T11:09:34.042Z</time>
      </trkpt>
      <trkpt lat="46.91382" lon="8.64985">
        <ele>1148</ele>
        <time>2021-08-07T11:09:35.042Z</time>
      </trkpt>
      <trkpt lat="46.91383" lon="8.64984">
        <ele>1148</ele>
        <time>2021-08-07T11:09:36.041Z</time>
      </trkpt>
      <trkpt lat="46.91384" lon="8.64983">
        <ele>1148</ele>
        <time>2021-08-07T11:09:37.042Z</time>
      </trkpt>
      <trkpt lat="46.91385" lon="8.64982">
        <ele>1148</ele>
        <time>2021-08-07T11:09:38.041Z</time>
      </trkpt>
      <trkpt lat="46.91386" lon="8.6498">
        <ele>1148</ele>
        <time>2021-08-07T11:09:39.042Z</time>
      </trkpt>
      <trkpt lat="46.91387" lon="8.64979">
        <ele>1148</ele>
        <time>2021-08-07T11:09:40.042Z</time>
      </trkpt>
      <trkpt lat="46.91387" lon="8.64979">
        <ele>1148</ele>
        <time>2021-08-07T11:09:41.042Z</time>
      </trkpt>
      <trkpt lat="46.91392" lon="8.64967">
        <ele>1148</ele>
        <time>2021-08-07T11:09:42.042Z</time>
      </trkpt>
      <trkpt lat="46.91392" lon="8.64967">
        <ele>1147</ele>
        <time>2021-08-07T11:09:43.042Z</time>
      </trkpt>
      <trkpt lat="46.91393" lon="8.64965">
        <ele>1146</ele>
        <time>2021-08-07T11:09:44.041Z</time>
      </trkpt>
      <trkpt lat="46.91394" lon="8.64964">
        <ele>1146</ele>
        <time>2021-08-07T11:09:52.186Z</time>
      </trkpt>
      <trkpt lat="46.91395" lon="8.64963">
        <ele>1145</ele>
        <time>2021-08-07T11:09:53.187Z</time>
      </trkpt>
      <trkpt lat="46.91395" lon="8.64963">
        <ele>1145</ele>
        <time>2021-08-07T11:09:54.186Z</time>
      </trkpt>
      <trkpt lat="46.91397" lon="8.64962">
        <ele>1145</ele>
        <time>2021-08-07T11:09:55.187Z</time>
      </trkpt>
      <trkpt lat="46.91398" lon="8.64963">
        <ele>1145</ele>
        <time>2021-08-07T11:09:56.187Z</time>
      </trkpt>
      <trkpt lat="46.914" lon="8.64963">
        <ele>1144</ele>
        <time>2021-08-07T11:09:57.187Z</time>
      </trkpt>
      <trkpt lat="46.91401" lon="8.64964">
        <ele>1144</ele>
        <time>2021-08-07T11:09:58.187Z</time>
      </trkpt>
      <trkpt lat="46.91402" lon="8.64965">
        <ele>1143</ele>
        <time>2021-08-07T11:09:59.187Z</time>
      </trkpt>
      <trkpt lat="46.91404" lon="8.64966">
        <ele>1143</ele>
        <time>2021-08-07T11:10:00.187Z</time>
      </trkpt>
      <trkpt lat="46.91406" lon="8.64966">
        <ele>1143</ele>
        <time>2021-08-07T11:10:01.187Z</time>
      </trkpt>
      <trkpt lat="46.91408" lon="8.64967">
        <ele>1142</ele>
        <time>2021-08-07T11:10:02.186Z</time>
      </trkpt>
      <trkpt lat="46.9141" lon="8.64968">
        <ele>1142</ele>
        <time>2021-08-07T11:10:08.313Z</time>
      </trkpt>
      <trkpt lat="46.91411" lon="8.6497">
        <ele>1142</ele>
        <time>2021-08-07T11:10:09.313Z</time>
      </trkpt>
      <trkpt lat="46.91412" lon="8.64971">
        <ele>1142</ele>
        <time>2021-08-07T11:10:10.313Z</time>
      </trkpt>
      <trkpt lat="46.91411" lon="8.64972">
        <ele>1142</ele>
        <time>2021-08-07T11:10:11.313Z</time>
      </trkpt>
      <trkpt lat="46.9141" lon="8.64974">
        <ele>1142</ele>
        <time>2021-08-07T11:10:12.313Z</time>
      </trkpt>
      <trkpt lat="46.9141" lon="8.64974">
        <ele>1141</ele>
        <time>2021-08-07T11:10:13.313Z</time>
      </trkpt>
      <trkpt lat="46.9141" lon="8.64974">
        <ele>1141</ele>
        <time>2021-08-07T11:10:14.313Z</time>
      </trkpt>
      <trkpt lat="46.9141" lon="8.64974">
        <ele>1141</ele>
        <time>2021-08-07T11:10:15.312Z</time>
      </trkpt>
      <trkpt lat="46.9141" lon="8.64973">
        <ele>1140</ele>
        <time>2021-08-07T11:10:17.475Z</time>
      </trkpt>
      <trkpt lat="46.91411" lon="8.64972">
        <ele>1139</ele>
        <time>2021-08-07T11:10:18.475Z</time>
      </trkpt>
      <trkpt lat="46.9141" lon="8.64972">
        <ele>1139</ele>
        <time>2021-08-07T11:10:19.475Z</time>
      </trkpt>
      <trkpt lat="46.9141" lon="8.64972">
        <ele>1138</ele>
        <time>2021-08-07T11:10:20.474Z</time>
      </trkpt>
      <trkpt lat="46.91412" lon="8.64974">
        <ele>1136</ele>
        <time>2021-08-07T11:10:21.475Z</time>
      </trkpt>
      <trkpt lat="46.91412" lon="8.64974">
        <ele>1136</ele>
        <time>2021-08-07T11:10:22.474Z</time>
      </trkpt>
      <trkpt lat="46.91413" lon="8.64975">
        <ele>1136</ele>
        <time>2021-08-07T11:10:23.475Z</time>
      </trkpt>
      <trkpt lat="46.91414" lon="8.64976">
        <ele>1136</ele>
        <time>2021-08-07T11:10:24.475Z</time>
      </trkpt>
      <trkpt lat="46.91414" lon="8.64977">
        <ele>1136</ele>
        <time>2021-08-07T11:10:25.474Z</time>
      </trkpt>
      <trkpt lat="46.91415" lon="8.64978">
        <ele>1136</ele>
        <time>2021-08-07T11:10:26.474Z</time>
      </trkpt>
      <trkpt lat="46.91417" lon="8.64978">
        <ele>1136</ele>
        <time>2021-08-07T11:10:27.475Z</time>
      </trkpt>
      <trkpt lat="46.91418" lon="8.64978">
        <ele>1136</ele>
        <time>2021-08-07T11:10:28.474Z</time>
      </trkpt>
      <trkpt lat="46.91418" lon="8.64978">
        <ele>1136</ele>
        <time>2021-08-07T11:10:29.475Z</time>
      </trkpt>
      <trkpt lat="46.91419" lon="8.64978">
        <ele>1136</ele>
        <time>2021-08-07T11:10:30.475Z</time>
      </trkpt>
      <trkpt lat="46.91419" lon="8.64978">
        <ele>1136</ele>
        <time>2021-08-07T11:10:31.474Z</time>
      </trkpt>
      <trkpt lat="46.91419" lon="8.64977">
        <ele>1137</ele>
        <time>2021-08-07T11:10:32.474Z</time>
      </trkpt>
      <trkpt lat="46.91418" lon="8.64976">
        <ele>1136</ele>
        <time>2021-08-07T11:10:33.475Z</time>
      </trkpt>
      <trkpt lat="46.91418" lon="8.64976">
        <ele>1136</ele>
        <time>2021-08-07T11:10:34.474Z</time>
      </trkpt>
      <trkpt lat="46.91418" lon="8.64977">
        <ele>1135</ele>
        <time>2021-08-07T11:10:35.476Z</time>
      </trkpt>
      <trkpt lat="46.91418" lon="8.64977">
        <ele>1135</ele>
        <time>2021-08-07T11:10:36.476Z</time>
      </trkpt>
      <trkpt lat="46.91418" lon="8.64978">
        <ele>1135</ele>
        <time>2021-08-07T11:10:37.476Z</time>
      </trkpt>
      <trkpt lat="46.91421" lon="8.6498">
        <ele>1135</ele>
        <time>2021-08-07T11:10:41.476Z</time>
      </trkpt>
      <trkpt lat="46.91422" lon="8.64979">
        <ele>1135</ele>
        <time>2021-08-07T11:10:42.477Z</time>
      </trkpt>
      <trkpt lat="46.91421" lon="8.64978">
        <ele>1135</ele>
        <time>2021-08-07T11:10:43.476Z</time>
      </trkpt>
      <trkpt lat="46.91421" lon="8.64978">
        <ele>1136</ele>
        <time>2021-08-07T11:10:44.476Z</time>
      </trkpt>
      <trkpt lat="46.91422" lon="8.64977">
        <ele>1136</ele>
        <time>2021-08-07T11:10:45.476Z</time>
      </trkpt>
      <trkpt lat="46.91422" lon="8.64975">
        <ele>1136</ele>
        <time>2021-08-07T11:10:46.476Z</time>
      </trkpt>
      <trkpt lat="46.91421" lon="8.64974">
        <ele>1135</ele>
        <time>2021-08-07T11:10:47.476Z</time>
      </trkpt>
      <trkpt lat="46.9142" lon="8.64975">
        <ele>1135</ele>
        <time>2021-08-07T11:10:48.476Z</time>
      </trkpt>
      <trkpt lat="46.91419" lon="8.64975">
        <ele>1135</ele>
        <time>2021-08-07T11:10:49.476Z</time>
      </trkpt>
      <trkpt lat="46.91419" lon="8.64975">
        <ele>1135</ele>
        <time>2021-08-07T11:10:50.476Z</time>
      </trkpt>
      <trkpt lat="46.91417" lon="8.64976">
        <ele>1134</ele>
        <time>2021-08-07T11:10:51.476Z</time>
      </trkpt>
      <trkpt lat="46.91417" lon="8.64976">
        <ele>1134</ele>
        <time>2021-08-07T11:10:52.476Z</time>
      </trkpt>
      <trkpt lat="46.91417" lon="8.64976">
        <ele>1133</ele>
        <time>2021-08-07T11:10:53.477Z</time>
      </trkpt>
      <trkpt lat="46.91418" lon="8.64976">
        <ele>1133</ele>
        <time>2021-08-07T11:10:54.476Z</time>
      </trkpt>
      <trkpt lat="46.91419" lon="8.64977">
        <ele>1132</ele>
        <time>2021-08-07T11:10:55.476Z</time>
      </trkpt>
      <trkpt lat="46.9142" lon="8.64977">
        <ele>1132</ele>
        <time>2021-08-07T11:10:56.476Z</time>
      </trkpt>
      <trkpt lat="46.91419" lon="8.64979">
        <ele>1132</ele>
        <time>2021-08-07T11:10:57.476Z</time>
      </trkpt>
      <trkpt lat="46.91419" lon="8.64979">
        <ele>1132</ele>
        <time>2021-08-07T11:10:58.476Z</time>
      </trkpt>
      <trkpt lat="46.91419" lon="8.64979">
        <ele>1131</ele>
        <time>2021-08-07T11:10:59.477Z</time>
      </trkpt>
      <trkpt lat="46.91419" lon="8.6498">
        <ele>1131</ele>
        <time>2021-08-07T11:11:00.476Z</time>
      </trkpt>
      <trkpt lat="46.91418" lon="8.6498">
        <ele>1131</ele>
        <time>2021-08-07T11:11:01.477Z</time>
      </trkpt>
      <trkpt lat="46.91418" lon="8.64979">
        <ele>1130</ele>
        <time>2021-08-07T11:11:02.476Z</time>
      </trkpt>
      <trkpt lat="46.91417" lon="8.6498">
        <ele>1130</ele>
        <time>2021-08-07T11:11:03.477Z</time>
      </trkpt>
      <trkpt lat="46.91417" lon="8.6498">
        <ele>1130</ele>
        <time>2021-08-07T11:11:04.477Z</time>
      </trkpt>
      <trkpt lat="46.91417" lon="8.64981">
        <ele>1130</ele>
        <time>2021-08-07T11:11:05.477Z</time>
      </trkpt>
      <trkpt lat="46.91417" lon="8.64981">
        <ele>1129</ele>
        <time>2021-08-07T11:11:08.543Z</time>
      </trkpt>
      <trkpt lat="46.91418" lon="8.64981">
        <ele>1129</ele>
        <time>2021-08-07T11:11:13.308Z</time>
      </trkpt>
      <trkpt lat="46.91417" lon="8.64982">
        <ele>1129</ele>
        <time>2021-08-07T11:11:14.308Z</time>
      </trkpt>
      <trkpt lat="46.91417" lon="8.64982">
        <ele>1128</ele>
        <time>2021-08-07T11:11:15.308Z</time>
      </trkpt>
      <trkpt lat="46.91416" lon="8.64982">
        <ele>1128</ele>
        <time>2021-08-07T11:11:16.308Z</time>
      </trkpt>
      <trkpt lat="46.91416" lon="8.64983">
        <ele>1128</ele>
        <time>2021-08-07T11:11:17.307Z</time>
      </trkpt>
      <trkpt lat="46.91415" lon="8.64985">
        <ele>1127</ele>
        <time>2021-08-07T11:11:18.308Z</time>
      </trkpt>
      <trkpt lat="46.91415" lon="8.64985">
        <ele>1127</ele>
        <time>2021-08-07T11:11:19.308Z</time>
      </trkpt>
      <trkpt lat="46.91414" lon="8.64986">
        <ele>1127</ele>
        <time>2021-08-07T11:11:20.308Z</time>
      </trkpt>
      <trkpt lat="46.91413" lon="8.64986">
        <ele>1126</ele>
        <time>2021-08-07T11:11:21.307Z</time>
      </trkpt>
      <trkpt lat="46.91413" lon="8.64986">
        <ele>1126</ele>
        <time>2021-08-07T11:11:22.308Z</time>
      </trkpt>
      <trkpt lat="46.91413" lon="8.64986">
        <ele>1126</ele>
        <time>2021-08-07T11:11:23.307Z</time>
      </trkpt>
      <trkpt lat="46.91416" lon="8.64982">
        <ele>1126</ele>
        <time>2021-08-07T11:11:24.308Z</time>
      </trkpt>
      <trkpt lat="46.91417" lon="8.6498">
        <ele>1127</ele>
        <time>2021-08-07T11:11:25.309Z</time>
      </trkpt>
      <trkpt lat="46.91419" lon="8.64977">
        <ele>1127</ele>
        <time>2021-08-07T11:11:26.309Z</time>
      </trkpt>
      <trkpt lat="46.9142" lon="8.64975">
        <ele>1127</ele>
        <time>2021-08-07T11:11:27.308Z</time>
      </trkpt>
      <trkpt lat="46.91421" lon="8.64972">
        <ele>1127</ele>
        <time>2021-08-07T11:11:28.309Z</time>
      </trkpt>
      <trkpt lat="46.91422" lon="8.64971">
        <ele>1127</ele>
        <time>2021-08-07T11:11:29.308Z</time>
      </trkpt>
      <trkpt lat="46.91423" lon="8.64971">
        <ele>1127</ele>
        <time>2021-08-07T11:11:30.308Z</time>
      </trkpt>
      <trkpt lat="46.91423" lon="8.64971">
        <ele>1128</ele>
        <time>2021-08-07T11:11:31.308Z</time>
      </trkpt>
      <trkpt lat="46.91424" lon="8.64972">
        <ele>1128</ele>
        <time>2021-08-07T11:11:32.309Z</time>
      </trkpt>
      <trkpt lat="46.91424" lon="8.64972">
        <ele>1129</ele>
        <time>2021-08-07T11:11:33.309Z</time>
      </trkpt>
      <trkpt lat="46.91426" lon="8.64971">
        <ele>1129</ele>
        <time>2021-08-07T11:11:34.309Z</time>
      </trkpt>
      <trkpt lat="46.91427" lon="8.64971">
        <ele>1130</ele>
        <time>2021-08-07T11:11:35.308Z</time>
      </trkpt>
      <trkpt lat="46.91428" lon="8.64971">
        <ele>1130</ele>
        <time>2021-08-07T11:11:36.309Z</time>
      </trkpt>
      <trkpt lat="46.91429" lon="8.6497">
        <ele>1131</ele>
        <time>2021-08-07T11:11:37.308Z</time>
      </trkpt>
      <trkpt lat="46.9143" lon="8.6497">
        <ele>1132</ele>
        <time>2021-08-07T11:11:38.309Z</time>
      </trkpt>
      <trkpt lat="46.91431" lon="8.64971">
        <ele>1133</ele>
        <time>2021-08-07T11:11:39.309Z</time>
      </trkpt>
      <trkpt lat="46.91431" lon="8.64971">
        <ele>1133</ele>
        <time>2021-08-07T11:11:40.309Z</time>
      </trkpt>
      <trkpt lat="46.91432" lon="8.64971">
        <ele>1134</ele>
        <time>2021-08-07T11:11:41.309Z</time>
      </trkpt>
      <trkpt lat="46.91432" lon="8.64972">
        <ele>1135</ele>
        <time>2021-08-07T11:11:42.308Z</time>
      </trkpt>
      <trkpt lat="46.91433" lon="8.64972">
        <ele>1135</ele>
        <time>2021-08-07T11:11:43.308Z</time>
      </trkpt>
      <trkpt lat="46.91433" lon="8.64973">
        <ele>1135</ele>
        <time>2021-08-07T11:11:44.308Z</time>
      </trkpt>
      <trkpt lat="46.91433" lon="8.64973">
        <ele>1136</ele>
        <time>2021-08-07T11:11:45.309Z</time>
      </trkpt>
      <trkpt lat="46.91434" lon="8.64974">
        <ele>1136</ele>
        <time>2021-08-07T11:11:46.309Z</time>
      </trkpt>
      <trkpt lat="46.91434" lon="8.64974">
        <ele>1136</ele>
        <time>2021-08-07T11:11:47.309Z</time>
      </trkpt>
      <trkpt lat="46.91435" lon="8.64974">
        <ele>1136</ele>
        <time>2021-08-07T11:11:48.309Z</time>
      </trkpt>
      <trkpt lat="46.91436" lon="8.64974">
        <ele>1136</ele>
        <time>2021-08-07T11:11:49.309Z</time>
      </trkpt>
      <trkpt lat="46.91437" lon="8.64975">
        <ele>1136</ele>
        <time>2021-08-07T11:11:50.308Z</time>
      </trkpt>
      <trkpt lat="46.91437" lon="8.64975">
        <ele>1136</ele>
        <time>2021-08-07T11:11:51.309Z</time>
      </trkpt>
      <trkpt lat="46.91438" lon="8.64976">
        <ele>1135</ele>
        <time>2021-08-07T11:11:52.309Z</time>
      </trkpt>
      <trkpt lat="46.91439" lon="8.64976">
        <ele>1135</ele>
        <time>2021-08-07T11:11:53.308Z</time>
      </trkpt>
      <trkpt lat="46.9144" lon="8.64976">
        <ele>1135</ele>
        <time>2021-08-07T11:11:54.309Z</time>
      </trkpt>
      <trkpt lat="46.91441" lon="8.64977">
        <ele>1135</ele>
        <time>2021-08-07T11:11:55.309Z</time>
      </trkpt>
      <trkpt lat="46.91442" lon="8.64976">
        <ele>1135</ele>
        <time>2021-08-07T11:11:56.309Z</time>
      </trkpt>
      <trkpt lat="46.91444" lon="8.64976">
        <ele>1135</ele>
        <time>2021-08-07T11:11:57.309Z</time>
      </trkpt>
      <trkpt lat="46.91445" lon="8.64977">
        <ele>1135</ele>
        <time>2021-08-07T11:11:58.308Z</time>
      </trkpt>
      <trkpt lat="46.91447" lon="8.64977">
        <ele>1135</ele>
        <time>2021-08-07T11:11:59.308Z</time>
      </trkpt>
      <trkpt lat="46.91448" lon="8.64977">
        <ele>1135</ele>
        <time>2021-08-07T11:12:00.309Z</time>
      </trkpt>
      <trkpt lat="46.91449" lon="8.64978">
        <ele>1135</ele>
        <time>2021-08-07T11:12:01.308Z</time>
      </trkpt>
      <trkpt lat="46.9145" lon="8.64979">
        <ele>1135</ele>
        <time>2021-08-07T11:12:02.308Z</time>
      </trkpt>
      <trkpt lat="46.91452" lon="8.64979">
        <ele>1135</ele>
        <time>2021-08-07T11:12:03.309Z</time>
      </trkpt>
      <trkpt lat="46.91453" lon="8.6498">
        <ele>1134</ele>
        <time>2021-08-07T11:12:04.309Z</time>
      </trkpt>
      <trkpt lat="46.91455" lon="8.6498">
        <ele>1134</ele>
        <time>2021-08-07T11:12:05.309Z</time>
      </trkpt>
      <trkpt lat="46.91456" lon="8.64982">
        <ele>1134</ele>
        <time>2021-08-07T11:12:06.308Z</time>
      </trkpt>
      <trkpt lat="46.91464" lon="8.64984">
        <ele>1135</ele>
        <time>2021-08-07T11:12:07.310Z</time>
      </trkpt>
      <trkpt lat="46.91466" lon="8.64985">
        <ele>1135</ele>
        <time>2021-08-07T11:12:08.310Z</time>
      </trkpt>
      <trkpt lat="46.91467" lon="8.64986">
        <ele>1134</ele>
        <time>2021-08-07T11:12:09.310Z</time>
      </trkpt>
      <trkpt lat="46.91468" lon="8.64987">
        <ele>1134</ele>
        <time>2021-08-07T11:12:10.310Z</time>
      </trkpt>
      <trkpt lat="46.9147" lon="8.64988">
        <ele>1133</ele>
        <time>2021-08-07T11:12:11.310Z</time>
      </trkpt>
      <trkpt lat="46.91472" lon="8.64987">
        <ele>1133</ele>
        <time>2021-08-07T11:12:12.310Z</time>
      </trkpt>
      <trkpt lat="46.91474" lon="8.64986">
        <ele>1133</ele>
        <time>2021-08-07T11:12:13.310Z</time>
      </trkpt>
      <trkpt lat="46.91476" lon="8.64986">
        <ele>1133</ele>
        <time>2021-08-07T11:12:14.309Z</time>
      </trkpt>
      <trkpt lat="46.91477" lon="8.64987">
        <ele>1132</ele>
        <time>2021-08-07T11:12:15.310Z</time>
      </trkpt>
      <trkpt lat="46.91479" lon="8.64988">
        <ele>1132</ele>
        <time>2021-08-07T11:12:16.310Z</time>
      </trkpt>
      <trkpt lat="46.91481" lon="8.64989">
        <ele>1132</ele>
        <time>2021-08-07T11:12:17.309Z</time>
      </trkpt>
      <trkpt lat="46.91483" lon="8.64989">
        <ele>1132</ele>
        <time>2021-08-07T11:12:18.309Z</time>
      </trkpt>
      <trkpt lat="46.91484" lon="8.64989">
        <ele>1132</ele>
        <time>2021-08-07T11:12:19.310Z</time>
      </trkpt>
      <trkpt lat="46.91485" lon="8.64989">
        <ele>1132</ele>
        <time>2021-08-07T11:12:20.309Z</time>
      </trkpt>
      <trkpt lat="46.91487" lon="8.64989">
        <ele>1132</ele>
        <time>2021-08-07T11:12:21.310Z</time>
      </trkpt>
      <trkpt lat="46.91488" lon="8.64988">
        <ele>1132</ele>
        <time>2021-08-07T11:12:22.309Z</time>
      </trkpt>
      <trkpt lat="46.91489" lon="8.64988">
        <ele>1132</ele>
        <time>2021-08-07T11:12:23.310Z</time>
      </trkpt>
      <trkpt lat="46.91489" lon="8.64988">
        <ele>1132</ele>
        <time>2021-08-07T11:12:24.310Z</time>
      </trkpt>
      <trkpt lat="46.91489" lon="8.64988">
        <ele>1132</ele>
        <time>2021-08-07T11:12:25.310Z</time>
      </trkpt>
      <trkpt lat="46.9149" lon="8.64988">
        <ele>1132</ele>
        <time>2021-08-07T11:12:26.310Z</time>
      </trkpt>
      <trkpt lat="46.91491" lon="8.64989">
        <ele>1132</ele>
        <time>2021-08-07T11:12:27.310Z</time>
      </trkpt>
      <trkpt lat="46.91492" lon="8.64989">
        <ele>1131</ele>
        <time>2021-08-07T11:12:28.310Z</time>
      </trkpt>
      <trkpt lat="46.91493" lon="8.64987">
        <ele>1131</ele>
        <time>2021-08-07T11:12:29.310Z</time>
      </trkpt>
      <trkpt lat="46.91494" lon="8.64987">
        <ele>1131</ele>
        <time>2021-08-07T11:12:30.310Z</time>
      </trkpt>
      <trkpt lat="46.91495" lon="8.64986">
        <ele>1131</ele>
        <time>2021-08-07T11:12:31.309Z</time>
      </trkpt>
      <trkpt lat="46.91496" lon="8.64984">
        <ele>1131</ele>
        <time>2021-08-07T11:12:32.309Z</time>
      </trkpt>
      <trkpt lat="46.91497" lon="8.64984">
        <ele>1131</ele>
        <time>2021-08-07T11:12:33.309Z</time>
      </trkpt>
      <trkpt lat="46.91498" lon="8.64984">
        <ele>1131</ele>
        <time>2021-08-07T11:12:34.310Z</time>
      </trkpt>
      <trkpt lat="46.91499" lon="8.64984">
        <ele>1131</ele>
        <time>2021-08-07T11:12:35.309Z</time>
      </trkpt>
      <trkpt lat="46.915" lon="8.64984">
        <ele>1131</ele>
        <time>2021-08-07T11:12:36.310Z</time>
      </trkpt>
      <trkpt lat="46.91501" lon="8.64983">
        <ele>1131</ele>
        <time>2021-08-07T11:12:37.310Z</time>
      </trkpt>
      <trkpt lat="46.91502" lon="8.64982">
        <ele>1131</ele>
        <time>2021-08-07T11:12:38.310Z</time>
      </trkpt>
      <trkpt lat="46.91503" lon="8.64981">
        <ele>1131</ele>
        <time>2021-08-07T11:12:39.310Z</time>
      </trkpt>
      <trkpt lat="46.91503" lon="8.64981">
        <ele>1131</ele>
        <time>2021-08-07T11:12:40.310Z</time>
      </trkpt>
      <trkpt lat="46.91504" lon="8.6498">
        <ele>1131</ele>
        <time>2021-08-07T11:12:41.310Z</time>
      </trkpt>
      <trkpt lat="46.91504" lon="8.64979">
        <ele>1132</ele>
        <time>2021-08-07T11:12:42.309Z</time>
      </trkpt>
      <trkpt lat="46.91505" lon="8.64978">
        <ele>1132</ele>
        <time>2021-08-07T11:12:43.309Z</time>
      </trkpt>
      <trkpt lat="46.91507" lon="8.64976">
        <ele>1132</ele>
        <time>2021-08-07T11:12:44.310Z</time>
      </trkpt>
      <trkpt lat="46.91508" lon="8.64975">
        <ele>1132</ele>
        <time>2021-08-07T11:12:45.309Z</time>
      </trkpt>
      <trkpt lat="46.91509" lon="8.64973">
        <ele>1131</ele>
        <time>2021-08-07T11:12:46.310Z</time>
      </trkpt>
      <trkpt lat="46.9151" lon="8.64972">
        <ele>1131</ele>
        <time>2021-08-07T11:12:47.309Z</time>
      </trkpt>
      <trkpt lat="46.91511" lon="8.64971">
        <ele>1130</ele>
        <time>2021-08-07T11:12:48.309Z</time>
      </trkpt>
      <trkpt lat="46.91512" lon="8.64969">
        <ele>1130</ele>
        <time>2021-08-07T11:12:49.310Z</time>
      </trkpt>
      <trkpt lat="46.91513" lon="8.64969">
        <ele>1130</ele>
        <time>2021-08-07T11:12:50.310Z</time>
      </trkpt>
      <trkpt lat="46.91514" lon="8.64967">
        <ele>1129</ele>
        <time>2021-08-07T11:12:51.309Z</time>
      </trkpt>
      <trkpt lat="46.91514" lon="8.64966">
        <ele>1129</ele>
        <time>2021-08-07T11:12:52.309Z</time>
      </trkpt>
      <trkpt lat="46.91514" lon="8.64965">
        <ele>1129</ele>
        <time>2021-08-07T11:12:53.309Z</time>
      </trkpt>
      <trkpt lat="46.91515" lon="8.64965">
        <ele>1129</ele>
        <time>2021-08-07T11:12:54.309Z</time>
      </trkpt>
      <trkpt lat="46.91516" lon="8.64965">
        <ele>1128</ele>
        <time>2021-08-07T11:12:55.309Z</time>
      </trkpt>
      <trkpt lat="46.91516" lon="8.64965">
        <ele>1128</ele>
        <time>2021-08-07T11:12:56.310Z</time>
      </trkpt>
      <trkpt lat="46.91518" lon="8.64966">
        <ele>1128</ele>
        <time>2021-08-07T11:12:57.309Z</time>
      </trkpt>
      <trkpt lat="46.91519" lon="8.64967">
        <ele>1128</ele>
        <time>2021-08-07T11:12:58.309Z</time>
      </trkpt>
      <trkpt lat="46.91519" lon="8.64968">
        <ele>1127</ele>
        <time>2021-08-07T11:12:59.309Z</time>
      </trkpt>
      <trkpt lat="46.9152" lon="8.64969">
        <ele>1127</ele>
        <time>2021-08-07T11:13:00.309Z</time>
      </trkpt>
      <trkpt lat="46.91521" lon="8.6497">
        <ele>1127</ele>
        <time>2021-08-07T11:13:01.310Z</time>
      </trkpt>
      <trkpt lat="46.91522" lon="8.64971">
        <ele>1127</ele>
        <time>2021-08-07T11:13:02.309Z</time>
      </trkpt>
      <trkpt lat="46.91522" lon="8.64972">
        <ele>1127</ele>
        <time>2021-08-07T11:13:03.309Z</time>
      </trkpt>
      <trkpt lat="46.91523" lon="8.64973">
        <ele>1126</ele>
        <time>2021-08-07T11:13:04.309Z</time>
      </trkpt>
      <trkpt lat="46.91524" lon="8.64973">
        <ele>1126</ele>
        <time>2021-08-07T11:13:05.310Z</time>
      </trkpt>
      <trkpt lat="46.91524" lon="8.64973">
        <ele>1125</ele>
        <time>2021-08-07T11:13:06.310Z</time>
      </trkpt>
      <trkpt lat="46.91525" lon="8.64973">
        <ele>1125</ele>
        <time>2021-08-07T11:13:07.309Z</time>
      </trkpt>
      <trkpt lat="46.91525" lon="8.64973">
        <ele>1124</ele>
        <time>2021-08-07T11:13:08.309Z</time>
      </trkpt>
      <trkpt lat="46.91526" lon="8.64973">
        <ele>1123</ele>
        <time>2021-08-07T11:13:09.310Z</time>
      </trkpt>
      <trkpt lat="46.91527" lon="8.64977">
        <ele>1120</ele>
        <time>2021-08-07T11:13:10.310Z</time>
      </trkpt>
      <trkpt lat="46.91527" lon="8.64977">
        <ele>1119</ele>
        <time>2021-08-07T11:13:11.310Z</time>
      </trkpt>
      <trkpt lat="46.91527" lon="8.64977">
        <ele>1119</ele>
        <time>2021-08-07T11:13:12.311Z</time>
      </trkpt>
      <trkpt lat="46.91526" lon="8.64978">
        <ele>1119</ele>
        <time>2021-08-07T11:13:13.311Z</time>
      </trkpt>
      <trkpt lat="46.91526" lon="8.6498">
        <ele>1118</ele>
        <time>2021-08-07T11:13:14.310Z</time>
      </trkpt>
      <trkpt lat="46.91527" lon="8.64979">
        <ele>1118</ele>
        <time>2021-08-07T11:13:15.311Z</time>
      </trkpt>
      <trkpt lat="46.91527" lon="8.64979">
        <ele>1118</ele>
        <time>2021-08-07T11:13:16.311Z</time>
      </trkpt>
      <trkpt lat="46.91528" lon="8.6498">
        <ele>1117</ele>
        <time>2021-08-07T11:13:17.310Z</time>
      </trkpt>
      <trkpt lat="46.91529" lon="8.64979">
        <ele>1117</ele>
        <time>2021-08-07T11:13:18.311Z</time>
      </trkpt>
      <trkpt lat="46.91529" lon="8.64979">
        <ele>1117</ele>
        <time>2021-08-07T11:13:19.310Z</time>
      </trkpt>
      <trkpt lat="46.9153" lon="8.64978">
        <ele>1117</ele>
        <time>2021-08-07T11:13:20.310Z</time>
      </trkpt>
      <trkpt lat="46.9153" lon="8.64977">
        <ele>1116</ele>
        <time>2021-08-07T11:13:21.310Z</time>
      </trkpt>
      <trkpt lat="46.9153" lon="8.64976">
        <ele>1116</ele>
        <time>2021-08-07T11:13:22.311Z</time>
      </trkpt>
      <trkpt lat="46.9153" lon="8.64975">
        <ele>1116</ele>
        <time>2021-08-07T11:13:23.310Z</time>
      </trkpt>
      <trkpt lat="46.9153" lon="8.64975">
        <ele>1116</ele>
        <time>2021-08-07T11:13:24.311Z</time>
      </trkpt>
      <trkpt lat="46.91531" lon="8.64974">
        <ele>1115</ele>
        <time>2021-08-07T11:13:25.311Z</time>
      </trkpt>
      <trkpt lat="46.91531" lon="8.64973">
        <ele>1115</ele>
        <time>2021-08-07T11:13:26.311Z</time>
      </trkpt>
      <trkpt lat="46.91532" lon="8.64973">
        <ele>1115</ele>
        <time>2021-08-07T11:13:27.310Z</time>
      </trkpt>
      <trkpt lat="46.91533" lon="8.64972">
        <ele>1115</ele>
        <time>2021-08-07T11:13:28.310Z</time>
      </trkpt>
      <trkpt lat="46.91533" lon="8.64972">
        <ele>1115</ele>
        <time>2021-08-07T11:13:29.311Z</time>
      </trkpt>
      <trkpt lat="46.91534" lon="8.64972">
        <ele>1115</ele>
        <time>2021-08-07T11:13:30.310Z</time>
      </trkpt>
      <trkpt lat="46.91534" lon="8.64971">
        <ele>1115</ele>
        <time>2021-08-07T11:13:31.311Z</time>
      </trkpt>
      <trkpt lat="46.91534" lon="8.64971">
        <ele>1114</ele>
        <time>2021-08-07T11:13:32.310Z</time>
      </trkpt>
      <trkpt lat="46.91535" lon="8.6497">
        <ele>1114</ele>
        <time>2021-08-07T11:13:33.311Z</time>
      </trkpt>
      <trkpt lat="46.91536" lon="8.64969">
        <ele>1114</ele>
        <time>2021-08-07T11:13:34.310Z</time>
      </trkpt>
      <trkpt lat="46.91536" lon="8.64968">
        <ele>1114</ele>
        <time>2021-08-07T11:13:35.311Z</time>
      </trkpt>
      <trkpt lat="46.91537" lon="8.64967">
        <ele>1114</ele>
        <time>2021-08-07T11:13:36.310Z</time>
      </trkpt>
      <trkpt lat="46.91538" lon="8.64966">
        <ele>1114</ele>
        <time>2021-08-07T11:13:37.311Z</time>
      </trkpt>
      <trkpt lat="46.91539" lon="8.64966">
        <ele>1113</ele>
        <time>2021-08-07T11:13:38.311Z</time>
      </trkpt>
      <trkpt lat="46.9154" lon="8.64966">
        <ele>1113</ele>
        <time>2021-08-07T11:13:39.310Z</time>
      </trkpt>
      <trkpt lat="46.91541" lon="8.64965">
        <ele>1113</ele>
        <time>2021-08-07T11:13:40.310Z</time>
      </trkpt>
      <trkpt lat="46.91543" lon="8.64965">
        <ele>1112</ele>
        <time>2021-08-07T11:13:41.310Z</time>
      </trkpt>
      <trkpt lat="46.91544" lon="8.64963">
        <ele>1112</ele>
        <time>2021-08-07T11:13:42.311Z</time>
      </trkpt>
      <trkpt lat="46.91544" lon="8.64961">
        <ele>1111</ele>
        <time>2021-08-07T11:13:43.310Z</time>
      </trkpt>
      <trkpt lat="46.91544" lon="8.6496">
        <ele>1111</ele>
        <time>2021-08-07T11:13:44.311Z</time>
      </trkpt>
      <trkpt lat="46.91546" lon="8.64958">
        <ele>1111</ele>
        <time>2021-08-07T11:13:45.311Z</time>
      </trkpt>
      <trkpt lat="46.91546" lon="8.64957">
        <ele>1110</ele>
        <time>2021-08-07T11:13:46.310Z</time>
      </trkpt>
      <trkpt lat="46.91548" lon="8.64957">
        <ele>1110</ele>
        <time>2021-08-07T11:13:47.311Z</time>
      </trkpt>
      <trkpt lat="46.91548" lon="8.64957">
        <ele>1110</ele>
        <time>2021-08-07T11:13:48.311Z</time>
      </trkpt>
      <trkpt lat="46.91549" lon="8.64957">
        <ele>1110</ele>
        <time>2021-08-07T11:13:49.310Z</time>
      </trkpt>
      <trkpt lat="46.91551" lon="8.64955">
        <ele>1110</ele>
        <time>2021-08-07T11:13:50.310Z</time>
      </trkpt>
      <trkpt lat="46.91554" lon="8.64953">
        <ele>1110</ele>
        <time>2021-08-07T11:13:51.311Z</time>
      </trkpt>
      <trkpt lat="46.91556" lon="8.64953">
        <ele>1110</ele>
        <time>2021-08-07T11:13:52.311Z</time>
      </trkpt>
      <trkpt lat="46.91557" lon="8.64952">
        <ele>1110</ele>
        <time>2021-08-07T11:13:53.310Z</time>
      </trkpt>
      <trkpt lat="46.91559" lon="8.64951">
        <ele>1110</ele>
        <time>2021-08-07T11:13:54.310Z</time>
      </trkpt>
      <trkpt lat="46.91561" lon="8.6495">
        <ele>1110</ele>
        <time>2021-08-07T11:13:55.310Z</time>
      </trkpt>
      <trkpt lat="46.91561" lon="8.64948">
        <ele>1110</ele>
        <time>2021-08-07T11:13:56.311Z</time>
      </trkpt>
      <trkpt lat="46.91562" lon="8.64947">
        <ele>1110</ele>
        <time>2021-08-07T11:13:57.310Z</time>
      </trkpt>
      <trkpt lat="46.91562" lon="8.64946">
        <ele>1109</ele>
        <time>2021-08-07T11:13:58.311Z</time>
      </trkpt>
      <trkpt lat="46.91562" lon="8.64945">
        <ele>1109</ele>
        <time>2021-08-07T11:13:59.311Z</time>
      </trkpt>
      <trkpt lat="46.91563" lon="8.64944">
        <ele>1109</ele>
        <time>2021-08-07T11:14:00.311Z</time>
      </trkpt>
      <trkpt lat="46.91564" lon="8.64943">
        <ele>1108</ele>
        <time>2021-08-07T11:14:01.311Z</time>
      </trkpt>
      <trkpt lat="46.91564" lon="8.64943">
        <ele>1108</ele>
        <time>2021-08-07T11:14:02.310Z</time>
      </trkpt>
      <trkpt lat="46.91564" lon="8.64942">
        <ele>1107</ele>
        <time>2021-08-07T11:14:03.310Z</time>
      </trkpt>
      <trkpt lat="46.91565" lon="8.64942">
        <ele>1107</ele>
        <time>2021-08-07T11:14:04.311Z</time>
      </trkpt>
      <trkpt lat="46.91566" lon="8.64941">
        <ele>1107</ele>
        <time>2021-08-07T11:14:05.311Z</time>
      </trkpt>
      <trkpt lat="46.91567" lon="8.6494">
        <ele>1106</ele>
        <time>2021-08-07T11:14:06.310Z</time>
      </trkpt>
      <trkpt lat="46.91568" lon="8.6494">
        <ele>1106</ele>
        <time>2021-08-07T11:14:07.311Z</time>
      </trkpt>
      <trkpt lat="46.91569" lon="8.64939">
        <ele>1106</ele>
        <time>2021-08-07T11:14:08.310Z</time>
      </trkpt>
      <trkpt lat="46.9157" lon="8.64937">
        <ele>1105</ele>
        <time>2021-08-07T11:14:09.311Z</time>
      </trkpt>
      <trkpt lat="46.9157" lon="8.64937">
        <ele>1105</ele>
        <time>2021-08-07T11:14:10.310Z</time>
      </trkpt>
      <trkpt lat="46.91571" lon="8.64937">
        <ele>1105</ele>
        <time>2021-08-07T11:14:11.311Z</time>
      </trkpt>
      <trkpt lat="46.91572" lon="8.64936">
        <ele>1105</ele>
        <time>2021-08-07T11:14:12.311Z</time>
      </trkpt>
      <trkpt lat="46.91574" lon="8.64934">
        <ele>1105</ele>
        <time>2021-08-07T11:14:13.311Z</time>
      </trkpt>
      <trkpt lat="46.91575" lon="8.64932">
        <ele>1104</ele>
        <time>2021-08-07T11:14:14.311Z</time>
      </trkpt>
      <trkpt lat="46.91576" lon="8.64929">
        <ele>1104</ele>
        <time>2021-08-07T11:14:15.311Z</time>
      </trkpt>
      <trkpt lat="46.91577" lon="8.64926">
        <ele>1104</ele>
        <time>2021-08-07T11:14:16.311Z</time>
      </trkpt>
      <trkpt lat="46.91578" lon="8.64925">
        <ele>1103</ele>
        <time>2021-08-07T11:14:17.311Z</time>
      </trkpt>
      <trkpt lat="46.91579" lon="8.64924">
        <ele>1103</ele>
        <time>2021-08-07T11:14:18.310Z</time>
      </trkpt>
      <trkpt lat="46.91579" lon="8.64923">
        <ele>1103</ele>
        <time>2021-08-07T11:14:19.311Z</time>
      </trkpt>
      <trkpt lat="46.91581" lon="8.64922">
        <ele>1102</ele>
        <time>2021-08-07T11:14:20.311Z</time>
      </trkpt>
      <trkpt lat="46.91582" lon="8.6492">
        <ele>1102</ele>
        <time>2021-08-07T11:14:21.311Z</time>
      </trkpt>
      <trkpt lat="46.91583" lon="8.64918">
        <ele>1101</ele>
        <time>2021-08-07T11:14:22.311Z</time>
      </trkpt>
      <trkpt lat="46.91584" lon="8.64917">
        <ele>1101</ele>
        <time>2021-08-07T11:14:23.311Z</time>
      </trkpt>
      <trkpt lat="46.91585" lon="8.64916">
        <ele>1100</ele>
        <time>2021-08-07T11:14:24.311Z</time>
      </trkpt>
      <trkpt lat="46.91585" lon="8.64914">
        <ele>1100</ele>
        <time>2021-08-07T11:14:25.310Z</time>
      </trkpt>
      <trkpt lat="46.91585" lon="8.64912">
        <ele>1099</ele>
        <time>2021-08-07T11:14:26.311Z</time>
      </trkpt>
      <trkpt lat="46.91586" lon="8.6491">
        <ele>1099</ele>
        <time>2021-08-07T11:14:27.311Z</time>
      </trkpt>
      <trkpt lat="46.91588" lon="8.64909">
        <ele>1099</ele>
        <time>2021-08-07T11:14:28.310Z</time>
      </trkpt>
      <trkpt lat="46.91589" lon="8.64908">
        <ele>1098</ele>
        <time>2021-08-07T11:14:29.310Z</time>
      </trkpt>
      <trkpt lat="46.9159" lon="8.64907">
        <ele>1098</ele>
        <time>2021-08-07T11:14:30.311Z</time>
      </trkpt>
      <trkpt lat="46.91591" lon="8.64907">
        <ele>1098</ele>
        <time>2021-08-07T11:14:31.311Z</time>
      </trkpt>
      <trkpt lat="46.91592" lon="8.64906">
        <ele>1098</ele>
        <time>2021-08-07T11:14:32.311Z</time>
      </trkpt>
      <trkpt lat="46.91593" lon="8.64905">
        <ele>1098</ele>
        <time>2021-08-07T11:14:33.310Z</time>
      </trkpt>
      <trkpt lat="46.91594" lon="8.64904">
        <ele>1098</ele>
        <time>2021-08-07T11:14:34.310Z</time>
      </trkpt>
      <trkpt lat="46.91595" lon="8.64902">
        <ele>1098</ele>
        <time>2021-08-07T11:14:35.311Z</time>
      </trkpt>
      <trkpt lat="46.91595" lon="8.64901">
        <ele>1098</ele>
        <time>2021-08-07T11:14:36.310Z</time>
      </trkpt>
      <trkpt lat="46.91596" lon="8.64898">
        <ele>1098</ele>
        <time>2021-08-07T11:14:37.311Z</time>
      </trkpt>
      <trkpt lat="46.91597" lon="8.64897">
        <ele>1098</ele>
        <time>2021-08-07T11:14:38.310Z</time>
      </trkpt>
      <trkpt lat="46.91598" lon="8.64895">
        <ele>1098</ele>
        <time>2021-08-07T11:14:39.311Z</time>
      </trkpt>
      <trkpt lat="46.91598" lon="8.64893">
        <ele>1098</ele>
        <time>2021-08-07T11:14:40.311Z</time>
      </trkpt>
      <trkpt lat="46.91598" lon="8.64892">
        <ele>1098</ele>
        <time>2021-08-07T11:14:41.311Z</time>
      </trkpt>
      <trkpt lat="46.91598" lon="8.64891">
        <ele>1098</ele>
        <time>2021-08-07T11:14:42.311Z</time>
      </trkpt>
      <trkpt lat="46.91599" lon="8.64889">
        <ele>1097</ele>
        <time>2021-08-07T11:14:49.321Z</time>
      </trkpt>
      <trkpt lat="46.91599" lon="8.64888">
        <ele>1097</ele>
        <time>2021-08-07T11:14:50.322Z</time>
      </trkpt>
      <trkpt lat="46.91601" lon="8.64888">
        <ele>1097</ele>
        <time>2021-08-07T11:14:51.322Z</time>
      </trkpt>
      <trkpt lat="46.91602" lon="8.64888">
        <ele>1097</ele>
        <time>2021-08-07T11:14:52.322Z</time>
      </trkpt>
      <trkpt lat="46.91603" lon="8.64888">
        <ele>1097</ele>
        <time>2021-08-07T11:14:53.322Z</time>
      </trkpt>
      <trkpt lat="46.91604" lon="8.64888">
        <ele>1097</ele>
        <time>2021-08-07T11:14:54.322Z</time>
      </trkpt>
      <trkpt lat="46.91605" lon="8.64887">
        <ele>1097</ele>
        <time>2021-08-07T11:14:55.321Z</time>
      </trkpt>
      <trkpt lat="46.91606" lon="8.64887">
        <ele>1096</ele>
        <time>2021-08-07T11:14:56.322Z</time>
      </trkpt>
      <trkpt lat="46.91607" lon="8.64887">
        <ele>1096</ele>
        <time>2021-08-07T11:14:57.322Z</time>
      </trkpt>
      <trkpt lat="46.91608" lon="8.64886">
        <ele>1096</ele>
        <time>2021-08-07T11:14:58.321Z</time>
      </trkpt>
      <trkpt lat="46.91609" lon="8.64884">
        <ele>1096</ele>
        <time>2021-08-07T11:14:59.321Z</time>
      </trkpt>
      <trkpt lat="46.91611" lon="8.64883">
        <ele>1096</ele>
        <time>2021-08-07T11:15:00.322Z</time>
      </trkpt>
      <trkpt lat="46.91612" lon="8.64882">
        <ele>1096</ele>
        <time>2021-08-07T11:15:01.322Z</time>
      </trkpt>
      <trkpt lat="46.91613" lon="8.6488">
        <ele>1096</ele>
        <time>2021-08-07T11:15:02.322Z</time>
      </trkpt>
      <trkpt lat="46.91614" lon="8.6488">
        <ele>1096</ele>
        <time>2021-08-07T11:15:03.322Z</time>
      </trkpt>
      <trkpt lat="46.91615" lon="8.64879">
        <ele>1096</ele>
        <time>2021-08-07T11:15:04.321Z</time>
      </trkpt>
      <trkpt lat="46.91617" lon="8.64879">
        <ele>1096</ele>
        <time>2021-08-07T11:15:05.321Z</time>
      </trkpt>
      <trkpt lat="46.91619" lon="8.64878">
        <ele>1095</ele>
        <time>2021-08-07T11:15:06.321Z</time>
      </trkpt>
      <trkpt lat="46.9162" lon="8.64878">
        <ele>1095</ele>
        <time>2021-08-07T11:15:07.321Z</time>
      </trkpt>
      <trkpt lat="46.91621" lon="8.64876">
        <ele>1094</ele>
        <time>2021-08-07T11:15:08.321Z</time>
      </trkpt>
      <trkpt lat="46.91622" lon="8.64875">
        <ele>1094</ele>
        <time>2021-08-07T11:15:09.322Z</time>
      </trkpt>
      <trkpt lat="46.91623" lon="8.64874">
        <ele>1093</ele>
        <time>2021-08-07T11:15:10.322Z</time>
      </trkpt>
      <trkpt lat="46.91625" lon="8.64872">
        <ele>1093</ele>
        <time>2021-08-07T11:15:11.321Z</time>
      </trkpt>
      <trkpt lat="46.91626" lon="8.64871">
        <ele>1092</ele>
        <time>2021-08-07T11:15:12.322Z</time>
      </trkpt>
      <trkpt lat="46.91628" lon="8.6487">
        <ele>1092</ele>
        <time>2021-08-07T11:15:13.322Z</time>
      </trkpt>
      <trkpt lat="46.9163" lon="8.64869">
        <ele>1091</ele>
        <time>2021-08-07T11:15:14.322Z</time>
      </trkpt>
      <trkpt lat="46.91631" lon="8.64868">
        <ele>1091</ele>
        <time>2021-08-07T11:15:15.321Z</time>
      </trkpt>
      <trkpt lat="46.91632" lon="8.64867">
        <ele>1091</ele>
        <time>2021-08-07T11:15:16.322Z</time>
      </trkpt>
      <trkpt lat="46.91633" lon="8.64866">
        <ele>1090</ele>
        <time>2021-08-07T11:15:17.322Z</time>
      </trkpt>
      <trkpt lat="46.91634" lon="8.64866">
        <ele>1090</ele>
        <time>2021-08-07T11:15:18.321Z</time>
      </trkpt>
      <trkpt lat="46.91635" lon="8.64865">
        <ele>1090</ele>
        <time>2021-08-07T11:15:19.321Z</time>
      </trkpt>
      <trkpt lat="46.91635" lon="8.64864">
        <ele>1089</ele>
        <time>2021-08-07T11:15:24.454Z</time>
      </trkpt>
      <trkpt lat="46.91635" lon="8.64862">
        <ele>1088</ele>
        <time>2021-08-07T11:15:25.455Z</time>
      </trkpt>
      <trkpt lat="46.91636" lon="8.6486">
        <ele>1088</ele>
        <time>2021-08-07T11:15:26.455Z</time>
      </trkpt>
      <trkpt lat="46.91637" lon="8.64859">
        <ele>1087</ele>
        <time>2021-08-07T11:15:27.455Z</time>
      </trkpt>
      <trkpt lat="46.91638" lon="8.64858">
        <ele>1087</ele>
        <time>2021-08-07T11:15:28.454Z</time>
      </trkpt>
      <trkpt lat="46.91638" lon="8.64857">
        <ele>1087</ele>
        <time>2021-08-07T11:15:29.455Z</time>
      </trkpt>
      <trkpt lat="46.91639" lon="8.64856">
        <ele>1087</ele>
        <time>2021-08-07T11:15:30.455Z</time>
      </trkpt>
      <trkpt lat="46.9164" lon="8.64855">
        <ele>1087</ele>
        <time>2021-08-07T11:15:31.454Z</time>
      </trkpt>
      <trkpt lat="46.9164" lon="8.64855">
        <ele>1087</ele>
        <time>2021-08-07T11:15:32.455Z</time>
      </trkpt>
      <trkpt lat="46.91641" lon="8.64854">
        <ele>1086</ele>
        <time>2021-08-07T11:15:33.455Z</time>
      </trkpt>
      <trkpt lat="46.91641" lon="8.64855">
        <ele>1086</ele>
        <time>2021-08-07T11:15:34.455Z</time>
      </trkpt>
      <trkpt lat="46.91642" lon="8.64855">
        <ele>1086</ele>
        <time>2021-08-07T11:15:35.455Z</time>
      </trkpt>
      <trkpt lat="46.91641" lon="8.64855">
        <ele>1086</ele>
        <time>2021-08-07T11:15:36.455Z</time>
      </trkpt>
      <trkpt lat="46.91641" lon="8.64856">
        <ele>1086</ele>
        <time>2021-08-07T11:15:37.455Z</time>
      </trkpt>
      <trkpt lat="46.91641" lon="8.64851">
        <ele>1084</ele>
        <time>2021-08-07T11:15:38.455Z</time>
      </trkpt>
      <trkpt lat="46.91642" lon="8.6485">
        <ele>1083</ele>
        <time>2021-08-07T11:15:39.456Z</time>
      </trkpt>
      <trkpt lat="46.91643" lon="8.6485">
        <ele>1083</ele>
        <time>2021-08-07T11:15:40.455Z</time>
      </trkpt>
      <trkpt lat="46.91644" lon="8.6485">
        <ele>1083</ele>
        <time>2021-08-07T11:15:41.456Z</time>
      </trkpt>
      <trkpt lat="46.91644" lon="8.6485">
        <ele>1083</ele>
        <time>2021-08-07T11:15:42.456Z</time>
      </trkpt>
      <trkpt lat="46.91645" lon="8.64849">
        <ele>1083</ele>
        <time>2021-08-07T11:15:43.456Z</time>
      </trkpt>
      <trkpt lat="46.91645" lon="8.64849">
        <ele>1082</ele>
        <time>2021-08-07T11:15:44.455Z</time>
      </trkpt>
      <trkpt lat="46.91645" lon="8.64849">
        <ele>1082</ele>
        <time>2021-08-07T11:15:45.455Z</time>
      </trkpt>
      <trkpt lat="46.91646" lon="8.64848">
        <ele>1082</ele>
        <time>2021-08-07T11:15:46.455Z</time>
      </trkpt>
      <trkpt lat="46.91648" lon="8.64847">
        <ele>1083</ele>
        <time>2021-08-07T11:15:47.456Z</time>
      </trkpt>
      <trkpt lat="46.91648" lon="8.64845">
        <ele>1083</ele>
        <time>2021-08-07T11:15:48.456Z</time>
      </trkpt>
      <trkpt lat="46.91649" lon="8.64844">
        <ele>1083</ele>
        <time>2021-08-07T11:15:49.456Z</time>
      </trkpt>
      <trkpt lat="46.91649" lon="8.64843">
        <ele>1083</ele>
        <time>2021-08-07T11:15:50.455Z</time>
      </trkpt>
      <trkpt lat="46.9165" lon="8.64842">
        <ele>1083</ele>
        <time>2021-08-07T11:15:51.456Z</time>
      </trkpt>
      <trkpt lat="46.9165" lon="8.64841">
        <ele>1084</ele>
        <time>2021-08-07T11:15:52.456Z</time>
      </trkpt>
      <trkpt lat="46.91651" lon="8.64841">
        <ele>1084</ele>
        <time>2021-08-07T11:15:53.456Z</time>
      </trkpt>
      <trkpt lat="46.91653" lon="8.64842">
        <ele>1084</ele>
        <time>2021-08-07T11:15:54.456Z</time>
      </trkpt>
      <trkpt lat="46.91655" lon="8.64841">
        <ele>1084</ele>
        <time>2021-08-07T11:15:55.456Z</time>
      </trkpt>
      <trkpt lat="46.91656" lon="8.64841">
        <ele>1084</ele>
        <time>2021-08-07T11:15:56.456Z</time>
      </trkpt>
      <trkpt lat="46.91657" lon="8.6484">
        <ele>1084</ele>
        <time>2021-08-07T11:15:57.455Z</time>
      </trkpt>
      <trkpt lat="46.91657" lon="8.64839">
        <ele>1084</ele>
        <time>2021-08-07T11:15:58.455Z</time>
      </trkpt>
      <trkpt lat="46.91658" lon="8.64837">
        <ele>1084</ele>
        <time>2021-08-07T11:15:59.455Z</time>
      </trkpt>
      <trkpt lat="46.91658" lon="8.64836">
        <ele>1084</ele>
        <time>2021-08-07T11:16:00.456Z</time>
      </trkpt>
      <trkpt lat="46.91657" lon="8.64834">
        <ele>1084</ele>
        <time>2021-08-07T11:16:01.456Z</time>
      </trkpt>
      <trkpt lat="46.91657" lon="8.64832">
        <ele>1083</ele>
        <time>2021-08-07T11:16:02.456Z</time>
      </trkpt>
      <trkpt lat="46.91655" lon="8.64832">
        <ele>1082</ele>
        <time>2021-08-07T11:16:03.455Z</time>
      </trkpt>
      <trkpt lat="46.91655" lon="8.64831">
        <ele>1082</ele>
        <time>2021-08-07T11:16:04.456Z</time>
      </trkpt>
      <trkpt lat="46.91654" lon="8.64831">
        <ele>1081</ele>
        <time>2021-08-07T11:16:05.456Z</time>
      </trkpt>
      <trkpt lat="46.91652" lon="8.6483">
        <ele>1081</ele>
        <time>2021-08-07T11:16:06.456Z</time>
      </trkpt>
      <trkpt lat="46.91652" lon="8.64829">
        <ele>1080</ele>
        <time>2021-08-07T11:16:07.456Z</time>
      </trkpt>
      <trkpt lat="46.91651" lon="8.64828">
        <ele>1080</ele>
        <time>2021-08-07T11:16:08.456Z</time>
      </trkpt>
      <trkpt lat="46.91651" lon="8.64828">
        <ele>1080</ele>
        <time>2021-08-07T11:16:09.456Z</time>
      </trkpt>
      <trkpt lat="46.9165" lon="8.64828">
        <ele>1079</ele>
        <time>2021-08-07T11:16:10.455Z</time>
      </trkpt>
      <trkpt lat="46.91649" lon="8.64828">
        <ele>1079</ele>
        <time>2021-08-07T11:16:11.455Z</time>
      </trkpt>
      <trkpt lat="46.91648" lon="8.64828">
        <ele>1079</ele>
        <time>2021-08-07T11:16:12.456Z</time>
      </trkpt>
      <trkpt lat="46.91647" lon="8.64828">
        <ele>1079</ele>
        <time>2021-08-07T11:16:13.456Z</time>
      </trkpt>
      <trkpt lat="46.91646" lon="8.64829">
        <ele>1079</ele>
        <time>2021-08-07T11:16:14.456Z</time>
      </trkpt>
      <trkpt lat="46.91645" lon="8.64829">
        <ele>1079</ele>
        <time>2021-08-07T11:16:15.456Z</time>
      </trkpt>
      <trkpt lat="46.91644" lon="8.64829">
        <ele>1079</ele>
        <time>2021-08-07T11:16:16.455Z</time>
      </trkpt>
      <trkpt lat="46.91643" lon="8.6483">
        <ele>1078</ele>
        <time>2021-08-07T11:16:17.456Z</time>
      </trkpt>
      <trkpt lat="46.91642" lon="8.64831">
        <ele>1078</ele>
        <time>2021-08-07T11:16:18.456Z</time>
      </trkpt>
      <trkpt lat="46.91641" lon="8.64832">
        <ele>1078</ele>
        <time>2021-08-07T11:16:19.456Z</time>
      </trkpt>
      <trkpt lat="46.9164" lon="8.64831">
        <ele>1078</ele>
        <time>2021-08-07T11:16:20.455Z</time>
      </trkpt>
      <trkpt lat="46.91638" lon="8.64832">
        <ele>1078</ele>
        <time>2021-08-07T11:16:21.456Z</time>
      </trkpt>
      <trkpt lat="46.91636" lon="8.64833">
        <ele>1077</ele>
        <time>2021-08-07T11:16:22.456Z</time>
      </trkpt>
      <trkpt lat="46.91634" lon="8.64833">
        <ele>1077</ele>
        <time>2021-08-07T11:16:23.456Z</time>
      </trkpt>
      <trkpt lat="46.91633" lon="8.64834">
        <ele>1077</ele>
        <time>2021-08-07T11:16:24.455Z</time>
      </trkpt>
      <trkpt lat="46.91631" lon="8.64834">
        <ele>1077</ele>
        <time>2021-08-07T11:16:25.456Z</time>
      </trkpt>
      <trkpt lat="46.91629" lon="8.64835">
        <ele>1077</ele>
        <time>2021-08-07T11:16:26.456Z</time>
      </trkpt>
      <trkpt lat="46.91628" lon="8.64836">
        <ele>1077</ele>
        <time>2021-08-07T11:16:27.456Z</time>
      </trkpt>
      <trkpt lat="46.91627" lon="8.64837">
        <ele>1076</ele>
        <time>2021-08-07T11:16:28.455Z</time>
      </trkpt>
      <trkpt lat="46.91626" lon="8.64838">
        <ele>1076</ele>
        <time>2021-08-07T11:16:29.456Z</time>
      </trkpt>
      <trkpt lat="46.91625" lon="8.64839">
        <ele>1076</ele>
        <time>2021-08-07T11:16:30.455Z</time>
      </trkpt>
      <trkpt lat="46.91624" lon="8.64839">
        <ele>1075</ele>
        <time>2021-08-07T11:16:31.455Z</time>
      </trkpt>
      <trkpt lat="46.91623" lon="8.6484">
        <ele>1075</ele>
        <time>2021-08-07T11:16:32.456Z</time>
      </trkpt>
      <trkpt lat="46.91623" lon="8.64841">
        <ele>1075</ele>
        <time>2021-08-07T11:16:33.456Z</time>
      </trkpt>
      <trkpt lat="46.91622" lon="8.64842">
        <ele>1074</ele>
        <time>2021-08-07T11:16:34.456Z</time>
      </trkpt>
      <trkpt lat="46.91621" lon="8.64843">
        <ele>1074</ele>
        <time>2021-08-07T11:16:35.455Z</time>
      </trkpt>
      <trkpt lat="46.91621" lon="8.64844">
        <ele>1073</ele>
        <time>2021-08-07T11:16:36.456Z</time>
      </trkpt>
      <trkpt lat="46.9162" lon="8.64846">
        <ele>1073</ele>
        <time>2021-08-07T11:16:37.455Z</time>
      </trkpt>
      <trkpt lat="46.91619" lon="8.64847">
        <ele>1072</ele>
        <time>2021-08-07T11:16:38.456Z</time>
      </trkpt>
      <trkpt lat="46.91618" lon="8.64847">
        <ele>1072</ele>
        <time>2021-08-07T11:16:39.455Z</time>
      </trkpt>
      <trkpt lat="46.91617" lon="8.64848">
        <ele>1071</ele>
        <time>2021-08-07T11:16:40.455Z</time>
      </trkpt>
      <trkpt lat="46.91615" lon="8.64848">
        <ele>1071</ele>
        <time>2021-08-07T11:16:41.455Z</time>
      </trkpt>
      <trkpt lat="46.91614" lon="8.64848">
        <ele>1071</ele>
        <time>2021-08-07T11:16:42.456Z</time>
      </trkpt>
      <trkpt lat="46.91612" lon="8.64848">
        <ele>1071</ele>
        <time>2021-08-07T11:16:43.456Z</time>
      </trkpt>
      <trkpt lat="46.9161" lon="8.64849">
        <ele>1071</ele>
        <time>2021-08-07T11:16:44.456Z</time>
      </trkpt>
      <trkpt lat="46.91609" lon="8.64848">
        <ele>1071</ele>
        <time>2021-08-07T11:16:45.456Z</time>
      </trkpt>
      <trkpt lat="46.91608" lon="8.64846">
        <ele>1071</ele>
        <time>2021-08-07T11:16:46.456Z</time>
      </trkpt>
      <trkpt lat="46.91607" lon="8.64845">
        <ele>1071</ele>
        <time>2021-08-07T11:16:47.456Z</time>
      </trkpt>
      <trkpt lat="46.91605" lon="8.64845">
        <ele>1071</ele>
        <time>2021-08-07T11:16:48.455Z</time>
      </trkpt>
      <trkpt lat="46.91604" lon="8.64845">
        <ele>1071</ele>
        <time>2021-08-07T11:16:49.456Z</time>
      </trkpt>
      <trkpt lat="46.91603" lon="8.64844">
        <ele>1071</ele>
        <time>2021-08-07T11:16:50.455Z</time>
      </trkpt>
      <trkpt lat="46.91602" lon="8.64843">
        <ele>1071</ele>
        <time>2021-08-07T11:16:51.456Z</time>
      </trkpt>
      <trkpt lat="46.91601" lon="8.64842">
        <ele>1071</ele>
        <time>2021-08-07T11:16:52.455Z</time>
      </trkpt>
      <trkpt lat="46.916" lon="8.64841">
        <ele>1071</ele>
        <time>2021-08-07T11:16:53.456Z</time>
      </trkpt>
      <trkpt lat="46.916" lon="8.6484">
        <ele>1071</ele>
        <time>2021-08-07T11:16:54.455Z</time>
      </trkpt>
      <trkpt lat="46.91599" lon="8.64839">
        <ele>1071</ele>
        <time>2021-08-07T11:16:55.456Z</time>
      </trkpt>
      <trkpt lat="46.91598" lon="8.64838">
        <ele>1071</ele>
        <time>2021-08-07T11:16:56.456Z</time>
      </trkpt>
      <trkpt lat="46.91597" lon="8.64838">
        <ele>1071</ele>
        <time>2021-08-07T11:16:57.455Z</time>
      </trkpt>
      <trkpt lat="46.91596" lon="8.64837">
        <ele>1071</ele>
        <time>2021-08-07T11:16:58.456Z</time>
      </trkpt>
      <trkpt lat="46.91595" lon="8.64835">
        <ele>1071</ele>
        <time>2021-08-07T11:16:59.455Z</time>
      </trkpt>
      <trkpt lat="46.91595" lon="8.64833">
        <ele>1071</ele>
        <time>2021-08-07T11:17:00.456Z</time>
      </trkpt>
      <trkpt lat="46.91594" lon="8.64832">
        <ele>1071</ele>
        <time>2021-08-07T11:17:01.456Z</time>
      </trkpt>
      <trkpt lat="46.91592" lon="8.64831">
        <ele>1070</ele>
        <time>2021-08-07T11:17:02.456Z</time>
      </trkpt>
      <trkpt lat="46.91591" lon="8.6483">
        <ele>1070</ele>
        <time>2021-08-07T11:17:03.456Z</time>
      </trkpt>
      <trkpt lat="46.9159" lon="8.64829">
        <ele>1070</ele>
        <time>2021-08-07T11:17:04.455Z</time>
      </trkpt>
      <trkpt lat="46.91589" lon="8.64827">
        <ele>1070</ele>
        <time>2021-08-07T11:17:05.456Z</time>
      </trkpt>
      <trkpt lat="46.91588" lon="8.64827">
        <ele>1071</ele>
        <time>2021-08-07T11:17:06.456Z</time>
      </trkpt>
      <trkpt lat="46.91588" lon="8.64825">
        <ele>1071</ele>
        <time>2021-08-07T11:17:07.455Z</time>
      </trkpt>
      <trkpt lat="46.91587" lon="8.64825">
        <ele>1071</ele>
        <time>2021-08-07T11:17:08.456Z</time>
      </trkpt>
      <trkpt lat="46.91586" lon="8.64824">
        <ele>1071</ele>
        <time>2021-08-07T11:17:09.455Z</time>
      </trkpt>
      <trkpt lat="46.91585" lon="8.64824">
        <ele>1071</ele>
        <time>2021-08-07T11:17:10.455Z</time>
      </trkpt>
      <trkpt lat="46.91584" lon="8.64823">
        <ele>1071</ele>
        <time>2021-08-07T11:17:11.456Z</time>
      </trkpt>
      <trkpt lat="46.91583" lon="8.64823">
        <ele>1071</ele>
        <time>2021-08-07T11:17:12.456Z</time>
      </trkpt>
      <trkpt lat="46.91581" lon="8.64822">
        <ele>1071</ele>
        <time>2021-08-07T11:17:13.455Z</time>
      </trkpt>
      <trkpt lat="46.9158" lon="8.6482">
        <ele>1071</ele>
        <time>2021-08-07T11:17:14.455Z</time>
      </trkpt>
      <trkpt lat="46.91579" lon="8.6482">
        <ele>1070</ele>
        <time>2021-08-07T11:17:15.455Z</time>
      </trkpt>
      <trkpt lat="46.91578" lon="8.6482">
        <ele>1070</ele>
        <time>2021-08-07T11:17:16.456Z</time>
      </trkpt>
      <trkpt lat="46.91576" lon="8.6482">
        <ele>1069</ele>
        <time>2021-08-07T11:17:17.456Z</time>
      </trkpt>
      <trkpt lat="46.91574" lon="8.64819">
        <ele>1068</ele>
        <time>2021-08-07T11:17:18.456Z</time>
      </trkpt>
      <trkpt lat="46.91573" lon="8.64819">
        <ele>1068</ele>
        <time>2021-08-07T11:17:19.456Z</time>
      </trkpt>
      <trkpt lat="46.91572" lon="8.64818">
        <ele>1068</ele>
        <time>2021-08-07T11:17:20.456Z</time>
      </trkpt>
      <trkpt lat="46.91571" lon="8.64818">
        <ele>1067</ele>
        <time>2021-08-07T11:17:21.456Z</time>
      </trkpt>
      <trkpt lat="46.9157" lon="8.64818">
        <ele>1067</ele>
        <time>2021-08-07T11:17:22.456Z</time>
      </trkpt>
      <trkpt lat="46.91569" lon="8.64818">
        <ele>1067</ele>
        <time>2021-08-07T11:17:23.456Z</time>
      </trkpt>
      <trkpt lat="46.91568" lon="8.64817">
        <ele>1067</ele>
        <time>2021-08-07T11:17:24.455Z</time>
      </trkpt>
      <trkpt lat="46.91568" lon="8.64817">
        <ele>1066</ele>
        <time>2021-08-07T11:17:25.455Z</time>
      </trkpt>
      <trkpt lat="46.91567" lon="8.64816">
        <ele>1066</ele>
        <time>2021-08-07T11:17:26.455Z</time>
      </trkpt>
      <trkpt lat="46.91566" lon="8.64815">
        <ele>1065</ele>
        <time>2021-08-07T11:17:27.455Z</time>
      </trkpt>
      <trkpt lat="46.91565" lon="8.64815">
        <ele>1064</ele>
        <time>2021-08-07T11:17:28.456Z</time>
      </trkpt>
      <trkpt lat="46.91564" lon="8.64813">
        <ele>1064</ele>
        <time>2021-08-07T11:17:29.455Z</time>
      </trkpt>
      <trkpt lat="46.91563" lon="8.64813">
        <ele>1063</ele>
        <time>2021-08-07T11:17:30.455Z</time>
      </trkpt>
      <trkpt lat="46.91562" lon="8.64813">
        <ele>1063</ele>
        <time>2021-08-07T11:17:34.606Z</time>
      </trkpt>
      <trkpt lat="46.91561" lon="8.64813">
        <ele>1063</ele>
        <time>2021-08-07T11:17:35.606Z</time>
      </trkpt>
      <trkpt lat="46.91559" lon="8.64811">
        <ele>1063</ele>
        <time>2021-08-07T11:17:36.605Z</time>
      </trkpt>
      <trkpt lat="46.91558" lon="8.6481">
        <ele>1063</ele>
        <time>2021-08-07T11:17:37.606Z</time>
      </trkpt>
      <trkpt lat="46.91557" lon="8.64809">
        <ele>1064</ele>
        <time>2021-08-07T11:17:38.605Z</time>
      </trkpt>
      <trkpt lat="46.91556" lon="8.64808">
        <ele>1064</ele>
        <time>2021-08-07T11:17:39.605Z</time>
      </trkpt>
      <trkpt lat="46.91554" lon="8.64808">
        <ele>1064</ele>
        <time>2021-08-07T11:17:40.606Z</time>
      </trkpt>
      <trkpt lat="46.91553" lon="8.64809">
        <ele>1064</ele>
        <time>2021-08-07T11:17:41.605Z</time>
      </trkpt>
      <trkpt lat="46.91552" lon="8.64809">
        <ele>1064</ele>
        <time>2021-08-07T11:17:42.606Z</time>
      </trkpt>
      <trkpt lat="46.91551" lon="8.6481">
        <ele>1064</ele>
        <time>2021-08-07T11:17:43.606Z</time>
      </trkpt>
      <trkpt lat="46.9155" lon="8.6481">
        <ele>1064</ele>
        <time>2021-08-07T11:17:44.606Z</time>
      </trkpt>
      <trkpt lat="46.91549" lon="8.64809">
        <ele>1064</ele>
        <time>2021-08-07T11:17:45.606Z</time>
      </trkpt>
      <trkpt lat="46.91548" lon="8.64808">
        <ele>1064</ele>
        <time>2021-08-07T11:17:50.705Z</time>
      </trkpt>
      <trkpt lat="46.91547" lon="8.64808">
        <ele>1064</ele>
        <time>2021-08-07T11:17:51.705Z</time>
      </trkpt>
      <trkpt lat="46.91546" lon="8.64808">
        <ele>1063</ele>
        <time>2021-08-07T11:17:53.447Z</time>
      </trkpt>
      <trkpt lat="46.91545" lon="8.64807">
        <ele>1063</ele>
        <time>2021-08-07T11:17:54.448Z</time>
      </trkpt>
      <trkpt lat="46.91543" lon="8.64806">
        <ele>1063</ele>
        <time>2021-08-07T11:17:55.448Z</time>
      </trkpt>
      <trkpt lat="46.91542" lon="8.64805">
        <ele>1063</ele>
        <time>2021-08-07T11:17:56.447Z</time>
      </trkpt>
      <trkpt lat="46.91542" lon="8.64804">
        <ele>1063</ele>
        <time>2021-08-07T11:17:57.448Z</time>
      </trkpt>
      <trkpt lat="46.91541" lon="8.64803">
        <ele>1063</ele>
        <time>2021-08-07T11:17:58.447Z</time>
      </trkpt>
      <trkpt lat="46.9154" lon="8.64802">
        <ele>1063</ele>
        <time>2021-08-07T11:17:59.447Z</time>
      </trkpt>
      <trkpt lat="46.91539" lon="8.64801">
        <ele>1063</ele>
        <time>2021-08-07T11:18:00.448Z</time>
      </trkpt>
      <trkpt lat="46.91538" lon="8.64801">
        <ele>1062</ele>
        <time>2021-08-07T11:18:01.448Z</time>
      </trkpt>
      <trkpt lat="46.91537" lon="8.64801">
        <ele>1062</ele>
        <time>2021-08-07T11:18:02.447Z</time>
      </trkpt>
      <trkpt lat="46.91536" lon="8.64801">
        <ele>1062</ele>
        <time>2021-08-07T11:18:03.447Z</time>
      </trkpt>
      <trkpt lat="46.91535" lon="8.648">
        <ele>1062</ele>
        <time>2021-08-07T11:18:04.448Z</time>
      </trkpt>
      <trkpt lat="46.91534" lon="8.64798">
        <ele>1062</ele>
        <time>2021-08-07T11:18:05.447Z</time>
      </trkpt>
      <trkpt lat="46.91533" lon="8.64798">
        <ele>1062</ele>
        <time>2021-08-07T11:18:06.448Z</time>
      </trkpt>
      <trkpt lat="46.91533" lon="8.64797">
        <ele>1061</ele>
        <time>2021-08-07T11:18:07.448Z</time>
      </trkpt>
      <trkpt lat="46.91533" lon="8.64796">
        <ele>1061</ele>
        <time>2021-08-07T11:18:08.448Z</time>
      </trkpt>
      <trkpt lat="46.91532" lon="8.64795">
        <ele>1061</ele>
        <time>2021-08-07T11:18:09.448Z</time>
      </trkpt>
      <trkpt lat="46.91531" lon="8.64794">
        <ele>1061</ele>
        <time>2021-08-07T11:18:10.448Z</time>
      </trkpt>
      <trkpt lat="46.91529" lon="8.64793">
        <ele>1060</ele>
        <time>2021-08-07T11:18:11.448Z</time>
      </trkpt>
      <trkpt lat="46.91527" lon="8.64792">
        <ele>1060</ele>
        <time>2021-08-07T11:18:12.447Z</time>
      </trkpt>
      <trkpt lat="46.91526" lon="8.64791">
        <ele>1060</ele>
        <time>2021-08-07T11:18:13.448Z</time>
      </trkpt>
      <trkpt lat="46.91525" lon="8.6479">
        <ele>1059</ele>
        <time>2021-08-07T11:18:14.448Z</time>
      </trkpt>
      <trkpt lat="46.91524" lon="8.64789">
        <ele>1059</ele>
        <time>2021-08-07T11:18:15.447Z</time>
      </trkpt>
      <trkpt lat="46.91524" lon="8.64788">
        <ele>1058</ele>
        <time>2021-08-07T11:18:16.447Z</time>
      </trkpt>
      <trkpt lat="46.91523" lon="8.64787">
        <ele>1058</ele>
        <time>2021-08-07T11:18:17.447Z</time>
      </trkpt>
      <trkpt lat="46.91522" lon="8.64786">
        <ele>1057</ele>
        <time>2021-08-07T11:18:18.448Z</time>
      </trkpt>
      <trkpt lat="46.91521" lon="8.64785">
        <ele>1057</ele>
        <time>2021-08-07T11:18:19.447Z</time>
      </trkpt>
      <trkpt lat="46.9152" lon="8.64784">
        <ele>1057</ele>
        <time>2021-08-07T11:18:20.448Z</time>
      </trkpt>
      <trkpt lat="46.91519" lon="8.64782">
        <ele>1057</ele>
        <time>2021-08-07T11:18:21.447Z</time>
      </trkpt>
      <trkpt lat="46.91518" lon="8.6478">
        <ele>1056</ele>
        <time>2021-08-07T11:18:22.447Z</time>
      </trkpt>
      <trkpt lat="46.91516" lon="8.64779">
        <ele>1056</ele>
        <time>2021-08-07T11:18:23.448Z</time>
      </trkpt>
      <trkpt lat="46.91515" lon="8.64778">
        <ele>1056</ele>
        <time>2021-08-07T11:18:24.447Z</time>
      </trkpt>
      <trkpt lat="46.91513" lon="8.64777">
        <ele>1055</ele>
        <time>2021-08-07T11:18:25.447Z</time>
      </trkpt>
      <trkpt lat="46.91513" lon="8.64775">
        <ele>1055</ele>
        <time>2021-08-07T11:18:26.447Z</time>
      </trkpt>
      <trkpt lat="46.91512" lon="8.64774">
        <ele>1055</ele>
        <time>2021-08-07T11:18:27.447Z</time>
      </trkpt>
      <trkpt lat="46.91511" lon="8.64772">
        <ele>1055</ele>
        <time>2021-08-07T11:18:28.447Z</time>
      </trkpt>
      <trkpt lat="46.91511" lon="8.64769">
        <ele>1055</ele>
        <time>2021-08-07T11:18:29.447Z</time>
      </trkpt>
      <trkpt lat="46.91511" lon="8.64767">
        <ele>1055</ele>
        <time>2021-08-07T11:18:30.447Z</time>
      </trkpt>
      <trkpt lat="46.9151" lon="8.64765">
        <ele>1054</ele>
        <time>2021-08-07T11:18:31.448Z</time>
      </trkpt>
      <trkpt lat="46.91509" lon="8.64763">
        <ele>1054</ele>
        <time>2021-08-07T11:18:32.448Z</time>
      </trkpt>
      <trkpt lat="46.91508" lon="8.6476">
        <ele>1054</ele>
        <time>2021-08-07T11:18:33.447Z</time>
      </trkpt>
      <trkpt lat="46.91507" lon="8.64758">
        <ele>1054</ele>
        <time>2021-08-07T11:18:34.447Z</time>
      </trkpt>
      <trkpt lat="46.91506" lon="8.64757">
        <ele>1054</ele>
        <time>2021-08-07T11:18:35.447Z</time>
      </trkpt>
      <trkpt lat="46.91505" lon="8.64757">
        <ele>1053</ele>
        <time>2021-08-07T11:18:36.447Z</time>
      </trkpt>
      <trkpt lat="46.91504" lon="8.64756">
        <ele>1053</ele>
        <time>2021-08-07T11:18:37.447Z</time>
      </trkpt>
      <trkpt lat="46.91502" lon="8.64756">
        <ele>1053</ele>
        <time>2021-08-07T11:18:38.447Z</time>
      </trkpt>
      <trkpt lat="46.91501" lon="8.64755">
        <ele>1053</ele>
        <time>2021-08-07T11:18:39.447Z</time>
      </trkpt>
      <trkpt lat="46.91501" lon="8.64755">
        <ele>1053</ele>
        <time>2021-08-07T11:18:40.447Z</time>
      </trkpt>
      <trkpt lat="46.915" lon="8.64753">
        <ele>1053</ele>
        <time>2021-08-07T11:18:41.447Z</time>
      </trkpt>
      <trkpt lat="46.915" lon="8.64752">
        <ele>1052</ele>
        <time>2021-08-07T11:18:42.447Z</time>
      </trkpt>
      <trkpt lat="46.91499" lon="8.64751">
        <ele>1052</ele>
        <time>2021-08-07T11:18:43.447Z</time>
      </trkpt>
      <trkpt lat="46.91499" lon="8.6475">
        <ele>1053</ele>
        <time>2021-08-07T11:18:44.447Z</time>
      </trkpt>
      <trkpt lat="46.91498" lon="8.64749">
        <ele>1053</ele>
        <time>2021-08-07T11:18:45.447Z</time>
      </trkpt>
      <trkpt lat="46.91498" lon="8.64748">
        <ele>1053</ele>
        <time>2021-08-07T11:18:46.447Z</time>
      </trkpt>
      <trkpt lat="46.91497" lon="8.64748">
        <ele>1053</ele>
        <time>2021-08-07T11:18:47.447Z</time>
      </trkpt>
      <trkpt lat="46.91497" lon="8.64747">
        <ele>1053</ele>
        <time>2021-08-07T11:18:48.447Z</time>
      </trkpt>
      <trkpt lat="46.91496" lon="8.64746">
        <ele>1054</ele>
        <time>2021-08-07T11:18:49.447Z</time>
      </trkpt>
      <trkpt lat="46.91496" lon="8.64746">
        <ele>1054</ele>
        <time>2021-08-07T11:18:50.448Z</time>
      </trkpt>
      <trkpt lat="46.91496" lon="8.64744">
        <ele>1054</ele>
        <time>2021-08-07T11:18:51.447Z</time>
      </trkpt>
      <trkpt lat="46.91496" lon="8.64742">
        <ele>1054</ele>
        <time>2021-08-07T11:18:52.448Z</time>
      </trkpt>
      <trkpt lat="46.91496" lon="8.6474">
        <ele>1053</ele>
        <time>2021-08-07T11:18:53.448Z</time>
      </trkpt>
      <trkpt lat="46.91495" lon="8.64738">
        <ele>1053</ele>
        <time>2021-08-07T11:18:54.447Z</time>
      </trkpt>
      <trkpt lat="46.91495" lon="8.64737">
        <ele>1052</ele>
        <time>2021-08-07T11:18:55.447Z</time>
      </trkpt>
      <trkpt lat="46.91495" lon="8.64735">
        <ele>1052</ele>
        <time>2021-08-07T11:18:56.447Z</time>
      </trkpt>
      <trkpt lat="46.91495" lon="8.64733">
        <ele>1051</ele>
        <time>2021-08-07T11:18:57.447Z</time>
      </trkpt>
      <trkpt lat="46.91495" lon="8.64731">
        <ele>1051</ele>
        <time>2021-08-07T11:18:58.448Z</time>
      </trkpt>
      <trkpt lat="46.91495" lon="8.64728">
        <ele>1050</ele>
        <time>2021-08-07T11:18:59.447Z</time>
      </trkpt>
      <trkpt lat="46.91494" lon="8.64726">
        <ele>1049</ele>
        <time>2021-08-07T11:19:00.448Z</time>
      </trkpt>
      <trkpt lat="46.91494" lon="8.64724">
        <ele>1048</ele>
        <time>2021-08-07T11:19:01.448Z</time>
      </trkpt>
      <trkpt lat="46.91494" lon="8.64722">
        <ele>1048</ele>
        <time>2021-08-07T11:19:02.448Z</time>
      </trkpt>
      <trkpt lat="46.91494" lon="8.6472">
        <ele>1047</ele>
        <time>2021-08-07T11:19:03.448Z</time>
      </trkpt>
      <trkpt lat="46.91494" lon="8.64718">
        <ele>1046</ele>
        <time>2021-08-07T11:19:04.447Z</time>
      </trkpt>
      <trkpt lat="46.91493" lon="8.64716">
        <ele>1046</ele>
        <time>2021-08-07T11:19:05.448Z</time>
      </trkpt>
      <trkpt lat="46.91492" lon="8.64713">
        <ele>1045</ele>
        <time>2021-08-07T11:19:06.448Z</time>
      </trkpt>
      <trkpt lat="46.91491" lon="8.64712">
        <ele>1045</ele>
        <time>2021-08-07T11:19:07.448Z</time>
      </trkpt>
      <trkpt lat="46.91491" lon="8.6471">
        <ele>1044</ele>
        <time>2021-08-07T11:19:08.447Z</time>
      </trkpt>
      <trkpt lat="46.91491" lon="8.64708">
        <ele>1043</ele>
        <time>2021-08-07T11:19:09.448Z</time>
      </trkpt>
      <trkpt lat="46.9149" lon="8.64707">
        <ele>1042</ele>
        <time>2021-08-07T11:19:10.448Z</time>
      </trkpt>
      <trkpt lat="46.9149" lon="8.64706">
        <ele>1041</ele>
        <time>2021-08-07T11:19:11.448Z</time>
      </trkpt>
      <trkpt lat="46.9149" lon="8.64704">
        <ele>1041</ele>
        <time>2021-08-07T11:19:12.448Z</time>
      </trkpt>
      <trkpt lat="46.9149" lon="8.64703">
        <ele>1040</ele>
        <time>2021-08-07T11:19:13.447Z</time>
      </trkpt>
      <trkpt lat="46.91489" lon="8.64702">
        <ele>1038</ele>
        <time>2021-08-07T11:19:14.447Z</time>
      </trkpt>
      <trkpt lat="46.91489" lon="8.64702">
        <ele>1037</ele>
        <time>2021-08-07T11:19:15.448Z</time>
      </trkpt>
      <trkpt lat="46.91489" lon="8.647">
        <ele>1036</ele>
        <time>2021-08-07T11:19:16.447Z</time>
      </trkpt>
      <trkpt lat="46.9149" lon="8.647">
        <ele>1035</ele>
        <time>2021-08-07T11:19:17.448Z</time>
      </trkpt>
      <trkpt lat="46.91491" lon="8.647">
        <ele>1034</ele>
        <time>2021-08-07T11:19:18.448Z</time>
      </trkpt>
      <trkpt lat="46.91491" lon="8.647">
        <ele>1034</ele>
        <time>2021-08-07T11:19:19.448Z</time>
      </trkpt>
      <trkpt lat="46.91491" lon="8.64701">
        <ele>1033</ele>
        <time>2021-08-07T11:19:20.448Z</time>
      </trkpt>
      <trkpt lat="46.91491" lon="8.64702">
        <ele>1033</ele>
        <time>2021-08-07T11:19:21.448Z</time>
      </trkpt>
      <trkpt lat="46.91492" lon="8.64704">
        <ele>1032</ele>
        <time>2021-08-07T11:19:22.448Z</time>
      </trkpt>
      <trkpt lat="46.91493" lon="8.64705">
        <ele>1032</ele>
        <time>2021-08-07T11:19:23.448Z</time>
      </trkpt>
      <trkpt lat="46.91494" lon="8.64707">
        <ele>1033</ele>
        <time>2021-08-07T11:19:24.448Z</time>
      </trkpt>
      <trkpt lat="46.91495" lon="8.64707">
        <ele>1033</ele>
        <time>2021-08-07T11:19:25.447Z</time>
      </trkpt>
      <trkpt lat="46.91496" lon="8.64708">
        <ele>1033</ele>
        <time>2021-08-07T11:19:26.448Z</time>
      </trkpt>
      <trkpt lat="46.91496" lon="8.64709">
        <ele>1033</ele>
        <time>2021-08-07T11:19:27.448Z</time>
      </trkpt>
      <trkpt lat="46.91497" lon="8.64709">
        <ele>1033</ele>
        <time>2021-08-07T11:19:28.447Z</time>
      </trkpt>
      <trkpt lat="46.91497" lon="8.6471">
        <ele>1033</ele>
        <time>2021-08-07T11:19:29.447Z</time>
      </trkpt>
      <trkpt lat="46.91498" lon="8.6471">
        <ele>1033</ele>
        <time>2021-08-07T11:19:30.448Z</time>
      </trkpt>
      <trkpt lat="46.91499" lon="8.6471">
        <ele>1033</ele>
        <time>2021-08-07T11:19:31.448Z</time>
      </trkpt>
      <trkpt lat="46.915" lon="8.6471">
        <ele>1032</ele>
        <time>2021-08-07T11:19:32.448Z</time>
      </trkpt>
      <trkpt lat="46.91502" lon="8.64711">
        <ele>1032</ele>
        <time>2021-08-07T11:19:33.448Z</time>
      </trkpt>
      <trkpt lat="46.91503" lon="8.64712">
        <ele>1032</ele>
        <time>2021-08-07T11:19:34.448Z</time>
      </trkpt>
      <trkpt lat="46.91503" lon="8.64713">
        <ele>1031</ele>
        <time>2021-08-07T11:19:35.448Z</time>
      </trkpt>
      <trkpt lat="46.91504" lon="8.64713">
        <ele>1031</ele>
        <time>2021-08-07T11:19:36.448Z</time>
      </trkpt>
      <trkpt lat="46.91505" lon="8.64714">
        <ele>1031</ele>
        <time>2021-08-07T11:19:37.448Z</time>
      </trkpt>
      <trkpt lat="46.91505" lon="8.64714">
        <ele>1031</ele>
        <time>2021-08-07T11:19:38.448Z</time>
      </trkpt>
      <trkpt lat="46.91506" lon="8.64715">
        <ele>1032</ele>
        <time>2021-08-07T11:19:39.448Z</time>
      </trkpt>
      <trkpt lat="46.91507" lon="8.64715">
        <ele>1032</ele>
        <time>2021-08-07T11:19:40.447Z</time>
      </trkpt>
      <trkpt lat="46.91508" lon="8.64716">
        <ele>1032</ele>
        <time>2021-08-07T11:19:41.447Z</time>
      </trkpt>
      <trkpt lat="46.91508" lon="8.64717">
        <ele>1031</ele>
        <time>2021-08-07T11:19:42.447Z</time>
      </trkpt>
      <trkpt lat="46.91509" lon="8.64717">
        <ele>1031</ele>
        <time>2021-08-07T11:19:43.448Z</time>
      </trkpt>
      <trkpt lat="46.91509" lon="8.64718">
        <ele>1032</ele>
        <time>2021-08-07T11:19:44.447Z</time>
      </trkpt>
      <trkpt lat="46.91509" lon="8.64719">
        <ele>1032</ele>
        <time>2021-08-07T11:19:45.448Z</time>
      </trkpt>
      <trkpt lat="46.9151" lon="8.64719">
        <ele>1032</ele>
        <time>2021-08-07T11:19:46.447Z</time>
      </trkpt>
      <trkpt lat="46.91512" lon="8.64719">
        <ele>1032</ele>
        <time>2021-08-07T11:19:47.448Z</time>
      </trkpt>
      <trkpt lat="46.91514" lon="8.64719">
        <ele>1032</ele>
        <time>2021-08-07T11:19:48.447Z</time>
      </trkpt>
      <trkpt lat="46.91518" lon="8.64717">
        <ele>1034</ele>
        <time>2021-08-07T11:19:49.449Z</time>
      </trkpt>
      <trkpt lat="46.91518" lon="8.64716">
        <ele>1034</ele>
        <time>2021-08-07T11:19:50.448Z</time>
      </trkpt>
      <trkpt lat="46.91519" lon="8.64718">
        <ele>1036</ele>
        <time>2021-08-07T11:19:51.448Z</time>
      </trkpt>
      <trkpt lat="46.9152" lon="8.64718">
        <ele>1037</ele>
        <time>2021-08-07T11:19:52.448Z</time>
      </trkpt>
      <trkpt lat="46.9152" lon="8.64719">
        <ele>1037</ele>
        <time>2021-08-07T11:19:53.448Z</time>
      </trkpt>
      <trkpt lat="46.91521" lon="8.64719">
        <ele>1038</ele>
        <time>2021-08-07T11:19:54.448Z</time>
      </trkpt>
      <trkpt lat="46.91521" lon="8.64719">
        <ele>1038</ele>
        <time>2021-08-07T11:19:55.449Z</time>
      </trkpt>
      <trkpt lat="46.91522" lon="8.64719">
        <ele>1038</ele>
        <time>2021-08-07T11:19:56.449Z</time>
      </trkpt>
      <trkpt lat="46.91523" lon="8.64718">
        <ele>1038</ele>
        <time>2021-08-07T11:19:57.449Z</time>
      </trkpt>
      <trkpt lat="46.91524" lon="8.64717">
        <ele>1038</ele>
        <time>2021-08-07T11:19:58.448Z</time>
      </trkpt>
      <trkpt lat="46.91524" lon="8.64717">
        <ele>1038</ele>
        <time>2021-08-07T11:19:59.449Z</time>
      </trkpt>
      <trkpt lat="46.91525" lon="8.64716">
        <ele>1038</ele>
        <time>2021-08-07T11:20:00.448Z</time>
      </trkpt>
      <trkpt lat="46.91526" lon="8.64716">
        <ele>1039</ele>
        <time>2021-08-07T11:20:01.449Z</time>
      </trkpt>
      <trkpt lat="46.91527" lon="8.64715">
        <ele>1039</ele>
        <time>2021-08-07T11:20:02.448Z</time>
      </trkpt>
      <trkpt lat="46.91528" lon="8.64715">
        <ele>1040</ele>
        <time>2021-08-07T11:20:03.449Z</time>
      </trkpt>
      <trkpt lat="46.91528" lon="8.64714">
        <ele>1040</ele>
        <time>2021-08-07T11:20:04.448Z</time>
      </trkpt>
      <trkpt lat="46.91529" lon="8.64713">
        <ele>1041</ele>
        <time>2021-08-07T11:20:05.448Z</time>
      </trkpt>
      <trkpt lat="46.91529" lon="8.64712">
        <ele>1041</ele>
        <time>2021-08-07T11:20:06.449Z</time>
      </trkpt>
      <trkpt lat="46.9153" lon="8.64711">
        <ele>1041</ele>
        <time>2021-08-07T11:20:07.448Z</time>
      </trkpt>
      <trkpt lat="46.9153" lon="8.6471">
        <ele>1042</ele>
        <time>2021-08-07T11:20:08.449Z</time>
      </trkpt>
      <trkpt lat="46.91531" lon="8.64709">
        <ele>1041</ele>
        <time>2021-08-07T11:20:09.448Z</time>
      </trkpt>
      <trkpt lat="46.91531" lon="8.64708">
        <ele>1041</ele>
        <time>2021-08-07T11:20:10.449Z</time>
      </trkpt>
      <trkpt lat="46.91531" lon="8.64707">
        <ele>1041</ele>
        <time>2021-08-07T11:20:11.448Z</time>
      </trkpt>
      <trkpt lat="46.91531" lon="8.64707">
        <ele>1041</ele>
        <time>2021-08-07T11:20:12.448Z</time>
      </trkpt>
      <trkpt lat="46.91531" lon="8.64706">
        <ele>1041</ele>
        <time>2021-08-07T11:20:13.448Z</time>
      </trkpt>
      <trkpt lat="46.91531" lon="8.64705">
        <ele>1042</ele>
        <time>2021-08-07T11:20:14.449Z</time>
      </trkpt>
      <trkpt lat="46.91531" lon="8.64704">
        <ele>1042</ele>
        <time>2021-08-07T11:20:15.449Z</time>
      </trkpt>
      <trkpt lat="46.91531" lon="8.64703">
        <ele>1042</ele>
        <time>2021-08-07T11:20:16.449Z</time>
      </trkpt>
      <trkpt lat="46.91531" lon="8.64703">
        <ele>1041</ele>
        <time>2021-08-07T11:20:17.449Z</time>
      </trkpt>
      <trkpt lat="46.91531" lon="8.64702">
        <ele>1040</ele>
        <time>2021-08-07T11:20:18.449Z</time>
      </trkpt>
      <trkpt lat="46.9153" lon="8.64701">
        <ele>1040</ele>
        <time>2021-08-07T11:20:19.448Z</time>
      </trkpt>
      <trkpt lat="46.9153" lon="8.647">
        <ele>1039</ele>
        <time>2021-08-07T11:20:20.449Z</time>
      </trkpt>
      <trkpt lat="46.91529" lon="8.64699">
        <ele>1039</ele>
        <time>2021-08-07T11:20:21.448Z</time>
      </trkpt>
      <trkpt lat="46.91529" lon="8.64698">
        <ele>1039</ele>
        <time>2021-08-07T11:20:22.448Z</time>
      </trkpt>
      <trkpt lat="46.91529" lon="8.64697">
        <ele>1039</ele>
        <time>2021-08-07T11:20:23.448Z</time>
      </trkpt>
      <trkpt lat="46.91529" lon="8.64696">
        <ele>1038</ele>
        <time>2021-08-07T11:20:24.448Z</time>
      </trkpt>
      <trkpt lat="46.91528" lon="8.64695">
        <ele>1037</ele>
        <time>2021-08-07T11:20:25.448Z</time>
      </trkpt>
      <trkpt lat="46.91528" lon="8.64693">
        <ele>1037</ele>
        <time>2021-08-07T11:20:26.448Z</time>
      </trkpt>
      <trkpt lat="46.91528" lon="8.64691">
        <ele>1036</ele>
        <time>2021-08-07T11:20:27.449Z</time>
      </trkpt>
      <trkpt lat="46.91528" lon="8.64689">
        <ele>1036</ele>
        <time>2021-08-07T11:20:28.448Z</time>
      </trkpt>
      <trkpt lat="46.91528" lon="8.64689">
        <ele>1035</ele>
        <time>2021-08-07T11:20:29.449Z</time>
      </trkpt>
      <trkpt lat="46.91528" lon="8.64689">
        <ele>1034</ele>
        <time>2021-08-07T11:20:30.448Z</time>
      </trkpt>
      <trkpt lat="46.91528" lon="8.64687">
        <ele>1033</ele>
        <time>2021-08-07T11:20:31.448Z</time>
      </trkpt>
      <trkpt lat="46.91528" lon="8.64686">
        <ele>1033</ele>
        <time>2021-08-07T11:20:32.448Z</time>
      </trkpt>
      <trkpt lat="46.91527" lon="8.64685">
        <ele>1032</ele>
        <time>2021-08-07T11:20:33.448Z</time>
      </trkpt>
      <trkpt lat="46.91527" lon="8.64683">
        <ele>1031</ele>
        <time>2021-08-07T11:20:36.549Z</time>
      </trkpt>
      <trkpt lat="46.91526" lon="8.64682">
        <ele>1031</ele>
        <time>2021-08-07T11:20:37.549Z</time>
      </trkpt>
      <trkpt lat="46.91526" lon="8.64681">
        <ele>1030</ele>
        <time>2021-08-07T11:20:38.549Z</time>
      </trkpt>
      <trkpt lat="46.91525" lon="8.6468">
        <ele>1029</ele>
        <time>2021-08-07T11:20:39.549Z</time>
      </trkpt>
      <trkpt lat="46.91524" lon="8.64678">
        <ele>1029</ele>
        <time>2021-08-07T11:20:49.571Z</time>
      </trkpt>
      <trkpt lat="46.91523" lon="8.64677">
        <ele>1028</ele>
        <time>2021-08-07T11:20:55.445Z</time>
      </trkpt>
      <trkpt lat="46.91523" lon="8.64675">
        <ele>1027</ele>
        <time>2021-08-07T11:20:58.335Z</time>
      </trkpt>
      <trkpt lat="46.91522" lon="8.64673">
        <ele>1026</ele>
        <time>2021-08-07T11:20:59.336Z</time>
      </trkpt>
      <trkpt lat="46.91522" lon="8.64671">
        <ele>1025</ele>
        <time>2021-08-07T11:21:00.335Z</time>
      </trkpt>
      <trkpt lat="46.91521" lon="8.64668">
        <ele>1024</ele>
        <time>2021-08-07T11:21:01.335Z</time>
      </trkpt>
      <trkpt lat="46.91521" lon="8.64666">
        <ele>1023</ele>
        <time>2021-08-07T11:21:02.336Z</time>
      </trkpt>
      <trkpt lat="46.91521" lon="8.64665">
        <ele>1022</ele>
        <time>2021-08-07T11:21:03.336Z</time>
      </trkpt>
      <trkpt lat="46.91521" lon="8.64663">
        <ele>1021</ele>
        <time>2021-08-07T11:21:04.335Z</time>
      </trkpt>
      <trkpt lat="46.91521" lon="8.64662">
        <ele>1020</ele>
        <time>2021-08-07T11:21:05.336Z</time>
      </trkpt>
      <trkpt lat="46.91522" lon="8.64662">
        <ele>1019</ele>
        <time>2021-08-07T11:21:06.336Z</time>
      </trkpt>
      <trkpt lat="46.91523" lon="8.64663">
        <ele>1019</ele>
        <time>2021-08-07T11:21:07.336Z</time>
      </trkpt>
      <trkpt lat="46.91523" lon="8.64663">
        <ele>1019</ele>
        <time>2021-08-07T11:21:08.335Z</time>
      </trkpt>
      <trkpt lat="46.91524" lon="8.64664">
        <ele>1020</ele>
        <time>2021-08-07T11:21:15.482Z</time>
      </trkpt>
      <trkpt lat="46.91524" lon="8.64664">
        <ele>1020</ele>
        <time>2021-08-07T11:21:16.483Z</time>
      </trkpt>
      <trkpt lat="46.91525" lon="8.64664">
        <ele>1021</ele>
        <time>2021-08-07T11:21:17.483Z</time>
      </trkpt>
      <trkpt lat="46.91525" lon="8.64665">
        <ele>1021</ele>
        <time>2021-08-07T11:21:18.483Z</time>
      </trkpt>
      <trkpt lat="46.91526" lon="8.64666">
        <ele>1022</ele>
        <time>2021-08-07T11:21:19.483Z</time>
      </trkpt>
      <trkpt lat="46.91526" lon="8.64666">
        <ele>1022</ele>
        <time>2021-08-07T11:21:20.483Z</time>
      </trkpt>
      <trkpt lat="46.91527" lon="8.64667">
        <ele>1023</ele>
        <time>2021-08-07T11:21:21.482Z</time>
      </trkpt>
      <trkpt lat="46.91528" lon="8.64667">
        <ele>1023</ele>
        <time>2021-08-07T11:21:22.482Z</time>
      </trkpt>
      <trkpt lat="46.91528" lon="8.64667">
        <ele>1024</ele>
        <time>2021-08-07T11:21:23.483Z</time>
      </trkpt>
      <trkpt lat="46.91529" lon="8.64666">
        <ele>1024</ele>
        <time>2021-08-07T11:21:24.482Z</time>
      </trkpt>
      <trkpt lat="46.9153" lon="8.64666">
        <ele>1025</ele>
        <time>2021-08-07T11:21:25.482Z</time>
      </trkpt>
      <trkpt lat="46.91532" lon="8.64665">
        <ele>1025</ele>
        <time>2021-08-07T11:21:29.582Z</time>
      </trkpt>
      <trkpt lat="46.91532" lon="8.64665">
        <ele>1025</ele>
        <time>2021-08-07T11:21:42.502Z</time>
      </trkpt>
      <trkpt lat="46.91533" lon="8.64664">
        <ele>1025</ele>
        <time>2021-08-07T11:21:43.503Z</time>
      </trkpt>
      <trkpt lat="46.91534" lon="8.64664">
        <ele>1025</ele>
        <time>2021-08-07T11:21:44.503Z</time>
      </trkpt>
      <trkpt lat="46.91535" lon="8.64664">
        <ele>1025</ele>
        <time>2021-08-07T11:21:58.597Z</time>
      </trkpt>
      <trkpt lat="46.91536" lon="8.64665">
        <ele>1024</ele>
        <time>2021-08-07T11:21:59.598Z</time>
      </trkpt>
      <trkpt lat="46.91537" lon="8.64666">
        <ele>1024</ele>
        <time>2021-08-07T11:22:01.428Z</time>
      </trkpt>
      <trkpt lat="46.91538" lon="8.64666">
        <ele>1024</ele>
        <time>2021-08-07T11:22:16.213Z</time>
      </trkpt>
      <trkpt lat="46.91539" lon="8.64666">
        <ele>1023</ele>
        <time>2021-08-07T11:22:22.074Z</time>
      </trkpt>
      <trkpt lat="46.9154" lon="8.64666">
        <ele>1023</ele>
        <time>2021-08-07T11:22:23.074Z</time>
      </trkpt>
      <trkpt lat="46.91541" lon="8.64667">
        <ele>1023</ele>
        <time>2021-08-07T11:22:28.967Z</time>
      </trkpt>
      <trkpt lat="46.91542" lon="8.64668">
        <ele>1023</ele>
        <time>2021-08-07T11:22:29.966Z</time>
      </trkpt>
      <trkpt lat="46.91544" lon="8.64668">
        <ele>1022</ele>
        <time>2021-08-07T11:22:30.966Z</time>
      </trkpt>
      <trkpt lat="46.91545" lon="8.64667">
        <ele>1022</ele>
        <time>2021-08-07T11:22:31.967Z</time>
      </trkpt>
      <trkpt lat="46.91546" lon="8.64668">
        <ele>1022</ele>
        <time>2021-08-07T11:22:32.966Z</time>
      </trkpt>
      <trkpt lat="46.91547" lon="8.64669">
        <ele>1022</ele>
        <time>2021-08-07T11:22:33.966Z</time>
      </trkpt>
      <trkpt lat="46.91547" lon="8.6467">
        <ele>1022</ele>
        <time>2021-08-07T11:22:40.096Z</time>
      </trkpt>
      <trkpt lat="46.91548" lon="8.64672">
        <ele>1022</ele>
        <time>2021-08-07T11:22:41.095Z</time>
      </trkpt>
      <trkpt lat="46.91548" lon="8.64673">
        <ele>1023</ele>
        <time>2021-08-07T11:22:42.095Z</time>
      </trkpt>
      <trkpt lat="46.91549" lon="8.64674">
        <ele>1023</ele>
        <time>2021-08-07T11:22:43.095Z</time>
      </trkpt>
      <trkpt lat="46.9155" lon="8.64674">
        <ele>1023</ele>
        <time>2021-08-07T11:22:44.096Z</time>
      </trkpt>
      <trkpt lat="46.9155" lon="8.64674">
        <ele>1023</ele>
        <time>2021-08-07T11:22:45.096Z</time>
      </trkpt>
      <trkpt lat="46.91551" lon="8.64673">
        <ele>1023</ele>
        <time>2021-08-07T11:22:46.095Z</time>
      </trkpt>
      <trkpt lat="46.91551" lon="8.64674">
        <ele>1023</ele>
        <time>2021-08-07T11:22:47.095Z</time>
      </trkpt>
      <trkpt lat="46.91552" lon="8.64674">
        <ele>1023</ele>
        <time>2021-08-07T11:22:48.096Z</time>
      </trkpt>
      <trkpt lat="46.91553" lon="8.64674">
        <ele>1024</ele>
        <time>2021-08-07T11:22:49.095Z</time>
      </trkpt>
      <trkpt lat="46.91554" lon="8.64674">
        <ele>1024</ele>
        <time>2021-08-07T11:22:50.095Z</time>
      </trkpt>
      <trkpt lat="46.91555" lon="8.64674">
        <ele>1024</ele>
        <time>2021-08-07T11:23:19.190Z</time>
      </trkpt>
      <trkpt lat="46.91556" lon="8.64674">
        <ele>1024</ele>
        <time>2021-08-07T11:23:33.993Z</time>
      </trkpt>
      <trkpt lat="46.91557" lon="8.64674">
        <ele>1025</ele>
        <time>2021-08-07T11:23:34.993Z</time>
      </trkpt>
      <trkpt lat="46.91558" lon="8.64675">
        <ele>1025</ele>
        <time>2021-08-07T11:23:35.993Z</time>
      </trkpt>
      <trkpt lat="46.91559" lon="8.64675">
        <ele>1025</ele>
        <time>2021-08-07T11:23:36.993Z</time>
      </trkpt>
      <trkpt lat="46.91559" lon="8.64676">
        <ele>1026</ele>
        <time>2021-08-07T11:23:37.993Z</time>
      </trkpt>
      <trkpt lat="46.9156" lon="8.64676">
        <ele>1026</ele>
        <time>2021-08-07T11:23:38.992Z</time>
      </trkpt>
      <trkpt lat="46.91561" lon="8.64677">
        <ele>1026</ele>
        <time>2021-08-07T11:23:39.992Z</time>
      </trkpt>
      <trkpt lat="46.91562" lon="8.64679">
        <ele>1027</ele>
        <time>2021-08-07T11:23:40.992Z</time>
      </trkpt>
      <trkpt lat="46.91562" lon="8.6468">
        <ele>1028</ele>
        <time>2021-08-07T11:23:41.993Z</time>
      </trkpt>
      <trkpt lat="46.91563" lon="8.6468">
        <ele>1028</ele>
        <time>2021-08-07T11:23:42.993Z</time>
      </trkpt>
      <trkpt lat="46.91563" lon="8.6468">
        <ele>1029</ele>
        <time>2021-08-07T11:23:47.106Z</time>
      </trkpt>
      <trkpt lat="46.91564" lon="8.6468">
        <ele>1030</ele>
        <time>2021-08-07T11:23:48.106Z</time>
      </trkpt>
      <trkpt lat="46.91564" lon="8.64681">
        <ele>1030</ele>
        <time>2021-08-07T11:23:49.107Z</time>
      </trkpt>
      <trkpt lat="46.91566" lon="8.64684">
        <ele>1031</ele>
        <time>2021-08-07T11:23:53.231Z</time>
      </trkpt>
      <trkpt lat="46.91569" lon="8.64686">
        <ele>1031</ele>
        <time>2021-08-07T11:23:54.231Z</time>
      </trkpt>
      <trkpt lat="46.91571" lon="8.64688">
        <ele>1031</ele>
        <time>2021-08-07T11:24:00.103Z</time>
      </trkpt>
      <trkpt lat="46.91573" lon="8.64689">
        <ele>1031</ele>
        <time>2021-08-07T11:24:05.979Z</time>
      </trkpt>
      <trkpt lat="46.91574" lon="8.6469">
        <ele>1031</ele>
        <time>2021-08-07T11:24:06.979Z</time>
      </trkpt>
      <trkpt lat="46.91575" lon="8.64691">
        <ele>1031</ele>
        <time>2021-08-07T11:24:07.979Z</time>
      </trkpt>
      <trkpt lat="46.91577" lon="8.64692">
        <ele>1031</ele>
        <time>2021-08-07T11:24:08.978Z</time>
      </trkpt>
      <trkpt lat="46.91578" lon="8.64693">
        <ele>1031</ele>
        <time>2021-08-07T11:24:09.978Z</time>
      </trkpt>
      <trkpt lat="46.91579" lon="8.64693">
        <ele>1032</ele>
        <time>2021-08-07T11:24:10.978Z</time>
      </trkpt>
      <trkpt lat="46.9158" lon="8.64694">
        <ele>1032</ele>
        <time>2021-08-07T11:24:17.075Z</time>
      </trkpt>
      <trkpt lat="46.91581" lon="8.64695">
        <ele>1032</ele>
        <time>2021-08-07T11:24:18.075Z</time>
      </trkpt>
      <trkpt lat="46.91582" lon="8.64695">
        <ele>1032</ele>
        <time>2021-08-07T11:24:19.075Z</time>
      </trkpt>
      <trkpt lat="46.91583" lon="8.64697">
        <ele>1032</ele>
        <time>2021-08-07T11:24:26.182Z</time>
      </trkpt>
      <trkpt lat="46.91584" lon="8.64697">
        <ele>1032</ele>
        <time>2021-08-07T11:24:45.096Z</time>
      </trkpt>
      <trkpt lat="46.91586" lon="8.64696">
        <ele>1032</ele>
        <time>2021-08-07T11:24:46.096Z</time>
      </trkpt>
      <trkpt lat="46.91588" lon="8.64696">
        <ele>1032</ele>
        <time>2021-08-07T11:24:47.097Z</time>
      </trkpt>
      <trkpt lat="46.91589" lon="8.64695">
        <ele>1032</ele>
        <time>2021-08-07T11:24:48.097Z</time>
      </trkpt>
      <trkpt lat="46.9159" lon="8.64695">
        <ele>1032</ele>
        <time>2021-08-07T11:24:49.097Z</time>
      </trkpt>
      <trkpt lat="46.91591" lon="8.64696">
        <ele>1031</ele>
        <time>2021-08-07T11:24:50.097Z</time>
      </trkpt>
      <trkpt lat="46.91592" lon="8.64696">
        <ele>1031</ele>
        <time>2021-08-07T11:24:51.096Z</time>
      </trkpt>
      <trkpt lat="46.91593" lon="8.64695">
        <ele>1031</ele>
        <time>2021-08-07T11:24:52.096Z</time>
      </trkpt>
      <trkpt lat="46.91594" lon="8.64695">
        <ele>1031</ele>
        <time>2021-08-07T11:24:53.097Z</time>
      </trkpt>
      <trkpt lat="46.91595" lon="8.64695">
        <ele>1031</ele>
        <time>2021-08-07T11:24:54.097Z</time>
      </trkpt>
      <trkpt lat="46.91597" lon="8.64695">
        <ele>1031</ele>
        <time>2021-08-07T11:24:58.229Z</time>
      </trkpt>
      <trkpt lat="46.91598" lon="8.64695">
        <ele>1031</ele>
        <time>2021-08-07T11:24:59.228Z</time>
      </trkpt>
      <trkpt lat="46.916" lon="8.64695">
        <ele>1031</ele>
        <time>2021-08-07T11:25:07.116Z</time>
      </trkpt>
      <trkpt lat="46.91601" lon="8.64694">
        <ele>1031</ele>
        <time>2021-08-07T11:25:08.116Z</time>
      </trkpt>
      <trkpt lat="46.91602" lon="8.64694">
        <ele>1031</ele>
        <time>2021-08-07T11:25:09.116Z</time>
      </trkpt>
      <trkpt lat="46.91603" lon="8.64693">
        <ele>1030</ele>
        <time>2021-08-07T11:25:10.116Z</time>
      </trkpt>
      <trkpt lat="46.91604" lon="8.64693">
        <ele>1030</ele>
        <time>2021-08-07T11:25:11.116Z</time>
      </trkpt>
      <trkpt lat="46.91605" lon="8.64694">
        <ele>1030</ele>
        <time>2021-08-07T11:25:12.115Z</time>
      </trkpt>
      <trkpt lat="46.91606" lon="8.64694">
        <ele>1030</ele>
        <time>2021-08-07T11:25:13.116Z</time>
      </trkpt>
      <trkpt lat="46.91608" lon="8.64694">
        <ele>1030</ele>
        <time>2021-08-07T11:25:14.116Z</time>
      </trkpt>
      <trkpt lat="46.91609" lon="8.64694">
        <ele>1029</ele>
        <time>2021-08-07T11:25:15.115Z</time>
      </trkpt>
      <trkpt lat="46.9161" lon="8.64693">
        <ele>1029</ele>
        <time>2021-08-07T11:25:16.116Z</time>
      </trkpt>
      <trkpt lat="46.91611" lon="8.64693">
        <ele>1028</ele>
        <time>2021-08-07T11:25:17.116Z</time>
      </trkpt>
      <trkpt lat="46.91612" lon="8.64691">
        <ele>1028</ele>
        <time>2021-08-07T11:25:18.115Z</time>
      </trkpt>
      <trkpt lat="46.91613" lon="8.64689">
        <ele>1027</ele>
        <time>2021-08-07T11:25:19.116Z</time>
      </trkpt>
      <trkpt lat="46.91613" lon="8.64688">
        <ele>1027</ele>
        <time>2021-08-07T11:25:20.116Z</time>
      </trkpt>
      <trkpt lat="46.91613" lon="8.64687">
        <ele>1026</ele>
        <time>2021-08-07T11:25:21.115Z</time>
      </trkpt>
      <trkpt lat="46.91614" lon="8.64691">
        <ele>1020</ele>
        <time>2021-08-07T11:25:22.116Z</time>
      </trkpt>
      <trkpt lat="46.91615" lon="8.64691">
        <ele>1020</ele>
        <time>2021-08-07T11:25:23.115Z</time>
      </trkpt>
      <trkpt lat="46.91616" lon="8.6469">
        <ele>1019</ele>
        <time>2021-08-07T11:25:27.248Z</time>
      </trkpt>
      <trkpt lat="46.91621" lon="8.64686">
        <ele>1017</ele>
        <time>2021-08-07T11:25:28.249Z</time>
      </trkpt>
      <trkpt lat="46.91621" lon="8.64685">
        <ele>1017</ele>
        <time>2021-08-07T11:25:29.248Z</time>
      </trkpt>
      <trkpt lat="46.91621" lon="8.64682">
        <ele>1017</ele>
        <time>2021-08-07T11:25:30.249Z</time>
      </trkpt>
      <trkpt lat="46.9162" lon="8.64681">
        <ele>1017</ele>
        <time>2021-08-07T11:25:31.249Z</time>
      </trkpt>
      <trkpt lat="46.91621" lon="8.64678">
        <ele>1018</ele>
        <time>2021-08-07T11:25:42.339Z</time>
      </trkpt>
      <trkpt lat="46.91621" lon="8.64678">
        <ele>1018</ele>
        <time>2021-08-07T11:25:43.338Z</time>
      </trkpt>
      <trkpt lat="46.91621" lon="8.64678">
        <ele>1018</ele>
        <time>2021-08-07T11:25:53.220Z</time>
      </trkpt>
      <trkpt lat="46.91622" lon="8.64677">
        <ele>1018</ele>
        <time>2021-08-07T11:25:54.220Z</time>
      </trkpt>
      <trkpt lat="46.91624" lon="8.64676">
        <ele>1019</ele>
        <time>2021-08-07T11:25:55.222Z</time>
      </trkpt>
      <trkpt lat="46.91624" lon="8.64676">
        <ele>1019</ele>
        <time>2021-08-07T11:25:56.221Z</time>
      </trkpt>
      <trkpt lat="46.91631" lon="8.64678">
        <ele>1016</ele>
        <time>2021-08-07T11:25:57.098Z</time>
      </trkpt>
      <trkpt lat="46.9163" lon="8.64683">
        <ele>1015</ele>
        <time>2021-08-07T11:25:58.098Z</time>
      </trkpt>
      <trkpt lat="46.91631" lon="8.64683">
        <ele>1014</ele>
        <time>2021-08-07T11:25:59.098Z</time>
      </trkpt>
      <trkpt lat="46.91631" lon="8.64683">
        <ele>1014</ele>
        <time>2021-08-07T11:26:00.098Z</time>
      </trkpt>
      <trkpt lat="46.91631" lon="8.64681">
        <ele>1013</ele>
        <time>2021-08-07T11:26:01.099Z</time>
      </trkpt>
      <trkpt lat="46.91631" lon="8.6468">
        <ele>1013</ele>
        <time>2021-08-07T11:26:02.099Z</time>
      </trkpt>
      <trkpt lat="46.9163" lon="8.64681">
        <ele>1013</ele>
        <time>2021-08-07T11:26:03.098Z</time>
      </trkpt>
      <trkpt lat="46.9163" lon="8.6468">
        <ele>1012</ele>
        <time>2021-08-07T11:26:04.099Z</time>
      </trkpt>
      <trkpt lat="46.9163" lon="8.64679">
        <ele>1012</ele>
        <time>2021-08-07T11:26:05.099Z</time>
      </trkpt>
      <trkpt lat="46.9163" lon="8.64679">
        <ele>1012</ele>
        <time>2021-08-07T11:26:07.212Z</time>
      </trkpt>
      <trkpt lat="46.9163" lon="8.64678">
        <ele>1012</ele>
        <time>2021-08-07T11:26:08.212Z</time>
      </trkpt>
      <trkpt lat="46.91629" lon="8.64677">
        <ele>1012</ele>
        <time>2021-08-07T11:26:09.214Z</time>
      </trkpt>
      <trkpt lat="46.91629" lon="8.64677">
        <ele>1012</ele>
        <time>2021-08-07T11:26:10.213Z</time>
      </trkpt>
      <trkpt lat="46.91629" lon="8.64677">
        <ele>1012</ele>
        <time>2021-08-07T11:26:11.213Z</time>
      </trkpt>
      <trkpt lat="46.91629" lon="8.64677">
        <ele>1012</ele>
        <time>2021-08-07T11:26:23.352Z</time>
      </trkpt>
      <trkpt lat="46.91629" lon="8.64671">
        <ele>1010</ele>
        <time>2021-08-07T11:26:24.352Z</time>
      </trkpt>
      <trkpt lat="46.9163" lon="8.6467">
        <ele>1010</ele>
        <time>2021-08-07T11:26:25.352Z</time>
      </trkpt>
      <trkpt lat="46.9163" lon="8.6467">
        <ele>1009</ele>
        <time>2021-08-07T11:26:26.351Z</time>
      </trkpt>
      <trkpt lat="46.9163" lon="8.64671">
        <ele>1009</ele>
        <time>2021-08-07T11:26:27.351Z</time>
      </trkpt>
      <trkpt lat="46.9163" lon="8.64671">
        <ele>1009</ele>
        <time>2021-08-07T11:26:28.352Z</time>
      </trkpt>
      <trkpt lat="46.91631" lon="8.64671">
        <ele>1008</ele>
        <time>2021-08-07T11:26:41.492Z</time>
      </trkpt>
      <trkpt lat="46.91631" lon="8.64672">
        <ele>1008</ele>
        <time>2021-08-07T11:26:42.491Z</time>
      </trkpt>
      <trkpt lat="46.91633" lon="8.64672">
        <ele>1008</ele>
        <time>2021-08-07T11:26:43.493Z</time>
      </trkpt>
      <trkpt lat="46.91633" lon="8.64673">
        <ele>1007</ele>
        <time>2021-08-07T11:26:44.493Z</time>
      </trkpt>
      <trkpt lat="46.91634" lon="8.64674">
        <ele>1007</ele>
        <time>2021-08-07T11:26:45.492Z</time>
      </trkpt>
      <trkpt lat="46.91634" lon="8.64675">
        <ele>1007</ele>
        <time>2021-08-07T11:26:46.493Z</time>
      </trkpt>
      <trkpt lat="46.91633" lon="8.64675">
        <ele>1007</ele>
        <time>2021-08-07T11:26:53.617Z</time>
      </trkpt>
      <trkpt lat="46.91632" lon="8.64675">
        <ele>1007</ele>
        <time>2021-08-07T11:26:54.616Z</time>
      </trkpt>
      <trkpt lat="46.91632" lon="8.64674">
        <ele>1007</ele>
        <time>2021-08-07T11:26:55.617Z</time>
      </trkpt>
      <trkpt lat="46.91631" lon="8.64673">
        <ele>1007</ele>
        <time>2021-08-07T11:26:56.616Z</time>
      </trkpt>
      <trkpt lat="46.9163" lon="8.64673">
        <ele>1007</ele>
        <time>2021-08-07T11:26:57.617Z</time>
      </trkpt>
      <trkpt lat="46.91629" lon="8.64672">
        <ele>1007</ele>
        <time>2021-08-07T11:26:58.616Z</time>
      </trkpt>
      <trkpt lat="46.91628" lon="8.64671">
        <ele>1006</ele>
        <time>2021-08-07T11:26:59.617Z</time>
      </trkpt>
      <trkpt lat="46.91627" lon="8.6467">
        <ele>1006</ele>
        <time>2021-08-07T11:27:00.616Z</time>
      </trkpt>
      <trkpt lat="46.91626" lon="8.64668">
        <ele>1006</ele>
        <time>2021-08-07T11:27:01.617Z</time>
      </trkpt>
      <trkpt lat="46.91625" lon="8.64667">
        <ele>1006</ele>
        <time>2021-08-07T11:27:02.616Z</time>
      </trkpt>
      <trkpt lat="46.91624" lon="8.64666">
        <ele>1006</ele>
        <time>2021-08-07T11:27:03.616Z</time>
      </trkpt>
      <trkpt lat="46.91623" lon="8.64665">
        <ele>1005</ele>
        <time>2021-08-07T11:27:07.706Z</time>
      </trkpt>
      <trkpt lat="46.91622" lon="8.64664">
        <ele>1005</ele>
        <time>2021-08-07T11:27:08.706Z</time>
      </trkpt>
      <trkpt lat="46.91622" lon="8.64664">
        <ele>1005</ele>
        <time>2021-08-07T11:27:14.830Z</time>
      </trkpt>
      <trkpt lat="46.91621" lon="8.64662">
        <ele>1005</ele>
        <time>2021-08-07T11:27:15.830Z</time>
      </trkpt>
      <trkpt lat="46.91621" lon="8.64662">
        <ele>1004</ele>
        <time>2021-08-07T11:27:16.830Z</time>
      </trkpt>
      <trkpt lat="46.91621" lon="8.64661">
        <ele>1004</ele>
        <time>2021-08-07T11:27:17.831Z</time>
      </trkpt>
      <trkpt lat="46.9162" lon="8.64661">
        <ele>1003</ele>
        <time>2021-08-07T11:27:18.831Z</time>
      </trkpt>
      <trkpt lat="46.9162" lon="8.64661">
        <ele>1003</ele>
        <time>2021-08-07T11:27:19.830Z</time>
      </trkpt>
      <trkpt lat="46.9162" lon="8.64661">
        <ele>1003</ele>
        <time>2021-08-07T11:27:20.830Z</time>
      </trkpt>
      <trkpt lat="46.91621" lon="8.6466">
        <ele>1002</ele>
        <time>2021-08-07T11:27:21.831Z</time>
      </trkpt>
      <trkpt lat="46.91622" lon="8.6466">
        <ele>1002</ele>
        <time>2021-08-07T11:27:22.832Z</time>
      </trkpt>
      <trkpt lat="46.91622" lon="8.64658">
        <ele>1002</ele>
        <time>2021-08-07T11:27:23.831Z</time>
      </trkpt>
      <trkpt lat="46.91622" lon="8.64657">
        <ele>1001</ele>
        <time>2021-08-07T11:27:39.940Z</time>
      </trkpt>
      <trkpt lat="46.91621" lon="8.64655">
        <ele>1001</ele>
        <time>2021-08-07T11:27:40.940Z</time>
      </trkpt>
      <trkpt lat="46.91621" lon="8.64654">
        <ele>1001</ele>
        <time>2021-08-07T11:27:41.940Z</time>
      </trkpt>
      <trkpt lat="46.91621" lon="8.64653">
        <ele>1001</ele>
        <time>2021-08-07T11:27:42.942Z</time>
      </trkpt>
      <trkpt lat="46.91621" lon="8.64652">
        <ele>1001</ele>
        <time>2021-08-07T11:27:44.938Z</time>
      </trkpt>
      <trkpt lat="46.91621" lon="8.64651">
        <ele>1001</ele>
        <time>2021-08-07T11:27:45.937Z</time>
      </trkpt>
      <trkpt lat="46.91621" lon="8.6465">
        <ele>1002</ele>
        <time>2021-08-07T11:27:46.938Z</time>
      </trkpt>
      <trkpt lat="46.91621" lon="8.64649">
        <ele>1002</ele>
        <time>2021-08-07T11:27:47.937Z</time>
      </trkpt>
      <trkpt lat="46.91621" lon="8.64649">
        <ele>1002</ele>
        <time>2021-08-07T11:27:48.937Z</time>
      </trkpt>
      <trkpt lat="46.91621" lon="8.64649">
        <ele>1003</ele>
        <time>2021-08-07T11:27:49.938Z</time>
      </trkpt>
      <trkpt lat="46.9162" lon="8.64648">
        <ele>1003</ele>
        <time>2021-08-07T11:28:01.959Z</time>
      </trkpt>
      <trkpt lat="46.91619" lon="8.64648">
        <ele>1003</ele>
        <time>2021-08-07T11:28:02.959Z</time>
      </trkpt>
      <trkpt lat="46.91618" lon="8.64646">
        <ele>1004</ele>
        <time>2021-08-07T11:28:03.959Z</time>
      </trkpt>
      <trkpt lat="46.91619" lon="8.64644">
        <ele>1004</ele>
        <time>2021-08-07T11:28:04.959Z</time>
      </trkpt>
      <trkpt lat="46.91619" lon="8.64643">
        <ele>1004</ele>
        <time>2021-08-07T11:28:05.959Z</time>
      </trkpt>
      <trkpt lat="46.91619" lon="8.64643">
        <ele>1004</ele>
        <time>2021-08-07T11:28:06.959Z</time>
      </trkpt>
      <trkpt lat="46.91619" lon="8.64643">
        <ele>1004</ele>
        <time>2021-08-07T11:28:07.959Z</time>
      </trkpt>
      <trkpt lat="46.9162" lon="8.64645">
        <ele>1004</ele>
        <time>2021-08-07T11:28:08.959Z</time>
      </trkpt>
      <trkpt lat="46.91621" lon="8.64645">
        <ele>1004</ele>
        <time>2021-08-07T11:28:09.960Z</time>
      </trkpt>
      <trkpt lat="46.91621" lon="8.64644">
        <ele>1005</ele>
        <time>2021-08-07T11:28:10.960Z</time>
      </trkpt>
      <trkpt lat="46.9162" lon="8.64643">
        <ele>1005</ele>
        <time>2021-08-07T11:28:11.959Z</time>
      </trkpt>
      <trkpt lat="46.91619" lon="8.64641">
        <ele>1005</ele>
        <time>2021-08-07T11:28:12.959Z</time>
      </trkpt>
      <trkpt lat="46.91619" lon="8.64639">
        <ele>1005</ele>
        <time>2021-08-07T11:28:13.960Z</time>
      </trkpt>
      <trkpt lat="46.91619" lon="8.64638">
        <ele>1004</ele>
        <time>2021-08-07T11:28:14.960Z</time>
      </trkpt>
      <trkpt lat="46.91618" lon="8.64637">
        <ele>1005</ele>
        <time>2021-08-07T11:28:15.959Z</time>
      </trkpt>
      <trkpt lat="46.91617" lon="8.64636">
        <ele>1005</ele>
        <time>2021-08-07T11:28:16.960Z</time>
      </trkpt>
      <trkpt lat="46.91616" lon="8.64636">
        <ele>1004</ele>
        <time>2021-08-07T11:28:17.960Z</time>
      </trkpt>
      <trkpt lat="46.91615" lon="8.64635">
        <ele>1004</ele>
        <time>2021-08-07T11:28:20.071Z</time>
      </trkpt>
      <trkpt lat="46.91614" lon="8.64634">
        <ele>1004</ele>
        <time>2021-08-07T11:28:21.071Z</time>
      </trkpt>
      <trkpt lat="46.91614" lon="8.64633">
        <ele>1004</ele>
        <time>2021-08-07T11:28:31.845Z</time>
      </trkpt>
      <trkpt lat="46.91614" lon="8.64632">
        <ele>1004</ele>
        <time>2021-08-07T11:28:32.846Z</time>
      </trkpt>
      <trkpt lat="46.91615" lon="8.64632">
        <ele>1004</ele>
        <time>2021-08-07T11:28:40.607Z</time>
      </trkpt>
      <trkpt lat="46.91616" lon="8.64632">
        <ele>1004</ele>
        <time>2021-08-07T11:28:41.607Z</time>
      </trkpt>
      <trkpt lat="46.91616" lon="8.64631">
        <ele>1004</ele>
        <time>2021-08-07T11:28:42.607Z</time>
      </trkpt>
      <trkpt lat="46.91617" lon="8.6463">
        <ele>1004</ele>
        <time>2021-08-07T11:28:43.606Z</time>
      </trkpt>
      <trkpt lat="46.91617" lon="8.64629">
        <ele>1004</ele>
        <time>2021-08-07T11:28:44.607Z</time>
      </trkpt>
      <trkpt lat="46.91618" lon="8.64628">
        <ele>1004</ele>
        <time>2021-08-07T11:28:45.607Z</time>
      </trkpt>
      <trkpt lat="46.91618" lon="8.64628">
        <ele>1004</ele>
        <time>2021-08-07T11:28:49.690Z</time>
      </trkpt>
      <trkpt lat="46.91618" lon="8.64627">
        <ele>1004</ele>
        <time>2021-08-07T11:28:50.690Z</time>
      </trkpt>
      <trkpt lat="46.91618" lon="8.64627">
        <ele>1004</ele>
        <time>2021-08-07T11:28:51.690Z</time>
      </trkpt>
      <trkpt lat="46.91619" lon="8.64626">
        <ele>1004</ele>
        <time>2021-08-07T11:28:55.731Z</time>
      </trkpt>
      <trkpt lat="46.91619" lon="8.64625">
        <ele>1004</ele>
        <time>2021-08-07T11:28:56.731Z</time>
      </trkpt>
      <trkpt lat="46.9162" lon="8.64623">
        <ele>1004</ele>
        <time>2021-08-07T11:28:57.731Z</time>
      </trkpt>
      <trkpt lat="46.9162" lon="8.64621">
        <ele>1004</ele>
        <time>2021-08-07T11:28:58.731Z</time>
      </trkpt>
      <trkpt lat="46.91621" lon="8.6462">
        <ele>1004</ele>
        <time>2021-08-07T11:28:59.731Z</time>
      </trkpt>
      <trkpt lat="46.91621" lon="8.64619">
        <ele>1004</ele>
        <time>2021-08-07T11:29:00.730Z</time>
      </trkpt>
      <trkpt lat="46.91622" lon="8.64618">
        <ele>1004</ele>
        <time>2021-08-07T11:29:01.730Z</time>
      </trkpt>
      <trkpt lat="46.91623" lon="8.64616">
        <ele>1003</ele>
        <time>2021-08-07T11:29:02.731Z</time>
      </trkpt>
      <trkpt lat="46.91624" lon="8.64615">
        <ele>1003</ele>
        <time>2021-08-07T11:29:03.731Z</time>
      </trkpt>
      <trkpt lat="46.91624" lon="8.64614">
        <ele>1003</ele>
        <time>2021-08-07T11:29:04.731Z</time>
      </trkpt>
      <trkpt lat="46.91624" lon="8.64614">
        <ele>1003</ele>
        <time>2021-08-07T11:29:05.731Z</time>
      </trkpt>
      <trkpt lat="46.91624" lon="8.64614">
        <ele>1003</ele>
        <time>2021-08-07T11:29:06.731Z</time>
      </trkpt>
      <trkpt lat="46.91625" lon="8.64615">
        <ele>1003</ele>
        <time>2021-08-07T11:29:07.731Z</time>
      </trkpt>
      <trkpt lat="46.91626" lon="8.64613">
        <ele>1003</ele>
        <time>2021-08-07T11:29:08.731Z</time>
      </trkpt>
      <trkpt lat="46.91627" lon="8.64611">
        <ele>1002</ele>
        <time>2021-08-07T11:29:09.731Z</time>
      </trkpt>
      <trkpt lat="46.91628" lon="8.6461">
        <ele>1002</ele>
        <time>2021-08-07T11:29:10.732Z</time>
      </trkpt>
      <trkpt lat="46.91627" lon="8.64609">
        <ele>1002</ele>
        <time>2021-08-07T11:29:11.731Z</time>
      </trkpt>
      <trkpt lat="46.91627" lon="8.64608">
        <ele>1002</ele>
        <time>2021-08-07T11:29:12.732Z</time>
      </trkpt>
      <trkpt lat="46.91628" lon="8.64608">
        <ele>1002</ele>
        <time>2021-08-07T11:29:13.732Z</time>
      </trkpt>
      <trkpt lat="46.91628" lon="8.64607">
        <ele>1002</ele>
        <time>2021-08-07T11:29:20.846Z</time>
      </trkpt>
      <trkpt lat="46.91629" lon="8.64607">
        <ele>1002</ele>
        <time>2021-08-07T11:29:21.846Z</time>
      </trkpt>
      <trkpt lat="46.91629" lon="8.64605">
        <ele>1002</ele>
        <time>2021-08-07T11:29:22.846Z</time>
      </trkpt>
      <trkpt lat="46.91628" lon="8.64603">
        <ele>1002</ele>
        <time>2021-08-07T11:29:23.846Z</time>
      </trkpt>
      <trkpt lat="46.91628" lon="8.64602">
        <ele>1002</ele>
        <time>2021-08-07T11:29:24.847Z</time>
      </trkpt>
      <trkpt lat="46.91627" lon="8.64601">
        <ele>1002</ele>
        <time>2021-08-07T11:29:25.846Z</time>
      </trkpt>
      <trkpt lat="46.91626" lon="8.646">
        <ele>1002</ele>
        <time>2021-08-07T11:29:26.847Z</time>
      </trkpt>
      <trkpt lat="46.91626" lon="8.646">
        <ele>1002</ele>
        <time>2021-08-07T11:29:27.846Z</time>
      </trkpt>
      <trkpt lat="46.91626" lon="8.64599">
        <ele>1003</ele>
        <time>2021-08-07T11:29:28.847Z</time>
      </trkpt>
      <trkpt lat="46.91626" lon="8.64598">
        <ele>1003</ele>
        <time>2021-08-07T11:29:29.847Z</time>
      </trkpt>
      <trkpt lat="46.91626" lon="8.64597">
        <ele>1003</ele>
        <time>2021-08-07T11:29:30.846Z</time>
      </trkpt>
      <trkpt lat="46.91625" lon="8.64595">
        <ele>1004</ele>
        <time>2021-08-07T11:29:31.846Z</time>
      </trkpt>
      <trkpt lat="46.91625" lon="8.64593">
        <ele>1004</ele>
        <time>2021-08-07T11:29:32.847Z</time>
      </trkpt>
      <trkpt lat="46.91624" lon="8.64589">
        <ele>1004</ele>
        <time>2021-08-07T11:29:33.846Z</time>
      </trkpt>
      <trkpt lat="46.91623" lon="8.64586">
        <ele>1005</ele>
        <time>2021-08-07T11:29:34.846Z</time>
      </trkpt>
      <trkpt lat="46.91623" lon="8.64584">
        <ele>1005</ele>
        <time>2021-08-07T11:29:35.846Z</time>
      </trkpt>
      <trkpt lat="46.91622" lon="8.64584">
        <ele>1005</ele>
        <time>2021-08-07T11:29:36.846Z</time>
      </trkpt>
      <trkpt lat="46.91621" lon="8.64584">
        <ele>1005</ele>
        <time>2021-08-07T11:29:37.847Z</time>
      </trkpt>
      <trkpt lat="46.9162" lon="8.64585">
        <ele>1005</ele>
        <time>2021-08-07T11:29:38.846Z</time>
      </trkpt>
      <trkpt lat="46.91618" lon="8.64586">
        <ele>1005</ele>
        <time>2021-08-07T11:29:39.846Z</time>
      </trkpt>
      <trkpt lat="46.91617" lon="8.64587">
        <ele>1005</ele>
        <time>2021-08-07T11:29:40.846Z</time>
      </trkpt>
      <trkpt lat="46.91615" lon="8.64587">
        <ele>1005</ele>
        <time>2021-08-07T11:29:41.846Z</time>
      </trkpt>
      <trkpt lat="46.91614" lon="8.64585">
        <ele>1005</ele>
        <time>2021-08-07T11:29:42.847Z</time>
      </trkpt>
      <trkpt lat="46.91612" lon="8.64584">
        <ele>1004</ele>
        <time>2021-08-07T11:29:43.847Z</time>
      </trkpt>
      <trkpt lat="46.91611" lon="8.64583">
        <ele>1004</ele>
        <time>2021-08-07T11:29:44.846Z</time>
      </trkpt>
      <trkpt lat="46.9161" lon="8.64582">
        <ele>1004</ele>
        <time>2021-08-07T11:29:45.846Z</time>
      </trkpt>
      <trkpt lat="46.91609" lon="8.64582">
        <ele>1004</ele>
        <time>2021-08-07T11:29:46.846Z</time>
      </trkpt>
      <trkpt lat="46.91609" lon="8.64581">
        <ele>1004</ele>
        <time>2021-08-07T11:29:47.847Z</time>
      </trkpt>
      <trkpt lat="46.9161" lon="8.6458">
        <ele>1004</ele>
        <time>2021-08-07T11:29:48.846Z</time>
      </trkpt>
      <trkpt lat="46.91611" lon="8.64579">
        <ele>1004</ele>
        <time>2021-08-07T11:29:49.846Z</time>
      </trkpt>
      <trkpt lat="46.91612" lon="8.64578">
        <ele>1004</ele>
        <time>2021-08-07T11:29:50.846Z</time>
      </trkpt>
      <trkpt lat="46.91613" lon="8.64576">
        <ele>1004</ele>
        <time>2021-08-07T11:29:51.847Z</time>
      </trkpt>
      <trkpt lat="46.91613" lon="8.64575">
        <ele>1004</ele>
        <time>2021-08-07T11:29:52.847Z</time>
      </trkpt>
      <trkpt lat="46.91614" lon="8.64574">
        <ele>1004</ele>
        <time>2021-08-07T11:29:53.846Z</time>
      </trkpt>
      <trkpt lat="46.91613" lon="8.64573">
        <ele>1003</ele>
        <time>2021-08-07T11:30:03.878Z</time>
      </trkpt>
      <trkpt lat="46.91613" lon="8.64571">
        <ele>1003</ele>
        <time>2021-08-07T11:30:04.878Z</time>
      </trkpt>
      <trkpt lat="46.91614" lon="8.64569">
        <ele>1003</ele>
        <time>2021-08-07T11:30:09.731Z</time>
      </trkpt>
      <trkpt lat="46.91613" lon="8.64569">
        <ele>1003</ele>
        <time>2021-08-07T11:30:10.732Z</time>
      </trkpt>
      <trkpt lat="46.91612" lon="8.64567">
        <ele>1003</ele>
        <time>2021-08-07T11:30:11.731Z</time>
      </trkpt>
      <trkpt lat="46.91612" lon="8.64566">
        <ele>1003</ele>
        <time>2021-08-07T11:30:12.731Z</time>
      </trkpt>
      <trkpt lat="46.91612" lon="8.64563">
        <ele>1002</ele>
        <time>2021-08-07T11:30:13.731Z</time>
      </trkpt>
      <trkpt lat="46.91612" lon="8.64562">
        <ele>1002</ele>
        <time>2021-08-07T11:30:14.731Z</time>
      </trkpt>
      <trkpt lat="46.91612" lon="8.6456">
        <ele>1001</ele>
        <time>2021-08-07T11:30:15.731Z</time>
      </trkpt>
      <trkpt lat="46.91612" lon="8.64559">
        <ele>1001</ele>
        <time>2021-08-07T11:30:16.731Z</time>
      </trkpt>
      <trkpt lat="46.91614" lon="8.64559">
        <ele>1000</ele>
        <time>2021-08-07T11:30:17.731Z</time>
      </trkpt>
      <trkpt lat="46.91615" lon="8.64558">
        <ele>999</ele>
        <time>2021-08-07T11:30:18.731Z</time>
      </trkpt>
      <trkpt lat="46.91615" lon="8.64556">
        <ele>999</ele>
        <time>2021-08-07T11:30:19.732Z</time>
      </trkpt>
      <trkpt lat="46.91616" lon="8.64554">
        <ele>998</ele>
        <time>2021-08-07T11:30:20.731Z</time>
      </trkpt>
      <trkpt lat="46.91615" lon="8.64552">
        <ele>997</ele>
        <time>2021-08-07T11:30:21.731Z</time>
      </trkpt>
      <trkpt lat="46.91615" lon="8.6455">
        <ele>997</ele>
        <time>2021-08-07T11:30:22.731Z</time>
      </trkpt>
      <trkpt lat="46.91614" lon="8.64549">
        <ele>996</ele>
        <time>2021-08-07T11:30:41.835Z</time>
      </trkpt>
      <trkpt lat="46.91614" lon="8.64548">
        <ele>996</ele>
        <time>2021-08-07T11:30:42.835Z</time>
      </trkpt>
      <trkpt lat="46.91614" lon="8.64546">
        <ele>995</ele>
        <time>2021-08-07T11:30:43.835Z</time>
      </trkpt>
      <trkpt lat="46.91615" lon="8.64545">
        <ele>994</ele>
        <time>2021-08-07T11:30:44.836Z</time>
      </trkpt>
      <trkpt lat="46.91616" lon="8.64545">
        <ele>994</ele>
        <time>2021-08-07T11:30:45.835Z</time>
      </trkpt>
      <trkpt lat="46.91617" lon="8.64544">
        <ele>993</ele>
        <time>2021-08-07T11:30:46.835Z</time>
      </trkpt>
      <trkpt lat="46.91618" lon="8.64545">
        <ele>993</ele>
        <time>2021-08-07T11:30:47.835Z</time>
      </trkpt>
      <trkpt lat="46.91618" lon="8.64544">
        <ele>993</ele>
        <time>2021-08-07T11:30:48.835Z</time>
      </trkpt>
      <trkpt lat="46.91618" lon="8.64543">
        <ele>992</ele>
        <time>2021-08-07T11:30:51.834Z</time>
      </trkpt>
      <trkpt lat="46.91618" lon="8.64542">
        <ele>992</ele>
        <time>2021-08-07T11:30:52.834Z</time>
      </trkpt>
      <trkpt lat="46.91618" lon="8.64541">
        <ele>991</ele>
        <time>2021-08-07T11:30:53.834Z</time>
      </trkpt>
      <trkpt lat="46.91614" lon="8.64535">
        <ele>990</ele>
        <time>2021-08-07T11:30:54.835Z</time>
      </trkpt>
      <trkpt lat="46.91613" lon="8.64533">
        <ele>990</ele>
        <time>2021-08-07T11:30:55.834Z</time>
      </trkpt>
      <trkpt lat="46.91613" lon="8.6453">
        <ele>990</ele>
        <time>2021-08-07T11:30:56.834Z</time>
      </trkpt>
      <trkpt lat="46.91613" lon="8.6453">
        <ele>990</ele>
        <time>2021-08-07T11:30:57.835Z</time>
      </trkpt>
      <trkpt lat="46.91613" lon="8.64529">
        <ele>990</ele>
        <time>2021-08-07T11:30:58.835Z</time>
      </trkpt>
      <trkpt lat="46.91612" lon="8.64529">
        <ele>990</ele>
        <time>2021-08-07T11:30:59.834Z</time>
      </trkpt>
      <trkpt lat="46.91612" lon="8.64528">
        <ele>989</ele>
        <time>2021-08-07T11:31:00.834Z</time>
      </trkpt>
      <trkpt lat="46.91612" lon="8.64527">
        <ele>989</ele>
        <time>2021-08-07T11:31:01.834Z</time>
      </trkpt>
      <trkpt lat="46.91612" lon="8.64526">
        <ele>989</ele>
        <time>2021-08-07T11:31:02.835Z</time>
      </trkpt>
      <trkpt lat="46.91612" lon="8.64526">
        <ele>988</ele>
        <time>2021-08-07T11:31:03.835Z</time>
      </trkpt>
      <trkpt lat="46.91612" lon="8.64526">
        <ele>988</ele>
        <time>2021-08-07T11:31:04.834Z</time>
      </trkpt>
      <trkpt lat="46.91612" lon="8.64526">
        <ele>987</ele>
        <time>2021-08-07T11:31:05.834Z</time>
      </trkpt>
      <trkpt lat="46.91611" lon="8.64525">
        <ele>986</ele>
        <time>2021-08-07T11:31:06.835Z</time>
      </trkpt>
      <trkpt lat="46.91611" lon="8.64523">
        <ele>985</ele>
        <time>2021-08-07T11:31:07.834Z</time>
      </trkpt>
      <trkpt lat="46.91611" lon="8.64522">
        <ele>984</ele>
        <time>2021-08-07T11:31:08.835Z</time>
      </trkpt>
      <trkpt lat="46.91611" lon="8.64521">
        <ele>984</ele>
        <time>2021-08-07T11:31:09.834Z</time>
      </trkpt>
      <trkpt lat="46.91611" lon="8.6452">
        <ele>983</ele>
        <time>2021-08-07T11:31:10.834Z</time>
      </trkpt>
      <trkpt lat="46.91612" lon="8.64519">
        <ele>983</ele>
        <time>2021-08-07T11:31:11.834Z</time>
      </trkpt>
      <trkpt lat="46.91611" lon="8.64518">
        <ele>982</ele>
        <time>2021-08-07T11:31:12.834Z</time>
      </trkpt>
      <trkpt lat="46.91612" lon="8.64517">
        <ele>981</ele>
        <time>2021-08-07T11:31:13.834Z</time>
      </trkpt>
      <trkpt lat="46.91611" lon="8.64517">
        <ele>981</ele>
        <time>2021-08-07T11:31:14.834Z</time>
      </trkpt>
      <trkpt lat="46.91611" lon="8.64515">
        <ele>980</ele>
        <time>2021-08-07T11:31:15.834Z</time>
      </trkpt>
      <trkpt lat="46.91611" lon="8.64515">
        <ele>980</ele>
        <time>2021-08-07T11:31:16.834Z</time>
      </trkpt>
      <trkpt lat="46.9161" lon="8.64514">
        <ele>979</ele>
        <time>2021-08-07T11:31:17.835Z</time>
      </trkpt>
      <trkpt lat="46.91611" lon="8.64514">
        <ele>979</ele>
        <time>2021-08-07T11:31:18.834Z</time>
      </trkpt>
      <trkpt lat="46.91611" lon="8.64514">
        <ele>978</ele>
        <time>2021-08-07T11:31:19.834Z</time>
      </trkpt>
      <trkpt lat="46.91611" lon="8.64514">
        <ele>978</ele>
        <time>2021-08-07T11:31:20.834Z</time>
      </trkpt>
      <trkpt lat="46.9161" lon="8.64514">
        <ele>977</ele>
        <time>2021-08-07T11:31:21.834Z</time>
      </trkpt>
      <trkpt lat="46.91609" lon="8.64513">
        <ele>977</ele>
        <time>2021-08-07T11:31:22.835Z</time>
      </trkpt>
      <trkpt lat="46.91609" lon="8.64513">
        <ele>977</ele>
        <time>2021-08-07T11:31:23.834Z</time>
      </trkpt>
      <trkpt lat="46.91608" lon="8.64512">
        <ele>977</ele>
        <time>2021-08-07T11:31:24.835Z</time>
      </trkpt>
      <trkpt lat="46.91607" lon="8.64511">
        <ele>976</ele>
        <time>2021-08-07T11:31:25.834Z</time>
      </trkpt>
      <trkpt lat="46.91607" lon="8.64511">
        <ele>976</ele>
        <time>2021-08-07T11:31:26.834Z</time>
      </trkpt>
      <trkpt lat="46.91607" lon="8.6451">
        <ele>976</ele>
        <time>2021-08-07T11:31:27.835Z</time>
      </trkpt>
      <trkpt lat="46.91607" lon="8.64508">
        <ele>976</ele>
        <time>2021-08-07T11:31:33.962Z</time>
      </trkpt>
      <trkpt lat="46.91607" lon="8.64506">
        <ele>976</ele>
        <time>2021-08-07T11:31:41.855Z</time>
      </trkpt>
      <trkpt lat="46.91607" lon="8.64505">
        <ele>976</ele>
        <time>2021-08-07T11:31:42.855Z</time>
      </trkpt>
      <trkpt lat="46.91606" lon="8.64502">
        <ele>976</ele>
        <time>2021-08-07T11:31:43.855Z</time>
      </trkpt>
      <trkpt lat="46.91606" lon="8.645">
        <ele>976</ele>
        <time>2021-08-07T11:31:44.855Z</time>
      </trkpt>
      <trkpt lat="46.91606" lon="8.64498">
        <ele>975</ele>
        <time>2021-08-07T11:31:45.855Z</time>
      </trkpt>
      <trkpt lat="46.91606" lon="8.64496">
        <ele>975</ele>
        <time>2021-08-07T11:31:46.856Z</time>
      </trkpt>
      <trkpt lat="46.91605" lon="8.64495">
        <ele>975</ele>
        <time>2021-08-07T11:31:47.856Z</time>
      </trkpt>
      <trkpt lat="46.91605" lon="8.64493">
        <ele>975</ele>
        <time>2021-08-07T11:31:48.855Z</time>
      </trkpt>
      <trkpt lat="46.91604" lon="8.64491">
        <ele>975</ele>
        <time>2021-08-07T11:31:49.856Z</time>
      </trkpt>
      <trkpt lat="46.91603" lon="8.6449">
        <ele>974</ele>
        <time>2021-08-07T11:31:50.855Z</time>
      </trkpt>
      <trkpt lat="46.91603" lon="8.64489">
        <ele>974</ele>
        <time>2021-08-07T11:31:51.856Z</time>
      </trkpt>
      <trkpt lat="46.91603" lon="8.64489">
        <ele>973</ele>
        <time>2021-08-07T11:31:52.856Z</time>
      </trkpt>
      <trkpt lat="46.91603" lon="8.6449">
        <ele>973</ele>
        <time>2021-08-07T11:31:53.856Z</time>
      </trkpt>
      <trkpt lat="46.91602" lon="8.6449">
        <ele>972</ele>
        <time>2021-08-07T11:31:54.856Z</time>
      </trkpt>
      <trkpt lat="46.91602" lon="8.6449">
        <ele>972</ele>
        <time>2021-08-07T11:31:55.856Z</time>
      </trkpt>
      <trkpt lat="46.91601" lon="8.6449">
        <ele>972</ele>
        <time>2021-08-07T11:31:56.856Z</time>
      </trkpt>
      <trkpt lat="46.91601" lon="8.6449">
        <ele>971</ele>
        <time>2021-08-07T11:31:57.855Z</time>
      </trkpt>
      <trkpt lat="46.91601" lon="8.64489">
        <ele>971</ele>
        <time>2021-08-07T11:31:58.856Z</time>
      </trkpt>
      <trkpt lat="46.91601" lon="8.64489">
        <ele>970</ele>
        <time>2021-08-07T11:31:59.855Z</time>
      </trkpt>
      <trkpt lat="46.91601" lon="8.64489">
        <ele>970</ele>
        <time>2021-08-07T11:32:00.856Z</time>
      </trkpt>
      <trkpt lat="46.91602" lon="8.64489">
        <ele>969</ele>
        <time>2021-08-07T11:32:01.855Z</time>
      </trkpt>
      <trkpt lat="46.91602" lon="8.64489">
        <ele>969</ele>
        <time>2021-08-07T11:32:02.856Z</time>
      </trkpt>
      <trkpt lat="46.91602" lon="8.64489">
        <ele>968</ele>
        <time>2021-08-07T11:32:03.856Z</time>
      </trkpt>
      <trkpt lat="46.91603" lon="8.64489">
        <ele>968</ele>
        <time>2021-08-07T11:32:04.856Z</time>
      </trkpt>
      <trkpt lat="46.91603" lon="8.64489">
        <ele>967</ele>
        <time>2021-08-07T11:32:05.856Z</time>
      </trkpt>
      <trkpt lat="46.91602" lon="8.64488">
        <ele>967</ele>
        <time>2021-08-07T11:32:06.855Z</time>
      </trkpt>
      <trkpt lat="46.91602" lon="8.64488">
        <ele>967</ele>
        <time>2021-08-07T11:32:07.856Z</time>
      </trkpt>
      <trkpt lat="46.91602" lon="8.64487">
        <ele>967</ele>
        <time>2021-08-07T11:32:08.856Z</time>
      </trkpt>
      <trkpt lat="46.91602" lon="8.64486">
        <ele>966</ele>
        <time>2021-08-07T11:32:09.855Z</time>
      </trkpt>
      <trkpt lat="46.91602" lon="8.64484">
        <ele>966</ele>
        <time>2021-08-07T11:32:10.856Z</time>
      </trkpt>
      <trkpt lat="46.91601" lon="8.64483">
        <ele>966</ele>
        <time>2021-08-07T11:32:11.856Z</time>
      </trkpt>
      <trkpt lat="46.91601" lon="8.64482">
        <ele>967</ele>
        <time>2021-08-07T11:32:12.857Z</time>
      </trkpt>
      <trkpt lat="46.91601" lon="8.64483">
        <ele>966</ele>
        <time>2021-08-07T11:32:13.857Z</time>
      </trkpt>
      <trkpt lat="46.91602" lon="8.64483">
        <ele>966</ele>
        <time>2021-08-07T11:32:14.857Z</time>
      </trkpt>
      <trkpt lat="46.91602" lon="8.64483">
        <ele>966</ele>
        <time>2021-08-07T11:32:15.856Z</time>
      </trkpt>
      <trkpt lat="46.91602" lon="8.64484">
        <ele>966</ele>
        <time>2021-08-07T11:32:16.856Z</time>
      </trkpt>
      <trkpt lat="46.91602" lon="8.64484">
        <ele>966</ele>
        <time>2021-08-07T11:32:17.856Z</time>
      </trkpt>
      <trkpt lat="46.91602" lon="8.64484">
        <ele>966</ele>
        <time>2021-08-07T11:32:18.857Z</time>
      </trkpt>
      <trkpt lat="46.91601" lon="8.64483">
        <ele>966</ele>
        <time>2021-08-07T11:32:19.856Z</time>
      </trkpt>
      <trkpt lat="46.91601" lon="8.64483">
        <ele>966</ele>
        <time>2021-08-07T11:32:20.857Z</time>
      </trkpt>
      <trkpt lat="46.91602" lon="8.64482">
        <ele>966</ele>
        <time>2021-08-07T11:32:21.857Z</time>
      </trkpt>
      <trkpt lat="46.91601" lon="8.64479">
        <ele>966</ele>
        <time>2021-08-07T11:32:22.856Z</time>
      </trkpt>
      <trkpt lat="46.916" lon="8.64477">
        <ele>966</ele>
        <time>2021-08-07T11:32:23.857Z</time>
      </trkpt>
      <trkpt lat="46.916" lon="8.64475">
        <ele>965</ele>
        <time>2021-08-07T11:32:24.856Z</time>
      </trkpt>
      <trkpt lat="46.91601" lon="8.64473">
        <ele>965</ele>
        <time>2021-08-07T11:32:25.857Z</time>
      </trkpt>
      <trkpt lat="46.91601" lon="8.64471">
        <ele>965</ele>
        <time>2021-08-07T11:32:26.857Z</time>
      </trkpt>
      <trkpt lat="46.916" lon="8.64468">
        <ele>965</ele>
        <time>2021-08-07T11:32:27.856Z</time>
      </trkpt>
      <trkpt lat="46.916" lon="8.64466">
        <ele>965</ele>
        <time>2021-08-07T11:32:28.857Z</time>
      </trkpt>
      <trkpt lat="46.916" lon="8.64465">
        <ele>965</ele>
        <time>2021-08-07T11:32:29.857Z</time>
      </trkpt>
      <trkpt lat="46.916" lon="8.64462">
        <ele>965</ele>
        <time>2021-08-07T11:32:30.857Z</time>
      </trkpt>
      <trkpt lat="46.91599" lon="8.64458">
        <ele>965</ele>
        <time>2021-08-07T11:32:31.857Z</time>
      </trkpt>
      <trkpt lat="46.91598" lon="8.64455">
        <ele>965</ele>
        <time>2021-08-07T11:32:32.857Z</time>
      </trkpt>
      <trkpt lat="46.91596" lon="8.64451">
        <ele>965</ele>
        <time>2021-08-07T11:32:33.857Z</time>
      </trkpt>
      <trkpt lat="46.91595" lon="8.64448">
        <ele>965</ele>
        <time>2021-08-07T11:32:34.856Z</time>
      </trkpt>
      <trkpt lat="46.91594" lon="8.64447">
        <ele>964</ele>
        <time>2021-08-07T11:32:35.856Z</time>
      </trkpt>
      <trkpt lat="46.91593" lon="8.64446">
        <ele>964</ele>
        <time>2021-08-07T11:32:36.856Z</time>
      </trkpt>
      <trkpt lat="46.91593" lon="8.64445">
        <ele>964</ele>
        <time>2021-08-07T11:32:37.857Z</time>
      </trkpt>
      <trkpt lat="46.91593" lon="8.64444">
        <ele>964</ele>
        <time>2021-08-07T11:32:38.856Z</time>
      </trkpt>
      <trkpt lat="46.91592" lon="8.64443">
        <ele>964</ele>
        <time>2021-08-07T11:32:39.856Z</time>
      </trkpt>
      <trkpt lat="46.91592" lon="8.64442">
        <ele>964</ele>
        <time>2021-08-07T11:32:40.856Z</time>
      </trkpt>
      <trkpt lat="46.91591" lon="8.64441">
        <ele>964</ele>
        <time>2021-08-07T11:32:41.856Z</time>
      </trkpt>
      <trkpt lat="46.91591" lon="8.6444">
        <ele>964</ele>
        <time>2021-08-07T11:32:42.856Z</time>
      </trkpt>
      <trkpt lat="46.9159" lon="8.64439">
        <ele>963</ele>
        <time>2021-08-07T11:32:43.856Z</time>
      </trkpt>
      <trkpt lat="46.91591" lon="8.64438">
        <ele>963</ele>
        <time>2021-08-07T11:32:44.856Z</time>
      </trkpt>
      <trkpt lat="46.9159" lon="8.64438">
        <ele>963</ele>
        <time>2021-08-07T11:32:45.856Z</time>
      </trkpt>
      <trkpt lat="46.91591" lon="8.64438">
        <ele>962</ele>
        <time>2021-08-07T11:32:46.857Z</time>
      </trkpt>
      <trkpt lat="46.91591" lon="8.64438">
        <ele>962</ele>
        <time>2021-08-07T11:32:47.857Z</time>
      </trkpt>
      <trkpt lat="46.91592" lon="8.64438">
        <ele>961</ele>
        <time>2021-08-07T11:32:48.858Z</time>
      </trkpt>
      <trkpt lat="46.91592" lon="8.64438">
        <ele>961</ele>
        <time>2021-08-07T11:32:49.857Z</time>
      </trkpt>
      <trkpt lat="46.91592" lon="8.64437">
        <ele>961</ele>
        <time>2021-08-07T11:32:50.857Z</time>
      </trkpt>
      <trkpt lat="46.91592" lon="8.64436">
        <ele>960</ele>
        <time>2021-08-07T11:32:51.857Z</time>
      </trkpt>
      <trkpt lat="46.91592" lon="8.64435">
        <ele>960</ele>
        <time>2021-08-07T11:32:52.857Z</time>
      </trkpt>
      <trkpt lat="46.91592" lon="8.64435">
        <ele>960</ele>
        <time>2021-08-07T11:32:53.858Z</time>
      </trkpt>
      <trkpt lat="46.91591" lon="8.64434">
        <ele>960</ele>
        <time>2021-08-07T11:32:54.858Z</time>
      </trkpt>
      <trkpt lat="46.91591" lon="8.64432">
        <ele>960</ele>
        <time>2021-08-07T11:32:55.858Z</time>
      </trkpt>
      <trkpt lat="46.91592" lon="8.64431">
        <ele>960</ele>
        <time>2021-08-07T11:32:56.857Z</time>
      </trkpt>
      <trkpt lat="46.91592" lon="8.6443">
        <ele>959</ele>
        <time>2021-08-07T11:32:57.857Z</time>
      </trkpt>
      <trkpt lat="46.91592" lon="8.64429">
        <ele>959</ele>
        <time>2021-08-07T11:32:58.857Z</time>
      </trkpt>
      <trkpt lat="46.91592" lon="8.64429">
        <ele>959</ele>
        <time>2021-08-07T11:32:59.858Z</time>
      </trkpt>
      <trkpt lat="46.91593" lon="8.64429">
        <ele>959</ele>
        <time>2021-08-07T11:33:00.857Z</time>
      </trkpt>
      <trkpt lat="46.91594" lon="8.64429">
        <ele>959</ele>
        <time>2021-08-07T11:33:01.857Z</time>
      </trkpt>
      <trkpt lat="46.91595" lon="8.64428">
        <ele>959</ele>
        <time>2021-08-07T11:33:02.858Z</time>
      </trkpt>
      <trkpt lat="46.91597" lon="8.64428">
        <ele>959</ele>
        <time>2021-08-07T11:33:03.857Z</time>
      </trkpt>
      <trkpt lat="46.91598" lon="8.64427">
        <ele>958</ele>
        <time>2021-08-07T11:33:04.858Z</time>
      </trkpt>
      <trkpt lat="46.91598" lon="8.64426">
        <ele>958</ele>
        <time>2021-08-07T11:33:05.858Z</time>
      </trkpt>
      <trkpt lat="46.91599" lon="8.64426">
        <ele>958</ele>
        <time>2021-08-07T11:33:06.858Z</time>
      </trkpt>
      <trkpt lat="46.91599" lon="8.64426">
        <ele>958</ele>
        <time>2021-08-07T11:33:07.858Z</time>
      </trkpt>
      <trkpt lat="46.91598" lon="8.64427">
        <ele>957</ele>
        <time>2021-08-07T11:33:08.857Z</time>
      </trkpt>
      <trkpt lat="46.91598" lon="8.64426">
        <ele>957</ele>
        <time>2021-08-07T11:33:09.857Z</time>
      </trkpt>
      <trkpt lat="46.916" lon="8.64426">
        <ele>956</ele>
        <time>2021-08-07T11:33:10.857Z</time>
      </trkpt>
      <trkpt lat="46.916" lon="8.64426">
        <ele>956</ele>
        <time>2021-08-07T11:33:11.858Z</time>
      </trkpt>
      <trkpt lat="46.91601" lon="8.64427">
        <ele>955</ele>
        <time>2021-08-07T11:33:12.858Z</time>
      </trkpt>
      <trkpt lat="46.91602" lon="8.64428">
        <ele>955</ele>
        <time>2021-08-07T11:33:13.858Z</time>
      </trkpt>
      <trkpt lat="46.91603" lon="8.64428">
        <ele>955</ele>
        <time>2021-08-07T11:33:14.858Z</time>
      </trkpt>
      <trkpt lat="46.91603" lon="8.64428">
        <ele>955</ele>
        <time>2021-08-07T11:33:15.858Z</time>
      </trkpt>
      <trkpt lat="46.91604" lon="8.64427">
        <ele>955</ele>
        <time>2021-08-07T11:33:16.858Z</time>
      </trkpt>
      <trkpt lat="46.91605" lon="8.64426">
        <ele>955</ele>
        <time>2021-08-07T11:33:17.857Z</time>
      </trkpt>
      <trkpt lat="46.91606" lon="8.64426">
        <ele>956</ele>
        <time>2021-08-07T11:33:18.858Z</time>
      </trkpt>
      <trkpt lat="46.91607" lon="8.64425">
        <ele>956</ele>
        <time>2021-08-07T11:33:19.858Z</time>
      </trkpt>
      <trkpt lat="46.91607" lon="8.64425">
        <ele>957</ele>
        <time>2021-08-07T11:33:20.858Z</time>
      </trkpt>
      <trkpt lat="46.91608" lon="8.64425">
        <ele>957</ele>
        <time>2021-08-07T11:33:21.857Z</time>
      </trkpt>
      <trkpt lat="46.91608" lon="8.64425">
        <ele>957</ele>
        <time>2021-08-07T11:33:22.858Z</time>
      </trkpt>
      <trkpt lat="46.91607" lon="8.64424">
        <ele>957</ele>
        <time>2021-08-07T11:33:23.857Z</time>
      </trkpt>
      <trkpt lat="46.91607" lon="8.64424">
        <ele>957</ele>
        <time>2021-08-07T11:33:24.857Z</time>
      </trkpt>
      <trkpt lat="46.91607" lon="8.64423">
        <ele>957</ele>
        <time>2021-08-07T11:33:25.857Z</time>
      </trkpt>
      <trkpt lat="46.91606" lon="8.64423">
        <ele>957</ele>
        <time>2021-08-07T11:33:26.857Z</time>
      </trkpt>
      <trkpt lat="46.91606" lon="8.64422">
        <ele>957</ele>
        <time>2021-08-07T11:33:27.857Z</time>
      </trkpt>
      <trkpt lat="46.91606" lon="8.64422">
        <ele>957</ele>
        <time>2021-08-07T11:33:28.857Z</time>
      </trkpt>
      <trkpt lat="46.91605" lon="8.64421">
        <ele>957</ele>
        <time>2021-08-07T11:33:29.858Z</time>
      </trkpt>
      <trkpt lat="46.91605" lon="8.6442">
        <ele>956</ele>
        <time>2021-08-07T11:33:30.858Z</time>
      </trkpt>
      <trkpt lat="46.91605" lon="8.6442">
        <ele>956</ele>
        <time>2021-08-07T11:33:31.858Z</time>
      </trkpt>
      <trkpt lat="46.91604" lon="8.64419">
        <ele>956</ele>
        <time>2021-08-07T11:33:32.858Z</time>
      </trkpt>
      <trkpt lat="46.91603" lon="8.64418">
        <ele>956</ele>
        <time>2021-08-07T11:33:33.858Z</time>
      </trkpt>
      <trkpt lat="46.91601" lon="8.64417">
        <ele>955</ele>
        <time>2021-08-07T11:33:34.858Z</time>
      </trkpt>
      <trkpt lat="46.916" lon="8.64415">
        <ele>955</ele>
        <time>2021-08-07T11:33:35.857Z</time>
      </trkpt>
      <trkpt lat="46.91598" lon="8.64414">
        <ele>955</ele>
        <time>2021-08-07T11:33:36.857Z</time>
      </trkpt>
      <trkpt lat="46.91598" lon="8.64412">
        <ele>954</ele>
        <time>2021-08-07T11:33:37.857Z</time>
      </trkpt>
      <trkpt lat="46.91597" lon="8.64411">
        <ele>954</ele>
        <time>2021-08-07T11:33:38.857Z</time>
      </trkpt>
      <trkpt lat="46.91597" lon="8.6441">
        <ele>954</ele>
        <time>2021-08-07T11:33:39.857Z</time>
      </trkpt>
      <trkpt lat="46.91597" lon="8.6441">
        <ele>954</ele>
        <time>2021-08-07T11:33:40.858Z</time>
      </trkpt>
      <trkpt lat="46.91596" lon="8.6441">
        <ele>954</ele>
        <time>2021-08-07T11:33:41.857Z</time>
      </trkpt>
      <trkpt lat="46.91596" lon="8.6441">
        <ele>953</ele>
        <time>2021-08-07T11:33:42.857Z</time>
      </trkpt>
      <trkpt lat="46.91596" lon="8.6441">
        <ele>953</ele>
        <time>2021-08-07T11:33:43.857Z</time>
      </trkpt>
      <trkpt lat="46.91596" lon="8.6441">
        <ele>953</ele>
        <time>2021-08-07T11:33:44.858Z</time>
      </trkpt>
      <trkpt lat="46.91597" lon="8.64409">
        <ele>952</ele>
        <time>2021-08-07T11:33:45.858Z</time>
      </trkpt>
      <trkpt lat="46.91598" lon="8.64408">
        <ele>952</ele>
        <time>2021-08-07T11:33:46.858Z</time>
      </trkpt>
      <trkpt lat="46.91598" lon="8.64408">
        <ele>952</ele>
        <time>2021-08-07T11:33:47.858Z</time>
      </trkpt>
      <trkpt lat="46.91599" lon="8.64408">
        <ele>951</ele>
        <time>2021-08-07T11:33:48.857Z</time>
      </trkpt>
      <trkpt lat="46.91599" lon="8.64407">
        <ele>951</ele>
        <time>2021-08-07T11:33:49.857Z</time>
      </trkpt>
      <trkpt lat="46.916" lon="8.64406">
        <ele>951</ele>
        <time>2021-08-07T11:33:50.858Z</time>
      </trkpt>
      <trkpt lat="46.91599" lon="8.64404">
        <ele>951</ele>
        <time>2021-08-07T11:33:51.858Z</time>
      </trkpt>
      <trkpt lat="46.91598" lon="8.64401">
        <ele>951</ele>
        <time>2021-08-07T11:33:52.857Z</time>
      </trkpt>
      <trkpt lat="46.91596" lon="8.64399">
        <ele>951</ele>
        <time>2021-08-07T11:33:53.858Z</time>
      </trkpt>
      <trkpt lat="46.91594" lon="8.64397">
        <ele>951</ele>
        <time>2021-08-07T11:33:54.857Z</time>
      </trkpt>
      <trkpt lat="46.91593" lon="8.64396">
        <ele>951</ele>
        <time>2021-08-07T11:33:55.858Z</time>
      </trkpt>
      <trkpt lat="46.91592" lon="8.64396">
        <ele>951</ele>
        <time>2021-08-07T11:33:56.857Z</time>
      </trkpt>
      <trkpt lat="46.91591" lon="8.64396">
        <ele>952</ele>
        <time>2021-08-07T11:33:57.858Z</time>
      </trkpt>
      <trkpt lat="46.91591" lon="8.64395">
        <ele>952</ele>
        <time>2021-08-07T11:33:58.857Z</time>
      </trkpt>
      <trkpt lat="46.91591" lon="8.64395">
        <ele>952</ele>
        <time>2021-08-07T11:33:59.858Z</time>
      </trkpt>
      <trkpt lat="46.91591" lon="8.64394">
        <ele>952</ele>
        <time>2021-08-07T11:34:00.858Z</time>
      </trkpt>
      <trkpt lat="46.91591" lon="8.64393">
        <ele>952</ele>
        <time>2021-08-07T11:34:01.858Z</time>
      </trkpt>
      <trkpt lat="46.9159" lon="8.64393">
        <ele>951</ele>
        <time>2021-08-07T11:34:02.857Z</time>
      </trkpt>
      <trkpt lat="46.9159" lon="8.64393">
        <ele>951</ele>
        <time>2021-08-07T11:34:03.857Z</time>
      </trkpt>
      <trkpt lat="46.9159" lon="8.64393">
        <ele>951</ele>
        <time>2021-08-07T11:34:04.858Z</time>
      </trkpt>
      <trkpt lat="46.91591" lon="8.64393">
        <ele>951</ele>
        <time>2021-08-07T11:34:05.858Z</time>
      </trkpt>
      <trkpt lat="46.91591" lon="8.64392">
        <ele>950</ele>
        <time>2021-08-07T11:34:06.858Z</time>
      </trkpt>
      <trkpt lat="46.91592" lon="8.6439">
        <ele>950</ele>
        <time>2021-08-07T11:34:07.857Z</time>
      </trkpt>
      <trkpt lat="46.91592" lon="8.64388">
        <ele>950</ele>
        <time>2021-08-07T11:34:08.857Z</time>
      </trkpt>
      <trkpt lat="46.91592" lon="8.64386">
        <ele>950</ele>
        <time>2021-08-07T11:34:09.858Z</time>
      </trkpt>
      <trkpt lat="46.91591" lon="8.64386">
        <ele>949</ele>
        <time>2021-08-07T11:34:10.858Z</time>
      </trkpt>
      <trkpt lat="46.91591" lon="8.64386">
        <ele>949</ele>
        <time>2021-08-07T11:34:11.858Z</time>
      </trkpt>
      <trkpt lat="46.9159" lon="8.64387">
        <ele>948</ele>
        <time>2021-08-07T11:34:12.857Z</time>
      </trkpt>
      <trkpt lat="46.9159" lon="8.64386">
        <ele>947</ele>
        <time>2021-08-07T11:34:13.858Z</time>
      </trkpt>
      <trkpt lat="46.9159" lon="8.64385">
        <ele>946</ele>
        <time>2021-08-07T11:34:14.857Z</time>
      </trkpt>
      <trkpt lat="46.91591" lon="8.64384">
        <ele>946</ele>
        <time>2021-08-07T11:34:15.858Z</time>
      </trkpt>
      <trkpt lat="46.91592" lon="8.64384">
        <ele>945</ele>
        <time>2021-08-07T11:34:16.857Z</time>
      </trkpt>
      <trkpt lat="46.91592" lon="8.64384">
        <ele>945</ele>
        <time>2021-08-07T11:34:17.857Z</time>
      </trkpt>
      <trkpt lat="46.91592" lon="8.64383">
        <ele>944</ele>
        <time>2021-08-07T11:34:18.859Z</time>
      </trkpt>
      <trkpt lat="46.91591" lon="8.64382">
        <ele>943</ele>
        <time>2021-08-07T11:34:19.859Z</time>
      </trkpt>
      <trkpt lat="46.91592" lon="8.64382">
        <ele>943</ele>
        <time>2021-08-07T11:34:20.858Z</time>
      </trkpt>
      <trkpt lat="46.91592" lon="8.64381">
        <ele>943</ele>
        <time>2021-08-07T11:34:21.859Z</time>
      </trkpt>
      <trkpt lat="46.91593" lon="8.6438">
        <ele>943</ele>
        <time>2021-08-07T11:34:22.859Z</time>
      </trkpt>
      <trkpt lat="46.91594" lon="8.6438">
        <ele>942</ele>
        <time>2021-08-07T11:34:23.859Z</time>
      </trkpt>
      <trkpt lat="46.91595" lon="8.64381">
        <ele>942</ele>
        <time>2021-08-07T11:34:24.858Z</time>
      </trkpt>
      <trkpt lat="46.91596" lon="8.64382">
        <ele>941</ele>
        <time>2021-08-07T11:34:25.858Z</time>
      </trkpt>
      <trkpt lat="46.91597" lon="8.64383">
        <ele>941</ele>
        <time>2021-08-07T11:34:26.859Z</time>
      </trkpt>
      <trkpt lat="46.91597" lon="8.64382">
        <ele>940</ele>
        <time>2021-08-07T11:34:27.859Z</time>
      </trkpt>
      <trkpt lat="46.91596" lon="8.64382">
        <ele>939</ele>
        <time>2021-08-07T11:34:28.858Z</time>
      </trkpt>
      <trkpt lat="46.91596" lon="8.64382">
        <ele>938</ele>
        <time>2021-08-07T11:34:29.858Z</time>
      </trkpt>
      <trkpt lat="46.91595" lon="8.64382">
        <ele>938</ele>
        <time>2021-08-07T11:34:30.859Z</time>
      </trkpt>
      <trkpt lat="46.91595" lon="8.64382">
        <ele>937</ele>
        <time>2021-08-07T11:34:31.858Z</time>
      </trkpt>
      <trkpt lat="46.91594" lon="8.64381">
        <ele>937</ele>
        <time>2021-08-07T11:34:32.859Z</time>
      </trkpt>
      <trkpt lat="46.91593" lon="8.6438">
        <ele>936</ele>
        <time>2021-08-07T11:34:33.859Z</time>
      </trkpt>
      <trkpt lat="46.91593" lon="8.64379">
        <ele>936</ele>
        <time>2021-08-07T11:34:34.858Z</time>
      </trkpt>
      <trkpt lat="46.91593" lon="8.64378">
        <ele>935</ele>
        <time>2021-08-07T11:34:35.859Z</time>
      </trkpt>
      <trkpt lat="46.91593" lon="8.64377">
        <ele>935</ele>
        <time>2021-08-07T11:34:36.859Z</time>
      </trkpt>
      <trkpt lat="46.91592" lon="8.64377">
        <ele>934</ele>
        <time>2021-08-07T11:34:37.859Z</time>
      </trkpt>
      <trkpt lat="46.91592" lon="8.64376">
        <ele>933</ele>
        <time>2021-08-07T11:34:38.859Z</time>
      </trkpt>
      <trkpt lat="46.91591" lon="8.64376">
        <ele>933</ele>
        <time>2021-08-07T11:34:39.859Z</time>
      </trkpt>
      <trkpt lat="46.91591" lon="8.64376">
        <ele>932</ele>
        <time>2021-08-07T11:34:40.859Z</time>
      </trkpt>
      <trkpt lat="46.9159" lon="8.64375">
        <ele>932</ele>
        <time>2021-08-07T11:34:41.858Z</time>
      </trkpt>
      <trkpt lat="46.9159" lon="8.64376">
        <ele>932</ele>
        <time>2021-08-07T11:34:42.859Z</time>
      </trkpt>
      <trkpt lat="46.91591" lon="8.64376">
        <ele>932</ele>
        <time>2021-08-07T11:34:43.858Z</time>
      </trkpt>
      <trkpt lat="46.91591" lon="8.64375">
        <ele>932</ele>
        <time>2021-08-07T11:34:44.859Z</time>
      </trkpt>
      <trkpt lat="46.91591" lon="8.64373">
        <ele>931</ele>
        <time>2021-08-07T11:34:45.858Z</time>
      </trkpt>
      <trkpt lat="46.91591" lon="8.64372">
        <ele>931</ele>
        <time>2021-08-07T11:34:46.859Z</time>
      </trkpt>
      <trkpt lat="46.91591" lon="8.64371">
        <ele>931</ele>
        <time>2021-08-07T11:34:47.859Z</time>
      </trkpt>
      <trkpt lat="46.91592" lon="8.64371">
        <ele>931</ele>
        <time>2021-08-07T11:34:48.858Z</time>
      </trkpt>
      <trkpt lat="46.91592" lon="8.64371">
        <ele>931</ele>
        <time>2021-08-07T11:34:49.859Z</time>
      </trkpt>
      <trkpt lat="46.91593" lon="8.64372">
        <ele>931</ele>
        <time>2021-08-07T11:34:50.859Z</time>
      </trkpt>
      <trkpt lat="46.91593" lon="8.64373">
        <ele>931</ele>
        <time>2021-08-07T11:34:51.858Z</time>
      </trkpt>
      <trkpt lat="46.91594" lon="8.64373">
        <ele>930</ele>
        <time>2021-08-07T11:34:52.858Z</time>
      </trkpt>
      <trkpt lat="46.91594" lon="8.64373">
        <ele>930</ele>
        <time>2021-08-07T11:34:53.858Z</time>
      </trkpt>
      <trkpt lat="46.91595" lon="8.64373">
        <ele>930</ele>
        <time>2021-08-07T11:34:54.859Z</time>
      </trkpt>
      <trkpt lat="46.91595" lon="8.64373">
        <ele>930</ele>
        <time>2021-08-07T11:34:55.858Z</time>
      </trkpt>
      <trkpt lat="46.91596" lon="8.64372">
        <ele>930</ele>
        <time>2021-08-07T11:34:56.860Z</time>
      </trkpt>
      <trkpt lat="46.91595" lon="8.64371">
        <ele>930</ele>
        <time>2021-08-07T11:34:57.860Z</time>
      </trkpt>
      <trkpt lat="46.91595" lon="8.64369">
        <ele>929</ele>
        <time>2021-08-07T11:34:58.859Z</time>
      </trkpt>
      <trkpt lat="46.91595" lon="8.64369">
        <ele>929</ele>
        <time>2021-08-07T11:34:59.860Z</time>
      </trkpt>
      <trkpt lat="46.91595" lon="8.64368">
        <ele>929</ele>
        <time>2021-08-07T11:35:00.859Z</time>
      </trkpt>
      <trkpt lat="46.91594" lon="8.64367">
        <ele>929</ele>
        <time>2021-08-07T11:35:01.860Z</time>
      </trkpt>
      <trkpt lat="46.91594" lon="8.64366">
        <ele>928</ele>
        <time>2021-08-07T11:35:02.860Z</time>
      </trkpt>
      <trkpt lat="46.91594" lon="8.64365">
        <ele>928</ele>
        <time>2021-08-07T11:35:03.860Z</time>
      </trkpt>
      <trkpt lat="46.91594" lon="8.64364">
        <ele>928</ele>
        <time>2021-08-07T11:35:04.860Z</time>
      </trkpt>
      <trkpt lat="46.91594" lon="8.64363">
        <ele>928</ele>
        <time>2021-08-07T11:35:05.860Z</time>
      </trkpt>
      <trkpt lat="46.91594" lon="8.64362">
        <ele>927</ele>
        <time>2021-08-07T11:35:06.860Z</time>
      </trkpt>
      <trkpt lat="46.91594" lon="8.64361">
        <ele>927</ele>
        <time>2021-08-07T11:35:07.860Z</time>
      </trkpt>
      <trkpt lat="46.91594" lon="8.6436">
        <ele>927</ele>
        <time>2021-08-07T11:35:08.859Z</time>
      </trkpt>
      <trkpt lat="46.91594" lon="8.64361">
        <ele>926</ele>
        <time>2021-08-07T11:35:09.860Z</time>
      </trkpt>
      <trkpt lat="46.91596" lon="8.64362">
        <ele>926</ele>
        <time>2021-08-07T11:35:10.860Z</time>
      </trkpt>
      <trkpt lat="46.91596" lon="8.64363">
        <ele>925</ele>
        <time>2021-08-07T11:35:11.859Z</time>
      </trkpt>
      <trkpt lat="46.91596" lon="8.64365">
        <ele>925</ele>
        <time>2021-08-07T11:35:12.860Z</time>
      </trkpt>
      <trkpt lat="46.91597" lon="8.64366">
        <ele>924</ele>
        <time>2021-08-07T11:35:13.860Z</time>
      </trkpt>
      <trkpt lat="46.91597" lon="8.64366">
        <ele>923</ele>
        <time>2021-08-07T11:35:14.859Z</time>
      </trkpt>
      <trkpt lat="46.91598" lon="8.64366">
        <ele>923</ele>
        <time>2021-08-07T11:35:15.860Z</time>
      </trkpt>
      <trkpt lat="46.91598" lon="8.64367">
        <ele>922</ele>
        <time>2021-08-07T11:35:16.860Z</time>
      </trkpt>
      <trkpt lat="46.91598" lon="8.64367">
        <ele>922</ele>
        <time>2021-08-07T11:35:17.859Z</time>
      </trkpt>
      <trkpt lat="46.91599" lon="8.64367">
        <ele>921</ele>
        <time>2021-08-07T11:35:18.859Z</time>
      </trkpt>
      <trkpt lat="46.91599" lon="8.64366">
        <ele>921</ele>
        <time>2021-08-07T11:35:19.860Z</time>
      </trkpt>
      <trkpt lat="46.91599" lon="8.64364">
        <ele>921</ele>
        <time>2021-08-07T11:35:20.859Z</time>
      </trkpt>
      <trkpt lat="46.91599" lon="8.64363">
        <ele>921</ele>
        <time>2021-08-07T11:35:21.860Z</time>
      </trkpt>
      <trkpt lat="46.91599" lon="8.64362">
        <ele>921</ele>
        <time>2021-08-07T11:35:22.859Z</time>
      </trkpt>
      <trkpt lat="46.91599" lon="8.64361">
        <ele>921</ele>
        <time>2021-08-07T11:35:23.859Z</time>
      </trkpt>
      <trkpt lat="46.91598" lon="8.6436">
        <ele>920</ele>
        <time>2021-08-07T11:35:24.860Z</time>
      </trkpt>
      <trkpt lat="46.91598" lon="8.6436">
        <ele>920</ele>
        <time>2021-08-07T11:35:25.860Z</time>
      </trkpt>
      <trkpt lat="46.91597" lon="8.6436">
        <ele>919</ele>
        <time>2021-08-07T11:35:26.859Z</time>
      </trkpt>
      <trkpt lat="46.91597" lon="8.64359">
        <ele>919</ele>
        <time>2021-08-07T11:35:27.859Z</time>
      </trkpt>
      <trkpt lat="46.91596" lon="8.64359">
        <ele>918</ele>
        <time>2021-08-07T11:35:28.859Z</time>
      </trkpt>
      <trkpt lat="46.91596" lon="8.64359">
        <ele>918</ele>
        <time>2021-08-07T11:35:29.859Z</time>
      </trkpt>
      <trkpt lat="46.91596" lon="8.64358">
        <ele>917</ele>
        <time>2021-08-07T11:35:30.860Z</time>
      </trkpt>
      <trkpt lat="46.91597" lon="8.64356">
        <ele>916</ele>
        <time>2021-08-07T11:35:31.861Z</time>
      </trkpt>
      <trkpt lat="46.91596" lon="8.64356">
        <ele>916</ele>
        <time>2021-08-07T11:35:32.861Z</time>
      </trkpt>
      <trkpt lat="46.91596" lon="8.64355">
        <ele>916</ele>
        <time>2021-08-07T11:35:33.860Z</time>
      </trkpt>
      <trkpt lat="46.91595" lon="8.64353">
        <ele>916</ele>
        <time>2021-08-07T11:35:34.860Z</time>
      </trkpt>
      <trkpt lat="46.91594" lon="8.64351">
        <ele>915</ele>
        <time>2021-08-07T11:35:35.861Z</time>
      </trkpt>
      <trkpt lat="46.91592" lon="8.64349">
        <ele>915</ele>
        <time>2021-08-07T11:35:36.860Z</time>
      </trkpt>
      <trkpt lat="46.91591" lon="8.64349">
        <ele>914</ele>
        <time>2021-08-07T11:35:37.860Z</time>
      </trkpt>
      <trkpt lat="46.91591" lon="8.64349">
        <ele>914</ele>
        <time>2021-08-07T11:35:38.861Z</time>
      </trkpt>
      <trkpt lat="46.9159" lon="8.64349">
        <ele>913</ele>
        <time>2021-08-07T11:35:39.861Z</time>
      </trkpt>
      <trkpt lat="46.91589" lon="8.64349">
        <ele>913</ele>
        <time>2021-08-07T11:35:40.861Z</time>
      </trkpt>
      <trkpt lat="46.91588" lon="8.64349">
        <ele>913</ele>
        <time>2021-08-07T11:35:41.861Z</time>
      </trkpt>
      <trkpt lat="46.91587" lon="8.64348">
        <ele>913</ele>
        <time>2021-08-07T11:35:42.860Z</time>
      </trkpt>
      <trkpt lat="46.91587" lon="8.64347">
        <ele>913</ele>
        <time>2021-08-07T11:35:43.860Z</time>
      </trkpt>
      <trkpt lat="46.91587" lon="8.64346">
        <ele>913</ele>
        <time>2021-08-07T11:35:44.860Z</time>
      </trkpt>
      <trkpt lat="46.91586" lon="8.64345">
        <ele>913</ele>
        <time>2021-08-07T11:35:45.861Z</time>
      </trkpt>
      <trkpt lat="46.91585" lon="8.64344">
        <ele>913</ele>
        <time>2021-08-07T11:35:46.860Z</time>
      </trkpt>
      <trkpt lat="46.91585" lon="8.64344">
        <ele>913</ele>
        <time>2021-08-07T11:35:47.860Z</time>
      </trkpt>
      <trkpt lat="46.91584" lon="8.64343">
        <ele>913</ele>
        <time>2021-08-07T11:35:48.860Z</time>
      </trkpt>
      <trkpt lat="46.91584" lon="8.64342">
        <ele>913</ele>
        <time>2021-08-07T11:36:03.956Z</time>
      </trkpt>
      <trkpt lat="46.91583" lon="8.6434">
        <ele>913</ele>
        <time>2021-08-07T11:36:04.956Z</time>
      </trkpt>
      <trkpt lat="46.91583" lon="8.64339">
        <ele>912</ele>
        <time>2021-08-07T11:36:18.713Z</time>
      </trkpt>
      <trkpt lat="46.91582" lon="8.64338">
        <ele>912</ele>
        <time>2021-08-07T11:36:19.713Z</time>
      </trkpt>
      <trkpt lat="46.91583" lon="8.64339">
        <ele>912</ele>
        <time>2021-08-07T11:36:20.713Z</time>
      </trkpt>
      <trkpt lat="46.91583" lon="8.64341">
        <ele>911</ele>
        <time>2021-08-07T11:36:21.713Z</time>
      </trkpt>
      <trkpt lat="46.91583" lon="8.64342">
        <ele>911</ele>
        <time>2021-08-07T11:36:24.816Z</time>
      </trkpt>
      <trkpt lat="46.91583" lon="8.64343">
        <ele>910</ele>
        <time>2021-08-07T11:36:25.816Z</time>
      </trkpt>
      <trkpt lat="46.91584" lon="8.64344">
        <ele>910</ele>
        <time>2021-08-07T11:36:26.817Z</time>
      </trkpt>
      <trkpt lat="46.91583" lon="8.64343">
        <ele>909</ele>
        <time>2021-08-07T11:36:35.731Z</time>
      </trkpt>
      <trkpt lat="46.91582" lon="8.64342">
        <ele>909</ele>
        <time>2021-08-07T11:36:36.731Z</time>
      </trkpt>
      <trkpt lat="46.91581" lon="8.64343">
        <ele>909</ele>
        <time>2021-08-07T11:36:37.731Z</time>
      </trkpt>
      <trkpt lat="46.9158" lon="8.64343">
        <ele>909</ele>
        <time>2021-08-07T11:36:38.732Z</time>
      </trkpt>
      <trkpt lat="46.91579" lon="8.64342">
        <ele>908</ele>
        <time>2021-08-07T11:36:39.731Z</time>
      </trkpt>
      <trkpt lat="46.91578" lon="8.64342">
        <ele>908</ele>
        <time>2021-08-07T11:36:43.838Z</time>
      </trkpt>
      <trkpt lat="46.91577" lon="8.64341">
        <ele>908</ele>
        <time>2021-08-07T11:36:44.838Z</time>
      </trkpt>
      <trkpt lat="46.91576" lon="8.64342">
        <ele>907</ele>
        <time>2021-08-07T11:36:45.838Z</time>
      </trkpt>
      <trkpt lat="46.91575" lon="8.64343">
        <ele>907</ele>
        <time>2021-08-07T11:36:48.966Z</time>
      </trkpt>
      <trkpt lat="46.91574" lon="8.64344">
        <ele>906</ele>
        <time>2021-08-07T11:36:49.966Z</time>
      </trkpt>
      <trkpt lat="46.91574" lon="8.64344">
        <ele>906</ele>
        <time>2021-08-07T11:36:50.966Z</time>
      </trkpt>
      <trkpt lat="46.91574" lon="8.64344">
        <ele>906</ele>
        <time>2021-08-07T11:36:51.965Z</time>
      </trkpt>
      <trkpt lat="46.91575" lon="8.64344">
        <ele>906</ele>
        <time>2021-08-07T11:36:52.966Z</time>
      </trkpt>
      <trkpt lat="46.91575" lon="8.64343">
        <ele>905</ele>
        <time>2021-08-07T11:36:53.966Z</time>
      </trkpt>
      <trkpt lat="46.91574" lon="8.64342">
        <ele>905</ele>
        <time>2021-08-07T11:36:54.965Z</time>
      </trkpt>
      <trkpt lat="46.91574" lon="8.64341">
        <ele>905</ele>
        <time>2021-08-07T11:36:55.966Z</time>
      </trkpt>
      <trkpt lat="46.91574" lon="8.64339">
        <ele>905</ele>
        <time>2021-08-07T11:36:56.966Z</time>
      </trkpt>
      <trkpt lat="46.91575" lon="8.6434">
        <ele>904</ele>
        <time>2021-08-07T11:36:57.966Z</time>
      </trkpt>
      <trkpt lat="46.91574" lon="8.64339">
        <ele>904</ele>
        <time>2021-08-07T11:36:58.966Z</time>
      </trkpt>
      <trkpt lat="46.91573" lon="8.64338">
        <ele>904</ele>
        <time>2021-08-07T11:36:59.966Z</time>
      </trkpt>
      <trkpt lat="46.91573" lon="8.64337">
        <ele>903</ele>
        <time>2021-08-07T11:37:00.966Z</time>
      </trkpt>
      <trkpt lat="46.91573" lon="8.64336">
        <ele>903</ele>
        <time>2021-08-07T11:37:01.966Z</time>
      </trkpt>
      <trkpt lat="46.91574" lon="8.64335">
        <ele>903</ele>
        <time>2021-08-07T11:37:02.966Z</time>
      </trkpt>
      <trkpt lat="46.91574" lon="8.64333">
        <ele>902</ele>
        <time>2021-08-07T11:37:03.965Z</time>
      </trkpt>
      <trkpt lat="46.91573" lon="8.64331">
        <ele>902</ele>
        <time>2021-08-07T11:37:04.965Z</time>
      </trkpt>
      <trkpt lat="46.91574" lon="8.6433">
        <ele>902</ele>
        <time>2021-08-07T11:37:09.069Z</time>
      </trkpt>
      <trkpt lat="46.91575" lon="8.6433">
        <ele>901</ele>
        <time>2021-08-07T11:37:10.815Z</time>
      </trkpt>
      <trkpt lat="46.91576" lon="8.6433">
        <ele>901</ele>
        <time>2021-08-07T11:37:11.814Z</time>
      </trkpt>
      <trkpt lat="46.91576" lon="8.64331">
        <ele>901</ele>
        <time>2021-08-07T11:37:12.814Z</time>
      </trkpt>
      <trkpt lat="46.91577" lon="8.64331">
        <ele>901</ele>
        <time>2021-08-07T11:37:13.814Z</time>
      </trkpt>
      <trkpt lat="46.91577" lon="8.64331">
        <ele>901</ele>
        <time>2021-08-07T11:37:14.814Z</time>
      </trkpt>
      <trkpt lat="46.91578" lon="8.64329">
        <ele>900</ele>
        <time>2021-08-07T11:37:15.814Z</time>
      </trkpt>
      <trkpt lat="46.9158" lon="8.64328">
        <ele>900</ele>
        <time>2021-08-07T11:37:16.814Z</time>
      </trkpt>
      <trkpt lat="46.9158" lon="8.64327">
        <ele>900</ele>
        <time>2021-08-07T11:37:17.814Z</time>
      </trkpt>
      <trkpt lat="46.91581" lon="8.64326">
        <ele>900</ele>
        <time>2021-08-07T11:37:18.815Z</time>
      </trkpt>
      <trkpt lat="46.91581" lon="8.64325">
        <ele>900</ele>
        <time>2021-08-07T11:37:19.815Z</time>
      </trkpt>
      <trkpt lat="46.9158" lon="8.64326">
        <ele>900</ele>
        <time>2021-08-07T11:37:20.814Z</time>
      </trkpt>
      <trkpt lat="46.9158" lon="8.64326">
        <ele>900</ele>
        <time>2021-08-07T11:37:21.815Z</time>
      </trkpt>
      <trkpt lat="46.91579" lon="8.64326">
        <ele>900</ele>
        <time>2021-08-07T11:37:22.815Z</time>
      </trkpt>
      <trkpt lat="46.9158" lon="8.64325">
        <ele>900</ele>
        <time>2021-08-07T11:37:23.815Z</time>
      </trkpt>
      <trkpt lat="46.91581" lon="8.64325">
        <ele>901</ele>
        <time>2021-08-07T11:37:24.814Z</time>
      </trkpt>
      <trkpt lat="46.91581" lon="8.64323">
        <ele>901</ele>
        <time>2021-08-07T11:37:25.815Z</time>
      </trkpt>
      <trkpt lat="46.91581" lon="8.64321">
        <ele>901</ele>
        <time>2021-08-07T11:37:26.815Z</time>
      </trkpt>
      <trkpt lat="46.91581" lon="8.6432">
        <ele>901</ele>
        <time>2021-08-07T11:37:27.815Z</time>
      </trkpt>
      <trkpt lat="46.91582" lon="8.64319">
        <ele>901</ele>
        <time>2021-08-07T11:37:28.814Z</time>
      </trkpt>
      <trkpt lat="46.91583" lon="8.64318">
        <ele>901</ele>
        <time>2021-08-07T11:37:29.815Z</time>
      </trkpt>
      <trkpt lat="46.91584" lon="8.64315">
        <ele>902</ele>
        <time>2021-08-07T11:37:30.815Z</time>
      </trkpt>
      <trkpt lat="46.91585" lon="8.64314">
        <ele>902</ele>
        <time>2021-08-07T11:37:31.815Z</time>
      </trkpt>
      <trkpt lat="46.91585" lon="8.64313">
        <ele>902</ele>
        <time>2021-08-07T11:37:32.814Z</time>
      </trkpt>
      <trkpt lat="46.91585" lon="8.64312">
        <ele>902</ele>
        <time>2021-08-07T11:37:33.814Z</time>
      </trkpt>
      <trkpt lat="46.91585" lon="8.64311">
        <ele>902</ele>
        <time>2021-08-07T11:37:34.815Z</time>
      </trkpt>
      <trkpt lat="46.91585" lon="8.64309">
        <ele>902</ele>
        <time>2021-08-07T11:37:35.814Z</time>
      </trkpt>
      <trkpt lat="46.91585" lon="8.64307">
        <ele>902</ele>
        <time>2021-08-07T11:37:36.814Z</time>
      </trkpt>
      <trkpt lat="46.91585" lon="8.64305">
        <ele>902</ele>
        <time>2021-08-07T11:37:37.814Z</time>
      </trkpt>
      <trkpt lat="46.91585" lon="8.64304">
        <ele>903</ele>
        <time>2021-08-07T11:37:38.815Z</time>
      </trkpt>
      <trkpt lat="46.91585" lon="8.64304">
        <ele>903</ele>
        <time>2021-08-07T11:37:39.815Z</time>
      </trkpt>
      <trkpt lat="46.91586" lon="8.64306">
        <ele>903</ele>
        <time>2021-08-07T11:37:40.814Z</time>
      </trkpt>
      <trkpt lat="46.91587" lon="8.64307">
        <ele>903</ele>
        <time>2021-08-07T11:37:41.815Z</time>
      </trkpt>
      <trkpt lat="46.91588" lon="8.64308">
        <ele>903</ele>
        <time>2021-08-07T11:37:42.815Z</time>
      </trkpt>
      <trkpt lat="46.91589" lon="8.64311">
        <ele>903</ele>
        <time>2021-08-07T11:37:43.815Z</time>
      </trkpt>
      <trkpt lat="46.9159" lon="8.64312">
        <ele>903</ele>
        <time>2021-08-07T11:37:44.815Z</time>
      </trkpt>
      <trkpt lat="46.91589" lon="8.6431">
        <ele>903</ele>
        <time>2021-08-07T11:37:45.815Z</time>
      </trkpt>
      <trkpt lat="46.91588" lon="8.64309">
        <ele>903</ele>
        <time>2021-08-07T11:37:46.815Z</time>
      </trkpt>
      <trkpt lat="46.91589" lon="8.64308">
        <ele>903</ele>
        <time>2021-08-07T11:37:47.815Z</time>
      </trkpt>
      <trkpt lat="46.91589" lon="8.64307">
        <ele>903</ele>
        <time>2021-08-07T11:37:48.814Z</time>
      </trkpt>
      <trkpt lat="46.9159" lon="8.64306">
        <ele>903</ele>
        <time>2021-08-07T11:37:49.814Z</time>
      </trkpt>
      <trkpt lat="46.91592" lon="8.64297">
        <ele>903</ele>
        <time>2021-08-07T11:37:53.814Z</time>
      </trkpt>
      <trkpt lat="46.91591" lon="8.64295">
        <ele>903</ele>
        <time>2021-08-07T11:37:54.814Z</time>
      </trkpt>
      <trkpt lat="46.91591" lon="8.64293">
        <ele>902</ele>
        <time>2021-08-07T11:37:55.815Z</time>
      </trkpt>
      <trkpt lat="46.91591" lon="8.64291">
        <ele>902</ele>
        <time>2021-08-07T11:37:56.815Z</time>
      </trkpt>
      <trkpt lat="46.91592" lon="8.6429">
        <ele>902</ele>
        <time>2021-08-07T11:37:57.814Z</time>
      </trkpt>
      <trkpt lat="46.91592" lon="8.64289">
        <ele>901</ele>
        <time>2021-08-07T11:37:58.814Z</time>
      </trkpt>
      <trkpt lat="46.91593" lon="8.64288">
        <ele>901</ele>
        <time>2021-08-07T11:37:59.815Z</time>
      </trkpt>
      <trkpt lat="46.91593" lon="8.64288">
        <ele>901</ele>
        <time>2021-08-07T11:38:00.815Z</time>
      </trkpt>
      <trkpt lat="46.91594" lon="8.64289">
        <ele>900</ele>
        <time>2021-08-07T11:38:01.815Z</time>
      </trkpt>
      <trkpt lat="46.91594" lon="8.6429">
        <ele>900</ele>
        <time>2021-08-07T11:38:02.814Z</time>
      </trkpt>
      <trkpt lat="46.91593" lon="8.64289">
        <ele>899</ele>
        <time>2021-08-07T11:38:03.814Z</time>
      </trkpt>
      <trkpt lat="46.91592" lon="8.6429">
        <ele>899</ele>
        <time>2021-08-07T11:38:04.814Z</time>
      </trkpt>
      <trkpt lat="46.91593" lon="8.6429">
        <ele>899</ele>
        <time>2021-08-07T11:38:05.815Z</time>
      </trkpt>
      <trkpt lat="46.91593" lon="8.6429">
        <ele>898</ele>
        <time>2021-08-07T11:38:06.815Z</time>
      </trkpt>
      <trkpt lat="46.91594" lon="8.64286">
        <ele>898</ele>
        <time>2021-08-07T11:38:07.814Z</time>
      </trkpt>
      <trkpt lat="46.91595" lon="8.64282">
        <ele>898</ele>
        <time>2021-08-07T11:38:08.814Z</time>
      </trkpt>
      <trkpt lat="46.91598" lon="8.64281">
        <ele>897</ele>
        <time>2021-08-07T11:38:09.815Z</time>
      </trkpt>
      <trkpt lat="46.91601" lon="8.64283">
        <ele>897</ele>
        <time>2021-08-07T11:38:10.814Z</time>
      </trkpt>
      <trkpt lat="46.91603" lon="8.64284">
        <ele>897</ele>
        <time>2021-08-07T11:38:11.814Z</time>
      </trkpt>
      <trkpt lat="46.91604" lon="8.64283">
        <ele>896</ele>
        <time>2021-08-07T11:38:12.814Z</time>
      </trkpt>
      <trkpt lat="46.91604" lon="8.64282">
        <ele>896</ele>
        <time>2021-08-07T11:38:13.814Z</time>
      </trkpt>
      <trkpt lat="46.91603" lon="8.64278">
        <ele>896</ele>
        <time>2021-08-07T11:38:14.814Z</time>
      </trkpt>
      <trkpt lat="46.91602" lon="8.64276">
        <ele>895</ele>
        <time>2021-08-07T11:38:15.814Z</time>
      </trkpt>
      <trkpt lat="46.91603" lon="8.64278">
        <ele>895</ele>
        <time>2021-08-07T11:38:16.815Z</time>
      </trkpt>
      <trkpt lat="46.91604" lon="8.6428">
        <ele>895</ele>
        <time>2021-08-07T11:38:17.814Z</time>
      </trkpt>
      <trkpt lat="46.91603" lon="8.64281">
        <ele>894</ele>
        <time>2021-08-07T11:38:18.814Z</time>
      </trkpt>
      <trkpt lat="46.91603" lon="8.64279">
        <ele>894</ele>
        <time>2021-08-07T11:38:20.915Z</time>
      </trkpt>
      <trkpt lat="46.91604" lon="8.64279">
        <ele>893</ele>
        <time>2021-08-07T11:38:21.916Z</time>
      </trkpt>
      <trkpt lat="46.91604" lon="8.64279">
        <ele>893</ele>
        <time>2021-08-07T11:38:22.915Z</time>
      </trkpt>
      <trkpt lat="46.91604" lon="8.64279">
        <ele>892</ele>
        <time>2021-08-07T11:38:29.947Z</time>
      </trkpt>
      <trkpt lat="46.91606" lon="8.64278">
        <ele>892</ele>
        <time>2021-08-07T11:38:30.947Z</time>
      </trkpt>
      <trkpt lat="46.91608" lon="8.64277">
        <ele>891</ele>
        <time>2021-08-07T11:38:31.947Z</time>
      </trkpt>
      <trkpt lat="46.91609" lon="8.64275">
        <ele>891</ele>
        <time>2021-08-07T11:38:32.947Z</time>
      </trkpt>
      <trkpt lat="46.91609" lon="8.64275">
        <ele>890</ele>
        <time>2021-08-07T11:38:33.947Z</time>
      </trkpt>
      <trkpt lat="46.91609" lon="8.64274">
        <ele>889</ele>
        <time>2021-08-07T11:38:34.947Z</time>
      </trkpt>
      <trkpt lat="46.91608" lon="8.64274">
        <ele>889</ele>
        <time>2021-08-07T11:38:35.947Z</time>
      </trkpt>
      <trkpt lat="46.91607" lon="8.64273">
        <ele>888</ele>
        <time>2021-08-07T11:38:36.947Z</time>
      </trkpt>
      <trkpt lat="46.91607" lon="8.64271">
        <ele>888</ele>
        <time>2021-08-07T11:38:42.070Z</time>
      </trkpt>
      <trkpt lat="46.91606" lon="8.6427">
        <ele>888</ele>
        <time>2021-08-07T11:38:43.070Z</time>
      </trkpt>
      <trkpt lat="46.91605" lon="8.64269">
        <ele>887</ele>
        <time>2021-08-07T11:38:44.070Z</time>
      </trkpt>
      <trkpt lat="46.91604" lon="8.64269">
        <ele>887</ele>
        <time>2021-08-07T11:39:00.075Z</time>
      </trkpt>
      <trkpt lat="46.91604" lon="8.64269">
        <ele>886</ele>
        <time>2021-08-07T11:39:01.075Z</time>
      </trkpt>
      <trkpt lat="46.91603" lon="8.64269">
        <ele>886</ele>
        <time>2021-08-07T11:39:02.076Z</time>
      </trkpt>
      <trkpt lat="46.91602" lon="8.6427">
        <ele>885</ele>
        <time>2021-08-07T11:39:03.075Z</time>
      </trkpt>
      <trkpt lat="46.91601" lon="8.64269">
        <ele>885</ele>
        <time>2021-08-07T11:39:09.186Z</time>
      </trkpt>
      <trkpt lat="46.91601" lon="8.64269">
        <ele>885</ele>
        <time>2021-08-07T11:39:10.187Z</time>
      </trkpt>
      <trkpt lat="46.91601" lon="8.64269">
        <ele>884</ele>
        <time>2021-08-07T11:39:18.100Z</time>
      </trkpt>
      <trkpt lat="46.91601" lon="8.64269">
        <ele>884</ele>
        <time>2021-08-07T11:39:41.952Z</time>
      </trkpt>
      <trkpt lat="46.91601" lon="8.64268">
        <ele>884</ele>
        <time>2021-08-07T11:39:54.827Z</time>
      </trkpt>
      <trkpt lat="46.91601" lon="8.64267">
        <ele>883</ele>
        <time>2021-08-07T11:39:55.828Z</time>
      </trkpt>
      <trkpt lat="46.91601" lon="8.64268">
        <ele>883</ele>
        <time>2021-08-07T11:39:56.828Z</time>
      </trkpt>
      <trkpt lat="46.91602" lon="8.64268">
        <ele>883</ele>
        <time>2021-08-07T11:40:03.967Z</time>
      </trkpt>
      <trkpt lat="46.91603" lon="8.64268">
        <ele>882</ele>
        <time>2021-08-07T11:40:04.967Z</time>
      </trkpt>
      <trkpt lat="46.91603" lon="8.64268">
        <ele>882</ele>
        <time>2021-08-07T11:40:05.967Z</time>
      </trkpt>
      <trkpt lat="46.91602" lon="8.64268">
        <ele>882</ele>
        <time>2021-08-07T11:40:06.967Z</time>
      </trkpt>
      <trkpt lat="46.91603" lon="8.64269">
        <ele>882</ele>
        <time>2021-08-07T11:40:07.966Z</time>
      </trkpt>
      <trkpt lat="46.91604" lon="8.64268">
        <ele>881</ele>
        <time>2021-08-07T11:40:08.966Z</time>
      </trkpt>
      <trkpt lat="46.91603" lon="8.64266">
        <ele>881</ele>
        <time>2021-08-07T11:40:09.967Z</time>
      </trkpt>
      <trkpt lat="46.91603" lon="8.64266">
        <ele>881</ele>
        <time>2021-08-07T11:40:10.966Z</time>
      </trkpt>
      <trkpt lat="46.91602" lon="8.64267">
        <ele>881</ele>
        <time>2021-08-07T11:40:11.967Z</time>
      </trkpt>
      <trkpt lat="46.91601" lon="8.64268">
        <ele>881</ele>
        <time>2021-08-07T11:40:12.967Z</time>
      </trkpt>
      <trkpt lat="46.91601" lon="8.64268">
        <ele>880</ele>
        <time>2021-08-07T11:40:13.967Z</time>
      </trkpt>
      <trkpt lat="46.91601" lon="8.64268">
        <ele>880</ele>
        <time>2021-08-07T11:40:14.967Z</time>
      </trkpt>
      <trkpt lat="46.91602" lon="8.64267">
        <ele>880</ele>
        <time>2021-08-07T11:40:15.967Z</time>
      </trkpt>
      <trkpt lat="46.91603" lon="8.64266">
        <ele>879</ele>
        <time>2021-08-07T11:40:16.967Z</time>
      </trkpt>
      <trkpt lat="46.91603" lon="8.64265">
        <ele>879</ele>
        <time>2021-08-07T11:40:28.077Z</time>
      </trkpt>
      <trkpt lat="46.91603" lon="8.64265">
        <ele>879</ele>
        <time>2021-08-07T11:40:29.078Z</time>
      </trkpt>
      <trkpt lat="46.91602" lon="8.64266">
        <ele>879</ele>
        <time>2021-08-07T11:40:30.078Z</time>
      </trkpt>
      <trkpt lat="46.916" lon="8.64266">
        <ele>878</ele>
        <time>2021-08-07T11:40:31.078Z</time>
      </trkpt>
      <trkpt lat="46.916" lon="8.64267">
        <ele>878</ele>
        <time>2021-08-07T11:40:32.078Z</time>
      </trkpt>
      <trkpt lat="46.91598" lon="8.64265">
        <ele>878</ele>
        <time>2021-08-07T11:40:33.078Z</time>
      </trkpt>
      <trkpt lat="46.91596" lon="8.64263">
        <ele>878</ele>
        <time>2021-08-07T11:40:34.078Z</time>
      </trkpt>
      <trkpt lat="46.91595" lon="8.64262">
        <ele>878</ele>
        <time>2021-08-07T11:40:35.077Z</time>
      </trkpt>
      <trkpt lat="46.91594" lon="8.64261">
        <ele>878</ele>
        <time>2021-08-07T11:40:38.198Z</time>
      </trkpt>
      <trkpt lat="46.91593" lon="8.6426">
        <ele>877</ele>
        <time>2021-08-07T11:40:57.092Z</time>
      </trkpt>
      <trkpt lat="46.91592" lon="8.64259">
        <ele>877</ele>
        <time>2021-08-07T11:40:58.092Z</time>
      </trkpt>
      <trkpt lat="46.91591" lon="8.64258">
        <ele>877</ele>
        <time>2021-08-07T11:40:59.092Z</time>
      </trkpt>
      <trkpt lat="46.91591" lon="8.64258">
        <ele>877</ele>
        <time>2021-08-07T11:41:00.091Z</time>
      </trkpt>
      <trkpt lat="46.91592" lon="8.64257">
        <ele>877</ele>
        <time>2021-08-07T11:41:01.092Z</time>
      </trkpt>
      <trkpt lat="46.91592" lon="8.64257">
        <ele>877</ele>
        <time>2021-08-07T11:41:02.092Z</time>
      </trkpt>
      <trkpt lat="46.91594" lon="8.64258">
        <ele>877</ele>
        <time>2021-08-07T11:41:03.092Z</time>
      </trkpt>
      <trkpt lat="46.91595" lon="8.64258">
        <ele>877</ele>
        <time>2021-08-07T11:41:04.091Z</time>
      </trkpt>
      <trkpt lat="46.91596" lon="8.64258">
        <ele>876</ele>
        <time>2021-08-07T11:41:05.092Z</time>
      </trkpt>
      <trkpt lat="46.91595" lon="8.64259">
        <ele>876</ele>
        <time>2021-08-07T11:41:06.091Z</time>
      </trkpt>
      <trkpt lat="46.91594" lon="8.64259">
        <ele>876</ele>
        <time>2021-08-07T11:41:07.092Z</time>
      </trkpt>
      <trkpt lat="46.91595" lon="8.64259">
        <ele>876</ele>
        <time>2021-08-07T11:41:08.091Z</time>
      </trkpt>
      <trkpt lat="46.91594" lon="8.6426">
        <ele>876</ele>
        <time>2021-08-07T11:41:09.091Z</time>
      </trkpt>
      <trkpt lat="46.91593" lon="8.6426">
        <ele>875</ele>
        <time>2021-08-07T11:41:10.092Z</time>
      </trkpt>
      <trkpt lat="46.91592" lon="8.64261">
        <ele>875</ele>
        <time>2021-08-07T11:41:11.092Z</time>
      </trkpt>
      <trkpt lat="46.91591" lon="8.64264">
        <ele>875</ele>
        <time>2021-08-07T11:41:12.092Z</time>
      </trkpt>
      <trkpt lat="46.91589" lon="8.64265">
        <ele>874</ele>
        <time>2021-08-07T11:41:13.092Z</time>
      </trkpt>
      <trkpt lat="46.91588" lon="8.64265">
        <ele>874</ele>
        <time>2021-08-07T11:41:14.092Z</time>
      </trkpt>
      <trkpt lat="46.91587" lon="8.64264">
        <ele>874</ele>
        <time>2021-08-07T11:41:15.092Z</time>
      </trkpt>
      <trkpt lat="46.91586" lon="8.64263">
        <ele>874</ele>
        <time>2021-08-07T11:41:16.092Z</time>
      </trkpt>
      <trkpt lat="46.91587" lon="8.64263">
        <ele>874</ele>
        <time>2021-08-07T11:41:17.092Z</time>
      </trkpt>
      <trkpt lat="46.91587" lon="8.64262">
        <ele>874</ele>
        <time>2021-08-07T11:41:18.092Z</time>
      </trkpt>
      <trkpt lat="46.91587" lon="8.64261">
        <ele>874</ele>
        <time>2021-08-07T11:41:19.092Z</time>
      </trkpt>
      <trkpt lat="46.91588" lon="8.64259">
        <ele>875</ele>
        <time>2021-08-07T11:41:20.092Z</time>
      </trkpt>
      <trkpt lat="46.91588" lon="8.64256">
        <ele>875</ele>
        <time>2021-08-07T11:41:21.092Z</time>
      </trkpt>
      <trkpt lat="46.91587" lon="8.64255">
        <ele>875</ele>
        <time>2021-08-07T11:41:22.092Z</time>
      </trkpt>
      <trkpt lat="46.91585" lon="8.64255">
        <ele>875</ele>
        <time>2021-08-07T11:41:23.092Z</time>
      </trkpt>
      <trkpt lat="46.91585" lon="8.64257">
        <ele>875</ele>
        <time>2021-08-07T11:41:24.092Z</time>
      </trkpt>
      <trkpt lat="46.91586" lon="8.64259">
        <ele>875</ele>
        <time>2021-08-07T11:41:25.092Z</time>
      </trkpt>
      <trkpt lat="46.91587" lon="8.64258">
        <ele>875</ele>
        <time>2021-08-07T11:41:26.092Z</time>
      </trkpt>
      <trkpt lat="46.91589" lon="8.64256">
        <ele>875</ele>
        <time>2021-08-07T11:41:27.092Z</time>
      </trkpt>
      <trkpt lat="46.91592" lon="8.64255">
        <ele>875</ele>
        <time>2021-08-07T11:41:28.092Z</time>
      </trkpt>
      <trkpt lat="46.91596" lon="8.64255">
        <ele>875</ele>
        <time>2021-08-07T11:41:29.091Z</time>
      </trkpt>
      <trkpt lat="46.916" lon="8.64255">
        <ele>875</ele>
        <time>2021-08-07T11:41:30.091Z</time>
      </trkpt>
      <trkpt lat="46.91604" lon="8.64256">
        <ele>875</ele>
        <time>2021-08-07T11:41:31.092Z</time>
      </trkpt>
      <trkpt lat="46.91607" lon="8.64256">
        <ele>874</ele>
        <time>2021-08-07T11:41:32.091Z</time>
      </trkpt>
      <trkpt lat="46.9161" lon="8.64257">
        <ele>874</ele>
        <time>2021-08-07T11:41:33.091Z</time>
      </trkpt>
      <trkpt lat="46.91612" lon="8.64258">
        <ele>874</ele>
        <time>2021-08-07T11:41:34.092Z</time>
      </trkpt>
      <trkpt lat="46.91613" lon="8.64258">
        <ele>874</ele>
        <time>2021-08-07T11:41:35.092Z</time>
      </trkpt>
      <trkpt lat="46.91614" lon="8.64258">
        <ele>874</ele>
        <time>2021-08-07T11:41:36.092Z</time>
      </trkpt>
      <trkpt lat="46.91615" lon="8.64258">
        <ele>874</ele>
        <time>2021-08-07T11:41:37.091Z</time>
      </trkpt>
      <trkpt lat="46.91614" lon="8.64258">
        <ele>874</ele>
        <time>2021-08-07T11:41:38.092Z</time>
      </trkpt>
      <trkpt lat="46.91612" lon="8.64257">
        <ele>874</ele>
        <time>2021-08-07T11:41:39.091Z</time>
      </trkpt>
      <trkpt lat="46.91611" lon="8.64257">
        <ele>874</ele>
        <time>2021-08-07T11:41:40.092Z</time>
      </trkpt>
      <trkpt lat="46.91609" lon="8.64257">
        <ele>874</ele>
        <time>2021-08-07T11:41:41.092Z</time>
      </trkpt>
      <trkpt lat="46.91608" lon="8.64257">
        <ele>874</ele>
        <time>2021-08-07T11:41:42.092Z</time>
      </trkpt>
      <trkpt lat="46.91606" lon="8.64258">
        <ele>874</ele>
        <time>2021-08-07T11:41:43.092Z</time>
      </trkpt>
      <trkpt lat="46.91605" lon="8.64259">
        <ele>874</ele>
        <time>2021-08-07T11:41:44.092Z</time>
      </trkpt>
      <trkpt lat="46.91604" lon="8.6426">
        <ele>873</ele>
        <time>2021-08-07T11:41:45.092Z</time>
      </trkpt>
      <trkpt lat="46.91603" lon="8.6426">
        <ele>873</ele>
        <time>2021-08-07T11:41:46.092Z</time>
      </trkpt>
      <trkpt lat="46.91601" lon="8.6426">
        <ele>873</ele>
        <time>2021-08-07T11:41:47.091Z</time>
      </trkpt>
      <trkpt lat="46.91599" lon="8.64259">
        <ele>873</ele>
        <time>2021-08-07T11:41:48.092Z</time>
      </trkpt>
      <trkpt lat="46.91598" lon="8.64258">
        <ele>873</ele>
        <time>2021-08-07T11:41:49.091Z</time>
      </trkpt>
      <trkpt lat="46.91597" lon="8.64258">
        <ele>872</ele>
        <time>2021-08-07T11:41:50.091Z</time>
      </trkpt>
      <trkpt lat="46.91595" lon="8.64257">
        <ele>872</ele>
        <time>2021-08-07T11:41:51.091Z</time>
      </trkpt>
      <trkpt lat="46.91594" lon="8.64256">
        <ele>872</ele>
        <time>2021-08-07T11:41:52.092Z</time>
      </trkpt>
      <trkpt lat="46.91594" lon="8.64255">
        <ele>872</ele>
        <time>2021-08-07T11:41:53.092Z</time>
      </trkpt>
      <trkpt lat="46.91592" lon="8.64255">
        <ele>872</ele>
        <time>2021-08-07T11:41:54.091Z</time>
      </trkpt>
      <trkpt lat="46.91591" lon="8.64255">
        <ele>871</ele>
        <time>2021-08-07T11:41:55.092Z</time>
      </trkpt>
      <trkpt lat="46.91589" lon="8.64256">
        <ele>871</ele>
        <time>2021-08-07T11:41:56.091Z</time>
      </trkpt>
      <trkpt lat="46.91588" lon="8.64257">
        <ele>871</ele>
        <time>2021-08-07T11:41:57.092Z</time>
      </trkpt>
      <trkpt lat="46.91588" lon="8.64257">
        <ele>871</ele>
        <time>2021-08-07T11:41:58.091Z</time>
      </trkpt>
      <trkpt lat="46.91586" lon="8.64255">
        <ele>871</ele>
        <time>2021-08-07T11:41:59.091Z</time>
      </trkpt>
      <trkpt lat="46.91585" lon="8.64253">
        <ele>870</ele>
        <time>2021-08-07T11:42:00.091Z</time>
      </trkpt>
      <trkpt lat="46.91585" lon="8.64252">
        <ele>870</ele>
        <time>2021-08-07T11:42:01.092Z</time>
      </trkpt>
      <trkpt lat="46.91586" lon="8.64252">
        <ele>870</ele>
        <time>2021-08-07T11:42:02.092Z</time>
      </trkpt>
      <trkpt lat="46.91586" lon="8.64252">
        <ele>870</ele>
        <time>2021-08-07T11:42:03.091Z</time>
      </trkpt>
      <trkpt lat="46.91586" lon="8.64252">
        <ele>870</ele>
        <time>2021-08-07T11:42:04.092Z</time>
      </trkpt>
      <trkpt lat="46.91587" lon="8.64253">
        <ele>869</ele>
        <time>2021-08-07T11:42:08.929Z</time>
      </trkpt>
      <trkpt lat="46.91586" lon="8.64253">
        <ele>869</ele>
        <time>2021-08-07T11:42:13.823Z</time>
      </trkpt>
      <trkpt lat="46.91585" lon="8.64253">
        <ele>869</ele>
        <time>2021-08-07T11:42:14.824Z</time>
      </trkpt>
      <trkpt lat="46.91584" lon="8.64254">
        <ele>869</ele>
        <time>2021-08-07T11:42:15.823Z</time>
      </trkpt>
      <trkpt lat="46.91583" lon="8.64253">
        <ele>869</ele>
        <time>2021-08-07T11:42:19.699Z</time>
      </trkpt>
      <trkpt lat="46.91582" lon="8.64252">
        <ele>869</ele>
        <time>2021-08-07T11:42:20.699Z</time>
      </trkpt>
      <trkpt lat="46.91581" lon="8.64252">
        <ele>869</ele>
        <time>2021-08-07T11:42:21.699Z</time>
      </trkpt>
      <trkpt lat="46.91581" lon="8.64252">
        <ele>869</ele>
        <time>2021-08-07T11:42:22.699Z</time>
      </trkpt>
      <trkpt lat="46.91581" lon="8.64252">
        <ele>869</ele>
        <time>2021-08-07T11:42:23.699Z</time>
      </trkpt>
      <trkpt lat="46.9158" lon="8.64251">
        <ele>869</ele>
        <time>2021-08-07T11:42:24.699Z</time>
      </trkpt>
      <trkpt lat="46.9158" lon="8.6425">
        <ele>869</ele>
        <time>2021-08-07T11:42:25.699Z</time>
      </trkpt>
      <trkpt lat="46.9158" lon="8.64248">
        <ele>869</ele>
        <time>2021-08-07T11:42:26.699Z</time>
      </trkpt>
      <trkpt lat="46.9158" lon="8.64246">
        <ele>868</ele>
        <time>2021-08-07T11:42:27.699Z</time>
      </trkpt>
      <trkpt lat="46.91581" lon="8.64244">
        <ele>868</ele>
        <time>2021-08-07T11:42:28.699Z</time>
      </trkpt>
      <trkpt lat="46.91583" lon="8.64242">
        <ele>868</ele>
        <time>2021-08-07T11:42:29.699Z</time>
      </trkpt>
      <trkpt lat="46.91585" lon="8.64242">
        <ele>868</ele>
        <time>2021-08-07T11:42:30.699Z</time>
      </trkpt>
      <trkpt lat="46.91586" lon="8.64242">
        <ele>868</ele>
        <time>2021-08-07T11:42:31.699Z</time>
      </trkpt>
      <trkpt lat="46.91585" lon="8.64242">
        <ele>868</ele>
        <time>2021-08-07T11:42:32.698Z</time>
      </trkpt>
      <trkpt lat="46.91584" lon="8.64242">
        <ele>868</ele>
        <time>2021-08-07T11:42:33.699Z</time>
      </trkpt>
      <trkpt lat="46.91584" lon="8.64242">
        <ele>868</ele>
        <time>2021-08-07T11:42:34.699Z</time>
      </trkpt>
      <trkpt lat="46.91583" lon="8.64242">
        <ele>868</ele>
        <time>2021-08-07T11:42:35.698Z</time>
      </trkpt>
      <trkpt lat="46.91582" lon="8.64242">
        <ele>868</ele>
        <time>2021-08-07T11:42:36.699Z</time>
      </trkpt>
      <trkpt lat="46.91582" lon="8.64243">
        <ele>868</ele>
        <time>2021-08-07T11:42:37.698Z</time>
      </trkpt>
      <trkpt lat="46.91581" lon="8.64243">
        <ele>868</ele>
        <time>2021-08-07T11:42:38.698Z</time>
      </trkpt>
      <trkpt lat="46.9158" lon="8.64243">
        <ele>867</ele>
        <time>2021-08-07T11:42:39.699Z</time>
      </trkpt>
      <trkpt lat="46.91581" lon="8.64242">
        <ele>867</ele>
        <time>2021-08-07T11:42:40.699Z</time>
      </trkpt>
      <trkpt lat="46.91581" lon="8.64243">
        <ele>867</ele>
        <time>2021-08-07T11:42:41.699Z</time>
      </trkpt>
      <trkpt lat="46.91582" lon="8.64243">
        <ele>867</ele>
        <time>2021-08-07T11:42:42.698Z</time>
      </trkpt>
      <trkpt lat="46.91583" lon="8.64243">
        <ele>867</ele>
        <time>2021-08-07T11:42:43.699Z</time>
      </trkpt>
      <trkpt lat="46.91582" lon="8.64242">
        <ele>867</ele>
        <time>2021-08-07T11:42:44.698Z</time>
      </trkpt>
      <trkpt lat="46.91582" lon="8.64241">
        <ele>867</ele>
        <time>2021-08-07T11:42:45.698Z</time>
      </trkpt>
      <trkpt lat="46.91582" lon="8.6424">
        <ele>867</ele>
        <time>2021-08-07T11:42:46.698Z</time>
      </trkpt>
      <trkpt lat="46.91582" lon="8.64239">
        <ele>867</ele>
        <time>2021-08-07T11:42:47.699Z</time>
      </trkpt>
      <trkpt lat="46.91583" lon="8.64237">
        <ele>867</ele>
        <time>2021-08-07T11:42:48.698Z</time>
      </trkpt>
      <trkpt lat="46.91584" lon="8.64236">
        <ele>867</ele>
        <time>2021-08-07T11:42:49.699Z</time>
      </trkpt>
      <trkpt lat="46.91585" lon="8.64235">
        <ele>868</ele>
        <time>2021-08-07T11:42:50.699Z</time>
      </trkpt>
      <trkpt lat="46.91585" lon="8.64234">
        <ele>868</ele>
        <time>2021-08-07T11:42:51.699Z</time>
      </trkpt>
      <trkpt lat="46.91585" lon="8.64234">
        <ele>868</ele>
        <time>2021-08-07T11:42:52.698Z</time>
      </trkpt>
      <trkpt lat="46.91585" lon="8.64233">
        <ele>868</ele>
        <time>2021-08-07T11:42:53.699Z</time>
      </trkpt>
      <trkpt lat="46.91585" lon="8.64233">
        <ele>868</ele>
        <time>2021-08-07T11:42:54.699Z</time>
      </trkpt>
      <trkpt lat="46.91584" lon="8.64234">
        <ele>868</ele>
        <time>2021-08-07T11:42:55.699Z</time>
      </trkpt>
      <trkpt lat="46.91584" lon="8.64235">
        <ele>868</ele>
        <time>2021-08-07T11:42:56.698Z</time>
      </trkpt>
      <trkpt lat="46.91584" lon="8.64234">
        <ele>868</ele>
        <time>2021-08-07T11:42:57.699Z</time>
      </trkpt>
      <trkpt lat="46.91584" lon="8.64233">
        <ele>868</ele>
        <time>2021-08-07T11:42:58.698Z</time>
      </trkpt>
      <trkpt lat="46.91585" lon="8.64232">
        <ele>867</ele>
        <time>2021-08-07T11:42:59.698Z</time>
      </trkpt>
      <trkpt lat="46.91585" lon="8.64231">
        <ele>867</ele>
        <time>2021-08-07T11:43:00.699Z</time>
      </trkpt>
      <trkpt lat="46.91585" lon="8.6423">
        <ele>866</ele>
        <time>2021-08-07T11:43:01.699Z</time>
      </trkpt>
      <trkpt lat="46.91585" lon="8.64229">
        <ele>865</ele>
        <time>2021-08-07T11:43:02.698Z</time>
      </trkpt>
      <trkpt lat="46.91585" lon="8.64229">
        <ele>864</ele>
        <time>2021-08-07T11:43:03.699Z</time>
      </trkpt>
      <trkpt lat="46.91585" lon="8.6423">
        <ele>860</ele>
        <time>2021-08-07T11:43:04.699Z</time>
      </trkpt>
      <trkpt lat="46.91586" lon="8.6423">
        <ele>859</ele>
        <time>2021-08-07T11:43:05.700Z</time>
      </trkpt>
      <trkpt lat="46.91586" lon="8.6423">
        <ele>859</ele>
        <time>2021-08-07T11:43:06.700Z</time>
      </trkpt>
      <trkpt lat="46.91586" lon="8.64228">
        <ele>856</ele>
        <time>2021-08-07T11:43:07.700Z</time>
      </trkpt>
      <trkpt lat="46.91586" lon="8.64228">
        <ele>855</ele>
        <time>2021-08-07T11:43:08.700Z</time>
      </trkpt>
      <trkpt lat="46.91586" lon="8.64227">
        <ele>855</ele>
        <time>2021-08-07T11:43:09.700Z</time>
      </trkpt>
      <trkpt lat="46.91583" lon="8.64215">
        <ele>853</ele>
        <time>2021-08-07T11:43:10.701Z</time>
      </trkpt>
      <trkpt lat="46.91583" lon="8.64214">
        <ele>854</ele>
        <time>2021-08-07T11:43:11.700Z</time>
      </trkpt>
      <trkpt lat="46.91582" lon="8.64213">
        <ele>854</ele>
        <time>2021-08-07T11:43:12.700Z</time>
      </trkpt>
      <trkpt lat="46.91582" lon="8.64212">
        <ele>855</ele>
        <time>2021-08-07T11:43:13.700Z</time>
      </trkpt>
      <trkpt lat="46.91583" lon="8.64212">
        <ele>856</ele>
        <time>2021-08-07T11:43:14.700Z</time>
      </trkpt>
      <trkpt lat="46.91584" lon="8.64211">
        <ele>857</ele>
        <time>2021-08-07T11:43:15.701Z</time>
      </trkpt>
      <trkpt lat="46.91584" lon="8.64211">
        <ele>858</ele>
        <time>2021-08-07T11:43:16.701Z</time>
      </trkpt>
      <trkpt lat="46.91584" lon="8.64211">
        <ele>858</ele>
        <time>2021-08-07T11:43:17.701Z</time>
      </trkpt>
      <trkpt lat="46.91584" lon="8.64211">
        <ele>858</ele>
        <time>2021-08-07T11:43:18.702Z</time>
      </trkpt>
      <trkpt lat="46.91583" lon="8.64211">
        <ele>858</ele>
        <time>2021-08-07T11:43:19.702Z</time>
      </trkpt>
      <trkpt lat="46.91581" lon="8.6421">
        <ele>859</ele>
        <time>2021-08-07T11:43:20.702Z</time>
      </trkpt>
      <trkpt lat="46.91581" lon="8.64211">
        <ele>860</ele>
        <time>2021-08-07T11:43:21.701Z</time>
      </trkpt>
      <trkpt lat="46.91582" lon="8.64212">
        <ele>860</ele>
        <time>2021-08-07T11:43:22.701Z</time>
      </trkpt>
      <trkpt lat="46.91582" lon="8.64213">
        <ele>859</ele>
        <time>2021-08-07T11:43:23.702Z</time>
      </trkpt>
      <trkpt lat="46.91582" lon="8.64213">
        <ele>859</ele>
        <time>2021-08-07T11:43:24.702Z</time>
      </trkpt>
      <trkpt lat="46.91582" lon="8.64214">
        <ele>859</ele>
        <time>2021-08-07T11:43:25.701Z</time>
      </trkpt>
      <trkpt lat="46.91582" lon="8.64215">
        <ele>858</ele>
        <time>2021-08-07T11:43:26.702Z</time>
      </trkpt>
      <trkpt lat="46.91582" lon="8.64216">
        <ele>858</ele>
        <time>2021-08-07T11:43:27.702Z</time>
      </trkpt>
      <trkpt lat="46.91582" lon="8.64216">
        <ele>858</ele>
        <time>2021-08-07T11:43:28.702Z</time>
      </trkpt>
      <trkpt lat="46.91582" lon="8.64216">
        <ele>857</ele>
        <time>2021-08-07T11:43:29.702Z</time>
      </trkpt>
      <trkpt lat="46.91582" lon="8.64215">
        <ele>857</ele>
        <time>2021-08-07T11:43:30.702Z</time>
      </trkpt>
      <trkpt lat="46.91581" lon="8.64214">
        <ele>857</ele>
        <time>2021-08-07T11:43:31.702Z</time>
      </trkpt>
      <trkpt lat="46.91581" lon="8.64213">
        <ele>857</ele>
        <time>2021-08-07T11:43:32.701Z</time>
      </trkpt>
      <trkpt lat="46.91581" lon="8.64212">
        <ele>857</ele>
        <time>2021-08-07T11:43:33.702Z</time>
      </trkpt>
      <trkpt lat="46.91579" lon="8.6421">
        <ele>859</ele>
        <time>2021-08-07T11:43:34.703Z</time>
      </trkpt>
      <trkpt lat="46.91579" lon="8.6421">
        <ele>859</ele>
        <time>2021-08-07T11:43:35.703Z</time>
      </trkpt>
      <trkpt lat="46.91579" lon="8.64212">
        <ele>859</ele>
        <time>2021-08-07T11:43:38.664Z</time>
      </trkpt>
      <trkpt lat="46.91579" lon="8.64213">
        <ele>859</ele>
        <time>2021-08-07T11:43:39.665Z</time>
      </trkpt>
      <trkpt lat="46.9158" lon="8.64214">
        <ele>859</ele>
        <time>2021-08-07T11:43:40.664Z</time>
      </trkpt>
      <trkpt lat="46.91581" lon="8.64215">
        <ele>859</ele>
        <time>2021-08-07T11:43:41.664Z</time>
      </trkpt>
      <trkpt lat="46.91582" lon="8.64214">
        <ele>859</ele>
        <time>2021-08-07T11:43:42.665Z</time>
      </trkpt>
      <trkpt lat="46.91582" lon="8.64214">
        <ele>859</ele>
        <time>2021-08-07T11:43:43.665Z</time>
      </trkpt>
      <trkpt lat="46.91583" lon="8.64214">
        <ele>860</ele>
        <time>2021-08-07T11:43:44.665Z</time>
      </trkpt>
      <trkpt lat="46.91584" lon="8.64215">
        <ele>860</ele>
        <time>2021-08-07T11:43:45.665Z</time>
      </trkpt>
      <trkpt lat="46.91584" lon="8.64215">
        <ele>860</ele>
        <time>2021-08-07T11:43:46.665Z</time>
      </trkpt>
      <trkpt lat="46.91584" lon="8.64214">
        <ele>860</ele>
        <time>2021-08-07T11:43:47.664Z</time>
      </trkpt>
      <trkpt lat="46.91584" lon="8.64214">
        <ele>860</ele>
        <time>2021-08-07T11:43:48.665Z</time>
      </trkpt>
      <trkpt lat="46.91586" lon="8.64214">
        <ele>861</ele>
        <time>2021-08-07T11:43:49.665Z</time>
      </trkpt>
      <trkpt lat="46.91586" lon="8.64214">
        <ele>861</ele>
        <time>2021-08-07T11:43:50.665Z</time>
      </trkpt>
      <trkpt lat="46.91586" lon="8.64215">
        <ele>861</ele>
        <time>2021-08-07T11:43:51.664Z</time>
      </trkpt>
      <trkpt lat="46.91586" lon="8.64215">
        <ele>861</ele>
        <time>2021-08-07T11:43:52.664Z</time>
      </trkpt>
      <trkpt lat="46.91587" lon="8.64215">
        <ele>861</ele>
        <time>2021-08-07T11:43:53.665Z</time>
      </trkpt>
      <trkpt lat="46.91587" lon="8.64215">
        <ele>861</ele>
        <time>2021-08-07T11:43:54.664Z</time>
      </trkpt>
      <trkpt lat="46.91585" lon="8.64214">
        <ele>860</ele>
        <time>2021-08-07T11:43:55.665Z</time>
      </trkpt>
      <trkpt lat="46.91583" lon="8.64213">
        <ele>860</ele>
        <time>2021-08-07T11:43:56.665Z</time>
      </trkpt>
      <trkpt lat="46.91582" lon="8.64212">
        <ele>860</ele>
        <time>2021-08-07T11:43:57.665Z</time>
      </trkpt>
      <trkpt lat="46.91582" lon="8.64212">
        <ele>860</ele>
        <time>2021-08-07T11:43:58.666Z</time>
      </trkpt>
      <trkpt lat="46.91582" lon="8.64211">
        <ele>860</ele>
        <time>2021-08-07T11:43:59.666Z</time>
      </trkpt>
      <trkpt lat="46.91582" lon="8.64212">
        <ele>860</ele>
        <time>2021-08-07T11:44:00.666Z</time>
      </trkpt>
      <trkpt lat="46.91582" lon="8.64212">
        <ele>860</ele>
        <time>2021-08-07T11:44:01.666Z</time>
      </trkpt>
      <trkpt lat="46.91581" lon="8.64213">
        <ele>860</ele>
        <time>2021-08-07T11:44:02.666Z</time>
      </trkpt>
      <trkpt lat="46.91581" lon="8.64214">
        <ele>860</ele>
        <time>2021-08-07T11:44:03.665Z</time>
      </trkpt>
      <trkpt lat="46.91581" lon="8.64215">
        <ele>860</ele>
        <time>2021-08-07T11:44:04.665Z</time>
      </trkpt>
      <trkpt lat="46.9158" lon="8.64216">
        <ele>861</ele>
        <time>2021-08-07T11:44:05.666Z</time>
      </trkpt>
      <trkpt lat="46.91579" lon="8.64217">
        <ele>861</ele>
        <time>2021-08-07T11:44:06.665Z</time>
      </trkpt>
      <trkpt lat="46.91578" lon="8.64218">
        <ele>861</ele>
        <time>2021-08-07T11:44:07.666Z</time>
      </trkpt>
      <trkpt lat="46.91577" lon="8.6422">
        <ele>861</ele>
        <time>2021-08-07T11:44:08.666Z</time>
      </trkpt>
      <trkpt lat="46.91576" lon="8.64221">
        <ele>861</ele>
        <time>2021-08-07T11:44:09.666Z</time>
      </trkpt>
      <trkpt lat="46.91576" lon="8.64223">
        <ele>861</ele>
        <time>2021-08-07T11:44:10.666Z</time>
      </trkpt>
      <trkpt lat="46.91576" lon="8.64224">
        <ele>861</ele>
        <time>2021-08-07T11:44:11.666Z</time>
      </trkpt>
      <trkpt lat="46.91576" lon="8.64225">
        <ele>861</ele>
        <time>2021-08-07T11:44:12.666Z</time>
      </trkpt>
      <trkpt lat="46.91576" lon="8.64226">
        <ele>861</ele>
        <time>2021-08-07T11:44:13.665Z</time>
      </trkpt>
      <trkpt lat="46.91576" lon="8.64227">
        <ele>861</ele>
        <time>2021-08-07T11:44:14.666Z</time>
      </trkpt>
      <trkpt lat="46.91577" lon="8.64227">
        <ele>861</ele>
        <time>2021-08-07T11:44:15.666Z</time>
      </trkpt>
      <trkpt lat="46.91577" lon="8.64227">
        <ele>861</ele>
        <time>2021-08-07T11:44:16.665Z</time>
      </trkpt>
      <trkpt lat="46.91577" lon="8.64228">
        <ele>861</ele>
        <time>2021-08-07T11:44:17.665Z</time>
      </trkpt>
      <trkpt lat="46.91578" lon="8.64228">
        <ele>861</ele>
        <time>2021-08-07T11:44:18.665Z</time>
      </trkpt>
      <trkpt lat="46.91578" lon="8.64228">
        <ele>861</ele>
        <time>2021-08-07T11:44:19.665Z</time>
      </trkpt>
      <trkpt lat="46.91578" lon="8.64227">
        <ele>861</ele>
        <time>2021-08-07T11:44:20.666Z</time>
      </trkpt>
      <trkpt lat="46.91578" lon="8.64227">
        <ele>860</ele>
        <time>2021-08-07T11:44:21.666Z</time>
      </trkpt>
      <trkpt lat="46.91576" lon="8.64227">
        <ele>860</ele>
        <time>2021-08-07T11:44:22.666Z</time>
      </trkpt>
      <trkpt lat="46.91576" lon="8.64227">
        <ele>860</ele>
        <time>2021-08-07T11:44:23.666Z</time>
      </trkpt>
      <trkpt lat="46.91575" lon="8.6423">
        <ele>862</ele>
        <time>2021-08-07T11:44:24.666Z</time>
      </trkpt>
      <trkpt lat="46.91574" lon="8.6423">
        <ele>862</ele>
        <time>2021-08-07T11:44:25.665Z</time>
      </trkpt>
      <trkpt lat="46.91574" lon="8.64231">
        <ele>862</ele>
        <time>2021-08-07T11:44:26.665Z</time>
      </trkpt>
      <trkpt lat="46.91574" lon="8.64232">
        <ele>861</ele>
        <time>2021-08-07T11:44:27.665Z</time>
      </trkpt>
      <trkpt lat="46.91574" lon="8.64232">
        <ele>861</ele>
        <time>2021-08-07T11:44:28.666Z</time>
      </trkpt>
      <trkpt lat="46.91574" lon="8.64233">
        <ele>861</ele>
        <time>2021-08-07T11:44:29.665Z</time>
      </trkpt>
      <trkpt lat="46.91575" lon="8.64235">
        <ele>860</ele>
        <time>2021-08-07T11:44:30.665Z</time>
      </trkpt>
      <trkpt lat="46.91579" lon="8.64237">
        <ele>857</ele>
        <time>2021-08-07T11:44:31.666Z</time>
      </trkpt>
      <trkpt lat="46.9158" lon="8.64236">
        <ele>857</ele>
        <time>2021-08-07T11:44:32.665Z</time>
      </trkpt>
      <trkpt lat="46.91582" lon="8.64236">
        <ele>856</ele>
        <time>2021-08-07T11:44:33.665Z</time>
      </trkpt>
      <trkpt lat="46.91582" lon="8.64236">
        <ele>856</ele>
        <time>2021-08-07T11:44:34.665Z</time>
      </trkpt>
      <trkpt lat="46.91583" lon="8.64236">
        <ele>855</ele>
        <time>2021-08-07T11:44:35.666Z</time>
      </trkpt>
      <trkpt lat="46.91583" lon="8.64237">
        <ele>855</ele>
        <time>2021-08-07T11:44:36.666Z</time>
      </trkpt>
      <trkpt lat="46.91584" lon="8.64238">
        <ele>855</ele>
        <time>2021-08-07T11:44:37.665Z</time>
      </trkpt>
      <trkpt lat="46.91584" lon="8.64238">
        <ele>854</ele>
        <time>2021-08-07T11:44:38.666Z</time>
      </trkpt>
      <trkpt lat="46.91584" lon="8.64239">
        <ele>854</ele>
        <time>2021-08-07T11:44:39.666Z</time>
      </trkpt>
      <trkpt lat="46.91584" lon="8.64239">
        <ele>853</ele>
        <time>2021-08-07T11:44:40.665Z</time>
      </trkpt>
      <trkpt lat="46.91587" lon="8.64238">
        <ele>852</ele>
        <time>2021-08-07T11:44:41.666Z</time>
      </trkpt>
      <trkpt lat="46.91588" lon="8.64239">
        <ele>852</ele>
        <time>2021-08-07T11:44:42.666Z</time>
      </trkpt>
      <trkpt lat="46.91592" lon="8.6424">
        <ele>854</ele>
        <time>2021-08-07T11:44:43.666Z</time>
      </trkpt>
      <trkpt lat="46.91593" lon="8.64239">
        <ele>854</ele>
        <time>2021-08-07T11:44:44.666Z</time>
      </trkpt>
      <trkpt lat="46.91593" lon="8.64238">
        <ele>854</ele>
        <time>2021-08-07T11:44:50.682Z</time>
      </trkpt>
      <trkpt lat="46.91592" lon="8.64238">
        <ele>854</ele>
        <time>2021-08-07T11:44:51.682Z</time>
      </trkpt>
      <trkpt lat="46.91592" lon="8.64238">
        <ele>854</ele>
        <time>2021-08-07T11:44:52.683Z</time>
      </trkpt>
      <trkpt lat="46.91592" lon="8.64238">
        <ele>854</ele>
        <time>2021-08-07T11:44:53.683Z</time>
      </trkpt>
      <trkpt lat="46.91592" lon="8.64238">
        <ele>854</ele>
        <time>2021-08-07T11:44:59.804Z</time>
      </trkpt>
      <trkpt lat="46.91591" lon="8.64237">
        <ele>853</ele>
        <time>2021-08-07T11:45:00.804Z</time>
      </trkpt>
      <trkpt lat="46.91592" lon="8.64237">
        <ele>853</ele>
        <time>2021-08-07T11:45:01.805Z</time>
      </trkpt>
      <trkpt lat="46.91593" lon="8.64237">
        <ele>852</ele>
        <time>2021-08-07T11:45:19.720Z</time>
      </trkpt>
      <trkpt lat="46.91593" lon="8.64236">
        <ele>852</ele>
        <time>2021-08-07T11:45:20.720Z</time>
      </trkpt>
      <trkpt lat="46.91594" lon="8.64235">
        <ele>851</ele>
        <time>2021-08-07T11:45:21.719Z</time>
      </trkpt>
      <trkpt lat="46.91595" lon="8.64235">
        <ele>851</ele>
        <time>2021-08-07T11:45:22.719Z</time>
      </trkpt>
      <trkpt lat="46.91595" lon="8.64234">
        <ele>851</ele>
        <time>2021-08-07T11:45:39.803Z</time>
      </trkpt>
      <trkpt lat="46.91596" lon="8.64235">
        <ele>850</ele>
        <time>2021-08-07T11:45:40.803Z</time>
      </trkpt>
      <trkpt lat="46.91597" lon="8.64235">
        <ele>850</ele>
        <time>2021-08-07T11:45:41.803Z</time>
      </trkpt>
      <trkpt lat="46.91597" lon="8.64234">
        <ele>849</ele>
        <time>2021-08-07T11:45:42.803Z</time>
      </trkpt>
      <trkpt lat="46.91597" lon="8.64232">
        <ele>849</ele>
        <time>2021-08-07T11:45:43.803Z</time>
      </trkpt>
      <trkpt lat="46.91596" lon="8.6423">
        <ele>849</ele>
        <time>2021-08-07T11:45:45.927Z</time>
      </trkpt>
      <trkpt lat="46.91596" lon="8.64229">
        <ele>848</ele>
        <time>2021-08-07T11:45:46.927Z</time>
      </trkpt>
      <trkpt lat="46.91596" lon="8.6423">
        <ele>848</ele>
        <time>2021-08-07T11:45:47.927Z</time>
      </trkpt>
      <trkpt lat="46.91596" lon="8.64228">
        <ele>847</ele>
        <time>2021-08-07T11:45:48.928Z</time>
      </trkpt>
      <trkpt lat="46.91595" lon="8.64227">
        <ele>847</ele>
        <time>2021-08-07T11:45:53.082Z</time>
      </trkpt>
      <trkpt lat="46.91595" lon="8.64226">
        <ele>847</ele>
        <time>2021-08-07T11:45:54.081Z</time>
      </trkpt>
      <trkpt lat="46.91595" lon="8.64225">
        <ele>847</ele>
        <time>2021-08-07T11:45:55.081Z</time>
      </trkpt>
      <trkpt lat="46.91595" lon="8.64224">
        <ele>847</ele>
        <time>2021-08-07T11:46:11.183Z</time>
      </trkpt>
      <trkpt lat="46.91594" lon="8.64222">
        <ele>847</ele>
        <time>2021-08-07T11:46:25.956Z</time>
      </trkpt>
      <trkpt lat="46.91594" lon="8.64221">
        <ele>847</ele>
        <time>2021-08-07T11:46:26.956Z</time>
      </trkpt>
      <trkpt lat="46.91594" lon="8.64219">
        <ele>846</ele>
        <time>2021-08-07T11:46:32.829Z</time>
      </trkpt>
      <trkpt lat="46.91594" lon="8.64218">
        <ele>847</ele>
        <time>2021-08-07T11:46:33.829Z</time>
      </trkpt>
      <trkpt lat="46.91594" lon="8.64216">
        <ele>847</ele>
        <time>2021-08-07T11:46:34.829Z</time>
      </trkpt>
      <trkpt lat="46.91595" lon="8.64214">
        <ele>848</ele>
        <time>2021-08-07T11:46:44.582Z</time>
      </trkpt>
      <trkpt lat="46.91595" lon="8.64213">
        <ele>848</ele>
        <time>2021-08-07T11:46:45.583Z</time>
      </trkpt>
      <trkpt lat="46.91595" lon="8.64211">
        <ele>849</ele>
        <time>2021-08-07T11:47:12.466Z</time>
      </trkpt>
      <trkpt lat="46.91595" lon="8.6421">
        <ele>849</ele>
        <time>2021-08-07T11:47:14.341Z</time>
      </trkpt>
      <trkpt lat="46.91594" lon="8.64209">
        <ele>849</ele>
        <time>2021-08-07T11:47:15.342Z</time>
      </trkpt>
      <trkpt lat="46.91594" lon="8.64207">
        <ele>850</ele>
        <time>2021-08-07T11:47:16.342Z</time>
      </trkpt>
      <trkpt lat="46.91594" lon="8.64206">
        <ele>850</ele>
        <time>2021-08-07T11:47:17.342Z</time>
      </trkpt>
      <trkpt lat="46.91594" lon="8.64204">
        <ele>851</ele>
        <time>2021-08-07T11:47:18.341Z</time>
      </trkpt>
      <trkpt lat="46.91594" lon="8.64203">
        <ele>851</ele>
        <time>2021-08-07T11:47:19.341Z</time>
      </trkpt>
      <trkpt lat="46.91593" lon="8.64202">
        <ele>851</ele>
        <time>2021-08-07T11:47:23.450Z</time>
      </trkpt>
      <trkpt lat="46.91594" lon="8.642">
        <ele>851</ele>
        <time>2021-08-07T11:47:24.450Z</time>
      </trkpt>
      <trkpt lat="46.91594" lon="8.64198">
        <ele>852</ele>
        <time>2021-08-07T11:47:25.450Z</time>
      </trkpt>
      <trkpt lat="46.91593" lon="8.64198">
        <ele>852</ele>
        <time>2021-08-07T11:47:33.589Z</time>
      </trkpt>
      <trkpt lat="46.91592" lon="8.64197">
        <ele>852</ele>
        <time>2021-08-07T11:47:34.588Z</time>
      </trkpt>
      <trkpt lat="46.91591" lon="8.64195">
        <ele>852</ele>
        <time>2021-08-07T11:47:57.302Z</time>
      </trkpt>
      <trkpt lat="46.91591" lon="8.64192">
        <ele>853</ele>
        <time>2021-08-07T11:47:58.303Z</time>
      </trkpt>
      <trkpt lat="46.91591" lon="8.6419">
        <ele>853</ele>
        <time>2021-08-07T11:48:19.074Z</time>
      </trkpt>
      <trkpt lat="46.91591" lon="8.6419">
        <ele>853</ele>
        <time>2021-08-07T11:48:20.075Z</time>
      </trkpt>
      <trkpt lat="46.91591" lon="8.64192">
        <ele>853</ele>
        <time>2021-08-07T11:48:21.074Z</time>
      </trkpt>
      <trkpt lat="46.91591" lon="8.64195">
        <ele>853</ele>
        <time>2021-08-07T11:48:22.075Z</time>
      </trkpt>
      <trkpt lat="46.91591" lon="8.64199">
        <ele>853</ele>
        <time>2021-08-07T11:48:23.075Z</time>
      </trkpt>
      <trkpt lat="46.9159" lon="8.64199">
        <ele>852</ele>
        <time>2021-08-07T11:48:24.074Z</time>
      </trkpt>
      <trkpt lat="46.9159" lon="8.642">
        <ele>852</ele>
        <time>2021-08-07T11:48:25.075Z</time>
      </trkpt>
      <trkpt lat="46.91589" lon="8.642">
        <ele>852</ele>
        <time>2021-08-07T11:48:26.074Z</time>
      </trkpt>
      <trkpt lat="46.91589" lon="8.642">
        <ele>852</ele>
        <time>2021-08-07T11:48:27.075Z</time>
      </trkpt>
      <trkpt lat="46.91589" lon="8.642">
        <ele>851</ele>
        <time>2021-08-07T11:48:28.075Z</time>
      </trkpt>
      <trkpt lat="46.91589" lon="8.64199">
        <ele>851</ele>
        <time>2021-08-07T11:48:29.075Z</time>
      </trkpt>
      <trkpt lat="46.91588" lon="8.64199">
        <ele>850</ele>
        <time>2021-08-07T11:48:30.075Z</time>
      </trkpt>
      <trkpt lat="46.91588" lon="8.64199">
        <ele>849</ele>
        <time>2021-08-07T11:48:31.075Z</time>
      </trkpt>
      <trkpt lat="46.91588" lon="8.64199">
        <ele>849</ele>
        <time>2021-08-07T11:48:33.174Z</time>
      </trkpt>
      <trkpt lat="46.91587" lon="8.64199">
        <ele>848</ele>
        <time>2021-08-07T11:48:34.174Z</time>
      </trkpt>
      <trkpt lat="46.91586" lon="8.64199">
        <ele>847</ele>
        <time>2021-08-07T11:48:35.175Z</time>
      </trkpt>
      <trkpt lat="46.91586" lon="8.64201">
        <ele>847</ele>
        <time>2021-08-07T11:48:36.175Z</time>
      </trkpt>
      <trkpt lat="46.91585" lon="8.64201">
        <ele>847</ele>
        <time>2021-08-07T11:48:37.176Z</time>
      </trkpt>
      <trkpt lat="46.91585" lon="8.64202">
        <ele>847</ele>
        <time>2021-08-07T11:48:38.175Z</time>
      </trkpt>
      <trkpt lat="46.91585" lon="8.64203">
        <ele>847</ele>
        <time>2021-08-07T11:48:39.175Z</time>
      </trkpt>
      <trkpt lat="46.91584" lon="8.64204">
        <ele>847</ele>
        <time>2021-08-07T11:48:40.176Z</time>
      </trkpt>
      <trkpt lat="46.91583" lon="8.64206">
        <ele>847</ele>
        <time>2021-08-07T11:48:41.176Z</time>
      </trkpt>
      <trkpt lat="46.91582" lon="8.64207">
        <ele>847</ele>
        <time>2021-08-07T11:48:42.175Z</time>
      </trkpt>
      <trkpt lat="46.91581" lon="8.64208">
        <ele>847</ele>
        <time>2021-08-07T11:48:43.175Z</time>
      </trkpt>
      <trkpt lat="46.91581" lon="8.64209">
        <ele>848</ele>
        <time>2021-08-07T11:48:44.176Z</time>
      </trkpt>
      <trkpt lat="46.9158" lon="8.64209">
        <ele>848</ele>
        <time>2021-08-07T11:48:45.175Z</time>
      </trkpt>
      <trkpt lat="46.9158" lon="8.64209">
        <ele>848</ele>
        <time>2021-08-07T11:48:46.176Z</time>
      </trkpt>
      <trkpt lat="46.9158" lon="8.6421">
        <ele>848</ele>
        <time>2021-08-07T11:48:47.176Z</time>
      </trkpt>
      <trkpt lat="46.9158" lon="8.64211">
        <ele>848</ele>
        <time>2021-08-07T11:48:48.175Z</time>
      </trkpt>
      <trkpt lat="46.9158" lon="8.64212">
        <ele>849</ele>
        <time>2021-08-07T11:48:49.175Z</time>
      </trkpt>
      <trkpt lat="46.9158" lon="8.64212">
        <ele>849</ele>
        <time>2021-08-07T11:48:50.176Z</time>
      </trkpt>
      <trkpt lat="46.9158" lon="8.64212">
        <ele>850</ele>
        <time>2021-08-07T11:48:51.175Z</time>
      </trkpt>
      <trkpt lat="46.9158" lon="8.64211">
        <ele>850</ele>
        <time>2021-08-07T11:48:52.175Z</time>
      </trkpt>
      <trkpt lat="46.91581" lon="8.64211">
        <ele>850</ele>
        <time>2021-08-07T11:48:53.176Z</time>
      </trkpt>
      <trkpt lat="46.91581" lon="8.64211">
        <ele>850</ele>
        <time>2021-08-07T11:48:54.176Z</time>
      </trkpt>
      <trkpt lat="46.91581" lon="8.64212">
        <ele>850</ele>
        <time>2021-08-07T11:48:55.176Z</time>
      </trkpt>
      <trkpt lat="46.91581" lon="8.64212">
        <ele>851</ele>
        <time>2021-08-07T11:48:56.175Z</time>
      </trkpt>
      <trkpt lat="46.91581" lon="8.64214">
        <ele>851</ele>
        <time>2021-08-07T11:48:57.175Z</time>
      </trkpt>
      <trkpt lat="46.91581" lon="8.64215">
        <ele>851</ele>
        <time>2021-08-07T11:48:58.175Z</time>
      </trkpt>
      <trkpt lat="46.9158" lon="8.64215">
        <ele>851</ele>
        <time>2021-08-07T11:48:59.176Z</time>
      </trkpt>
      <trkpt lat="46.9158" lon="8.64215">
        <ele>851</ele>
        <time>2021-08-07T11:49:00.175Z</time>
      </trkpt>
      <trkpt lat="46.9158" lon="8.64214">
        <ele>851</ele>
        <time>2021-08-07T11:49:01.175Z</time>
      </trkpt>
      <trkpt lat="46.91579" lon="8.64214">
        <ele>851</ele>
        <time>2021-08-07T11:49:02.176Z</time>
      </trkpt>
      <trkpt lat="46.91579" lon="8.64214">
        <ele>852</ele>
        <time>2021-08-07T11:49:03.176Z</time>
      </trkpt>
      <trkpt lat="46.91579" lon="8.64215">
        <ele>852</ele>
        <time>2021-08-07T11:49:04.176Z</time>
      </trkpt>
      <trkpt lat="46.91578" lon="8.64216">
        <ele>852</ele>
        <time>2021-08-07T11:49:05.175Z</time>
      </trkpt>
      <trkpt lat="46.91578" lon="8.64216">
        <ele>851</ele>
        <time>2021-08-07T11:49:06.175Z</time>
      </trkpt>
      <trkpt lat="46.91577" lon="8.64216">
        <ele>851</ele>
        <time>2021-08-07T11:49:07.175Z</time>
      </trkpt>
      <trkpt lat="46.91577" lon="8.64216">
        <ele>851</ele>
        <time>2021-08-07T11:49:08.176Z</time>
      </trkpt>
      <trkpt lat="46.91577" lon="8.64217">
        <ele>850</ele>
        <time>2021-08-07T11:49:09.175Z</time>
      </trkpt>
      <trkpt lat="46.91576" lon="8.64217">
        <ele>850</ele>
        <time>2021-08-07T11:49:10.176Z</time>
      </trkpt>
      <trkpt lat="46.91576" lon="8.64218">
        <ele>849</ele>
        <time>2021-08-07T11:49:11.175Z</time>
      </trkpt>
      <trkpt lat="46.91576" lon="8.64218">
        <ele>849</ele>
        <time>2021-08-07T11:49:12.176Z</time>
      </trkpt>
      <trkpt lat="46.91576" lon="8.64218">
        <ele>848</ele>
        <time>2021-08-07T11:49:13.176Z</time>
      </trkpt>
      <trkpt lat="46.91576" lon="8.64219">
        <ele>848</ele>
        <time>2021-08-07T11:49:14.176Z</time>
      </trkpt>
      <trkpt lat="46.91575" lon="8.6422">
        <ele>846</ele>
        <time>2021-08-07T11:49:15.176Z</time>
      </trkpt>
      <trkpt lat="46.91575" lon="8.64221">
        <ele>846</ele>
        <time>2021-08-07T11:49:16.176Z</time>
      </trkpt>
      <trkpt lat="46.91574" lon="8.64222">
        <ele>846</ele>
        <time>2021-08-07T11:49:17.175Z</time>
      </trkpt>
      <trkpt lat="46.91573" lon="8.64223">
        <ele>846</ele>
        <time>2021-08-07T11:49:18.175Z</time>
      </trkpt>
      <trkpt lat="46.91573" lon="8.64224">
        <ele>846</ele>
        <time>2021-08-07T11:49:19.176Z</time>
      </trkpt>
      <trkpt lat="46.91573" lon="8.64223">
        <ele>846</ele>
        <time>2021-08-07T11:49:20.176Z</time>
      </trkpt>
      <trkpt lat="46.91571" lon="8.64222">
        <ele>846</ele>
        <time>2021-08-07T11:49:21.176Z</time>
      </trkpt>
      <trkpt lat="46.9157" lon="8.64221">
        <ele>846</ele>
        <time>2021-08-07T11:49:22.176Z</time>
      </trkpt>
      <trkpt lat="46.91569" lon="8.64222">
        <ele>847</ele>
        <time>2021-08-07T11:49:23.176Z</time>
      </trkpt>
      <trkpt lat="46.91568" lon="8.64222">
        <ele>847</ele>
        <time>2021-08-07T11:49:24.175Z</time>
      </trkpt>
      <trkpt lat="46.91568" lon="8.64222">
        <ele>847</ele>
        <time>2021-08-07T11:49:25.175Z</time>
      </trkpt>
      <trkpt lat="46.91568" lon="8.64222">
        <ele>847</ele>
        <time>2021-08-07T11:49:26.176Z</time>
      </trkpt>
      <trkpt lat="46.91568" lon="8.64223">
        <ele>847</ele>
        <time>2021-08-07T11:49:27.175Z</time>
      </trkpt>
      <trkpt lat="46.91568" lon="8.64223">
        <ele>847</ele>
        <time>2021-08-07T11:49:28.176Z</time>
      </trkpt>
      <trkpt lat="46.91569" lon="8.64224">
        <ele>847</ele>
        <time>2021-08-07T11:49:29.176Z</time>
      </trkpt>
      <trkpt lat="46.9157" lon="8.64225">
        <ele>847</ele>
        <time>2021-08-07T11:49:30.176Z</time>
      </trkpt>
      <trkpt lat="46.9157" lon="8.64225">
        <ele>847</ele>
        <time>2021-08-07T11:49:31.176Z</time>
      </trkpt>
      <trkpt lat="46.91571" lon="8.64223">
        <ele>847</ele>
        <time>2021-08-07T11:49:32.176Z</time>
      </trkpt>
      <trkpt lat="46.91571" lon="8.64222">
        <ele>847</ele>
        <time>2021-08-07T11:49:33.175Z</time>
      </trkpt>
      <trkpt lat="46.91571" lon="8.64221">
        <ele>848</ele>
        <time>2021-08-07T11:49:34.175Z</time>
      </trkpt>
      <trkpt lat="46.91571" lon="8.64221">
        <ele>848</ele>
        <time>2021-08-07T11:49:35.176Z</time>
      </trkpt>
      <trkpt lat="46.9157" lon="8.64221">
        <ele>848</ele>
        <time>2021-08-07T11:49:36.175Z</time>
      </trkpt>
      <trkpt lat="46.9157" lon="8.64222">
        <ele>849</ele>
        <time>2021-08-07T11:49:37.176Z</time>
      </trkpt>
      <trkpt lat="46.91569" lon="8.64222">
        <ele>849</ele>
        <time>2021-08-07T11:49:38.176Z</time>
      </trkpt>
      <trkpt lat="46.91569" lon="8.64222">
        <ele>850</ele>
        <time>2021-08-07T11:49:39.176Z</time>
      </trkpt>
      <trkpt lat="46.91568" lon="8.64222">
        <ele>850</ele>
        <time>2021-08-07T11:49:40.175Z</time>
      </trkpt>
      <trkpt lat="46.91568" lon="8.64223">
        <ele>850</ele>
        <time>2021-08-07T11:49:41.176Z</time>
      </trkpt>
      <trkpt lat="46.91567" lon="8.64224">
        <ele>851</ele>
        <time>2021-08-07T11:49:42.176Z</time>
      </trkpt>
      <trkpt lat="46.91567" lon="8.64224">
        <ele>851</ele>
        <time>2021-08-07T11:49:43.175Z</time>
      </trkpt>
      <trkpt lat="46.91567" lon="8.64224">
        <ele>851</ele>
        <time>2021-08-07T11:49:44.175Z</time>
      </trkpt>
      <trkpt lat="46.91566" lon="8.64224">
        <ele>851</ele>
        <time>2021-08-07T11:49:45.176Z</time>
      </trkpt>
      <trkpt lat="46.91564" lon="8.64222">
        <ele>851</ele>
        <time>2021-08-07T11:49:46.176Z</time>
      </trkpt>
      <trkpt lat="46.91563" lon="8.64222">
        <ele>851</ele>
        <time>2021-08-07T11:49:47.176Z</time>
      </trkpt>
      <trkpt lat="46.9156" lon="8.64223">
        <ele>851</ele>
        <time>2021-08-07T11:49:48.175Z</time>
      </trkpt>
      <trkpt lat="46.91558" lon="8.64224">
        <ele>851</ele>
        <time>2021-08-07T11:49:49.176Z</time>
      </trkpt>
      <trkpt lat="46.91556" lon="8.64225">
        <ele>851</ele>
        <time>2021-08-07T11:49:50.176Z</time>
      </trkpt>
      <trkpt lat="46.91556" lon="8.64226">
        <ele>851</ele>
        <time>2021-08-07T11:49:51.176Z</time>
      </trkpt>
      <trkpt lat="46.91557" lon="8.64227">
        <ele>851</ele>
        <time>2021-08-07T11:49:52.175Z</time>
      </trkpt>
      <trkpt lat="46.91558" lon="8.64227">
        <ele>851</ele>
        <time>2021-08-07T11:49:53.176Z</time>
      </trkpt>
      <trkpt lat="46.91559" lon="8.64227">
        <ele>851</ele>
        <time>2021-08-07T11:49:54.176Z</time>
      </trkpt>
      <trkpt lat="46.91559" lon="8.64227">
        <ele>851</ele>
        <time>2021-08-07T11:49:55.176Z</time>
      </trkpt>
      <trkpt lat="46.91559" lon="8.64228">
        <ele>851</ele>
        <time>2021-08-07T11:49:56.175Z</time>
      </trkpt>
      <trkpt lat="46.9156" lon="8.64228">
        <ele>851</ele>
        <time>2021-08-07T11:49:57.176Z</time>
      </trkpt>
      <trkpt lat="46.91562" lon="8.64227">
        <ele>851</ele>
        <time>2021-08-07T11:49:58.175Z</time>
      </trkpt>
      <trkpt lat="46.91563" lon="8.64227">
        <ele>851</ele>
        <time>2021-08-07T11:49:59.175Z</time>
      </trkpt>
      <trkpt lat="46.91565" lon="8.64227">
        <ele>851</ele>
        <time>2021-08-07T11:50:00.176Z</time>
      </trkpt>
      <trkpt lat="46.91566" lon="8.64226">
        <ele>851</ele>
        <time>2021-08-07T11:50:01.175Z</time>
      </trkpt>
      <trkpt lat="46.91567" lon="8.64227">
        <ele>851</ele>
        <time>2021-08-07T11:50:02.175Z</time>
      </trkpt>
      <trkpt lat="46.91566" lon="8.64228">
        <ele>851</ele>
        <time>2021-08-07T11:50:03.176Z</time>
      </trkpt>
      <trkpt lat="46.91565" lon="8.64228">
        <ele>850</ele>
        <time>2021-08-07T11:50:04.175Z</time>
      </trkpt>
      <trkpt lat="46.91565" lon="8.64227">
        <ele>850</ele>
        <time>2021-08-07T11:50:05.176Z</time>
      </trkpt>
      <trkpt lat="46.91565" lon="8.64226">
        <ele>850</ele>
        <time>2021-08-07T11:50:06.176Z</time>
      </trkpt>
      <trkpt lat="46.91564" lon="8.64227">
        <ele>850</ele>
        <time>2021-08-07T11:50:07.176Z</time>
      </trkpt>
      <trkpt lat="46.91564" lon="8.64227">
        <ele>850</ele>
        <time>2021-08-07T11:50:08.175Z</time>
      </trkpt>
      <trkpt lat="46.91563" lon="8.64228">
        <ele>849</ele>
        <time>2021-08-07T11:50:09.175Z</time>
      </trkpt>
      <trkpt lat="46.91563" lon="8.6423">
        <ele>849</ele>
        <time>2021-08-07T11:50:10.176Z</time>
      </trkpt>
      <trkpt lat="46.91563" lon="8.6423">
        <ele>848</ele>
        <time>2021-08-07T11:50:11.176Z</time>
      </trkpt>
      <trkpt lat="46.91562" lon="8.6423">
        <ele>848</ele>
        <time>2021-08-07T11:50:15.324Z</time>
      </trkpt>
      <trkpt lat="46.91562" lon="8.6423">
        <ele>848</ele>
        <time>2021-08-07T11:50:16.323Z</time>
      </trkpt>
      <trkpt lat="46.91561" lon="8.6423">
        <ele>848</ele>
        <time>2021-08-07T11:50:17.324Z</time>
      </trkpt>
      <trkpt lat="46.91561" lon="8.6423">
        <ele>848</ele>
        <time>2021-08-07T11:50:18.324Z</time>
      </trkpt>
      <trkpt lat="46.9156" lon="8.6423">
        <ele>847</ele>
        <time>2021-08-07T11:50:19.323Z</time>
      </trkpt>
      <trkpt lat="46.9156" lon="8.64229">
        <ele>847</ele>
        <time>2021-08-07T11:50:46.307Z</time>
      </trkpt>
      <trkpt lat="46.91559" lon="8.64228">
        <ele>847</ele>
        <time>2021-08-07T11:50:54.198Z</time>
      </trkpt>
      <trkpt lat="46.91558" lon="8.64228">
        <ele>847</ele>
        <time>2021-08-07T11:50:55.198Z</time>
      </trkpt>
      <trkpt lat="46.91557" lon="8.64226">
        <ele>847</ele>
        <time>2021-08-07T11:50:56.198Z</time>
      </trkpt>
      <trkpt lat="46.91557" lon="8.64225">
        <ele>847</ele>
        <time>2021-08-07T11:50:57.198Z</time>
      </trkpt>
      <trkpt lat="46.91557" lon="8.64225">
        <ele>847</ele>
        <time>2021-08-07T11:50:58.197Z</time>
      </trkpt>
      <trkpt lat="46.91557" lon="8.64224">
        <ele>847</ele>
        <time>2021-08-07T11:50:59.197Z</time>
      </trkpt>
      <trkpt lat="46.91557" lon="8.64224">
        <ele>847</ele>
        <time>2021-08-07T11:51:00.198Z</time>
      </trkpt>
      <trkpt lat="46.91557" lon="8.64224">
        <ele>847</ele>
        <time>2021-08-07T11:51:01.197Z</time>
      </trkpt>
      <trkpt lat="46.91557" lon="8.64225">
        <ele>847</ele>
        <time>2021-08-07T11:51:02.197Z</time>
      </trkpt>
      <trkpt lat="46.91557" lon="8.64226">
        <ele>846</ele>
        <time>2021-08-07T11:51:03.198Z</time>
      </trkpt>
      <trkpt lat="46.91557" lon="8.64226">
        <ele>846</ele>
        <time>2021-08-07T11:51:04.198Z</time>
      </trkpt>
      <trkpt lat="46.91557" lon="8.64226">
        <ele>845</ele>
        <time>2021-08-07T11:51:05.197Z</time>
      </trkpt>
      <trkpt lat="46.91556" lon="8.64226">
        <ele>845</ele>
        <time>2021-08-07T11:51:06.197Z</time>
      </trkpt>
      <trkpt lat="46.91556" lon="8.64225">
        <ele>844</ele>
        <time>2021-08-07T11:51:07.198Z</time>
      </trkpt>
      <trkpt lat="46.91556" lon="8.64224">
        <ele>844</ele>
        <time>2021-08-07T11:51:08.198Z</time>
      </trkpt>
      <trkpt lat="46.91556" lon="8.64223">
        <ele>844</ele>
        <time>2021-08-07T11:51:09.197Z</time>
      </trkpt>
      <trkpt lat="46.91557" lon="8.64222">
        <ele>843</ele>
        <time>2021-08-07T11:51:10.197Z</time>
      </trkpt>
      <trkpt lat="46.91557" lon="8.64222">
        <ele>843</ele>
        <time>2021-08-07T11:51:11.198Z</time>
      </trkpt>
      <trkpt lat="46.91557" lon="8.64223">
        <ele>843</ele>
        <time>2021-08-07T11:51:12.197Z</time>
      </trkpt>
      <trkpt lat="46.91559" lon="8.64223">
        <ele>843</ele>
        <time>2021-08-07T11:51:13.197Z</time>
      </trkpt>
      <trkpt lat="46.9156" lon="8.64222">
        <ele>842</ele>
        <time>2021-08-07T11:51:14.198Z</time>
      </trkpt>
      <trkpt lat="46.91561" lon="8.6422">
        <ele>842</ele>
        <time>2021-08-07T11:51:15.198Z</time>
      </trkpt>
      <trkpt lat="46.91562" lon="8.64219">
        <ele>842</ele>
        <time>2021-08-07T11:51:16.198Z</time>
      </trkpt>
      <trkpt lat="46.91563" lon="8.64218">
        <ele>842</ele>
        <time>2021-08-07T11:51:17.197Z</time>
      </trkpt>
      <trkpt lat="46.91563" lon="8.64217">
        <ele>842</ele>
        <time>2021-08-07T11:51:18.197Z</time>
      </trkpt>
      <trkpt lat="46.91563" lon="8.64217">
        <ele>842</ele>
        <time>2021-08-07T11:51:19.197Z</time>
      </trkpt>
      <trkpt lat="46.91564" lon="8.64217">
        <ele>842</ele>
        <time>2021-08-07T11:51:20.198Z</time>
      </trkpt>
      <trkpt lat="46.91564" lon="8.64217">
        <ele>843</ele>
        <time>2021-08-07T11:51:21.197Z</time>
      </trkpt>
      <trkpt lat="46.91564" lon="8.64218">
        <ele>843</ele>
        <time>2021-08-07T11:51:22.198Z</time>
      </trkpt>
      <trkpt lat="46.91564" lon="8.64218">
        <ele>842</ele>
        <time>2021-08-07T11:51:23.197Z</time>
      </trkpt>
      <trkpt lat="46.91563" lon="8.64217">
        <ele>842</ele>
        <time>2021-08-07T11:51:24.198Z</time>
      </trkpt>
      <trkpt lat="46.91561" lon="8.64217">
        <ele>842</ele>
        <time>2021-08-07T11:51:25.197Z</time>
      </trkpt>
      <trkpt lat="46.9156" lon="8.64216">
        <ele>842</ele>
        <time>2021-08-07T11:51:26.197Z</time>
      </trkpt>
      <trkpt lat="46.9156" lon="8.64214">
        <ele>842</ele>
        <time>2021-08-07T11:51:27.197Z</time>
      </trkpt>
      <trkpt lat="46.9156" lon="8.64213">
        <ele>842</ele>
        <time>2021-08-07T11:51:28.198Z</time>
      </trkpt>
      <trkpt lat="46.9156" lon="8.64211">
        <ele>842</ele>
        <time>2021-08-07T11:51:29.198Z</time>
      </trkpt>
      <trkpt lat="46.9156" lon="8.64209">
        <ele>842</ele>
        <time>2021-08-07T11:51:30.198Z</time>
      </trkpt>
      <trkpt lat="46.91561" lon="8.64208">
        <ele>842</ele>
        <time>2021-08-07T11:51:31.197Z</time>
      </trkpt>
      <trkpt lat="46.91561" lon="8.64207">
        <ele>842</ele>
        <time>2021-08-07T11:51:32.198Z</time>
      </trkpt>
      <trkpt lat="46.91561" lon="8.64207">
        <ele>842</ele>
        <time>2021-08-07T11:51:33.197Z</time>
      </trkpt>
      <trkpt lat="46.9156" lon="8.64205">
        <ele>842</ele>
        <time>2021-08-07T11:51:34.198Z</time>
      </trkpt>
      <trkpt lat="46.91559" lon="8.64206">
        <ele>842</ele>
        <time>2021-08-07T11:51:35.198Z</time>
      </trkpt>
      <trkpt lat="46.91559" lon="8.64206">
        <ele>842</ele>
        <time>2021-08-07T11:51:36.198Z</time>
      </trkpt>
      <trkpt lat="46.91559" lon="8.64207">
        <ele>842</ele>
        <time>2021-08-07T11:51:37.197Z</time>
      </trkpt>
      <trkpt lat="46.9156" lon="8.64208">
        <ele>842</ele>
        <time>2021-08-07T11:51:38.198Z</time>
      </trkpt>
      <trkpt lat="46.91559" lon="8.64208">
        <ele>842</ele>
        <time>2021-08-07T11:51:39.198Z</time>
      </trkpt>
      <trkpt lat="46.91559" lon="8.64209">
        <ele>843</ele>
        <time>2021-08-07T11:51:40.198Z</time>
      </trkpt>
      <trkpt lat="46.91557" lon="8.64209">
        <ele>843</ele>
        <time>2021-08-07T11:51:41.197Z</time>
      </trkpt>
      <trkpt lat="46.91557" lon="8.64206">
        <ele>842</ele>
        <time>2021-08-07T11:51:42.197Z</time>
      </trkpt>
      <trkpt lat="46.91558" lon="8.64204">
        <ele>842</ele>
        <time>2021-08-07T11:51:43.197Z</time>
      </trkpt>
      <trkpt lat="46.91558" lon="8.64202">
        <ele>842</ele>
        <time>2021-08-07T11:51:44.198Z</time>
      </trkpt>
      <trkpt lat="46.91559" lon="8.64199">
        <ele>841</ele>
        <time>2021-08-07T11:51:45.198Z</time>
      </trkpt>
      <trkpt lat="46.91559" lon="8.64197">
        <ele>841</ele>
        <time>2021-08-07T11:51:46.198Z</time>
      </trkpt>
      <trkpt lat="46.9156" lon="8.64195">
        <ele>840</ele>
        <time>2021-08-07T11:51:47.198Z</time>
      </trkpt>
      <trkpt lat="46.91561" lon="8.64195">
        <ele>840</ele>
        <time>2021-08-07T11:51:48.198Z</time>
      </trkpt>
      <trkpt lat="46.9156" lon="8.64193">
        <ele>839</ele>
        <time>2021-08-07T11:51:49.198Z</time>
      </trkpt>
      <trkpt lat="46.9156" lon="8.64192">
        <ele>839</ele>
        <time>2021-08-07T11:51:50.197Z</time>
      </trkpt>
      <trkpt lat="46.9156" lon="8.64189">
        <ele>838</ele>
        <time>2021-08-07T11:51:51.198Z</time>
      </trkpt>
      <trkpt lat="46.9156" lon="8.64188">
        <ele>837</ele>
        <time>2021-08-07T11:51:52.198Z</time>
      </trkpt>
      <trkpt lat="46.9156" lon="8.64186">
        <ele>836</ele>
        <time>2021-08-07T11:51:53.198Z</time>
      </trkpt>
      <trkpt lat="46.9156" lon="8.64184">
        <ele>835</ele>
        <time>2021-08-07T11:51:54.198Z</time>
      </trkpt>
      <trkpt lat="46.91561" lon="8.64182">
        <ele>835</ele>
        <time>2021-08-07T11:51:55.198Z</time>
      </trkpt>
      <trkpt lat="46.91561" lon="8.64181">
        <ele>834</ele>
        <time>2021-08-07T11:51:56.197Z</time>
      </trkpt>
      <trkpt lat="46.91561" lon="8.64179">
        <ele>834</ele>
        <time>2021-08-07T11:51:57.198Z</time>
      </trkpt>
      <trkpt lat="46.91561" lon="8.64177">
        <ele>834</ele>
        <time>2021-08-07T11:51:58.197Z</time>
      </trkpt>
      <trkpt lat="46.91561" lon="8.64176">
        <ele>833</ele>
        <time>2021-08-07T11:51:59.198Z</time>
      </trkpt>
      <trkpt lat="46.91561" lon="8.64176">
        <ele>833</ele>
        <time>2021-08-07T11:52:00.197Z</time>
      </trkpt>
      <trkpt lat="46.91561" lon="8.64175">
        <ele>833</ele>
        <time>2021-08-07T11:52:01.198Z</time>
      </trkpt>
      <trkpt lat="46.91561" lon="8.64173">
        <ele>832</ele>
        <time>2021-08-07T11:52:05.306Z</time>
      </trkpt>
      <trkpt lat="46.91561" lon="8.64173">
        <ele>832</ele>
        <time>2021-08-07T11:52:06.306Z</time>
      </trkpt>
      <trkpt lat="46.91561" lon="8.64171">
        <ele>832</ele>
        <time>2021-08-07T11:52:07.306Z</time>
      </trkpt>
      <trkpt lat="46.9156" lon="8.6417">
        <ele>832</ele>
        <time>2021-08-07T11:52:08.306Z</time>
      </trkpt>
      <trkpt lat="46.9156" lon="8.64169">
        <ele>831</ele>
        <time>2021-08-07T11:52:09.306Z</time>
      </trkpt>
      <trkpt lat="46.9156" lon="8.64168">
        <ele>831</ele>
        <time>2021-08-07T11:52:10.306Z</time>
      </trkpt>
      <trkpt lat="46.9156" lon="8.64167">
        <ele>831</ele>
        <time>2021-08-07T11:52:11.306Z</time>
      </trkpt>
      <trkpt lat="46.9156" lon="8.64167">
        <ele>831</ele>
        <time>2021-08-07T11:52:12.306Z</time>
      </trkpt>
      <trkpt lat="46.91559" lon="8.64166">
        <ele>831</ele>
        <time>2021-08-07T11:52:13.306Z</time>
      </trkpt>
      <trkpt lat="46.91559" lon="8.64165">
        <ele>830</ele>
        <time>2021-08-07T11:52:14.306Z</time>
      </trkpt>
      <trkpt lat="46.91559" lon="8.64163">
        <ele>830</ele>
        <time>2021-08-07T11:52:15.306Z</time>
      </trkpt>
      <trkpt lat="46.91559" lon="8.64159">
        <ele>830</ele>
        <time>2021-08-07T11:52:16.306Z</time>
      </trkpt>
      <trkpt lat="46.91559" lon="8.6416">
        <ele>830</ele>
        <time>2021-08-07T11:52:17.307Z</time>
      </trkpt>
      <trkpt lat="46.91558" lon="8.6416">
        <ele>830</ele>
        <time>2021-08-07T11:52:18.307Z</time>
      </trkpt>
      <trkpt lat="46.91558" lon="8.6416">
        <ele>830</ele>
        <time>2021-08-07T11:52:19.306Z</time>
      </trkpt>
      <trkpt lat="46.91559" lon="8.6416">
        <ele>830</ele>
        <time>2021-08-07T11:52:20.307Z</time>
      </trkpt>
      <trkpt lat="46.91559" lon="8.64159">
        <ele>830</ele>
        <time>2021-08-07T11:52:21.307Z</time>
      </trkpt>
      <trkpt lat="46.91559" lon="8.64159">
        <ele>830</ele>
        <time>2021-08-07T11:52:22.307Z</time>
      </trkpt>
      <trkpt lat="46.9156" lon="8.64157">
        <ele>830</ele>
        <time>2021-08-07T11:52:23.307Z</time>
      </trkpt>
      <trkpt lat="46.9156" lon="8.64156">
        <ele>830</ele>
        <time>2021-08-07T11:52:24.307Z</time>
      </trkpt>
      <trkpt lat="46.91561" lon="8.64155">
        <ele>830</ele>
        <time>2021-08-07T11:52:25.306Z</time>
      </trkpt>
      <trkpt lat="46.91561" lon="8.64154">
        <ele>830</ele>
        <time>2021-08-07T11:52:26.306Z</time>
      </trkpt>
      <trkpt lat="46.9156" lon="8.64153">
        <ele>830</ele>
        <time>2021-08-07T11:52:27.307Z</time>
      </trkpt>
      <trkpt lat="46.9156" lon="8.64152">
        <ele>830</ele>
        <time>2021-08-07T11:52:28.307Z</time>
      </trkpt>
      <trkpt lat="46.9156" lon="8.64151">
        <ele>830</ele>
        <time>2021-08-07T11:52:29.306Z</time>
      </trkpt>
      <trkpt lat="46.9156" lon="8.64151">
        <ele>830</ele>
        <time>2021-08-07T11:52:30.306Z</time>
      </trkpt>
      <trkpt lat="46.91559" lon="8.64151">
        <ele>830</ele>
        <time>2021-08-07T11:52:31.307Z</time>
      </trkpt>
      <trkpt lat="46.91559" lon="8.6415">
        <ele>830</ele>
        <time>2021-08-07T11:52:32.307Z</time>
      </trkpt>
      <trkpt lat="46.91559" lon="8.6415">
        <ele>830</ele>
        <time>2021-08-07T11:52:33.306Z</time>
      </trkpt>
      <trkpt lat="46.91558" lon="8.64149">
        <ele>829</ele>
        <time>2021-08-07T11:52:34.309Z</time>
      </trkpt>
      <trkpt lat="46.91558" lon="8.64149">
        <ele>829</ele>
        <time>2021-08-07T11:52:35.308Z</time>
      </trkpt>
      <trkpt lat="46.91557" lon="8.64148">
        <ele>829</ele>
        <time>2021-08-07T11:52:36.308Z</time>
      </trkpt>
      <trkpt lat="46.91558" lon="8.64148">
        <ele>829</ele>
        <time>2021-08-07T11:52:37.309Z</time>
      </trkpt>
      <trkpt lat="46.91557" lon="8.64148">
        <ele>829</ele>
        <time>2021-08-07T11:52:38.309Z</time>
      </trkpt>
      <trkpt lat="46.91556" lon="8.64148">
        <ele>829</ele>
        <time>2021-08-07T11:52:39.308Z</time>
      </trkpt>
      <trkpt lat="46.91555" lon="8.64149">
        <ele>829</ele>
        <time>2021-08-07T11:52:40.309Z</time>
      </trkpt>
      <trkpt lat="46.91555" lon="8.64149">
        <ele>829</ele>
        <time>2021-08-07T11:52:41.308Z</time>
      </trkpt>
      <trkpt lat="46.91555" lon="8.6415">
        <ele>829</ele>
        <time>2021-08-07T11:52:42.309Z</time>
      </trkpt>
      <trkpt lat="46.91554" lon="8.64149">
        <ele>829</ele>
        <time>2021-08-07T11:52:43.309Z</time>
      </trkpt>
      <trkpt lat="46.91554" lon="8.6415">
        <ele>829</ele>
        <time>2021-08-07T11:52:44.308Z</time>
      </trkpt>
      <trkpt lat="46.91553" lon="8.6415">
        <ele>829</ele>
        <time>2021-08-07T11:52:45.308Z</time>
      </trkpt>
      <trkpt lat="46.91552" lon="8.64151">
        <ele>829</ele>
        <time>2021-08-07T11:52:46.308Z</time>
      </trkpt>
      <trkpt lat="46.91551" lon="8.64151">
        <ele>829</ele>
        <time>2021-08-07T11:52:47.308Z</time>
      </trkpt>
      <trkpt lat="46.91549" lon="8.64151">
        <ele>828</ele>
        <time>2021-08-07T11:52:48.309Z</time>
      </trkpt>
      <trkpt lat="46.91549" lon="8.6415">
        <ele>828</ele>
        <time>2021-08-07T11:52:49.309Z</time>
      </trkpt>
      <trkpt lat="46.91552" lon="8.64148">
        <ele>828</ele>
        <time>2021-08-07T11:52:50.308Z</time>
      </trkpt>
      <trkpt lat="46.91554" lon="8.64146">
        <ele>828</ele>
        <time>2021-08-07T11:52:51.309Z</time>
      </trkpt>
      <trkpt lat="46.91557" lon="8.64143">
        <ele>828</ele>
        <time>2021-08-07T11:52:52.308Z</time>
      </trkpt>
      <trkpt lat="46.91559" lon="8.64141">
        <ele>828</ele>
        <time>2021-08-07T11:52:53.309Z</time>
      </trkpt>
      <trkpt lat="46.91559" lon="8.64141">
        <ele>828</ele>
        <time>2021-08-07T11:52:54.309Z</time>
      </trkpt>
      <trkpt lat="46.91559" lon="8.6414">
        <ele>828</ele>
        <time>2021-08-07T11:52:55.309Z</time>
      </trkpt>
      <trkpt lat="46.91559" lon="8.6414">
        <ele>828</ele>
        <time>2021-08-07T11:52:56.309Z</time>
      </trkpt>
      <trkpt lat="46.91559" lon="8.64139">
        <ele>828</ele>
        <time>2021-08-07T11:52:57.309Z</time>
      </trkpt>
      <trkpt lat="46.91559" lon="8.64139">
        <ele>828</ele>
        <time>2021-08-07T11:52:58.308Z</time>
      </trkpt>
      <trkpt lat="46.91559" lon="8.64139">
        <ele>828</ele>
        <time>2021-08-07T11:52:59.308Z</time>
      </trkpt>
      <trkpt lat="46.9156" lon="8.64139">
        <ele>828</ele>
        <time>2021-08-07T11:53:00.309Z</time>
      </trkpt>
      <trkpt lat="46.91561" lon="8.64138">
        <ele>828</ele>
        <time>2021-08-07T11:53:01.309Z</time>
      </trkpt>
      <trkpt lat="46.91562" lon="8.64136">
        <ele>828</ele>
        <time>2021-08-07T11:53:02.309Z</time>
      </trkpt>
      <trkpt lat="46.91562" lon="8.64135">
        <ele>828</ele>
        <time>2021-08-07T11:53:03.309Z</time>
      </trkpt>
      <trkpt lat="46.91563" lon="8.64134">
        <ele>827</ele>
        <time>2021-08-07T11:53:04.309Z</time>
      </trkpt>
      <trkpt lat="46.91564" lon="8.6413">
        <ele>827</ele>
        <time>2021-08-07T11:53:05.309Z</time>
      </trkpt>
      <trkpt lat="46.91566" lon="8.64126">
        <ele>827</ele>
        <time>2021-08-07T11:53:06.309Z</time>
      </trkpt>
      <trkpt lat="46.91568" lon="8.64121">
        <ele>827</ele>
        <time>2021-08-07T11:53:07.308Z</time>
      </trkpt>
      <trkpt lat="46.91571" lon="8.64115">
        <ele>827</ele>
        <time>2021-08-07T11:53:08.309Z</time>
      </trkpt>
      <trkpt lat="46.91572" lon="8.64109">
        <ele>827</ele>
        <time>2021-08-07T11:53:09.309Z</time>
      </trkpt>
      <trkpt lat="46.91573" lon="8.64107">
        <ele>827</ele>
        <time>2021-08-07T11:53:10.309Z</time>
      </trkpt>
      <trkpt lat="46.91574" lon="8.64102">
        <ele>827</ele>
        <time>2021-08-07T11:53:11.308Z</time>
      </trkpt>
      <trkpt lat="46.91575" lon="8.64097">
        <ele>827</ele>
        <time>2021-08-07T11:53:12.308Z</time>
      </trkpt>
      <trkpt lat="46.91572" lon="8.64094">
        <ele>827</ele>
        <time>2021-08-07T11:53:13.308Z</time>
      </trkpt>
      <trkpt lat="46.91573" lon="8.64091">
        <ele>827</ele>
        <time>2021-08-07T11:53:14.308Z</time>
      </trkpt>
      <trkpt lat="46.91572" lon="8.64087">
        <ele>827</ele>
        <time>2021-08-07T11:53:15.308Z</time>
      </trkpt>
      <trkpt lat="46.91569" lon="8.64086">
        <ele>827</ele>
        <time>2021-08-07T11:53:16.309Z</time>
      </trkpt>
      <trkpt lat="46.91568" lon="8.64085">
        <ele>827</ele>
        <time>2021-08-07T11:53:17.309Z</time>
      </trkpt>
      <trkpt lat="46.91567" lon="8.64086">
        <ele>827</ele>
        <time>2021-08-07T11:53:18.309Z</time>
      </trkpt>
      <trkpt lat="46.91566" lon="8.64085">
        <ele>827</ele>
        <time>2021-08-07T11:53:19.309Z</time>
      </trkpt>
      <trkpt lat="46.91565" lon="8.64085">
        <ele>827</ele>
        <time>2021-08-07T11:53:20.308Z</time>
      </trkpt>
      <trkpt lat="46.91564" lon="8.64084">
        <ele>828</ele>
        <time>2021-08-07T11:53:21.308Z</time>
      </trkpt>
      <trkpt lat="46.91564" lon="8.64084">
        <ele>828</ele>
        <time>2021-08-07T11:53:22.309Z</time>
      </trkpt>
      <trkpt lat="46.91564" lon="8.64082">
        <ele>828</ele>
        <time>2021-08-07T11:53:23.308Z</time>
      </trkpt>
      <trkpt lat="46.91564" lon="8.64081">
        <ele>828</ele>
        <time>2021-08-07T11:53:24.309Z</time>
      </trkpt>
      <trkpt lat="46.91564" lon="8.6408">
        <ele>828</ele>
        <time>2021-08-07T11:53:25.309Z</time>
      </trkpt>
      <trkpt lat="46.91564" lon="8.6408">
        <ele>829</ele>
        <time>2021-08-07T11:53:26.309Z</time>
      </trkpt>
      <trkpt lat="46.91564" lon="8.64079">
        <ele>829</ele>
        <time>2021-08-07T11:53:27.309Z</time>
      </trkpt>
      <trkpt lat="46.91564" lon="8.64078">
        <ele>829</ele>
        <time>2021-08-07T11:53:28.308Z</time>
      </trkpt>
      <trkpt lat="46.91565" lon="8.64076">
        <ele>830</ele>
        <time>2021-08-07T11:53:29.309Z</time>
      </trkpt>
      <trkpt lat="46.91566" lon="8.64075">
        <ele>830</ele>
        <time>2021-08-07T11:53:30.308Z</time>
      </trkpt>
      <trkpt lat="46.91567" lon="8.64075">
        <ele>830</ele>
        <time>2021-08-07T11:53:31.308Z</time>
      </trkpt>
      <trkpt lat="46.91567" lon="8.64078">
        <ele>831</ele>
        <time>2021-08-07T11:53:32.309Z</time>
      </trkpt>
      <trkpt lat="46.91567" lon="8.64083">
        <ele>831</ele>
        <time>2021-08-07T11:53:34.363Z</time>
      </trkpt>
      <trkpt lat="46.91565" lon="8.6409">
        <ele>831</ele>
        <time>2021-08-07T11:53:36.197Z</time>
      </trkpt>
      <trkpt lat="46.91563" lon="8.64097">
        <ele>832</ele>
        <time>2021-08-07T11:53:37.198Z</time>
      </trkpt>
      <trkpt lat="46.9156" lon="8.64104">
        <ele>832</ele>
        <time>2021-08-07T11:53:38.197Z</time>
      </trkpt>
      <trkpt lat="46.91558" lon="8.64107">
        <ele>833</ele>
        <time>2021-08-07T11:53:47.343Z</time>
      </trkpt>
      <trkpt lat="46.91558" lon="8.64108">
        <ele>833</ele>
        <time>2021-08-07T11:53:48.344Z</time>
      </trkpt>
      <trkpt lat="46.91554" lon="8.64108">
        <ele>833</ele>
        <time>2021-08-07T11:53:49.344Z</time>
      </trkpt>
      <trkpt lat="46.91552" lon="8.64107">
        <ele>834</ele>
        <time>2021-08-07T11:53:54.481Z</time>
      </trkpt>
      <trkpt lat="46.91549" lon="8.64107">
        <ele>834</ele>
        <time>2021-08-07T11:53:55.482Z</time>
      </trkpt>
      <trkpt lat="46.91548" lon="8.64108">
        <ele>834</ele>
        <time>2021-08-07T11:53:56.482Z</time>
      </trkpt>
      <trkpt lat="46.91547" lon="8.64109">
        <ele>834</ele>
        <time>2021-08-07T11:53:57.481Z</time>
      </trkpt>
      <trkpt lat="46.91548" lon="8.64109">
        <ele>835</ele>
        <time>2021-08-07T11:53:58.481Z</time>
      </trkpt>
      <trkpt lat="46.9155" lon="8.64108">
        <ele>835</ele>
        <time>2021-08-07T11:53:59.482Z</time>
      </trkpt>
      <trkpt lat="46.9155" lon="8.64108">
        <ele>835</ele>
        <time>2021-08-07T11:54:00.481Z</time>
      </trkpt>
      <trkpt lat="46.91549" lon="8.6411">
        <ele>835</ele>
        <time>2021-08-07T11:54:01.481Z</time>
      </trkpt>
      <trkpt lat="46.91549" lon="8.64111">
        <ele>836</ele>
        <time>2021-08-07T11:54:02.481Z</time>
      </trkpt>
      <trkpt lat="46.91546" lon="8.64111">
        <ele>836</ele>
        <time>2021-08-07T11:54:03.481Z</time>
      </trkpt>
      <trkpt lat="46.91545" lon="8.6411">
        <ele>836</ele>
        <time>2021-08-07T11:54:04.482Z</time>
      </trkpt>
      <trkpt lat="46.91543" lon="8.64109">
        <ele>836</ele>
        <time>2021-08-07T11:54:05.482Z</time>
      </trkpt>
      <trkpt lat="46.91541" lon="8.64108">
        <ele>836</ele>
        <time>2021-08-07T11:54:06.482Z</time>
      </trkpt>
      <trkpt lat="46.91541" lon="8.64105">
        <ele>836</ele>
        <time>2021-08-07T11:54:07.481Z</time>
      </trkpt>
      <trkpt lat="46.91542" lon="8.64103">
        <ele>836</ele>
        <time>2021-08-07T11:54:08.481Z</time>
      </trkpt>
      <trkpt lat="46.91543" lon="8.64102">
        <ele>836</ele>
        <time>2021-08-07T11:54:09.482Z</time>
      </trkpt>
      <trkpt lat="46.9154" lon="8.64106">
        <ele>837</ele>
        <time>2021-08-07T11:54:10.482Z</time>
      </trkpt>
      <trkpt lat="46.91539" lon="8.6411">
        <ele>837</ele>
        <time>2021-08-07T11:54:11.481Z</time>
      </trkpt>
      <trkpt lat="46.91539" lon="8.64112">
        <ele>837</ele>
        <time>2021-08-07T11:54:12.481Z</time>
      </trkpt>
      <trkpt lat="46.91539" lon="8.64111">
        <ele>837</ele>
        <time>2021-08-07T11:54:13.482Z</time>
      </trkpt>
      <trkpt lat="46.91539" lon="8.64111">
        <ele>837</ele>
        <time>2021-08-07T11:54:14.482Z</time>
      </trkpt>
      <trkpt lat="46.91539" lon="8.64112">
        <ele>837</ele>
        <time>2021-08-07T11:54:15.481Z</time>
      </trkpt>
      <trkpt lat="46.91541" lon="8.64111">
        <ele>838</ele>
        <time>2021-08-07T11:54:16.482Z</time>
      </trkpt>
      <trkpt lat="46.91544" lon="8.6411">
        <ele>838</ele>
        <time>2021-08-07T11:54:17.481Z</time>
      </trkpt>
      <trkpt lat="46.91545" lon="8.64108">
        <ele>838</ele>
        <time>2021-08-07T11:54:18.482Z</time>
      </trkpt>
      <trkpt lat="46.91546" lon="8.64107">
        <ele>838</ele>
        <time>2021-08-07T11:54:19.482Z</time>
      </trkpt>
      <trkpt lat="46.91547" lon="8.64106">
        <ele>838</ele>
        <time>2021-08-07T11:54:20.481Z</time>
      </trkpt>
      <trkpt lat="46.91548" lon="8.64104">
        <ele>838</ele>
        <time>2021-08-07T11:54:21.482Z</time>
      </trkpt>
      <trkpt lat="46.9155" lon="8.64102">
        <ele>838</ele>
        <time>2021-08-07T11:54:22.482Z</time>
      </trkpt>
      <trkpt lat="46.91551" lon="8.64101">
        <ele>838</ele>
        <time>2021-08-07T11:54:23.481Z</time>
      </trkpt>
      <trkpt lat="46.91553" lon="8.64099">
        <ele>838</ele>
        <time>2021-08-07T11:54:25.553Z</time>
      </trkpt>
      <trkpt lat="46.91556" lon="8.64098">
        <ele>838</ele>
        <time>2021-08-07T11:54:27.447Z</time>
      </trkpt>
      <trkpt lat="46.91557" lon="8.64098">
        <ele>838</ele>
        <time>2021-08-07T11:54:28.447Z</time>
      </trkpt>
      <trkpt lat="46.91558" lon="8.64096">
        <ele>838</ele>
        <time>2021-08-07T11:54:29.447Z</time>
      </trkpt>
      <trkpt lat="46.91561" lon="8.64094">
        <ele>838</ele>
        <time>2021-08-07T11:54:30.447Z</time>
      </trkpt>
      <trkpt lat="46.9156" lon="8.64091">
        <ele>838</ele>
        <time>2021-08-07T11:54:31.448Z</time>
      </trkpt>
      <trkpt lat="46.9156" lon="8.64091">
        <ele>838</ele>
        <time>2021-08-07T11:54:32.448Z</time>
      </trkpt>
      <trkpt lat="46.91563" lon="8.6409">
        <ele>837</ele>
        <time>2021-08-07T11:54:35.560Z</time>
      </trkpt>
      <trkpt lat="46.91563" lon="8.64088">
        <ele>837</ele>
        <time>2021-08-07T11:54:36.560Z</time>
      </trkpt>
      <trkpt lat="46.91564" lon="8.64085">
        <ele>837</ele>
        <time>2021-08-07T11:54:37.560Z</time>
      </trkpt>
      <trkpt lat="46.91563" lon="8.64083">
        <ele>837</ele>
        <time>2021-08-07T11:54:38.560Z</time>
      </trkpt>
      <trkpt lat="46.91563" lon="8.64081">
        <ele>836</ele>
        <time>2021-08-07T11:54:39.560Z</time>
      </trkpt>
      <trkpt lat="46.91563" lon="8.6408">
        <ele>836</ele>
        <time>2021-08-07T11:54:40.560Z</time>
      </trkpt>
      <trkpt lat="46.91563" lon="8.64079">
        <ele>836</ele>
        <time>2021-08-07T11:54:41.560Z</time>
      </trkpt>
      <trkpt lat="46.91563" lon="8.64078">
        <ele>836</ele>
        <time>2021-08-07T11:54:42.560Z</time>
      </trkpt>
      <trkpt lat="46.91566" lon="8.64077">
        <ele>836</ele>
        <time>2021-08-07T11:54:43.560Z</time>
      </trkpt>
      <trkpt lat="46.91568" lon="8.64077">
        <ele>836</ele>
        <time>2021-08-07T11:54:44.559Z</time>
      </trkpt>
      <trkpt lat="46.91569" lon="8.64075">
        <ele>835</ele>
        <time>2021-08-07T11:54:45.560Z</time>
      </trkpt>
      <trkpt lat="46.91569" lon="8.64074">
        <ele>835</ele>
        <time>2021-08-07T11:54:46.559Z</time>
      </trkpt>
      <trkpt lat="46.91566" lon="8.64074">
        <ele>835</ele>
        <time>2021-08-07T11:54:47.560Z</time>
      </trkpt>
      <trkpt lat="46.91564" lon="8.64073">
        <ele>835</ele>
        <time>2021-08-07T11:54:48.559Z</time>
      </trkpt>
      <trkpt lat="46.91564" lon="8.64073">
        <ele>834</ele>
        <time>2021-08-07T11:54:49.560Z</time>
      </trkpt>
      <trkpt lat="46.91562" lon="8.64072">
        <ele>834</ele>
        <time>2021-08-07T11:54:50.559Z</time>
      </trkpt>
      <trkpt lat="46.91562" lon="8.64072">
        <ele>834</ele>
        <time>2021-08-07T11:54:51.560Z</time>
      </trkpt>
      <trkpt lat="46.91562" lon="8.64071">
        <ele>833</ele>
        <time>2021-08-07T11:54:52.560Z</time>
      </trkpt>
      <trkpt lat="46.91562" lon="8.64071">
        <ele>833</ele>
        <time>2021-08-07T11:54:53.560Z</time>
      </trkpt>
      <trkpt lat="46.91561" lon="8.6407">
        <ele>833</ele>
        <time>2021-08-07T11:54:54.560Z</time>
      </trkpt>
      <trkpt lat="46.91561" lon="8.64069">
        <ele>833</ele>
        <time>2021-08-07T11:54:55.560Z</time>
      </trkpt>
      <trkpt lat="46.91562" lon="8.64068">
        <ele>832</ele>
        <time>2021-08-07T11:54:56.559Z</time>
      </trkpt>
      <trkpt lat="46.91563" lon="8.64068">
        <ele>832</ele>
        <time>2021-08-07T11:54:57.559Z</time>
      </trkpt>
      <trkpt lat="46.91563" lon="8.6407">
        <ele>832</ele>
        <time>2021-08-07T11:54:58.560Z</time>
      </trkpt>
      <trkpt lat="46.91562" lon="8.64072">
        <ele>832</ele>
        <time>2021-08-07T11:54:59.559Z</time>
      </trkpt>
      <trkpt lat="46.91561" lon="8.64075">
        <ele>831</ele>
        <time>2021-08-07T11:55:00.559Z</time>
      </trkpt>
      <trkpt lat="46.9156" lon="8.64078">
        <ele>831</ele>
        <time>2021-08-07T11:55:01.559Z</time>
      </trkpt>
      <trkpt lat="46.91559" lon="8.6408">
        <ele>831</ele>
        <time>2021-08-07T11:55:02.560Z</time>
      </trkpt>
      <trkpt lat="46.91559" lon="8.64081">
        <ele>830</ele>
        <time>2021-08-07T11:55:03.560Z</time>
      </trkpt>
      <trkpt lat="46.91558" lon="8.64081">
        <ele>830</ele>
        <time>2021-08-07T11:55:04.559Z</time>
      </trkpt>
      <trkpt lat="46.91556" lon="8.64081">
        <ele>830</ele>
        <time>2021-08-07T11:55:05.560Z</time>
      </trkpt>
      <trkpt lat="46.91555" lon="8.64081">
        <ele>829</ele>
        <time>2021-08-07T11:55:06.560Z</time>
      </trkpt>
      <trkpt lat="46.91553" lon="8.6408">
        <ele>829</ele>
        <time>2021-08-07T11:55:07.559Z</time>
      </trkpt>
      <trkpt lat="46.91551" lon="8.6408">
        <ele>829</ele>
        <time>2021-08-07T11:55:08.560Z</time>
      </trkpt>
      <trkpt lat="46.91548" lon="8.64081">
        <ele>829</ele>
        <time>2021-08-07T11:55:09.560Z</time>
      </trkpt>
      <trkpt lat="46.91545" lon="8.64084">
        <ele>829</ele>
        <time>2021-08-07T11:55:10.559Z</time>
      </trkpt>
      <trkpt lat="46.91543" lon="8.64087">
        <ele>829</ele>
        <time>2021-08-07T11:55:11.560Z</time>
      </trkpt>
      <trkpt lat="46.91543" lon="8.64087">
        <ele>829</ele>
        <time>2021-08-07T11:55:12.559Z</time>
      </trkpt>
      <trkpt lat="46.91543" lon="8.64086">
        <ele>829</ele>
        <time>2021-08-07T11:55:13.560Z</time>
      </trkpt>
      <trkpt lat="46.91544" lon="8.64087">
        <ele>829</ele>
        <time>2021-08-07T11:55:14.560Z</time>
      </trkpt>
      <trkpt lat="46.91543" lon="8.64088">
        <ele>829</ele>
        <time>2021-08-07T11:55:15.559Z</time>
      </trkpt>
      <trkpt lat="46.91543" lon="8.64088">
        <ele>829</ele>
        <time>2021-08-07T11:55:16.560Z</time>
      </trkpt>
      <trkpt lat="46.91542" lon="8.64088">
        <ele>829</ele>
        <time>2021-08-07T11:55:17.560Z</time>
      </trkpt>
      <trkpt lat="46.91542" lon="8.64088">
        <ele>829</ele>
        <time>2021-08-07T11:55:18.560Z</time>
      </trkpt>
      <trkpt lat="46.91541" lon="8.64088">
        <ele>829</ele>
        <time>2021-08-07T11:55:19.560Z</time>
      </trkpt>
      <trkpt lat="46.9154" lon="8.64088">
        <ele>829</ele>
        <time>2021-08-07T11:55:20.560Z</time>
      </trkpt>
      <trkpt lat="46.9154" lon="8.64088">
        <ele>829</ele>
        <time>2021-08-07T11:55:21.560Z</time>
      </trkpt>
      <trkpt lat="46.91539" lon="8.64088">
        <ele>829</ele>
        <time>2021-08-07T11:55:28.711Z</time>
      </trkpt>
      <trkpt lat="46.91539" lon="8.64087">
        <ele>829</ele>
        <time>2021-08-07T11:55:29.710Z</time>
      </trkpt>
      <trkpt lat="46.91539" lon="8.64086">
        <ele>829</ele>
        <time>2021-08-07T11:55:38.625Z</time>
      </trkpt>
      <trkpt lat="46.91538" lon="8.64084">
        <ele>829</ele>
        <time>2021-08-07T11:56:09.505Z</time>
      </trkpt>
      <trkpt lat="46.91538" lon="8.64083">
        <ele>829</ele>
        <time>2021-08-07T11:56:10.505Z</time>
      </trkpt>
      <trkpt lat="46.91539" lon="8.64081">
        <ele>829</ele>
        <time>2021-08-07T11:56:11.506Z</time>
      </trkpt>
      <trkpt lat="46.91539" lon="8.6408">
        <ele>829</ele>
        <time>2021-08-07T11:56:12.506Z</time>
      </trkpt>
      <trkpt lat="46.91538" lon="8.64081">
        <ele>829</ele>
        <time>2021-08-07T11:56:13.506Z</time>
      </trkpt>
      <trkpt lat="46.91538" lon="8.64083">
        <ele>828</ele>
        <time>2021-08-07T11:56:14.506Z</time>
      </trkpt>
      <trkpt lat="46.91539" lon="8.64086">
        <ele>828</ele>
        <time>2021-08-07T11:56:15.506Z</time>
      </trkpt>
      <trkpt lat="46.91543" lon="8.64085">
        <ele>828</ele>
        <time>2021-08-07T11:56:16.506Z</time>
      </trkpt>
      <trkpt lat="46.91545" lon="8.64083">
        <ele>828</ele>
        <time>2021-08-07T11:56:38.580Z</time>
      </trkpt>
      <trkpt lat="46.91544" lon="8.64081">
        <ele>827</ele>
        <time>2021-08-07T11:56:39.580Z</time>
      </trkpt>
      <trkpt lat="46.91544" lon="8.6408">
        <ele>827</ele>
        <time>2021-08-07T11:56:40.580Z</time>
      </trkpt>
      <trkpt lat="46.91544" lon="8.6408">
        <ele>827</ele>
        <time>2021-08-07T11:56:48.711Z</time>
      </trkpt>
      <trkpt lat="46.91544" lon="8.6408">
        <ele>827</ele>
        <time>2021-08-07T11:56:49.712Z</time>
      </trkpt>
      <trkpt lat="46.91543" lon="8.64078">
        <ele>827</ele>
        <time>2021-08-07T11:57:00.593Z</time>
      </trkpt>
      <trkpt lat="46.91543" lon="8.64078">
        <ele>826</ele>
        <time>2021-08-07T11:57:01.592Z</time>
      </trkpt>
      <trkpt lat="46.91544" lon="8.64078">
        <ele>826</ele>
        <time>2021-08-07T11:57:04.453Z</time>
      </trkpt>
      <trkpt lat="46.91544" lon="8.64076">
        <ele>826</ele>
        <time>2021-08-07T11:57:05.454Z</time>
      </trkpt>
      <trkpt lat="46.91544" lon="8.64076">
        <ele>826</ele>
        <time>2021-08-07T11:57:06.453Z</time>
      </trkpt>
      <trkpt lat="46.91545" lon="8.64075">
        <ele>826</ele>
        <time>2021-08-07T11:57:07.454Z</time>
      </trkpt>
      <trkpt lat="46.91545" lon="8.64074">
        <ele>826</ele>
        <time>2021-08-07T11:57:08.454Z</time>
      </trkpt>
      <trkpt lat="46.91545" lon="8.64073">
        <ele>825</ele>
        <time>2021-08-07T11:57:09.454Z</time>
      </trkpt>
      <trkpt lat="46.91544" lon="8.64072">
        <ele>825</ele>
        <time>2021-08-07T11:57:10.454Z</time>
      </trkpt>
      <trkpt lat="46.91544" lon="8.6407">
        <ele>825</ele>
        <time>2021-08-07T11:57:11.453Z</time>
      </trkpt>
      <trkpt lat="46.91543" lon="8.64066">
        <ele>825</ele>
        <time>2021-08-07T11:57:12.453Z</time>
      </trkpt>
      <trkpt lat="46.91543" lon="8.64062">
        <ele>825</ele>
        <time>2021-08-07T11:57:13.454Z</time>
      </trkpt>
      <trkpt lat="46.91543" lon="8.64064">
        <ele>825</ele>
        <time>2021-08-07T11:57:14.453Z</time>
      </trkpt>
      <trkpt lat="46.91545" lon="8.64063">
        <ele>825</ele>
        <time>2021-08-07T11:57:15.454Z</time>
      </trkpt>
      <trkpt lat="46.91546" lon="8.64064">
        <ele>824</ele>
        <time>2021-08-07T11:57:16.454Z</time>
      </trkpt>
      <trkpt lat="46.91544" lon="8.64063">
        <ele>824</ele>
        <time>2021-08-07T11:57:17.453Z</time>
      </trkpt>
      <trkpt lat="46.9154" lon="8.64061">
        <ele>824</ele>
        <time>2021-08-07T11:57:18.453Z</time>
      </trkpt>
      <trkpt lat="46.91537" lon="8.64058">
        <ele>824</ele>
        <time>2021-08-07T11:57:19.453Z</time>
      </trkpt>
      <trkpt lat="46.91535" lon="8.64056">
        <ele>824</ele>
        <time>2021-08-07T11:57:20.454Z</time>
      </trkpt>
      <trkpt lat="46.91535" lon="8.64053">
        <ele>824</ele>
        <time>2021-08-07T11:57:21.454Z</time>
      </trkpt>
      <trkpt lat="46.91534" lon="8.64052">
        <ele>824</ele>
        <time>2021-08-07T11:57:22.453Z</time>
      </trkpt>
      <trkpt lat="46.91533" lon="8.64051">
        <ele>824</ele>
        <time>2021-08-07T11:57:23.454Z</time>
      </trkpt>
      <trkpt lat="46.91531" lon="8.64051">
        <ele>824</ele>
        <time>2021-08-07T11:57:24.453Z</time>
      </trkpt>
      <trkpt lat="46.91531" lon="8.6405">
        <ele>824</ele>
        <time>2021-08-07T11:57:25.453Z</time>
      </trkpt>
      <trkpt lat="46.9153" lon="8.64048">
        <ele>823</ele>
        <time>2021-08-07T11:57:26.453Z</time>
      </trkpt>
      <trkpt lat="46.9153" lon="8.64048">
        <ele>823</ele>
        <time>2021-08-07T11:57:27.453Z</time>
      </trkpt>
      <trkpt lat="46.9153" lon="8.64047">
        <ele>823</ele>
        <time>2021-08-07T11:57:28.453Z</time>
      </trkpt>
      <trkpt lat="46.9153" lon="8.64046">
        <ele>823</ele>
        <time>2021-08-07T11:57:36.468Z</time>
      </trkpt>
      <trkpt lat="46.91529" lon="8.64046">
        <ele>823</ele>
        <time>2021-08-07T11:57:37.468Z</time>
      </trkpt>
      <trkpt lat="46.91528" lon="8.64046">
        <ele>822</ele>
        <time>2021-08-07T11:57:38.468Z</time>
      </trkpt>
      <trkpt lat="46.91528" lon="8.64043">
        <ele>822</ele>
        <time>2021-08-07T11:57:39.468Z</time>
      </trkpt>
      <trkpt lat="46.91528" lon="8.64041">
        <ele>822</ele>
        <time>2021-08-07T11:57:40.468Z</time>
      </trkpt>
      <trkpt lat="46.91528" lon="8.64038">
        <ele>822</ele>
        <time>2021-08-07T11:57:41.469Z</time>
      </trkpt>
      <trkpt lat="46.91527" lon="8.64037">
        <ele>822</ele>
        <time>2021-08-07T11:57:42.469Z</time>
      </trkpt>
      <trkpt lat="46.91526" lon="8.64037">
        <ele>822</ele>
        <time>2021-08-07T11:57:43.469Z</time>
      </trkpt>
      <trkpt lat="46.91525" lon="8.64037">
        <ele>822</ele>
        <time>2021-08-07T11:57:44.468Z</time>
      </trkpt>
      <trkpt lat="46.91523" lon="8.64038">
        <ele>822</ele>
        <time>2021-08-07T11:57:45.468Z</time>
      </trkpt>
      <trkpt lat="46.91522" lon="8.64037">
        <ele>822</ele>
        <time>2021-08-07T11:57:46.468Z</time>
      </trkpt>
      <trkpt lat="46.91522" lon="8.64037">
        <ele>821</ele>
        <time>2021-08-07T11:57:47.468Z</time>
      </trkpt>
      <trkpt lat="46.91522" lon="8.64037">
        <ele>821</ele>
        <time>2021-08-07T11:57:48.468Z</time>
      </trkpt>
      <trkpt lat="46.91522" lon="8.64037">
        <ele>821</ele>
        <time>2021-08-07T11:57:49.468Z</time>
      </trkpt>
      <trkpt lat="46.91522" lon="8.64036">
        <ele>821</ele>
        <time>2021-08-07T11:57:50.469Z</time>
      </trkpt>
      <trkpt lat="46.91514" lon="8.64032">
        <ele>821</ele>
        <time>2021-08-07T11:57:51.469Z</time>
      </trkpt>
      <trkpt lat="46.91514" lon="8.6403">
        <ele>821</ele>
        <time>2021-08-07T11:57:52.469Z</time>
      </trkpt>
      <trkpt lat="46.91514" lon="8.64029">
        <ele>822</ele>
        <time>2021-08-07T11:57:53.468Z</time>
      </trkpt>
      <trkpt lat="46.91513" lon="8.64027">
        <ele>822</ele>
        <time>2021-08-07T11:57:54.469Z</time>
      </trkpt>
      <trkpt lat="46.91512" lon="8.64026">
        <ele>822</ele>
        <time>2021-08-07T11:57:55.469Z</time>
      </trkpt>
      <trkpt lat="46.91512" lon="8.64025">
        <ele>822</ele>
        <time>2021-08-07T11:57:56.468Z</time>
      </trkpt>
      <trkpt lat="46.91511" lon="8.64024">
        <ele>822</ele>
        <time>2021-08-07T11:57:57.468Z</time>
      </trkpt>
      <trkpt lat="46.9151" lon="8.64022">
        <ele>822</ele>
        <time>2021-08-07T11:57:58.468Z</time>
      </trkpt>
      <trkpt lat="46.91509" lon="8.6402">
        <ele>822</ele>
        <time>2021-08-07T11:57:59.468Z</time>
      </trkpt>
      <trkpt lat="46.91509" lon="8.64019">
        <ele>822</ele>
        <time>2021-08-07T11:58:00.469Z</time>
      </trkpt>
      <trkpt lat="46.91509" lon="8.64019">
        <ele>822</ele>
        <time>2021-08-07T11:58:01.469Z</time>
      </trkpt>
      <trkpt lat="46.91509" lon="8.64019">
        <ele>822</ele>
        <time>2021-08-07T11:58:02.468Z</time>
      </trkpt>
      <trkpt lat="46.91508" lon="8.64019">
        <ele>822</ele>
        <time>2021-08-07T11:58:03.469Z</time>
      </trkpt>
      <trkpt lat="46.91509" lon="8.64018">
        <ele>822</ele>
        <time>2021-08-07T11:58:04.469Z</time>
      </trkpt>
      <trkpt lat="46.91509" lon="8.64018">
        <ele>822</ele>
        <time>2021-08-07T11:58:05.468Z</time>
      </trkpt>
      <trkpt lat="46.91509" lon="8.64019">
        <ele>822</ele>
        <time>2021-08-07T11:58:06.469Z</time>
      </trkpt>
      <trkpt lat="46.91508" lon="8.64022">
        <ele>823</ele>
        <time>2021-08-07T11:58:07.469Z</time>
      </trkpt>
      <trkpt lat="46.91507" lon="8.64024">
        <ele>823</ele>
        <time>2021-08-07T11:58:08.469Z</time>
      </trkpt>
      <trkpt lat="46.91507" lon="8.64025">
        <ele>823</ele>
        <time>2021-08-07T11:58:09.469Z</time>
      </trkpt>
      <trkpt lat="46.91505" lon="8.64027">
        <ele>823</ele>
        <time>2021-08-07T11:58:10.469Z</time>
      </trkpt>
      <trkpt lat="46.91504" lon="8.64028">
        <ele>823</ele>
        <time>2021-08-07T11:58:11.468Z</time>
      </trkpt>
      <trkpt lat="46.91503" lon="8.64029">
        <ele>824</ele>
        <time>2021-08-07T11:58:12.469Z</time>
      </trkpt>
      <trkpt lat="46.91503" lon="8.64032">
        <ele>824</ele>
        <time>2021-08-07T11:58:13.469Z</time>
      </trkpt>
      <trkpt lat="46.91504" lon="8.64033">
        <ele>824</ele>
        <time>2021-08-07T11:58:14.468Z</time>
      </trkpt>
      <trkpt lat="46.91505" lon="8.64032">
        <ele>824</ele>
        <time>2021-08-07T11:58:15.468Z</time>
      </trkpt>
      <trkpt lat="46.91506" lon="8.6403">
        <ele>824</ele>
        <time>2021-08-07T11:58:16.469Z</time>
      </trkpt>
      <trkpt lat="46.91506" lon="8.64029">
        <ele>824</ele>
        <time>2021-08-07T11:58:17.469Z</time>
      </trkpt>
      <trkpt lat="46.91506" lon="8.64028">
        <ele>824</ele>
        <time>2021-08-07T11:58:18.469Z</time>
      </trkpt>
      <trkpt lat="46.91505" lon="8.64026">
        <ele>824</ele>
        <time>2021-08-07T11:58:19.468Z</time>
      </trkpt>
      <trkpt lat="46.91505" lon="8.64024">
        <ele>824</ele>
        <time>2021-08-07T11:58:20.469Z</time>
      </trkpt>
      <trkpt lat="46.91504" lon="8.64023">
        <ele>823</ele>
        <time>2021-08-07T11:58:21.468Z</time>
      </trkpt>
      <trkpt lat="46.91503" lon="8.64022">
        <ele>823</ele>
        <time>2021-08-07T11:58:22.469Z</time>
      </trkpt>
      <trkpt lat="46.91504" lon="8.6402">
        <ele>823</ele>
        <time>2021-08-07T11:58:23.469Z</time>
      </trkpt>
      <trkpt lat="46.91503" lon="8.64019">
        <ele>823</ele>
        <time>2021-08-07T11:58:24.469Z</time>
      </trkpt>
      <trkpt lat="46.91502" lon="8.64018">
        <ele>823</ele>
        <time>2021-08-07T11:58:25.469Z</time>
      </trkpt>
      <trkpt lat="46.91501" lon="8.64017">
        <ele>822</ele>
        <time>2021-08-07T11:58:26.469Z</time>
      </trkpt>
      <trkpt lat="46.91499" lon="8.64015">
        <ele>822</ele>
        <time>2021-08-07T11:58:27.469Z</time>
      </trkpt>
      <trkpt lat="46.91497" lon="8.64014">
        <ele>822</ele>
        <time>2021-08-07T11:58:28.469Z</time>
      </trkpt>
      <trkpt lat="46.91495" lon="8.64007">
        <ele>822</ele>
        <time>2021-08-07T11:58:29.469Z</time>
      </trkpt>
      <trkpt lat="46.91496" lon="8.64005">
        <ele>821</ele>
        <time>2021-08-07T11:58:30.469Z</time>
      </trkpt>
      <trkpt lat="46.91498" lon="8.64004">
        <ele>821</ele>
        <time>2021-08-07T11:58:31.469Z</time>
      </trkpt>
      <trkpt lat="46.91499" lon="8.64004">
        <ele>821</ele>
        <time>2021-08-07T11:58:32.469Z</time>
      </trkpt>
      <trkpt lat="46.91498" lon="8.64004">
        <ele>821</ele>
        <time>2021-08-07T11:58:33.468Z</time>
      </trkpt>
      <trkpt lat="46.91497" lon="8.64003">
        <ele>821</ele>
        <time>2021-08-07T11:58:34.469Z</time>
      </trkpt>
      <trkpt lat="46.91496" lon="8.64002">
        <ele>820</ele>
        <time>2021-08-07T11:58:35.468Z</time>
      </trkpt>
      <trkpt lat="46.91496" lon="8.64001">
        <ele>820</ele>
        <time>2021-08-07T11:58:36.469Z</time>
      </trkpt>
      <trkpt lat="46.91497" lon="8.64">
        <ele>820</ele>
        <time>2021-08-07T11:58:37.468Z</time>
      </trkpt>
      <trkpt lat="46.91497" lon="8.64">
        <ele>820</ele>
        <time>2021-08-07T11:58:38.469Z</time>
      </trkpt>
      <trkpt lat="46.91498" lon="8.63999">
        <ele>820</ele>
        <time>2021-08-07T11:58:39.469Z</time>
      </trkpt>
      <trkpt lat="46.91499" lon="8.63999">
        <ele>820</ele>
        <time>2021-08-07T11:58:40.469Z</time>
      </trkpt>
      <trkpt lat="46.915" lon="8.63998">
        <ele>820</ele>
        <time>2021-08-07T11:58:41.469Z</time>
      </trkpt>
      <trkpt lat="46.91502" lon="8.63995">
        <ele>820</ele>
        <time>2021-08-07T11:58:42.469Z</time>
      </trkpt>
      <trkpt lat="46.91503" lon="8.63993">
        <ele>820</ele>
        <time>2021-08-07T11:58:43.468Z</time>
      </trkpt>
      <trkpt lat="46.91504" lon="8.63994">
        <ele>820</ele>
        <time>2021-08-07T11:58:44.469Z</time>
      </trkpt>
      <trkpt lat="46.91504" lon="8.63995">
        <ele>820</ele>
        <time>2021-08-07T11:58:45.469Z</time>
      </trkpt>
      <trkpt lat="46.91504" lon="8.63998">
        <ele>820</ele>
        <time>2021-08-07T11:58:46.469Z</time>
      </trkpt>
      <trkpt lat="46.91505" lon="8.63998">
        <ele>819</ele>
        <time>2021-08-07T11:58:47.468Z</time>
      </trkpt>
      <trkpt lat="46.91504" lon="8.63998">
        <ele>819</ele>
        <time>2021-08-07T11:58:48.469Z</time>
      </trkpt>
      <trkpt lat="46.91503" lon="8.63998">
        <ele>819</ele>
        <time>2021-08-07T11:58:49.469Z</time>
      </trkpt>
      <trkpt lat="46.91502" lon="8.63999">
        <ele>819</ele>
        <time>2021-08-07T11:58:50.469Z</time>
      </trkpt>
      <trkpt lat="46.915" lon="8.64">
        <ele>819</ele>
        <time>2021-08-07T11:58:51.469Z</time>
      </trkpt>
      <trkpt lat="46.91499" lon="8.64">
        <ele>819</ele>
        <time>2021-08-07T11:58:52.468Z</time>
      </trkpt>
      <trkpt lat="46.91498" lon="8.64">
        <ele>819</ele>
        <time>2021-08-07T11:58:53.468Z</time>
      </trkpt>
      <trkpt lat="46.91498" lon="8.63999">
        <ele>819</ele>
        <time>2021-08-07T11:58:54.469Z</time>
      </trkpt>
      <trkpt lat="46.91493" lon="8.63951">
        <ele>810</ele>
        <time>2021-08-07T11:58:55.470Z</time>
      </trkpt>
      <trkpt lat="46.91491" lon="8.6395">
        <ele>810</ele>
        <time>2021-08-07T11:58:56.469Z</time>
      </trkpt>
      <trkpt lat="46.91492" lon="8.6395">
        <ele>809</ele>
        <time>2021-08-07T11:58:57.469Z</time>
      </trkpt>
      <trkpt lat="46.9149" lon="8.63949">
        <ele>809</ele>
        <time>2021-08-07T11:58:58.469Z</time>
      </trkpt>
      <trkpt lat="46.91489" lon="8.63949">
        <ele>808</ele>
        <time>2021-08-07T11:58:59.470Z</time>
      </trkpt>
      <trkpt lat="46.9149" lon="8.63948">
        <ele>807</ele>
        <time>2021-08-07T11:59:00.470Z</time>
      </trkpt>
      <trkpt lat="46.91491" lon="8.63944">
        <ele>807</ele>
        <time>2021-08-07T11:59:01.470Z</time>
      </trkpt>
      <trkpt lat="46.91492" lon="8.63941">
        <ele>806</ele>
        <time>2021-08-07T11:59:02.470Z</time>
      </trkpt>
      <trkpt lat="46.91492" lon="8.63938">
        <ele>806</ele>
        <time>2021-08-07T11:59:03.470Z</time>
      </trkpt>
      <trkpt lat="46.9149" lon="8.63937">
        <ele>806</ele>
        <time>2021-08-07T11:59:04.469Z</time>
      </trkpt>
      <trkpt lat="46.91489" lon="8.63937">
        <ele>805</ele>
        <time>2021-08-07T11:59:05.469Z</time>
      </trkpt>
      <trkpt lat="46.91488" lon="8.63937">
        <ele>805</ele>
        <time>2021-08-07T11:59:06.469Z</time>
      </trkpt>
      <trkpt lat="46.91487" lon="8.63935">
        <ele>804</ele>
        <time>2021-08-07T11:59:07.470Z</time>
      </trkpt>
      <trkpt lat="46.91487" lon="8.63934">
        <ele>804</ele>
        <time>2021-08-07T11:59:08.470Z</time>
      </trkpt>
      <trkpt lat="46.91487" lon="8.63933">
        <ele>804</ele>
        <time>2021-08-07T11:59:09.470Z</time>
      </trkpt>
      <trkpt lat="46.91487" lon="8.63932">
        <ele>804</ele>
        <time>2021-08-07T11:59:10.469Z</time>
      </trkpt>
      <trkpt lat="46.91486" lon="8.63932">
        <ele>804</ele>
        <time>2021-08-07T11:59:11.469Z</time>
      </trkpt>
      <trkpt lat="46.91486" lon="8.63932">
        <ele>804</ele>
        <time>2021-08-07T11:59:12.470Z</time>
      </trkpt>
      <trkpt lat="46.91485" lon="8.63931">
        <ele>804</ele>
        <time>2021-08-07T11:59:13.469Z</time>
      </trkpt>
      <trkpt lat="46.91485" lon="8.63929">
        <ele>804</ele>
        <time>2021-08-07T11:59:14.470Z</time>
      </trkpt>
      <trkpt lat="46.91484" lon="8.63927">
        <ele>804</ele>
        <time>2021-08-07T11:59:15.469Z</time>
      </trkpt>
      <trkpt lat="46.91484" lon="8.63925">
        <ele>803</ele>
        <time>2021-08-07T11:59:16.469Z</time>
      </trkpt>
      <trkpt lat="46.91484" lon="8.63923">
        <ele>803</ele>
        <time>2021-08-07T11:59:17.470Z</time>
      </trkpt>
      <trkpt lat="46.91483" lon="8.63922">
        <ele>803</ele>
        <time>2021-08-07T11:59:18.470Z</time>
      </trkpt>
      <trkpt lat="46.91483" lon="8.63919">
        <ele>803</ele>
        <time>2021-08-07T11:59:19.470Z</time>
      </trkpt>
      <trkpt lat="46.91483" lon="8.63918">
        <ele>803</ele>
        <time>2021-08-07T11:59:20.470Z</time>
      </trkpt>
      <trkpt lat="46.91483" lon="8.63916">
        <ele>803</ele>
        <time>2021-08-07T11:59:21.469Z</time>
      </trkpt>
      <trkpt lat="46.91484" lon="8.63916">
        <ele>803</ele>
        <time>2021-08-07T11:59:22.470Z</time>
      </trkpt>
      <trkpt lat="46.91485" lon="8.63913">
        <ele>803</ele>
        <time>2021-08-07T11:59:23.470Z</time>
      </trkpt>
      <trkpt lat="46.91485" lon="8.63913">
        <ele>803</ele>
        <time>2021-08-07T11:59:24.469Z</time>
      </trkpt>
      <trkpt lat="46.91483" lon="8.63912">
        <ele>803</ele>
        <time>2021-08-07T11:59:25.469Z</time>
      </trkpt>
      <trkpt lat="46.91483" lon="8.63913">
        <ele>803</ele>
        <time>2021-08-07T11:59:26.470Z</time>
      </trkpt>
      <trkpt lat="46.91485" lon="8.63911">
        <ele>803</ele>
        <time>2021-08-07T11:59:27.469Z</time>
      </trkpt>
      <trkpt lat="46.9148" lon="8.63911">
        <ele>803</ele>
        <time>2021-08-07T11:59:28.470Z</time>
      </trkpt>
      <trkpt lat="46.9148" lon="8.63909">
        <ele>803</ele>
        <time>2021-08-07T11:59:29.469Z</time>
      </trkpt>
      <trkpt lat="46.91479" lon="8.63908">
        <ele>803</ele>
        <time>2021-08-07T11:59:30.470Z</time>
      </trkpt>
      <trkpt lat="46.91478" lon="8.63905">
        <ele>802</ele>
        <time>2021-08-07T11:59:31.470Z</time>
      </trkpt>
      <trkpt lat="46.91477" lon="8.63902">
        <ele>802</ele>
        <time>2021-08-07T11:59:32.470Z</time>
      </trkpt>
      <trkpt lat="46.91476" lon="8.639">
        <ele>802</ele>
        <time>2021-08-07T11:59:33.470Z</time>
      </trkpt>
      <trkpt lat="46.91477" lon="8.63899">
        <ele>802</ele>
        <time>2021-08-07T11:59:34.470Z</time>
      </trkpt>
      <trkpt lat="46.91478" lon="8.63897">
        <ele>802</ele>
        <time>2021-08-07T11:59:35.470Z</time>
      </trkpt>
      <trkpt lat="46.91476" lon="8.63896">
        <ele>802</ele>
        <time>2021-08-07T11:59:36.469Z</time>
      </trkpt>
      <trkpt lat="46.91473" lon="8.63897">
        <ele>802</ele>
        <time>2021-08-07T11:59:37.469Z</time>
      </trkpt>
      <trkpt lat="46.91471" lon="8.63897">
        <ele>802</ele>
        <time>2021-08-07T11:59:38.469Z</time>
      </trkpt>
      <trkpt lat="46.91471" lon="8.63896">
        <ele>802</ele>
        <time>2021-08-07T11:59:39.469Z</time>
      </trkpt>
      <trkpt lat="46.91469" lon="8.63894">
        <ele>801</ele>
        <time>2021-08-07T11:59:40.470Z</time>
      </trkpt>
      <trkpt lat="46.91466" lon="8.63896">
        <ele>801</ele>
        <time>2021-08-07T11:59:41.470Z</time>
      </trkpt>
      <trkpt lat="46.91464" lon="8.63897">
        <ele>801</ele>
        <time>2021-08-07T11:59:42.470Z</time>
      </trkpt>
      <trkpt lat="46.91463" lon="8.63896">
        <ele>801</ele>
        <time>2021-08-07T11:59:43.469Z</time>
      </trkpt>
      <trkpt lat="46.91463" lon="8.63895">
        <ele>801</ele>
        <time>2021-08-07T11:59:44.470Z</time>
      </trkpt>
      <trkpt lat="46.91462" lon="8.63893">
        <ele>801</ele>
        <time>2021-08-07T11:59:45.469Z</time>
      </trkpt>
      <trkpt lat="46.91463" lon="8.63891">
        <ele>801</ele>
        <time>2021-08-07T11:59:46.470Z</time>
      </trkpt>
      <trkpt lat="46.91463" lon="8.63889">
        <ele>801</ele>
        <time>2021-08-07T11:59:47.469Z</time>
      </trkpt>
      <trkpt lat="46.91463" lon="8.63888">
        <ele>801</ele>
        <time>2021-08-07T11:59:48.469Z</time>
      </trkpt>
      <trkpt lat="46.91463" lon="8.63888">
        <ele>801</ele>
        <time>2021-08-07T11:59:49.470Z</time>
      </trkpt>
      <trkpt lat="46.91463" lon="8.63887">
        <ele>801</ele>
        <time>2021-08-07T11:59:50.469Z</time>
      </trkpt>
      <trkpt lat="46.91462" lon="8.63889">
        <ele>801</ele>
        <time>2021-08-07T11:59:51.469Z</time>
      </trkpt>
      <trkpt lat="46.9146" lon="8.63892">
        <ele>801</ele>
        <time>2021-08-07T11:59:52.469Z</time>
      </trkpt>
      <trkpt lat="46.9146" lon="8.63894">
        <ele>801</ele>
        <time>2021-08-07T11:59:53.470Z</time>
      </trkpt>
      <trkpt lat="46.9146" lon="8.63895">
        <ele>801</ele>
        <time>2021-08-07T11:59:54.470Z</time>
      </trkpt>
      <trkpt lat="46.9146" lon="8.63895">
        <ele>801</ele>
        <time>2021-08-07T11:59:55.470Z</time>
      </trkpt>
      <trkpt lat="46.91461" lon="8.63895">
        <ele>801</ele>
        <time>2021-08-07T11:59:56.470Z</time>
      </trkpt>
      <trkpt lat="46.91461" lon="8.63895">
        <ele>801</ele>
        <time>2021-08-07T11:59:57.470Z</time>
      </trkpt>
      <trkpt lat="46.91461" lon="8.63894">
        <ele>801</ele>
        <time>2021-08-07T11:59:58.470Z</time>
      </trkpt>
      <trkpt lat="46.91462" lon="8.63893">
        <ele>801</ele>
        <time>2021-08-07T11:59:59.470Z</time>
      </trkpt>
      <trkpt lat="46.91462" lon="8.63893">
        <ele>801</ele>
        <time>2021-08-07T12:00:00.470Z</time>
      </trkpt>
      <trkpt lat="46.91462" lon="8.63892">
        <ele>801</ele>
        <time>2021-08-07T12:00:01.469Z</time>
      </trkpt>
      <trkpt lat="46.91462" lon="8.63892">
        <ele>801</ele>
        <time>2021-08-07T12:00:02.470Z</time>
      </trkpt>
      <trkpt lat="46.91462" lon="8.63892">
        <ele>801</ele>
        <time>2021-08-07T12:00:03.469Z</time>
      </trkpt>
      <trkpt lat="46.91462" lon="8.63893">
        <ele>802</ele>
        <time>2021-08-07T12:00:04.470Z</time>
      </trkpt>
      <trkpt lat="46.91462" lon="8.63894">
        <ele>802</ele>
        <time>2021-08-07T12:00:05.470Z</time>
      </trkpt>
      <trkpt lat="46.91461" lon="8.63894">
        <ele>802</ele>
        <time>2021-08-07T12:00:06.469Z</time>
      </trkpt>
      <trkpt lat="46.91462" lon="8.63894">
        <ele>802</ele>
        <time>2021-08-07T12:00:07.470Z</time>
      </trkpt>
      <trkpt lat="46.91462" lon="8.63894">
        <ele>802</ele>
        <time>2021-08-07T12:00:08.470Z</time>
      </trkpt>
      <trkpt lat="46.91462" lon="8.63894">
        <ele>802</ele>
        <time>2021-08-07T12:00:09.470Z</time>
      </trkpt>
      <trkpt lat="46.91462" lon="8.63892">
        <ele>802</ele>
        <time>2021-08-07T12:00:10.470Z</time>
      </trkpt>
      <trkpt lat="46.91462" lon="8.63891">
        <ele>802</ele>
        <time>2021-08-07T12:00:11.470Z</time>
      </trkpt>
      <trkpt lat="46.91463" lon="8.63891">
        <ele>802</ele>
        <time>2021-08-07T12:00:12.470Z</time>
      </trkpt>
      <trkpt lat="46.91462" lon="8.63893">
        <ele>802</ele>
        <time>2021-08-07T12:00:13.469Z</time>
      </trkpt>
      <trkpt lat="46.9146" lon="8.63896">
        <ele>803</ele>
        <time>2021-08-07T12:00:14.469Z</time>
      </trkpt>
      <trkpt lat="46.91458" lon="8.63899">
        <ele>803</ele>
        <time>2021-08-07T12:00:15.470Z</time>
      </trkpt>
      <trkpt lat="46.91456" lon="8.63901">
        <ele>803</ele>
        <time>2021-08-07T12:00:16.470Z</time>
      </trkpt>
      <trkpt lat="46.91456" lon="8.63902">
        <ele>803</ele>
        <time>2021-08-07T12:00:17.469Z</time>
      </trkpt>
      <trkpt lat="46.91457" lon="8.63902">
        <ele>803</ele>
        <time>2021-08-07T12:00:18.470Z</time>
      </trkpt>
      <trkpt lat="46.91459" lon="8.63903">
        <ele>803</ele>
        <time>2021-08-07T12:00:19.469Z</time>
      </trkpt>
      <trkpt lat="46.91461" lon="8.63903">
        <ele>803</ele>
        <time>2021-08-07T12:00:26.592Z</time>
      </trkpt>
      <trkpt lat="46.91461" lon="8.63902">
        <ele>803</ele>
        <time>2021-08-07T12:00:27.592Z</time>
      </trkpt>
      <trkpt lat="46.91461" lon="8.63902">
        <ele>803</ele>
        <time>2021-08-07T12:00:35.326Z</time>
      </trkpt>
      <trkpt lat="46.91461" lon="8.63902">
        <ele>803</ele>
        <time>2021-08-07T12:00:36.326Z</time>
      </trkpt>
      <trkpt lat="46.91461" lon="8.63902">
        <ele>803</ele>
        <time>2021-08-07T12:00:37.326Z</time>
      </trkpt>
      <trkpt lat="46.91461" lon="8.63902">
        <ele>803</ele>
        <time>2021-08-07T12:00:41.430Z</time>
      </trkpt>
      <trkpt lat="46.91461" lon="8.63902">
        <ele>803</ele>
        <time>2021-08-07T12:00:42.430Z</time>
      </trkpt>
      <trkpt lat="46.91461" lon="8.63902">
        <ele>803</ele>
        <time>2021-08-07T12:00:43.430Z</time>
      </trkpt>
      <trkpt lat="46.91462" lon="8.63902">
        <ele>803</ele>
        <time>2021-08-07T12:00:44.430Z</time>
      </trkpt>
      <trkpt lat="46.91463" lon="8.63902">
        <ele>803</ele>
        <time>2021-08-07T12:00:45.430Z</time>
      </trkpt>
      <trkpt lat="46.91463" lon="8.63902">
        <ele>803</ele>
        <time>2021-08-07T12:00:46.429Z</time>
      </trkpt>
      <trkpt lat="46.91463" lon="8.63902">
        <ele>803</ele>
        <time>2021-08-07T12:00:47.429Z</time>
      </trkpt>
      <trkpt lat="46.91463" lon="8.63901">
        <ele>803</ele>
        <time>2021-08-07T12:00:53.617Z</time>
      </trkpt>
      <trkpt lat="46.91464" lon="8.639">
        <ele>803</ele>
        <time>2021-08-07T12:00:54.617Z</time>
      </trkpt>
      <trkpt lat="46.9147" lon="8.63899">
        <ele>803</ele>
        <time>2021-08-07T12:00:55.616Z</time>
      </trkpt>
      <trkpt lat="46.9147" lon="8.63897">
        <ele>803</ele>
        <time>2021-08-07T12:00:56.617Z</time>
      </trkpt>
      <trkpt lat="46.91468" lon="8.63894">
        <ele>803</ele>
        <time>2021-08-07T12:00:57.617Z</time>
      </trkpt>
      <trkpt lat="46.91468" lon="8.63895">
        <ele>803</ele>
        <time>2021-08-07T12:00:58.617Z</time>
      </trkpt>
      <trkpt lat="46.91463" lon="8.63899">
        <ele>803</ele>
        <time>2021-08-07T12:00:59.617Z</time>
      </trkpt>
      <trkpt lat="46.91463" lon="8.63901">
        <ele>803</ele>
        <time>2021-08-07T12:01:00.617Z</time>
      </trkpt>
      <trkpt lat="46.91465" lon="8.63902">
        <ele>803</ele>
        <time>2021-08-07T12:01:01.616Z</time>
      </trkpt>
      <trkpt lat="46.91466" lon="8.63903">
        <ele>803</ele>
        <time>2021-08-07T12:01:02.617Z</time>
      </trkpt>
      <trkpt lat="46.91467" lon="8.63903">
        <ele>803</ele>
        <time>2021-08-07T12:01:03.617Z</time>
      </trkpt>
      <trkpt lat="46.91468" lon="8.63903">
        <ele>803</ele>
        <time>2021-08-07T12:01:04.616Z</time>
      </trkpt>
      <trkpt lat="46.91469" lon="8.63901">
        <ele>803</ele>
        <time>2021-08-07T12:01:05.617Z</time>
      </trkpt>
      <trkpt lat="46.91469" lon="8.63898">
        <ele>803</ele>
        <time>2021-08-07T12:01:06.617Z</time>
      </trkpt>
      <trkpt lat="46.91469" lon="8.63895">
        <ele>803</ele>
        <time>2021-08-07T12:01:07.617Z</time>
      </trkpt>
      <trkpt lat="46.91468" lon="8.63894">
        <ele>803</ele>
        <time>2021-08-07T12:01:08.617Z</time>
      </trkpt>
      <trkpt lat="46.91467" lon="8.63894">
        <ele>803</ele>
        <time>2021-08-07T12:01:09.617Z</time>
      </trkpt>
      <trkpt lat="46.91465" lon="8.63896">
        <ele>803</ele>
        <time>2021-08-07T12:01:10.616Z</time>
      </trkpt>
      <trkpt lat="46.91464" lon="8.63895">
        <ele>803</ele>
        <time>2021-08-07T12:01:11.616Z</time>
      </trkpt>
      <trkpt lat="46.91463" lon="8.63894">
        <ele>803</ele>
        <time>2021-08-07T12:01:12.617Z</time>
      </trkpt>
      <trkpt lat="46.91462" lon="8.63893">
        <ele>803</ele>
        <time>2021-08-07T12:01:13.617Z</time>
      </trkpt>
      <trkpt lat="46.91462" lon="8.63892">
        <ele>803</ele>
        <time>2021-08-07T12:01:14.617Z</time>
      </trkpt>
      <trkpt lat="46.91462" lon="8.63891">
        <ele>802</ele>
        <time>2021-08-07T12:01:15.617Z</time>
      </trkpt>
      <trkpt lat="46.91463" lon="8.6389">
        <ele>802</ele>
        <time>2021-08-07T12:01:16.616Z</time>
      </trkpt>
      <trkpt lat="46.91463" lon="8.6389">
        <ele>802</ele>
        <time>2021-08-07T12:01:17.617Z</time>
      </trkpt>
      <trkpt lat="46.91463" lon="8.6389">
        <ele>802</ele>
        <time>2021-08-07T12:01:18.616Z</time>
      </trkpt>
      <trkpt lat="46.91462" lon="8.63889">
        <ele>802</ele>
        <time>2021-08-07T12:01:19.616Z</time>
      </trkpt>
      <trkpt lat="46.91463" lon="8.63888">
        <ele>802</ele>
        <time>2021-08-07T12:01:20.617Z</time>
      </trkpt>
      <trkpt lat="46.91462" lon="8.63886">
        <ele>802</ele>
        <time>2021-08-07T12:01:21.617Z</time>
      </trkpt>
      <trkpt lat="46.91461" lon="8.63884">
        <ele>802</ele>
        <time>2021-08-07T12:01:22.617Z</time>
      </trkpt>
      <trkpt lat="46.91459" lon="8.63883">
        <ele>802</ele>
        <time>2021-08-07T12:01:23.616Z</time>
      </trkpt>
      <trkpt lat="46.91458" lon="8.63881">
        <ele>802</ele>
        <time>2021-08-07T12:01:24.617Z</time>
      </trkpt>
      <trkpt lat="46.91457" lon="8.63881">
        <ele>802</ele>
        <time>2021-08-07T12:01:25.616Z</time>
      </trkpt>
      <trkpt lat="46.91457" lon="8.6388">
        <ele>802</ele>
        <time>2021-08-07T12:01:26.616Z</time>
      </trkpt>
      <trkpt lat="46.91458" lon="8.63879">
        <ele>802</ele>
        <time>2021-08-07T12:01:27.616Z</time>
      </trkpt>
      <trkpt lat="46.9146" lon="8.63877">
        <ele>802</ele>
        <time>2021-08-07T12:01:28.617Z</time>
      </trkpt>
      <trkpt lat="46.9146" lon="8.63875">
        <ele>802</ele>
        <time>2021-08-07T12:01:29.617Z</time>
      </trkpt>
      <trkpt lat="46.91461" lon="8.63873">
        <ele>802</ele>
        <time>2021-08-07T12:01:30.617Z</time>
      </trkpt>
      <trkpt lat="46.91461" lon="8.63871">
        <ele>802</ele>
        <time>2021-08-07T12:01:31.616Z</time>
      </trkpt>
      <trkpt lat="46.9146" lon="8.63867">
        <ele>802</ele>
        <time>2021-08-07T12:01:32.616Z</time>
      </trkpt>
      <trkpt lat="46.9146" lon="8.63866">
        <ele>802</ele>
        <time>2021-08-07T12:01:33.616Z</time>
      </trkpt>
      <trkpt lat="46.91461" lon="8.63866">
        <ele>802</ele>
        <time>2021-08-07T12:01:34.616Z</time>
      </trkpt>
      <trkpt lat="46.91461" lon="8.63867">
        <ele>802</ele>
        <time>2021-08-07T12:01:35.616Z</time>
      </trkpt>
      <trkpt lat="46.91463" lon="8.63867">
        <ele>802</ele>
        <time>2021-08-07T12:01:36.616Z</time>
      </trkpt>
      <trkpt lat="46.91466" lon="8.63867">
        <ele>802</ele>
        <time>2021-08-07T12:01:37.617Z</time>
      </trkpt>
      <trkpt lat="46.91466" lon="8.63867">
        <ele>802</ele>
        <time>2021-08-07T12:01:38.617Z</time>
      </trkpt>
      <trkpt lat="46.91463" lon="8.63867">
        <ele>802</ele>
        <time>2021-08-07T12:01:39.617Z</time>
      </trkpt>
      <trkpt lat="46.9146" lon="8.63865">
        <ele>802</ele>
        <time>2021-08-07T12:01:40.617Z</time>
      </trkpt>
      <trkpt lat="46.91458" lon="8.63861">
        <ele>801</ele>
        <time>2021-08-07T12:01:41.617Z</time>
      </trkpt>
      <trkpt lat="46.91457" lon="8.6386">
        <ele>801</ele>
        <time>2021-08-07T12:01:42.617Z</time>
      </trkpt>
      <trkpt lat="46.91456" lon="8.63859">
        <ele>801</ele>
        <time>2021-08-07T12:01:43.616Z</time>
      </trkpt>
      <trkpt lat="46.91458" lon="8.63858">
        <ele>801</ele>
        <time>2021-08-07T12:01:51.711Z</time>
      </trkpt>
      <trkpt lat="46.91457" lon="8.63856">
        <ele>801</ele>
        <time>2021-08-07T12:01:52.712Z</time>
      </trkpt>
      <trkpt lat="46.91454" lon="8.63856">
        <ele>801</ele>
        <time>2021-08-07T12:01:53.711Z</time>
      </trkpt>
      <trkpt lat="46.91452" lon="8.63858">
        <ele>801</ele>
        <time>2021-08-07T12:01:54.712Z</time>
      </trkpt>
      <trkpt lat="46.91451" lon="8.6386">
        <ele>801</ele>
        <time>2021-08-07T12:01:55.712Z</time>
      </trkpt>
      <trkpt lat="46.91451" lon="8.63859">
        <ele>801</ele>
        <time>2021-08-07T12:01:56.712Z</time>
      </trkpt>
      <trkpt lat="46.9145" lon="8.63857">
        <ele>801</ele>
        <time>2021-08-07T12:01:57.712Z</time>
      </trkpt>
      <trkpt lat="46.91449" lon="8.63856">
        <ele>801</ele>
        <time>2021-08-07T12:01:58.711Z</time>
      </trkpt>
      <trkpt lat="46.91447" lon="8.63854">
        <ele>801</ele>
        <time>2021-08-07T12:01:59.712Z</time>
      </trkpt>
      <trkpt lat="46.91446" lon="8.63853">
        <ele>801</ele>
        <time>2021-08-07T12:02:00.712Z</time>
      </trkpt>
      <trkpt lat="46.91446" lon="8.63854">
        <ele>801</ele>
        <time>2021-08-07T12:02:01.711Z</time>
      </trkpt>
      <trkpt lat="46.91448" lon="8.63854">
        <ele>801</ele>
        <time>2021-08-07T12:02:02.711Z</time>
      </trkpt>
      <trkpt lat="46.91448" lon="8.63853">
        <ele>801</ele>
        <time>2021-08-07T12:02:03.711Z</time>
      </trkpt>
      <trkpt lat="46.91448" lon="8.63852">
        <ele>801</ele>
        <time>2021-08-07T12:02:04.711Z</time>
      </trkpt>
      <trkpt lat="46.91447" lon="8.6385">
        <ele>801</ele>
        <time>2021-08-07T12:02:05.712Z</time>
      </trkpt>
      <trkpt lat="46.91446" lon="8.63847">
        <ele>801</ele>
        <time>2021-08-07T12:02:06.712Z</time>
      </trkpt>
      <trkpt lat="46.91448" lon="8.63846">
        <ele>801</ele>
        <time>2021-08-07T12:02:07.712Z</time>
      </trkpt>
      <trkpt lat="46.9145" lon="8.63846">
        <ele>801</ele>
        <time>2021-08-07T12:02:08.711Z</time>
      </trkpt>
      <trkpt lat="46.91451" lon="8.63845">
        <ele>801</ele>
        <time>2021-08-07T12:02:09.712Z</time>
      </trkpt>
      <trkpt lat="46.91452" lon="8.63843">
        <ele>800</ele>
        <time>2021-08-07T12:02:15.822Z</time>
      </trkpt>
      <trkpt lat="46.91452" lon="8.63842">
        <ele>800</ele>
        <time>2021-08-07T12:02:16.822Z</time>
      </trkpt>
      <trkpt lat="46.91452" lon="8.63843">
        <ele>800</ele>
        <time>2021-08-07T12:02:17.821Z</time>
      </trkpt>
      <trkpt lat="46.9145" lon="8.63844">
        <ele>800</ele>
        <time>2021-08-07T12:02:18.821Z</time>
      </trkpt>
      <trkpt lat="46.9145" lon="8.63844">
        <ele>800</ele>
        <time>2021-08-07T12:02:19.821Z</time>
      </trkpt>
      <trkpt lat="46.91448" lon="8.63844">
        <ele>800</ele>
        <time>2021-08-07T12:02:22.954Z</time>
      </trkpt>
      <trkpt lat="46.91448" lon="8.63846">
        <ele>800</ele>
        <time>2021-08-07T12:02:23.954Z</time>
      </trkpt>
      <trkpt lat="46.91449" lon="8.63846">
        <ele>800</ele>
        <time>2021-08-07T12:02:24.954Z</time>
      </trkpt>
      <trkpt lat="46.91448" lon="8.63846">
        <ele>800</ele>
        <time>2021-08-07T12:02:25.954Z</time>
      </trkpt>
      <trkpt lat="46.91449" lon="8.63846">
        <ele>799</ele>
        <time>2021-08-07T12:02:26.953Z</time>
      </trkpt>
      <trkpt lat="46.9145" lon="8.63846">
        <ele>799</ele>
        <time>2021-08-07T12:02:27.954Z</time>
      </trkpt>
      <trkpt lat="46.91449" lon="8.63845">
        <ele>799</ele>
        <time>2021-08-07T12:02:28.954Z</time>
      </trkpt>
      <trkpt lat="46.91449" lon="8.63845">
        <ele>799</ele>
        <time>2021-08-07T12:02:29.954Z</time>
      </trkpt>
      <trkpt lat="46.91447" lon="8.63844">
        <ele>799</ele>
        <time>2021-08-07T12:02:30.954Z</time>
      </trkpt>
      <trkpt lat="46.91446" lon="8.63845">
        <ele>799</ele>
        <time>2021-08-07T12:02:31.954Z</time>
      </trkpt>
      <trkpt lat="46.91446" lon="8.63845">
        <ele>799</ele>
        <time>2021-08-07T12:02:32.954Z</time>
      </trkpt>
      <trkpt lat="46.91446" lon="8.63846">
        <ele>799</ele>
        <time>2021-08-07T12:02:33.954Z</time>
      </trkpt>
      <trkpt lat="46.91446" lon="8.63845">
        <ele>799</ele>
        <time>2021-08-07T12:02:34.954Z</time>
      </trkpt>
      <trkpt lat="46.91449" lon="8.63843">
        <ele>799</ele>
        <time>2021-08-07T12:02:35.954Z</time>
      </trkpt>
      <trkpt lat="46.91451" lon="8.63841">
        <ele>798</ele>
        <time>2021-08-07T12:02:36.954Z</time>
      </trkpt>
      <trkpt lat="46.91451" lon="8.6384">
        <ele>798</ele>
        <time>2021-08-07T12:02:37.954Z</time>
      </trkpt>
      <trkpt lat="46.91451" lon="8.6384">
        <ele>798</ele>
        <time>2021-08-07T12:02:38.954Z</time>
      </trkpt>
      <trkpt lat="46.91451" lon="8.6384">
        <ele>798</ele>
        <time>2021-08-07T12:02:39.954Z</time>
      </trkpt>
      <trkpt lat="46.9145" lon="8.63839">
        <ele>798</ele>
        <time>2021-08-07T12:02:40.954Z</time>
      </trkpt>
      <trkpt lat="46.9145" lon="8.63838">
        <ele>798</ele>
        <time>2021-08-07T12:02:41.954Z</time>
      </trkpt>
      <trkpt lat="46.9145" lon="8.63837">
        <ele>798</ele>
        <time>2021-08-07T12:02:42.954Z</time>
      </trkpt>
      <trkpt lat="46.91452" lon="8.63837">
        <ele>798</ele>
        <time>2021-08-07T12:02:43.954Z</time>
      </trkpt>
      <trkpt lat="46.91453" lon="8.63837">
        <ele>798</ele>
        <time>2021-08-07T12:02:44.954Z</time>
      </trkpt>
      <trkpt lat="46.91453" lon="8.63835">
        <ele>798</ele>
        <time>2021-08-07T12:02:45.953Z</time>
      </trkpt>
      <trkpt lat="46.91453" lon="8.63834">
        <ele>798</ele>
        <time>2021-08-07T12:02:46.954Z</time>
      </trkpt>
      <trkpt lat="46.91453" lon="8.63833">
        <ele>797</ele>
        <time>2021-08-07T12:02:47.954Z</time>
      </trkpt>
      <trkpt lat="46.91454" lon="8.63833">
        <ele>797</ele>
        <time>2021-08-07T12:02:48.954Z</time>
      </trkpt>
      <trkpt lat="46.91453" lon="8.63834">
        <ele>797</ele>
        <time>2021-08-07T12:02:49.954Z</time>
      </trkpt>
      <trkpt lat="46.91452" lon="8.63834">
        <ele>797</ele>
        <time>2021-08-07T12:02:50.954Z</time>
      </trkpt>
      <trkpt lat="46.91449" lon="8.63836">
        <ele>797</ele>
        <time>2021-08-07T12:02:51.954Z</time>
      </trkpt>
      <trkpt lat="46.91448" lon="8.63836">
        <ele>796</ele>
        <time>2021-08-07T12:02:52.954Z</time>
      </trkpt>
      <trkpt lat="46.91448" lon="8.63836">
        <ele>796</ele>
        <time>2021-08-07T12:02:53.953Z</time>
      </trkpt>
      <trkpt lat="46.91448" lon="8.63835">
        <ele>796</ele>
        <time>2021-08-07T12:02:54.954Z</time>
      </trkpt>
      <trkpt lat="46.91447" lon="8.63834">
        <ele>796</ele>
        <time>2021-08-07T12:02:55.954Z</time>
      </trkpt>
      <trkpt lat="46.91446" lon="8.63834">
        <ele>796</ele>
        <time>2021-08-07T12:02:56.954Z</time>
      </trkpt>
      <trkpt lat="46.91445" lon="8.63834">
        <ele>796</ele>
        <time>2021-08-07T12:02:57.953Z</time>
      </trkpt>
      <trkpt lat="46.91443" lon="8.63833">
        <ele>796</ele>
        <time>2021-08-07T12:02:58.953Z</time>
      </trkpt>
      <trkpt lat="46.91442" lon="8.63832">
        <ele>796</ele>
        <time>2021-08-07T12:02:59.953Z</time>
      </trkpt>
      <trkpt lat="46.91441" lon="8.6383">
        <ele>796</ele>
        <time>2021-08-07T12:03:00.954Z</time>
      </trkpt>
      <trkpt lat="46.9144" lon="8.6383">
        <ele>795</ele>
        <time>2021-08-07T12:03:01.954Z</time>
      </trkpt>
      <trkpt lat="46.91438" lon="8.6383">
        <ele>795</ele>
        <time>2021-08-07T12:03:02.954Z</time>
      </trkpt>
      <trkpt lat="46.91437" lon="8.6383">
        <ele>795</ele>
        <time>2021-08-07T12:03:03.953Z</time>
      </trkpt>
      <trkpt lat="46.91437" lon="8.63829">
        <ele>795</ele>
        <time>2021-08-07T12:03:04.954Z</time>
      </trkpt>
      <trkpt lat="46.91437" lon="8.63827">
        <ele>795</ele>
        <time>2021-08-07T12:03:05.953Z</time>
      </trkpt>
      <trkpt lat="46.91438" lon="8.63826">
        <ele>795</ele>
        <time>2021-08-07T12:03:06.953Z</time>
      </trkpt>
      <trkpt lat="46.91438" lon="8.63825">
        <ele>795</ele>
        <time>2021-08-07T12:03:07.954Z</time>
      </trkpt>
      <trkpt lat="46.91437" lon="8.63825">
        <ele>795</ele>
        <time>2021-08-07T12:03:08.954Z</time>
      </trkpt>
      <trkpt lat="46.91436" lon="8.63824">
        <ele>795</ele>
        <time>2021-08-07T12:03:09.954Z</time>
      </trkpt>
      <trkpt lat="46.91436" lon="8.63824">
        <ele>795</ele>
        <time>2021-08-07T12:03:10.953Z</time>
      </trkpt>
      <trkpt lat="46.91436" lon="8.63823">
        <ele>794</ele>
        <time>2021-08-07T12:03:11.954Z</time>
      </trkpt>
      <trkpt lat="46.91436" lon="8.63821">
        <ele>794</ele>
        <time>2021-08-07T12:03:12.954Z</time>
      </trkpt>
      <trkpt lat="46.91437" lon="8.63818">
        <ele>794</ele>
        <time>2021-08-07T12:03:13.954Z</time>
      </trkpt>
      <trkpt lat="46.91438" lon="8.63816">
        <ele>794</ele>
        <time>2021-08-07T12:03:14.954Z</time>
      </trkpt>
      <trkpt lat="46.91439" lon="8.63813">
        <ele>794</ele>
        <time>2021-08-07T12:03:15.954Z</time>
      </trkpt>
      <trkpt lat="46.91439" lon="8.63812">
        <ele>794</ele>
        <time>2021-08-07T12:03:16.954Z</time>
      </trkpt>
      <trkpt lat="46.91439" lon="8.6381">
        <ele>794</ele>
        <time>2021-08-07T12:03:17.954Z</time>
      </trkpt>
      <trkpt lat="46.91438" lon="8.63809">
        <ele>794</ele>
        <time>2021-08-07T12:03:18.954Z</time>
      </trkpt>
      <trkpt lat="46.91437" lon="8.63807">
        <ele>794</ele>
        <time>2021-08-07T12:03:19.954Z</time>
      </trkpt>
      <trkpt lat="46.91436" lon="8.63806">
        <ele>794</ele>
        <time>2021-08-07T12:03:20.954Z</time>
      </trkpt>
      <trkpt lat="46.91436" lon="8.63806">
        <ele>793</ele>
        <time>2021-08-07T12:03:21.953Z</time>
      </trkpt>
      <trkpt lat="46.91435" lon="8.63805">
        <ele>793</ele>
        <time>2021-08-07T12:03:22.954Z</time>
      </trkpt>
      <trkpt lat="46.91435" lon="8.63805">
        <ele>793</ele>
        <time>2021-08-07T12:03:23.954Z</time>
      </trkpt>
      <trkpt lat="46.91435" lon="8.63804">
        <ele>793</ele>
        <time>2021-08-07T12:03:24.953Z</time>
      </trkpt>
      <trkpt lat="46.91435" lon="8.63804">
        <ele>792</ele>
        <time>2021-08-07T12:03:25.953Z</time>
      </trkpt>
      <trkpt lat="46.91434" lon="8.63804">
        <ele>792</ele>
        <time>2021-08-07T12:03:26.953Z</time>
      </trkpt>
      <trkpt lat="46.91434" lon="8.63803">
        <ele>792</ele>
        <time>2021-08-07T12:03:27.954Z</time>
      </trkpt>
      <trkpt lat="46.91435" lon="8.63802">
        <ele>791</ele>
        <time>2021-08-07T12:03:28.954Z</time>
      </trkpt>
      <trkpt lat="46.91434" lon="8.63801">
        <ele>791</ele>
        <time>2021-08-07T12:03:29.953Z</time>
      </trkpt>
      <trkpt lat="46.91435" lon="8.638">
        <ele>790</ele>
        <time>2021-08-07T12:03:30.954Z</time>
      </trkpt>
      <trkpt lat="46.91436" lon="8.63799">
        <ele>790</ele>
        <time>2021-08-07T12:03:31.954Z</time>
      </trkpt>
      <trkpt lat="46.91435" lon="8.63798">
        <ele>789</ele>
        <time>2021-08-07T12:03:32.953Z</time>
      </trkpt>
      <trkpt lat="46.91435" lon="8.63796">
        <ele>789</ele>
        <time>2021-08-07T12:03:33.953Z</time>
      </trkpt>
      <trkpt lat="46.91435" lon="8.63795">
        <ele>788</ele>
        <time>2021-08-07T12:03:34.953Z</time>
      </trkpt>
      <trkpt lat="46.91436" lon="8.63794">
        <ele>788</ele>
        <time>2021-08-07T12:03:35.953Z</time>
      </trkpt>
      <trkpt lat="46.91437" lon="8.63792">
        <ele>787</ele>
        <time>2021-08-07T12:03:36.953Z</time>
      </trkpt>
      <trkpt lat="46.91437" lon="8.6379">
        <ele>787</ele>
        <time>2021-08-07T12:03:37.953Z</time>
      </trkpt>
      <trkpt lat="46.91438" lon="8.63787">
        <ele>787</ele>
        <time>2021-08-07T12:03:38.953Z</time>
      </trkpt>
      <trkpt lat="46.91438" lon="8.63786">
        <ele>786</ele>
        <time>2021-08-07T12:03:39.953Z</time>
      </trkpt>
      <trkpt lat="46.91438" lon="8.63784">
        <ele>786</ele>
        <time>2021-08-07T12:03:40.954Z</time>
      </trkpt>
      <trkpt lat="46.91437" lon="8.63783">
        <ele>786</ele>
        <time>2021-08-07T12:03:41.954Z</time>
      </trkpt>
      <trkpt lat="46.91437" lon="8.63782">
        <ele>786</ele>
        <time>2021-08-07T12:03:42.954Z</time>
      </trkpt>
      <trkpt lat="46.91437" lon="8.63781">
        <ele>785</ele>
        <time>2021-08-07T12:03:43.954Z</time>
      </trkpt>
      <trkpt lat="46.91436" lon="8.63781">
        <ele>785</ele>
        <time>2021-08-07T12:03:44.954Z</time>
      </trkpt>
      <trkpt lat="46.91436" lon="8.63781">
        <ele>785</ele>
        <time>2021-08-07T12:03:49.093Z</time>
      </trkpt>
      <trkpt lat="46.91436" lon="8.6378">
        <ele>785</ele>
        <time>2021-08-07T12:03:50.092Z</time>
      </trkpt>
      <trkpt lat="46.91436" lon="8.63778">
        <ele>784</ele>
        <time>2021-08-07T12:03:51.093Z</time>
      </trkpt>
      <trkpt lat="46.91436" lon="8.63775">
        <ele>784</ele>
        <time>2021-08-07T12:03:52.093Z</time>
      </trkpt>
      <trkpt lat="46.91436" lon="8.63773">
        <ele>784</ele>
        <time>2021-08-07T12:03:53.093Z</time>
      </trkpt>
      <trkpt lat="46.91436" lon="8.63773">
        <ele>784</ele>
        <time>2021-08-07T12:03:54.092Z</time>
      </trkpt>
      <trkpt lat="46.91435" lon="8.63773">
        <ele>784</ele>
        <time>2021-08-07T12:03:55.093Z</time>
      </trkpt>
      <trkpt lat="46.91436" lon="8.63773">
        <ele>783</ele>
        <time>2021-08-07T12:03:56.093Z</time>
      </trkpt>
      <trkpt lat="46.91441" lon="8.63772">
        <ele>783</ele>
        <time>2021-08-07T12:03:57.094Z</time>
      </trkpt>
      <trkpt lat="46.91442" lon="8.63771">
        <ele>783</ele>
        <time>2021-08-07T12:03:58.093Z</time>
      </trkpt>
      <trkpt lat="46.91443" lon="8.63771">
        <ele>783</ele>
        <time>2021-08-07T12:03:59.094Z</time>
      </trkpt>
      <trkpt lat="46.91443" lon="8.6377">
        <ele>783</ele>
        <time>2021-08-07T12:04:00.094Z</time>
      </trkpt>
      <trkpt lat="46.91444" lon="8.6377">
        <ele>782</ele>
        <time>2021-08-07T12:04:01.094Z</time>
      </trkpt>
      <trkpt lat="46.91444" lon="8.63769">
        <ele>782</ele>
        <time>2021-08-07T12:04:02.094Z</time>
      </trkpt>
      <trkpt lat="46.91443" lon="8.63768">
        <ele>782</ele>
        <time>2021-08-07T12:04:03.094Z</time>
      </trkpt>
      <trkpt lat="46.91443" lon="8.63766">
        <ele>781</ele>
        <time>2021-08-07T12:04:04.094Z</time>
      </trkpt>
      <trkpt lat="46.91442" lon="8.63765">
        <ele>781</ele>
        <time>2021-08-07T12:04:05.094Z</time>
      </trkpt>
      <trkpt lat="46.91442" lon="8.63764">
        <ele>781</ele>
        <time>2021-08-07T12:04:06.094Z</time>
      </trkpt>
      <trkpt lat="46.91441" lon="8.63762">
        <ele>781</ele>
        <time>2021-08-07T12:04:07.094Z</time>
      </trkpt>
      <trkpt lat="46.91441" lon="8.6376">
        <ele>780</ele>
        <time>2021-08-07T12:04:08.094Z</time>
      </trkpt>
      <trkpt lat="46.91441" lon="8.63759">
        <ele>780</ele>
        <time>2021-08-07T12:04:09.093Z</time>
      </trkpt>
      <trkpt lat="46.91441" lon="8.63758">
        <ele>780</ele>
        <time>2021-08-07T12:04:10.093Z</time>
      </trkpt>
      <trkpt lat="46.91441" lon="8.63757">
        <ele>779</ele>
        <time>2021-08-07T12:04:11.094Z</time>
      </trkpt>
      <trkpt lat="46.91441" lon="8.63757">
        <ele>779</ele>
        <time>2021-08-07T12:04:12.093Z</time>
      </trkpt>
      <trkpt lat="46.91441" lon="8.63756">
        <ele>779</ele>
        <time>2021-08-07T12:04:13.094Z</time>
      </trkpt>
      <trkpt lat="46.91441" lon="8.63755">
        <ele>778</ele>
        <time>2021-08-07T12:04:14.094Z</time>
      </trkpt>
      <trkpt lat="46.91441" lon="8.63755">
        <ele>778</ele>
        <time>2021-08-07T12:04:15.094Z</time>
      </trkpt>
      <trkpt lat="46.91441" lon="8.63754">
        <ele>778</ele>
        <time>2021-08-07T12:04:16.093Z</time>
      </trkpt>
      <trkpt lat="46.9144" lon="8.63754">
        <ele>777</ele>
        <time>2021-08-07T12:04:17.094Z</time>
      </trkpt>
      <trkpt lat="46.91439" lon="8.63755">
        <ele>777</ele>
        <time>2021-08-07T12:04:18.094Z</time>
      </trkpt>
      <trkpt lat="46.91438" lon="8.63755">
        <ele>777</ele>
        <time>2021-08-07T12:04:19.094Z</time>
      </trkpt>
      <trkpt lat="46.91438" lon="8.63755">
        <ele>776</ele>
        <time>2021-08-07T12:04:20.094Z</time>
      </trkpt>
      <trkpt lat="46.91439" lon="8.63754">
        <ele>776</ele>
        <time>2021-08-07T12:04:21.094Z</time>
      </trkpt>
      <trkpt lat="46.91439" lon="8.63753">
        <ele>776</ele>
        <time>2021-08-07T12:04:22.094Z</time>
      </trkpt>
      <trkpt lat="46.9144" lon="8.63752">
        <ele>776</ele>
        <time>2021-08-07T12:04:23.093Z</time>
      </trkpt>
      <trkpt lat="46.9144" lon="8.63751">
        <ele>776</ele>
        <time>2021-08-07T12:04:24.094Z</time>
      </trkpt>
      <trkpt lat="46.91441" lon="8.6375">
        <ele>775</ele>
        <time>2021-08-07T12:04:25.094Z</time>
      </trkpt>
      <trkpt lat="46.91441" lon="8.6375">
        <ele>775</ele>
        <time>2021-08-07T12:04:26.093Z</time>
      </trkpt>
      <trkpt lat="46.9144" lon="8.63751">
        <ele>775</ele>
        <time>2021-08-07T12:04:27.094Z</time>
      </trkpt>
      <trkpt lat="46.9144" lon="8.63751">
        <ele>775</ele>
        <time>2021-08-07T12:04:28.094Z</time>
      </trkpt>
      <trkpt lat="46.91439" lon="8.63751">
        <ele>775</ele>
        <time>2021-08-07T12:04:29.094Z</time>
      </trkpt>
      <trkpt lat="46.91439" lon="8.63751">
        <ele>774</ele>
        <time>2021-08-07T12:04:30.094Z</time>
      </trkpt>
      <trkpt lat="46.91439" lon="8.63751">
        <ele>774</ele>
        <time>2021-08-07T12:04:31.094Z</time>
      </trkpt>
      <trkpt lat="46.91437" lon="8.63751">
        <ele>772</ele>
        <time>2021-08-07T12:04:32.094Z</time>
      </trkpt>
      <trkpt lat="46.91436" lon="8.63751">
        <ele>771</ele>
        <time>2021-08-07T12:04:33.094Z</time>
      </trkpt>
      <trkpt lat="46.91436" lon="8.63751">
        <ele>769</ele>
        <time>2021-08-07T12:04:34.094Z</time>
      </trkpt>
      <trkpt lat="46.91435" lon="8.63751">
        <ele>766</ele>
        <time>2021-08-07T12:04:35.093Z</time>
      </trkpt>
      <trkpt lat="46.91434" lon="8.63751">
        <ele>763</ele>
        <time>2021-08-07T12:04:36.094Z</time>
      </trkpt>
      <trkpt lat="46.91432" lon="8.63751">
        <ele>761</ele>
        <time>2021-08-07T12:04:37.094Z</time>
      </trkpt>
      <trkpt lat="46.91431" lon="8.63751">
        <ele>759</ele>
        <time>2021-08-07T12:04:38.094Z</time>
      </trkpt>
      <trkpt lat="46.9143" lon="8.6375">
        <ele>757</ele>
        <time>2021-08-07T12:04:39.094Z</time>
      </trkpt>
      <trkpt lat="46.9143" lon="8.6375">
        <ele>754</ele>
        <time>2021-08-07T12:04:40.094Z</time>
      </trkpt>
      <trkpt lat="46.91429" lon="8.6375">
        <ele>752</ele>
        <time>2021-08-07T12:04:41.093Z</time>
      </trkpt>
      <trkpt lat="46.91429" lon="8.6375">
        <ele>749</ele>
        <time>2021-08-07T12:04:42.094Z</time>
      </trkpt>
      <trkpt lat="46.91428" lon="8.63749">
        <ele>747</ele>
        <time>2021-08-07T12:04:43.094Z</time>
      </trkpt>
      <trkpt lat="46.91427" lon="8.63749">
        <ele>744</ele>
        <time>2021-08-07T12:04:44.093Z</time>
      </trkpt>
      <trkpt lat="46.91426" lon="8.6375">
        <ele>742</ele>
        <time>2021-08-07T12:04:45.093Z</time>
      </trkpt>
      <trkpt lat="46.91426" lon="8.6375">
        <ele>740</ele>
        <time>2021-08-07T12:04:46.094Z</time>
      </trkpt>
      <trkpt lat="46.91427" lon="8.6375">
        <ele>738</ele>
        <time>2021-08-07T12:04:47.094Z</time>
      </trkpt>
      <trkpt lat="46.91428" lon="8.6375">
        <ele>736</ele>
        <time>2021-08-07T12:04:48.094Z</time>
      </trkpt>
      <trkpt lat="46.91428" lon="8.6375">
        <ele>735</ele>
        <time>2021-08-07T12:04:49.094Z</time>
      </trkpt>
      <trkpt lat="46.91435" lon="8.63744">
        <ele>730</ele>
        <time>2021-08-07T12:04:50.094Z</time>
      </trkpt>
      <trkpt lat="46.91436" lon="8.63742">
        <ele>729</ele>
        <time>2021-08-07T12:04:51.094Z</time>
      </trkpt>
      <trkpt lat="46.91438" lon="8.63742">
        <ele>728</ele>
        <time>2021-08-07T12:04:52.094Z</time>
      </trkpt>
      <trkpt lat="46.91439" lon="8.63742">
        <ele>728</ele>
        <time>2021-08-07T12:04:53.093Z</time>
      </trkpt>
      <trkpt lat="46.9144" lon="8.63742">
        <ele>727</ele>
        <time>2021-08-07T12:04:54.093Z</time>
      </trkpt>
      <trkpt lat="46.9144" lon="8.63743">
        <ele>727</ele>
        <time>2021-08-07T12:04:55.094Z</time>
      </trkpt>
      <trkpt lat="46.91439" lon="8.63743">
        <ele>726</ele>
        <time>2021-08-07T12:04:56.094Z</time>
      </trkpt>
      <trkpt lat="46.91437" lon="8.63743">
        <ele>726</ele>
        <time>2021-08-07T12:04:57.094Z</time>
      </trkpt>
      <trkpt lat="46.91437" lon="8.63742">
        <ele>725</ele>
        <time>2021-08-07T12:04:58.093Z</time>
      </trkpt>
      <trkpt lat="46.91437" lon="8.63741">
        <ele>725</ele>
        <time>2021-08-07T12:04:59.093Z</time>
      </trkpt>
      <trkpt lat="46.91436" lon="8.63739">
        <ele>724</ele>
        <time>2021-08-07T12:05:00.094Z</time>
      </trkpt>
      <trkpt lat="46.91436" lon="8.63738">
        <ele>724</ele>
        <time>2021-08-07T12:05:01.094Z</time>
      </trkpt>
      <trkpt lat="46.91435" lon="8.63736">
        <ele>724</ele>
        <time>2021-08-07T12:05:02.094Z</time>
      </trkpt>
      <trkpt lat="46.91436" lon="8.63735">
        <ele>724</ele>
        <time>2021-08-07T12:05:03.094Z</time>
      </trkpt>
      <trkpt lat="46.91436" lon="8.63735">
        <ele>724</ele>
        <time>2021-08-07T12:05:04.093Z</time>
      </trkpt>
      <trkpt lat="46.91437" lon="8.63734">
        <ele>724</ele>
        <time>2021-08-07T12:05:05.093Z</time>
      </trkpt>
      <trkpt lat="46.91439" lon="8.63735">
        <ele>724</ele>
        <time>2021-08-07T12:05:06.094Z</time>
      </trkpt>
      <trkpt lat="46.91439" lon="8.63735">
        <ele>724</ele>
        <time>2021-08-07T12:05:07.094Z</time>
      </trkpt>
      <trkpt lat="46.9144" lon="8.63734">
        <ele>725</ele>
        <time>2021-08-07T12:05:08.094Z</time>
      </trkpt>
      <trkpt lat="46.9144" lon="8.63733">
        <ele>725</ele>
        <time>2021-08-07T12:05:09.093Z</time>
      </trkpt>
      <trkpt lat="46.9144" lon="8.63732">
        <ele>724</ele>
        <time>2021-08-07T12:05:10.094Z</time>
      </trkpt>
      <trkpt lat="46.91441" lon="8.63732">
        <ele>724</ele>
        <time>2021-08-07T12:05:11.094Z</time>
      </trkpt>
      <trkpt lat="46.91442" lon="8.63731">
        <ele>724</ele>
        <time>2021-08-07T12:05:12.094Z</time>
      </trkpt>
      <trkpt lat="46.91443" lon="8.63732">
        <ele>724</ele>
        <time>2021-08-07T12:05:19.208Z</time>
      </trkpt>
      <trkpt lat="46.91443" lon="8.63733">
        <ele>724</ele>
        <time>2021-08-07T12:05:20.209Z</time>
      </trkpt>
      <trkpt lat="46.91444" lon="8.63733">
        <ele>724</ele>
        <time>2021-08-07T12:05:26.065Z</time>
      </trkpt>
      <trkpt lat="46.91445" lon="8.63733">
        <ele>725</ele>
        <time>2021-08-07T12:05:27.065Z</time>
      </trkpt>
      <trkpt lat="46.91447" lon="8.63733">
        <ele>725</ele>
        <time>2021-08-07T12:05:28.064Z</time>
      </trkpt>
      <trkpt lat="46.91448" lon="8.63733">
        <ele>725</ele>
        <time>2021-08-07T12:05:29.065Z</time>
      </trkpt>
      <trkpt lat="46.91449" lon="8.63733">
        <ele>725</ele>
        <time>2021-08-07T12:05:30.065Z</time>
      </trkpt>
      <trkpt lat="46.91449" lon="8.63732">
        <ele>725</ele>
        <time>2021-08-07T12:05:31.064Z</time>
      </trkpt>
      <trkpt lat="46.91448" lon="8.63731">
        <ele>725</ele>
        <time>2021-08-07T12:05:32.064Z</time>
      </trkpt>
      <trkpt lat="46.91448" lon="8.6373">
        <ele>726</ele>
        <time>2021-08-07T12:05:33.065Z</time>
      </trkpt>
      <trkpt lat="46.91449" lon="8.63728">
        <ele>726</ele>
        <time>2021-08-07T12:05:34.064Z</time>
      </trkpt>
      <trkpt lat="46.91449" lon="8.63727">
        <ele>726</ele>
        <time>2021-08-07T12:05:35.065Z</time>
      </trkpt>
      <trkpt lat="46.91449" lon="8.63725">
        <ele>726</ele>
        <time>2021-08-07T12:05:36.065Z</time>
      </trkpt>
      <trkpt lat="46.91449" lon="8.63723">
        <ele>727</ele>
        <time>2021-08-07T12:05:37.065Z</time>
      </trkpt>
      <trkpt lat="46.9145" lon="8.63721">
        <ele>727</ele>
        <time>2021-08-07T12:05:38.065Z</time>
      </trkpt>
      <trkpt lat="46.9145" lon="8.63719">
        <ele>727</ele>
        <time>2021-08-07T12:05:39.065Z</time>
      </trkpt>
      <trkpt lat="46.91451" lon="8.63718">
        <ele>727</ele>
        <time>2021-08-07T12:05:40.064Z</time>
      </trkpt>
      <trkpt lat="46.91451" lon="8.63717">
        <ele>727</ele>
        <time>2021-08-07T12:05:41.064Z</time>
      </trkpt>
      <trkpt lat="46.91451" lon="8.63716">
        <ele>727</ele>
        <time>2021-08-07T12:05:42.064Z</time>
      </trkpt>
      <trkpt lat="46.91452" lon="8.63715">
        <ele>727</ele>
        <time>2021-08-07T12:05:43.065Z</time>
      </trkpt>
      <trkpt lat="46.91453" lon="8.63716">
        <ele>727</ele>
        <time>2021-08-07T12:05:44.064Z</time>
      </trkpt>
      <trkpt lat="46.91454" lon="8.63716">
        <ele>727</ele>
        <time>2021-08-07T12:05:45.065Z</time>
      </trkpt>
      <trkpt lat="46.91455" lon="8.63715">
        <ele>727</ele>
        <time>2021-08-07T12:05:46.065Z</time>
      </trkpt>
      <trkpt lat="46.91456" lon="8.63715">
        <ele>727</ele>
        <time>2021-08-07T12:05:47.064Z</time>
      </trkpt>
      <trkpt lat="46.91457" lon="8.63715">
        <ele>726</ele>
        <time>2021-08-07T12:05:48.064Z</time>
      </trkpt>
      <trkpt lat="46.91458" lon="8.63714">
        <ele>727</ele>
        <time>2021-08-07T12:05:49.065Z</time>
      </trkpt>
      <trkpt lat="46.91458" lon="8.63712">
        <ele>727</ele>
        <time>2021-08-07T12:05:50.065Z</time>
      </trkpt>
      <trkpt lat="46.91459" lon="8.63711">
        <ele>727</ele>
        <time>2021-08-07T12:05:51.064Z</time>
      </trkpt>
      <trkpt lat="46.91459" lon="8.63711">
        <ele>727</ele>
        <time>2021-08-07T12:05:52.064Z</time>
      </trkpt>
      <trkpt lat="46.91459" lon="8.6371">
        <ele>727</ele>
        <time>2021-08-07T12:05:53.064Z</time>
      </trkpt>
      <trkpt lat="46.91459" lon="8.6371">
        <ele>727</ele>
        <time>2021-08-07T12:05:54.065Z</time>
      </trkpt>
      <trkpt lat="46.91459" lon="8.6371">
        <ele>727</ele>
        <time>2021-08-07T12:05:55.065Z</time>
      </trkpt>
      <trkpt lat="46.91459" lon="8.63709">
        <ele>728</ele>
        <time>2021-08-07T12:05:56.064Z</time>
      </trkpt>
      <trkpt lat="46.91459" lon="8.63708">
        <ele>728</ele>
        <time>2021-08-07T12:05:57.064Z</time>
      </trkpt>
      <trkpt lat="46.91459" lon="8.63705">
        <ele>727</ele>
        <time>2021-08-07T12:05:58.065Z</time>
      </trkpt>
      <trkpt lat="46.91458" lon="8.63703">
        <ele>727</ele>
        <time>2021-08-07T12:05:59.065Z</time>
      </trkpt>
      <trkpt lat="46.91458" lon="8.63701">
        <ele>727</ele>
        <time>2021-08-07T12:06:00.065Z</time>
      </trkpt>
      <trkpt lat="46.91459" lon="8.637">
        <ele>727</ele>
        <time>2021-08-07T12:06:01.065Z</time>
      </trkpt>
      <trkpt lat="46.91459" lon="8.637">
        <ele>727</ele>
        <time>2021-08-07T12:06:02.064Z</time>
      </trkpt>
      <trkpt lat="46.91459" lon="8.637">
        <ele>727</ele>
        <time>2021-08-07T12:06:03.065Z</time>
      </trkpt>
      <trkpt lat="46.91459" lon="8.63695">
        <ele>727</ele>
        <time>2021-08-07T12:06:04.065Z</time>
      </trkpt>
      <trkpt lat="46.9146" lon="8.63695">
        <ele>727</ele>
        <time>2021-08-07T12:06:05.065Z</time>
      </trkpt>
      <trkpt lat="46.9146" lon="8.63694">
        <ele>727</ele>
        <time>2021-08-07T12:06:06.064Z</time>
      </trkpt>
      <trkpt lat="46.91461" lon="8.63694">
        <ele>727</ele>
        <time>2021-08-07T12:06:07.065Z</time>
      </trkpt>
      <trkpt lat="46.91461" lon="8.63692">
        <ele>727</ele>
        <time>2021-08-07T12:06:08.065Z</time>
      </trkpt>
      <trkpt lat="46.91462" lon="8.6369">
        <ele>727</ele>
        <time>2021-08-07T12:06:09.065Z</time>
      </trkpt>
      <trkpt lat="46.91462" lon="8.63688">
        <ele>727</ele>
        <time>2021-08-07T12:06:10.065Z</time>
      </trkpt>
      <trkpt lat="46.91463" lon="8.63686">
        <ele>727</ele>
        <time>2021-08-07T12:06:11.065Z</time>
      </trkpt>
      <trkpt lat="46.91463" lon="8.63683">
        <ele>728</ele>
        <time>2021-08-07T12:06:12.065Z</time>
      </trkpt>
      <trkpt lat="46.91462" lon="8.63679">
        <ele>728</ele>
        <time>2021-08-07T12:06:13.064Z</time>
      </trkpt>
      <trkpt lat="46.91462" lon="8.63676">
        <ele>728</ele>
        <time>2021-08-07T12:06:14.065Z</time>
      </trkpt>
      <trkpt lat="46.91462" lon="8.63674">
        <ele>728</ele>
        <time>2021-08-07T12:06:15.065Z</time>
      </trkpt>
      <trkpt lat="46.91462" lon="8.63671">
        <ele>728</ele>
        <time>2021-08-07T12:06:16.065Z</time>
      </trkpt>
      <trkpt lat="46.91463" lon="8.63669">
        <ele>729</ele>
        <time>2021-08-07T12:06:17.064Z</time>
      </trkpt>
      <trkpt lat="46.91463" lon="8.63667">
        <ele>729</ele>
        <time>2021-08-07T12:06:18.064Z</time>
      </trkpt>
      <trkpt lat="46.91464" lon="8.63665">
        <ele>729</ele>
        <time>2021-08-07T12:06:19.065Z</time>
      </trkpt>
      <trkpt lat="46.91464" lon="8.63663">
        <ele>730</ele>
        <time>2021-08-07T12:06:20.065Z</time>
      </trkpt>
      <trkpt lat="46.91465" lon="8.63662">
        <ele>730</ele>
        <time>2021-08-07T12:06:21.065Z</time>
      </trkpt>
      <trkpt lat="46.91466" lon="8.63661">
        <ele>731</ele>
        <time>2021-08-07T12:06:22.064Z</time>
      </trkpt>
      <trkpt lat="46.91466" lon="8.6366">
        <ele>731</ele>
        <time>2021-08-07T12:06:23.064Z</time>
      </trkpt>
      <trkpt lat="46.91467" lon="8.63659">
        <ele>731</ele>
        <time>2021-08-07T12:06:24.064Z</time>
      </trkpt>
      <trkpt lat="46.91468" lon="8.63659">
        <ele>732</ele>
        <time>2021-08-07T12:06:25.065Z</time>
      </trkpt>
      <trkpt lat="46.91469" lon="8.63658">
        <ele>732</ele>
        <time>2021-08-07T12:06:26.065Z</time>
      </trkpt>
      <trkpt lat="46.91471" lon="8.63657">
        <ele>732</ele>
        <time>2021-08-07T12:06:27.064Z</time>
      </trkpt>
      <trkpt lat="46.91472" lon="8.63656">
        <ele>733</ele>
        <time>2021-08-07T12:06:28.065Z</time>
      </trkpt>
      <trkpt lat="46.91472" lon="8.63655">
        <ele>733</ele>
        <time>2021-08-07T12:06:29.064Z</time>
      </trkpt>
      <trkpt lat="46.91473" lon="8.63654">
        <ele>733</ele>
        <time>2021-08-07T12:06:30.065Z</time>
      </trkpt>
      <trkpt lat="46.91474" lon="8.63653">
        <ele>734</ele>
        <time>2021-08-07T12:06:31.065Z</time>
      </trkpt>
      <trkpt lat="46.91475" lon="8.63651">
        <ele>734</ele>
        <time>2021-08-07T12:06:32.065Z</time>
      </trkpt>
      <trkpt lat="46.91476" lon="8.63649">
        <ele>734</ele>
        <time>2021-08-07T12:06:33.065Z</time>
      </trkpt>
      <trkpt lat="46.91477" lon="8.63647">
        <ele>734</ele>
        <time>2021-08-07T12:06:34.065Z</time>
      </trkpt>
      <trkpt lat="46.91478" lon="8.63644">
        <ele>735</ele>
        <time>2021-08-07T12:06:35.065Z</time>
      </trkpt>
      <trkpt lat="46.91479" lon="8.63642">
        <ele>735</ele>
        <time>2021-08-07T12:06:36.064Z</time>
      </trkpt>
      <trkpt lat="46.91478" lon="8.63641">
        <ele>735</ele>
        <time>2021-08-07T12:06:37.064Z</time>
      </trkpt>
      <trkpt lat="46.91478" lon="8.63641">
        <ele>735</ele>
        <time>2021-08-07T12:06:38.065Z</time>
      </trkpt>
      <trkpt lat="46.91478" lon="8.63638">
        <ele>734</ele>
        <time>2021-08-07T12:06:39.064Z</time>
      </trkpt>
      <trkpt lat="46.91477" lon="8.63636">
        <ele>734</ele>
        <time>2021-08-07T12:06:40.064Z</time>
      </trkpt>
      <trkpt lat="46.91477" lon="8.63633">
        <ele>734</ele>
        <time>2021-08-07T12:06:41.064Z</time>
      </trkpt>
      <trkpt lat="46.91477" lon="8.63631">
        <ele>733</ele>
        <time>2021-08-07T12:06:42.065Z</time>
      </trkpt>
      <trkpt lat="46.91478" lon="8.63629">
        <ele>732</ele>
        <time>2021-08-07T12:06:43.065Z</time>
      </trkpt>
      <trkpt lat="46.91479" lon="8.63628">
        <ele>732</ele>
        <time>2021-08-07T12:06:44.064Z</time>
      </trkpt>
      <trkpt lat="46.9148" lon="8.63628">
        <ele>731</ele>
        <time>2021-08-07T12:06:45.065Z</time>
      </trkpt>
      <trkpt lat="46.91481" lon="8.63628">
        <ele>731</ele>
        <time>2021-08-07T12:06:46.064Z</time>
      </trkpt>
      <trkpt lat="46.91482" lon="8.63628">
        <ele>731</ele>
        <time>2021-08-07T12:06:47.065Z</time>
      </trkpt>
      <trkpt lat="46.91483" lon="8.63628">
        <ele>730</ele>
        <time>2021-08-07T12:06:48.064Z</time>
      </trkpt>
      <trkpt lat="46.91483" lon="8.63627">
        <ele>729</ele>
        <time>2021-08-07T12:06:50.168Z</time>
      </trkpt>
      <trkpt lat="46.91482" lon="8.63625">
        <ele>729</ele>
        <time>2021-08-07T12:06:51.168Z</time>
      </trkpt>
      <trkpt lat="46.91481" lon="8.63623">
        <ele>728</ele>
        <time>2021-08-07T12:06:52.168Z</time>
      </trkpt>
      <trkpt lat="46.91481" lon="8.63622">
        <ele>727</ele>
        <time>2021-08-07T12:06:53.167Z</time>
      </trkpt>
      <trkpt lat="46.91481" lon="8.63622">
        <ele>726</ele>
        <time>2021-08-07T12:06:59.308Z</time>
      </trkpt>
      <trkpt lat="46.91482" lon="8.63623">
        <ele>726</ele>
        <time>2021-08-07T12:07:00.308Z</time>
      </trkpt>
      <trkpt lat="46.91483" lon="8.63624">
        <ele>725</ele>
        <time>2021-08-07T12:07:05.183Z</time>
      </trkpt>
      <trkpt lat="46.91483" lon="8.63624">
        <ele>724</ele>
        <time>2021-08-07T12:07:18.054Z</time>
      </trkpt>
      <trkpt lat="46.91483" lon="8.63624">
        <ele>723</ele>
        <time>2021-08-07T12:07:19.054Z</time>
      </trkpt>
      <trkpt lat="46.91482" lon="8.63623">
        <ele>722</ele>
        <time>2021-08-07T12:07:20.055Z</time>
      </trkpt>
      <trkpt lat="46.91481" lon="8.63622">
        <ele>721</ele>
        <time>2021-08-07T12:07:21.054Z</time>
      </trkpt>
      <trkpt lat="46.91481" lon="8.63622">
        <ele>721</ele>
        <time>2021-08-07T12:07:22.055Z</time>
      </trkpt>
      <trkpt lat="46.91481" lon="8.63622">
        <ele>720</ele>
        <time>2021-08-07T12:07:23.055Z</time>
      </trkpt>
      <trkpt lat="46.9148" lon="8.63621">
        <ele>719</ele>
        <time>2021-08-07T12:07:24.056Z</time>
      </trkpt>
      <trkpt lat="46.91479" lon="8.6362">
        <ele>718</ele>
        <time>2021-08-07T12:07:25.055Z</time>
      </trkpt>
      <trkpt lat="46.91479" lon="8.63619">
        <ele>718</ele>
        <time>2021-08-07T12:07:26.055Z</time>
      </trkpt>
      <trkpt lat="46.91479" lon="8.63619">
        <ele>717</ele>
        <time>2021-08-07T12:07:34.216Z</time>
      </trkpt>
      <trkpt lat="46.91479" lon="8.63619">
        <ele>715</ele>
        <time>2021-08-07T12:07:35.216Z</time>
      </trkpt>
      <trkpt lat="46.91479" lon="8.63619">
        <ele>714</ele>
        <time>2021-08-07T12:07:41.056Z</time>
      </trkpt>
      <trkpt lat="46.91479" lon="8.6362">
        <ele>712</ele>
        <time>2021-08-07T12:07:42.057Z</time>
      </trkpt>
      <trkpt lat="46.9148" lon="8.63621">
        <ele>711</ele>
        <time>2021-08-07T12:07:49.943Z</time>
      </trkpt>
      <trkpt lat="46.9148" lon="8.63621">
        <ele>710</ele>
        <time>2021-08-07T12:07:50.943Z</time>
      </trkpt>
      <trkpt lat="46.9148" lon="8.63621">
        <ele>709</ele>
        <time>2021-08-07T12:07:51.943Z</time>
      </trkpt>
      <trkpt lat="46.91481" lon="8.63621">
        <ele>707</ele>
        <time>2021-08-07T12:07:52.944Z</time>
      </trkpt>
      <trkpt lat="46.9148" lon="8.6362">
        <ele>706</ele>
        <time>2021-08-07T12:07:53.943Z</time>
      </trkpt>
      <trkpt lat="46.9148" lon="8.63618">
        <ele>706</ele>
        <time>2021-08-07T12:07:54.943Z</time>
      </trkpt>
      <trkpt lat="46.91479" lon="8.63617">
        <ele>706</ele>
        <time>2021-08-07T12:08:10.059Z</time>
      </trkpt>
      <trkpt lat="46.91479" lon="8.63616">
        <ele>706</ele>
        <time>2021-08-07T12:08:11.060Z</time>
      </trkpt>
      <trkpt lat="46.91479" lon="8.63615">
        <ele>706</ele>
        <time>2021-08-07T12:08:12.059Z</time>
      </trkpt>
      <trkpt lat="46.91479" lon="8.63614">
        <ele>707</ele>
        <time>2021-08-07T12:08:13.059Z</time>
      </trkpt>
      <trkpt lat="46.91479" lon="8.63613">
        <ele>707</ele>
        <time>2021-08-07T12:08:14.059Z</time>
      </trkpt>
      <trkpt lat="46.91479" lon="8.63611">
        <ele>707</ele>
        <time>2021-08-07T12:08:15.059Z</time>
      </trkpt>
      <trkpt lat="46.91478" lon="8.63609">
        <ele>706</ele>
        <time>2021-08-07T12:08:16.059Z</time>
      </trkpt>
      <trkpt lat="46.91478" lon="8.63608">
        <ele>705</ele>
        <time>2021-08-07T12:08:17.059Z</time>
      </trkpt>
      <trkpt lat="46.91478" lon="8.63607">
        <ele>705</ele>
        <time>2021-08-07T12:08:18.060Z</time>
      </trkpt>
      <trkpt lat="46.91478" lon="8.63606">
        <ele>704</ele>
        <time>2021-08-07T12:08:19.059Z</time>
      </trkpt>
      <trkpt lat="46.91478" lon="8.63605">
        <ele>704</ele>
        <time>2021-08-07T12:08:20.059Z</time>
      </trkpt>
      <trkpt lat="46.91478" lon="8.63604">
        <ele>704</ele>
        <time>2021-08-07T12:08:21.059Z</time>
      </trkpt>
      <trkpt lat="46.91478" lon="8.63603">
        <ele>703</ele>
        <time>2021-08-07T12:08:22.059Z</time>
      </trkpt>
      <trkpt lat="46.91478" lon="8.63603">
        <ele>703</ele>
        <time>2021-08-07T12:08:23.059Z</time>
      </trkpt>
      <trkpt lat="46.91478" lon="8.63604">
        <ele>703</ele>
        <time>2021-08-07T12:08:24.060Z</time>
      </trkpt>
      <trkpt lat="46.91479" lon="8.63604">
        <ele>703</ele>
        <time>2021-08-07T12:08:25.059Z</time>
      </trkpt>
      <trkpt lat="46.91479" lon="8.63604">
        <ele>703</ele>
        <time>2021-08-07T12:08:26.059Z</time>
      </trkpt>
      <trkpt lat="46.9148" lon="8.63604">
        <ele>703</ele>
        <time>2021-08-07T12:08:27.059Z</time>
      </trkpt>
      <trkpt lat="46.9148" lon="8.63603">
        <ele>702</ele>
        <time>2021-08-07T12:08:28.060Z</time>
      </trkpt>
      <trkpt lat="46.91481" lon="8.63602">
        <ele>702</ele>
        <time>2021-08-07T12:08:29.060Z</time>
      </trkpt>
      <trkpt lat="46.91481" lon="8.63602">
        <ele>702</ele>
        <time>2021-08-07T12:08:30.060Z</time>
      </trkpt>
      <trkpt lat="46.91481" lon="8.63601">
        <ele>702</ele>
        <time>2021-08-07T12:08:31.060Z</time>
      </trkpt>
      <trkpt lat="46.91481" lon="8.636">
        <ele>702</ele>
        <time>2021-08-07T12:08:32.059Z</time>
      </trkpt>
      <trkpt lat="46.9148" lon="8.636">
        <ele>702</ele>
        <time>2021-08-07T12:08:33.059Z</time>
      </trkpt>
      <trkpt lat="46.9148" lon="8.63599">
        <ele>702</ele>
        <time>2021-08-07T12:08:34.059Z</time>
      </trkpt>
      <trkpt lat="46.9148" lon="8.63598">
        <ele>701</ele>
        <time>2021-08-07T12:08:35.059Z</time>
      </trkpt>
      <trkpt lat="46.9148" lon="8.63597">
        <ele>701</ele>
        <time>2021-08-07T12:08:36.060Z</time>
      </trkpt>
      <trkpt lat="46.9148" lon="8.63596">
        <ele>701</ele>
        <time>2021-08-07T12:08:37.059Z</time>
      </trkpt>
      <trkpt lat="46.9148" lon="8.63595">
        <ele>701</ele>
        <time>2021-08-07T12:08:38.060Z</time>
      </trkpt>
      <trkpt lat="46.91481" lon="8.63595">
        <ele>701</ele>
        <time>2021-08-07T12:08:39.060Z</time>
      </trkpt>
      <trkpt lat="46.91482" lon="8.63591">
        <ele>701</ele>
        <time>2021-08-07T12:08:40.059Z</time>
      </trkpt>
      <trkpt lat="46.91482" lon="8.63589">
        <ele>701</ele>
        <time>2021-08-07T12:08:41.060Z</time>
      </trkpt>
      <trkpt lat="46.91481" lon="8.63588">
        <ele>701</ele>
        <time>2021-08-07T12:08:42.059Z</time>
      </trkpt>
      <trkpt lat="46.91481" lon="8.63587">
        <ele>702</ele>
        <time>2021-08-07T12:08:43.059Z</time>
      </trkpt>
      <trkpt lat="46.91481" lon="8.63587">
        <ele>702</ele>
        <time>2021-08-07T12:08:44.059Z</time>
      </trkpt>
      <trkpt lat="46.91478" lon="8.63578">
        <ele>703</ele>
        <time>2021-08-07T12:08:45.060Z</time>
      </trkpt>
      <trkpt lat="46.91478" lon="8.63577">
        <ele>703</ele>
        <time>2021-08-07T12:08:46.059Z</time>
      </trkpt>
      <trkpt lat="46.91477" lon="8.63577">
        <ele>703</ele>
        <time>2021-08-07T12:08:47.059Z</time>
      </trkpt>
      <trkpt lat="46.91477" lon="8.63576">
        <ele>704</ele>
        <time>2021-08-07T12:08:48.059Z</time>
      </trkpt>
      <trkpt lat="46.91478" lon="8.63576">
        <ele>704</ele>
        <time>2021-08-07T12:08:49.060Z</time>
      </trkpt>
      <trkpt lat="46.91478" lon="8.63576">
        <ele>705</ele>
        <time>2021-08-07T12:08:50.060Z</time>
      </trkpt>
      <trkpt lat="46.91478" lon="8.63576">
        <ele>705</ele>
        <time>2021-08-07T12:08:51.059Z</time>
      </trkpt>
      <trkpt lat="46.91477" lon="8.63575">
        <ele>705</ele>
        <time>2021-08-07T12:08:52.059Z</time>
      </trkpt>
      <trkpt lat="46.91477" lon="8.63575">
        <ele>705</ele>
        <time>2021-08-07T12:08:53.060Z</time>
      </trkpt>
      <trkpt lat="46.91477" lon="8.63575">
        <ele>706</ele>
        <time>2021-08-07T12:08:54.059Z</time>
      </trkpt>
      <trkpt lat="46.91478" lon="8.63573">
        <ele>706</ele>
        <time>2021-08-07T12:08:55.061Z</time>
      </trkpt>
      <trkpt lat="46.91478" lon="8.63573">
        <ele>707</ele>
        <time>2021-08-07T12:08:56.060Z</time>
      </trkpt>
      <trkpt lat="46.91479" lon="8.63571">
        <ele>707</ele>
        <time>2021-08-07T12:08:57.060Z</time>
      </trkpt>
      <trkpt lat="46.9148" lon="8.6357">
        <ele>707</ele>
        <time>2021-08-07T12:08:58.061Z</time>
      </trkpt>
      <trkpt lat="46.91481" lon="8.63569">
        <ele>708</ele>
        <time>2021-08-07T12:08:59.061Z</time>
      </trkpt>
      <trkpt lat="46.91482" lon="8.63567">
        <ele>708</ele>
        <time>2021-08-07T12:09:00.060Z</time>
      </trkpt>
      <trkpt lat="46.91483" lon="8.63565">
        <ele>708</ele>
        <time>2021-08-07T12:09:01.060Z</time>
      </trkpt>
      <trkpt lat="46.91483" lon="8.63563">
        <ele>708</ele>
        <time>2021-08-07T12:09:02.060Z</time>
      </trkpt>
      <trkpt lat="46.91483" lon="8.63561">
        <ele>709</ele>
        <time>2021-08-07T12:09:03.060Z</time>
      </trkpt>
      <trkpt lat="46.91483" lon="8.63559">
        <ele>709</ele>
        <time>2021-08-07T12:09:04.061Z</time>
      </trkpt>
      <trkpt lat="46.91483" lon="8.63558">
        <ele>709</ele>
        <time>2021-08-07T12:09:05.061Z</time>
      </trkpt>
      <trkpt lat="46.91484" lon="8.63557">
        <ele>709</ele>
        <time>2021-08-07T12:09:06.061Z</time>
      </trkpt>
      <trkpt lat="46.91485" lon="8.63556">
        <ele>709</ele>
        <time>2021-08-07T12:09:07.061Z</time>
      </trkpt>
      <trkpt lat="46.91485" lon="8.63556">
        <ele>709</ele>
        <time>2021-08-07T12:09:08.061Z</time>
      </trkpt>
      <trkpt lat="46.91486" lon="8.63554">
        <ele>709</ele>
        <time>2021-08-07T12:09:09.061Z</time>
      </trkpt>
      <trkpt lat="46.91487" lon="8.63554">
        <ele>710</ele>
        <time>2021-08-07T12:09:10.061Z</time>
      </trkpt>
      <trkpt lat="46.91487" lon="8.63553">
        <ele>710</ele>
        <time>2021-08-07T12:09:11.061Z</time>
      </trkpt>
      <trkpt lat="46.91488" lon="8.63553">
        <ele>710</ele>
        <time>2021-08-07T12:09:12.060Z</time>
      </trkpt>
      <trkpt lat="46.91489" lon="8.63554">
        <ele>710</ele>
        <time>2021-08-07T12:09:13.061Z</time>
      </trkpt>
      <trkpt lat="46.91489" lon="8.63555">
        <ele>710</ele>
        <time>2021-08-07T12:09:14.060Z</time>
      </trkpt>
      <trkpt lat="46.91489" lon="8.63555">
        <ele>710</ele>
        <time>2021-08-07T12:09:15.061Z</time>
      </trkpt>
      <trkpt lat="46.91489" lon="8.63556">
        <ele>710</ele>
        <time>2021-08-07T12:09:16.061Z</time>
      </trkpt>
      <trkpt lat="46.91489" lon="8.63558">
        <ele>710</ele>
        <time>2021-08-07T12:09:17.061Z</time>
      </trkpt>
      <trkpt lat="46.9149" lon="8.63558">
        <ele>710</ele>
        <time>2021-08-07T12:09:18.060Z</time>
      </trkpt>
      <trkpt lat="46.91489" lon="8.63558">
        <ele>711</ele>
        <time>2021-08-07T12:09:19.060Z</time>
      </trkpt>
      <trkpt lat="46.9149" lon="8.63558">
        <ele>710</ele>
        <time>2021-08-07T12:09:20.061Z</time>
      </trkpt>
      <trkpt lat="46.91489" lon="8.63558">
        <ele>710</ele>
        <time>2021-08-07T12:09:21.062Z</time>
      </trkpt>
      <trkpt lat="46.91489" lon="8.63557">
        <ele>710</ele>
        <time>2021-08-07T12:09:22.062Z</time>
      </trkpt>
      <trkpt lat="46.91489" lon="8.63556">
        <ele>710</ele>
        <time>2021-08-07T12:09:23.061Z</time>
      </trkpt>
      <trkpt lat="46.91491" lon="8.63557">
        <ele>710</ele>
        <time>2021-08-07T12:09:24.061Z</time>
      </trkpt>
      <trkpt lat="46.91492" lon="8.63558">
        <ele>710</ele>
        <time>2021-08-07T12:09:25.062Z</time>
      </trkpt>
      <trkpt lat="46.91495" lon="8.6356">
        <ele>710</ele>
        <time>2021-08-07T12:09:26.062Z</time>
      </trkpt>
      <trkpt lat="46.91497" lon="8.63561">
        <ele>710</ele>
        <time>2021-08-07T12:09:27.062Z</time>
      </trkpt>
      <trkpt lat="46.91498" lon="8.63562">
        <ele>710</ele>
        <time>2021-08-07T12:09:28.062Z</time>
      </trkpt>
      <trkpt lat="46.915" lon="8.63562">
        <ele>710</ele>
        <time>2021-08-07T12:09:29.062Z</time>
      </trkpt>
      <trkpt lat="46.91501" lon="8.63562">
        <ele>710</ele>
        <time>2021-08-07T12:09:30.061Z</time>
      </trkpt>
      <trkpt lat="46.91502" lon="8.63562">
        <ele>709</ele>
        <time>2021-08-07T12:09:31.061Z</time>
      </trkpt>
      <trkpt lat="46.91503" lon="8.63561">
        <ele>709</ele>
        <time>2021-08-07T12:09:32.062Z</time>
      </trkpt>
      <trkpt lat="46.91504" lon="8.63559">
        <ele>709</ele>
        <time>2021-08-07T12:09:33.061Z</time>
      </trkpt>
      <trkpt lat="46.91504" lon="8.63558">
        <ele>709</ele>
        <time>2021-08-07T12:09:34.062Z</time>
      </trkpt>
      <trkpt lat="46.91502" lon="8.63555">
        <ele>709</ele>
        <time>2021-08-07T12:09:35.062Z</time>
      </trkpt>
      <trkpt lat="46.91501" lon="8.63553">
        <ele>709</ele>
        <time>2021-08-07T12:09:36.061Z</time>
      </trkpt>
      <trkpt lat="46.915" lon="8.63552">
        <ele>709</ele>
        <time>2021-08-07T12:09:37.062Z</time>
      </trkpt>
      <trkpt lat="46.91499" lon="8.63552">
        <ele>709</ele>
        <time>2021-08-07T12:09:38.062Z</time>
      </trkpt>
      <trkpt lat="46.91499" lon="8.63552">
        <ele>709</ele>
        <time>2021-08-07T12:09:39.062Z</time>
      </trkpt>
      <trkpt lat="46.91499" lon="8.63553">
        <ele>708</ele>
        <time>2021-08-07T12:09:40.062Z</time>
      </trkpt>
      <trkpt lat="46.91499" lon="8.63553">
        <ele>708</ele>
        <time>2021-08-07T12:09:41.061Z</time>
      </trkpt>
      <trkpt lat="46.91499" lon="8.63554">
        <ele>708</ele>
        <time>2021-08-07T12:09:42.062Z</time>
      </trkpt>
      <trkpt lat="46.91499" lon="8.63555">
        <ele>707</ele>
        <time>2021-08-07T12:09:43.061Z</time>
      </trkpt>
      <trkpt lat="46.91499" lon="8.63556">
        <ele>707</ele>
        <time>2021-08-07T12:09:44.062Z</time>
      </trkpt>
      <trkpt lat="46.91499" lon="8.63556">
        <ele>706</ele>
        <time>2021-08-07T12:09:45.062Z</time>
      </trkpt>
      <trkpt lat="46.91499" lon="8.63555">
        <ele>706</ele>
        <time>2021-08-07T12:09:46.062Z</time>
      </trkpt>
      <trkpt lat="46.91499" lon="8.63554">
        <ele>705</ele>
        <time>2021-08-07T12:09:47.061Z</time>
      </trkpt>
      <trkpt lat="46.91498" lon="8.63552">
        <ele>705</ele>
        <time>2021-08-07T12:09:48.061Z</time>
      </trkpt>
      <trkpt lat="46.91497" lon="8.6355">
        <ele>704</ele>
        <time>2021-08-07T12:09:49.062Z</time>
      </trkpt>
      <trkpt lat="46.91495" lon="8.63547">
        <ele>704</ele>
        <time>2021-08-07T12:09:50.062Z</time>
      </trkpt>
      <trkpt lat="46.91494" lon="8.63545">
        <ele>704</ele>
        <time>2021-08-07T12:09:51.062Z</time>
      </trkpt>
      <trkpt lat="46.91492" lon="8.63542">
        <ele>703</ele>
        <time>2021-08-07T12:09:52.062Z</time>
      </trkpt>
      <trkpt lat="46.91491" lon="8.6354">
        <ele>703</ele>
        <time>2021-08-07T12:09:53.062Z</time>
      </trkpt>
      <trkpt lat="46.91489" lon="8.63538">
        <ele>703</ele>
        <time>2021-08-07T12:09:54.061Z</time>
      </trkpt>
      <trkpt lat="46.91488" lon="8.63536">
        <ele>703</ele>
        <time>2021-08-07T12:09:55.061Z</time>
      </trkpt>
      <trkpt lat="46.91487" lon="8.63536">
        <ele>703</ele>
        <time>2021-08-07T12:09:56.062Z</time>
      </trkpt>
      <trkpt lat="46.91486" lon="8.63535">
        <ele>703</ele>
        <time>2021-08-07T12:09:57.061Z</time>
      </trkpt>
      <trkpt lat="46.91486" lon="8.63534">
        <ele>703</ele>
        <time>2021-08-07T12:09:58.062Z</time>
      </trkpt>
      <trkpt lat="46.91486" lon="8.63534">
        <ele>703</ele>
        <time>2021-08-07T12:09:59.061Z</time>
      </trkpt>
      <trkpt lat="46.91484" lon="8.63533">
        <ele>703</ele>
        <time>2021-08-07T12:10:00.062Z</time>
      </trkpt>
      <trkpt lat="46.91483" lon="8.6353">
        <ele>703</ele>
        <time>2021-08-07T12:10:01.062Z</time>
      </trkpt>
      <trkpt lat="46.91483" lon="8.63528">
        <ele>703</ele>
        <time>2021-08-07T12:10:02.061Z</time>
      </trkpt>
      <trkpt lat="46.91483" lon="8.63526">
        <ele>703</ele>
        <time>2021-08-07T12:10:03.062Z</time>
      </trkpt>
      <trkpt lat="46.91482" lon="8.63522">
        <ele>703</ele>
        <time>2021-08-07T12:10:04.062Z</time>
      </trkpt>
      <trkpt lat="46.91481" lon="8.6352">
        <ele>704</ele>
        <time>2021-08-07T12:10:05.062Z</time>
      </trkpt>
      <trkpt lat="46.9148" lon="8.63517">
        <ele>704</ele>
        <time>2021-08-07T12:10:06.062Z</time>
      </trkpt>
      <trkpt lat="46.91479" lon="8.63515">
        <ele>704</ele>
        <time>2021-08-07T12:10:07.062Z</time>
      </trkpt>
      <trkpt lat="46.9148" lon="8.63514">
        <ele>704</ele>
        <time>2021-08-07T12:10:08.062Z</time>
      </trkpt>
      <trkpt lat="46.9148" lon="8.63513">
        <ele>705</ele>
        <time>2021-08-07T12:10:09.062Z</time>
      </trkpt>
      <trkpt lat="46.91479" lon="8.63512">
        <ele>705</ele>
        <time>2021-08-07T12:10:10.062Z</time>
      </trkpt>
      <trkpt lat="46.91479" lon="8.63512">
        <ele>705</ele>
        <time>2021-08-07T12:10:11.062Z</time>
      </trkpt>
      <trkpt lat="46.91477" lon="8.6351">
        <ele>706</ele>
        <time>2021-08-07T12:10:12.061Z</time>
      </trkpt>
      <trkpt lat="46.91476" lon="8.63509">
        <ele>706</ele>
        <time>2021-08-07T12:10:13.062Z</time>
      </trkpt>
      <trkpt lat="46.91476" lon="8.63508">
        <ele>706</ele>
        <time>2021-08-07T12:10:14.062Z</time>
      </trkpt>
      <trkpt lat="46.91476" lon="8.63508">
        <ele>707</ele>
        <time>2021-08-07T12:10:15.062Z</time>
      </trkpt>
      <trkpt lat="46.91476" lon="8.63508">
        <ele>707</ele>
        <time>2021-08-07T12:10:16.062Z</time>
      </trkpt>
      <trkpt lat="46.91476" lon="8.63509">
        <ele>707</ele>
        <time>2021-08-07T12:10:17.061Z</time>
      </trkpt>
      <trkpt lat="46.91477" lon="8.6351">
        <ele>708</ele>
        <time>2021-08-07T12:10:18.064Z</time>
      </trkpt>
      <trkpt lat="46.91478" lon="8.63511">
        <ele>708</ele>
        <time>2021-08-07T12:10:19.064Z</time>
      </trkpt>
      <trkpt lat="46.91478" lon="8.63511">
        <ele>708</ele>
        <time>2021-08-07T12:10:20.063Z</time>
      </trkpt>
      <trkpt lat="46.91478" lon="8.6351">
        <ele>708</ele>
        <time>2021-08-07T12:10:21.064Z</time>
      </trkpt>
      <trkpt lat="46.91477" lon="8.63507">
        <ele>708</ele>
        <time>2021-08-07T12:10:22.063Z</time>
      </trkpt>
      <trkpt lat="46.91478" lon="8.63507">
        <ele>709</ele>
        <time>2021-08-07T12:10:23.064Z</time>
      </trkpt>
      <trkpt lat="46.9148" lon="8.63508">
        <ele>709</ele>
        <time>2021-08-07T12:10:24.064Z</time>
      </trkpt>
      <trkpt lat="46.91481" lon="8.63506">
        <ele>709</ele>
        <time>2021-08-07T12:10:25.063Z</time>
      </trkpt>
      <trkpt lat="46.91481" lon="8.63503">
        <ele>709</ele>
        <time>2021-08-07T12:10:26.063Z</time>
      </trkpt>
      <trkpt lat="46.91481" lon="8.63501">
        <ele>709</ele>
        <time>2021-08-07T12:10:27.064Z</time>
      </trkpt>
      <trkpt lat="46.91481" lon="8.635">
        <ele>710</ele>
        <time>2021-08-07T12:10:28.063Z</time>
      </trkpt>
      <trkpt lat="46.9148" lon="8.63498">
        <ele>710</ele>
        <time>2021-08-07T12:10:29.064Z</time>
      </trkpt>
      <trkpt lat="46.91479" lon="8.63497">
        <ele>710</ele>
        <time>2021-08-07T12:10:30.064Z</time>
      </trkpt>
      <trkpt lat="46.91479" lon="8.63496">
        <ele>710</ele>
        <time>2021-08-07T12:10:31.064Z</time>
      </trkpt>
      <trkpt lat="46.91478" lon="8.63496">
        <ele>710</ele>
        <time>2021-08-07T12:10:32.064Z</time>
      </trkpt>
      <trkpt lat="46.91478" lon="8.63496">
        <ele>711</ele>
        <time>2021-08-07T12:10:33.064Z</time>
      </trkpt>
      <trkpt lat="46.91477" lon="8.63496">
        <ele>711</ele>
        <time>2021-08-07T12:10:34.064Z</time>
      </trkpt>
      <trkpt lat="46.91478" lon="8.63497">
        <ele>711</ele>
        <time>2021-08-07T12:10:35.064Z</time>
      </trkpt>
      <trkpt lat="46.91479" lon="8.63498">
        <ele>711</ele>
        <time>2021-08-07T12:10:36.064Z</time>
      </trkpt>
      <trkpt lat="46.91479" lon="8.63497">
        <ele>711</ele>
        <time>2021-08-07T12:10:37.064Z</time>
      </trkpt>
      <trkpt lat="46.91478" lon="8.63495">
        <ele>711</ele>
        <time>2021-08-07T12:10:38.064Z</time>
      </trkpt>
      <trkpt lat="46.91477" lon="8.63493">
        <ele>711</ele>
        <time>2021-08-07T12:10:39.064Z</time>
      </trkpt>
      <trkpt lat="46.91477" lon="8.63492">
        <ele>711</ele>
        <time>2021-08-07T12:10:40.064Z</time>
      </trkpt>
      <trkpt lat="46.91477" lon="8.63491">
        <ele>711</ele>
        <time>2021-08-07T12:10:41.064Z</time>
      </trkpt>
      <trkpt lat="46.91476" lon="8.63489">
        <ele>711</ele>
        <time>2021-08-07T12:10:42.064Z</time>
      </trkpt>
      <trkpt lat="46.91475" lon="8.63488">
        <ele>711</ele>
        <time>2021-08-07T12:10:43.064Z</time>
      </trkpt>
      <trkpt lat="46.91474" lon="8.63488">
        <ele>711</ele>
        <time>2021-08-07T12:10:44.063Z</time>
      </trkpt>
      <trkpt lat="46.91473" lon="8.63488">
        <ele>711</ele>
        <time>2021-08-07T12:10:45.064Z</time>
      </trkpt>
      <trkpt lat="46.91472" lon="8.63486">
        <ele>711</ele>
        <time>2021-08-07T12:10:46.063Z</time>
      </trkpt>
      <trkpt lat="46.9147" lon="8.63483">
        <ele>711</ele>
        <time>2021-08-07T12:10:47.064Z</time>
      </trkpt>
      <trkpt lat="46.91469" lon="8.63481">
        <ele>712</ele>
        <time>2021-08-07T12:10:51.047Z</time>
      </trkpt>
      <trkpt lat="46.9147" lon="8.63481">
        <ele>712</ele>
        <time>2021-08-07T12:10:57.819Z</time>
      </trkpt>
      <trkpt lat="46.91471" lon="8.63482">
        <ele>712</ele>
        <time>2021-08-07T12:10:58.819Z</time>
      </trkpt>
      <trkpt lat="46.91472" lon="8.63481">
        <ele>712</ele>
        <time>2021-08-07T12:10:59.819Z</time>
      </trkpt>
      <trkpt lat="46.91474" lon="8.63482">
        <ele>712</ele>
        <time>2021-08-07T12:11:00.820Z</time>
      </trkpt>
      <trkpt lat="46.91474" lon="8.63484">
        <ele>713</ele>
        <time>2021-08-07T12:11:01.819Z</time>
      </trkpt>
      <trkpt lat="46.91474" lon="8.63484">
        <ele>713</ele>
        <time>2021-08-07T12:11:02.820Z</time>
      </trkpt>
      <trkpt lat="46.91474" lon="8.63484">
        <ele>713</ele>
        <time>2021-08-07T12:11:03.820Z</time>
      </trkpt>
      <trkpt lat="46.91474" lon="8.63483">
        <ele>714</ele>
        <time>2021-08-07T12:11:04.819Z</time>
      </trkpt>
      <trkpt lat="46.91474" lon="8.63481">
        <ele>714</ele>
        <time>2021-08-07T12:11:05.820Z</time>
      </trkpt>
      <trkpt lat="46.91473" lon="8.63479">
        <ele>715</ele>
        <time>2021-08-07T12:11:06.820Z</time>
      </trkpt>
      <trkpt lat="46.91473" lon="8.63478">
        <ele>715</ele>
        <time>2021-08-07T12:11:07.819Z</time>
      </trkpt>
      <trkpt lat="46.91474" lon="8.63479">
        <ele>715</ele>
        <time>2021-08-07T12:11:08.819Z</time>
      </trkpt>
      <trkpt lat="46.91474" lon="8.63478">
        <ele>716</ele>
        <time>2021-08-07T12:11:09.820Z</time>
      </trkpt>
      <trkpt lat="46.91473" lon="8.63476">
        <ele>716</ele>
        <time>2021-08-07T12:11:10.820Z</time>
      </trkpt>
      <trkpt lat="46.91471" lon="8.63467">
        <ele>718</ele>
        <time>2021-08-07T12:11:11.821Z</time>
      </trkpt>
      <trkpt lat="46.91469" lon="8.63467">
        <ele>718</ele>
        <time>2021-08-07T12:11:12.821Z</time>
      </trkpt>
      <trkpt lat="46.91468" lon="8.63465">
        <ele>718</ele>
        <time>2021-08-07T12:11:13.820Z</time>
      </trkpt>
      <trkpt lat="46.91467" lon="8.63461">
        <ele>719</ele>
        <time>2021-08-07T12:11:14.821Z</time>
      </trkpt>
      <trkpt lat="46.91468" lon="8.63459">
        <ele>719</ele>
        <time>2021-08-07T12:11:15.821Z</time>
      </trkpt>
      <trkpt lat="46.91468" lon="8.63458">
        <ele>719</ele>
        <time>2021-08-07T12:11:16.821Z</time>
      </trkpt>
      <trkpt lat="46.91468" lon="8.63456">
        <ele>720</ele>
        <time>2021-08-07T12:11:17.820Z</time>
      </trkpt>
      <trkpt lat="46.91468" lon="8.63456">
        <ele>720</ele>
        <time>2021-08-07T12:11:18.820Z</time>
      </trkpt>
      <trkpt lat="46.91468" lon="8.63457">
        <ele>720</ele>
        <time>2021-08-07T12:11:19.821Z</time>
      </trkpt>
      <trkpt lat="46.91468" lon="8.63457">
        <ele>720</ele>
        <time>2021-08-07T12:11:20.820Z</time>
      </trkpt>
      <trkpt lat="46.91468" lon="8.63458">
        <ele>721</ele>
        <time>2021-08-07T12:11:21.820Z</time>
      </trkpt>
      <trkpt lat="46.91468" lon="8.63458">
        <ele>721</ele>
        <time>2021-08-07T12:11:22.820Z</time>
      </trkpt>
      <trkpt lat="46.91468" lon="8.63459">
        <ele>721</ele>
        <time>2021-08-07T12:11:23.820Z</time>
      </trkpt>
      <trkpt lat="46.91467" lon="8.63458">
        <ele>721</ele>
        <time>2021-08-07T12:11:24.821Z</time>
      </trkpt>
      <trkpt lat="46.91466" lon="8.63457">
        <ele>721</ele>
        <time>2021-08-07T12:11:25.820Z</time>
      </trkpt>
      <trkpt lat="46.91465" lon="8.63455">
        <ele>721</ele>
        <time>2021-08-07T12:11:26.820Z</time>
      </trkpt>
      <trkpt lat="46.91464" lon="8.63452">
        <ele>721</ele>
        <time>2021-08-07T12:11:27.821Z</time>
      </trkpt>
      <trkpt lat="46.91465" lon="8.6345">
        <ele>721</ele>
        <time>2021-08-07T12:11:28.820Z</time>
      </trkpt>
      <trkpt lat="46.91464" lon="8.63448">
        <ele>721</ele>
        <time>2021-08-07T12:11:29.820Z</time>
      </trkpt>
      <trkpt lat="46.91464" lon="8.63449">
        <ele>721</ele>
        <time>2021-08-07T12:11:30.820Z</time>
      </trkpt>
      <trkpt lat="46.91463" lon="8.63451">
        <ele>721</ele>
        <time>2021-08-07T12:11:31.820Z</time>
      </trkpt>
      <trkpt lat="46.91462" lon="8.63452">
        <ele>721</ele>
        <time>2021-08-07T12:11:32.820Z</time>
      </trkpt>
      <trkpt lat="46.91462" lon="8.63451">
        <ele>721</ele>
        <time>2021-08-07T12:11:33.820Z</time>
      </trkpt>
      <trkpt lat="46.91462" lon="8.6345">
        <ele>721</ele>
        <time>2021-08-07T12:11:34.821Z</time>
      </trkpt>
      <trkpt lat="46.91461" lon="8.63451">
        <ele>721</ele>
        <time>2021-08-07T12:11:35.820Z</time>
      </trkpt>
      <trkpt lat="46.91461" lon="8.63452">
        <ele>722</ele>
        <time>2021-08-07T12:11:36.821Z</time>
      </trkpt>
      <trkpt lat="46.9146" lon="8.63452">
        <ele>722</ele>
        <time>2021-08-07T12:11:37.820Z</time>
      </trkpt>
      <trkpt lat="46.9146" lon="8.63452">
        <ele>722</ele>
        <time>2021-08-07T12:11:38.821Z</time>
      </trkpt>
      <trkpt lat="46.91461" lon="8.63453">
        <ele>722</ele>
        <time>2021-08-07T12:11:39.820Z</time>
      </trkpt>
      <trkpt lat="46.91461" lon="8.63453">
        <ele>722</ele>
        <time>2021-08-07T12:11:40.820Z</time>
      </trkpt>
      <trkpt lat="46.91462" lon="8.63454">
        <ele>722</ele>
        <time>2021-08-07T12:11:41.820Z</time>
      </trkpt>
      <trkpt lat="46.91462" lon="8.63454">
        <ele>721</ele>
        <time>2021-08-07T12:11:42.821Z</time>
      </trkpt>
      <trkpt lat="46.91462" lon="8.63456">
        <ele>721</ele>
        <time>2021-08-07T12:11:43.821Z</time>
      </trkpt>
      <trkpt lat="46.91463" lon="8.63457">
        <ele>721</ele>
        <time>2021-08-07T12:11:44.821Z</time>
      </trkpt>
      <trkpt lat="46.91463" lon="8.6346">
        <ele>721</ele>
        <time>2021-08-07T12:11:45.820Z</time>
      </trkpt>
      <trkpt lat="46.9146" lon="8.63453">
        <ele>721</ele>
        <time>2021-08-07T12:11:46.820Z</time>
      </trkpt>
      <trkpt lat="46.9146" lon="8.63453">
        <ele>721</ele>
        <time>2021-08-07T12:11:47.821Z</time>
      </trkpt>
      <trkpt lat="46.91461" lon="8.63451">
        <ele>721</ele>
        <time>2021-08-07T12:11:48.821Z</time>
      </trkpt>
      <trkpt lat="46.91461" lon="8.63449">
        <ele>721</ele>
        <time>2021-08-07T12:11:49.821Z</time>
      </trkpt>
      <trkpt lat="46.91462" lon="8.63449">
        <ele>721</ele>
        <time>2021-08-07T12:11:50.820Z</time>
      </trkpt>
      <trkpt lat="46.91462" lon="8.63451">
        <ele>721</ele>
        <time>2021-08-07T12:11:51.821Z</time>
      </trkpt>
      <trkpt lat="46.91462" lon="8.63452">
        <ele>721</ele>
        <time>2021-08-07T12:11:52.821Z</time>
      </trkpt>
      <trkpt lat="46.91461" lon="8.6345">
        <ele>721</ele>
        <time>2021-08-07T12:11:53.821Z</time>
      </trkpt>
      <trkpt lat="46.91461" lon="8.63449">
        <ele>720</ele>
        <time>2021-08-07T12:11:54.821Z</time>
      </trkpt>
      <trkpt lat="46.9146" lon="8.63447">
        <ele>720</ele>
        <time>2021-08-07T12:11:55.820Z</time>
      </trkpt>
      <trkpt lat="46.9146" lon="8.63447">
        <ele>720</ele>
        <time>2021-08-07T12:11:56.821Z</time>
      </trkpt>
      <trkpt lat="46.91459" lon="8.63446">
        <ele>720</ele>
        <time>2021-08-07T12:11:57.821Z</time>
      </trkpt>
      <trkpt lat="46.91458" lon="8.63446">
        <ele>720</ele>
        <time>2021-08-07T12:11:58.821Z</time>
      </trkpt>
      <trkpt lat="46.91459" lon="8.63443">
        <ele>720</ele>
        <time>2021-08-07T12:11:59.821Z</time>
      </trkpt>
      <trkpt lat="46.91459" lon="8.6344">
        <ele>720</ele>
        <time>2021-08-07T12:12:00.821Z</time>
      </trkpt>
      <trkpt lat="46.91459" lon="8.63441">
        <ele>720</ele>
        <time>2021-08-07T12:12:01.820Z</time>
      </trkpt>
      <trkpt lat="46.91458" lon="8.63441">
        <ele>720</ele>
        <time>2021-08-07T12:12:02.820Z</time>
      </trkpt>
      <trkpt lat="46.91456" lon="8.6344">
        <ele>720</ele>
        <time>2021-08-07T12:12:03.820Z</time>
      </trkpt>
      <trkpt lat="46.91454" lon="8.63439">
        <ele>720</ele>
        <time>2021-08-07T12:12:04.820Z</time>
      </trkpt>
      <trkpt lat="46.91453" lon="8.63438">
        <ele>719</ele>
        <time>2021-08-07T12:12:05.820Z</time>
      </trkpt>
      <trkpt lat="46.91454" lon="8.63438">
        <ele>719</ele>
        <time>2021-08-07T12:12:06.821Z</time>
      </trkpt>
      <trkpt lat="46.91454" lon="8.63437">
        <ele>719</ele>
        <time>2021-08-07T12:12:07.821Z</time>
      </trkpt>
      <trkpt lat="46.91454" lon="8.63435">
        <ele>719</ele>
        <time>2021-08-07T12:12:08.821Z</time>
      </trkpt>
      <trkpt lat="46.91453" lon="8.63434">
        <ele>719</ele>
        <time>2021-08-07T12:12:09.821Z</time>
      </trkpt>
      <trkpt lat="46.91452" lon="8.63435">
        <ele>719</ele>
        <time>2021-08-07T12:12:10.821Z</time>
      </trkpt>
      <trkpt lat="46.91452" lon="8.63438">
        <ele>719</ele>
        <time>2021-08-07T12:12:11.821Z</time>
      </trkpt>
      <trkpt lat="46.91452" lon="8.63439">
        <ele>719</ele>
        <time>2021-08-07T12:12:17.944Z</time>
      </trkpt>
      <trkpt lat="46.91453" lon="8.63439">
        <ele>718</ele>
        <time>2021-08-07T12:12:18.945Z</time>
      </trkpt>
      <trkpt lat="46.91454" lon="8.63438">
        <ele>718</ele>
        <time>2021-08-07T12:12:19.944Z</time>
      </trkpt>
      <trkpt lat="46.91455" lon="8.63438">
        <ele>718</ele>
        <time>2021-08-07T12:12:20.945Z</time>
      </trkpt>
      <trkpt lat="46.91456" lon="8.63439">
        <ele>718</ele>
        <time>2021-08-07T12:12:21.944Z</time>
      </trkpt>
      <trkpt lat="46.91456" lon="8.6344">
        <ele>718</ele>
        <time>2021-08-07T12:12:22.945Z</time>
      </trkpt>
      <trkpt lat="46.91456" lon="8.6344">
        <ele>718</ele>
        <time>2021-08-07T12:12:23.944Z</time>
      </trkpt>
      <trkpt lat="46.91455" lon="8.6344">
        <ele>717</ele>
        <time>2021-08-07T12:12:24.944Z</time>
      </trkpt>
      <trkpt lat="46.91453" lon="8.63441">
        <ele>717</ele>
        <time>2021-08-07T12:12:25.945Z</time>
      </trkpt>
      <trkpt lat="46.91453" lon="8.63441">
        <ele>717</ele>
        <time>2021-08-07T12:12:26.944Z</time>
      </trkpt>
      <trkpt lat="46.91452" lon="8.63441">
        <ele>717</ele>
        <time>2021-08-07T12:12:27.945Z</time>
      </trkpt>
      <trkpt lat="46.91451" lon="8.63443">
        <ele>717</ele>
        <time>2021-08-07T12:12:28.944Z</time>
      </trkpt>
      <trkpt lat="46.9145" lon="8.63446">
        <ele>717</ele>
        <time>2021-08-07T12:12:29.945Z</time>
      </trkpt>
      <trkpt lat="46.91449" lon="8.63449">
        <ele>717</ele>
        <time>2021-08-07T12:12:30.945Z</time>
      </trkpt>
      <trkpt lat="46.91448" lon="8.6345">
        <ele>717</ele>
        <time>2021-08-07T12:12:31.945Z</time>
      </trkpt>
      <trkpt lat="46.91447" lon="8.63451">
        <ele>717</ele>
        <time>2021-08-07T12:12:32.945Z</time>
      </trkpt>
      <trkpt lat="46.91445" lon="8.63452">
        <ele>717</ele>
        <time>2021-08-07T12:12:33.944Z</time>
      </trkpt>
      <trkpt lat="46.91443" lon="8.63452">
        <ele>717</ele>
        <time>2021-08-07T12:12:34.945Z</time>
      </trkpt>
      <trkpt lat="46.91441" lon="8.63453">
        <ele>717</ele>
        <time>2021-08-07T12:12:35.945Z</time>
      </trkpt>
      <trkpt lat="46.9144" lon="8.63453">
        <ele>717</ele>
        <time>2021-08-07T12:12:36.945Z</time>
      </trkpt>
      <trkpt lat="46.91438" lon="8.63455">
        <ele>717</ele>
        <time>2021-08-07T12:12:37.945Z</time>
      </trkpt>
      <trkpt lat="46.91436" lon="8.63455">
        <ele>717</ele>
        <time>2021-08-07T12:12:38.944Z</time>
      </trkpt>
      <trkpt lat="46.91436" lon="8.63456">
        <ele>717</ele>
        <time>2021-08-07T12:12:39.944Z</time>
      </trkpt>
      <trkpt lat="46.91438" lon="8.63456">
        <ele>717</ele>
        <time>2021-08-07T12:12:40.944Z</time>
      </trkpt>
      <trkpt lat="46.9144" lon="8.63457">
        <ele>717</ele>
        <time>2021-08-07T12:12:41.945Z</time>
      </trkpt>
      <trkpt lat="46.91442" lon="8.63457">
        <ele>717</ele>
        <time>2021-08-07T12:12:42.944Z</time>
      </trkpt>
      <trkpt lat="46.91444" lon="8.63458">
        <ele>717</ele>
        <time>2021-08-07T12:12:43.945Z</time>
      </trkpt>
      <trkpt lat="46.91447" lon="8.63456">
        <ele>717</ele>
        <time>2021-08-07T12:12:44.944Z</time>
      </trkpt>
      <trkpt lat="46.91448" lon="8.63456">
        <ele>717</ele>
        <time>2021-08-07T12:12:45.945Z</time>
      </trkpt>
      <trkpt lat="46.91449" lon="8.63455">
        <ele>717</ele>
        <time>2021-08-07T12:12:46.945Z</time>
      </trkpt>
      <trkpt lat="46.91449" lon="8.63454">
        <ele>717</ele>
        <time>2021-08-07T12:12:47.944Z</time>
      </trkpt>
      <trkpt lat="46.91448" lon="8.63452">
        <ele>717</ele>
        <time>2021-08-07T12:12:48.945Z</time>
      </trkpt>
      <trkpt lat="46.91447" lon="8.6345">
        <ele>717</ele>
        <time>2021-08-07T12:12:49.945Z</time>
      </trkpt>
      <trkpt lat="46.91447" lon="8.63447">
        <ele>717</ele>
        <time>2021-08-07T12:12:50.945Z</time>
      </trkpt>
      <trkpt lat="46.91445" lon="8.63447">
        <ele>717</ele>
        <time>2021-08-07T12:12:51.945Z</time>
      </trkpt>
      <trkpt lat="46.91444" lon="8.63447">
        <ele>717</ele>
        <time>2021-08-07T12:12:52.944Z</time>
      </trkpt>
      <trkpt lat="46.91444" lon="8.63448">
        <ele>717</ele>
        <time>2021-08-07T12:12:53.945Z</time>
      </trkpt>
      <trkpt lat="46.91443" lon="8.63448">
        <ele>717</ele>
        <time>2021-08-07T12:12:54.945Z</time>
      </trkpt>
      <trkpt lat="46.91443" lon="8.63449">
        <ele>717</ele>
        <time>2021-08-07T12:12:55.945Z</time>
      </trkpt>
      <trkpt lat="46.91443" lon="8.63448">
        <ele>717</ele>
        <time>2021-08-07T12:12:56.945Z</time>
      </trkpt>
      <trkpt lat="46.91443" lon="8.63448">
        <ele>717</ele>
        <time>2021-08-07T12:12:57.945Z</time>
      </trkpt>
      <trkpt lat="46.91443" lon="8.63447">
        <ele>717</ele>
        <time>2021-08-07T12:12:58.945Z</time>
      </trkpt>
      <trkpt lat="46.91443" lon="8.63444">
        <ele>718</ele>
        <time>2021-08-07T12:12:59.944Z</time>
      </trkpt>
      <trkpt lat="46.91443" lon="8.63443">
        <ele>718</ele>
        <time>2021-08-07T12:13:00.944Z</time>
      </trkpt>
      <trkpt lat="46.91441" lon="8.63437">
        <ele>719</ele>
        <time>2021-08-07T12:13:01.944Z</time>
      </trkpt>
      <trkpt lat="46.91441" lon="8.63435">
        <ele>719</ele>
        <time>2021-08-07T12:13:02.945Z</time>
      </trkpt>
      <trkpt lat="46.91442" lon="8.63432">
        <ele>719</ele>
        <time>2021-08-07T12:13:03.944Z</time>
      </trkpt>
      <trkpt lat="46.91442" lon="8.63431">
        <ele>719</ele>
        <time>2021-08-07T12:13:04.945Z</time>
      </trkpt>
      <trkpt lat="46.91441" lon="8.63428">
        <ele>719</ele>
        <time>2021-08-07T12:13:05.945Z</time>
      </trkpt>
      <trkpt lat="46.9144" lon="8.63427">
        <ele>719</ele>
        <time>2021-08-07T12:13:12.087Z</time>
      </trkpt>
      <trkpt lat="46.91438" lon="8.63425">
        <ele>719</ele>
        <time>2021-08-07T12:13:13.086Z</time>
      </trkpt>
      <trkpt lat="46.91437" lon="8.63421">
        <ele>720</ele>
        <time>2021-08-07T12:13:14.086Z</time>
      </trkpt>
      <trkpt lat="46.91434" lon="8.63419">
        <ele>720</ele>
        <time>2021-08-07T12:13:15.087Z</time>
      </trkpt>
      <trkpt lat="46.91432" lon="8.63416">
        <ele>720</ele>
        <time>2021-08-07T12:13:30.183Z</time>
      </trkpt>
      <trkpt lat="46.9143" lon="8.63415">
        <ele>720</ele>
        <time>2021-08-07T12:13:31.184Z</time>
      </trkpt>
      <trkpt lat="46.91429" lon="8.63415">
        <ele>720</ele>
        <time>2021-08-07T12:13:37.088Z</time>
      </trkpt>
      <trkpt lat="46.91428" lon="8.63416">
        <ele>721</ele>
        <time>2021-08-07T12:13:39.922Z</time>
      </trkpt>
      <trkpt lat="46.91426" lon="8.63416">
        <ele>721</ele>
        <time>2021-08-07T12:13:40.923Z</time>
      </trkpt>
      <trkpt lat="46.91425" lon="8.63416">
        <ele>721</ele>
        <time>2021-08-07T12:13:41.923Z</time>
      </trkpt>
      <trkpt lat="46.91426" lon="8.63415">
        <ele>721</ele>
        <time>2021-08-07T12:13:42.922Z</time>
      </trkpt>
      <trkpt lat="46.91426" lon="8.63415">
        <ele>721</ele>
        <time>2021-08-07T12:13:43.922Z</time>
      </trkpt>
      <trkpt lat="46.91426" lon="8.63415">
        <ele>721</ele>
        <time>2021-08-07T12:13:44.923Z</time>
      </trkpt>
      <trkpt lat="46.91426" lon="8.63416">
        <ele>722</ele>
        <time>2021-08-07T12:13:45.923Z</time>
      </trkpt>
      <trkpt lat="46.91426" lon="8.63416">
        <ele>722</ele>
        <time>2021-08-07T12:13:51.060Z</time>
      </trkpt>
      <trkpt lat="46.91426" lon="8.63417">
        <ele>722</ele>
        <time>2021-08-07T12:13:52.060Z</time>
      </trkpt>
      <trkpt lat="46.91426" lon="8.63418">
        <ele>723</ele>
        <time>2021-08-07T12:13:53.060Z</time>
      </trkpt>
      <trkpt lat="46.91425" lon="8.6342">
        <ele>723</ele>
        <time>2021-08-07T12:13:54.061Z</time>
      </trkpt>
      <trkpt lat="46.91425" lon="8.6342">
        <ele>724</ele>
        <time>2021-08-07T12:14:08.206Z</time>
      </trkpt>
      <trkpt lat="46.91425" lon="8.63421">
        <ele>724</ele>
        <time>2021-08-07T12:14:09.206Z</time>
      </trkpt>
      <trkpt lat="46.91425" lon="8.6342">
        <ele>724</ele>
        <time>2021-08-07T12:14:10.205Z</time>
      </trkpt>
      <trkpt lat="46.91426" lon="8.6342">
        <ele>725</ele>
        <time>2021-08-07T12:14:12.312Z</time>
      </trkpt>
      <trkpt lat="46.91427" lon="8.63418">
        <ele>725</ele>
        <time>2021-08-07T12:14:13.312Z</time>
      </trkpt>
      <trkpt lat="46.91427" lon="8.63417">
        <ele>726</ele>
        <time>2021-08-07T12:14:14.312Z</time>
      </trkpt>
      <trkpt lat="46.91426" lon="8.63416">
        <ele>726</ele>
        <time>2021-08-07T12:14:15.311Z</time>
      </trkpt>
      <trkpt lat="46.91424" lon="8.63415">
        <ele>727</ele>
        <time>2021-08-07T12:14:16.311Z</time>
      </trkpt>
      <trkpt lat="46.91423" lon="8.63415">
        <ele>728</ele>
        <time>2021-08-07T12:14:17.312Z</time>
      </trkpt>
      <trkpt lat="46.91422" lon="8.63414">
        <ele>728</ele>
        <time>2021-08-07T12:14:18.312Z</time>
      </trkpt>
      <trkpt lat="46.91421" lon="8.63414">
        <ele>729</ele>
        <time>2021-08-07T12:14:19.312Z</time>
      </trkpt>
      <trkpt lat="46.91421" lon="8.63413">
        <ele>730</ele>
        <time>2021-08-07T12:14:20.311Z</time>
      </trkpt>
      <trkpt lat="46.91421" lon="8.63412">
        <ele>731</ele>
        <time>2021-08-07T12:14:21.311Z</time>
      </trkpt>
      <trkpt lat="46.91421" lon="8.63411">
        <ele>732</ele>
        <time>2021-08-07T12:14:22.312Z</time>
      </trkpt>
      <trkpt lat="46.9142" lon="8.63411">
        <ele>733</ele>
        <time>2021-08-07T12:14:23.312Z</time>
      </trkpt>
      <trkpt lat="46.91419" lon="8.63411">
        <ele>733</ele>
        <time>2021-08-07T12:14:24.312Z</time>
      </trkpt>
      <trkpt lat="46.91419" lon="8.63411">
        <ele>734</ele>
        <time>2021-08-07T12:14:25.312Z</time>
      </trkpt>
      <trkpt lat="46.91418" lon="8.63411">
        <ele>735</ele>
        <time>2021-08-07T12:14:26.312Z</time>
      </trkpt>
      <trkpt lat="46.91418" lon="8.63411">
        <ele>735</ele>
        <time>2021-08-07T12:14:27.311Z</time>
      </trkpt>
      <trkpt lat="46.91417" lon="8.63412">
        <ele>736</ele>
        <time>2021-08-07T12:14:28.312Z</time>
      </trkpt>
      <trkpt lat="46.91416" lon="8.63412">
        <ele>736</ele>
        <time>2021-08-07T12:14:29.312Z</time>
      </trkpt>
      <trkpt lat="46.91415" lon="8.63411">
        <ele>737</ele>
        <time>2021-08-07T12:14:30.312Z</time>
      </trkpt>
      <trkpt lat="46.91414" lon="8.63411">
        <ele>737</ele>
        <time>2021-08-07T12:14:31.311Z</time>
      </trkpt>
      <trkpt lat="46.91414" lon="8.63412">
        <ele>738</ele>
        <time>2021-08-07T12:14:32.312Z</time>
      </trkpt>
      <trkpt lat="46.91414" lon="8.63412">
        <ele>738</ele>
        <time>2021-08-07T12:14:33.312Z</time>
      </trkpt>
      <trkpt lat="46.91414" lon="8.63413">
        <ele>738</ele>
        <time>2021-08-07T12:14:34.311Z</time>
      </trkpt>
      <trkpt lat="46.91415" lon="8.63414">
        <ele>738</ele>
        <time>2021-08-07T12:14:35.311Z</time>
      </trkpt>
      <trkpt lat="46.91413" lon="8.63413">
        <ele>739</ele>
        <time>2021-08-07T12:14:36.312Z</time>
      </trkpt>
      <trkpt lat="46.91411" lon="8.63412">
        <ele>739</ele>
        <time>2021-08-07T12:14:37.312Z</time>
      </trkpt>
      <trkpt lat="46.9141" lon="8.63411">
        <ele>739</ele>
        <time>2021-08-07T12:14:38.312Z</time>
      </trkpt>
      <trkpt lat="46.91409" lon="8.63411">
        <ele>739</ele>
        <time>2021-08-07T12:14:39.311Z</time>
      </trkpt>
      <trkpt lat="46.91408" lon="8.6341">
        <ele>740</ele>
        <time>2021-08-07T12:14:40.312Z</time>
      </trkpt>
      <trkpt lat="46.91408" lon="8.63409">
        <ele>740</ele>
        <time>2021-08-07T12:14:41.312Z</time>
      </trkpt>
      <trkpt lat="46.91408" lon="8.63407">
        <ele>740</ele>
        <time>2021-08-07T12:14:42.311Z</time>
      </trkpt>
      <trkpt lat="46.91408" lon="8.63406">
        <ele>740</ele>
        <time>2021-08-07T12:14:43.312Z</time>
      </trkpt>
      <trkpt lat="46.91408" lon="8.63404">
        <ele>740</ele>
        <time>2021-08-07T12:14:44.312Z</time>
      </trkpt>
      <trkpt lat="46.91408" lon="8.63402">
        <ele>741</ele>
        <time>2021-08-07T12:14:45.312Z</time>
      </trkpt>
      <trkpt lat="46.91407" lon="8.63401">
        <ele>741</ele>
        <time>2021-08-07T12:14:46.311Z</time>
      </trkpt>
      <trkpt lat="46.91406" lon="8.634">
        <ele>741</ele>
        <time>2021-08-07T12:14:47.311Z</time>
      </trkpt>
      <trkpt lat="46.91406" lon="8.634">
        <ele>741</ele>
        <time>2021-08-07T12:14:48.311Z</time>
      </trkpt>
      <trkpt lat="46.91407" lon="8.63401">
        <ele>741</ele>
        <time>2021-08-07T12:14:49.311Z</time>
      </trkpt>
      <trkpt lat="46.91407" lon="8.63401">
        <ele>741</ele>
        <time>2021-08-07T12:14:50.312Z</time>
      </trkpt>
      <trkpt lat="46.91407" lon="8.63401">
        <ele>740</ele>
        <time>2021-08-07T12:14:51.312Z</time>
      </trkpt>
      <trkpt lat="46.91406" lon="8.63402">
        <ele>740</ele>
        <time>2021-08-07T12:14:52.312Z</time>
      </trkpt>
      <trkpt lat="46.91406" lon="8.63402">
        <ele>739</ele>
        <time>2021-08-07T12:14:53.312Z</time>
      </trkpt>
      <trkpt lat="46.91407" lon="8.63402">
        <ele>739</ele>
        <time>2021-08-07T12:14:54.312Z</time>
      </trkpt>
      <trkpt lat="46.91409" lon="8.63402">
        <ele>738</ele>
        <time>2021-08-07T12:14:55.312Z</time>
      </trkpt>
      <trkpt lat="46.91408" lon="8.63402">
        <ele>738</ele>
        <time>2021-08-07T12:14:56.312Z</time>
      </trkpt>
      <trkpt lat="46.91407" lon="8.634">
        <ele>737</ele>
        <time>2021-08-07T12:14:57.311Z</time>
      </trkpt>
      <trkpt lat="46.91407" lon="8.63398">
        <ele>736</ele>
        <time>2021-08-07T12:14:58.311Z</time>
      </trkpt>
      <trkpt lat="46.91407" lon="8.63395">
        <ele>735</ele>
        <time>2021-08-07T12:14:59.311Z</time>
      </trkpt>
      <trkpt lat="46.91408" lon="8.63394">
        <ele>735</ele>
        <time>2021-08-07T12:15:00.312Z</time>
      </trkpt>
      <trkpt lat="46.9141" lon="8.63394">
        <ele>734</ele>
        <time>2021-08-07T12:15:01.312Z</time>
      </trkpt>
      <trkpt lat="46.9141" lon="8.63395">
        <ele>733</ele>
        <time>2021-08-07T12:15:02.312Z</time>
      </trkpt>
      <trkpt lat="46.9141" lon="8.63395">
        <ele>732</ele>
        <time>2021-08-07T12:15:03.311Z</time>
      </trkpt>
      <trkpt lat="46.9141" lon="8.63395">
        <ele>731</ele>
        <time>2021-08-07T12:15:04.311Z</time>
      </trkpt>
      <trkpt lat="46.9141" lon="8.63395">
        <ele>731</ele>
        <time>2021-08-07T12:15:05.311Z</time>
      </trkpt>
      <trkpt lat="46.9141" lon="8.63394">
        <ele>730</ele>
        <time>2021-08-07T12:15:06.312Z</time>
      </trkpt>
      <trkpt lat="46.91407" lon="8.63394">
        <ele>726</ele>
        <time>2021-08-07T12:15:07.311Z</time>
      </trkpt>
      <trkpt lat="46.91407" lon="8.63395">
        <ele>725</ele>
        <time>2021-08-07T12:15:08.312Z</time>
      </trkpt>
      <trkpt lat="46.91406" lon="8.63394">
        <ele>724</ele>
        <time>2021-08-07T12:15:09.311Z</time>
      </trkpt>
      <trkpt lat="46.91406" lon="8.63394">
        <ele>724</ele>
        <time>2021-08-07T12:15:10.311Z</time>
      </trkpt>
      <trkpt lat="46.91405" lon="8.63394">
        <ele>723</ele>
        <time>2021-08-07T12:15:11.312Z</time>
      </trkpt>
      <trkpt lat="46.91405" lon="8.63393">
        <ele>722</ele>
        <time>2021-08-07T12:15:12.312Z</time>
      </trkpt>
      <trkpt lat="46.91405" lon="8.63392">
        <ele>721</ele>
        <time>2021-08-07T12:15:13.311Z</time>
      </trkpt>
      <trkpt lat="46.91405" lon="8.63391">
        <ele>720</ele>
        <time>2021-08-07T12:15:14.311Z</time>
      </trkpt>
      <trkpt lat="46.91406" lon="8.63391">
        <ele>720</ele>
        <time>2021-08-07T12:15:15.311Z</time>
      </trkpt>
      <trkpt lat="46.91407" lon="8.6339">
        <ele>719</ele>
        <time>2021-08-07T12:15:16.311Z</time>
      </trkpt>
      <trkpt lat="46.91408" lon="8.63389">
        <ele>718</ele>
        <time>2021-08-07T12:15:17.311Z</time>
      </trkpt>
      <trkpt lat="46.91409" lon="8.63388">
        <ele>718</ele>
        <time>2021-08-07T12:15:18.311Z</time>
      </trkpt>
      <trkpt lat="46.9141" lon="8.63387">
        <ele>717</ele>
        <time>2021-08-07T12:15:19.311Z</time>
      </trkpt>
      <trkpt lat="46.91412" lon="8.63387">
        <ele>717</ele>
        <time>2021-08-07T12:15:20.311Z</time>
      </trkpt>
      <trkpt lat="46.91413" lon="8.63387">
        <ele>716</ele>
        <time>2021-08-07T12:15:21.311Z</time>
      </trkpt>
      <trkpt lat="46.91414" lon="8.63386">
        <ele>716</ele>
        <time>2021-08-07T12:15:22.311Z</time>
      </trkpt>
      <trkpt lat="46.91414" lon="8.63386">
        <ele>715</ele>
        <time>2021-08-07T12:15:23.312Z</time>
      </trkpt>
      <trkpt lat="46.91413" lon="8.63384">
        <ele>714</ele>
        <time>2021-08-07T12:15:24.311Z</time>
      </trkpt>
      <trkpt lat="46.91414" lon="8.63384">
        <ele>714</ele>
        <time>2021-08-07T12:15:25.311Z</time>
      </trkpt>
      <trkpt lat="46.91415" lon="8.63382">
        <ele>713</ele>
        <time>2021-08-07T12:15:26.311Z</time>
      </trkpt>
      <trkpt lat="46.91415" lon="8.63381">
        <ele>712</ele>
        <time>2021-08-07T12:15:27.311Z</time>
      </trkpt>
      <trkpt lat="46.91415" lon="8.6338">
        <ele>711</ele>
        <time>2021-08-07T12:15:28.311Z</time>
      </trkpt>
      <trkpt lat="46.91414" lon="8.63379">
        <ele>711</ele>
        <time>2021-08-07T12:15:29.311Z</time>
      </trkpt>
      <trkpt lat="46.91413" lon="8.63379">
        <ele>710</ele>
        <time>2021-08-07T12:15:30.311Z</time>
      </trkpt>
      <trkpt lat="46.91413" lon="8.63378">
        <ele>710</ele>
        <time>2021-08-07T12:15:31.311Z</time>
      </trkpt>
      <trkpt lat="46.91413" lon="8.63379">
        <ele>709</ele>
        <time>2021-08-07T12:15:32.311Z</time>
      </trkpt>
      <trkpt lat="46.91414" lon="8.63379">
        <ele>709</ele>
        <time>2021-08-07T12:15:33.311Z</time>
      </trkpt>
      <trkpt lat="46.91413" lon="8.63379">
        <ele>708</ele>
        <time>2021-08-07T12:15:34.311Z</time>
      </trkpt>
      <trkpt lat="46.91413" lon="8.63379">
        <ele>707</ele>
        <time>2021-08-07T12:15:35.311Z</time>
      </trkpt>
      <trkpt lat="46.91414" lon="8.63378">
        <ele>706</ele>
        <time>2021-08-07T12:15:36.312Z</time>
      </trkpt>
      <trkpt lat="46.91414" lon="8.63377">
        <ele>706</ele>
        <time>2021-08-07T12:15:37.312Z</time>
      </trkpt>
      <trkpt lat="46.91414" lon="8.63376">
        <ele>706</ele>
        <time>2021-08-07T12:15:38.312Z</time>
      </trkpt>
      <trkpt lat="46.91413" lon="8.63375">
        <ele>706</ele>
        <time>2021-08-07T12:15:39.311Z</time>
      </trkpt>
      <trkpt lat="46.91412" lon="8.63375">
        <ele>705</ele>
        <time>2021-08-07T12:15:40.311Z</time>
      </trkpt>
      <trkpt lat="46.91412" lon="8.63376">
        <ele>705</ele>
        <time>2021-08-07T12:15:41.312Z</time>
      </trkpt>
      <trkpt lat="46.91413" lon="8.63376">
        <ele>705</ele>
        <time>2021-08-07T12:15:42.312Z</time>
      </trkpt>
      <trkpt lat="46.91414" lon="8.63375">
        <ele>704</ele>
        <time>2021-08-07T12:15:43.311Z</time>
      </trkpt>
      <trkpt lat="46.91414" lon="8.63375">
        <ele>704</ele>
        <time>2021-08-07T12:15:44.311Z</time>
      </trkpt>
      <trkpt lat="46.91414" lon="8.63375">
        <ele>704</ele>
        <time>2021-08-07T12:15:45.312Z</time>
      </trkpt>
      <trkpt lat="46.91414" lon="8.63374">
        <ele>703</ele>
        <time>2021-08-07T12:15:46.312Z</time>
      </trkpt>
      <trkpt lat="46.91414" lon="8.63374">
        <ele>702</ele>
        <time>2021-08-07T12:15:47.312Z</time>
      </trkpt>
      <trkpt lat="46.91414" lon="8.63375">
        <ele>702</ele>
        <time>2021-08-07T12:15:48.312Z</time>
      </trkpt>
      <trkpt lat="46.91415" lon="8.63375">
        <ele>701</ele>
        <time>2021-08-07T12:15:49.311Z</time>
      </trkpt>
      <trkpt lat="46.91415" lon="8.63376">
        <ele>700</ele>
        <time>2021-08-07T12:15:50.311Z</time>
      </trkpt>
      <trkpt lat="46.91415" lon="8.63376">
        <ele>699</ele>
        <time>2021-08-07T12:15:51.312Z</time>
      </trkpt>
      <trkpt lat="46.91415" lon="8.63377">
        <ele>699</ele>
        <time>2021-08-07T12:15:52.311Z</time>
      </trkpt>
      <trkpt lat="46.91416" lon="8.63377">
        <ele>698</ele>
        <time>2021-08-07T12:15:53.311Z</time>
      </trkpt>
      <trkpt lat="46.91416" lon="8.63378">
        <ele>698</ele>
        <time>2021-08-07T12:15:54.312Z</time>
      </trkpt>
      <trkpt lat="46.91415" lon="8.6338">
        <ele>697</ele>
        <time>2021-08-07T12:15:55.312Z</time>
      </trkpt>
      <trkpt lat="46.91415" lon="8.6338">
        <ele>696</ele>
        <time>2021-08-07T12:15:56.312Z</time>
      </trkpt>
      <trkpt lat="46.91415" lon="8.63381">
        <ele>696</ele>
        <time>2021-08-07T12:15:57.311Z</time>
      </trkpt>
      <trkpt lat="46.91416" lon="8.63381">
        <ele>695</ele>
        <time>2021-08-07T12:15:58.311Z</time>
      </trkpt>
      <trkpt lat="46.91415" lon="8.63382">
        <ele>694</ele>
        <time>2021-08-07T12:15:59.312Z</time>
      </trkpt>
      <trkpt lat="46.91415" lon="8.63383">
        <ele>694</ele>
        <time>2021-08-07T12:16:00.312Z</time>
      </trkpt>
      <trkpt lat="46.91416" lon="8.63384">
        <ele>693</ele>
        <time>2021-08-07T12:16:01.313Z</time>
      </trkpt>
      <trkpt lat="46.91416" lon="8.63385">
        <ele>693</ele>
        <time>2021-08-07T12:16:02.312Z</time>
      </trkpt>
      <trkpt lat="46.91415" lon="8.63385">
        <ele>692</ele>
        <time>2021-08-07T12:16:03.312Z</time>
      </trkpt>
      <trkpt lat="46.91413" lon="8.63386">
        <ele>692</ele>
        <time>2021-08-07T12:16:04.312Z</time>
      </trkpt>
      <trkpt lat="46.91412" lon="8.63387">
        <ele>692</ele>
        <time>2021-08-07T12:16:05.313Z</time>
      </trkpt>
      <trkpt lat="46.91411" lon="8.63388">
        <ele>691</ele>
        <time>2021-08-07T12:16:06.312Z</time>
      </trkpt>
      <trkpt lat="46.91411" lon="8.63388">
        <ele>691</ele>
        <time>2021-08-07T12:16:07.312Z</time>
      </trkpt>
      <trkpt lat="46.91411" lon="8.63388">
        <ele>690</ele>
        <time>2021-08-07T12:16:08.312Z</time>
      </trkpt>
      <trkpt lat="46.91411" lon="8.63388">
        <ele>690</ele>
        <time>2021-08-07T12:16:09.312Z</time>
      </trkpt>
      <trkpt lat="46.91411" lon="8.63388">
        <ele>689</ele>
        <time>2021-08-07T12:16:10.313Z</time>
      </trkpt>
      <trkpt lat="46.91411" lon="8.63388">
        <ele>689</ele>
        <time>2021-08-07T12:16:11.313Z</time>
      </trkpt>
      <trkpt lat="46.91411" lon="8.63389">
        <ele>688</ele>
        <time>2021-08-07T12:16:12.312Z</time>
      </trkpt>
      <trkpt lat="46.91411" lon="8.6339">
        <ele>688</ele>
        <time>2021-08-07T12:16:13.313Z</time>
      </trkpt>
      <trkpt lat="46.91411" lon="8.63391">
        <ele>687</ele>
        <time>2021-08-07T12:16:14.312Z</time>
      </trkpt>
      <trkpt lat="46.91411" lon="8.63392">
        <ele>687</ele>
        <time>2021-08-07T12:16:15.312Z</time>
      </trkpt>
      <trkpt lat="46.91411" lon="8.63393">
        <ele>686</ele>
        <time>2021-08-07T12:16:18.312Z</time>
      </trkpt>
      <trkpt lat="46.91411" lon="8.63392">
        <ele>686</ele>
        <time>2021-08-07T12:16:19.313Z</time>
      </trkpt>
      <trkpt lat="46.9141" lon="8.63391">
        <ele>685</ele>
        <time>2021-08-07T12:16:20.313Z</time>
      </trkpt>
      <trkpt lat="46.91409" lon="8.63389">
        <ele>685</ele>
        <time>2021-08-07T12:16:21.312Z</time>
      </trkpt>
      <trkpt lat="46.91409" lon="8.63389">
        <ele>685</ele>
        <time>2021-08-07T12:16:22.312Z</time>
      </trkpt>
      <trkpt lat="46.9141" lon="8.63388">
        <ele>684</ele>
        <time>2021-08-07T12:16:23.312Z</time>
      </trkpt>
      <trkpt lat="46.91411" lon="8.63387">
        <ele>684</ele>
        <time>2021-08-07T12:16:24.312Z</time>
      </trkpt>
      <trkpt lat="46.9141" lon="8.63386">
        <ele>684</ele>
        <time>2021-08-07T12:16:25.312Z</time>
      </trkpt>
      <trkpt lat="46.91408" lon="8.63385">
        <ele>683</ele>
        <time>2021-08-07T12:16:26.312Z</time>
      </trkpt>
      <trkpt lat="46.91408" lon="8.63384">
        <ele>683</ele>
        <time>2021-08-07T12:16:27.312Z</time>
      </trkpt>
      <trkpt lat="46.91407" lon="8.63384">
        <ele>683</ele>
        <time>2021-08-07T12:16:28.313Z</time>
      </trkpt>
      <trkpt lat="46.91407" lon="8.63385">
        <ele>682</ele>
        <time>2021-08-07T12:16:29.313Z</time>
      </trkpt>
      <trkpt lat="46.91407" lon="8.63385">
        <ele>682</ele>
        <time>2021-08-07T12:16:30.312Z</time>
      </trkpt>
      <trkpt lat="46.91408" lon="8.63385">
        <ele>681</ele>
        <time>2021-08-07T12:16:31.313Z</time>
      </trkpt>
      <trkpt lat="46.91408" lon="8.63385">
        <ele>681</ele>
        <time>2021-08-07T12:16:32.313Z</time>
      </trkpt>
      <trkpt lat="46.91408" lon="8.63384">
        <ele>680</ele>
        <time>2021-08-07T12:16:33.312Z</time>
      </trkpt>
      <trkpt lat="46.91407" lon="8.63383">
        <ele>680</ele>
        <time>2021-08-07T12:16:34.312Z</time>
      </trkpt>
      <trkpt lat="46.91405" lon="8.63381">
        <ele>679</ele>
        <time>2021-08-07T12:16:35.312Z</time>
      </trkpt>
      <trkpt lat="46.91404" lon="8.6338">
        <ele>678</ele>
        <time>2021-08-07T12:16:36.312Z</time>
      </trkpt>
      <trkpt lat="46.91403" lon="8.63378">
        <ele>678</ele>
        <time>2021-08-07T12:16:37.313Z</time>
      </trkpt>
      <trkpt lat="46.91402" lon="8.63377">
        <ele>677</ele>
        <time>2021-08-07T12:16:38.313Z</time>
      </trkpt>
      <trkpt lat="46.91402" lon="8.63376">
        <ele>677</ele>
        <time>2021-08-07T12:16:39.313Z</time>
      </trkpt>
      <trkpt lat="46.91401" lon="8.63376">
        <ele>676</ele>
        <time>2021-08-07T12:16:40.312Z</time>
      </trkpt>
      <trkpt lat="46.91392" lon="8.63372">
        <ele>674</ele>
        <time>2021-08-07T12:16:41.313Z</time>
      </trkpt>
      <trkpt lat="46.91391" lon="8.63371">
        <ele>673</ele>
        <time>2021-08-07T12:16:42.313Z</time>
      </trkpt>
      <trkpt lat="46.91391" lon="8.6337">
        <ele>673</ele>
        <time>2021-08-07T12:16:43.312Z</time>
      </trkpt>
      <trkpt lat="46.9139" lon="8.6337">
        <ele>673</ele>
        <time>2021-08-07T12:16:44.313Z</time>
      </trkpt>
      <trkpt lat="46.91388" lon="8.63369">
        <ele>672</ele>
        <time>2021-08-07T12:16:45.312Z</time>
      </trkpt>
      <trkpt lat="46.91387" lon="8.63368">
        <ele>672</ele>
        <time>2021-08-07T12:16:46.313Z</time>
      </trkpt>
      <trkpt lat="46.91385" lon="8.63368">
        <ele>672</ele>
        <time>2021-08-07T12:16:47.313Z</time>
      </trkpt>
      <trkpt lat="46.91384" lon="8.63367">
        <ele>672</ele>
        <time>2021-08-07T12:16:48.313Z</time>
      </trkpt>
      <trkpt lat="46.91383" lon="8.63366">
        <ele>672</ele>
        <time>2021-08-07T12:16:49.312Z</time>
      </trkpt>
      <trkpt lat="46.91383" lon="8.63366">
        <ele>671</ele>
        <time>2021-08-07T12:16:50.312Z</time>
      </trkpt>
      <trkpt lat="46.91383" lon="8.63367">
        <ele>671</ele>
        <time>2021-08-07T12:16:51.313Z</time>
      </trkpt>
      <trkpt lat="46.91383" lon="8.63368">
        <ele>671</ele>
        <time>2021-08-07T12:16:52.313Z</time>
      </trkpt>
      <trkpt lat="46.91382" lon="8.63367">
        <ele>670</ele>
        <time>2021-08-07T12:16:53.312Z</time>
      </trkpt>
      <trkpt lat="46.91381" lon="8.63366">
        <ele>670</ele>
        <time>2021-08-07T12:16:54.312Z</time>
      </trkpt>
      <trkpt lat="46.9138" lon="8.63365">
        <ele>669</ele>
        <time>2021-08-07T12:16:55.313Z</time>
      </trkpt>
      <trkpt lat="46.9138" lon="8.63364">
        <ele>669</ele>
        <time>2021-08-07T12:16:56.312Z</time>
      </trkpt>
      <trkpt lat="46.9138" lon="8.63363">
        <ele>669</ele>
        <time>2021-08-07T12:16:57.313Z</time>
      </trkpt>
      <trkpt lat="46.91379" lon="8.63362">
        <ele>668</ele>
        <time>2021-08-07T12:16:58.313Z</time>
      </trkpt>
      <trkpt lat="46.91379" lon="8.6336">
        <ele>668</ele>
        <time>2021-08-07T12:16:59.313Z</time>
      </trkpt>
      <trkpt lat="46.91378" lon="8.63359">
        <ele>668</ele>
        <time>2021-08-07T12:17:00.312Z</time>
      </trkpt>
      <trkpt lat="46.91377" lon="8.63358">
        <ele>667</ele>
        <time>2021-08-07T12:17:01.313Z</time>
      </trkpt>
      <trkpt lat="46.91375" lon="8.63357">
        <ele>667</ele>
        <time>2021-08-07T12:17:02.312Z</time>
      </trkpt>
      <trkpt lat="46.91373" lon="8.63356">
        <ele>667</ele>
        <time>2021-08-07T12:17:03.312Z</time>
      </trkpt>
      <trkpt lat="46.91371" lon="8.63355">
        <ele>667</ele>
        <time>2021-08-07T12:17:04.313Z</time>
      </trkpt>
      <trkpt lat="46.9137" lon="8.63354">
        <ele>666</ele>
        <time>2021-08-07T12:17:05.313Z</time>
      </trkpt>
      <trkpt lat="46.91368" lon="8.63352">
        <ele>666</ele>
        <time>2021-08-07T12:17:06.312Z</time>
      </trkpt>
      <trkpt lat="46.91367" lon="8.6335">
        <ele>666</ele>
        <time>2021-08-07T12:17:07.313Z</time>
      </trkpt>
      <trkpt lat="46.91367" lon="8.63348">
        <ele>666</ele>
        <time>2021-08-07T12:17:08.313Z</time>
      </trkpt>
      <trkpt lat="46.91365" lon="8.63345">
        <ele>666</ele>
        <time>2021-08-07T12:17:09.312Z</time>
      </trkpt>
      <trkpt lat="46.91362" lon="8.63342">
        <ele>665</ele>
        <time>2021-08-07T12:17:10.312Z</time>
      </trkpt>
      <trkpt lat="46.9136" lon="8.6334">
        <ele>665</ele>
        <time>2021-08-07T12:17:11.312Z</time>
      </trkpt>
      <trkpt lat="46.91358" lon="8.63339">
        <ele>665</ele>
        <time>2021-08-07T12:17:12.313Z</time>
      </trkpt>
      <trkpt lat="46.91357" lon="8.63338">
        <ele>665</ele>
        <time>2021-08-07T12:17:13.312Z</time>
      </trkpt>
      <trkpt lat="46.91356" lon="8.63338">
        <ele>665</ele>
        <time>2021-08-07T12:17:14.312Z</time>
      </trkpt>
      <trkpt lat="46.91356" lon="8.63338">
        <ele>665</ele>
        <time>2021-08-07T12:17:15.312Z</time>
      </trkpt>
      <trkpt lat="46.91357" lon="8.63338">
        <ele>665</ele>
        <time>2021-08-07T12:17:16.313Z</time>
      </trkpt>
      <trkpt lat="46.91357" lon="8.63339">
        <ele>665</ele>
        <time>2021-08-07T12:17:17.313Z</time>
      </trkpt>
      <trkpt lat="46.91359" lon="8.63341">
        <ele>665</ele>
        <time>2021-08-07T12:17:18.313Z</time>
      </trkpt>
      <trkpt lat="46.91361" lon="8.63342">
        <ele>665</ele>
        <time>2021-08-07T12:17:19.312Z</time>
      </trkpt>
      <trkpt lat="46.91362" lon="8.63343">
        <ele>665</ele>
        <time>2021-08-07T12:17:20.313Z</time>
      </trkpt>
      <trkpt lat="46.91364" lon="8.63343">
        <ele>665</ele>
        <time>2021-08-07T12:17:21.312Z</time>
      </trkpt>
      <trkpt lat="46.91364" lon="8.63342">
        <ele>665</ele>
        <time>2021-08-07T12:17:22.312Z</time>
      </trkpt>
      <trkpt lat="46.91364" lon="8.63342">
        <ele>665</ele>
        <time>2021-08-07T12:17:23.313Z</time>
      </trkpt>
      <trkpt lat="46.91367" lon="8.63343">
        <ele>664</ele>
        <time>2021-08-07T12:17:25.313Z</time>
      </trkpt>
      <trkpt lat="46.91368" lon="8.63342">
        <ele>664</ele>
        <time>2021-08-07T12:17:26.313Z</time>
      </trkpt>
      <trkpt lat="46.91366" lon="8.6334">
        <ele>664</ele>
        <time>2021-08-07T12:17:27.312Z</time>
      </trkpt>
      <trkpt lat="46.91364" lon="8.63339">
        <ele>664</ele>
        <time>2021-08-07T12:17:28.312Z</time>
      </trkpt>
      <trkpt lat="46.91363" lon="8.63338">
        <ele>664</ele>
        <time>2021-08-07T12:17:29.312Z</time>
      </trkpt>
      <trkpt lat="46.91362" lon="8.63337">
        <ele>664</ele>
        <time>2021-08-07T12:17:30.313Z</time>
      </trkpt>
      <trkpt lat="46.91362" lon="8.63336">
        <ele>663</ele>
        <time>2021-08-07T12:17:31.312Z</time>
      </trkpt>
      <trkpt lat="46.91362" lon="8.63336">
        <ele>663</ele>
        <time>2021-08-07T12:17:32.313Z</time>
      </trkpt>
      <trkpt lat="46.9136" lon="8.63335">
        <ele>663</ele>
        <time>2021-08-07T12:17:33.313Z</time>
      </trkpt>
      <trkpt lat="46.91359" lon="8.63334">
        <ele>663</ele>
        <time>2021-08-07T12:17:34.313Z</time>
      </trkpt>
      <trkpt lat="46.91358" lon="8.63333">
        <ele>663</ele>
        <time>2021-08-07T12:17:35.312Z</time>
      </trkpt>
      <trkpt lat="46.91356" lon="8.63332">
        <ele>663</ele>
        <time>2021-08-07T12:17:36.312Z</time>
      </trkpt>
      <trkpt lat="46.91356" lon="8.63331">
        <ele>663</ele>
        <time>2021-08-07T12:17:37.312Z</time>
      </trkpt>
      <trkpt lat="46.91355" lon="8.6333">
        <ele>663</ele>
        <time>2021-08-07T12:17:38.313Z</time>
      </trkpt>
      <trkpt lat="46.91355" lon="8.6333">
        <ele>663</ele>
        <time>2021-08-07T12:17:39.313Z</time>
      </trkpt>
      <trkpt lat="46.91353" lon="8.63328">
        <ele>663</ele>
        <time>2021-08-07T12:17:40.313Z</time>
      </trkpt>
      <trkpt lat="46.91352" lon="8.63327">
        <ele>663</ele>
        <time>2021-08-07T12:17:41.313Z</time>
      </trkpt>
      <trkpt lat="46.91352" lon="8.63325">
        <ele>663</ele>
        <time>2021-08-07T12:17:42.312Z</time>
      </trkpt>
      <trkpt lat="46.91352" lon="8.63326">
        <ele>663</ele>
        <time>2021-08-07T12:17:43.313Z</time>
      </trkpt>
      <trkpt lat="46.91356" lon="8.63327">
        <ele>663</ele>
        <time>2021-08-07T12:17:44.312Z</time>
      </trkpt>
      <trkpt lat="46.91359" lon="8.63325">
        <ele>663</ele>
        <time>2021-08-07T12:17:45.313Z</time>
      </trkpt>
      <trkpt lat="46.9136" lon="8.63325">
        <ele>663</ele>
        <time>2021-08-07T12:17:46.313Z</time>
      </trkpt>
      <trkpt lat="46.91358" lon="8.63326">
        <ele>662</ele>
        <time>2021-08-07T12:17:47.312Z</time>
      </trkpt>
      <trkpt lat="46.91355" lon="8.63326">
        <ele>662</ele>
        <time>2021-08-07T12:17:48.312Z</time>
      </trkpt>
      <trkpt lat="46.91352" lon="8.63326">
        <ele>662</ele>
        <time>2021-08-07T12:17:49.313Z</time>
      </trkpt>
      <trkpt lat="46.91349" lon="8.63326">
        <ele>662</ele>
        <time>2021-08-07T12:17:50.312Z</time>
      </trkpt>
      <trkpt lat="46.91347" lon="8.63326">
        <ele>662</ele>
        <time>2021-08-07T12:17:51.312Z</time>
      </trkpt>
      <trkpt lat="46.91345" lon="8.63327">
        <ele>662</ele>
        <time>2021-08-07T12:17:52.312Z</time>
      </trkpt>
      <trkpt lat="46.91345" lon="8.63327">
        <ele>662</ele>
        <time>2021-08-07T12:17:53.312Z</time>
      </trkpt>
      <trkpt lat="46.91342" lon="8.63326">
        <ele>662</ele>
        <time>2021-08-07T12:17:54.312Z</time>
      </trkpt>
      <trkpt lat="46.9134" lon="8.63325">
        <ele>662</ele>
        <time>2021-08-07T12:17:55.313Z</time>
      </trkpt>
      <trkpt lat="46.9134" lon="8.63325">
        <ele>662</ele>
        <time>2021-08-07T12:17:56.313Z</time>
      </trkpt>
      <trkpt lat="46.91339" lon="8.63325">
        <ele>662</ele>
        <time>2021-08-07T12:17:57.312Z</time>
      </trkpt>
      <trkpt lat="46.91327" lon="8.63323">
        <ele>662</ele>
        <time>2021-08-07T12:18:05.312Z</time>
      </trkpt>
      <trkpt lat="46.91334" lon="8.6332">
        <ele>662</ele>
        <time>2021-08-07T12:18:06.312Z</time>
      </trkpt>
      <trkpt lat="46.91342" lon="8.63315">
        <ele>662</ele>
        <time>2021-08-07T12:18:07.313Z</time>
      </trkpt>
      <trkpt lat="46.91347" lon="8.63314">
        <ele>662</ele>
        <time>2021-08-07T12:18:08.313Z</time>
      </trkpt>
      <trkpt lat="46.91349" lon="8.63257">
        <ele>657</ele>
        <time>2021-08-07T12:18:09.314Z</time>
      </trkpt>
      <trkpt lat="46.91351" lon="8.63254">
        <ele>657</ele>
        <time>2021-08-07T12:18:10.314Z</time>
      </trkpt>
      <trkpt lat="46.91352" lon="8.63252">
        <ele>657</ele>
        <time>2021-08-07T12:18:11.313Z</time>
      </trkpt>
      <trkpt lat="46.91355" lon="8.6325">
        <ele>657</ele>
        <time>2021-08-07T12:18:12.313Z</time>
      </trkpt>
      <trkpt lat="46.91357" lon="8.63249">
        <ele>657</ele>
        <time>2021-08-07T12:18:13.313Z</time>
      </trkpt>
      <trkpt lat="46.91358" lon="8.63247">
        <ele>657</ele>
        <time>2021-08-07T12:18:14.313Z</time>
      </trkpt>
      <trkpt lat="46.91359" lon="8.63248">
        <ele>657</ele>
        <time>2021-08-07T12:18:15.314Z</time>
      </trkpt>
      <trkpt lat="46.91362" lon="8.63249">
        <ele>657</ele>
        <time>2021-08-07T12:18:16.313Z</time>
      </trkpt>
      <trkpt lat="46.91361" lon="8.6325">
        <ele>657</ele>
        <time>2021-08-07T12:18:17.313Z</time>
      </trkpt>
      <trkpt lat="46.91362" lon="8.63248">
        <ele>657</ele>
        <time>2021-08-07T12:18:18.314Z</time>
      </trkpt>
      <trkpt lat="46.91359" lon="8.63247">
        <ele>657</ele>
        <time>2021-08-07T12:18:19.314Z</time>
      </trkpt>
      <trkpt lat="46.91358" lon="8.63247">
        <ele>657</ele>
        <time>2021-08-07T12:18:20.314Z</time>
      </trkpt>
      <trkpt lat="46.91357" lon="8.63246">
        <ele>657</ele>
        <time>2021-08-07T12:18:21.313Z</time>
      </trkpt>
      <trkpt lat="46.91352" lon="8.63245">
        <ele>657</ele>
        <time>2021-08-07T12:18:22.313Z</time>
      </trkpt>
      <trkpt lat="46.9135" lon="8.63244">
        <ele>657</ele>
        <time>2021-08-07T12:18:23.313Z</time>
      </trkpt>
      <trkpt lat="46.91346" lon="8.63244">
        <ele>657</ele>
        <time>2021-08-07T12:18:24.314Z</time>
      </trkpt>
      <trkpt lat="46.91345" lon="8.63243">
        <ele>657</ele>
        <time>2021-08-07T12:18:25.314Z</time>
      </trkpt>
      <trkpt lat="46.91346" lon="8.63241">
        <ele>657</ele>
        <time>2021-08-07T12:18:26.313Z</time>
      </trkpt>
      <trkpt lat="46.91345" lon="8.63242">
        <ele>657</ele>
        <time>2021-08-07T12:18:27.313Z</time>
      </trkpt>
      <trkpt lat="46.91345" lon="8.63242">
        <ele>657</ele>
        <time>2021-08-07T12:18:28.313Z</time>
      </trkpt>
      <trkpt lat="46.91344" lon="8.6324">
        <ele>658</ele>
        <time>2021-08-07T12:18:29.314Z</time>
      </trkpt>
      <trkpt lat="46.91342" lon="8.63242">
        <ele>658</ele>
        <time>2021-08-07T12:18:30.313Z</time>
      </trkpt>
      <trkpt lat="46.9134" lon="8.63243">
        <ele>658</ele>
        <time>2021-08-07T12:18:31.313Z</time>
      </trkpt>
      <trkpt lat="46.91336" lon="8.63245">
        <ele>658</ele>
        <time>2021-08-07T12:18:32.314Z</time>
      </trkpt>
      <trkpt lat="46.91332" lon="8.63244">
        <ele>658</ele>
        <time>2021-08-07T12:18:33.313Z</time>
      </trkpt>
      <trkpt lat="46.91329" lon="8.63244">
        <ele>658</ele>
        <time>2021-08-07T12:18:34.313Z</time>
      </trkpt>
      <trkpt lat="46.91323" lon="8.63249">
        <ele>658</ele>
        <time>2021-08-07T12:18:37.313Z</time>
      </trkpt>
      <trkpt lat="46.91322" lon="8.63249">
        <ele>658</ele>
        <time>2021-08-07T12:18:38.313Z</time>
      </trkpt>
      <trkpt lat="46.91321" lon="8.6325">
        <ele>658</ele>
        <time>2021-08-07T12:18:39.314Z</time>
      </trkpt>
      <trkpt lat="46.9132" lon="8.63249">
        <ele>658</ele>
        <time>2021-08-07T12:18:40.313Z</time>
      </trkpt>
      <trkpt lat="46.91319" lon="8.63247">
        <ele>658</ele>
        <time>2021-08-07T12:18:41.313Z</time>
      </trkpt>
      <trkpt lat="46.91319" lon="8.63246">
        <ele>658</ele>
        <time>2021-08-07T12:18:42.313Z</time>
      </trkpt>
      <trkpt lat="46.91319" lon="8.63244">
        <ele>658</ele>
        <time>2021-08-07T12:18:43.313Z</time>
      </trkpt>
      <trkpt lat="46.9132" lon="8.63243">
        <ele>658</ele>
        <time>2021-08-07T12:18:44.313Z</time>
      </trkpt>
      <trkpt lat="46.91319" lon="8.63241">
        <ele>658</ele>
        <time>2021-08-07T12:18:45.314Z</time>
      </trkpt>
      <trkpt lat="46.91317" lon="8.63237">
        <ele>658</ele>
        <time>2021-08-07T12:18:47.314Z</time>
      </trkpt>
      <trkpt lat="46.91317" lon="8.63238">
        <ele>658</ele>
        <time>2021-08-07T12:18:48.315Z</time>
      </trkpt>
      <trkpt lat="46.91317" lon="8.63238">
        <ele>658</ele>
        <time>2021-08-07T12:18:49.315Z</time>
      </trkpt>
      <trkpt lat="46.91317" lon="8.63237">
        <ele>658</ele>
        <time>2021-08-07T12:18:50.314Z</time>
      </trkpt>
      <trkpt lat="46.91318" lon="8.63236">
        <ele>658</ele>
        <time>2021-08-07T12:18:51.315Z</time>
      </trkpt>
      <trkpt lat="46.91318" lon="8.63236">
        <ele>658</ele>
        <time>2021-08-07T12:18:52.315Z</time>
      </trkpt>
      <trkpt lat="46.91318" lon="8.63236">
        <ele>658</ele>
        <time>2021-08-07T12:18:53.315Z</time>
      </trkpt>
      <trkpt lat="46.91316" lon="8.63236">
        <ele>658</ele>
        <time>2021-08-07T12:18:54.315Z</time>
      </trkpt>
      <trkpt lat="46.91315" lon="8.63238">
        <ele>658</ele>
        <time>2021-08-07T12:18:55.314Z</time>
      </trkpt>
      <trkpt lat="46.91313" lon="8.6324">
        <ele>658</ele>
        <time>2021-08-07T12:18:56.315Z</time>
      </trkpt>
      <trkpt lat="46.91313" lon="8.63241">
        <ele>658</ele>
        <time>2021-08-07T12:18:57.314Z</time>
      </trkpt>
      <trkpt lat="46.91311" lon="8.63243">
        <ele>658</ele>
        <time>2021-08-07T12:18:58.315Z</time>
      </trkpt>
      <trkpt lat="46.9131" lon="8.63243">
        <ele>658</ele>
        <time>2021-08-07T12:18:59.314Z</time>
      </trkpt>
      <trkpt lat="46.91309" lon="8.63243">
        <ele>658</ele>
        <time>2021-08-07T12:19:00.314Z</time>
      </trkpt>
      <trkpt lat="46.91308" lon="8.63244">
        <ele>658</ele>
        <time>2021-08-07T12:19:01.315Z</time>
      </trkpt>
      <trkpt lat="46.91307" lon="8.63246">
        <ele>658</ele>
        <time>2021-08-07T12:19:02.315Z</time>
      </trkpt>
      <trkpt lat="46.91305" lon="8.63247">
        <ele>658</ele>
        <time>2021-08-07T12:19:03.315Z</time>
      </trkpt>
      <trkpt lat="46.91305" lon="8.63245">
        <ele>658</ele>
        <time>2021-08-07T12:19:04.315Z</time>
      </trkpt>
      <trkpt lat="46.91305" lon="8.63243">
        <ele>658</ele>
        <time>2021-08-07T12:19:05.315Z</time>
      </trkpt>
      <trkpt lat="46.91304" lon="8.63242">
        <ele>658</ele>
        <time>2021-08-07T12:19:06.314Z</time>
      </trkpt>
      <trkpt lat="46.91304" lon="8.6324">
        <ele>659</ele>
        <time>2021-08-07T12:19:07.315Z</time>
      </trkpt>
      <trkpt lat="46.91303" lon="8.63238">
        <ele>658</ele>
        <time>2021-08-07T12:19:08.315Z</time>
      </trkpt>
      <trkpt lat="46.91301" lon="8.63235">
        <ele>658</ele>
        <time>2021-08-07T12:19:09.314Z</time>
      </trkpt>
      <trkpt lat="46.91297" lon="8.63229">
        <ele>658</ele>
        <time>2021-08-07T12:19:10.315Z</time>
      </trkpt>
      <trkpt lat="46.91296" lon="8.63228">
        <ele>658</ele>
        <time>2021-08-07T12:19:11.315Z</time>
      </trkpt>
      <trkpt lat="46.91295" lon="8.63226">
        <ele>658</ele>
        <time>2021-08-07T12:19:12.315Z</time>
      </trkpt>
      <trkpt lat="46.91294" lon="8.63223">
        <ele>658</ele>
        <time>2021-08-07T12:19:13.315Z</time>
      </trkpt>
      <trkpt lat="46.91295" lon="8.6322">
        <ele>658</ele>
        <time>2021-08-07T12:19:14.315Z</time>
      </trkpt>
      <trkpt lat="46.91297" lon="8.63219">
        <ele>658</ele>
        <time>2021-08-07T12:19:15.315Z</time>
      </trkpt>
      <trkpt lat="46.91299" lon="8.63219">
        <ele>658</ele>
        <time>2021-08-07T12:19:16.315Z</time>
      </trkpt>
      <trkpt lat="46.91301" lon="8.63219">
        <ele>658</ele>
        <time>2021-08-07T12:19:17.315Z</time>
      </trkpt>
      <trkpt lat="46.913" lon="8.63219">
        <ele>658</ele>
        <time>2021-08-07T12:19:25.450Z</time>
      </trkpt>
      <trkpt lat="46.91299" lon="8.6322">
        <ele>658</ele>
        <time>2021-08-07T12:19:35.313Z</time>
      </trkpt>
      <trkpt lat="46.91296" lon="8.63221">
        <ele>658</ele>
        <time>2021-08-07T12:19:36.313Z</time>
      </trkpt>
      <trkpt lat="46.91293" lon="8.63222">
        <ele>658</ele>
        <time>2021-08-07T12:19:37.312Z</time>
      </trkpt>
      <trkpt lat="46.9129" lon="8.63223">
        <ele>658</ele>
        <time>2021-08-07T12:19:38.313Z</time>
      </trkpt>
      <trkpt lat="46.91288" lon="8.63224">
        <ele>658</ele>
        <time>2021-08-07T12:19:39.313Z</time>
      </trkpt>
      <trkpt lat="46.91286" lon="8.63224">
        <ele>658</ele>
        <time>2021-08-07T12:19:40.313Z</time>
      </trkpt>
      <trkpt lat="46.91284" lon="8.63224">
        <ele>658</ele>
        <time>2021-08-07T12:19:41.313Z</time>
      </trkpt>
      <trkpt lat="46.91283" lon="8.63224">
        <ele>658</ele>
        <time>2021-08-07T12:19:42.313Z</time>
      </trkpt>
      <trkpt lat="46.91282" lon="8.63224">
        <ele>658</ele>
        <time>2021-08-07T12:19:43.312Z</time>
      </trkpt>
      <trkpt lat="46.91281" lon="8.63223">
        <ele>658</ele>
        <time>2021-08-07T12:19:44.312Z</time>
      </trkpt>
      <trkpt lat="46.91281" lon="8.63223">
        <ele>658</ele>
        <time>2021-08-07T12:19:54.479Z</time>
      </trkpt>
      <trkpt lat="46.91281" lon="8.63222">
        <ele>658</ele>
        <time>2021-08-07T12:19:55.479Z</time>
      </trkpt>
      <trkpt lat="46.91284" lon="8.63221">
        <ele>658</ele>
        <time>2021-08-07T12:19:56.479Z</time>
      </trkpt>
      <trkpt lat="46.9129" lon="8.6322">
        <ele>658</ele>
        <time>2021-08-07T12:19:57.478Z</time>
      </trkpt>
      <trkpt lat="46.91294" lon="8.6322">
        <ele>658</ele>
        <time>2021-08-07T12:19:58.479Z</time>
      </trkpt>
      <trkpt lat="46.91296" lon="8.63219">
        <ele>658</ele>
        <time>2021-08-07T12:19:59.479Z</time>
      </trkpt>
      <trkpt lat="46.91297" lon="8.63218">
        <ele>658</ele>
        <time>2021-08-07T12:20:00.478Z</time>
      </trkpt>
      <trkpt lat="46.913" lon="8.63217">
        <ele>658</ele>
        <time>2021-08-07T12:20:01.478Z</time>
      </trkpt>
      <trkpt lat="46.91302" lon="8.63214">
        <ele>658</ele>
        <time>2021-08-07T12:20:02.478Z</time>
      </trkpt>
      <trkpt lat="46.91296" lon="8.63213">
        <ele>658</ele>
        <time>2021-08-07T12:20:03.479Z</time>
      </trkpt>
      <trkpt lat="46.91298" lon="8.63212">
        <ele>657</ele>
        <time>2021-08-07T12:20:04.479Z</time>
      </trkpt>
      <trkpt lat="46.91302" lon="8.63212">
        <ele>657</ele>
        <time>2021-08-07T12:20:05.478Z</time>
      </trkpt>
      <trkpt lat="46.91306" lon="8.63212">
        <ele>657</ele>
        <time>2021-08-07T12:20:13.560Z</time>
      </trkpt>
      <trkpt lat="46.91305" lon="8.63211">
        <ele>657</ele>
        <time>2021-08-07T12:20:14.560Z</time>
      </trkpt>
      <trkpt lat="46.91307" lon="8.6321">
        <ele>657</ele>
        <time>2021-08-07T12:20:15.560Z</time>
      </trkpt>
      <trkpt lat="46.91307" lon="8.63208">
        <ele>658</ele>
        <time>2021-08-07T12:20:16.560Z</time>
      </trkpt>
      <trkpt lat="46.91305" lon="8.63205">
        <ele>658</ele>
        <time>2021-08-07T12:20:17.560Z</time>
      </trkpt>
      <trkpt lat="46.91304" lon="8.63205">
        <ele>658</ele>
        <time>2021-08-07T12:20:18.559Z</time>
      </trkpt>
      <trkpt lat="46.91302" lon="8.63205">
        <ele>658</ele>
        <time>2021-08-07T12:20:19.559Z</time>
      </trkpt>
      <trkpt lat="46.91302" lon="8.63206">
        <ele>658</ele>
        <time>2021-08-07T12:20:20.560Z</time>
      </trkpt>
      <trkpt lat="46.913" lon="8.63207">
        <ele>658</ele>
        <time>2021-08-07T12:20:21.559Z</time>
      </trkpt>
      <trkpt lat="46.91296" lon="8.63207">
        <ele>657</ele>
        <time>2021-08-07T12:20:22.559Z</time>
      </trkpt>
      <trkpt lat="46.91293" lon="8.63206">
        <ele>657</ele>
        <time>2021-08-07T12:20:23.560Z</time>
      </trkpt>
      <trkpt lat="46.9129" lon="8.63206">
        <ele>657</ele>
        <time>2021-08-07T12:20:24.559Z</time>
      </trkpt>
      <trkpt lat="46.91291" lon="8.63208">
        <ele>657</ele>
        <time>2021-08-07T12:20:25.559Z</time>
      </trkpt>
      <trkpt lat="46.91291" lon="8.63209">
        <ele>657</ele>
        <time>2021-08-07T12:20:26.559Z</time>
      </trkpt>
      <trkpt lat="46.9129" lon="8.63209">
        <ele>657</ele>
        <time>2021-08-07T12:20:27.559Z</time>
      </trkpt>
      <trkpt lat="46.91287" lon="8.63208">
        <ele>656</ele>
        <time>2021-08-07T12:20:28.559Z</time>
      </trkpt>
      <trkpt lat="46.91286" lon="8.63208">
        <ele>656</ele>
        <time>2021-08-07T12:20:29.560Z</time>
      </trkpt>
      <trkpt lat="46.91285" lon="8.63207">
        <ele>656</ele>
        <time>2021-08-07T12:20:30.560Z</time>
      </trkpt>
      <trkpt lat="46.91285" lon="8.63207">
        <ele>656</ele>
        <time>2021-08-07T12:20:31.559Z</time>
      </trkpt>
      <trkpt lat="46.91285" lon="8.63207">
        <ele>656</ele>
        <time>2021-08-07T12:20:32.559Z</time>
      </trkpt>
      <trkpt lat="46.91285" lon="8.63207">
        <ele>656</ele>
        <time>2021-08-07T12:20:33.560Z</time>
      </trkpt>
      <trkpt lat="46.91285" lon="8.63206">
        <ele>656</ele>
        <time>2021-08-07T12:20:34.560Z</time>
      </trkpt>
      <trkpt lat="46.91285" lon="8.63205">
        <ele>656</ele>
        <time>2021-08-07T12:20:35.560Z</time>
      </trkpt>
      <trkpt lat="46.91285" lon="8.63205">
        <ele>655</ele>
        <time>2021-08-07T12:20:36.559Z</time>
      </trkpt>
      <trkpt lat="46.91285" lon="8.63205">
        <ele>655</ele>
        <time>2021-08-07T12:20:43.694Z</time>
      </trkpt>
      <trkpt lat="46.91286" lon="8.63205">
        <ele>655</ele>
        <time>2021-08-07T12:20:44.693Z</time>
      </trkpt>
      <trkpt lat="46.91287" lon="8.63206">
        <ele>654</ele>
        <time>2021-08-07T12:20:45.694Z</time>
      </trkpt>
      <trkpt lat="46.91287" lon="8.63206">
        <ele>652</ele>
        <time>2021-08-07T12:20:52.804Z</time>
      </trkpt>
      <trkpt lat="46.91287" lon="8.63206">
        <ele>650</ele>
        <time>2021-08-07T12:20:53.804Z</time>
      </trkpt>
      <trkpt lat="46.91286" lon="8.63206">
        <ele>648</ele>
        <time>2021-08-07T12:20:54.804Z</time>
      </trkpt>
      <trkpt lat="46.91287" lon="8.63205">
        <ele>646</ele>
        <time>2021-08-07T12:20:55.803Z</time>
      </trkpt>
      <trkpt lat="46.91287" lon="8.63204">
        <ele>644</ele>
        <time>2021-08-07T12:20:56.804Z</time>
      </trkpt>
      <trkpt lat="46.91286" lon="8.63203">
        <ele>642</ele>
        <time>2021-08-07T12:20:57.803Z</time>
      </trkpt>
      <trkpt lat="46.91286" lon="8.63202">
        <ele>641</ele>
        <time>2021-08-07T12:20:58.803Z</time>
      </trkpt>
      <trkpt lat="46.91292" lon="8.632">
        <ele>637</ele>
        <time>2021-08-07T12:20:59.803Z</time>
      </trkpt>
      <trkpt lat="46.91293" lon="8.632">
        <ele>636</ele>
        <time>2021-08-07T12:21:00.804Z</time>
      </trkpt>
      <trkpt lat="46.91292" lon="8.632">
        <ele>635</ele>
        <time>2021-08-07T12:21:01.803Z</time>
      </trkpt>
      <trkpt lat="46.91291" lon="8.63202">
        <ele>634</ele>
        <time>2021-08-07T12:21:02.805Z</time>
      </trkpt>
      <trkpt lat="46.91291" lon="8.63203">
        <ele>633</ele>
        <time>2021-08-07T12:21:03.804Z</time>
      </trkpt>
      <trkpt lat="46.9129" lon="8.63203">
        <ele>633</ele>
        <time>2021-08-07T12:21:04.804Z</time>
      </trkpt>
      <trkpt lat="46.91289" lon="8.63203">
        <ele>632</ele>
        <time>2021-08-07T12:21:05.807Z</time>
      </trkpt>
      <trkpt lat="46.91289" lon="8.63203">
        <ele>631</ele>
        <time>2021-08-07T12:21:06.806Z</time>
      </trkpt>
      <trkpt lat="46.91288" lon="8.63203">
        <ele>631</ele>
        <time>2021-08-07T12:21:07.806Z</time>
      </trkpt>
      <trkpt lat="46.91288" lon="8.63203">
        <ele>630</ele>
        <time>2021-08-07T12:21:08.807Z</time>
      </trkpt>
      <trkpt lat="46.91288" lon="8.63203">
        <ele>630</ele>
        <time>2021-08-07T12:21:09.806Z</time>
      </trkpt>
      <trkpt lat="46.91288" lon="8.63202">
        <ele>630</ele>
        <time>2021-08-07T12:21:10.807Z</time>
      </trkpt>
      <trkpt lat="46.91287" lon="8.63203">
        <ele>629</ele>
        <time>2021-08-07T12:21:26.933Z</time>
      </trkpt>
      <trkpt lat="46.91286" lon="8.63205">
        <ele>629</ele>
        <time>2021-08-07T12:21:27.933Z</time>
      </trkpt>
      <trkpt lat="46.91284" lon="8.63206">
        <ele>629</ele>
        <time>2021-08-07T12:21:33.794Z</time>
      </trkpt>
      <trkpt lat="46.91284" lon="8.63205">
        <ele>629</ele>
        <time>2021-08-07T12:21:34.794Z</time>
      </trkpt>
      <trkpt lat="46.91283" lon="8.63203">
        <ele>629</ele>
        <time>2021-08-07T12:21:35.793Z</time>
      </trkpt>
      <trkpt lat="46.91284" lon="8.63202">
        <ele>628</ele>
        <time>2021-08-07T12:21:36.794Z</time>
      </trkpt>
      <trkpt lat="46.91284" lon="8.63201">
        <ele>628</ele>
        <time>2021-08-07T12:21:49.834Z</time>
      </trkpt>
      <trkpt lat="46.91284" lon="8.632">
        <ele>628</ele>
        <time>2021-08-07T12:21:50.834Z</time>
      </trkpt>
      <trkpt lat="46.91284" lon="8.63199">
        <ele>628</ele>
        <time>2021-08-07T12:21:59.706Z</time>
      </trkpt>
      <trkpt lat="46.91283" lon="8.63198">
        <ele>627</ele>
        <time>2021-08-07T12:22:00.707Z</time>
      </trkpt>
      <trkpt lat="46.91283" lon="8.63197">
        <ele>627</ele>
        <time>2021-08-07T12:22:01.706Z</time>
      </trkpt>
      <trkpt lat="46.91283" lon="8.63196">
        <ele>627</ele>
        <time>2021-08-07T12:22:02.707Z</time>
      </trkpt>
      <trkpt lat="46.91283" lon="8.63195">
        <ele>627</ele>
        <time>2021-08-07T12:22:03.706Z</time>
      </trkpt>
      <trkpt lat="46.91283" lon="8.63193">
        <ele>626</ele>
        <time>2021-08-07T12:22:04.707Z</time>
      </trkpt>
      <trkpt lat="46.91283" lon="8.63193">
        <ele>626</ele>
        <time>2021-08-07T12:22:43.857Z</time>
      </trkpt>
      <trkpt lat="46.91282" lon="8.63192">
        <ele>626</ele>
        <time>2021-08-07T12:22:44.857Z</time>
      </trkpt>
      <trkpt lat="46.91281" lon="8.6319">
        <ele>626</ele>
        <time>2021-08-07T12:22:45.857Z</time>
      </trkpt>
      <trkpt lat="46.91281" lon="8.63189">
        <ele>625</ele>
        <time>2021-08-07T12:22:46.856Z</time>
      </trkpt>
      <trkpt lat="46.9128" lon="8.63187">
        <ele>625</ele>
        <time>2021-08-07T12:23:01.928Z</time>
      </trkpt>
      <trkpt lat="46.91281" lon="8.63186">
        <ele>625</ele>
        <time>2021-08-07T12:23:02.929Z</time>
      </trkpt>
      <trkpt lat="46.91281" lon="8.63186">
        <ele>625</ele>
        <time>2021-08-07T12:23:03.928Z</time>
      </trkpt>
      <trkpt lat="46.91282" lon="8.63186">
        <ele>625</ele>
        <time>2021-08-07T12:23:04.929Z</time>
      </trkpt>
      <trkpt lat="46.91282" lon="8.63185">
        <ele>624</ele>
        <time>2021-08-07T12:23:05.928Z</time>
      </trkpt>
      <trkpt lat="46.91281" lon="8.63184">
        <ele>624</ele>
        <time>2021-08-07T12:23:11.073Z</time>
      </trkpt>
      <trkpt lat="46.91281" lon="8.63183">
        <ele>624</ele>
        <time>2021-08-07T12:23:12.074Z</time>
      </trkpt>
      <trkpt lat="46.91281" lon="8.63182">
        <ele>624</ele>
        <time>2021-08-07T12:23:13.074Z</time>
      </trkpt>
      <trkpt lat="46.9128" lon="8.63181">
        <ele>624</ele>
        <time>2021-08-07T12:23:14.074Z</time>
      </trkpt>
      <trkpt lat="46.9128" lon="8.6318">
        <ele>624</ele>
        <time>2021-08-07T12:23:15.073Z</time>
      </trkpt>
      <trkpt lat="46.9128" lon="8.63179">
        <ele>624</ele>
        <time>2021-08-07T12:23:16.074Z</time>
      </trkpt>
      <trkpt lat="46.9128" lon="8.63178">
        <ele>624</ele>
        <time>2021-08-07T12:23:17.074Z</time>
      </trkpt>
      <trkpt lat="46.9128" lon="8.63176">
        <ele>624</ele>
        <time>2021-08-07T12:23:18.074Z</time>
      </trkpt>
      <trkpt lat="46.91281" lon="8.63176">
        <ele>624</ele>
        <time>2021-08-07T12:23:19.074Z</time>
      </trkpt>
      <trkpt lat="46.91281" lon="8.63175">
        <ele>624</ele>
        <time>2021-08-07T12:23:20.073Z</time>
      </trkpt>
      <trkpt lat="46.91281" lon="8.63175">
        <ele>624</ele>
        <time>2021-08-07T12:23:21.074Z</time>
      </trkpt>
      <trkpt lat="46.91282" lon="8.63174">
        <ele>624</ele>
        <time>2021-08-07T12:23:22.073Z</time>
      </trkpt>
      <trkpt lat="46.91282" lon="8.63173">
        <ele>624</ele>
        <time>2021-08-07T12:23:23.074Z</time>
      </trkpt>
      <trkpt lat="46.91283" lon="8.63172">
        <ele>624</ele>
        <time>2021-08-07T12:23:24.074Z</time>
      </trkpt>
      <trkpt lat="46.91283" lon="8.63172">
        <ele>623</ele>
        <time>2021-08-07T12:23:25.074Z</time>
      </trkpt>
      <trkpt lat="46.91282" lon="8.63171">
        <ele>623</ele>
        <time>2021-08-07T12:23:26.074Z</time>
      </trkpt>
      <trkpt lat="46.91282" lon="8.6317">
        <ele>623</ele>
        <time>2021-08-07T12:23:27.073Z</time>
      </trkpt>
      <trkpt lat="46.91283" lon="8.63169">
        <ele>623</ele>
        <time>2021-08-07T12:23:28.074Z</time>
      </trkpt>
      <trkpt lat="46.91283" lon="8.63166">
        <ele>623</ele>
        <time>2021-08-07T12:23:29.074Z</time>
      </trkpt>
      <trkpt lat="46.91283" lon="8.63165">
        <ele>623</ele>
        <time>2021-08-07T12:23:30.074Z</time>
      </trkpt>
      <trkpt lat="46.91282" lon="8.63163">
        <ele>623</ele>
        <time>2021-08-07T12:23:31.073Z</time>
      </trkpt>
      <trkpt lat="46.91281" lon="8.63161">
        <ele>623</ele>
        <time>2021-08-07T12:23:32.074Z</time>
      </trkpt>
      <trkpt lat="46.91281" lon="8.63159">
        <ele>623</ele>
        <time>2021-08-07T12:23:33.074Z</time>
      </trkpt>
      <trkpt lat="46.91281" lon="8.63158">
        <ele>622</ele>
        <time>2021-08-07T12:23:34.073Z</time>
      </trkpt>
      <trkpt lat="46.91281" lon="8.63157">
        <ele>622</ele>
        <time>2021-08-07T12:23:35.073Z</time>
      </trkpt>
      <trkpt lat="46.91281" lon="8.63156">
        <ele>622</ele>
        <time>2021-08-07T12:23:36.074Z</time>
      </trkpt>
      <trkpt lat="46.91281" lon="8.63154">
        <ele>622</ele>
        <time>2021-08-07T12:23:38.152Z</time>
      </trkpt>
      <trkpt lat="46.91281" lon="8.63152">
        <ele>622</ele>
        <time>2021-08-07T12:23:39.153Z</time>
      </trkpt>
      <trkpt lat="46.91282" lon="8.63151">
        <ele>622</ele>
        <time>2021-08-07T12:23:40.152Z</time>
      </trkpt>
      <trkpt lat="46.91282" lon="8.63151">
        <ele>621</ele>
        <time>2021-08-07T12:23:41.153Z</time>
      </trkpt>
      <trkpt lat="46.91283" lon="8.63151">
        <ele>621</ele>
        <time>2021-08-07T12:23:42.153Z</time>
      </trkpt>
      <trkpt lat="46.91283" lon="8.63151">
        <ele>621</ele>
        <time>2021-08-07T12:23:43.152Z</time>
      </trkpt>
      <trkpt lat="46.91283" lon="8.63151">
        <ele>621</ele>
        <time>2021-08-07T12:23:44.152Z</time>
      </trkpt>
      <trkpt lat="46.91283" lon="8.6315">
        <ele>621</ele>
        <time>2021-08-07T12:23:45.152Z</time>
      </trkpt>
      <trkpt lat="46.91283" lon="8.63149">
        <ele>621</ele>
        <time>2021-08-07T12:23:46.153Z</time>
      </trkpt>
      <trkpt lat="46.91282" lon="8.63149">
        <ele>621</ele>
        <time>2021-08-07T12:23:47.152Z</time>
      </trkpt>
      <trkpt lat="46.91281" lon="8.63149">
        <ele>620</ele>
        <time>2021-08-07T12:23:48.153Z</time>
      </trkpt>
      <trkpt lat="46.91282" lon="8.63148">
        <ele>620</ele>
        <time>2021-08-07T12:23:49.153Z</time>
      </trkpt>
      <trkpt lat="46.91283" lon="8.63147">
        <ele>620</ele>
        <time>2021-08-07T12:23:50.152Z</time>
      </trkpt>
      <trkpt lat="46.91284" lon="8.63146">
        <ele>620</ele>
        <time>2021-08-07T12:23:51.152Z</time>
      </trkpt>
      <trkpt lat="46.91285" lon="8.63145">
        <ele>619</ele>
        <time>2021-08-07T12:23:52.152Z</time>
      </trkpt>
      <trkpt lat="46.91286" lon="8.63144">
        <ele>619</ele>
        <time>2021-08-07T12:23:53.152Z</time>
      </trkpt>
      <trkpt lat="46.91286" lon="8.63143">
        <ele>618</ele>
        <time>2021-08-07T12:23:54.152Z</time>
      </trkpt>
      <trkpt lat="46.91286" lon="8.63142">
        <ele>618</ele>
        <time>2021-08-07T12:23:55.152Z</time>
      </trkpt>
      <trkpt lat="46.91286" lon="8.63141">
        <ele>617</ele>
        <time>2021-08-07T12:23:58.942Z</time>
      </trkpt>
      <trkpt lat="46.91286" lon="8.6314">
        <ele>617</ele>
        <time>2021-08-07T12:23:59.942Z</time>
      </trkpt>
      <trkpt lat="46.91286" lon="8.63139">
        <ele>616</ele>
        <time>2021-08-07T12:24:00.942Z</time>
      </trkpt>
      <trkpt lat="46.91286" lon="8.63137">
        <ele>615</ele>
        <time>2021-08-07T12:24:01.942Z</time>
      </trkpt>
      <trkpt lat="46.91286" lon="8.63135">
        <ele>615</ele>
        <time>2021-08-07T12:24:02.942Z</time>
      </trkpt>
      <trkpt lat="46.91286" lon="8.63135">
        <ele>614</ele>
        <time>2021-08-07T12:24:03.943Z</time>
      </trkpt>
      <trkpt lat="46.91286" lon="8.63134">
        <ele>614</ele>
        <time>2021-08-07T12:24:04.942Z</time>
      </trkpt>
      <trkpt lat="46.91287" lon="8.63134">
        <ele>613</ele>
        <time>2021-08-07T12:24:05.943Z</time>
      </trkpt>
      <trkpt lat="46.91286" lon="8.63133">
        <ele>612</ele>
        <time>2021-08-07T12:24:06.943Z</time>
      </trkpt>
      <trkpt lat="46.91286" lon="8.63133">
        <ele>611</ele>
        <time>2021-08-07T12:24:07.942Z</time>
      </trkpt>
      <trkpt lat="46.91286" lon="8.63132">
        <ele>611</ele>
        <time>2021-08-07T12:24:08.943Z</time>
      </trkpt>
      <trkpt lat="46.91286" lon="8.63132">
        <ele>610</ele>
        <time>2021-08-07T12:24:09.943Z</time>
      </trkpt>
      <trkpt lat="46.91286" lon="8.63131">
        <ele>609</ele>
        <time>2021-08-07T12:24:15.936Z</time>
      </trkpt>
      <trkpt lat="46.91286" lon="8.63129">
        <ele>609</ele>
        <time>2021-08-07T12:24:16.936Z</time>
      </trkpt>
      <trkpt lat="46.91286" lon="8.63127">
        <ele>608</ele>
        <time>2021-08-07T12:24:21.814Z</time>
      </trkpt>
      <trkpt lat="46.91287" lon="8.63126">
        <ele>608</ele>
        <time>2021-08-07T12:24:22.815Z</time>
      </trkpt>
      <trkpt lat="46.91287" lon="8.63125">
        <ele>607</ele>
        <time>2021-08-07T12:24:23.815Z</time>
      </trkpt>
      <trkpt lat="46.91286" lon="8.63122">
        <ele>607</ele>
        <time>2021-08-07T12:24:27.814Z</time>
      </trkpt>
      <trkpt lat="46.91286" lon="8.63122">
        <ele>607</ele>
        <time>2021-08-07T12:24:28.815Z</time>
      </trkpt>
      <trkpt lat="46.91286" lon="8.63122">
        <ele>606</ele>
        <time>2021-08-07T12:24:29.814Z</time>
      </trkpt>
      <trkpt lat="46.91286" lon="8.63123">
        <ele>606</ele>
        <time>2021-08-07T12:24:48.552Z</time>
      </trkpt>
      <trkpt lat="46.91286" lon="8.63124">
        <ele>606</ele>
        <time>2021-08-07T12:25:00.313Z</time>
      </trkpt>
      <trkpt lat="46.91286" lon="8.63125">
        <ele>605</ele>
        <time>2021-08-07T12:25:01.313Z</time>
      </trkpt>
      <trkpt lat="46.91286" lon="8.63126">
        <ele>605</ele>
        <time>2021-08-07T12:25:02.313Z</time>
      </trkpt>
      <trkpt lat="46.91286" lon="8.63126">
        <ele>604</ele>
        <time>2021-08-07T12:25:06.432Z</time>
      </trkpt>
      <trkpt lat="46.91286" lon="8.63127">
        <ele>604</ele>
        <time>2021-08-07T12:25:07.431Z</time>
      </trkpt>
      <trkpt lat="46.91286" lon="8.63127">
        <ele>604</ele>
        <time>2021-08-07T12:25:23.187Z</time>
      </trkpt>
      <trkpt lat="46.91286" lon="8.63126">
        <ele>603</ele>
        <time>2021-08-07T12:25:24.186Z</time>
      </trkpt>
      <trkpt lat="46.91286" lon="8.63127">
        <ele>603</ele>
        <time>2021-08-07T12:25:25.187Z</time>
      </trkpt>
      <trkpt lat="46.91284" lon="8.63128">
        <ele>602</ele>
        <time>2021-08-07T12:25:26.187Z</time>
      </trkpt>
      <trkpt lat="46.91282" lon="8.63128">
        <ele>602</ele>
        <time>2021-08-07T12:25:52.329Z</time>
      </trkpt>
      <trkpt lat="46.91281" lon="8.63128">
        <ele>602</ele>
        <time>2021-08-07T12:25:53.329Z</time>
      </trkpt>
      <trkpt lat="46.91281" lon="8.63128">
        <ele>602</ele>
        <time>2021-08-07T12:25:56.166Z</time>
      </trkpt>
      <trkpt lat="46.91281" lon="8.63129">
        <ele>602</ele>
        <time>2021-08-07T12:25:57.166Z</time>
      </trkpt>
      <trkpt lat="46.91282" lon="8.63129">
        <ele>602</ele>
        <time>2021-08-07T12:25:58.167Z</time>
      </trkpt>
      <trkpt lat="46.91282" lon="8.6313">
        <ele>602</ele>
        <time>2021-08-07T12:26:02.331Z</time>
      </trkpt>
      <trkpt lat="46.91283" lon="8.63131">
        <ele>602</ele>
        <time>2021-08-07T12:26:03.330Z</time>
      </trkpt>
      <trkpt lat="46.91284" lon="8.63132">
        <ele>602</ele>
        <time>2021-08-07T12:26:04.330Z</time>
      </trkpt>
      <trkpt lat="46.91284" lon="8.63132">
        <ele>602</ele>
        <time>2021-08-07T12:26:05.330Z</time>
      </trkpt>
      <trkpt lat="46.91285" lon="8.63133">
        <ele>602</ele>
        <time>2021-08-07T12:26:06.330Z</time>
      </trkpt>
      <trkpt lat="46.91287" lon="8.63133">
        <ele>602</ele>
        <time>2021-08-07T12:26:07.331Z</time>
      </trkpt>
      <trkpt lat="46.91288" lon="8.63134">
        <ele>602</ele>
        <time>2021-08-07T12:26:08.330Z</time>
      </trkpt>
      <trkpt lat="46.91288" lon="8.63134">
        <ele>602</ele>
        <time>2021-08-07T12:26:09.330Z</time>
      </trkpt>
      <trkpt lat="46.91289" lon="8.63134">
        <ele>601</ele>
        <time>2021-08-07T12:26:10.330Z</time>
      </trkpt>
      <trkpt lat="46.91291" lon="8.63135">
        <ele>601</ele>
        <time>2021-08-07T12:26:11.331Z</time>
      </trkpt>
      <trkpt lat="46.91293" lon="8.63137">
        <ele>601</ele>
        <time>2021-08-07T12:26:12.331Z</time>
      </trkpt>
      <trkpt lat="46.91294" lon="8.63137">
        <ele>601</ele>
        <time>2021-08-07T12:26:13.331Z</time>
      </trkpt>
      <trkpt lat="46.91293" lon="8.63135">
        <ele>601</ele>
        <time>2021-08-07T12:26:14.331Z</time>
      </trkpt>
      <trkpt lat="46.91293" lon="8.63135">
        <ele>601</ele>
        <time>2021-08-07T12:26:15.331Z</time>
      </trkpt>
      <trkpt lat="46.91292" lon="8.63134">
        <ele>601</ele>
        <time>2021-08-07T12:26:16.330Z</time>
      </trkpt>
      <trkpt lat="46.91292" lon="8.63133">
        <ele>601</ele>
        <time>2021-08-07T12:26:17.330Z</time>
      </trkpt>
      <trkpt lat="46.91291" lon="8.63132">
        <ele>601</ele>
        <time>2021-08-07T12:26:18.330Z</time>
      </trkpt>
      <trkpt lat="46.9129" lon="8.6313">
        <ele>601</ele>
        <time>2021-08-07T12:26:19.331Z</time>
      </trkpt>
      <trkpt lat="46.91289" lon="8.63129">
        <ele>601</ele>
        <time>2021-08-07T12:26:20.331Z</time>
      </trkpt>
      <trkpt lat="46.91288" lon="8.63128">
        <ele>601</ele>
        <time>2021-08-07T12:26:21.331Z</time>
      </trkpt>
      <trkpt lat="46.91288" lon="8.63126">
        <ele>601</ele>
        <time>2021-08-07T12:26:22.331Z</time>
      </trkpt>
      <trkpt lat="46.91288" lon="8.63125">
        <ele>601</ele>
        <time>2021-08-07T12:26:23.331Z</time>
      </trkpt>
      <trkpt lat="46.91287" lon="8.63126">
        <ele>601</ele>
        <time>2021-08-07T12:26:24.331Z</time>
      </trkpt>
      <trkpt lat="46.91285" lon="8.63126">
        <ele>601</ele>
        <time>2021-08-07T12:26:25.330Z</time>
      </trkpt>
      <trkpt lat="46.91284" lon="8.63125">
        <ele>600</ele>
        <time>2021-08-07T12:26:26.330Z</time>
      </trkpt>
      <trkpt lat="46.91284" lon="8.63123">
        <ele>600</ele>
        <time>2021-08-07T12:26:27.330Z</time>
      </trkpt>
      <trkpt lat="46.91284" lon="8.63121">
        <ele>600</ele>
        <time>2021-08-07T12:26:28.331Z</time>
      </trkpt>
      <trkpt lat="46.91284" lon="8.6312">
        <ele>600</ele>
        <time>2021-08-07T12:26:29.331Z</time>
      </trkpt>
      <trkpt lat="46.91285" lon="8.63118">
        <ele>600</ele>
        <time>2021-08-07T12:27:11.440Z</time>
      </trkpt>
      <trkpt lat="46.91286" lon="8.63117">
        <ele>600</ele>
        <time>2021-08-07T12:27:12.439Z</time>
      </trkpt>
      <trkpt lat="46.91286" lon="8.63117">
        <ele>600</ele>
        <time>2021-08-07T12:27:13.440Z</time>
      </trkpt>
      <trkpt lat="46.91286" lon="8.63115">
        <ele>600</ele>
        <time>2021-08-07T12:27:14.440Z</time>
      </trkpt>
      <trkpt lat="46.91286" lon="8.63114">
        <ele>600</ele>
        <time>2021-08-07T12:27:15.440Z</time>
      </trkpt>
      <trkpt lat="46.91286" lon="8.63113">
        <ele>600</ele>
        <time>2021-08-07T12:27:16.439Z</time>
      </trkpt>
      <trkpt lat="46.91286" lon="8.63113">
        <ele>600</ele>
        <time>2021-08-07T12:27:31.579Z</time>
      </trkpt>
      <trkpt lat="46.91287" lon="8.63113">
        <ele>601</ele>
        <time>2021-08-07T12:27:32.579Z</time>
      </trkpt>
      <trkpt lat="46.91287" lon="8.63112">
        <ele>601</ele>
        <time>2021-08-07T12:27:33.579Z</time>
      </trkpt>
      <trkpt lat="46.91287" lon="8.63112">
        <ele>601</ele>
        <time>2021-08-07T12:28:06.692Z</time>
      </trkpt>
      <trkpt lat="46.91287" lon="8.63113">
        <ele>601</ele>
        <time>2021-08-07T12:28:07.692Z</time>
      </trkpt>
      <trkpt lat="46.91286" lon="8.63112">
        <ele>601</ele>
        <time>2021-08-07T12:28:30.697Z</time>
      </trkpt>
      <trkpt lat="46.91286" lon="8.63112">
        <ele>601</ele>
        <time>2021-08-07T12:28:31.696Z</time>
      </trkpt>
      <trkpt lat="46.91286" lon="8.6311">
        <ele>601</ele>
        <time>2021-08-07T12:28:50.852Z</time>
      </trkpt>
      <trkpt lat="46.91284" lon="8.6311">
        <ele>601</ele>
        <time>2021-08-07T12:28:51.852Z</time>
      </trkpt>
      <trkpt lat="46.91281" lon="8.63112">
        <ele>601</ele>
        <time>2021-08-07T12:28:53.852Z</time>
      </trkpt>
      <trkpt lat="46.91281" lon="8.63115">
        <ele>601</ele>
        <time>2021-08-07T12:29:06.917Z</time>
      </trkpt>
      <trkpt lat="46.91282" lon="8.63116">
        <ele>601</ele>
        <time>2021-08-07T12:29:07.918Z</time>
      </trkpt>
      <trkpt lat="46.91282" lon="8.63115">
        <ele>601</ele>
        <time>2021-08-07T12:29:08.917Z</time>
      </trkpt>
      <trkpt lat="46.91283" lon="8.63114">
        <ele>601</ele>
        <time>2021-08-07T12:29:09.917Z</time>
      </trkpt>
      <trkpt lat="46.91285" lon="8.63111">
        <ele>601</ele>
        <time>2021-08-07T12:29:10.917Z</time>
      </trkpt>
      <trkpt lat="46.91284" lon="8.6311">
        <ele>602</ele>
        <time>2021-08-07T12:29:11.918Z</time>
      </trkpt>
      <trkpt lat="46.91284" lon="8.63111">
        <ele>602</ele>
        <time>2021-08-07T12:29:21.065Z</time>
      </trkpt>
      <trkpt lat="46.91283" lon="8.63112">
        <ele>602</ele>
        <time>2021-08-07T12:29:22.064Z</time>
      </trkpt>
      <trkpt lat="46.91283" lon="8.63113">
        <ele>602</ele>
        <time>2021-08-07T12:29:23.065Z</time>
      </trkpt>
      <trkpt lat="46.91283" lon="8.63114">
        <ele>602</ele>
        <time>2021-08-07T12:29:25.220Z</time>
      </trkpt>
      <trkpt lat="46.91283" lon="8.63116">
        <ele>602</ele>
        <time>2021-08-07T12:29:26.219Z</time>
      </trkpt>
      <trkpt lat="46.91283" lon="8.63118">
        <ele>602</ele>
        <time>2021-08-07T12:29:27.220Z</time>
      </trkpt>
      <trkpt lat="46.91283" lon="8.6312">
        <ele>602</ele>
        <time>2021-08-07T12:29:28.220Z</time>
      </trkpt>
      <trkpt lat="46.91283" lon="8.63122">
        <ele>602</ele>
        <time>2021-08-07T12:29:53.300Z</time>
      </trkpt>
      <trkpt lat="46.91283" lon="8.63124">
        <ele>603</ele>
        <time>2021-08-07T12:29:54.299Z</time>
      </trkpt>
      <trkpt lat="46.91284" lon="8.63125">
        <ele>603</ele>
        <time>2021-08-07T12:29:55.299Z</time>
      </trkpt>
      <trkpt lat="46.91284" lon="8.63125">
        <ele>603</ele>
        <time>2021-08-07T12:30:03.409Z</time>
      </trkpt>
      <trkpt lat="46.91284" lon="8.63125">
        <ele>603</ele>
        <time>2021-08-07T12:30:04.408Z</time>
      </trkpt>
      <trkpt lat="46.91283" lon="8.63123">
        <ele>603</ele>
        <time>2021-08-07T12:30:05.408Z</time>
      </trkpt>
      <trkpt lat="46.91282" lon="8.63121">
        <ele>603</ele>
        <time>2021-08-07T12:30:06.409Z</time>
      </trkpt>
      <trkpt lat="46.91281" lon="8.63119">
        <ele>603</ele>
        <time>2021-08-07T12:30:07.409Z</time>
      </trkpt>
      <trkpt lat="46.91281" lon="8.63117">
        <ele>603</ele>
        <time>2021-08-07T12:30:08.409Z</time>
      </trkpt>
      <trkpt lat="46.91282" lon="8.63116">
        <ele>603</ele>
        <time>2021-08-07T12:30:09.409Z</time>
      </trkpt>
      <trkpt lat="46.91281" lon="8.63114">
        <ele>603</ele>
        <time>2021-08-07T12:30:17.534Z</time>
      </trkpt>
      <trkpt lat="46.91281" lon="8.63113">
        <ele>604</ele>
        <time>2021-08-07T12:30:18.535Z</time>
      </trkpt>
      <trkpt lat="46.91281" lon="8.63112">
        <ele>604</ele>
        <time>2021-08-07T12:30:29.301Z</time>
      </trkpt>
      <trkpt lat="46.91282" lon="8.63109">
        <ele>604</ele>
        <time>2021-08-07T12:30:30.301Z</time>
      </trkpt>
      <trkpt lat="46.91283" lon="8.63106">
        <ele>605</ele>
        <time>2021-08-07T12:30:31.301Z</time>
      </trkpt>
      <trkpt lat="46.91283" lon="8.63105">
        <ele>605</ele>
        <time>2021-08-07T12:30:32.301Z</time>
      </trkpt>
      <trkpt lat="46.91284" lon="8.63106">
        <ele>606</ele>
        <time>2021-08-07T12:30:48.448Z</time>
      </trkpt>
      <trkpt lat="46.91285" lon="8.63105">
        <ele>606</ele>
        <time>2021-08-07T12:30:49.449Z</time>
      </trkpt>
      <trkpt lat="46.91285" lon="8.63104">
        <ele>606</ele>
        <time>2021-08-07T12:30:53.286Z</time>
      </trkpt>
      <trkpt lat="46.91286" lon="8.63103">
        <ele>606</ele>
        <time>2021-08-07T12:30:54.287Z</time>
      </trkpt>
      <trkpt lat="46.91285" lon="8.63101">
        <ele>606</ele>
        <time>2021-08-07T12:31:10.177Z</time>
      </trkpt>
      <trkpt lat="46.91283" lon="8.63099">
        <ele>606</ele>
        <time>2021-08-07T12:31:11.177Z</time>
      </trkpt>
      <trkpt lat="46.91282" lon="8.63098">
        <ele>606</ele>
        <time>2021-08-07T12:31:13.036Z</time>
      </trkpt>
      <trkpt lat="46.91281" lon="8.63099">
        <ele>605</ele>
        <time>2021-08-07T12:31:14.036Z</time>
      </trkpt>
      <trkpt lat="46.91282" lon="8.631">
        <ele>605</ele>
        <time>2021-08-07T12:31:15.035Z</time>
      </trkpt>
      <trkpt lat="46.91282" lon="8.631">
        <ele>604</ele>
        <time>2021-08-07T12:31:16.036Z</time>
      </trkpt>
      <trkpt lat="46.91282" lon="8.63099">
        <ele>604</ele>
        <time>2021-08-07T12:31:17.035Z</time>
      </trkpt>
      <trkpt lat="46.91282" lon="8.63099">
        <ele>603</ele>
        <time>2021-08-07T12:31:24.160Z</time>
      </trkpt>
      <trkpt lat="46.91283" lon="8.631">
        <ele>603</ele>
        <time>2021-08-07T12:31:25.160Z</time>
      </trkpt>
      <trkpt lat="46.91284" lon="8.63103">
        <ele>603</ele>
        <time>2021-08-07T12:31:26.160Z</time>
      </trkpt>
      <trkpt lat="46.91285" lon="8.63106">
        <ele>603</ele>
        <time>2021-08-07T12:31:46.309Z</time>
      </trkpt>
      <trkpt lat="46.91284" lon="8.63107">
        <ele>602</ele>
        <time>2021-08-07T12:31:47.308Z</time>
      </trkpt>
      <trkpt lat="46.91284" lon="8.63108">
        <ele>602</ele>
        <time>2021-08-07T12:31:48.308Z</time>
      </trkpt>
      <trkpt lat="46.91284" lon="8.63107">
        <ele>602</ele>
        <time>2021-08-07T12:31:59.430Z</time>
      </trkpt>
      <trkpt lat="46.91284" lon="8.63106">
        <ele>602</ele>
        <time>2021-08-07T12:32:00.430Z</time>
      </trkpt>
      <trkpt lat="46.91286" lon="8.63106">
        <ele>602</ele>
        <time>2021-08-07T12:32:01.430Z</time>
      </trkpt>
      <trkpt lat="46.91288" lon="8.63107">
        <ele>602</ele>
        <time>2021-08-07T12:32:02.430Z</time>
      </trkpt>
      <trkpt lat="46.91289" lon="8.63108">
        <ele>602</ele>
        <time>2021-08-07T12:32:14.551Z</time>
      </trkpt>
      <trkpt lat="46.91288" lon="8.63107">
        <ele>601</ele>
        <time>2021-08-07T12:32:15.551Z</time>
      </trkpt>
      <trkpt lat="46.91288" lon="8.63107">
        <ele>601</ele>
        <time>2021-08-07T12:32:16.552Z</time>
      </trkpt>
      <trkpt lat="46.91287" lon="8.63107">
        <ele>600</ele>
        <time>2021-08-07T12:32:39.678Z</time>
      </trkpt>
      <trkpt lat="46.91287" lon="8.63107">
        <ele>600</ele>
        <time>2021-08-07T12:32:40.679Z</time>
      </trkpt>
      <trkpt lat="46.91286" lon="8.63107">
        <ele>600</ele>
        <time>2021-08-07T12:32:41.678Z</time>
      </trkpt>
      <trkpt lat="46.91287" lon="8.63108">
        <ele>599</ele>
        <time>2021-08-07T12:32:42.679Z</time>
      </trkpt>
      <trkpt lat="46.91287" lon="8.63108">
        <ele>599</ele>
        <time>2021-08-07T12:32:43.679Z</time>
      </trkpt>
      <trkpt lat="46.91287" lon="8.63108">
        <ele>599</ele>
        <time>2021-08-07T12:32:44.679Z</time>
      </trkpt>
      <trkpt lat="46.91286" lon="8.63108">
        <ele>598</ele>
        <time>2021-08-07T12:32:45.680Z</time>
      </trkpt>
      <trkpt lat="46.91286" lon="8.63108">
        <ele>598</ele>
        <time>2021-08-07T12:32:46.680Z</time>
      </trkpt>
      <trkpt lat="46.91285" lon="8.63108">
        <ele>597</ele>
        <time>2021-08-07T12:32:47.680Z</time>
      </trkpt>
      <trkpt lat="46.91284" lon="8.63109">
        <ele>597</ele>
        <time>2021-08-07T12:32:54.780Z</time>
      </trkpt>
      <trkpt lat="46.91283" lon="8.63109">
        <ele>597</ele>
        <time>2021-08-07T12:32:55.780Z</time>
      </trkpt>
      <trkpt lat="46.91283" lon="8.63109">
        <ele>596</ele>
        <time>2021-08-07T12:32:56.780Z</time>
      </trkpt>
      <trkpt lat="46.91282" lon="8.6311">
        <ele>596</ele>
        <time>2021-08-07T12:33:06.655Z</time>
      </trkpt>
      <trkpt lat="46.91281" lon="8.6311">
        <ele>596</ele>
        <time>2021-08-07T12:33:24.440Z</time>
      </trkpt>
      <trkpt lat="46.91281" lon="8.6311">
        <ele>596</ele>
        <time>2021-08-07T12:33:25.440Z</time>
      </trkpt>
      <trkpt lat="46.91281" lon="8.63112">
        <ele>596</ele>
        <time>2021-08-07T12:33:26.440Z</time>
      </trkpt>
      <trkpt lat="46.91283" lon="8.63113">
        <ele>595</ele>
        <time>2021-08-07T12:33:36.552Z</time>
      </trkpt>
      <trkpt lat="46.91284" lon="8.63114">
        <ele>595</ele>
        <time>2021-08-07T12:33:37.552Z</time>
      </trkpt>
      <trkpt lat="46.91284" lon="8.63115">
        <ele>595</ele>
        <time>2021-08-07T12:33:38.551Z</time>
      </trkpt>
      <trkpt lat="46.91284" lon="8.63116">
        <ele>595</ele>
        <time>2021-08-07T12:33:39.551Z</time>
      </trkpt>
      <trkpt lat="46.91285" lon="8.63115">
        <ele>595</ele>
        <time>2021-08-07T12:33:40.552Z</time>
      </trkpt>
      <trkpt lat="46.91285" lon="8.63114">
        <ele>595</ele>
        <time>2021-08-07T12:33:47.671Z</time>
      </trkpt>
      <trkpt lat="46.91285" lon="8.63114">
        <ele>595</ele>
        <time>2021-08-07T12:33:48.671Z</time>
      </trkpt>
      <trkpt lat="46.91285" lon="8.63115">
        <ele>595</ele>
        <time>2021-08-07T12:33:56.781Z</time>
      </trkpt>
      <trkpt lat="46.91285" lon="8.63118">
        <ele>594</ele>
        <time>2021-08-07T12:33:57.781Z</time>
      </trkpt>
      <trkpt lat="46.91286" lon="8.63121">
        <ele>594</ele>
        <time>2021-08-07T12:33:58.781Z</time>
      </trkpt>
      <trkpt lat="46.91288" lon="8.63124">
        <ele>594</ele>
        <time>2021-08-07T12:34:31.552Z</time>
      </trkpt>
      <trkpt lat="46.91288" lon="8.63124">
        <ele>593</ele>
        <time>2021-08-07T12:34:32.552Z</time>
      </trkpt>
      <trkpt lat="46.91289" lon="8.63124">
        <ele>593</ele>
        <time>2021-08-07T12:34:33.551Z</time>
      </trkpt>
      <trkpt lat="46.9129" lon="8.63124">
        <ele>592</ele>
        <time>2021-08-07T12:34:40.655Z</time>
      </trkpt>
      <trkpt lat="46.9129" lon="8.63124">
        <ele>592</ele>
        <time>2021-08-07T12:34:41.655Z</time>
      </trkpt>
      <trkpt lat="46.91291" lon="8.63124">
        <ele>591</ele>
        <time>2021-08-07T12:35:10.428Z</time>
      </trkpt>
      <trkpt lat="46.9129" lon="8.63124">
        <ele>591</ele>
        <time>2021-08-07T12:35:11.427Z</time>
      </trkpt>
      <trkpt lat="46.9129" lon="8.63123">
        <ele>590</ele>
        <time>2021-08-07T12:35:12.427Z</time>
      </trkpt>
      <trkpt lat="46.9129" lon="8.63125">
        <ele>590</ele>
        <time>2021-08-07T12:35:23.546Z</time>
      </trkpt>
      <trkpt lat="46.91289" lon="8.63127">
        <ele>589</ele>
        <time>2021-08-07T12:35:24.546Z</time>
      </trkpt>
      <trkpt lat="46.91288" lon="8.63127">
        <ele>589</ele>
        <time>2021-08-07T12:35:25.546Z</time>
      </trkpt>
      <trkpt lat="46.91287" lon="8.63129">
        <ele>589</ele>
        <time>2021-08-07T12:35:26.546Z</time>
      </trkpt>
      <trkpt lat="46.91286" lon="8.63131">
        <ele>588</ele>
        <time>2021-08-07T12:35:30.565Z</time>
      </trkpt>
      <trkpt lat="46.91285" lon="8.63135">
        <ele>588</ele>
        <time>2021-08-07T12:35:31.565Z</time>
      </trkpt>
      <trkpt lat="46.91285" lon="8.63137">
        <ele>588</ele>
        <time>2021-08-07T12:35:32.565Z</time>
      </trkpt>
      <trkpt lat="46.91284" lon="8.63139">
        <ele>588</ele>
        <time>2021-08-07T12:35:39.657Z</time>
      </trkpt>
      <trkpt lat="46.91285" lon="8.6314">
        <ele>588</ele>
        <time>2021-08-07T12:35:40.657Z</time>
      </trkpt>
      <trkpt lat="46.91285" lon="8.63139">
        <ele>588</ele>
        <time>2021-08-07T12:35:41.657Z</time>
      </trkpt>
      <trkpt lat="46.91285" lon="8.63139">
        <ele>587</ele>
        <time>2021-08-07T12:35:42.657Z</time>
      </trkpt>
      <trkpt lat="46.91284" lon="8.6314">
        <ele>587</ele>
        <time>2021-08-07T12:35:43.657Z</time>
      </trkpt>
      <trkpt lat="46.91283" lon="8.63141">
        <ele>587</ele>
        <time>2021-08-07T12:35:44.657Z</time>
      </trkpt>
      <trkpt lat="46.91281" lon="8.63142">
        <ele>587</ele>
        <time>2021-08-07T12:35:45.656Z</time>
      </trkpt>
      <trkpt lat="46.9128" lon="8.63144">
        <ele>587</ele>
        <time>2021-08-07T12:35:46.656Z</time>
      </trkpt>
      <trkpt lat="46.91279" lon="8.63147">
        <ele>586</ele>
        <time>2021-08-07T12:35:47.657Z</time>
      </trkpt>
      <trkpt lat="46.91277" lon="8.63152">
        <ele>586</ele>
        <time>2021-08-07T12:36:12.803Z</time>
      </trkpt>
      <trkpt lat="46.91274" lon="8.63156">
        <ele>586</ele>
        <time>2021-08-07T12:36:13.803Z</time>
      </trkpt>
      <trkpt lat="46.91273" lon="8.63156">
        <ele>586</ele>
        <time>2021-08-07T12:36:14.803Z</time>
      </trkpt>
      <trkpt lat="46.91273" lon="8.63153">
        <ele>586</ele>
        <time>2021-08-07T12:36:23.927Z</time>
      </trkpt>
      <trkpt lat="46.91274" lon="8.63151">
        <ele>585</ele>
        <time>2021-08-07T12:36:25.779Z</time>
      </trkpt>
      <trkpt lat="46.91276" lon="8.63149">
        <ele>585</ele>
        <time>2021-08-07T12:36:26.779Z</time>
      </trkpt>
      <trkpt lat="46.91277" lon="8.6315">
        <ele>585</ele>
        <time>2021-08-07T12:36:53.536Z</time>
      </trkpt>
      <trkpt lat="46.91278" lon="8.6315">
        <ele>585</ele>
        <time>2021-08-07T12:36:54.535Z</time>
      </trkpt>
      <trkpt lat="46.91279" lon="8.6315">
        <ele>585</ele>
        <time>2021-08-07T12:37:51.433Z</time>
      </trkpt>
      <trkpt lat="46.9128" lon="8.63151">
        <ele>585</ele>
        <time>2021-08-07T12:37:52.432Z</time>
      </trkpt>
      <trkpt lat="46.91282" lon="8.63151">
        <ele>585</ele>
        <time>2021-08-07T12:37:53.433Z</time>
      </trkpt>
      <trkpt lat="46.91283" lon="8.63151">
        <ele>585</ele>
        <time>2021-08-07T12:38:40.552Z</time>
      </trkpt>
      <trkpt lat="46.91284" lon="8.63151">
        <ele>585</ele>
        <time>2021-08-07T12:38:41.553Z</time>
      </trkpt>
      <trkpt lat="46.91285" lon="8.63151">
        <ele>585</ele>
        <time>2021-08-07T12:38:42.552Z</time>
      </trkpt>
      <trkpt lat="46.91284" lon="8.63149">
        <ele>585</ele>
        <time>2021-08-07T12:39:21.655Z</time>
      </trkpt>
      <trkpt lat="46.91284" lon="8.63148">
        <ele>585</ele>
        <time>2021-08-07T12:39:33.541Z</time>
      </trkpt>
      <trkpt lat="46.91285" lon="8.63147">
        <ele>585</ele>
        <time>2021-08-07T12:39:34.540Z</time>
      </trkpt>
      <trkpt lat="46.91285" lon="8.63146">
        <ele>585</ele>
        <time>2021-08-07T12:39:35.541Z</time>
      </trkpt>
      <trkpt lat="46.91285" lon="8.63142">
        <ele>585</ele>
        <time>2021-08-07T12:39:36.541Z</time>
      </trkpt>
      <trkpt lat="46.91285" lon="8.63137">
        <ele>585</ele>
        <time>2021-08-07T12:39:37.540Z</time>
      </trkpt>
      <trkpt lat="46.91284" lon="8.63132">
        <ele>585</ele>
        <time>2021-08-07T12:39:38.541Z</time>
      </trkpt>
      <trkpt lat="46.91283" lon="8.63126">
        <ele>585</ele>
        <time>2021-08-07T12:39:39.541Z</time>
      </trkpt>
      <trkpt lat="46.91282" lon="8.63121">
        <ele>585</ele>
        <time>2021-08-07T12:39:40.540Z</time>
      </trkpt>
      <trkpt lat="46.91281" lon="8.63117">
        <ele>585</ele>
        <time>2021-08-07T12:39:41.540Z</time>
      </trkpt>
      <trkpt lat="46.9128" lon="8.63113">
        <ele>585</ele>
        <time>2021-08-07T12:39:42.541Z</time>
      </trkpt>
      <trkpt lat="46.91277" lon="8.63103">
        <ele>585</ele>
        <time>2021-08-07T12:39:44.540Z</time>
      </trkpt>
      <trkpt lat="46.91276" lon="8.63099">
        <ele>586</ele>
        <time>2021-08-07T12:39:52.668Z</time>
      </trkpt>
      <trkpt lat="46.91275" lon="8.63094">
        <ele>586</ele>
        <time>2021-08-07T12:39:53.668Z</time>
      </trkpt>
      <trkpt lat="46.91271" lon="8.63081">
        <ele>586</ele>
        <time>2021-08-07T12:40:32.270Z</time>
      </trkpt>
      <trkpt lat="46.91268" lon="8.63057">
        <ele>586</ele>
        <time>2021-08-07T12:41:06.188Z</time>
      </trkpt>
      <trkpt lat="46.91272" lon="8.63065">
        <ele>586</ele>
        <time>2021-08-07T12:41:07.188Z</time>
      </trkpt>
      <trkpt lat="46.91275" lon="8.63067">
        <ele>585</ele>
        <time>2021-08-07T12:41:08.188Z</time>
      </trkpt>
      <trkpt lat="46.91275" lon="8.63071">
        <ele>585</ele>
        <time>2021-08-07T12:41:09.188Z</time>
      </trkpt>
      <trkpt lat="46.91276" lon="8.63074">
        <ele>583</ele>
        <time>2021-08-07T12:41:29.334Z</time>
      </trkpt>
      <trkpt lat="46.91275" lon="8.63072">
        <ele>583</ele>
        <time>2021-08-07T12:41:38.161Z</time>
      </trkpt>
      <trkpt lat="46.91276" lon="8.63073">
        <ele>584</ele>
        <time>2021-08-07T12:41:39.162Z</time>
      </trkpt>
      <trkpt lat="46.91276" lon="8.63074">
        <ele>584</ele>
        <time>2021-08-07T12:41:40.161Z</time>
      </trkpt>
      <trkpt lat="46.91279" lon="8.63078">
        <ele>584</ele>
        <time>2021-08-07T12:41:52.306Z</time>
      </trkpt>
      <trkpt lat="46.9129" lon="8.63089">
        <ele>584</ele>
        <time>2021-08-07T12:42:18.304Z</time>
      </trkpt>
      <trkpt lat="46.91297" lon="8.63107">
        <ele>583</ele>
        <time>2021-08-07T12:43:05.065Z</time>
      </trkpt>
      <trkpt lat="46.91295" lon="8.63105">
        <ele>583</ele>
        <time>2021-08-07T12:43:06.064Z</time>
      </trkpt>
      <trkpt lat="46.91295" lon="8.63103">
        <ele>583</ele>
        <time>2021-08-07T12:43:07.064Z</time>
      </trkpt>
      <trkpt lat="46.91295" lon="8.63102">
        <ele>583</ele>
        <time>2021-08-07T12:43:08.064Z</time>
      </trkpt>
      <trkpt lat="46.91295" lon="8.63102">
        <ele>583</ele>
        <time>2021-08-07T12:43:14.144Z</time>
      </trkpt>
      <trkpt lat="46.91293" lon="8.63099">
        <ele>584</ele>
        <time>2021-08-07T12:43:15.143Z</time>
      </trkpt>
      <trkpt lat="46.91293" lon="8.63097">
        <ele>584</ele>
        <time>2021-08-07T12:43:21.893Z</time>
      </trkpt>
      <trkpt lat="46.91293" lon="8.63093">
        <ele>584</ele>
        <time>2021-08-07T12:43:24.765Z</time>
      </trkpt>
      <trkpt lat="46.91294" lon="8.63091">
        <ele>584</ele>
        <time>2021-08-07T12:43:25.765Z</time>
      </trkpt>
      <trkpt lat="46.91288" lon="8.63094">
        <ele>584</ele>
        <time>2021-08-07T12:43:28.765Z</time>
      </trkpt>
      <trkpt lat="46.91285" lon="8.63094">
        <ele>584</ele>
        <time>2021-08-07T12:44:09.930Z</time>
      </trkpt>
      <trkpt lat="46.91286" lon="8.63093">
        <ele>584</ele>
        <time>2021-08-07T12:44:10.931Z</time>
      </trkpt>
      <trkpt lat="46.91289" lon="8.63094">
        <ele>585</ele>
        <time>2021-08-07T12:44:11.930Z</time>
      </trkpt>
      <trkpt lat="46.91289" lon="8.63095">
        <ele>585</ele>
        <time>2021-08-07T12:44:12.931Z</time>
      </trkpt>
      <trkpt lat="46.9129" lon="8.63095">
        <ele>585</ele>
        <time>2021-08-07T12:44:13.931Z</time>
      </trkpt>
      <trkpt lat="46.9129" lon="8.63093">
        <ele>585</ele>
        <time>2021-08-07T12:44:14.930Z</time>
      </trkpt>
      <trkpt lat="46.91291" lon="8.63094">
        <ele>586</ele>
        <time>2021-08-07T12:44:15.930Z</time>
      </trkpt>
      <trkpt lat="46.91293" lon="8.63095">
        <ele>587</ele>
        <time>2021-08-07T12:44:16.931Z</time>
      </trkpt>
      <trkpt lat="46.91294" lon="8.63097">
        <ele>588</ele>
        <time>2021-08-07T12:44:22.053Z</time>
      </trkpt>
      <trkpt lat="46.91293" lon="8.63098">
        <ele>589</ele>
        <time>2021-08-07T12:44:23.053Z</time>
      </trkpt>
      <trkpt lat="46.91293" lon="8.63098">
        <ele>589</ele>
        <time>2021-08-07T12:44:24.053Z</time>
      </trkpt>
      <trkpt lat="46.91293" lon="8.63099">
        <ele>590</ele>
        <time>2021-08-07T12:44:25.053Z</time>
      </trkpt>
      <trkpt lat="46.91294" lon="8.63098">
        <ele>591</ele>
        <time>2021-08-07T12:44:26.054Z</time>
      </trkpt>
      <trkpt lat="46.91294" lon="8.63098">
        <ele>591</ele>
        <time>2021-08-07T12:44:27.053Z</time>
      </trkpt>
      <trkpt lat="46.91293" lon="8.63097">
        <ele>592</ele>
        <time>2021-08-07T12:44:44.165Z</time>
      </trkpt>
      <trkpt lat="46.91294" lon="8.63096">
        <ele>592</ele>
        <time>2021-08-07T12:44:45.165Z</time>
      </trkpt>
      <trkpt lat="46.91296" lon="8.63099">
        <ele>593</ele>
        <time>2021-08-07T12:44:46.165Z</time>
      </trkpt>
      <trkpt lat="46.91295" lon="8.631">
        <ele>593</ele>
        <time>2021-08-07T12:44:47.166Z</time>
      </trkpt>
      <trkpt lat="46.91294" lon="8.63099">
        <ele>594</ele>
        <time>2021-08-07T12:44:57.301Z</time>
      </trkpt>
      <trkpt lat="46.91293" lon="8.63096">
        <ele>594</ele>
        <time>2021-08-07T12:44:58.301Z</time>
      </trkpt>
      <trkpt lat="46.91293" lon="8.63094">
        <ele>595</ele>
        <time>2021-08-07T12:44:59.301Z</time>
      </trkpt>
      <trkpt lat="46.91292" lon="8.63091">
        <ele>595</ele>
        <time>2021-08-07T12:45:18.398Z</time>
      </trkpt>
      <trkpt lat="46.91291" lon="8.63089">
        <ele>595</ele>
        <time>2021-08-07T12:45:38.285Z</time>
      </trkpt>
      <trkpt lat="46.91291" lon="8.63087">
        <ele>596</ele>
        <time>2021-08-07T12:45:39.286Z</time>
      </trkpt>
      <trkpt lat="46.91289" lon="8.63081">
        <ele>596</ele>
        <time>2021-08-07T12:45:41.285Z</time>
      </trkpt>
      <trkpt lat="46.91289" lon="8.6308">
        <ele>596</ele>
        <time>2021-08-07T12:45:42.285Z</time>
      </trkpt>
      <trkpt lat="46.9129" lon="8.6308">
        <ele>597</ele>
        <time>2021-08-07T12:45:49.408Z</time>
      </trkpt>
      <trkpt lat="46.91293" lon="8.63083">
        <ele>597</ele>
        <time>2021-08-07T12:45:50.407Z</time>
      </trkpt>
      <trkpt lat="46.91295" lon="8.63084">
        <ele>597</ele>
        <time>2021-08-07T12:46:00.274Z</time>
      </trkpt>
      <trkpt lat="46.91298" lon="8.63086">
        <ele>597</ele>
        <time>2021-08-07T12:46:01.273Z</time>
      </trkpt>
      <trkpt lat="46.91301" lon="8.63087">
        <ele>597</ele>
        <time>2021-08-07T12:46:02.274Z</time>
      </trkpt>
      <trkpt lat="46.91304" lon="8.63089">
        <ele>597</ele>
        <time>2021-08-07T12:46:03.274Z</time>
      </trkpt>
      <trkpt lat="46.91306" lon="8.63091">
        <ele>598</ele>
        <time>2021-08-07T12:46:10.387Z</time>
      </trkpt>
      <trkpt lat="46.91307" lon="8.63092">
        <ele>598</ele>
        <time>2021-08-07T12:46:26.255Z</time>
      </trkpt>
      <trkpt lat="46.91307" lon="8.63092">
        <ele>598</ele>
        <time>2021-08-07T12:46:27.255Z</time>
      </trkpt>
      <trkpt lat="46.91307" lon="8.6309">
        <ele>598</ele>
        <time>2021-08-07T12:46:33.149Z</time>
      </trkpt>
      <trkpt lat="46.91305" lon="8.63089">
        <ele>598</ele>
        <time>2021-08-07T12:46:34.150Z</time>
      </trkpt>
      <trkpt lat="46.91302" lon="8.63087">
        <ele>598</ele>
        <time>2021-08-07T12:46:35.150Z</time>
      </trkpt>
      <trkpt lat="46.91302" lon="8.63084">
        <ele>598</ele>
        <time>2021-08-07T12:46:36.149Z</time>
      </trkpt>
      <trkpt lat="46.91301" lon="8.63082">
        <ele>598</ele>
        <time>2021-08-07T12:46:43.275Z</time>
      </trkpt>
      <trkpt lat="46.91302" lon="8.6308">
        <ele>598</ele>
        <time>2021-08-07T12:46:44.274Z</time>
      </trkpt>
      <trkpt lat="46.91303" lon="8.63079">
        <ele>598</ele>
        <time>2021-08-07T12:46:51.156Z</time>
      </trkpt>
      <trkpt lat="46.91303" lon="8.63078">
        <ele>598</ele>
        <time>2021-08-07T12:46:52.157Z</time>
      </trkpt>
      <trkpt lat="46.91304" lon="8.63077">
        <ele>598</ele>
        <time>2021-08-07T12:46:53.157Z</time>
      </trkpt>
      <trkpt lat="46.91304" lon="8.63076">
        <ele>598</ele>
        <time>2021-08-07T12:46:54.156Z</time>
      </trkpt>
      <trkpt lat="46.91304" lon="8.63076">
        <ele>598</ele>
        <time>2021-08-07T12:47:07.276Z</time>
      </trkpt>
      <trkpt lat="46.91304" lon="8.63076">
        <ele>598</ele>
        <time>2021-08-07T12:47:08.277Z</time>
      </trkpt>
      <trkpt lat="46.91304" lon="8.63079">
        <ele>598</ele>
        <time>2021-08-07T12:47:09.276Z</time>
      </trkpt>
      <trkpt lat="46.91304" lon="8.63086">
        <ele>598</ele>
        <time>2021-08-07T12:47:10.277Z</time>
      </trkpt>
      <trkpt lat="46.91304" lon="8.6309">
        <ele>598</ele>
        <time>2021-08-07T12:47:11.276Z</time>
      </trkpt>
      <trkpt lat="46.91302" lon="8.63091">
        <ele>598</ele>
        <time>2021-08-07T12:47:12.276Z</time>
      </trkpt>
      <trkpt lat="46.913" lon="8.63091">
        <ele>598</ele>
        <time>2021-08-07T12:47:20.380Z</time>
      </trkpt>
      <trkpt lat="46.913" lon="8.63091">
        <ele>599</ele>
        <time>2021-08-07T12:47:38.246Z</time>
      </trkpt>
      <trkpt lat="46.91299" lon="8.63092">
        <ele>599</ele>
        <time>2021-08-07T12:47:39.246Z</time>
      </trkpt>
      <trkpt lat="46.91296" lon="8.63092">
        <ele>599</ele>
        <time>2021-08-07T12:47:40.245Z</time>
      </trkpt>
      <trkpt lat="46.91296" lon="8.63093">
        <ele>599</ele>
        <time>2021-08-07T12:47:47.379Z</time>
      </trkpt>
      <trkpt lat="46.91295" lon="8.63093">
        <ele>599</ele>
        <time>2021-08-07T12:47:48.379Z</time>
      </trkpt>
      <trkpt lat="46.91296" lon="8.63095">
        <ele>599</ele>
        <time>2021-08-07T12:47:49.378Z</time>
      </trkpt>
      <trkpt lat="46.91298" lon="8.63097">
        <ele>599</ele>
        <time>2021-08-07T12:47:50.378Z</time>
      </trkpt>
      <trkpt lat="46.913" lon="8.63099">
        <ele>599</ele>
        <time>2021-08-07T12:47:51.379Z</time>
      </trkpt>
      <trkpt lat="46.91299" lon="8.63099">
        <ele>599</ele>
        <time>2021-08-07T12:47:52.379Z</time>
      </trkpt>
      <trkpt lat="46.91299" lon="8.63099">
        <ele>599</ele>
        <time>2021-08-07T12:47:53.379Z</time>
      </trkpt>
      <trkpt lat="46.91299" lon="8.63099">
        <ele>599</ele>
        <time>2021-08-07T12:48:33.501Z</time>
      </trkpt>
      <trkpt lat="46.91299" lon="8.63099">
        <ele>599</ele>
        <time>2021-08-07T12:48:34.502Z</time>
      </trkpt>
      <trkpt lat="46.91299" lon="8.63099">
        <ele>599</ele>
        <time>2021-08-07T12:48:35.502Z</time>
      </trkpt>
      <trkpt lat="46.91298" lon="8.63098">
        <ele>599</ele>
        <time>2021-08-07T12:48:36.502Z</time>
      </trkpt>
      <trkpt lat="46.91297" lon="8.63097">
        <ele>598</ele>
        <time>2021-08-07T12:48:37.502Z</time>
      </trkpt>
      <trkpt lat="46.91296" lon="8.63096">
        <ele>598</ele>
        <time>2021-08-07T12:48:38.502Z</time>
      </trkpt>
      <trkpt lat="46.91295" lon="8.63094">
        <ele>598</ele>
        <time>2021-08-07T12:48:39.502Z</time>
      </trkpt>
      <trkpt lat="46.91295" lon="8.63095">
        <ele>598</ele>
        <time>2021-08-07T12:48:40.503Z</time>
      </trkpt>
      <trkpt lat="46.91296" lon="8.631">
        <ele>597</ele>
        <time>2021-08-07T12:48:48.548Z</time>
      </trkpt>
      <trkpt lat="46.91296" lon="8.631">
        <ele>597</ele>
        <time>2021-08-07T12:48:49.547Z</time>
      </trkpt>
      <trkpt lat="46.91295" lon="8.631">
        <ele>597</ele>
        <time>2021-08-07T12:48:50.547Z</time>
      </trkpt>
      <trkpt lat="46.91295" lon="8.631">
        <ele>597</ele>
        <time>2021-08-07T12:49:26.628Z</time>
      </trkpt>
      <trkpt lat="46.91295" lon="8.631">
        <ele>597</ele>
        <time>2021-08-07T12:49:34.402Z</time>
      </trkpt>
      <trkpt lat="46.91295" lon="8.63101">
        <ele>597</ele>
        <time>2021-08-07T12:50:02.291Z</time>
      </trkpt>
      <trkpt lat="46.91296" lon="8.63102">
        <ele>597</ele>
        <time>2021-08-07T12:50:03.291Z</time>
      </trkpt>
      <trkpt lat="46.91297" lon="8.63103">
        <ele>597</ele>
        <time>2021-08-07T12:50:04.290Z</time>
      </trkpt>
      <trkpt lat="46.91298" lon="8.63104">
        <ele>597</ele>
        <time>2021-08-07T12:50:05.290Z</time>
      </trkpt>
      <trkpt lat="46.91299" lon="8.63104">
        <ele>597</ele>
        <time>2021-08-07T12:51:02.392Z</time>
      </trkpt>
      <trkpt lat="46.913" lon="8.63105">
        <ele>597</ele>
        <time>2021-08-07T12:51:18.253Z</time>
      </trkpt>
      <trkpt lat="46.91301" lon="8.63106">
        <ele>597</ele>
        <time>2021-08-07T12:51:19.253Z</time>
      </trkpt>
      <trkpt lat="46.913" lon="8.63105">
        <ele>597</ele>
        <time>2021-08-07T12:51:30.144Z</time>
      </trkpt>
      <trkpt lat="46.913" lon="8.63105">
        <ele>598</ele>
        <time>2021-08-07T12:51:31.143Z</time>
      </trkpt>
      <trkpt lat="46.913" lon="8.63104">
        <ele>598</ele>
        <time>2021-08-07T12:51:32.143Z</time>
      </trkpt>
      <trkpt lat="46.913" lon="8.63103">
        <ele>599</ele>
        <time>2021-08-07T12:51:42.270Z</time>
      </trkpt>
      <trkpt lat="46.913" lon="8.63104">
        <ele>601</ele>
        <time>2021-08-07T12:51:43.271Z</time>
      </trkpt>
      <trkpt lat="46.913" lon="8.63105">
        <ele>602</ele>
        <time>2021-08-07T12:51:44.271Z</time>
      </trkpt>
      <trkpt lat="46.913" lon="8.63105">
        <ele>602</ele>
        <time>2021-08-07T12:51:55.437Z</time>
      </trkpt>
      <trkpt lat="46.913" lon="8.63105">
        <ele>603</ele>
        <time>2021-08-07T12:51:56.438Z</time>
      </trkpt>
      <trkpt lat="46.913" lon="8.63105">
        <ele>603</ele>
        <time>2021-08-07T12:51:57.437Z</time>
      </trkpt>
      <trkpt lat="46.913" lon="8.63105">
        <ele>604</ele>
        <time>2021-08-07T12:51:58.438Z</time>
      </trkpt>
      <trkpt lat="46.91299" lon="8.63104">
        <ele>604</ele>
        <time>2021-08-07T12:51:59.437Z</time>
      </trkpt>
      <trkpt lat="46.91298" lon="8.63104">
        <ele>604</ele>
        <time>2021-08-07T12:52:00.438Z</time>
      </trkpt>
      <trkpt lat="46.91297" lon="8.63104">
        <ele>605</ele>
        <time>2021-08-07T12:52:07.537Z</time>
      </trkpt>
      <trkpt lat="46.91297" lon="8.63104">
        <ele>605</ele>
        <time>2021-08-07T12:52:08.538Z</time>
      </trkpt>
      <trkpt lat="46.91298" lon="8.63104">
        <ele>605</ele>
        <time>2021-08-07T12:52:09.537Z</time>
      </trkpt>
      <trkpt lat="46.91298" lon="8.63105">
        <ele>605</ele>
        <time>2021-08-07T12:52:10.538Z</time>
      </trkpt>
      <trkpt lat="46.91299" lon="8.63105">
        <ele>604</ele>
        <time>2021-08-07T12:52:11.538Z</time>
      </trkpt>
      <trkpt lat="46.91299" lon="8.63105">
        <ele>604</ele>
        <time>2021-08-07T12:52:12.538Z</time>
      </trkpt>
      <trkpt lat="46.91298" lon="8.63105">
        <ele>604</ele>
        <time>2021-08-07T12:52:13.538Z</time>
      </trkpt>
      <trkpt lat="46.91299" lon="8.63104">
        <ele>604</ele>
        <time>2021-08-07T12:52:14.538Z</time>
      </trkpt>
      <trkpt lat="46.91298" lon="8.63103">
        <ele>604</ele>
        <time>2021-08-07T12:52:15.538Z</time>
      </trkpt>
      <trkpt lat="46.91298" lon="8.63103">
        <ele>604</ele>
        <time>2021-08-07T12:52:16.537Z</time>
      </trkpt>
      <trkpt lat="46.91298" lon="8.63102">
        <ele>604</ele>
        <time>2021-08-07T12:52:17.538Z</time>
      </trkpt>
      <trkpt lat="46.91298" lon="8.631">
        <ele>604</ele>
        <time>2021-08-07T12:52:18.538Z</time>
      </trkpt>
      <trkpt lat="46.91298" lon="8.63098">
        <ele>604</ele>
        <time>2021-08-07T12:52:27.501Z</time>
      </trkpt>
      <trkpt lat="46.91303" lon="8.63103">
        <ele>604</ele>
        <time>2021-08-07T12:52:28.500Z</time>
      </trkpt>
      <trkpt lat="46.91304" lon="8.63104">
        <ele>604</ele>
        <time>2021-08-07T12:52:30.395Z</time>
      </trkpt>
      <trkpt lat="46.91304" lon="8.63105">
        <ele>604</ele>
        <time>2021-08-07T12:52:34.273Z</time>
      </trkpt>
      <trkpt lat="46.91305" lon="8.63106">
        <ele>604</ele>
        <time>2021-08-07T12:52:35.274Z</time>
      </trkpt>
      <trkpt lat="46.91305" lon="8.63106">
        <ele>604</ele>
        <time>2021-08-07T12:52:49.003Z</time>
      </trkpt>
      <trkpt lat="46.91305" lon="8.63107">
        <ele>604</ele>
        <time>2021-08-07T12:52:50.004Z</time>
      </trkpt>
      <trkpt lat="46.91305" lon="8.63106">
        <ele>604</ele>
        <time>2021-08-07T12:52:57.753Z</time>
      </trkpt>
      <trkpt lat="46.91305" lon="8.63106">
        <ele>604</ele>
        <time>2021-08-07T12:52:58.752Z</time>
      </trkpt>
      <trkpt lat="46.91304" lon="8.63106">
        <ele>605</ele>
        <time>2021-08-07T12:53:20.669Z</time>
      </trkpt>
      <trkpt lat="46.91304" lon="8.63106">
        <ele>605</ele>
        <time>2021-08-07T12:53:21.670Z</time>
      </trkpt>
      <trkpt lat="46.91307" lon="8.63106">
        <ele>605</ele>
        <time>2021-08-07T12:53:22.671Z</time>
      </trkpt>
      <trkpt lat="46.91308" lon="8.63107">
        <ele>605</ele>
        <time>2021-08-07T12:53:23.671Z</time>
      </trkpt>
      <trkpt lat="46.91309" lon="8.63108">
        <ele>605</ele>
        <time>2021-08-07T12:53:24.670Z</time>
      </trkpt>
      <trkpt lat="46.9131" lon="8.6311">
        <ele>605</ele>
        <time>2021-08-07T12:53:25.671Z</time>
      </trkpt>
      <trkpt lat="46.91311" lon="8.63111">
        <ele>605</ele>
        <time>2021-08-07T12:53:26.670Z</time>
      </trkpt>
      <trkpt lat="46.91312" lon="8.63112">
        <ele>605</ele>
        <time>2021-08-07T12:53:27.671Z</time>
      </trkpt>
      <trkpt lat="46.91311" lon="8.63112">
        <ele>605</ele>
        <time>2021-08-07T12:53:28.671Z</time>
      </trkpt>
      <trkpt lat="46.91311" lon="8.63112">
        <ele>605</ele>
        <time>2021-08-07T12:53:47.747Z</time>
      </trkpt>
      <trkpt lat="46.91312" lon="8.63112">
        <ele>605</ele>
        <time>2021-08-07T12:53:48.747Z</time>
      </trkpt>
      <trkpt lat="46.91312" lon="8.63111">
        <ele>605</ele>
        <time>2021-08-07T12:53:49.748Z</time>
      </trkpt>
      <trkpt lat="46.91312" lon="8.6311">
        <ele>605</ele>
        <time>2021-08-07T12:54:36.516Z</time>
      </trkpt>
      <trkpt lat="46.91311" lon="8.63109">
        <ele>606</ele>
        <time>2021-08-07T12:54:37.516Z</time>
      </trkpt>
      <trkpt lat="46.9131" lon="8.63108">
        <ele>606</ele>
        <time>2021-08-07T12:54:44.443Z</time>
      </trkpt>
      <trkpt lat="46.91309" lon="8.63108">
        <ele>606</ele>
        <time>2021-08-07T12:54:45.443Z</time>
      </trkpt>
      <trkpt lat="46.91309" lon="8.63108">
        <ele>607</ele>
        <time>2021-08-07T12:54:56.338Z</time>
      </trkpt>
      <trkpt lat="46.9131" lon="8.63109">
        <ele>607</ele>
        <time>2021-08-07T12:55:11.122Z</time>
      </trkpt>
      <trkpt lat="46.91311" lon="8.6311">
        <ele>607</ele>
        <time>2021-08-07T12:55:21.911Z</time>
      </trkpt>
      <trkpt lat="46.91311" lon="8.63111">
        <ele>607</ele>
        <time>2021-08-07T12:55:22.910Z</time>
      </trkpt>
      <trkpt lat="46.91312" lon="8.63112">
        <ele>608</ele>
        <time>2021-08-07T12:55:23.910Z</time>
      </trkpt>
      <trkpt lat="46.91312" lon="8.63112">
        <ele>608</ele>
        <time>2021-08-07T12:55:30.622Z</time>
      </trkpt>
      <trkpt lat="46.91311" lon="8.63112">
        <ele>609</ele>
        <time>2021-08-07T12:55:31.622Z</time>
      </trkpt>
      <trkpt lat="46.9131" lon="8.63111">
        <ele>609</ele>
        <time>2021-08-07T12:55:32.622Z</time>
      </trkpt>
      <trkpt lat="46.91309" lon="8.63111">
        <ele>609</ele>
        <time>2021-08-07T12:55:33.621Z</time>
      </trkpt>
      <trkpt lat="46.91308" lon="8.6311">
        <ele>609</ele>
        <time>2021-08-07T12:55:34.622Z</time>
      </trkpt>
      <trkpt lat="46.91308" lon="8.63109">
        <ele>609</ele>
        <time>2021-08-07T12:55:46.751Z</time>
      </trkpt>
      <trkpt lat="46.91307" lon="8.63109">
        <ele>609</ele>
        <time>2021-08-07T12:55:47.750Z</time>
      </trkpt>
      <trkpt lat="46.91307" lon="8.63108">
        <ele>610</ele>
        <time>2021-08-07T12:55:48.750Z</time>
      </trkpt>
      <trkpt lat="46.91306" lon="8.63106">
        <ele>609</ele>
        <time>2021-08-07T12:56:07.887Z</time>
      </trkpt>
      <trkpt lat="46.91306" lon="8.63105">
        <ele>610</ele>
        <time>2021-08-07T12:56:48.783Z</time>
      </trkpt>
      <trkpt lat="46.91305" lon="8.63104">
        <ele>610</ele>
        <time>2021-08-07T12:56:49.784Z</time>
      </trkpt>
      <trkpt lat="46.91304" lon="8.63104">
        <ele>610</ele>
        <time>2021-08-07T12:57:01.643Z</time>
      </trkpt>
      <trkpt lat="46.91304" lon="8.63102">
        <ele>610</ele>
        <time>2021-08-07T12:57:02.643Z</time>
      </trkpt>
      <trkpt lat="46.91303" lon="8.63102">
        <ele>610</ele>
        <time>2021-08-07T12:57:03.643Z</time>
      </trkpt>
      <trkpt lat="46.91303" lon="8.63101">
        <ele>610</ele>
        <time>2021-08-07T12:57:04.642Z</time>
      </trkpt>
      <trkpt lat="46.91303" lon="8.63101">
        <ele>610</ele>
        <time>2021-08-07T12:57:05.643Z</time>
      </trkpt>
      <trkpt lat="46.91302" lon="8.63101">
        <ele>610</ele>
        <time>2021-08-07T12:57:24.747Z</time>
      </trkpt>
      <trkpt lat="46.91297" lon="8.63103">
        <ele>610</ele>
        <time>2021-08-07T12:57:25.747Z</time>
      </trkpt>
      <trkpt lat="46.91294" lon="8.63101">
        <ele>610</ele>
        <time>2021-08-07T12:57:26.747Z</time>
      </trkpt>
      <trkpt lat="46.91292" lon="8.631">
        <ele>610</ele>
        <time>2021-08-07T12:57:27.747Z</time>
      </trkpt>
      <trkpt lat="46.91291" lon="8.63101">
        <ele>610</ele>
        <time>2021-08-07T12:57:28.746Z</time>
      </trkpt>
      <trkpt lat="46.91291" lon="8.631">
        <ele>610</ele>
        <time>2021-08-07T12:57:34.870Z</time>
      </trkpt>
      <trkpt lat="46.91291" lon="8.63101">
        <ele>610</ele>
        <time>2021-08-07T12:57:35.870Z</time>
      </trkpt>
      <trkpt lat="46.91289" lon="8.631">
        <ele>610</ele>
        <time>2021-08-07T12:57:36.869Z</time>
      </trkpt>
      <trkpt lat="46.91288" lon="8.63098">
        <ele>610</ele>
        <time>2021-08-07T12:58:37.873Z</time>
      </trkpt>
      <trkpt lat="46.91289" lon="8.63098">
        <ele>610</ele>
        <time>2021-08-07T12:58:38.873Z</time>
      </trkpt>
      <trkpt lat="46.9129" lon="8.63097">
        <ele>610</ele>
        <time>2021-08-07T12:58:39.872Z</time>
      </trkpt>
      <trkpt lat="46.91289" lon="8.63096">
        <ele>610</ele>
        <time>2021-08-07T12:58:40.872Z</time>
      </trkpt>
      <trkpt lat="46.91288" lon="8.63093">
        <ele>610</ele>
        <time>2021-08-07T12:58:41.873Z</time>
      </trkpt>
      <trkpt lat="46.91289" lon="8.63091">
        <ele>611</ele>
        <time>2021-08-07T12:58:42.872Z</time>
      </trkpt>
      <trkpt lat="46.91289" lon="8.63092">
        <ele>611</ele>
        <time>2021-08-07T12:58:43.873Z</time>
      </trkpt>
      <trkpt lat="46.91291" lon="8.63092">
        <ele>611</ele>
        <time>2021-08-07T12:58:44.872Z</time>
      </trkpt>
      <trkpt lat="46.91293" lon="8.63093">
        <ele>611</ele>
        <time>2021-08-07T12:58:45.873Z</time>
      </trkpt>
      <trkpt lat="46.91294" lon="8.63094">
        <ele>611</ele>
        <time>2021-08-07T12:58:46.873Z</time>
      </trkpt>
      <trkpt lat="46.91299" lon="8.63099">
        <ele>611</ele>
        <time>2021-08-07T12:58:47.873Z</time>
      </trkpt>
      <trkpt lat="46.91302" lon="8.63102">
        <ele>610</ele>
        <time>2021-08-07T12:58:48.873Z</time>
      </trkpt>
      <trkpt lat="46.91304" lon="8.63103">
        <ele>610</ele>
        <time>2021-08-07T12:59:11.019Z</time>
      </trkpt>
      <trkpt lat="46.91305" lon="8.63104">
        <ele>610</ele>
        <time>2021-08-07T12:59:12.019Z</time>
      </trkpt>
      <trkpt lat="46.91305" lon="8.63104">
        <ele>610</ele>
        <time>2021-08-07T12:59:13.019Z</time>
      </trkpt>
      <trkpt lat="46.91304" lon="8.63104">
        <ele>610</ele>
        <time>2021-08-07T12:59:14.018Z</time>
      </trkpt>
      <trkpt lat="46.91304" lon="8.63104">
        <ele>610</ele>
        <time>2021-08-07T12:59:15.018Z</time>
      </trkpt>
      <trkpt lat="46.91303" lon="8.63105">
        <ele>610</ele>
        <time>2021-08-07T12:59:16.019Z</time>
      </trkpt>
      <trkpt lat="46.91302" lon="8.63106">
        <ele>610</ele>
        <time>2021-08-07T12:59:17.019Z</time>
      </trkpt>
      <trkpt lat="46.91301" lon="8.63106">
        <ele>610</ele>
        <time>2021-08-07T12:59:33.122Z</time>
      </trkpt>
      <trkpt lat="46.913" lon="8.63106">
        <ele>610</ele>
        <time>2021-08-07T12:59:45.896Z</time>
      </trkpt>
      <trkpt lat="46.913" lon="8.63107">
        <ele>610</ele>
        <time>2021-08-07T12:59:46.896Z</time>
      </trkpt>
      <trkpt lat="46.91299" lon="8.63108">
        <ele>610</ele>
        <time>2021-08-07T12:59:47.896Z</time>
      </trkpt>
      <trkpt lat="46.91302" lon="8.63111">
        <ele>610</ele>
        <time>2021-08-07T12:59:49.895Z</time>
      </trkpt>
      <trkpt lat="46.91301" lon="8.63112">
        <ele>610</ele>
        <time>2021-08-07T12:59:50.896Z</time>
      </trkpt>
      <trkpt lat="46.91302" lon="8.63115">
        <ele>610</ele>
        <time>2021-08-07T12:59:51.896Z</time>
      </trkpt>
      <trkpt lat="46.91303" lon="8.63116">
        <ele>610</ele>
        <time>2021-08-07T12:59:52.896Z</time>
      </trkpt>
      <trkpt lat="46.91303" lon="8.63117">
        <ele>610</ele>
        <time>2021-08-07T12:59:53.896Z</time>
      </trkpt>
      <trkpt lat="46.91303" lon="8.63118">
        <ele>610</ele>
        <time>2021-08-07T12:59:54.896Z</time>
      </trkpt>
      <trkpt lat="46.91304" lon="8.6312">
        <ele>610</ele>
        <time>2021-08-07T12:59:55.896Z</time>
      </trkpt>
      <trkpt lat="46.91302" lon="8.6312">
        <ele>610</ele>
        <time>2021-08-07T12:59:56.895Z</time>
      </trkpt>
      <trkpt lat="46.91301" lon="8.63119">
        <ele>610</ele>
        <time>2021-08-07T12:59:57.896Z</time>
      </trkpt>
      <trkpt lat="46.91299" lon="8.63119">
        <ele>610</ele>
        <time>2021-08-07T12:59:58.895Z</time>
      </trkpt>
      <trkpt lat="46.913" lon="8.63119">
        <ele>610</ele>
        <time>2021-08-07T13:00:11.009Z</time>
      </trkpt>
      <trkpt lat="46.91301" lon="8.6312">
        <ele>610</ele>
        <time>2021-08-07T13:00:12.009Z</time>
      </trkpt>
      <trkpt lat="46.91301" lon="8.63118">
        <ele>610</ele>
        <time>2021-08-07T13:00:13.010Z</time>
      </trkpt>
      <trkpt lat="46.913" lon="8.63117">
        <ele>610</ele>
        <time>2021-08-07T13:00:14.009Z</time>
      </trkpt>
      <trkpt lat="46.91301" lon="8.63117">
        <ele>610</ele>
        <time>2021-08-07T13:00:15.009Z</time>
      </trkpt>
      <trkpt lat="46.91303" lon="8.6312">
        <ele>610</ele>
        <time>2021-08-07T13:00:16.010Z</time>
      </trkpt>
      <trkpt lat="46.91303" lon="8.6312">
        <ele>610</ele>
        <time>2021-08-07T13:00:17.009Z</time>
      </trkpt>
      <trkpt lat="46.91304" lon="8.63121">
        <ele>610</ele>
        <time>2021-08-07T13:00:18.010Z</time>
      </trkpt>
      <trkpt lat="46.91304" lon="8.63121">
        <ele>610</ele>
        <time>2021-08-07T13:00:19.010Z</time>
      </trkpt>
      <trkpt lat="46.91305" lon="8.63122">
        <ele>610</ele>
        <time>2021-08-07T13:00:20.010Z</time>
      </trkpt>
      <trkpt lat="46.91306" lon="8.63123">
        <ele>610</ele>
        <time>2021-08-07T13:00:21.010Z</time>
      </trkpt>
      <trkpt lat="46.91307" lon="8.63124">
        <ele>610</ele>
        <time>2021-08-07T13:00:22.010Z</time>
      </trkpt>
      <trkpt lat="46.91307" lon="8.63125">
        <ele>610</ele>
        <time>2021-08-07T13:00:23.010Z</time>
      </trkpt>
      <trkpt lat="46.91309" lon="8.63125">
        <ele>610</ele>
        <time>2021-08-07T13:00:24.010Z</time>
      </trkpt>
      <trkpt lat="46.9131" lon="8.63126">
        <ele>610</ele>
        <time>2021-08-07T13:00:25.009Z</time>
      </trkpt>
      <trkpt lat="46.91312" lon="8.63126">
        <ele>610</ele>
        <time>2021-08-07T13:00:26.010Z</time>
      </trkpt>
      <trkpt lat="46.91314" lon="8.63126">
        <ele>610</ele>
        <time>2021-08-07T13:00:27.010Z</time>
      </trkpt>
      <trkpt lat="46.91316" lon="8.63119">
        <ele>610</ele>
        <time>2021-08-07T13:00:28.010Z</time>
      </trkpt>
      <trkpt lat="46.91315" lon="8.63114">
        <ele>610</ele>
        <time>2021-08-07T13:00:29.009Z</time>
      </trkpt>
      <trkpt lat="46.91311" lon="8.63107">
        <ele>611</ele>
        <time>2021-08-07T13:00:30.010Z</time>
      </trkpt>
      <trkpt lat="46.91309" lon="8.63106">
        <ele>611</ele>
        <time>2021-08-07T13:00:31.010Z</time>
      </trkpt>
      <trkpt lat="46.91307" lon="8.63107">
        <ele>611</ele>
        <time>2021-08-07T13:00:32.009Z</time>
      </trkpt>
      <trkpt lat="46.91304" lon="8.63106">
        <ele>611</ele>
        <time>2021-08-07T13:00:33.009Z</time>
      </trkpt>
      <trkpt lat="46.91295" lon="8.63102">
        <ele>611</ele>
        <time>2021-08-07T13:00:34.010Z</time>
      </trkpt>
      <trkpt lat="46.91292" lon="8.63101">
        <ele>610</ele>
        <time>2021-08-07T13:00:44.121Z</time>
      </trkpt>
      <trkpt lat="46.9129" lon="8.63101">
        <ele>610</ele>
        <time>2021-08-07T13:00:45.121Z</time>
      </trkpt>
      <trkpt lat="46.91289" lon="8.631">
        <ele>610</ele>
        <time>2021-08-07T13:00:46.122Z</time>
      </trkpt>
      <trkpt lat="46.91285" lon="8.63102">
        <ele>609</ele>
        <time>2021-08-07T13:00:47.122Z</time>
      </trkpt>
      <trkpt lat="46.91283" lon="8.63107">
        <ele>609</ele>
        <time>2021-08-07T13:00:48.122Z</time>
      </trkpt>
      <trkpt lat="46.91281" lon="8.63107">
        <ele>609</ele>
        <time>2021-08-07T13:00:49.121Z</time>
      </trkpt>
      <trkpt lat="46.91281" lon="8.63106">
        <ele>608</ele>
        <time>2021-08-07T13:00:50.121Z</time>
      </trkpt>
      <trkpt lat="46.9128" lon="8.63104">
        <ele>608</ele>
        <time>2021-08-07T13:00:51.121Z</time>
      </trkpt>
      <trkpt lat="46.9128" lon="8.63103">
        <ele>608</ele>
        <time>2021-08-07T13:00:55.248Z</time>
      </trkpt>
      <trkpt lat="46.91279" lon="8.63101">
        <ele>607</ele>
        <time>2021-08-07T13:00:56.247Z</time>
      </trkpt>
      <trkpt lat="46.91279" lon="8.631">
        <ele>607</ele>
        <time>2021-08-07T13:00:57.248Z</time>
      </trkpt>
      <trkpt lat="46.91278" lon="8.631">
        <ele>606</ele>
        <time>2021-08-07T13:00:58.248Z</time>
      </trkpt>
      <trkpt lat="46.91279" lon="8.63101">
        <ele>606</ele>
        <time>2021-08-07T13:01:00.352Z</time>
      </trkpt>
      <trkpt lat="46.91281" lon="8.63101">
        <ele>605</ele>
        <time>2021-08-07T13:01:01.352Z</time>
      </trkpt>
      <trkpt lat="46.91281" lon="8.631">
        <ele>604</ele>
        <time>2021-08-07T13:01:04.101Z</time>
      </trkpt>
      <trkpt lat="46.9128" lon="8.63099">
        <ele>604</ele>
        <time>2021-08-07T13:01:05.101Z</time>
      </trkpt>
      <trkpt lat="46.91281" lon="8.63099">
        <ele>603</ele>
        <time>2021-08-07T13:01:06.101Z</time>
      </trkpt>
      <trkpt lat="46.9128" lon="8.63097">
        <ele>603</ele>
        <time>2021-08-07T13:01:07.100Z</time>
      </trkpt>
      <trkpt lat="46.9128" lon="8.63097">
        <ele>602</ele>
        <time>2021-08-07T13:01:08.100Z</time>
      </trkpt>
      <trkpt lat="46.91279" lon="8.63097">
        <ele>602</ele>
        <time>2021-08-07T13:01:09.100Z</time>
      </trkpt>
      <trkpt lat="46.91278" lon="8.63096">
        <ele>601</ele>
        <time>2021-08-07T13:01:10.100Z</time>
      </trkpt>
      <trkpt lat="46.91277" lon="8.63094">
        <ele>601</ele>
        <time>2021-08-07T13:01:12.120Z</time>
      </trkpt>
      <trkpt lat="46.91277" lon="8.63095">
        <ele>600</ele>
        <time>2021-08-07T13:01:13.119Z</time>
      </trkpt>
      <trkpt lat="46.91279" lon="8.63094">
        <ele>600</ele>
        <time>2021-08-07T13:02:22.044Z</time>
      </trkpt>
      <trkpt lat="46.91279" lon="8.63093">
        <ele>599</ele>
        <time>2021-08-07T13:02:23.044Z</time>
      </trkpt>
      <trkpt lat="46.91279" lon="8.63092">
        <ele>599</ele>
        <time>2021-08-07T13:02:24.045Z</time>
      </trkpt>
      <trkpt lat="46.91279" lon="8.63092">
        <ele>599</ele>
        <time>2021-08-07T13:02:33.114Z</time>
      </trkpt>
      <trkpt lat="46.91278" lon="8.63092">
        <ele>599</ele>
        <time>2021-08-07T13:02:34.114Z</time>
      </trkpt>
      <trkpt lat="46.91279" lon="8.63092">
        <ele>598</ele>
        <time>2021-08-07T13:02:35.114Z</time>
      </trkpt>
      <trkpt lat="46.91279" lon="8.63093">
        <ele>598</ele>
        <time>2021-08-07T13:02:36.114Z</time>
      </trkpt>
      <trkpt lat="46.91278" lon="8.63092">
        <ele>598</ele>
        <time>2021-08-07T13:02:37.114Z</time>
      </trkpt>
      <trkpt lat="46.91277" lon="8.63091">
        <ele>598</ele>
        <time>2021-08-07T13:02:43.298Z</time>
      </trkpt>
      <trkpt lat="46.91276" lon="8.6309">
        <ele>598</ele>
        <time>2021-08-07T13:02:44.299Z</time>
      </trkpt>
      <trkpt lat="46.91274" lon="8.6309">
        <ele>598</ele>
        <time>2021-08-07T13:02:56.116Z</time>
      </trkpt>
      <trkpt lat="46.91275" lon="8.63091">
        <ele>598</ele>
        <time>2021-08-07T13:03:05.873Z</time>
      </trkpt>
      <trkpt lat="46.91277" lon="8.63093">
        <ele>598</ele>
        <time>2021-08-07T13:03:06.873Z</time>
      </trkpt>
      <trkpt lat="46.91279" lon="8.63096">
        <ele>598</ele>
        <time>2021-08-07T13:03:07.875Z</time>
      </trkpt>
      <trkpt lat="46.91279" lon="8.63095">
        <ele>598</ele>
        <time>2021-08-07T13:03:08.876Z</time>
      </trkpt>
      <trkpt lat="46.91282" lon="8.63098">
        <ele>598</ele>
        <time>2021-08-07T13:03:09.876Z</time>
      </trkpt>
      <trkpt lat="46.91283" lon="8.63098">
        <ele>598</ele>
        <time>2021-08-07T13:03:10.876Z</time>
      </trkpt>
      <trkpt lat="46.91283" lon="8.63096">
        <ele>599</ele>
        <time>2021-08-07T13:03:11.876Z</time>
      </trkpt>
      <trkpt lat="46.91284" lon="8.63097">
        <ele>599</ele>
        <time>2021-08-07T13:03:12.875Z</time>
      </trkpt>
      <trkpt lat="46.91284" lon="8.63096">
        <ele>599</ele>
        <time>2021-08-07T13:03:13.876Z</time>
      </trkpt>
      <trkpt lat="46.91285" lon="8.63096">
        <ele>599</ele>
        <time>2021-08-07T13:03:27.993Z</time>
      </trkpt>
      <trkpt lat="46.91284" lon="8.63097">
        <ele>599</ele>
        <time>2021-08-07T13:03:28.993Z</time>
      </trkpt>
      <trkpt lat="46.91285" lon="8.63097">
        <ele>599</ele>
        <time>2021-08-07T13:03:32.737Z</time>
      </trkpt>
      <trkpt lat="46.91286" lon="8.63097">
        <ele>599</ele>
        <time>2021-08-07T13:03:33.737Z</time>
      </trkpt>
      <trkpt lat="46.91286" lon="8.63097">
        <ele>599</ele>
        <time>2021-08-07T13:03:34.737Z</time>
      </trkpt>
      <trkpt lat="46.91287" lon="8.63097">
        <ele>600</ele>
        <time>2021-08-07T13:03:42.753Z</time>
      </trkpt>
      <trkpt lat="46.91287" lon="8.63097">
        <ele>600</ele>
        <time>2021-08-07T13:03:43.753Z</time>
      </trkpt>
      <trkpt lat="46.91287" lon="8.63098">
        <ele>599</ele>
        <time>2021-08-07T13:03:44.753Z</time>
      </trkpt>
      <trkpt lat="46.91288" lon="8.63098">
        <ele>599</ele>
        <time>2021-08-07T13:04:13.647Z</time>
      </trkpt>
      <trkpt lat="46.91288" lon="8.63098">
        <ele>599</ele>
        <time>2021-08-07T13:04:14.646Z</time>
      </trkpt>
      <trkpt lat="46.91288" lon="8.63098">
        <ele>599</ele>
        <time>2021-08-07T13:04:15.647Z</time>
      </trkpt>
      <trkpt lat="46.91288" lon="8.63098">
        <ele>599</ele>
        <time>2021-08-07T13:04:16.647Z</time>
      </trkpt>
      <trkpt lat="46.91287" lon="8.63096">
        <ele>599</ele>
        <time>2021-08-07T13:04:17.647Z</time>
      </trkpt>
      <trkpt lat="46.91286" lon="8.63093">
        <ele>599</ele>
        <time>2021-08-07T13:04:18.646Z</time>
      </trkpt>
      <trkpt lat="46.91286" lon="8.63094">
        <ele>599</ele>
        <time>2021-08-07T13:04:19.646Z</time>
      </trkpt>
      <trkpt lat="46.91286" lon="8.63095">
        <ele>598</ele>
        <time>2021-08-07T13:04:20.647Z</time>
      </trkpt>
      <trkpt lat="46.91286" lon="8.63095">
        <ele>598</ele>
        <time>2021-08-07T13:04:21.647Z</time>
      </trkpt>
      <trkpt lat="46.91286" lon="8.63093">
        <ele>598</ele>
        <time>2021-08-07T13:04:22.647Z</time>
      </trkpt>
      <trkpt lat="46.91285" lon="8.63091">
        <ele>598</ele>
        <time>2021-08-07T13:04:23.647Z</time>
      </trkpt>
      <trkpt lat="46.91285" lon="8.63089">
        <ele>599</ele>
        <time>2021-08-07T13:04:24.647Z</time>
      </trkpt>
      <trkpt lat="46.91284" lon="8.63089">
        <ele>599</ele>
        <time>2021-08-07T13:04:25.647Z</time>
      </trkpt>
      <trkpt lat="46.91283" lon="8.6309">
        <ele>599</ele>
        <time>2021-08-07T13:04:26.647Z</time>
      </trkpt>
      <trkpt lat="46.91282" lon="8.63093">
        <ele>599</ele>
        <time>2021-08-07T13:04:27.647Z</time>
      </trkpt>
      <trkpt lat="46.91284" lon="8.631">
        <ele>599</ele>
        <time>2021-08-07T13:04:28.647Z</time>
      </trkpt>
      <trkpt lat="46.91285" lon="8.63105">
        <ele>598</ele>
        <time>2021-08-07T13:04:29.646Z</time>
      </trkpt>
      <trkpt lat="46.91287" lon="8.63109">
        <ele>597</ele>
        <time>2021-08-07T13:04:30.647Z</time>
      </trkpt>
      <trkpt lat="46.91287" lon="8.63114">
        <ele>596</ele>
        <time>2021-08-07T13:04:31.646Z</time>
      </trkpt>
      <trkpt lat="46.91286" lon="8.63115">
        <ele>596</ele>
        <time>2021-08-07T13:04:32.647Z</time>
      </trkpt>
      <trkpt lat="46.91286" lon="8.63116">
        <ele>595</ele>
        <time>2021-08-07T13:04:33.647Z</time>
      </trkpt>
      <trkpt lat="46.91285" lon="8.63117">
        <ele>595</ele>
        <time>2021-08-07T13:04:34.647Z</time>
      </trkpt>
      <trkpt lat="46.91286" lon="8.63118">
        <ele>594</ele>
        <time>2021-08-07T13:04:35.646Z</time>
      </trkpt>
      <trkpt lat="46.91286" lon="8.63119">
        <ele>594</ele>
        <time>2021-08-07T13:04:36.646Z</time>
      </trkpt>
      <trkpt lat="46.91286" lon="8.63121">
        <ele>594</ele>
        <time>2021-08-07T13:04:37.647Z</time>
      </trkpt>
      <trkpt lat="46.91285" lon="8.63122">
        <ele>594</ele>
        <time>2021-08-07T13:04:38.647Z</time>
      </trkpt>
      <trkpt lat="46.91285" lon="8.63124">
        <ele>593</ele>
        <time>2021-08-07T13:04:39.646Z</time>
      </trkpt>
      <trkpt lat="46.91284" lon="8.63123">
        <ele>593</ele>
        <time>2021-08-07T13:04:40.647Z</time>
      </trkpt>
      <trkpt lat="46.91283" lon="8.63122">
        <ele>593</ele>
        <time>2021-08-07T13:04:41.647Z</time>
      </trkpt>
      <trkpt lat="46.91283" lon="8.63122">
        <ele>593</ele>
        <time>2021-08-07T13:04:42.647Z</time>
      </trkpt>
      <trkpt lat="46.91281" lon="8.6312">
        <ele>593</ele>
        <time>2021-08-07T13:04:43.647Z</time>
      </trkpt>
      <trkpt lat="46.91281" lon="8.63118">
        <ele>593</ele>
        <time>2021-08-07T13:04:44.646Z</time>
      </trkpt>
      <trkpt lat="46.9128" lon="8.63117">
        <ele>593</ele>
        <time>2021-08-07T13:04:45.646Z</time>
      </trkpt>
      <trkpt lat="46.9128" lon="8.63115">
        <ele>593</ele>
        <time>2021-08-07T13:04:46.646Z</time>
      </trkpt>
      <trkpt lat="46.91281" lon="8.63114">
        <ele>594</ele>
        <time>2021-08-07T13:04:47.647Z</time>
      </trkpt>
      <trkpt lat="46.91282" lon="8.63113">
        <ele>594</ele>
        <time>2021-08-07T13:04:48.646Z</time>
      </trkpt>
      <trkpt lat="46.91281" lon="8.63111">
        <ele>594</ele>
        <time>2021-08-07T13:04:49.646Z</time>
      </trkpt>
      <trkpt lat="46.91281" lon="8.6311">
        <ele>594</ele>
        <time>2021-08-07T13:04:50.647Z</time>
      </trkpt>
      <trkpt lat="46.91281" lon="8.63109">
        <ele>594</ele>
        <time>2021-08-07T13:04:51.647Z</time>
      </trkpt>
      <trkpt lat="46.91281" lon="8.63108">
        <ele>594</ele>
        <time>2021-08-07T13:04:52.647Z</time>
      </trkpt>
      <trkpt lat="46.91281" lon="8.63108">
        <ele>594</ele>
        <time>2021-08-07T13:04:53.646Z</time>
      </trkpt>
      <trkpt lat="46.91282" lon="8.63109">
        <ele>594</ele>
        <time>2021-08-07T13:04:54.646Z</time>
      </trkpt>
      <trkpt lat="46.91283" lon="8.63109">
        <ele>594</ele>
        <time>2021-08-07T13:04:55.647Z</time>
      </trkpt>
      <trkpt lat="46.91284" lon="8.63109">
        <ele>593</ele>
        <time>2021-08-07T13:04:56.647Z</time>
      </trkpt>
      <trkpt lat="46.91284" lon="8.63108">
        <ele>593</ele>
        <time>2021-08-07T13:04:57.647Z</time>
      </trkpt>
      <trkpt lat="46.91285" lon="8.63107">
        <ele>593</ele>
        <time>2021-08-07T13:04:58.647Z</time>
      </trkpt>
      <trkpt lat="46.91287" lon="8.63108">
        <ele>593</ele>
        <time>2021-08-07T13:04:59.646Z</time>
      </trkpt>
      <trkpt lat="46.91289" lon="8.63109">
        <ele>593</ele>
        <time>2021-08-07T13:05:00.646Z</time>
      </trkpt>
      <trkpt lat="46.9129" lon="8.63109">
        <ele>593</ele>
        <time>2021-08-07T13:05:01.647Z</time>
      </trkpt>
      <trkpt lat="46.91289" lon="8.63107">
        <ele>593</ele>
        <time>2021-08-07T13:05:02.647Z</time>
      </trkpt>
      <trkpt lat="46.9129" lon="8.63107">
        <ele>593</ele>
        <time>2021-08-07T13:05:03.647Z</time>
      </trkpt>
      <trkpt lat="46.91291" lon="8.63106">
        <ele>593</ele>
        <time>2021-08-07T13:05:04.646Z</time>
      </trkpt>
      <trkpt lat="46.91291" lon="8.63104">
        <ele>593</ele>
        <time>2021-08-07T13:05:05.647Z</time>
      </trkpt>
      <trkpt lat="46.9129" lon="8.63102">
        <ele>593</ele>
        <time>2021-08-07T13:05:06.647Z</time>
      </trkpt>
      <trkpt lat="46.91291" lon="8.631">
        <ele>593</ele>
        <time>2021-08-07T13:05:07.647Z</time>
      </trkpt>
      <trkpt lat="46.91293" lon="8.63099">
        <ele>593</ele>
        <time>2021-08-07T13:05:08.647Z</time>
      </trkpt>
      <trkpt lat="46.91296" lon="8.63099">
        <ele>593</ele>
        <time>2021-08-07T13:05:09.646Z</time>
      </trkpt>
      <trkpt lat="46.91297" lon="8.63098">
        <ele>593</ele>
        <time>2021-08-07T13:05:10.647Z</time>
      </trkpt>
      <trkpt lat="46.91297" lon="8.63097">
        <ele>593</ele>
        <time>2021-08-07T13:05:11.647Z</time>
      </trkpt>
      <trkpt lat="46.91297" lon="8.63095">
        <ele>593</ele>
        <time>2021-08-07T13:05:12.647Z</time>
      </trkpt>
      <trkpt lat="46.91297" lon="8.63094">
        <ele>594</ele>
        <time>2021-08-07T13:05:13.647Z</time>
      </trkpt>
      <trkpt lat="46.91296" lon="8.63092">
        <ele>594</ele>
        <time>2021-08-07T13:05:14.647Z</time>
      </trkpt>
      <trkpt lat="46.91295" lon="8.63091">
        <ele>594</ele>
        <time>2021-08-07T13:05:15.647Z</time>
      </trkpt>
      <trkpt lat="46.91294" lon="8.6309">
        <ele>594</ele>
        <time>2021-08-07T13:05:16.647Z</time>
      </trkpt>
      <trkpt lat="46.91294" lon="8.63089">
        <ele>594</ele>
        <time>2021-08-07T13:05:17.647Z</time>
      </trkpt>
      <trkpt lat="46.91295" lon="8.63089">
        <ele>595</ele>
        <time>2021-08-07T13:05:18.647Z</time>
      </trkpt>
      <trkpt lat="46.91294" lon="8.63089">
        <ele>595</ele>
        <time>2021-08-07T13:05:19.647Z</time>
      </trkpt>
      <trkpt lat="46.91293" lon="8.63088">
        <ele>595</ele>
        <time>2021-08-07T13:05:20.647Z</time>
      </trkpt>
      <trkpt lat="46.91292" lon="8.63087">
        <ele>595</ele>
        <time>2021-08-07T13:05:21.647Z</time>
      </trkpt>
      <trkpt lat="46.91292" lon="8.63086">
        <ele>595</ele>
        <time>2021-08-07T13:05:22.647Z</time>
      </trkpt>
      <trkpt lat="46.91291" lon="8.63085">
        <ele>595</ele>
        <time>2021-08-07T13:05:23.647Z</time>
      </trkpt>
      <trkpt lat="46.91291" lon="8.63085">
        <ele>595</ele>
        <time>2021-08-07T13:05:24.646Z</time>
      </trkpt>
      <trkpt lat="46.91292" lon="8.63085">
        <ele>595</ele>
        <time>2021-08-07T13:05:25.647Z</time>
      </trkpt>
      <trkpt lat="46.91293" lon="8.63085">
        <ele>595</ele>
        <time>2021-08-07T13:05:26.647Z</time>
      </trkpt>
      <trkpt lat="46.91294" lon="8.63085">
        <ele>595</ele>
        <time>2021-08-07T13:05:27.647Z</time>
      </trkpt>
      <trkpt lat="46.91294" lon="8.63085">
        <ele>595</ele>
        <time>2021-08-07T13:05:28.647Z</time>
      </trkpt>
      <trkpt lat="46.91295" lon="8.63085">
        <ele>595</ele>
        <time>2021-08-07T13:05:29.647Z</time>
      </trkpt>
      <trkpt lat="46.91296" lon="8.63085">
        <ele>595</ele>
        <time>2021-08-07T13:05:30.647Z</time>
      </trkpt>
      <trkpt lat="46.91297" lon="8.63085">
        <ele>595</ele>
        <time>2021-08-07T13:05:31.646Z</time>
      </trkpt>
      <trkpt lat="46.91297" lon="8.63084">
        <ele>596</ele>
        <time>2021-08-07T13:05:32.647Z</time>
      </trkpt>
      <trkpt lat="46.91298" lon="8.63083">
        <ele>596</ele>
        <time>2021-08-07T13:05:33.647Z</time>
      </trkpt>
      <trkpt lat="46.91297" lon="8.63081">
        <ele>597</ele>
        <time>2021-08-07T13:05:34.647Z</time>
      </trkpt>
      <trkpt lat="46.91297" lon="8.6308">
        <ele>598</ele>
        <time>2021-08-07T13:05:35.646Z</time>
      </trkpt>
      <trkpt lat="46.91297" lon="8.63079">
        <ele>599</ele>
        <time>2021-08-07T13:05:36.647Z</time>
      </trkpt>
      <trkpt lat="46.91297" lon="8.63078">
        <ele>599</ele>
        <time>2021-08-07T13:05:37.647Z</time>
      </trkpt>
      <trkpt lat="46.91297" lon="8.63077">
        <ele>600</ele>
        <time>2021-08-07T13:05:38.647Z</time>
      </trkpt>
      <trkpt lat="46.91295" lon="8.63072">
        <ele>601</ele>
        <time>2021-08-07T13:05:39.647Z</time>
      </trkpt>
      <trkpt lat="46.91293" lon="8.6307">
        <ele>602</ele>
        <time>2021-08-07T13:05:40.646Z</time>
      </trkpt>
      <trkpt lat="46.91292" lon="8.63067">
        <ele>603</ele>
        <time>2021-08-07T13:05:41.646Z</time>
      </trkpt>
      <trkpt lat="46.9129" lon="8.63064">
        <ele>603</ele>
        <time>2021-08-07T13:05:42.646Z</time>
      </trkpt>
      <trkpt lat="46.91293" lon="8.63065">
        <ele>604</ele>
        <time>2021-08-07T13:05:43.647Z</time>
      </trkpt>
      <trkpt lat="46.91293" lon="8.63064">
        <ele>604</ele>
        <time>2021-08-07T13:05:44.647Z</time>
      </trkpt>
      <trkpt lat="46.91293" lon="8.63062">
        <ele>605</ele>
        <time>2021-08-07T13:05:45.647Z</time>
      </trkpt>
      <trkpt lat="46.91293" lon="8.63061">
        <ele>605</ele>
        <time>2021-08-07T13:05:46.647Z</time>
      </trkpt>
      <trkpt lat="46.91294" lon="8.63061">
        <ele>606</ele>
        <time>2021-08-07T13:05:47.647Z</time>
      </trkpt>
      <trkpt lat="46.91295" lon="8.63059">
        <ele>606</ele>
        <time>2021-08-07T13:05:48.647Z</time>
      </trkpt>
      <trkpt lat="46.91294" lon="8.63058">
        <ele>606</ele>
        <time>2021-08-07T13:05:49.647Z</time>
      </trkpt>
      <trkpt lat="46.91296" lon="8.63057">
        <ele>607</ele>
        <time>2021-08-07T13:05:50.647Z</time>
      </trkpt>
      <trkpt lat="46.91296" lon="8.63054">
        <ele>607</ele>
        <time>2021-08-07T13:05:51.646Z</time>
      </trkpt>
      <trkpt lat="46.91296" lon="8.63053">
        <ele>608</ele>
        <time>2021-08-07T13:05:52.646Z</time>
      </trkpt>
      <trkpt lat="46.91295" lon="8.63053">
        <ele>608</ele>
        <time>2021-08-07T13:05:53.646Z</time>
      </trkpt>
      <trkpt lat="46.91294" lon="8.63052">
        <ele>609</ele>
        <time>2021-08-07T13:05:54.647Z</time>
      </trkpt>
      <trkpt lat="46.91293" lon="8.63049">
        <ele>609</ele>
        <time>2021-08-07T13:05:55.647Z</time>
      </trkpt>
      <trkpt lat="46.91293" lon="8.63048">
        <ele>610</ele>
        <time>2021-08-07T13:05:56.647Z</time>
      </trkpt>
      <trkpt lat="46.91293" lon="8.63046">
        <ele>610</ele>
        <time>2021-08-07T13:06:27.754Z</time>
      </trkpt>
      <trkpt lat="46.91292" lon="8.63041">
        <ele>611</ele>
        <time>2021-08-07T13:06:28.753Z</time>
      </trkpt>
      <trkpt lat="46.9129" lon="8.63039">
        <ele>611</ele>
        <time>2021-08-07T13:06:29.754Z</time>
      </trkpt>
      <trkpt lat="46.91286" lon="8.63034">
        <ele>611</ele>
        <time>2021-08-07T13:06:30.754Z</time>
      </trkpt>
      <trkpt lat="46.91281" lon="8.63028">
        <ele>612</ele>
        <time>2021-08-07T13:06:31.754Z</time>
      </trkpt>
      <trkpt lat="46.91278" lon="8.63024">
        <ele>612</ele>
        <time>2021-08-07T13:06:32.754Z</time>
      </trkpt>
      <trkpt lat="46.91277" lon="8.63021">
        <ele>612</ele>
        <time>2021-08-07T13:06:33.754Z</time>
      </trkpt>
      <trkpt lat="46.91278" lon="8.63023">
        <ele>612</ele>
        <time>2021-08-07T13:06:34.753Z</time>
      </trkpt>
      <trkpt lat="46.9128" lon="8.63025">
        <ele>612</ele>
        <time>2021-08-07T13:06:35.754Z</time>
      </trkpt>
      <trkpt lat="46.91283" lon="8.63029">
        <ele>612</ele>
        <time>2021-08-07T13:06:36.754Z</time>
      </trkpt>
      <trkpt lat="46.91284" lon="8.63032">
        <ele>612</ele>
        <time>2021-08-07T13:06:37.754Z</time>
      </trkpt>
      <trkpt lat="46.91285" lon="8.63034">
        <ele>612</ele>
        <time>2021-08-07T13:06:38.753Z</time>
      </trkpt>
      <trkpt lat="46.91285" lon="8.63036">
        <ele>613</ele>
        <time>2021-08-07T13:06:39.753Z</time>
      </trkpt>
      <trkpt lat="46.91285" lon="8.63038">
        <ele>613</ele>
        <time>2021-08-07T13:06:40.753Z</time>
      </trkpt>
      <trkpt lat="46.91283" lon="8.63039">
        <ele>613</ele>
        <time>2021-08-07T13:06:41.754Z</time>
      </trkpt>
      <trkpt lat="46.91284" lon="8.63041">
        <ele>613</ele>
        <time>2021-08-07T13:06:42.753Z</time>
      </trkpt>
      <trkpt lat="46.91285" lon="8.63043">
        <ele>613</ele>
        <time>2021-08-07T13:06:43.754Z</time>
      </trkpt>
      <trkpt lat="46.91284" lon="8.63045">
        <ele>613</ele>
        <time>2021-08-07T13:06:44.754Z</time>
      </trkpt>
      <trkpt lat="46.91283" lon="8.63048">
        <ele>613</ele>
        <time>2021-08-07T13:06:48.875Z</time>
      </trkpt>
      <trkpt lat="46.91283" lon="8.6305">
        <ele>613</ele>
        <time>2021-08-07T13:06:49.875Z</time>
      </trkpt>
      <trkpt lat="46.91283" lon="8.63052">
        <ele>613</ele>
        <time>2021-08-07T13:06:50.876Z</time>
      </trkpt>
      <trkpt lat="46.91282" lon="8.63054">
        <ele>613</ele>
        <time>2021-08-07T13:06:51.875Z</time>
      </trkpt>
      <trkpt lat="46.91282" lon="8.63055">
        <ele>613</ele>
        <time>2021-08-07T13:06:52.876Z</time>
      </trkpt>
      <trkpt lat="46.9128" lon="8.63057">
        <ele>613</ele>
        <time>2021-08-07T13:06:53.875Z</time>
      </trkpt>
      <trkpt lat="46.9128" lon="8.63058">
        <ele>613</ele>
        <time>2021-08-07T13:06:54.875Z</time>
      </trkpt>
      <trkpt lat="46.91282" lon="8.63059">
        <ele>613</ele>
        <time>2021-08-07T13:06:55.876Z</time>
      </trkpt>
      <trkpt lat="46.91283" lon="8.63061">
        <ele>613</ele>
        <time>2021-08-07T13:06:56.876Z</time>
      </trkpt>
      <trkpt lat="46.91282" lon="8.63061">
        <ele>613</ele>
        <time>2021-08-07T13:06:57.875Z</time>
      </trkpt>
      <trkpt lat="46.91283" lon="8.63061">
        <ele>613</ele>
        <time>2021-08-07T13:06:58.876Z</time>
      </trkpt>
      <trkpt lat="46.91283" lon="8.63059">
        <ele>613</ele>
        <time>2021-08-07T13:06:59.875Z</time>
      </trkpt>
      <trkpt lat="46.91283" lon="8.63058">
        <ele>612</ele>
        <time>2021-08-07T13:07:00.876Z</time>
      </trkpt>
      <trkpt lat="46.91285" lon="8.63057">
        <ele>612</ele>
        <time>2021-08-07T13:07:01.876Z</time>
      </trkpt>
      <trkpt lat="46.91286" lon="8.63056">
        <ele>612</ele>
        <time>2021-08-07T13:07:02.876Z</time>
      </trkpt>
      <trkpt lat="46.91287" lon="8.63055">
        <ele>612</ele>
        <time>2021-08-07T13:07:03.876Z</time>
      </trkpt>
      <trkpt lat="46.91288" lon="8.63053">
        <ele>612</ele>
        <time>2021-08-07T13:07:04.876Z</time>
      </trkpt>
      <trkpt lat="46.91288" lon="8.63052">
        <ele>612</ele>
        <time>2021-08-07T13:07:05.875Z</time>
      </trkpt>
      <trkpt lat="46.91288" lon="8.6305">
        <ele>612</ele>
        <time>2021-08-07T13:07:06.876Z</time>
      </trkpt>
      <trkpt lat="46.91288" lon="8.63047">
        <ele>612</ele>
        <time>2021-08-07T13:07:07.876Z</time>
      </trkpt>
      <trkpt lat="46.91289" lon="8.63044">
        <ele>612</ele>
        <time>2021-08-07T13:07:08.876Z</time>
      </trkpt>
      <trkpt lat="46.91288" lon="8.63041">
        <ele>613</ele>
        <time>2021-08-07T13:07:09.875Z</time>
      </trkpt>
      <trkpt lat="46.91286" lon="8.63038">
        <ele>613</ele>
        <time>2021-08-07T13:07:10.875Z</time>
      </trkpt>
      <trkpt lat="46.91284" lon="8.63036">
        <ele>613</ele>
        <time>2021-08-07T13:07:11.876Z</time>
      </trkpt>
      <trkpt lat="46.91282" lon="8.63034">
        <ele>614</ele>
        <time>2021-08-07T13:07:12.876Z</time>
      </trkpt>
      <trkpt lat="46.9128" lon="8.63032">
        <ele>614</ele>
        <time>2021-08-07T13:07:13.876Z</time>
      </trkpt>
      <trkpt lat="46.9128" lon="8.63032">
        <ele>614</ele>
        <time>2021-08-07T13:07:14.875Z</time>
      </trkpt>
      <trkpt lat="46.9128" lon="8.63032">
        <ele>614</ele>
        <time>2021-08-07T13:07:15.876Z</time>
      </trkpt>
      <trkpt lat="46.91279" lon="8.63032">
        <ele>614</ele>
        <time>2021-08-07T13:07:16.876Z</time>
      </trkpt>
      <trkpt lat="46.91279" lon="8.63031">
        <ele>613</ele>
        <time>2021-08-07T13:07:17.876Z</time>
      </trkpt>
      <trkpt lat="46.91278" lon="8.6303">
        <ele>613</ele>
        <time>2021-08-07T13:07:18.876Z</time>
      </trkpt>
      <trkpt lat="46.91277" lon="8.6303">
        <ele>613</ele>
        <time>2021-08-07T13:07:19.876Z</time>
      </trkpt>
      <trkpt lat="46.91276" lon="8.63029">
        <ele>612</ele>
        <time>2021-08-07T13:07:20.876Z</time>
      </trkpt>
      <trkpt lat="46.91275" lon="8.63029">
        <ele>611</ele>
        <time>2021-08-07T13:07:21.875Z</time>
      </trkpt>
      <trkpt lat="46.91274" lon="8.63029">
        <ele>611</ele>
        <time>2021-08-07T13:07:22.876Z</time>
      </trkpt>
      <trkpt lat="46.91272" lon="8.63029">
        <ele>610</ele>
        <time>2021-08-07T13:07:23.876Z</time>
      </trkpt>
      <trkpt lat="46.91272" lon="8.6303">
        <ele>610</ele>
        <time>2021-08-07T13:07:24.876Z</time>
      </trkpt>
      <trkpt lat="46.91272" lon="8.6303">
        <ele>608</ele>
        <time>2021-08-07T13:07:25.875Z</time>
      </trkpt>
      <trkpt lat="46.91272" lon="8.6303">
        <ele>607</ele>
        <time>2021-08-07T13:07:26.875Z</time>
      </trkpt>
      <trkpt lat="46.91271" lon="8.63028">
        <ele>606</ele>
        <time>2021-08-07T13:07:39.003Z</time>
      </trkpt>
      <trkpt lat="46.9127" lon="8.63026">
        <ele>605</ele>
        <time>2021-08-07T13:07:40.003Z</time>
      </trkpt>
      <trkpt lat="46.91268" lon="8.63024">
        <ele>604</ele>
        <time>2021-08-07T13:07:41.003Z</time>
      </trkpt>
      <trkpt lat="46.91266" lon="8.63022">
        <ele>603</ele>
        <time>2021-08-07T13:07:42.003Z</time>
      </trkpt>
      <trkpt lat="46.91263" lon="8.6302">
        <ele>602</ele>
        <time>2021-08-07T13:07:43.002Z</time>
      </trkpt>
      <trkpt lat="46.9126" lon="8.63017">
        <ele>602</ele>
        <time>2021-08-07T13:07:44.003Z</time>
      </trkpt>
      <trkpt lat="46.91258" lon="8.63016">
        <ele>601</ele>
        <time>2021-08-07T13:07:45.003Z</time>
      </trkpt>
      <trkpt lat="46.91256" lon="8.63015">
        <ele>600</ele>
        <time>2021-08-07T13:07:46.002Z</time>
      </trkpt>
      <trkpt lat="46.91254" lon="8.63014">
        <ele>599</ele>
        <time>2021-08-07T13:07:47.002Z</time>
      </trkpt>
      <trkpt lat="46.91252" lon="8.63013">
        <ele>598</ele>
        <time>2021-08-07T13:07:48.002Z</time>
      </trkpt>
      <trkpt lat="46.9125" lon="8.63012">
        <ele>597</ele>
        <time>2021-08-07T13:07:49.003Z</time>
      </trkpt>
      <trkpt lat="46.91248" lon="8.63011">
        <ele>596</ele>
        <time>2021-08-07T13:07:50.002Z</time>
      </trkpt>
      <trkpt lat="46.91246" lon="8.63009">
        <ele>595</ele>
        <time>2021-08-07T13:07:51.003Z</time>
      </trkpt>
      <trkpt lat="46.91244" lon="8.63008">
        <ele>594</ele>
        <time>2021-08-07T13:07:52.003Z</time>
      </trkpt>
      <trkpt lat="46.91242" lon="8.63006">
        <ele>593</ele>
        <time>2021-08-07T13:07:53.003Z</time>
      </trkpt>
      <trkpt lat="46.91239" lon="8.63004">
        <ele>592</ele>
        <time>2021-08-07T13:07:54.002Z</time>
      </trkpt>
      <trkpt lat="46.91237" lon="8.63002">
        <ele>591</ele>
        <time>2021-08-07T13:07:55.003Z</time>
      </trkpt>
      <trkpt lat="46.91234" lon="8.63">
        <ele>590</ele>
        <time>2021-08-07T13:07:56.003Z</time>
      </trkpt>
      <trkpt lat="46.91231" lon="8.62999">
        <ele>589</ele>
        <time>2021-08-07T13:07:57.002Z</time>
      </trkpt>
      <trkpt lat="46.9123" lon="8.62999">
        <ele>588</ele>
        <time>2021-08-07T13:07:58.003Z</time>
      </trkpt>
      <trkpt lat="46.91228" lon="8.63001">
        <ele>587</ele>
        <time>2021-08-07T13:07:59.003Z</time>
      </trkpt>
      <trkpt lat="46.91228" lon="8.63002">
        <ele>586</ele>
        <time>2021-08-07T13:08:00.003Z</time>
      </trkpt>
      <trkpt lat="46.91227" lon="8.63">
        <ele>585</ele>
        <time>2021-08-07T13:08:01.002Z</time>
      </trkpt>
      <trkpt lat="46.91226" lon="8.62999">
        <ele>584</ele>
        <time>2021-08-07T13:08:02.003Z</time>
      </trkpt>
      <trkpt lat="46.91226" lon="8.62997">
        <ele>584</ele>
        <time>2021-08-07T13:08:03.002Z</time>
      </trkpt>
      <trkpt lat="46.91225" lon="8.62996">
        <ele>583</ele>
        <time>2021-08-07T13:08:04.002Z</time>
      </trkpt>
      <trkpt lat="46.91225" lon="8.62996">
        <ele>582</ele>
        <time>2021-08-07T13:08:05.003Z</time>
      </trkpt>
      <trkpt lat="46.91224" lon="8.62995">
        <ele>582</ele>
        <time>2021-08-07T13:08:06.003Z</time>
      </trkpt>
      <trkpt lat="46.91223" lon="8.62995">
        <ele>581</ele>
        <time>2021-08-07T13:08:07.002Z</time>
      </trkpt>
      <trkpt lat="46.91223" lon="8.62995">
        <ele>581</ele>
        <time>2021-08-07T13:08:08.002Z</time>
      </trkpt>
      <trkpt lat="46.91223" lon="8.62994">
        <ele>579</ele>
        <time>2021-08-07T13:08:09.003Z</time>
      </trkpt>
      <trkpt lat="46.91222" lon="8.62994">
        <ele>579</ele>
        <time>2021-08-07T13:08:10.003Z</time>
      </trkpt>
      <trkpt lat="46.91221" lon="8.62993">
        <ele>578</ele>
        <time>2021-08-07T13:08:11.002Z</time>
      </trkpt>
      <trkpt lat="46.9122" lon="8.62992">
        <ele>578</ele>
        <time>2021-08-07T13:08:12.003Z</time>
      </trkpt>
      <trkpt lat="46.9122" lon="8.6299">
        <ele>577</ele>
        <time>2021-08-07T13:08:13.002Z</time>
      </trkpt>
      <trkpt lat="46.91219" lon="8.62988">
        <ele>576</ele>
        <time>2021-08-07T13:08:14.003Z</time>
      </trkpt>
      <trkpt lat="46.91218" lon="8.62986">
        <ele>576</ele>
        <time>2021-08-07T13:08:15.003Z</time>
      </trkpt>
      <trkpt lat="46.91218" lon="8.62986">
        <ele>576</ele>
        <time>2021-08-07T13:08:16.003Z</time>
      </trkpt>
      <trkpt lat="46.91217" lon="8.62985">
        <ele>575</ele>
        <time>2021-08-07T13:08:17.002Z</time>
      </trkpt>
      <trkpt lat="46.91217" lon="8.62984">
        <ele>575</ele>
        <time>2021-08-07T13:08:18.003Z</time>
      </trkpt>
      <trkpt lat="46.91216" lon="8.62983">
        <ele>574</ele>
        <time>2021-08-07T13:08:19.003Z</time>
      </trkpt>
      <trkpt lat="46.91216" lon="8.62982">
        <ele>574</ele>
        <time>2021-08-07T13:08:20.003Z</time>
      </trkpt>
      <trkpt lat="46.91215" lon="8.62981">
        <ele>573</ele>
        <time>2021-08-07T13:08:21.003Z</time>
      </trkpt>
      <trkpt lat="46.91214" lon="8.62978">
        <ele>569</ele>
        <time>2021-08-07T13:08:22.003Z</time>
      </trkpt>
      <trkpt lat="46.91214" lon="8.62975">
        <ele>568</ele>
        <time>2021-08-07T13:08:23.002Z</time>
      </trkpt>
      <trkpt lat="46.91213" lon="8.62973">
        <ele>567</ele>
        <time>2021-08-07T13:08:24.003Z</time>
      </trkpt>
      <trkpt lat="46.91213" lon="8.6297">
        <ele>567</ele>
        <time>2021-08-07T13:08:25.003Z</time>
      </trkpt>
      <trkpt lat="46.91213" lon="8.62968">
        <ele>566</ele>
        <time>2021-08-07T13:08:26.003Z</time>
      </trkpt>
      <trkpt lat="46.91212" lon="8.62965">
        <ele>565</ele>
        <time>2021-08-07T13:08:27.002Z</time>
      </trkpt>
      <trkpt lat="46.91212" lon="8.62962">
        <ele>564</ele>
        <time>2021-08-07T13:08:28.003Z</time>
      </trkpt>
      <trkpt lat="46.91212" lon="8.62959">
        <ele>564</ele>
        <time>2021-08-07T13:08:29.002Z</time>
      </trkpt>
      <trkpt lat="46.91212" lon="8.62957">
        <ele>563</ele>
        <time>2021-08-07T13:08:30.002Z</time>
      </trkpt>
      <trkpt lat="46.91211" lon="8.62955">
        <ele>563</ele>
        <time>2021-08-07T13:08:31.002Z</time>
      </trkpt>
      <trkpt lat="46.91211" lon="8.62954">
        <ele>562</ele>
        <time>2021-08-07T13:08:32.002Z</time>
      </trkpt>
      <trkpt lat="46.9121" lon="8.62953">
        <ele>562</ele>
        <time>2021-08-07T13:08:33.003Z</time>
      </trkpt>
      <trkpt lat="46.91209" lon="8.62951">
        <ele>561</ele>
        <time>2021-08-07T13:08:34.003Z</time>
      </trkpt>
      <trkpt lat="46.91209" lon="8.62949">
        <ele>560</ele>
        <time>2021-08-07T13:08:35.003Z</time>
      </trkpt>
      <trkpt lat="46.91209" lon="8.62947">
        <ele>559</ele>
        <time>2021-08-07T13:08:36.003Z</time>
      </trkpt>
      <trkpt lat="46.91208" lon="8.62945">
        <ele>558</ele>
        <time>2021-08-07T13:08:37.003Z</time>
      </trkpt>
      <trkpt lat="46.91208" lon="8.62943">
        <ele>558</ele>
        <time>2021-08-07T13:08:42.144Z</time>
      </trkpt>
      <trkpt lat="46.91207" lon="8.6294">
        <ele>557</ele>
        <time>2021-08-07T13:08:43.145Z</time>
      </trkpt>
      <trkpt lat="46.91207" lon="8.62938">
        <ele>557</ele>
        <time>2021-08-07T13:08:44.145Z</time>
      </trkpt>
      <trkpt lat="46.91207" lon="8.62937">
        <ele>557</ele>
        <time>2021-08-07T13:08:45.145Z</time>
      </trkpt>
      <trkpt lat="46.91207" lon="8.62936">
        <ele>556</ele>
        <time>2021-08-07T13:08:46.145Z</time>
      </trkpt>
      <trkpt lat="46.91207" lon="8.62934">
        <ele>556</ele>
        <time>2021-08-07T13:08:47.144Z</time>
      </trkpt>
      <trkpt lat="46.91207" lon="8.62933">
        <ele>556</ele>
        <time>2021-08-07T13:08:48.144Z</time>
      </trkpt>
      <trkpt lat="46.91207" lon="8.62934">
        <ele>556</ele>
        <time>2021-08-07T13:08:49.145Z</time>
      </trkpt>
      <trkpt lat="46.91207" lon="8.62934">
        <ele>556</ele>
        <time>2021-08-07T13:08:50.145Z</time>
      </trkpt>
      <trkpt lat="46.91206" lon="8.62935">
        <ele>555</ele>
        <time>2021-08-07T13:08:51.145Z</time>
      </trkpt>
      <trkpt lat="46.91206" lon="8.62935">
        <ele>555</ele>
        <time>2021-08-07T13:08:52.144Z</time>
      </trkpt>
      <trkpt lat="46.91205" lon="8.62934">
        <ele>554</ele>
        <time>2021-08-07T13:08:53.144Z</time>
      </trkpt>
      <trkpt lat="46.91205" lon="8.62933">
        <ele>554</ele>
        <time>2021-08-07T13:08:54.144Z</time>
      </trkpt>
      <trkpt lat="46.91205" lon="8.62931">
        <ele>553</ele>
        <time>2021-08-07T13:08:55.144Z</time>
      </trkpt>
      <trkpt lat="46.91204" lon="8.6293">
        <ele>553</ele>
        <time>2021-08-07T13:08:56.144Z</time>
      </trkpt>
      <trkpt lat="46.91204" lon="8.62928">
        <ele>553</ele>
        <time>2021-08-07T13:08:57.144Z</time>
      </trkpt>
      <trkpt lat="46.91204" lon="8.62926">
        <ele>553</ele>
        <time>2021-08-07T13:08:58.144Z</time>
      </trkpt>
      <trkpt lat="46.91204" lon="8.62923">
        <ele>553</ele>
        <time>2021-08-07T13:08:59.144Z</time>
      </trkpt>
      <trkpt lat="46.91203" lon="8.62922">
        <ele>554</ele>
        <time>2021-08-07T13:09:00.145Z</time>
      </trkpt>
      <trkpt lat="46.91203" lon="8.6292">
        <ele>554</ele>
        <time>2021-08-07T13:09:01.145Z</time>
      </trkpt>
      <trkpt lat="46.91203" lon="8.62918">
        <ele>554</ele>
        <time>2021-08-07T13:09:02.144Z</time>
      </trkpt>
      <trkpt lat="46.91203" lon="8.62916">
        <ele>554</ele>
        <time>2021-08-07T13:09:03.144Z</time>
      </trkpt>
      <trkpt lat="46.91203" lon="8.62913">
        <ele>555</ele>
        <time>2021-08-07T13:09:04.144Z</time>
      </trkpt>
      <trkpt lat="46.91203" lon="8.62911">
        <ele>555</ele>
        <time>2021-08-07T13:09:05.144Z</time>
      </trkpt>
      <trkpt lat="46.91203" lon="8.62908">
        <ele>556</ele>
        <time>2021-08-07T13:09:06.144Z</time>
      </trkpt>
      <trkpt lat="46.91203" lon="8.62906">
        <ele>557</ele>
        <time>2021-08-07T13:09:07.144Z</time>
      </trkpt>
      <trkpt lat="46.91203" lon="8.62904">
        <ele>557</ele>
        <time>2021-08-07T13:09:08.144Z</time>
      </trkpt>
      <trkpt lat="46.91203" lon="8.62901">
        <ele>558</ele>
        <time>2021-08-07T13:09:09.144Z</time>
      </trkpt>
      <trkpt lat="46.91202" lon="8.62898">
        <ele>559</ele>
        <time>2021-08-07T13:09:10.144Z</time>
      </trkpt>
      <trkpt lat="46.91202" lon="8.62897">
        <ele>559</ele>
        <time>2021-08-07T13:09:11.144Z</time>
      </trkpt>
      <trkpt lat="46.91204" lon="8.62899">
        <ele>559</ele>
        <time>2021-08-07T13:09:12.144Z</time>
      </trkpt>
      <trkpt lat="46.91204" lon="8.62897">
        <ele>559</ele>
        <time>2021-08-07T13:09:13.144Z</time>
      </trkpt>
      <trkpt lat="46.91202" lon="8.62895">
        <ele>559</ele>
        <time>2021-08-07T13:09:14.144Z</time>
      </trkpt>
      <trkpt lat="46.91201" lon="8.62892">
        <ele>559</ele>
        <time>2021-08-07T13:09:15.144Z</time>
      </trkpt>
      <trkpt lat="46.91201" lon="8.6289">
        <ele>558</ele>
        <time>2021-08-07T13:09:16.145Z</time>
      </trkpt>
      <trkpt lat="46.912" lon="8.62889">
        <ele>558</ele>
        <time>2021-08-07T13:09:17.144Z</time>
      </trkpt>
      <trkpt lat="46.912" lon="8.62887">
        <ele>557</ele>
        <time>2021-08-07T13:09:18.145Z</time>
      </trkpt>
      <trkpt lat="46.91201" lon="8.62885">
        <ele>557</ele>
        <time>2021-08-07T13:09:19.144Z</time>
      </trkpt>
      <trkpt lat="46.91201" lon="8.62883">
        <ele>557</ele>
        <time>2021-08-07T13:09:20.145Z</time>
      </trkpt>
      <trkpt lat="46.91201" lon="8.62881">
        <ele>557</ele>
        <time>2021-08-07T13:09:21.144Z</time>
      </trkpt>
      <trkpt lat="46.91201" lon="8.62878">
        <ele>557</ele>
        <time>2021-08-07T13:09:22.144Z</time>
      </trkpt>
      <trkpt lat="46.91201" lon="8.62876">
        <ele>556</ele>
        <time>2021-08-07T13:09:23.144Z</time>
      </trkpt>
      <trkpt lat="46.91201" lon="8.62874">
        <ele>556</ele>
        <time>2021-08-07T13:09:24.144Z</time>
      </trkpt>
      <trkpt lat="46.91201" lon="8.62871">
        <ele>555</ele>
        <time>2021-08-07T13:09:25.145Z</time>
      </trkpt>
      <trkpt lat="46.91201" lon="8.62869">
        <ele>555</ele>
        <time>2021-08-07T13:09:26.145Z</time>
      </trkpt>
      <trkpt lat="46.91202" lon="8.62866">
        <ele>555</ele>
        <time>2021-08-07T13:09:27.145Z</time>
      </trkpt>
      <trkpt lat="46.91202" lon="8.62864">
        <ele>555</ele>
        <time>2021-08-07T13:09:28.145Z</time>
      </trkpt>
      <trkpt lat="46.91202" lon="8.62863">
        <ele>555</ele>
        <time>2021-08-07T13:09:29.144Z</time>
      </trkpt>
      <trkpt lat="46.91201" lon="8.62861">
        <ele>555</ele>
        <time>2021-08-07T13:09:30.145Z</time>
      </trkpt>
      <trkpt lat="46.91201" lon="8.6286">
        <ele>555</ele>
        <time>2021-08-07T13:09:31.145Z</time>
      </trkpt>
      <trkpt lat="46.91201" lon="8.62858">
        <ele>554</ele>
        <time>2021-08-07T13:09:48.271Z</time>
      </trkpt>
      <trkpt lat="46.912" lon="8.62856">
        <ele>554</ele>
        <time>2021-08-07T13:09:49.270Z</time>
      </trkpt>
      <trkpt lat="46.912" lon="8.62855">
        <ele>554</ele>
        <time>2021-08-07T13:09:50.270Z</time>
      </trkpt>
      <trkpt lat="46.912" lon="8.62853">
        <ele>553</ele>
        <time>2021-08-07T13:09:51.271Z</time>
      </trkpt>
      <trkpt lat="46.91201" lon="8.62851">
        <ele>553</ele>
        <time>2021-08-07T13:09:52.271Z</time>
      </trkpt>
      <trkpt lat="46.912" lon="8.62848">
        <ele>553</ele>
        <time>2021-08-07T13:09:53.270Z</time>
      </trkpt>
      <trkpt lat="46.912" lon="8.62846">
        <ele>552</ele>
        <time>2021-08-07T13:09:54.271Z</time>
      </trkpt>
      <trkpt lat="46.91199" lon="8.62843">
        <ele>552</ele>
        <time>2021-08-07T13:09:55.271Z</time>
      </trkpt>
      <trkpt lat="46.91199" lon="8.62841">
        <ele>552</ele>
        <time>2021-08-07T13:09:56.271Z</time>
      </trkpt>
      <trkpt lat="46.91199" lon="8.62838">
        <ele>552</ele>
        <time>2021-08-07T13:09:57.271Z</time>
      </trkpt>
      <trkpt lat="46.91199" lon="8.62836">
        <ele>552</ele>
        <time>2021-08-07T13:09:58.271Z</time>
      </trkpt>
      <trkpt lat="46.912" lon="8.62834">
        <ele>552</ele>
        <time>2021-08-07T13:09:59.270Z</time>
      </trkpt>
      <trkpt lat="46.912" lon="8.62832">
        <ele>551</ele>
        <time>2021-08-07T13:10:00.271Z</time>
      </trkpt>
      <trkpt lat="46.91201" lon="8.6283">
        <ele>551</ele>
        <time>2021-08-07T13:10:01.270Z</time>
      </trkpt>
      <trkpt lat="46.91201" lon="8.62828">
        <ele>550</ele>
        <time>2021-08-07T13:10:02.271Z</time>
      </trkpt>
      <trkpt lat="46.91202" lon="8.62826">
        <ele>550</ele>
        <time>2021-08-07T13:10:03.271Z</time>
      </trkpt>
      <trkpt lat="46.91202" lon="8.62824">
        <ele>550</ele>
        <time>2021-08-07T13:10:04.270Z</time>
      </trkpt>
      <trkpt lat="46.91203" lon="8.62821">
        <ele>550</ele>
        <time>2021-08-07T13:10:05.271Z</time>
      </trkpt>
      <trkpt lat="46.91203" lon="8.62819">
        <ele>550</ele>
        <time>2021-08-07T13:10:06.271Z</time>
      </trkpt>
      <trkpt lat="46.91204" lon="8.62816">
        <ele>550</ele>
        <time>2021-08-07T13:10:07.270Z</time>
      </trkpt>
      <trkpt lat="46.91205" lon="8.62815">
        <ele>550</ele>
        <time>2021-08-07T13:10:08.271Z</time>
      </trkpt>
      <trkpt lat="46.91206" lon="8.62812">
        <ele>550</ele>
        <time>2021-08-07T13:10:09.271Z</time>
      </trkpt>
      <trkpt lat="46.91206" lon="8.6281">
        <ele>550</ele>
        <time>2021-08-07T13:10:10.270Z</time>
      </trkpt>
      <trkpt lat="46.91207" lon="8.62808">
        <ele>550</ele>
        <time>2021-08-07T13:10:11.271Z</time>
      </trkpt>
      <trkpt lat="46.91208" lon="8.62806">
        <ele>550</ele>
        <time>2021-08-07T13:10:12.271Z</time>
      </trkpt>
      <trkpt lat="46.9121" lon="8.62805">
        <ele>550</ele>
        <time>2021-08-07T13:10:13.271Z</time>
      </trkpt>
      <trkpt lat="46.9121" lon="8.62804">
        <ele>550</ele>
        <time>2021-08-07T13:10:14.271Z</time>
      </trkpt>
      <trkpt lat="46.91211" lon="8.62802">
        <ele>550</ele>
        <time>2021-08-07T13:10:15.271Z</time>
      </trkpt>
      <trkpt lat="46.91211" lon="8.628">
        <ele>550</ele>
        <time>2021-08-07T13:10:16.271Z</time>
      </trkpt>
      <trkpt lat="46.91212" lon="8.62798">
        <ele>550</ele>
        <time>2021-08-07T13:10:17.271Z</time>
      </trkpt>
      <trkpt lat="46.91212" lon="8.62796">
        <ele>550</ele>
        <time>2021-08-07T13:10:18.271Z</time>
      </trkpt>
      <trkpt lat="46.91213" lon="8.62794">
        <ele>550</ele>
        <time>2021-08-07T13:10:19.271Z</time>
      </trkpt>
      <trkpt lat="46.91214" lon="8.62793">
        <ele>550</ele>
        <time>2021-08-07T13:10:20.271Z</time>
      </trkpt>
      <trkpt lat="46.91215" lon="8.62791">
        <ele>550</ele>
        <time>2021-08-07T13:10:21.271Z</time>
      </trkpt>
      <trkpt lat="46.91216" lon="8.62789">
        <ele>550</ele>
        <time>2021-08-07T13:10:22.271Z</time>
      </trkpt>
      <trkpt lat="46.91216" lon="8.62786">
        <ele>550</ele>
        <time>2021-08-07T13:10:23.270Z</time>
      </trkpt>
      <trkpt lat="46.91217" lon="8.62784">
        <ele>549</ele>
        <time>2021-08-07T13:10:24.270Z</time>
      </trkpt>
      <trkpt lat="46.91218" lon="8.62783">
        <ele>549</ele>
        <time>2021-08-07T13:10:25.271Z</time>
      </trkpt>
      <trkpt lat="46.91219" lon="8.62781">
        <ele>549</ele>
        <time>2021-08-07T13:10:26.271Z</time>
      </trkpt>
      <trkpt lat="46.91219" lon="8.62779">
        <ele>548</ele>
        <time>2021-08-07T13:10:27.271Z</time>
      </trkpt>
      <trkpt lat="46.91218" lon="8.62777">
        <ele>548</ele>
        <time>2021-08-07T13:10:28.271Z</time>
      </trkpt>
      <trkpt lat="46.91218" lon="8.62776">
        <ele>547</ele>
        <time>2021-08-07T13:10:29.271Z</time>
      </trkpt>
      <trkpt lat="46.91219" lon="8.62774">
        <ele>547</ele>
        <time>2021-08-07T13:10:30.271Z</time>
      </trkpt>
      <trkpt lat="46.91218" lon="8.62772">
        <ele>546</ele>
        <time>2021-08-07T13:10:31.271Z</time>
      </trkpt>
      <trkpt lat="46.91219" lon="8.62771">
        <ele>545</ele>
        <time>2021-08-07T13:10:32.270Z</time>
      </trkpt>
      <trkpt lat="46.91219" lon="8.62771">
        <ele>545</ele>
        <time>2021-08-07T13:10:33.271Z</time>
      </trkpt>
      <trkpt lat="46.9122" lon="8.6277">
        <ele>544</ele>
        <time>2021-08-07T13:10:34.270Z</time>
      </trkpt>
      <trkpt lat="46.9122" lon="8.62769">
        <ele>543</ele>
        <time>2021-08-07T13:10:35.270Z</time>
      </trkpt>
      <trkpt lat="46.91221" lon="8.62769">
        <ele>543</ele>
        <time>2021-08-07T13:10:36.270Z</time>
      </trkpt>
      <trkpt lat="46.91221" lon="8.62767">
        <ele>542</ele>
        <time>2021-08-07T13:10:37.270Z</time>
      </trkpt>
      <trkpt lat="46.91221" lon="8.62768">
        <ele>541</ele>
        <time>2021-08-07T13:10:38.271Z</time>
      </trkpt>
      <trkpt lat="46.91222" lon="8.62768">
        <ele>541</ele>
        <time>2021-08-07T13:10:39.270Z</time>
      </trkpt>
      <trkpt lat="46.91221" lon="8.62768">
        <ele>540</ele>
        <time>2021-08-07T13:10:40.271Z</time>
      </trkpt>
      <trkpt lat="46.91221" lon="8.62768">
        <ele>540</ele>
        <time>2021-08-07T13:10:41.271Z</time>
      </trkpt>
      <trkpt lat="46.9122" lon="8.62767">
        <ele>540</ele>
        <time>2021-08-07T13:10:42.271Z</time>
      </trkpt>
      <trkpt lat="46.9122" lon="8.62767">
        <ele>539</ele>
        <time>2021-08-07T13:10:43.271Z</time>
      </trkpt>
      <trkpt lat="46.91219" lon="8.62766">
        <ele>539</ele>
        <time>2021-08-07T13:10:44.271Z</time>
      </trkpt>
      <trkpt lat="46.91219" lon="8.62766">
        <ele>539</ele>
        <time>2021-08-07T13:10:45.271Z</time>
      </trkpt>
      <trkpt lat="46.91219" lon="8.62766">
        <ele>539</ele>
        <time>2021-08-07T13:10:46.271Z</time>
      </trkpt>
      <trkpt lat="46.91218" lon="8.62767">
        <ele>539</ele>
        <time>2021-08-07T13:10:47.271Z</time>
      </trkpt>
      <trkpt lat="46.91219" lon="8.62767">
        <ele>538</ele>
        <time>2021-08-07T13:10:48.270Z</time>
      </trkpt>
      <trkpt lat="46.9122" lon="8.62767">
        <ele>536</ele>
        <time>2021-08-07T13:10:49.272Z</time>
      </trkpt>
      <trkpt lat="46.91219" lon="8.62767">
        <ele>535</ele>
        <time>2021-08-07T13:10:50.271Z</time>
      </trkpt>
      <trkpt lat="46.91219" lon="8.62767">
        <ele>535</ele>
        <time>2021-08-07T13:10:51.272Z</time>
      </trkpt>
      <trkpt lat="46.91219" lon="8.62766">
        <ele>534</ele>
        <time>2021-08-07T13:10:52.272Z</time>
      </trkpt>
      <trkpt lat="46.9122" lon="8.62766">
        <ele>533</ele>
        <time>2021-08-07T13:10:53.272Z</time>
      </trkpt>
      <trkpt lat="46.9122" lon="8.62765">
        <ele>533</ele>
        <time>2021-08-07T13:10:54.272Z</time>
      </trkpt>
      <trkpt lat="46.9122" lon="8.62765">
        <ele>532</ele>
        <time>2021-08-07T13:10:55.272Z</time>
      </trkpt>
      <trkpt lat="46.9122" lon="8.62763">
        <ele>532</ele>
        <time>2021-08-07T13:10:59.270Z</time>
      </trkpt>
      <trkpt lat="46.91221" lon="8.62762">
        <ele>532</ele>
        <time>2021-08-07T13:11:00.270Z</time>
      </trkpt>
      <trkpt lat="46.91222" lon="8.62761">
        <ele>532</ele>
        <time>2021-08-07T13:11:01.269Z</time>
      </trkpt>
      <trkpt lat="46.91223" lon="8.6276">
        <ele>532</ele>
        <time>2021-08-07T13:11:02.270Z</time>
      </trkpt>
      <trkpt lat="46.91225" lon="8.6276">
        <ele>532</ele>
        <time>2021-08-07T13:11:24.413Z</time>
      </trkpt>
      <trkpt lat="46.91226" lon="8.6276">
        <ele>532</ele>
        <time>2021-08-07T13:11:25.413Z</time>
      </trkpt>
      <trkpt lat="46.91228" lon="8.62759">
        <ele>532</ele>
        <time>2021-08-07T13:11:26.414Z</time>
      </trkpt>
      <trkpt lat="46.91229" lon="8.62757">
        <ele>532</ele>
        <time>2021-08-07T13:11:27.414Z</time>
      </trkpt>
      <trkpt lat="46.9123" lon="8.62755">
        <ele>532</ele>
        <time>2021-08-07T13:11:28.414Z</time>
      </trkpt>
      <trkpt lat="46.91231" lon="8.62753">
        <ele>532</ele>
        <time>2021-08-07T13:11:29.413Z</time>
      </trkpt>
      <trkpt lat="46.91232" lon="8.62751">
        <ele>531</ele>
        <time>2021-08-07T13:11:30.414Z</time>
      </trkpt>
      <trkpt lat="46.91232" lon="8.62748">
        <ele>531</ele>
        <time>2021-08-07T13:11:31.414Z</time>
      </trkpt>
      <trkpt lat="46.91232" lon="8.62745">
        <ele>531</ele>
        <time>2021-08-07T13:11:32.413Z</time>
      </trkpt>
      <trkpt lat="46.91233" lon="8.62742">
        <ele>531</ele>
        <time>2021-08-07T13:11:33.414Z</time>
      </trkpt>
      <trkpt lat="46.91234" lon="8.6274">
        <ele>531</ele>
        <time>2021-08-07T13:11:34.414Z</time>
      </trkpt>
      <trkpt lat="46.91235" lon="8.62738">
        <ele>531</ele>
        <time>2021-08-07T13:11:35.414Z</time>
      </trkpt>
      <trkpt lat="46.91237" lon="8.62736">
        <ele>531</ele>
        <time>2021-08-07T13:11:36.413Z</time>
      </trkpt>
      <trkpt lat="46.91238" lon="8.62734">
        <ele>531</ele>
        <time>2021-08-07T13:11:37.413Z</time>
      </trkpt>
      <trkpt lat="46.91239" lon="8.62732">
        <ele>531</ele>
        <time>2021-08-07T13:11:38.414Z</time>
      </trkpt>
      <trkpt lat="46.9124" lon="8.6273">
        <ele>531</ele>
        <time>2021-08-07T13:11:39.413Z</time>
      </trkpt>
      <trkpt lat="46.91242" lon="8.62729">
        <ele>531</ele>
        <time>2021-08-07T13:11:40.414Z</time>
      </trkpt>
      <trkpt lat="46.91243" lon="8.62726">
        <ele>531</ele>
        <time>2021-08-07T13:11:41.414Z</time>
      </trkpt>
      <trkpt lat="46.91244" lon="8.62725">
        <ele>531</ele>
        <time>2021-08-07T13:11:42.413Z</time>
      </trkpt>
      <trkpt lat="46.91245" lon="8.62723">
        <ele>531</ele>
        <time>2021-08-07T13:11:43.413Z</time>
      </trkpt>
      <trkpt lat="46.91246" lon="8.62722">
        <ele>531</ele>
        <time>2021-08-07T13:11:44.414Z</time>
      </trkpt>
      <trkpt lat="46.91246" lon="8.62721">
        <ele>531</ele>
        <time>2021-08-07T13:11:45.414Z</time>
      </trkpt>
      <trkpt lat="46.91248" lon="8.62719">
        <ele>531</ele>
        <time>2021-08-07T13:11:46.414Z</time>
      </trkpt>
      <trkpt lat="46.91249" lon="8.62719">
        <ele>530</ele>
        <time>2021-08-07T13:11:47.414Z</time>
      </trkpt>
      <trkpt lat="46.91251" lon="8.62717">
        <ele>530</ele>
        <time>2021-08-07T13:11:48.413Z</time>
      </trkpt>
      <trkpt lat="46.91252" lon="8.62715">
        <ele>530</ele>
        <time>2021-08-07T13:11:49.413Z</time>
      </trkpt>
      <trkpt lat="46.91252" lon="8.62714">
        <ele>529</ele>
        <time>2021-08-07T13:11:50.414Z</time>
      </trkpt>
      <trkpt lat="46.91253" lon="8.62711">
        <ele>529</ele>
        <time>2021-08-07T13:11:51.414Z</time>
      </trkpt>
      <trkpt lat="46.91253" lon="8.62709">
        <ele>528</ele>
        <time>2021-08-07T13:12:03.531Z</time>
      </trkpt>
      <trkpt lat="46.91254" lon="8.62708">
        <ele>528</ele>
        <time>2021-08-07T13:12:04.532Z</time>
      </trkpt>
      <trkpt lat="46.91256" lon="8.62707">
        <ele>528</ele>
        <time>2021-08-07T13:12:05.532Z</time>
      </trkpt>
      <trkpt lat="46.91257" lon="8.62705">
        <ele>528</ele>
        <time>2021-08-07T13:12:06.532Z</time>
      </trkpt>
      <trkpt lat="46.91258" lon="8.62704">
        <ele>527</ele>
        <time>2021-08-07T13:12:07.532Z</time>
      </trkpt>
      <trkpt lat="46.91259" lon="8.62702">
        <ele>527</ele>
        <time>2021-08-07T13:12:08.532Z</time>
      </trkpt>
      <trkpt lat="46.91259" lon="8.627">
        <ele>527</ele>
        <time>2021-08-07T13:12:09.532Z</time>
      </trkpt>
      <trkpt lat="46.91259" lon="8.62698">
        <ele>526</ele>
        <time>2021-08-07T13:12:10.531Z</time>
      </trkpt>
      <trkpt lat="46.9126" lon="8.62696">
        <ele>526</ele>
        <time>2021-08-07T13:12:11.531Z</time>
      </trkpt>
      <trkpt lat="46.91261" lon="8.62694">
        <ele>526</ele>
        <time>2021-08-07T13:12:12.532Z</time>
      </trkpt>
      <trkpt lat="46.91261" lon="8.62693">
        <ele>526</ele>
        <time>2021-08-07T13:12:13.532Z</time>
      </trkpt>
      <trkpt lat="46.91262" lon="8.62692">
        <ele>526</ele>
        <time>2021-08-07T13:12:14.532Z</time>
      </trkpt>
      <trkpt lat="46.91263" lon="8.62691">
        <ele>526</ele>
        <time>2021-08-07T13:12:15.532Z</time>
      </trkpt>
      <trkpt lat="46.91264" lon="8.62689">
        <ele>525</ele>
        <time>2021-08-07T13:12:16.532Z</time>
      </trkpt>
      <trkpt lat="46.91266" lon="8.62689">
        <ele>525</ele>
        <time>2021-08-07T13:12:17.531Z</time>
      </trkpt>
      <trkpt lat="46.91267" lon="8.62686">
        <ele>524</ele>
        <time>2021-08-07T13:12:18.532Z</time>
      </trkpt>
      <trkpt lat="46.91268" lon="8.62683">
        <ele>524</ele>
        <time>2021-08-07T13:12:19.531Z</time>
      </trkpt>
      <trkpt lat="46.91268" lon="8.62681">
        <ele>524</ele>
        <time>2021-08-07T13:12:20.531Z</time>
      </trkpt>
      <trkpt lat="46.9127" lon="8.62679">
        <ele>524</ele>
        <time>2021-08-07T13:12:21.532Z</time>
      </trkpt>
      <trkpt lat="46.91271" lon="8.62677">
        <ele>524</ele>
        <time>2021-08-07T13:12:22.532Z</time>
      </trkpt>
      <trkpt lat="46.91271" lon="8.62675">
        <ele>523</ele>
        <time>2021-08-07T13:12:23.532Z</time>
      </trkpt>
      <trkpt lat="46.91271" lon="8.62673">
        <ele>523</ele>
        <time>2021-08-07T13:12:24.532Z</time>
      </trkpt>
      <trkpt lat="46.91271" lon="8.62673">
        <ele>523</ele>
        <time>2021-08-07T13:12:25.531Z</time>
      </trkpt>
      <trkpt lat="46.91272" lon="8.62672">
        <ele>522</ele>
        <time>2021-08-07T13:12:26.532Z</time>
      </trkpt>
      <trkpt lat="46.91272" lon="8.62671">
        <ele>522</ele>
        <time>2021-08-07T13:12:27.532Z</time>
      </trkpt>
      <trkpt lat="46.91273" lon="8.62669">
        <ele>522</ele>
        <time>2021-08-07T13:12:28.532Z</time>
      </trkpt>
      <trkpt lat="46.91274" lon="8.62667">
        <ele>521</ele>
        <time>2021-08-07T13:12:29.531Z</time>
      </trkpt>
      <trkpt lat="46.91276" lon="8.62666">
        <ele>521</ele>
        <time>2021-08-07T13:12:30.532Z</time>
      </trkpt>
      <trkpt lat="46.91277" lon="8.62665">
        <ele>521</ele>
        <time>2021-08-07T13:12:31.531Z</time>
      </trkpt>
      <trkpt lat="46.91278" lon="8.62663">
        <ele>520</ele>
        <time>2021-08-07T13:12:32.531Z</time>
      </trkpt>
      <trkpt lat="46.91279" lon="8.62662">
        <ele>520</ele>
        <time>2021-08-07T13:12:33.532Z</time>
      </trkpt>
      <trkpt lat="46.91279" lon="8.62661">
        <ele>520</ele>
        <time>2021-08-07T13:12:34.532Z</time>
      </trkpt>
      <trkpt lat="46.9128" lon="8.62659">
        <ele>519</ele>
        <time>2021-08-07T13:12:35.532Z</time>
      </trkpt>
      <trkpt lat="46.91281" lon="8.62658">
        <ele>518</ele>
        <time>2021-08-07T13:12:36.532Z</time>
      </trkpt>
      <trkpt lat="46.91283" lon="8.62656">
        <ele>518</ele>
        <time>2021-08-07T13:12:37.531Z</time>
      </trkpt>
      <trkpt lat="46.91285" lon="8.62654">
        <ele>517</ele>
        <time>2021-08-07T13:12:38.532Z</time>
      </trkpt>
      <trkpt lat="46.91286" lon="8.62652">
        <ele>517</ele>
        <time>2021-08-07T13:12:39.531Z</time>
      </trkpt>
      <trkpt lat="46.91287" lon="8.6265">
        <ele>516</ele>
        <time>2021-08-07T13:12:40.532Z</time>
      </trkpt>
      <trkpt lat="46.91288" lon="8.62648">
        <ele>516</ele>
        <time>2021-08-07T13:12:41.532Z</time>
      </trkpt>
      <trkpt lat="46.91289" lon="8.62647">
        <ele>516</ele>
        <time>2021-08-07T13:12:42.531Z</time>
      </trkpt>
      <trkpt lat="46.91289" lon="8.62646">
        <ele>515</ele>
        <time>2021-08-07T13:12:43.531Z</time>
      </trkpt>
      <trkpt lat="46.91291" lon="8.62645">
        <ele>515</ele>
        <time>2021-08-07T13:12:44.532Z</time>
      </trkpt>
      <trkpt lat="46.91292" lon="8.62644">
        <ele>514</ele>
        <time>2021-08-07T13:12:45.532Z</time>
      </trkpt>
      <trkpt lat="46.91293" lon="8.62643">
        <ele>514</ele>
        <time>2021-08-07T13:12:46.532Z</time>
      </trkpt>
      <trkpt lat="46.91295" lon="8.62643">
        <ele>513</ele>
        <time>2021-08-07T13:12:47.532Z</time>
      </trkpt>
      <trkpt lat="46.91296" lon="8.62641">
        <ele>513</ele>
        <time>2021-08-07T13:12:48.532Z</time>
      </trkpt>
      <trkpt lat="46.91298" lon="8.6264">
        <ele>512</ele>
        <time>2021-08-07T13:12:49.531Z</time>
      </trkpt>
      <trkpt lat="46.91299" lon="8.6264">
        <ele>512</ele>
        <time>2021-08-07T13:12:50.531Z</time>
      </trkpt>
      <trkpt lat="46.91299" lon="8.62639">
        <ele>512</ele>
        <time>2021-08-07T13:12:51.532Z</time>
      </trkpt>
      <trkpt lat="46.91299" lon="8.62637">
        <ele>511</ele>
        <time>2021-08-07T13:12:52.532Z</time>
      </trkpt>
      <trkpt lat="46.913" lon="8.62636">
        <ele>511</ele>
        <time>2021-08-07T13:12:53.531Z</time>
      </trkpt>
      <trkpt lat="46.91301" lon="8.62634">
        <ele>511</ele>
        <time>2021-08-07T13:12:54.532Z</time>
      </trkpt>
      <trkpt lat="46.91302" lon="8.62632">
        <ele>510</ele>
        <time>2021-08-07T13:12:55.532Z</time>
      </trkpt>
      <trkpt lat="46.91303" lon="8.6263">
        <ele>510</ele>
        <time>2021-08-07T13:12:56.532Z</time>
      </trkpt>
      <trkpt lat="46.91304" lon="8.62628">
        <ele>509</ele>
        <time>2021-08-07T13:12:57.531Z</time>
      </trkpt>
      <trkpt lat="46.91305" lon="8.62625">
        <ele>509</ele>
        <time>2021-08-07T13:12:58.532Z</time>
      </trkpt>
      <trkpt lat="46.91306" lon="8.62623">
        <ele>508</ele>
        <time>2021-08-07T13:12:59.532Z</time>
      </trkpt>
      <trkpt lat="46.91307" lon="8.62621">
        <ele>508</ele>
        <time>2021-08-07T13:13:00.532Z</time>
      </trkpt>
      <trkpt lat="46.91309" lon="8.62619">
        <ele>508</ele>
        <time>2021-08-07T13:13:01.532Z</time>
      </trkpt>
      <trkpt lat="46.9131" lon="8.62617">
        <ele>507</ele>
        <time>2021-08-07T13:13:02.532Z</time>
      </trkpt>
      <trkpt lat="46.9131" lon="8.62614">
        <ele>507</ele>
        <time>2021-08-07T13:13:03.532Z</time>
      </trkpt>
      <trkpt lat="46.91311" lon="8.62612">
        <ele>506</ele>
        <time>2021-08-07T13:13:04.531Z</time>
      </trkpt>
      <trkpt lat="46.91313" lon="8.62611">
        <ele>506</ele>
        <time>2021-08-07T13:13:05.531Z</time>
      </trkpt>
      <trkpt lat="46.91314" lon="8.62609">
        <ele>506</ele>
        <time>2021-08-07T13:13:06.532Z</time>
      </trkpt>
      <trkpt lat="46.91315" lon="8.62608">
        <ele>506</ele>
        <time>2021-08-07T13:13:07.531Z</time>
      </trkpt>
      <trkpt lat="46.91317" lon="8.62606">
        <ele>506</ele>
        <time>2021-08-07T13:13:08.531Z</time>
      </trkpt>
      <trkpt lat="46.91318" lon="8.62604">
        <ele>507</ele>
        <time>2021-08-07T13:13:09.532Z</time>
      </trkpt>
      <trkpt lat="46.9132" lon="8.62603">
        <ele>507</ele>
        <time>2021-08-07T13:13:10.532Z</time>
      </trkpt>
      <trkpt lat="46.9132" lon="8.62601">
        <ele>507</ele>
        <time>2021-08-07T13:13:11.532Z</time>
      </trkpt>
      <trkpt lat="46.91322" lon="8.626">
        <ele>507</ele>
        <time>2021-08-07T13:13:12.531Z</time>
      </trkpt>
      <trkpt lat="46.91324" lon="8.62599">
        <ele>507</ele>
        <time>2021-08-07T13:13:13.531Z</time>
      </trkpt>
      <trkpt lat="46.91326" lon="8.62597">
        <ele>507</ele>
        <time>2021-08-07T13:13:14.531Z</time>
      </trkpt>
      <trkpt lat="46.91327" lon="8.62595">
        <ele>507</ele>
        <time>2021-08-07T13:13:15.531Z</time>
      </trkpt>
      <trkpt lat="46.91329" lon="8.62594">
        <ele>507</ele>
        <time>2021-08-07T13:13:16.531Z</time>
      </trkpt>
      <trkpt lat="46.9133" lon="8.62592">
        <ele>507</ele>
        <time>2021-08-07T13:13:17.531Z</time>
      </trkpt>
      <trkpt lat="46.91331" lon="8.6259">
        <ele>506</ele>
        <time>2021-08-07T13:13:18.531Z</time>
      </trkpt>
      <trkpt lat="46.91332" lon="8.62588">
        <ele>506</ele>
        <time>2021-08-07T13:13:19.531Z</time>
      </trkpt>
      <trkpt lat="46.91333" lon="8.62587">
        <ele>506</ele>
        <time>2021-08-07T13:13:20.531Z</time>
      </trkpt>
      <trkpt lat="46.91335" lon="8.62585">
        <ele>506</ele>
        <time>2021-08-07T13:13:21.531Z</time>
      </trkpt>
      <trkpt lat="46.91335" lon="8.62584">
        <ele>505</ele>
        <time>2021-08-07T13:13:22.531Z</time>
      </trkpt>
      <trkpt lat="46.91336" lon="8.62583">
        <ele>505</ele>
        <time>2021-08-07T13:13:23.532Z</time>
      </trkpt>
      <trkpt lat="46.91337" lon="8.62582">
        <ele>505</ele>
        <time>2021-08-07T13:13:30.614Z</time>
      </trkpt>
      <trkpt lat="46.91338" lon="8.6258">
        <ele>504</ele>
        <time>2021-08-07T13:13:42.505Z</time>
      </trkpt>
      <trkpt lat="46.91338" lon="8.62579">
        <ele>504</ele>
        <time>2021-08-07T13:13:43.505Z</time>
      </trkpt>
      <trkpt lat="46.91339" lon="8.62578">
        <ele>503</ele>
        <time>2021-08-07T13:13:44.504Z</time>
      </trkpt>
      <trkpt lat="46.9134" lon="8.62577">
        <ele>503</ele>
        <time>2021-08-07T13:13:45.504Z</time>
      </trkpt>
      <trkpt lat="46.91341" lon="8.62576">
        <ele>502</ele>
        <time>2021-08-07T13:13:46.505Z</time>
      </trkpt>
      <trkpt lat="46.91342" lon="8.62574">
        <ele>501</ele>
        <time>2021-08-07T13:13:47.504Z</time>
      </trkpt>
      <trkpt lat="46.91343" lon="8.62571">
        <ele>501</ele>
        <time>2021-08-07T13:14:39.637Z</time>
      </trkpt>
      <trkpt lat="46.91344" lon="8.62569">
        <ele>501</ele>
        <time>2021-08-07T13:14:40.637Z</time>
      </trkpt>
      <trkpt lat="46.91345" lon="8.62567">
        <ele>500</ele>
        <time>2021-08-07T13:14:50.739Z</time>
      </trkpt>
      <trkpt lat="46.91346" lon="8.62565">
        <ele>500</ele>
        <time>2021-08-07T13:14:51.739Z</time>
      </trkpt>
      <trkpt lat="46.91347" lon="8.62564">
        <ele>500</ele>
        <time>2021-08-07T13:14:52.739Z</time>
      </trkpt>
      <trkpt lat="46.91348" lon="8.62563">
        <ele>499</ele>
        <time>2021-08-07T13:15:00.861Z</time>
      </trkpt>
      <trkpt lat="46.91347" lon="8.6256">
        <ele>498</ele>
        <time>2021-08-07T13:15:01.861Z</time>
      </trkpt>
      <trkpt lat="46.91347" lon="8.62557">
        <ele>498</ele>
        <time>2021-08-07T13:15:02.861Z</time>
      </trkpt>
      <trkpt lat="46.91347" lon="8.62555">
        <ele>498</ele>
        <time>2021-08-07T13:15:05.617Z</time>
      </trkpt>
      <trkpt lat="46.91348" lon="8.62553">
        <ele>497</ele>
        <time>2021-08-07T13:15:12.497Z</time>
      </trkpt>
      <trkpt lat="46.91348" lon="8.62551">
        <ele>497</ele>
        <time>2021-08-07T13:15:13.497Z</time>
      </trkpt>
      <trkpt lat="46.91349" lon="8.6255">
        <ele>497</ele>
        <time>2021-08-07T13:15:14.497Z</time>
      </trkpt>
      <trkpt lat="46.9135" lon="8.6255">
        <ele>497</ele>
        <time>2021-08-07T13:15:15.497Z</time>
      </trkpt>
      <trkpt lat="46.91351" lon="8.62549">
        <ele>497</ele>
        <time>2021-08-07T13:15:16.497Z</time>
      </trkpt>
      <trkpt lat="46.91352" lon="8.62549">
        <ele>498</ele>
        <time>2021-08-07T13:15:17.497Z</time>
      </trkpt>
      <trkpt lat="46.91353" lon="8.62548">
        <ele>497</ele>
        <time>2021-08-07T13:15:18.497Z</time>
      </trkpt>
      <trkpt lat="46.91355" lon="8.62548">
        <ele>497</ele>
        <time>2021-08-07T13:15:19.497Z</time>
      </trkpt>
      <trkpt lat="46.91356" lon="8.62546">
        <ele>497</ele>
        <time>2021-08-07T13:15:20.498Z</time>
      </trkpt>
      <trkpt lat="46.91357" lon="8.62546">
        <ele>496</ele>
        <time>2021-08-07T13:15:21.498Z</time>
      </trkpt>
      <trkpt lat="46.91358" lon="8.62545">
        <ele>496</ele>
        <time>2021-08-07T13:15:31.645Z</time>
      </trkpt>
      <trkpt lat="46.91359" lon="8.62542">
        <ele>496</ele>
        <time>2021-08-07T13:15:32.646Z</time>
      </trkpt>
      <trkpt lat="46.9136" lon="8.6254">
        <ele>496</ele>
        <time>2021-08-07T13:15:33.646Z</time>
      </trkpt>
      <trkpt lat="46.9136" lon="8.62538">
        <ele>495</ele>
        <time>2021-08-07T13:15:34.645Z</time>
      </trkpt>
      <trkpt lat="46.91361" lon="8.62536">
        <ele>495</ele>
        <time>2021-08-07T13:15:35.646Z</time>
      </trkpt>
      <trkpt lat="46.91362" lon="8.62535">
        <ele>495</ele>
        <time>2021-08-07T13:15:36.646Z</time>
      </trkpt>
      <trkpt lat="46.91363" lon="8.62534">
        <ele>495</ele>
        <time>2021-08-07T13:15:37.646Z</time>
      </trkpt>
      <trkpt lat="46.91365" lon="8.62534">
        <ele>495</ele>
        <time>2021-08-07T13:15:38.645Z</time>
      </trkpt>
      <trkpt lat="46.91366" lon="8.62532">
        <ele>495</ele>
        <time>2021-08-07T13:15:39.645Z</time>
      </trkpt>
      <trkpt lat="46.91367" lon="8.6253">
        <ele>495</ele>
        <time>2021-08-07T13:15:40.646Z</time>
      </trkpt>
      <trkpt lat="46.91368" lon="8.62528">
        <ele>496</ele>
        <time>2021-08-07T13:15:46.797Z</time>
      </trkpt>
      <trkpt lat="46.91369" lon="8.62527">
        <ele>496</ele>
        <time>2021-08-07T13:15:47.797Z</time>
      </trkpt>
      <trkpt lat="46.9137" lon="8.62525">
        <ele>496</ele>
        <time>2021-08-07T13:15:48.796Z</time>
      </trkpt>
      <trkpt lat="46.91372" lon="8.62523">
        <ele>496</ele>
        <time>2021-08-07T13:15:49.797Z</time>
      </trkpt>
      <trkpt lat="46.91373" lon="8.62522">
        <ele>496</ele>
        <time>2021-08-07T13:15:50.797Z</time>
      </trkpt>
      <trkpt lat="46.91374" lon="8.62521">
        <ele>496</ele>
        <time>2021-08-07T13:15:51.797Z</time>
      </trkpt>
      <trkpt lat="46.91377" lon="8.6252">
        <ele>496</ele>
        <time>2021-08-07T13:15:52.796Z</time>
      </trkpt>
      <trkpt lat="46.91378" lon="8.6252">
        <ele>497</ele>
        <time>2021-08-07T13:15:53.797Z</time>
      </trkpt>
      <trkpt lat="46.91379" lon="8.62519">
        <ele>497</ele>
        <time>2021-08-07T13:15:54.797Z</time>
      </trkpt>
      <trkpt lat="46.91381" lon="8.62518">
        <ele>497</ele>
        <time>2021-08-07T13:15:55.797Z</time>
      </trkpt>
      <trkpt lat="46.91383" lon="8.62518">
        <ele>498</ele>
        <time>2021-08-07T13:15:56.797Z</time>
      </trkpt>
      <trkpt lat="46.91384" lon="8.62517">
        <ele>498</ele>
        <time>2021-08-07T13:15:57.796Z</time>
      </trkpt>
      <trkpt lat="46.91384" lon="8.62516">
        <ele>498</ele>
        <time>2021-08-07T13:15:58.796Z</time>
      </trkpt>
      <trkpt lat="46.91385" lon="8.62515">
        <ele>499</ele>
        <time>2021-08-07T13:15:59.796Z</time>
      </trkpt>
      <trkpt lat="46.91386" lon="8.62512">
        <ele>500</ele>
        <time>2021-08-07T13:16:00.796Z</time>
      </trkpt>
      <trkpt lat="46.91387" lon="8.62511">
        <ele>500</ele>
        <time>2021-08-07T13:16:01.796Z</time>
      </trkpt>
      <trkpt lat="46.91388" lon="8.6251">
        <ele>501</ele>
        <time>2021-08-07T13:16:02.797Z</time>
      </trkpt>
      <trkpt lat="46.9139" lon="8.62508">
        <ele>502</ele>
        <time>2021-08-07T13:16:03.796Z</time>
      </trkpt>
      <trkpt lat="46.91391" lon="8.62506">
        <ele>502</ele>
        <time>2021-08-07T13:16:04.796Z</time>
      </trkpt>
      <trkpt lat="46.91393" lon="8.62506">
        <ele>502</ele>
        <time>2021-08-07T13:16:05.797Z</time>
      </trkpt>
      <trkpt lat="46.91395" lon="8.62506">
        <ele>502</ele>
        <time>2021-08-07T13:16:06.796Z</time>
      </trkpt>
      <trkpt lat="46.91397" lon="8.62505">
        <ele>502</ele>
        <time>2021-08-07T13:16:07.796Z</time>
      </trkpt>
      <trkpt lat="46.91398" lon="8.62503">
        <ele>502</ele>
        <time>2021-08-07T13:16:08.797Z</time>
      </trkpt>
      <trkpt lat="46.91399" lon="8.62501">
        <ele>501</ele>
        <time>2021-08-07T13:16:09.797Z</time>
      </trkpt>
      <trkpt lat="46.914" lon="8.625">
        <ele>501</ele>
        <time>2021-08-07T13:16:10.797Z</time>
      </trkpt>
      <trkpt lat="46.91402" lon="8.625">
        <ele>501</ele>
        <time>2021-08-07T13:16:11.797Z</time>
      </trkpt>
      <trkpt lat="46.91403" lon="8.625">
        <ele>500</ele>
        <time>2021-08-07T13:16:12.796Z</time>
      </trkpt>
      <trkpt lat="46.91405" lon="8.62499">
        <ele>500</ele>
        <time>2021-08-07T13:16:13.797Z</time>
      </trkpt>
      <trkpt lat="46.91405" lon="8.62498">
        <ele>499</ele>
        <time>2021-08-07T13:16:14.797Z</time>
      </trkpt>
      <trkpt lat="46.91406" lon="8.62497">
        <ele>499</ele>
        <time>2021-08-07T13:16:15.797Z</time>
      </trkpt>
      <trkpt lat="46.91407" lon="8.62496">
        <ele>498</ele>
        <time>2021-08-07T13:16:16.797Z</time>
      </trkpt>
      <trkpt lat="46.91409" lon="8.62495">
        <ele>498</ele>
        <time>2021-08-07T13:16:17.796Z</time>
      </trkpt>
      <trkpt lat="46.9141" lon="8.62494">
        <ele>498</ele>
        <time>2021-08-07T13:16:18.797Z</time>
      </trkpt>
      <trkpt lat="46.91412" lon="8.62493">
        <ele>497</ele>
        <time>2021-08-07T13:16:19.797Z</time>
      </trkpt>
      <trkpt lat="46.91414" lon="8.62492">
        <ele>497</ele>
        <time>2021-08-07T13:16:20.797Z</time>
      </trkpt>
      <trkpt lat="46.91416" lon="8.62491">
        <ele>496</ele>
        <time>2021-08-07T13:16:21.796Z</time>
      </trkpt>
      <trkpt lat="46.91418" lon="8.62492">
        <ele>495</ele>
        <time>2021-08-07T13:16:22.796Z</time>
      </trkpt>
      <trkpt lat="46.91421" lon="8.62492">
        <ele>494</ele>
        <time>2021-08-07T13:16:23.797Z</time>
      </trkpt>
      <trkpt lat="46.91423" lon="8.62491">
        <ele>493</ele>
        <time>2021-08-07T13:16:24.797Z</time>
      </trkpt>
      <trkpt lat="46.91424" lon="8.6249">
        <ele>493</ele>
        <time>2021-08-07T13:16:25.796Z</time>
      </trkpt>
      <trkpt lat="46.91425" lon="8.6249">
        <ele>492</ele>
        <time>2021-08-07T13:16:26.797Z</time>
      </trkpt>
      <trkpt lat="46.91425" lon="8.62489">
        <ele>491</ele>
        <time>2021-08-07T13:16:27.797Z</time>
      </trkpt>
      <trkpt lat="46.91425" lon="8.62488">
        <ele>491</ele>
        <time>2021-08-07T13:16:28.797Z</time>
      </trkpt>
      <trkpt lat="46.91427" lon="8.62488">
        <ele>490</ele>
        <time>2021-08-07T13:16:29.797Z</time>
      </trkpt>
      <trkpt lat="46.91429" lon="8.62488">
        <ele>489</ele>
        <time>2021-08-07T13:16:30.797Z</time>
      </trkpt>
      <trkpt lat="46.9143" lon="8.62487">
        <ele>488</ele>
        <time>2021-08-07T13:16:31.797Z</time>
      </trkpt>
      <trkpt lat="46.91432" lon="8.62487">
        <ele>487</ele>
        <time>2021-08-07T13:16:32.797Z</time>
      </trkpt>
      <trkpt lat="46.91433" lon="8.62487">
        <ele>486</ele>
        <time>2021-08-07T13:16:33.797Z</time>
      </trkpt>
      <trkpt lat="46.91434" lon="8.62485">
        <ele>485</ele>
        <time>2021-08-07T13:16:34.796Z</time>
      </trkpt>
      <trkpt lat="46.91435" lon="8.62483">
        <ele>484</ele>
        <time>2021-08-07T13:16:35.797Z</time>
      </trkpt>
      <trkpt lat="46.91436" lon="8.62482">
        <ele>484</ele>
        <time>2021-08-07T13:16:36.797Z</time>
      </trkpt>
      <trkpt lat="46.91437" lon="8.62482">
        <ele>483</ele>
        <time>2021-08-07T13:16:37.797Z</time>
      </trkpt>
      <trkpt lat="46.91438" lon="8.6248">
        <ele>483</ele>
        <time>2021-08-07T13:16:38.797Z</time>
      </trkpt>
      <trkpt lat="46.91439" lon="8.62479">
        <ele>482</ele>
        <time>2021-08-07T13:16:39.796Z</time>
      </trkpt>
      <trkpt lat="46.9144" lon="8.62477">
        <ele>482</ele>
        <time>2021-08-07T13:16:40.796Z</time>
      </trkpt>
      <trkpt lat="46.91441" lon="8.62476">
        <ele>482</ele>
        <time>2021-08-07T13:16:41.797Z</time>
      </trkpt>
      <trkpt lat="46.91442" lon="8.62475">
        <ele>481</ele>
        <time>2021-08-07T13:16:42.797Z</time>
      </trkpt>
      <trkpt lat="46.91443" lon="8.62473">
        <ele>481</ele>
        <time>2021-08-07T13:16:43.797Z</time>
      </trkpt>
      <trkpt lat="46.91444" lon="8.62471">
        <ele>481</ele>
        <time>2021-08-07T13:16:56.874Z</time>
      </trkpt>
      <trkpt lat="46.91445" lon="8.6247">
        <ele>480</ele>
        <time>2021-08-07T13:16:57.875Z</time>
      </trkpt>
      <trkpt lat="46.91446" lon="8.62468">
        <ele>480</ele>
        <time>2021-08-07T13:16:58.875Z</time>
      </trkpt>
      <trkpt lat="46.91447" lon="8.62467">
        <ele>479</ele>
        <time>2021-08-07T13:16:59.875Z</time>
      </trkpt>
      <trkpt lat="46.91448" lon="8.62466">
        <ele>479</ele>
        <time>2021-08-07T13:17:00.875Z</time>
      </trkpt>
      <trkpt lat="46.91449" lon="8.62465">
        <ele>479</ele>
        <time>2021-08-07T13:17:01.875Z</time>
      </trkpt>
      <trkpt lat="46.91451" lon="8.62464">
        <ele>478</ele>
        <time>2021-08-07T13:17:02.875Z</time>
      </trkpt>
      <trkpt lat="46.91453" lon="8.62463">
        <ele>478</ele>
        <time>2021-08-07T13:17:03.874Z</time>
      </trkpt>
      <trkpt lat="46.91455" lon="8.62462">
        <ele>478</ele>
        <time>2021-08-07T13:17:04.874Z</time>
      </trkpt>
      <trkpt lat="46.91456" lon="8.62461">
        <ele>478</ele>
        <time>2021-08-07T13:17:09.001Z</time>
      </trkpt>
      <trkpt lat="46.91457" lon="8.6246">
        <ele>478</ele>
        <time>2021-08-07T13:17:10.002Z</time>
      </trkpt>
      <trkpt lat="46.91458" lon="8.62459">
        <ele>477</ele>
        <time>2021-08-07T13:17:11.002Z</time>
      </trkpt>
      <trkpt lat="46.91459" lon="8.62458">
        <ele>477</ele>
        <time>2021-08-07T13:17:12.002Z</time>
      </trkpt>
      <trkpt lat="46.9146" lon="8.62457">
        <ele>477</ele>
        <time>2021-08-07T13:17:13.002Z</time>
      </trkpt>
      <trkpt lat="46.91462" lon="8.62455">
        <ele>477</ele>
        <time>2021-08-07T13:17:14.002Z</time>
      </trkpt>
      <trkpt lat="46.91463" lon="8.62453">
        <ele>477</ele>
        <time>2021-08-07T13:17:15.002Z</time>
      </trkpt>
      <trkpt lat="46.91464" lon="8.62452">
        <ele>476</ele>
        <time>2021-08-07T13:17:16.001Z</time>
      </trkpt>
      <trkpt lat="46.91465" lon="8.62451">
        <ele>476</ele>
        <time>2021-08-07T13:17:17.001Z</time>
      </trkpt>
      <trkpt lat="46.91466" lon="8.62449">
        <ele>475</ele>
        <time>2021-08-07T13:17:18.002Z</time>
      </trkpt>
      <trkpt lat="46.91466" lon="8.62446">
        <ele>475</ele>
        <time>2021-08-07T13:17:19.001Z</time>
      </trkpt>
      <trkpt lat="46.91467" lon="8.62444">
        <ele>475</ele>
        <time>2021-08-07T13:17:20.001Z</time>
      </trkpt>
      <trkpt lat="46.91468" lon="8.62443">
        <ele>474</ele>
        <time>2021-08-07T13:17:21.002Z</time>
      </trkpt>
      <trkpt lat="46.9147" lon="8.62442">
        <ele>474</ele>
        <time>2021-08-07T13:17:22.001Z</time>
      </trkpt>
      <trkpt lat="46.91471" lon="8.62441">
        <ele>473</ele>
        <time>2021-08-07T13:17:23.001Z</time>
      </trkpt>
      <trkpt lat="46.91472" lon="8.62439">
        <ele>473</ele>
        <time>2021-08-07T13:17:24.001Z</time>
      </trkpt>
      <trkpt lat="46.91473" lon="8.62437">
        <ele>472</ele>
        <time>2021-08-07T13:17:25.002Z</time>
      </trkpt>
      <trkpt lat="46.91474" lon="8.62435">
        <ele>471</ele>
        <time>2021-08-07T13:17:26.002Z</time>
      </trkpt>
      <trkpt lat="46.91475" lon="8.62434">
        <ele>470</ele>
        <time>2021-08-07T13:17:27.002Z</time>
      </trkpt>
      <trkpt lat="46.91475" lon="8.62431">
        <ele>470</ele>
        <time>2021-08-07T13:17:28.002Z</time>
      </trkpt>
      <trkpt lat="46.91475" lon="8.62428">
        <ele>469</ele>
        <time>2021-08-07T13:17:29.002Z</time>
      </trkpt>
      <trkpt lat="46.91475" lon="8.62426">
        <ele>469</ele>
        <time>2021-08-07T13:17:30.002Z</time>
      </trkpt>
      <trkpt lat="46.91475" lon="8.62423">
        <ele>469</ele>
        <time>2021-08-07T13:17:31.002Z</time>
      </trkpt>
      <trkpt lat="46.91475" lon="8.62421">
        <ele>468</ele>
        <time>2021-08-07T13:17:32.002Z</time>
      </trkpt>
      <trkpt lat="46.91474" lon="8.62419">
        <ele>468</ele>
        <time>2021-08-07T13:17:33.002Z</time>
      </trkpt>
      <trkpt lat="46.91474" lon="8.62417">
        <ele>468</ele>
        <time>2021-08-07T13:17:34.002Z</time>
      </trkpt>
      <trkpt lat="46.91473" lon="8.62415">
        <ele>467</ele>
        <time>2021-08-07T13:17:35.001Z</time>
      </trkpt>
      <trkpt lat="46.91472" lon="8.62414">
        <ele>467</ele>
        <time>2021-08-07T13:17:36.002Z</time>
      </trkpt>
      <trkpt lat="46.9147" lon="8.62413">
        <ele>467</ele>
        <time>2021-08-07T13:17:37.002Z</time>
      </trkpt>
      <trkpt lat="46.91469" lon="8.62411">
        <ele>467</ele>
        <time>2021-08-07T13:17:38.001Z</time>
      </trkpt>
      <trkpt lat="46.91468" lon="8.6241">
        <ele>467</ele>
        <time>2021-08-07T13:17:39.002Z</time>
      </trkpt>
      <trkpt lat="46.91467" lon="8.62408">
        <ele>467</ele>
        <time>2021-08-07T13:17:40.002Z</time>
      </trkpt>
      <trkpt lat="46.91466" lon="8.62407">
        <ele>467</ele>
        <time>2021-08-07T13:17:41.002Z</time>
      </trkpt>
      <trkpt lat="46.91465" lon="8.62406">
        <ele>467</ele>
        <time>2021-08-07T13:17:42.002Z</time>
      </trkpt>
      <trkpt lat="46.91463" lon="8.62405">
        <ele>467</ele>
        <time>2021-08-07T13:17:43.002Z</time>
      </trkpt>
      <trkpt lat="46.91462" lon="8.62404">
        <ele>468</ele>
        <time>2021-08-07T13:17:44.001Z</time>
      </trkpt>
      <trkpt lat="46.91461" lon="8.62402">
        <ele>468</ele>
        <time>2021-08-07T13:17:45.001Z</time>
      </trkpt>
      <trkpt lat="46.9146" lon="8.62401">
        <ele>468</ele>
        <time>2021-08-07T13:17:46.001Z</time>
      </trkpt>
      <trkpt lat="46.91459" lon="8.624">
        <ele>468</ele>
        <time>2021-08-07T13:17:47.001Z</time>
      </trkpt>
      <trkpt lat="46.91457" lon="8.62398">
        <ele>468</ele>
        <time>2021-08-07T13:17:48.002Z</time>
      </trkpt>
      <trkpt lat="46.91456" lon="8.62397">
        <ele>467</ele>
        <time>2021-08-07T13:17:49.002Z</time>
      </trkpt>
      <trkpt lat="46.91455" lon="8.62395">
        <ele>467</ele>
        <time>2021-08-07T13:17:50.002Z</time>
      </trkpt>
      <trkpt lat="46.91454" lon="8.62394">
        <ele>467</ele>
        <time>2021-08-07T13:17:51.002Z</time>
      </trkpt>
      <trkpt lat="46.91452" lon="8.62392">
        <ele>467</ele>
        <time>2021-08-07T13:17:52.001Z</time>
      </trkpt>
      <trkpt lat="46.91451" lon="8.62391">
        <ele>466</ele>
        <time>2021-08-07T13:17:53.002Z</time>
      </trkpt>
      <trkpt lat="46.9145" lon="8.6239">
        <ele>466</ele>
        <time>2021-08-07T13:17:54.002Z</time>
      </trkpt>
      <trkpt lat="46.91449" lon="8.62388">
        <ele>466</ele>
        <time>2021-08-07T13:17:55.001Z</time>
      </trkpt>
      <trkpt lat="46.91447" lon="8.62387">
        <ele>466</ele>
        <time>2021-08-07T13:17:56.002Z</time>
      </trkpt>
      <trkpt lat="46.91446" lon="8.62386">
        <ele>466</ele>
        <time>2021-08-07T13:17:57.002Z</time>
      </trkpt>
      <trkpt lat="46.91444" lon="8.62384">
        <ele>466</ele>
        <time>2021-08-07T13:17:58.002Z</time>
      </trkpt>
      <trkpt lat="46.91443" lon="8.62383">
        <ele>466</ele>
        <time>2021-08-07T13:17:59.002Z</time>
      </trkpt>
      <trkpt lat="46.91441" lon="8.62381">
        <ele>466</ele>
        <time>2021-08-07T13:18:00.002Z</time>
      </trkpt>
      <trkpt lat="46.9144" lon="8.6238">
        <ele>466</ele>
        <time>2021-08-07T13:18:01.001Z</time>
      </trkpt>
      <trkpt lat="46.91439" lon="8.62379">
        <ele>466</ele>
        <time>2021-08-07T13:18:02.002Z</time>
      </trkpt>
      <trkpt lat="46.91437" lon="8.62378">
        <ele>466</ele>
        <time>2021-08-07T13:18:03.001Z</time>
      </trkpt>
      <trkpt lat="46.91436" lon="8.62377">
        <ele>466</ele>
        <time>2021-08-07T13:18:04.002Z</time>
      </trkpt>
      <trkpt lat="46.91435" lon="8.62376">
        <ele>466</ele>
        <time>2021-08-07T13:18:05.002Z</time>
      </trkpt>
      <trkpt lat="46.91433" lon="8.62375">
        <ele>466</ele>
        <time>2021-08-07T13:18:06.002Z</time>
      </trkpt>
      <trkpt lat="46.91432" lon="8.62374">
        <ele>466</ele>
        <time>2021-08-07T13:18:07.001Z</time>
      </trkpt>
      <trkpt lat="46.91431" lon="8.62374">
        <ele>466</ele>
        <time>2021-08-07T13:18:08.002Z</time>
      </trkpt>
      <trkpt lat="46.91429" lon="8.62374">
        <ele>465</ele>
        <time>2021-08-07T13:18:09.002Z</time>
      </trkpt>
      <trkpt lat="46.91428" lon="8.62374">
        <ele>465</ele>
        <time>2021-08-07T13:18:39.114Z</time>
      </trkpt>
      <trkpt lat="46.91426" lon="8.62373">
        <ele>465</ele>
        <time>2021-08-07T13:18:40.114Z</time>
      </trkpt>
      <trkpt lat="46.91425" lon="8.62373">
        <ele>464</ele>
        <time>2021-08-07T13:18:41.114Z</time>
      </trkpt>
      <trkpt lat="46.91424" lon="8.62372">
        <ele>464</ele>
        <time>2021-08-07T13:18:42.114Z</time>
      </trkpt>
      <trkpt lat="46.91422" lon="8.62371">
        <ele>464</ele>
        <time>2021-08-07T13:18:43.113Z</time>
      </trkpt>
      <trkpt lat="46.91421" lon="8.6237">
        <ele>463</ele>
        <time>2021-08-07T13:18:44.114Z</time>
      </trkpt>
      <trkpt lat="46.91419" lon="8.62369">
        <ele>463</ele>
        <time>2021-08-07T13:18:45.113Z</time>
      </trkpt>
      <trkpt lat="46.91418" lon="8.62368">
        <ele>464</ele>
        <time>2021-08-07T13:18:46.114Z</time>
      </trkpt>
      <trkpt lat="46.91417" lon="8.62367">
        <ele>464</ele>
        <time>2021-08-07T13:18:47.114Z</time>
      </trkpt>
      <trkpt lat="46.91415" lon="8.62364">
        <ele>464</ele>
        <time>2021-08-07T13:18:48.114Z</time>
      </trkpt>
      <trkpt lat="46.91413" lon="8.62363">
        <ele>465</ele>
        <time>2021-08-07T13:18:49.114Z</time>
      </trkpt>
      <trkpt lat="46.91412" lon="8.62362">
        <ele>465</ele>
        <time>2021-08-07T13:18:50.113Z</time>
      </trkpt>
      <trkpt lat="46.91411" lon="8.62362">
        <ele>465</ele>
        <time>2021-08-07T13:18:51.114Z</time>
      </trkpt>
      <trkpt lat="46.91409" lon="8.62363">
        <ele>465</ele>
        <time>2021-08-07T13:18:52.113Z</time>
      </trkpt>
      <trkpt lat="46.91408" lon="8.62364">
        <ele>465</ele>
        <time>2021-08-07T13:18:53.113Z</time>
      </trkpt>
      <trkpt lat="46.91408" lon="8.62365">
        <ele>465</ele>
        <time>2021-08-07T13:18:54.113Z</time>
      </trkpt>
      <trkpt lat="46.91408" lon="8.62365">
        <ele>465</ele>
        <time>2021-08-07T13:18:55.114Z</time>
      </trkpt>
      <trkpt lat="46.91408" lon="8.62365">
        <ele>465</ele>
        <time>2021-08-07T13:18:56.114Z</time>
      </trkpt>
      <trkpt lat="46.91407" lon="8.62365">
        <ele>465</ele>
        <time>2021-08-07T13:18:57.113Z</time>
      </trkpt>
      <trkpt lat="46.91407" lon="8.62365">
        <ele>465</ele>
        <time>2021-08-07T13:18:58.113Z</time>
      </trkpt>
      <trkpt lat="46.91407" lon="8.62365">
        <ele>465</ele>
        <time>2021-08-07T13:18:59.113Z</time>
      </trkpt>
      <trkpt lat="46.91406" lon="8.62364">
        <ele>464</ele>
        <time>2021-08-07T13:19:00.113Z</time>
      </trkpt>
      <trkpt lat="46.91405" lon="8.62363">
        <ele>464</ele>
        <time>2021-08-07T13:19:01.114Z</time>
      </trkpt>
      <trkpt lat="46.91404" lon="8.62362">
        <ele>464</ele>
        <time>2021-08-07T13:19:02.114Z</time>
      </trkpt>
      <trkpt lat="46.91403" lon="8.6236">
        <ele>464</ele>
        <time>2021-08-07T13:19:03.113Z</time>
      </trkpt>
      <trkpt lat="46.91402" lon="8.62359">
        <ele>464</ele>
        <time>2021-08-07T13:19:04.114Z</time>
      </trkpt>
      <trkpt lat="46.91401" lon="8.62358">
        <ele>465</ele>
        <time>2021-08-07T13:19:05.114Z</time>
      </trkpt>
      <trkpt lat="46.91399" lon="8.62357">
        <ele>465</ele>
        <time>2021-08-07T13:19:06.113Z</time>
      </trkpt>
      <trkpt lat="46.91399" lon="8.62356">
        <ele>466</ele>
        <time>2021-08-07T13:19:07.114Z</time>
      </trkpt>
      <trkpt lat="46.91398" lon="8.62356">
        <ele>466</ele>
        <time>2021-08-07T13:19:08.113Z</time>
      </trkpt>
      <trkpt lat="46.91397" lon="8.62355">
        <ele>466</ele>
        <time>2021-08-07T13:19:09.113Z</time>
      </trkpt>
      <trkpt lat="46.91397" lon="8.62355">
        <ele>467</ele>
        <time>2021-08-07T13:19:10.114Z</time>
      </trkpt>
      <trkpt lat="46.91396" lon="8.62354">
        <ele>467</ele>
        <time>2021-08-07T13:19:11.114Z</time>
      </trkpt>
      <trkpt lat="46.91396" lon="8.62353">
        <ele>467</ele>
        <time>2021-08-07T13:19:12.114Z</time>
      </trkpt>
      <trkpt lat="46.91396" lon="8.62353">
        <ele>467</ele>
        <time>2021-08-07T13:19:13.114Z</time>
      </trkpt>
      <trkpt lat="46.91397" lon="8.62353">
        <ele>467</ele>
        <time>2021-08-07T13:19:14.114Z</time>
      </trkpt>
      <trkpt lat="46.91398" lon="8.62353">
        <ele>468</ele>
        <time>2021-08-07T13:19:15.114Z</time>
      </trkpt>
      <trkpt lat="46.91398" lon="8.62353">
        <ele>468</ele>
        <time>2021-08-07T13:19:16.114Z</time>
      </trkpt>
      <trkpt lat="46.91398" lon="8.62354">
        <ele>469</ele>
        <time>2021-08-07T13:19:17.114Z</time>
      </trkpt>
      <trkpt lat="46.91398" lon="8.62354">
        <ele>469</ele>
        <time>2021-08-07T13:19:18.114Z</time>
      </trkpt>
      <trkpt lat="46.91398" lon="8.62352">
        <ele>469</ele>
        <time>2021-08-07T13:19:19.113Z</time>
      </trkpt>
      <trkpt lat="46.91398" lon="8.6235">
        <ele>470</ele>
        <time>2021-08-07T13:19:20.114Z</time>
      </trkpt>
      <trkpt lat="46.91399" lon="8.6235">
        <ele>469</ele>
        <time>2021-08-07T13:19:21.114Z</time>
      </trkpt>
      <trkpt lat="46.91399" lon="8.6235">
        <ele>469</ele>
        <time>2021-08-07T13:19:22.113Z</time>
      </trkpt>
      <trkpt lat="46.91399" lon="8.6235">
        <ele>469</ele>
        <time>2021-08-07T13:19:23.113Z</time>
      </trkpt>
      <trkpt lat="46.91399" lon="8.6235">
        <ele>469</ele>
        <time>2021-08-07T13:19:24.114Z</time>
      </trkpt>
      <trkpt lat="46.91399" lon="8.6235">
        <ele>468</ele>
        <time>2021-08-07T13:19:25.113Z</time>
      </trkpt>
      <trkpt lat="46.91399" lon="8.62349">
        <ele>468</ele>
        <time>2021-08-07T13:19:26.113Z</time>
      </trkpt>
      <trkpt lat="46.91399" lon="8.62349">
        <ele>468</ele>
        <time>2021-08-07T13:19:27.113Z</time>
      </trkpt>
      <trkpt lat="46.91401" lon="8.62351">
        <ele>468</ele>
        <time>2021-08-07T13:19:28.114Z</time>
      </trkpt>
      <trkpt lat="46.91401" lon="8.62351">
        <ele>468</ele>
        <time>2021-08-07T13:19:29.113Z</time>
      </trkpt>
      <trkpt lat="46.91401" lon="8.6235">
        <ele>468</ele>
        <time>2021-08-07T13:19:30.113Z</time>
      </trkpt>
      <trkpt lat="46.914" lon="8.62349">
        <ele>467</ele>
        <time>2021-08-07T13:19:31.114Z</time>
      </trkpt>
      <trkpt lat="46.914" lon="8.62348">
        <ele>467</ele>
        <time>2021-08-07T13:19:32.113Z</time>
      </trkpt>
      <trkpt lat="46.91399" lon="8.62347">
        <ele>468</ele>
        <time>2021-08-07T13:19:33.114Z</time>
      </trkpt>
      <trkpt lat="46.91398" lon="8.62346">
        <ele>468</ele>
        <time>2021-08-07T13:19:34.113Z</time>
      </trkpt>
      <trkpt lat="46.91397" lon="8.62346">
        <ele>467</ele>
        <time>2021-08-07T13:19:35.114Z</time>
      </trkpt>
      <trkpt lat="46.91395" lon="8.62346">
        <ele>467</ele>
        <time>2021-08-07T13:19:36.114Z</time>
      </trkpt>
      <trkpt lat="46.91394" lon="8.62344">
        <ele>466</ele>
        <time>2021-08-07T13:19:37.113Z</time>
      </trkpt>
      <trkpt lat="46.91394" lon="8.62343">
        <ele>466</ele>
        <time>2021-08-07T13:19:38.113Z</time>
      </trkpt>
      <trkpt lat="46.91393" lon="8.62343">
        <ele>465</ele>
        <time>2021-08-07T13:19:39.114Z</time>
      </trkpt>
      <trkpt lat="46.91392" lon="8.62343">
        <ele>465</ele>
        <time>2021-08-07T13:19:40.113Z</time>
      </trkpt>
      <trkpt lat="46.91392" lon="8.62342">
        <ele>465</ele>
        <time>2021-08-07T13:19:41.113Z</time>
      </trkpt>
      <trkpt lat="46.91392" lon="8.62341">
        <ele>465</ele>
        <time>2021-08-07T13:19:42.113Z</time>
      </trkpt>
      <trkpt lat="46.91392" lon="8.6234">
        <ele>465</ele>
        <time>2021-08-07T13:19:43.114Z</time>
      </trkpt>
      <trkpt lat="46.91392" lon="8.62338">
        <ele>465</ele>
        <time>2021-08-07T13:19:44.113Z</time>
      </trkpt>
      <trkpt lat="46.91393" lon="8.62337">
        <ele>465</ele>
        <time>2021-08-07T13:19:45.113Z</time>
      </trkpt>
      <trkpt lat="46.91394" lon="8.62336">
        <ele>465</ele>
        <time>2021-08-07T13:19:46.113Z</time>
      </trkpt>
      <trkpt lat="46.91394" lon="8.62335">
        <ele>465</ele>
        <time>2021-08-07T13:19:47.114Z</time>
      </trkpt>
      <trkpt lat="46.91395" lon="8.62333">
        <ele>465</ele>
        <time>2021-08-07T13:19:48.113Z</time>
      </trkpt>
      <trkpt lat="46.91395" lon="8.62331">
        <ele>465</ele>
        <time>2021-08-07T13:19:49.113Z</time>
      </trkpt>
      <trkpt lat="46.91395" lon="8.6233">
        <ele>465</ele>
        <time>2021-08-07T13:19:50.113Z</time>
      </trkpt>
      <trkpt lat="46.91395" lon="8.62328">
        <ele>465</ele>
        <time>2021-08-07T13:19:51.113Z</time>
      </trkpt>
      <trkpt lat="46.91395" lon="8.62327">
        <ele>465</ele>
        <time>2021-08-07T13:19:52.114Z</time>
      </trkpt>
      <trkpt lat="46.91395" lon="8.62325">
        <ele>465</ele>
        <time>2021-08-07T13:19:53.114Z</time>
      </trkpt>
      <trkpt lat="46.91396" lon="8.62325">
        <ele>466</ele>
        <time>2021-08-07T13:19:54.114Z</time>
      </trkpt>
      <trkpt lat="46.91395" lon="8.62323">
        <ele>467</ele>
        <time>2021-08-07T13:19:55.113Z</time>
      </trkpt>
      <trkpt lat="46.91394" lon="8.62322">
        <ele>468</ele>
        <time>2021-08-07T13:19:56.114Z</time>
      </trkpt>
      <trkpt lat="46.91393" lon="8.62322">
        <ele>469</ele>
        <time>2021-08-07T13:19:57.113Z</time>
      </trkpt>
      <trkpt lat="46.91391" lon="8.62321">
        <ele>476</ele>
        <time>2021-08-07T13:19:58.113Z</time>
      </trkpt>
      <trkpt lat="46.91391" lon="8.62321">
        <ele>477</ele>
        <time>2021-08-07T13:19:59.114Z</time>
      </trkpt>
      <trkpt lat="46.9139" lon="8.62322">
        <ele>478</ele>
        <time>2021-08-07T13:20:00.113Z</time>
      </trkpt>
      <trkpt lat="46.91389" lon="8.62323">
        <ele>479</ele>
        <time>2021-08-07T13:20:01.114Z</time>
      </trkpt>
      <trkpt lat="46.91388" lon="8.62325">
        <ele>480</ele>
        <time>2021-08-07T13:20:02.115Z</time>
      </trkpt>
      <trkpt lat="46.91388" lon="8.62326">
        <ele>480</ele>
        <time>2021-08-07T13:20:03.114Z</time>
      </trkpt>
      <trkpt lat="46.91387" lon="8.62328">
        <ele>479</ele>
        <time>2021-08-07T13:20:04.114Z</time>
      </trkpt>
      <trkpt lat="46.91387" lon="8.6233">
        <ele>479</ele>
        <time>2021-08-07T13:20:05.115Z</time>
      </trkpt>
      <trkpt lat="46.91386" lon="8.62332">
        <ele>479</ele>
        <time>2021-08-07T13:20:06.114Z</time>
      </trkpt>
      <trkpt lat="46.91386" lon="8.62334">
        <ele>479</ele>
        <time>2021-08-07T13:20:07.114Z</time>
      </trkpt>
      <trkpt lat="46.91386" lon="8.62337">
        <ele>479</ele>
        <time>2021-08-07T13:20:08.114Z</time>
      </trkpt>
      <trkpt lat="46.91386" lon="8.62338">
        <ele>479</ele>
        <time>2021-08-07T13:20:09.114Z</time>
      </trkpt>
      <trkpt lat="46.91386" lon="8.6234">
        <ele>478</ele>
        <time>2021-08-07T13:20:10.115Z</time>
      </trkpt>
      <trkpt lat="46.91386" lon="8.6234">
        <ele>478</ele>
        <time>2021-08-07T13:20:11.115Z</time>
      </trkpt>
      <trkpt lat="46.91386" lon="8.6234">
        <ele>478</ele>
        <time>2021-08-07T13:20:12.115Z</time>
      </trkpt>
      <trkpt lat="46.91387" lon="8.62341">
        <ele>478</ele>
        <time>2021-08-07T13:20:13.115Z</time>
      </trkpt>
      <trkpt lat="46.91387" lon="8.62341">
        <ele>478</ele>
        <time>2021-08-07T13:20:14.115Z</time>
      </trkpt>
      <trkpt lat="46.91387" lon="8.62341">
        <ele>477</ele>
        <time>2021-08-07T13:20:15.115Z</time>
      </trkpt>
      <trkpt lat="46.91388" lon="8.62341">
        <ele>477</ele>
        <time>2021-08-07T13:20:19.131Z</time>
      </trkpt>
      <trkpt lat="46.91388" lon="8.62341">
        <ele>476</ele>
        <time>2021-08-07T13:20:20.131Z</time>
      </trkpt>
      <trkpt lat="46.91388" lon="8.62342">
        <ele>476</ele>
        <time>2021-08-07T13:20:21.130Z</time>
      </trkpt>
      <trkpt lat="46.91389" lon="8.62342">
        <ele>475</ele>
        <time>2021-08-07T13:20:22.131Z</time>
      </trkpt>
      <trkpt lat="46.91389" lon="8.62343">
        <ele>475</ele>
        <time>2021-08-07T13:20:23.130Z</time>
      </trkpt>
      <trkpt lat="46.91389" lon="8.62343">
        <ele>474</ele>
        <time>2021-08-07T13:20:24.130Z</time>
      </trkpt>
      <trkpt lat="46.91389" lon="8.62344">
        <ele>472</ele>
        <time>2021-08-07T13:20:25.131Z</time>
      </trkpt>
      <trkpt lat="46.91389" lon="8.62343">
        <ele>471</ele>
        <time>2021-08-07T13:20:26.131Z</time>
      </trkpt>
      <trkpt lat="46.91388" lon="8.62344">
        <ele>469</ele>
        <time>2021-08-07T13:20:27.130Z</time>
      </trkpt>
      <trkpt lat="46.91388" lon="8.62346">
        <ele>468</ele>
        <time>2021-08-07T13:20:28.131Z</time>
      </trkpt>
      <trkpt lat="46.91387" lon="8.62346">
        <ele>468</ele>
        <time>2021-08-07T13:20:29.130Z</time>
      </trkpt>
      <trkpt lat="46.91386" lon="8.62347">
        <ele>467</ele>
        <time>2021-08-07T13:20:30.130Z</time>
      </trkpt>
      <trkpt lat="46.91386" lon="8.62349">
        <ele>466</ele>
        <time>2021-08-07T13:20:31.131Z</time>
      </trkpt>
      <trkpt lat="46.91386" lon="8.6235">
        <ele>465</ele>
        <time>2021-08-07T13:20:32.130Z</time>
      </trkpt>
      <trkpt lat="46.91386" lon="8.62351">
        <ele>465</ele>
        <time>2021-08-07T13:20:33.131Z</time>
      </trkpt>
      <trkpt lat="46.91385" lon="8.62351">
        <ele>464</ele>
        <time>2021-08-07T13:20:34.130Z</time>
      </trkpt>
      <trkpt lat="46.91385" lon="8.62352">
        <ele>464</ele>
        <time>2021-08-07T13:20:35.131Z</time>
      </trkpt>
      <trkpt lat="46.91384" lon="8.62353">
        <ele>463</ele>
        <time>2021-08-07T13:20:36.131Z</time>
      </trkpt>
      <trkpt lat="46.91384" lon="8.62353">
        <ele>463</ele>
        <time>2021-08-07T13:20:37.130Z</time>
      </trkpt>
      <trkpt lat="46.91383" lon="8.62353">
        <ele>463</ele>
        <time>2021-08-07T13:20:38.130Z</time>
      </trkpt>
      <trkpt lat="46.91383" lon="8.62354">
        <ele>463</ele>
        <time>2021-08-07T13:20:39.130Z</time>
      </trkpt>
      <trkpt lat="46.91382" lon="8.62354">
        <ele>463</ele>
        <time>2021-08-07T13:20:40.130Z</time>
      </trkpt>
      <trkpt lat="46.91382" lon="8.62355">
        <ele>463</ele>
        <time>2021-08-07T13:20:41.131Z</time>
      </trkpt>
      <trkpt lat="46.91382" lon="8.62356">
        <ele>464</ele>
        <time>2021-08-07T13:20:42.131Z</time>
      </trkpt>
      <trkpt lat="46.91382" lon="8.62357">
        <ele>464</ele>
        <time>2021-08-07T13:20:43.131Z</time>
      </trkpt>
      <trkpt lat="46.91369" lon="8.62295">
        <ele>463</ele>
        <time>2021-08-07T13:25:01.383Z</time>
      </trkpt>
      <trkpt lat="46.91369" lon="8.6229">
        <ele>462</ele>
        <time>2021-08-07T13:25:02.383Z</time>
      </trkpt>
      <trkpt lat="46.91377" lon="8.62337">
        <ele>461</ele>
        <time>2021-08-07T13:25:08.527Z</time>
      </trkpt>
      <trkpt lat="46.91378" lon="8.62339">
        <ele>461</ele>
        <time>2021-08-07T13:25:09.526Z</time>
      </trkpt>
      <trkpt lat="46.9138" lon="8.62345">
        <ele>460</ele>
        <time>2021-08-07T13:25:10.526Z</time>
      </trkpt>
      <trkpt lat="46.91381" lon="8.62349">
        <ele>459</ele>
        <time>2021-08-07T13:25:11.526Z</time>
      </trkpt>
      <trkpt lat="46.91382" lon="8.62349">
        <ele>458</ele>
        <time>2021-08-07T13:25:12.527Z</time>
      </trkpt>
      <trkpt lat="46.91383" lon="8.62348">
        <ele>457</ele>
        <time>2021-08-07T13:25:13.527Z</time>
      </trkpt>
      <trkpt lat="46.91383" lon="8.62347">
        <ele>457</ele>
        <time>2021-08-07T13:25:14.527Z</time>
      </trkpt>
      <trkpt lat="46.91384" lon="8.62349">
        <ele>457</ele>
        <time>2021-08-07T13:25:15.527Z</time>
      </trkpt>
      <trkpt lat="46.91385" lon="8.62348">
        <ele>457</ele>
        <time>2021-08-07T13:25:16.527Z</time>
      </trkpt>
      <trkpt lat="46.91385" lon="8.62347">
        <ele>456</ele>
        <time>2021-08-07T13:25:27.611Z</time>
      </trkpt>
      <trkpt lat="46.91385" lon="8.62347">
        <ele>456</ele>
        <time>2021-08-07T13:25:28.610Z</time>
      </trkpt>
      <trkpt lat="46.91385" lon="8.62346">
        <ele>456</ele>
        <time>2021-08-07T13:25:29.610Z</time>
      </trkpt>
      <trkpt lat="46.91383" lon="8.62349">
        <ele>454</ele>
        <time>2021-08-07T13:25:30.610Z</time>
      </trkpt>
      <trkpt lat="46.91383" lon="8.62349">
        <ele>454</ele>
        <time>2021-08-07T13:25:31.611Z</time>
      </trkpt>
      <trkpt lat="46.91383" lon="8.62349">
        <ele>454</ele>
        <time>2021-08-07T13:25:33.753Z</time>
      </trkpt>
      <trkpt lat="46.91383" lon="8.62349">
        <ele>453</ele>
        <time>2021-08-07T13:25:39.484Z</time>
      </trkpt>
      <trkpt lat="46.91383" lon="8.62349">
        <ele>453</ele>
        <time>2021-08-07T13:25:53.261Z</time>
      </trkpt>
      <trkpt lat="46.91383" lon="8.6235">
        <ele>453</ele>
        <time>2021-08-07T13:25:54.261Z</time>
      </trkpt>
      <trkpt lat="46.91383" lon="8.6235">
        <ele>453</ele>
        <time>2021-08-07T13:26:14.999Z</time>
      </trkpt>
      <trkpt lat="46.91384" lon="8.62351">
        <ele>453</ele>
        <time>2021-08-07T13:26:15.999Z</time>
      </trkpt>
      <trkpt lat="46.91385" lon="8.62352">
        <ele>453</ele>
        <time>2021-08-07T13:26:17.728Z</time>
      </trkpt>
      <trkpt lat="46.91385" lon="8.62352">
        <ele>453</ele>
        <time>2021-08-07T13:26:34.508Z</time>
      </trkpt>
      <trkpt lat="46.91387" lon="8.62353">
        <ele>453</ele>
        <time>2021-08-07T13:26:35.507Z</time>
      </trkpt>
      <trkpt lat="46.91388" lon="8.62353">
        <ele>452</ele>
        <time>2021-08-07T13:26:36.507Z</time>
      </trkpt>
      <trkpt lat="46.91389" lon="8.62352">
        <ele>452</ele>
        <time>2021-08-07T13:26:37.508Z</time>
      </trkpt>
      <trkpt lat="46.91389" lon="8.6235">
        <ele>452</ele>
        <time>2021-08-07T13:26:38.508Z</time>
      </trkpt>
      <trkpt lat="46.91388" lon="8.62349">
        <ele>452</ele>
        <time>2021-08-07T13:27:04.608Z</time>
      </trkpt>
      <trkpt lat="46.91387" lon="8.62349">
        <ele>452</ele>
        <time>2021-08-07T13:27:26.371Z</time>
      </trkpt>
      <trkpt lat="46.91388" lon="8.6235">
        <ele>452</ele>
        <time>2021-08-07T13:27:27.371Z</time>
      </trkpt>
      <trkpt lat="46.91388" lon="8.62356">
        <ele>450</ele>
        <time>2021-08-07T13:27:28.372Z</time>
      </trkpt>
      <trkpt lat="46.91388" lon="8.62357">
        <ele>449</ele>
        <time>2021-08-07T13:27:29.372Z</time>
      </trkpt>
      <trkpt lat="46.91388" lon="8.62358">
        <ele>448</ele>
        <time>2021-08-07T13:27:30.371Z</time>
      </trkpt>
      <trkpt lat="46.91388" lon="8.62358">
        <ele>448</ele>
        <time>2021-08-07T13:27:31.371Z</time>
      </trkpt>
      <trkpt lat="46.91388" lon="8.62359">
        <ele>447</ele>
        <time>2021-08-07T13:27:32.372Z</time>
      </trkpt>
      <trkpt lat="46.91387" lon="8.62358">
        <ele>447</ele>
        <time>2021-08-07T13:27:38.478Z</time>
      </trkpt>
      <trkpt lat="46.91387" lon="8.62358">
        <ele>446</ele>
        <time>2021-08-07T13:27:45.264Z</time>
      </trkpt>
      <trkpt lat="46.91387" lon="8.62359">
        <ele>446</ele>
        <time>2021-08-07T13:27:46.264Z</time>
      </trkpt>
      <trkpt lat="46.91388" lon="8.6236">
        <ele>444</ele>
        <time>2021-08-07T13:27:47.264Z</time>
      </trkpt>
      <trkpt lat="46.91388" lon="8.6236">
        <ele>444</ele>
        <time>2021-08-07T13:27:48.263Z</time>
      </trkpt>
      <trkpt lat="46.91387" lon="8.62359">
        <ele>443</ele>
        <time>2021-08-07T13:27:49.263Z</time>
      </trkpt>
      <trkpt lat="46.91387" lon="8.62359">
        <ele>442</ele>
        <time>2021-08-07T13:27:50.264Z</time>
      </trkpt>
      <trkpt lat="46.91386" lon="8.62357">
        <ele>432</ele>
        <time>2021-08-07T13:27:51.265Z</time>
      </trkpt>
      <trkpt lat="46.91387" lon="8.62357">
        <ele>431</ele>
        <time>2021-08-07T13:27:52.264Z</time>
      </trkpt>
      <trkpt lat="46.9139" lon="8.62356">
        <ele>427</ele>
        <time>2021-08-07T13:27:53.265Z</time>
      </trkpt>
      <trkpt lat="46.91393" lon="8.62358">
        <ele>428</ele>
        <time>2021-08-07T13:27:54.264Z</time>
      </trkpt>
      <trkpt lat="46.91397" lon="8.62359">
        <ele>428</ele>
        <time>2021-08-07T13:27:55.264Z</time>
      </trkpt>
      <trkpt lat="46.91401" lon="8.62362">
        <ele>428</ele>
        <time>2021-08-07T13:27:56.265Z</time>
      </trkpt>
      <trkpt lat="46.91403" lon="8.62364">
        <ele>427</ele>
        <time>2021-08-07T13:27:57.264Z</time>
      </trkpt>
      <trkpt lat="46.91404" lon="8.62364">
        <ele>427</ele>
        <time>2021-08-07T13:27:58.265Z</time>
      </trkpt>
      <trkpt lat="46.91405" lon="8.62368">
        <ele>427</ele>
        <time>2021-08-07T13:27:59.264Z</time>
      </trkpt>
      <trkpt lat="46.91402" lon="8.62368">
        <ele>427</ele>
        <time>2021-08-07T13:28:00.265Z</time>
      </trkpt>
      <trkpt lat="46.91403" lon="8.62372">
        <ele>427</ele>
        <time>2021-08-07T13:28:01.265Z</time>
      </trkpt>
      <trkpt lat="46.91404" lon="8.62374">
        <ele>427</ele>
        <time>2021-08-07T13:28:02.265Z</time>
      </trkpt>
      <trkpt lat="46.91405" lon="8.62375">
        <ele>427</ele>
        <time>2021-08-07T13:28:03.265Z</time>
      </trkpt>
      <trkpt lat="46.91405" lon="8.62375">
        <ele>427</ele>
        <time>2021-08-07T13:28:04.265Z</time>
      </trkpt>
      <trkpt lat="46.91404" lon="8.62374">
        <ele>427</ele>
        <time>2021-08-07T13:28:05.264Z</time>
      </trkpt>
      <trkpt lat="46.91403" lon="8.62373">
        <ele>427</ele>
        <time>2021-08-07T13:28:06.265Z</time>
      </trkpt>
      <trkpt lat="46.91401" lon="8.62373">
        <ele>427</ele>
        <time>2021-08-07T13:28:07.265Z</time>
      </trkpt>
      <trkpt lat="46.914" lon="8.62373">
        <ele>427</ele>
        <time>2021-08-07T13:28:08.265Z</time>
      </trkpt>
      <trkpt lat="46.91397" lon="8.6237">
        <ele>428</ele>
        <time>2021-08-07T13:28:09.266Z</time>
      </trkpt>
      <trkpt lat="46.91396" lon="8.6237">
        <ele>428</ele>
        <time>2021-08-07T13:28:10.267Z</time>
      </trkpt>
      <trkpt lat="46.91395" lon="8.6237">
        <ele>428</ele>
        <time>2021-08-07T13:28:11.266Z</time>
      </trkpt>
      <trkpt lat="46.91395" lon="8.62369">
        <ele>428</ele>
        <time>2021-08-07T13:28:12.267Z</time>
      </trkpt>
      <trkpt lat="46.91394" lon="8.62369">
        <ele>428</ele>
        <time>2021-08-07T13:28:13.267Z</time>
      </trkpt>
      <trkpt lat="46.91393" lon="8.62371">
        <ele>429</ele>
        <time>2021-08-07T13:28:14.267Z</time>
      </trkpt>
      <trkpt lat="46.9139" lon="8.62366">
        <ele>429</ele>
        <time>2021-08-07T13:28:15.266Z</time>
      </trkpt>
      <trkpt lat="46.91389" lon="8.62365">
        <ele>429</ele>
        <time>2021-08-07T13:28:16.267Z</time>
      </trkpt>
      <trkpt lat="46.91389" lon="8.62364">
        <ele>429</ele>
        <time>2021-08-07T13:28:17.266Z</time>
      </trkpt>
      <trkpt lat="46.91389" lon="8.62363">
        <ele>429</ele>
        <time>2021-08-07T13:28:18.267Z</time>
      </trkpt>
      <trkpt lat="46.91388" lon="8.62362">
        <ele>429</ele>
        <time>2021-08-07T13:28:19.267Z</time>
      </trkpt>
      <trkpt lat="46.91384" lon="8.62363">
        <ele>430</ele>
        <time>2021-08-07T13:28:20.267Z</time>
      </trkpt>
      <trkpt lat="46.91384" lon="8.62363">
        <ele>430</ele>
        <time>2021-08-07T13:28:21.267Z</time>
      </trkpt>
      <trkpt lat="46.91384" lon="8.62364">
        <ele>430</ele>
        <time>2021-08-07T13:28:22.266Z</time>
      </trkpt>
      <trkpt lat="46.91383" lon="8.62364">
        <ele>430</ele>
        <time>2021-08-07T13:28:23.266Z</time>
      </trkpt>
      <trkpt lat="46.91382" lon="8.62364">
        <ele>431</ele>
        <time>2021-08-07T13:28:24.267Z</time>
      </trkpt>
      <trkpt lat="46.91382" lon="8.62364">
        <ele>431</ele>
        <time>2021-08-07T13:28:25.267Z</time>
      </trkpt>
      <trkpt lat="46.91383" lon="8.62364">
        <ele>431</ele>
        <time>2021-08-07T13:28:26.267Z</time>
      </trkpt>
      <trkpt lat="46.91383" lon="8.62365">
        <ele>432</ele>
        <time>2021-08-07T13:28:27.266Z</time>
      </trkpt>
      <trkpt lat="46.91383" lon="8.62366">
        <ele>432</ele>
        <time>2021-08-07T13:28:28.267Z</time>
      </trkpt>
      <trkpt lat="46.91382" lon="8.62366">
        <ele>433</ele>
        <time>2021-08-07T13:28:29.266Z</time>
      </trkpt>
      <trkpt lat="46.91382" lon="8.62367">
        <ele>433</ele>
        <time>2021-08-07T13:28:30.267Z</time>
      </trkpt>
      <trkpt lat="46.91382" lon="8.62369">
        <ele>434</ele>
        <time>2021-08-07T13:28:31.267Z</time>
      </trkpt>
      <trkpt lat="46.91382" lon="8.6237">
        <ele>434</ele>
        <time>2021-08-07T13:28:32.267Z</time>
      </trkpt>
      <trkpt lat="46.91381" lon="8.62368">
        <ele>435</ele>
        <time>2021-08-07T13:28:33.267Z</time>
      </trkpt>
      <trkpt lat="46.91381" lon="8.62367">
        <ele>436</ele>
        <time>2021-08-07T13:28:34.267Z</time>
      </trkpt>
      <trkpt lat="46.91382" lon="8.62367">
        <ele>436</ele>
        <time>2021-08-07T13:28:35.266Z</time>
      </trkpt>
      <trkpt lat="46.91382" lon="8.62366">
        <ele>437</ele>
        <time>2021-08-07T13:28:36.266Z</time>
      </trkpt>
      <trkpt lat="46.91382" lon="8.62365">
        <ele>437</ele>
        <time>2021-08-07T13:28:37.266Z</time>
      </trkpt>
      <trkpt lat="46.91382" lon="8.62365">
        <ele>438</ele>
        <time>2021-08-07T13:28:38.266Z</time>
      </trkpt>
      <trkpt lat="46.91382" lon="8.62365">
        <ele>438</ele>
        <time>2021-08-07T13:28:39.267Z</time>
      </trkpt>
      <trkpt lat="46.91383" lon="8.62365">
        <ele>439</ele>
        <time>2021-08-07T13:28:40.266Z</time>
      </trkpt>
      <trkpt lat="46.91383" lon="8.62365">
        <ele>439</ele>
        <time>2021-08-07T13:28:41.267Z</time>
      </trkpt>
      <trkpt lat="46.91384" lon="8.62365">
        <ele>440</ele>
        <time>2021-08-07T13:28:42.267Z</time>
      </trkpt>
      <trkpt lat="46.91384" lon="8.62364">
        <ele>442</ele>
        <time>2021-08-07T13:28:43.267Z</time>
      </trkpt>
      <trkpt lat="46.91384" lon="8.62364">
        <ele>443</ele>
        <time>2021-08-07T13:28:44.267Z</time>
      </trkpt>
      <trkpt lat="46.91384" lon="8.62364">
        <ele>445</ele>
        <time>2021-08-07T13:28:45.267Z</time>
      </trkpt>
      <trkpt lat="46.91384" lon="8.62363">
        <ele>446</ele>
        <time>2021-08-07T13:28:46.266Z</time>
      </trkpt>
      <trkpt lat="46.91384" lon="8.62362">
        <ele>455</ele>
        <time>2021-08-07T13:28:47.266Z</time>
      </trkpt>
      <trkpt lat="46.91384" lon="8.62362">
        <ele>456</ele>
        <time>2021-08-07T13:28:48.266Z</time>
      </trkpt>
      <trkpt lat="46.91384" lon="8.62362">
        <ele>457</ele>
        <time>2021-08-07T13:28:49.266Z</time>
      </trkpt>
      <trkpt lat="46.91381" lon="8.62351">
        <ele>464</ele>
        <time>2021-08-07T13:28:50.267Z</time>
      </trkpt>
      <trkpt lat="46.91381" lon="8.6235">
        <ele>465</ele>
        <time>2021-08-07T13:28:51.267Z</time>
      </trkpt>
      <trkpt lat="46.91379" lon="8.62347">
        <ele>466</ele>
        <time>2021-08-07T13:28:52.268Z</time>
      </trkpt>
      <trkpt lat="46.91379" lon="8.6234">
        <ele>468</ele>
        <time>2021-08-07T13:28:53.269Z</time>
      </trkpt>
      <trkpt lat="46.91379" lon="8.62341">
        <ele>467</ele>
        <time>2021-08-07T13:28:54.270Z</time>
      </trkpt>
      <trkpt lat="46.91379" lon="8.62342">
        <ele>467</ele>
        <time>2021-08-07T13:28:55.270Z</time>
      </trkpt>
      <trkpt lat="46.91379" lon="8.62343">
        <ele>466</ele>
        <time>2021-08-07T13:28:56.269Z</time>
      </trkpt>
      <trkpt lat="46.9138" lon="8.62344">
        <ele>466</ele>
        <time>2021-08-07T13:28:57.269Z</time>
      </trkpt>
      <trkpt lat="46.91382" lon="8.62343">
        <ele>465</ele>
        <time>2021-08-07T13:28:58.270Z</time>
      </trkpt>
      <trkpt lat="46.91382" lon="8.62342">
        <ele>465</ele>
        <time>2021-08-07T13:28:59.269Z</time>
      </trkpt>
      <trkpt lat="46.91381" lon="8.62341">
        <ele>465</ele>
        <time>2021-08-07T13:29:00.270Z</time>
      </trkpt>
      <trkpt lat="46.91381" lon="8.62338">
        <ele>465</ele>
        <time>2021-08-07T13:29:01.270Z</time>
      </trkpt>
      <trkpt lat="46.9138" lon="8.62336">
        <ele>465</ele>
        <time>2021-08-07T13:29:02.270Z</time>
      </trkpt>
      <trkpt lat="46.91379" lon="8.62334">
        <ele>465</ele>
        <time>2021-08-07T13:29:03.269Z</time>
      </trkpt>
      <trkpt lat="46.91379" lon="8.62334">
        <ele>464</ele>
        <time>2021-08-07T13:29:04.269Z</time>
      </trkpt>
      <trkpt lat="46.91379" lon="8.62335">
        <ele>464</ele>
        <time>2021-08-07T13:29:05.270Z</time>
      </trkpt>
      <trkpt lat="46.91379" lon="8.62334">
        <ele>464</ele>
        <time>2021-08-07T13:29:06.270Z</time>
      </trkpt>
      <trkpt lat="46.91379" lon="8.62332">
        <ele>464</ele>
        <time>2021-08-07T13:29:07.270Z</time>
      </trkpt>
      <trkpt lat="46.91379" lon="8.62331">
        <ele>464</ele>
        <time>2021-08-07T13:29:08.269Z</time>
      </trkpt>
      <trkpt lat="46.91379" lon="8.62331">
        <ele>464</ele>
        <time>2021-08-07T13:29:09.269Z</time>
      </trkpt>
      <trkpt lat="46.91379" lon="8.62331">
        <ele>464</ele>
        <time>2021-08-07T13:29:10.269Z</time>
      </trkpt>
      <trkpt lat="46.9138" lon="8.62331">
        <ele>464</ele>
        <time>2021-08-07T13:29:11.269Z</time>
      </trkpt>
      <trkpt lat="46.9138" lon="8.62331">
        <ele>464</ele>
        <time>2021-08-07T13:29:12.269Z</time>
      </trkpt>
      <trkpt lat="46.91379" lon="8.62331">
        <ele>464</ele>
        <time>2021-08-07T13:29:13.270Z</time>
      </trkpt>
      <trkpt lat="46.91379" lon="8.62332">
        <ele>464</ele>
        <time>2021-08-07T13:29:14.270Z</time>
      </trkpt>
      <trkpt lat="46.91379" lon="8.62331">
        <ele>464</ele>
        <time>2021-08-07T13:29:15.269Z</time>
      </trkpt>
      <trkpt lat="46.91378" lon="8.62331">
        <ele>464</ele>
        <time>2021-08-07T13:29:16.269Z</time>
      </trkpt>
      <trkpt lat="46.91378" lon="8.62331">
        <ele>464</ele>
        <time>2021-08-07T13:29:17.269Z</time>
      </trkpt>
      <trkpt lat="46.91377" lon="8.62331">
        <ele>464</ele>
        <time>2021-08-07T13:29:18.269Z</time>
      </trkpt>
      <trkpt lat="46.91377" lon="8.6233">
        <ele>464</ele>
        <time>2021-08-07T13:29:19.269Z</time>
      </trkpt>
      <trkpt lat="46.91377" lon="8.62329">
        <ele>464</ele>
        <time>2021-08-07T13:29:20.270Z</time>
      </trkpt>
      <trkpt lat="46.91376" lon="8.62329">
        <ele>464</ele>
        <time>2021-08-07T13:29:21.269Z</time>
      </trkpt>
      <trkpt lat="46.91376" lon="8.62328">
        <ele>464</ele>
        <time>2021-08-07T13:29:22.269Z</time>
      </trkpt>
      <trkpt lat="46.91376" lon="8.62328">
        <ele>464</ele>
        <time>2021-08-07T13:29:24.397Z</time>
      </trkpt>
      <trkpt lat="46.91376" lon="8.62327">
        <ele>464</ele>
        <time>2021-08-07T13:29:29.149Z</time>
      </trkpt>
      <trkpt lat="46.91375" lon="8.62326">
        <ele>464</ele>
        <time>2021-08-07T13:29:30.148Z</time>
      </trkpt>
      <trkpt lat="46.91374" lon="8.62324">
        <ele>464</ele>
        <time>2021-08-07T13:29:31.148Z</time>
      </trkpt>
      <trkpt lat="46.91374" lon="8.62324">
        <ele>464</ele>
        <time>2021-08-07T13:29:32.148Z</time>
      </trkpt>
      <trkpt lat="46.91374" lon="8.62326">
        <ele>464</ele>
        <time>2021-08-07T13:29:33.148Z</time>
      </trkpt>
      <trkpt lat="46.91374" lon="8.62327">
        <ele>464</ele>
        <time>2021-08-07T13:29:37.260Z</time>
      </trkpt>
      <trkpt lat="46.91374" lon="8.62327">
        <ele>464</ele>
        <time>2021-08-07T13:29:38.967Z</time>
      </trkpt>
      <trkpt lat="46.91375" lon="8.62327">
        <ele>464</ele>
        <time>2021-08-07T13:29:39.967Z</time>
      </trkpt>
      <trkpt lat="46.91375" lon="8.62326">
        <ele>464</ele>
        <time>2021-08-07T13:29:40.968Z</time>
      </trkpt>
      <trkpt lat="46.91376" lon="8.62325">
        <ele>464</ele>
        <time>2021-08-07T13:29:41.967Z</time>
      </trkpt>
      <trkpt lat="46.91376" lon="8.62324">
        <ele>464</ele>
        <time>2021-08-07T13:29:42.967Z</time>
      </trkpt>
      <trkpt lat="46.91377" lon="8.62324">
        <ele>464</ele>
        <time>2021-08-07T13:29:45.968Z</time>
      </trkpt>
      <trkpt lat="46.91378" lon="8.62324">
        <ele>464</ele>
        <time>2021-08-07T13:29:46.967Z</time>
      </trkpt>
      <trkpt lat="46.91378" lon="8.62323">
        <ele>464</ele>
        <time>2021-08-07T13:30:06.750Z</time>
      </trkpt>
      <trkpt lat="46.91379" lon="8.62323">
        <ele>464</ele>
        <time>2021-08-07T13:30:07.749Z</time>
      </trkpt>
      <trkpt lat="46.91378" lon="8.62322">
        <ele>464</ele>
        <time>2021-08-07T13:30:11.522Z</time>
      </trkpt>
      <trkpt lat="46.91378" lon="8.62322">
        <ele>464</ele>
        <time>2021-08-07T13:30:12.523Z</time>
      </trkpt>
      <trkpt lat="46.91378" lon="8.62322">
        <ele>464</ele>
        <time>2021-08-07T13:30:13.523Z</time>
      </trkpt>
      <trkpt lat="46.91378" lon="8.62322">
        <ele>465</ele>
        <time>2021-08-07T13:30:14.523Z</time>
      </trkpt>
      <trkpt lat="46.91378" lon="8.62322">
        <ele>465</ele>
        <time>2021-08-07T13:30:15.523Z</time>
      </trkpt>
      <trkpt lat="46.91378" lon="8.62323">
        <ele>465</ele>
        <time>2021-08-07T13:30:16.522Z</time>
      </trkpt>
      <trkpt lat="46.91379" lon="8.62325">
        <ele>465</ele>
        <time>2021-08-07T13:30:17.522Z</time>
      </trkpt>
      <trkpt lat="46.9138" lon="8.62326">
        <ele>465</ele>
        <time>2021-08-07T13:30:18.523Z</time>
      </trkpt>
      <trkpt lat="46.9138" lon="8.62326">
        <ele>465</ele>
        <time>2021-08-07T13:30:19.523Z</time>
      </trkpt>
      <trkpt lat="46.91381" lon="8.62326">
        <ele>465</ele>
        <time>2021-08-07T13:30:20.523Z</time>
      </trkpt>
      <trkpt lat="46.91382" lon="8.62327">
        <ele>465</ele>
        <time>2021-08-07T13:30:21.523Z</time>
      </trkpt>
      <trkpt lat="46.91383" lon="8.62328">
        <ele>464</ele>
        <time>2021-08-07T13:30:22.523Z</time>
      </trkpt>
      <trkpt lat="46.91383" lon="8.62329">
        <ele>465</ele>
        <time>2021-08-07T13:30:23.522Z</time>
      </trkpt>
      <trkpt lat="46.91383" lon="8.6233">
        <ele>465</ele>
        <time>2021-08-07T13:30:24.523Z</time>
      </trkpt>
      <trkpt lat="46.91383" lon="8.62331">
        <ele>466</ele>
        <time>2021-08-07T13:30:25.523Z</time>
      </trkpt>
      <trkpt lat="46.91383" lon="8.62334">
        <ele>466</ele>
        <time>2021-08-07T13:30:26.522Z</time>
      </trkpt>
      <trkpt lat="46.91383" lon="8.62337">
        <ele>466</ele>
        <time>2021-08-07T13:30:27.523Z</time>
      </trkpt>
      <trkpt lat="46.91383" lon="8.6234">
        <ele>467</ele>
        <time>2021-08-07T13:30:28.523Z</time>
      </trkpt>
      <trkpt lat="46.91384" lon="8.62341">
        <ele>467</ele>
        <time>2021-08-07T13:30:29.523Z</time>
      </trkpt>
      <trkpt lat="46.91384" lon="8.62342">
        <ele>467</ele>
        <time>2021-08-07T13:30:30.523Z</time>
      </trkpt>
      <trkpt lat="46.91385" lon="8.62342">
        <ele>467</ele>
        <time>2021-08-07T13:30:31.523Z</time>
      </trkpt>
      <trkpt lat="46.91385" lon="8.62343">
        <ele>467</ele>
        <time>2021-08-07T13:30:32.522Z</time>
      </trkpt>
      <trkpt lat="46.91385" lon="8.62344">
        <ele>467</ele>
        <time>2021-08-07T13:30:33.522Z</time>
      </trkpt>
      <trkpt lat="46.91384" lon="8.62345">
        <ele>467</ele>
        <time>2021-08-07T13:30:34.523Z</time>
      </trkpt>
      <trkpt lat="46.91383" lon="8.62345">
        <ele>466</ele>
        <time>2021-08-07T13:30:35.523Z</time>
      </trkpt>
      <trkpt lat="46.91382" lon="8.62346">
        <ele>467</ele>
        <time>2021-08-07T13:30:36.523Z</time>
      </trkpt>
      <trkpt lat="46.91382" lon="8.62348">
        <ele>467</ele>
        <time>2021-08-07T13:30:37.523Z</time>
      </trkpt>
      <trkpt lat="46.91383" lon="8.6235">
        <ele>467</ele>
        <time>2021-08-07T13:30:38.523Z</time>
      </trkpt>
      <trkpt lat="46.91383" lon="8.62351">
        <ele>467</ele>
        <time>2021-08-07T13:30:39.523Z</time>
      </trkpt>
      <trkpt lat="46.91383" lon="8.62353">
        <ele>466</ele>
        <time>2021-08-07T13:30:40.522Z</time>
      </trkpt>
      <trkpt lat="46.91382" lon="8.62354">
        <ele>466</ele>
        <time>2021-08-07T13:30:41.523Z</time>
      </trkpt>
      <trkpt lat="46.9138" lon="8.62347">
        <ele>464</ele>
        <time>2021-08-07T13:30:46.523Z</time>
      </trkpt>
      <trkpt lat="46.9138" lon="8.62349">
        <ele>464</ele>
        <time>2021-08-07T13:30:47.524Z</time>
      </trkpt>
      <trkpt lat="46.9138" lon="8.62349">
        <ele>463</ele>
        <time>2021-08-07T13:30:48.524Z</time>
      </trkpt>
      <trkpt lat="46.9138" lon="8.62348">
        <ele>463</ele>
        <time>2021-08-07T13:30:49.523Z</time>
      </trkpt>
      <trkpt lat="46.9138" lon="8.62349">
        <ele>463</ele>
        <time>2021-08-07T13:30:50.524Z</time>
      </trkpt>
      <trkpt lat="46.91381" lon="8.62349">
        <ele>463</ele>
        <time>2021-08-07T13:30:51.524Z</time>
      </trkpt>
      <trkpt lat="46.91381" lon="8.62349">
        <ele>463</ele>
        <time>2021-08-07T13:30:52.524Z</time>
      </trkpt>
      <trkpt lat="46.91381" lon="8.62349">
        <ele>463</ele>
        <time>2021-08-07T13:30:53.524Z</time>
      </trkpt>
      <trkpt lat="46.91381" lon="8.62349">
        <ele>463</ele>
        <time>2021-08-07T13:30:54.523Z</time>
      </trkpt>
      <trkpt lat="46.91381" lon="8.6235">
        <ele>463</ele>
        <time>2021-08-07T13:30:55.524Z</time>
      </trkpt>
      <trkpt lat="46.91381" lon="8.6235">
        <ele>463</ele>
        <time>2021-08-07T13:30:56.523Z</time>
      </trkpt>
      <trkpt lat="46.91381" lon="8.6235">
        <ele>463</ele>
        <time>2021-08-07T13:31:00.612Z</time>
      </trkpt>
      <trkpt lat="46.91381" lon="8.6235">
        <ele>463</ele>
        <time>2021-08-07T13:31:01.612Z</time>
      </trkpt>
      <trkpt lat="46.91381" lon="8.6235">
        <ele>463</ele>
        <time>2021-08-07T13:31:02.612Z</time>
      </trkpt>
      <trkpt lat="46.91381" lon="8.6235">
        <ele>463</ele>
        <time>2021-08-07T13:31:03.611Z</time>
      </trkpt>
      <trkpt lat="46.91381" lon="8.6235">
        <ele>463</ele>
        <time>2021-08-07T13:31:04.612Z</time>
      </trkpt>
      <trkpt lat="46.9138" lon="8.62351">
        <ele>463</ele>
        <time>2021-08-07T13:31:13.758Z</time>
      </trkpt>
      <trkpt lat="46.9138" lon="8.62352">
        <ele>464</ele>
        <time>2021-08-07T13:31:14.758Z</time>
      </trkpt>
      <trkpt lat="46.91379" lon="8.62353">
        <ele>464</ele>
        <time>2021-08-07T13:31:15.758Z</time>
      </trkpt>
      <trkpt lat="46.91379" lon="8.62354">
        <ele>464</ele>
        <time>2021-08-07T13:31:16.758Z</time>
      </trkpt>
      <trkpt lat="46.91379" lon="8.62355">
        <ele>464</ele>
        <time>2021-08-07T13:31:17.758Z</time>
      </trkpt>
      <trkpt lat="46.91379" lon="8.62355">
        <ele>465</ele>
        <time>2021-08-07T13:31:18.757Z</time>
      </trkpt>
      <trkpt lat="46.91379" lon="8.62355">
        <ele>465</ele>
        <time>2021-08-07T13:31:19.758Z</time>
      </trkpt>
      <trkpt lat="46.91379" lon="8.62356">
        <ele>465</ele>
        <time>2021-08-07T13:31:20.757Z</time>
      </trkpt>
      <trkpt lat="46.91379" lon="8.62357">
        <ele>465</ele>
        <time>2021-08-07T13:31:21.758Z</time>
      </trkpt>
      <trkpt lat="46.91382" lon="8.62358">
        <ele>466</ele>
        <time>2021-08-07T13:33:51.104Z</time>
      </trkpt>
      <trkpt lat="46.91388" lon="8.62372">
        <ele>466</ele>
        <time>2021-08-07T13:33:55.121Z</time>
      </trkpt>
      <trkpt lat="46.91389" lon="8.62366">
        <ele>466</ele>
        <time>2021-08-07T13:33:56.121Z</time>
      </trkpt>
      <trkpt lat="46.91391" lon="8.62359">
        <ele>466</ele>
        <time>2021-08-07T13:33:57.122Z</time>
      </trkpt>
      <trkpt lat="46.91392" lon="8.62364">
        <ele>467</ele>
        <time>2021-08-07T13:33:58.121Z</time>
      </trkpt>
      <trkpt lat="46.91391" lon="8.6236">
        <ele>467</ele>
        <time>2021-08-07T13:33:59.122Z</time>
      </trkpt>
      <trkpt lat="46.9139" lon="8.62355">
        <ele>467</ele>
        <time>2021-08-07T13:34:00.121Z</time>
      </trkpt>
      <trkpt lat="46.91389" lon="8.62353">
        <ele>467</ele>
        <time>2021-08-07T13:34:01.122Z</time>
      </trkpt>
      <trkpt lat="46.91388" lon="8.62351">
        <ele>467</ele>
        <time>2021-08-07T13:34:02.122Z</time>
      </trkpt>
      <trkpt lat="46.91388" lon="8.62351">
        <ele>467</ele>
        <time>2021-08-07T13:34:03.121Z</time>
      </trkpt>
      <trkpt lat="46.91388" lon="8.6235">
        <ele>468</ele>
        <time>2021-08-07T13:34:04.123Z</time>
      </trkpt>
      <trkpt lat="46.91388" lon="8.62349">
        <ele>470</ele>
        <time>2021-08-07T13:34:05.124Z</time>
      </trkpt>
      <trkpt lat="46.91389" lon="8.62349">
        <ele>470</ele>
        <time>2021-08-07T13:34:06.124Z</time>
      </trkpt>
      <trkpt lat="46.91389" lon="8.6235">
        <ele>471</ele>
        <time>2021-08-07T13:34:07.123Z</time>
      </trkpt>
      <trkpt lat="46.91389" lon="8.6235">
        <ele>471</ele>
        <time>2021-08-07T13:34:08.123Z</time>
      </trkpt>
      <trkpt lat="46.91389" lon="8.62351">
        <ele>471</ele>
        <time>2021-08-07T13:34:09.124Z</time>
      </trkpt>
      <trkpt lat="46.91392" lon="8.6236">
        <ele>469</ele>
        <time>2021-08-07T13:34:10.123Z</time>
      </trkpt>
      <trkpt lat="46.91392" lon="8.6236">
        <ele>468</ele>
        <time>2021-08-07T13:34:11.123Z</time>
      </trkpt>
      <trkpt lat="46.91392" lon="8.6236">
        <ele>468</ele>
        <time>2021-08-07T13:34:12.123Z</time>
      </trkpt>
      <trkpt lat="46.91393" lon="8.62362">
        <ele>464</ele>
        <time>2021-08-07T13:34:13.123Z</time>
      </trkpt>
      <trkpt lat="46.91393" lon="8.62362">
        <ele>463</ele>
        <time>2021-08-07T13:34:14.123Z</time>
      </trkpt>
      <trkpt lat="46.91393" lon="8.62363">
        <ele>462</ele>
        <time>2021-08-07T13:34:15.124Z</time>
      </trkpt>
      <trkpt lat="46.91393" lon="8.62362">
        <ele>462</ele>
        <time>2021-08-07T13:34:18.215Z</time>
      </trkpt>
      <trkpt lat="46.91393" lon="8.62362">
        <ele>461</ele>
        <time>2021-08-07T13:34:19.215Z</time>
      </trkpt>
      <trkpt lat="46.91393" lon="8.62362">
        <ele>460</ele>
        <time>2021-08-07T13:34:20.215Z</time>
      </trkpt>
      <trkpt lat="46.91393" lon="8.62363">
        <ele>459</ele>
        <time>2021-08-07T13:34:21.214Z</time>
      </trkpt>
      <trkpt lat="46.91393" lon="8.62363">
        <ele>458</ele>
        <time>2021-08-07T13:34:22.214Z</time>
      </trkpt>
      <trkpt lat="46.91393" lon="8.62363">
        <ele>457</ele>
        <time>2021-08-07T13:34:23.214Z</time>
      </trkpt>
      <trkpt lat="46.91392" lon="8.62359">
        <ele>454</ele>
        <time>2021-08-07T13:34:24.215Z</time>
      </trkpt>
      <trkpt lat="46.91391" lon="8.62358">
        <ele>454</ele>
        <time>2021-08-07T13:34:25.215Z</time>
      </trkpt>
      <trkpt lat="46.9139" lon="8.62357">
        <ele>454</ele>
        <time>2021-08-07T13:34:26.216Z</time>
      </trkpt>
      <trkpt lat="46.91389" lon="8.62357">
        <ele>454</ele>
        <time>2021-08-07T13:34:27.216Z</time>
      </trkpt>
      <trkpt lat="46.91388" lon="8.62356">
        <ele>455</ele>
        <time>2021-08-07T13:34:28.216Z</time>
      </trkpt>
      <trkpt lat="46.91388" lon="8.62357">
        <ele>455</ele>
        <time>2021-08-07T13:34:29.215Z</time>
      </trkpt>
      <trkpt lat="46.91388" lon="8.62358">
        <ele>455</ele>
        <time>2021-08-07T13:34:30.215Z</time>
      </trkpt>
      <trkpt lat="46.91388" lon="8.62358">
        <ele>455</ele>
        <time>2021-08-07T13:34:31.215Z</time>
      </trkpt>
      <trkpt lat="46.91387" lon="8.62358">
        <ele>456</ele>
        <time>2021-08-07T13:34:32.215Z</time>
      </trkpt>
      <trkpt lat="46.91387" lon="8.62359">
        <ele>456</ele>
        <time>2021-08-07T13:34:33.215Z</time>
      </trkpt>
      <trkpt lat="46.91386" lon="8.62358">
        <ele>456</ele>
        <time>2021-08-07T13:34:34.216Z</time>
      </trkpt>
      <trkpt lat="46.91385" lon="8.62357">
        <ele>457</ele>
        <time>2021-08-07T13:34:35.215Z</time>
      </trkpt>
      <trkpt lat="46.91384" lon="8.62356">
        <ele>457</ele>
        <time>2021-08-07T13:34:36.215Z</time>
      </trkpt>
      <trkpt lat="46.91383" lon="8.62355">
        <ele>457</ele>
        <time>2021-08-07T13:34:37.216Z</time>
      </trkpt>
      <trkpt lat="46.91383" lon="8.62353">
        <ele>458</ele>
        <time>2021-08-07T13:34:38.215Z</time>
      </trkpt>
      <trkpt lat="46.91382" lon="8.62351">
        <ele>458</ele>
        <time>2021-08-07T13:34:39.215Z</time>
      </trkpt>
      <trkpt lat="46.91383" lon="8.62349">
        <ele>458</ele>
        <time>2021-08-07T13:34:40.215Z</time>
      </trkpt>
      <trkpt lat="46.91384" lon="8.62348">
        <ele>458</ele>
        <time>2021-08-07T13:34:41.216Z</time>
      </trkpt>
      <trkpt lat="46.91385" lon="8.62348">
        <ele>458</ele>
        <time>2021-08-07T13:34:42.215Z</time>
      </trkpt>
      <trkpt lat="46.91386" lon="8.62348">
        <ele>459</ele>
        <time>2021-08-07T13:34:43.216Z</time>
      </trkpt>
      <trkpt lat="46.91386" lon="8.62348">
        <ele>459</ele>
        <time>2021-08-07T13:34:44.216Z</time>
      </trkpt>
      <trkpt lat="46.91387" lon="8.62348">
        <ele>459</ele>
        <time>2021-08-07T13:34:45.216Z</time>
      </trkpt>
      <trkpt lat="46.91387" lon="8.62349">
        <ele>459</ele>
        <time>2021-08-07T13:34:46.216Z</time>
      </trkpt>
      <trkpt lat="46.91386" lon="8.62352">
        <ele>459</ele>
        <time>2021-08-07T13:34:47.216Z</time>
      </trkpt>
      <trkpt lat="46.91386" lon="8.62353">
        <ele>459</ele>
        <time>2021-08-07T13:34:48.215Z</time>
      </trkpt>
      <trkpt lat="46.91385" lon="8.62354">
        <ele>460</ele>
        <time>2021-08-07T13:34:49.215Z</time>
      </trkpt>
      <trkpt lat="46.91384" lon="8.62354">
        <ele>460</ele>
        <time>2021-08-07T13:34:50.216Z</time>
      </trkpt>
      <trkpt lat="46.91384" lon="8.62354">
        <ele>460</ele>
        <time>2021-08-07T13:34:51.216Z</time>
      </trkpt>
      <trkpt lat="46.91384" lon="8.62355">
        <ele>460</ele>
        <time>2021-08-07T13:34:52.215Z</time>
      </trkpt>
      <trkpt lat="46.91384" lon="8.62355">
        <ele>460</ele>
        <time>2021-08-07T13:34:53.216Z</time>
      </trkpt>
      <trkpt lat="46.91384" lon="8.62355">
        <ele>461</ele>
        <time>2021-08-07T13:34:54.215Z</time>
      </trkpt>
      <trkpt lat="46.91385" lon="8.62355">
        <ele>461</ele>
        <time>2021-08-07T13:34:55.216Z</time>
      </trkpt>
      <trkpt lat="46.91385" lon="8.62354">
        <ele>461</ele>
        <time>2021-08-07T13:34:56.215Z</time>
      </trkpt>
      <trkpt lat="46.91386" lon="8.62355">
        <ele>461</ele>
        <time>2021-08-07T13:34:57.216Z</time>
      </trkpt>
      <trkpt lat="46.91386" lon="8.62355">
        <ele>462</ele>
        <time>2021-08-07T13:34:58.215Z</time>
      </trkpt>
      <trkpt lat="46.91387" lon="8.62356">
        <ele>462</ele>
        <time>2021-08-07T13:34:59.216Z</time>
      </trkpt>
      <trkpt lat="46.91388" lon="8.62356">
        <ele>462</ele>
        <time>2021-08-07T13:35:00.215Z</time>
      </trkpt>
      <trkpt lat="46.91389" lon="8.62356">
        <ele>462</ele>
        <time>2021-08-07T13:35:01.216Z</time>
      </trkpt>
      <trkpt lat="46.91389" lon="8.62357">
        <ele>462</ele>
        <time>2021-08-07T13:35:02.215Z</time>
      </trkpt>
      <trkpt lat="46.91389" lon="8.62358">
        <ele>462</ele>
        <time>2021-08-07T13:35:03.216Z</time>
      </trkpt>
      <trkpt lat="46.9139" lon="8.62359">
        <ele>462</ele>
        <time>2021-08-07T13:35:04.216Z</time>
      </trkpt>
      <trkpt lat="46.91392" lon="8.6236">
        <ele>462</ele>
        <time>2021-08-07T13:35:05.216Z</time>
      </trkpt>
      <trkpt lat="46.91394" lon="8.62362">
        <ele>462</ele>
        <time>2021-08-07T13:35:06.215Z</time>
      </trkpt>
      <trkpt lat="46.91396" lon="8.62363">
        <ele>462</ele>
        <time>2021-08-07T13:35:07.215Z</time>
      </trkpt>
      <trkpt lat="46.91397" lon="8.62364">
        <ele>462</ele>
        <time>2021-08-07T13:35:08.215Z</time>
      </trkpt>
      <trkpt lat="46.91398" lon="8.62366">
        <ele>462</ele>
        <time>2021-08-07T13:35:09.215Z</time>
      </trkpt>
      <trkpt lat="46.91397" lon="8.62367">
        <ele>462</ele>
        <time>2021-08-07T13:35:10.215Z</time>
      </trkpt>
      <trkpt lat="46.91393" lon="8.6237">
        <ele>462</ele>
        <time>2021-08-07T13:35:11.215Z</time>
      </trkpt>
      <trkpt lat="46.91392" lon="8.62374">
        <ele>462</ele>
        <time>2021-08-07T13:35:12.215Z</time>
      </trkpt>
      <trkpt lat="46.91391" lon="8.6238">
        <ele>462</ele>
        <time>2021-08-07T13:35:23.233Z</time>
      </trkpt>
      <trkpt lat="46.91389" lon="8.62384">
        <ele>462</ele>
        <time>2021-08-07T13:35:24.233Z</time>
      </trkpt>
      <trkpt lat="46.91387" lon="8.62385">
        <ele>461</ele>
        <time>2021-08-07T13:35:26.233Z</time>
      </trkpt>
      <trkpt lat="46.91385" lon="8.62384">
        <ele>461</ele>
        <time>2021-08-07T13:35:27.232Z</time>
      </trkpt>
      <trkpt lat="46.91386" lon="8.62383">
        <ele>461</ele>
        <time>2021-08-07T13:35:28.232Z</time>
      </trkpt>
      <trkpt lat="46.91387" lon="8.62383">
        <ele>461</ele>
        <time>2021-08-07T13:35:29.233Z</time>
      </trkpt>
      <trkpt lat="46.91389" lon="8.62383">
        <ele>461</ele>
        <time>2021-08-07T13:35:30.233Z</time>
      </trkpt>
      <trkpt lat="46.91391" lon="8.62383">
        <ele>461</ele>
        <time>2021-08-07T13:35:33.235Z</time>
      </trkpt>
      <trkpt lat="46.91392" lon="8.62382">
        <ele>461</ele>
        <time>2021-08-07T13:35:34.235Z</time>
      </trkpt>
      <trkpt lat="46.91393" lon="8.62382">
        <ele>461</ele>
        <time>2021-08-07T13:35:35.234Z</time>
      </trkpt>
      <trkpt lat="46.91393" lon="8.62381">
        <ele>461</ele>
        <time>2021-08-07T13:35:36.234Z</time>
      </trkpt>
      <trkpt lat="46.91394" lon="8.62379">
        <ele>461</ele>
        <time>2021-08-07T13:35:44.249Z</time>
      </trkpt>
      <trkpt lat="46.91394" lon="8.62377">
        <ele>461</ele>
        <time>2021-08-07T13:35:45.249Z</time>
      </trkpt>
      <trkpt lat="46.91396" lon="8.62377">
        <ele>461</ele>
        <time>2021-08-07T13:35:46.249Z</time>
      </trkpt>
      <trkpt lat="46.91397" lon="8.62378">
        <ele>461</ele>
        <time>2021-08-07T13:35:47.249Z</time>
      </trkpt>
      <trkpt lat="46.91398" lon="8.6238">
        <ele>461</ele>
        <time>2021-08-07T13:35:50.249Z</time>
      </trkpt>
      <trkpt lat="46.91398" lon="8.62381">
        <ele>461</ele>
        <time>2021-08-07T13:35:51.250Z</time>
      </trkpt>
      <trkpt lat="46.91398" lon="8.62376">
        <ele>461</ele>
        <time>2021-08-07T13:35:53.249Z</time>
      </trkpt>
      <trkpt lat="46.91399" lon="8.62373">
        <ele>461</ele>
        <time>2021-08-07T13:35:54.250Z</time>
      </trkpt>
      <trkpt lat="46.914" lon="8.62372">
        <ele>461</ele>
        <time>2021-08-07T13:35:55.250Z</time>
      </trkpt>
      <trkpt lat="46.91401" lon="8.62371">
        <ele>461</ele>
        <time>2021-08-07T13:35:56.250Z</time>
      </trkpt>
      <trkpt lat="46.91401" lon="8.6237">
        <ele>461</ele>
        <time>2021-08-07T13:35:57.249Z</time>
      </trkpt>
      <trkpt lat="46.91399" lon="8.62373">
        <ele>461</ele>
        <time>2021-08-07T13:35:59.249Z</time>
      </trkpt>
      <trkpt lat="46.91398" lon="8.62373">
        <ele>461</ele>
        <time>2021-08-07T13:36:00.249Z</time>
      </trkpt>
      <trkpt lat="46.91396" lon="8.62373">
        <ele>461</ele>
        <time>2021-08-07T13:36:01.249Z</time>
      </trkpt>
      <trkpt lat="46.91396" lon="8.62373">
        <ele>461</ele>
        <time>2021-08-07T13:36:02.249Z</time>
      </trkpt>
      <trkpt lat="46.91396" lon="8.62373">
        <ele>461</ele>
        <time>2021-08-07T13:36:03.250Z</time>
      </trkpt>
      <trkpt lat="46.91396" lon="8.62373">
        <ele>460</ele>
        <time>2021-08-07T13:36:04.250Z</time>
      </trkpt>
      <trkpt lat="46.91396" lon="8.62374">
        <ele>460</ele>
        <time>2021-08-07T13:36:05.250Z</time>
      </trkpt>
      <trkpt lat="46.91396" lon="8.62379">
        <ele>460</ele>
        <time>2021-08-07T13:36:06.249Z</time>
      </trkpt>
      <trkpt lat="46.91396" lon="8.62388">
        <ele>460</ele>
        <time>2021-08-07T13:36:07.249Z</time>
      </trkpt>
      <trkpt lat="46.91396" lon="8.62394">
        <ele>460</ele>
        <time>2021-08-07T13:36:18.292Z</time>
      </trkpt>
      <trkpt lat="46.91395" lon="8.62397">
        <ele>460</ele>
        <time>2021-08-07T13:36:19.292Z</time>
      </trkpt>
      <trkpt lat="46.91395" lon="8.62399">
        <ele>460</ele>
        <time>2021-08-07T13:36:20.291Z</time>
      </trkpt>
      <trkpt lat="46.91394" lon="8.62399">
        <ele>460</ele>
        <time>2021-08-07T13:36:21.292Z</time>
      </trkpt>
      <trkpt lat="46.91393" lon="8.624">
        <ele>460</ele>
        <time>2021-08-07T13:36:22.291Z</time>
      </trkpt>
      <trkpt lat="46.91393" lon="8.62401">
        <ele>460</ele>
        <time>2021-08-07T13:36:23.292Z</time>
      </trkpt>
      <trkpt lat="46.91392" lon="8.62401">
        <ele>460</ele>
        <time>2021-08-07T13:36:24.292Z</time>
      </trkpt>
      <trkpt lat="46.91392" lon="8.62401">
        <ele>460</ele>
        <time>2021-08-07T13:36:25.291Z</time>
      </trkpt>
      <trkpt lat="46.91391" lon="8.62401">
        <ele>460</ele>
        <time>2021-08-07T13:36:26.292Z</time>
      </trkpt>
      <trkpt lat="46.91391" lon="8.624">
        <ele>460</ele>
        <time>2021-08-07T13:36:27.292Z</time>
      </trkpt>
      <trkpt lat="46.91391" lon="8.624">
        <ele>460</ele>
        <time>2021-08-07T13:36:28.291Z</time>
      </trkpt>
      <trkpt lat="46.91392" lon="8.624">
        <ele>460</ele>
        <time>2021-08-07T13:36:29.291Z</time>
      </trkpt>
      <trkpt lat="46.91392" lon="8.62402">
        <ele>460</ele>
        <time>2021-08-07T13:36:30.291Z</time>
      </trkpt>
      <trkpt lat="46.91392" lon="8.62404">
        <ele>460</ele>
        <time>2021-08-07T13:36:31.291Z</time>
      </trkpt>
      <trkpt lat="46.91391" lon="8.62405">
        <ele>460</ele>
        <time>2021-08-07T13:36:32.292Z</time>
      </trkpt>
      <trkpt lat="46.91391" lon="8.62404">
        <ele>460</ele>
        <time>2021-08-07T13:36:33.292Z</time>
      </trkpt>
      <trkpt lat="46.9139" lon="8.62405">
        <ele>460</ele>
        <time>2021-08-07T13:36:34.291Z</time>
      </trkpt>
      <trkpt lat="46.9139" lon="8.62406">
        <ele>460</ele>
        <time>2021-08-07T13:36:35.291Z</time>
      </trkpt>
      <trkpt lat="46.9139" lon="8.62404">
        <ele>460</ele>
        <time>2021-08-07T13:36:36.291Z</time>
      </trkpt>
      <trkpt lat="46.9139" lon="8.62402">
        <ele>460</ele>
        <time>2021-08-07T13:36:37.291Z</time>
      </trkpt>
      <trkpt lat="46.9139" lon="8.62401">
        <ele>460</ele>
        <time>2021-08-07T13:36:38.292Z</time>
      </trkpt>
      <trkpt lat="46.9139" lon="8.624">
        <ele>460</ele>
        <time>2021-08-07T13:36:39.292Z</time>
      </trkpt>
      <trkpt lat="46.9139" lon="8.62397">
        <ele>460</ele>
        <time>2021-08-07T13:36:40.292Z</time>
      </trkpt>
      <trkpt lat="46.9139" lon="8.62397">
        <ele>460</ele>
        <time>2021-08-07T13:36:41.291Z</time>
      </trkpt>
      <trkpt lat="46.9139" lon="8.62398">
        <ele>460</ele>
        <time>2021-08-07T13:36:42.292Z</time>
      </trkpt>
      <trkpt lat="46.9139" lon="8.62399">
        <ele>460</ele>
        <time>2021-08-07T13:36:55.369Z</time>
      </trkpt>
      <trkpt lat="46.91391" lon="8.62402">
        <ele>460</ele>
        <time>2021-08-07T13:36:56.369Z</time>
      </trkpt>
      <trkpt lat="46.91391" lon="8.62403">
        <ele>460</ele>
        <time>2021-08-07T13:36:57.369Z</time>
      </trkpt>
      <trkpt lat="46.91391" lon="8.62404">
        <ele>460</ele>
        <time>2021-08-07T13:36:58.370Z</time>
      </trkpt>
      <trkpt lat="46.9139" lon="8.62404">
        <ele>460</ele>
        <time>2021-08-07T13:36:59.369Z</time>
      </trkpt>
      <trkpt lat="46.91389" lon="8.62403">
        <ele>460</ele>
        <time>2021-08-07T13:37:04.481Z</time>
      </trkpt>
      <trkpt lat="46.91389" lon="8.62401">
        <ele>460</ele>
        <time>2021-08-07T13:37:05.480Z</time>
      </trkpt>
      <trkpt lat="46.91388" lon="8.62402">
        <ele>460</ele>
        <time>2021-08-07T13:37:06.481Z</time>
      </trkpt>
      <trkpt lat="46.91387" lon="8.62404">
        <ele>460</ele>
        <time>2021-08-07T13:37:07.481Z</time>
      </trkpt>
      <trkpt lat="46.91387" lon="8.62404">
        <ele>460</ele>
        <time>2021-08-07T13:37:15.632Z</time>
      </trkpt>
      <trkpt lat="46.91388" lon="8.62405">
        <ele>460</ele>
        <time>2021-08-07T13:37:16.631Z</time>
      </trkpt>
      <trkpt lat="46.91389" lon="8.62405">
        <ele>460</ele>
        <time>2021-08-07T13:37:25.495Z</time>
      </trkpt>
      <trkpt lat="46.91388" lon="8.62405">
        <ele>460</ele>
        <time>2021-08-07T13:37:26.495Z</time>
      </trkpt>
      <trkpt lat="46.91388" lon="8.62402">
        <ele>460</ele>
        <time>2021-08-07T13:37:27.494Z</time>
      </trkpt>
      <trkpt lat="46.91388" lon="8.62401">
        <ele>460</ele>
        <time>2021-08-07T13:37:35.514Z</time>
      </trkpt>
      <trkpt lat="46.91388" lon="8.624">
        <ele>460</ele>
        <time>2021-08-07T13:37:36.514Z</time>
      </trkpt>
      <trkpt lat="46.91388" lon="8.62397">
        <ele>460</ele>
        <time>2021-08-07T13:37:37.514Z</time>
      </trkpt>
      <trkpt lat="46.91389" lon="8.62395">
        <ele>460</ele>
        <time>2021-08-07T13:37:38.514Z</time>
      </trkpt>
      <trkpt lat="46.91389" lon="8.62394">
        <ele>460</ele>
        <time>2021-08-07T13:37:39.514Z</time>
      </trkpt>
      <trkpt lat="46.914" lon="8.62413">
        <ele>460</ele>
        <time>2021-08-07T13:38:30.515Z</time>
      </trkpt>
      <trkpt lat="46.91391" lon="8.62374">
        <ele>460</ele>
        <time>2021-08-07T13:38:35.514Z</time>
      </trkpt>
      <trkpt lat="46.91384" lon="8.6235">
        <ele>460</ele>
        <time>2021-08-07T13:38:36.515Z</time>
      </trkpt>
      <trkpt lat="46.91379" lon="8.62342">
        <ele>460</ele>
        <time>2021-08-07T13:38:37.514Z</time>
      </trkpt>
      <trkpt lat="46.91375" lon="8.62312">
        <ele>460</ele>
        <time>2021-08-07T13:39:06.356Z</time>
      </trkpt>
      <trkpt lat="46.91374" lon="8.62308">
        <ele>460</ele>
        <time>2021-08-07T13:39:07.357Z</time>
      </trkpt>
      <trkpt lat="46.91375" lon="8.62325">
        <ele>460</ele>
        <time>2021-08-07T13:39:08.357Z</time>
      </trkpt>
      <trkpt lat="46.91374" lon="8.62318">
        <ele>460</ele>
        <time>2021-08-07T13:39:09.357Z</time>
      </trkpt>
      <trkpt lat="46.91374" lon="8.62313">
        <ele>460</ele>
        <time>2021-08-07T13:39:11.357Z</time>
      </trkpt>
      <trkpt lat="46.91379" lon="8.62323">
        <ele>459</ele>
        <time>2021-08-07T13:39:12.356Z</time>
      </trkpt>
      <trkpt lat="46.91379" lon="8.62324">
        <ele>459</ele>
        <time>2021-08-07T13:39:13.357Z</time>
      </trkpt>
      <trkpt lat="46.91379" lon="8.62325">
        <ele>459</ele>
        <time>2021-08-07T13:39:14.356Z</time>
      </trkpt>
      <trkpt lat="46.91378" lon="8.62325">
        <ele>459</ele>
        <time>2021-08-07T13:39:15.357Z</time>
      </trkpt>
      <trkpt lat="46.91378" lon="8.62324">
        <ele>459</ele>
        <time>2021-08-07T13:39:16.357Z</time>
      </trkpt>
      <trkpt lat="46.91378" lon="8.62326">
        <ele>459</ele>
        <time>2021-08-07T13:39:17.357Z</time>
      </trkpt>
      <trkpt lat="46.91378" lon="8.62327">
        <ele>459</ele>
        <time>2021-08-07T13:39:18.356Z</time>
      </trkpt>
      <trkpt lat="46.91378" lon="8.62328">
        <ele>460</ele>
        <time>2021-08-07T13:39:19.357Z</time>
      </trkpt>
      <trkpt lat="46.91378" lon="8.62328">
        <ele>460</ele>
        <time>2021-08-07T13:39:20.357Z</time>
      </trkpt>
      <trkpt lat="46.91378" lon="8.62329">
        <ele>461</ele>
        <time>2021-08-07T13:39:21.356Z</time>
      </trkpt>
      <trkpt lat="46.91379" lon="8.6233">
        <ele>461</ele>
        <time>2021-08-07T13:39:22.357Z</time>
      </trkpt>
      <trkpt lat="46.9138" lon="8.62331">
        <ele>462</ele>
        <time>2021-08-07T13:39:23.356Z</time>
      </trkpt>
      <trkpt lat="46.91379" lon="8.62331">
        <ele>462</ele>
        <time>2021-08-07T13:39:25.470Z</time>
      </trkpt>
      <trkpt lat="46.91378" lon="8.62332">
        <ele>462</ele>
        <time>2021-08-07T13:39:26.471Z</time>
      </trkpt>
      <trkpt lat="46.91376" lon="8.6233">
        <ele>462</ele>
        <time>2021-08-07T13:39:29.224Z</time>
      </trkpt>
      <trkpt lat="46.91375" lon="8.6233">
        <ele>462</ele>
        <time>2021-08-07T13:39:30.224Z</time>
      </trkpt>
      <trkpt lat="46.91374" lon="8.62334">
        <ele>462</ele>
        <time>2021-08-07T13:39:31.224Z</time>
      </trkpt>
      <trkpt lat="46.91374" lon="8.62337">
        <ele>462</ele>
        <time>2021-08-07T13:39:35.266Z</time>
      </trkpt>
      <trkpt lat="46.91375" lon="8.62341">
        <ele>462</ele>
        <time>2021-08-07T13:39:36.266Z</time>
      </trkpt>
      <trkpt lat="46.91375" lon="8.62344">
        <ele>462</ele>
        <time>2021-08-07T13:39:37.266Z</time>
      </trkpt>
      <trkpt lat="46.91377" lon="8.62347">
        <ele>462</ele>
        <time>2021-08-07T13:39:38.267Z</time>
      </trkpt>
      <trkpt lat="46.91378" lon="8.62349">
        <ele>462</ele>
        <time>2021-08-07T13:39:40.376Z</time>
      </trkpt>
      <trkpt lat="46.91379" lon="8.62349">
        <ele>462</ele>
        <time>2021-08-07T13:39:41.376Z</time>
      </trkpt>
      <trkpt lat="46.9138" lon="8.62348">
        <ele>462</ele>
        <time>2021-08-07T13:39:42.376Z</time>
      </trkpt>
      <trkpt lat="46.91381" lon="8.62349">
        <ele>462</ele>
        <time>2021-08-07T13:39:43.376Z</time>
      </trkpt>
      <trkpt lat="46.91381" lon="8.62349">
        <ele>462</ele>
        <time>2021-08-07T13:39:44.376Z</time>
      </trkpt>
      <trkpt lat="46.91381" lon="8.62346">
        <ele>463</ele>
        <time>2021-08-07T13:39:45.376Z</time>
      </trkpt>
      <trkpt lat="46.91381" lon="8.6234">
        <ele>463</ele>
        <time>2021-08-07T13:39:46.377Z</time>
      </trkpt>
      <trkpt lat="46.91381" lon="8.62338">
        <ele>463</ele>
        <time>2021-08-07T13:39:47.377Z</time>
      </trkpt>
      <trkpt lat="46.91382" lon="8.62336">
        <ele>463</ele>
        <time>2021-08-07T13:39:48.376Z</time>
      </trkpt>
      <trkpt lat="46.91382" lon="8.62333">
        <ele>463</ele>
        <time>2021-08-07T13:39:49.377Z</time>
      </trkpt>
      <trkpt lat="46.91383" lon="8.62335">
        <ele>464</ele>
        <time>2021-08-07T13:39:50.376Z</time>
      </trkpt>
      <trkpt lat="46.91383" lon="8.62338">
        <ele>464</ele>
        <time>2021-08-07T13:39:51.377Z</time>
      </trkpt>
      <trkpt lat="46.91383" lon="8.62339">
        <ele>464</ele>
        <time>2021-08-07T13:39:59.539Z</time>
      </trkpt>
      <trkpt lat="46.91382" lon="8.62338">
        <ele>464</ele>
        <time>2021-08-07T13:40:00.540Z</time>
      </trkpt>
      <trkpt lat="46.91382" lon="8.62337">
        <ele>464</ele>
        <time>2021-08-07T13:40:08.387Z</time>
      </trkpt>
      <trkpt lat="46.91382" lon="8.62336">
        <ele>464</ele>
        <time>2021-08-07T13:40:09.386Z</time>
      </trkpt>
      <trkpt lat="46.91383" lon="8.62336">
        <ele>464</ele>
        <time>2021-08-07T13:40:10.387Z</time>
      </trkpt>
      <trkpt lat="46.91383" lon="8.62336">
        <ele>465</ele>
        <time>2021-08-07T13:40:11.387Z</time>
      </trkpt>
      <trkpt lat="46.91383" lon="8.62337">
        <ele>465</ele>
        <time>2021-08-07T13:40:12.387Z</time>
      </trkpt>
      <trkpt lat="46.91382" lon="8.6234">
        <ele>465</ele>
        <time>2021-08-07T13:40:13.387Z</time>
      </trkpt>
      <trkpt lat="46.91382" lon="8.62342">
        <ele>465</ele>
        <time>2021-08-07T13:40:27.511Z</time>
      </trkpt>
      <trkpt lat="46.91382" lon="8.62345">
        <ele>464</ele>
        <time>2021-08-07T13:40:28.511Z</time>
      </trkpt>
      <trkpt lat="46.91382" lon="8.62346">
        <ele>464</ele>
        <time>2021-08-07T13:40:29.511Z</time>
      </trkpt>
      <trkpt lat="46.91381" lon="8.62348">
        <ele>464</ele>
        <time>2021-08-07T13:40:30.511Z</time>
      </trkpt>
      <trkpt lat="46.91381" lon="8.62348">
        <ele>463</ele>
        <time>2021-08-07T13:40:57.633Z</time>
      </trkpt>
      <trkpt lat="46.91381" lon="8.62349">
        <ele>463</ele>
        <time>2021-08-07T13:40:58.633Z</time>
      </trkpt>
      <trkpt lat="46.91382" lon="8.62353">
        <ele>463</ele>
        <time>2021-08-07T13:40:59.633Z</time>
      </trkpt>
      <trkpt lat="46.91382" lon="8.62355">
        <ele>463</ele>
        <time>2021-08-07T13:41:06.738Z</time>
      </trkpt>
      <trkpt lat="46.91382" lon="8.62356">
        <ele>463</ele>
        <time>2021-08-07T13:41:07.737Z</time>
      </trkpt>
      <trkpt lat="46.91381" lon="8.62353">
        <ele>462</ele>
        <time>2021-08-07T13:41:23.850Z</time>
      </trkpt>
      <trkpt lat="46.9138" lon="8.62349">
        <ele>462</ele>
        <time>2021-08-07T13:41:24.849Z</time>
      </trkpt>
      <trkpt lat="46.9138" lon="8.6235">
        <ele>462</ele>
        <time>2021-08-07T13:41:25.849Z</time>
      </trkpt>
      <trkpt lat="46.91381" lon="8.62352">
        <ele>462</ele>
        <time>2021-08-07T13:41:31.725Z</time>
      </trkpt>
      <trkpt lat="46.91382" lon="8.62354">
        <ele>462</ele>
        <time>2021-08-07T13:41:32.725Z</time>
      </trkpt>
      <trkpt lat="46.91383" lon="8.62356">
        <ele>462</ele>
        <time>2021-08-07T13:41:33.725Z</time>
      </trkpt>
      <trkpt lat="46.91383" lon="8.62356">
        <ele>462</ele>
        <time>2021-08-07T13:41:34.725Z</time>
      </trkpt>
      <trkpt lat="46.91384" lon="8.62356">
        <ele>461</ele>
        <time>2021-08-07T13:41:35.725Z</time>
      </trkpt>
      <trkpt lat="46.91385" lon="8.62357">
        <ele>461</ele>
        <time>2021-08-07T13:41:47.897Z</time>
      </trkpt>
      <trkpt lat="46.91385" lon="8.62358">
        <ele>461</ele>
        <time>2021-08-07T13:41:48.898Z</time>
      </trkpt>
      <trkpt lat="46.91385" lon="8.62358">
        <ele>460</ele>
        <time>2021-08-07T13:41:49.897Z</time>
      </trkpt>
      <trkpt lat="46.91385" lon="8.62358">
        <ele>460</ele>
        <time>2021-08-07T13:41:50.898Z</time>
      </trkpt>
      <trkpt lat="46.91384" lon="8.62358">
        <ele>460</ele>
        <time>2021-08-07T13:41:52.989Z</time>
      </trkpt>
      <trkpt lat="46.91384" lon="8.62358">
        <ele>460</ele>
        <time>2021-08-07T13:41:53.989Z</time>
      </trkpt>
      <trkpt lat="46.91384" lon="8.62359">
        <ele>460</ele>
        <time>2021-08-07T13:42:01.739Z</time>
      </trkpt>
      <trkpt lat="46.91384" lon="8.62359">
        <ele>461</ele>
        <time>2021-08-07T13:42:02.739Z</time>
      </trkpt>
      <trkpt lat="46.91384" lon="8.6236">
        <ele>461</ele>
        <time>2021-08-07T13:42:14.508Z</time>
      </trkpt>
      <trkpt lat="46.91384" lon="8.62361">
        <ele>461</ele>
        <time>2021-08-07T13:42:15.508Z</time>
      </trkpt>
      <trkpt lat="46.91384" lon="8.6236">
        <ele>461</ele>
        <time>2021-08-07T13:42:45.389Z</time>
      </trkpt>
      <trkpt lat="46.91383" lon="8.62362">
        <ele>461</ele>
        <time>2021-08-07T13:43:03.365Z</time>
      </trkpt>
      <trkpt lat="46.91382" lon="8.62361">
        <ele>461</ele>
        <time>2021-08-07T13:43:08.109Z</time>
      </trkpt>
      <trkpt lat="46.9138" lon="8.62361">
        <ele>461</ele>
        <time>2021-08-07T13:43:09.108Z</time>
      </trkpt>
      <trkpt lat="46.91379" lon="8.62361">
        <ele>461</ele>
        <time>2021-08-07T13:43:10.109Z</time>
      </trkpt>
      <trkpt lat="46.91379" lon="8.62361">
        <ele>461</ele>
        <time>2021-08-07T13:43:11.108Z</time>
      </trkpt>
      <trkpt lat="46.91378" lon="8.62436">
        <ele>461</ele>
        <time>2021-08-07T13:45:08.511Z</time>
      </trkpt>
      <trkpt lat="46.9138" lon="8.62441">
        <ele>461</ele>
        <time>2021-08-07T13:45:09.510Z</time>
      </trkpt>
      <trkpt lat="46.9138" lon="8.6246">
        <ele>461</ele>
        <time>2021-08-07T13:45:10.511Z</time>
      </trkpt>
      <trkpt lat="46.91388" lon="8.62455">
        <ele>462</ele>
        <time>2021-08-07T13:45:11.511Z</time>
      </trkpt>
      <trkpt lat="46.91392" lon="8.62438">
        <ele>462</ele>
        <time>2021-08-07T13:45:13.511Z</time>
      </trkpt>
      <trkpt lat="46.91397" lon="8.6242">
        <ele>463</ele>
        <time>2021-08-07T13:45:14.510Z</time>
      </trkpt>
      <trkpt lat="46.91399" lon="8.62409">
        <ele>463</ele>
        <time>2021-08-07T13:45:15.511Z</time>
      </trkpt>
      <trkpt lat="46.91411" lon="8.62392">
        <ele>464</ele>
        <time>2021-08-07T13:45:20.511Z</time>
      </trkpt>
      <trkpt lat="46.91402" lon="8.62408">
        <ele>464</ele>
        <time>2021-08-07T13:45:36.609Z</time>
      </trkpt>
      <trkpt lat="46.91401" lon="8.62414">
        <ele>464</ele>
        <time>2021-08-07T13:45:37.608Z</time>
      </trkpt>
      <trkpt lat="46.91401" lon="8.62411">
        <ele>465</ele>
        <time>2021-08-07T13:45:38.609Z</time>
      </trkpt>
    </trkseg>
  </trk>
</gpx>